<?xml version="1.0" encoding="UTF-8" standalone="no" ?>
<gpx xmlns="http://www.topografix.com/GPX/1/1" xmlns:xsi="http://www.w3.org/2001/XMLSchema-instance" xsi:schemaLocation="http://www.topografix.com/GPX/1/1 http://www.topografix.com/GPX/1/1/gpx.xsd" version="1.1" creator="VisuGPX - https://www.visugpx.com">
  <metadata>
    <name>2023-05-27 07:02:05 [Wahoo]</name>
    <desc><![CDATA[Parcours Pouvourville-Castres]]></desc>
  </metadata>
  <trk>
    <name><![CDATA[2023-05-27 07:02:05 [Wahoo]_1]]></name>
    <trkseg>
      <trkpt lat="43.54545" lon="1.46016">
        <ele>227.5</ele>
        <time>2023-05-27T05:02:05Z</time>
      </trkpt>
      <trkpt lat="43.54543" lon="1.46013">
        <ele>228.1</ele>
        <time>2023-05-27T05:02:06Z</time>
      </trkpt>
      <trkpt lat="43.54529" lon="1.46004">
        <ele>232</ele>
        <time>2023-05-27T05:02:14Z</time>
      </trkpt>
      <trkpt lat="43.54529" lon="1.46003">
        <ele>232.2</ele>
        <time>2023-05-27T05:02:15Z</time>
      </trkpt>
      <trkpt lat="43.5453" lon="1.46002">
        <ele>232.2</ele>
        <time>2023-05-27T05:02:16Z</time>
      </trkpt>
      <trkpt lat="43.5453" lon="1.46002">
        <ele>232.2</ele>
        <time>2023-05-27T05:02:17Z</time>
      </trkpt>
      <trkpt lat="43.5453" lon="1.46002">
        <ele>232.2</ele>
        <time>2023-05-27T05:02:18Z</time>
      </trkpt>
      <trkpt lat="43.54531" lon="1.46002">
        <ele>232</ele>
        <time>2023-05-27T05:02:19Z</time>
      </trkpt>
      <trkpt lat="43.54532" lon="1.46001">
        <ele>231.9</ele>
        <time>2023-05-27T05:02:20Z</time>
      </trkpt>
      <trkpt lat="43.54532" lon="1.46001">
        <ele>231.9</ele>
        <time>2023-05-27T05:02:21Z</time>
      </trkpt>
      <trkpt lat="43.54531" lon="1.46002">
        <ele>232</ele>
        <time>2023-05-27T05:02:22Z</time>
      </trkpt>
      <trkpt lat="43.54532" lon="1.46002">
        <ele>231.8</ele>
        <time>2023-05-27T05:02:23Z</time>
      </trkpt>
      <trkpt lat="43.54532" lon="1.46002">
        <ele>231.8</ele>
        <time>2023-05-27T05:02:24Z</time>
      </trkpt>
      <trkpt lat="43.54533" lon="1.46002">
        <ele>231.6</ele>
        <time>2023-05-27T05:02:25Z</time>
      </trkpt>
      <trkpt lat="43.54533" lon="1.46001">
        <ele>231.7</ele>
        <time>2023-05-27T05:02:26Z</time>
      </trkpt>
      <trkpt lat="43.54533" lon="1.46001">
        <ele>231.7</ele>
        <time>2023-05-27T05:02:27Z</time>
      </trkpt>
      <trkpt lat="43.54533" lon="1.46002">
        <ele>231.6</ele>
        <time>2023-05-27T05:02:28Z</time>
      </trkpt>
      <trkpt lat="43.54534" lon="1.46001">
        <ele>231.5</ele>
        <time>2023-05-27T05:02:29Z</time>
      </trkpt>
      <trkpt lat="43.54534" lon="1.46002">
        <ele>231.3</ele>
        <time>2023-05-27T05:02:30Z</time>
      </trkpt>
      <trkpt lat="43.54534" lon="1.46002">
        <ele>231.3</ele>
        <time>2023-05-27T05:02:31Z</time>
      </trkpt>
      <trkpt lat="43.54534" lon="1.46001">
        <ele>231.5</ele>
        <time>2023-05-27T05:02:32Z</time>
      </trkpt>
      <trkpt lat="43.54533" lon="1.46">
        <ele>231.9</ele>
        <time>2023-05-27T05:02:33Z</time>
      </trkpt>
      <trkpt lat="43.54531" lon="1.45999">
        <ele>232.3</ele>
        <time>2023-05-27T05:02:34Z</time>
      </trkpt>
      <trkpt lat="43.54531" lon="1.45999">
        <ele>232.3</ele>
        <time>2023-05-27T05:02:35Z</time>
      </trkpt>
      <trkpt lat="43.54531" lon="1.45999">
        <ele>232.3</ele>
        <time>2023-05-27T05:02:36Z</time>
      </trkpt>
      <trkpt lat="43.54531" lon="1.45999">
        <ele>232.3</ele>
        <time>2023-05-27T05:02:37Z</time>
      </trkpt>
      <trkpt lat="43.54531" lon="1.45999">
        <ele>232.3</ele>
        <time>2023-05-27T05:02:38Z</time>
      </trkpt>
      <trkpt lat="43.54531" lon="1.45999">
        <ele>232.3</ele>
        <time>2023-05-27T05:02:39Z</time>
      </trkpt>
      <trkpt lat="43.54531" lon="1.45999">
        <ele>232.3</ele>
        <time>2023-05-27T05:02:40Z</time>
      </trkpt>
      <trkpt lat="43.5453" lon="1.46">
        <ele>232.5</ele>
        <time>2023-05-27T05:02:41Z</time>
      </trkpt>
      <trkpt lat="43.54529" lon="1.46001">
        <ele>232.6</ele>
        <time>2023-05-27T05:02:42Z</time>
      </trkpt>
      <trkpt lat="43.54527" lon="1.46004">
        <ele>232.3</ele>
        <time>2023-05-27T05:02:43Z</time>
      </trkpt>
      <trkpt lat="43.54526" lon="1.46007">
        <ele>231.8</ele>
        <time>2023-05-27T05:02:44Z</time>
      </trkpt>
      <trkpt lat="43.54524" lon="1.46009">
        <ele>231.6</ele>
        <time>2023-05-27T05:02:45Z</time>
      </trkpt>
      <trkpt lat="43.54521" lon="1.46011">
        <ele>231.4</ele>
        <time>2023-05-27T05:02:46Z</time>
      </trkpt>
      <trkpt lat="43.54519" lon="1.46012">
        <ele>231.4</ele>
        <time>2023-05-27T05:02:47Z</time>
      </trkpt>
      <trkpt lat="43.54517" lon="1.46014">
        <ele>231.3</ele>
        <time>2023-05-27T05:02:48Z</time>
      </trkpt>
      <trkpt lat="43.54513" lon="1.46016">
        <ele>231.3</ele>
        <time>2023-05-27T05:02:49Z</time>
      </trkpt>
      <trkpt lat="43.54508" lon="1.46018">
        <ele>231.6</ele>
        <time>2023-05-27T05:02:50Z</time>
      </trkpt>
      <trkpt lat="43.54505" lon="1.46019">
        <ele>231.8</ele>
        <time>2023-05-27T05:02:51Z</time>
      </trkpt>
      <trkpt lat="43.545" lon="1.46022">
        <ele>232.2</ele>
        <time>2023-05-27T05:02:52Z</time>
      </trkpt>
      <trkpt lat="43.54495" lon="1.46025">
        <ele>232.1</ele>
        <time>2023-05-27T05:02:53Z</time>
      </trkpt>
      <trkpt lat="43.54491" lon="1.46027">
        <ele>232</ele>
        <time>2023-05-27T05:02:54Z</time>
      </trkpt>
      <trkpt lat="43.54486" lon="1.46029">
        <ele>231.8</ele>
        <time>2023-05-27T05:02:55Z</time>
      </trkpt>
      <trkpt lat="43.54481" lon="1.4603">
        <ele>231.6</ele>
        <time>2023-05-27T05:02:56Z</time>
      </trkpt>
      <trkpt lat="43.54477" lon="1.46031">
        <ele>231.6</ele>
        <time>2023-05-27T05:02:57Z</time>
      </trkpt>
      <trkpt lat="43.54473" lon="1.46033">
        <ele>231.4</ele>
        <time>2023-05-27T05:02:58Z</time>
      </trkpt>
      <trkpt lat="43.5447" lon="1.46036">
        <ele>231.1</ele>
        <time>2023-05-27T05:02:59Z</time>
      </trkpt>
      <trkpt lat="43.54468" lon="1.46039">
        <ele>230.8</ele>
        <time>2023-05-27T05:03:00Z</time>
      </trkpt>
      <trkpt lat="43.54465" lon="1.46041">
        <ele>230.6</ele>
        <time>2023-05-27T05:03:01Z</time>
      </trkpt>
      <trkpt lat="43.54462" lon="1.46042">
        <ele>230.5</ele>
        <time>2023-05-27T05:03:02Z</time>
      </trkpt>
      <trkpt lat="43.54458" lon="1.46044">
        <ele>230.2</ele>
        <time>2023-05-27T05:03:03Z</time>
      </trkpt>
      <trkpt lat="43.54453" lon="1.46045">
        <ele>230.1</ele>
        <time>2023-05-27T05:03:04Z</time>
      </trkpt>
      <trkpt lat="43.54448" lon="1.46047">
        <ele>229.9</ele>
        <time>2023-05-27T05:03:05Z</time>
      </trkpt>
      <trkpt lat="43.54442" lon="1.46049">
        <ele>228.9</ele>
        <time>2023-05-27T05:03:06Z</time>
      </trkpt>
      <trkpt lat="43.54437" lon="1.46051">
        <ele>227</ele>
        <time>2023-05-27T05:03:07Z</time>
      </trkpt>
      <trkpt lat="43.54432" lon="1.46054">
        <ele>225.1</ele>
        <time>2023-05-27T05:03:08Z</time>
      </trkpt>
      <trkpt lat="43.54426" lon="1.46056">
        <ele>222.9</ele>
        <time>2023-05-27T05:03:09Z</time>
      </trkpt>
      <trkpt lat="43.54422" lon="1.46058">
        <ele>221.4</ele>
        <time>2023-05-27T05:03:10Z</time>
      </trkpt>
      <trkpt lat="43.54417" lon="1.46059">
        <ele>219.8</ele>
        <time>2023-05-27T05:03:11Z</time>
      </trkpt>
      <trkpt lat="43.54411" lon="1.4606">
        <ele>236.4</ele>
        <time>2023-05-27T05:03:12Z</time>
      </trkpt>
      <trkpt lat="43.54404" lon="1.46061">
        <ele>236.4</ele>
        <time>2023-05-27T05:03:13Z</time>
      </trkpt>
      <trkpt lat="43.54398" lon="1.46063">
        <ele>236</ele>
        <time>2023-05-27T05:03:14Z</time>
      </trkpt>
      <trkpt lat="43.5439" lon="1.46066">
        <ele>235.8</ele>
        <time>2023-05-27T05:03:15Z</time>
      </trkpt>
      <trkpt lat="43.54384" lon="1.4607">
        <ele>235.6</ele>
        <time>2023-05-27T05:03:16Z</time>
      </trkpt>
      <trkpt lat="43.54377" lon="1.46073">
        <ele>235.4</ele>
        <time>2023-05-27T05:03:17Z</time>
      </trkpt>
      <trkpt lat="43.5437" lon="1.46076">
        <ele>235.4</ele>
        <time>2023-05-27T05:03:18Z</time>
      </trkpt>
      <trkpt lat="43.54363" lon="1.46077">
        <ele>235.2</ele>
        <time>2023-05-27T05:03:19Z</time>
      </trkpt>
      <trkpt lat="43.54357" lon="1.46077">
        <ele>235.2</ele>
        <time>2023-05-27T05:03:20Z</time>
      </trkpt>
      <trkpt lat="43.54352" lon="1.46077">
        <ele>235.2</ele>
        <time>2023-05-27T05:03:21Z</time>
      </trkpt>
      <trkpt lat="43.54348" lon="1.46078">
        <ele>235.2</ele>
        <time>2023-05-27T05:03:22Z</time>
      </trkpt>
      <trkpt lat="43.54343" lon="1.46079">
        <ele>235.2</ele>
        <time>2023-05-27T05:03:23Z</time>
      </trkpt>
      <trkpt lat="43.54338" lon="1.46081">
        <ele>235.4</ele>
        <time>2023-05-27T05:03:24Z</time>
      </trkpt>
      <trkpt lat="43.54334" lon="1.46082">
        <ele>235.4</ele>
        <time>2023-05-27T05:03:25Z</time>
      </trkpt>
      <trkpt lat="43.54329" lon="1.46084">
        <ele>235.6</ele>
        <time>2023-05-27T05:03:26Z</time>
      </trkpt>
      <trkpt lat="43.54325" lon="1.46086">
        <ele>235.8</ele>
        <time>2023-05-27T05:03:27Z</time>
      </trkpt>
      <trkpt lat="43.54322" lon="1.46089">
        <ele>235.8</ele>
        <time>2023-05-27T05:03:28Z</time>
      </trkpt>
      <trkpt lat="43.54319" lon="1.46092">
        <ele>235.8</ele>
        <time>2023-05-27T05:03:29Z</time>
      </trkpt>
      <trkpt lat="43.54317" lon="1.46096">
        <ele>236</ele>
        <time>2023-05-27T05:03:30Z</time>
      </trkpt>
      <trkpt lat="43.54316" lon="1.46101">
        <ele>236</ele>
        <time>2023-05-27T05:03:31Z</time>
      </trkpt>
      <trkpt lat="43.54315" lon="1.46107">
        <ele>236</ele>
        <time>2023-05-27T05:03:32Z</time>
      </trkpt>
      <trkpt lat="43.54314" lon="1.46114">
        <ele>236</ele>
        <time>2023-05-27T05:03:33Z</time>
      </trkpt>
      <trkpt lat="43.54313" lon="1.4612">
        <ele>236</ele>
        <time>2023-05-27T05:03:34Z</time>
      </trkpt>
      <trkpt lat="43.54313" lon="1.46127">
        <ele>236</ele>
        <time>2023-05-27T05:03:35Z</time>
      </trkpt>
      <trkpt lat="43.54312" lon="1.46135">
        <ele>236</ele>
        <time>2023-05-27T05:03:36Z</time>
      </trkpt>
      <trkpt lat="43.54312" lon="1.46142">
        <ele>235.8</ele>
        <time>2023-05-27T05:03:37Z</time>
      </trkpt>
      <trkpt lat="43.54312" lon="1.46149">
        <ele>235.8</ele>
        <time>2023-05-27T05:03:38Z</time>
      </trkpt>
      <trkpt lat="43.54313" lon="1.46157">
        <ele>235.8</ele>
        <time>2023-05-27T05:03:39Z</time>
      </trkpt>
      <trkpt lat="43.54313" lon="1.46164">
        <ele>235.8</ele>
        <time>2023-05-27T05:03:40Z</time>
      </trkpt>
      <trkpt lat="43.54314" lon="1.46171">
        <ele>235.6</ele>
        <time>2023-05-27T05:03:41Z</time>
      </trkpt>
      <trkpt lat="43.54316" lon="1.46177">
        <ele>235.6</ele>
        <time>2023-05-27T05:03:42Z</time>
      </trkpt>
      <trkpt lat="43.54319" lon="1.46184">
        <ele>235.4</ele>
        <time>2023-05-27T05:03:43Z</time>
      </trkpt>
      <trkpt lat="43.54323" lon="1.4619">
        <ele>235.4</ele>
        <time>2023-05-27T05:03:44Z</time>
      </trkpt>
      <trkpt lat="43.54327" lon="1.46196">
        <ele>235.2</ele>
        <time>2023-05-27T05:03:45Z</time>
      </trkpt>
      <trkpt lat="43.54331" lon="1.462">
        <ele>235</ele>
        <time>2023-05-27T05:03:46Z</time>
      </trkpt>
      <trkpt lat="43.54337" lon="1.46204">
        <ele>235</ele>
        <time>2023-05-27T05:03:47Z</time>
      </trkpt>
      <trkpt lat="43.54342" lon="1.46207">
        <ele>234.8</ele>
        <time>2023-05-27T05:03:48Z</time>
      </trkpt>
      <trkpt lat="43.54348" lon="1.46209">
        <ele>234.6</ele>
        <time>2023-05-27T05:03:49Z</time>
      </trkpt>
      <trkpt lat="43.54354" lon="1.4621">
        <ele>234.4</ele>
        <time>2023-05-27T05:03:50Z</time>
      </trkpt>
      <trkpt lat="43.5436" lon="1.46212">
        <ele>234.4</ele>
        <time>2023-05-27T05:03:51Z</time>
      </trkpt>
      <trkpt lat="43.54366" lon="1.46214">
        <ele>234.2</ele>
        <time>2023-05-27T05:03:52Z</time>
      </trkpt>
      <trkpt lat="43.54372" lon="1.46217">
        <ele>234.2</ele>
        <time>2023-05-27T05:03:53Z</time>
      </trkpt>
      <trkpt lat="43.54379" lon="1.46219">
        <ele>234</ele>
        <time>2023-05-27T05:03:54Z</time>
      </trkpt>
      <trkpt lat="43.54385" lon="1.46222">
        <ele>234</ele>
        <time>2023-05-27T05:03:55Z</time>
      </trkpt>
      <trkpt lat="43.5439" lon="1.46225">
        <ele>233.8</ele>
        <time>2023-05-27T05:03:56Z</time>
      </trkpt>
      <trkpt lat="43.54395" lon="1.46228">
        <ele>233.6</ele>
        <time>2023-05-27T05:03:57Z</time>
      </trkpt>
      <trkpt lat="43.54401" lon="1.4623">
        <ele>233.6</ele>
        <time>2023-05-27T05:03:58Z</time>
      </trkpt>
      <trkpt lat="43.54407" lon="1.4623">
        <ele>233.4</ele>
        <time>2023-05-27T05:03:59Z</time>
      </trkpt>
      <trkpt lat="43.54413" lon="1.46229">
        <ele>233.2</ele>
        <time>2023-05-27T05:04:00Z</time>
      </trkpt>
      <trkpt lat="43.54419" lon="1.46225">
        <ele>233</ele>
        <time>2023-05-27T05:04:01Z</time>
      </trkpt>
      <trkpt lat="43.54425" lon="1.46221">
        <ele>233</ele>
        <time>2023-05-27T05:04:02Z</time>
      </trkpt>
      <trkpt lat="43.54431" lon="1.46217">
        <ele>232.8</ele>
        <time>2023-05-27T05:04:03Z</time>
      </trkpt>
      <trkpt lat="43.54437" lon="1.46212">
        <ele>232.6</ele>
        <time>2023-05-27T05:04:04Z</time>
      </trkpt>
      <trkpt lat="43.54442" lon="1.46207">
        <ele>232.4</ele>
        <time>2023-05-27T05:04:05Z</time>
      </trkpt>
      <trkpt lat="43.54448" lon="1.46203">
        <ele>232.2</ele>
        <time>2023-05-27T05:04:06Z</time>
      </trkpt>
      <trkpt lat="43.54454" lon="1.46197">
        <ele>232</ele>
        <time>2023-05-27T05:04:07Z</time>
      </trkpt>
      <trkpt lat="43.54461" lon="1.46193">
        <ele>231.8</ele>
        <time>2023-05-27T05:04:08Z</time>
      </trkpt>
      <trkpt lat="43.54467" lon="1.46189">
        <ele>231.6</ele>
        <time>2023-05-27T05:04:09Z</time>
      </trkpt>
      <trkpt lat="43.54473" lon="1.46185">
        <ele>231.4</ele>
        <time>2023-05-27T05:04:10Z</time>
      </trkpt>
      <trkpt lat="43.54479" lon="1.4618">
        <ele>231.2</ele>
        <time>2023-05-27T05:04:11Z</time>
      </trkpt>
      <trkpt lat="43.54485" lon="1.46176">
        <ele>231</ele>
        <time>2023-05-27T05:04:12Z</time>
      </trkpt>
      <trkpt lat="43.54491" lon="1.46173">
        <ele>230.8</ele>
        <time>2023-05-27T05:04:13Z</time>
      </trkpt>
      <trkpt lat="43.54498" lon="1.4617">
        <ele>230.6</ele>
        <time>2023-05-27T05:04:14Z</time>
      </trkpt>
      <trkpt lat="43.54504" lon="1.46168">
        <ele>230.4</ele>
        <time>2023-05-27T05:04:15Z</time>
      </trkpt>
      <trkpt lat="43.54512" lon="1.46167">
        <ele>230.2</ele>
        <time>2023-05-27T05:04:16Z</time>
      </trkpt>
      <trkpt lat="43.5452" lon="1.46168">
        <ele>230</ele>
        <time>2023-05-27T05:04:17Z</time>
      </trkpt>
      <trkpt lat="43.54528" lon="1.46168">
        <ele>229.6</ele>
        <time>2023-05-27T05:04:18Z</time>
      </trkpt>
      <trkpt lat="43.54536" lon="1.46168">
        <ele>229.4</ele>
        <time>2023-05-27T05:04:19Z</time>
      </trkpt>
      <trkpt lat="43.54543" lon="1.46169">
        <ele>229.2</ele>
        <time>2023-05-27T05:04:20Z</time>
      </trkpt>
      <trkpt lat="43.5455" lon="1.46169">
        <ele>229</ele>
        <time>2023-05-27T05:04:21Z</time>
      </trkpt>
      <trkpt lat="43.54558" lon="1.46169">
        <ele>228.6</ele>
        <time>2023-05-27T05:04:22Z</time>
      </trkpt>
      <trkpt lat="43.54565" lon="1.4617">
        <ele>228.4</ele>
        <time>2023-05-27T05:04:23Z</time>
      </trkpt>
      <trkpt lat="43.54572" lon="1.46171">
        <ele>228.2</ele>
        <time>2023-05-27T05:04:24Z</time>
      </trkpt>
      <trkpt lat="43.54579" lon="1.46173">
        <ele>228.2</ele>
        <time>2023-05-27T05:04:25Z</time>
      </trkpt>
      <trkpt lat="43.54585" lon="1.46176">
        <ele>228.2</ele>
        <time>2023-05-27T05:04:26Z</time>
      </trkpt>
      <trkpt lat="43.5459" lon="1.4618">
        <ele>228.2</ele>
        <time>2023-05-27T05:04:27Z</time>
      </trkpt>
      <trkpt lat="43.54596" lon="1.46185">
        <ele>228.2</ele>
        <time>2023-05-27T05:04:28Z</time>
      </trkpt>
      <trkpt lat="43.546" lon="1.4619">
        <ele>228.4</ele>
        <time>2023-05-27T05:04:29Z</time>
      </trkpt>
      <trkpt lat="43.54603" lon="1.46195">
        <ele>228.6</ele>
        <time>2023-05-27T05:04:30Z</time>
      </trkpt>
      <trkpt lat="43.54606" lon="1.462">
        <ele>228.8</ele>
        <time>2023-05-27T05:04:31Z</time>
      </trkpt>
      <trkpt lat="43.5461" lon="1.46205">
        <ele>229</ele>
        <time>2023-05-27T05:04:32Z</time>
      </trkpt>
      <trkpt lat="43.54612" lon="1.46209">
        <ele>229.2</ele>
        <time>2023-05-27T05:04:33Z</time>
      </trkpt>
      <trkpt lat="43.54614" lon="1.46214">
        <ele>229.4</ele>
        <time>2023-05-27T05:04:34Z</time>
      </trkpt>
      <trkpt lat="43.54616" lon="1.46219">
        <ele>229.6</ele>
        <time>2023-05-27T05:04:35Z</time>
      </trkpt>
      <trkpt lat="43.54618" lon="1.46224">
        <ele>229.8</ele>
        <time>2023-05-27T05:04:36Z</time>
      </trkpt>
      <trkpt lat="43.5462" lon="1.46229">
        <ele>230</ele>
        <time>2023-05-27T05:04:37Z</time>
      </trkpt>
      <trkpt lat="43.54622" lon="1.46234">
        <ele>230.2</ele>
        <time>2023-05-27T05:04:38Z</time>
      </trkpt>
      <trkpt lat="43.54624" lon="1.46238">
        <ele>230.2</ele>
        <time>2023-05-27T05:04:39Z</time>
      </trkpt>
      <trkpt lat="43.54626" lon="1.46243">
        <ele>230.2</ele>
        <time>2023-05-27T05:04:40Z</time>
      </trkpt>
      <trkpt lat="43.54627" lon="1.46248">
        <ele>230.4</ele>
        <time>2023-05-27T05:04:41Z</time>
      </trkpt>
      <trkpt lat="43.54629" lon="1.46253">
        <ele>230.4</ele>
        <time>2023-05-27T05:04:42Z</time>
      </trkpt>
      <trkpt lat="43.54632" lon="1.46258">
        <ele>230.6</ele>
        <time>2023-05-27T05:04:43Z</time>
      </trkpt>
      <trkpt lat="43.54634" lon="1.46263">
        <ele>230.6</ele>
        <time>2023-05-27T05:04:44Z</time>
      </trkpt>
      <trkpt lat="43.54636" lon="1.46266">
        <ele>230.6</ele>
        <time>2023-05-27T05:04:45Z</time>
      </trkpt>
      <trkpt lat="43.54637" lon="1.46271">
        <ele>230.6</ele>
        <time>2023-05-27T05:04:46Z</time>
      </trkpt>
      <trkpt lat="43.54639" lon="1.46276">
        <ele>230.8</ele>
        <time>2023-05-27T05:04:47Z</time>
      </trkpt>
      <trkpt lat="43.54641" lon="1.46281">
        <ele>230.8</ele>
        <time>2023-05-27T05:04:48Z</time>
      </trkpt>
      <trkpt lat="43.54644" lon="1.46285">
        <ele>230.8</ele>
        <time>2023-05-27T05:04:49Z</time>
      </trkpt>
      <trkpt lat="43.54647" lon="1.46289">
        <ele>230.8</ele>
        <time>2023-05-27T05:04:50Z</time>
      </trkpt>
      <trkpt lat="43.5465" lon="1.46293">
        <ele>230.8</ele>
        <time>2023-05-27T05:04:51Z</time>
      </trkpt>
      <trkpt lat="43.54653" lon="1.46297">
        <ele>230.8</ele>
        <time>2023-05-27T05:04:52Z</time>
      </trkpt>
      <trkpt lat="43.54657" lon="1.46301">
        <ele>230.8</ele>
        <time>2023-05-27T05:04:53Z</time>
      </trkpt>
      <trkpt lat="43.54662" lon="1.46305">
        <ele>230.8</ele>
        <time>2023-05-27T05:04:54Z</time>
      </trkpt>
      <trkpt lat="43.54666" lon="1.4631">
        <ele>230.6</ele>
        <time>2023-05-27T05:04:55Z</time>
      </trkpt>
      <trkpt lat="43.54671" lon="1.46314">
        <ele>230.4</ele>
        <time>2023-05-27T05:04:56Z</time>
      </trkpt>
      <trkpt lat="43.54676" lon="1.46318">
        <ele>230.2</ele>
        <time>2023-05-27T05:04:57Z</time>
      </trkpt>
      <trkpt lat="43.5468" lon="1.46323">
        <ele>230</ele>
        <time>2023-05-27T05:04:58Z</time>
      </trkpt>
      <trkpt lat="43.54685" lon="1.46328">
        <ele>229.8</ele>
        <time>2023-05-27T05:04:59Z</time>
      </trkpt>
      <trkpt lat="43.5469" lon="1.46334">
        <ele>229.4</ele>
        <time>2023-05-27T05:05:00Z</time>
      </trkpt>
      <trkpt lat="43.54695" lon="1.46339">
        <ele>229.2</ele>
        <time>2023-05-27T05:05:01Z</time>
      </trkpt>
      <trkpt lat="43.54701" lon="1.46345">
        <ele>228.8</ele>
        <time>2023-05-27T05:05:02Z</time>
      </trkpt>
      <trkpt lat="43.54707" lon="1.46351">
        <ele>228.4</ele>
        <time>2023-05-27T05:05:03Z</time>
      </trkpt>
      <trkpt lat="43.54713" lon="1.46357">
        <ele>228</ele>
        <time>2023-05-27T05:05:04Z</time>
      </trkpt>
      <trkpt lat="43.5472" lon="1.46363">
        <ele>227.6</ele>
        <time>2023-05-27T05:05:05Z</time>
      </trkpt>
      <trkpt lat="43.54726" lon="1.46369">
        <ele>227.2</ele>
        <time>2023-05-27T05:05:06Z</time>
      </trkpt>
      <trkpt lat="43.54733" lon="1.46376">
        <ele>226.6</ele>
        <time>2023-05-27T05:05:07Z</time>
      </trkpt>
      <trkpt lat="43.54738" lon="1.46383">
        <ele>226.2</ele>
        <time>2023-05-27T05:05:08Z</time>
      </trkpt>
      <trkpt lat="43.54743" lon="1.46392">
        <ele>225.6</ele>
        <time>2023-05-27T05:05:09Z</time>
      </trkpt>
      <trkpt lat="43.54746" lon="1.46402">
        <ele>225</ele>
        <time>2023-05-27T05:05:10Z</time>
      </trkpt>
      <trkpt lat="43.54747" lon="1.46415">
        <ele>224.6</ele>
        <time>2023-05-27T05:05:11Z</time>
      </trkpt>
      <trkpt lat="43.54747" lon="1.46427">
        <ele>224.2</ele>
        <time>2023-05-27T05:05:12Z</time>
      </trkpt>
      <trkpt lat="43.54745" lon="1.4644">
        <ele>223.8</ele>
        <time>2023-05-27T05:05:13Z</time>
      </trkpt>
      <trkpt lat="43.54742" lon="1.46451">
        <ele>223.6</ele>
        <time>2023-05-27T05:05:14Z</time>
      </trkpt>
      <trkpt lat="43.54739" lon="1.46462">
        <ele>223.4</ele>
        <time>2023-05-27T05:05:15Z</time>
      </trkpt>
      <trkpt lat="43.54737" lon="1.46471">
        <ele>223.4</ele>
        <time>2023-05-27T05:05:16Z</time>
      </trkpt>
      <trkpt lat="43.54735" lon="1.4648">
        <ele>223.4</ele>
        <time>2023-05-27T05:05:17Z</time>
      </trkpt>
      <trkpt lat="43.54732" lon="1.46487">
        <ele>223</ele>
        <time>2023-05-27T05:05:18Z</time>
      </trkpt>
      <trkpt lat="43.54729" lon="1.46494">
        <ele>222.4</ele>
        <time>2023-05-27T05:05:19Z</time>
      </trkpt>
      <trkpt lat="43.54726" lon="1.465">
        <ele>222.4</ele>
        <time>2023-05-27T05:05:20Z</time>
      </trkpt>
      <trkpt lat="43.54724" lon="1.46506">
        <ele>222.6</ele>
        <time>2023-05-27T05:05:21Z</time>
      </trkpt>
      <trkpt lat="43.54721" lon="1.46511">
        <ele>222.8</ele>
        <time>2023-05-27T05:05:22Z</time>
      </trkpt>
      <trkpt lat="43.54718" lon="1.46516">
        <ele>222.8</ele>
        <time>2023-05-27T05:05:23Z</time>
      </trkpt>
      <trkpt lat="43.54715" lon="1.46521">
        <ele>223</ele>
        <time>2023-05-27T05:05:24Z</time>
      </trkpt>
      <trkpt lat="43.54712" lon="1.46525">
        <ele>223.2</ele>
        <time>2023-05-27T05:05:25Z</time>
      </trkpt>
      <trkpt lat="43.5471" lon="1.4653">
        <ele>223.4</ele>
        <time>2023-05-27T05:05:26Z</time>
      </trkpt>
      <trkpt lat="43.54708" lon="1.46535">
        <ele>223.6</ele>
        <time>2023-05-27T05:05:27Z</time>
      </trkpt>
      <trkpt lat="43.54706" lon="1.46539">
        <ele>223.8</ele>
        <time>2023-05-27T05:05:28Z</time>
      </trkpt>
      <trkpt lat="43.54703" lon="1.46543">
        <ele>224</ele>
        <time>2023-05-27T05:05:29Z</time>
      </trkpt>
      <trkpt lat="43.54701" lon="1.46547">
        <ele>224</ele>
        <time>2023-05-27T05:05:30Z</time>
      </trkpt>
      <trkpt lat="43.54698" lon="1.4655">
        <ele>224.2</ele>
        <time>2023-05-27T05:05:31Z</time>
      </trkpt>
      <trkpt lat="43.54695" lon="1.46553">
        <ele>224.4</ele>
        <time>2023-05-27T05:05:32Z</time>
      </trkpt>
      <trkpt lat="43.54692" lon="1.46556">
        <ele>224.6</ele>
        <time>2023-05-27T05:05:33Z</time>
      </trkpt>
      <trkpt lat="43.5469" lon="1.4656">
        <ele>224.6</ele>
        <time>2023-05-27T05:05:34Z</time>
      </trkpt>
      <trkpt lat="43.54688" lon="1.46563">
        <ele>224.8</ele>
        <time>2023-05-27T05:05:35Z</time>
      </trkpt>
      <trkpt lat="43.54685" lon="1.46566">
        <ele>225</ele>
        <time>2023-05-27T05:05:36Z</time>
      </trkpt>
      <trkpt lat="43.54683" lon="1.46569">
        <ele>225.2</ele>
        <time>2023-05-27T05:05:37Z</time>
      </trkpt>
      <trkpt lat="43.54681" lon="1.46572">
        <ele>225.2</ele>
        <time>2023-05-27T05:05:38Z</time>
      </trkpt>
      <trkpt lat="43.54679" lon="1.46574">
        <ele>225.4</ele>
        <time>2023-05-27T05:05:39Z</time>
      </trkpt>
      <trkpt lat="43.54678" lon="1.46577">
        <ele>225.6</ele>
        <time>2023-05-27T05:05:40Z</time>
      </trkpt>
      <trkpt lat="43.54677" lon="1.4658">
        <ele>225.6</ele>
        <time>2023-05-27T05:05:41Z</time>
      </trkpt>
      <trkpt lat="43.54676" lon="1.46583">
        <ele>225.6</ele>
        <time>2023-05-27T05:05:42Z</time>
      </trkpt>
      <trkpt lat="43.54676" lon="1.46587">
        <ele>225.8</ele>
        <time>2023-05-27T05:05:43Z</time>
      </trkpt>
      <trkpt lat="43.54677" lon="1.46591">
        <ele>225.8</ele>
        <time>2023-05-27T05:05:44Z</time>
      </trkpt>
      <trkpt lat="43.54679" lon="1.46595">
        <ele>225.8</ele>
        <time>2023-05-27T05:05:45Z</time>
      </trkpt>
      <trkpt lat="43.54681" lon="1.46598">
        <ele>225.8</ele>
        <time>2023-05-27T05:05:46Z</time>
      </trkpt>
      <trkpt lat="43.54684" lon="1.46602">
        <ele>225.8</ele>
        <time>2023-05-27T05:05:47Z</time>
      </trkpt>
      <trkpt lat="43.54686" lon="1.46605">
        <ele>226</ele>
        <time>2023-05-27T05:05:48Z</time>
      </trkpt>
      <trkpt lat="43.54688" lon="1.46608">
        <ele>226</ele>
        <time>2023-05-27T05:05:49Z</time>
      </trkpt>
      <trkpt lat="43.54691" lon="1.46611">
        <ele>226</ele>
        <time>2023-05-27T05:05:50Z</time>
      </trkpt>
      <trkpt lat="43.54693" lon="1.46614">
        <ele>226.2</ele>
        <time>2023-05-27T05:05:51Z</time>
      </trkpt>
      <trkpt lat="43.54695" lon="1.46617">
        <ele>226.2</ele>
        <time>2023-05-27T05:05:52Z</time>
      </trkpt>
      <trkpt lat="43.54697" lon="1.46621">
        <ele>226.2</ele>
        <time>2023-05-27T05:05:53Z</time>
      </trkpt>
      <trkpt lat="43.54699" lon="1.46624">
        <ele>226.4</ele>
        <time>2023-05-27T05:05:54Z</time>
      </trkpt>
      <trkpt lat="43.54702" lon="1.46627">
        <ele>226.4</ele>
        <time>2023-05-27T05:05:55Z</time>
      </trkpt>
      <trkpt lat="43.54704" lon="1.4663">
        <ele>226.4</ele>
        <time>2023-05-27T05:05:56Z</time>
      </trkpt>
      <trkpt lat="43.54706" lon="1.46634">
        <ele>226.6</ele>
        <time>2023-05-27T05:05:57Z</time>
      </trkpt>
      <trkpt lat="43.54708" lon="1.46637">
        <ele>226.6</ele>
        <time>2023-05-27T05:05:58Z</time>
      </trkpt>
      <trkpt lat="43.5471" lon="1.46641">
        <ele>226.8</ele>
        <time>2023-05-27T05:05:59Z</time>
      </trkpt>
      <trkpt lat="43.54712" lon="1.46644">
        <ele>226.8</ele>
        <time>2023-05-27T05:06:00Z</time>
      </trkpt>
      <trkpt lat="43.54714" lon="1.46648">
        <ele>227</ele>
        <time>2023-05-27T05:06:01Z</time>
      </trkpt>
      <trkpt lat="43.54716" lon="1.46651">
        <ele>227</ele>
        <time>2023-05-27T05:06:02Z</time>
      </trkpt>
      <trkpt lat="43.54718" lon="1.46654">
        <ele>227.2</ele>
        <time>2023-05-27T05:06:03Z</time>
      </trkpt>
      <trkpt lat="43.5472" lon="1.46656">
        <ele>227.2</ele>
        <time>2023-05-27T05:06:04Z</time>
      </trkpt>
      <trkpt lat="43.54722" lon="1.46659">
        <ele>227.4</ele>
        <time>2023-05-27T05:06:05Z</time>
      </trkpt>
      <trkpt lat="43.54724" lon="1.46661">
        <ele>227.4</ele>
        <time>2023-05-27T05:06:06Z</time>
      </trkpt>
      <trkpt lat="43.54727" lon="1.46662">
        <ele>227.4</ele>
        <time>2023-05-27T05:06:07Z</time>
      </trkpt>
      <trkpt lat="43.54731" lon="1.46663">
        <ele>227.4</ele>
        <time>2023-05-27T05:06:08Z</time>
      </trkpt>
      <trkpt lat="43.54735" lon="1.46662">
        <ele>227.4</ele>
        <time>2023-05-27T05:06:09Z</time>
      </trkpt>
      <trkpt lat="43.54739" lon="1.46661">
        <ele>227.4</ele>
        <time>2023-05-27T05:06:10Z</time>
      </trkpt>
      <trkpt lat="43.54744" lon="1.4666">
        <ele>227.2</ele>
        <time>2023-05-27T05:06:11Z</time>
      </trkpt>
      <trkpt lat="43.54748" lon="1.46659">
        <ele>227</ele>
        <time>2023-05-27T05:06:12Z</time>
      </trkpt>
      <trkpt lat="43.54753" lon="1.46657">
        <ele>227</ele>
        <time>2023-05-27T05:06:13Z</time>
      </trkpt>
      <trkpt lat="43.54758" lon="1.46655">
        <ele>226.8</ele>
        <time>2023-05-27T05:06:14Z</time>
      </trkpt>
      <trkpt lat="43.54762" lon="1.46652">
        <ele>226.6</ele>
        <time>2023-05-27T05:06:15Z</time>
      </trkpt>
      <trkpt lat="43.54768" lon="1.4665">
        <ele>226.4</ele>
        <time>2023-05-27T05:06:16Z</time>
      </trkpt>
      <trkpt lat="43.54773" lon="1.46647">
        <ele>226.2</ele>
        <time>2023-05-27T05:06:17Z</time>
      </trkpt>
      <trkpt lat="43.54779" lon="1.46644">
        <ele>226</ele>
        <time>2023-05-27T05:06:18Z</time>
      </trkpt>
      <trkpt lat="43.54785" lon="1.46642">
        <ele>225.6</ele>
        <time>2023-05-27T05:06:19Z</time>
      </trkpt>
      <trkpt lat="43.54791" lon="1.4664">
        <ele>225.4</ele>
        <time>2023-05-27T05:06:20Z</time>
      </trkpt>
      <trkpt lat="43.54798" lon="1.46638">
        <ele>225</ele>
        <time>2023-05-27T05:06:21Z</time>
      </trkpt>
      <trkpt lat="43.54806" lon="1.46636">
        <ele>224.6</ele>
        <time>2023-05-27T05:06:22Z</time>
      </trkpt>
      <trkpt lat="43.54813" lon="1.46633">
        <ele>223.8</ele>
        <time>2023-05-27T05:06:23Z</time>
      </trkpt>
      <trkpt lat="43.5482" lon="1.4663">
        <ele>223</ele>
        <time>2023-05-27T05:06:24Z</time>
      </trkpt>
      <trkpt lat="43.54828" lon="1.46627">
        <ele>222.4</ele>
        <time>2023-05-27T05:06:25Z</time>
      </trkpt>
      <trkpt lat="43.54838" lon="1.46624">
        <ele>221.6</ele>
        <time>2023-05-27T05:06:26Z</time>
      </trkpt>
      <trkpt lat="43.54845" lon="1.46623">
        <ele>220.8</ele>
        <time>2023-05-27T05:06:27Z</time>
      </trkpt>
      <trkpt lat="43.54853" lon="1.4662">
        <ele>219.8</ele>
        <time>2023-05-27T05:06:28Z</time>
      </trkpt>
      <trkpt lat="43.5486" lon="1.46618">
        <ele>219</ele>
        <time>2023-05-27T05:06:29Z</time>
      </trkpt>
      <trkpt lat="43.54869" lon="1.46616">
        <ele>218.2</ele>
        <time>2023-05-27T05:06:30Z</time>
      </trkpt>
      <trkpt lat="43.54877" lon="1.46615">
        <ele>217.2</ele>
        <time>2023-05-27T05:06:31Z</time>
      </trkpt>
      <trkpt lat="43.54886" lon="1.46614">
        <ele>216.4</ele>
        <time>2023-05-27T05:06:32Z</time>
      </trkpt>
      <trkpt lat="43.54894" lon="1.46614">
        <ele>215.4</ele>
        <time>2023-05-27T05:06:33Z</time>
      </trkpt>
      <trkpt lat="43.54903" lon="1.46615">
        <ele>214.4</ele>
        <time>2023-05-27T05:06:34Z</time>
      </trkpt>
      <trkpt lat="43.5491" lon="1.46615">
        <ele>213.4</ele>
        <time>2023-05-27T05:06:35Z</time>
      </trkpt>
      <trkpt lat="43.54918" lon="1.46615">
        <ele>212.4</ele>
        <time>2023-05-27T05:06:36Z</time>
      </trkpt>
      <trkpt lat="43.54926" lon="1.46616">
        <ele>211.4</ele>
        <time>2023-05-27T05:06:37Z</time>
      </trkpt>
      <trkpt lat="43.54933" lon="1.46617">
        <ele>210.6</ele>
        <time>2023-05-27T05:06:38Z</time>
      </trkpt>
      <trkpt lat="43.54939" lon="1.46619">
        <ele>209.6</ele>
        <time>2023-05-27T05:06:39Z</time>
      </trkpt>
      <trkpt lat="43.54945" lon="1.46621">
        <ele>208.6</ele>
        <time>2023-05-27T05:06:40Z</time>
      </trkpt>
      <trkpt lat="43.5495" lon="1.46623">
        <ele>207.8</ele>
        <time>2023-05-27T05:06:41Z</time>
      </trkpt>
      <trkpt lat="43.54955" lon="1.46627">
        <ele>207.2</ele>
        <time>2023-05-27T05:06:42Z</time>
      </trkpt>
      <trkpt lat="43.54957" lon="1.46633">
        <ele>206.4</ele>
        <time>2023-05-27T05:06:43Z</time>
      </trkpt>
      <trkpt lat="43.54956" lon="1.46641">
        <ele>205.8</ele>
        <time>2023-05-27T05:06:44Z</time>
      </trkpt>
      <trkpt lat="43.54954" lon="1.46648">
        <ele>205.4</ele>
        <time>2023-05-27T05:06:45Z</time>
      </trkpt>
      <trkpt lat="43.54951" lon="1.46655">
        <ele>205</ele>
        <time>2023-05-27T05:06:46Z</time>
      </trkpt>
      <trkpt lat="43.54948" lon="1.46662">
        <ele>204.6</ele>
        <time>2023-05-27T05:06:47Z</time>
      </trkpt>
      <trkpt lat="43.54947" lon="1.46669">
        <ele>204.2</ele>
        <time>2023-05-27T05:06:48Z</time>
      </trkpt>
      <trkpt lat="43.54948" lon="1.46676">
        <ele>203.8</ele>
        <time>2023-05-27T05:06:49Z</time>
      </trkpt>
      <trkpt lat="43.54952" lon="1.46683">
        <ele>203.2</ele>
        <time>2023-05-27T05:06:50Z</time>
      </trkpt>
      <trkpt lat="43.54957" lon="1.46688">
        <ele>202.6</ele>
        <time>2023-05-27T05:06:51Z</time>
      </trkpt>
      <trkpt lat="43.54964" lon="1.46693">
        <ele>201.8</ele>
        <time>2023-05-27T05:06:52Z</time>
      </trkpt>
      <trkpt lat="43.54971" lon="1.46698">
        <ele>201</ele>
        <time>2023-05-27T05:06:53Z</time>
      </trkpt>
      <trkpt lat="43.54978" lon="1.46704">
        <ele>200</ele>
        <time>2023-05-27T05:06:54Z</time>
      </trkpt>
      <trkpt lat="43.54985" lon="1.46711">
        <ele>199.2</ele>
        <time>2023-05-27T05:06:55Z</time>
      </trkpt>
      <trkpt lat="43.54991" lon="1.46719">
        <ele>198.2</ele>
        <time>2023-05-27T05:06:56Z</time>
      </trkpt>
      <trkpt lat="43.54996" lon="1.46727">
        <ele>197.2</ele>
        <time>2023-05-27T05:06:57Z</time>
      </trkpt>
      <trkpt lat="43.55001" lon="1.46734">
        <ele>196</ele>
        <time>2023-05-27T05:06:58Z</time>
      </trkpt>
      <trkpt lat="43.55006" lon="1.4674">
        <ele>195.2</ele>
        <time>2023-05-27T05:06:59Z</time>
      </trkpt>
      <trkpt lat="43.55011" lon="1.46747">
        <ele>194.4</ele>
        <time>2023-05-27T05:07:00Z</time>
      </trkpt>
      <trkpt lat="43.55016" lon="1.46754">
        <ele>193.8</ele>
        <time>2023-05-27T05:07:01Z</time>
      </trkpt>
      <trkpt lat="43.55021" lon="1.46762">
        <ele>193</ele>
        <time>2023-05-27T05:07:02Z</time>
      </trkpt>
      <trkpt lat="43.55026" lon="1.4677">
        <ele>192.2</ele>
        <time>2023-05-27T05:07:03Z</time>
      </trkpt>
      <trkpt lat="43.55032" lon="1.46779">
        <ele>191.6</ele>
        <time>2023-05-27T05:07:04Z</time>
      </trkpt>
      <trkpt lat="43.55037" lon="1.46787">
        <ele>191</ele>
        <time>2023-05-27T05:07:05Z</time>
      </trkpt>
      <trkpt lat="43.55043" lon="1.46796">
        <ele>190.4</ele>
        <time>2023-05-27T05:07:06Z</time>
      </trkpt>
      <trkpt lat="43.55048" lon="1.46805">
        <ele>189.8</ele>
        <time>2023-05-27T05:07:07Z</time>
      </trkpt>
      <trkpt lat="43.55054" lon="1.46813">
        <ele>189</ele>
        <time>2023-05-27T05:07:08Z</time>
      </trkpt>
      <trkpt lat="43.55059" lon="1.4682">
        <ele>188.6</ele>
        <time>2023-05-27T05:07:09Z</time>
      </trkpt>
      <trkpt lat="43.55065" lon="1.46828">
        <ele>188</ele>
        <time>2023-05-27T05:07:10Z</time>
      </trkpt>
      <trkpt lat="43.55071" lon="1.46835">
        <ele>187.6</ele>
        <time>2023-05-27T05:07:11Z</time>
      </trkpt>
      <trkpt lat="43.55077" lon="1.46843">
        <ele>187.2</ele>
        <time>2023-05-27T05:07:12Z</time>
      </trkpt>
      <trkpt lat="43.55083" lon="1.46851">
        <ele>186.8</ele>
        <time>2023-05-27T05:07:13Z</time>
      </trkpt>
      <trkpt lat="43.55088" lon="1.46859">
        <ele>186.4</ele>
        <time>2023-05-27T05:07:14Z</time>
      </trkpt>
      <trkpt lat="43.55093" lon="1.46868">
        <ele>185.8</ele>
        <time>2023-05-27T05:07:15Z</time>
      </trkpt>
      <trkpt lat="43.55097" lon="1.46879">
        <ele>185.4</ele>
        <time>2023-05-27T05:07:16Z</time>
      </trkpt>
      <trkpt lat="43.551" lon="1.4689">
        <ele>185</ele>
        <time>2023-05-27T05:07:17Z</time>
      </trkpt>
      <trkpt lat="43.55103" lon="1.469">
        <ele>184.6</ele>
        <time>2023-05-27T05:07:18Z</time>
      </trkpt>
      <trkpt lat="43.55106" lon="1.46911">
        <ele>184.2</ele>
        <time>2023-05-27T05:07:19Z</time>
      </trkpt>
      <trkpt lat="43.55109" lon="1.46922">
        <ele>184</ele>
        <time>2023-05-27T05:07:20Z</time>
      </trkpt>
      <trkpt lat="43.55112" lon="1.46933">
        <ele>183.6</ele>
        <time>2023-05-27T05:07:21Z</time>
      </trkpt>
      <trkpt lat="43.55116" lon="1.46943">
        <ele>183.4</ele>
        <time>2023-05-27T05:07:22Z</time>
      </trkpt>
      <trkpt lat="43.55119" lon="1.46952">
        <ele>183</ele>
        <time>2023-05-27T05:07:23Z</time>
      </trkpt>
      <trkpt lat="43.55122" lon="1.46961">
        <ele>182.4</ele>
        <time>2023-05-27T05:07:24Z</time>
      </trkpt>
      <trkpt lat="43.55125" lon="1.46968">
        <ele>182</ele>
        <time>2023-05-27T05:07:25Z</time>
      </trkpt>
      <trkpt lat="43.55128" lon="1.46974">
        <ele>181.6</ele>
        <time>2023-05-27T05:07:26Z</time>
      </trkpt>
      <trkpt lat="43.5513" lon="1.46978">
        <ele>181.4</ele>
        <time>2023-05-27T05:07:27Z</time>
      </trkpt>
      <trkpt lat="43.55132" lon="1.46982">
        <ele>181</ele>
        <time>2023-05-27T05:07:28Z</time>
      </trkpt>
      <trkpt lat="43.55132" lon="1.46987">
        <ele>180.8</ele>
        <time>2023-05-27T05:07:29Z</time>
      </trkpt>
      <trkpt lat="43.55131" lon="1.4699">
        <ele>180.6</ele>
        <time>2023-05-27T05:07:30Z</time>
      </trkpt>
      <trkpt lat="43.55128" lon="1.46993">
        <ele>180.6</ele>
        <time>2023-05-27T05:07:31Z</time>
      </trkpt>
      <trkpt lat="43.55125" lon="1.46994">
        <ele>180.4</ele>
        <time>2023-05-27T05:07:32Z</time>
      </trkpt>
      <trkpt lat="43.55121" lon="1.46996">
        <ele>180.4</ele>
        <time>2023-05-27T05:07:33Z</time>
      </trkpt>
      <trkpt lat="43.55118" lon="1.46998">
        <ele>180.4</ele>
        <time>2023-05-27T05:07:34Z</time>
      </trkpt>
      <trkpt lat="43.55114" lon="1.47">
        <ele>180.4</ele>
        <time>2023-05-27T05:07:35Z</time>
      </trkpt>
      <trkpt lat="43.5511" lon="1.47003">
        <ele>180.2</ele>
        <time>2023-05-27T05:07:36Z</time>
      </trkpt>
      <trkpt lat="43.55106" lon="1.47005">
        <ele>180.2</ele>
        <time>2023-05-27T05:07:37Z</time>
      </trkpt>
      <trkpt lat="43.55101" lon="1.47007">
        <ele>180.2</ele>
        <time>2023-05-27T05:07:38Z</time>
      </trkpt>
      <trkpt lat="43.55097" lon="1.47009">
        <ele>180.2</ele>
        <time>2023-05-27T05:07:39Z</time>
      </trkpt>
      <trkpt lat="43.55093" lon="1.47011">
        <ele>180.2</ele>
        <time>2023-05-27T05:07:40Z</time>
      </trkpt>
      <trkpt lat="43.55088" lon="1.47013">
        <ele>180</ele>
        <time>2023-05-27T05:07:41Z</time>
      </trkpt>
      <trkpt lat="43.55083" lon="1.47015">
        <ele>180</ele>
        <time>2023-05-27T05:07:42Z</time>
      </trkpt>
      <trkpt lat="43.55079" lon="1.47018">
        <ele>180</ele>
        <time>2023-05-27T05:07:43Z</time>
      </trkpt>
      <trkpt lat="43.55074" lon="1.4702">
        <ele>180</ele>
        <time>2023-05-27T05:07:44Z</time>
      </trkpt>
      <trkpt lat="43.5507" lon="1.47023">
        <ele>180</ele>
        <time>2023-05-27T05:07:45Z</time>
      </trkpt>
      <trkpt lat="43.55066" lon="1.47026">
        <ele>180</ele>
        <time>2023-05-27T05:07:46Z</time>
      </trkpt>
      <trkpt lat="43.55061" lon="1.47029">
        <ele>180</ele>
        <time>2023-05-27T05:07:47Z</time>
      </trkpt>
      <trkpt lat="43.55057" lon="1.47032">
        <ele>180</ele>
        <time>2023-05-27T05:07:48Z</time>
      </trkpt>
      <trkpt lat="43.55052" lon="1.47034">
        <ele>180</ele>
        <time>2023-05-27T05:07:49Z</time>
      </trkpt>
      <trkpt lat="43.55047" lon="1.47037">
        <ele>179.8</ele>
        <time>2023-05-27T05:07:50Z</time>
      </trkpt>
      <trkpt lat="43.55043" lon="1.47039">
        <ele>179.8</ele>
        <time>2023-05-27T05:07:51Z</time>
      </trkpt>
      <trkpt lat="43.55038" lon="1.47042">
        <ele>179.8</ele>
        <time>2023-05-27T05:07:52Z</time>
      </trkpt>
      <trkpt lat="43.55034" lon="1.47045">
        <ele>179.8</ele>
        <time>2023-05-27T05:07:53Z</time>
      </trkpt>
      <trkpt lat="43.5503" lon="1.47048">
        <ele>179.8</ele>
        <time>2023-05-27T05:07:54Z</time>
      </trkpt>
      <trkpt lat="43.55026" lon="1.47051">
        <ele>180</ele>
        <time>2023-05-27T05:07:55Z</time>
      </trkpt>
      <trkpt lat="43.55022" lon="1.47054">
        <ele>180</ele>
        <time>2023-05-27T05:07:56Z</time>
      </trkpt>
      <trkpt lat="43.55017" lon="1.47057">
        <ele>180</ele>
        <time>2023-05-27T05:07:57Z</time>
      </trkpt>
      <trkpt lat="43.55013" lon="1.47059">
        <ele>180</ele>
        <time>2023-05-27T05:07:58Z</time>
      </trkpt>
      <trkpt lat="43.55008" lon="1.47062">
        <ele>180</ele>
        <time>2023-05-27T05:07:59Z</time>
      </trkpt>
      <trkpt lat="43.55003" lon="1.47065">
        <ele>180</ele>
        <time>2023-05-27T05:08:00Z</time>
      </trkpt>
      <trkpt lat="43.54999" lon="1.47067">
        <ele>180.2</ele>
        <time>2023-05-27T05:08:01Z</time>
      </trkpt>
      <trkpt lat="43.54995" lon="1.4707">
        <ele>180.2</ele>
        <time>2023-05-27T05:08:02Z</time>
      </trkpt>
      <trkpt lat="43.5499" lon="1.47074">
        <ele>180.2</ele>
        <time>2023-05-27T05:08:03Z</time>
      </trkpt>
      <trkpt lat="43.54986" lon="1.47077">
        <ele>180.4</ele>
        <time>2023-05-27T05:08:04Z</time>
      </trkpt>
      <trkpt lat="43.54982" lon="1.4708">
        <ele>180.4</ele>
        <time>2023-05-27T05:08:05Z</time>
      </trkpt>
      <trkpt lat="43.54977" lon="1.47083">
        <ele>180.4</ele>
        <time>2023-05-27T05:08:06Z</time>
      </trkpt>
      <trkpt lat="43.54973" lon="1.47086">
        <ele>180.4</ele>
        <time>2023-05-27T05:08:07Z</time>
      </trkpt>
      <trkpt lat="43.54969" lon="1.4709">
        <ele>180.4</ele>
        <time>2023-05-27T05:08:08Z</time>
      </trkpt>
      <trkpt lat="43.54965" lon="1.47093">
        <ele>180.4</ele>
        <time>2023-05-27T05:08:09Z</time>
      </trkpt>
      <trkpt lat="43.5496" lon="1.47096">
        <ele>180.4</ele>
        <time>2023-05-27T05:08:10Z</time>
      </trkpt>
      <trkpt lat="43.54956" lon="1.47099">
        <ele>180.6</ele>
        <time>2023-05-27T05:08:11Z</time>
      </trkpt>
      <trkpt lat="43.54952" lon="1.47102">
        <ele>180.6</ele>
        <time>2023-05-27T05:08:12Z</time>
      </trkpt>
      <trkpt lat="43.54948" lon="1.47104">
        <ele>180.6</ele>
        <time>2023-05-27T05:08:13Z</time>
      </trkpt>
      <trkpt lat="43.54943" lon="1.47107">
        <ele>180.6</ele>
        <time>2023-05-27T05:08:14Z</time>
      </trkpt>
      <trkpt lat="43.54939" lon="1.4711">
        <ele>180.6</ele>
        <time>2023-05-27T05:08:15Z</time>
      </trkpt>
      <trkpt lat="43.54935" lon="1.47112">
        <ele>180.6</ele>
        <time>2023-05-27T05:08:16Z</time>
      </trkpt>
      <trkpt lat="43.5493" lon="1.47116">
        <ele>180.6</ele>
        <time>2023-05-27T05:08:17Z</time>
      </trkpt>
      <trkpt lat="43.54926" lon="1.47119">
        <ele>180.6</ele>
        <time>2023-05-27T05:08:18Z</time>
      </trkpt>
      <trkpt lat="43.54922" lon="1.47122">
        <ele>180.6</ele>
        <time>2023-05-27T05:08:19Z</time>
      </trkpt>
      <trkpt lat="43.54917" lon="1.47125">
        <ele>180.6</ele>
        <time>2023-05-27T05:08:20Z</time>
      </trkpt>
      <trkpt lat="43.54912" lon="1.47128">
        <ele>180.6</ele>
        <time>2023-05-27T05:08:21Z</time>
      </trkpt>
      <trkpt lat="43.54908" lon="1.4713">
        <ele>180.6</ele>
        <time>2023-05-27T05:08:22Z</time>
      </trkpt>
      <trkpt lat="43.54903" lon="1.47133">
        <ele>180.8</ele>
        <time>2023-05-27T05:08:23Z</time>
      </trkpt>
      <trkpt lat="43.54899" lon="1.47137">
        <ele>180.8</ele>
        <time>2023-05-27T05:08:24Z</time>
      </trkpt>
      <trkpt lat="43.54894" lon="1.4714">
        <ele>180.8</ele>
        <time>2023-05-27T05:08:25Z</time>
      </trkpt>
      <trkpt lat="43.5489" lon="1.47143">
        <ele>180.8</ele>
        <time>2023-05-27T05:08:26Z</time>
      </trkpt>
      <trkpt lat="43.54886" lon="1.47145">
        <ele>181</ele>
        <time>2023-05-27T05:08:27Z</time>
      </trkpt>
      <trkpt lat="43.54881" lon="1.4715">
        <ele>181</ele>
        <time>2023-05-27T05:08:28Z</time>
      </trkpt>
      <trkpt lat="43.54878" lon="1.47153">
        <ele>181</ele>
        <time>2023-05-27T05:08:29Z</time>
      </trkpt>
      <trkpt lat="43.54874" lon="1.47156">
        <ele>181</ele>
        <time>2023-05-27T05:08:30Z</time>
      </trkpt>
      <trkpt lat="43.5487" lon="1.47159">
        <ele>181</ele>
        <time>2023-05-27T05:08:31Z</time>
      </trkpt>
      <trkpt lat="43.54866" lon="1.47163">
        <ele>181</ele>
        <time>2023-05-27T05:08:32Z</time>
      </trkpt>
      <trkpt lat="43.54862" lon="1.47166">
        <ele>181</ele>
        <time>2023-05-27T05:08:33Z</time>
      </trkpt>
      <trkpt lat="43.54858" lon="1.47169">
        <ele>181</ele>
        <time>2023-05-27T05:08:34Z</time>
      </trkpt>
      <trkpt lat="43.54854" lon="1.47173">
        <ele>181.2</ele>
        <time>2023-05-27T05:08:35Z</time>
      </trkpt>
      <trkpt lat="43.5485" lon="1.47176">
        <ele>181.2</ele>
        <time>2023-05-27T05:08:36Z</time>
      </trkpt>
      <trkpt lat="43.54845" lon="1.47179">
        <ele>181.2</ele>
        <time>2023-05-27T05:08:37Z</time>
      </trkpt>
      <trkpt lat="43.54841" lon="1.47183">
        <ele>181.2</ele>
        <time>2023-05-27T05:08:38Z</time>
      </trkpt>
      <trkpt lat="43.54837" lon="1.47186">
        <ele>181.4</ele>
        <time>2023-05-27T05:08:39Z</time>
      </trkpt>
      <trkpt lat="43.54833" lon="1.4719">
        <ele>181.4</ele>
        <time>2023-05-27T05:08:40Z</time>
      </trkpt>
      <trkpt lat="43.5483" lon="1.47194">
        <ele>181.4</ele>
        <time>2023-05-27T05:08:41Z</time>
      </trkpt>
      <trkpt lat="43.54826" lon="1.47197">
        <ele>181.4</ele>
        <time>2023-05-27T05:08:42Z</time>
      </trkpt>
      <trkpt lat="43.54823" lon="1.47201">
        <ele>181.6</ele>
        <time>2023-05-27T05:08:43Z</time>
      </trkpt>
      <trkpt lat="43.54819" lon="1.47205">
        <ele>181.6</ele>
        <time>2023-05-27T05:08:44Z</time>
      </trkpt>
      <trkpt lat="43.54815" lon="1.47208">
        <ele>181.6</ele>
        <time>2023-05-27T05:08:45Z</time>
      </trkpt>
      <trkpt lat="43.54812" lon="1.47212">
        <ele>181.6</ele>
        <time>2023-05-27T05:08:46Z</time>
      </trkpt>
      <trkpt lat="43.54808" lon="1.47216">
        <ele>181.6</ele>
        <time>2023-05-27T05:08:47Z</time>
      </trkpt>
      <trkpt lat="43.54804" lon="1.4722">
        <ele>181.6</ele>
        <time>2023-05-27T05:08:48Z</time>
      </trkpt>
      <trkpt lat="43.54801" lon="1.47225">
        <ele>181.6</ele>
        <time>2023-05-27T05:08:49Z</time>
      </trkpt>
      <trkpt lat="43.54797" lon="1.47228">
        <ele>181.6</ele>
        <time>2023-05-27T05:08:50Z</time>
      </trkpt>
      <trkpt lat="43.54793" lon="1.47233">
        <ele>181.8</ele>
        <time>2023-05-27T05:08:51Z</time>
      </trkpt>
      <trkpt lat="43.5479" lon="1.47238">
        <ele>181.8</ele>
        <time>2023-05-27T05:08:52Z</time>
      </trkpt>
      <trkpt lat="43.54786" lon="1.47242">
        <ele>181.8</ele>
        <time>2023-05-27T05:08:53Z</time>
      </trkpt>
      <trkpt lat="43.54782" lon="1.47246">
        <ele>181.8</ele>
        <time>2023-05-27T05:08:54Z</time>
      </trkpt>
      <trkpt lat="43.54778" lon="1.4725">
        <ele>181.8</ele>
        <time>2023-05-27T05:08:55Z</time>
      </trkpt>
      <trkpt lat="43.54774" lon="1.47254">
        <ele>181.8</ele>
        <time>2023-05-27T05:08:56Z</time>
      </trkpt>
      <trkpt lat="43.54771" lon="1.47258">
        <ele>181.8</ele>
        <time>2023-05-27T05:08:57Z</time>
      </trkpt>
      <trkpt lat="43.54767" lon="1.47263">
        <ele>181.8</ele>
        <time>2023-05-27T05:08:58Z</time>
      </trkpt>
      <trkpt lat="43.54764" lon="1.47266">
        <ele>182</ele>
        <time>2023-05-27T05:08:59Z</time>
      </trkpt>
      <trkpt lat="43.5476" lon="1.4727">
        <ele>182</ele>
        <time>2023-05-27T05:09:00Z</time>
      </trkpt>
      <trkpt lat="43.54756" lon="1.47274">
        <ele>182</ele>
        <time>2023-05-27T05:09:01Z</time>
      </trkpt>
      <trkpt lat="43.54753" lon="1.47278">
        <ele>182</ele>
        <time>2023-05-27T05:09:02Z</time>
      </trkpt>
      <trkpt lat="43.54749" lon="1.47282">
        <ele>182</ele>
        <time>2023-05-27T05:09:03Z</time>
      </trkpt>
      <trkpt lat="43.54745" lon="1.47286">
        <ele>182</ele>
        <time>2023-05-27T05:09:04Z</time>
      </trkpt>
      <trkpt lat="43.54741" lon="1.4729">
        <ele>181.8</ele>
        <time>2023-05-27T05:09:05Z</time>
      </trkpt>
      <trkpt lat="43.54737" lon="1.47293">
        <ele>181.8</ele>
        <time>2023-05-27T05:09:06Z</time>
      </trkpt>
      <trkpt lat="43.54732" lon="1.47297">
        <ele>181.8</ele>
        <time>2023-05-27T05:09:07Z</time>
      </trkpt>
      <trkpt lat="43.54728" lon="1.47301">
        <ele>181.8</ele>
        <time>2023-05-27T05:09:08Z</time>
      </trkpt>
      <trkpt lat="43.54724" lon="1.47306">
        <ele>181.8</ele>
        <time>2023-05-27T05:09:09Z</time>
      </trkpt>
      <trkpt lat="43.5472" lon="1.4731">
        <ele>181.8</ele>
        <time>2023-05-27T05:09:10Z</time>
      </trkpt>
      <trkpt lat="43.54717" lon="1.47315">
        <ele>181.8</ele>
        <time>2023-05-27T05:09:11Z</time>
      </trkpt>
      <trkpt lat="43.54713" lon="1.47319">
        <ele>181.8</ele>
        <time>2023-05-27T05:09:12Z</time>
      </trkpt>
      <trkpt lat="43.54709" lon="1.47324">
        <ele>181.6</ele>
        <time>2023-05-27T05:09:13Z</time>
      </trkpt>
      <trkpt lat="43.54704" lon="1.47328">
        <ele>181.6</ele>
        <time>2023-05-27T05:09:14Z</time>
      </trkpt>
      <trkpt lat="43.547" lon="1.47331">
        <ele>181.6</ele>
        <time>2023-05-27T05:09:15Z</time>
      </trkpt>
      <trkpt lat="43.54696" lon="1.47336">
        <ele>181.6</ele>
        <time>2023-05-27T05:09:16Z</time>
      </trkpt>
      <trkpt lat="43.54692" lon="1.4734">
        <ele>181.6</ele>
        <time>2023-05-27T05:09:17Z</time>
      </trkpt>
      <trkpt lat="43.54689" lon="1.47345">
        <ele>181.4</ele>
        <time>2023-05-27T05:09:18Z</time>
      </trkpt>
      <trkpt lat="43.54685" lon="1.4735">
        <ele>181.4</ele>
        <time>2023-05-27T05:09:19Z</time>
      </trkpt>
      <trkpt lat="43.54681" lon="1.47354">
        <ele>181.4</ele>
        <time>2023-05-27T05:09:20Z</time>
      </trkpt>
      <trkpt lat="43.54677" lon="1.47359">
        <ele>181.4</ele>
        <time>2023-05-27T05:09:21Z</time>
      </trkpt>
      <trkpt lat="43.54673" lon="1.47363">
        <ele>181.2</ele>
        <time>2023-05-27T05:09:22Z</time>
      </trkpt>
      <trkpt lat="43.54668" lon="1.47368">
        <ele>181.2</ele>
        <time>2023-05-27T05:09:23Z</time>
      </trkpt>
      <trkpt lat="43.54664" lon="1.47373">
        <ele>181.2</ele>
        <time>2023-05-27T05:09:24Z</time>
      </trkpt>
      <trkpt lat="43.54661" lon="1.47378">
        <ele>181</ele>
        <time>2023-05-27T05:09:25Z</time>
      </trkpt>
      <trkpt lat="43.54657" lon="1.47383">
        <ele>181</ele>
        <time>2023-05-27T05:09:26Z</time>
      </trkpt>
      <trkpt lat="43.54653" lon="1.47389">
        <ele>180.8</ele>
        <time>2023-05-27T05:09:27Z</time>
      </trkpt>
      <trkpt lat="43.54649" lon="1.47394">
        <ele>180.8</ele>
        <time>2023-05-27T05:09:28Z</time>
      </trkpt>
      <trkpt lat="43.54645" lon="1.47399">
        <ele>180.8</ele>
        <time>2023-05-27T05:09:29Z</time>
      </trkpt>
      <trkpt lat="43.54641" lon="1.47404">
        <ele>180.8</ele>
        <time>2023-05-27T05:09:30Z</time>
      </trkpt>
      <trkpt lat="43.54636" lon="1.47409">
        <ele>180.8</ele>
        <time>2023-05-27T05:09:31Z</time>
      </trkpt>
      <trkpt lat="43.54632" lon="1.47414">
        <ele>180.6</ele>
        <time>2023-05-27T05:09:32Z</time>
      </trkpt>
      <trkpt lat="43.54629" lon="1.47419">
        <ele>180.6</ele>
        <time>2023-05-27T05:09:33Z</time>
      </trkpt>
      <trkpt lat="43.54625" lon="1.47424">
        <ele>180.6</ele>
        <time>2023-05-27T05:09:34Z</time>
      </trkpt>
      <trkpt lat="43.54621" lon="1.4743">
        <ele>180.6</ele>
        <time>2023-05-27T05:09:35Z</time>
      </trkpt>
      <trkpt lat="43.54617" lon="1.47435">
        <ele>180.6</ele>
        <time>2023-05-27T05:09:36Z</time>
      </trkpt>
      <trkpt lat="43.54613" lon="1.47439">
        <ele>180.4</ele>
        <time>2023-05-27T05:09:37Z</time>
      </trkpt>
      <trkpt lat="43.54609" lon="1.47444">
        <ele>180.4</ele>
        <time>2023-05-27T05:09:38Z</time>
      </trkpt>
      <trkpt lat="43.54604" lon="1.47448">
        <ele>180.4</ele>
        <time>2023-05-27T05:09:39Z</time>
      </trkpt>
      <trkpt lat="43.546" lon="1.47453">
        <ele>180.2</ele>
        <time>2023-05-27T05:09:40Z</time>
      </trkpt>
      <trkpt lat="43.54597" lon="1.47459">
        <ele>180.2</ele>
        <time>2023-05-27T05:09:41Z</time>
      </trkpt>
      <trkpt lat="43.54593" lon="1.47464">
        <ele>180.2</ele>
        <time>2023-05-27T05:09:42Z</time>
      </trkpt>
      <trkpt lat="43.5459" lon="1.4747">
        <ele>180.2</ele>
        <time>2023-05-27T05:09:43Z</time>
      </trkpt>
      <trkpt lat="43.54586" lon="1.47475">
        <ele>180.2</ele>
        <time>2023-05-27T05:09:44Z</time>
      </trkpt>
      <trkpt lat="43.54582" lon="1.4748">
        <ele>180</ele>
        <time>2023-05-27T05:09:45Z</time>
      </trkpt>
      <trkpt lat="43.54579" lon="1.47486">
        <ele>180</ele>
        <time>2023-05-27T05:09:46Z</time>
      </trkpt>
      <trkpt lat="43.54575" lon="1.47491">
        <ele>180</ele>
        <time>2023-05-27T05:09:47Z</time>
      </trkpt>
      <trkpt lat="43.54571" lon="1.47496">
        <ele>180</ele>
        <time>2023-05-27T05:09:48Z</time>
      </trkpt>
      <trkpt lat="43.54567" lon="1.47501">
        <ele>179.8</ele>
        <time>2023-05-27T05:09:49Z</time>
      </trkpt>
      <trkpt lat="43.54563" lon="1.47507">
        <ele>179.8</ele>
        <time>2023-05-27T05:09:50Z</time>
      </trkpt>
      <trkpt lat="43.54559" lon="1.47512">
        <ele>179.8</ele>
        <time>2023-05-27T05:09:51Z</time>
      </trkpt>
      <trkpt lat="43.54555" lon="1.47516">
        <ele>179.8</ele>
        <time>2023-05-27T05:09:52Z</time>
      </trkpt>
      <trkpt lat="43.54551" lon="1.47521">
        <ele>179.8</ele>
        <time>2023-05-27T05:09:53Z</time>
      </trkpt>
      <trkpt lat="43.54547" lon="1.47527">
        <ele>179.8</ele>
        <time>2023-05-27T05:09:54Z</time>
      </trkpt>
      <trkpt lat="43.54542" lon="1.47532">
        <ele>179.8</ele>
        <time>2023-05-27T05:09:55Z</time>
      </trkpt>
      <trkpt lat="43.54538" lon="1.47537">
        <ele>179.6</ele>
        <time>2023-05-27T05:09:56Z</time>
      </trkpt>
      <trkpt lat="43.54535" lon="1.47542">
        <ele>179.6</ele>
        <time>2023-05-27T05:09:57Z</time>
      </trkpt>
      <trkpt lat="43.54531" lon="1.47547">
        <ele>179.6</ele>
        <time>2023-05-27T05:09:58Z</time>
      </trkpt>
      <trkpt lat="43.54527" lon="1.47552">
        <ele>179.6</ele>
        <time>2023-05-27T05:09:59Z</time>
      </trkpt>
      <trkpt lat="43.54522" lon="1.47556">
        <ele>179.6</ele>
        <time>2023-05-27T05:10:00Z</time>
      </trkpt>
      <trkpt lat="43.54519" lon="1.47561">
        <ele>179.4</ele>
        <time>2023-05-27T05:10:01Z</time>
      </trkpt>
      <trkpt lat="43.54515" lon="1.47565">
        <ele>179.4</ele>
        <time>2023-05-27T05:10:02Z</time>
      </trkpt>
      <trkpt lat="43.54511" lon="1.4757">
        <ele>179.4</ele>
        <time>2023-05-27T05:10:03Z</time>
      </trkpt>
      <trkpt lat="43.54507" lon="1.47575">
        <ele>179.4</ele>
        <time>2023-05-27T05:10:04Z</time>
      </trkpt>
      <trkpt lat="43.54503" lon="1.4758">
        <ele>179.4</ele>
        <time>2023-05-27T05:10:05Z</time>
      </trkpt>
      <trkpt lat="43.54498" lon="1.47585">
        <ele>179.2</ele>
        <time>2023-05-27T05:10:06Z</time>
      </trkpt>
      <trkpt lat="43.54494" lon="1.47589">
        <ele>179.2</ele>
        <time>2023-05-27T05:10:07Z</time>
      </trkpt>
      <trkpt lat="43.5449" lon="1.47593">
        <ele>179.2</ele>
        <time>2023-05-27T05:10:08Z</time>
      </trkpt>
      <trkpt lat="43.54485" lon="1.47598">
        <ele>179.2</ele>
        <time>2023-05-27T05:10:09Z</time>
      </trkpt>
      <trkpt lat="43.54481" lon="1.47602">
        <ele>179.2</ele>
        <time>2023-05-27T05:10:10Z</time>
      </trkpt>
      <trkpt lat="43.54477" lon="1.47607">
        <ele>179.2</ele>
        <time>2023-05-27T05:10:11Z</time>
      </trkpt>
      <trkpt lat="43.54473" lon="1.47612">
        <ele>179.2</ele>
        <time>2023-05-27T05:10:12Z</time>
      </trkpt>
      <trkpt lat="43.54469" lon="1.47617">
        <ele>179</ele>
        <time>2023-05-27T05:10:13Z</time>
      </trkpt>
      <trkpt lat="43.54465" lon="1.47622">
        <ele>179</ele>
        <time>2023-05-27T05:10:14Z</time>
      </trkpt>
      <trkpt lat="43.54461" lon="1.47626">
        <ele>179</ele>
        <time>2023-05-27T05:10:15Z</time>
      </trkpt>
      <trkpt lat="43.54457" lon="1.47631">
        <ele>179</ele>
        <time>2023-05-27T05:10:16Z</time>
      </trkpt>
      <trkpt lat="43.54453" lon="1.47635">
        <ele>179</ele>
        <time>2023-05-27T05:10:17Z</time>
      </trkpt>
      <trkpt lat="43.54449" lon="1.4764">
        <ele>179</ele>
        <time>2023-05-27T05:10:18Z</time>
      </trkpt>
      <trkpt lat="43.54445" lon="1.47645">
        <ele>178.8</ele>
        <time>2023-05-27T05:10:19Z</time>
      </trkpt>
      <trkpt lat="43.54441" lon="1.47649">
        <ele>179</ele>
        <time>2023-05-27T05:10:20Z</time>
      </trkpt>
      <trkpt lat="43.54437" lon="1.47654">
        <ele>179</ele>
        <time>2023-05-27T05:10:21Z</time>
      </trkpt>
      <trkpt lat="43.54433" lon="1.47658">
        <ele>179</ele>
        <time>2023-05-27T05:10:22Z</time>
      </trkpt>
      <trkpt lat="43.54429" lon="1.47662">
        <ele>179</ele>
        <time>2023-05-27T05:10:23Z</time>
      </trkpt>
      <trkpt lat="43.54424" lon="1.47666">
        <ele>179</ele>
        <time>2023-05-27T05:10:24Z</time>
      </trkpt>
      <trkpt lat="43.5442" lon="1.4767">
        <ele>179</ele>
        <time>2023-05-27T05:10:25Z</time>
      </trkpt>
      <trkpt lat="43.54416" lon="1.47673">
        <ele>179</ele>
        <time>2023-05-27T05:10:26Z</time>
      </trkpt>
      <trkpt lat="43.54412" lon="1.47677">
        <ele>178.8</ele>
        <time>2023-05-27T05:10:27Z</time>
      </trkpt>
      <trkpt lat="43.54408" lon="1.4768">
        <ele>178.8</ele>
        <time>2023-05-27T05:10:28Z</time>
      </trkpt>
      <trkpt lat="43.54403" lon="1.47683">
        <ele>179</ele>
        <time>2023-05-27T05:10:29Z</time>
      </trkpt>
      <trkpt lat="43.54399" lon="1.47686">
        <ele>179</ele>
        <time>2023-05-27T05:10:30Z</time>
      </trkpt>
      <trkpt lat="43.54395" lon="1.47689">
        <ele>179</ele>
        <time>2023-05-27T05:10:31Z</time>
      </trkpt>
      <trkpt lat="43.54391" lon="1.47692">
        <ele>179</ele>
        <time>2023-05-27T05:10:32Z</time>
      </trkpt>
      <trkpt lat="43.54386" lon="1.47695">
        <ele>179</ele>
        <time>2023-05-27T05:10:33Z</time>
      </trkpt>
      <trkpt lat="43.54382" lon="1.47698">
        <ele>179</ele>
        <time>2023-05-27T05:10:34Z</time>
      </trkpt>
      <trkpt lat="43.54378" lon="1.47701">
        <ele>179</ele>
        <time>2023-05-27T05:10:35Z</time>
      </trkpt>
      <trkpt lat="43.54375" lon="1.47704">
        <ele>179</ele>
        <time>2023-05-27T05:10:36Z</time>
      </trkpt>
      <trkpt lat="43.5437" lon="1.47706">
        <ele>179</ele>
        <time>2023-05-27T05:10:37Z</time>
      </trkpt>
      <trkpt lat="43.54366" lon="1.47709">
        <ele>179</ele>
        <time>2023-05-27T05:10:38Z</time>
      </trkpt>
      <trkpt lat="43.54362" lon="1.47712">
        <ele>179</ele>
        <time>2023-05-27T05:10:39Z</time>
      </trkpt>
      <trkpt lat="43.54359" lon="1.47715">
        <ele>179.2</ele>
        <time>2023-05-27T05:10:40Z</time>
      </trkpt>
      <trkpt lat="43.54355" lon="1.47718">
        <ele>179.2</ele>
        <time>2023-05-27T05:10:41Z</time>
      </trkpt>
      <trkpt lat="43.54351" lon="1.47721">
        <ele>179.2</ele>
        <time>2023-05-27T05:10:42Z</time>
      </trkpt>
      <trkpt lat="43.54347" lon="1.47724">
        <ele>179.2</ele>
        <time>2023-05-27T05:10:43Z</time>
      </trkpt>
      <trkpt lat="43.54343" lon="1.47727">
        <ele>179.2</ele>
        <time>2023-05-27T05:10:44Z</time>
      </trkpt>
      <trkpt lat="43.54339" lon="1.47729">
        <ele>179.2</ele>
        <time>2023-05-27T05:10:45Z</time>
      </trkpt>
      <trkpt lat="43.54335" lon="1.47732">
        <ele>179.2</ele>
        <time>2023-05-27T05:10:46Z</time>
      </trkpt>
      <trkpt lat="43.54331" lon="1.47735">
        <ele>179.2</ele>
        <time>2023-05-27T05:10:47Z</time>
      </trkpt>
      <trkpt lat="43.54327" lon="1.47737">
        <ele>179.4</ele>
        <time>2023-05-27T05:10:48Z</time>
      </trkpt>
      <trkpt lat="43.54323" lon="1.4774">
        <ele>179.4</ele>
        <time>2023-05-27T05:10:49Z</time>
      </trkpt>
      <trkpt lat="43.54319" lon="1.47742">
        <ele>179.4</ele>
        <time>2023-05-27T05:10:50Z</time>
      </trkpt>
      <trkpt lat="43.54315" lon="1.47745">
        <ele>179.4</ele>
        <time>2023-05-27T05:10:51Z</time>
      </trkpt>
      <trkpt lat="43.54311" lon="1.47747">
        <ele>179.4</ele>
        <time>2023-05-27T05:10:52Z</time>
      </trkpt>
      <trkpt lat="43.54307" lon="1.4775">
        <ele>179.6</ele>
        <time>2023-05-27T05:10:53Z</time>
      </trkpt>
      <trkpt lat="43.54303" lon="1.47753">
        <ele>179.6</ele>
        <time>2023-05-27T05:10:54Z</time>
      </trkpt>
      <trkpt lat="43.543" lon="1.47755">
        <ele>179.6</ele>
        <time>2023-05-27T05:10:55Z</time>
      </trkpt>
      <trkpt lat="43.54296" lon="1.47758">
        <ele>179.6</ele>
        <time>2023-05-27T05:10:56Z</time>
      </trkpt>
      <trkpt lat="43.54293" lon="1.47761">
        <ele>179.6</ele>
        <time>2023-05-27T05:10:57Z</time>
      </trkpt>
      <trkpt lat="43.54289" lon="1.47763">
        <ele>179.6</ele>
        <time>2023-05-27T05:10:58Z</time>
      </trkpt>
      <trkpt lat="43.54285" lon="1.47766">
        <ele>179.6</ele>
        <time>2023-05-27T05:10:59Z</time>
      </trkpt>
      <trkpt lat="43.54281" lon="1.47768">
        <ele>179.8</ele>
        <time>2023-05-27T05:11:00Z</time>
      </trkpt>
      <trkpt lat="43.54278" lon="1.47771">
        <ele>179.8</ele>
        <time>2023-05-27T05:11:01Z</time>
      </trkpt>
      <trkpt lat="43.54274" lon="1.47774">
        <ele>179.8</ele>
        <time>2023-05-27T05:11:02Z</time>
      </trkpt>
      <trkpt lat="43.5427" lon="1.47776">
        <ele>179.8</ele>
        <time>2023-05-27T05:11:03Z</time>
      </trkpt>
      <trkpt lat="43.54267" lon="1.47778">
        <ele>179.8</ele>
        <time>2023-05-27T05:11:04Z</time>
      </trkpt>
      <trkpt lat="43.54263" lon="1.47781">
        <ele>180</ele>
        <time>2023-05-27T05:11:05Z</time>
      </trkpt>
      <trkpt lat="43.54259" lon="1.47783">
        <ele>180</ele>
        <time>2023-05-27T05:11:06Z</time>
      </trkpt>
      <trkpt lat="43.54255" lon="1.47785">
        <ele>180</ele>
        <time>2023-05-27T05:11:07Z</time>
      </trkpt>
      <trkpt lat="43.54251" lon="1.47787">
        <ele>180</ele>
        <time>2023-05-27T05:11:08Z</time>
      </trkpt>
      <trkpt lat="43.54248" lon="1.4779">
        <ele>180</ele>
        <time>2023-05-27T05:11:09Z</time>
      </trkpt>
      <trkpt lat="43.54244" lon="1.47793">
        <ele>180.2</ele>
        <time>2023-05-27T05:11:10Z</time>
      </trkpt>
      <trkpt lat="43.54241" lon="1.47795">
        <ele>180.2</ele>
        <time>2023-05-27T05:11:11Z</time>
      </trkpt>
      <trkpt lat="43.54238" lon="1.47797">
        <ele>180.2</ele>
        <time>2023-05-27T05:11:12Z</time>
      </trkpt>
      <trkpt lat="43.54234" lon="1.478">
        <ele>180.2</ele>
        <time>2023-05-27T05:11:13Z</time>
      </trkpt>
      <trkpt lat="43.54231" lon="1.47803">
        <ele>180.2</ele>
        <time>2023-05-27T05:11:14Z</time>
      </trkpt>
      <trkpt lat="43.54227" lon="1.47804">
        <ele>180.2</ele>
        <time>2023-05-27T05:11:15Z</time>
      </trkpt>
      <trkpt lat="43.54224" lon="1.47806">
        <ele>180.4</ele>
        <time>2023-05-27T05:11:16Z</time>
      </trkpt>
      <trkpt lat="43.5422" lon="1.47809">
        <ele>180.4</ele>
        <time>2023-05-27T05:11:17Z</time>
      </trkpt>
      <trkpt lat="43.54216" lon="1.47811">
        <ele>180.4</ele>
        <time>2023-05-27T05:11:18Z</time>
      </trkpt>
      <trkpt lat="43.54213" lon="1.47813">
        <ele>180.4</ele>
        <time>2023-05-27T05:11:19Z</time>
      </trkpt>
      <trkpt lat="43.54209" lon="1.47815">
        <ele>180.4</ele>
        <time>2023-05-27T05:11:20Z</time>
      </trkpt>
      <trkpt lat="43.54205" lon="1.47817">
        <ele>180.4</ele>
        <time>2023-05-27T05:11:21Z</time>
      </trkpt>
      <trkpt lat="43.54201" lon="1.47818">
        <ele>180.6</ele>
        <time>2023-05-27T05:11:22Z</time>
      </trkpt>
      <trkpt lat="43.54198" lon="1.4782">
        <ele>180.6</ele>
        <time>2023-05-27T05:11:23Z</time>
      </trkpt>
      <trkpt lat="43.54194" lon="1.47822">
        <ele>180.6</ele>
        <time>2023-05-27T05:11:24Z</time>
      </trkpt>
      <trkpt lat="43.5419" lon="1.47825">
        <ele>180.6</ele>
        <time>2023-05-27T05:11:25Z</time>
      </trkpt>
      <trkpt lat="43.54187" lon="1.47827">
        <ele>180.6</ele>
        <time>2023-05-27T05:11:26Z</time>
      </trkpt>
      <trkpt lat="43.54184" lon="1.4783">
        <ele>180.8</ele>
        <time>2023-05-27T05:11:27Z</time>
      </trkpt>
      <trkpt lat="43.54181" lon="1.47832">
        <ele>180.8</ele>
        <time>2023-05-27T05:11:28Z</time>
      </trkpt>
      <trkpt lat="43.54177" lon="1.47834">
        <ele>180.8</ele>
        <time>2023-05-27T05:11:29Z</time>
      </trkpt>
      <trkpt lat="43.54173" lon="1.47837">
        <ele>180.8</ele>
        <time>2023-05-27T05:11:30Z</time>
      </trkpt>
      <trkpt lat="43.5417" lon="1.47839">
        <ele>180.8</ele>
        <time>2023-05-27T05:11:31Z</time>
      </trkpt>
      <trkpt lat="43.54167" lon="1.47841">
        <ele>181</ele>
        <time>2023-05-27T05:11:32Z</time>
      </trkpt>
      <trkpt lat="43.54163" lon="1.47843">
        <ele>181</ele>
        <time>2023-05-27T05:11:33Z</time>
      </trkpt>
      <trkpt lat="43.5416" lon="1.47846">
        <ele>181</ele>
        <time>2023-05-27T05:11:34Z</time>
      </trkpt>
      <trkpt lat="43.54157" lon="1.47848">
        <ele>181</ele>
        <time>2023-05-27T05:11:35Z</time>
      </trkpt>
      <trkpt lat="43.54153" lon="1.47849">
        <ele>181.2</ele>
        <time>2023-05-27T05:11:36Z</time>
      </trkpt>
      <trkpt lat="43.54149" lon="1.47851">
        <ele>181.2</ele>
        <time>2023-05-27T05:11:37Z</time>
      </trkpt>
      <trkpt lat="43.54145" lon="1.47853">
        <ele>181.2</ele>
        <time>2023-05-27T05:11:38Z</time>
      </trkpt>
      <trkpt lat="43.54142" lon="1.47854">
        <ele>181.2</ele>
        <time>2023-05-27T05:11:39Z</time>
      </trkpt>
      <trkpt lat="43.54138" lon="1.47856">
        <ele>181.4</ele>
        <time>2023-05-27T05:11:40Z</time>
      </trkpt>
      <trkpt lat="43.54134" lon="1.47858">
        <ele>181.4</ele>
        <time>2023-05-27T05:11:41Z</time>
      </trkpt>
      <trkpt lat="43.54131" lon="1.4786">
        <ele>181.4</ele>
        <time>2023-05-27T05:11:42Z</time>
      </trkpt>
      <trkpt lat="43.54127" lon="1.47862">
        <ele>181.6</ele>
        <time>2023-05-27T05:11:43Z</time>
      </trkpt>
      <trkpt lat="43.54124" lon="1.47864">
        <ele>181.6</ele>
        <time>2023-05-27T05:11:44Z</time>
      </trkpt>
      <trkpt lat="43.54121" lon="1.47866">
        <ele>181.6</ele>
        <time>2023-05-27T05:11:45Z</time>
      </trkpt>
      <trkpt lat="43.54117" lon="1.47868">
        <ele>181.6</ele>
        <time>2023-05-27T05:11:46Z</time>
      </trkpt>
      <trkpt lat="43.54113" lon="1.4787">
        <ele>181.6</ele>
        <time>2023-05-27T05:11:47Z</time>
      </trkpt>
      <trkpt lat="43.54109" lon="1.47872">
        <ele>181.6</ele>
        <time>2023-05-27T05:11:48Z</time>
      </trkpt>
      <trkpt lat="43.54105" lon="1.47873">
        <ele>181.6</ele>
        <time>2023-05-27T05:11:49Z</time>
      </trkpt>
      <trkpt lat="43.54101" lon="1.47875">
        <ele>181.8</ele>
        <time>2023-05-27T05:11:50Z</time>
      </trkpt>
      <trkpt lat="43.54098" lon="1.47876">
        <ele>181.8</ele>
        <time>2023-05-27T05:11:51Z</time>
      </trkpt>
      <trkpt lat="43.54094" lon="1.47877">
        <ele>181.8</ele>
        <time>2023-05-27T05:11:52Z</time>
      </trkpt>
      <trkpt lat="43.54091" lon="1.47879">
        <ele>181.8</ele>
        <time>2023-05-27T05:11:53Z</time>
      </trkpt>
      <trkpt lat="43.54087" lon="1.47881">
        <ele>181.8</ele>
        <time>2023-05-27T05:11:54Z</time>
      </trkpt>
      <trkpt lat="43.54084" lon="1.47882">
        <ele>182</ele>
        <time>2023-05-27T05:11:55Z</time>
      </trkpt>
      <trkpt lat="43.5408" lon="1.47883">
        <ele>182</ele>
        <time>2023-05-27T05:11:56Z</time>
      </trkpt>
      <trkpt lat="43.54077" lon="1.47885">
        <ele>182</ele>
        <time>2023-05-27T05:11:57Z</time>
      </trkpt>
      <trkpt lat="43.54074" lon="1.47887">
        <ele>182</ele>
        <time>2023-05-27T05:11:58Z</time>
      </trkpt>
      <trkpt lat="43.54071" lon="1.47889">
        <ele>182.2</ele>
        <time>2023-05-27T05:11:59Z</time>
      </trkpt>
      <trkpt lat="43.54069" lon="1.47892">
        <ele>182.2</ele>
        <time>2023-05-27T05:12:00Z</time>
      </trkpt>
      <trkpt lat="43.54066" lon="1.47894">
        <ele>182.2</ele>
        <time>2023-05-27T05:12:01Z</time>
      </trkpt>
      <trkpt lat="43.54064" lon="1.47896">
        <ele>182.4</ele>
        <time>2023-05-27T05:12:02Z</time>
      </trkpt>
      <trkpt lat="43.54061" lon="1.47899">
        <ele>182.4</ele>
        <time>2023-05-27T05:12:03Z</time>
      </trkpt>
      <trkpt lat="43.54059" lon="1.47902">
        <ele>182.4</ele>
        <time>2023-05-27T05:12:04Z</time>
      </trkpt>
      <trkpt lat="43.54057" lon="1.47905">
        <ele>182.4</ele>
        <time>2023-05-27T05:12:05Z</time>
      </trkpt>
      <trkpt lat="43.54056" lon="1.47908">
        <ele>182.4</ele>
        <time>2023-05-27T05:12:06Z</time>
      </trkpt>
      <trkpt lat="43.54056" lon="1.47912">
        <ele>182.4</ele>
        <time>2023-05-27T05:12:07Z</time>
      </trkpt>
      <trkpt lat="43.54055" lon="1.47914">
        <ele>182.4</ele>
        <time>2023-05-27T05:12:08Z</time>
      </trkpt>
      <trkpt lat="43.54054" lon="1.47917">
        <ele>182.4</ele>
        <time>2023-05-27T05:12:09Z</time>
      </trkpt>
      <trkpt lat="43.54053" lon="1.4792">
        <ele>182.4</ele>
        <time>2023-05-27T05:12:10Z</time>
      </trkpt>
      <trkpt lat="43.54054" lon="1.47924">
        <ele>182.4</ele>
        <time>2023-05-27T05:12:11Z</time>
      </trkpt>
      <trkpt lat="43.54055" lon="1.47928">
        <ele>182.4</ele>
        <time>2023-05-27T05:12:12Z</time>
      </trkpt>
      <trkpt lat="43.54056" lon="1.47932">
        <ele>182.2</ele>
        <time>2023-05-27T05:12:13Z</time>
      </trkpt>
      <trkpt lat="43.54058" lon="1.47936">
        <ele>182.2</ele>
        <time>2023-05-27T05:12:14Z</time>
      </trkpt>
      <trkpt lat="43.5406" lon="1.4794">
        <ele>182.2</ele>
        <time>2023-05-27T05:12:15Z</time>
      </trkpt>
      <trkpt lat="43.54062" lon="1.47945">
        <ele>182</ele>
        <time>2023-05-27T05:12:16Z</time>
      </trkpt>
      <trkpt lat="43.54064" lon="1.47949">
        <ele>181.8</ele>
        <time>2023-05-27T05:12:17Z</time>
      </trkpt>
      <trkpt lat="43.54066" lon="1.47953">
        <ele>181.8</ele>
        <time>2023-05-27T05:12:18Z</time>
      </trkpt>
      <trkpt lat="43.54068" lon="1.47958">
        <ele>181.8</ele>
        <time>2023-05-27T05:12:19Z</time>
      </trkpt>
      <trkpt lat="43.5407" lon="1.47962">
        <ele>181.6</ele>
        <time>2023-05-27T05:12:20Z</time>
      </trkpt>
      <trkpt lat="43.54072" lon="1.47966">
        <ele>181.6</ele>
        <time>2023-05-27T05:12:21Z</time>
      </trkpt>
      <trkpt lat="43.54074" lon="1.47971">
        <ele>181.4</ele>
        <time>2023-05-27T05:12:22Z</time>
      </trkpt>
      <trkpt lat="43.54077" lon="1.47975">
        <ele>181.4</ele>
        <time>2023-05-27T05:12:23Z</time>
      </trkpt>
      <trkpt lat="43.54079" lon="1.47979">
        <ele>181.2</ele>
        <time>2023-05-27T05:12:24Z</time>
      </trkpt>
      <trkpt lat="43.5408" lon="1.47983">
        <ele>181.2</ele>
        <time>2023-05-27T05:12:25Z</time>
      </trkpt>
      <trkpt lat="43.54082" lon="1.47988">
        <ele>181</ele>
        <time>2023-05-27T05:12:26Z</time>
      </trkpt>
      <trkpt lat="43.54082" lon="1.47992">
        <ele>181</ele>
        <time>2023-05-27T05:12:27Z</time>
      </trkpt>
      <trkpt lat="43.54082" lon="1.47998">
        <ele>180.8</ele>
        <time>2023-05-27T05:12:28Z</time>
      </trkpt>
      <trkpt lat="43.54083" lon="1.48003">
        <ele>180.6</ele>
        <time>2023-05-27T05:12:29Z</time>
      </trkpt>
      <trkpt lat="43.54084" lon="1.48009">
        <ele>180.6</ele>
        <time>2023-05-27T05:12:30Z</time>
      </trkpt>
      <trkpt lat="43.54086" lon="1.48014">
        <ele>180.4</ele>
        <time>2023-05-27T05:12:31Z</time>
      </trkpt>
      <trkpt lat="43.54088" lon="1.48019">
        <ele>180.4</ele>
        <time>2023-05-27T05:12:32Z</time>
      </trkpt>
      <trkpt lat="43.5409" lon="1.48025">
        <ele>180.2</ele>
        <time>2023-05-27T05:12:33Z</time>
      </trkpt>
      <trkpt lat="43.54092" lon="1.48032">
        <ele>180</ele>
        <time>2023-05-27T05:12:34Z</time>
      </trkpt>
      <trkpt lat="43.54095" lon="1.48039">
        <ele>179.8</ele>
        <time>2023-05-27T05:12:35Z</time>
      </trkpt>
      <trkpt lat="43.54098" lon="1.48046">
        <ele>179.6</ele>
        <time>2023-05-27T05:12:36Z</time>
      </trkpt>
      <trkpt lat="43.54101" lon="1.48054">
        <ele>179.4</ele>
        <time>2023-05-27T05:12:37Z</time>
      </trkpt>
      <trkpt lat="43.54104" lon="1.48063">
        <ele>179.2</ele>
        <time>2023-05-27T05:12:38Z</time>
      </trkpt>
      <trkpt lat="43.54107" lon="1.48072">
        <ele>178.8</ele>
        <time>2023-05-27T05:12:39Z</time>
      </trkpt>
      <trkpt lat="43.5411" lon="1.4808">
        <ele>178.4</ele>
        <time>2023-05-27T05:12:40Z</time>
      </trkpt>
      <trkpt lat="43.54113" lon="1.48089">
        <ele>178.2</ele>
        <time>2023-05-27T05:12:41Z</time>
      </trkpt>
      <trkpt lat="43.54115" lon="1.48099">
        <ele>177.8</ele>
        <time>2023-05-27T05:12:42Z</time>
      </trkpt>
      <trkpt lat="43.54117" lon="1.4811">
        <ele>177.6</ele>
        <time>2023-05-27T05:12:43Z</time>
      </trkpt>
      <trkpt lat="43.5412" lon="1.4812">
        <ele>177.2</ele>
        <time>2023-05-27T05:12:44Z</time>
      </trkpt>
      <trkpt lat="43.54122" lon="1.4813">
        <ele>176.8</ele>
        <time>2023-05-27T05:12:45Z</time>
      </trkpt>
      <trkpt lat="43.54123" lon="1.48141">
        <ele>176.6</ele>
        <time>2023-05-27T05:12:46Z</time>
      </trkpt>
      <trkpt lat="43.54124" lon="1.48152">
        <ele>176.4</ele>
        <time>2023-05-27T05:12:47Z</time>
      </trkpt>
      <trkpt lat="43.54125" lon="1.48162">
        <ele>176.2</ele>
        <time>2023-05-27T05:12:48Z</time>
      </trkpt>
      <trkpt lat="43.54127" lon="1.48172">
        <ele>176</ele>
        <time>2023-05-27T05:12:49Z</time>
      </trkpt>
      <trkpt lat="43.5413" lon="1.48182">
        <ele>175.8</ele>
        <time>2023-05-27T05:12:50Z</time>
      </trkpt>
      <trkpt lat="43.54132" lon="1.48191">
        <ele>175.6</ele>
        <time>2023-05-27T05:12:51Z</time>
      </trkpt>
      <trkpt lat="43.54132" lon="1.48201">
        <ele>175.6</ele>
        <time>2023-05-27T05:12:52Z</time>
      </trkpt>
      <trkpt lat="43.54132" lon="1.4821">
        <ele>175.4</ele>
        <time>2023-05-27T05:12:53Z</time>
      </trkpt>
      <trkpt lat="43.54132" lon="1.48219">
        <ele>175.2</ele>
        <time>2023-05-27T05:12:54Z</time>
      </trkpt>
      <trkpt lat="43.54132" lon="1.48227">
        <ele>175.2</ele>
        <time>2023-05-27T05:12:55Z</time>
      </trkpt>
      <trkpt lat="43.54132" lon="1.48235">
        <ele>175</ele>
        <time>2023-05-27T05:12:56Z</time>
      </trkpt>
      <trkpt lat="43.54132" lon="1.48244">
        <ele>175</ele>
        <time>2023-05-27T05:12:57Z</time>
      </trkpt>
      <trkpt lat="43.5413" lon="1.4825">
        <ele>175</ele>
        <time>2023-05-27T05:12:58Z</time>
      </trkpt>
      <trkpt lat="43.54127" lon="1.48256">
        <ele>174.8</ele>
        <time>2023-05-27T05:12:59Z</time>
      </trkpt>
      <trkpt lat="43.54122" lon="1.48261">
        <ele>174.8</ele>
        <time>2023-05-27T05:13:00Z</time>
      </trkpt>
      <trkpt lat="43.54118" lon="1.48265">
        <ele>174.8</ele>
        <time>2023-05-27T05:13:01Z</time>
      </trkpt>
      <trkpt lat="43.54113" lon="1.48269">
        <ele>174.8</ele>
        <time>2023-05-27T05:13:02Z</time>
      </trkpt>
      <trkpt lat="43.54109" lon="1.48273">
        <ele>174.8</ele>
        <time>2023-05-27T05:13:03Z</time>
      </trkpt>
      <trkpt lat="43.54105" lon="1.48278">
        <ele>174.8</ele>
        <time>2023-05-27T05:13:04Z</time>
      </trkpt>
      <trkpt lat="43.54101" lon="1.48283">
        <ele>174.6</ele>
        <time>2023-05-27T05:13:05Z</time>
      </trkpt>
      <trkpt lat="43.54098" lon="1.48289">
        <ele>174.6</ele>
        <time>2023-05-27T05:13:06Z</time>
      </trkpt>
      <trkpt lat="43.54095" lon="1.48295">
        <ele>174.6</ele>
        <time>2023-05-27T05:13:07Z</time>
      </trkpt>
      <trkpt lat="43.54092" lon="1.48302">
        <ele>174.4</ele>
        <time>2023-05-27T05:13:08Z</time>
      </trkpt>
      <trkpt lat="43.5409" lon="1.48308">
        <ele>174.4</ele>
        <time>2023-05-27T05:13:09Z</time>
      </trkpt>
      <trkpt lat="43.5409" lon="1.48316">
        <ele>174.4</ele>
        <time>2023-05-27T05:13:10Z</time>
      </trkpt>
      <trkpt lat="43.54091" lon="1.48323">
        <ele>174.2</ele>
        <time>2023-05-27T05:13:11Z</time>
      </trkpt>
      <trkpt lat="43.54093" lon="1.4833">
        <ele>174.2</ele>
        <time>2023-05-27T05:13:12Z</time>
      </trkpt>
      <trkpt lat="43.54096" lon="1.48336">
        <ele>174.2</ele>
        <time>2023-05-27T05:13:13Z</time>
      </trkpt>
      <trkpt lat="43.541" lon="1.48341">
        <ele>174</ele>
        <time>2023-05-27T05:13:14Z</time>
      </trkpt>
      <trkpt lat="43.54105" lon="1.48344">
        <ele>174</ele>
        <time>2023-05-27T05:13:15Z</time>
      </trkpt>
      <trkpt lat="43.5411" lon="1.48346">
        <ele>174</ele>
        <time>2023-05-27T05:13:16Z</time>
      </trkpt>
      <trkpt lat="43.54116" lon="1.48347">
        <ele>174</ele>
        <time>2023-05-27T05:13:17Z</time>
      </trkpt>
      <trkpt lat="43.54121" lon="1.48347">
        <ele>174</ele>
        <time>2023-05-27T05:13:18Z</time>
      </trkpt>
      <trkpt lat="43.54127" lon="1.48346">
        <ele>174</ele>
        <time>2023-05-27T05:13:19Z</time>
      </trkpt>
      <trkpt lat="43.54132" lon="1.48344">
        <ele>174</ele>
        <time>2023-05-27T05:13:20Z</time>
      </trkpt>
      <trkpt lat="43.54137" lon="1.48342">
        <ele>174</ele>
        <time>2023-05-27T05:13:21Z</time>
      </trkpt>
      <trkpt lat="43.54142" lon="1.4834">
        <ele>174</ele>
        <time>2023-05-27T05:13:22Z</time>
      </trkpt>
      <trkpt lat="43.54146" lon="1.48337">
        <ele>174</ele>
        <time>2023-05-27T05:13:23Z</time>
      </trkpt>
      <trkpt lat="43.54151" lon="1.48333">
        <ele>174</ele>
        <time>2023-05-27T05:13:24Z</time>
      </trkpt>
      <trkpt lat="43.54154" lon="1.48328">
        <ele>174</ele>
        <time>2023-05-27T05:13:25Z</time>
      </trkpt>
      <trkpt lat="43.54157" lon="1.48323">
        <ele>174</ele>
        <time>2023-05-27T05:13:26Z</time>
      </trkpt>
      <trkpt lat="43.5416" lon="1.48318">
        <ele>174</ele>
        <time>2023-05-27T05:13:27Z</time>
      </trkpt>
      <trkpt lat="43.54162" lon="1.48312">
        <ele>174.2</ele>
        <time>2023-05-27T05:13:28Z</time>
      </trkpt>
      <trkpt lat="43.54163" lon="1.48306">
        <ele>174.2</ele>
        <time>2023-05-27T05:13:29Z</time>
      </trkpt>
      <trkpt lat="43.54165" lon="1.483">
        <ele>174.2</ele>
        <time>2023-05-27T05:13:30Z</time>
      </trkpt>
      <trkpt lat="43.54168" lon="1.48295">
        <ele>174.2</ele>
        <time>2023-05-27T05:13:31Z</time>
      </trkpt>
      <trkpt lat="43.54172" lon="1.48292">
        <ele>174.2</ele>
        <time>2023-05-27T05:13:32Z</time>
      </trkpt>
      <trkpt lat="43.54177" lon="1.4829">
        <ele>174.2</ele>
        <time>2023-05-27T05:13:33Z</time>
      </trkpt>
      <trkpt lat="43.54182" lon="1.4829">
        <ele>174</ele>
        <time>2023-05-27T05:13:34Z</time>
      </trkpt>
      <trkpt lat="43.54187" lon="1.48291">
        <ele>174</ele>
        <time>2023-05-27T05:13:35Z</time>
      </trkpt>
      <trkpt lat="43.54191" lon="1.48294">
        <ele>174</ele>
        <time>2023-05-27T05:13:36Z</time>
      </trkpt>
      <trkpt lat="43.54195" lon="1.48298">
        <ele>174</ele>
        <time>2023-05-27T05:13:37Z</time>
      </trkpt>
      <trkpt lat="43.54198" lon="1.48304">
        <ele>174</ele>
        <time>2023-05-27T05:13:38Z</time>
      </trkpt>
      <trkpt lat="43.542" lon="1.4831">
        <ele>173.8</ele>
        <time>2023-05-27T05:13:39Z</time>
      </trkpt>
      <trkpt lat="43.54202" lon="1.48316">
        <ele>173.8</ele>
        <time>2023-05-27T05:13:40Z</time>
      </trkpt>
      <trkpt lat="43.54204" lon="1.48323">
        <ele>173.8</ele>
        <time>2023-05-27T05:13:41Z</time>
      </trkpt>
      <trkpt lat="43.54206" lon="1.48329">
        <ele>173.6</ele>
        <time>2023-05-27T05:13:42Z</time>
      </trkpt>
      <trkpt lat="43.54208" lon="1.48336">
        <ele>173.6</ele>
        <time>2023-05-27T05:13:43Z</time>
      </trkpt>
      <trkpt lat="43.54211" lon="1.48343">
        <ele>173.6</ele>
        <time>2023-05-27T05:13:44Z</time>
      </trkpt>
      <trkpt lat="43.54214" lon="1.4835">
        <ele>173.4</ele>
        <time>2023-05-27T05:13:45Z</time>
      </trkpt>
      <trkpt lat="43.54217" lon="1.48356">
        <ele>173.4</ele>
        <time>2023-05-27T05:13:46Z</time>
      </trkpt>
      <trkpt lat="43.5422" lon="1.48362">
        <ele>173.2</ele>
        <time>2023-05-27T05:13:47Z</time>
      </trkpt>
      <trkpt lat="43.54223" lon="1.48369">
        <ele>173</ele>
        <time>2023-05-27T05:13:48Z</time>
      </trkpt>
      <trkpt lat="43.54226" lon="1.48376">
        <ele>173</ele>
        <time>2023-05-27T05:13:49Z</time>
      </trkpt>
      <trkpt lat="43.54229" lon="1.48383">
        <ele>172.8</ele>
        <time>2023-05-27T05:13:50Z</time>
      </trkpt>
      <trkpt lat="43.54233" lon="1.4839">
        <ele>172.6</ele>
        <time>2023-05-27T05:13:51Z</time>
      </trkpt>
      <trkpt lat="43.54236" lon="1.48397">
        <ele>172.6</ele>
        <time>2023-05-27T05:13:52Z</time>
      </trkpt>
      <trkpt lat="43.5424" lon="1.48404">
        <ele>172.2</ele>
        <time>2023-05-27T05:13:53Z</time>
      </trkpt>
      <trkpt lat="43.54244" lon="1.48411">
        <ele>172</ele>
        <time>2023-05-27T05:13:54Z</time>
      </trkpt>
      <trkpt lat="43.54247" lon="1.48418">
        <ele>172</ele>
        <time>2023-05-27T05:13:55Z</time>
      </trkpt>
      <trkpt lat="43.54251" lon="1.48426">
        <ele>171.8</ele>
        <time>2023-05-27T05:13:56Z</time>
      </trkpt>
      <trkpt lat="43.54255" lon="1.48433">
        <ele>171.6</ele>
        <time>2023-05-27T05:13:57Z</time>
      </trkpt>
      <trkpt lat="43.54258" lon="1.4844">
        <ele>171.4</ele>
        <time>2023-05-27T05:13:58Z</time>
      </trkpt>
      <trkpt lat="43.54262" lon="1.48448">
        <ele>171.2</ele>
        <time>2023-05-27T05:13:59Z</time>
      </trkpt>
      <trkpt lat="43.54265" lon="1.48456">
        <ele>171.2</ele>
        <time>2023-05-27T05:14:00Z</time>
      </trkpt>
      <trkpt lat="43.54268" lon="1.48464">
        <ele>171</ele>
        <time>2023-05-27T05:14:01Z</time>
      </trkpt>
      <trkpt lat="43.54272" lon="1.48471">
        <ele>170.8</ele>
        <time>2023-05-27T05:14:02Z</time>
      </trkpt>
      <trkpt lat="43.54276" lon="1.48478">
        <ele>170.6</ele>
        <time>2023-05-27T05:14:03Z</time>
      </trkpt>
      <trkpt lat="43.5428" lon="1.48485">
        <ele>170.6</ele>
        <time>2023-05-27T05:14:04Z</time>
      </trkpt>
      <trkpt lat="43.54284" lon="1.48491">
        <ele>170.4</ele>
        <time>2023-05-27T05:14:05Z</time>
      </trkpt>
      <trkpt lat="43.54288" lon="1.48498">
        <ele>170.2</ele>
        <time>2023-05-27T05:14:06Z</time>
      </trkpt>
      <trkpt lat="43.54292" lon="1.48505">
        <ele>170.2</ele>
        <time>2023-05-27T05:14:07Z</time>
      </trkpt>
      <trkpt lat="43.54296" lon="1.48512">
        <ele>170</ele>
        <time>2023-05-27T05:14:08Z</time>
      </trkpt>
      <trkpt lat="43.54299" lon="1.48518">
        <ele>169.8</ele>
        <time>2023-05-27T05:14:09Z</time>
      </trkpt>
      <trkpt lat="43.54303" lon="1.48525">
        <ele>169.8</ele>
        <time>2023-05-27T05:14:10Z</time>
      </trkpt>
      <trkpt lat="43.54307" lon="1.48531">
        <ele>169.6</ele>
        <time>2023-05-27T05:14:11Z</time>
      </trkpt>
      <trkpt lat="43.5431" lon="1.48537">
        <ele>169.6</ele>
        <time>2023-05-27T05:14:12Z</time>
      </trkpt>
      <trkpt lat="43.54314" lon="1.48544">
        <ele>169.4</ele>
        <time>2023-05-27T05:14:13Z</time>
      </trkpt>
      <trkpt lat="43.54318" lon="1.48549">
        <ele>169.4</ele>
        <time>2023-05-27T05:14:14Z</time>
      </trkpt>
      <trkpt lat="43.54321" lon="1.48555">
        <ele>169.2</ele>
        <time>2023-05-27T05:14:15Z</time>
      </trkpt>
      <trkpt lat="43.54324" lon="1.4856">
        <ele>169.2</ele>
        <time>2023-05-27T05:14:16Z</time>
      </trkpt>
      <trkpt lat="43.54327" lon="1.48566">
        <ele>169</ele>
        <time>2023-05-27T05:14:17Z</time>
      </trkpt>
      <trkpt lat="43.5433" lon="1.48572">
        <ele>169</ele>
        <time>2023-05-27T05:14:18Z</time>
      </trkpt>
      <trkpt lat="43.54332" lon="1.48578">
        <ele>169</ele>
        <time>2023-05-27T05:14:19Z</time>
      </trkpt>
      <trkpt lat="43.54335" lon="1.48585">
        <ele>169</ele>
        <time>2023-05-27T05:14:20Z</time>
      </trkpt>
      <trkpt lat="43.54337" lon="1.48591">
        <ele>169</ele>
        <time>2023-05-27T05:14:21Z</time>
      </trkpt>
      <trkpt lat="43.54339" lon="1.48598">
        <ele>168.8</ele>
        <time>2023-05-27T05:14:22Z</time>
      </trkpt>
      <trkpt lat="43.54341" lon="1.48605">
        <ele>168.8</ele>
        <time>2023-05-27T05:14:23Z</time>
      </trkpt>
      <trkpt lat="43.54342" lon="1.48612">
        <ele>168.6</ele>
        <time>2023-05-27T05:14:24Z</time>
      </trkpt>
      <trkpt lat="43.54344" lon="1.48619">
        <ele>168.6</ele>
        <time>2023-05-27T05:14:25Z</time>
      </trkpt>
      <trkpt lat="43.54346" lon="1.48625">
        <ele>168.6</ele>
        <time>2023-05-27T05:14:26Z</time>
      </trkpt>
      <trkpt lat="43.54348" lon="1.48632">
        <ele>168.8</ele>
        <time>2023-05-27T05:14:27Z</time>
      </trkpt>
      <trkpt lat="43.5435" lon="1.48639">
        <ele>168.8</ele>
        <time>2023-05-27T05:14:28Z</time>
      </trkpt>
      <trkpt lat="43.54352" lon="1.48646">
        <ele>168.6</ele>
        <time>2023-05-27T05:14:29Z</time>
      </trkpt>
      <trkpt lat="43.54353" lon="1.48653">
        <ele>168.6</ele>
        <time>2023-05-27T05:14:30Z</time>
      </trkpt>
      <trkpt lat="43.54355" lon="1.4866">
        <ele>168.6</ele>
        <time>2023-05-27T05:14:31Z</time>
      </trkpt>
      <trkpt lat="43.54356" lon="1.48667">
        <ele>168.6</ele>
        <time>2023-05-27T05:14:32Z</time>
      </trkpt>
      <trkpt lat="43.54358" lon="1.48674">
        <ele>168.4</ele>
        <time>2023-05-27T05:14:33Z</time>
      </trkpt>
      <trkpt lat="43.54359" lon="1.48681">
        <ele>168.4</ele>
        <time>2023-05-27T05:14:34Z</time>
      </trkpt>
      <trkpt lat="43.54361" lon="1.48688">
        <ele>168.4</ele>
        <time>2023-05-27T05:14:35Z</time>
      </trkpt>
      <trkpt lat="43.54362" lon="1.48695">
        <ele>168.4</ele>
        <time>2023-05-27T05:14:36Z</time>
      </trkpt>
      <trkpt lat="43.54363" lon="1.48702">
        <ele>168.4</ele>
        <time>2023-05-27T05:14:37Z</time>
      </trkpt>
      <trkpt lat="43.54364" lon="1.4871">
        <ele>168.2</ele>
        <time>2023-05-27T05:14:38Z</time>
      </trkpt>
      <trkpt lat="43.54365" lon="1.48717">
        <ele>168.2</ele>
        <time>2023-05-27T05:14:39Z</time>
      </trkpt>
      <trkpt lat="43.54366" lon="1.48724">
        <ele>168.2</ele>
        <time>2023-05-27T05:14:40Z</time>
      </trkpt>
      <trkpt lat="43.54368" lon="1.48731">
        <ele>168.2</ele>
        <time>2023-05-27T05:14:41Z</time>
      </trkpt>
      <trkpt lat="43.54369" lon="1.48738">
        <ele>168.2</ele>
        <time>2023-05-27T05:14:42Z</time>
      </trkpt>
      <trkpt lat="43.5437" lon="1.48744">
        <ele>168</ele>
        <time>2023-05-27T05:14:43Z</time>
      </trkpt>
      <trkpt lat="43.54371" lon="1.48751">
        <ele>168</ele>
        <time>2023-05-27T05:14:44Z</time>
      </trkpt>
      <trkpt lat="43.54372" lon="1.48758">
        <ele>168</ele>
        <time>2023-05-27T05:14:45Z</time>
      </trkpt>
      <trkpt lat="43.54373" lon="1.48765">
        <ele>168</ele>
        <time>2023-05-27T05:14:46Z</time>
      </trkpt>
      <trkpt lat="43.54373" lon="1.48773">
        <ele>168</ele>
        <time>2023-05-27T05:14:47Z</time>
      </trkpt>
      <trkpt lat="43.54375" lon="1.4878">
        <ele>168</ele>
        <time>2023-05-27T05:14:48Z</time>
      </trkpt>
      <trkpt lat="43.54376" lon="1.48787">
        <ele>168</ele>
        <time>2023-05-27T05:14:49Z</time>
      </trkpt>
      <trkpt lat="43.54377" lon="1.48794">
        <ele>167.8</ele>
        <time>2023-05-27T05:14:50Z</time>
      </trkpt>
      <trkpt lat="43.54379" lon="1.48801">
        <ele>167.8</ele>
        <time>2023-05-27T05:14:51Z</time>
      </trkpt>
      <trkpt lat="43.5438" lon="1.48808">
        <ele>167.8</ele>
        <time>2023-05-27T05:14:52Z</time>
      </trkpt>
      <trkpt lat="43.54381" lon="1.48815">
        <ele>167.6</ele>
        <time>2023-05-27T05:14:53Z</time>
      </trkpt>
      <trkpt lat="43.54383" lon="1.48822">
        <ele>167.6</ele>
        <time>2023-05-27T05:14:54Z</time>
      </trkpt>
      <trkpt lat="43.54385" lon="1.48829">
        <ele>167.6</ele>
        <time>2023-05-27T05:14:55Z</time>
      </trkpt>
      <trkpt lat="43.54387" lon="1.48836">
        <ele>167.6</ele>
        <time>2023-05-27T05:14:56Z</time>
      </trkpt>
      <trkpt lat="43.54389" lon="1.48843">
        <ele>167.4</ele>
        <time>2023-05-27T05:14:57Z</time>
      </trkpt>
      <trkpt lat="43.54392" lon="1.48849">
        <ele>167.4</ele>
        <time>2023-05-27T05:14:58Z</time>
      </trkpt>
      <trkpt lat="43.54394" lon="1.48856">
        <ele>167.4</ele>
        <time>2023-05-27T05:14:59Z</time>
      </trkpt>
      <trkpt lat="43.54397" lon="1.48862">
        <ele>167.4</ele>
        <time>2023-05-27T05:15:00Z</time>
      </trkpt>
      <trkpt lat="43.544" lon="1.48868">
        <ele>167.4</ele>
        <time>2023-05-27T05:15:01Z</time>
      </trkpt>
      <trkpt lat="43.54403" lon="1.48875">
        <ele>167.4</ele>
        <time>2023-05-27T05:15:02Z</time>
      </trkpt>
      <trkpt lat="43.54406" lon="1.48881">
        <ele>167.4</ele>
        <time>2023-05-27T05:15:03Z</time>
      </trkpt>
      <trkpt lat="43.54409" lon="1.48888">
        <ele>167.2</ele>
        <time>2023-05-27T05:15:04Z</time>
      </trkpt>
      <trkpt lat="43.54412" lon="1.48894">
        <ele>167.2</ele>
        <time>2023-05-27T05:15:05Z</time>
      </trkpt>
      <trkpt lat="43.54414" lon="1.489">
        <ele>167.2</ele>
        <time>2023-05-27T05:15:06Z</time>
      </trkpt>
      <trkpt lat="43.54418" lon="1.48906">
        <ele>167.4</ele>
        <time>2023-05-27T05:15:07Z</time>
      </trkpt>
      <trkpt lat="43.5442" lon="1.48912">
        <ele>167.4</ele>
        <time>2023-05-27T05:15:08Z</time>
      </trkpt>
      <trkpt lat="43.54423" lon="1.48918">
        <ele>167.4</ele>
        <time>2023-05-27T05:15:09Z</time>
      </trkpt>
      <trkpt lat="43.54425" lon="1.48924">
        <ele>167.4</ele>
        <time>2023-05-27T05:15:10Z</time>
      </trkpt>
      <trkpt lat="43.54428" lon="1.4893">
        <ele>167.4</ele>
        <time>2023-05-27T05:15:11Z</time>
      </trkpt>
      <trkpt lat="43.54431" lon="1.48936">
        <ele>167.4</ele>
        <time>2023-05-27T05:15:12Z</time>
      </trkpt>
      <trkpt lat="43.54434" lon="1.48941">
        <ele>167.4</ele>
        <time>2023-05-27T05:15:13Z</time>
      </trkpt>
      <trkpt lat="43.54438" lon="1.48947">
        <ele>167.4</ele>
        <time>2023-05-27T05:15:14Z</time>
      </trkpt>
      <trkpt lat="43.5444" lon="1.48953">
        <ele>167.4</ele>
        <time>2023-05-27T05:15:15Z</time>
      </trkpt>
      <trkpt lat="43.54442" lon="1.48958">
        <ele>167.4</ele>
        <time>2023-05-27T05:15:16Z</time>
      </trkpt>
      <trkpt lat="43.54443" lon="1.48964">
        <ele>167.4</ele>
        <time>2023-05-27T05:15:17Z</time>
      </trkpt>
      <trkpt lat="43.54446" lon="1.48969">
        <ele>167.4</ele>
        <time>2023-05-27T05:15:18Z</time>
      </trkpt>
      <trkpt lat="43.54447" lon="1.48974">
        <ele>167.6</ele>
        <time>2023-05-27T05:15:19Z</time>
      </trkpt>
      <trkpt lat="43.54449" lon="1.48979">
        <ele>167.6</ele>
        <time>2023-05-27T05:15:20Z</time>
      </trkpt>
      <trkpt lat="43.54451" lon="1.48983">
        <ele>167.8</ele>
        <time>2023-05-27T05:15:21Z</time>
      </trkpt>
      <trkpt lat="43.54454" lon="1.48986">
        <ele>167.8</ele>
        <time>2023-05-27T05:15:22Z</time>
      </trkpt>
      <trkpt lat="43.54456" lon="1.48989">
        <ele>167.8</ele>
        <time>2023-05-27T05:15:23Z</time>
      </trkpt>
      <trkpt lat="43.54458" lon="1.48993">
        <ele>167.8</ele>
        <time>2023-05-27T05:15:24Z</time>
      </trkpt>
      <trkpt lat="43.5446" lon="1.48997">
        <ele>167.6</ele>
        <time>2023-05-27T05:15:25Z</time>
      </trkpt>
      <trkpt lat="43.5446" lon="1.49002">
        <ele>167.2</ele>
        <time>2023-05-27T05:15:26Z</time>
      </trkpt>
      <trkpt lat="43.54459" lon="1.49007">
        <ele>167</ele>
        <time>2023-05-27T05:15:27Z</time>
      </trkpt>
      <trkpt lat="43.54456" lon="1.49011">
        <ele>166.6</ele>
        <time>2023-05-27T05:15:28Z</time>
      </trkpt>
      <trkpt lat="43.54453" lon="1.49014">
        <ele>166.4</ele>
        <time>2023-05-27T05:15:29Z</time>
      </trkpt>
      <trkpt lat="43.54449" lon="1.49017">
        <ele>166.2</ele>
        <time>2023-05-27T05:15:30Z</time>
      </trkpt>
      <trkpt lat="43.54445" lon="1.49019">
        <ele>166</ele>
        <time>2023-05-27T05:15:31Z</time>
      </trkpt>
      <trkpt lat="43.54442" lon="1.49022">
        <ele>165.8</ele>
        <time>2023-05-27T05:15:32Z</time>
      </trkpt>
      <trkpt lat="43.54437" lon="1.49025">
        <ele>165.6</ele>
        <time>2023-05-27T05:15:33Z</time>
      </trkpt>
      <trkpt lat="43.54432" lon="1.49027">
        <ele>165.6</ele>
        <time>2023-05-27T05:15:34Z</time>
      </trkpt>
      <trkpt lat="43.54427" lon="1.49029">
        <ele>165.4</ele>
        <time>2023-05-27T05:15:35Z</time>
      </trkpt>
      <trkpt lat="43.54422" lon="1.4903">
        <ele>165.4</ele>
        <time>2023-05-27T05:15:36Z</time>
      </trkpt>
      <trkpt lat="43.54418" lon="1.49032">
        <ele>165.4</ele>
        <time>2023-05-27T05:15:37Z</time>
      </trkpt>
      <trkpt lat="43.54413" lon="1.49033">
        <ele>165.2</ele>
        <time>2023-05-27T05:15:38Z</time>
      </trkpt>
      <trkpt lat="43.54409" lon="1.49035">
        <ele>165.2</ele>
        <time>2023-05-27T05:15:39Z</time>
      </trkpt>
      <trkpt lat="43.54404" lon="1.49036">
        <ele>165.2</ele>
        <time>2023-05-27T05:15:40Z</time>
      </trkpt>
      <trkpt lat="43.544" lon="1.49038">
        <ele>165.2</ele>
        <time>2023-05-27T05:15:41Z</time>
      </trkpt>
      <trkpt lat="43.54396" lon="1.49039">
        <ele>165.2</ele>
        <time>2023-05-27T05:15:42Z</time>
      </trkpt>
      <trkpt lat="43.54392" lon="1.4904">
        <ele>165</ele>
        <time>2023-05-27T05:15:43Z</time>
      </trkpt>
      <trkpt lat="43.54389" lon="1.49042">
        <ele>165</ele>
        <time>2023-05-27T05:15:44Z</time>
      </trkpt>
      <trkpt lat="43.54385" lon="1.49044">
        <ele>165</ele>
        <time>2023-05-27T05:15:45Z</time>
      </trkpt>
      <trkpt lat="43.5438" lon="1.49046">
        <ele>165</ele>
        <time>2023-05-27T05:15:46Z</time>
      </trkpt>
      <trkpt lat="43.54375" lon="1.49048">
        <ele>165</ele>
        <time>2023-05-27T05:15:47Z</time>
      </trkpt>
      <trkpt lat="43.5437" lon="1.4905">
        <ele>165</ele>
        <time>2023-05-27T05:15:48Z</time>
      </trkpt>
      <trkpt lat="43.54366" lon="1.49053">
        <ele>165</ele>
        <time>2023-05-27T05:15:49Z</time>
      </trkpt>
      <trkpt lat="43.54362" lon="1.49055">
        <ele>165</ele>
        <time>2023-05-27T05:15:50Z</time>
      </trkpt>
      <trkpt lat="43.54357" lon="1.49057">
        <ele>165</ele>
        <time>2023-05-27T05:15:51Z</time>
      </trkpt>
      <trkpt lat="43.54352" lon="1.49058">
        <ele>165</ele>
        <time>2023-05-27T05:15:52Z</time>
      </trkpt>
      <trkpt lat="43.54346" lon="1.49059">
        <ele>165</ele>
        <time>2023-05-27T05:15:53Z</time>
      </trkpt>
      <trkpt lat="43.54339" lon="1.49061">
        <ele>165</ele>
        <time>2023-05-27T05:15:54Z</time>
      </trkpt>
      <trkpt lat="43.54334" lon="1.49064">
        <ele>165.2</ele>
        <time>2023-05-27T05:15:55Z</time>
      </trkpt>
      <trkpt lat="43.54329" lon="1.49067">
        <ele>165.2</ele>
        <time>2023-05-27T05:15:56Z</time>
      </trkpt>
      <trkpt lat="43.54323" lon="1.4907">
        <ele>165.2</ele>
        <time>2023-05-27T05:15:57Z</time>
      </trkpt>
      <trkpt lat="43.54318" lon="1.49072">
        <ele>165.2</ele>
        <time>2023-05-27T05:15:58Z</time>
      </trkpt>
      <trkpt lat="43.54313" lon="1.49075">
        <ele>165.2</ele>
        <time>2023-05-27T05:15:59Z</time>
      </trkpt>
      <trkpt lat="43.54308" lon="1.49077">
        <ele>165.2</ele>
        <time>2023-05-27T05:16:00Z</time>
      </trkpt>
      <trkpt lat="43.54303" lon="1.49078">
        <ele>165.2</ele>
        <time>2023-05-27T05:16:01Z</time>
      </trkpt>
      <trkpt lat="43.54298" lon="1.4908">
        <ele>165.4</ele>
        <time>2023-05-27T05:16:02Z</time>
      </trkpt>
      <trkpt lat="43.54293" lon="1.49082">
        <ele>165.4</ele>
        <time>2023-05-27T05:16:03Z</time>
      </trkpt>
      <trkpt lat="43.54287" lon="1.49083">
        <ele>165.2</ele>
        <time>2023-05-27T05:16:04Z</time>
      </trkpt>
      <trkpt lat="43.54282" lon="1.49085">
        <ele>165.2</ele>
        <time>2023-05-27T05:16:05Z</time>
      </trkpt>
      <trkpt lat="43.54277" lon="1.49088">
        <ele>165.4</ele>
        <time>2023-05-27T05:16:06Z</time>
      </trkpt>
      <trkpt lat="43.5427" lon="1.49093">
        <ele>165.4</ele>
        <time>2023-05-27T05:16:07Z</time>
      </trkpt>
      <trkpt lat="43.54263" lon="1.49097">
        <ele>165.4</ele>
        <time>2023-05-27T05:16:08Z</time>
      </trkpt>
      <trkpt lat="43.54257" lon="1.491">
        <ele>165.4</ele>
        <time>2023-05-27T05:16:09Z</time>
      </trkpt>
      <trkpt lat="43.54251" lon="1.49101">
        <ele>165.4</ele>
        <time>2023-05-27T05:16:10Z</time>
      </trkpt>
      <trkpt lat="43.54249" lon="1.49102">
        <ele>165.4</ele>
        <time>2023-05-27T05:16:11Z</time>
      </trkpt>
      <trkpt lat="43.54245" lon="1.49104">
        <ele>165.4</ele>
        <time>2023-05-27T05:16:12Z</time>
      </trkpt>
      <trkpt lat="43.5424" lon="1.49107">
        <ele>165.4</ele>
        <time>2023-05-27T05:16:13Z</time>
      </trkpt>
      <trkpt lat="43.54235" lon="1.4911">
        <ele>165.4</ele>
        <time>2023-05-27T05:16:14Z</time>
      </trkpt>
      <trkpt lat="43.5423" lon="1.49113">
        <ele>165.4</ele>
        <time>2023-05-27T05:16:15Z</time>
      </trkpt>
      <trkpt lat="43.54226" lon="1.49114">
        <ele>165.4</ele>
        <time>2023-05-27T05:16:16Z</time>
      </trkpt>
      <trkpt lat="43.54221" lon="1.49116">
        <ele>165.4</ele>
        <time>2023-05-27T05:16:17Z</time>
      </trkpt>
      <trkpt lat="43.54215" lon="1.49119">
        <ele>165.6</ele>
        <time>2023-05-27T05:16:18Z</time>
      </trkpt>
      <trkpt lat="43.5421" lon="1.49121">
        <ele>165.6</ele>
        <time>2023-05-27T05:16:19Z</time>
      </trkpt>
      <trkpt lat="43.54202" lon="1.49125">
        <ele>165.6</ele>
        <time>2023-05-27T05:16:20Z</time>
      </trkpt>
      <trkpt lat="43.54196" lon="1.49128">
        <ele>165.6</ele>
        <time>2023-05-27T05:16:21Z</time>
      </trkpt>
      <trkpt lat="43.54191" lon="1.49131">
        <ele>165.6</ele>
        <time>2023-05-27T05:16:22Z</time>
      </trkpt>
      <trkpt lat="43.54187" lon="1.49133">
        <ele>165.6</ele>
        <time>2023-05-27T05:16:23Z</time>
      </trkpt>
      <trkpt lat="43.54182" lon="1.49136">
        <ele>165.6</ele>
        <time>2023-05-27T05:16:24Z</time>
      </trkpt>
      <trkpt lat="43.54177" lon="1.4914">
        <ele>165.8</ele>
        <time>2023-05-27T05:16:25Z</time>
      </trkpt>
      <trkpt lat="43.54172" lon="1.49143">
        <ele>165.8</ele>
        <time>2023-05-27T05:16:26Z</time>
      </trkpt>
      <trkpt lat="43.54169" lon="1.49145">
        <ele>165.8</ele>
        <time>2023-05-27T05:16:27Z</time>
      </trkpt>
      <trkpt lat="43.54165" lon="1.49148">
        <ele>165.8</ele>
        <time>2023-05-27T05:16:28Z</time>
      </trkpt>
      <trkpt lat="43.5416" lon="1.49152">
        <ele>165.8</ele>
        <time>2023-05-27T05:16:29Z</time>
      </trkpt>
      <trkpt lat="43.54154" lon="1.49155">
        <ele>165.8</ele>
        <time>2023-05-27T05:16:30Z</time>
      </trkpt>
      <trkpt lat="43.5415" lon="1.49158">
        <ele>165.8</ele>
        <time>2023-05-27T05:16:31Z</time>
      </trkpt>
      <trkpt lat="43.54147" lon="1.49161">
        <ele>165.8</ele>
        <time>2023-05-27T05:16:32Z</time>
      </trkpt>
      <trkpt lat="43.54143" lon="1.49166">
        <ele>165.8</ele>
        <time>2023-05-27T05:16:33Z</time>
      </trkpt>
      <trkpt lat="43.54138" lon="1.49171">
        <ele>165.8</ele>
        <time>2023-05-27T05:16:34Z</time>
      </trkpt>
      <trkpt lat="43.54133" lon="1.49175">
        <ele>165.8</ele>
        <time>2023-05-27T05:16:35Z</time>
      </trkpt>
      <trkpt lat="43.54129" lon="1.49178">
        <ele>165.8</ele>
        <time>2023-05-27T05:16:36Z</time>
      </trkpt>
      <trkpt lat="43.54125" lon="1.4918">
        <ele>165.8</ele>
        <time>2023-05-27T05:16:37Z</time>
      </trkpt>
      <trkpt lat="43.54121" lon="1.49183">
        <ele>165.8</ele>
        <time>2023-05-27T05:16:38Z</time>
      </trkpt>
      <trkpt lat="43.54117" lon="1.49186">
        <ele>165.8</ele>
        <time>2023-05-27T05:16:39Z</time>
      </trkpt>
      <trkpt lat="43.54113" lon="1.49188">
        <ele>165.8</ele>
        <time>2023-05-27T05:16:40Z</time>
      </trkpt>
      <trkpt lat="43.54109" lon="1.49192">
        <ele>165.8</ele>
        <time>2023-05-27T05:16:41Z</time>
      </trkpt>
      <trkpt lat="43.54104" lon="1.49195">
        <ele>165.8</ele>
        <time>2023-05-27T05:16:42Z</time>
      </trkpt>
      <trkpt lat="43.54099" lon="1.49198">
        <ele>165.8</ele>
        <time>2023-05-27T05:16:43Z</time>
      </trkpt>
      <trkpt lat="43.54095" lon="1.492">
        <ele>165.8</ele>
        <time>2023-05-27T05:16:44Z</time>
      </trkpt>
      <trkpt lat="43.5409" lon="1.49202">
        <ele>165.8</ele>
        <time>2023-05-27T05:16:45Z</time>
      </trkpt>
      <trkpt lat="43.54086" lon="1.49205">
        <ele>165.8</ele>
        <time>2023-05-27T05:16:46Z</time>
      </trkpt>
      <trkpt lat="43.54081" lon="1.49208">
        <ele>165.8</ele>
        <time>2023-05-27T05:16:47Z</time>
      </trkpt>
      <trkpt lat="43.54076" lon="1.4921">
        <ele>166</ele>
        <time>2023-05-27T05:16:48Z</time>
      </trkpt>
      <trkpt lat="43.54071" lon="1.49213">
        <ele>165.8</ele>
        <time>2023-05-27T05:16:49Z</time>
      </trkpt>
      <trkpt lat="43.54066" lon="1.49215">
        <ele>166</ele>
        <time>2023-05-27T05:16:50Z</time>
      </trkpt>
      <trkpt lat="43.5406" lon="1.49217">
        <ele>166</ele>
        <time>2023-05-27T05:16:51Z</time>
      </trkpt>
      <trkpt lat="43.54054" lon="1.49218">
        <ele>166</ele>
        <time>2023-05-27T05:16:52Z</time>
      </trkpt>
      <trkpt lat="43.54045" lon="1.49218">
        <ele>166</ele>
        <time>2023-05-27T05:16:53Z</time>
      </trkpt>
      <trkpt lat="43.54041" lon="1.49219">
        <ele>166</ele>
        <time>2023-05-27T05:16:54Z</time>
      </trkpt>
      <trkpt lat="43.54036" lon="1.49222">
        <ele>166</ele>
        <time>2023-05-27T05:16:55Z</time>
      </trkpt>
      <trkpt lat="43.54031" lon="1.49227">
        <ele>166</ele>
        <time>2023-05-27T05:16:56Z</time>
      </trkpt>
      <trkpt lat="43.54026" lon="1.49232">
        <ele>166</ele>
        <time>2023-05-27T05:16:57Z</time>
      </trkpt>
      <trkpt lat="43.5402" lon="1.49236">
        <ele>166</ele>
        <time>2023-05-27T05:16:58Z</time>
      </trkpt>
      <trkpt lat="43.54013" lon="1.49239">
        <ele>166</ele>
        <time>2023-05-27T05:16:59Z</time>
      </trkpt>
      <trkpt lat="43.54008" lon="1.4924">
        <ele>166</ele>
        <time>2023-05-27T05:17:00Z</time>
      </trkpt>
      <trkpt lat="43.54003" lon="1.49242">
        <ele>166</ele>
        <time>2023-05-27T05:17:01Z</time>
      </trkpt>
      <trkpt lat="43.53997" lon="1.49243">
        <ele>166</ele>
        <time>2023-05-27T05:17:02Z</time>
      </trkpt>
      <trkpt lat="43.53992" lon="1.49244">
        <ele>166</ele>
        <time>2023-05-27T05:17:03Z</time>
      </trkpt>
      <trkpt lat="43.53987" lon="1.49245">
        <ele>166.2</ele>
        <time>2023-05-27T05:17:04Z</time>
      </trkpt>
      <trkpt lat="43.53983" lon="1.49245">
        <ele>166.2</ele>
        <time>2023-05-27T05:17:05Z</time>
      </trkpt>
      <trkpt lat="43.53978" lon="1.49246">
        <ele>166.2</ele>
        <time>2023-05-27T05:17:06Z</time>
      </trkpt>
      <trkpt lat="43.53974" lon="1.49247">
        <ele>166.2</ele>
        <time>2023-05-27T05:17:07Z</time>
      </trkpt>
      <trkpt lat="43.53969" lon="1.49248">
        <ele>166.2</ele>
        <time>2023-05-27T05:17:08Z</time>
      </trkpt>
      <trkpt lat="43.53965" lon="1.4925">
        <ele>166.2</ele>
        <time>2023-05-27T05:17:09Z</time>
      </trkpt>
      <trkpt lat="43.53961" lon="1.49252">
        <ele>166.2</ele>
        <time>2023-05-27T05:17:10Z</time>
      </trkpt>
      <trkpt lat="43.53956" lon="1.49253">
        <ele>166.2</ele>
        <time>2023-05-27T05:17:11Z</time>
      </trkpt>
      <trkpt lat="43.53952" lon="1.49254">
        <ele>166.2</ele>
        <time>2023-05-27T05:17:12Z</time>
      </trkpt>
      <trkpt lat="43.53947" lon="1.49255">
        <ele>166.2</ele>
        <time>2023-05-27T05:17:13Z</time>
      </trkpt>
      <trkpt lat="43.53941" lon="1.49256">
        <ele>166.2</ele>
        <time>2023-05-27T05:17:14Z</time>
      </trkpt>
      <trkpt lat="43.53936" lon="1.49258">
        <ele>166.2</ele>
        <time>2023-05-27T05:17:15Z</time>
      </trkpt>
      <trkpt lat="43.53931" lon="1.49259">
        <ele>166.4</ele>
        <time>2023-05-27T05:17:16Z</time>
      </trkpt>
      <trkpt lat="43.53927" lon="1.4926">
        <ele>166.4</ele>
        <time>2023-05-27T05:17:17Z</time>
      </trkpt>
      <trkpt lat="43.53921" lon="1.49261">
        <ele>166.4</ele>
        <time>2023-05-27T05:17:18Z</time>
      </trkpt>
      <trkpt lat="43.53916" lon="1.49263">
        <ele>166.4</ele>
        <time>2023-05-27T05:17:19Z</time>
      </trkpt>
      <trkpt lat="43.53912" lon="1.49265">
        <ele>166.4</ele>
        <time>2023-05-27T05:17:20Z</time>
      </trkpt>
      <trkpt lat="43.53908" lon="1.49268">
        <ele>166.4</ele>
        <time>2023-05-27T05:17:21Z</time>
      </trkpt>
      <trkpt lat="43.53904" lon="1.49272">
        <ele>166.4</ele>
        <time>2023-05-27T05:17:22Z</time>
      </trkpt>
      <trkpt lat="43.53898" lon="1.49275">
        <ele>166.6</ele>
        <time>2023-05-27T05:17:23Z</time>
      </trkpt>
      <trkpt lat="43.53894" lon="1.49278">
        <ele>166.6</ele>
        <time>2023-05-27T05:17:24Z</time>
      </trkpt>
      <trkpt lat="43.5389" lon="1.49281">
        <ele>166.6</ele>
        <time>2023-05-27T05:17:25Z</time>
      </trkpt>
      <trkpt lat="43.53885" lon="1.49285">
        <ele>166.6</ele>
        <time>2023-05-27T05:17:26Z</time>
      </trkpt>
      <trkpt lat="43.53881" lon="1.49289">
        <ele>166.6</ele>
        <time>2023-05-27T05:17:27Z</time>
      </trkpt>
      <trkpt lat="43.53878" lon="1.49293">
        <ele>166.6</ele>
        <time>2023-05-27T05:17:28Z</time>
      </trkpt>
      <trkpt lat="43.53875" lon="1.49296">
        <ele>166.6</ele>
        <time>2023-05-27T05:17:29Z</time>
      </trkpt>
      <trkpt lat="43.53872" lon="1.493">
        <ele>166.8</ele>
        <time>2023-05-27T05:17:30Z</time>
      </trkpt>
      <trkpt lat="43.5387" lon="1.49307">
        <ele>166.6</ele>
        <time>2023-05-27T05:17:31Z</time>
      </trkpt>
      <trkpt lat="43.53867" lon="1.49314">
        <ele>166.6</ele>
        <time>2023-05-27T05:17:32Z</time>
      </trkpt>
      <trkpt lat="43.53865" lon="1.49324">
        <ele>166.6</ele>
        <time>2023-05-27T05:17:33Z</time>
      </trkpt>
      <trkpt lat="43.53863" lon="1.49334">
        <ele>166.6</ele>
        <time>2023-05-27T05:17:34Z</time>
      </trkpt>
      <trkpt lat="43.53862" lon="1.49343">
        <ele>166.6</ele>
        <time>2023-05-27T05:17:35Z</time>
      </trkpt>
      <trkpt lat="43.53861" lon="1.49351">
        <ele>166.8</ele>
        <time>2023-05-27T05:17:36Z</time>
      </trkpt>
      <trkpt lat="43.53861" lon="1.4936">
        <ele>166.8</ele>
        <time>2023-05-27T05:17:37Z</time>
      </trkpt>
      <trkpt lat="43.5386" lon="1.49368">
        <ele>166.8</ele>
        <time>2023-05-27T05:17:38Z</time>
      </trkpt>
      <trkpt lat="43.5386" lon="1.49375">
        <ele>166.8</ele>
        <time>2023-05-27T05:17:39Z</time>
      </trkpt>
      <trkpt lat="43.53861" lon="1.49384">
        <ele>166.8</ele>
        <time>2023-05-27T05:17:40Z</time>
      </trkpt>
      <trkpt lat="43.53861" lon="1.49394">
        <ele>166.8</ele>
        <time>2023-05-27T05:17:41Z</time>
      </trkpt>
      <trkpt lat="43.53861" lon="1.49403">
        <ele>166.8</ele>
        <time>2023-05-27T05:17:42Z</time>
      </trkpt>
      <trkpt lat="43.53861" lon="1.4941">
        <ele>166.8</ele>
        <time>2023-05-27T05:17:43Z</time>
      </trkpt>
      <trkpt lat="43.53861" lon="1.49415">
        <ele>166.8</ele>
        <time>2023-05-27T05:17:44Z</time>
      </trkpt>
      <trkpt lat="43.53862" lon="1.4942">
        <ele>166.8</ele>
        <time>2023-05-27T05:17:45Z</time>
      </trkpt>
      <trkpt lat="43.53864" lon="1.49425">
        <ele>166.8</ele>
        <time>2023-05-27T05:17:46Z</time>
      </trkpt>
      <trkpt lat="43.53865" lon="1.4943">
        <ele>167</ele>
        <time>2023-05-27T05:17:47Z</time>
      </trkpt>
      <trkpt lat="43.53866" lon="1.49435">
        <ele>167</ele>
        <time>2023-05-27T05:17:48Z</time>
      </trkpt>
      <trkpt lat="43.53867" lon="1.4944">
        <ele>167</ele>
        <time>2023-05-27T05:17:49Z</time>
      </trkpt>
      <trkpt lat="43.53868" lon="1.49445">
        <ele>167.2</ele>
        <time>2023-05-27T05:17:50Z</time>
      </trkpt>
      <trkpt lat="43.53869" lon="1.49452">
        <ele>167.2</ele>
        <time>2023-05-27T05:17:51Z</time>
      </trkpt>
      <trkpt lat="43.5387" lon="1.49458">
        <ele>167.2</ele>
        <time>2023-05-27T05:17:52Z</time>
      </trkpt>
      <trkpt lat="43.53871" lon="1.49464">
        <ele>167.2</ele>
        <time>2023-05-27T05:17:53Z</time>
      </trkpt>
      <trkpt lat="43.53871" lon="1.49471">
        <ele>167.2</ele>
        <time>2023-05-27T05:17:54Z</time>
      </trkpt>
      <trkpt lat="43.53872" lon="1.49478">
        <ele>167.2</ele>
        <time>2023-05-27T05:17:55Z</time>
      </trkpt>
      <trkpt lat="43.53872" lon="1.49485">
        <ele>167.2</ele>
        <time>2023-05-27T05:17:56Z</time>
      </trkpt>
      <trkpt lat="43.53873" lon="1.49491">
        <ele>167.2</ele>
        <time>2023-05-27T05:17:57Z</time>
      </trkpt>
      <trkpt lat="43.53873" lon="1.49498">
        <ele>167.2</ele>
        <time>2023-05-27T05:17:58Z</time>
      </trkpt>
      <trkpt lat="43.53874" lon="1.49504">
        <ele>167.2</ele>
        <time>2023-05-27T05:17:59Z</time>
      </trkpt>
      <trkpt lat="43.53875" lon="1.49509">
        <ele>167.2</ele>
        <time>2023-05-27T05:18:00Z</time>
      </trkpt>
      <trkpt lat="43.53876" lon="1.49515">
        <ele>167.2</ele>
        <time>2023-05-27T05:18:01Z</time>
      </trkpt>
      <trkpt lat="43.53878" lon="1.49521">
        <ele>167.2</ele>
        <time>2023-05-27T05:18:02Z</time>
      </trkpt>
      <trkpt lat="43.53879" lon="1.49526">
        <ele>167.2</ele>
        <time>2023-05-27T05:18:03Z</time>
      </trkpt>
      <trkpt lat="43.53881" lon="1.49532">
        <ele>167.2</ele>
        <time>2023-05-27T05:18:04Z</time>
      </trkpt>
      <trkpt lat="43.53882" lon="1.49537">
        <ele>167.2</ele>
        <time>2023-05-27T05:18:05Z</time>
      </trkpt>
      <trkpt lat="43.53883" lon="1.49543">
        <ele>167.2</ele>
        <time>2023-05-27T05:18:06Z</time>
      </trkpt>
      <trkpt lat="43.53884" lon="1.49549">
        <ele>167.2</ele>
        <time>2023-05-27T05:18:07Z</time>
      </trkpt>
      <trkpt lat="43.53885" lon="1.49555">
        <ele>167.2</ele>
        <time>2023-05-27T05:18:08Z</time>
      </trkpt>
      <trkpt lat="43.53886" lon="1.49562">
        <ele>167.2</ele>
        <time>2023-05-27T05:18:09Z</time>
      </trkpt>
      <trkpt lat="43.53886" lon="1.4957">
        <ele>167.2</ele>
        <time>2023-05-27T05:18:10Z</time>
      </trkpt>
      <trkpt lat="43.53887" lon="1.49578">
        <ele>167.2</ele>
        <time>2023-05-27T05:18:11Z</time>
      </trkpt>
      <trkpt lat="43.53889" lon="1.49585">
        <ele>167.2</ele>
        <time>2023-05-27T05:18:12Z</time>
      </trkpt>
      <trkpt lat="43.5389" lon="1.49591">
        <ele>167</ele>
        <time>2023-05-27T05:18:13Z</time>
      </trkpt>
      <trkpt lat="43.53891" lon="1.49596">
        <ele>167</ele>
        <time>2023-05-27T05:18:14Z</time>
      </trkpt>
      <trkpt lat="43.53893" lon="1.49601">
        <ele>167</ele>
        <time>2023-05-27T05:18:15Z</time>
      </trkpt>
      <trkpt lat="43.53894" lon="1.49608">
        <ele>167</ele>
        <time>2023-05-27T05:18:16Z</time>
      </trkpt>
      <trkpt lat="43.53894" lon="1.49616">
        <ele>167</ele>
        <time>2023-05-27T05:18:17Z</time>
      </trkpt>
      <trkpt lat="43.53896" lon="1.49624">
        <ele>167</ele>
        <time>2023-05-27T05:18:18Z</time>
      </trkpt>
      <trkpt lat="43.53898" lon="1.49633">
        <ele>166.8</ele>
        <time>2023-05-27T05:18:19Z</time>
      </trkpt>
      <trkpt lat="43.539" lon="1.4964">
        <ele>166.8</ele>
        <time>2023-05-27T05:18:20Z</time>
      </trkpt>
      <trkpt lat="43.53901" lon="1.49645">
        <ele>166.8</ele>
        <time>2023-05-27T05:18:21Z</time>
      </trkpt>
      <trkpt lat="43.53901" lon="1.49651">
        <ele>166.8</ele>
        <time>2023-05-27T05:18:22Z</time>
      </trkpt>
      <trkpt lat="43.53903" lon="1.49657">
        <ele>166.8</ele>
        <time>2023-05-27T05:18:23Z</time>
      </trkpt>
      <trkpt lat="43.53905" lon="1.49664">
        <ele>166.8</ele>
        <time>2023-05-27T05:18:24Z</time>
      </trkpt>
      <trkpt lat="43.53906" lon="1.4967">
        <ele>166.8</ele>
        <time>2023-05-27T05:18:25Z</time>
      </trkpt>
      <trkpt lat="43.53908" lon="1.49676">
        <ele>166.6</ele>
        <time>2023-05-27T05:18:26Z</time>
      </trkpt>
      <trkpt lat="43.53909" lon="1.49684">
        <ele>166.6</ele>
        <time>2023-05-27T05:18:27Z</time>
      </trkpt>
      <trkpt lat="43.5391" lon="1.4969">
        <ele>166.6</ele>
        <time>2023-05-27T05:18:28Z</time>
      </trkpt>
      <trkpt lat="43.53911" lon="1.49697">
        <ele>166.6</ele>
        <time>2023-05-27T05:18:29Z</time>
      </trkpt>
      <trkpt lat="43.5391" lon="1.49704">
        <ele>166.6</ele>
        <time>2023-05-27T05:18:30Z</time>
      </trkpt>
      <trkpt lat="43.5391" lon="1.49712">
        <ele>166.6</ele>
        <time>2023-05-27T05:18:31Z</time>
      </trkpt>
      <trkpt lat="43.5391" lon="1.49717">
        <ele>166.6</ele>
        <time>2023-05-27T05:18:32Z</time>
      </trkpt>
      <trkpt lat="43.53911" lon="1.49722">
        <ele>166.6</ele>
        <time>2023-05-27T05:18:33Z</time>
      </trkpt>
      <trkpt lat="43.53911" lon="1.49727">
        <ele>166.6</ele>
        <time>2023-05-27T05:18:34Z</time>
      </trkpt>
      <trkpt lat="43.53912" lon="1.49734">
        <ele>166.6</ele>
        <time>2023-05-27T05:18:35Z</time>
      </trkpt>
      <trkpt lat="43.5391" lon="1.49743">
        <ele>166.6</ele>
        <time>2023-05-27T05:18:36Z</time>
      </trkpt>
      <trkpt lat="43.5391" lon="1.49751">
        <ele>166.6</ele>
        <time>2023-05-27T05:18:37Z</time>
      </trkpt>
      <trkpt lat="43.5391" lon="1.49761">
        <ele>166.6</ele>
        <time>2023-05-27T05:18:38Z</time>
      </trkpt>
      <trkpt lat="43.5391" lon="1.49769">
        <ele>166.6</ele>
        <time>2023-05-27T05:18:39Z</time>
      </trkpt>
      <trkpt lat="43.53909" lon="1.49776">
        <ele>166.6</ele>
        <time>2023-05-27T05:18:40Z</time>
      </trkpt>
      <trkpt lat="43.53909" lon="1.49783">
        <ele>166.8</ele>
        <time>2023-05-27T05:18:41Z</time>
      </trkpt>
      <trkpt lat="43.53908" lon="1.4979">
        <ele>166.8</ele>
        <time>2023-05-27T05:18:42Z</time>
      </trkpt>
      <trkpt lat="43.53907" lon="1.49797">
        <ele>166.8</ele>
        <time>2023-05-27T05:18:43Z</time>
      </trkpt>
      <trkpt lat="43.53907" lon="1.49803">
        <ele>166.8</ele>
        <time>2023-05-27T05:18:44Z</time>
      </trkpt>
      <trkpt lat="43.53905" lon="1.49811">
        <ele>166.8</ele>
        <time>2023-05-27T05:18:45Z</time>
      </trkpt>
      <trkpt lat="43.53904" lon="1.49818">
        <ele>166.8</ele>
        <time>2023-05-27T05:18:46Z</time>
      </trkpt>
      <trkpt lat="43.53904" lon="1.49825">
        <ele>166.8</ele>
        <time>2023-05-27T05:18:47Z</time>
      </trkpt>
      <trkpt lat="43.53902" lon="1.49833">
        <ele>166.8</ele>
        <time>2023-05-27T05:18:48Z</time>
      </trkpt>
      <trkpt lat="43.539" lon="1.49838">
        <ele>166.8</ele>
        <time>2023-05-27T05:18:49Z</time>
      </trkpt>
      <trkpt lat="43.53899" lon="1.49842">
        <ele>166.8</ele>
        <time>2023-05-27T05:18:50Z</time>
      </trkpt>
      <trkpt lat="43.53897" lon="1.49845">
        <ele>166.8</ele>
        <time>2023-05-27T05:18:51Z</time>
      </trkpt>
      <trkpt lat="43.53896" lon="1.4985">
        <ele>166.8</ele>
        <time>2023-05-27T05:18:52Z</time>
      </trkpt>
      <trkpt lat="43.53896" lon="1.49854">
        <ele>167</ele>
        <time>2023-05-27T05:18:53Z</time>
      </trkpt>
      <trkpt lat="43.53895" lon="1.4986">
        <ele>167</ele>
        <time>2023-05-27T05:18:54Z</time>
      </trkpt>
      <trkpt lat="43.53893" lon="1.49866">
        <ele>167</ele>
        <time>2023-05-27T05:18:55Z</time>
      </trkpt>
      <trkpt lat="43.53891" lon="1.49873">
        <ele>167.2</ele>
        <time>2023-05-27T05:18:56Z</time>
      </trkpt>
      <trkpt lat="43.5389" lon="1.49879">
        <ele>167.2</ele>
        <time>2023-05-27T05:18:57Z</time>
      </trkpt>
      <trkpt lat="43.53889" lon="1.49886">
        <ele>167.2</ele>
        <time>2023-05-27T05:18:58Z</time>
      </trkpt>
      <trkpt lat="43.53888" lon="1.49892">
        <ele>167.2</ele>
        <time>2023-05-27T05:18:59Z</time>
      </trkpt>
      <trkpt lat="43.53885" lon="1.499">
        <ele>167.2</ele>
        <time>2023-05-27T05:19:00Z</time>
      </trkpt>
      <trkpt lat="43.53883" lon="1.49905">
        <ele>167.2</ele>
        <time>2023-05-27T05:19:01Z</time>
      </trkpt>
      <trkpt lat="43.53881" lon="1.49912">
        <ele>167.2</ele>
        <time>2023-05-27T05:19:02Z</time>
      </trkpt>
      <trkpt lat="43.53879" lon="1.49922">
        <ele>167.2</ele>
        <time>2023-05-27T05:19:03Z</time>
      </trkpt>
      <trkpt lat="43.53876" lon="1.49929">
        <ele>167.2</ele>
        <time>2023-05-27T05:19:04Z</time>
      </trkpt>
      <trkpt lat="43.53876" lon="1.49935">
        <ele>167.2</ele>
        <time>2023-05-27T05:19:05Z</time>
      </trkpt>
      <trkpt lat="43.53874" lon="1.49944">
        <ele>167</ele>
        <time>2023-05-27T05:19:06Z</time>
      </trkpt>
      <trkpt lat="43.53871" lon="1.49949">
        <ele>167</ele>
        <time>2023-05-27T05:19:07Z</time>
      </trkpt>
      <trkpt lat="43.53867" lon="1.49954">
        <ele>167</ele>
        <time>2023-05-27T05:19:08Z</time>
      </trkpt>
      <trkpt lat="43.53864" lon="1.4996">
        <ele>166.8</ele>
        <time>2023-05-27T05:19:09Z</time>
      </trkpt>
      <trkpt lat="43.53859" lon="1.49967">
        <ele>166.8</ele>
        <time>2023-05-27T05:19:10Z</time>
      </trkpt>
      <trkpt lat="43.53855" lon="1.49975">
        <ele>166.6</ele>
        <time>2023-05-27T05:19:11Z</time>
      </trkpt>
      <trkpt lat="43.53851" lon="1.49982">
        <ele>166.6</ele>
        <time>2023-05-27T05:19:12Z</time>
      </trkpt>
      <trkpt lat="43.53847" lon="1.49988">
        <ele>166.6</ele>
        <time>2023-05-27T05:19:13Z</time>
      </trkpt>
      <trkpt lat="43.53845" lon="1.49995">
        <ele>166.6</ele>
        <time>2023-05-27T05:19:14Z</time>
      </trkpt>
      <trkpt lat="43.53841" lon="1.50002">
        <ele>166.6</ele>
        <time>2023-05-27T05:19:15Z</time>
      </trkpt>
      <trkpt lat="43.53838" lon="1.50006">
        <ele>166.6</ele>
        <time>2023-05-27T05:19:16Z</time>
      </trkpt>
      <trkpt lat="43.53835" lon="1.50012">
        <ele>166.6</ele>
        <time>2023-05-27T05:19:17Z</time>
      </trkpt>
      <trkpt lat="43.53831" lon="1.50017">
        <ele>166.6</ele>
        <time>2023-05-27T05:19:18Z</time>
      </trkpt>
      <trkpt lat="43.53828" lon="1.50023">
        <ele>166.6</ele>
        <time>2023-05-27T05:19:19Z</time>
      </trkpt>
      <trkpt lat="43.53825" lon="1.50027">
        <ele>166.4</ele>
        <time>2023-05-27T05:19:20Z</time>
      </trkpt>
      <trkpt lat="43.53822" lon="1.50031">
        <ele>166.4</ele>
        <time>2023-05-27T05:19:21Z</time>
      </trkpt>
      <trkpt lat="43.53819" lon="1.50035">
        <ele>166.4</ele>
        <time>2023-05-27T05:19:22Z</time>
      </trkpt>
      <trkpt lat="43.53817" lon="1.50039">
        <ele>166.4</ele>
        <time>2023-05-27T05:19:23Z</time>
      </trkpt>
      <trkpt lat="43.53814" lon="1.50043">
        <ele>166.4</ele>
        <time>2023-05-27T05:19:24Z</time>
      </trkpt>
      <trkpt lat="43.53811" lon="1.50047">
        <ele>166.4</ele>
        <time>2023-05-27T05:19:25Z</time>
      </trkpt>
      <trkpt lat="43.53809" lon="1.5005">
        <ele>166.4</ele>
        <time>2023-05-27T05:19:26Z</time>
      </trkpt>
      <trkpt lat="43.53806" lon="1.50054">
        <ele>166.4</ele>
        <time>2023-05-27T05:19:27Z</time>
      </trkpt>
      <trkpt lat="43.53803" lon="1.50059">
        <ele>166.4</ele>
        <time>2023-05-27T05:19:28Z</time>
      </trkpt>
      <trkpt lat="43.538" lon="1.50064">
        <ele>166.4</ele>
        <time>2023-05-27T05:19:29Z</time>
      </trkpt>
      <trkpt lat="43.53798" lon="1.50068">
        <ele>166.2</ele>
        <time>2023-05-27T05:19:30Z</time>
      </trkpt>
      <trkpt lat="43.53796" lon="1.50073">
        <ele>166.2</ele>
        <time>2023-05-27T05:19:31Z</time>
      </trkpt>
      <trkpt lat="43.53794" lon="1.50079">
        <ele>166.2</ele>
        <time>2023-05-27T05:19:32Z</time>
      </trkpt>
      <trkpt lat="43.5379" lon="1.50085">
        <ele>166.2</ele>
        <time>2023-05-27T05:19:33Z</time>
      </trkpt>
      <trkpt lat="43.53787" lon="1.50091">
        <ele>166.2</ele>
        <time>2023-05-27T05:19:34Z</time>
      </trkpt>
      <trkpt lat="43.53783" lon="1.50098">
        <ele>166.2</ele>
        <time>2023-05-27T05:19:35Z</time>
      </trkpt>
      <trkpt lat="43.5378" lon="1.50104">
        <ele>166.2</ele>
        <time>2023-05-27T05:19:36Z</time>
      </trkpt>
      <trkpt lat="43.53777" lon="1.5011">
        <ele>166.2</ele>
        <time>2023-05-27T05:19:37Z</time>
      </trkpt>
      <trkpt lat="43.53775" lon="1.50115">
        <ele>166.2</ele>
        <time>2023-05-27T05:19:38Z</time>
      </trkpt>
      <trkpt lat="43.53773" lon="1.50119">
        <ele>166.2</ele>
        <time>2023-05-27T05:19:39Z</time>
      </trkpt>
      <trkpt lat="43.5377" lon="1.50123">
        <ele>166.2</ele>
        <time>2023-05-27T05:19:40Z</time>
      </trkpt>
      <trkpt lat="43.53768" lon="1.50128">
        <ele>166.4</ele>
        <time>2023-05-27T05:19:41Z</time>
      </trkpt>
      <trkpt lat="43.53765" lon="1.50134">
        <ele>166.4</ele>
        <time>2023-05-27T05:19:42Z</time>
      </trkpt>
      <trkpt lat="43.53762" lon="1.5014">
        <ele>166.4</ele>
        <time>2023-05-27T05:19:43Z</time>
      </trkpt>
      <trkpt lat="43.53759" lon="1.50146">
        <ele>166.4</ele>
        <time>2023-05-27T05:19:44Z</time>
      </trkpt>
      <trkpt lat="43.53757" lon="1.50152">
        <ele>166.4</ele>
        <time>2023-05-27T05:19:45Z</time>
      </trkpt>
      <trkpt lat="43.53754" lon="1.50159">
        <ele>166.4</ele>
        <time>2023-05-27T05:19:46Z</time>
      </trkpt>
      <trkpt lat="43.53752" lon="1.50167">
        <ele>166.2</ele>
        <time>2023-05-27T05:19:47Z</time>
      </trkpt>
      <trkpt lat="43.53749" lon="1.50175">
        <ele>166.2</ele>
        <time>2023-05-27T05:19:48Z</time>
      </trkpt>
      <trkpt lat="43.53745" lon="1.50185">
        <ele>166</ele>
        <time>2023-05-27T05:19:49Z</time>
      </trkpt>
      <trkpt lat="43.53739" lon="1.50193">
        <ele>166</ele>
        <time>2023-05-27T05:19:50Z</time>
      </trkpt>
      <trkpt lat="43.53736" lon="1.50199">
        <ele>165.8</ele>
        <time>2023-05-27T05:19:51Z</time>
      </trkpt>
      <trkpt lat="43.53733" lon="1.50204">
        <ele>165.8</ele>
        <time>2023-05-27T05:19:52Z</time>
      </trkpt>
      <trkpt lat="43.53729" lon="1.5021">
        <ele>165.8</ele>
        <time>2023-05-27T05:19:53Z</time>
      </trkpt>
      <trkpt lat="43.53726" lon="1.50214">
        <ele>165.8</ele>
        <time>2023-05-27T05:19:54Z</time>
      </trkpt>
      <trkpt lat="43.53723" lon="1.50218">
        <ele>165.8</ele>
        <time>2023-05-27T05:19:55Z</time>
      </trkpt>
      <trkpt lat="43.5372" lon="1.50221">
        <ele>165.8</ele>
        <time>2023-05-27T05:19:56Z</time>
      </trkpt>
      <trkpt lat="43.53718" lon="1.50225">
        <ele>165.8</ele>
        <time>2023-05-27T05:19:57Z</time>
      </trkpt>
      <trkpt lat="43.53715" lon="1.50229">
        <ele>165.8</ele>
        <time>2023-05-27T05:19:58Z</time>
      </trkpt>
      <trkpt lat="43.53713" lon="1.50234">
        <ele>165.8</ele>
        <time>2023-05-27T05:19:59Z</time>
      </trkpt>
      <trkpt lat="43.53711" lon="1.50238">
        <ele>165.8</ele>
        <time>2023-05-27T05:20:00Z</time>
      </trkpt>
      <trkpt lat="43.53708" lon="1.50242">
        <ele>165.8</ele>
        <time>2023-05-27T05:20:01Z</time>
      </trkpt>
      <trkpt lat="43.53705" lon="1.50246">
        <ele>165.8</ele>
        <time>2023-05-27T05:20:02Z</time>
      </trkpt>
      <trkpt lat="43.53702" lon="1.5025">
        <ele>165.8</ele>
        <time>2023-05-27T05:20:03Z</time>
      </trkpt>
      <trkpt lat="43.53698" lon="1.50255">
        <ele>165.8</ele>
        <time>2023-05-27T05:20:04Z</time>
      </trkpt>
      <trkpt lat="43.53694" lon="1.50259">
        <ele>165.8</ele>
        <time>2023-05-27T05:20:05Z</time>
      </trkpt>
      <trkpt lat="43.53691" lon="1.50264">
        <ele>165.8</ele>
        <time>2023-05-27T05:20:06Z</time>
      </trkpt>
      <trkpt lat="43.53687" lon="1.50268">
        <ele>165.8</ele>
        <time>2023-05-27T05:20:07Z</time>
      </trkpt>
      <trkpt lat="43.53685" lon="1.50272">
        <ele>165.8</ele>
        <time>2023-05-27T05:20:08Z</time>
      </trkpt>
      <trkpt lat="43.53683" lon="1.50275">
        <ele>165.8</ele>
        <time>2023-05-27T05:20:09Z</time>
      </trkpt>
      <trkpt lat="43.5368" lon="1.50278">
        <ele>165.8</ele>
        <time>2023-05-27T05:20:10Z</time>
      </trkpt>
      <trkpt lat="43.53677" lon="1.50283">
        <ele>165.8</ele>
        <time>2023-05-27T05:20:11Z</time>
      </trkpt>
      <trkpt lat="43.53674" lon="1.50287">
        <ele>165.8</ele>
        <time>2023-05-27T05:20:12Z</time>
      </trkpt>
      <trkpt lat="43.53671" lon="1.50291">
        <ele>165.8</ele>
        <time>2023-05-27T05:20:13Z</time>
      </trkpt>
      <trkpt lat="43.53668" lon="1.50294">
        <ele>165.8</ele>
        <time>2023-05-27T05:20:14Z</time>
      </trkpt>
      <trkpt lat="43.53665" lon="1.50297">
        <ele>165.8</ele>
        <time>2023-05-27T05:20:15Z</time>
      </trkpt>
      <trkpt lat="43.53661" lon="1.50302">
        <ele>165.8</ele>
        <time>2023-05-27T05:20:16Z</time>
      </trkpt>
      <trkpt lat="43.53657" lon="1.50306">
        <ele>166</ele>
        <time>2023-05-27T05:20:17Z</time>
      </trkpt>
      <trkpt lat="43.53652" lon="1.50312">
        <ele>166</ele>
        <time>2023-05-27T05:20:18Z</time>
      </trkpt>
      <trkpt lat="43.53647" lon="1.50318">
        <ele>165.8</ele>
        <time>2023-05-27T05:20:19Z</time>
      </trkpt>
      <trkpt lat="43.53643" lon="1.50323">
        <ele>165.8</ele>
        <time>2023-05-27T05:20:20Z</time>
      </trkpt>
      <trkpt lat="43.53639" lon="1.50327">
        <ele>165.8</ele>
        <time>2023-05-27T05:20:21Z</time>
      </trkpt>
      <trkpt lat="43.53635" lon="1.50332">
        <ele>165.8</ele>
        <time>2023-05-27T05:20:22Z</time>
      </trkpt>
      <trkpt lat="43.53629" lon="1.50339">
        <ele>165.8</ele>
        <time>2023-05-27T05:20:23Z</time>
      </trkpt>
      <trkpt lat="43.53624" lon="1.50345">
        <ele>165.8</ele>
        <time>2023-05-27T05:20:24Z</time>
      </trkpt>
      <trkpt lat="43.5362" lon="1.50349">
        <ele>165.8</ele>
        <time>2023-05-27T05:20:25Z</time>
      </trkpt>
      <trkpt lat="43.53616" lon="1.50355">
        <ele>165.6</ele>
        <time>2023-05-27T05:20:26Z</time>
      </trkpt>
      <trkpt lat="43.53613" lon="1.50359">
        <ele>165.6</ele>
        <time>2023-05-27T05:20:27Z</time>
      </trkpt>
      <trkpt lat="43.53609" lon="1.50365">
        <ele>165.6</ele>
        <time>2023-05-27T05:20:28Z</time>
      </trkpt>
      <trkpt lat="43.53605" lon="1.50369">
        <ele>165.6</ele>
        <time>2023-05-27T05:20:29Z</time>
      </trkpt>
      <trkpt lat="43.53601" lon="1.50373">
        <ele>165.6</ele>
        <time>2023-05-27T05:20:30Z</time>
      </trkpt>
      <trkpt lat="43.53598" lon="1.50375">
        <ele>165.6</ele>
        <time>2023-05-27T05:20:31Z</time>
      </trkpt>
      <trkpt lat="43.53594" lon="1.50378">
        <ele>165.6</ele>
        <time>2023-05-27T05:20:32Z</time>
      </trkpt>
      <trkpt lat="43.5359" lon="1.50383">
        <ele>165.6</ele>
        <time>2023-05-27T05:20:33Z</time>
      </trkpt>
      <trkpt lat="43.53586" lon="1.50387">
        <ele>165.6</ele>
        <time>2023-05-27T05:20:34Z</time>
      </trkpt>
      <trkpt lat="43.53582" lon="1.50391">
        <ele>165.6</ele>
        <time>2023-05-27T05:20:35Z</time>
      </trkpt>
      <trkpt lat="43.53577" lon="1.50397">
        <ele>165.6</ele>
        <time>2023-05-27T05:20:36Z</time>
      </trkpt>
      <trkpt lat="43.53573" lon="1.50401">
        <ele>165.6</ele>
        <time>2023-05-27T05:20:37Z</time>
      </trkpt>
      <trkpt lat="43.53569" lon="1.50406">
        <ele>165.6</ele>
        <time>2023-05-27T05:20:38Z</time>
      </trkpt>
      <trkpt lat="43.53564" lon="1.50412">
        <ele>165.6</ele>
        <time>2023-05-27T05:20:39Z</time>
      </trkpt>
      <trkpt lat="43.53562" lon="1.50414">
        <ele>165.6</ele>
        <time>2023-05-27T05:20:40Z</time>
      </trkpt>
      <trkpt lat="43.53558" lon="1.50416">
        <ele>165.6</ele>
        <time>2023-05-27T05:20:41Z</time>
      </trkpt>
      <trkpt lat="43.53553" lon="1.50419">
        <ele>165.6</ele>
        <time>2023-05-27T05:20:42Z</time>
      </trkpt>
      <trkpt lat="43.53548" lon="1.50422">
        <ele>165.6</ele>
        <time>2023-05-27T05:20:43Z</time>
      </trkpt>
      <trkpt lat="43.53543" lon="1.50425">
        <ele>165.6</ele>
        <time>2023-05-27T05:20:44Z</time>
      </trkpt>
      <trkpt lat="43.53538" lon="1.50429">
        <ele>165.6</ele>
        <time>2023-05-27T05:20:45Z</time>
      </trkpt>
      <trkpt lat="43.53534" lon="1.50431">
        <ele>165.6</ele>
        <time>2023-05-27T05:20:46Z</time>
      </trkpt>
      <trkpt lat="43.5353" lon="1.50433">
        <ele>165.6</ele>
        <time>2023-05-27T05:20:47Z</time>
      </trkpt>
      <trkpt lat="43.53526" lon="1.50436">
        <ele>165.6</ele>
        <time>2023-05-27T05:20:48Z</time>
      </trkpt>
      <trkpt lat="43.53522" lon="1.5044">
        <ele>165.6</ele>
        <time>2023-05-27T05:20:49Z</time>
      </trkpt>
      <trkpt lat="43.53518" lon="1.50445">
        <ele>165.6</ele>
        <time>2023-05-27T05:20:50Z</time>
      </trkpt>
      <trkpt lat="43.53514" lon="1.50449">
        <ele>165.6</ele>
        <time>2023-05-27T05:20:51Z</time>
      </trkpt>
      <trkpt lat="43.5351" lon="1.50454">
        <ele>165.6</ele>
        <time>2023-05-27T05:20:52Z</time>
      </trkpt>
      <trkpt lat="43.53507" lon="1.50457">
        <ele>165.6</ele>
        <time>2023-05-27T05:20:53Z</time>
      </trkpt>
      <trkpt lat="43.53503" lon="1.5046">
        <ele>165.6</ele>
        <time>2023-05-27T05:20:54Z</time>
      </trkpt>
      <trkpt lat="43.53499" lon="1.50463">
        <ele>165.6</ele>
        <time>2023-05-27T05:20:55Z</time>
      </trkpt>
      <trkpt lat="43.53496" lon="1.50468">
        <ele>165.6</ele>
        <time>2023-05-27T05:20:56Z</time>
      </trkpt>
      <trkpt lat="43.53492" lon="1.50472">
        <ele>165.6</ele>
        <time>2023-05-27T05:20:57Z</time>
      </trkpt>
      <trkpt lat="43.53489" lon="1.50475">
        <ele>165.6</ele>
        <time>2023-05-27T05:20:58Z</time>
      </trkpt>
      <trkpt lat="43.53485" lon="1.50478">
        <ele>165.6</ele>
        <time>2023-05-27T05:20:59Z</time>
      </trkpt>
      <trkpt lat="43.5348" lon="1.50481">
        <ele>165.6</ele>
        <time>2023-05-27T05:21:00Z</time>
      </trkpt>
      <trkpt lat="43.53475" lon="1.50484">
        <ele>165.8</ele>
        <time>2023-05-27T05:21:01Z</time>
      </trkpt>
      <trkpt lat="43.53469" lon="1.50488">
        <ele>165.8</ele>
        <time>2023-05-27T05:21:02Z</time>
      </trkpt>
      <trkpt lat="43.53464" lon="1.50491">
        <ele>165.8</ele>
        <time>2023-05-27T05:21:03Z</time>
      </trkpt>
      <trkpt lat="43.53461" lon="1.50495">
        <ele>165.8</ele>
        <time>2023-05-27T05:21:04Z</time>
      </trkpt>
      <trkpt lat="43.53457" lon="1.50497">
        <ele>165.8</ele>
        <time>2023-05-27T05:21:05Z</time>
      </trkpt>
      <trkpt lat="43.53453" lon="1.505">
        <ele>165.8</ele>
        <time>2023-05-27T05:21:06Z</time>
      </trkpt>
      <trkpt lat="43.53448" lon="1.50504">
        <ele>165.8</ele>
        <time>2023-05-27T05:21:07Z</time>
      </trkpt>
      <trkpt lat="43.53444" lon="1.50507">
        <ele>165.8</ele>
        <time>2023-05-27T05:21:08Z</time>
      </trkpt>
      <trkpt lat="43.53439" lon="1.5051">
        <ele>165.8</ele>
        <time>2023-05-27T05:21:09Z</time>
      </trkpt>
      <trkpt lat="43.53435" lon="1.50513">
        <ele>165.8</ele>
        <time>2023-05-27T05:21:10Z</time>
      </trkpt>
      <trkpt lat="43.53433" lon="1.50514">
        <ele>165.8</ele>
        <time>2023-05-27T05:21:11Z</time>
      </trkpt>
      <trkpt lat="43.5343" lon="1.50515">
        <ele>165.8</ele>
        <time>2023-05-27T05:21:12Z</time>
      </trkpt>
      <trkpt lat="43.53426" lon="1.50517">
        <ele>165.8</ele>
        <time>2023-05-27T05:21:13Z</time>
      </trkpt>
      <trkpt lat="43.53421" lon="1.50519">
        <ele>165.8</ele>
        <time>2023-05-27T05:21:14Z</time>
      </trkpt>
      <trkpt lat="43.53415" lon="1.50522">
        <ele>165.8</ele>
        <time>2023-05-27T05:21:15Z</time>
      </trkpt>
      <trkpt lat="43.5341" lon="1.50525">
        <ele>165.8</ele>
        <time>2023-05-27T05:21:16Z</time>
      </trkpt>
      <trkpt lat="43.53406" lon="1.50529">
        <ele>165.8</ele>
        <time>2023-05-27T05:21:17Z</time>
      </trkpt>
      <trkpt lat="43.53402" lon="1.50532">
        <ele>165.8</ele>
        <time>2023-05-27T05:21:18Z</time>
      </trkpt>
      <trkpt lat="43.53397" lon="1.50534">
        <ele>165.8</ele>
        <time>2023-05-27T05:21:19Z</time>
      </trkpt>
      <trkpt lat="43.53392" lon="1.50534">
        <ele>165.8</ele>
        <time>2023-05-27T05:21:20Z</time>
      </trkpt>
      <trkpt lat="43.53388" lon="1.50535">
        <ele>165.8</ele>
        <time>2023-05-27T05:21:21Z</time>
      </trkpt>
      <trkpt lat="43.53383" lon="1.50536">
        <ele>165.8</ele>
        <time>2023-05-27T05:21:22Z</time>
      </trkpt>
      <trkpt lat="43.53379" lon="1.50537">
        <ele>165.8</ele>
        <time>2023-05-27T05:21:23Z</time>
      </trkpt>
      <trkpt lat="43.53375" lon="1.50537">
        <ele>165.8</ele>
        <time>2023-05-27T05:21:24Z</time>
      </trkpt>
      <trkpt lat="43.5337" lon="1.50537">
        <ele>165.8</ele>
        <time>2023-05-27T05:21:25Z</time>
      </trkpt>
      <trkpt lat="43.53366" lon="1.50538">
        <ele>165.8</ele>
        <time>2023-05-27T05:21:26Z</time>
      </trkpt>
      <trkpt lat="43.5336" lon="1.50539">
        <ele>165.8</ele>
        <time>2023-05-27T05:21:27Z</time>
      </trkpt>
      <trkpt lat="43.53355" lon="1.5054">
        <ele>165.8</ele>
        <time>2023-05-27T05:21:28Z</time>
      </trkpt>
      <trkpt lat="43.53351" lon="1.50541">
        <ele>165.8</ele>
        <time>2023-05-27T05:21:29Z</time>
      </trkpt>
      <trkpt lat="43.53347" lon="1.50542">
        <ele>165.8</ele>
        <time>2023-05-27T05:21:30Z</time>
      </trkpt>
      <trkpt lat="43.53341" lon="1.50543">
        <ele>165.8</ele>
        <time>2023-05-27T05:21:31Z</time>
      </trkpt>
      <trkpt lat="43.53336" lon="1.50543">
        <ele>165.8</ele>
        <time>2023-05-27T05:21:32Z</time>
      </trkpt>
      <trkpt lat="43.53332" lon="1.50543">
        <ele>165.8</ele>
        <time>2023-05-27T05:21:33Z</time>
      </trkpt>
      <trkpt lat="43.53327" lon="1.50544">
        <ele>165.8</ele>
        <time>2023-05-27T05:21:34Z</time>
      </trkpt>
      <trkpt lat="43.53321" lon="1.50545">
        <ele>165.8</ele>
        <time>2023-05-27T05:21:35Z</time>
      </trkpt>
      <trkpt lat="43.53316" lon="1.50545">
        <ele>165.8</ele>
        <time>2023-05-27T05:21:36Z</time>
      </trkpt>
      <trkpt lat="43.53311" lon="1.50545">
        <ele>165.8</ele>
        <time>2023-05-27T05:21:37Z</time>
      </trkpt>
      <trkpt lat="43.53307" lon="1.50545">
        <ele>165.8</ele>
        <time>2023-05-27T05:21:38Z</time>
      </trkpt>
      <trkpt lat="43.53303" lon="1.50546">
        <ele>165.8</ele>
        <time>2023-05-27T05:21:39Z</time>
      </trkpt>
      <trkpt lat="43.53299" lon="1.50547">
        <ele>165.8</ele>
        <time>2023-05-27T05:21:40Z</time>
      </trkpt>
      <trkpt lat="43.53294" lon="1.50547">
        <ele>165.8</ele>
        <time>2023-05-27T05:21:41Z</time>
      </trkpt>
      <trkpt lat="43.5329" lon="1.50547">
        <ele>165.8</ele>
        <time>2023-05-27T05:21:42Z</time>
      </trkpt>
      <trkpt lat="43.53286" lon="1.50548">
        <ele>165.8</ele>
        <time>2023-05-27T05:21:43Z</time>
      </trkpt>
      <trkpt lat="43.53282" lon="1.50548">
        <ele>165.8</ele>
        <time>2023-05-27T05:21:44Z</time>
      </trkpt>
      <trkpt lat="43.53278" lon="1.50549">
        <ele>166</ele>
        <time>2023-05-27T05:21:45Z</time>
      </trkpt>
      <trkpt lat="43.53274" lon="1.5055">
        <ele>166</ele>
        <time>2023-05-27T05:21:46Z</time>
      </trkpt>
      <trkpt lat="43.53271" lon="1.5055">
        <ele>166</ele>
        <time>2023-05-27T05:21:47Z</time>
      </trkpt>
      <trkpt lat="43.53267" lon="1.50551">
        <ele>166</ele>
        <time>2023-05-27T05:21:48Z</time>
      </trkpt>
      <trkpt lat="43.53263" lon="1.50552">
        <ele>166</ele>
        <time>2023-05-27T05:21:49Z</time>
      </trkpt>
      <trkpt lat="43.53259" lon="1.50553">
        <ele>166</ele>
        <time>2023-05-27T05:21:50Z</time>
      </trkpt>
      <trkpt lat="43.53254" lon="1.50554">
        <ele>166</ele>
        <time>2023-05-27T05:21:51Z</time>
      </trkpt>
      <trkpt lat="43.53249" lon="1.50555">
        <ele>166</ele>
        <time>2023-05-27T05:21:52Z</time>
      </trkpt>
      <trkpt lat="43.53244" lon="1.50555">
        <ele>166</ele>
        <time>2023-05-27T05:21:53Z</time>
      </trkpt>
      <trkpt lat="43.53239" lon="1.50556">
        <ele>166</ele>
        <time>2023-05-27T05:21:54Z</time>
      </trkpt>
      <trkpt lat="43.53234" lon="1.50557">
        <ele>166</ele>
        <time>2023-05-27T05:21:55Z</time>
      </trkpt>
      <trkpt lat="43.53229" lon="1.50558">
        <ele>166</ele>
        <time>2023-05-27T05:21:56Z</time>
      </trkpt>
      <trkpt lat="43.53225" lon="1.5056">
        <ele>166</ele>
        <time>2023-05-27T05:21:57Z</time>
      </trkpt>
      <trkpt lat="43.53219" lon="1.50561">
        <ele>166</ele>
        <time>2023-05-27T05:21:58Z</time>
      </trkpt>
      <trkpt lat="43.53214" lon="1.50562">
        <ele>166</ele>
        <time>2023-05-27T05:21:59Z</time>
      </trkpt>
      <trkpt lat="43.53208" lon="1.50564">
        <ele>166</ele>
        <time>2023-05-27T05:22:00Z</time>
      </trkpt>
      <trkpt lat="43.53202" lon="1.50566">
        <ele>166</ele>
        <time>2023-05-27T05:22:01Z</time>
      </trkpt>
      <trkpt lat="43.53198" lon="1.50567">
        <ele>166</ele>
        <time>2023-05-27T05:22:02Z</time>
      </trkpt>
      <trkpt lat="43.53193" lon="1.50569">
        <ele>166</ele>
        <time>2023-05-27T05:22:03Z</time>
      </trkpt>
      <trkpt lat="43.53187" lon="1.5057">
        <ele>166</ele>
        <time>2023-05-27T05:22:04Z</time>
      </trkpt>
      <trkpt lat="43.53182" lon="1.50572">
        <ele>166</ele>
        <time>2023-05-27T05:22:05Z</time>
      </trkpt>
      <trkpt lat="43.53176" lon="1.50573">
        <ele>166.2</ele>
        <time>2023-05-27T05:22:06Z</time>
      </trkpt>
      <trkpt lat="43.5317" lon="1.50576">
        <ele>166.2</ele>
        <time>2023-05-27T05:22:07Z</time>
      </trkpt>
      <trkpt lat="43.53166" lon="1.50578">
        <ele>166.2</ele>
        <time>2023-05-27T05:22:08Z</time>
      </trkpt>
      <trkpt lat="43.53161" lon="1.5058">
        <ele>166.2</ele>
        <time>2023-05-27T05:22:09Z</time>
      </trkpt>
      <trkpt lat="43.53157" lon="1.50582">
        <ele>166.2</ele>
        <time>2023-05-27T05:22:10Z</time>
      </trkpt>
      <trkpt lat="43.53153" lon="1.50584">
        <ele>166.2</ele>
        <time>2023-05-27T05:22:11Z</time>
      </trkpt>
      <trkpt lat="43.53149" lon="1.50586">
        <ele>166.2</ele>
        <time>2023-05-27T05:22:12Z</time>
      </trkpt>
      <trkpt lat="43.53146" lon="1.50588">
        <ele>166.2</ele>
        <time>2023-05-27T05:22:13Z</time>
      </trkpt>
      <trkpt lat="43.53142" lon="1.5059">
        <ele>166.2</ele>
        <time>2023-05-27T05:22:14Z</time>
      </trkpt>
      <trkpt lat="43.53137" lon="1.50592">
        <ele>166.2</ele>
        <time>2023-05-27T05:22:15Z</time>
      </trkpt>
      <trkpt lat="43.53133" lon="1.50596">
        <ele>166.2</ele>
        <time>2023-05-27T05:22:16Z</time>
      </trkpt>
      <trkpt lat="43.53129" lon="1.50599">
        <ele>166.2</ele>
        <time>2023-05-27T05:22:17Z</time>
      </trkpt>
      <trkpt lat="43.53126" lon="1.50602">
        <ele>166.2</ele>
        <time>2023-05-27T05:22:18Z</time>
      </trkpt>
      <trkpt lat="43.53122" lon="1.50604">
        <ele>166.2</ele>
        <time>2023-05-27T05:22:19Z</time>
      </trkpt>
      <trkpt lat="43.53118" lon="1.50607">
        <ele>166.2</ele>
        <time>2023-05-27T05:22:20Z</time>
      </trkpt>
      <trkpt lat="43.53114" lon="1.50608">
        <ele>166.2</ele>
        <time>2023-05-27T05:22:21Z</time>
      </trkpt>
      <trkpt lat="43.53111" lon="1.5061">
        <ele>166.2</ele>
        <time>2023-05-27T05:22:22Z</time>
      </trkpt>
      <trkpt lat="43.53107" lon="1.50612">
        <ele>166.2</ele>
        <time>2023-05-27T05:22:23Z</time>
      </trkpt>
      <trkpt lat="43.53104" lon="1.50614">
        <ele>166.2</ele>
        <time>2023-05-27T05:22:24Z</time>
      </trkpt>
      <trkpt lat="43.53101" lon="1.50617">
        <ele>166.2</ele>
        <time>2023-05-27T05:22:25Z</time>
      </trkpt>
      <trkpt lat="43.53097" lon="1.5062">
        <ele>166</ele>
        <time>2023-05-27T05:22:26Z</time>
      </trkpt>
      <trkpt lat="43.53092" lon="1.50622">
        <ele>166</ele>
        <time>2023-05-27T05:22:27Z</time>
      </trkpt>
      <trkpt lat="43.53087" lon="1.50625">
        <ele>166</ele>
        <time>2023-05-27T05:22:28Z</time>
      </trkpt>
      <trkpt lat="43.53083" lon="1.50628">
        <ele>166</ele>
        <time>2023-05-27T05:22:29Z</time>
      </trkpt>
      <trkpt lat="43.53079" lon="1.50632">
        <ele>166</ele>
        <time>2023-05-27T05:22:30Z</time>
      </trkpt>
      <trkpt lat="43.53074" lon="1.50635">
        <ele>166.2</ele>
        <time>2023-05-27T05:22:31Z</time>
      </trkpt>
      <trkpt lat="43.53069" lon="1.50637">
        <ele>166.2</ele>
        <time>2023-05-27T05:22:32Z</time>
      </trkpt>
      <trkpt lat="43.53065" lon="1.50639">
        <ele>166.2</ele>
        <time>2023-05-27T05:22:33Z</time>
      </trkpt>
      <trkpt lat="43.53062" lon="1.50642">
        <ele>166.4</ele>
        <time>2023-05-27T05:22:34Z</time>
      </trkpt>
      <trkpt lat="43.53058" lon="1.50645">
        <ele>166.4</ele>
        <time>2023-05-27T05:22:35Z</time>
      </trkpt>
      <trkpt lat="43.53054" lon="1.50648">
        <ele>166.6</ele>
        <time>2023-05-27T05:22:36Z</time>
      </trkpt>
      <trkpt lat="43.5305" lon="1.5065">
        <ele>166.6</ele>
        <time>2023-05-27T05:22:37Z</time>
      </trkpt>
      <trkpt lat="43.53045" lon="1.50654">
        <ele>166.8</ele>
        <time>2023-05-27T05:22:38Z</time>
      </trkpt>
      <trkpt lat="43.53041" lon="1.50657">
        <ele>166.8</ele>
        <time>2023-05-27T05:22:39Z</time>
      </trkpt>
      <trkpt lat="43.53037" lon="1.5066">
        <ele>167</ele>
        <time>2023-05-27T05:22:40Z</time>
      </trkpt>
      <trkpt lat="43.53033" lon="1.50662">
        <ele>167</ele>
        <time>2023-05-27T05:22:41Z</time>
      </trkpt>
      <trkpt lat="43.5303" lon="1.50664">
        <ele>167</ele>
        <time>2023-05-27T05:22:42Z</time>
      </trkpt>
      <trkpt lat="43.53027" lon="1.50667">
        <ele>167</ele>
        <time>2023-05-27T05:22:43Z</time>
      </trkpt>
      <trkpt lat="43.53024" lon="1.50672">
        <ele>167.2</ele>
        <time>2023-05-27T05:22:44Z</time>
      </trkpt>
      <trkpt lat="43.53021" lon="1.50675">
        <ele>167.2</ele>
        <time>2023-05-27T05:22:45Z</time>
      </trkpt>
      <trkpt lat="43.53017" lon="1.50678">
        <ele>167.2</ele>
        <time>2023-05-27T05:22:46Z</time>
      </trkpt>
      <trkpt lat="43.53014" lon="1.50682">
        <ele>167.2</ele>
        <time>2023-05-27T05:22:47Z</time>
      </trkpt>
      <trkpt lat="43.5301" lon="1.50684">
        <ele>167.2</ele>
        <time>2023-05-27T05:22:48Z</time>
      </trkpt>
      <trkpt lat="43.53005" lon="1.50689">
        <ele>167.2</ele>
        <time>2023-05-27T05:22:49Z</time>
      </trkpt>
      <trkpt lat="43.53001" lon="1.50692">
        <ele>167.2</ele>
        <time>2023-05-27T05:22:50Z</time>
      </trkpt>
      <trkpt lat="43.52998" lon="1.50696">
        <ele>167.2</ele>
        <time>2023-05-27T05:22:51Z</time>
      </trkpt>
      <trkpt lat="43.52995" lon="1.50699">
        <ele>167.2</ele>
        <time>2023-05-27T05:22:52Z</time>
      </trkpt>
      <trkpt lat="43.52992" lon="1.50703">
        <ele>167.2</ele>
        <time>2023-05-27T05:22:53Z</time>
      </trkpt>
      <trkpt lat="43.52988" lon="1.50708">
        <ele>167.2</ele>
        <time>2023-05-27T05:22:54Z</time>
      </trkpt>
      <trkpt lat="43.52984" lon="1.50712">
        <ele>167.2</ele>
        <time>2023-05-27T05:22:55Z</time>
      </trkpt>
      <trkpt lat="43.52981" lon="1.50716">
        <ele>167.2</ele>
        <time>2023-05-27T05:22:56Z</time>
      </trkpt>
      <trkpt lat="43.52978" lon="1.50721">
        <ele>167.2</ele>
        <time>2023-05-27T05:22:57Z</time>
      </trkpt>
      <trkpt lat="43.52974" lon="1.50724">
        <ele>167.2</ele>
        <time>2023-05-27T05:22:58Z</time>
      </trkpt>
      <trkpt lat="43.5297" lon="1.50727">
        <ele>167.2</ele>
        <time>2023-05-27T05:22:59Z</time>
      </trkpt>
      <trkpt lat="43.52967" lon="1.50731">
        <ele>167</ele>
        <time>2023-05-27T05:23:00Z</time>
      </trkpt>
      <trkpt lat="43.52965" lon="1.50734">
        <ele>167</ele>
        <time>2023-05-27T05:23:01Z</time>
      </trkpt>
      <trkpt lat="43.52962" lon="1.50738">
        <ele>167</ele>
        <time>2023-05-27T05:23:02Z</time>
      </trkpt>
      <trkpt lat="43.52959" lon="1.50742">
        <ele>167</ele>
        <time>2023-05-27T05:23:03Z</time>
      </trkpt>
      <trkpt lat="43.52954" lon="1.50747">
        <ele>167</ele>
        <time>2023-05-27T05:23:04Z</time>
      </trkpt>
      <trkpt lat="43.5295" lon="1.50752">
        <ele>167</ele>
        <time>2023-05-27T05:23:05Z</time>
      </trkpt>
      <trkpt lat="43.52946" lon="1.50755">
        <ele>167</ele>
        <time>2023-05-27T05:23:06Z</time>
      </trkpt>
      <trkpt lat="43.52942" lon="1.50758">
        <ele>167</ele>
        <time>2023-05-27T05:23:07Z</time>
      </trkpt>
      <trkpt lat="43.52939" lon="1.50762">
        <ele>167</ele>
        <time>2023-05-27T05:23:08Z</time>
      </trkpt>
      <trkpt lat="43.52936" lon="1.50766">
        <ele>167</ele>
        <time>2023-05-27T05:23:09Z</time>
      </trkpt>
      <trkpt lat="43.52932" lon="1.5077">
        <ele>167</ele>
        <time>2023-05-27T05:23:10Z</time>
      </trkpt>
      <trkpt lat="43.52929" lon="1.50775">
        <ele>167</ele>
        <time>2023-05-27T05:23:11Z</time>
      </trkpt>
      <trkpt lat="43.52927" lon="1.50778">
        <ele>167</ele>
        <time>2023-05-27T05:23:12Z</time>
      </trkpt>
      <trkpt lat="43.52924" lon="1.50779">
        <ele>167</ele>
        <time>2023-05-27T05:23:13Z</time>
      </trkpt>
      <trkpt lat="43.52921" lon="1.50783">
        <ele>167</ele>
        <time>2023-05-27T05:23:14Z</time>
      </trkpt>
      <trkpt lat="43.52918" lon="1.50788">
        <ele>167</ele>
        <time>2023-05-27T05:23:15Z</time>
      </trkpt>
      <trkpt lat="43.52915" lon="1.50794">
        <ele>167</ele>
        <time>2023-05-27T05:23:16Z</time>
      </trkpt>
      <trkpt lat="43.52914" lon="1.50798">
        <ele>167</ele>
        <time>2023-05-27T05:23:17Z</time>
      </trkpt>
      <trkpt lat="43.52909" lon="1.50801">
        <ele>167</ele>
        <time>2023-05-27T05:23:18Z</time>
      </trkpt>
      <trkpt lat="43.52904" lon="1.50807">
        <ele>167</ele>
        <time>2023-05-27T05:23:19Z</time>
      </trkpt>
      <trkpt lat="43.52899" lon="1.50812">
        <ele>167</ele>
        <time>2023-05-27T05:23:20Z</time>
      </trkpt>
      <trkpt lat="43.52895" lon="1.50814">
        <ele>167</ele>
        <time>2023-05-27T05:23:21Z</time>
      </trkpt>
      <trkpt lat="43.52893" lon="1.50816">
        <ele>167</ele>
        <time>2023-05-27T05:23:22Z</time>
      </trkpt>
      <trkpt lat="43.52889" lon="1.50819">
        <ele>167</ele>
        <time>2023-05-27T05:23:23Z</time>
      </trkpt>
      <trkpt lat="43.52884" lon="1.50824">
        <ele>166.8</ele>
        <time>2023-05-27T05:23:24Z</time>
      </trkpt>
      <trkpt lat="43.52879" lon="1.50828">
        <ele>166.8</ele>
        <time>2023-05-27T05:23:25Z</time>
      </trkpt>
      <trkpt lat="43.52873" lon="1.5083">
        <ele>166.8</ele>
        <time>2023-05-27T05:23:26Z</time>
      </trkpt>
      <trkpt lat="43.52868" lon="1.50834">
        <ele>166.8</ele>
        <time>2023-05-27T05:23:27Z</time>
      </trkpt>
      <trkpt lat="43.52865" lon="1.50837">
        <ele>166.8</ele>
        <time>2023-05-27T05:23:28Z</time>
      </trkpt>
      <trkpt lat="43.5286" lon="1.50839">
        <ele>166.8</ele>
        <time>2023-05-27T05:23:29Z</time>
      </trkpt>
      <trkpt lat="43.52856" lon="1.50842">
        <ele>166.8</ele>
        <time>2023-05-27T05:23:30Z</time>
      </trkpt>
      <trkpt lat="43.52852" lon="1.50846">
        <ele>166.8</ele>
        <time>2023-05-27T05:23:31Z</time>
      </trkpt>
      <trkpt lat="43.52848" lon="1.50849">
        <ele>166.8</ele>
        <time>2023-05-27T05:23:32Z</time>
      </trkpt>
      <trkpt lat="43.52844" lon="1.50851">
        <ele>166.8</ele>
        <time>2023-05-27T05:23:33Z</time>
      </trkpt>
      <trkpt lat="43.52839" lon="1.50854">
        <ele>166.8</ele>
        <time>2023-05-27T05:23:34Z</time>
      </trkpt>
      <trkpt lat="43.52835" lon="1.50856">
        <ele>166.8</ele>
        <time>2023-05-27T05:23:35Z</time>
      </trkpt>
      <trkpt lat="43.5283" lon="1.50859">
        <ele>166.8</ele>
        <time>2023-05-27T05:23:36Z</time>
      </trkpt>
      <trkpt lat="43.52826" lon="1.50862">
        <ele>166.8</ele>
        <time>2023-05-27T05:23:37Z</time>
      </trkpt>
      <trkpt lat="43.52821" lon="1.50865">
        <ele>166.8</ele>
        <time>2023-05-27T05:23:38Z</time>
      </trkpt>
      <trkpt lat="43.52817" lon="1.50867">
        <ele>166.8</ele>
        <time>2023-05-27T05:23:39Z</time>
      </trkpt>
      <trkpt lat="43.52812" lon="1.5087">
        <ele>166.8</ele>
        <time>2023-05-27T05:23:40Z</time>
      </trkpt>
      <trkpt lat="43.52808" lon="1.50872">
        <ele>166.6</ele>
        <time>2023-05-27T05:23:41Z</time>
      </trkpt>
      <trkpt lat="43.52803" lon="1.50875">
        <ele>166.6</ele>
        <time>2023-05-27T05:23:42Z</time>
      </trkpt>
      <trkpt lat="43.52799" lon="1.50877">
        <ele>166.6</ele>
        <time>2023-05-27T05:23:43Z</time>
      </trkpt>
      <trkpt lat="43.52793" lon="1.5088">
        <ele>166.6</ele>
        <time>2023-05-27T05:23:44Z</time>
      </trkpt>
      <trkpt lat="43.52789" lon="1.50882">
        <ele>166.6</ele>
        <time>2023-05-27T05:23:45Z</time>
      </trkpt>
      <trkpt lat="43.52784" lon="1.50886">
        <ele>166.4</ele>
        <time>2023-05-27T05:23:46Z</time>
      </trkpt>
      <trkpt lat="43.5278" lon="1.50889">
        <ele>166.4</ele>
        <time>2023-05-27T05:23:47Z</time>
      </trkpt>
      <trkpt lat="43.52776" lon="1.50892">
        <ele>166.4</ele>
        <time>2023-05-27T05:23:48Z</time>
      </trkpt>
      <trkpt lat="43.52771" lon="1.50896">
        <ele>166.4</ele>
        <time>2023-05-27T05:23:49Z</time>
      </trkpt>
      <trkpt lat="43.52767" lon="1.509">
        <ele>166.4</ele>
        <time>2023-05-27T05:23:50Z</time>
      </trkpt>
      <trkpt lat="43.52763" lon="1.50905">
        <ele>166.4</ele>
        <time>2023-05-27T05:23:51Z</time>
      </trkpt>
      <trkpt lat="43.5276" lon="1.50909">
        <ele>166.2</ele>
        <time>2023-05-27T05:23:52Z</time>
      </trkpt>
      <trkpt lat="43.52756" lon="1.50914">
        <ele>166.4</ele>
        <time>2023-05-27T05:23:53Z</time>
      </trkpt>
      <trkpt lat="43.52752" lon="1.50918">
        <ele>166.4</ele>
        <time>2023-05-27T05:23:54Z</time>
      </trkpt>
      <trkpt lat="43.52749" lon="1.50922">
        <ele>166.4</ele>
        <time>2023-05-27T05:23:55Z</time>
      </trkpt>
      <trkpt lat="43.52746" lon="1.50926">
        <ele>166.4</ele>
        <time>2023-05-27T05:23:56Z</time>
      </trkpt>
      <trkpt lat="43.52743" lon="1.5093">
        <ele>166.4</ele>
        <time>2023-05-27T05:23:57Z</time>
      </trkpt>
      <trkpt lat="43.5274" lon="1.50934">
        <ele>166.6</ele>
        <time>2023-05-27T05:23:58Z</time>
      </trkpt>
      <trkpt lat="43.52737" lon="1.50939">
        <ele>166.6</ele>
        <time>2023-05-27T05:23:59Z</time>
      </trkpt>
      <trkpt lat="43.52735" lon="1.50943">
        <ele>166.6</ele>
        <time>2023-05-27T05:24:00Z</time>
      </trkpt>
      <trkpt lat="43.52732" lon="1.50947">
        <ele>166.8</ele>
        <time>2023-05-27T05:24:01Z</time>
      </trkpt>
      <trkpt lat="43.5273" lon="1.50952">
        <ele>166.8</ele>
        <time>2023-05-27T05:24:02Z</time>
      </trkpt>
      <trkpt lat="43.52727" lon="1.50956">
        <ele>166.8</ele>
        <time>2023-05-27T05:24:03Z</time>
      </trkpt>
      <trkpt lat="43.52725" lon="1.5096">
        <ele>167</ele>
        <time>2023-05-27T05:24:04Z</time>
      </trkpt>
      <trkpt lat="43.52723" lon="1.50964">
        <ele>167</ele>
        <time>2023-05-27T05:24:05Z</time>
      </trkpt>
      <trkpt lat="43.5272" lon="1.50969">
        <ele>167</ele>
        <time>2023-05-27T05:24:06Z</time>
      </trkpt>
      <trkpt lat="43.52719" lon="1.50973">
        <ele>167.2</ele>
        <time>2023-05-27T05:24:07Z</time>
      </trkpt>
      <trkpt lat="43.52717" lon="1.50978">
        <ele>167.2</ele>
        <time>2023-05-27T05:24:08Z</time>
      </trkpt>
      <trkpt lat="43.52714" lon="1.50983">
        <ele>167.2</ele>
        <time>2023-05-27T05:24:09Z</time>
      </trkpt>
      <trkpt lat="43.52712" lon="1.50987">
        <ele>167.2</ele>
        <time>2023-05-27T05:24:10Z</time>
      </trkpt>
      <trkpt lat="43.5271" lon="1.50991">
        <ele>167.4</ele>
        <time>2023-05-27T05:24:11Z</time>
      </trkpt>
      <trkpt lat="43.52708" lon="1.50995">
        <ele>167.4</ele>
        <time>2023-05-27T05:24:12Z</time>
      </trkpt>
      <trkpt lat="43.52705" lon="1.50999">
        <ele>167.4</ele>
        <time>2023-05-27T05:24:13Z</time>
      </trkpt>
      <trkpt lat="43.52703" lon="1.51003">
        <ele>167.6</ele>
        <time>2023-05-27T05:24:14Z</time>
      </trkpt>
      <trkpt lat="43.52701" lon="1.51007">
        <ele>167.6</ele>
        <time>2023-05-27T05:24:15Z</time>
      </trkpt>
      <trkpt lat="43.527" lon="1.51011">
        <ele>167.6</ele>
        <time>2023-05-27T05:24:16Z</time>
      </trkpt>
      <trkpt lat="43.52699" lon="1.51014">
        <ele>167.6</ele>
        <time>2023-05-27T05:24:17Z</time>
      </trkpt>
      <trkpt lat="43.52698" lon="1.51017">
        <ele>167.6</ele>
        <time>2023-05-27T05:24:18Z</time>
      </trkpt>
      <trkpt lat="43.52697" lon="1.51021">
        <ele>167.6</ele>
        <time>2023-05-27T05:24:19Z</time>
      </trkpt>
      <trkpt lat="43.52696" lon="1.51025">
        <ele>167.6</ele>
        <time>2023-05-27T05:24:20Z</time>
      </trkpt>
      <trkpt lat="43.52694" lon="1.51031">
        <ele>167.4</ele>
        <time>2023-05-27T05:24:21Z</time>
      </trkpt>
      <trkpt lat="43.52692" lon="1.51036">
        <ele>167.4</ele>
        <time>2023-05-27T05:24:22Z</time>
      </trkpt>
      <trkpt lat="43.52691" lon="1.51041">
        <ele>167.4</ele>
        <time>2023-05-27T05:24:23Z</time>
      </trkpt>
      <trkpt lat="43.5269" lon="1.51046">
        <ele>167.2</ele>
        <time>2023-05-27T05:24:24Z</time>
      </trkpt>
      <trkpt lat="43.52688" lon="1.51052">
        <ele>167.2</ele>
        <time>2023-05-27T05:24:25Z</time>
      </trkpt>
      <trkpt lat="43.52686" lon="1.51058">
        <ele>167.2</ele>
        <time>2023-05-27T05:24:26Z</time>
      </trkpt>
      <trkpt lat="43.52684" lon="1.51065">
        <ele>167</ele>
        <time>2023-05-27T05:24:27Z</time>
      </trkpt>
      <trkpt lat="43.52681" lon="1.51072">
        <ele>167</ele>
        <time>2023-05-27T05:24:28Z</time>
      </trkpt>
      <trkpt lat="43.52678" lon="1.51078">
        <ele>167</ele>
        <time>2023-05-27T05:24:29Z</time>
      </trkpt>
      <trkpt lat="43.52676" lon="1.51084">
        <ele>166.8</ele>
        <time>2023-05-27T05:24:30Z</time>
      </trkpt>
      <trkpt lat="43.52673" lon="1.51092">
        <ele>166.8</ele>
        <time>2023-05-27T05:24:31Z</time>
      </trkpt>
      <trkpt lat="43.52672" lon="1.51099">
        <ele>166.8</ele>
        <time>2023-05-27T05:24:32Z</time>
      </trkpt>
      <trkpt lat="43.52671" lon="1.51106">
        <ele>166.6</ele>
        <time>2023-05-27T05:24:33Z</time>
      </trkpt>
      <trkpt lat="43.52669" lon="1.51114">
        <ele>166.6</ele>
        <time>2023-05-27T05:24:34Z</time>
      </trkpt>
      <trkpt lat="43.52667" lon="1.51123">
        <ele>166.6</ele>
        <time>2023-05-27T05:24:35Z</time>
      </trkpt>
      <trkpt lat="43.52665" lon="1.51132">
        <ele>166.4</ele>
        <time>2023-05-27T05:24:36Z</time>
      </trkpt>
      <trkpt lat="43.52662" lon="1.51143">
        <ele>166.4</ele>
        <time>2023-05-27T05:24:37Z</time>
      </trkpt>
      <trkpt lat="43.52659" lon="1.51154">
        <ele>166.4</ele>
        <time>2023-05-27T05:24:38Z</time>
      </trkpt>
      <trkpt lat="43.52657" lon="1.51164">
        <ele>166.2</ele>
        <time>2023-05-27T05:24:39Z</time>
      </trkpt>
      <trkpt lat="43.52655" lon="1.51173">
        <ele>166.2</ele>
        <time>2023-05-27T05:24:40Z</time>
      </trkpt>
      <trkpt lat="43.52654" lon="1.51179">
        <ele>166.2</ele>
        <time>2023-05-27T05:24:41Z</time>
      </trkpt>
      <trkpt lat="43.52653" lon="1.51186">
        <ele>166.2</ele>
        <time>2023-05-27T05:24:42Z</time>
      </trkpt>
      <trkpt lat="43.52651" lon="1.51195">
        <ele>166.2</ele>
        <time>2023-05-27T05:24:43Z</time>
      </trkpt>
      <trkpt lat="43.5265" lon="1.51203">
        <ele>166.2</ele>
        <time>2023-05-27T05:24:44Z</time>
      </trkpt>
      <trkpt lat="43.5265" lon="1.5121">
        <ele>166.2</ele>
        <time>2023-05-27T05:24:45Z</time>
      </trkpt>
      <trkpt lat="43.52649" lon="1.51217">
        <ele>166.2</ele>
        <time>2023-05-27T05:24:46Z</time>
      </trkpt>
      <trkpt lat="43.52648" lon="1.51224">
        <ele>166.2</ele>
        <time>2023-05-27T05:24:47Z</time>
      </trkpt>
      <trkpt lat="43.52648" lon="1.51231">
        <ele>166.2</ele>
        <time>2023-05-27T05:24:48Z</time>
      </trkpt>
      <trkpt lat="43.52648" lon="1.51238">
        <ele>166.2</ele>
        <time>2023-05-27T05:24:49Z</time>
      </trkpt>
      <trkpt lat="43.52648" lon="1.51244">
        <ele>166.2</ele>
        <time>2023-05-27T05:24:50Z</time>
      </trkpt>
      <trkpt lat="43.52648" lon="1.51251">
        <ele>166.2</ele>
        <time>2023-05-27T05:24:51Z</time>
      </trkpt>
      <trkpt lat="43.52647" lon="1.51258">
        <ele>166.2</ele>
        <time>2023-05-27T05:24:52Z</time>
      </trkpt>
      <trkpt lat="43.52647" lon="1.51265">
        <ele>166.4</ele>
        <time>2023-05-27T05:24:53Z</time>
      </trkpt>
      <trkpt lat="43.52647" lon="1.51271">
        <ele>166.4</ele>
        <time>2023-05-27T05:24:54Z</time>
      </trkpt>
      <trkpt lat="43.52647" lon="1.51278">
        <ele>166.4</ele>
        <time>2023-05-27T05:24:55Z</time>
      </trkpt>
      <trkpt lat="43.52647" lon="1.51284">
        <ele>166.4</ele>
        <time>2023-05-27T05:24:56Z</time>
      </trkpt>
      <trkpt lat="43.52647" lon="1.5129">
        <ele>166.6</ele>
        <time>2023-05-27T05:24:57Z</time>
      </trkpt>
      <trkpt lat="43.52647" lon="1.51296">
        <ele>166.6</ele>
        <time>2023-05-27T05:24:58Z</time>
      </trkpt>
      <trkpt lat="43.52647" lon="1.51301">
        <ele>166.6</ele>
        <time>2023-05-27T05:24:59Z</time>
      </trkpt>
      <trkpt lat="43.52647" lon="1.51307">
        <ele>166.8</ele>
        <time>2023-05-27T05:25:00Z</time>
      </trkpt>
      <trkpt lat="43.52647" lon="1.51313">
        <ele>166.8</ele>
        <time>2023-05-27T05:25:01Z</time>
      </trkpt>
      <trkpt lat="43.52647" lon="1.51318">
        <ele>167</ele>
        <time>2023-05-27T05:25:02Z</time>
      </trkpt>
      <trkpt lat="43.52646" lon="1.51324">
        <ele>167</ele>
        <time>2023-05-27T05:25:03Z</time>
      </trkpt>
      <trkpt lat="43.52646" lon="1.51329">
        <ele>167.2</ele>
        <time>2023-05-27T05:25:04Z</time>
      </trkpt>
      <trkpt lat="43.52646" lon="1.51335">
        <ele>167.2</ele>
        <time>2023-05-27T05:25:05Z</time>
      </trkpt>
      <trkpt lat="43.52646" lon="1.51341">
        <ele>167.2</ele>
        <time>2023-05-27T05:25:06Z</time>
      </trkpt>
      <trkpt lat="43.52645" lon="1.51347">
        <ele>167.2</ele>
        <time>2023-05-27T05:25:07Z</time>
      </trkpt>
      <trkpt lat="43.52645" lon="1.51353">
        <ele>167.2</ele>
        <time>2023-05-27T05:25:08Z</time>
      </trkpt>
      <trkpt lat="43.52645" lon="1.51359">
        <ele>167.2</ele>
        <time>2023-05-27T05:25:09Z</time>
      </trkpt>
      <trkpt lat="43.52645" lon="1.51365">
        <ele>167.2</ele>
        <time>2023-05-27T05:25:10Z</time>
      </trkpt>
      <trkpt lat="43.52644" lon="1.51371">
        <ele>167.2</ele>
        <time>2023-05-27T05:25:11Z</time>
      </trkpt>
      <trkpt lat="43.52644" lon="1.51378">
        <ele>167.2</ele>
        <time>2023-05-27T05:25:12Z</time>
      </trkpt>
      <trkpt lat="43.52643" lon="1.51384">
        <ele>167.2</ele>
        <time>2023-05-27T05:25:13Z</time>
      </trkpt>
      <trkpt lat="43.52643" lon="1.51391">
        <ele>167.2</ele>
        <time>2023-05-27T05:25:14Z</time>
      </trkpt>
      <trkpt lat="43.52642" lon="1.51398">
        <ele>167</ele>
        <time>2023-05-27T05:25:15Z</time>
      </trkpt>
      <trkpt lat="43.52642" lon="1.51405">
        <ele>167</ele>
        <time>2023-05-27T05:25:16Z</time>
      </trkpt>
      <trkpt lat="43.52641" lon="1.51412">
        <ele>166.8</ele>
        <time>2023-05-27T05:25:17Z</time>
      </trkpt>
      <trkpt lat="43.5264" lon="1.5142">
        <ele>166.8</ele>
        <time>2023-05-27T05:25:18Z</time>
      </trkpt>
      <trkpt lat="43.5264" lon="1.51427">
        <ele>166.6</ele>
        <time>2023-05-27T05:25:19Z</time>
      </trkpt>
      <trkpt lat="43.52639" lon="1.51435">
        <ele>166.6</ele>
        <time>2023-05-27T05:25:20Z</time>
      </trkpt>
      <trkpt lat="43.52639" lon="1.51443">
        <ele>166.4</ele>
        <time>2023-05-27T05:25:21Z</time>
      </trkpt>
      <trkpt lat="43.52638" lon="1.51451">
        <ele>166.4</ele>
        <time>2023-05-27T05:25:22Z</time>
      </trkpt>
      <trkpt lat="43.52637" lon="1.51458">
        <ele>166.4</ele>
        <time>2023-05-27T05:25:23Z</time>
      </trkpt>
      <trkpt lat="43.52636" lon="1.51466">
        <ele>166.2</ele>
        <time>2023-05-27T05:25:24Z</time>
      </trkpt>
      <trkpt lat="43.52635" lon="1.51473">
        <ele>166.2</ele>
        <time>2023-05-27T05:25:25Z</time>
      </trkpt>
      <trkpt lat="43.52634" lon="1.51481">
        <ele>166</ele>
        <time>2023-05-27T05:25:26Z</time>
      </trkpt>
      <trkpt lat="43.52634" lon="1.51488">
        <ele>166</ele>
        <time>2023-05-27T05:25:27Z</time>
      </trkpt>
      <trkpt lat="43.52632" lon="1.51496">
        <ele>166</ele>
        <time>2023-05-27T05:25:28Z</time>
      </trkpt>
      <trkpt lat="43.52632" lon="1.51503">
        <ele>166</ele>
        <time>2023-05-27T05:25:29Z</time>
      </trkpt>
      <trkpt lat="43.52631" lon="1.5151">
        <ele>166</ele>
        <time>2023-05-27T05:25:30Z</time>
      </trkpt>
      <trkpt lat="43.5263" lon="1.51518">
        <ele>165.8</ele>
        <time>2023-05-27T05:25:31Z</time>
      </trkpt>
      <trkpt lat="43.52629" lon="1.51525">
        <ele>165.8</ele>
        <time>2023-05-27T05:25:32Z</time>
      </trkpt>
      <trkpt lat="43.52628" lon="1.51532">
        <ele>165.8</ele>
        <time>2023-05-27T05:25:33Z</time>
      </trkpt>
      <trkpt lat="43.52627" lon="1.51539">
        <ele>165.8</ele>
        <time>2023-05-27T05:25:34Z</time>
      </trkpt>
      <trkpt lat="43.52626" lon="1.51546">
        <ele>165.8</ele>
        <time>2023-05-27T05:25:35Z</time>
      </trkpt>
      <trkpt lat="43.52625" lon="1.51553">
        <ele>165.8</ele>
        <time>2023-05-27T05:25:36Z</time>
      </trkpt>
      <trkpt lat="43.52623" lon="1.51558">
        <ele>165.8</ele>
        <time>2023-05-27T05:25:37Z</time>
      </trkpt>
      <trkpt lat="43.5262" lon="1.51563">
        <ele>165.8</ele>
        <time>2023-05-27T05:25:38Z</time>
      </trkpt>
      <trkpt lat="43.52618" lon="1.51567">
        <ele>165.8</ele>
        <time>2023-05-27T05:25:39Z</time>
      </trkpt>
      <trkpt lat="43.52616" lon="1.51574">
        <ele>165.8</ele>
        <time>2023-05-27T05:25:40Z</time>
      </trkpt>
      <trkpt lat="43.52614" lon="1.5158">
        <ele>165.8</ele>
        <time>2023-05-27T05:25:41Z</time>
      </trkpt>
      <trkpt lat="43.52613" lon="1.51586">
        <ele>165.8</ele>
        <time>2023-05-27T05:25:42Z</time>
      </trkpt>
      <trkpt lat="43.52611" lon="1.51591">
        <ele>165.8</ele>
        <time>2023-05-27T05:25:43Z</time>
      </trkpt>
      <trkpt lat="43.5261" lon="1.51598">
        <ele>165.8</ele>
        <time>2023-05-27T05:25:44Z</time>
      </trkpt>
      <trkpt lat="43.52608" lon="1.51605">
        <ele>165.8</ele>
        <time>2023-05-27T05:25:45Z</time>
      </trkpt>
      <trkpt lat="43.52606" lon="1.51612">
        <ele>165.8</ele>
        <time>2023-05-27T05:25:46Z</time>
      </trkpt>
      <trkpt lat="43.52605" lon="1.51618">
        <ele>165.8</ele>
        <time>2023-05-27T05:25:47Z</time>
      </trkpt>
      <trkpt lat="43.52603" lon="1.51625">
        <ele>165.8</ele>
        <time>2023-05-27T05:25:48Z</time>
      </trkpt>
      <trkpt lat="43.52601" lon="1.51631">
        <ele>165.8</ele>
        <time>2023-05-27T05:25:49Z</time>
      </trkpt>
      <trkpt lat="43.52599" lon="1.51637">
        <ele>165.8</ele>
        <time>2023-05-27T05:25:50Z</time>
      </trkpt>
      <trkpt lat="43.52598" lon="1.51643">
        <ele>165.8</ele>
        <time>2023-05-27T05:25:51Z</time>
      </trkpt>
      <trkpt lat="43.52596" lon="1.5165">
        <ele>165.8</ele>
        <time>2023-05-27T05:25:52Z</time>
      </trkpt>
      <trkpt lat="43.52595" lon="1.51656">
        <ele>165.8</ele>
        <time>2023-05-27T05:25:53Z</time>
      </trkpt>
      <trkpt lat="43.52593" lon="1.51662">
        <ele>165.8</ele>
        <time>2023-05-27T05:25:54Z</time>
      </trkpt>
      <trkpt lat="43.5259" lon="1.51668">
        <ele>165.8</ele>
        <time>2023-05-27T05:25:55Z</time>
      </trkpt>
      <trkpt lat="43.52588" lon="1.51675">
        <ele>165.8</ele>
        <time>2023-05-27T05:25:56Z</time>
      </trkpt>
      <trkpt lat="43.52585" lon="1.51681">
        <ele>165.8</ele>
        <time>2023-05-27T05:25:57Z</time>
      </trkpt>
      <trkpt lat="43.52582" lon="1.51687">
        <ele>165.8</ele>
        <time>2023-05-27T05:25:58Z</time>
      </trkpt>
      <trkpt lat="43.5258" lon="1.51693">
        <ele>165.8</ele>
        <time>2023-05-27T05:25:59Z</time>
      </trkpt>
      <trkpt lat="43.52578" lon="1.51699">
        <ele>165.6</ele>
        <time>2023-05-27T05:26:00Z</time>
      </trkpt>
      <trkpt lat="43.52575" lon="1.51705">
        <ele>165.8</ele>
        <time>2023-05-27T05:26:01Z</time>
      </trkpt>
      <trkpt lat="43.52573" lon="1.51711">
        <ele>165.8</ele>
        <time>2023-05-27T05:26:02Z</time>
      </trkpt>
      <trkpt lat="43.52571" lon="1.51717">
        <ele>165.8</ele>
        <time>2023-05-27T05:26:03Z</time>
      </trkpt>
      <trkpt lat="43.52569" lon="1.51722">
        <ele>165.8</ele>
        <time>2023-05-27T05:26:04Z</time>
      </trkpt>
      <trkpt lat="43.52566" lon="1.51728">
        <ele>165.8</ele>
        <time>2023-05-27T05:26:05Z</time>
      </trkpt>
      <trkpt lat="43.52564" lon="1.51734">
        <ele>165.8</ele>
        <time>2023-05-27T05:26:06Z</time>
      </trkpt>
      <trkpt lat="43.52562" lon="1.5174">
        <ele>165.8</ele>
        <time>2023-05-27T05:26:07Z</time>
      </trkpt>
      <trkpt lat="43.52559" lon="1.51745">
        <ele>165.8</ele>
        <time>2023-05-27T05:26:08Z</time>
      </trkpt>
      <trkpt lat="43.52556" lon="1.5175">
        <ele>165.8</ele>
        <time>2023-05-27T05:26:09Z</time>
      </trkpt>
      <trkpt lat="43.52554" lon="1.51756">
        <ele>165.8</ele>
        <time>2023-05-27T05:26:10Z</time>
      </trkpt>
      <trkpt lat="43.5255" lon="1.51761">
        <ele>165.8</ele>
        <time>2023-05-27T05:26:11Z</time>
      </trkpt>
      <trkpt lat="43.52548" lon="1.51766">
        <ele>165.8</ele>
        <time>2023-05-27T05:26:12Z</time>
      </trkpt>
      <trkpt lat="43.52545" lon="1.51772">
        <ele>165.8</ele>
        <time>2023-05-27T05:26:13Z</time>
      </trkpt>
      <trkpt lat="43.52542" lon="1.51777">
        <ele>165.8</ele>
        <time>2023-05-27T05:26:14Z</time>
      </trkpt>
      <trkpt lat="43.52538" lon="1.51782">
        <ele>165.8</ele>
        <time>2023-05-27T05:26:15Z</time>
      </trkpt>
      <trkpt lat="43.52534" lon="1.51786">
        <ele>165.8</ele>
        <time>2023-05-27T05:26:16Z</time>
      </trkpt>
      <trkpt lat="43.52531" lon="1.51791">
        <ele>165.8</ele>
        <time>2023-05-27T05:26:17Z</time>
      </trkpt>
      <trkpt lat="43.52527" lon="1.51795">
        <ele>165.8</ele>
        <time>2023-05-27T05:26:18Z</time>
      </trkpt>
      <trkpt lat="43.52523" lon="1.518">
        <ele>165.8</ele>
        <time>2023-05-27T05:26:19Z</time>
      </trkpt>
      <trkpt lat="43.5252" lon="1.51804">
        <ele>165.8</ele>
        <time>2023-05-27T05:26:20Z</time>
      </trkpt>
      <trkpt lat="43.52516" lon="1.51808">
        <ele>165.8</ele>
        <time>2023-05-27T05:26:21Z</time>
      </trkpt>
      <trkpt lat="43.52512" lon="1.51812">
        <ele>165.8</ele>
        <time>2023-05-27T05:26:22Z</time>
      </trkpt>
      <trkpt lat="43.52509" lon="1.51815">
        <ele>165.8</ele>
        <time>2023-05-27T05:26:23Z</time>
      </trkpt>
      <trkpt lat="43.52505" lon="1.51819">
        <ele>165.8</ele>
        <time>2023-05-27T05:26:24Z</time>
      </trkpt>
      <trkpt lat="43.52502" lon="1.51822">
        <ele>165.8</ele>
        <time>2023-05-27T05:26:25Z</time>
      </trkpt>
      <trkpt lat="43.52498" lon="1.51825">
        <ele>166</ele>
        <time>2023-05-27T05:26:26Z</time>
      </trkpt>
      <trkpt lat="43.52494" lon="1.51828">
        <ele>166</ele>
        <time>2023-05-27T05:26:27Z</time>
      </trkpt>
      <trkpt lat="43.52491" lon="1.51831">
        <ele>166</ele>
        <time>2023-05-27T05:26:28Z</time>
      </trkpt>
      <trkpt lat="43.52487" lon="1.51834">
        <ele>166.2</ele>
        <time>2023-05-27T05:26:29Z</time>
      </trkpt>
      <trkpt lat="43.52483" lon="1.51837">
        <ele>166.2</ele>
        <time>2023-05-27T05:26:30Z</time>
      </trkpt>
      <trkpt lat="43.52479" lon="1.5184">
        <ele>166.2</ele>
        <time>2023-05-27T05:26:31Z</time>
      </trkpt>
      <trkpt lat="43.52476" lon="1.51842">
        <ele>166.2</ele>
        <time>2023-05-27T05:26:32Z</time>
      </trkpt>
      <trkpt lat="43.52472" lon="1.51845">
        <ele>166.2</ele>
        <time>2023-05-27T05:26:33Z</time>
      </trkpt>
      <trkpt lat="43.52468" lon="1.51847">
        <ele>166.2</ele>
        <time>2023-05-27T05:26:34Z</time>
      </trkpt>
      <trkpt lat="43.52464" lon="1.5185">
        <ele>166.2</ele>
        <time>2023-05-27T05:26:35Z</time>
      </trkpt>
      <trkpt lat="43.5246" lon="1.51852">
        <ele>166.4</ele>
        <time>2023-05-27T05:26:36Z</time>
      </trkpt>
      <trkpt lat="43.52457" lon="1.51855">
        <ele>166.4</ele>
        <time>2023-05-27T05:26:37Z</time>
      </trkpt>
      <trkpt lat="43.52453" lon="1.51857">
        <ele>166.4</ele>
        <time>2023-05-27T05:26:38Z</time>
      </trkpt>
      <trkpt lat="43.5245" lon="1.5186">
        <ele>166.4</ele>
        <time>2023-05-27T05:26:39Z</time>
      </trkpt>
      <trkpt lat="43.52446" lon="1.51862">
        <ele>166.6</ele>
        <time>2023-05-27T05:26:40Z</time>
      </trkpt>
      <trkpt lat="43.52443" lon="1.51864">
        <ele>166.6</ele>
        <time>2023-05-27T05:26:41Z</time>
      </trkpt>
      <trkpt lat="43.52439" lon="1.51866">
        <ele>166.6</ele>
        <time>2023-05-27T05:26:42Z</time>
      </trkpt>
      <trkpt lat="43.52436" lon="1.51868">
        <ele>166.8</ele>
        <time>2023-05-27T05:26:43Z</time>
      </trkpt>
      <trkpt lat="43.52433" lon="1.51869">
        <ele>167</ele>
        <time>2023-05-27T05:26:44Z</time>
      </trkpt>
      <trkpt lat="43.5243" lon="1.5187">
        <ele>167.2</ele>
        <time>2023-05-27T05:26:45Z</time>
      </trkpt>
      <trkpt lat="43.52428" lon="1.51872">
        <ele>167.2</ele>
        <time>2023-05-27T05:26:46Z</time>
      </trkpt>
      <trkpt lat="43.52426" lon="1.51873">
        <ele>167.4</ele>
        <time>2023-05-27T05:26:47Z</time>
      </trkpt>
      <trkpt lat="43.52424" lon="1.51874">
        <ele>167.6</ele>
        <time>2023-05-27T05:26:48Z</time>
      </trkpt>
      <trkpt lat="43.52422" lon="1.51875">
        <ele>167.8</ele>
        <time>2023-05-27T05:26:49Z</time>
      </trkpt>
      <trkpt lat="43.5242" lon="1.51875">
        <ele>168</ele>
        <time>2023-05-27T05:26:50Z</time>
      </trkpt>
      <trkpt lat="43.52418" lon="1.51876">
        <ele>168.2</ele>
        <time>2023-05-27T05:26:51Z</time>
      </trkpt>
      <trkpt lat="43.52416" lon="1.51877">
        <ele>168.6</ele>
        <time>2023-05-27T05:26:52Z</time>
      </trkpt>
      <trkpt lat="43.52415" lon="1.51877">
        <ele>168.8</ele>
        <time>2023-05-27T05:26:53Z</time>
      </trkpt>
      <trkpt lat="43.52413" lon="1.51877">
        <ele>169</ele>
        <time>2023-05-27T05:26:54Z</time>
      </trkpt>
      <trkpt lat="43.52412" lon="1.51877">
        <ele>169.2</ele>
        <time>2023-05-27T05:26:55Z</time>
      </trkpt>
      <trkpt lat="43.5241" lon="1.51877">
        <ele>169.4</ele>
        <time>2023-05-27T05:26:56Z</time>
      </trkpt>
      <trkpt lat="43.52409" lon="1.51878">
        <ele>169.6</ele>
        <time>2023-05-27T05:26:57Z</time>
      </trkpt>
      <trkpt lat="43.52407" lon="1.51878">
        <ele>169.8</ele>
        <time>2023-05-27T05:26:58Z</time>
      </trkpt>
      <trkpt lat="43.52405" lon="1.51878">
        <ele>170</ele>
        <time>2023-05-27T05:26:59Z</time>
      </trkpt>
      <trkpt lat="43.52404" lon="1.51879">
        <ele>170</ele>
        <time>2023-05-27T05:27:00Z</time>
      </trkpt>
      <trkpt lat="43.52402" lon="1.51879">
        <ele>170</ele>
        <time>2023-05-27T05:27:01Z</time>
      </trkpt>
      <trkpt lat="43.52399" lon="1.51879">
        <ele>170.2</ele>
        <time>2023-05-27T05:27:02Z</time>
      </trkpt>
      <trkpt lat="43.52396" lon="1.51879">
        <ele>170.2</ele>
        <time>2023-05-27T05:27:03Z</time>
      </trkpt>
      <trkpt lat="43.52393" lon="1.5188">
        <ele>170.2</ele>
        <time>2023-05-27T05:27:04Z</time>
      </trkpt>
      <trkpt lat="43.52391" lon="1.51881">
        <ele>170.2</ele>
        <time>2023-05-27T05:27:05Z</time>
      </trkpt>
      <trkpt lat="43.52388" lon="1.51881">
        <ele>170.2</ele>
        <time>2023-05-27T05:27:06Z</time>
      </trkpt>
      <trkpt lat="43.52384" lon="1.51883">
        <ele>170</ele>
        <time>2023-05-27T05:27:07Z</time>
      </trkpt>
      <trkpt lat="43.52381" lon="1.51884">
        <ele>170</ele>
        <time>2023-05-27T05:27:08Z</time>
      </trkpt>
      <trkpt lat="43.52378" lon="1.51885">
        <ele>170</ele>
        <time>2023-05-27T05:27:09Z</time>
      </trkpt>
      <trkpt lat="43.52374" lon="1.51886">
        <ele>170</ele>
        <time>2023-05-27T05:27:10Z</time>
      </trkpt>
      <trkpt lat="43.5237" lon="1.51886">
        <ele>169.8</ele>
        <time>2023-05-27T05:27:11Z</time>
      </trkpt>
      <trkpt lat="43.52366" lon="1.51887">
        <ele>169.8</ele>
        <time>2023-05-27T05:27:12Z</time>
      </trkpt>
      <trkpt lat="43.52362" lon="1.51888">
        <ele>169.8</ele>
        <time>2023-05-27T05:27:13Z</time>
      </trkpt>
      <trkpt lat="43.52359" lon="1.51889">
        <ele>169.8</ele>
        <time>2023-05-27T05:27:14Z</time>
      </trkpt>
      <trkpt lat="43.52356" lon="1.5189">
        <ele>169.8</ele>
        <time>2023-05-27T05:27:15Z</time>
      </trkpt>
      <trkpt lat="43.52352" lon="1.5189">
        <ele>169.8</ele>
        <time>2023-05-27T05:27:16Z</time>
      </trkpt>
      <trkpt lat="43.52348" lon="1.51891">
        <ele>169.8</ele>
        <time>2023-05-27T05:27:17Z</time>
      </trkpt>
      <trkpt lat="43.52345" lon="1.51892">
        <ele>170</ele>
        <time>2023-05-27T05:27:18Z</time>
      </trkpt>
      <trkpt lat="43.52342" lon="1.51894">
        <ele>170</ele>
        <time>2023-05-27T05:27:19Z</time>
      </trkpt>
      <trkpt lat="43.52338" lon="1.51895">
        <ele>170</ele>
        <time>2023-05-27T05:27:20Z</time>
      </trkpt>
      <trkpt lat="43.52335" lon="1.51897">
        <ele>170</ele>
        <time>2023-05-27T05:27:21Z</time>
      </trkpt>
      <trkpt lat="43.52332" lon="1.51899">
        <ele>170</ele>
        <time>2023-05-27T05:27:22Z</time>
      </trkpt>
      <trkpt lat="43.52329" lon="1.51901">
        <ele>170</ele>
        <time>2023-05-27T05:27:23Z</time>
      </trkpt>
      <trkpt lat="43.52327" lon="1.51903">
        <ele>170.2</ele>
        <time>2023-05-27T05:27:24Z</time>
      </trkpt>
      <trkpt lat="43.52324" lon="1.51904">
        <ele>170.2</ele>
        <time>2023-05-27T05:27:25Z</time>
      </trkpt>
      <trkpt lat="43.52321" lon="1.51906">
        <ele>170.2</ele>
        <time>2023-05-27T05:27:26Z</time>
      </trkpt>
      <trkpt lat="43.52318" lon="1.51908">
        <ele>170.2</ele>
        <time>2023-05-27T05:27:27Z</time>
      </trkpt>
      <trkpt lat="43.52315" lon="1.51909">
        <ele>170.4</ele>
        <time>2023-05-27T05:27:28Z</time>
      </trkpt>
      <trkpt lat="43.52312" lon="1.5191">
        <ele>170.4</ele>
        <time>2023-05-27T05:27:29Z</time>
      </trkpt>
      <trkpt lat="43.52309" lon="1.51911">
        <ele>170.4</ele>
        <time>2023-05-27T05:27:30Z</time>
      </trkpt>
      <trkpt lat="43.52306" lon="1.51912">
        <ele>170.4</ele>
        <time>2023-05-27T05:27:31Z</time>
      </trkpt>
      <trkpt lat="43.52304" lon="1.51913">
        <ele>170.6</ele>
        <time>2023-05-27T05:27:32Z</time>
      </trkpt>
      <trkpt lat="43.52301" lon="1.51915">
        <ele>170.6</ele>
        <time>2023-05-27T05:27:33Z</time>
      </trkpt>
      <trkpt lat="43.52297" lon="1.51916">
        <ele>170.6</ele>
        <time>2023-05-27T05:27:34Z</time>
      </trkpt>
      <trkpt lat="43.52293" lon="1.51917">
        <ele>170.6</ele>
        <time>2023-05-27T05:27:35Z</time>
      </trkpt>
      <trkpt lat="43.5229" lon="1.51918">
        <ele>170.8</ele>
        <time>2023-05-27T05:27:36Z</time>
      </trkpt>
      <trkpt lat="43.52287" lon="1.5192">
        <ele>170.8</ele>
        <time>2023-05-27T05:27:37Z</time>
      </trkpt>
      <trkpt lat="43.52284" lon="1.51921">
        <ele>170.8</ele>
        <time>2023-05-27T05:27:38Z</time>
      </trkpt>
      <trkpt lat="43.52282" lon="1.51922">
        <ele>170.8</ele>
        <time>2023-05-27T05:27:39Z</time>
      </trkpt>
      <trkpt lat="43.52279" lon="1.51924">
        <ele>170.8</ele>
        <time>2023-05-27T05:27:40Z</time>
      </trkpt>
      <trkpt lat="43.52276" lon="1.51925">
        <ele>170.8</ele>
        <time>2023-05-27T05:27:41Z</time>
      </trkpt>
      <trkpt lat="43.52273" lon="1.51926">
        <ele>170.8</ele>
        <time>2023-05-27T05:27:42Z</time>
      </trkpt>
      <trkpt lat="43.5227" lon="1.51928">
        <ele>170.8</ele>
        <time>2023-05-27T05:27:43Z</time>
      </trkpt>
      <trkpt lat="43.52266" lon="1.5193">
        <ele>170.8</ele>
        <time>2023-05-27T05:27:44Z</time>
      </trkpt>
      <trkpt lat="43.52262" lon="1.51931">
        <ele>170.8</ele>
        <time>2023-05-27T05:27:45Z</time>
      </trkpt>
      <trkpt lat="43.52259" lon="1.51933">
        <ele>170.8</ele>
        <time>2023-05-27T05:27:46Z</time>
      </trkpt>
      <trkpt lat="43.52255" lon="1.51935">
        <ele>170.8</ele>
        <time>2023-05-27T05:27:47Z</time>
      </trkpt>
      <trkpt lat="43.52251" lon="1.51936">
        <ele>170.8</ele>
        <time>2023-05-27T05:27:48Z</time>
      </trkpt>
      <trkpt lat="43.52247" lon="1.51938">
        <ele>170.8</ele>
        <time>2023-05-27T05:27:49Z</time>
      </trkpt>
      <trkpt lat="43.52243" lon="1.51939">
        <ele>170.8</ele>
        <time>2023-05-27T05:27:50Z</time>
      </trkpt>
      <trkpt lat="43.52239" lon="1.5194">
        <ele>170.8</ele>
        <time>2023-05-27T05:27:51Z</time>
      </trkpt>
      <trkpt lat="43.52235" lon="1.51941">
        <ele>170.8</ele>
        <time>2023-05-27T05:27:52Z</time>
      </trkpt>
      <trkpt lat="43.5223" lon="1.51943">
        <ele>170.8</ele>
        <time>2023-05-27T05:27:53Z</time>
      </trkpt>
      <trkpt lat="43.52226" lon="1.51945">
        <ele>170.8</ele>
        <time>2023-05-27T05:27:54Z</time>
      </trkpt>
      <trkpt lat="43.52222" lon="1.51946">
        <ele>170.8</ele>
        <time>2023-05-27T05:27:55Z</time>
      </trkpt>
      <trkpt lat="43.52219" lon="1.51947">
        <ele>170.8</ele>
        <time>2023-05-27T05:27:56Z</time>
      </trkpt>
      <trkpt lat="43.52214" lon="1.51948">
        <ele>170.8</ele>
        <time>2023-05-27T05:27:57Z</time>
      </trkpt>
      <trkpt lat="43.52211" lon="1.51948">
        <ele>170.8</ele>
        <time>2023-05-27T05:27:58Z</time>
      </trkpt>
      <trkpt lat="43.52208" lon="1.51948">
        <ele>170.8</ele>
        <time>2023-05-27T05:27:59Z</time>
      </trkpt>
      <trkpt lat="43.52206" lon="1.51949">
        <ele>170.8</ele>
        <time>2023-05-27T05:28:00Z</time>
      </trkpt>
      <trkpt lat="43.52204" lon="1.5195">
        <ele>170.8</ele>
        <time>2023-05-27T05:28:01Z</time>
      </trkpt>
      <trkpt lat="43.52201" lon="1.5195">
        <ele>170.8</ele>
        <time>2023-05-27T05:28:02Z</time>
      </trkpt>
      <trkpt lat="43.52198" lon="1.51951">
        <ele>170.8</ele>
        <time>2023-05-27T05:28:03Z</time>
      </trkpt>
      <trkpt lat="43.52195" lon="1.51951">
        <ele>170.8</ele>
        <time>2023-05-27T05:28:04Z</time>
      </trkpt>
      <trkpt lat="43.52192" lon="1.51951">
        <ele>170.8</ele>
        <time>2023-05-27T05:28:05Z</time>
      </trkpt>
      <trkpt lat="43.52189" lon="1.51951">
        <ele>170.8</ele>
        <time>2023-05-27T05:28:06Z</time>
      </trkpt>
      <trkpt lat="43.52186" lon="1.51952">
        <ele>170.8</ele>
        <time>2023-05-27T05:28:07Z</time>
      </trkpt>
      <trkpt lat="43.52182" lon="1.51952">
        <ele>170.6</ele>
        <time>2023-05-27T05:28:08Z</time>
      </trkpt>
      <trkpt lat="43.52179" lon="1.51953">
        <ele>170.6</ele>
        <time>2023-05-27T05:28:09Z</time>
      </trkpt>
      <trkpt lat="43.52176" lon="1.51953">
        <ele>170.6</ele>
        <time>2023-05-27T05:28:10Z</time>
      </trkpt>
      <trkpt lat="43.52171" lon="1.51953">
        <ele>170.6</ele>
        <time>2023-05-27T05:28:11Z</time>
      </trkpt>
      <trkpt lat="43.52166" lon="1.51953">
        <ele>170.4</ele>
        <time>2023-05-27T05:28:12Z</time>
      </trkpt>
      <trkpt lat="43.52161" lon="1.51954">
        <ele>170.4</ele>
        <time>2023-05-27T05:28:13Z</time>
      </trkpt>
      <trkpt lat="43.52156" lon="1.51955">
        <ele>170.4</ele>
        <time>2023-05-27T05:28:14Z</time>
      </trkpt>
      <trkpt lat="43.5215" lon="1.51955">
        <ele>170.4</ele>
        <time>2023-05-27T05:28:15Z</time>
      </trkpt>
      <trkpt lat="43.52146" lon="1.51955">
        <ele>170.4</ele>
        <time>2023-05-27T05:28:16Z</time>
      </trkpt>
      <trkpt lat="43.52141" lon="1.51955">
        <ele>170.4</ele>
        <time>2023-05-27T05:28:17Z</time>
      </trkpt>
      <trkpt lat="43.52137" lon="1.51956">
        <ele>170.4</ele>
        <time>2023-05-27T05:28:18Z</time>
      </trkpt>
      <trkpt lat="43.52132" lon="1.51957">
        <ele>170.4</ele>
        <time>2023-05-27T05:28:19Z</time>
      </trkpt>
      <trkpt lat="43.52126" lon="1.51958">
        <ele>170.4</ele>
        <time>2023-05-27T05:28:20Z</time>
      </trkpt>
      <trkpt lat="43.52122" lon="1.51959">
        <ele>170.4</ele>
        <time>2023-05-27T05:28:21Z</time>
      </trkpt>
      <trkpt lat="43.52116" lon="1.51962">
        <ele>170.4</ele>
        <time>2023-05-27T05:28:22Z</time>
      </trkpt>
      <trkpt lat="43.5211" lon="1.51964">
        <ele>170.4</ele>
        <time>2023-05-27T05:28:23Z</time>
      </trkpt>
      <trkpt lat="43.52105" lon="1.51967">
        <ele>170.4</ele>
        <time>2023-05-27T05:28:24Z</time>
      </trkpt>
      <trkpt lat="43.521" lon="1.5197">
        <ele>170.4</ele>
        <time>2023-05-27T05:28:25Z</time>
      </trkpt>
      <trkpt lat="43.52095" lon="1.51973">
        <ele>170.4</ele>
        <time>2023-05-27T05:28:26Z</time>
      </trkpt>
      <trkpt lat="43.52091" lon="1.51977">
        <ele>170.4</ele>
        <time>2023-05-27T05:28:27Z</time>
      </trkpt>
      <trkpt lat="43.52087" lon="1.51981">
        <ele>170.4</ele>
        <time>2023-05-27T05:28:28Z</time>
      </trkpt>
      <trkpt lat="43.52082" lon="1.51983">
        <ele>170.6</ele>
        <time>2023-05-27T05:28:29Z</time>
      </trkpt>
      <trkpt lat="43.52077" lon="1.51985">
        <ele>170.6</ele>
        <time>2023-05-27T05:28:30Z</time>
      </trkpt>
      <trkpt lat="43.52073" lon="1.51988">
        <ele>170.6</ele>
        <time>2023-05-27T05:28:31Z</time>
      </trkpt>
      <trkpt lat="43.52069" lon="1.51991">
        <ele>170.8</ele>
        <time>2023-05-27T05:28:32Z</time>
      </trkpt>
      <trkpt lat="43.52065" lon="1.51995">
        <ele>170.8</ele>
        <time>2023-05-27T05:28:33Z</time>
      </trkpt>
      <trkpt lat="43.52062" lon="1.51997">
        <ele>170.8</ele>
        <time>2023-05-27T05:28:34Z</time>
      </trkpt>
      <trkpt lat="43.52058" lon="1.52">
        <ele>171</ele>
        <time>2023-05-27T05:28:35Z</time>
      </trkpt>
      <trkpt lat="43.52054" lon="1.52003">
        <ele>171</ele>
        <time>2023-05-27T05:28:36Z</time>
      </trkpt>
      <trkpt lat="43.5205" lon="1.52006">
        <ele>171</ele>
        <time>2023-05-27T05:28:37Z</time>
      </trkpt>
      <trkpt lat="43.52045" lon="1.52007">
        <ele>171</ele>
        <time>2023-05-27T05:28:38Z</time>
      </trkpt>
      <trkpt lat="43.52042" lon="1.52008">
        <ele>171</ele>
        <time>2023-05-27T05:28:39Z</time>
      </trkpt>
      <trkpt lat="43.52039" lon="1.52009">
        <ele>171.2</ele>
        <time>2023-05-27T05:28:40Z</time>
      </trkpt>
      <trkpt lat="43.52036" lon="1.52009">
        <ele>171.2</ele>
        <time>2023-05-27T05:28:41Z</time>
      </trkpt>
      <trkpt lat="43.52033" lon="1.52011">
        <ele>171.2</ele>
        <time>2023-05-27T05:28:42Z</time>
      </trkpt>
      <trkpt lat="43.5203" lon="1.52014">
        <ele>171.2</ele>
        <time>2023-05-27T05:28:43Z</time>
      </trkpt>
      <trkpt lat="43.52024" lon="1.52017">
        <ele>171.2</ele>
        <time>2023-05-27T05:28:44Z</time>
      </trkpt>
      <trkpt lat="43.52021" lon="1.52018">
        <ele>171.2</ele>
        <time>2023-05-27T05:28:45Z</time>
      </trkpt>
      <trkpt lat="43.52018" lon="1.52019">
        <ele>171.2</ele>
        <time>2023-05-27T05:28:46Z</time>
      </trkpt>
      <trkpt lat="43.52014" lon="1.5202">
        <ele>171.2</ele>
        <time>2023-05-27T05:28:47Z</time>
      </trkpt>
      <trkpt lat="43.52012" lon="1.52021">
        <ele>171.2</ele>
        <time>2023-05-27T05:28:48Z</time>
      </trkpt>
      <trkpt lat="43.52008" lon="1.52021">
        <ele>171.2</ele>
        <time>2023-05-27T05:28:49Z</time>
      </trkpt>
      <trkpt lat="43.52005" lon="1.52022">
        <ele>171.2</ele>
        <time>2023-05-27T05:28:50Z</time>
      </trkpt>
      <trkpt lat="43.52002" lon="1.52023">
        <ele>171.2</ele>
        <time>2023-05-27T05:28:51Z</time>
      </trkpt>
      <trkpt lat="43.51998" lon="1.52023">
        <ele>171.2</ele>
        <time>2023-05-27T05:28:52Z</time>
      </trkpt>
      <trkpt lat="43.51994" lon="1.52024">
        <ele>171.2</ele>
        <time>2023-05-27T05:28:53Z</time>
      </trkpt>
      <trkpt lat="43.51989" lon="1.52024">
        <ele>171.2</ele>
        <time>2023-05-27T05:28:54Z</time>
      </trkpt>
      <trkpt lat="43.51985" lon="1.52024">
        <ele>171.2</ele>
        <time>2023-05-27T05:28:55Z</time>
      </trkpt>
      <trkpt lat="43.5198" lon="1.52024">
        <ele>171</ele>
        <time>2023-05-27T05:28:56Z</time>
      </trkpt>
      <trkpt lat="43.51975" lon="1.52024">
        <ele>171</ele>
        <time>2023-05-27T05:28:57Z</time>
      </trkpt>
      <trkpt lat="43.5197" lon="1.52024">
        <ele>171</ele>
        <time>2023-05-27T05:28:58Z</time>
      </trkpt>
      <trkpt lat="43.51965" lon="1.52023">
        <ele>171</ele>
        <time>2023-05-27T05:28:59Z</time>
      </trkpt>
      <trkpt lat="43.51961" lon="1.52022">
        <ele>170.8</ele>
        <time>2023-05-27T05:29:00Z</time>
      </trkpt>
      <trkpt lat="43.51956" lon="1.52021">
        <ele>170.8</ele>
        <time>2023-05-27T05:29:01Z</time>
      </trkpt>
      <trkpt lat="43.5195" lon="1.52021">
        <ele>170.8</ele>
        <time>2023-05-27T05:29:02Z</time>
      </trkpt>
      <trkpt lat="43.51945" lon="1.5202">
        <ele>170.6</ele>
        <time>2023-05-27T05:29:03Z</time>
      </trkpt>
      <trkpt lat="43.5194" lon="1.52018">
        <ele>170.6</ele>
        <time>2023-05-27T05:29:04Z</time>
      </trkpt>
      <trkpt lat="43.51934" lon="1.52016">
        <ele>170.6</ele>
        <time>2023-05-27T05:29:05Z</time>
      </trkpt>
      <trkpt lat="43.51927" lon="1.52014">
        <ele>170.4</ele>
        <time>2023-05-27T05:29:06Z</time>
      </trkpt>
      <trkpt lat="43.51921" lon="1.52013">
        <ele>170.4</ele>
        <time>2023-05-27T05:29:07Z</time>
      </trkpt>
      <trkpt lat="43.51914" lon="1.52011">
        <ele>170.4</ele>
        <time>2023-05-27T05:29:08Z</time>
      </trkpt>
      <trkpt lat="43.51908" lon="1.52009">
        <ele>170.4</ele>
        <time>2023-05-27T05:29:09Z</time>
      </trkpt>
      <trkpt lat="43.51903" lon="1.52007">
        <ele>170.4</ele>
        <time>2023-05-27T05:29:10Z</time>
      </trkpt>
      <trkpt lat="43.51897" lon="1.52005">
        <ele>170.4</ele>
        <time>2023-05-27T05:29:11Z</time>
      </trkpt>
      <trkpt lat="43.51892" lon="1.52003">
        <ele>170.4</ele>
        <time>2023-05-27T05:29:12Z</time>
      </trkpt>
      <trkpt lat="43.51887" lon="1.52">
        <ele>170.4</ele>
        <time>2023-05-27T05:29:13Z</time>
      </trkpt>
      <trkpt lat="43.51884" lon="1.51998">
        <ele>170.4</ele>
        <time>2023-05-27T05:29:14Z</time>
      </trkpt>
      <trkpt lat="43.5188" lon="1.51996">
        <ele>170.6</ele>
        <time>2023-05-27T05:29:15Z</time>
      </trkpt>
      <trkpt lat="43.51874" lon="1.51993">
        <ele>170.6</ele>
        <time>2023-05-27T05:29:16Z</time>
      </trkpt>
      <trkpt lat="43.51868" lon="1.5199">
        <ele>170.8</ele>
        <time>2023-05-27T05:29:17Z</time>
      </trkpt>
      <trkpt lat="43.51863" lon="1.5199">
        <ele>170.8</ele>
        <time>2023-05-27T05:29:18Z</time>
      </trkpt>
      <trkpt lat="43.51859" lon="1.51989">
        <ele>170.8</ele>
        <time>2023-05-27T05:29:19Z</time>
      </trkpt>
      <trkpt lat="43.51855" lon="1.51987">
        <ele>170.8</ele>
        <time>2023-05-27T05:29:20Z</time>
      </trkpt>
      <trkpt lat="43.5185" lon="1.51986">
        <ele>171</ele>
        <time>2023-05-27T05:29:21Z</time>
      </trkpt>
      <trkpt lat="43.51846" lon="1.51985">
        <ele>171</ele>
        <time>2023-05-27T05:29:22Z</time>
      </trkpt>
      <trkpt lat="43.51841" lon="1.51984">
        <ele>171</ele>
        <time>2023-05-27T05:29:23Z</time>
      </trkpt>
      <trkpt lat="43.51835" lon="1.51981">
        <ele>171</ele>
        <time>2023-05-27T05:29:24Z</time>
      </trkpt>
      <trkpt lat="43.5183" lon="1.5198">
        <ele>170.8</ele>
        <time>2023-05-27T05:29:25Z</time>
      </trkpt>
      <trkpt lat="43.51826" lon="1.51978">
        <ele>170.8</ele>
        <time>2023-05-27T05:29:26Z</time>
      </trkpt>
      <trkpt lat="43.51822" lon="1.51976">
        <ele>170.8</ele>
        <time>2023-05-27T05:29:27Z</time>
      </trkpt>
      <trkpt lat="43.51819" lon="1.51976">
        <ele>170.8</ele>
        <time>2023-05-27T05:29:28Z</time>
      </trkpt>
      <trkpt lat="43.51813" lon="1.51976">
        <ele>170.8</ele>
        <time>2023-05-27T05:29:29Z</time>
      </trkpt>
      <trkpt lat="43.51808" lon="1.51977">
        <ele>170.6</ele>
        <time>2023-05-27T05:29:30Z</time>
      </trkpt>
      <trkpt lat="43.51805" lon="1.51978">
        <ele>170.6</ele>
        <time>2023-05-27T05:29:31Z</time>
      </trkpt>
      <trkpt lat="43.51803" lon="1.5198">
        <ele>170.6</ele>
        <time>2023-05-27T05:29:32Z</time>
      </trkpt>
      <trkpt lat="43.518" lon="1.51982">
        <ele>170.8</ele>
        <time>2023-05-27T05:29:33Z</time>
      </trkpt>
      <trkpt lat="43.51796" lon="1.51984">
        <ele>170.8</ele>
        <time>2023-05-27T05:29:34Z</time>
      </trkpt>
      <trkpt lat="43.51793" lon="1.51985">
        <ele>170.8</ele>
        <time>2023-05-27T05:29:35Z</time>
      </trkpt>
      <trkpt lat="43.5179" lon="1.51987">
        <ele>170.8</ele>
        <time>2023-05-27T05:29:36Z</time>
      </trkpt>
      <trkpt lat="43.51786" lon="1.51989">
        <ele>170.8</ele>
        <time>2023-05-27T05:29:37Z</time>
      </trkpt>
      <trkpt lat="43.51783" lon="1.51992">
        <ele>170.8</ele>
        <time>2023-05-27T05:29:38Z</time>
      </trkpt>
      <trkpt lat="43.51778" lon="1.51995">
        <ele>170.8</ele>
        <time>2023-05-27T05:29:39Z</time>
      </trkpt>
      <trkpt lat="43.51774" lon="1.51998">
        <ele>170.8</ele>
        <time>2023-05-27T05:29:40Z</time>
      </trkpt>
      <trkpt lat="43.51771" lon="1.52001">
        <ele>170.8</ele>
        <time>2023-05-27T05:29:41Z</time>
      </trkpt>
      <trkpt lat="43.51768" lon="1.52004">
        <ele>170.8</ele>
        <time>2023-05-27T05:29:42Z</time>
      </trkpt>
      <trkpt lat="43.51765" lon="1.52006">
        <ele>170.8</ele>
        <time>2023-05-27T05:29:43Z</time>
      </trkpt>
      <trkpt lat="43.51761" lon="1.5201">
        <ele>170.8</ele>
        <time>2023-05-27T05:29:44Z</time>
      </trkpt>
      <trkpt lat="43.51756" lon="1.52013">
        <ele>170.8</ele>
        <time>2023-05-27T05:29:45Z</time>
      </trkpt>
      <trkpt lat="43.51751" lon="1.52015">
        <ele>170.8</ele>
        <time>2023-05-27T05:29:46Z</time>
      </trkpt>
      <trkpt lat="43.51747" lon="1.52018">
        <ele>170.8</ele>
        <time>2023-05-27T05:29:47Z</time>
      </trkpt>
      <trkpt lat="43.51743" lon="1.5202">
        <ele>170.8</ele>
        <time>2023-05-27T05:29:48Z</time>
      </trkpt>
      <trkpt lat="43.51738" lon="1.52024">
        <ele>170.8</ele>
        <time>2023-05-27T05:29:49Z</time>
      </trkpt>
      <trkpt lat="43.51733" lon="1.52027">
        <ele>170.8</ele>
        <time>2023-05-27T05:29:50Z</time>
      </trkpt>
      <trkpt lat="43.51728" lon="1.5203">
        <ele>170.8</ele>
        <time>2023-05-27T05:29:51Z</time>
      </trkpt>
      <trkpt lat="43.51725" lon="1.52032">
        <ele>170.8</ele>
        <time>2023-05-27T05:29:52Z</time>
      </trkpt>
      <trkpt lat="43.51721" lon="1.52034">
        <ele>170.8</ele>
        <time>2023-05-27T05:29:53Z</time>
      </trkpt>
      <trkpt lat="43.51716" lon="1.52037">
        <ele>171</ele>
        <time>2023-05-27T05:29:54Z</time>
      </trkpt>
      <trkpt lat="43.51711" lon="1.52038">
        <ele>171</ele>
        <time>2023-05-27T05:29:55Z</time>
      </trkpt>
      <trkpt lat="43.51706" lon="1.52039">
        <ele>171.2</ele>
        <time>2023-05-27T05:29:56Z</time>
      </trkpt>
      <trkpt lat="43.51701" lon="1.52041">
        <ele>171.2</ele>
        <time>2023-05-27T05:29:57Z</time>
      </trkpt>
      <trkpt lat="43.51697" lon="1.52043">
        <ele>171.2</ele>
        <time>2023-05-27T05:29:58Z</time>
      </trkpt>
      <trkpt lat="43.51691" lon="1.52047">
        <ele>171.2</ele>
        <time>2023-05-27T05:29:59Z</time>
      </trkpt>
      <trkpt lat="43.51686" lon="1.5205">
        <ele>171.2</ele>
        <time>2023-05-27T05:30:00Z</time>
      </trkpt>
      <trkpt lat="43.51682" lon="1.52052">
        <ele>171.2</ele>
        <time>2023-05-27T05:30:01Z</time>
      </trkpt>
      <trkpt lat="43.51676" lon="1.52054">
        <ele>171</ele>
        <time>2023-05-27T05:30:02Z</time>
      </trkpt>
      <trkpt lat="43.5167" lon="1.52056">
        <ele>171</ele>
        <time>2023-05-27T05:30:03Z</time>
      </trkpt>
      <trkpt lat="43.51666" lon="1.52057">
        <ele>171</ele>
        <time>2023-05-27T05:30:04Z</time>
      </trkpt>
      <trkpt lat="43.51662" lon="1.52058">
        <ele>171</ele>
        <time>2023-05-27T05:30:05Z</time>
      </trkpt>
      <trkpt lat="43.51657" lon="1.5206">
        <ele>171</ele>
        <time>2023-05-27T05:30:06Z</time>
      </trkpt>
      <trkpt lat="43.51652" lon="1.52062">
        <ele>171</ele>
        <time>2023-05-27T05:30:07Z</time>
      </trkpt>
      <trkpt lat="43.51648" lon="1.52062">
        <ele>171</ele>
        <time>2023-05-27T05:30:08Z</time>
      </trkpt>
      <trkpt lat="43.51644" lon="1.52063">
        <ele>171</ele>
        <time>2023-05-27T05:30:09Z</time>
      </trkpt>
      <trkpt lat="43.51639" lon="1.52063">
        <ele>171</ele>
        <time>2023-05-27T05:30:10Z</time>
      </trkpt>
      <trkpt lat="43.51635" lon="1.52063">
        <ele>171</ele>
        <time>2023-05-27T05:30:11Z</time>
      </trkpt>
      <trkpt lat="43.51631" lon="1.52064">
        <ele>171</ele>
        <time>2023-05-27T05:30:12Z</time>
      </trkpt>
      <trkpt lat="43.51627" lon="1.52064">
        <ele>171</ele>
        <time>2023-05-27T05:30:13Z</time>
      </trkpt>
      <trkpt lat="43.51623" lon="1.52064">
        <ele>171</ele>
        <time>2023-05-27T05:30:14Z</time>
      </trkpt>
      <trkpt lat="43.5162" lon="1.52063">
        <ele>171</ele>
        <time>2023-05-27T05:30:15Z</time>
      </trkpt>
      <trkpt lat="43.51616" lon="1.52063">
        <ele>171</ele>
        <time>2023-05-27T05:30:16Z</time>
      </trkpt>
      <trkpt lat="43.5161" lon="1.52062">
        <ele>171</ele>
        <time>2023-05-27T05:30:17Z</time>
      </trkpt>
      <trkpt lat="43.51604" lon="1.52061">
        <ele>171</ele>
        <time>2023-05-27T05:30:18Z</time>
      </trkpt>
      <trkpt lat="43.51598" lon="1.52059">
        <ele>171</ele>
        <time>2023-05-27T05:30:19Z</time>
      </trkpt>
      <trkpt lat="43.51595" lon="1.52058">
        <ele>171</ele>
        <time>2023-05-27T05:30:20Z</time>
      </trkpt>
      <trkpt lat="43.51591" lon="1.52055">
        <ele>171</ele>
        <time>2023-05-27T05:30:21Z</time>
      </trkpt>
      <trkpt lat="43.51587" lon="1.52053">
        <ele>171</ele>
        <time>2023-05-27T05:30:22Z</time>
      </trkpt>
      <trkpt lat="43.51584" lon="1.52051">
        <ele>171</ele>
        <time>2023-05-27T05:30:23Z</time>
      </trkpt>
      <trkpt lat="43.5158" lon="1.52047">
        <ele>171</ele>
        <time>2023-05-27T05:30:24Z</time>
      </trkpt>
      <trkpt lat="43.51578" lon="1.52042">
        <ele>171</ele>
        <time>2023-05-27T05:30:25Z</time>
      </trkpt>
      <trkpt lat="43.51576" lon="1.52038">
        <ele>171</ele>
        <time>2023-05-27T05:30:26Z</time>
      </trkpt>
      <trkpt lat="43.51575" lon="1.52033">
        <ele>171</ele>
        <time>2023-05-27T05:30:27Z</time>
      </trkpt>
      <trkpt lat="43.51573" lon="1.52028">
        <ele>171</ele>
        <time>2023-05-27T05:30:28Z</time>
      </trkpt>
      <trkpt lat="43.5157" lon="1.52024">
        <ele>171</ele>
        <time>2023-05-27T05:30:29Z</time>
      </trkpt>
      <trkpt lat="43.51567" lon="1.52019">
        <ele>171</ele>
        <time>2023-05-27T05:30:30Z</time>
      </trkpt>
      <trkpt lat="43.51564" lon="1.52015">
        <ele>171</ele>
        <time>2023-05-27T05:30:31Z</time>
      </trkpt>
      <trkpt lat="43.51561" lon="1.5201">
        <ele>171</ele>
        <time>2023-05-27T05:30:32Z</time>
      </trkpt>
      <trkpt lat="43.51557" lon="1.52006">
        <ele>171</ele>
        <time>2023-05-27T05:30:33Z</time>
      </trkpt>
      <trkpt lat="43.51554" lon="1.52001">
        <ele>171</ele>
        <time>2023-05-27T05:30:34Z</time>
      </trkpt>
      <trkpt lat="43.51549" lon="1.51996">
        <ele>171</ele>
        <time>2023-05-27T05:30:35Z</time>
      </trkpt>
      <trkpt lat="43.51544" lon="1.51991">
        <ele>171</ele>
        <time>2023-05-27T05:30:36Z</time>
      </trkpt>
      <trkpt lat="43.51541" lon="1.51988">
        <ele>171</ele>
        <time>2023-05-27T05:30:37Z</time>
      </trkpt>
      <trkpt lat="43.51538" lon="1.51985">
        <ele>171</ele>
        <time>2023-05-27T05:30:38Z</time>
      </trkpt>
      <trkpt lat="43.51535" lon="1.51982">
        <ele>171</ele>
        <time>2023-05-27T05:30:39Z</time>
      </trkpt>
      <trkpt lat="43.51531" lon="1.5198">
        <ele>171</ele>
        <time>2023-05-27T05:30:40Z</time>
      </trkpt>
      <trkpt lat="43.51526" lon="1.51976">
        <ele>171</ele>
        <time>2023-05-27T05:30:41Z</time>
      </trkpt>
      <trkpt lat="43.51521" lon="1.51971">
        <ele>171</ele>
        <time>2023-05-27T05:30:42Z</time>
      </trkpt>
      <trkpt lat="43.51518" lon="1.51968">
        <ele>171</ele>
        <time>2023-05-27T05:30:43Z</time>
      </trkpt>
      <trkpt lat="43.51515" lon="1.51964">
        <ele>171</ele>
        <time>2023-05-27T05:30:44Z</time>
      </trkpt>
      <trkpt lat="43.51512" lon="1.51961">
        <ele>171</ele>
        <time>2023-05-27T05:30:45Z</time>
      </trkpt>
      <trkpt lat="43.51508" lon="1.51957">
        <ele>171</ele>
        <time>2023-05-27T05:30:46Z</time>
      </trkpt>
      <trkpt lat="43.51504" lon="1.51952">
        <ele>171</ele>
        <time>2023-05-27T05:30:47Z</time>
      </trkpt>
      <trkpt lat="43.51501" lon="1.51947">
        <ele>171</ele>
        <time>2023-05-27T05:30:48Z</time>
      </trkpt>
      <trkpt lat="43.515" lon="1.51942">
        <ele>171</ele>
        <time>2023-05-27T05:30:49Z</time>
      </trkpt>
      <trkpt lat="43.51496" lon="1.51937">
        <ele>171</ele>
        <time>2023-05-27T05:30:50Z</time>
      </trkpt>
      <trkpt lat="43.51494" lon="1.51932">
        <ele>171</ele>
        <time>2023-05-27T05:30:51Z</time>
      </trkpt>
      <trkpt lat="43.51491" lon="1.51926">
        <ele>171</ele>
        <time>2023-05-27T05:30:52Z</time>
      </trkpt>
      <trkpt lat="43.51489" lon="1.51921">
        <ele>171</ele>
        <time>2023-05-27T05:30:53Z</time>
      </trkpt>
      <trkpt lat="43.51486" lon="1.51915">
        <ele>171</ele>
        <time>2023-05-27T05:30:54Z</time>
      </trkpt>
      <trkpt lat="43.51483" lon="1.51909">
        <ele>171</ele>
        <time>2023-05-27T05:30:55Z</time>
      </trkpt>
      <trkpt lat="43.5148" lon="1.51903">
        <ele>171</ele>
        <time>2023-05-27T05:30:56Z</time>
      </trkpt>
      <trkpt lat="43.51479" lon="1.51897">
        <ele>171.2</ele>
        <time>2023-05-27T05:30:57Z</time>
      </trkpt>
      <trkpt lat="43.51478" lon="1.5189">
        <ele>171.2</ele>
        <time>2023-05-27T05:30:58Z</time>
      </trkpt>
      <trkpt lat="43.51477" lon="1.51885">
        <ele>171.2</ele>
        <time>2023-05-27T05:30:59Z</time>
      </trkpt>
      <trkpt lat="43.51476" lon="1.51879">
        <ele>171.2</ele>
        <time>2023-05-27T05:31:00Z</time>
      </trkpt>
      <trkpt lat="43.51476" lon="1.51873">
        <ele>171.2</ele>
        <time>2023-05-27T05:31:01Z</time>
      </trkpt>
      <trkpt lat="43.51475" lon="1.51867">
        <ele>171.2</ele>
        <time>2023-05-27T05:31:02Z</time>
      </trkpt>
      <trkpt lat="43.51475" lon="1.51862">
        <ele>171.2</ele>
        <time>2023-05-27T05:31:03Z</time>
      </trkpt>
      <trkpt lat="43.51474" lon="1.51856">
        <ele>171.2</ele>
        <time>2023-05-27T05:31:04Z</time>
      </trkpt>
      <trkpt lat="43.51474" lon="1.51851">
        <ele>171.2</ele>
        <time>2023-05-27T05:31:05Z</time>
      </trkpt>
      <trkpt lat="43.51474" lon="1.51846">
        <ele>171.2</ele>
        <time>2023-05-27T05:31:06Z</time>
      </trkpt>
      <trkpt lat="43.51475" lon="1.51841">
        <ele>171.2</ele>
        <time>2023-05-27T05:31:07Z</time>
      </trkpt>
      <trkpt lat="43.51474" lon="1.51836">
        <ele>171.2</ele>
        <time>2023-05-27T05:31:08Z</time>
      </trkpt>
      <trkpt lat="43.51473" lon="1.51833">
        <ele>171.2</ele>
        <time>2023-05-27T05:31:09Z</time>
      </trkpt>
      <trkpt lat="43.51471" lon="1.51829">
        <ele>171.2</ele>
        <time>2023-05-27T05:31:10Z</time>
      </trkpt>
      <trkpt lat="43.51469" lon="1.51827">
        <ele>171.2</ele>
        <time>2023-05-27T05:31:11Z</time>
      </trkpt>
      <trkpt lat="43.51468" lon="1.51826">
        <ele>171.2</ele>
        <time>2023-05-27T05:31:12Z</time>
      </trkpt>
      <trkpt lat="43.51465" lon="1.51824">
        <ele>171.2</ele>
        <time>2023-05-27T05:31:13Z</time>
      </trkpt>
      <trkpt lat="43.51462" lon="1.51823">
        <ele>171</ele>
        <time>2023-05-27T05:31:14Z</time>
      </trkpt>
      <trkpt lat="43.51458" lon="1.51821">
        <ele>171</ele>
        <time>2023-05-27T05:31:15Z</time>
      </trkpt>
      <trkpt lat="43.51454" lon="1.51819">
        <ele>171</ele>
        <time>2023-05-27T05:31:16Z</time>
      </trkpt>
      <trkpt lat="43.5145" lon="1.51817">
        <ele>171</ele>
        <time>2023-05-27T05:31:17Z</time>
      </trkpt>
      <trkpt lat="43.51446" lon="1.51816">
        <ele>171.2</ele>
        <time>2023-05-27T05:31:18Z</time>
      </trkpt>
      <trkpt lat="43.51442" lon="1.51814">
        <ele>171.2</ele>
        <time>2023-05-27T05:31:19Z</time>
      </trkpt>
      <trkpt lat="43.51438" lon="1.51813">
        <ele>171.2</ele>
        <time>2023-05-27T05:31:20Z</time>
      </trkpt>
      <trkpt lat="43.51434" lon="1.51811">
        <ele>171.2</ele>
        <time>2023-05-27T05:31:21Z</time>
      </trkpt>
      <trkpt lat="43.5143" lon="1.51809">
        <ele>171.2</ele>
        <time>2023-05-27T05:31:22Z</time>
      </trkpt>
      <trkpt lat="43.51426" lon="1.51807">
        <ele>171.2</ele>
        <time>2023-05-27T05:31:23Z</time>
      </trkpt>
      <trkpt lat="43.51422" lon="1.51805">
        <ele>171.2</ele>
        <time>2023-05-27T05:31:24Z</time>
      </trkpt>
      <trkpt lat="43.51418" lon="1.51803">
        <ele>171.2</ele>
        <time>2023-05-27T05:31:25Z</time>
      </trkpt>
      <trkpt lat="43.51415" lon="1.51801">
        <ele>171.4</ele>
        <time>2023-05-27T05:31:26Z</time>
      </trkpt>
      <trkpt lat="43.51411" lon="1.51798">
        <ele>171.4</ele>
        <time>2023-05-27T05:31:27Z</time>
      </trkpt>
      <trkpt lat="43.51408" lon="1.51795">
        <ele>171.4</ele>
        <time>2023-05-27T05:31:28Z</time>
      </trkpt>
      <trkpt lat="43.51405" lon="1.5179">
        <ele>171.4</ele>
        <time>2023-05-27T05:31:29Z</time>
      </trkpt>
      <trkpt lat="43.51404" lon="1.51785">
        <ele>171.4</ele>
        <time>2023-05-27T05:31:30Z</time>
      </trkpt>
      <trkpt lat="43.51403" lon="1.5178">
        <ele>171.4</ele>
        <time>2023-05-27T05:31:31Z</time>
      </trkpt>
      <trkpt lat="43.51403" lon="1.51774">
        <ele>171.4</ele>
        <time>2023-05-27T05:31:32Z</time>
      </trkpt>
      <trkpt lat="43.51403" lon="1.51768">
        <ele>171.4</ele>
        <time>2023-05-27T05:31:33Z</time>
      </trkpt>
      <trkpt lat="43.51403" lon="1.51763">
        <ele>171.4</ele>
        <time>2023-05-27T05:31:34Z</time>
      </trkpt>
      <trkpt lat="43.51403" lon="1.51757">
        <ele>171.4</ele>
        <time>2023-05-27T05:31:35Z</time>
      </trkpt>
      <trkpt lat="43.51403" lon="1.51752">
        <ele>171.4</ele>
        <time>2023-05-27T05:31:36Z</time>
      </trkpt>
      <trkpt lat="43.51402" lon="1.51746">
        <ele>171.4</ele>
        <time>2023-05-27T05:31:37Z</time>
      </trkpt>
      <trkpt lat="43.51402" lon="1.51741">
        <ele>171.4</ele>
        <time>2023-05-27T05:31:38Z</time>
      </trkpt>
      <trkpt lat="43.51401" lon="1.51735">
        <ele>171.4</ele>
        <time>2023-05-27T05:31:39Z</time>
      </trkpt>
      <trkpt lat="43.51399" lon="1.5173">
        <ele>171.4</ele>
        <time>2023-05-27T05:31:40Z</time>
      </trkpt>
      <trkpt lat="43.51397" lon="1.51726">
        <ele>171.4</ele>
        <time>2023-05-27T05:31:41Z</time>
      </trkpt>
      <trkpt lat="43.51393" lon="1.51724">
        <ele>171.4</ele>
        <time>2023-05-27T05:31:42Z</time>
      </trkpt>
      <trkpt lat="43.5139" lon="1.51723">
        <ele>171.4</ele>
        <time>2023-05-27T05:31:43Z</time>
      </trkpt>
      <trkpt lat="43.51385" lon="1.51723">
        <ele>171.4</ele>
        <time>2023-05-27T05:31:44Z</time>
      </trkpt>
      <trkpt lat="43.51381" lon="1.51723">
        <ele>171.4</ele>
        <time>2023-05-27T05:31:45Z</time>
      </trkpt>
      <trkpt lat="43.51377" lon="1.51724">
        <ele>171.4</ele>
        <time>2023-05-27T05:31:46Z</time>
      </trkpt>
      <trkpt lat="43.51374" lon="1.51725">
        <ele>171.4</ele>
        <time>2023-05-27T05:31:47Z</time>
      </trkpt>
      <trkpt lat="43.51369" lon="1.51725">
        <ele>171.4</ele>
        <time>2023-05-27T05:31:48Z</time>
      </trkpt>
      <trkpt lat="43.51365" lon="1.51726">
        <ele>171.4</ele>
        <time>2023-05-27T05:31:49Z</time>
      </trkpt>
      <trkpt lat="43.51361" lon="1.51726">
        <ele>171.4</ele>
        <time>2023-05-27T05:31:50Z</time>
      </trkpt>
      <trkpt lat="43.51357" lon="1.51726">
        <ele>171.4</ele>
        <time>2023-05-27T05:31:51Z</time>
      </trkpt>
      <trkpt lat="43.51353" lon="1.51725">
        <ele>171.4</ele>
        <time>2023-05-27T05:31:52Z</time>
      </trkpt>
      <trkpt lat="43.51349" lon="1.51722">
        <ele>171.2</ele>
        <time>2023-05-27T05:31:53Z</time>
      </trkpt>
      <trkpt lat="43.51346" lon="1.51718">
        <ele>171.4</ele>
        <time>2023-05-27T05:31:54Z</time>
      </trkpt>
      <trkpt lat="43.51343" lon="1.51713">
        <ele>171.4</ele>
        <time>2023-05-27T05:31:55Z</time>
      </trkpt>
      <trkpt lat="43.51342" lon="1.51708">
        <ele>171.4</ele>
        <time>2023-05-27T05:31:56Z</time>
      </trkpt>
      <trkpt lat="43.51339" lon="1.51704">
        <ele>171.4</ele>
        <time>2023-05-27T05:31:57Z</time>
      </trkpt>
      <trkpt lat="43.51337" lon="1.517">
        <ele>171.4</ele>
        <time>2023-05-27T05:31:58Z</time>
      </trkpt>
      <trkpt lat="43.51334" lon="1.51697">
        <ele>171.4</ele>
        <time>2023-05-27T05:31:59Z</time>
      </trkpt>
      <trkpt lat="43.51332" lon="1.51694">
        <ele>171.6</ele>
        <time>2023-05-27T05:32:00Z</time>
      </trkpt>
      <trkpt lat="43.5133" lon="1.51692">
        <ele>171.6</ele>
        <time>2023-05-27T05:32:01Z</time>
      </trkpt>
      <trkpt lat="43.51327" lon="1.51689">
        <ele>171.6</ele>
        <time>2023-05-27T05:32:02Z</time>
      </trkpt>
      <trkpt lat="43.51325" lon="1.51689">
        <ele>171.6</ele>
        <time>2023-05-27T05:32:03Z</time>
      </trkpt>
      <trkpt lat="43.51322" lon="1.51689">
        <ele>171.8</ele>
        <time>2023-05-27T05:32:04Z</time>
      </trkpt>
      <trkpt lat="43.5132" lon="1.51689">
        <ele>171.8</ele>
        <time>2023-05-27T05:32:05Z</time>
      </trkpt>
      <trkpt lat="43.51318" lon="1.5169">
        <ele>171.8</ele>
        <time>2023-05-27T05:32:06Z</time>
      </trkpt>
      <trkpt lat="43.51315" lon="1.51691">
        <ele>171.8</ele>
        <time>2023-05-27T05:32:07Z</time>
      </trkpt>
      <trkpt lat="43.51311" lon="1.51692">
        <ele>171.8</ele>
        <time>2023-05-27T05:32:08Z</time>
      </trkpt>
      <trkpt lat="43.51308" lon="1.51693">
        <ele>171.8</ele>
        <time>2023-05-27T05:32:09Z</time>
      </trkpt>
      <trkpt lat="43.51305" lon="1.51694">
        <ele>171.8</ele>
        <time>2023-05-27T05:32:10Z</time>
      </trkpt>
      <trkpt lat="43.51302" lon="1.51694">
        <ele>171.8</ele>
        <time>2023-05-27T05:32:11Z</time>
      </trkpt>
      <trkpt lat="43.51299" lon="1.51695">
        <ele>171.8</ele>
        <time>2023-05-27T05:32:12Z</time>
      </trkpt>
      <trkpt lat="43.51296" lon="1.51696">
        <ele>171.8</ele>
        <time>2023-05-27T05:32:13Z</time>
      </trkpt>
      <trkpt lat="43.51294" lon="1.51697">
        <ele>171.8</ele>
        <time>2023-05-27T05:32:14Z</time>
      </trkpt>
      <trkpt lat="43.5129" lon="1.51698">
        <ele>171.8</ele>
        <time>2023-05-27T05:32:15Z</time>
      </trkpt>
      <trkpt lat="43.51287" lon="1.51699">
        <ele>171.8</ele>
        <time>2023-05-27T05:32:16Z</time>
      </trkpt>
      <trkpt lat="43.51283" lon="1.517">
        <ele>171.8</ele>
        <time>2023-05-27T05:32:17Z</time>
      </trkpt>
      <trkpt lat="43.5128" lon="1.51702">
        <ele>171.6</ele>
        <time>2023-05-27T05:32:18Z</time>
      </trkpt>
      <trkpt lat="43.51277" lon="1.51702">
        <ele>171.6</ele>
        <time>2023-05-27T05:32:19Z</time>
      </trkpt>
      <trkpt lat="43.51273" lon="1.51704">
        <ele>171.6</ele>
        <time>2023-05-27T05:32:20Z</time>
      </trkpt>
      <trkpt lat="43.51269" lon="1.51705">
        <ele>171.6</ele>
        <time>2023-05-27T05:32:21Z</time>
      </trkpt>
      <trkpt lat="43.51265" lon="1.51707">
        <ele>171.6</ele>
        <time>2023-05-27T05:32:22Z</time>
      </trkpt>
      <trkpt lat="43.51261" lon="1.51707">
        <ele>171.6</ele>
        <time>2023-05-27T05:32:23Z</time>
      </trkpt>
      <trkpt lat="43.51257" lon="1.51707">
        <ele>171.4</ele>
        <time>2023-05-27T05:32:24Z</time>
      </trkpt>
      <trkpt lat="43.51253" lon="1.51708">
        <ele>171.6</ele>
        <time>2023-05-27T05:32:25Z</time>
      </trkpt>
      <trkpt lat="43.51249" lon="1.5171">
        <ele>171.6</ele>
        <time>2023-05-27T05:32:26Z</time>
      </trkpt>
      <trkpt lat="43.51244" lon="1.51711">
        <ele>171.6</ele>
        <time>2023-05-27T05:32:27Z</time>
      </trkpt>
      <trkpt lat="43.51239" lon="1.51712">
        <ele>171.6</ele>
        <time>2023-05-27T05:32:28Z</time>
      </trkpt>
      <trkpt lat="43.51236" lon="1.51713">
        <ele>171.8</ele>
        <time>2023-05-27T05:32:29Z</time>
      </trkpt>
      <trkpt lat="43.51232" lon="1.51713">
        <ele>171.8</ele>
        <time>2023-05-27T05:32:30Z</time>
      </trkpt>
      <trkpt lat="43.51228" lon="1.51713">
        <ele>171.8</ele>
        <time>2023-05-27T05:32:31Z</time>
      </trkpt>
      <trkpt lat="43.51223" lon="1.51714">
        <ele>172</ele>
        <time>2023-05-27T05:32:32Z</time>
      </trkpt>
      <trkpt lat="43.5122" lon="1.51714">
        <ele>172</ele>
        <time>2023-05-27T05:32:33Z</time>
      </trkpt>
      <trkpt lat="43.51216" lon="1.51714">
        <ele>172</ele>
        <time>2023-05-27T05:32:34Z</time>
      </trkpt>
      <trkpt lat="43.51212" lon="1.51715">
        <ele>172.2</ele>
        <time>2023-05-27T05:32:35Z</time>
      </trkpt>
      <trkpt lat="43.51209" lon="1.51717">
        <ele>172.2</ele>
        <time>2023-05-27T05:32:36Z</time>
      </trkpt>
      <trkpt lat="43.51206" lon="1.51718">
        <ele>172.2</ele>
        <time>2023-05-27T05:32:37Z</time>
      </trkpt>
      <trkpt lat="43.512" lon="1.5172">
        <ele>172.2</ele>
        <time>2023-05-27T05:32:38Z</time>
      </trkpt>
      <trkpt lat="43.51196" lon="1.51722">
        <ele>172.2</ele>
        <time>2023-05-27T05:32:39Z</time>
      </trkpt>
      <trkpt lat="43.51192" lon="1.51724">
        <ele>172.2</ele>
        <time>2023-05-27T05:32:40Z</time>
      </trkpt>
      <trkpt lat="43.51187" lon="1.51725">
        <ele>172.2</ele>
        <time>2023-05-27T05:32:41Z</time>
      </trkpt>
      <trkpt lat="43.51182" lon="1.51725">
        <ele>172.2</ele>
        <time>2023-05-27T05:32:42Z</time>
      </trkpt>
      <trkpt lat="43.51178" lon="1.51727">
        <ele>172.2</ele>
        <time>2023-05-27T05:32:43Z</time>
      </trkpt>
      <trkpt lat="43.51175" lon="1.51728">
        <ele>172.2</ele>
        <time>2023-05-27T05:32:44Z</time>
      </trkpt>
      <trkpt lat="43.51171" lon="1.51729">
        <ele>172.4</ele>
        <time>2023-05-27T05:32:45Z</time>
      </trkpt>
      <trkpt lat="43.51169" lon="1.5173">
        <ele>172.4</ele>
        <time>2023-05-27T05:32:46Z</time>
      </trkpt>
      <trkpt lat="43.51165" lon="1.51731">
        <ele>172.4</ele>
        <time>2023-05-27T05:32:47Z</time>
      </trkpt>
      <trkpt lat="43.51158" lon="1.51732">
        <ele>172.6</ele>
        <time>2023-05-27T05:32:48Z</time>
      </trkpt>
      <trkpt lat="43.51154" lon="1.51732">
        <ele>172.6</ele>
        <time>2023-05-27T05:32:49Z</time>
      </trkpt>
      <trkpt lat="43.51149" lon="1.51733">
        <ele>172.8</ele>
        <time>2023-05-27T05:32:50Z</time>
      </trkpt>
      <trkpt lat="43.51145" lon="1.51733">
        <ele>173</ele>
        <time>2023-05-27T05:32:51Z</time>
      </trkpt>
      <trkpt lat="43.51142" lon="1.51733">
        <ele>173.2</ele>
        <time>2023-05-27T05:32:52Z</time>
      </trkpt>
      <trkpt lat="43.51139" lon="1.51731">
        <ele>173.4</ele>
        <time>2023-05-27T05:32:53Z</time>
      </trkpt>
      <trkpt lat="43.51136" lon="1.51732">
        <ele>173.6</ele>
        <time>2023-05-27T05:32:54Z</time>
      </trkpt>
      <trkpt lat="43.51134" lon="1.51734">
        <ele>173.8</ele>
        <time>2023-05-27T05:32:55Z</time>
      </trkpt>
      <trkpt lat="43.51132" lon="1.51735">
        <ele>174</ele>
        <time>2023-05-27T05:32:56Z</time>
      </trkpt>
      <trkpt lat="43.51129" lon="1.51737">
        <ele>174.2</ele>
        <time>2023-05-27T05:32:57Z</time>
      </trkpt>
      <trkpt lat="43.51127" lon="1.51739">
        <ele>174.4</ele>
        <time>2023-05-27T05:32:58Z</time>
      </trkpt>
      <trkpt lat="43.51126" lon="1.5174">
        <ele>174.4</ele>
        <time>2023-05-27T05:32:59Z</time>
      </trkpt>
      <trkpt lat="43.51124" lon="1.51741">
        <ele>174.6</ele>
        <time>2023-05-27T05:33:00Z</time>
      </trkpt>
      <trkpt lat="43.51122" lon="1.51742">
        <ele>174.6</ele>
        <time>2023-05-27T05:33:01Z</time>
      </trkpt>
      <trkpt lat="43.51121" lon="1.51743">
        <ele>174.6</ele>
        <time>2023-05-27T05:33:02Z</time>
      </trkpt>
      <trkpt lat="43.51119" lon="1.51745">
        <ele>174.6</ele>
        <time>2023-05-27T05:33:03Z</time>
      </trkpt>
      <trkpt lat="43.51117" lon="1.51747">
        <ele>174.4</ele>
        <time>2023-05-27T05:33:04Z</time>
      </trkpt>
      <trkpt lat="43.51114" lon="1.51749">
        <ele>174.2</ele>
        <time>2023-05-27T05:33:05Z</time>
      </trkpt>
      <trkpt lat="43.51112" lon="1.51751">
        <ele>174.2</ele>
        <time>2023-05-27T05:33:06Z</time>
      </trkpt>
      <trkpt lat="43.5111" lon="1.51753">
        <ele>174</ele>
        <time>2023-05-27T05:33:07Z</time>
      </trkpt>
      <trkpt lat="43.51107" lon="1.51755">
        <ele>173.8</ele>
        <time>2023-05-27T05:33:08Z</time>
      </trkpt>
      <trkpt lat="43.51105" lon="1.51755">
        <ele>173.6</ele>
        <time>2023-05-27T05:33:09Z</time>
      </trkpt>
      <trkpt lat="43.51102" lon="1.51755">
        <ele>173.6</ele>
        <time>2023-05-27T05:33:10Z</time>
      </trkpt>
      <trkpt lat="43.51099" lon="1.51755">
        <ele>173.4</ele>
        <time>2023-05-27T05:33:11Z</time>
      </trkpt>
      <trkpt lat="43.51096" lon="1.51754">
        <ele>173.4</ele>
        <time>2023-05-27T05:33:12Z</time>
      </trkpt>
      <trkpt lat="43.51093" lon="1.51755">
        <ele>173.4</ele>
        <time>2023-05-27T05:33:13Z</time>
      </trkpt>
      <trkpt lat="43.5109" lon="1.51755">
        <ele>173.4</ele>
        <time>2023-05-27T05:33:14Z</time>
      </trkpt>
      <trkpt lat="43.51088" lon="1.51756">
        <ele>173.4</ele>
        <time>2023-05-27T05:33:15Z</time>
      </trkpt>
      <trkpt lat="43.51085" lon="1.51757">
        <ele>173.4</ele>
        <time>2023-05-27T05:33:16Z</time>
      </trkpt>
      <trkpt lat="43.51083" lon="1.51757">
        <ele>173.4</ele>
        <time>2023-05-27T05:33:17Z</time>
      </trkpt>
      <trkpt lat="43.5108" lon="1.51759">
        <ele>173.4</ele>
        <time>2023-05-27T05:33:18Z</time>
      </trkpt>
      <trkpt lat="43.51076" lon="1.5176">
        <ele>173.4</ele>
        <time>2023-05-27T05:33:19Z</time>
      </trkpt>
      <trkpt lat="43.51073" lon="1.5176">
        <ele>173.6</ele>
        <time>2023-05-27T05:33:20Z</time>
      </trkpt>
      <trkpt lat="43.5107" lon="1.51761">
        <ele>173.6</ele>
        <time>2023-05-27T05:33:21Z</time>
      </trkpt>
      <trkpt lat="43.51067" lon="1.51761">
        <ele>173.6</ele>
        <time>2023-05-27T05:33:22Z</time>
      </trkpt>
      <trkpt lat="43.51064" lon="1.51762">
        <ele>173.6</ele>
        <time>2023-05-27T05:33:23Z</time>
      </trkpt>
      <trkpt lat="43.51061" lon="1.51762">
        <ele>173.6</ele>
        <time>2023-05-27T05:33:24Z</time>
      </trkpt>
      <trkpt lat="43.51058" lon="1.51763">
        <ele>173.6</ele>
        <time>2023-05-27T05:33:25Z</time>
      </trkpt>
      <trkpt lat="43.51055" lon="1.51764">
        <ele>173.8</ele>
        <time>2023-05-27T05:33:26Z</time>
      </trkpt>
      <trkpt lat="43.51053" lon="1.51764">
        <ele>173.8</ele>
        <time>2023-05-27T05:33:27Z</time>
      </trkpt>
      <trkpt lat="43.51051" lon="1.51765">
        <ele>173.8</ele>
        <time>2023-05-27T05:33:28Z</time>
      </trkpt>
      <trkpt lat="43.51047" lon="1.51766">
        <ele>173.8</ele>
        <time>2023-05-27T05:33:29Z</time>
      </trkpt>
      <trkpt lat="43.51045" lon="1.51767">
        <ele>173.8</ele>
        <time>2023-05-27T05:33:30Z</time>
      </trkpt>
      <trkpt lat="43.51042" lon="1.51768">
        <ele>174</ele>
        <time>2023-05-27T05:33:31Z</time>
      </trkpt>
      <trkpt lat="43.51038" lon="1.51769">
        <ele>174</ele>
        <time>2023-05-27T05:33:32Z</time>
      </trkpt>
      <trkpt lat="43.51035" lon="1.5177">
        <ele>174</ele>
        <time>2023-05-27T05:33:33Z</time>
      </trkpt>
      <trkpt lat="43.51033" lon="1.51771">
        <ele>174</ele>
        <time>2023-05-27T05:33:34Z</time>
      </trkpt>
      <trkpt lat="43.5103" lon="1.51772">
        <ele>174</ele>
        <time>2023-05-27T05:33:35Z</time>
      </trkpt>
      <trkpt lat="43.51025" lon="1.51774">
        <ele>174</ele>
        <time>2023-05-27T05:33:36Z</time>
      </trkpt>
      <trkpt lat="43.5102" lon="1.51776">
        <ele>174</ele>
        <time>2023-05-27T05:33:37Z</time>
      </trkpt>
      <trkpt lat="43.51016" lon="1.51778">
        <ele>174.2</ele>
        <time>2023-05-27T05:33:38Z</time>
      </trkpt>
      <trkpt lat="43.51012" lon="1.51778">
        <ele>174.2</ele>
        <time>2023-05-27T05:33:39Z</time>
      </trkpt>
      <trkpt lat="43.51008" lon="1.51779">
        <ele>174.2</ele>
        <time>2023-05-27T05:33:40Z</time>
      </trkpt>
      <trkpt lat="43.51006" lon="1.5178">
        <ele>174.2</ele>
        <time>2023-05-27T05:33:41Z</time>
      </trkpt>
      <trkpt lat="43.51002" lon="1.51782">
        <ele>174.2</ele>
        <time>2023-05-27T05:33:42Z</time>
      </trkpt>
      <trkpt lat="43.50998" lon="1.51784">
        <ele>174.2</ele>
        <time>2023-05-27T05:33:43Z</time>
      </trkpt>
      <trkpt lat="43.50994" lon="1.51786">
        <ele>174.2</ele>
        <time>2023-05-27T05:33:44Z</time>
      </trkpt>
      <trkpt lat="43.5099" lon="1.51788">
        <ele>174.2</ele>
        <time>2023-05-27T05:33:45Z</time>
      </trkpt>
      <trkpt lat="43.50987" lon="1.51789">
        <ele>174</ele>
        <time>2023-05-27T05:33:46Z</time>
      </trkpt>
      <trkpt lat="43.50982" lon="1.51791">
        <ele>174</ele>
        <time>2023-05-27T05:33:47Z</time>
      </trkpt>
      <trkpt lat="43.50977" lon="1.51794">
        <ele>173.8</ele>
        <time>2023-05-27T05:33:48Z</time>
      </trkpt>
      <trkpt lat="43.50973" lon="1.51796">
        <ele>173.8</ele>
        <time>2023-05-27T05:33:49Z</time>
      </trkpt>
      <trkpt lat="43.50968" lon="1.51799">
        <ele>173.8</ele>
        <time>2023-05-27T05:33:50Z</time>
      </trkpt>
      <trkpt lat="43.50963" lon="1.51802">
        <ele>173.8</ele>
        <time>2023-05-27T05:33:51Z</time>
      </trkpt>
      <trkpt lat="43.50959" lon="1.51806">
        <ele>173.8</ele>
        <time>2023-05-27T05:33:52Z</time>
      </trkpt>
      <trkpt lat="43.50954" lon="1.51809">
        <ele>173.8</ele>
        <time>2023-05-27T05:33:53Z</time>
      </trkpt>
      <trkpt lat="43.50949" lon="1.51813">
        <ele>173.8</ele>
        <time>2023-05-27T05:33:54Z</time>
      </trkpt>
      <trkpt lat="43.50945" lon="1.51816">
        <ele>173.8</ele>
        <time>2023-05-27T05:33:55Z</time>
      </trkpt>
      <trkpt lat="43.50942" lon="1.5182">
        <ele>174</ele>
        <time>2023-05-27T05:33:56Z</time>
      </trkpt>
      <trkpt lat="43.50939" lon="1.51822">
        <ele>174</ele>
        <time>2023-05-27T05:33:57Z</time>
      </trkpt>
      <trkpt lat="43.50935" lon="1.51825">
        <ele>174</ele>
        <time>2023-05-27T05:33:58Z</time>
      </trkpt>
      <trkpt lat="43.5093" lon="1.51829">
        <ele>174</ele>
        <time>2023-05-27T05:33:59Z</time>
      </trkpt>
      <trkpt lat="43.50926" lon="1.51833">
        <ele>174.2</ele>
        <time>2023-05-27T05:34:00Z</time>
      </trkpt>
      <trkpt lat="43.50922" lon="1.51836">
        <ele>174.2</ele>
        <time>2023-05-27T05:34:01Z</time>
      </trkpt>
      <trkpt lat="43.50919" lon="1.51838">
        <ele>174.2</ele>
        <time>2023-05-27T05:34:02Z</time>
      </trkpt>
      <trkpt lat="43.50916" lon="1.51842">
        <ele>174.2</ele>
        <time>2023-05-27T05:34:03Z</time>
      </trkpt>
      <trkpt lat="43.50913" lon="1.51844">
        <ele>174.2</ele>
        <time>2023-05-27T05:34:04Z</time>
      </trkpt>
      <trkpt lat="43.5091" lon="1.51846">
        <ele>174.2</ele>
        <time>2023-05-27T05:34:05Z</time>
      </trkpt>
      <trkpt lat="43.50906" lon="1.51848">
        <ele>174.2</ele>
        <time>2023-05-27T05:34:06Z</time>
      </trkpt>
      <trkpt lat="43.50903" lon="1.51851">
        <ele>174.4</ele>
        <time>2023-05-27T05:34:07Z</time>
      </trkpt>
      <trkpt lat="43.50899" lon="1.51856">
        <ele>174.4</ele>
        <time>2023-05-27T05:34:08Z</time>
      </trkpt>
      <trkpt lat="43.50895" lon="1.51861">
        <ele>174.4</ele>
        <time>2023-05-27T05:34:09Z</time>
      </trkpt>
      <trkpt lat="43.50892" lon="1.51864">
        <ele>174.4</ele>
        <time>2023-05-27T05:34:10Z</time>
      </trkpt>
      <trkpt lat="43.50888" lon="1.51867">
        <ele>174.4</ele>
        <time>2023-05-27T05:34:11Z</time>
      </trkpt>
      <trkpt lat="43.50885" lon="1.51869">
        <ele>174.4</ele>
        <time>2023-05-27T05:34:12Z</time>
      </trkpt>
      <trkpt lat="43.50882" lon="1.51872">
        <ele>174.6</ele>
        <time>2023-05-27T05:34:13Z</time>
      </trkpt>
      <trkpt lat="43.50879" lon="1.51874">
        <ele>174.6</ele>
        <time>2023-05-27T05:34:14Z</time>
      </trkpt>
      <trkpt lat="43.50876" lon="1.51877">
        <ele>174.6</ele>
        <time>2023-05-27T05:34:15Z</time>
      </trkpt>
      <trkpt lat="43.50874" lon="1.5188">
        <ele>174.6</ele>
        <time>2023-05-27T05:34:16Z</time>
      </trkpt>
      <trkpt lat="43.50871" lon="1.51883">
        <ele>174.6</ele>
        <time>2023-05-27T05:34:17Z</time>
      </trkpt>
      <trkpt lat="43.50869" lon="1.51885">
        <ele>174.6</ele>
        <time>2023-05-27T05:34:18Z</time>
      </trkpt>
      <trkpt lat="43.50866" lon="1.51888">
        <ele>174.6</ele>
        <time>2023-05-27T05:34:19Z</time>
      </trkpt>
      <trkpt lat="43.50863" lon="1.5189">
        <ele>174.6</ele>
        <time>2023-05-27T05:34:20Z</time>
      </trkpt>
      <trkpt lat="43.50861" lon="1.51893">
        <ele>174.6</ele>
        <time>2023-05-27T05:34:21Z</time>
      </trkpt>
      <trkpt lat="43.50858" lon="1.51896">
        <ele>174.6</ele>
        <time>2023-05-27T05:34:22Z</time>
      </trkpt>
      <trkpt lat="43.50854" lon="1.51899">
        <ele>174.8</ele>
        <time>2023-05-27T05:34:23Z</time>
      </trkpt>
      <trkpt lat="43.50852" lon="1.51901">
        <ele>174.8</ele>
        <time>2023-05-27T05:34:24Z</time>
      </trkpt>
      <trkpt lat="43.5085" lon="1.51905">
        <ele>174.8</ele>
        <time>2023-05-27T05:34:25Z</time>
      </trkpt>
      <trkpt lat="43.50847" lon="1.51909">
        <ele>174.8</ele>
        <time>2023-05-27T05:34:26Z</time>
      </trkpt>
      <trkpt lat="43.50843" lon="1.51913">
        <ele>174.8</ele>
        <time>2023-05-27T05:34:27Z</time>
      </trkpt>
      <trkpt lat="43.5084" lon="1.51916">
        <ele>174.8</ele>
        <time>2023-05-27T05:34:28Z</time>
      </trkpt>
      <trkpt lat="43.50837" lon="1.51921">
        <ele>174.6</ele>
        <time>2023-05-27T05:34:29Z</time>
      </trkpt>
      <trkpt lat="43.50834" lon="1.51926">
        <ele>174.6</ele>
        <time>2023-05-27T05:34:30Z</time>
      </trkpt>
      <trkpt lat="43.50831" lon="1.5193">
        <ele>174.6</ele>
        <time>2023-05-27T05:34:31Z</time>
      </trkpt>
      <trkpt lat="43.50827" lon="1.51933">
        <ele>174.4</ele>
        <time>2023-05-27T05:34:32Z</time>
      </trkpt>
      <trkpt lat="43.50824" lon="1.51937">
        <ele>174.4</ele>
        <time>2023-05-27T05:34:33Z</time>
      </trkpt>
      <trkpt lat="43.50821" lon="1.51942">
        <ele>174.4</ele>
        <time>2023-05-27T05:34:34Z</time>
      </trkpt>
      <trkpt lat="43.50816" lon="1.51946">
        <ele>174.2</ele>
        <time>2023-05-27T05:34:35Z</time>
      </trkpt>
      <trkpt lat="43.50811" lon="1.51952">
        <ele>174.2</ele>
        <time>2023-05-27T05:34:36Z</time>
      </trkpt>
      <trkpt lat="43.50807" lon="1.51957">
        <ele>174.2</ele>
        <time>2023-05-27T05:34:37Z</time>
      </trkpt>
      <trkpt lat="43.50803" lon="1.51961">
        <ele>174</ele>
        <time>2023-05-27T05:34:38Z</time>
      </trkpt>
      <trkpt lat="43.50799" lon="1.51966">
        <ele>174</ele>
        <time>2023-05-27T05:34:39Z</time>
      </trkpt>
      <trkpt lat="43.50795" lon="1.5197">
        <ele>174</ele>
        <time>2023-05-27T05:34:40Z</time>
      </trkpt>
      <trkpt lat="43.50791" lon="1.51973">
        <ele>174</ele>
        <time>2023-05-27T05:34:41Z</time>
      </trkpt>
      <trkpt lat="43.50786" lon="1.51977">
        <ele>174</ele>
        <time>2023-05-27T05:34:42Z</time>
      </trkpt>
      <trkpt lat="43.50782" lon="1.51981">
        <ele>174</ele>
        <time>2023-05-27T05:34:43Z</time>
      </trkpt>
      <trkpt lat="43.50776" lon="1.51987">
        <ele>174</ele>
        <time>2023-05-27T05:34:44Z</time>
      </trkpt>
      <trkpt lat="43.50773" lon="1.51993">
        <ele>174</ele>
        <time>2023-05-27T05:34:45Z</time>
      </trkpt>
      <trkpt lat="43.5077" lon="1.51998">
        <ele>174</ele>
        <time>2023-05-27T05:34:46Z</time>
      </trkpt>
      <trkpt lat="43.50766" lon="1.52003">
        <ele>174</ele>
        <time>2023-05-27T05:34:47Z</time>
      </trkpt>
      <trkpt lat="43.50762" lon="1.52008">
        <ele>174</ele>
        <time>2023-05-27T05:34:48Z</time>
      </trkpt>
      <trkpt lat="43.50758" lon="1.52011">
        <ele>174</ele>
        <time>2023-05-27T05:34:49Z</time>
      </trkpt>
      <trkpt lat="43.50753" lon="1.52017">
        <ele>174</ele>
        <time>2023-05-27T05:34:50Z</time>
      </trkpt>
      <trkpt lat="43.50749" lon="1.52021">
        <ele>174</ele>
        <time>2023-05-27T05:34:51Z</time>
      </trkpt>
      <trkpt lat="43.50745" lon="1.52025">
        <ele>174</ele>
        <time>2023-05-27T05:34:52Z</time>
      </trkpt>
      <trkpt lat="43.50741" lon="1.52027">
        <ele>174</ele>
        <time>2023-05-27T05:34:53Z</time>
      </trkpt>
      <trkpt lat="43.50737" lon="1.5203">
        <ele>174.2</ele>
        <time>2023-05-27T05:34:54Z</time>
      </trkpt>
      <trkpt lat="43.50733" lon="1.52034">
        <ele>174.2</ele>
        <time>2023-05-27T05:34:55Z</time>
      </trkpt>
      <trkpt lat="43.50729" lon="1.52038">
        <ele>174</ele>
        <time>2023-05-27T05:34:56Z</time>
      </trkpt>
      <trkpt lat="43.50724" lon="1.52041">
        <ele>174.2</ele>
        <time>2023-05-27T05:34:57Z</time>
      </trkpt>
      <trkpt lat="43.5072" lon="1.52043">
        <ele>174</ele>
        <time>2023-05-27T05:34:58Z</time>
      </trkpt>
      <trkpt lat="43.50716" lon="1.52046">
        <ele>174</ele>
        <time>2023-05-27T05:34:59Z</time>
      </trkpt>
      <trkpt lat="43.5071" lon="1.5205">
        <ele>174</ele>
        <time>2023-05-27T05:35:00Z</time>
      </trkpt>
      <trkpt lat="43.50707" lon="1.52053">
        <ele>174</ele>
        <time>2023-05-27T05:35:01Z</time>
      </trkpt>
      <trkpt lat="43.50703" lon="1.52056">
        <ele>174</ele>
        <time>2023-05-27T05:35:02Z</time>
      </trkpt>
      <trkpt lat="43.50698" lon="1.52058">
        <ele>174</ele>
        <time>2023-05-27T05:35:03Z</time>
      </trkpt>
      <trkpt lat="43.50693" lon="1.5206">
        <ele>173.8</ele>
        <time>2023-05-27T05:35:04Z</time>
      </trkpt>
      <trkpt lat="43.50689" lon="1.52062">
        <ele>173.8</ele>
        <time>2023-05-27T05:35:05Z</time>
      </trkpt>
      <trkpt lat="43.50684" lon="1.52063">
        <ele>173.8</ele>
        <time>2023-05-27T05:35:06Z</time>
      </trkpt>
      <trkpt lat="43.5068" lon="1.52064">
        <ele>173.8</ele>
        <time>2023-05-27T05:35:07Z</time>
      </trkpt>
      <trkpt lat="43.50675" lon="1.52065">
        <ele>173.8</ele>
        <time>2023-05-27T05:35:08Z</time>
      </trkpt>
      <trkpt lat="43.5067" lon="1.52066">
        <ele>173.8</ele>
        <time>2023-05-27T05:35:09Z</time>
      </trkpt>
      <trkpt lat="43.50666" lon="1.52067">
        <ele>173.8</ele>
        <time>2023-05-27T05:35:10Z</time>
      </trkpt>
      <trkpt lat="43.50661" lon="1.52068">
        <ele>174</ele>
        <time>2023-05-27T05:35:11Z</time>
      </trkpt>
      <trkpt lat="43.50656" lon="1.52068">
        <ele>174</ele>
        <time>2023-05-27T05:35:12Z</time>
      </trkpt>
      <trkpt lat="43.50653" lon="1.52069">
        <ele>174</ele>
        <time>2023-05-27T05:35:13Z</time>
      </trkpt>
      <trkpt lat="43.50649" lon="1.52069">
        <ele>173.8</ele>
        <time>2023-05-27T05:35:14Z</time>
      </trkpt>
      <trkpt lat="43.50645" lon="1.5207">
        <ele>174</ele>
        <time>2023-05-27T05:35:15Z</time>
      </trkpt>
      <trkpt lat="43.5064" lon="1.52072">
        <ele>173.8</ele>
        <time>2023-05-27T05:35:16Z</time>
      </trkpt>
      <trkpt lat="43.50635" lon="1.52072">
        <ele>173.8</ele>
        <time>2023-05-27T05:35:17Z</time>
      </trkpt>
      <trkpt lat="43.50631" lon="1.52072">
        <ele>173.8</ele>
        <time>2023-05-27T05:35:18Z</time>
      </trkpt>
      <trkpt lat="43.50626" lon="1.52073">
        <ele>173.8</ele>
        <time>2023-05-27T05:35:19Z</time>
      </trkpt>
      <trkpt lat="43.5062" lon="1.52073">
        <ele>173.8</ele>
        <time>2023-05-27T05:35:20Z</time>
      </trkpt>
      <trkpt lat="43.50616" lon="1.52074">
        <ele>173.8</ele>
        <time>2023-05-27T05:35:21Z</time>
      </trkpt>
      <trkpt lat="43.50612" lon="1.52074">
        <ele>173.8</ele>
        <time>2023-05-27T05:35:22Z</time>
      </trkpt>
      <trkpt lat="43.50608" lon="1.52074">
        <ele>173.8</ele>
        <time>2023-05-27T05:35:23Z</time>
      </trkpt>
      <trkpt lat="43.50602" lon="1.52075">
        <ele>173.8</ele>
        <time>2023-05-27T05:35:24Z</time>
      </trkpt>
      <trkpt lat="43.50597" lon="1.52076">
        <ele>173.8</ele>
        <time>2023-05-27T05:35:25Z</time>
      </trkpt>
      <trkpt lat="43.50593" lon="1.52077">
        <ele>173.8</ele>
        <time>2023-05-27T05:35:26Z</time>
      </trkpt>
      <trkpt lat="43.50589" lon="1.52077">
        <ele>173.8</ele>
        <time>2023-05-27T05:35:27Z</time>
      </trkpt>
      <trkpt lat="43.50584" lon="1.52078">
        <ele>173.8</ele>
        <time>2023-05-27T05:35:28Z</time>
      </trkpt>
      <trkpt lat="43.50579" lon="1.52079">
        <ele>173.8</ele>
        <time>2023-05-27T05:35:29Z</time>
      </trkpt>
      <trkpt lat="43.50575" lon="1.5208">
        <ele>173.8</ele>
        <time>2023-05-27T05:35:30Z</time>
      </trkpt>
      <trkpt lat="43.5057" lon="1.52081">
        <ele>173.8</ele>
        <time>2023-05-27T05:35:31Z</time>
      </trkpt>
      <trkpt lat="43.50567" lon="1.52081">
        <ele>173.8</ele>
        <time>2023-05-27T05:35:32Z</time>
      </trkpt>
      <trkpt lat="43.50562" lon="1.52082">
        <ele>173.8</ele>
        <time>2023-05-27T05:35:33Z</time>
      </trkpt>
      <trkpt lat="43.50557" lon="1.52082">
        <ele>173.8</ele>
        <time>2023-05-27T05:35:34Z</time>
      </trkpt>
      <trkpt lat="43.50552" lon="1.52084">
        <ele>173.8</ele>
        <time>2023-05-27T05:35:35Z</time>
      </trkpt>
      <trkpt lat="43.50548" lon="1.52085">
        <ele>173.8</ele>
        <time>2023-05-27T05:35:36Z</time>
      </trkpt>
      <trkpt lat="43.50544" lon="1.52086">
        <ele>174</ele>
        <time>2023-05-27T05:35:37Z</time>
      </trkpt>
      <trkpt lat="43.50539" lon="1.52087">
        <ele>174</ele>
        <time>2023-05-27T05:35:38Z</time>
      </trkpt>
      <trkpt lat="43.50535" lon="1.52089">
        <ele>174</ele>
        <time>2023-05-27T05:35:39Z</time>
      </trkpt>
      <trkpt lat="43.5053" lon="1.52091">
        <ele>174</ele>
        <time>2023-05-27T05:35:40Z</time>
      </trkpt>
      <trkpt lat="43.50526" lon="1.52093">
        <ele>174</ele>
        <time>2023-05-27T05:35:41Z</time>
      </trkpt>
      <trkpt lat="43.50521" lon="1.52096">
        <ele>173.8</ele>
        <time>2023-05-27T05:35:42Z</time>
      </trkpt>
      <trkpt lat="43.50516" lon="1.52099">
        <ele>173.8</ele>
        <time>2023-05-27T05:35:43Z</time>
      </trkpt>
      <trkpt lat="43.50513" lon="1.52101">
        <ele>174</ele>
        <time>2023-05-27T05:35:44Z</time>
      </trkpt>
      <trkpt lat="43.50509" lon="1.52104">
        <ele>174</ele>
        <time>2023-05-27T05:35:45Z</time>
      </trkpt>
      <trkpt lat="43.50504" lon="1.52108">
        <ele>174</ele>
        <time>2023-05-27T05:35:46Z</time>
      </trkpt>
      <trkpt lat="43.50499" lon="1.52112">
        <ele>174</ele>
        <time>2023-05-27T05:35:47Z</time>
      </trkpt>
      <trkpt lat="43.50494" lon="1.52117">
        <ele>174</ele>
        <time>2023-05-27T05:35:48Z</time>
      </trkpt>
      <trkpt lat="43.50489" lon="1.52121">
        <ele>174</ele>
        <time>2023-05-27T05:35:49Z</time>
      </trkpt>
      <trkpt lat="43.50485" lon="1.52125">
        <ele>174</ele>
        <time>2023-05-27T05:35:50Z</time>
      </trkpt>
      <trkpt lat="43.5048" lon="1.52129">
        <ele>174.2</ele>
        <time>2023-05-27T05:35:51Z</time>
      </trkpt>
      <trkpt lat="43.50477" lon="1.52135">
        <ele>174.2</ele>
        <time>2023-05-27T05:35:52Z</time>
      </trkpt>
      <trkpt lat="43.50474" lon="1.5214">
        <ele>174.2</ele>
        <time>2023-05-27T05:35:53Z</time>
      </trkpt>
      <trkpt lat="43.5047" lon="1.52144">
        <ele>174.2</ele>
        <time>2023-05-27T05:35:54Z</time>
      </trkpt>
      <trkpt lat="43.50467" lon="1.52148">
        <ele>174.2</ele>
        <time>2023-05-27T05:35:55Z</time>
      </trkpt>
      <trkpt lat="43.50464" lon="1.52153">
        <ele>174.2</ele>
        <time>2023-05-27T05:35:56Z</time>
      </trkpt>
      <trkpt lat="43.5046" lon="1.52158">
        <ele>174</ele>
        <time>2023-05-27T05:35:57Z</time>
      </trkpt>
      <trkpt lat="43.50456" lon="1.52162">
        <ele>174</ele>
        <time>2023-05-27T05:35:58Z</time>
      </trkpt>
      <trkpt lat="43.50453" lon="1.52166">
        <ele>174</ele>
        <time>2023-05-27T05:35:59Z</time>
      </trkpt>
      <trkpt lat="43.50451" lon="1.5217">
        <ele>174.2</ele>
        <time>2023-05-27T05:36:00Z</time>
      </trkpt>
      <trkpt lat="43.50449" lon="1.52174">
        <ele>174.2</ele>
        <time>2023-05-27T05:36:01Z</time>
      </trkpt>
      <trkpt lat="43.50447" lon="1.52178">
        <ele>174.2</ele>
        <time>2023-05-27T05:36:02Z</time>
      </trkpt>
      <trkpt lat="43.50445" lon="1.52183">
        <ele>174.2</ele>
        <time>2023-05-27T05:36:03Z</time>
      </trkpt>
      <trkpt lat="43.50444" lon="1.52187">
        <ele>174.2</ele>
        <time>2023-05-27T05:36:04Z</time>
      </trkpt>
      <trkpt lat="43.50442" lon="1.52193">
        <ele>174.2</ele>
        <time>2023-05-27T05:36:05Z</time>
      </trkpt>
      <trkpt lat="43.5044" lon="1.52197">
        <ele>174.4</ele>
        <time>2023-05-27T05:36:06Z</time>
      </trkpt>
      <trkpt lat="43.50439" lon="1.52202">
        <ele>174.4</ele>
        <time>2023-05-27T05:36:07Z</time>
      </trkpt>
      <trkpt lat="43.50438" lon="1.52207">
        <ele>174.4</ele>
        <time>2023-05-27T05:36:08Z</time>
      </trkpt>
      <trkpt lat="43.50437" lon="1.52212">
        <ele>174.4</ele>
        <time>2023-05-27T05:36:09Z</time>
      </trkpt>
      <trkpt lat="43.50436" lon="1.52219">
        <ele>174.4</ele>
        <time>2023-05-27T05:36:10Z</time>
      </trkpt>
      <trkpt lat="43.50434" lon="1.52225">
        <ele>174.4</ele>
        <time>2023-05-27T05:36:11Z</time>
      </trkpt>
      <trkpt lat="43.50433" lon="1.52231">
        <ele>174.2</ele>
        <time>2023-05-27T05:36:12Z</time>
      </trkpt>
      <trkpt lat="43.50431" lon="1.52236">
        <ele>174.2</ele>
        <time>2023-05-27T05:36:13Z</time>
      </trkpt>
      <trkpt lat="43.50431" lon="1.52244">
        <ele>174.2</ele>
        <time>2023-05-27T05:36:14Z</time>
      </trkpt>
      <trkpt lat="43.5043" lon="1.5225">
        <ele>174.2</ele>
        <time>2023-05-27T05:36:15Z</time>
      </trkpt>
      <trkpt lat="43.5043" lon="1.52256">
        <ele>174.2</ele>
        <time>2023-05-27T05:36:16Z</time>
      </trkpt>
      <trkpt lat="43.5043" lon="1.52262">
        <ele>174</ele>
        <time>2023-05-27T05:36:17Z</time>
      </trkpt>
      <trkpt lat="43.5043" lon="1.52268">
        <ele>174</ele>
        <time>2023-05-27T05:36:18Z</time>
      </trkpt>
      <trkpt lat="43.50431" lon="1.52275">
        <ele>174</ele>
        <time>2023-05-27T05:36:19Z</time>
      </trkpt>
      <trkpt lat="43.50431" lon="1.52282">
        <ele>174</ele>
        <time>2023-05-27T05:36:20Z</time>
      </trkpt>
      <trkpt lat="43.50431" lon="1.52288">
        <ele>174</ele>
        <time>2023-05-27T05:36:21Z</time>
      </trkpt>
      <trkpt lat="43.50432" lon="1.52293">
        <ele>174</ele>
        <time>2023-05-27T05:36:22Z</time>
      </trkpt>
      <trkpt lat="43.50431" lon="1.52299">
        <ele>174</ele>
        <time>2023-05-27T05:36:23Z</time>
      </trkpt>
      <trkpt lat="43.5043" lon="1.52305">
        <ele>174</ele>
        <time>2023-05-27T05:36:24Z</time>
      </trkpt>
      <trkpt lat="43.50428" lon="1.52311">
        <ele>174</ele>
        <time>2023-05-27T05:36:25Z</time>
      </trkpt>
      <trkpt lat="43.50426" lon="1.52318">
        <ele>174</ele>
        <time>2023-05-27T05:36:26Z</time>
      </trkpt>
      <trkpt lat="43.50425" lon="1.52325">
        <ele>174</ele>
        <time>2023-05-27T05:36:27Z</time>
      </trkpt>
      <trkpt lat="43.50424" lon="1.52333">
        <ele>174</ele>
        <time>2023-05-27T05:36:28Z</time>
      </trkpt>
      <trkpt lat="43.50424" lon="1.52337">
        <ele>174</ele>
        <time>2023-05-27T05:36:29Z</time>
      </trkpt>
      <trkpt lat="43.50423" lon="1.52343">
        <ele>174</ele>
        <time>2023-05-27T05:36:30Z</time>
      </trkpt>
      <trkpt lat="43.50423" lon="1.5235">
        <ele>174</ele>
        <time>2023-05-27T05:36:31Z</time>
      </trkpt>
      <trkpt lat="43.50422" lon="1.52357">
        <ele>174</ele>
        <time>2023-05-27T05:36:32Z</time>
      </trkpt>
      <trkpt lat="43.50423" lon="1.52362">
        <ele>174</ele>
        <time>2023-05-27T05:36:33Z</time>
      </trkpt>
      <trkpt lat="43.50423" lon="1.52368">
        <ele>174</ele>
        <time>2023-05-27T05:36:34Z</time>
      </trkpt>
      <trkpt lat="43.50423" lon="1.52373">
        <ele>174</ele>
        <time>2023-05-27T05:36:35Z</time>
      </trkpt>
      <trkpt lat="43.50424" lon="1.52379">
        <ele>174</ele>
        <time>2023-05-27T05:36:36Z</time>
      </trkpt>
      <trkpt lat="43.50424" lon="1.52383">
        <ele>174</ele>
        <time>2023-05-27T05:36:37Z</time>
      </trkpt>
      <trkpt lat="43.50424" lon="1.52389">
        <ele>174</ele>
        <time>2023-05-27T05:36:38Z</time>
      </trkpt>
      <trkpt lat="43.50425" lon="1.52393">
        <ele>174</ele>
        <time>2023-05-27T05:36:39Z</time>
      </trkpt>
      <trkpt lat="43.50425" lon="1.52398">
        <ele>174</ele>
        <time>2023-05-27T05:36:40Z</time>
      </trkpt>
      <trkpt lat="43.50425" lon="1.52403">
        <ele>174</ele>
        <time>2023-05-27T05:36:41Z</time>
      </trkpt>
      <trkpt lat="43.50424" lon="1.52409">
        <ele>174</ele>
        <time>2023-05-27T05:36:42Z</time>
      </trkpt>
      <trkpt lat="43.50423" lon="1.52413">
        <ele>174</ele>
        <time>2023-05-27T05:36:43Z</time>
      </trkpt>
      <trkpt lat="43.50423" lon="1.52417">
        <ele>174</ele>
        <time>2023-05-27T05:36:44Z</time>
      </trkpt>
      <trkpt lat="43.50422" lon="1.52421">
        <ele>174</ele>
        <time>2023-05-27T05:36:45Z</time>
      </trkpt>
      <trkpt lat="43.50422" lon="1.52425">
        <ele>174.2</ele>
        <time>2023-05-27T05:36:46Z</time>
      </trkpt>
      <trkpt lat="43.50421" lon="1.52429">
        <ele>174.2</ele>
        <time>2023-05-27T05:36:47Z</time>
      </trkpt>
      <trkpt lat="43.5042" lon="1.52434">
        <ele>174.2</ele>
        <time>2023-05-27T05:36:48Z</time>
      </trkpt>
      <trkpt lat="43.50419" lon="1.52437">
        <ele>174.2</ele>
        <time>2023-05-27T05:36:49Z</time>
      </trkpt>
      <trkpt lat="43.50419" lon="1.52441">
        <ele>174.2</ele>
        <time>2023-05-27T05:36:50Z</time>
      </trkpt>
      <trkpt lat="43.50418" lon="1.52445">
        <ele>174.2</ele>
        <time>2023-05-27T05:36:51Z</time>
      </trkpt>
      <trkpt lat="43.50417" lon="1.5245">
        <ele>174.2</ele>
        <time>2023-05-27T05:36:52Z</time>
      </trkpt>
      <trkpt lat="43.50416" lon="1.52456">
        <ele>174.2</ele>
        <time>2023-05-27T05:36:53Z</time>
      </trkpt>
      <trkpt lat="43.50414" lon="1.52462">
        <ele>174.2</ele>
        <time>2023-05-27T05:36:54Z</time>
      </trkpt>
      <trkpt lat="43.50412" lon="1.52466">
        <ele>174.2</ele>
        <time>2023-05-27T05:36:55Z</time>
      </trkpt>
      <trkpt lat="43.50411" lon="1.52472">
        <ele>174.2</ele>
        <time>2023-05-27T05:36:56Z</time>
      </trkpt>
      <trkpt lat="43.5041" lon="1.52476">
        <ele>174.2</ele>
        <time>2023-05-27T05:36:57Z</time>
      </trkpt>
      <trkpt lat="43.50409" lon="1.5248">
        <ele>174.2</ele>
        <time>2023-05-27T05:36:58Z</time>
      </trkpt>
      <trkpt lat="43.50408" lon="1.52488">
        <ele>174.2</ele>
        <time>2023-05-27T05:36:59Z</time>
      </trkpt>
      <trkpt lat="43.50406" lon="1.52495">
        <ele>174.2</ele>
        <time>2023-05-27T05:37:00Z</time>
      </trkpt>
      <trkpt lat="43.50404" lon="1.525">
        <ele>174.2</ele>
        <time>2023-05-27T05:37:01Z</time>
      </trkpt>
      <trkpt lat="43.50403" lon="1.52505">
        <ele>174.2</ele>
        <time>2023-05-27T05:37:02Z</time>
      </trkpt>
      <trkpt lat="43.50403" lon="1.52513">
        <ele>174.2</ele>
        <time>2023-05-27T05:37:03Z</time>
      </trkpt>
      <trkpt lat="43.50403" lon="1.52519">
        <ele>174.2</ele>
        <time>2023-05-27T05:37:04Z</time>
      </trkpt>
      <trkpt lat="43.50401" lon="1.52526">
        <ele>174.2</ele>
        <time>2023-05-27T05:37:05Z</time>
      </trkpt>
      <trkpt lat="43.50399" lon="1.52532">
        <ele>174.2</ele>
        <time>2023-05-27T05:37:06Z</time>
      </trkpt>
      <trkpt lat="43.50395" lon="1.52542">
        <ele>174.2</ele>
        <time>2023-05-27T05:37:07Z</time>
      </trkpt>
      <trkpt lat="43.50392" lon="1.5255">
        <ele>174.2</ele>
        <time>2023-05-27T05:37:08Z</time>
      </trkpt>
      <trkpt lat="43.50391" lon="1.52556">
        <ele>174.2</ele>
        <time>2023-05-27T05:37:09Z</time>
      </trkpt>
      <trkpt lat="43.5039" lon="1.52562">
        <ele>174.2</ele>
        <time>2023-05-27T05:37:10Z</time>
      </trkpt>
      <trkpt lat="43.50388" lon="1.5257">
        <ele>174.2</ele>
        <time>2023-05-27T05:37:11Z</time>
      </trkpt>
      <trkpt lat="43.50386" lon="1.52576">
        <ele>174.2</ele>
        <time>2023-05-27T05:37:12Z</time>
      </trkpt>
      <trkpt lat="43.50386" lon="1.52584">
        <ele>174.2</ele>
        <time>2023-05-27T05:37:13Z</time>
      </trkpt>
      <trkpt lat="43.50386" lon="1.52592">
        <ele>174.2</ele>
        <time>2023-05-27T05:37:14Z</time>
      </trkpt>
      <trkpt lat="43.50386" lon="1.52597">
        <ele>174.4</ele>
        <time>2023-05-27T05:37:15Z</time>
      </trkpt>
      <trkpt lat="43.50385" lon="1.52604">
        <ele>174.4</ele>
        <time>2023-05-27T05:37:16Z</time>
      </trkpt>
      <trkpt lat="43.50384" lon="1.52609">
        <ele>174.4</ele>
        <time>2023-05-27T05:37:17Z</time>
      </trkpt>
      <trkpt lat="43.50382" lon="1.52615">
        <ele>174.4</ele>
        <time>2023-05-27T05:37:18Z</time>
      </trkpt>
      <trkpt lat="43.50379" lon="1.52622">
        <ele>174.6</ele>
        <time>2023-05-27T05:37:19Z</time>
      </trkpt>
      <trkpt lat="43.50378" lon="1.52629">
        <ele>174.6</ele>
        <time>2023-05-27T05:37:20Z</time>
      </trkpt>
      <trkpt lat="43.50377" lon="1.52633">
        <ele>174.6</ele>
        <time>2023-05-27T05:37:21Z</time>
      </trkpt>
      <trkpt lat="43.50374" lon="1.52639">
        <ele>174.6</ele>
        <time>2023-05-27T05:37:22Z</time>
      </trkpt>
      <trkpt lat="43.5037" lon="1.5265">
        <ele>174.6</ele>
        <time>2023-05-27T05:37:23Z</time>
      </trkpt>
      <trkpt lat="43.50367" lon="1.52656">
        <ele>174.6</ele>
        <time>2023-05-27T05:37:24Z</time>
      </trkpt>
      <trkpt lat="43.50366" lon="1.52663">
        <ele>174.6</ele>
        <time>2023-05-27T05:37:25Z</time>
      </trkpt>
      <trkpt lat="43.50366" lon="1.52671">
        <ele>174.6</ele>
        <time>2023-05-27T05:37:26Z</time>
      </trkpt>
      <trkpt lat="43.50366" lon="1.52676">
        <ele>174.6</ele>
        <time>2023-05-27T05:37:27Z</time>
      </trkpt>
      <trkpt lat="43.50366" lon="1.52681">
        <ele>174.6</ele>
        <time>2023-05-27T05:37:28Z</time>
      </trkpt>
      <trkpt lat="43.50365" lon="1.52685">
        <ele>174.6</ele>
        <time>2023-05-27T05:37:29Z</time>
      </trkpt>
      <trkpt lat="43.50363" lon="1.52689">
        <ele>174.6</ele>
        <time>2023-05-27T05:37:30Z</time>
      </trkpt>
      <trkpt lat="43.50361" lon="1.52694">
        <ele>174.6</ele>
        <time>2023-05-27T05:37:31Z</time>
      </trkpt>
      <trkpt lat="43.50357" lon="1.52701">
        <ele>174.4</ele>
        <time>2023-05-27T05:37:32Z</time>
      </trkpt>
      <trkpt lat="43.50355" lon="1.52703">
        <ele>174.4</ele>
        <time>2023-05-27T05:37:33Z</time>
      </trkpt>
      <trkpt lat="43.50353" lon="1.52707">
        <ele>174.4</ele>
        <time>2023-05-27T05:37:34Z</time>
      </trkpt>
      <trkpt lat="43.50352" lon="1.5271">
        <ele>174.4</ele>
        <time>2023-05-27T05:37:35Z</time>
      </trkpt>
      <trkpt lat="43.50351" lon="1.52713">
        <ele>174.4</ele>
        <time>2023-05-27T05:37:36Z</time>
      </trkpt>
      <trkpt lat="43.50348" lon="1.52717">
        <ele>174.4</ele>
        <time>2023-05-27T05:37:37Z</time>
      </trkpt>
      <trkpt lat="43.50345" lon="1.52721">
        <ele>174.4</ele>
        <time>2023-05-27T05:37:38Z</time>
      </trkpt>
      <trkpt lat="43.50341" lon="1.52724">
        <ele>174.4</ele>
        <time>2023-05-27T05:37:39Z</time>
      </trkpt>
      <trkpt lat="43.50338" lon="1.52728">
        <ele>174.4</ele>
        <time>2023-05-27T05:37:40Z</time>
      </trkpt>
      <trkpt lat="43.50334" lon="1.52731">
        <ele>174.4</ele>
        <time>2023-05-27T05:37:41Z</time>
      </trkpt>
      <trkpt lat="43.5033" lon="1.52735">
        <ele>174.4</ele>
        <time>2023-05-27T05:37:42Z</time>
      </trkpt>
      <trkpt lat="43.50327" lon="1.52739">
        <ele>174.4</ele>
        <time>2023-05-27T05:37:43Z</time>
      </trkpt>
      <trkpt lat="43.50323" lon="1.52743">
        <ele>174.4</ele>
        <time>2023-05-27T05:37:44Z</time>
      </trkpt>
      <trkpt lat="43.50319" lon="1.52747">
        <ele>174.4</ele>
        <time>2023-05-27T05:37:45Z</time>
      </trkpt>
      <trkpt lat="43.50317" lon="1.52753">
        <ele>174.4</ele>
        <time>2023-05-27T05:37:46Z</time>
      </trkpt>
      <trkpt lat="43.50314" lon="1.52758">
        <ele>174.4</ele>
        <time>2023-05-27T05:37:47Z</time>
      </trkpt>
      <trkpt lat="43.5031" lon="1.52764">
        <ele>174.4</ele>
        <time>2023-05-27T05:37:48Z</time>
      </trkpt>
      <trkpt lat="43.50308" lon="1.52769">
        <ele>174.4</ele>
        <time>2023-05-27T05:37:49Z</time>
      </trkpt>
      <trkpt lat="43.50305" lon="1.52772">
        <ele>174.4</ele>
        <time>2023-05-27T05:37:50Z</time>
      </trkpt>
      <trkpt lat="43.50302" lon="1.52775">
        <ele>174.4</ele>
        <time>2023-05-27T05:37:51Z</time>
      </trkpt>
      <trkpt lat="43.50299" lon="1.52778">
        <ele>174.4</ele>
        <time>2023-05-27T05:37:52Z</time>
      </trkpt>
      <trkpt lat="43.50294" lon="1.52783">
        <ele>174.4</ele>
        <time>2023-05-27T05:37:53Z</time>
      </trkpt>
      <trkpt lat="43.5029" lon="1.52787">
        <ele>174.4</ele>
        <time>2023-05-27T05:37:54Z</time>
      </trkpt>
      <trkpt lat="43.50285" lon="1.52792">
        <ele>174.4</ele>
        <time>2023-05-27T05:37:55Z</time>
      </trkpt>
      <trkpt lat="43.50282" lon="1.52795">
        <ele>174.4</ele>
        <time>2023-05-27T05:37:56Z</time>
      </trkpt>
      <trkpt lat="43.50279" lon="1.52798">
        <ele>174.4</ele>
        <time>2023-05-27T05:37:57Z</time>
      </trkpt>
      <trkpt lat="43.50275" lon="1.528">
        <ele>174.4</ele>
        <time>2023-05-27T05:37:58Z</time>
      </trkpt>
      <trkpt lat="43.50271" lon="1.52805">
        <ele>174.4</ele>
        <time>2023-05-27T05:37:59Z</time>
      </trkpt>
      <trkpt lat="43.50267" lon="1.52807">
        <ele>174.4</ele>
        <time>2023-05-27T05:38:00Z</time>
      </trkpt>
      <trkpt lat="43.50263" lon="1.5281">
        <ele>174.4</ele>
        <time>2023-05-27T05:38:01Z</time>
      </trkpt>
      <trkpt lat="43.50259" lon="1.52814">
        <ele>174.4</ele>
        <time>2023-05-27T05:38:02Z</time>
      </trkpt>
      <trkpt lat="43.50254" lon="1.52819">
        <ele>174.4</ele>
        <time>2023-05-27T05:38:03Z</time>
      </trkpt>
      <trkpt lat="43.50249" lon="1.52823">
        <ele>174.4</ele>
        <time>2023-05-27T05:38:04Z</time>
      </trkpt>
      <trkpt lat="43.50244" lon="1.52831">
        <ele>174.4</ele>
        <time>2023-05-27T05:38:05Z</time>
      </trkpt>
      <trkpt lat="43.50241" lon="1.52834">
        <ele>174.4</ele>
        <time>2023-05-27T05:38:06Z</time>
      </trkpt>
      <trkpt lat="43.50238" lon="1.52837">
        <ele>174.4</ele>
        <time>2023-05-27T05:38:07Z</time>
      </trkpt>
      <trkpt lat="43.50234" lon="1.5284">
        <ele>174.4</ele>
        <time>2023-05-27T05:38:08Z</time>
      </trkpt>
      <trkpt lat="43.5023" lon="1.52842">
        <ele>174.4</ele>
        <time>2023-05-27T05:38:09Z</time>
      </trkpt>
      <trkpt lat="43.50227" lon="1.52844">
        <ele>174.4</ele>
        <time>2023-05-27T05:38:10Z</time>
      </trkpt>
      <trkpt lat="43.50223" lon="1.52847">
        <ele>174.4</ele>
        <time>2023-05-27T05:38:11Z</time>
      </trkpt>
      <trkpt lat="43.50219" lon="1.5285">
        <ele>174.4</ele>
        <time>2023-05-27T05:38:12Z</time>
      </trkpt>
      <trkpt lat="43.50215" lon="1.52855">
        <ele>174.4</ele>
        <time>2023-05-27T05:38:13Z</time>
      </trkpt>
      <trkpt lat="43.50211" lon="1.52859">
        <ele>174.4</ele>
        <time>2023-05-27T05:38:14Z</time>
      </trkpt>
      <trkpt lat="43.50206" lon="1.52865">
        <ele>174.6</ele>
        <time>2023-05-27T05:38:15Z</time>
      </trkpt>
      <trkpt lat="43.502" lon="1.52871">
        <ele>174.6</ele>
        <time>2023-05-27T05:38:16Z</time>
      </trkpt>
      <trkpt lat="43.50197" lon="1.52873">
        <ele>174.6</ele>
        <time>2023-05-27T05:38:17Z</time>
      </trkpt>
      <trkpt lat="43.50193" lon="1.52875">
        <ele>174.6</ele>
        <time>2023-05-27T05:38:18Z</time>
      </trkpt>
      <trkpt lat="43.50191" lon="1.52878">
        <ele>174.6</ele>
        <time>2023-05-27T05:38:19Z</time>
      </trkpt>
      <trkpt lat="43.50188" lon="1.5288">
        <ele>174.8</ele>
        <time>2023-05-27T05:38:20Z</time>
      </trkpt>
      <trkpt lat="43.50185" lon="1.52882">
        <ele>174.8</ele>
        <time>2023-05-27T05:38:21Z</time>
      </trkpt>
      <trkpt lat="43.5018" lon="1.52883">
        <ele>174.8</ele>
        <time>2023-05-27T05:38:22Z</time>
      </trkpt>
      <trkpt lat="43.50175" lon="1.52885">
        <ele>174.8</ele>
        <time>2023-05-27T05:38:23Z</time>
      </trkpt>
      <trkpt lat="43.5017" lon="1.52892">
        <ele>174.8</ele>
        <time>2023-05-27T05:38:24Z</time>
      </trkpt>
      <trkpt lat="43.50166" lon="1.52895">
        <ele>174.8</ele>
        <time>2023-05-27T05:38:25Z</time>
      </trkpt>
      <trkpt lat="43.50163" lon="1.529">
        <ele>174.8</ele>
        <time>2023-05-27T05:38:26Z</time>
      </trkpt>
      <trkpt lat="43.50161" lon="1.52901">
        <ele>175</ele>
        <time>2023-05-27T05:38:27Z</time>
      </trkpt>
      <trkpt lat="43.50158" lon="1.52901">
        <ele>175</ele>
        <time>2023-05-27T05:38:28Z</time>
      </trkpt>
      <trkpt lat="43.50154" lon="1.52903">
        <ele>174.8</ele>
        <time>2023-05-27T05:38:29Z</time>
      </trkpt>
      <trkpt lat="43.50151" lon="1.52906">
        <ele>174.8</ele>
        <time>2023-05-27T05:38:30Z</time>
      </trkpt>
      <trkpt lat="43.50148" lon="1.52909">
        <ele>174.8</ele>
        <time>2023-05-27T05:38:31Z</time>
      </trkpt>
      <trkpt lat="43.50145" lon="1.52913">
        <ele>174.8</ele>
        <time>2023-05-27T05:38:32Z</time>
      </trkpt>
      <trkpt lat="43.5014" lon="1.52916">
        <ele>174.6</ele>
        <time>2023-05-27T05:38:33Z</time>
      </trkpt>
      <trkpt lat="43.50135" lon="1.5292">
        <ele>174.6</ele>
        <time>2023-05-27T05:38:34Z</time>
      </trkpt>
      <trkpt lat="43.5013" lon="1.52923">
        <ele>174.6</ele>
        <time>2023-05-27T05:38:35Z</time>
      </trkpt>
      <trkpt lat="43.50125" lon="1.52926">
        <ele>174.6</ele>
        <time>2023-05-27T05:38:36Z</time>
      </trkpt>
      <trkpt lat="43.50121" lon="1.5293">
        <ele>174.4</ele>
        <time>2023-05-27T05:38:37Z</time>
      </trkpt>
      <trkpt lat="43.50117" lon="1.52934">
        <ele>174.4</ele>
        <time>2023-05-27T05:38:38Z</time>
      </trkpt>
      <trkpt lat="43.50112" lon="1.52938">
        <ele>174.4</ele>
        <time>2023-05-27T05:38:39Z</time>
      </trkpt>
      <trkpt lat="43.50108" lon="1.52945">
        <ele>174.2</ele>
        <time>2023-05-27T05:38:40Z</time>
      </trkpt>
      <trkpt lat="43.50102" lon="1.52949">
        <ele>174.2</ele>
        <time>2023-05-27T05:38:41Z</time>
      </trkpt>
      <trkpt lat="43.50098" lon="1.52953">
        <ele>174.2</ele>
        <time>2023-05-27T05:38:42Z</time>
      </trkpt>
      <trkpt lat="43.50094" lon="1.52957">
        <ele>174.2</ele>
        <time>2023-05-27T05:38:43Z</time>
      </trkpt>
      <trkpt lat="43.5009" lon="1.52962">
        <ele>174.2</ele>
        <time>2023-05-27T05:38:44Z</time>
      </trkpt>
      <trkpt lat="43.50086" lon="1.52967">
        <ele>174.2</ele>
        <time>2023-05-27T05:38:45Z</time>
      </trkpt>
      <trkpt lat="43.50083" lon="1.52972">
        <ele>174.2</ele>
        <time>2023-05-27T05:38:46Z</time>
      </trkpt>
      <trkpt lat="43.5008" lon="1.52977">
        <ele>174.2</ele>
        <time>2023-05-27T05:38:47Z</time>
      </trkpt>
      <trkpt lat="43.50077" lon="1.52982">
        <ele>174.2</ele>
        <time>2023-05-27T05:38:48Z</time>
      </trkpt>
      <trkpt lat="43.50075" lon="1.52985">
        <ele>174.2</ele>
        <time>2023-05-27T05:38:49Z</time>
      </trkpt>
      <trkpt lat="43.50071" lon="1.5299">
        <ele>174.2</ele>
        <time>2023-05-27T05:38:50Z</time>
      </trkpt>
      <trkpt lat="43.50068" lon="1.52994">
        <ele>174.2</ele>
        <time>2023-05-27T05:38:51Z</time>
      </trkpt>
      <trkpt lat="43.50065" lon="1.53">
        <ele>174.2</ele>
        <time>2023-05-27T05:38:52Z</time>
      </trkpt>
      <trkpt lat="43.5006" lon="1.53005">
        <ele>174.2</ele>
        <time>2023-05-27T05:38:53Z</time>
      </trkpt>
      <trkpt lat="43.50057" lon="1.5301">
        <ele>174.2</ele>
        <time>2023-05-27T05:38:54Z</time>
      </trkpt>
      <trkpt lat="43.50054" lon="1.53015">
        <ele>174.2</ele>
        <time>2023-05-27T05:38:55Z</time>
      </trkpt>
      <trkpt lat="43.50051" lon="1.53019">
        <ele>174.2</ele>
        <time>2023-05-27T05:38:56Z</time>
      </trkpt>
      <trkpt lat="43.50049" lon="1.53022">
        <ele>174.2</ele>
        <time>2023-05-27T05:38:57Z</time>
      </trkpt>
      <trkpt lat="43.50046" lon="1.53025">
        <ele>174.4</ele>
        <time>2023-05-27T05:38:58Z</time>
      </trkpt>
      <trkpt lat="43.50044" lon="1.53029">
        <ele>174.4</ele>
        <time>2023-05-27T05:38:59Z</time>
      </trkpt>
      <trkpt lat="43.50042" lon="1.53032">
        <ele>174.4</ele>
        <time>2023-05-27T05:39:00Z</time>
      </trkpt>
      <trkpt lat="43.50039" lon="1.53034">
        <ele>174.4</ele>
        <time>2023-05-27T05:39:01Z</time>
      </trkpt>
      <trkpt lat="43.50036" lon="1.53037">
        <ele>174.4</ele>
        <time>2023-05-27T05:39:02Z</time>
      </trkpt>
      <trkpt lat="43.50033" lon="1.5304">
        <ele>174.4</ele>
        <time>2023-05-27T05:39:03Z</time>
      </trkpt>
      <trkpt lat="43.50031" lon="1.53043">
        <ele>174.4</ele>
        <time>2023-05-27T05:39:04Z</time>
      </trkpt>
      <trkpt lat="43.50029" lon="1.53046">
        <ele>174.4</ele>
        <time>2023-05-27T05:39:05Z</time>
      </trkpt>
      <trkpt lat="43.50026" lon="1.5305">
        <ele>174.4</ele>
        <time>2023-05-27T05:39:06Z</time>
      </trkpt>
      <trkpt lat="43.50023" lon="1.53055">
        <ele>174.4</ele>
        <time>2023-05-27T05:39:07Z</time>
      </trkpt>
      <trkpt lat="43.5002" lon="1.53059">
        <ele>174.4</ele>
        <time>2023-05-27T05:39:08Z</time>
      </trkpt>
      <trkpt lat="43.50015" lon="1.53065">
        <ele>174.4</ele>
        <time>2023-05-27T05:39:09Z</time>
      </trkpt>
      <trkpt lat="43.5001" lon="1.53068">
        <ele>174.4</ele>
        <time>2023-05-27T05:39:10Z</time>
      </trkpt>
      <trkpt lat="43.50006" lon="1.53072">
        <ele>174.4</ele>
        <time>2023-05-27T05:39:11Z</time>
      </trkpt>
      <trkpt lat="43.50002" lon="1.53076">
        <ele>174.4</ele>
        <time>2023-05-27T05:39:12Z</time>
      </trkpt>
      <trkpt lat="43.49998" lon="1.5308">
        <ele>174.6</ele>
        <time>2023-05-27T05:39:13Z</time>
      </trkpt>
      <trkpt lat="43.49994" lon="1.53085">
        <ele>174.6</ele>
        <time>2023-05-27T05:39:14Z</time>
      </trkpt>
      <trkpt lat="43.4999" lon="1.53089">
        <ele>174.8</ele>
        <time>2023-05-27T05:39:15Z</time>
      </trkpt>
      <trkpt lat="43.49986" lon="1.53092">
        <ele>174.8</ele>
        <time>2023-05-27T05:39:16Z</time>
      </trkpt>
      <trkpt lat="43.49983" lon="1.53095">
        <ele>174.8</ele>
        <time>2023-05-27T05:39:17Z</time>
      </trkpt>
      <trkpt lat="43.4998" lon="1.53097">
        <ele>175</ele>
        <time>2023-05-27T05:39:18Z</time>
      </trkpt>
      <trkpt lat="43.49976" lon="1.531">
        <ele>175</ele>
        <time>2023-05-27T05:39:19Z</time>
      </trkpt>
      <trkpt lat="43.49973" lon="1.53104">
        <ele>175</ele>
        <time>2023-05-27T05:39:20Z</time>
      </trkpt>
      <trkpt lat="43.49969" lon="1.53107">
        <ele>175</ele>
        <time>2023-05-27T05:39:21Z</time>
      </trkpt>
      <trkpt lat="43.49965" lon="1.5311">
        <ele>175</ele>
        <time>2023-05-27T05:39:22Z</time>
      </trkpt>
      <trkpt lat="43.4996" lon="1.53113">
        <ele>175</ele>
        <time>2023-05-27T05:39:23Z</time>
      </trkpt>
      <trkpt lat="43.49957" lon="1.53115">
        <ele>175</ele>
        <time>2023-05-27T05:39:24Z</time>
      </trkpt>
      <trkpt lat="43.49952" lon="1.53119">
        <ele>175</ele>
        <time>2023-05-27T05:39:25Z</time>
      </trkpt>
      <trkpt lat="43.49948" lon="1.53123">
        <ele>175</ele>
        <time>2023-05-27T05:39:26Z</time>
      </trkpt>
      <trkpt lat="43.49944" lon="1.53126">
        <ele>175.2</ele>
        <time>2023-05-27T05:39:27Z</time>
      </trkpt>
      <trkpt lat="43.4994" lon="1.5313">
        <ele>175.2</ele>
        <time>2023-05-27T05:39:28Z</time>
      </trkpt>
      <trkpt lat="43.49938" lon="1.53134">
        <ele>175.2</ele>
        <time>2023-05-27T05:39:29Z</time>
      </trkpt>
      <trkpt lat="43.49936" lon="1.53137">
        <ele>175.2</ele>
        <time>2023-05-27T05:39:30Z</time>
      </trkpt>
      <trkpt lat="43.49934" lon="1.5314">
        <ele>175.2</ele>
        <time>2023-05-27T05:39:31Z</time>
      </trkpt>
      <trkpt lat="43.4993" lon="1.53144">
        <ele>175.2</ele>
        <time>2023-05-27T05:39:32Z</time>
      </trkpt>
      <trkpt lat="43.49928" lon="1.53147">
        <ele>175.2</ele>
        <time>2023-05-27T05:39:33Z</time>
      </trkpt>
      <trkpt lat="43.49925" lon="1.5315">
        <ele>175</ele>
        <time>2023-05-27T05:39:34Z</time>
      </trkpt>
      <trkpt lat="43.4992" lon="1.53154">
        <ele>175</ele>
        <time>2023-05-27T05:39:35Z</time>
      </trkpt>
      <trkpt lat="43.49915" lon="1.53159">
        <ele>174.8</ele>
        <time>2023-05-27T05:39:36Z</time>
      </trkpt>
      <trkpt lat="43.4991" lon="1.53162">
        <ele>174.8</ele>
        <time>2023-05-27T05:39:37Z</time>
      </trkpt>
      <trkpt lat="43.49905" lon="1.53165">
        <ele>174.8</ele>
        <time>2023-05-27T05:39:38Z</time>
      </trkpt>
      <trkpt lat="43.49902" lon="1.53168">
        <ele>174.6</ele>
        <time>2023-05-27T05:39:39Z</time>
      </trkpt>
      <trkpt lat="43.49898" lon="1.53173">
        <ele>174.4</ele>
        <time>2023-05-27T05:39:40Z</time>
      </trkpt>
      <trkpt lat="43.49892" lon="1.53177">
        <ele>174.4</ele>
        <time>2023-05-27T05:39:41Z</time>
      </trkpt>
      <trkpt lat="43.49885" lon="1.53182">
        <ele>174.4</ele>
        <time>2023-05-27T05:39:42Z</time>
      </trkpt>
      <trkpt lat="43.49878" lon="1.53188">
        <ele>174.2</ele>
        <time>2023-05-27T05:39:43Z</time>
      </trkpt>
      <trkpt lat="43.49872" lon="1.53194">
        <ele>174.2</ele>
        <time>2023-05-27T05:39:44Z</time>
      </trkpt>
      <trkpt lat="43.49869" lon="1.53199">
        <ele>174.2</ele>
        <time>2023-05-27T05:39:45Z</time>
      </trkpt>
      <trkpt lat="43.49865" lon="1.53202">
        <ele>174.2</ele>
        <time>2023-05-27T05:39:46Z</time>
      </trkpt>
      <trkpt lat="43.49862" lon="1.53205">
        <ele>174.2</ele>
        <time>2023-05-27T05:39:47Z</time>
      </trkpt>
      <trkpt lat="43.49858" lon="1.53207">
        <ele>174.2</ele>
        <time>2023-05-27T05:39:48Z</time>
      </trkpt>
      <trkpt lat="43.49856" lon="1.5321">
        <ele>174.2</ele>
        <time>2023-05-27T05:39:49Z</time>
      </trkpt>
      <trkpt lat="43.49854" lon="1.53212">
        <ele>174.2</ele>
        <time>2023-05-27T05:39:50Z</time>
      </trkpt>
      <trkpt lat="43.4985" lon="1.53216">
        <ele>174.2</ele>
        <time>2023-05-27T05:39:51Z</time>
      </trkpt>
      <trkpt lat="43.49846" lon="1.53222">
        <ele>174.2</ele>
        <time>2023-05-27T05:39:52Z</time>
      </trkpt>
      <trkpt lat="43.49843" lon="1.53225">
        <ele>174.4</ele>
        <time>2023-05-27T05:39:53Z</time>
      </trkpt>
      <trkpt lat="43.4984" lon="1.53229">
        <ele>174.4</ele>
        <time>2023-05-27T05:39:54Z</time>
      </trkpt>
      <trkpt lat="43.49837" lon="1.53234">
        <ele>174.4</ele>
        <time>2023-05-27T05:39:55Z</time>
      </trkpt>
      <trkpt lat="43.49834" lon="1.5324">
        <ele>174.4</ele>
        <time>2023-05-27T05:39:56Z</time>
      </trkpt>
      <trkpt lat="43.4983" lon="1.53243">
        <ele>174.4</ele>
        <time>2023-05-27T05:39:57Z</time>
      </trkpt>
      <trkpt lat="43.49826" lon="1.53246">
        <ele>174.4</ele>
        <time>2023-05-27T05:39:58Z</time>
      </trkpt>
      <trkpt lat="43.49822" lon="1.53251">
        <ele>174.4</ele>
        <time>2023-05-27T05:39:59Z</time>
      </trkpt>
      <trkpt lat="43.49818" lon="1.53255">
        <ele>174.4</ele>
        <time>2023-05-27T05:40:00Z</time>
      </trkpt>
      <trkpt lat="43.49814" lon="1.53259">
        <ele>174.6</ele>
        <time>2023-05-27T05:40:01Z</time>
      </trkpt>
      <trkpt lat="43.49811" lon="1.53262">
        <ele>174.6</ele>
        <time>2023-05-27T05:40:02Z</time>
      </trkpt>
      <trkpt lat="43.49809" lon="1.53265">
        <ele>174.6</ele>
        <time>2023-05-27T05:40:03Z</time>
      </trkpt>
      <trkpt lat="43.49806" lon="1.5327">
        <ele>174.6</ele>
        <time>2023-05-27T05:40:04Z</time>
      </trkpt>
      <trkpt lat="43.49803" lon="1.53276">
        <ele>174.8</ele>
        <time>2023-05-27T05:40:05Z</time>
      </trkpt>
      <trkpt lat="43.49799" lon="1.53282">
        <ele>174.8</ele>
        <time>2023-05-27T05:40:06Z</time>
      </trkpt>
      <trkpt lat="43.49796" lon="1.53287">
        <ele>174.8</ele>
        <time>2023-05-27T05:40:07Z</time>
      </trkpt>
      <trkpt lat="43.49793" lon="1.53292">
        <ele>174.8</ele>
        <time>2023-05-27T05:40:08Z</time>
      </trkpt>
      <trkpt lat="43.49791" lon="1.53297">
        <ele>174.6</ele>
        <time>2023-05-27T05:40:09Z</time>
      </trkpt>
      <trkpt lat="43.49788" lon="1.53302">
        <ele>174.6</ele>
        <time>2023-05-27T05:40:10Z</time>
      </trkpt>
      <trkpt lat="43.49785" lon="1.53307">
        <ele>174.6</ele>
        <time>2023-05-27T05:40:11Z</time>
      </trkpt>
      <trkpt lat="43.49782" lon="1.5331">
        <ele>174.6</ele>
        <time>2023-05-27T05:40:12Z</time>
      </trkpt>
      <trkpt lat="43.49777" lon="1.53313">
        <ele>174.6</ele>
        <time>2023-05-27T05:40:13Z</time>
      </trkpt>
      <trkpt lat="43.49773" lon="1.53319">
        <ele>174.8</ele>
        <time>2023-05-27T05:40:14Z</time>
      </trkpt>
      <trkpt lat="43.4977" lon="1.53324">
        <ele>174.8</ele>
        <time>2023-05-27T05:40:15Z</time>
      </trkpt>
      <trkpt lat="43.49767" lon="1.53328">
        <ele>174.8</ele>
        <time>2023-05-27T05:40:16Z</time>
      </trkpt>
      <trkpt lat="43.49764" lon="1.5333">
        <ele>174.8</ele>
        <time>2023-05-27T05:40:17Z</time>
      </trkpt>
      <trkpt lat="43.49761" lon="1.53334">
        <ele>175</ele>
        <time>2023-05-27T05:40:18Z</time>
      </trkpt>
      <trkpt lat="43.49758" lon="1.53338">
        <ele>175</ele>
        <time>2023-05-27T05:40:19Z</time>
      </trkpt>
      <trkpt lat="43.49757" lon="1.53342">
        <ele>175</ele>
        <time>2023-05-27T05:40:20Z</time>
      </trkpt>
      <trkpt lat="43.49756" lon="1.53346">
        <ele>175.2</ele>
        <time>2023-05-27T05:40:21Z</time>
      </trkpt>
      <trkpt lat="43.49755" lon="1.5335">
        <ele>175.2</ele>
        <time>2023-05-27T05:40:22Z</time>
      </trkpt>
      <trkpt lat="43.49752" lon="1.53356">
        <ele>175.2</ele>
        <time>2023-05-27T05:40:23Z</time>
      </trkpt>
      <trkpt lat="43.49749" lon="1.53362">
        <ele>175.2</ele>
        <time>2023-05-27T05:40:24Z</time>
      </trkpt>
      <trkpt lat="43.49746" lon="1.53369">
        <ele>175</ele>
        <time>2023-05-27T05:40:25Z</time>
      </trkpt>
      <trkpt lat="43.49743" lon="1.53376">
        <ele>175</ele>
        <time>2023-05-27T05:40:26Z</time>
      </trkpt>
      <trkpt lat="43.49741" lon="1.5338">
        <ele>175</ele>
        <time>2023-05-27T05:40:27Z</time>
      </trkpt>
      <trkpt lat="43.49738" lon="1.53385">
        <ele>175</ele>
        <time>2023-05-27T05:40:28Z</time>
      </trkpt>
      <trkpt lat="43.49736" lon="1.5339">
        <ele>175</ele>
        <time>2023-05-27T05:40:29Z</time>
      </trkpt>
      <trkpt lat="43.49731" lon="1.53396">
        <ele>175</ele>
        <time>2023-05-27T05:40:30Z</time>
      </trkpt>
      <trkpt lat="43.49728" lon="1.53403">
        <ele>175</ele>
        <time>2023-05-27T05:40:31Z</time>
      </trkpt>
      <trkpt lat="43.49725" lon="1.53409">
        <ele>175</ele>
        <time>2023-05-27T05:40:32Z</time>
      </trkpt>
      <trkpt lat="43.49724" lon="1.53413">
        <ele>175</ele>
        <time>2023-05-27T05:40:33Z</time>
      </trkpt>
      <trkpt lat="43.49722" lon="1.53418">
        <ele>175</ele>
        <time>2023-05-27T05:40:34Z</time>
      </trkpt>
      <trkpt lat="43.4972" lon="1.53423">
        <ele>175</ele>
        <time>2023-05-27T05:40:35Z</time>
      </trkpt>
      <trkpt lat="43.49717" lon="1.53428">
        <ele>175</ele>
        <time>2023-05-27T05:40:36Z</time>
      </trkpt>
      <trkpt lat="43.49714" lon="1.53434">
        <ele>175</ele>
        <time>2023-05-27T05:40:37Z</time>
      </trkpt>
      <trkpt lat="43.49709" lon="1.53439">
        <ele>175</ele>
        <time>2023-05-27T05:40:38Z</time>
      </trkpt>
      <trkpt lat="43.49705" lon="1.53443">
        <ele>175</ele>
        <time>2023-05-27T05:40:39Z</time>
      </trkpt>
      <trkpt lat="43.49701" lon="1.53446">
        <ele>175</ele>
        <time>2023-05-27T05:40:40Z</time>
      </trkpt>
      <trkpt lat="43.49697" lon="1.53452">
        <ele>175</ele>
        <time>2023-05-27T05:40:41Z</time>
      </trkpt>
      <trkpt lat="43.49695" lon="1.53458">
        <ele>175</ele>
        <time>2023-05-27T05:40:42Z</time>
      </trkpt>
      <trkpt lat="43.49691" lon="1.53462">
        <ele>175</ele>
        <time>2023-05-27T05:40:43Z</time>
      </trkpt>
      <trkpt lat="43.49688" lon="1.53466">
        <ele>175</ele>
        <time>2023-05-27T05:40:44Z</time>
      </trkpt>
      <trkpt lat="43.49685" lon="1.53472">
        <ele>175</ele>
        <time>2023-05-27T05:40:45Z</time>
      </trkpt>
      <trkpt lat="43.49682" lon="1.53478">
        <ele>174.8</ele>
        <time>2023-05-27T05:40:46Z</time>
      </trkpt>
      <trkpt lat="43.49678" lon="1.53484">
        <ele>174.8</ele>
        <time>2023-05-27T05:40:47Z</time>
      </trkpt>
      <trkpt lat="43.49675" lon="1.53488">
        <ele>174.8</ele>
        <time>2023-05-27T05:40:48Z</time>
      </trkpt>
      <trkpt lat="43.49671" lon="1.53493">
        <ele>174.8</ele>
        <time>2023-05-27T05:40:49Z</time>
      </trkpt>
      <trkpt lat="43.49667" lon="1.53499">
        <ele>174.8</ele>
        <time>2023-05-27T05:40:50Z</time>
      </trkpt>
      <trkpt lat="43.49665" lon="1.53504">
        <ele>174.8</ele>
        <time>2023-05-27T05:40:51Z</time>
      </trkpt>
      <trkpt lat="43.49663" lon="1.5351">
        <ele>174.8</ele>
        <time>2023-05-27T05:40:52Z</time>
      </trkpt>
      <trkpt lat="43.49661" lon="1.53513">
        <ele>174.8</ele>
        <time>2023-05-27T05:40:53Z</time>
      </trkpt>
      <trkpt lat="43.49658" lon="1.53518">
        <ele>174.8</ele>
        <time>2023-05-27T05:40:54Z</time>
      </trkpt>
      <trkpt lat="43.49655" lon="1.5352">
        <ele>174.8</ele>
        <time>2023-05-27T05:40:55Z</time>
      </trkpt>
      <trkpt lat="43.49653" lon="1.53524">
        <ele>174.8</ele>
        <time>2023-05-27T05:40:56Z</time>
      </trkpt>
      <trkpt lat="43.4965" lon="1.53527">
        <ele>174.8</ele>
        <time>2023-05-27T05:40:57Z</time>
      </trkpt>
      <trkpt lat="43.49646" lon="1.53531">
        <ele>174.8</ele>
        <time>2023-05-27T05:40:58Z</time>
      </trkpt>
      <trkpt lat="43.4964" lon="1.53539">
        <ele>175</ele>
        <time>2023-05-27T05:40:59Z</time>
      </trkpt>
      <trkpt lat="43.49635" lon="1.53544">
        <ele>175</ele>
        <time>2023-05-27T05:41:00Z</time>
      </trkpt>
      <trkpt lat="43.49631" lon="1.53547">
        <ele>175</ele>
        <time>2023-05-27T05:41:01Z</time>
      </trkpt>
      <trkpt lat="43.49627" lon="1.5355">
        <ele>175</ele>
        <time>2023-05-27T05:41:02Z</time>
      </trkpt>
      <trkpt lat="43.49623" lon="1.53553">
        <ele>175</ele>
        <time>2023-05-27T05:41:03Z</time>
      </trkpt>
      <trkpt lat="43.4962" lon="1.53555">
        <ele>175</ele>
        <time>2023-05-27T05:41:04Z</time>
      </trkpt>
      <trkpt lat="43.49618" lon="1.53559">
        <ele>175</ele>
        <time>2023-05-27T05:41:05Z</time>
      </trkpt>
      <trkpt lat="43.49615" lon="1.53564">
        <ele>175.2</ele>
        <time>2023-05-27T05:41:06Z</time>
      </trkpt>
      <trkpt lat="43.49613" lon="1.53567">
        <ele>175.4</ele>
        <time>2023-05-27T05:41:07Z</time>
      </trkpt>
      <trkpt lat="43.49611" lon="1.5357">
        <ele>175.4</ele>
        <time>2023-05-27T05:41:08Z</time>
      </trkpt>
      <trkpt lat="43.49609" lon="1.53573">
        <ele>175.6</ele>
        <time>2023-05-27T05:41:09Z</time>
      </trkpt>
      <trkpt lat="43.49608" lon="1.53575">
        <ele>175.8</ele>
        <time>2023-05-27T05:41:10Z</time>
      </trkpt>
      <trkpt lat="43.49607" lon="1.53577">
        <ele>176</ele>
        <time>2023-05-27T05:41:11Z</time>
      </trkpt>
      <trkpt lat="43.49605" lon="1.53579">
        <ele>176</ele>
        <time>2023-05-27T05:41:12Z</time>
      </trkpt>
      <trkpt lat="43.49602" lon="1.53581">
        <ele>176.2</ele>
        <time>2023-05-27T05:41:13Z</time>
      </trkpt>
      <trkpt lat="43.496" lon="1.53582">
        <ele>176.2</ele>
        <time>2023-05-27T05:41:14Z</time>
      </trkpt>
      <trkpt lat="43.49597" lon="1.53584">
        <ele>176.2</ele>
        <time>2023-05-27T05:41:15Z</time>
      </trkpt>
      <trkpt lat="43.49594" lon="1.53585">
        <ele>176</ele>
        <time>2023-05-27T05:41:16Z</time>
      </trkpt>
      <trkpt lat="43.4959" lon="1.53586">
        <ele>176</ele>
        <time>2023-05-27T05:41:17Z</time>
      </trkpt>
      <trkpt lat="43.49586" lon="1.53588">
        <ele>175.8</ele>
        <time>2023-05-27T05:41:18Z</time>
      </trkpt>
      <trkpt lat="43.49581" lon="1.5359">
        <ele>175.8</ele>
        <time>2023-05-27T05:41:19Z</time>
      </trkpt>
      <trkpt lat="43.49577" lon="1.53592">
        <ele>175.6</ele>
        <time>2023-05-27T05:41:20Z</time>
      </trkpt>
      <trkpt lat="43.49571" lon="1.53594">
        <ele>175.4</ele>
        <time>2023-05-27T05:41:21Z</time>
      </trkpt>
      <trkpt lat="43.49566" lon="1.53596">
        <ele>175.4</ele>
        <time>2023-05-27T05:41:22Z</time>
      </trkpt>
      <trkpt lat="43.49561" lon="1.53598">
        <ele>175.2</ele>
        <time>2023-05-27T05:41:23Z</time>
      </trkpt>
      <trkpt lat="43.49557" lon="1.536">
        <ele>175.2</ele>
        <time>2023-05-27T05:41:24Z</time>
      </trkpt>
      <trkpt lat="43.49552" lon="1.53602">
        <ele>175</ele>
        <time>2023-05-27T05:41:25Z</time>
      </trkpt>
      <trkpt lat="43.49546" lon="1.53604">
        <ele>175</ele>
        <time>2023-05-27T05:41:26Z</time>
      </trkpt>
      <trkpt lat="43.49542" lon="1.53606">
        <ele>175</ele>
        <time>2023-05-27T05:41:27Z</time>
      </trkpt>
      <trkpt lat="43.49537" lon="1.53608">
        <ele>175</ele>
        <time>2023-05-27T05:41:28Z</time>
      </trkpt>
      <trkpt lat="43.49533" lon="1.53609">
        <ele>174.8</ele>
        <time>2023-05-27T05:41:29Z</time>
      </trkpt>
      <trkpt lat="43.49528" lon="1.5361">
        <ele>174.8</ele>
        <time>2023-05-27T05:41:30Z</time>
      </trkpt>
      <trkpt lat="43.49522" lon="1.53612">
        <ele>174.8</ele>
        <time>2023-05-27T05:41:31Z</time>
      </trkpt>
      <trkpt lat="43.49518" lon="1.53613">
        <ele>174.8</ele>
        <time>2023-05-27T05:41:32Z</time>
      </trkpt>
      <trkpt lat="43.49513" lon="1.53614">
        <ele>174.8</ele>
        <time>2023-05-27T05:41:33Z</time>
      </trkpt>
      <trkpt lat="43.49509" lon="1.53616">
        <ele>174.8</ele>
        <time>2023-05-27T05:41:34Z</time>
      </trkpt>
      <trkpt lat="43.49503" lon="1.53618">
        <ele>174.8</ele>
        <time>2023-05-27T05:41:35Z</time>
      </trkpt>
      <trkpt lat="43.49499" lon="1.53619">
        <ele>174.8</ele>
        <time>2023-05-27T05:41:36Z</time>
      </trkpt>
      <trkpt lat="43.49494" lon="1.53621">
        <ele>174.8</ele>
        <time>2023-05-27T05:41:37Z</time>
      </trkpt>
      <trkpt lat="43.4949" lon="1.53622">
        <ele>174.8</ele>
        <time>2023-05-27T05:41:38Z</time>
      </trkpt>
      <trkpt lat="43.49486" lon="1.53623">
        <ele>175</ele>
        <time>2023-05-27T05:41:39Z</time>
      </trkpt>
      <trkpt lat="43.49481" lon="1.53624">
        <ele>175</ele>
        <time>2023-05-27T05:41:40Z</time>
      </trkpt>
      <trkpt lat="43.49477" lon="1.53626">
        <ele>175</ele>
        <time>2023-05-27T05:41:41Z</time>
      </trkpt>
      <trkpt lat="43.49473" lon="1.53627">
        <ele>175.2</ele>
        <time>2023-05-27T05:41:42Z</time>
      </trkpt>
      <trkpt lat="43.4947" lon="1.53628">
        <ele>175.2</ele>
        <time>2023-05-27T05:41:43Z</time>
      </trkpt>
      <trkpt lat="43.49465" lon="1.5363">
        <ele>175.4</ele>
        <time>2023-05-27T05:41:44Z</time>
      </trkpt>
      <trkpt lat="43.49461" lon="1.53631">
        <ele>175.4</ele>
        <time>2023-05-27T05:41:45Z</time>
      </trkpt>
      <trkpt lat="43.49457" lon="1.53632">
        <ele>175.4</ele>
        <time>2023-05-27T05:41:46Z</time>
      </trkpt>
      <trkpt lat="43.49454" lon="1.53633">
        <ele>175.6</ele>
        <time>2023-05-27T05:41:47Z</time>
      </trkpt>
      <trkpt lat="43.4945" lon="1.53634">
        <ele>175.6</ele>
        <time>2023-05-27T05:41:48Z</time>
      </trkpt>
      <trkpt lat="43.49446" lon="1.53635">
        <ele>175.8</ele>
        <time>2023-05-27T05:41:49Z</time>
      </trkpt>
      <trkpt lat="43.49442" lon="1.53635">
        <ele>175.8</ele>
        <time>2023-05-27T05:41:50Z</time>
      </trkpt>
      <trkpt lat="43.49439" lon="1.53636">
        <ele>175.8</ele>
        <time>2023-05-27T05:41:51Z</time>
      </trkpt>
      <trkpt lat="43.49434" lon="1.53637">
        <ele>175.8</ele>
        <time>2023-05-27T05:41:52Z</time>
      </trkpt>
      <trkpt lat="43.49431" lon="1.53638">
        <ele>176</ele>
        <time>2023-05-27T05:41:53Z</time>
      </trkpt>
      <trkpt lat="43.49427" lon="1.53639">
        <ele>176</ele>
        <time>2023-05-27T05:41:54Z</time>
      </trkpt>
      <trkpt lat="43.49423" lon="1.5364">
        <ele>176</ele>
        <time>2023-05-27T05:41:55Z</time>
      </trkpt>
      <trkpt lat="43.49419" lon="1.53641">
        <ele>176</ele>
        <time>2023-05-27T05:41:56Z</time>
      </trkpt>
      <trkpt lat="43.49415" lon="1.53642">
        <ele>176</ele>
        <time>2023-05-27T05:41:57Z</time>
      </trkpt>
      <trkpt lat="43.49411" lon="1.53643">
        <ele>176</ele>
        <time>2023-05-27T05:41:58Z</time>
      </trkpt>
      <trkpt lat="43.49407" lon="1.53644">
        <ele>176</ele>
        <time>2023-05-27T05:41:59Z</time>
      </trkpt>
      <trkpt lat="43.49403" lon="1.53645">
        <ele>176</ele>
        <time>2023-05-27T05:42:00Z</time>
      </trkpt>
      <trkpt lat="43.49399" lon="1.53646">
        <ele>176</ele>
        <time>2023-05-27T05:42:01Z</time>
      </trkpt>
      <trkpt lat="43.49395" lon="1.53647">
        <ele>176</ele>
        <time>2023-05-27T05:42:02Z</time>
      </trkpt>
      <trkpt lat="43.49391" lon="1.53649">
        <ele>176</ele>
        <time>2023-05-27T05:42:03Z</time>
      </trkpt>
      <trkpt lat="43.49387" lon="1.5365">
        <ele>176</ele>
        <time>2023-05-27T05:42:04Z</time>
      </trkpt>
      <trkpt lat="43.49383" lon="1.53651">
        <ele>176</ele>
        <time>2023-05-27T05:42:05Z</time>
      </trkpt>
      <trkpt lat="43.49379" lon="1.53652">
        <ele>176</ele>
        <time>2023-05-27T05:42:06Z</time>
      </trkpt>
      <trkpt lat="43.49373" lon="1.53653">
        <ele>175.8</ele>
        <time>2023-05-27T05:42:07Z</time>
      </trkpt>
      <trkpt lat="43.49368" lon="1.53654">
        <ele>175.6</ele>
        <time>2023-05-27T05:42:08Z</time>
      </trkpt>
      <trkpt lat="43.49362" lon="1.53655">
        <ele>175.4</ele>
        <time>2023-05-27T05:42:09Z</time>
      </trkpt>
      <trkpt lat="43.49356" lon="1.53655">
        <ele>175.2</ele>
        <time>2023-05-27T05:42:10Z</time>
      </trkpt>
      <trkpt lat="43.4935" lon="1.53656">
        <ele>175</ele>
        <time>2023-05-27T05:42:11Z</time>
      </trkpt>
      <trkpt lat="43.49345" lon="1.53657">
        <ele>175.2</ele>
        <time>2023-05-27T05:42:12Z</time>
      </trkpt>
      <trkpt lat="43.49341" lon="1.53657">
        <ele>175.4</ele>
        <time>2023-05-27T05:42:13Z</time>
      </trkpt>
      <trkpt lat="43.49338" lon="1.53658">
        <ele>175.4</ele>
        <time>2023-05-27T05:42:14Z</time>
      </trkpt>
      <trkpt lat="43.49334" lon="1.53658">
        <ele>175.6</ele>
        <time>2023-05-27T05:42:15Z</time>
      </trkpt>
      <trkpt lat="43.4933" lon="1.53659">
        <ele>175.8</ele>
        <time>2023-05-27T05:42:16Z</time>
      </trkpt>
      <trkpt lat="43.49326" lon="1.5366">
        <ele>175.8</ele>
        <time>2023-05-27T05:42:17Z</time>
      </trkpt>
      <trkpt lat="43.49323" lon="1.5366">
        <ele>176</ele>
        <time>2023-05-27T05:42:18Z</time>
      </trkpt>
      <trkpt lat="43.49319" lon="1.53661">
        <ele>176</ele>
        <time>2023-05-27T05:42:19Z</time>
      </trkpt>
      <trkpt lat="43.49315" lon="1.53661">
        <ele>176.2</ele>
        <time>2023-05-27T05:42:20Z</time>
      </trkpt>
      <trkpt lat="43.49312" lon="1.53661">
        <ele>176.2</ele>
        <time>2023-05-27T05:42:21Z</time>
      </trkpt>
      <trkpt lat="43.49308" lon="1.53661">
        <ele>176.2</ele>
        <time>2023-05-27T05:42:22Z</time>
      </trkpt>
      <trkpt lat="43.49304" lon="1.53661">
        <ele>176.2</ele>
        <time>2023-05-27T05:42:23Z</time>
      </trkpt>
      <trkpt lat="43.493" lon="1.53661">
        <ele>176.2</ele>
        <time>2023-05-27T05:42:24Z</time>
      </trkpt>
      <trkpt lat="43.49296" lon="1.53662">
        <ele>176.2</ele>
        <time>2023-05-27T05:42:25Z</time>
      </trkpt>
      <trkpt lat="43.49291" lon="1.53662">
        <ele>176.2</ele>
        <time>2023-05-27T05:42:26Z</time>
      </trkpt>
      <trkpt lat="43.49287" lon="1.53663">
        <ele>176.2</ele>
        <time>2023-05-27T05:42:27Z</time>
      </trkpt>
      <trkpt lat="43.49282" lon="1.53663">
        <ele>176.2</ele>
        <time>2023-05-27T05:42:28Z</time>
      </trkpt>
      <trkpt lat="43.49277" lon="1.53663">
        <ele>176</ele>
        <time>2023-05-27T05:42:29Z</time>
      </trkpt>
      <trkpt lat="43.49273" lon="1.53664">
        <ele>176</ele>
        <time>2023-05-27T05:42:30Z</time>
      </trkpt>
      <trkpt lat="43.49268" lon="1.53664">
        <ele>176</ele>
        <time>2023-05-27T05:42:31Z</time>
      </trkpt>
      <trkpt lat="43.49263" lon="1.53664">
        <ele>176</ele>
        <time>2023-05-27T05:42:32Z</time>
      </trkpt>
      <trkpt lat="43.49259" lon="1.53664">
        <ele>176</ele>
        <time>2023-05-27T05:42:33Z</time>
      </trkpt>
      <trkpt lat="43.49254" lon="1.53665">
        <ele>176</ele>
        <time>2023-05-27T05:42:34Z</time>
      </trkpt>
      <trkpt lat="43.49249" lon="1.53665">
        <ele>176</ele>
        <time>2023-05-27T05:42:35Z</time>
      </trkpt>
      <trkpt lat="43.49245" lon="1.53664">
        <ele>176</ele>
        <time>2023-05-27T05:42:36Z</time>
      </trkpt>
      <trkpt lat="43.4924" lon="1.53664">
        <ele>175.8</ele>
        <time>2023-05-27T05:42:37Z</time>
      </trkpt>
      <trkpt lat="43.49236" lon="1.53663">
        <ele>175.8</ele>
        <time>2023-05-27T05:42:38Z</time>
      </trkpt>
      <trkpt lat="43.49231" lon="1.53662">
        <ele>175.8</ele>
        <time>2023-05-27T05:42:39Z</time>
      </trkpt>
      <trkpt lat="43.49227" lon="1.53662">
        <ele>175.8</ele>
        <time>2023-05-27T05:42:40Z</time>
      </trkpt>
      <trkpt lat="43.49223" lon="1.53662">
        <ele>176</ele>
        <time>2023-05-27T05:42:41Z</time>
      </trkpt>
      <trkpt lat="43.49218" lon="1.53662">
        <ele>176</ele>
        <time>2023-05-27T05:42:42Z</time>
      </trkpt>
      <trkpt lat="43.49214" lon="1.53661">
        <ele>176</ele>
        <time>2023-05-27T05:42:43Z</time>
      </trkpt>
      <trkpt lat="43.4921" lon="1.53661">
        <ele>176</ele>
        <time>2023-05-27T05:42:44Z</time>
      </trkpt>
      <trkpt lat="43.49205" lon="1.53661">
        <ele>176</ele>
        <time>2023-05-27T05:42:45Z</time>
      </trkpt>
      <trkpt lat="43.49201" lon="1.5366">
        <ele>176</ele>
        <time>2023-05-27T05:42:46Z</time>
      </trkpt>
      <trkpt lat="43.49197" lon="1.5366">
        <ele>176</ele>
        <time>2023-05-27T05:42:47Z</time>
      </trkpt>
      <trkpt lat="43.49193" lon="1.5366">
        <ele>176</ele>
        <time>2023-05-27T05:42:48Z</time>
      </trkpt>
      <trkpt lat="43.49188" lon="1.53659">
        <ele>176</ele>
        <time>2023-05-27T05:42:49Z</time>
      </trkpt>
      <trkpt lat="43.49185" lon="1.53659">
        <ele>176</ele>
        <time>2023-05-27T05:42:50Z</time>
      </trkpt>
      <trkpt lat="43.49181" lon="1.53659">
        <ele>176</ele>
        <time>2023-05-27T05:42:51Z</time>
      </trkpt>
      <trkpt lat="43.49175" lon="1.53658">
        <ele>176</ele>
        <time>2023-05-27T05:42:52Z</time>
      </trkpt>
      <trkpt lat="43.4917" lon="1.53657">
        <ele>176</ele>
        <time>2023-05-27T05:42:53Z</time>
      </trkpt>
      <trkpt lat="43.49165" lon="1.53656">
        <ele>176</ele>
        <time>2023-05-27T05:42:54Z</time>
      </trkpt>
      <trkpt lat="43.4916" lon="1.53655">
        <ele>175.8</ele>
        <time>2023-05-27T05:42:55Z</time>
      </trkpt>
      <trkpt lat="43.49155" lon="1.53654">
        <ele>175.8</ele>
        <time>2023-05-27T05:42:56Z</time>
      </trkpt>
      <trkpt lat="43.49149" lon="1.53654">
        <ele>175.6</ele>
        <time>2023-05-27T05:42:57Z</time>
      </trkpt>
      <trkpt lat="43.49144" lon="1.53653">
        <ele>175.6</ele>
        <time>2023-05-27T05:42:58Z</time>
      </trkpt>
      <trkpt lat="43.49139" lon="1.53651">
        <ele>175.4</ele>
        <time>2023-05-27T05:42:59Z</time>
      </trkpt>
      <trkpt lat="43.49134" lon="1.5365">
        <ele>175.4</ele>
        <time>2023-05-27T05:43:00Z</time>
      </trkpt>
      <trkpt lat="43.49129" lon="1.53649">
        <ele>175.2</ele>
        <time>2023-05-27T05:43:01Z</time>
      </trkpt>
      <trkpt lat="43.49125" lon="1.53648">
        <ele>175.2</ele>
        <time>2023-05-27T05:43:02Z</time>
      </trkpt>
      <trkpt lat="43.49121" lon="1.53646">
        <ele>175</ele>
        <time>2023-05-27T05:43:03Z</time>
      </trkpt>
      <trkpt lat="43.49116" lon="1.53645">
        <ele>175</ele>
        <time>2023-05-27T05:43:04Z</time>
      </trkpt>
      <trkpt lat="43.49111" lon="1.53644">
        <ele>175</ele>
        <time>2023-05-27T05:43:05Z</time>
      </trkpt>
      <trkpt lat="43.49105" lon="1.53643">
        <ele>174.8</ele>
        <time>2023-05-27T05:43:06Z</time>
      </trkpt>
      <trkpt lat="43.491" lon="1.53641">
        <ele>174.8</ele>
        <time>2023-05-27T05:43:07Z</time>
      </trkpt>
      <trkpt lat="43.49095" lon="1.5364">
        <ele>174.8</ele>
        <time>2023-05-27T05:43:08Z</time>
      </trkpt>
      <trkpt lat="43.49089" lon="1.53639">
        <ele>174.8</ele>
        <time>2023-05-27T05:43:09Z</time>
      </trkpt>
      <trkpt lat="43.49085" lon="1.53637">
        <ele>174.8</ele>
        <time>2023-05-27T05:43:10Z</time>
      </trkpt>
      <trkpt lat="43.4908" lon="1.53635">
        <ele>174.8</ele>
        <time>2023-05-27T05:43:11Z</time>
      </trkpt>
      <trkpt lat="43.49075" lon="1.53633">
        <ele>174.8</ele>
        <time>2023-05-27T05:43:12Z</time>
      </trkpt>
      <trkpt lat="43.4907" lon="1.53632">
        <ele>174.8</ele>
        <time>2023-05-27T05:43:13Z</time>
      </trkpt>
      <trkpt lat="43.49065" lon="1.5363">
        <ele>174.8</ele>
        <time>2023-05-27T05:43:14Z</time>
      </trkpt>
      <trkpt lat="43.4906" lon="1.53629">
        <ele>174.8</ele>
        <time>2023-05-27T05:43:15Z</time>
      </trkpt>
      <trkpt lat="43.49055" lon="1.53628">
        <ele>174.8</ele>
        <time>2023-05-27T05:43:16Z</time>
      </trkpt>
      <trkpt lat="43.49051" lon="1.53626">
        <ele>174.8</ele>
        <time>2023-05-27T05:43:17Z</time>
      </trkpt>
      <trkpt lat="43.49046" lon="1.53625">
        <ele>174.8</ele>
        <time>2023-05-27T05:43:18Z</time>
      </trkpt>
      <trkpt lat="43.49042" lon="1.53624">
        <ele>174.8</ele>
        <time>2023-05-27T05:43:19Z</time>
      </trkpt>
      <trkpt lat="43.49038" lon="1.53624">
        <ele>174.8</ele>
        <time>2023-05-27T05:43:20Z</time>
      </trkpt>
      <trkpt lat="43.49033" lon="1.53624">
        <ele>174.8</ele>
        <time>2023-05-27T05:43:21Z</time>
      </trkpt>
      <trkpt lat="43.4903" lon="1.53624">
        <ele>175</ele>
        <time>2023-05-27T05:43:22Z</time>
      </trkpt>
      <trkpt lat="43.49024" lon="1.53625">
        <ele>175</ele>
        <time>2023-05-27T05:43:23Z</time>
      </trkpt>
      <trkpt lat="43.4902" lon="1.53626">
        <ele>175</ele>
        <time>2023-05-27T05:43:24Z</time>
      </trkpt>
      <trkpt lat="43.49016" lon="1.53628">
        <ele>175</ele>
        <time>2023-05-27T05:43:25Z</time>
      </trkpt>
      <trkpt lat="43.49013" lon="1.5363">
        <ele>175.2</ele>
        <time>2023-05-27T05:43:26Z</time>
      </trkpt>
      <trkpt lat="43.49008" lon="1.53632">
        <ele>175.4</ele>
        <time>2023-05-27T05:43:27Z</time>
      </trkpt>
      <trkpt lat="43.49004" lon="1.53633">
        <ele>175.4</ele>
        <time>2023-05-27T05:43:28Z</time>
      </trkpt>
      <trkpt lat="43.49001" lon="1.53635">
        <ele>175.4</ele>
        <time>2023-05-27T05:43:29Z</time>
      </trkpt>
      <trkpt lat="43.48998" lon="1.53638">
        <ele>175.6</ele>
        <time>2023-05-27T05:43:30Z</time>
      </trkpt>
      <trkpt lat="43.48995" lon="1.5364">
        <ele>175.6</ele>
        <time>2023-05-27T05:43:31Z</time>
      </trkpt>
      <trkpt lat="43.48992" lon="1.53644">
        <ele>175.6</ele>
        <time>2023-05-27T05:43:32Z</time>
      </trkpt>
      <trkpt lat="43.48989" lon="1.53647">
        <ele>175.8</ele>
        <time>2023-05-27T05:43:33Z</time>
      </trkpt>
      <trkpt lat="43.48986" lon="1.5365">
        <ele>175.8</ele>
        <time>2023-05-27T05:43:34Z</time>
      </trkpt>
      <trkpt lat="43.48984" lon="1.53654">
        <ele>175.8</ele>
        <time>2023-05-27T05:43:35Z</time>
      </trkpt>
      <trkpt lat="43.48981" lon="1.53658">
        <ele>175.8</ele>
        <time>2023-05-27T05:43:36Z</time>
      </trkpt>
      <trkpt lat="43.48979" lon="1.53662">
        <ele>175.8</ele>
        <time>2023-05-27T05:43:37Z</time>
      </trkpt>
      <trkpt lat="43.48978" lon="1.53666">
        <ele>175.8</ele>
        <time>2023-05-27T05:43:38Z</time>
      </trkpt>
      <trkpt lat="43.48977" lon="1.53669">
        <ele>175.8</ele>
        <time>2023-05-27T05:43:39Z</time>
      </trkpt>
      <trkpt lat="43.48975" lon="1.53675">
        <ele>176</ele>
        <time>2023-05-27T05:43:40Z</time>
      </trkpt>
      <trkpt lat="43.48974" lon="1.53679">
        <ele>176</ele>
        <time>2023-05-27T05:43:41Z</time>
      </trkpt>
      <trkpt lat="43.48973" lon="1.53684">
        <ele>176</ele>
        <time>2023-05-27T05:43:42Z</time>
      </trkpt>
      <trkpt lat="43.48972" lon="1.53688">
        <ele>176</ele>
        <time>2023-05-27T05:43:43Z</time>
      </trkpt>
      <trkpt lat="43.48971" lon="1.53693">
        <ele>176</ele>
        <time>2023-05-27T05:43:44Z</time>
      </trkpt>
      <trkpt lat="43.48969" lon="1.537">
        <ele>176</ele>
        <time>2023-05-27T05:43:45Z</time>
      </trkpt>
      <trkpt lat="43.48969" lon="1.53706">
        <ele>176</ele>
        <time>2023-05-27T05:43:46Z</time>
      </trkpt>
      <trkpt lat="43.48968" lon="1.53711">
        <ele>176</ele>
        <time>2023-05-27T05:43:47Z</time>
      </trkpt>
      <trkpt lat="43.48967" lon="1.53717">
        <ele>176.2</ele>
        <time>2023-05-27T05:43:48Z</time>
      </trkpt>
      <trkpt lat="43.48966" lon="1.53725">
        <ele>176.2</ele>
        <time>2023-05-27T05:43:49Z</time>
      </trkpt>
      <trkpt lat="43.48964" lon="1.5373">
        <ele>176.2</ele>
        <time>2023-05-27T05:43:50Z</time>
      </trkpt>
      <trkpt lat="43.48963" lon="1.53736">
        <ele>176.2</ele>
        <time>2023-05-27T05:43:51Z</time>
      </trkpt>
      <trkpt lat="43.48963" lon="1.53742">
        <ele>176.2</ele>
        <time>2023-05-27T05:43:52Z</time>
      </trkpt>
      <trkpt lat="43.48962" lon="1.53746">
        <ele>176.2</ele>
        <time>2023-05-27T05:43:53Z</time>
      </trkpt>
      <trkpt lat="43.48962" lon="1.53754">
        <ele>176.2</ele>
        <time>2023-05-27T05:43:54Z</time>
      </trkpt>
      <trkpt lat="43.48962" lon="1.5376">
        <ele>176.2</ele>
        <time>2023-05-27T05:43:55Z</time>
      </trkpt>
      <trkpt lat="43.48962" lon="1.53766">
        <ele>176.2</ele>
        <time>2023-05-27T05:43:56Z</time>
      </trkpt>
      <trkpt lat="43.48962" lon="1.5377">
        <ele>176.2</ele>
        <time>2023-05-27T05:43:57Z</time>
      </trkpt>
      <trkpt lat="43.48962" lon="1.53776">
        <ele>176.2</ele>
        <time>2023-05-27T05:43:58Z</time>
      </trkpt>
      <trkpt lat="43.48963" lon="1.53782">
        <ele>176.4</ele>
        <time>2023-05-27T05:43:59Z</time>
      </trkpt>
      <trkpt lat="43.48964" lon="1.53787">
        <ele>176.4</ele>
        <time>2023-05-27T05:44:00Z</time>
      </trkpt>
      <trkpt lat="43.48964" lon="1.53792">
        <ele>176.4</ele>
        <time>2023-05-27T05:44:01Z</time>
      </trkpt>
      <trkpt lat="43.48964" lon="1.53797">
        <ele>176.4</ele>
        <time>2023-05-27T05:44:02Z</time>
      </trkpt>
      <trkpt lat="43.48965" lon="1.53802">
        <ele>176.6</ele>
        <time>2023-05-27T05:44:03Z</time>
      </trkpt>
      <trkpt lat="43.48965" lon="1.53806">
        <ele>176.6</ele>
        <time>2023-05-27T05:44:04Z</time>
      </trkpt>
      <trkpt lat="43.48966" lon="1.53811">
        <ele>176.6</ele>
        <time>2023-05-27T05:44:05Z</time>
      </trkpt>
      <trkpt lat="43.48967" lon="1.53816">
        <ele>176.6</ele>
        <time>2023-05-27T05:44:06Z</time>
      </trkpt>
      <trkpt lat="43.48968" lon="1.53821">
        <ele>176.4</ele>
        <time>2023-05-27T05:44:07Z</time>
      </trkpt>
      <trkpt lat="43.48969" lon="1.53827">
        <ele>176.4</ele>
        <time>2023-05-27T05:44:08Z</time>
      </trkpt>
      <trkpt lat="43.48969" lon="1.53834">
        <ele>176.4</ele>
        <time>2023-05-27T05:44:09Z</time>
      </trkpt>
      <trkpt lat="43.4897" lon="1.5384">
        <ele>176.4</ele>
        <time>2023-05-27T05:44:10Z</time>
      </trkpt>
      <trkpt lat="43.4897" lon="1.53845">
        <ele>176.4</ele>
        <time>2023-05-27T05:44:11Z</time>
      </trkpt>
      <trkpt lat="43.48972" lon="1.53853">
        <ele>176.4</ele>
        <time>2023-05-27T05:44:12Z</time>
      </trkpt>
      <trkpt lat="43.48972" lon="1.53858">
        <ele>176.4</ele>
        <time>2023-05-27T05:44:13Z</time>
      </trkpt>
      <trkpt lat="43.48973" lon="1.53863">
        <ele>176.4</ele>
        <time>2023-05-27T05:44:14Z</time>
      </trkpt>
      <trkpt lat="43.48974" lon="1.53869">
        <ele>176.4</ele>
        <time>2023-05-27T05:44:15Z</time>
      </trkpt>
      <trkpt lat="43.48974" lon="1.53876">
        <ele>176.4</ele>
        <time>2023-05-27T05:44:16Z</time>
      </trkpt>
      <trkpt lat="43.48975" lon="1.53883">
        <ele>176.4</ele>
        <time>2023-05-27T05:44:17Z</time>
      </trkpt>
      <trkpt lat="43.48975" lon="1.5389">
        <ele>176.2</ele>
        <time>2023-05-27T05:44:18Z</time>
      </trkpt>
      <trkpt lat="43.48976" lon="1.53896">
        <ele>176.2</ele>
        <time>2023-05-27T05:44:19Z</time>
      </trkpt>
      <trkpt lat="43.48977" lon="1.53903">
        <ele>176.2</ele>
        <time>2023-05-27T05:44:20Z</time>
      </trkpt>
      <trkpt lat="43.48977" lon="1.53908">
        <ele>176.2</ele>
        <time>2023-05-27T05:44:21Z</time>
      </trkpt>
      <trkpt lat="43.48978" lon="1.53914">
        <ele>176.2</ele>
        <time>2023-05-27T05:44:22Z</time>
      </trkpt>
      <trkpt lat="43.48978" lon="1.53922">
        <ele>176.2</ele>
        <time>2023-05-27T05:44:23Z</time>
      </trkpt>
      <trkpt lat="43.48978" lon="1.53927">
        <ele>176.2</ele>
        <time>2023-05-27T05:44:24Z</time>
      </trkpt>
      <trkpt lat="43.48979" lon="1.53935">
        <ele>176.4</ele>
        <time>2023-05-27T05:44:25Z</time>
      </trkpt>
      <trkpt lat="43.4898" lon="1.5394">
        <ele>176.4</ele>
        <time>2023-05-27T05:44:26Z</time>
      </trkpt>
      <trkpt lat="43.4898" lon="1.53946">
        <ele>176.2</ele>
        <time>2023-05-27T05:44:27Z</time>
      </trkpt>
      <trkpt lat="43.4898" lon="1.53952">
        <ele>176.2</ele>
        <time>2023-05-27T05:44:28Z</time>
      </trkpt>
      <trkpt lat="43.48981" lon="1.53959">
        <ele>176.2</ele>
        <time>2023-05-27T05:44:29Z</time>
      </trkpt>
      <trkpt lat="43.48981" lon="1.53964">
        <ele>176.2</ele>
        <time>2023-05-27T05:44:30Z</time>
      </trkpt>
      <trkpt lat="43.48981" lon="1.53971">
        <ele>176.2</ele>
        <time>2023-05-27T05:44:31Z</time>
      </trkpt>
      <trkpt lat="43.48982" lon="1.53977">
        <ele>176.2</ele>
        <time>2023-05-27T05:44:32Z</time>
      </trkpt>
      <trkpt lat="43.48981" lon="1.53983">
        <ele>176</ele>
        <time>2023-05-27T05:44:33Z</time>
      </trkpt>
      <trkpt lat="43.48981" lon="1.5399">
        <ele>176</ele>
        <time>2023-05-27T05:44:34Z</time>
      </trkpt>
      <trkpt lat="43.48981" lon="1.53997">
        <ele>176</ele>
        <time>2023-05-27T05:44:35Z</time>
      </trkpt>
      <trkpt lat="43.48981" lon="1.54003">
        <ele>176</ele>
        <time>2023-05-27T05:44:36Z</time>
      </trkpt>
      <trkpt lat="43.48981" lon="1.54011">
        <ele>175.8</ele>
        <time>2023-05-27T05:44:37Z</time>
      </trkpt>
      <trkpt lat="43.48981" lon="1.54018">
        <ele>175.8</ele>
        <time>2023-05-27T05:44:38Z</time>
      </trkpt>
      <trkpt lat="43.4898" lon="1.54027">
        <ele>175.8</ele>
        <time>2023-05-27T05:44:39Z</time>
      </trkpt>
      <trkpt lat="43.4898" lon="1.54034">
        <ele>175.8</ele>
        <time>2023-05-27T05:44:40Z</time>
      </trkpt>
      <trkpt lat="43.4898" lon="1.5404">
        <ele>175.8</ele>
        <time>2023-05-27T05:44:41Z</time>
      </trkpt>
      <trkpt lat="43.48979" lon="1.54046">
        <ele>175.8</ele>
        <time>2023-05-27T05:44:42Z</time>
      </trkpt>
      <trkpt lat="43.48978" lon="1.54054">
        <ele>175.8</ele>
        <time>2023-05-27T05:44:43Z</time>
      </trkpt>
      <trkpt lat="43.48978" lon="1.54061">
        <ele>175.8</ele>
        <time>2023-05-27T05:44:44Z</time>
      </trkpt>
      <trkpt lat="43.48977" lon="1.54067">
        <ele>175.8</ele>
        <time>2023-05-27T05:44:45Z</time>
      </trkpt>
      <trkpt lat="43.48977" lon="1.54073">
        <ele>176</ele>
        <time>2023-05-27T05:44:46Z</time>
      </trkpt>
      <trkpt lat="43.48977" lon="1.54079">
        <ele>176</ele>
        <time>2023-05-27T05:44:47Z</time>
      </trkpt>
      <trkpt lat="43.48977" lon="1.54085">
        <ele>176</ele>
        <time>2023-05-27T05:44:48Z</time>
      </trkpt>
      <trkpt lat="43.48976" lon="1.54091">
        <ele>176</ele>
        <time>2023-05-27T05:44:49Z</time>
      </trkpt>
      <trkpt lat="43.48976" lon="1.54097">
        <ele>176</ele>
        <time>2023-05-27T05:44:50Z</time>
      </trkpt>
      <trkpt lat="43.48975" lon="1.54102">
        <ele>176</ele>
        <time>2023-05-27T05:44:51Z</time>
      </trkpt>
      <trkpt lat="43.48975" lon="1.54109">
        <ele>176</ele>
        <time>2023-05-27T05:44:52Z</time>
      </trkpt>
      <trkpt lat="43.48975" lon="1.54114">
        <ele>176</ele>
        <time>2023-05-27T05:44:53Z</time>
      </trkpt>
      <trkpt lat="43.48974" lon="1.54119">
        <ele>176</ele>
        <time>2023-05-27T05:44:54Z</time>
      </trkpt>
      <trkpt lat="43.48974" lon="1.54126">
        <ele>176</ele>
        <time>2023-05-27T05:44:55Z</time>
      </trkpt>
      <trkpt lat="43.48974" lon="1.54131">
        <ele>176</ele>
        <time>2023-05-27T05:44:56Z</time>
      </trkpt>
      <trkpt lat="43.48973" lon="1.54135">
        <ele>176.2</ele>
        <time>2023-05-27T05:44:57Z</time>
      </trkpt>
      <trkpt lat="43.48973" lon="1.5414">
        <ele>176</ele>
        <time>2023-05-27T05:44:58Z</time>
      </trkpt>
      <trkpt lat="43.48972" lon="1.54145">
        <ele>176</ele>
        <time>2023-05-27T05:44:59Z</time>
      </trkpt>
      <trkpt lat="43.48971" lon="1.54149">
        <ele>176.2</ele>
        <time>2023-05-27T05:45:00Z</time>
      </trkpt>
      <trkpt lat="43.4897" lon="1.54153">
        <ele>176</ele>
        <time>2023-05-27T05:45:01Z</time>
      </trkpt>
      <trkpt lat="43.48969" lon="1.54157">
        <ele>176</ele>
        <time>2023-05-27T05:45:02Z</time>
      </trkpt>
      <trkpt lat="43.48968" lon="1.54161">
        <ele>176</ele>
        <time>2023-05-27T05:45:03Z</time>
      </trkpt>
      <trkpt lat="43.48967" lon="1.54165">
        <ele>176</ele>
        <time>2023-05-27T05:45:04Z</time>
      </trkpt>
      <trkpt lat="43.48966" lon="1.54169">
        <ele>176</ele>
        <time>2023-05-27T05:45:05Z</time>
      </trkpt>
      <trkpt lat="43.48965" lon="1.54174">
        <ele>176</ele>
        <time>2023-05-27T05:45:06Z</time>
      </trkpt>
      <trkpt lat="43.48965" lon="1.5418">
        <ele>176</ele>
        <time>2023-05-27T05:45:07Z</time>
      </trkpt>
      <trkpt lat="43.48963" lon="1.54186">
        <ele>176</ele>
        <time>2023-05-27T05:45:08Z</time>
      </trkpt>
      <trkpt lat="43.48962" lon="1.54193">
        <ele>176</ele>
        <time>2023-05-27T05:45:09Z</time>
      </trkpt>
      <trkpt lat="43.4896" lon="1.54198">
        <ele>175.8</ele>
        <time>2023-05-27T05:45:10Z</time>
      </trkpt>
      <trkpt lat="43.48959" lon="1.54204">
        <ele>175.8</ele>
        <time>2023-05-27T05:45:11Z</time>
      </trkpt>
      <trkpt lat="43.48957" lon="1.5421">
        <ele>175.8</ele>
        <time>2023-05-27T05:45:12Z</time>
      </trkpt>
      <trkpt lat="43.48955" lon="1.54216">
        <ele>175.6</ele>
        <time>2023-05-27T05:45:13Z</time>
      </trkpt>
      <trkpt lat="43.48954" lon="1.54222">
        <ele>175.6</ele>
        <time>2023-05-27T05:45:14Z</time>
      </trkpt>
      <trkpt lat="43.48951" lon="1.54231">
        <ele>175.6</ele>
        <time>2023-05-27T05:45:15Z</time>
      </trkpt>
      <trkpt lat="43.48948" lon="1.54237">
        <ele>175.4</ele>
        <time>2023-05-27T05:45:16Z</time>
      </trkpt>
      <trkpt lat="43.48945" lon="1.54244">
        <ele>175.4</ele>
        <time>2023-05-27T05:45:17Z</time>
      </trkpt>
      <trkpt lat="43.48943" lon="1.54248">
        <ele>175.4</ele>
        <time>2023-05-27T05:45:18Z</time>
      </trkpt>
      <trkpt lat="43.48941" lon="1.54254">
        <ele>175.4</ele>
        <time>2023-05-27T05:45:19Z</time>
      </trkpt>
      <trkpt lat="43.4894" lon="1.5426">
        <ele>175.4</ele>
        <time>2023-05-27T05:45:20Z</time>
      </trkpt>
      <trkpt lat="43.48936" lon="1.54271">
        <ele>175.4</ele>
        <time>2023-05-27T05:45:21Z</time>
      </trkpt>
      <trkpt lat="43.48934" lon="1.54277">
        <ele>175.4</ele>
        <time>2023-05-27T05:45:22Z</time>
      </trkpt>
      <trkpt lat="43.4893" lon="1.54283">
        <ele>175.4</ele>
        <time>2023-05-27T05:45:23Z</time>
      </trkpt>
      <trkpt lat="43.48926" lon="1.54288">
        <ele>175.4</ele>
        <time>2023-05-27T05:45:24Z</time>
      </trkpt>
      <trkpt lat="43.48922" lon="1.54292">
        <ele>175.2</ele>
        <time>2023-05-27T05:45:25Z</time>
      </trkpt>
      <trkpt lat="43.48918" lon="1.54297">
        <ele>175.2</ele>
        <time>2023-05-27T05:45:26Z</time>
      </trkpt>
      <trkpt lat="43.48913" lon="1.54303">
        <ele>175.2</ele>
        <time>2023-05-27T05:45:27Z</time>
      </trkpt>
      <trkpt lat="43.48908" lon="1.54311">
        <ele>175.2</ele>
        <time>2023-05-27T05:45:28Z</time>
      </trkpt>
      <trkpt lat="43.48903" lon="1.54317">
        <ele>175.2</ele>
        <time>2023-05-27T05:45:29Z</time>
      </trkpt>
      <trkpt lat="43.48899" lon="1.54323">
        <ele>175</ele>
        <time>2023-05-27T05:45:30Z</time>
      </trkpt>
      <trkpt lat="43.48896" lon="1.54326">
        <ele>175</ele>
        <time>2023-05-27T05:45:31Z</time>
      </trkpt>
      <trkpt lat="43.48892" lon="1.54334">
        <ele>175</ele>
        <time>2023-05-27T05:45:32Z</time>
      </trkpt>
      <trkpt lat="43.48889" lon="1.54339">
        <ele>175</ele>
        <time>2023-05-27T05:45:33Z</time>
      </trkpt>
      <trkpt lat="43.48886" lon="1.54343">
        <ele>175</ele>
        <time>2023-05-27T05:45:34Z</time>
      </trkpt>
      <trkpt lat="43.48883" lon="1.54347">
        <ele>175</ele>
        <time>2023-05-27T05:45:35Z</time>
      </trkpt>
      <trkpt lat="43.48878" lon="1.5435">
        <ele>175</ele>
        <time>2023-05-27T05:45:36Z</time>
      </trkpt>
      <trkpt lat="43.48875" lon="1.54352">
        <ele>175</ele>
        <time>2023-05-27T05:45:37Z</time>
      </trkpt>
      <trkpt lat="43.48873" lon="1.54355">
        <ele>175</ele>
        <time>2023-05-27T05:45:38Z</time>
      </trkpt>
      <trkpt lat="43.48872" lon="1.54357">
        <ele>175</ele>
        <time>2023-05-27T05:45:39Z</time>
      </trkpt>
      <trkpt lat="43.4887" lon="1.54362">
        <ele>175</ele>
        <time>2023-05-27T05:45:40Z</time>
      </trkpt>
      <trkpt lat="43.48866" lon="1.54367">
        <ele>175</ele>
        <time>2023-05-27T05:45:41Z</time>
      </trkpt>
      <trkpt lat="43.48863" lon="1.5437">
        <ele>175</ele>
        <time>2023-05-27T05:45:42Z</time>
      </trkpt>
      <trkpt lat="43.4886" lon="1.54373">
        <ele>175</ele>
        <time>2023-05-27T05:45:43Z</time>
      </trkpt>
      <trkpt lat="43.48858" lon="1.54376">
        <ele>174.8</ele>
        <time>2023-05-27T05:45:44Z</time>
      </trkpt>
      <trkpt lat="43.48855" lon="1.5438">
        <ele>175</ele>
        <time>2023-05-27T05:45:45Z</time>
      </trkpt>
      <trkpt lat="43.48853" lon="1.54383">
        <ele>175</ele>
        <time>2023-05-27T05:45:46Z</time>
      </trkpt>
      <trkpt lat="43.48851" lon="1.54386">
        <ele>175</ele>
        <time>2023-05-27T05:45:47Z</time>
      </trkpt>
      <trkpt lat="43.48848" lon="1.5439">
        <ele>175</ele>
        <time>2023-05-27T05:45:48Z</time>
      </trkpt>
      <trkpt lat="43.48845" lon="1.54395">
        <ele>175</ele>
        <time>2023-05-27T05:45:49Z</time>
      </trkpt>
      <trkpt lat="43.48842" lon="1.54399">
        <ele>175</ele>
        <time>2023-05-27T05:45:50Z</time>
      </trkpt>
      <trkpt lat="43.48838" lon="1.54404">
        <ele>175</ele>
        <time>2023-05-27T05:45:51Z</time>
      </trkpt>
      <trkpt lat="43.48835" lon="1.54409">
        <ele>175</ele>
        <time>2023-05-27T05:45:52Z</time>
      </trkpt>
      <trkpt lat="43.48831" lon="1.54415">
        <ele>175</ele>
        <time>2023-05-27T05:45:53Z</time>
      </trkpt>
      <trkpt lat="43.48828" lon="1.54419">
        <ele>175</ele>
        <time>2023-05-27T05:45:54Z</time>
      </trkpt>
      <trkpt lat="43.48826" lon="1.54422">
        <ele>175.2</ele>
        <time>2023-05-27T05:45:55Z</time>
      </trkpt>
      <trkpt lat="43.48823" lon="1.54426">
        <ele>175.2</ele>
        <time>2023-05-27T05:45:56Z</time>
      </trkpt>
      <trkpt lat="43.4882" lon="1.5443">
        <ele>175.2</ele>
        <time>2023-05-27T05:45:57Z</time>
      </trkpt>
      <trkpt lat="43.48818" lon="1.54433">
        <ele>175.2</ele>
        <time>2023-05-27T05:45:58Z</time>
      </trkpt>
      <trkpt lat="43.48816" lon="1.54436">
        <ele>175.4</ele>
        <time>2023-05-27T05:45:59Z</time>
      </trkpt>
      <trkpt lat="43.48813" lon="1.5444">
        <ele>175.4</ele>
        <time>2023-05-27T05:46:00Z</time>
      </trkpt>
      <trkpt lat="43.4881" lon="1.54447">
        <ele>175.4</ele>
        <time>2023-05-27T05:46:01Z</time>
      </trkpt>
      <trkpt lat="43.48808" lon="1.54451">
        <ele>175.6</ele>
        <time>2023-05-27T05:46:02Z</time>
      </trkpt>
      <trkpt lat="43.48805" lon="1.54454">
        <ele>175.6</ele>
        <time>2023-05-27T05:46:03Z</time>
      </trkpt>
      <trkpt lat="43.48802" lon="1.54459">
        <ele>175.8</ele>
        <time>2023-05-27T05:46:04Z</time>
      </trkpt>
      <trkpt lat="43.48798" lon="1.54467">
        <ele>175.8</ele>
        <time>2023-05-27T05:46:05Z</time>
      </trkpt>
      <trkpt lat="43.48795" lon="1.54475">
        <ele>175.8</ele>
        <time>2023-05-27T05:46:06Z</time>
      </trkpt>
      <trkpt lat="43.48793" lon="1.5448">
        <ele>175.8</ele>
        <time>2023-05-27T05:46:07Z</time>
      </trkpt>
      <trkpt lat="43.4879" lon="1.54483">
        <ele>175.8</ele>
        <time>2023-05-27T05:46:08Z</time>
      </trkpt>
      <trkpt lat="43.48787" lon="1.54486">
        <ele>175.8</ele>
        <time>2023-05-27T05:46:09Z</time>
      </trkpt>
      <trkpt lat="43.48786" lon="1.54489">
        <ele>175.8</ele>
        <time>2023-05-27T05:46:10Z</time>
      </trkpt>
      <trkpt lat="43.48783" lon="1.54496">
        <ele>175.6</ele>
        <time>2023-05-27T05:46:11Z</time>
      </trkpt>
      <trkpt lat="43.48781" lon="1.54501">
        <ele>175.6</ele>
        <time>2023-05-27T05:46:12Z</time>
      </trkpt>
      <trkpt lat="43.48776" lon="1.54506">
        <ele>175.6</ele>
        <time>2023-05-27T05:46:13Z</time>
      </trkpt>
      <trkpt lat="43.48774" lon="1.5451">
        <ele>175.4</ele>
        <time>2023-05-27T05:46:14Z</time>
      </trkpt>
      <trkpt lat="43.48772" lon="1.54515">
        <ele>175.4</ele>
        <time>2023-05-27T05:46:15Z</time>
      </trkpt>
      <trkpt lat="43.4877" lon="1.54521">
        <ele>175.2</ele>
        <time>2023-05-27T05:46:16Z</time>
      </trkpt>
      <trkpt lat="43.48767" lon="1.54525">
        <ele>175.2</ele>
        <time>2023-05-27T05:46:17Z</time>
      </trkpt>
      <trkpt lat="43.48763" lon="1.54529">
        <ele>175.2</ele>
        <time>2023-05-27T05:46:18Z</time>
      </trkpt>
      <trkpt lat="43.4876" lon="1.54534">
        <ele>175</ele>
        <time>2023-05-27T05:46:19Z</time>
      </trkpt>
      <trkpt lat="43.48757" lon="1.5454">
        <ele>175</ele>
        <time>2023-05-27T05:46:20Z</time>
      </trkpt>
      <trkpt lat="43.48753" lon="1.54542">
        <ele>175</ele>
        <time>2023-05-27T05:46:21Z</time>
      </trkpt>
      <trkpt lat="43.48747" lon="1.54547">
        <ele>175</ele>
        <time>2023-05-27T05:46:22Z</time>
      </trkpt>
      <trkpt lat="43.48741" lon="1.54551">
        <ele>175</ele>
        <time>2023-05-27T05:46:23Z</time>
      </trkpt>
      <trkpt lat="43.48736" lon="1.54554">
        <ele>175</ele>
        <time>2023-05-27T05:46:24Z</time>
      </trkpt>
      <trkpt lat="43.48732" lon="1.54561">
        <ele>174.8</ele>
        <time>2023-05-27T05:46:25Z</time>
      </trkpt>
      <trkpt lat="43.48728" lon="1.54564">
        <ele>174.8</ele>
        <time>2023-05-27T05:46:26Z</time>
      </trkpt>
      <trkpt lat="43.48723" lon="1.54568">
        <ele>174.8</ele>
        <time>2023-05-27T05:46:27Z</time>
      </trkpt>
      <trkpt lat="43.4872" lon="1.5457">
        <ele>174.8</ele>
        <time>2023-05-27T05:46:28Z</time>
      </trkpt>
      <trkpt lat="43.48716" lon="1.54573">
        <ele>174.8</ele>
        <time>2023-05-27T05:46:29Z</time>
      </trkpt>
      <trkpt lat="43.48714" lon="1.54576">
        <ele>174.8</ele>
        <time>2023-05-27T05:46:30Z</time>
      </trkpt>
      <trkpt lat="43.4871" lon="1.54579">
        <ele>174.6</ele>
        <time>2023-05-27T05:46:31Z</time>
      </trkpt>
      <trkpt lat="43.48704" lon="1.54583">
        <ele>174.6</ele>
        <time>2023-05-27T05:46:32Z</time>
      </trkpt>
      <trkpt lat="43.487" lon="1.54586">
        <ele>174.6</ele>
        <time>2023-05-27T05:46:33Z</time>
      </trkpt>
      <trkpt lat="43.48696" lon="1.5459">
        <ele>174.6</ele>
        <time>2023-05-27T05:46:34Z</time>
      </trkpt>
      <trkpt lat="43.48693" lon="1.54593">
        <ele>174.6</ele>
        <time>2023-05-27T05:46:35Z</time>
      </trkpt>
      <trkpt lat="43.48689" lon="1.54598">
        <ele>174.6</ele>
        <time>2023-05-27T05:46:36Z</time>
      </trkpt>
      <trkpt lat="43.48683" lon="1.546">
        <ele>174.6</ele>
        <time>2023-05-27T05:46:37Z</time>
      </trkpt>
      <trkpt lat="43.48678" lon="1.54603">
        <ele>174.6</ele>
        <time>2023-05-27T05:46:38Z</time>
      </trkpt>
      <trkpt lat="43.48675" lon="1.54605">
        <ele>174.6</ele>
        <time>2023-05-27T05:46:39Z</time>
      </trkpt>
      <trkpt lat="43.4867" lon="1.54607">
        <ele>174.6</ele>
        <time>2023-05-27T05:46:40Z</time>
      </trkpt>
      <trkpt lat="43.48666" lon="1.54609">
        <ele>174.8</ele>
        <time>2023-05-27T05:46:41Z</time>
      </trkpt>
      <trkpt lat="43.48662" lon="1.5461">
        <ele>174.8</ele>
        <time>2023-05-27T05:46:42Z</time>
      </trkpt>
      <trkpt lat="43.48657" lon="1.54611">
        <ele>174.8</ele>
        <time>2023-05-27T05:46:43Z</time>
      </trkpt>
      <trkpt lat="43.48653" lon="1.54613">
        <ele>174.8</ele>
        <time>2023-05-27T05:46:44Z</time>
      </trkpt>
      <trkpt lat="43.4865" lon="1.54616">
        <ele>174.8</ele>
        <time>2023-05-27T05:46:45Z</time>
      </trkpt>
      <trkpt lat="43.48645" lon="1.54619">
        <ele>174.8</ele>
        <time>2023-05-27T05:46:46Z</time>
      </trkpt>
      <trkpt lat="43.48642" lon="1.5462">
        <ele>175</ele>
        <time>2023-05-27T05:46:47Z</time>
      </trkpt>
      <trkpt lat="43.48637" lon="1.54622">
        <ele>175</ele>
        <time>2023-05-27T05:46:48Z</time>
      </trkpt>
      <trkpt lat="43.48632" lon="1.54624">
        <ele>175</ele>
        <time>2023-05-27T05:46:49Z</time>
      </trkpt>
      <trkpt lat="43.48628" lon="1.54626">
        <ele>175</ele>
        <time>2023-05-27T05:46:50Z</time>
      </trkpt>
      <trkpt lat="43.48625" lon="1.54627">
        <ele>175</ele>
        <time>2023-05-27T05:46:51Z</time>
      </trkpt>
      <trkpt lat="43.48623" lon="1.54628">
        <ele>174.8</ele>
        <time>2023-05-27T05:46:52Z</time>
      </trkpt>
      <trkpt lat="43.48618" lon="1.54629">
        <ele>174.8</ele>
        <time>2023-05-27T05:46:53Z</time>
      </trkpt>
      <trkpt lat="43.48614" lon="1.5463">
        <ele>174.8</ele>
        <time>2023-05-27T05:46:54Z</time>
      </trkpt>
      <trkpt lat="43.48611" lon="1.54631">
        <ele>174.8</ele>
        <time>2023-05-27T05:46:55Z</time>
      </trkpt>
      <trkpt lat="43.48607" lon="1.54632">
        <ele>174.8</ele>
        <time>2023-05-27T05:46:56Z</time>
      </trkpt>
      <trkpt lat="43.48603" lon="1.54633">
        <ele>174.8</ele>
        <time>2023-05-27T05:46:57Z</time>
      </trkpt>
      <trkpt lat="43.48599" lon="1.54635">
        <ele>174.8</ele>
        <time>2023-05-27T05:46:58Z</time>
      </trkpt>
      <trkpt lat="43.48594" lon="1.54635">
        <ele>174.8</ele>
        <time>2023-05-27T05:46:59Z</time>
      </trkpt>
      <trkpt lat="43.4859" lon="1.54636">
        <ele>174.8</ele>
        <time>2023-05-27T05:47:00Z</time>
      </trkpt>
      <trkpt lat="43.48585" lon="1.54637">
        <ele>174.6</ele>
        <time>2023-05-27T05:47:01Z</time>
      </trkpt>
      <trkpt lat="43.4858" lon="1.54637">
        <ele>174.6</ele>
        <time>2023-05-27T05:47:02Z</time>
      </trkpt>
      <trkpt lat="43.48575" lon="1.54637">
        <ele>174.6</ele>
        <time>2023-05-27T05:47:03Z</time>
      </trkpt>
      <trkpt lat="43.48569" lon="1.54638">
        <ele>174.4</ele>
        <time>2023-05-27T05:47:04Z</time>
      </trkpt>
      <trkpt lat="43.48565" lon="1.54638">
        <ele>174.4</ele>
        <time>2023-05-27T05:47:05Z</time>
      </trkpt>
      <trkpt lat="43.4856" lon="1.54639">
        <ele>174.4</ele>
        <time>2023-05-27T05:47:06Z</time>
      </trkpt>
      <trkpt lat="43.48555" lon="1.5464">
        <ele>174.4</ele>
        <time>2023-05-27T05:47:07Z</time>
      </trkpt>
      <trkpt lat="43.4855" lon="1.54641">
        <ele>174.4</ele>
        <time>2023-05-27T05:47:08Z</time>
      </trkpt>
      <trkpt lat="43.48545" lon="1.54642">
        <ele>174.4</ele>
        <time>2023-05-27T05:47:09Z</time>
      </trkpt>
      <trkpt lat="43.4854" lon="1.54643">
        <ele>174.4</ele>
        <time>2023-05-27T05:47:10Z</time>
      </trkpt>
      <trkpt lat="43.48534" lon="1.54644">
        <ele>174.4</ele>
        <time>2023-05-27T05:47:11Z</time>
      </trkpt>
      <trkpt lat="43.4853" lon="1.54645">
        <ele>174.4</ele>
        <time>2023-05-27T05:47:12Z</time>
      </trkpt>
      <trkpt lat="43.48525" lon="1.54646">
        <ele>174.4</ele>
        <time>2023-05-27T05:47:13Z</time>
      </trkpt>
      <trkpt lat="43.48521" lon="1.54647">
        <ele>174.4</ele>
        <time>2023-05-27T05:47:14Z</time>
      </trkpt>
      <trkpt lat="43.48517" lon="1.54649">
        <ele>174.6</ele>
        <time>2023-05-27T05:47:15Z</time>
      </trkpt>
      <trkpt lat="43.48513" lon="1.5465">
        <ele>174.6</ele>
        <time>2023-05-27T05:47:16Z</time>
      </trkpt>
      <trkpt lat="43.48508" lon="1.54651">
        <ele>174.6</ele>
        <time>2023-05-27T05:47:17Z</time>
      </trkpt>
      <trkpt lat="43.48504" lon="1.54653">
        <ele>174.6</ele>
        <time>2023-05-27T05:47:18Z</time>
      </trkpt>
      <trkpt lat="43.48501" lon="1.54654">
        <ele>174.8</ele>
        <time>2023-05-27T05:47:19Z</time>
      </trkpt>
      <trkpt lat="43.48495" lon="1.54655">
        <ele>174.8</ele>
        <time>2023-05-27T05:47:20Z</time>
      </trkpt>
      <trkpt lat="43.4849" lon="1.54656">
        <ele>174.8</ele>
        <time>2023-05-27T05:47:21Z</time>
      </trkpt>
      <trkpt lat="43.48487" lon="1.54658">
        <ele>174.8</ele>
        <time>2023-05-27T05:47:22Z</time>
      </trkpt>
      <trkpt lat="43.48485" lon="1.54659">
        <ele>174.8</ele>
        <time>2023-05-27T05:47:23Z</time>
      </trkpt>
      <trkpt lat="43.4848" lon="1.54662">
        <ele>175</ele>
        <time>2023-05-27T05:47:24Z</time>
      </trkpt>
      <trkpt lat="43.48476" lon="1.54664">
        <ele>175</ele>
        <time>2023-05-27T05:47:25Z</time>
      </trkpt>
      <trkpt lat="43.48471" lon="1.54666">
        <ele>175</ele>
        <time>2023-05-27T05:47:26Z</time>
      </trkpt>
      <trkpt lat="43.48468" lon="1.54668">
        <ele>175</ele>
        <time>2023-05-27T05:47:27Z</time>
      </trkpt>
      <trkpt lat="43.48463" lon="1.54669">
        <ele>175</ele>
        <time>2023-05-27T05:47:28Z</time>
      </trkpt>
      <trkpt lat="43.48457" lon="1.54672">
        <ele>175.2</ele>
        <time>2023-05-27T05:47:29Z</time>
      </trkpt>
      <trkpt lat="43.48453" lon="1.54674">
        <ele>175.2</ele>
        <time>2023-05-27T05:47:30Z</time>
      </trkpt>
      <trkpt lat="43.48451" lon="1.54675">
        <ele>175.2</ele>
        <time>2023-05-27T05:47:31Z</time>
      </trkpt>
      <trkpt lat="43.48446" lon="1.54678">
        <ele>175.2</ele>
        <time>2023-05-27T05:47:32Z</time>
      </trkpt>
      <trkpt lat="43.48442" lon="1.54679">
        <ele>175.2</ele>
        <time>2023-05-27T05:47:33Z</time>
      </trkpt>
      <trkpt lat="43.48436" lon="1.54681">
        <ele>175.2</ele>
        <time>2023-05-27T05:47:34Z</time>
      </trkpt>
      <trkpt lat="43.48432" lon="1.54682">
        <ele>175.2</ele>
        <time>2023-05-27T05:47:35Z</time>
      </trkpt>
      <trkpt lat="43.48427" lon="1.54684">
        <ele>175.2</ele>
        <time>2023-05-27T05:47:36Z</time>
      </trkpt>
      <trkpt lat="43.48422" lon="1.54685">
        <ele>175.2</ele>
        <time>2023-05-27T05:47:37Z</time>
      </trkpt>
      <trkpt lat="43.48418" lon="1.54687">
        <ele>175.2</ele>
        <time>2023-05-27T05:47:38Z</time>
      </trkpt>
      <trkpt lat="43.48414" lon="1.54687">
        <ele>175.2</ele>
        <time>2023-05-27T05:47:39Z</time>
      </trkpt>
      <trkpt lat="43.48408" lon="1.54688">
        <ele>175.2</ele>
        <time>2023-05-27T05:47:40Z</time>
      </trkpt>
      <trkpt lat="43.48402" lon="1.54689">
        <ele>175.2</ele>
        <time>2023-05-27T05:47:41Z</time>
      </trkpt>
      <trkpt lat="43.48396" lon="1.5469">
        <ele>175.2</ele>
        <time>2023-05-27T05:47:42Z</time>
      </trkpt>
      <trkpt lat="43.48391" lon="1.54689">
        <ele>175.2</ele>
        <time>2023-05-27T05:47:43Z</time>
      </trkpt>
      <trkpt lat="43.48386" lon="1.54688">
        <ele>175.2</ele>
        <time>2023-05-27T05:47:44Z</time>
      </trkpt>
      <trkpt lat="43.48383" lon="1.54687">
        <ele>175.2</ele>
        <time>2023-05-27T05:47:45Z</time>
      </trkpt>
      <trkpt lat="43.4838" lon="1.54687">
        <ele>175.2</ele>
        <time>2023-05-27T05:47:46Z</time>
      </trkpt>
      <trkpt lat="43.48377" lon="1.54686">
        <ele>175.2</ele>
        <time>2023-05-27T05:47:47Z</time>
      </trkpt>
      <trkpt lat="43.48372" lon="1.54686">
        <ele>175.2</ele>
        <time>2023-05-27T05:47:48Z</time>
      </trkpt>
      <trkpt lat="43.48368" lon="1.54685">
        <ele>175.2</ele>
        <time>2023-05-27T05:47:49Z</time>
      </trkpt>
      <trkpt lat="43.48365" lon="1.54685">
        <ele>175.2</ele>
        <time>2023-05-27T05:47:50Z</time>
      </trkpt>
      <trkpt lat="43.48361" lon="1.54683">
        <ele>175.2</ele>
        <time>2023-05-27T05:47:51Z</time>
      </trkpt>
      <trkpt lat="43.48358" lon="1.54682">
        <ele>175</ele>
        <time>2023-05-27T05:47:52Z</time>
      </trkpt>
      <trkpt lat="43.48353" lon="1.54682">
        <ele>175</ele>
        <time>2023-05-27T05:47:53Z</time>
      </trkpt>
      <trkpt lat="43.4835" lon="1.54681">
        <ele>175</ele>
        <time>2023-05-27T05:47:54Z</time>
      </trkpt>
      <trkpt lat="43.48347" lon="1.5468">
        <ele>175</ele>
        <time>2023-05-27T05:47:55Z</time>
      </trkpt>
      <trkpt lat="43.48343" lon="1.54679">
        <ele>175</ele>
        <time>2023-05-27T05:47:56Z</time>
      </trkpt>
      <trkpt lat="43.48339" lon="1.54678">
        <ele>175</ele>
        <time>2023-05-27T05:47:57Z</time>
      </trkpt>
      <trkpt lat="43.48335" lon="1.54676">
        <ele>175</ele>
        <time>2023-05-27T05:47:58Z</time>
      </trkpt>
      <trkpt lat="43.48332" lon="1.54676">
        <ele>175.2</ele>
        <time>2023-05-27T05:47:59Z</time>
      </trkpt>
      <trkpt lat="43.48328" lon="1.54675">
        <ele>175.2</ele>
        <time>2023-05-27T05:48:00Z</time>
      </trkpt>
      <trkpt lat="43.48323" lon="1.54674">
        <ele>175.2</ele>
        <time>2023-05-27T05:48:01Z</time>
      </trkpt>
      <trkpt lat="43.48319" lon="1.54675">
        <ele>175.2</ele>
        <time>2023-05-27T05:48:02Z</time>
      </trkpt>
      <trkpt lat="43.48314" lon="1.54675">
        <ele>175.4</ele>
        <time>2023-05-27T05:48:03Z</time>
      </trkpt>
      <trkpt lat="43.48309" lon="1.54675">
        <ele>175.4</ele>
        <time>2023-05-27T05:48:04Z</time>
      </trkpt>
      <trkpt lat="43.48306" lon="1.54676">
        <ele>175.4</ele>
        <time>2023-05-27T05:48:05Z</time>
      </trkpt>
      <trkpt lat="43.48302" lon="1.54677">
        <ele>175.4</ele>
        <time>2023-05-27T05:48:06Z</time>
      </trkpt>
      <trkpt lat="43.48298" lon="1.54679">
        <ele>175.4</ele>
        <time>2023-05-27T05:48:07Z</time>
      </trkpt>
      <trkpt lat="43.48293" lon="1.54682">
        <ele>175.6</ele>
        <time>2023-05-27T05:48:08Z</time>
      </trkpt>
      <trkpt lat="43.48289" lon="1.54685">
        <ele>175.6</ele>
        <time>2023-05-27T05:48:09Z</time>
      </trkpt>
      <trkpt lat="43.48286" lon="1.54687">
        <ele>175.6</ele>
        <time>2023-05-27T05:48:10Z</time>
      </trkpt>
      <trkpt lat="43.48283" lon="1.5469">
        <ele>175.6</ele>
        <time>2023-05-27T05:48:11Z</time>
      </trkpt>
      <trkpt lat="43.48279" lon="1.54693">
        <ele>175.6</ele>
        <time>2023-05-27T05:48:12Z</time>
      </trkpt>
      <trkpt lat="43.48275" lon="1.54696">
        <ele>175.6</ele>
        <time>2023-05-27T05:48:13Z</time>
      </trkpt>
      <trkpt lat="43.48269" lon="1.547">
        <ele>175.6</ele>
        <time>2023-05-27T05:48:14Z</time>
      </trkpt>
      <trkpt lat="43.48265" lon="1.54702">
        <ele>175.6</ele>
        <time>2023-05-27T05:48:15Z</time>
      </trkpt>
      <trkpt lat="43.48261" lon="1.54706">
        <ele>175.6</ele>
        <time>2023-05-27T05:48:16Z</time>
      </trkpt>
      <trkpt lat="43.48257" lon="1.5471">
        <ele>175.4</ele>
        <time>2023-05-27T05:48:17Z</time>
      </trkpt>
      <trkpt lat="43.48252" lon="1.54714">
        <ele>175.4</ele>
        <time>2023-05-27T05:48:18Z</time>
      </trkpt>
      <trkpt lat="43.48247" lon="1.54721">
        <ele>175.4</ele>
        <time>2023-05-27T05:48:19Z</time>
      </trkpt>
      <trkpt lat="43.48243" lon="1.54724">
        <ele>175.4</ele>
        <time>2023-05-27T05:48:20Z</time>
      </trkpt>
      <trkpt lat="43.48242" lon="1.54726">
        <ele>175.4</ele>
        <time>2023-05-27T05:48:21Z</time>
      </trkpt>
      <trkpt lat="43.48239" lon="1.54729">
        <ele>175.4</ele>
        <time>2023-05-27T05:48:22Z</time>
      </trkpt>
      <trkpt lat="43.48236" lon="1.54732">
        <ele>175.4</ele>
        <time>2023-05-27T05:48:23Z</time>
      </trkpt>
      <trkpt lat="43.48233" lon="1.54735">
        <ele>175.4</ele>
        <time>2023-05-27T05:48:24Z</time>
      </trkpt>
      <trkpt lat="43.4823" lon="1.54738">
        <ele>175.6</ele>
        <time>2023-05-27T05:48:25Z</time>
      </trkpt>
      <trkpt lat="43.48225" lon="1.54742">
        <ele>175.6</ele>
        <time>2023-05-27T05:48:26Z</time>
      </trkpt>
      <trkpt lat="43.48218" lon="1.54748">
        <ele>175.6</ele>
        <time>2023-05-27T05:48:27Z</time>
      </trkpt>
      <trkpt lat="43.48213" lon="1.54752">
        <ele>175.6</ele>
        <time>2023-05-27T05:48:28Z</time>
      </trkpt>
      <trkpt lat="43.48209" lon="1.54755">
        <ele>175.6</ele>
        <time>2023-05-27T05:48:29Z</time>
      </trkpt>
      <trkpt lat="43.48205" lon="1.54758">
        <ele>175.8</ele>
        <time>2023-05-27T05:48:30Z</time>
      </trkpt>
      <trkpt lat="43.48202" lon="1.5476">
        <ele>175.8</ele>
        <time>2023-05-27T05:48:31Z</time>
      </trkpt>
      <trkpt lat="43.48199" lon="1.54763">
        <ele>175.8</ele>
        <time>2023-05-27T05:48:32Z</time>
      </trkpt>
      <trkpt lat="43.48197" lon="1.54766">
        <ele>175.8</ele>
        <time>2023-05-27T05:48:33Z</time>
      </trkpt>
      <trkpt lat="43.48192" lon="1.54769">
        <ele>175.8</ele>
        <time>2023-05-27T05:48:34Z</time>
      </trkpt>
      <trkpt lat="43.48189" lon="1.54772">
        <ele>175.8</ele>
        <time>2023-05-27T05:48:35Z</time>
      </trkpt>
      <trkpt lat="43.48184" lon="1.54775">
        <ele>175.8</ele>
        <time>2023-05-27T05:48:36Z</time>
      </trkpt>
      <trkpt lat="43.48181" lon="1.54777">
        <ele>175.8</ele>
        <time>2023-05-27T05:48:37Z</time>
      </trkpt>
      <trkpt lat="43.48177" lon="1.5478">
        <ele>175.8</ele>
        <time>2023-05-27T05:48:38Z</time>
      </trkpt>
      <trkpt lat="43.48173" lon="1.54783">
        <ele>175.8</ele>
        <time>2023-05-27T05:48:39Z</time>
      </trkpt>
      <trkpt lat="43.48171" lon="1.54785">
        <ele>175.8</ele>
        <time>2023-05-27T05:48:40Z</time>
      </trkpt>
      <trkpt lat="43.48167" lon="1.54787">
        <ele>175.8</ele>
        <time>2023-05-27T05:48:41Z</time>
      </trkpt>
      <trkpt lat="43.48163" lon="1.5479">
        <ele>175.8</ele>
        <time>2023-05-27T05:48:42Z</time>
      </trkpt>
      <trkpt lat="43.48159" lon="1.54792">
        <ele>175.6</ele>
        <time>2023-05-27T05:48:43Z</time>
      </trkpt>
      <trkpt lat="43.48156" lon="1.54794">
        <ele>175.6</ele>
        <time>2023-05-27T05:48:44Z</time>
      </trkpt>
      <trkpt lat="43.48151" lon="1.54797">
        <ele>175.6</ele>
        <time>2023-05-27T05:48:45Z</time>
      </trkpt>
      <trkpt lat="43.48147" lon="1.54799">
        <ele>175.4</ele>
        <time>2023-05-27T05:48:46Z</time>
      </trkpt>
      <trkpt lat="43.48144" lon="1.54801">
        <ele>175.2</ele>
        <time>2023-05-27T05:48:47Z</time>
      </trkpt>
      <trkpt lat="43.4814" lon="1.54802">
        <ele>175.2</ele>
        <time>2023-05-27T05:48:48Z</time>
      </trkpt>
      <trkpt lat="43.48135" lon="1.54804">
        <ele>175</ele>
        <time>2023-05-27T05:48:49Z</time>
      </trkpt>
      <trkpt lat="43.4813" lon="1.54804">
        <ele>174.8</ele>
        <time>2023-05-27T05:48:50Z</time>
      </trkpt>
      <trkpt lat="43.48125" lon="1.54806">
        <ele>174.6</ele>
        <time>2023-05-27T05:48:51Z</time>
      </trkpt>
      <trkpt lat="43.4812" lon="1.54808">
        <ele>174.6</ele>
        <time>2023-05-27T05:48:52Z</time>
      </trkpt>
      <trkpt lat="43.48116" lon="1.54811">
        <ele>174.4</ele>
        <time>2023-05-27T05:48:53Z</time>
      </trkpt>
      <trkpt lat="43.48111" lon="1.54815">
        <ele>174.4</ele>
        <time>2023-05-27T05:48:54Z</time>
      </trkpt>
      <trkpt lat="43.48106" lon="1.54819">
        <ele>174.2</ele>
        <time>2023-05-27T05:48:55Z</time>
      </trkpt>
      <trkpt lat="43.481" lon="1.54824">
        <ele>174.2</ele>
        <time>2023-05-27T05:48:56Z</time>
      </trkpt>
      <trkpt lat="43.48095" lon="1.54829">
        <ele>174.2</ele>
        <time>2023-05-27T05:48:57Z</time>
      </trkpt>
      <trkpt lat="43.48091" lon="1.54835">
        <ele>174.2</ele>
        <time>2023-05-27T05:48:58Z</time>
      </trkpt>
      <trkpt lat="43.48088" lon="1.5484">
        <ele>174</ele>
        <time>2023-05-27T05:48:59Z</time>
      </trkpt>
      <trkpt lat="43.48085" lon="1.54848">
        <ele>174</ele>
        <time>2023-05-27T05:49:00Z</time>
      </trkpt>
      <trkpt lat="43.48082" lon="1.54853">
        <ele>174</ele>
        <time>2023-05-27T05:49:01Z</time>
      </trkpt>
      <trkpt lat="43.48079" lon="1.5486">
        <ele>174</ele>
        <time>2023-05-27T05:49:02Z</time>
      </trkpt>
      <trkpt lat="43.48078" lon="1.54866">
        <ele>174</ele>
        <time>2023-05-27T05:49:03Z</time>
      </trkpt>
      <trkpt lat="43.48076" lon="1.54872">
        <ele>174</ele>
        <time>2023-05-27T05:49:04Z</time>
      </trkpt>
      <trkpt lat="43.48077" lon="1.54877">
        <ele>174.2</ele>
        <time>2023-05-27T05:49:05Z</time>
      </trkpt>
      <trkpt lat="43.48077" lon="1.54884">
        <ele>174.2</ele>
        <time>2023-05-27T05:49:06Z</time>
      </trkpt>
      <trkpt lat="43.48077" lon="1.5489">
        <ele>174.4</ele>
        <time>2023-05-27T05:49:07Z</time>
      </trkpt>
      <trkpt lat="43.48077" lon="1.54897">
        <ele>174.6</ele>
        <time>2023-05-27T05:49:08Z</time>
      </trkpt>
      <trkpt lat="43.48077" lon="1.54902">
        <ele>174.6</ele>
        <time>2023-05-27T05:49:09Z</time>
      </trkpt>
      <trkpt lat="43.48077" lon="1.54905">
        <ele>174.8</ele>
        <time>2023-05-27T05:49:10Z</time>
      </trkpt>
      <trkpt lat="43.48077" lon="1.54909">
        <ele>175</ele>
        <time>2023-05-27T05:49:11Z</time>
      </trkpt>
      <trkpt lat="43.48077" lon="1.54914">
        <ele>175</ele>
        <time>2023-05-27T05:49:12Z</time>
      </trkpt>
      <trkpt lat="43.48076" lon="1.54918">
        <ele>175.2</ele>
        <time>2023-05-27T05:49:13Z</time>
      </trkpt>
      <trkpt lat="43.48076" lon="1.54922">
        <ele>175.2</ele>
        <time>2023-05-27T05:49:14Z</time>
      </trkpt>
      <trkpt lat="43.48075" lon="1.54927">
        <ele>175.4</ele>
        <time>2023-05-27T05:49:15Z</time>
      </trkpt>
      <trkpt lat="43.48075" lon="1.54933">
        <ele>175.4</ele>
        <time>2023-05-27T05:49:16Z</time>
      </trkpt>
      <trkpt lat="43.48073" lon="1.54938">
        <ele>175.4</ele>
        <time>2023-05-27T05:49:17Z</time>
      </trkpt>
      <trkpt lat="43.48071" lon="1.54945">
        <ele>175.4</ele>
        <time>2023-05-27T05:49:18Z</time>
      </trkpt>
      <trkpt lat="43.4807" lon="1.5495">
        <ele>175.4</ele>
        <time>2023-05-27T05:49:19Z</time>
      </trkpt>
      <trkpt lat="43.4807" lon="1.54955">
        <ele>175.4</ele>
        <time>2023-05-27T05:49:20Z</time>
      </trkpt>
      <trkpt lat="43.48068" lon="1.54962">
        <ele>175.4</ele>
        <time>2023-05-27T05:49:21Z</time>
      </trkpt>
      <trkpt lat="43.48067" lon="1.54967">
        <ele>175.4</ele>
        <time>2023-05-27T05:49:22Z</time>
      </trkpt>
      <trkpt lat="43.48066" lon="1.54972">
        <ele>175.4</ele>
        <time>2023-05-27T05:49:23Z</time>
      </trkpt>
      <trkpt lat="43.48065" lon="1.54976">
        <ele>175.2</ele>
        <time>2023-05-27T05:49:24Z</time>
      </trkpt>
      <trkpt lat="43.48064" lon="1.54983">
        <ele>175.2</ele>
        <time>2023-05-27T05:49:25Z</time>
      </trkpt>
      <trkpt lat="43.48062" lon="1.54987">
        <ele>175.2</ele>
        <time>2023-05-27T05:49:26Z</time>
      </trkpt>
      <trkpt lat="43.48061" lon="1.54993">
        <ele>175.2</ele>
        <time>2023-05-27T05:49:27Z</time>
      </trkpt>
      <trkpt lat="43.48059" lon="1.54997">
        <ele>175.2</ele>
        <time>2023-05-27T05:49:28Z</time>
      </trkpt>
      <trkpt lat="43.48056" lon="1.55002">
        <ele>175.2</ele>
        <time>2023-05-27T05:49:29Z</time>
      </trkpt>
      <trkpt lat="43.48053" lon="1.55008">
        <ele>175.2</ele>
        <time>2023-05-27T05:49:30Z</time>
      </trkpt>
      <trkpt lat="43.48051" lon="1.55012">
        <ele>175.2</ele>
        <time>2023-05-27T05:49:31Z</time>
      </trkpt>
      <trkpt lat="43.48048" lon="1.55017">
        <ele>175.2</ele>
        <time>2023-05-27T05:49:32Z</time>
      </trkpt>
      <trkpt lat="43.48045" lon="1.5502">
        <ele>175.2</ele>
        <time>2023-05-27T05:49:33Z</time>
      </trkpt>
      <trkpt lat="43.48043" lon="1.55023">
        <ele>175.2</ele>
        <time>2023-05-27T05:49:34Z</time>
      </trkpt>
      <trkpt lat="43.48039" lon="1.55027">
        <ele>175.2</ele>
        <time>2023-05-27T05:49:35Z</time>
      </trkpt>
      <trkpt lat="43.48034" lon="1.55032">
        <ele>175.2</ele>
        <time>2023-05-27T05:49:36Z</time>
      </trkpt>
      <trkpt lat="43.4803" lon="1.55036">
        <ele>175.2</ele>
        <time>2023-05-27T05:49:37Z</time>
      </trkpt>
      <trkpt lat="43.48025" lon="1.5504">
        <ele>175.2</ele>
        <time>2023-05-27T05:49:38Z</time>
      </trkpt>
      <trkpt lat="43.48022" lon="1.55043">
        <ele>175.2</ele>
        <time>2023-05-27T05:49:39Z</time>
      </trkpt>
      <trkpt lat="43.48019" lon="1.55046">
        <ele>175.2</ele>
        <time>2023-05-27T05:49:40Z</time>
      </trkpt>
      <trkpt lat="43.48015" lon="1.5505">
        <ele>175.2</ele>
        <time>2023-05-27T05:49:41Z</time>
      </trkpt>
      <trkpt lat="43.4801" lon="1.55055">
        <ele>175.2</ele>
        <time>2023-05-27T05:49:42Z</time>
      </trkpt>
      <trkpt lat="43.48004" lon="1.55059">
        <ele>175.2</ele>
        <time>2023-05-27T05:49:43Z</time>
      </trkpt>
      <trkpt lat="43.48" lon="1.55062">
        <ele>175.4</ele>
        <time>2023-05-27T05:49:44Z</time>
      </trkpt>
      <trkpt lat="43.47995" lon="1.55065">
        <ele>175.4</ele>
        <time>2023-05-27T05:49:45Z</time>
      </trkpt>
      <trkpt lat="43.47991" lon="1.55069">
        <ele>175.4</ele>
        <time>2023-05-27T05:49:46Z</time>
      </trkpt>
      <trkpt lat="43.47988" lon="1.55072">
        <ele>175.4</ele>
        <time>2023-05-27T05:49:47Z</time>
      </trkpt>
      <trkpt lat="43.47984" lon="1.55075">
        <ele>175.6</ele>
        <time>2023-05-27T05:49:48Z</time>
      </trkpt>
      <trkpt lat="43.4798" lon="1.55079">
        <ele>175.6</ele>
        <time>2023-05-27T05:49:49Z</time>
      </trkpt>
      <trkpt lat="43.47976" lon="1.55082">
        <ele>175.6</ele>
        <time>2023-05-27T05:49:50Z</time>
      </trkpt>
      <trkpt lat="43.47972" lon="1.55085">
        <ele>175.8</ele>
        <time>2023-05-27T05:49:51Z</time>
      </trkpt>
      <trkpt lat="43.47967" lon="1.55088">
        <ele>175.8</ele>
        <time>2023-05-27T05:49:52Z</time>
      </trkpt>
      <trkpt lat="43.47964" lon="1.5509">
        <ele>175.8</ele>
        <time>2023-05-27T05:49:53Z</time>
      </trkpt>
      <trkpt lat="43.47959" lon="1.55092">
        <ele>175.8</ele>
        <time>2023-05-27T05:49:54Z</time>
      </trkpt>
      <trkpt lat="43.47956" lon="1.55095">
        <ele>175.8</ele>
        <time>2023-05-27T05:49:55Z</time>
      </trkpt>
      <trkpt lat="43.47953" lon="1.55096">
        <ele>175.8</ele>
        <time>2023-05-27T05:49:56Z</time>
      </trkpt>
      <trkpt lat="43.4795" lon="1.55098">
        <ele>175.8</ele>
        <time>2023-05-27T05:49:57Z</time>
      </trkpt>
      <trkpt lat="43.47946" lon="1.551">
        <ele>175.8</ele>
        <time>2023-05-27T05:49:58Z</time>
      </trkpt>
      <trkpt lat="43.47941" lon="1.55103">
        <ele>175.8</ele>
        <time>2023-05-27T05:49:59Z</time>
      </trkpt>
      <trkpt lat="43.47936" lon="1.55107">
        <ele>175.8</ele>
        <time>2023-05-27T05:50:00Z</time>
      </trkpt>
      <trkpt lat="43.47931" lon="1.55109">
        <ele>175.8</ele>
        <time>2023-05-27T05:50:01Z</time>
      </trkpt>
      <trkpt lat="43.47926" lon="1.55111">
        <ele>175.8</ele>
        <time>2023-05-27T05:50:02Z</time>
      </trkpt>
      <trkpt lat="43.47921" lon="1.55114">
        <ele>175.8</ele>
        <time>2023-05-27T05:50:03Z</time>
      </trkpt>
      <trkpt lat="43.47917" lon="1.55116">
        <ele>175.8</ele>
        <time>2023-05-27T05:50:04Z</time>
      </trkpt>
      <trkpt lat="43.47912" lon="1.55119">
        <ele>175.6</ele>
        <time>2023-05-27T05:50:05Z</time>
      </trkpt>
      <trkpt lat="43.47907" lon="1.55123">
        <ele>175.6</ele>
        <time>2023-05-27T05:50:06Z</time>
      </trkpt>
      <trkpt lat="43.47903" lon="1.55126">
        <ele>175.6</ele>
        <time>2023-05-27T05:50:07Z</time>
      </trkpt>
      <trkpt lat="43.47899" lon="1.55128">
        <ele>175.6</ele>
        <time>2023-05-27T05:50:08Z</time>
      </trkpt>
      <trkpt lat="43.47895" lon="1.55131">
        <ele>175.4</ele>
        <time>2023-05-27T05:50:09Z</time>
      </trkpt>
      <trkpt lat="43.4789" lon="1.55134">
        <ele>175.4</ele>
        <time>2023-05-27T05:50:10Z</time>
      </trkpt>
      <trkpt lat="43.47887" lon="1.55137">
        <ele>175.4</ele>
        <time>2023-05-27T05:50:11Z</time>
      </trkpt>
      <trkpt lat="43.47882" lon="1.55141">
        <ele>175.2</ele>
        <time>2023-05-27T05:50:12Z</time>
      </trkpt>
      <trkpt lat="43.47879" lon="1.55144">
        <ele>175.2</ele>
        <time>2023-05-27T05:50:13Z</time>
      </trkpt>
      <trkpt lat="43.47876" lon="1.55147">
        <ele>175.2</ele>
        <time>2023-05-27T05:50:14Z</time>
      </trkpt>
      <trkpt lat="43.47874" lon="1.55149">
        <ele>175.2</ele>
        <time>2023-05-27T05:50:15Z</time>
      </trkpt>
      <trkpt lat="43.47871" lon="1.55152">
        <ele>175.2</ele>
        <time>2023-05-27T05:50:16Z</time>
      </trkpt>
      <trkpt lat="43.47868" lon="1.55154">
        <ele>175.4</ele>
        <time>2023-05-27T05:50:17Z</time>
      </trkpt>
      <trkpt lat="43.47865" lon="1.55158">
        <ele>175.4</ele>
        <time>2023-05-27T05:50:18Z</time>
      </trkpt>
      <trkpt lat="43.47862" lon="1.55161">
        <ele>175.4</ele>
        <time>2023-05-27T05:50:19Z</time>
      </trkpt>
      <trkpt lat="43.4786" lon="1.55165">
        <ele>175.4</ele>
        <time>2023-05-27T05:50:20Z</time>
      </trkpt>
      <trkpt lat="43.47859" lon="1.55168">
        <ele>175.6</ele>
        <time>2023-05-27T05:50:21Z</time>
      </trkpt>
      <trkpt lat="43.47856" lon="1.55171">
        <ele>175.6</ele>
        <time>2023-05-27T05:50:22Z</time>
      </trkpt>
      <trkpt lat="43.47852" lon="1.55175">
        <ele>175.6</ele>
        <time>2023-05-27T05:50:23Z</time>
      </trkpt>
      <trkpt lat="43.4785" lon="1.5518">
        <ele>175.6</ele>
        <time>2023-05-27T05:50:24Z</time>
      </trkpt>
      <trkpt lat="43.47846" lon="1.55184">
        <ele>175.8</ele>
        <time>2023-05-27T05:50:25Z</time>
      </trkpt>
      <trkpt lat="43.47843" lon="1.55189">
        <ele>175.8</ele>
        <time>2023-05-27T05:50:26Z</time>
      </trkpt>
      <trkpt lat="43.47841" lon="1.55193">
        <ele>175.8</ele>
        <time>2023-05-27T05:50:27Z</time>
      </trkpt>
      <trkpt lat="43.47838" lon="1.55196">
        <ele>176</ele>
        <time>2023-05-27T05:50:28Z</time>
      </trkpt>
      <trkpt lat="43.47835" lon="1.55199">
        <ele>176</ele>
        <time>2023-05-27T05:50:29Z</time>
      </trkpt>
      <trkpt lat="43.47832" lon="1.55202">
        <ele>176</ele>
        <time>2023-05-27T05:50:30Z</time>
      </trkpt>
      <trkpt lat="43.47829" lon="1.55205">
        <ele>176</ele>
        <time>2023-05-27T05:50:31Z</time>
      </trkpt>
      <trkpt lat="43.47825" lon="1.5521">
        <ele>176</ele>
        <time>2023-05-27T05:50:32Z</time>
      </trkpt>
      <trkpt lat="43.47821" lon="1.55216">
        <ele>176</ele>
        <time>2023-05-27T05:50:33Z</time>
      </trkpt>
      <trkpt lat="43.47817" lon="1.55221">
        <ele>176</ele>
        <time>2023-05-27T05:50:34Z</time>
      </trkpt>
      <trkpt lat="43.47813" lon="1.55225">
        <ele>175.8</ele>
        <time>2023-05-27T05:50:35Z</time>
      </trkpt>
      <trkpt lat="43.47809" lon="1.55231">
        <ele>175.8</ele>
        <time>2023-05-27T05:50:36Z</time>
      </trkpt>
      <trkpt lat="43.47803" lon="1.55237">
        <ele>175.6</ele>
        <time>2023-05-27T05:50:37Z</time>
      </trkpt>
      <trkpt lat="43.47798" lon="1.55242">
        <ele>175.4</ele>
        <time>2023-05-27T05:50:38Z</time>
      </trkpt>
      <trkpt lat="43.47793" lon="1.55248">
        <ele>175.2</ele>
        <time>2023-05-27T05:50:39Z</time>
      </trkpt>
      <trkpt lat="43.47789" lon="1.55252">
        <ele>175.2</ele>
        <time>2023-05-27T05:50:40Z</time>
      </trkpt>
      <trkpt lat="43.47785" lon="1.55255">
        <ele>175.2</ele>
        <time>2023-05-27T05:50:41Z</time>
      </trkpt>
      <trkpt lat="43.47781" lon="1.5526">
        <ele>175.2</ele>
        <time>2023-05-27T05:50:42Z</time>
      </trkpt>
      <trkpt lat="43.47777" lon="1.55264">
        <ele>175.2</ele>
        <time>2023-05-27T05:50:43Z</time>
      </trkpt>
      <trkpt lat="43.47774" lon="1.55267">
        <ele>175.4</ele>
        <time>2023-05-27T05:50:44Z</time>
      </trkpt>
      <trkpt lat="43.47772" lon="1.5527">
        <ele>175.6</ele>
        <time>2023-05-27T05:50:45Z</time>
      </trkpt>
      <trkpt lat="43.47769" lon="1.55272">
        <ele>175.8</ele>
        <time>2023-05-27T05:50:46Z</time>
      </trkpt>
      <trkpt lat="43.47767" lon="1.55274">
        <ele>176</ele>
        <time>2023-05-27T05:50:47Z</time>
      </trkpt>
      <trkpt lat="43.47765" lon="1.55276">
        <ele>176.2</ele>
        <time>2023-05-27T05:50:48Z</time>
      </trkpt>
      <trkpt lat="43.47763" lon="1.55278">
        <ele>176.4</ele>
        <time>2023-05-27T05:50:49Z</time>
      </trkpt>
      <trkpt lat="43.47762" lon="1.5528">
        <ele>176.6</ele>
        <time>2023-05-27T05:50:50Z</time>
      </trkpt>
      <trkpt lat="43.47761" lon="1.55282">
        <ele>176.6</ele>
        <time>2023-05-27T05:50:51Z</time>
      </trkpt>
      <trkpt lat="43.4776" lon="1.55284">
        <ele>176.8</ele>
        <time>2023-05-27T05:50:52Z</time>
      </trkpt>
      <trkpt lat="43.47758" lon="1.55286">
        <ele>176.8</ele>
        <time>2023-05-27T05:50:53Z</time>
      </trkpt>
      <trkpt lat="43.47756" lon="1.55288">
        <ele>176.6</ele>
        <time>2023-05-27T05:50:54Z</time>
      </trkpt>
      <trkpt lat="43.47753" lon="1.55291">
        <ele>176.4</ele>
        <time>2023-05-27T05:50:55Z</time>
      </trkpt>
      <trkpt lat="43.4775" lon="1.55295">
        <ele>176.4</ele>
        <time>2023-05-27T05:50:56Z</time>
      </trkpt>
      <trkpt lat="43.47747" lon="1.55298">
        <ele>176.2</ele>
        <time>2023-05-27T05:50:57Z</time>
      </trkpt>
      <trkpt lat="43.47742" lon="1.55304">
        <ele>176</ele>
        <time>2023-05-27T05:50:58Z</time>
      </trkpt>
      <trkpt lat="43.47738" lon="1.55308">
        <ele>175.8</ele>
        <time>2023-05-27T05:50:59Z</time>
      </trkpt>
      <trkpt lat="43.47733" lon="1.55314">
        <ele>175.6</ele>
        <time>2023-05-27T05:51:00Z</time>
      </trkpt>
      <trkpt lat="43.47729" lon="1.55318">
        <ele>175.4</ele>
        <time>2023-05-27T05:51:01Z</time>
      </trkpt>
      <trkpt lat="43.47724" lon="1.55324">
        <ele>175.4</ele>
        <time>2023-05-27T05:51:02Z</time>
      </trkpt>
      <trkpt lat="43.47721" lon="1.55328">
        <ele>175.2</ele>
        <time>2023-05-27T05:51:03Z</time>
      </trkpt>
      <trkpt lat="43.47715" lon="1.55333">
        <ele>175.2</ele>
        <time>2023-05-27T05:51:04Z</time>
      </trkpt>
      <trkpt lat="43.47711" lon="1.55337">
        <ele>175.2</ele>
        <time>2023-05-27T05:51:05Z</time>
      </trkpt>
      <trkpt lat="43.47707" lon="1.55341">
        <ele>175.2</ele>
        <time>2023-05-27T05:51:06Z</time>
      </trkpt>
      <trkpt lat="43.47703" lon="1.55345">
        <ele>175.2</ele>
        <time>2023-05-27T05:51:07Z</time>
      </trkpt>
      <trkpt lat="43.47699" lon="1.55349">
        <ele>175.2</ele>
        <time>2023-05-27T05:51:08Z</time>
      </trkpt>
      <trkpt lat="43.47694" lon="1.55354">
        <ele>175</ele>
        <time>2023-05-27T05:51:09Z</time>
      </trkpt>
      <trkpt lat="43.47691" lon="1.55357">
        <ele>175.2</ele>
        <time>2023-05-27T05:51:10Z</time>
      </trkpt>
      <trkpt lat="43.47688" lon="1.55361">
        <ele>175.2</ele>
        <time>2023-05-27T05:51:11Z</time>
      </trkpt>
      <trkpt lat="43.47683" lon="1.55365">
        <ele>175.2</ele>
        <time>2023-05-27T05:51:12Z</time>
      </trkpt>
      <trkpt lat="43.4768" lon="1.55368">
        <ele>175.2</ele>
        <time>2023-05-27T05:51:13Z</time>
      </trkpt>
      <trkpt lat="43.47676" lon="1.55372">
        <ele>175.2</ele>
        <time>2023-05-27T05:51:14Z</time>
      </trkpt>
      <trkpt lat="43.47673" lon="1.55376">
        <ele>175.2</ele>
        <time>2023-05-27T05:51:15Z</time>
      </trkpt>
      <trkpt lat="43.47669" lon="1.55379">
        <ele>175.4</ele>
        <time>2023-05-27T05:51:16Z</time>
      </trkpt>
      <trkpt lat="43.47666" lon="1.55383">
        <ele>175.4</ele>
        <time>2023-05-27T05:51:17Z</time>
      </trkpt>
      <trkpt lat="43.47662" lon="1.55387">
        <ele>175.4</ele>
        <time>2023-05-27T05:51:18Z</time>
      </trkpt>
      <trkpt lat="43.47659" lon="1.55389">
        <ele>175.6</ele>
        <time>2023-05-27T05:51:19Z</time>
      </trkpt>
      <trkpt lat="43.47655" lon="1.55392">
        <ele>175.6</ele>
        <time>2023-05-27T05:51:20Z</time>
      </trkpt>
      <trkpt lat="43.47652" lon="1.55395">
        <ele>175.6</ele>
        <time>2023-05-27T05:51:21Z</time>
      </trkpt>
      <trkpt lat="43.47648" lon="1.55397">
        <ele>175.6</ele>
        <time>2023-05-27T05:51:22Z</time>
      </trkpt>
      <trkpt lat="43.47645" lon="1.55399">
        <ele>175.8</ele>
        <time>2023-05-27T05:51:23Z</time>
      </trkpt>
      <trkpt lat="43.47642" lon="1.55402">
        <ele>175.8</ele>
        <time>2023-05-27T05:51:24Z</time>
      </trkpt>
      <trkpt lat="43.47638" lon="1.55405">
        <ele>175.8</ele>
        <time>2023-05-27T05:51:25Z</time>
      </trkpt>
      <trkpt lat="43.47634" lon="1.55409">
        <ele>175.8</ele>
        <time>2023-05-27T05:51:26Z</time>
      </trkpt>
      <trkpt lat="43.47629" lon="1.55413">
        <ele>175.8</ele>
        <time>2023-05-27T05:51:27Z</time>
      </trkpt>
      <trkpt lat="43.47625" lon="1.55416">
        <ele>175.6</ele>
        <time>2023-05-27T05:51:28Z</time>
      </trkpt>
      <trkpt lat="43.47621" lon="1.55419">
        <ele>175.6</ele>
        <time>2023-05-27T05:51:29Z</time>
      </trkpt>
      <trkpt lat="43.47617" lon="1.55422">
        <ele>175.6</ele>
        <time>2023-05-27T05:51:30Z</time>
      </trkpt>
      <trkpt lat="43.47613" lon="1.55426">
        <ele>175.4</ele>
        <time>2023-05-27T05:51:31Z</time>
      </trkpt>
      <trkpt lat="43.47608" lon="1.55429">
        <ele>175.2</ele>
        <time>2023-05-27T05:51:32Z</time>
      </trkpt>
      <trkpt lat="43.47601" lon="1.55435">
        <ele>175.2</ele>
        <time>2023-05-27T05:51:33Z</time>
      </trkpt>
      <trkpt lat="43.47595" lon="1.5544">
        <ele>175.2</ele>
        <time>2023-05-27T05:51:34Z</time>
      </trkpt>
      <trkpt lat="43.47591" lon="1.55443">
        <ele>175.4</ele>
        <time>2023-05-27T05:51:35Z</time>
      </trkpt>
      <trkpt lat="43.47587" lon="1.55447">
        <ele>175.4</ele>
        <time>2023-05-27T05:51:36Z</time>
      </trkpt>
      <trkpt lat="43.47583" lon="1.5545">
        <ele>175.6</ele>
        <time>2023-05-27T05:51:37Z</time>
      </trkpt>
      <trkpt lat="43.47581" lon="1.55453">
        <ele>175.6</ele>
        <time>2023-05-27T05:51:38Z</time>
      </trkpt>
      <trkpt lat="43.47578" lon="1.55457">
        <ele>175.8</ele>
        <time>2023-05-27T05:51:39Z</time>
      </trkpt>
      <trkpt lat="43.47574" lon="1.5546">
        <ele>176</ele>
        <time>2023-05-27T05:51:40Z</time>
      </trkpt>
      <trkpt lat="43.47572" lon="1.55464">
        <ele>176</ele>
        <time>2023-05-27T05:51:41Z</time>
      </trkpt>
      <trkpt lat="43.47569" lon="1.55467">
        <ele>176</ele>
        <time>2023-05-27T05:51:42Z</time>
      </trkpt>
      <trkpt lat="43.47565" lon="1.5547">
        <ele>176.2</ele>
        <time>2023-05-27T05:51:43Z</time>
      </trkpt>
      <trkpt lat="43.47562" lon="1.55473">
        <ele>176.2</ele>
        <time>2023-05-27T05:51:44Z</time>
      </trkpt>
      <trkpt lat="43.47559" lon="1.55476">
        <ele>176.2</ele>
        <time>2023-05-27T05:51:45Z</time>
      </trkpt>
      <trkpt lat="43.47555" lon="1.5548">
        <ele>176.2</ele>
        <time>2023-05-27T05:51:46Z</time>
      </trkpt>
      <trkpt lat="43.47552" lon="1.55483">
        <ele>176.2</ele>
        <time>2023-05-27T05:51:47Z</time>
      </trkpt>
      <trkpt lat="43.4755" lon="1.55485">
        <ele>176.2</ele>
        <time>2023-05-27T05:51:48Z</time>
      </trkpt>
      <trkpt lat="43.47547" lon="1.55489">
        <ele>176.2</ele>
        <time>2023-05-27T05:51:49Z</time>
      </trkpt>
      <trkpt lat="43.47544" lon="1.55493">
        <ele>176.2</ele>
        <time>2023-05-27T05:51:50Z</time>
      </trkpt>
      <trkpt lat="43.4754" lon="1.55497">
        <ele>176.2</ele>
        <time>2023-05-27T05:51:51Z</time>
      </trkpt>
      <trkpt lat="43.47536" lon="1.55501">
        <ele>176.2</ele>
        <time>2023-05-27T05:51:52Z</time>
      </trkpt>
      <trkpt lat="43.47533" lon="1.55505">
        <ele>176.2</ele>
        <time>2023-05-27T05:51:53Z</time>
      </trkpt>
      <trkpt lat="43.4753" lon="1.55509">
        <ele>176</ele>
        <time>2023-05-27T05:51:54Z</time>
      </trkpt>
      <trkpt lat="43.47526" lon="1.55513">
        <ele>176</ele>
        <time>2023-05-27T05:51:55Z</time>
      </trkpt>
      <trkpt lat="43.47523" lon="1.55516">
        <ele>176</ele>
        <time>2023-05-27T05:51:56Z</time>
      </trkpt>
      <trkpt lat="43.4752" lon="1.55519">
        <ele>176</ele>
        <time>2023-05-27T05:51:57Z</time>
      </trkpt>
      <trkpt lat="43.47515" lon="1.55523">
        <ele>176</ele>
        <time>2023-05-27T05:51:58Z</time>
      </trkpt>
      <trkpt lat="43.47512" lon="1.55527">
        <ele>175.8</ele>
        <time>2023-05-27T05:51:59Z</time>
      </trkpt>
      <trkpt lat="43.47509" lon="1.55531">
        <ele>175.8</ele>
        <time>2023-05-27T05:52:00Z</time>
      </trkpt>
      <trkpt lat="43.47506" lon="1.55534">
        <ele>175.8</ele>
        <time>2023-05-27T05:52:01Z</time>
      </trkpt>
      <trkpt lat="43.47502" lon="1.55538">
        <ele>175.8</ele>
        <time>2023-05-27T05:52:02Z</time>
      </trkpt>
      <trkpt lat="43.47499" lon="1.55542">
        <ele>175.8</ele>
        <time>2023-05-27T05:52:03Z</time>
      </trkpt>
      <trkpt lat="43.47496" lon="1.55547">
        <ele>175.6</ele>
        <time>2023-05-27T05:52:04Z</time>
      </trkpt>
      <trkpt lat="43.47493" lon="1.5555">
        <ele>175.8</ele>
        <time>2023-05-27T05:52:05Z</time>
      </trkpt>
      <trkpt lat="43.4749" lon="1.55554">
        <ele>175.6</ele>
        <time>2023-05-27T05:52:06Z</time>
      </trkpt>
      <trkpt lat="43.47486" lon="1.55558">
        <ele>175.8</ele>
        <time>2023-05-27T05:52:07Z</time>
      </trkpt>
      <trkpt lat="43.47481" lon="1.55563">
        <ele>175.8</ele>
        <time>2023-05-27T05:52:08Z</time>
      </trkpt>
      <trkpt lat="43.47477" lon="1.55566">
        <ele>175.8</ele>
        <time>2023-05-27T05:52:09Z</time>
      </trkpt>
      <trkpt lat="43.47472" lon="1.55571">
        <ele>175.8</ele>
        <time>2023-05-27T05:52:10Z</time>
      </trkpt>
      <trkpt lat="43.47467" lon="1.55575">
        <ele>175.8</ele>
        <time>2023-05-27T05:52:11Z</time>
      </trkpt>
      <trkpt lat="43.47463" lon="1.55579">
        <ele>175.8</ele>
        <time>2023-05-27T05:52:12Z</time>
      </trkpt>
      <trkpt lat="43.4746" lon="1.55582">
        <ele>175.8</ele>
        <time>2023-05-27T05:52:13Z</time>
      </trkpt>
      <trkpt lat="43.47453" lon="1.55587">
        <ele>175.8</ele>
        <time>2023-05-27T05:52:14Z</time>
      </trkpt>
      <trkpt lat="43.47448" lon="1.55591">
        <ele>175.8</ele>
        <time>2023-05-27T05:52:15Z</time>
      </trkpt>
      <trkpt lat="43.47444" lon="1.55597">
        <ele>175.8</ele>
        <time>2023-05-27T05:52:16Z</time>
      </trkpt>
      <trkpt lat="43.4744" lon="1.55601">
        <ele>175.6</ele>
        <time>2023-05-27T05:52:17Z</time>
      </trkpt>
      <trkpt lat="43.47434" lon="1.55606">
        <ele>175.6</ele>
        <time>2023-05-27T05:52:18Z</time>
      </trkpt>
      <trkpt lat="43.47431" lon="1.55608">
        <ele>175.6</ele>
        <time>2023-05-27T05:52:19Z</time>
      </trkpt>
      <trkpt lat="43.47425" lon="1.55611">
        <ele>175.6</ele>
        <time>2023-05-27T05:52:20Z</time>
      </trkpt>
      <trkpt lat="43.47419" lon="1.55614">
        <ele>175.4</ele>
        <time>2023-05-27T05:52:21Z</time>
      </trkpt>
      <trkpt lat="43.47414" lon="1.55617">
        <ele>175.4</ele>
        <time>2023-05-27T05:52:22Z</time>
      </trkpt>
      <trkpt lat="43.4741" lon="1.5562">
        <ele>175.4</ele>
        <time>2023-05-27T05:52:23Z</time>
      </trkpt>
      <trkpt lat="43.47404" lon="1.55623">
        <ele>175.2</ele>
        <time>2023-05-27T05:52:24Z</time>
      </trkpt>
      <trkpt lat="43.47401" lon="1.55625">
        <ele>175.2</ele>
        <time>2023-05-27T05:52:25Z</time>
      </trkpt>
      <trkpt lat="43.47397" lon="1.55628">
        <ele>175.2</ele>
        <time>2023-05-27T05:52:26Z</time>
      </trkpt>
      <trkpt lat="43.47393" lon="1.5563">
        <ele>175.2</ele>
        <time>2023-05-27T05:52:27Z</time>
      </trkpt>
      <trkpt lat="43.47388" lon="1.55632">
        <ele>175.2</ele>
        <time>2023-05-27T05:52:28Z</time>
      </trkpt>
      <trkpt lat="43.47383" lon="1.55634">
        <ele>175.2</ele>
        <time>2023-05-27T05:52:29Z</time>
      </trkpt>
      <trkpt lat="43.47377" lon="1.55637">
        <ele>175.2</ele>
        <time>2023-05-27T05:52:30Z</time>
      </trkpt>
      <trkpt lat="43.47372" lon="1.5564">
        <ele>175.2</ele>
        <time>2023-05-27T05:52:31Z</time>
      </trkpt>
      <trkpt lat="43.47367" lon="1.55642">
        <ele>175.2</ele>
        <time>2023-05-27T05:52:32Z</time>
      </trkpt>
      <trkpt lat="43.47364" lon="1.55643">
        <ele>175.2</ele>
        <time>2023-05-27T05:52:33Z</time>
      </trkpt>
      <trkpt lat="43.4736" lon="1.55645">
        <ele>175.2</ele>
        <time>2023-05-27T05:52:34Z</time>
      </trkpt>
      <trkpt lat="43.47357" lon="1.55648">
        <ele>175.2</ele>
        <time>2023-05-27T05:52:35Z</time>
      </trkpt>
      <trkpt lat="43.47353" lon="1.5565">
        <ele>175.2</ele>
        <time>2023-05-27T05:52:36Z</time>
      </trkpt>
      <trkpt lat="43.4735" lon="1.55652">
        <ele>175.2</ele>
        <time>2023-05-27T05:52:37Z</time>
      </trkpt>
      <trkpt lat="43.47346" lon="1.55654">
        <ele>175.2</ele>
        <time>2023-05-27T05:52:38Z</time>
      </trkpt>
      <trkpt lat="43.47341" lon="1.55655">
        <ele>175.2</ele>
        <time>2023-05-27T05:52:39Z</time>
      </trkpt>
      <trkpt lat="43.47338" lon="1.55657">
        <ele>175.2</ele>
        <time>2023-05-27T05:52:40Z</time>
      </trkpt>
      <trkpt lat="43.47333" lon="1.55659">
        <ele>175.2</ele>
        <time>2023-05-27T05:52:41Z</time>
      </trkpt>
      <trkpt lat="43.47329" lon="1.55661">
        <ele>175.2</ele>
        <time>2023-05-27T05:52:42Z</time>
      </trkpt>
      <trkpt lat="43.47324" lon="1.55663">
        <ele>175.2</ele>
        <time>2023-05-27T05:52:43Z</time>
      </trkpt>
      <trkpt lat="43.47318" lon="1.55665">
        <ele>175.2</ele>
        <time>2023-05-27T05:52:44Z</time>
      </trkpt>
      <trkpt lat="43.47313" lon="1.55667">
        <ele>175.2</ele>
        <time>2023-05-27T05:52:45Z</time>
      </trkpt>
      <trkpt lat="43.47309" lon="1.5567">
        <ele>175.2</ele>
        <time>2023-05-27T05:52:46Z</time>
      </trkpt>
      <trkpt lat="43.47303" lon="1.55673">
        <ele>175</ele>
        <time>2023-05-27T05:52:47Z</time>
      </trkpt>
      <trkpt lat="43.47299" lon="1.55675">
        <ele>175</ele>
        <time>2023-05-27T05:52:48Z</time>
      </trkpt>
      <trkpt lat="43.47294" lon="1.55677">
        <ele>175</ele>
        <time>2023-05-27T05:52:49Z</time>
      </trkpt>
      <trkpt lat="43.47288" lon="1.55681">
        <ele>175</ele>
        <time>2023-05-27T05:52:50Z</time>
      </trkpt>
      <trkpt lat="43.47282" lon="1.55684">
        <ele>175</ele>
        <time>2023-05-27T05:52:51Z</time>
      </trkpt>
      <trkpt lat="43.47277" lon="1.55686">
        <ele>175</ele>
        <time>2023-05-27T05:52:52Z</time>
      </trkpt>
      <trkpt lat="43.47271" lon="1.55688">
        <ele>175</ele>
        <time>2023-05-27T05:52:53Z</time>
      </trkpt>
      <trkpt lat="43.47268" lon="1.5569">
        <ele>175</ele>
        <time>2023-05-27T05:52:54Z</time>
      </trkpt>
      <trkpt lat="43.47263" lon="1.55693">
        <ele>175</ele>
        <time>2023-05-27T05:52:55Z</time>
      </trkpt>
      <trkpt lat="43.47261" lon="1.55694">
        <ele>175.2</ele>
        <time>2023-05-27T05:52:56Z</time>
      </trkpt>
      <trkpt lat="43.47254" lon="1.55698">
        <ele>175.2</ele>
        <time>2023-05-27T05:52:57Z</time>
      </trkpt>
      <trkpt lat="43.47249" lon="1.557">
        <ele>175.2</ele>
        <time>2023-05-27T05:52:58Z</time>
      </trkpt>
      <trkpt lat="43.47245" lon="1.55702">
        <ele>175.2</ele>
        <time>2023-05-27T05:52:59Z</time>
      </trkpt>
      <trkpt lat="43.47241" lon="1.55703">
        <ele>175.2</ele>
        <time>2023-05-27T05:53:00Z</time>
      </trkpt>
      <trkpt lat="43.47238" lon="1.55705">
        <ele>175.2</ele>
        <time>2023-05-27T05:53:01Z</time>
      </trkpt>
      <trkpt lat="43.47233" lon="1.55706">
        <ele>175.4</ele>
        <time>2023-05-27T05:53:02Z</time>
      </trkpt>
      <trkpt lat="43.47229" lon="1.55708">
        <ele>175.4</ele>
        <time>2023-05-27T05:53:03Z</time>
      </trkpt>
      <trkpt lat="43.47225" lon="1.55709">
        <ele>175.4</ele>
        <time>2023-05-27T05:53:04Z</time>
      </trkpt>
      <trkpt lat="43.47222" lon="1.55711">
        <ele>175.4</ele>
        <time>2023-05-27T05:53:05Z</time>
      </trkpt>
      <trkpt lat="43.47218" lon="1.55713">
        <ele>175.4</ele>
        <time>2023-05-27T05:53:06Z</time>
      </trkpt>
      <trkpt lat="43.47213" lon="1.55714">
        <ele>175.4</ele>
        <time>2023-05-27T05:53:07Z</time>
      </trkpt>
      <trkpt lat="43.47209" lon="1.55716">
        <ele>175.4</ele>
        <time>2023-05-27T05:53:08Z</time>
      </trkpt>
      <trkpt lat="43.47206" lon="1.55717">
        <ele>175.4</ele>
        <time>2023-05-27T05:53:09Z</time>
      </trkpt>
      <trkpt lat="43.47203" lon="1.55718">
        <ele>175.4</ele>
        <time>2023-05-27T05:53:10Z</time>
      </trkpt>
      <trkpt lat="43.47198" lon="1.5572">
        <ele>175.4</ele>
        <time>2023-05-27T05:53:11Z</time>
      </trkpt>
      <trkpt lat="43.47193" lon="1.5572">
        <ele>175.4</ele>
        <time>2023-05-27T05:53:12Z</time>
      </trkpt>
      <trkpt lat="43.47189" lon="1.55721">
        <ele>175.4</ele>
        <time>2023-05-27T05:53:13Z</time>
      </trkpt>
      <trkpt lat="43.47186" lon="1.55722">
        <ele>175.4</ele>
        <time>2023-05-27T05:53:14Z</time>
      </trkpt>
      <trkpt lat="43.47183" lon="1.55723">
        <ele>175.4</ele>
        <time>2023-05-27T05:53:15Z</time>
      </trkpt>
      <trkpt lat="43.47179" lon="1.55724">
        <ele>175.4</ele>
        <time>2023-05-27T05:53:16Z</time>
      </trkpt>
      <trkpt lat="43.47176" lon="1.55724">
        <ele>175.4</ele>
        <time>2023-05-27T05:53:17Z</time>
      </trkpt>
      <trkpt lat="43.47172" lon="1.55725">
        <ele>175.4</ele>
        <time>2023-05-27T05:53:18Z</time>
      </trkpt>
      <trkpt lat="43.47167" lon="1.55726">
        <ele>175.4</ele>
        <time>2023-05-27T05:53:19Z</time>
      </trkpt>
      <trkpt lat="43.47163" lon="1.55728">
        <ele>175.4</ele>
        <time>2023-05-27T05:53:20Z</time>
      </trkpt>
      <trkpt lat="43.47157" lon="1.55729">
        <ele>175.2</ele>
        <time>2023-05-27T05:53:21Z</time>
      </trkpt>
      <trkpt lat="43.47152" lon="1.5573">
        <ele>175.2</ele>
        <time>2023-05-27T05:53:22Z</time>
      </trkpt>
      <trkpt lat="43.47148" lon="1.55731">
        <ele>175.2</ele>
        <time>2023-05-27T05:53:23Z</time>
      </trkpt>
      <trkpt lat="43.47144" lon="1.55732">
        <ele>175.2</ele>
        <time>2023-05-27T05:53:24Z</time>
      </trkpt>
      <trkpt lat="43.47139" lon="1.55734">
        <ele>175.2</ele>
        <time>2023-05-27T05:53:25Z</time>
      </trkpt>
      <trkpt lat="43.47135" lon="1.55735">
        <ele>175.2</ele>
        <time>2023-05-27T05:53:26Z</time>
      </trkpt>
      <trkpt lat="43.4713" lon="1.55735">
        <ele>175.2</ele>
        <time>2023-05-27T05:53:27Z</time>
      </trkpt>
      <trkpt lat="43.47125" lon="1.55737">
        <ele>175.2</ele>
        <time>2023-05-27T05:53:28Z</time>
      </trkpt>
      <trkpt lat="43.4712" lon="1.55738">
        <ele>175.2</ele>
        <time>2023-05-27T05:53:29Z</time>
      </trkpt>
      <trkpt lat="43.47114" lon="1.5574">
        <ele>175.2</ele>
        <time>2023-05-27T05:53:30Z</time>
      </trkpt>
      <trkpt lat="43.47109" lon="1.55741">
        <ele>175</ele>
        <time>2023-05-27T05:53:31Z</time>
      </trkpt>
      <trkpt lat="43.47103" lon="1.55742">
        <ele>175</ele>
        <time>2023-05-27T05:53:32Z</time>
      </trkpt>
      <trkpt lat="43.47096" lon="1.55743">
        <ele>175</ele>
        <time>2023-05-27T05:53:33Z</time>
      </trkpt>
      <trkpt lat="43.4709" lon="1.55744">
        <ele>175</ele>
        <time>2023-05-27T05:53:34Z</time>
      </trkpt>
      <trkpt lat="43.47085" lon="1.55746">
        <ele>175.2</ele>
        <time>2023-05-27T05:53:35Z</time>
      </trkpt>
      <trkpt lat="43.47079" lon="1.55748">
        <ele>175.2</ele>
        <time>2023-05-27T05:53:36Z</time>
      </trkpt>
      <trkpt lat="43.47076" lon="1.55749">
        <ele>175.2</ele>
        <time>2023-05-27T05:53:37Z</time>
      </trkpt>
      <trkpt lat="43.47071" lon="1.5575">
        <ele>175.2</ele>
        <time>2023-05-27T05:53:38Z</time>
      </trkpt>
      <trkpt lat="43.47065" lon="1.55751">
        <ele>175.2</ele>
        <time>2023-05-27T05:53:39Z</time>
      </trkpt>
      <trkpt lat="43.4706" lon="1.55753">
        <ele>175.2</ele>
        <time>2023-05-27T05:53:40Z</time>
      </trkpt>
      <trkpt lat="43.47057" lon="1.55754">
        <ele>175</ele>
        <time>2023-05-27T05:53:41Z</time>
      </trkpt>
      <trkpt lat="43.47053" lon="1.55756">
        <ele>175</ele>
        <time>2023-05-27T05:53:42Z</time>
      </trkpt>
      <trkpt lat="43.47048" lon="1.55758">
        <ele>175</ele>
        <time>2023-05-27T05:53:43Z</time>
      </trkpt>
      <trkpt lat="43.47044" lon="1.55759">
        <ele>175</ele>
        <time>2023-05-27T05:53:44Z</time>
      </trkpt>
      <trkpt lat="43.47038" lon="1.55761">
        <ele>175</ele>
        <time>2023-05-27T05:53:45Z</time>
      </trkpt>
      <trkpt lat="43.47035" lon="1.55763">
        <ele>175</ele>
        <time>2023-05-27T05:53:46Z</time>
      </trkpt>
      <trkpt lat="43.47031" lon="1.55765">
        <ele>175</ele>
        <time>2023-05-27T05:53:47Z</time>
      </trkpt>
      <trkpt lat="43.47028" lon="1.55767">
        <ele>175</ele>
        <time>2023-05-27T05:53:48Z</time>
      </trkpt>
      <trkpt lat="43.47024" lon="1.55769">
        <ele>175.2</ele>
        <time>2023-05-27T05:53:49Z</time>
      </trkpt>
      <trkpt lat="43.47021" lon="1.5577">
        <ele>175.2</ele>
        <time>2023-05-27T05:53:50Z</time>
      </trkpt>
      <trkpt lat="43.47018" lon="1.55772">
        <ele>175.2</ele>
        <time>2023-05-27T05:53:51Z</time>
      </trkpt>
      <trkpt lat="43.47015" lon="1.55774">
        <ele>175.4</ele>
        <time>2023-05-27T05:53:52Z</time>
      </trkpt>
      <trkpt lat="43.47013" lon="1.55777">
        <ele>175.4</ele>
        <time>2023-05-27T05:53:53Z</time>
      </trkpt>
      <trkpt lat="43.47011" lon="1.55779">
        <ele>175.4</ele>
        <time>2023-05-27T05:53:54Z</time>
      </trkpt>
      <trkpt lat="43.47008" lon="1.55782">
        <ele>175.4</ele>
        <time>2023-05-27T05:53:55Z</time>
      </trkpt>
      <trkpt lat="43.47005" lon="1.55785">
        <ele>175.4</ele>
        <time>2023-05-27T05:53:56Z</time>
      </trkpt>
      <trkpt lat="43.47003" lon="1.55788">
        <ele>175.4</ele>
        <time>2023-05-27T05:53:57Z</time>
      </trkpt>
      <trkpt lat="43.47001" lon="1.55791">
        <ele>175.6</ele>
        <time>2023-05-27T05:53:58Z</time>
      </trkpt>
      <trkpt lat="43.46999" lon="1.55794">
        <ele>175.6</ele>
        <time>2023-05-27T05:53:59Z</time>
      </trkpt>
      <trkpt lat="43.46998" lon="1.55796">
        <ele>175.4</ele>
        <time>2023-05-27T05:54:00Z</time>
      </trkpt>
      <trkpt lat="43.46997" lon="1.55799">
        <ele>175.4</ele>
        <time>2023-05-27T05:54:01Z</time>
      </trkpt>
      <trkpt lat="43.46994" lon="1.55803">
        <ele>175.4</ele>
        <time>2023-05-27T05:54:02Z</time>
      </trkpt>
      <trkpt lat="43.46991" lon="1.55807">
        <ele>175.4</ele>
        <time>2023-05-27T05:54:03Z</time>
      </trkpt>
      <trkpt lat="43.46989" lon="1.55811">
        <ele>175.4</ele>
        <time>2023-05-27T05:54:04Z</time>
      </trkpt>
      <trkpt lat="43.46986" lon="1.55815">
        <ele>175.4</ele>
        <time>2023-05-27T05:54:05Z</time>
      </trkpt>
      <trkpt lat="43.46983" lon="1.55818">
        <ele>175.4</ele>
        <time>2023-05-27T05:54:06Z</time>
      </trkpt>
      <trkpt lat="43.4698" lon="1.55823">
        <ele>175.4</ele>
        <time>2023-05-27T05:54:07Z</time>
      </trkpt>
      <trkpt lat="43.46979" lon="1.55826">
        <ele>175.4</ele>
        <time>2023-05-27T05:54:08Z</time>
      </trkpt>
      <trkpt lat="43.46977" lon="1.55828">
        <ele>175.4</ele>
        <time>2023-05-27T05:54:09Z</time>
      </trkpt>
      <trkpt lat="43.46975" lon="1.55832">
        <ele>175.4</ele>
        <time>2023-05-27T05:54:10Z</time>
      </trkpt>
      <trkpt lat="43.46971" lon="1.55837">
        <ele>175.4</ele>
        <time>2023-05-27T05:54:11Z</time>
      </trkpt>
      <trkpt lat="43.46967" lon="1.55843">
        <ele>175.4</ele>
        <time>2023-05-27T05:54:12Z</time>
      </trkpt>
      <trkpt lat="43.46963" lon="1.55846">
        <ele>175.4</ele>
        <time>2023-05-27T05:54:13Z</time>
      </trkpt>
      <trkpt lat="43.46961" lon="1.55851">
        <ele>175.4</ele>
        <time>2023-05-27T05:54:14Z</time>
      </trkpt>
      <trkpt lat="43.4696" lon="1.55856">
        <ele>175.4</ele>
        <time>2023-05-27T05:54:15Z</time>
      </trkpt>
      <trkpt lat="43.46956" lon="1.5586">
        <ele>175.4</ele>
        <time>2023-05-27T05:54:16Z</time>
      </trkpt>
      <trkpt lat="43.46954" lon="1.55865">
        <ele>175.4</ele>
        <time>2023-05-27T05:54:17Z</time>
      </trkpt>
      <trkpt lat="43.4695" lon="1.5587">
        <ele>175.4</ele>
        <time>2023-05-27T05:54:18Z</time>
      </trkpt>
      <trkpt lat="43.46949" lon="1.55874">
        <ele>175.4</ele>
        <time>2023-05-27T05:54:19Z</time>
      </trkpt>
      <trkpt lat="43.46945" lon="1.55878">
        <ele>175.4</ele>
        <time>2023-05-27T05:54:20Z</time>
      </trkpt>
      <trkpt lat="43.46942" lon="1.55886">
        <ele>175.4</ele>
        <time>2023-05-27T05:54:21Z</time>
      </trkpt>
      <trkpt lat="43.46939" lon="1.55892">
        <ele>175.4</ele>
        <time>2023-05-27T05:54:22Z</time>
      </trkpt>
      <trkpt lat="43.46937" lon="1.55897">
        <ele>175.4</ele>
        <time>2023-05-27T05:54:23Z</time>
      </trkpt>
      <trkpt lat="43.46934" lon="1.55904">
        <ele>175.4</ele>
        <time>2023-05-27T05:54:24Z</time>
      </trkpt>
      <trkpt lat="43.46933" lon="1.55909">
        <ele>175.4</ele>
        <time>2023-05-27T05:54:25Z</time>
      </trkpt>
      <trkpt lat="43.4693" lon="1.55916">
        <ele>175.6</ele>
        <time>2023-05-27T05:54:26Z</time>
      </trkpt>
      <trkpt lat="43.46928" lon="1.55922">
        <ele>175.6</ele>
        <time>2023-05-27T05:54:27Z</time>
      </trkpt>
      <trkpt lat="43.46927" lon="1.55926">
        <ele>175.6</ele>
        <time>2023-05-27T05:54:28Z</time>
      </trkpt>
      <trkpt lat="43.46925" lon="1.55931">
        <ele>175.6</ele>
        <time>2023-05-27T05:54:29Z</time>
      </trkpt>
      <trkpt lat="43.4692" lon="1.55938">
        <ele>175.6</ele>
        <time>2023-05-27T05:54:30Z</time>
      </trkpt>
      <trkpt lat="43.46915" lon="1.55945">
        <ele>175.6</ele>
        <time>2023-05-27T05:54:31Z</time>
      </trkpt>
      <trkpt lat="43.46912" lon="1.5595">
        <ele>175.6</ele>
        <time>2023-05-27T05:54:32Z</time>
      </trkpt>
      <trkpt lat="43.46908" lon="1.55955">
        <ele>175.6</ele>
        <time>2023-05-27T05:54:33Z</time>
      </trkpt>
      <trkpt lat="43.46904" lon="1.55961">
        <ele>175.4</ele>
        <time>2023-05-27T05:54:34Z</time>
      </trkpt>
      <trkpt lat="43.46901" lon="1.55967">
        <ele>175.4</ele>
        <time>2023-05-27T05:54:35Z</time>
      </trkpt>
      <trkpt lat="43.46899" lon="1.55972">
        <ele>175.4</ele>
        <time>2023-05-27T05:54:36Z</time>
      </trkpt>
      <trkpt lat="43.46896" lon="1.55977">
        <ele>175.4</ele>
        <time>2023-05-27T05:54:37Z</time>
      </trkpt>
      <trkpt lat="43.46896" lon="1.5598">
        <ele>175.4</ele>
        <time>2023-05-27T05:54:38Z</time>
      </trkpt>
      <trkpt lat="43.46895" lon="1.55984">
        <ele>175.4</ele>
        <time>2023-05-27T05:54:39Z</time>
      </trkpt>
      <trkpt lat="43.46894" lon="1.55989">
        <ele>175.4</ele>
        <time>2023-05-27T05:54:40Z</time>
      </trkpt>
      <trkpt lat="43.4689" lon="1.55993">
        <ele>175.4</ele>
        <time>2023-05-27T05:54:41Z</time>
      </trkpt>
      <trkpt lat="43.46887" lon="1.55998">
        <ele>175.6</ele>
        <time>2023-05-27T05:54:42Z</time>
      </trkpt>
      <trkpt lat="43.46884" lon="1.56002">
        <ele>175.6</ele>
        <time>2023-05-27T05:54:43Z</time>
      </trkpt>
      <trkpt lat="43.46883" lon="1.56006">
        <ele>175.6</ele>
        <time>2023-05-27T05:54:44Z</time>
      </trkpt>
      <trkpt lat="43.46882" lon="1.5601">
        <ele>175.6</ele>
        <time>2023-05-27T05:54:45Z</time>
      </trkpt>
      <trkpt lat="43.46882" lon="1.56013">
        <ele>175.6</ele>
        <time>2023-05-27T05:54:46Z</time>
      </trkpt>
      <trkpt lat="43.46879" lon="1.56018">
        <ele>175.6</ele>
        <time>2023-05-27T05:54:47Z</time>
      </trkpt>
      <trkpt lat="43.46876" lon="1.56023">
        <ele>175.6</ele>
        <time>2023-05-27T05:54:48Z</time>
      </trkpt>
      <trkpt lat="43.46875" lon="1.56027">
        <ele>175.6</ele>
        <time>2023-05-27T05:54:49Z</time>
      </trkpt>
      <trkpt lat="43.46873" lon="1.56031">
        <ele>175.6</ele>
        <time>2023-05-27T05:54:50Z</time>
      </trkpt>
      <trkpt lat="43.46869" lon="1.56038">
        <ele>175.6</ele>
        <time>2023-05-27T05:54:51Z</time>
      </trkpt>
      <trkpt lat="43.46867" lon="1.56043">
        <ele>175.6</ele>
        <time>2023-05-27T05:54:52Z</time>
      </trkpt>
      <trkpt lat="43.46864" lon="1.56048">
        <ele>175.6</ele>
        <time>2023-05-27T05:54:53Z</time>
      </trkpt>
      <trkpt lat="43.46862" lon="1.56052">
        <ele>175.6</ele>
        <time>2023-05-27T05:54:54Z</time>
      </trkpt>
      <trkpt lat="43.46858" lon="1.56059">
        <ele>175.6</ele>
        <time>2023-05-27T05:54:55Z</time>
      </trkpt>
      <trkpt lat="43.46856" lon="1.56064">
        <ele>175.6</ele>
        <time>2023-05-27T05:54:56Z</time>
      </trkpt>
      <trkpt lat="43.46854" lon="1.56069">
        <ele>175.6</ele>
        <time>2023-05-27T05:54:57Z</time>
      </trkpt>
      <trkpt lat="43.46852" lon="1.56073">
        <ele>175.6</ele>
        <time>2023-05-27T05:54:58Z</time>
      </trkpt>
      <trkpt lat="43.46852" lon="1.56076">
        <ele>175.6</ele>
        <time>2023-05-27T05:54:59Z</time>
      </trkpt>
      <trkpt lat="43.4685" lon="1.5608">
        <ele>175.6</ele>
        <time>2023-05-27T05:55:00Z</time>
      </trkpt>
      <trkpt lat="43.46847" lon="1.56087">
        <ele>175.6</ele>
        <time>2023-05-27T05:55:01Z</time>
      </trkpt>
      <trkpt lat="43.46842" lon="1.56095">
        <ele>175.8</ele>
        <time>2023-05-27T05:55:02Z</time>
      </trkpt>
      <trkpt lat="43.46838" lon="1.561">
        <ele>175.8</ele>
        <time>2023-05-27T05:55:03Z</time>
      </trkpt>
      <trkpt lat="43.46835" lon="1.56104">
        <ele>175.8</ele>
        <time>2023-05-27T05:55:04Z</time>
      </trkpt>
      <trkpt lat="43.46828" lon="1.5611">
        <ele>175.8</ele>
        <time>2023-05-27T05:55:05Z</time>
      </trkpt>
      <trkpt lat="43.46826" lon="1.56115">
        <ele>175.8</ele>
        <time>2023-05-27T05:55:06Z</time>
      </trkpt>
      <trkpt lat="43.46826" lon="1.56119">
        <ele>175.8</ele>
        <time>2023-05-27T05:55:07Z</time>
      </trkpt>
      <trkpt lat="43.46824" lon="1.56123">
        <ele>175.8</ele>
        <time>2023-05-27T05:55:08Z</time>
      </trkpt>
      <trkpt lat="43.46822" lon="1.56127">
        <ele>175.8</ele>
        <time>2023-05-27T05:55:09Z</time>
      </trkpt>
      <trkpt lat="43.46822" lon="1.56132">
        <ele>175.8</ele>
        <time>2023-05-27T05:55:10Z</time>
      </trkpt>
      <trkpt lat="43.4682" lon="1.56138">
        <ele>175.8</ele>
        <time>2023-05-27T05:55:11Z</time>
      </trkpt>
      <trkpt lat="43.46815" lon="1.56142">
        <ele>175.8</ele>
        <time>2023-05-27T05:55:12Z</time>
      </trkpt>
      <trkpt lat="43.46813" lon="1.56148">
        <ele>175.8</ele>
        <time>2023-05-27T05:55:13Z</time>
      </trkpt>
      <trkpt lat="43.4681" lon="1.56153">
        <ele>175.8</ele>
        <time>2023-05-27T05:55:14Z</time>
      </trkpt>
      <trkpt lat="43.46809" lon="1.56158">
        <ele>175.8</ele>
        <time>2023-05-27T05:55:15Z</time>
      </trkpt>
      <trkpt lat="43.46808" lon="1.56162">
        <ele>175.8</ele>
        <time>2023-05-27T05:55:16Z</time>
      </trkpt>
      <trkpt lat="43.46807" lon="1.56164">
        <ele>175.8</ele>
        <time>2023-05-27T05:55:17Z</time>
      </trkpt>
      <trkpt lat="43.46806" lon="1.56167">
        <ele>176</ele>
        <time>2023-05-27T05:55:18Z</time>
      </trkpt>
      <trkpt lat="43.46804" lon="1.56169">
        <ele>176</ele>
        <time>2023-05-27T05:55:19Z</time>
      </trkpt>
      <trkpt lat="43.46803" lon="1.56172">
        <ele>176</ele>
        <time>2023-05-27T05:55:20Z</time>
      </trkpt>
      <trkpt lat="43.46802" lon="1.56174">
        <ele>176</ele>
        <time>2023-05-27T05:55:21Z</time>
      </trkpt>
      <trkpt lat="43.468" lon="1.56177">
        <ele>176</ele>
        <time>2023-05-27T05:55:22Z</time>
      </trkpt>
      <trkpt lat="43.46798" lon="1.56181">
        <ele>176.2</ele>
        <time>2023-05-27T05:55:23Z</time>
      </trkpt>
      <trkpt lat="43.46797" lon="1.56184">
        <ele>176.2</ele>
        <time>2023-05-27T05:55:24Z</time>
      </trkpt>
      <trkpt lat="43.46794" lon="1.5619">
        <ele>176.2</ele>
        <time>2023-05-27T05:55:25Z</time>
      </trkpt>
      <trkpt lat="43.46793" lon="1.56195">
        <ele>176</ele>
        <time>2023-05-27T05:55:26Z</time>
      </trkpt>
      <trkpt lat="43.4679" lon="1.56201">
        <ele>176</ele>
        <time>2023-05-27T05:55:27Z</time>
      </trkpt>
      <trkpt lat="43.46787" lon="1.56207">
        <ele>176</ele>
        <time>2023-05-27T05:55:28Z</time>
      </trkpt>
      <trkpt lat="43.46784" lon="1.56213">
        <ele>176</ele>
        <time>2023-05-27T05:55:29Z</time>
      </trkpt>
      <trkpt lat="43.46783" lon="1.56217">
        <ele>176</ele>
        <time>2023-05-27T05:55:30Z</time>
      </trkpt>
      <trkpt lat="43.4678" lon="1.56222">
        <ele>176</ele>
        <time>2023-05-27T05:55:31Z</time>
      </trkpt>
      <trkpt lat="43.46776" lon="1.56229">
        <ele>176</ele>
        <time>2023-05-27T05:55:32Z</time>
      </trkpt>
      <trkpt lat="43.46773" lon="1.56234">
        <ele>176</ele>
        <time>2023-05-27T05:55:33Z</time>
      </trkpt>
      <trkpt lat="43.46771" lon="1.56239">
        <ele>175.8</ele>
        <time>2023-05-27T05:55:34Z</time>
      </trkpt>
      <trkpt lat="43.46768" lon="1.56245">
        <ele>175.8</ele>
        <time>2023-05-27T05:55:35Z</time>
      </trkpt>
      <trkpt lat="43.46765" lon="1.5625">
        <ele>175.8</ele>
        <time>2023-05-27T05:55:36Z</time>
      </trkpt>
      <trkpt lat="43.46762" lon="1.56257">
        <ele>175.8</ele>
        <time>2023-05-27T05:55:37Z</time>
      </trkpt>
      <trkpt lat="43.4676" lon="1.56263">
        <ele>175.8</ele>
        <time>2023-05-27T05:55:38Z</time>
      </trkpt>
      <trkpt lat="43.46758" lon="1.56267">
        <ele>175.8</ele>
        <time>2023-05-27T05:55:39Z</time>
      </trkpt>
      <trkpt lat="43.46756" lon="1.56273">
        <ele>175.6</ele>
        <time>2023-05-27T05:55:40Z</time>
      </trkpt>
      <trkpt lat="43.46755" lon="1.56279">
        <ele>175.6</ele>
        <time>2023-05-27T05:55:41Z</time>
      </trkpt>
      <trkpt lat="43.46752" lon="1.56284">
        <ele>175.6</ele>
        <time>2023-05-27T05:55:42Z</time>
      </trkpt>
      <trkpt lat="43.4675" lon="1.56288">
        <ele>175.6</ele>
        <time>2023-05-27T05:55:43Z</time>
      </trkpt>
      <trkpt lat="43.46748" lon="1.56294">
        <ele>175.6</ele>
        <time>2023-05-27T05:55:44Z</time>
      </trkpt>
      <trkpt lat="43.46746" lon="1.56299">
        <ele>175.6</ele>
        <time>2023-05-27T05:55:45Z</time>
      </trkpt>
      <trkpt lat="43.46742" lon="1.56305">
        <ele>175.6</ele>
        <time>2023-05-27T05:55:46Z</time>
      </trkpt>
      <trkpt lat="43.46738" lon="1.56312">
        <ele>175.6</ele>
        <time>2023-05-27T05:55:47Z</time>
      </trkpt>
      <trkpt lat="43.46735" lon="1.56319">
        <ele>175.6</ele>
        <time>2023-05-27T05:55:48Z</time>
      </trkpt>
      <trkpt lat="43.46733" lon="1.56324">
        <ele>175.6</ele>
        <time>2023-05-27T05:55:49Z</time>
      </trkpt>
      <trkpt lat="43.46728" lon="1.56333">
        <ele>175.6</ele>
        <time>2023-05-27T05:55:50Z</time>
      </trkpt>
      <trkpt lat="43.46725" lon="1.56339">
        <ele>175.6</ele>
        <time>2023-05-27T05:55:51Z</time>
      </trkpt>
      <trkpt lat="43.46724" lon="1.56344">
        <ele>175.6</ele>
        <time>2023-05-27T05:55:52Z</time>
      </trkpt>
      <trkpt lat="43.46722" lon="1.56349">
        <ele>175.6</ele>
        <time>2023-05-27T05:55:53Z</time>
      </trkpt>
      <trkpt lat="43.46722" lon="1.56352">
        <ele>175.6</ele>
        <time>2023-05-27T05:55:54Z</time>
      </trkpt>
      <trkpt lat="43.46717" lon="1.56358">
        <ele>175.6</ele>
        <time>2023-05-27T05:55:55Z</time>
      </trkpt>
      <trkpt lat="43.46715" lon="1.56361">
        <ele>175.6</ele>
        <time>2023-05-27T05:55:56Z</time>
      </trkpt>
      <trkpt lat="43.46712" lon="1.56365">
        <ele>175.8</ele>
        <time>2023-05-27T05:55:57Z</time>
      </trkpt>
      <trkpt lat="43.46709" lon="1.56369">
        <ele>175.8</ele>
        <time>2023-05-27T05:55:58Z</time>
      </trkpt>
      <trkpt lat="43.46707" lon="1.56375">
        <ele>175.8</ele>
        <time>2023-05-27T05:55:59Z</time>
      </trkpt>
      <trkpt lat="43.46705" lon="1.5638">
        <ele>175.8</ele>
        <time>2023-05-27T05:56:00Z</time>
      </trkpt>
      <trkpt lat="43.46704" lon="1.56385">
        <ele>175.8</ele>
        <time>2023-05-27T05:56:01Z</time>
      </trkpt>
      <trkpt lat="43.46702" lon="1.5639">
        <ele>175.8</ele>
        <time>2023-05-27T05:56:02Z</time>
      </trkpt>
      <trkpt lat="43.46699" lon="1.56397">
        <ele>175.8</ele>
        <time>2023-05-27T05:56:03Z</time>
      </trkpt>
      <trkpt lat="43.46696" lon="1.56404">
        <ele>175.8</ele>
        <time>2023-05-27T05:56:04Z</time>
      </trkpt>
      <trkpt lat="43.46693" lon="1.5641">
        <ele>175.8</ele>
        <time>2023-05-27T05:56:05Z</time>
      </trkpt>
      <trkpt lat="43.46691" lon="1.56417">
        <ele>175.8</ele>
        <time>2023-05-27T05:56:06Z</time>
      </trkpt>
      <trkpt lat="43.46689" lon="1.56423">
        <ele>175.8</ele>
        <time>2023-05-27T05:56:07Z</time>
      </trkpt>
      <trkpt lat="43.46687" lon="1.56429">
        <ele>175.8</ele>
        <time>2023-05-27T05:56:08Z</time>
      </trkpt>
      <trkpt lat="43.46686" lon="1.56435">
        <ele>175.8</ele>
        <time>2023-05-27T05:56:09Z</time>
      </trkpt>
      <trkpt lat="43.46684" lon="1.5644">
        <ele>175.8</ele>
        <time>2023-05-27T05:56:10Z</time>
      </trkpt>
      <trkpt lat="43.46681" lon="1.56446">
        <ele>175.8</ele>
        <time>2023-05-27T05:56:11Z</time>
      </trkpt>
      <trkpt lat="43.46678" lon="1.56451">
        <ele>175.8</ele>
        <time>2023-05-27T05:56:12Z</time>
      </trkpt>
      <trkpt lat="43.46675" lon="1.56458">
        <ele>175.8</ele>
        <time>2023-05-27T05:56:13Z</time>
      </trkpt>
      <trkpt lat="43.46673" lon="1.56464">
        <ele>175.8</ele>
        <time>2023-05-27T05:56:14Z</time>
      </trkpt>
      <trkpt lat="43.46673" lon="1.56469">
        <ele>175.8</ele>
        <time>2023-05-27T05:56:15Z</time>
      </trkpt>
      <trkpt lat="43.46671" lon="1.56474">
        <ele>175.8</ele>
        <time>2023-05-27T05:56:16Z</time>
      </trkpt>
      <trkpt lat="43.4667" lon="1.56479">
        <ele>175.8</ele>
        <time>2023-05-27T05:56:17Z</time>
      </trkpt>
      <trkpt lat="43.46668" lon="1.56484">
        <ele>175.8</ele>
        <time>2023-05-27T05:56:18Z</time>
      </trkpt>
      <trkpt lat="43.46666" lon="1.56491">
        <ele>176</ele>
        <time>2023-05-27T05:56:19Z</time>
      </trkpt>
      <trkpt lat="43.46665" lon="1.56497">
        <ele>176</ele>
        <time>2023-05-27T05:56:20Z</time>
      </trkpt>
      <trkpt lat="43.46661" lon="1.56503">
        <ele>176</ele>
        <time>2023-05-27T05:56:21Z</time>
      </trkpt>
      <trkpt lat="43.46659" lon="1.56508">
        <ele>176</ele>
        <time>2023-05-27T05:56:22Z</time>
      </trkpt>
      <trkpt lat="43.46655" lon="1.56514">
        <ele>176</ele>
        <time>2023-05-27T05:56:23Z</time>
      </trkpt>
      <trkpt lat="43.46653" lon="1.5652">
        <ele>176</ele>
        <time>2023-05-27T05:56:24Z</time>
      </trkpt>
      <trkpt lat="43.46653" lon="1.56522">
        <ele>175.8</ele>
        <time>2023-05-27T05:56:25Z</time>
      </trkpt>
      <trkpt lat="43.46651" lon="1.56528">
        <ele>175.8</ele>
        <time>2023-05-27T05:56:26Z</time>
      </trkpt>
      <trkpt lat="43.46646" lon="1.56536">
        <ele>175.8</ele>
        <time>2023-05-27T05:56:27Z</time>
      </trkpt>
      <trkpt lat="43.46644" lon="1.56542">
        <ele>175.8</ele>
        <time>2023-05-27T05:56:28Z</time>
      </trkpt>
      <trkpt lat="43.46643" lon="1.56548">
        <ele>175.8</ele>
        <time>2023-05-27T05:56:29Z</time>
      </trkpt>
      <trkpt lat="43.46642" lon="1.56554">
        <ele>175.8</ele>
        <time>2023-05-27T05:56:30Z</time>
      </trkpt>
      <trkpt lat="43.46641" lon="1.56558">
        <ele>175.8</ele>
        <time>2023-05-27T05:56:31Z</time>
      </trkpt>
      <trkpt lat="43.4664" lon="1.56561">
        <ele>175.8</ele>
        <time>2023-05-27T05:56:32Z</time>
      </trkpt>
      <trkpt lat="43.46638" lon="1.56565">
        <ele>175.8</ele>
        <time>2023-05-27T05:56:33Z</time>
      </trkpt>
      <trkpt lat="43.46637" lon="1.56568">
        <ele>175.8</ele>
        <time>2023-05-27T05:56:34Z</time>
      </trkpt>
      <trkpt lat="43.46636" lon="1.56573">
        <ele>175.8</ele>
        <time>2023-05-27T05:56:35Z</time>
      </trkpt>
      <trkpt lat="43.46633" lon="1.56581">
        <ele>175.8</ele>
        <time>2023-05-27T05:56:36Z</time>
      </trkpt>
      <trkpt lat="43.4663" lon="1.56587">
        <ele>175.8</ele>
        <time>2023-05-27T05:56:37Z</time>
      </trkpt>
      <trkpt lat="43.46627" lon="1.56594">
        <ele>175.8</ele>
        <time>2023-05-27T05:56:38Z</time>
      </trkpt>
      <trkpt lat="43.46623" lon="1.566">
        <ele>175.8</ele>
        <time>2023-05-27T05:56:39Z</time>
      </trkpt>
      <trkpt lat="43.46621" lon="1.56604">
        <ele>175.8</ele>
        <time>2023-05-27T05:56:40Z</time>
      </trkpt>
      <trkpt lat="43.46618" lon="1.56609">
        <ele>175.8</ele>
        <time>2023-05-27T05:56:41Z</time>
      </trkpt>
      <trkpt lat="43.46617" lon="1.56614">
        <ele>175.8</ele>
        <time>2023-05-27T05:56:42Z</time>
      </trkpt>
      <trkpt lat="43.46615" lon="1.5662">
        <ele>175.8</ele>
        <time>2023-05-27T05:56:43Z</time>
      </trkpt>
      <trkpt lat="43.46613" lon="1.56627">
        <ele>175.8</ele>
        <time>2023-05-27T05:56:44Z</time>
      </trkpt>
      <trkpt lat="43.46612" lon="1.56632">
        <ele>175.6</ele>
        <time>2023-05-27T05:56:45Z</time>
      </trkpt>
      <trkpt lat="43.46611" lon="1.56638">
        <ele>175.6</ele>
        <time>2023-05-27T05:56:46Z</time>
      </trkpt>
      <trkpt lat="43.4661" lon="1.56642">
        <ele>175.6</ele>
        <time>2023-05-27T05:56:47Z</time>
      </trkpt>
      <trkpt lat="43.46608" lon="1.56647">
        <ele>175.6</ele>
        <time>2023-05-27T05:56:48Z</time>
      </trkpt>
      <trkpt lat="43.46604" lon="1.56651">
        <ele>175.6</ele>
        <time>2023-05-27T05:56:49Z</time>
      </trkpt>
      <trkpt lat="43.46601" lon="1.56657">
        <ele>175.6</ele>
        <time>2023-05-27T05:56:50Z</time>
      </trkpt>
      <trkpt lat="43.46598" lon="1.56664">
        <ele>175.6</ele>
        <time>2023-05-27T05:56:51Z</time>
      </trkpt>
      <trkpt lat="43.46595" lon="1.56669">
        <ele>175.6</ele>
        <time>2023-05-27T05:56:52Z</time>
      </trkpt>
      <trkpt lat="43.46593" lon="1.56673">
        <ele>175.6</ele>
        <time>2023-05-27T05:56:53Z</time>
      </trkpt>
      <trkpt lat="43.46592" lon="1.56677">
        <ele>175.6</ele>
        <time>2023-05-27T05:56:54Z</time>
      </trkpt>
      <trkpt lat="43.46589" lon="1.56684">
        <ele>175.6</ele>
        <time>2023-05-27T05:56:55Z</time>
      </trkpt>
      <trkpt lat="43.46587" lon="1.56692">
        <ele>175.6</ele>
        <time>2023-05-27T05:56:56Z</time>
      </trkpt>
      <trkpt lat="43.46586" lon="1.56697">
        <ele>175.6</ele>
        <time>2023-05-27T05:56:57Z</time>
      </trkpt>
      <trkpt lat="43.46585" lon="1.56704">
        <ele>175.6</ele>
        <time>2023-05-27T05:56:58Z</time>
      </trkpt>
      <trkpt lat="43.46583" lon="1.56709">
        <ele>175.6</ele>
        <time>2023-05-27T05:56:59Z</time>
      </trkpt>
      <trkpt lat="43.46581" lon="1.56711">
        <ele>175.8</ele>
        <time>2023-05-27T05:57:00Z</time>
      </trkpt>
      <trkpt lat="43.46578" lon="1.56715">
        <ele>175.8</ele>
        <time>2023-05-27T05:57:01Z</time>
      </trkpt>
      <trkpt lat="43.46577" lon="1.56719">
        <ele>175.8</ele>
        <time>2023-05-27T05:57:02Z</time>
      </trkpt>
      <trkpt lat="43.46575" lon="1.56722">
        <ele>175.8</ele>
        <time>2023-05-27T05:57:03Z</time>
      </trkpt>
      <trkpt lat="43.46574" lon="1.56726">
        <ele>175.8</ele>
        <time>2023-05-27T05:57:04Z</time>
      </trkpt>
      <trkpt lat="43.46571" lon="1.56731">
        <ele>175.8</ele>
        <time>2023-05-27T05:57:05Z</time>
      </trkpt>
      <trkpt lat="43.46569" lon="1.56736">
        <ele>175.8</ele>
        <time>2023-05-27T05:57:06Z</time>
      </trkpt>
      <trkpt lat="43.46567" lon="1.56741">
        <ele>175.8</ele>
        <time>2023-05-27T05:57:07Z</time>
      </trkpt>
      <trkpt lat="43.46565" lon="1.56745">
        <ele>175.8</ele>
        <time>2023-05-27T05:57:08Z</time>
      </trkpt>
      <trkpt lat="43.46563" lon="1.56749">
        <ele>175.8</ele>
        <time>2023-05-27T05:57:09Z</time>
      </trkpt>
      <trkpt lat="43.46561" lon="1.56753">
        <ele>175.8</ele>
        <time>2023-05-27T05:57:10Z</time>
      </trkpt>
      <trkpt lat="43.46559" lon="1.56757">
        <ele>176</ele>
        <time>2023-05-27T05:57:11Z</time>
      </trkpt>
      <trkpt lat="43.46557" lon="1.56761">
        <ele>176</ele>
        <time>2023-05-27T05:57:12Z</time>
      </trkpt>
      <trkpt lat="43.46555" lon="1.56766">
        <ele>176</ele>
        <time>2023-05-27T05:57:13Z</time>
      </trkpt>
      <trkpt lat="43.46553" lon="1.5677">
        <ele>176</ele>
        <time>2023-05-27T05:57:14Z</time>
      </trkpt>
      <trkpt lat="43.4655" lon="1.56774">
        <ele>176.2</ele>
        <time>2023-05-27T05:57:15Z</time>
      </trkpt>
      <trkpt lat="43.46548" lon="1.56778">
        <ele>176.2</ele>
        <time>2023-05-27T05:57:16Z</time>
      </trkpt>
      <trkpt lat="43.46545" lon="1.56782">
        <ele>176.2</ele>
        <time>2023-05-27T05:57:17Z</time>
      </trkpt>
      <trkpt lat="43.46543" lon="1.56787">
        <ele>176.2</ele>
        <time>2023-05-27T05:57:18Z</time>
      </trkpt>
      <trkpt lat="43.46541" lon="1.56791">
        <ele>176.2</ele>
        <time>2023-05-27T05:57:19Z</time>
      </trkpt>
      <trkpt lat="43.46538" lon="1.56797">
        <ele>176.2</ele>
        <time>2023-05-27T05:57:20Z</time>
      </trkpt>
      <trkpt lat="43.46534" lon="1.56802">
        <ele>176.2</ele>
        <time>2023-05-27T05:57:21Z</time>
      </trkpt>
      <trkpt lat="43.46531" lon="1.56807">
        <ele>176.4</ele>
        <time>2023-05-27T05:57:22Z</time>
      </trkpt>
      <trkpt lat="43.46529" lon="1.56811">
        <ele>176.4</ele>
        <time>2023-05-27T05:57:23Z</time>
      </trkpt>
      <trkpt lat="43.46527" lon="1.56815">
        <ele>176.4</ele>
        <time>2023-05-27T05:57:24Z</time>
      </trkpt>
      <trkpt lat="43.46525" lon="1.5682">
        <ele>176.4</ele>
        <time>2023-05-27T05:57:25Z</time>
      </trkpt>
      <trkpt lat="43.46523" lon="1.56824">
        <ele>176.4</ele>
        <time>2023-05-27T05:57:26Z</time>
      </trkpt>
      <trkpt lat="43.46521" lon="1.56828">
        <ele>176.6</ele>
        <time>2023-05-27T05:57:27Z</time>
      </trkpt>
      <trkpt lat="43.46519" lon="1.56832">
        <ele>176.6</ele>
        <time>2023-05-27T05:57:28Z</time>
      </trkpt>
      <trkpt lat="43.46516" lon="1.56837">
        <ele>176.6</ele>
        <time>2023-05-27T05:57:29Z</time>
      </trkpt>
      <trkpt lat="43.46515" lon="1.56841">
        <ele>176.8</ele>
        <time>2023-05-27T05:57:30Z</time>
      </trkpt>
      <trkpt lat="43.46511" lon="1.56845">
        <ele>176.8</ele>
        <time>2023-05-27T05:57:31Z</time>
      </trkpt>
      <trkpt lat="43.46508" lon="1.5685">
        <ele>176.8</ele>
        <time>2023-05-27T05:57:32Z</time>
      </trkpt>
      <trkpt lat="43.46505" lon="1.56857">
        <ele>176.8</ele>
        <time>2023-05-27T05:57:33Z</time>
      </trkpt>
      <trkpt lat="43.46503" lon="1.56861">
        <ele>176.8</ele>
        <time>2023-05-27T05:57:34Z</time>
      </trkpt>
      <trkpt lat="43.46503" lon="1.56865">
        <ele>176.8</ele>
        <time>2023-05-27T05:57:35Z</time>
      </trkpt>
      <trkpt lat="43.46502" lon="1.56868">
        <ele>176.8</ele>
        <time>2023-05-27T05:57:36Z</time>
      </trkpt>
      <trkpt lat="43.465" lon="1.56871">
        <ele>176.8</ele>
        <time>2023-05-27T05:57:37Z</time>
      </trkpt>
      <trkpt lat="43.46497" lon="1.56874">
        <ele>176.8</ele>
        <time>2023-05-27T05:57:38Z</time>
      </trkpt>
      <trkpt lat="43.46495" lon="1.56878">
        <ele>176.8</ele>
        <time>2023-05-27T05:57:39Z</time>
      </trkpt>
      <trkpt lat="43.46492" lon="1.56884">
        <ele>176.8</ele>
        <time>2023-05-27T05:57:40Z</time>
      </trkpt>
      <trkpt lat="43.4649" lon="1.56888">
        <ele>176.8</ele>
        <time>2023-05-27T05:57:41Z</time>
      </trkpt>
      <trkpt lat="43.46488" lon="1.56893">
        <ele>176.8</ele>
        <time>2023-05-27T05:57:42Z</time>
      </trkpt>
      <trkpt lat="43.46487" lon="1.569">
        <ele>176.8</ele>
        <time>2023-05-27T05:57:43Z</time>
      </trkpt>
      <trkpt lat="43.46484" lon="1.56905">
        <ele>176.8</ele>
        <time>2023-05-27T05:57:44Z</time>
      </trkpt>
      <trkpt lat="43.46482" lon="1.56911">
        <ele>176.8</ele>
        <time>2023-05-27T05:57:45Z</time>
      </trkpt>
      <trkpt lat="43.46477" lon="1.56916">
        <ele>177</ele>
        <time>2023-05-27T05:57:46Z</time>
      </trkpt>
      <trkpt lat="43.46474" lon="1.5692">
        <ele>177</ele>
        <time>2023-05-27T05:57:47Z</time>
      </trkpt>
      <trkpt lat="43.46472" lon="1.56924">
        <ele>177.2</ele>
        <time>2023-05-27T05:57:48Z</time>
      </trkpt>
      <trkpt lat="43.46466" lon="1.56929">
        <ele>177.2</ele>
        <time>2023-05-27T05:57:49Z</time>
      </trkpt>
      <trkpt lat="43.46461" lon="1.56933">
        <ele>177.4</ele>
        <time>2023-05-27T05:57:50Z</time>
      </trkpt>
      <trkpt lat="43.46459" lon="1.56937">
        <ele>177.4</ele>
        <time>2023-05-27T05:57:51Z</time>
      </trkpt>
      <trkpt lat="43.46458" lon="1.5694">
        <ele>177.6</ele>
        <time>2023-05-27T05:57:52Z</time>
      </trkpt>
      <trkpt lat="43.46457" lon="1.56946">
        <ele>177.8</ele>
        <time>2023-05-27T05:57:53Z</time>
      </trkpt>
      <trkpt lat="43.46455" lon="1.5695">
        <ele>177.8</ele>
        <time>2023-05-27T05:57:54Z</time>
      </trkpt>
      <trkpt lat="43.46454" lon="1.56954">
        <ele>178</ele>
        <time>2023-05-27T05:57:55Z</time>
      </trkpt>
      <trkpt lat="43.46452" lon="1.56957">
        <ele>178</ele>
        <time>2023-05-27T05:57:56Z</time>
      </trkpt>
      <trkpt lat="43.4645" lon="1.56959">
        <ele>178.2</ele>
        <time>2023-05-27T05:57:57Z</time>
      </trkpt>
      <trkpt lat="43.46448" lon="1.56962">
        <ele>178.2</ele>
        <time>2023-05-27T05:57:58Z</time>
      </trkpt>
      <trkpt lat="43.46446" lon="1.56964">
        <ele>178.4</ele>
        <time>2023-05-27T05:57:59Z</time>
      </trkpt>
      <trkpt lat="43.46445" lon="1.56967">
        <ele>178.4</ele>
        <time>2023-05-27T05:58:00Z</time>
      </trkpt>
      <trkpt lat="43.46443" lon="1.56969">
        <ele>178.4</ele>
        <time>2023-05-27T05:58:01Z</time>
      </trkpt>
      <trkpt lat="43.46441" lon="1.56972">
        <ele>178.4</ele>
        <time>2023-05-27T05:58:02Z</time>
      </trkpt>
      <trkpt lat="43.46439" lon="1.56975">
        <ele>178.4</ele>
        <time>2023-05-27T05:58:03Z</time>
      </trkpt>
      <trkpt lat="43.46436" lon="1.56978">
        <ele>178.4</ele>
        <time>2023-05-27T05:58:04Z</time>
      </trkpt>
      <trkpt lat="43.46432" lon="1.56982">
        <ele>178.2</ele>
        <time>2023-05-27T05:58:05Z</time>
      </trkpt>
      <trkpt lat="43.4643" lon="1.56985">
        <ele>178.2</ele>
        <time>2023-05-27T05:58:06Z</time>
      </trkpt>
      <trkpt lat="43.46426" lon="1.56988">
        <ele>178</ele>
        <time>2023-05-27T05:58:07Z</time>
      </trkpt>
      <trkpt lat="43.46422" lon="1.56992">
        <ele>177.8</ele>
        <time>2023-05-27T05:58:08Z</time>
      </trkpt>
      <trkpt lat="43.46417" lon="1.56996">
        <ele>177.6</ele>
        <time>2023-05-27T05:58:09Z</time>
      </trkpt>
      <trkpt lat="43.46413" lon="1.57">
        <ele>177.4</ele>
        <time>2023-05-27T05:58:10Z</time>
      </trkpt>
      <trkpt lat="43.46409" lon="1.57004">
        <ele>177.2</ele>
        <time>2023-05-27T05:58:11Z</time>
      </trkpt>
      <trkpt lat="43.46405" lon="1.57008">
        <ele>177</ele>
        <time>2023-05-27T05:58:12Z</time>
      </trkpt>
      <trkpt lat="43.46401" lon="1.57014">
        <ele>176.8</ele>
        <time>2023-05-27T05:58:13Z</time>
      </trkpt>
      <trkpt lat="43.46396" lon="1.57018">
        <ele>176.6</ele>
        <time>2023-05-27T05:58:14Z</time>
      </trkpt>
      <trkpt lat="43.46393" lon="1.57021">
        <ele>176.6</ele>
        <time>2023-05-27T05:58:15Z</time>
      </trkpt>
      <trkpt lat="43.46389" lon="1.57025">
        <ele>176.6</ele>
        <time>2023-05-27T05:58:16Z</time>
      </trkpt>
      <trkpt lat="43.46385" lon="1.57029">
        <ele>176.4</ele>
        <time>2023-05-27T05:58:17Z</time>
      </trkpt>
      <trkpt lat="43.46381" lon="1.57032">
        <ele>176.4</ele>
        <time>2023-05-27T05:58:18Z</time>
      </trkpt>
      <trkpt lat="43.46377" lon="1.57035">
        <ele>176.4</ele>
        <time>2023-05-27T05:58:19Z</time>
      </trkpt>
      <trkpt lat="43.46373" lon="1.57039">
        <ele>176.4</ele>
        <time>2023-05-27T05:58:20Z</time>
      </trkpt>
      <trkpt lat="43.46369" lon="1.57043">
        <ele>176.4</ele>
        <time>2023-05-27T05:58:21Z</time>
      </trkpt>
      <trkpt lat="43.46365" lon="1.57047">
        <ele>176.4</ele>
        <time>2023-05-27T05:58:22Z</time>
      </trkpt>
      <trkpt lat="43.46361" lon="1.57049">
        <ele>176.4</ele>
        <time>2023-05-27T05:58:23Z</time>
      </trkpt>
      <trkpt lat="43.46357" lon="1.57052">
        <ele>176.2</ele>
        <time>2023-05-27T05:58:24Z</time>
      </trkpt>
      <trkpt lat="43.46353" lon="1.57055">
        <ele>176.2</ele>
        <time>2023-05-27T05:58:25Z</time>
      </trkpt>
      <trkpt lat="43.4635" lon="1.57058">
        <ele>176.2</ele>
        <time>2023-05-27T05:58:26Z</time>
      </trkpt>
      <trkpt lat="43.46346" lon="1.57061">
        <ele>176.2</ele>
        <time>2023-05-27T05:58:27Z</time>
      </trkpt>
      <trkpt lat="43.46343" lon="1.57063">
        <ele>176.2</ele>
        <time>2023-05-27T05:58:28Z</time>
      </trkpt>
      <trkpt lat="43.4634" lon="1.57065">
        <ele>176.2</ele>
        <time>2023-05-27T05:58:29Z</time>
      </trkpt>
      <trkpt lat="43.46336" lon="1.57068">
        <ele>176.2</ele>
        <time>2023-05-27T05:58:30Z</time>
      </trkpt>
      <trkpt lat="43.46333" lon="1.5707">
        <ele>176.4</ele>
        <time>2023-05-27T05:58:31Z</time>
      </trkpt>
      <trkpt lat="43.4633" lon="1.57072">
        <ele>176.4</ele>
        <time>2023-05-27T05:58:32Z</time>
      </trkpt>
      <trkpt lat="43.46326" lon="1.57074">
        <ele>176.4</ele>
        <time>2023-05-27T05:58:33Z</time>
      </trkpt>
      <trkpt lat="43.46323" lon="1.57076">
        <ele>176.4</ele>
        <time>2023-05-27T05:58:34Z</time>
      </trkpt>
      <trkpt lat="43.4632" lon="1.57077">
        <ele>176.4</ele>
        <time>2023-05-27T05:58:35Z</time>
      </trkpt>
      <trkpt lat="43.46317" lon="1.57079">
        <ele>176.6</ele>
        <time>2023-05-27T05:58:36Z</time>
      </trkpt>
      <trkpt lat="43.46314" lon="1.57081">
        <ele>176.6</ele>
        <time>2023-05-27T05:58:37Z</time>
      </trkpt>
      <trkpt lat="43.46311" lon="1.57083">
        <ele>176.6</ele>
        <time>2023-05-27T05:58:38Z</time>
      </trkpt>
      <trkpt lat="43.46309" lon="1.57084">
        <ele>176.8</ele>
        <time>2023-05-27T05:58:39Z</time>
      </trkpt>
      <trkpt lat="43.46307" lon="1.57085">
        <ele>176.8</ele>
        <time>2023-05-27T05:58:40Z</time>
      </trkpt>
      <trkpt lat="43.46304" lon="1.57085">
        <ele>177</ele>
        <time>2023-05-27T05:58:41Z</time>
      </trkpt>
      <trkpt lat="43.46302" lon="1.57085">
        <ele>177</ele>
        <time>2023-05-27T05:58:42Z</time>
      </trkpt>
      <trkpt lat="43.463" lon="1.57085">
        <ele>177</ele>
        <time>2023-05-27T05:58:43Z</time>
      </trkpt>
      <trkpt lat="43.46298" lon="1.57086">
        <ele>177</ele>
        <time>2023-05-27T05:58:44Z</time>
      </trkpt>
      <trkpt lat="43.46296" lon="1.57086">
        <ele>177.2</ele>
        <time>2023-05-27T05:58:45Z</time>
      </trkpt>
      <trkpt lat="43.46294" lon="1.57087">
        <ele>177.2</ele>
        <time>2023-05-27T05:58:46Z</time>
      </trkpt>
      <trkpt lat="43.46292" lon="1.57088">
        <ele>177.2</ele>
        <time>2023-05-27T05:58:47Z</time>
      </trkpt>
      <trkpt lat="43.46291" lon="1.57089">
        <ele>177.2</ele>
        <time>2023-05-27T05:58:48Z</time>
      </trkpt>
      <trkpt lat="43.46291" lon="1.5709">
        <ele>177.2</ele>
        <time>2023-05-27T05:58:49Z</time>
      </trkpt>
      <trkpt lat="43.4629" lon="1.57092">
        <ele>177.2</ele>
        <time>2023-05-27T05:58:50Z</time>
      </trkpt>
      <trkpt lat="43.46289" lon="1.57093">
        <ele>177.2</ele>
        <time>2023-05-27T05:58:51Z</time>
      </trkpt>
      <trkpt lat="43.46286" lon="1.57095">
        <ele>177.2</ele>
        <time>2023-05-27T05:58:52Z</time>
      </trkpt>
      <trkpt lat="43.46284" lon="1.57097">
        <ele>177.2</ele>
        <time>2023-05-27T05:58:53Z</time>
      </trkpt>
      <trkpt lat="43.46281" lon="1.57099">
        <ele>177.2</ele>
        <time>2023-05-27T05:58:54Z</time>
      </trkpt>
      <trkpt lat="43.46279" lon="1.57101">
        <ele>177.2</ele>
        <time>2023-05-27T05:58:55Z</time>
      </trkpt>
      <trkpt lat="43.46277" lon="1.57103">
        <ele>177.2</ele>
        <time>2023-05-27T05:58:56Z</time>
      </trkpt>
      <trkpt lat="43.46273" lon="1.57105">
        <ele>177.2</ele>
        <time>2023-05-27T05:58:57Z</time>
      </trkpt>
      <trkpt lat="43.46271" lon="1.57107">
        <ele>177.2</ele>
        <time>2023-05-27T05:58:58Z</time>
      </trkpt>
      <trkpt lat="43.46268" lon="1.57109">
        <ele>177.2</ele>
        <time>2023-05-27T05:58:59Z</time>
      </trkpt>
      <trkpt lat="43.46265" lon="1.57112">
        <ele>177.2</ele>
        <time>2023-05-27T05:59:00Z</time>
      </trkpt>
      <trkpt lat="43.46263" lon="1.57114">
        <ele>177.4</ele>
        <time>2023-05-27T05:59:01Z</time>
      </trkpt>
      <trkpt lat="43.4626" lon="1.57116">
        <ele>177.4</ele>
        <time>2023-05-27T05:59:02Z</time>
      </trkpt>
      <trkpt lat="43.46258" lon="1.57118">
        <ele>177.4</ele>
        <time>2023-05-27T05:59:03Z</time>
      </trkpt>
      <trkpt lat="43.46255" lon="1.5712">
        <ele>177.4</ele>
        <time>2023-05-27T05:59:04Z</time>
      </trkpt>
      <trkpt lat="43.46252" lon="1.57122">
        <ele>177.4</ele>
        <time>2023-05-27T05:59:05Z</time>
      </trkpt>
      <trkpt lat="43.4625" lon="1.57124">
        <ele>177.6</ele>
        <time>2023-05-27T05:59:06Z</time>
      </trkpt>
      <trkpt lat="43.46247" lon="1.57126">
        <ele>177.6</ele>
        <time>2023-05-27T05:59:07Z</time>
      </trkpt>
      <trkpt lat="43.46245" lon="1.57128">
        <ele>177.6</ele>
        <time>2023-05-27T05:59:08Z</time>
      </trkpt>
      <trkpt lat="43.46243" lon="1.57129">
        <ele>177.6</ele>
        <time>2023-05-27T05:59:09Z</time>
      </trkpt>
      <trkpt lat="43.46241" lon="1.5713">
        <ele>177.8</ele>
        <time>2023-05-27T05:59:10Z</time>
      </trkpt>
      <trkpt lat="43.46238" lon="1.57131">
        <ele>177.8</ele>
        <time>2023-05-27T05:59:11Z</time>
      </trkpt>
      <trkpt lat="43.46236" lon="1.57132">
        <ele>177.8</ele>
        <time>2023-05-27T05:59:12Z</time>
      </trkpt>
      <trkpt lat="43.46234" lon="1.57134">
        <ele>177.8</ele>
        <time>2023-05-27T05:59:13Z</time>
      </trkpt>
      <trkpt lat="43.46233" lon="1.57135">
        <ele>177.8</ele>
        <time>2023-05-27T05:59:14Z</time>
      </trkpt>
      <trkpt lat="43.46232" lon="1.57137">
        <ele>177.8</ele>
        <time>2023-05-27T05:59:15Z</time>
      </trkpt>
      <trkpt lat="43.46231" lon="1.57137">
        <ele>177.8</ele>
        <time>2023-05-27T05:59:16Z</time>
      </trkpt>
      <trkpt lat="43.46229" lon="1.57142">
        <ele>177.8</ele>
        <time>2023-05-27T06:03:36Z</time>
      </trkpt>
      <trkpt lat="43.46229" lon="1.57142">
        <ele>177.8</ele>
        <time>2023-05-27T06:03:37Z</time>
      </trkpt>
      <trkpt lat="43.46229" lon="1.57142">
        <ele>177.8</ele>
        <time>2023-05-27T06:03:38Z</time>
      </trkpt>
      <trkpt lat="43.46229" lon="1.57142">
        <ele>177.8</ele>
        <time>2023-05-27T06:03:39Z</time>
      </trkpt>
      <trkpt lat="43.46229" lon="1.57142">
        <ele>177.8</ele>
        <time>2023-05-27T06:03:40Z</time>
      </trkpt>
      <trkpt lat="43.46228" lon="1.57143">
        <ele>177.8</ele>
        <time>2023-05-27T06:03:41Z</time>
      </trkpt>
      <trkpt lat="43.46228" lon="1.57144">
        <ele>177.8</ele>
        <time>2023-05-27T06:03:42Z</time>
      </trkpt>
      <trkpt lat="43.46227" lon="1.57146">
        <ele>177.8</ele>
        <time>2023-05-27T06:03:43Z</time>
      </trkpt>
      <trkpt lat="43.46226" lon="1.57147">
        <ele>177.8</ele>
        <time>2023-05-27T06:03:44Z</time>
      </trkpt>
      <trkpt lat="43.46225" lon="1.57148">
        <ele>177.8</ele>
        <time>2023-05-27T06:03:45Z</time>
      </trkpt>
      <trkpt lat="43.46224" lon="1.57149">
        <ele>177.8</ele>
        <time>2023-05-27T06:03:46Z</time>
      </trkpt>
      <trkpt lat="43.46223" lon="1.57151">
        <ele>178</ele>
        <time>2023-05-27T06:03:47Z</time>
      </trkpt>
      <trkpt lat="43.46222" lon="1.57152">
        <ele>178</ele>
        <time>2023-05-27T06:03:48Z</time>
      </trkpt>
      <trkpt lat="43.46221" lon="1.57154">
        <ele>178</ele>
        <time>2023-05-27T06:03:49Z</time>
      </trkpt>
      <trkpt lat="43.4622" lon="1.57156">
        <ele>178</ele>
        <time>2023-05-27T06:03:50Z</time>
      </trkpt>
      <trkpt lat="43.46219" lon="1.57157">
        <ele>178.2</ele>
        <time>2023-05-27T06:03:51Z</time>
      </trkpt>
      <trkpt lat="43.46218" lon="1.57158">
        <ele>178.2</ele>
        <time>2023-05-27T06:03:52Z</time>
      </trkpt>
      <trkpt lat="43.46217" lon="1.5716">
        <ele>178.2</ele>
        <time>2023-05-27T06:03:53Z</time>
      </trkpt>
      <trkpt lat="43.46215" lon="1.57162">
        <ele>178.4</ele>
        <time>2023-05-27T06:03:54Z</time>
      </trkpt>
      <trkpt lat="43.46212" lon="1.57164">
        <ele>178.4</ele>
        <time>2023-05-27T06:03:55Z</time>
      </trkpt>
      <trkpt lat="43.46211" lon="1.57167">
        <ele>178.4</ele>
        <time>2023-05-27T06:03:56Z</time>
      </trkpt>
      <trkpt lat="43.46209" lon="1.57169">
        <ele>178.4</ele>
        <time>2023-05-27T06:03:57Z</time>
      </trkpt>
      <trkpt lat="43.46206" lon="1.57173">
        <ele>178.6</ele>
        <time>2023-05-27T06:03:58Z</time>
      </trkpt>
      <trkpt lat="43.46203" lon="1.57175">
        <ele>178.6</ele>
        <time>2023-05-27T06:03:59Z</time>
      </trkpt>
      <trkpt lat="43.46201" lon="1.57178">
        <ele>178.6</ele>
        <time>2023-05-27T06:04:00Z</time>
      </trkpt>
      <trkpt lat="43.46199" lon="1.57181">
        <ele>178.6</ele>
        <time>2023-05-27T06:04:01Z</time>
      </trkpt>
      <trkpt lat="43.46197" lon="1.57184">
        <ele>178.6</ele>
        <time>2023-05-27T06:04:02Z</time>
      </trkpt>
      <trkpt lat="43.46195" lon="1.57187">
        <ele>178.6</ele>
        <time>2023-05-27T06:04:03Z</time>
      </trkpt>
      <trkpt lat="43.46192" lon="1.57191">
        <ele>178.6</ele>
        <time>2023-05-27T06:04:04Z</time>
      </trkpt>
      <trkpt lat="43.4619" lon="1.57195">
        <ele>178.6</ele>
        <time>2023-05-27T06:04:05Z</time>
      </trkpt>
      <trkpt lat="43.46187" lon="1.57198">
        <ele>178.6</ele>
        <time>2023-05-27T06:04:06Z</time>
      </trkpt>
      <trkpt lat="43.46185" lon="1.57201">
        <ele>178.6</ele>
        <time>2023-05-27T06:04:07Z</time>
      </trkpt>
      <trkpt lat="43.46182" lon="1.57205">
        <ele>178.6</ele>
        <time>2023-05-27T06:04:08Z</time>
      </trkpt>
      <trkpt lat="43.4618" lon="1.57208">
        <ele>178.6</ele>
        <time>2023-05-27T06:04:09Z</time>
      </trkpt>
      <trkpt lat="43.46178" lon="1.57212">
        <ele>178.6</ele>
        <time>2023-05-27T06:04:10Z</time>
      </trkpt>
      <trkpt lat="43.46175" lon="1.57216">
        <ele>178.8</ele>
        <time>2023-05-27T06:04:11Z</time>
      </trkpt>
      <trkpt lat="43.46173" lon="1.57219">
        <ele>178.8</ele>
        <time>2023-05-27T06:04:12Z</time>
      </trkpt>
      <trkpt lat="43.46171" lon="1.57223">
        <ele>178.8</ele>
        <time>2023-05-27T06:04:13Z</time>
      </trkpt>
      <trkpt lat="43.46169" lon="1.57227">
        <ele>178.8</ele>
        <time>2023-05-27T06:04:14Z</time>
      </trkpt>
      <trkpt lat="43.46166" lon="1.57231">
        <ele>178.8</ele>
        <time>2023-05-27T06:04:15Z</time>
      </trkpt>
      <trkpt lat="43.46164" lon="1.57235">
        <ele>178.6</ele>
        <time>2023-05-27T06:04:16Z</time>
      </trkpt>
      <trkpt lat="43.46161" lon="1.57239">
        <ele>178.6</ele>
        <time>2023-05-27T06:04:17Z</time>
      </trkpt>
      <trkpt lat="43.46158" lon="1.57243">
        <ele>178.6</ele>
        <time>2023-05-27T06:04:18Z</time>
      </trkpt>
      <trkpt lat="43.46155" lon="1.57248">
        <ele>178.6</ele>
        <time>2023-05-27T06:04:19Z</time>
      </trkpt>
      <trkpt lat="43.46151" lon="1.57252">
        <ele>178.4</ele>
        <time>2023-05-27T06:04:20Z</time>
      </trkpt>
      <trkpt lat="43.46149" lon="1.57256">
        <ele>178.4</ele>
        <time>2023-05-27T06:04:21Z</time>
      </trkpt>
      <trkpt lat="43.46147" lon="1.5726">
        <ele>178.4</ele>
        <time>2023-05-27T06:04:22Z</time>
      </trkpt>
      <trkpt lat="43.46145" lon="1.57265">
        <ele>178.4</ele>
        <time>2023-05-27T06:04:23Z</time>
      </trkpt>
      <trkpt lat="43.46141" lon="1.57268">
        <ele>178.4</ele>
        <time>2023-05-27T06:04:24Z</time>
      </trkpt>
      <trkpt lat="43.46138" lon="1.57272">
        <ele>178.4</ele>
        <time>2023-05-27T06:04:25Z</time>
      </trkpt>
      <trkpt lat="43.46135" lon="1.57277">
        <ele>178.4</ele>
        <time>2023-05-27T06:04:26Z</time>
      </trkpt>
      <trkpt lat="43.46132" lon="1.5728">
        <ele>178.4</ele>
        <time>2023-05-27T06:04:27Z</time>
      </trkpt>
      <trkpt lat="43.46129" lon="1.57284">
        <ele>178.4</ele>
        <time>2023-05-27T06:04:28Z</time>
      </trkpt>
      <trkpt lat="43.46126" lon="1.57289">
        <ele>178.6</ele>
        <time>2023-05-27T06:04:29Z</time>
      </trkpt>
      <trkpt lat="43.46122" lon="1.57295">
        <ele>178.6</ele>
        <time>2023-05-27T06:04:30Z</time>
      </trkpt>
      <trkpt lat="43.4612" lon="1.57299">
        <ele>178.6</ele>
        <time>2023-05-27T06:04:31Z</time>
      </trkpt>
      <trkpt lat="43.46116" lon="1.57305">
        <ele>178.6</ele>
        <time>2023-05-27T06:04:32Z</time>
      </trkpt>
      <trkpt lat="43.46114" lon="1.57308">
        <ele>178.6</ele>
        <time>2023-05-27T06:04:33Z</time>
      </trkpt>
      <trkpt lat="43.46111" lon="1.57313">
        <ele>178.8</ele>
        <time>2023-05-27T06:04:34Z</time>
      </trkpt>
      <trkpt lat="43.46109" lon="1.57318">
        <ele>178.8</ele>
        <time>2023-05-27T06:04:35Z</time>
      </trkpt>
      <trkpt lat="43.46107" lon="1.57323">
        <ele>178.8</ele>
        <time>2023-05-27T06:04:36Z</time>
      </trkpt>
      <trkpt lat="43.46104" lon="1.57327">
        <ele>179</ele>
        <time>2023-05-27T06:04:37Z</time>
      </trkpt>
      <trkpt lat="43.46102" lon="1.57331">
        <ele>179</ele>
        <time>2023-05-27T06:04:38Z</time>
      </trkpt>
      <trkpt lat="43.46098" lon="1.57337">
        <ele>179.2</ele>
        <time>2023-05-27T06:04:39Z</time>
      </trkpt>
      <trkpt lat="43.46096" lon="1.5734">
        <ele>179.2</ele>
        <time>2023-05-27T06:04:40Z</time>
      </trkpt>
      <trkpt lat="43.46093" lon="1.57345">
        <ele>179.2</ele>
        <time>2023-05-27T06:04:41Z</time>
      </trkpt>
      <trkpt lat="43.46091" lon="1.57349">
        <ele>179.4</ele>
        <time>2023-05-27T06:04:42Z</time>
      </trkpt>
      <trkpt lat="43.46088" lon="1.57353">
        <ele>179.6</ele>
        <time>2023-05-27T06:04:43Z</time>
      </trkpt>
      <trkpt lat="43.46087" lon="1.57358">
        <ele>179.6</ele>
        <time>2023-05-27T06:04:44Z</time>
      </trkpt>
      <trkpt lat="43.46085" lon="1.57362">
        <ele>179.6</ele>
        <time>2023-05-27T06:04:45Z</time>
      </trkpt>
      <trkpt lat="43.46082" lon="1.57367">
        <ele>179.6</ele>
        <time>2023-05-27T06:04:46Z</time>
      </trkpt>
      <trkpt lat="43.46078" lon="1.57371">
        <ele>179.6</ele>
        <time>2023-05-27T06:04:47Z</time>
      </trkpt>
      <trkpt lat="43.46073" lon="1.57376">
        <ele>179.6</ele>
        <time>2023-05-27T06:04:48Z</time>
      </trkpt>
      <trkpt lat="43.4607" lon="1.57381">
        <ele>179.6</ele>
        <time>2023-05-27T06:04:49Z</time>
      </trkpt>
      <trkpt lat="43.46066" lon="1.57388">
        <ele>179.4</ele>
        <time>2023-05-27T06:04:50Z</time>
      </trkpt>
      <trkpt lat="43.46064" lon="1.57393">
        <ele>179.2</ele>
        <time>2023-05-27T06:04:51Z</time>
      </trkpt>
      <trkpt lat="43.46061" lon="1.57401">
        <ele>179.2</ele>
        <time>2023-05-27T06:04:52Z</time>
      </trkpt>
      <trkpt lat="43.46057" lon="1.57408">
        <ele>179</ele>
        <time>2023-05-27T06:04:53Z</time>
      </trkpt>
      <trkpt lat="43.46053" lon="1.57415">
        <ele>179</ele>
        <time>2023-05-27T06:04:54Z</time>
      </trkpt>
      <trkpt lat="43.4605" lon="1.57421">
        <ele>178.8</ele>
        <time>2023-05-27T06:04:55Z</time>
      </trkpt>
      <trkpt lat="43.46048" lon="1.57427">
        <ele>178.8</ele>
        <time>2023-05-27T06:04:56Z</time>
      </trkpt>
      <trkpt lat="43.46046" lon="1.57432">
        <ele>178.6</ele>
        <time>2023-05-27T06:04:57Z</time>
      </trkpt>
      <trkpt lat="43.46043" lon="1.57438">
        <ele>178.6</ele>
        <time>2023-05-27T06:04:58Z</time>
      </trkpt>
      <trkpt lat="43.4604" lon="1.57444">
        <ele>178.4</ele>
        <time>2023-05-27T06:04:59Z</time>
      </trkpt>
      <trkpt lat="43.46036" lon="1.57451">
        <ele>178.4</ele>
        <time>2023-05-27T06:05:00Z</time>
      </trkpt>
      <trkpt lat="43.4603" lon="1.57458">
        <ele>178.4</ele>
        <time>2023-05-27T06:05:01Z</time>
      </trkpt>
      <trkpt lat="43.46026" lon="1.57465">
        <ele>178.4</ele>
        <time>2023-05-27T06:05:02Z</time>
      </trkpt>
      <trkpt lat="43.46024" lon="1.5747">
        <ele>178.4</ele>
        <time>2023-05-27T06:05:03Z</time>
      </trkpt>
      <trkpt lat="43.46021" lon="1.57476">
        <ele>178.4</ele>
        <time>2023-05-27T06:05:04Z</time>
      </trkpt>
      <trkpt lat="43.46018" lon="1.57481">
        <ele>178.4</ele>
        <time>2023-05-27T06:05:05Z</time>
      </trkpt>
      <trkpt lat="43.46015" lon="1.57485">
        <ele>178.2</ele>
        <time>2023-05-27T06:05:06Z</time>
      </trkpt>
      <trkpt lat="43.46013" lon="1.5749">
        <ele>178.2</ele>
        <time>2023-05-27T06:05:07Z</time>
      </trkpt>
      <trkpt lat="43.4601" lon="1.57495">
        <ele>178.2</ele>
        <time>2023-05-27T06:05:08Z</time>
      </trkpt>
      <trkpt lat="43.46007" lon="1.575">
        <ele>178.2</ele>
        <time>2023-05-27T06:05:09Z</time>
      </trkpt>
      <trkpt lat="43.46003" lon="1.57505">
        <ele>178.4</ele>
        <time>2023-05-27T06:05:10Z</time>
      </trkpt>
      <trkpt lat="43.46001" lon="1.57509">
        <ele>178.4</ele>
        <time>2023-05-27T06:05:11Z</time>
      </trkpt>
      <trkpt lat="43.45999" lon="1.57514">
        <ele>178.4</ele>
        <time>2023-05-27T06:05:12Z</time>
      </trkpt>
      <trkpt lat="43.45997" lon="1.57519">
        <ele>178.4</ele>
        <time>2023-05-27T06:05:13Z</time>
      </trkpt>
      <trkpt lat="43.45994" lon="1.57523">
        <ele>178.4</ele>
        <time>2023-05-27T06:05:14Z</time>
      </trkpt>
      <trkpt lat="43.45992" lon="1.57528">
        <ele>178.4</ele>
        <time>2023-05-27T06:05:15Z</time>
      </trkpt>
      <trkpt lat="43.4599" lon="1.57532">
        <ele>178.4</ele>
        <time>2023-05-27T06:05:16Z</time>
      </trkpt>
      <trkpt lat="43.45987" lon="1.57537">
        <ele>178.4</ele>
        <time>2023-05-27T06:05:17Z</time>
      </trkpt>
      <trkpt lat="43.45985" lon="1.57542">
        <ele>178.2</ele>
        <time>2023-05-27T06:05:18Z</time>
      </trkpt>
      <trkpt lat="43.45983" lon="1.57547">
        <ele>178.2</ele>
        <time>2023-05-27T06:05:19Z</time>
      </trkpt>
      <trkpt lat="43.45981" lon="1.57553">
        <ele>178.2</ele>
        <time>2023-05-27T06:05:20Z</time>
      </trkpt>
      <trkpt lat="43.45978" lon="1.57558">
        <ele>178.2</ele>
        <time>2023-05-27T06:05:21Z</time>
      </trkpt>
      <trkpt lat="43.45976" lon="1.57563">
        <ele>178.2</ele>
        <time>2023-05-27T06:05:22Z</time>
      </trkpt>
      <trkpt lat="43.45973" lon="1.57567">
        <ele>178.2</ele>
        <time>2023-05-27T06:05:23Z</time>
      </trkpt>
      <trkpt lat="43.4597" lon="1.57572">
        <ele>178.2</ele>
        <time>2023-05-27T06:05:24Z</time>
      </trkpt>
      <trkpt lat="43.45967" lon="1.57577">
        <ele>178.2</ele>
        <time>2023-05-27T06:05:25Z</time>
      </trkpt>
      <trkpt lat="43.45964" lon="1.57584">
        <ele>178.2</ele>
        <time>2023-05-27T06:05:26Z</time>
      </trkpt>
      <trkpt lat="43.4596" lon="1.57589">
        <ele>178.2</ele>
        <time>2023-05-27T06:05:27Z</time>
      </trkpt>
      <trkpt lat="43.45957" lon="1.57594">
        <ele>178.2</ele>
        <time>2023-05-27T06:05:28Z</time>
      </trkpt>
      <trkpt lat="43.45954" lon="1.576">
        <ele>178.2</ele>
        <time>2023-05-27T06:05:29Z</time>
      </trkpt>
      <trkpt lat="43.4595" lon="1.57608">
        <ele>178</ele>
        <time>2023-05-27T06:05:30Z</time>
      </trkpt>
      <trkpt lat="43.45948" lon="1.57613">
        <ele>178</ele>
        <time>2023-05-27T06:05:31Z</time>
      </trkpt>
      <trkpt lat="43.45945" lon="1.57619">
        <ele>178</ele>
        <time>2023-05-27T06:05:32Z</time>
      </trkpt>
      <trkpt lat="43.45941" lon="1.57625">
        <ele>178</ele>
        <time>2023-05-27T06:05:33Z</time>
      </trkpt>
      <trkpt lat="43.45939" lon="1.57632">
        <ele>178</ele>
        <time>2023-05-27T06:05:34Z</time>
      </trkpt>
      <trkpt lat="43.45936" lon="1.57638">
        <ele>178</ele>
        <time>2023-05-27T06:05:35Z</time>
      </trkpt>
      <trkpt lat="43.45933" lon="1.57644">
        <ele>178</ele>
        <time>2023-05-27T06:05:36Z</time>
      </trkpt>
      <trkpt lat="43.45931" lon="1.57649">
        <ele>178</ele>
        <time>2023-05-27T06:05:37Z</time>
      </trkpt>
      <trkpt lat="43.45928" lon="1.57655">
        <ele>178</ele>
        <time>2023-05-27T06:05:38Z</time>
      </trkpt>
      <trkpt lat="43.45925" lon="1.57661">
        <ele>177.8</ele>
        <time>2023-05-27T06:05:39Z</time>
      </trkpt>
      <trkpt lat="43.45922" lon="1.57668">
        <ele>177.8</ele>
        <time>2023-05-27T06:05:40Z</time>
      </trkpt>
      <trkpt lat="43.45918" lon="1.57675">
        <ele>177.8</ele>
        <time>2023-05-27T06:05:41Z</time>
      </trkpt>
      <trkpt lat="43.45914" lon="1.57682">
        <ele>177.8</ele>
        <time>2023-05-27T06:05:42Z</time>
      </trkpt>
      <trkpt lat="43.45911" lon="1.57689">
        <ele>177.8</ele>
        <time>2023-05-27T06:05:43Z</time>
      </trkpt>
      <trkpt lat="43.4591" lon="1.57694">
        <ele>178</ele>
        <time>2023-05-27T06:05:44Z</time>
      </trkpt>
      <trkpt lat="43.45908" lon="1.57699">
        <ele>178</ele>
        <time>2023-05-27T06:05:45Z</time>
      </trkpt>
      <trkpt lat="43.45905" lon="1.57704">
        <ele>178</ele>
        <time>2023-05-27T06:05:46Z</time>
      </trkpt>
      <trkpt lat="43.45904" lon="1.57709">
        <ele>178</ele>
        <time>2023-05-27T06:05:47Z</time>
      </trkpt>
      <trkpt lat="43.459" lon="1.57716">
        <ele>178</ele>
        <time>2023-05-27T06:05:48Z</time>
      </trkpt>
      <trkpt lat="43.45897" lon="1.5772">
        <ele>178.2</ele>
        <time>2023-05-27T06:05:49Z</time>
      </trkpt>
      <trkpt lat="43.45895" lon="1.57725">
        <ele>178.2</ele>
        <time>2023-05-27T06:05:50Z</time>
      </trkpt>
      <trkpt lat="43.45894" lon="1.57729">
        <ele>178.2</ele>
        <time>2023-05-27T06:05:51Z</time>
      </trkpt>
      <trkpt lat="43.45892" lon="1.57733">
        <ele>178.4</ele>
        <time>2023-05-27T06:05:52Z</time>
      </trkpt>
      <trkpt lat="43.4589" lon="1.57739">
        <ele>178.4</ele>
        <time>2023-05-27T06:05:53Z</time>
      </trkpt>
      <trkpt lat="43.45887" lon="1.57746">
        <ele>178.4</ele>
        <time>2023-05-27T06:05:54Z</time>
      </trkpt>
      <trkpt lat="43.45885" lon="1.57752">
        <ele>178.6</ele>
        <time>2023-05-27T06:05:55Z</time>
      </trkpt>
      <trkpt lat="43.45884" lon="1.57758">
        <ele>178.6</ele>
        <time>2023-05-27T06:05:56Z</time>
      </trkpt>
      <trkpt lat="43.45883" lon="1.57761">
        <ele>178.8</ele>
        <time>2023-05-27T06:05:57Z</time>
      </trkpt>
      <trkpt lat="43.45881" lon="1.57766">
        <ele>178.8</ele>
        <time>2023-05-27T06:05:58Z</time>
      </trkpt>
      <trkpt lat="43.45878" lon="1.57772">
        <ele>178.8</ele>
        <time>2023-05-27T06:05:59Z</time>
      </trkpt>
      <trkpt lat="43.45877" lon="1.57776">
        <ele>179</ele>
        <time>2023-05-27T06:06:00Z</time>
      </trkpt>
      <trkpt lat="43.45874" lon="1.57781">
        <ele>179</ele>
        <time>2023-05-27T06:06:01Z</time>
      </trkpt>
      <trkpt lat="43.45873" lon="1.57787">
        <ele>179</ele>
        <time>2023-05-27T06:06:02Z</time>
      </trkpt>
      <trkpt lat="43.45871" lon="1.57792">
        <ele>179.2</ele>
        <time>2023-05-27T06:06:03Z</time>
      </trkpt>
      <trkpt lat="43.4587" lon="1.57795">
        <ele>179.2</ele>
        <time>2023-05-27T06:06:04Z</time>
      </trkpt>
      <trkpt lat="43.45869" lon="1.57799">
        <ele>179.2</ele>
        <time>2023-05-27T06:06:05Z</time>
      </trkpt>
      <trkpt lat="43.45868" lon="1.57803">
        <ele>179.4</ele>
        <time>2023-05-27T06:06:06Z</time>
      </trkpt>
      <trkpt lat="43.45866" lon="1.57807">
        <ele>179.4</ele>
        <time>2023-05-27T06:06:07Z</time>
      </trkpt>
      <trkpt lat="43.45864" lon="1.57813">
        <ele>179.4</ele>
        <time>2023-05-27T06:06:08Z</time>
      </trkpt>
      <trkpt lat="43.45862" lon="1.57817">
        <ele>179.4</ele>
        <time>2023-05-27T06:06:09Z</time>
      </trkpt>
      <trkpt lat="43.4586" lon="1.57822">
        <ele>179.4</ele>
        <time>2023-05-27T06:06:10Z</time>
      </trkpt>
      <trkpt lat="43.45859" lon="1.57826">
        <ele>179.4</ele>
        <time>2023-05-27T06:06:11Z</time>
      </trkpt>
      <trkpt lat="43.45858" lon="1.5783">
        <ele>179.4</ele>
        <time>2023-05-27T06:06:12Z</time>
      </trkpt>
      <trkpt lat="43.45857" lon="1.57835">
        <ele>179.2</ele>
        <time>2023-05-27T06:06:13Z</time>
      </trkpt>
      <trkpt lat="43.45855" lon="1.57841">
        <ele>179.2</ele>
        <time>2023-05-27T06:06:14Z</time>
      </trkpt>
      <trkpt lat="43.45854" lon="1.57846">
        <ele>179.2</ele>
        <time>2023-05-27T06:06:15Z</time>
      </trkpt>
      <trkpt lat="43.45852" lon="1.57851">
        <ele>179.4</ele>
        <time>2023-05-27T06:06:16Z</time>
      </trkpt>
      <trkpt lat="43.45849" lon="1.57857">
        <ele>179.4</ele>
        <time>2023-05-27T06:06:17Z</time>
      </trkpt>
      <trkpt lat="43.45847" lon="1.57862">
        <ele>179.4</ele>
        <time>2023-05-27T06:06:18Z</time>
      </trkpt>
      <trkpt lat="43.45845" lon="1.57866">
        <ele>179.4</ele>
        <time>2023-05-27T06:06:19Z</time>
      </trkpt>
      <trkpt lat="43.45844" lon="1.57871">
        <ele>179.4</ele>
        <time>2023-05-27T06:06:20Z</time>
      </trkpt>
      <trkpt lat="43.45843" lon="1.57876">
        <ele>179.4</ele>
        <time>2023-05-27T06:06:21Z</time>
      </trkpt>
      <trkpt lat="43.45841" lon="1.57881">
        <ele>179.4</ele>
        <time>2023-05-27T06:06:22Z</time>
      </trkpt>
      <trkpt lat="43.45839" lon="1.57886">
        <ele>179.4</ele>
        <time>2023-05-27T06:06:23Z</time>
      </trkpt>
      <trkpt lat="43.45838" lon="1.5789">
        <ele>179.4</ele>
        <time>2023-05-27T06:06:24Z</time>
      </trkpt>
      <trkpt lat="43.45836" lon="1.57896">
        <ele>179.4</ele>
        <time>2023-05-27T06:06:25Z</time>
      </trkpt>
      <trkpt lat="43.45833" lon="1.57905">
        <ele>179.4</ele>
        <time>2023-05-27T06:06:26Z</time>
      </trkpt>
      <trkpt lat="43.4583" lon="1.57912">
        <ele>179.2</ele>
        <time>2023-05-27T06:06:27Z</time>
      </trkpt>
      <trkpt lat="43.45827" lon="1.5792">
        <ele>179</ele>
        <time>2023-05-27T06:06:28Z</time>
      </trkpt>
      <trkpt lat="43.45825" lon="1.57925">
        <ele>178.8</ele>
        <time>2023-05-27T06:06:29Z</time>
      </trkpt>
      <trkpt lat="43.45822" lon="1.57932">
        <ele>178.6</ele>
        <time>2023-05-27T06:06:30Z</time>
      </trkpt>
      <trkpt lat="43.45818" lon="1.5794">
        <ele>178.4</ele>
        <time>2023-05-27T06:06:31Z</time>
      </trkpt>
      <trkpt lat="43.45815" lon="1.57948">
        <ele>178.2</ele>
        <time>2023-05-27T06:06:32Z</time>
      </trkpt>
      <trkpt lat="43.45813" lon="1.57955">
        <ele>178.2</ele>
        <time>2023-05-27T06:06:33Z</time>
      </trkpt>
      <trkpt lat="43.45809" lon="1.57962">
        <ele>178.2</ele>
        <time>2023-05-27T06:06:34Z</time>
      </trkpt>
      <trkpt lat="43.45807" lon="1.57969">
        <ele>178</ele>
        <time>2023-05-27T06:06:35Z</time>
      </trkpt>
      <trkpt lat="43.45803" lon="1.57974">
        <ele>178</ele>
        <time>2023-05-27T06:06:36Z</time>
      </trkpt>
      <trkpt lat="43.45801" lon="1.5798">
        <ele>178</ele>
        <time>2023-05-27T06:06:37Z</time>
      </trkpt>
      <trkpt lat="43.45799" lon="1.57985">
        <ele>178</ele>
        <time>2023-05-27T06:06:38Z</time>
      </trkpt>
      <trkpt lat="43.45797" lon="1.57989">
        <ele>178</ele>
        <time>2023-05-27T06:06:39Z</time>
      </trkpt>
      <trkpt lat="43.45794" lon="1.57994">
        <ele>178</ele>
        <time>2023-05-27T06:06:40Z</time>
      </trkpt>
      <trkpt lat="43.45792" lon="1.57998">
        <ele>178</ele>
        <time>2023-05-27T06:06:41Z</time>
      </trkpt>
      <trkpt lat="43.45789" lon="1.58003">
        <ele>178</ele>
        <time>2023-05-27T06:06:42Z</time>
      </trkpt>
      <trkpt lat="43.45786" lon="1.58009">
        <ele>177.8</ele>
        <time>2023-05-27T06:06:43Z</time>
      </trkpt>
      <trkpt lat="43.45784" lon="1.58013">
        <ele>177.8</ele>
        <time>2023-05-27T06:06:44Z</time>
      </trkpt>
      <trkpt lat="43.45781" lon="1.58017">
        <ele>177.8</ele>
        <time>2023-05-27T06:06:45Z</time>
      </trkpt>
      <trkpt lat="43.45778" lon="1.58022">
        <ele>177.8</ele>
        <time>2023-05-27T06:06:46Z</time>
      </trkpt>
      <trkpt lat="43.45775" lon="1.58028">
        <ele>177.8</ele>
        <time>2023-05-27T06:06:47Z</time>
      </trkpt>
      <trkpt lat="43.45773" lon="1.58033">
        <ele>177.8</ele>
        <time>2023-05-27T06:06:48Z</time>
      </trkpt>
      <trkpt lat="43.4577" lon="1.58038">
        <ele>177.6</ele>
        <time>2023-05-27T06:06:49Z</time>
      </trkpt>
      <trkpt lat="43.45768" lon="1.58043">
        <ele>177.6</ele>
        <time>2023-05-27T06:06:50Z</time>
      </trkpt>
      <trkpt lat="43.45766" lon="1.58046">
        <ele>177.6</ele>
        <time>2023-05-27T06:06:51Z</time>
      </trkpt>
      <trkpt lat="43.45763" lon="1.58052">
        <ele>177.6</ele>
        <time>2023-05-27T06:06:52Z</time>
      </trkpt>
      <trkpt lat="43.4576" lon="1.58056">
        <ele>177.6</ele>
        <time>2023-05-27T06:06:53Z</time>
      </trkpt>
      <trkpt lat="43.45757" lon="1.5806">
        <ele>177.6</ele>
        <time>2023-05-27T06:06:54Z</time>
      </trkpt>
      <trkpt lat="43.45754" lon="1.58064">
        <ele>177.6</ele>
        <time>2023-05-27T06:06:55Z</time>
      </trkpt>
      <trkpt lat="43.4575" lon="1.5807">
        <ele>177.4</ele>
        <time>2023-05-27T06:06:56Z</time>
      </trkpt>
      <trkpt lat="43.45748" lon="1.58073">
        <ele>177.4</ele>
        <time>2023-05-27T06:06:57Z</time>
      </trkpt>
      <trkpt lat="43.45744" lon="1.58079">
        <ele>177.4</ele>
        <time>2023-05-27T06:06:58Z</time>
      </trkpt>
      <trkpt lat="43.45741" lon="1.58084">
        <ele>177.4</ele>
        <time>2023-05-27T06:06:59Z</time>
      </trkpt>
      <trkpt lat="43.45739" lon="1.58088">
        <ele>177.4</ele>
        <time>2023-05-27T06:07:00Z</time>
      </trkpt>
      <trkpt lat="43.45735" lon="1.58093">
        <ele>177.4</ele>
        <time>2023-05-27T06:07:01Z</time>
      </trkpt>
      <trkpt lat="43.45732" lon="1.58098">
        <ele>177.6</ele>
        <time>2023-05-27T06:07:02Z</time>
      </trkpt>
      <trkpt lat="43.45728" lon="1.58101">
        <ele>177.6</ele>
        <time>2023-05-27T06:07:03Z</time>
      </trkpt>
      <trkpt lat="43.45725" lon="1.58105">
        <ele>177.6</ele>
        <time>2023-05-27T06:07:04Z</time>
      </trkpt>
      <trkpt lat="43.45722" lon="1.5811">
        <ele>177.6</ele>
        <time>2023-05-27T06:07:05Z</time>
      </trkpt>
      <trkpt lat="43.4572" lon="1.58113">
        <ele>177.6</ele>
        <time>2023-05-27T06:07:06Z</time>
      </trkpt>
      <trkpt lat="43.45717" lon="1.58117">
        <ele>177.6</ele>
        <time>2023-05-27T06:07:07Z</time>
      </trkpt>
      <trkpt lat="43.45713" lon="1.58123">
        <ele>177.6</ele>
        <time>2023-05-27T06:07:08Z</time>
      </trkpt>
      <trkpt lat="43.45709" lon="1.58128">
        <ele>177.4</ele>
        <time>2023-05-27T06:07:09Z</time>
      </trkpt>
      <trkpt lat="43.45705" lon="1.58134">
        <ele>177.4</ele>
        <time>2023-05-27T06:07:10Z</time>
      </trkpt>
      <trkpt lat="43.45702" lon="1.58139">
        <ele>177.4</ele>
        <time>2023-05-27T06:07:11Z</time>
      </trkpt>
      <trkpt lat="43.45697" lon="1.58145">
        <ele>177.6</ele>
        <time>2023-05-27T06:07:12Z</time>
      </trkpt>
      <trkpt lat="43.45693" lon="1.58151">
        <ele>177.6</ele>
        <time>2023-05-27T06:07:13Z</time>
      </trkpt>
      <trkpt lat="43.4569" lon="1.58155">
        <ele>177.6</ele>
        <time>2023-05-27T06:07:14Z</time>
      </trkpt>
      <trkpt lat="43.45687" lon="1.5816">
        <ele>177.8</ele>
        <time>2023-05-27T06:07:15Z</time>
      </trkpt>
      <trkpt lat="43.45685" lon="1.58164">
        <ele>177.8</ele>
        <time>2023-05-27T06:07:16Z</time>
      </trkpt>
      <trkpt lat="43.45681" lon="1.58168">
        <ele>177.8</ele>
        <time>2023-05-27T06:07:17Z</time>
      </trkpt>
      <trkpt lat="43.45678" lon="1.58174">
        <ele>177.8</ele>
        <time>2023-05-27T06:07:18Z</time>
      </trkpt>
      <trkpt lat="43.45675" lon="1.58181">
        <ele>177.8</ele>
        <time>2023-05-27T06:07:19Z</time>
      </trkpt>
      <trkpt lat="43.45672" lon="1.58187">
        <ele>177.8</ele>
        <time>2023-05-27T06:07:20Z</time>
      </trkpt>
      <trkpt lat="43.4567" lon="1.5819">
        <ele>177.8</ele>
        <time>2023-05-27T06:07:21Z</time>
      </trkpt>
      <trkpt lat="43.45668" lon="1.58194">
        <ele>177.8</ele>
        <time>2023-05-27T06:07:22Z</time>
      </trkpt>
      <trkpt lat="43.45666" lon="1.58198">
        <ele>177.8</ele>
        <time>2023-05-27T06:07:23Z</time>
      </trkpt>
      <trkpt lat="43.45663" lon="1.58202">
        <ele>177.8</ele>
        <time>2023-05-27T06:07:24Z</time>
      </trkpt>
      <trkpt lat="43.45659" lon="1.58207">
        <ele>177.8</ele>
        <time>2023-05-27T06:07:25Z</time>
      </trkpt>
      <trkpt lat="43.45654" lon="1.58212">
        <ele>177.8</ele>
        <time>2023-05-27T06:07:26Z</time>
      </trkpt>
      <trkpt lat="43.45648" lon="1.58218">
        <ele>177.6</ele>
        <time>2023-05-27T06:07:27Z</time>
      </trkpt>
      <trkpt lat="43.45644" lon="1.58223">
        <ele>177.6</ele>
        <time>2023-05-27T06:07:28Z</time>
      </trkpt>
      <trkpt lat="43.45642" lon="1.58227">
        <ele>177.6</ele>
        <time>2023-05-27T06:07:29Z</time>
      </trkpt>
      <trkpt lat="43.45639" lon="1.58231">
        <ele>177.6</ele>
        <time>2023-05-27T06:07:30Z</time>
      </trkpt>
      <trkpt lat="43.45636" lon="1.58236">
        <ele>177.4</ele>
        <time>2023-05-27T06:07:31Z</time>
      </trkpt>
      <trkpt lat="43.45633" lon="1.5824">
        <ele>177.4</ele>
        <time>2023-05-27T06:07:32Z</time>
      </trkpt>
      <trkpt lat="43.45631" lon="1.58245">
        <ele>177.4</ele>
        <time>2023-05-27T06:07:33Z</time>
      </trkpt>
      <trkpt lat="43.45626" lon="1.58252">
        <ele>177.4</ele>
        <time>2023-05-27T06:07:34Z</time>
      </trkpt>
      <trkpt lat="43.45622" lon="1.58258">
        <ele>177.4</ele>
        <time>2023-05-27T06:07:35Z</time>
      </trkpt>
      <trkpt lat="43.4562" lon="1.58263">
        <ele>177.4</ele>
        <time>2023-05-27T06:07:36Z</time>
      </trkpt>
      <trkpt lat="43.45618" lon="1.58268">
        <ele>177.4</ele>
        <time>2023-05-27T06:07:37Z</time>
      </trkpt>
      <trkpt lat="43.45615" lon="1.58272">
        <ele>177.4</ele>
        <time>2023-05-27T06:07:38Z</time>
      </trkpt>
      <trkpt lat="43.45611" lon="1.58278">
        <ele>177.4</ele>
        <time>2023-05-27T06:07:39Z</time>
      </trkpt>
      <trkpt lat="43.45607" lon="1.58283">
        <ele>177.4</ele>
        <time>2023-05-27T06:07:40Z</time>
      </trkpt>
      <trkpt lat="43.45604" lon="1.58287">
        <ele>177.4</ele>
        <time>2023-05-27T06:07:41Z</time>
      </trkpt>
      <trkpt lat="43.45599" lon="1.58294">
        <ele>177.4</ele>
        <time>2023-05-27T06:07:42Z</time>
      </trkpt>
      <trkpt lat="43.45595" lon="1.58301">
        <ele>177.4</ele>
        <time>2023-05-27T06:07:43Z</time>
      </trkpt>
      <trkpt lat="43.45593" lon="1.58306">
        <ele>177.4</ele>
        <time>2023-05-27T06:07:44Z</time>
      </trkpt>
      <trkpt lat="43.45591" lon="1.58311">
        <ele>177.4</ele>
        <time>2023-05-27T06:07:45Z</time>
      </trkpt>
      <trkpt lat="43.4559" lon="1.58315">
        <ele>177.4</ele>
        <time>2023-05-27T06:07:46Z</time>
      </trkpt>
      <trkpt lat="43.45589" lon="1.5832">
        <ele>177.4</ele>
        <time>2023-05-27T06:07:47Z</time>
      </trkpt>
      <trkpt lat="43.45585" lon="1.58329">
        <ele>177.4</ele>
        <time>2023-05-27T06:07:48Z</time>
      </trkpt>
      <trkpt lat="43.45583" lon="1.58336">
        <ele>177.4</ele>
        <time>2023-05-27T06:07:49Z</time>
      </trkpt>
      <trkpt lat="43.45583" lon="1.58343">
        <ele>177.4</ele>
        <time>2023-05-27T06:07:50Z</time>
      </trkpt>
      <trkpt lat="43.45581" lon="1.58349">
        <ele>177.4</ele>
        <time>2023-05-27T06:07:51Z</time>
      </trkpt>
      <trkpt lat="43.4558" lon="1.58354">
        <ele>177.4</ele>
        <time>2023-05-27T06:07:52Z</time>
      </trkpt>
      <trkpt lat="43.45578" lon="1.58362">
        <ele>177.4</ele>
        <time>2023-05-27T06:07:53Z</time>
      </trkpt>
      <trkpt lat="43.45578" lon="1.58367">
        <ele>177.4</ele>
        <time>2023-05-27T06:07:54Z</time>
      </trkpt>
      <trkpt lat="43.45576" lon="1.58372">
        <ele>177.4</ele>
        <time>2023-05-27T06:07:55Z</time>
      </trkpt>
      <trkpt lat="43.45576" lon="1.58379">
        <ele>177.4</ele>
        <time>2023-05-27T06:07:56Z</time>
      </trkpt>
      <trkpt lat="43.45574" lon="1.58386">
        <ele>177.4</ele>
        <time>2023-05-27T06:07:57Z</time>
      </trkpt>
      <trkpt lat="43.45574" lon="1.5839">
        <ele>177.4</ele>
        <time>2023-05-27T06:07:58Z</time>
      </trkpt>
      <trkpt lat="43.45573" lon="1.58396">
        <ele>177.4</ele>
        <time>2023-05-27T06:07:59Z</time>
      </trkpt>
      <trkpt lat="43.45572" lon="1.58405">
        <ele>177.4</ele>
        <time>2023-05-27T06:08:00Z</time>
      </trkpt>
      <trkpt lat="43.4557" lon="1.58412">
        <ele>177.4</ele>
        <time>2023-05-27T06:08:01Z</time>
      </trkpt>
      <trkpt lat="43.45569" lon="1.58419">
        <ele>177.4</ele>
        <time>2023-05-27T06:08:02Z</time>
      </trkpt>
      <trkpt lat="43.45569" lon="1.58424">
        <ele>177.4</ele>
        <time>2023-05-27T06:08:03Z</time>
      </trkpt>
      <trkpt lat="43.4557" lon="1.5843">
        <ele>177.4</ele>
        <time>2023-05-27T06:08:04Z</time>
      </trkpt>
      <trkpt lat="43.45569" lon="1.58438">
        <ele>177.2</ele>
        <time>2023-05-27T06:08:05Z</time>
      </trkpt>
      <trkpt lat="43.45569" lon="1.58444">
        <ele>177.2</ele>
        <time>2023-05-27T06:08:06Z</time>
      </trkpt>
      <trkpt lat="43.45569" lon="1.5845">
        <ele>177.2</ele>
        <time>2023-05-27T06:08:07Z</time>
      </trkpt>
      <trkpt lat="43.45569" lon="1.58458">
        <ele>177.2</ele>
        <time>2023-05-27T06:08:08Z</time>
      </trkpt>
      <trkpt lat="43.45568" lon="1.58465">
        <ele>177.2</ele>
        <time>2023-05-27T06:08:09Z</time>
      </trkpt>
      <trkpt lat="43.45567" lon="1.58471">
        <ele>177</ele>
        <time>2023-05-27T06:08:10Z</time>
      </trkpt>
      <trkpt lat="43.45567" lon="1.58477">
        <ele>177</ele>
        <time>2023-05-27T06:08:11Z</time>
      </trkpt>
      <trkpt lat="43.45565" lon="1.58486">
        <ele>177</ele>
        <time>2023-05-27T06:08:12Z</time>
      </trkpt>
      <trkpt lat="43.45565" lon="1.5849">
        <ele>177</ele>
        <time>2023-05-27T06:08:13Z</time>
      </trkpt>
      <trkpt lat="43.45565" lon="1.58496">
        <ele>177</ele>
        <time>2023-05-27T06:08:14Z</time>
      </trkpt>
      <trkpt lat="43.45565" lon="1.58503">
        <ele>177</ele>
        <time>2023-05-27T06:08:15Z</time>
      </trkpt>
      <trkpt lat="43.45567" lon="1.5851">
        <ele>177</ele>
        <time>2023-05-27T06:08:16Z</time>
      </trkpt>
      <trkpt lat="43.45568" lon="1.58515">
        <ele>177</ele>
        <time>2023-05-27T06:08:17Z</time>
      </trkpt>
      <trkpt lat="43.45566" lon="1.58522">
        <ele>177</ele>
        <time>2023-05-27T06:08:18Z</time>
      </trkpt>
      <trkpt lat="43.45565" lon="1.58529">
        <ele>177</ele>
        <time>2023-05-27T06:08:19Z</time>
      </trkpt>
      <trkpt lat="43.45565" lon="1.58534">
        <ele>177</ele>
        <time>2023-05-27T06:08:20Z</time>
      </trkpt>
      <trkpt lat="43.45566" lon="1.58539">
        <ele>177</ele>
        <time>2023-05-27T06:08:21Z</time>
      </trkpt>
      <trkpt lat="43.45567" lon="1.58546">
        <ele>177</ele>
        <time>2023-05-27T06:08:22Z</time>
      </trkpt>
      <trkpt lat="43.45568" lon="1.5855">
        <ele>177</ele>
        <time>2023-05-27T06:08:23Z</time>
      </trkpt>
      <trkpt lat="43.45568" lon="1.58559">
        <ele>177</ele>
        <time>2023-05-27T06:08:24Z</time>
      </trkpt>
      <trkpt lat="43.45566" lon="1.58567">
        <ele>177</ele>
        <time>2023-05-27T06:08:25Z</time>
      </trkpt>
      <trkpt lat="43.45567" lon="1.58575">
        <ele>176.8</ele>
        <time>2023-05-27T06:08:26Z</time>
      </trkpt>
      <trkpt lat="43.45568" lon="1.58581">
        <ele>176.8</ele>
        <time>2023-05-27T06:08:27Z</time>
      </trkpt>
      <trkpt lat="43.45568" lon="1.58586">
        <ele>176.8</ele>
        <time>2023-05-27T06:08:28Z</time>
      </trkpt>
      <trkpt lat="43.45568" lon="1.58591">
        <ele>176.8</ele>
        <time>2023-05-27T06:08:29Z</time>
      </trkpt>
      <trkpt lat="43.45569" lon="1.58598">
        <ele>177</ele>
        <time>2023-05-27T06:08:30Z</time>
      </trkpt>
      <trkpt lat="43.4557" lon="1.58605">
        <ele>177</ele>
        <time>2023-05-27T06:08:31Z</time>
      </trkpt>
      <trkpt lat="43.45573" lon="1.58612">
        <ele>177</ele>
        <time>2023-05-27T06:08:32Z</time>
      </trkpt>
      <trkpt lat="43.45576" lon="1.58619">
        <ele>177</ele>
        <time>2023-05-27T06:08:33Z</time>
      </trkpt>
      <trkpt lat="43.45576" lon="1.58624">
        <ele>177</ele>
        <time>2023-05-27T06:08:34Z</time>
      </trkpt>
      <trkpt lat="43.45575" lon="1.58629">
        <ele>177</ele>
        <time>2023-05-27T06:08:35Z</time>
      </trkpt>
      <trkpt lat="43.45575" lon="1.58635">
        <ele>177</ele>
        <time>2023-05-27T06:08:36Z</time>
      </trkpt>
      <trkpt lat="43.45575" lon="1.58642">
        <ele>177</ele>
        <time>2023-05-27T06:08:37Z</time>
      </trkpt>
      <trkpt lat="43.45574" lon="1.58647">
        <ele>177</ele>
        <time>2023-05-27T06:08:38Z</time>
      </trkpt>
      <trkpt lat="43.45574" lon="1.58653">
        <ele>177</ele>
        <time>2023-05-27T06:08:39Z</time>
      </trkpt>
      <trkpt lat="43.45574" lon="1.58659">
        <ele>177.2</ele>
        <time>2023-05-27T06:08:40Z</time>
      </trkpt>
      <trkpt lat="43.45573" lon="1.58663">
        <ele>177.2</ele>
        <time>2023-05-27T06:08:41Z</time>
      </trkpt>
      <trkpt lat="43.45573" lon="1.58671">
        <ele>177.2</ele>
        <time>2023-05-27T06:08:42Z</time>
      </trkpt>
      <trkpt lat="43.45575" lon="1.58676">
        <ele>177.2</ele>
        <time>2023-05-27T06:08:43Z</time>
      </trkpt>
      <trkpt lat="43.45576" lon="1.58682">
        <ele>177.2</ele>
        <time>2023-05-27T06:08:44Z</time>
      </trkpt>
      <trkpt lat="43.45577" lon="1.5869">
        <ele>177.2</ele>
        <time>2023-05-27T06:08:45Z</time>
      </trkpt>
      <trkpt lat="43.45578" lon="1.58695">
        <ele>177.2</ele>
        <time>2023-05-27T06:08:46Z</time>
      </trkpt>
      <trkpt lat="43.4558" lon="1.58703">
        <ele>177.2</ele>
        <time>2023-05-27T06:08:47Z</time>
      </trkpt>
      <trkpt lat="43.45581" lon="1.58709">
        <ele>177.2</ele>
        <time>2023-05-27T06:08:48Z</time>
      </trkpt>
      <trkpt lat="43.45581" lon="1.58716">
        <ele>177.4</ele>
        <time>2023-05-27T06:08:49Z</time>
      </trkpt>
      <trkpt lat="43.4558" lon="1.58722">
        <ele>177.4</ele>
        <time>2023-05-27T06:08:50Z</time>
      </trkpt>
      <trkpt lat="43.45581" lon="1.58727">
        <ele>177.4</ele>
        <time>2023-05-27T06:08:51Z</time>
      </trkpt>
      <trkpt lat="43.45581" lon="1.58734">
        <ele>177.4</ele>
        <time>2023-05-27T06:08:52Z</time>
      </trkpt>
      <trkpt lat="43.45583" lon="1.58738">
        <ele>177.4</ele>
        <time>2023-05-27T06:08:53Z</time>
      </trkpt>
      <trkpt lat="43.45584" lon="1.58743">
        <ele>177.6</ele>
        <time>2023-05-27T06:08:54Z</time>
      </trkpt>
      <trkpt lat="43.45586" lon="1.5875">
        <ele>177.6</ele>
        <time>2023-05-27T06:08:55Z</time>
      </trkpt>
      <trkpt lat="43.45586" lon="1.58756">
        <ele>177.6</ele>
        <time>2023-05-27T06:08:56Z</time>
      </trkpt>
      <trkpt lat="43.45586" lon="1.58763">
        <ele>177.6</ele>
        <time>2023-05-27T06:08:57Z</time>
      </trkpt>
      <trkpt lat="43.45586" lon="1.58769">
        <ele>177.6</ele>
        <time>2023-05-27T06:08:58Z</time>
      </trkpt>
      <trkpt lat="43.45587" lon="1.58773">
        <ele>177.6</ele>
        <time>2023-05-27T06:08:59Z</time>
      </trkpt>
      <trkpt lat="43.45587" lon="1.58779">
        <ele>177.6</ele>
        <time>2023-05-27T06:09:00Z</time>
      </trkpt>
      <trkpt lat="43.45587" lon="1.58783">
        <ele>177.6</ele>
        <time>2023-05-27T06:09:01Z</time>
      </trkpt>
      <trkpt lat="43.45587" lon="1.58789">
        <ele>177.6</ele>
        <time>2023-05-27T06:09:02Z</time>
      </trkpt>
      <trkpt lat="43.45587" lon="1.58796">
        <ele>177.6</ele>
        <time>2023-05-27T06:09:03Z</time>
      </trkpt>
      <trkpt lat="43.45587" lon="1.58802">
        <ele>177.6</ele>
        <time>2023-05-27T06:09:04Z</time>
      </trkpt>
      <trkpt lat="43.45587" lon="1.58807">
        <ele>177.6</ele>
        <time>2023-05-27T06:09:05Z</time>
      </trkpt>
      <trkpt lat="43.45587" lon="1.58812">
        <ele>177.6</ele>
        <time>2023-05-27T06:09:06Z</time>
      </trkpt>
      <trkpt lat="43.45587" lon="1.58818">
        <ele>177.6</ele>
        <time>2023-05-27T06:09:07Z</time>
      </trkpt>
      <trkpt lat="43.45587" lon="1.58826">
        <ele>177.6</ele>
        <time>2023-05-27T06:09:08Z</time>
      </trkpt>
      <trkpt lat="43.45587" lon="1.58832">
        <ele>177.6</ele>
        <time>2023-05-27T06:09:09Z</time>
      </trkpt>
      <trkpt lat="43.45587" lon="1.58837">
        <ele>177.6</ele>
        <time>2023-05-27T06:09:10Z</time>
      </trkpt>
      <trkpt lat="43.45587" lon="1.58843">
        <ele>177.6</ele>
        <time>2023-05-27T06:09:11Z</time>
      </trkpt>
      <trkpt lat="43.45586" lon="1.58849">
        <ele>177.6</ele>
        <time>2023-05-27T06:09:12Z</time>
      </trkpt>
      <trkpt lat="43.45585" lon="1.58855">
        <ele>177.6</ele>
        <time>2023-05-27T06:09:13Z</time>
      </trkpt>
      <trkpt lat="43.45584" lon="1.5886">
        <ele>177.6</ele>
        <time>2023-05-27T06:09:14Z</time>
      </trkpt>
      <trkpt lat="43.45584" lon="1.58866">
        <ele>177.6</ele>
        <time>2023-05-27T06:09:15Z</time>
      </trkpt>
      <trkpt lat="43.45583" lon="1.58873">
        <ele>177.6</ele>
        <time>2023-05-27T06:09:16Z</time>
      </trkpt>
      <trkpt lat="43.45582" lon="1.5888">
        <ele>177.6</ele>
        <time>2023-05-27T06:09:17Z</time>
      </trkpt>
      <trkpt lat="43.45582" lon="1.58886">
        <ele>177.6</ele>
        <time>2023-05-27T06:09:18Z</time>
      </trkpt>
      <trkpt lat="43.45583" lon="1.58891">
        <ele>177.8</ele>
        <time>2023-05-27T06:09:19Z</time>
      </trkpt>
      <trkpt lat="43.45583" lon="1.58897">
        <ele>177.8</ele>
        <time>2023-05-27T06:09:20Z</time>
      </trkpt>
      <trkpt lat="43.45583" lon="1.58905">
        <ele>178</ele>
        <time>2023-05-27T06:09:21Z</time>
      </trkpt>
      <trkpt lat="43.45583" lon="1.5891">
        <ele>178</ele>
        <time>2023-05-27T06:09:22Z</time>
      </trkpt>
      <trkpt lat="43.45582" lon="1.58916">
        <ele>178</ele>
        <time>2023-05-27T06:09:23Z</time>
      </trkpt>
      <trkpt lat="43.45582" lon="1.58922">
        <ele>178.2</ele>
        <time>2023-05-27T06:09:24Z</time>
      </trkpt>
      <trkpt lat="43.45582" lon="1.58928">
        <ele>178.2</ele>
        <time>2023-05-27T06:09:25Z</time>
      </trkpt>
      <trkpt lat="43.45581" lon="1.58933">
        <ele>178.2</ele>
        <time>2023-05-27T06:09:26Z</time>
      </trkpt>
      <trkpt lat="43.45581" lon="1.58937">
        <ele>178.4</ele>
        <time>2023-05-27T06:09:27Z</time>
      </trkpt>
      <trkpt lat="43.45581" lon="1.58941">
        <ele>178.4</ele>
        <time>2023-05-27T06:09:28Z</time>
      </trkpt>
      <trkpt lat="43.45581" lon="1.58949">
        <ele>178.4</ele>
        <time>2023-05-27T06:09:29Z</time>
      </trkpt>
      <trkpt lat="43.4558" lon="1.58954">
        <ele>178.4</ele>
        <time>2023-05-27T06:09:30Z</time>
      </trkpt>
      <trkpt lat="43.45579" lon="1.58959">
        <ele>178.6</ele>
        <time>2023-05-27T06:09:31Z</time>
      </trkpt>
      <trkpt lat="43.45579" lon="1.58966">
        <ele>178.6</ele>
        <time>2023-05-27T06:09:32Z</time>
      </trkpt>
      <trkpt lat="43.45578" lon="1.58974">
        <ele>178.6</ele>
        <time>2023-05-27T06:09:33Z</time>
      </trkpt>
      <trkpt lat="43.45578" lon="1.58981">
        <ele>178.6</ele>
        <time>2023-05-27T06:09:34Z</time>
      </trkpt>
      <trkpt lat="43.45578" lon="1.58988">
        <ele>178.4</ele>
        <time>2023-05-27T06:09:35Z</time>
      </trkpt>
      <trkpt lat="43.45576" lon="1.58996">
        <ele>178.4</ele>
        <time>2023-05-27T06:09:36Z</time>
      </trkpt>
      <trkpt lat="43.45575" lon="1.59002">
        <ele>178.2</ele>
        <time>2023-05-27T06:09:37Z</time>
      </trkpt>
      <trkpt lat="43.45574" lon="1.5901">
        <ele>178.2</ele>
        <time>2023-05-27T06:09:38Z</time>
      </trkpt>
      <trkpt lat="43.45574" lon="1.59018">
        <ele>178.2</ele>
        <time>2023-05-27T06:09:39Z</time>
      </trkpt>
      <trkpt lat="43.45574" lon="1.59023">
        <ele>178.2</ele>
        <time>2023-05-27T06:09:40Z</time>
      </trkpt>
      <trkpt lat="43.45573" lon="1.5903">
        <ele>178.2</ele>
        <time>2023-05-27T06:09:41Z</time>
      </trkpt>
      <trkpt lat="43.45572" lon="1.59036">
        <ele>178.2</ele>
        <time>2023-05-27T06:09:42Z</time>
      </trkpt>
      <trkpt lat="43.45571" lon="1.59041">
        <ele>178.2</ele>
        <time>2023-05-27T06:09:43Z</time>
      </trkpt>
      <trkpt lat="43.45571" lon="1.59048">
        <ele>178.2</ele>
        <time>2023-05-27T06:09:44Z</time>
      </trkpt>
      <trkpt lat="43.45571" lon="1.59054">
        <ele>178.2</ele>
        <time>2023-05-27T06:09:45Z</time>
      </trkpt>
      <trkpt lat="43.45571" lon="1.59059">
        <ele>178.2</ele>
        <time>2023-05-27T06:09:46Z</time>
      </trkpt>
      <trkpt lat="43.45571" lon="1.59065">
        <ele>178.2</ele>
        <time>2023-05-27T06:09:47Z</time>
      </trkpt>
      <trkpt lat="43.45571" lon="1.59071">
        <ele>178.2</ele>
        <time>2023-05-27T06:09:48Z</time>
      </trkpt>
      <trkpt lat="43.45572" lon="1.59077">
        <ele>178.2</ele>
        <time>2023-05-27T06:09:49Z</time>
      </trkpt>
      <trkpt lat="43.45572" lon="1.59083">
        <ele>178.2</ele>
        <time>2023-05-27T06:09:50Z</time>
      </trkpt>
      <trkpt lat="43.45573" lon="1.59088">
        <ele>178.2</ele>
        <time>2023-05-27T06:09:51Z</time>
      </trkpt>
      <trkpt lat="43.45573" lon="1.59093">
        <ele>178.2</ele>
        <time>2023-05-27T06:09:52Z</time>
      </trkpt>
      <trkpt lat="43.45574" lon="1.59097">
        <ele>178.4</ele>
        <time>2023-05-27T06:09:53Z</time>
      </trkpt>
      <trkpt lat="43.45574" lon="1.59101">
        <ele>178.4</ele>
        <time>2023-05-27T06:09:54Z</time>
      </trkpt>
      <trkpt lat="43.45573" lon="1.59105">
        <ele>178.6</ele>
        <time>2023-05-27T06:09:55Z</time>
      </trkpt>
      <trkpt lat="43.45572" lon="1.59109">
        <ele>178.6</ele>
        <time>2023-05-27T06:09:56Z</time>
      </trkpt>
      <trkpt lat="43.45571" lon="1.59111">
        <ele>178.8</ele>
        <time>2023-05-27T06:09:57Z</time>
      </trkpt>
      <trkpt lat="43.45569" lon="1.59114">
        <ele>179</ele>
        <time>2023-05-27T06:09:58Z</time>
      </trkpt>
      <trkpt lat="43.45568" lon="1.59117">
        <ele>179</ele>
        <time>2023-05-27T06:09:59Z</time>
      </trkpt>
      <trkpt lat="43.45567" lon="1.5912">
        <ele>179</ele>
        <time>2023-05-27T06:10:00Z</time>
      </trkpt>
      <trkpt lat="43.45566" lon="1.59125">
        <ele>179</ele>
        <time>2023-05-27T06:10:01Z</time>
      </trkpt>
      <trkpt lat="43.45564" lon="1.5913">
        <ele>179</ele>
        <time>2023-05-27T06:10:02Z</time>
      </trkpt>
      <trkpt lat="43.45562" lon="1.59136">
        <ele>178.8</ele>
        <time>2023-05-27T06:10:03Z</time>
      </trkpt>
      <trkpt lat="43.4556" lon="1.59142">
        <ele>178.6</ele>
        <time>2023-05-27T06:10:04Z</time>
      </trkpt>
      <trkpt lat="43.45558" lon="1.59148">
        <ele>178.4</ele>
        <time>2023-05-27T06:10:05Z</time>
      </trkpt>
      <trkpt lat="43.45557" lon="1.59156">
        <ele>178.2</ele>
        <time>2023-05-27T06:10:06Z</time>
      </trkpt>
      <trkpt lat="43.45555" lon="1.59162">
        <ele>178.2</ele>
        <time>2023-05-27T06:10:07Z</time>
      </trkpt>
      <trkpt lat="43.45554" lon="1.59168">
        <ele>178.2</ele>
        <time>2023-05-27T06:10:08Z</time>
      </trkpt>
      <trkpt lat="43.45552" lon="1.59174">
        <ele>178</ele>
        <time>2023-05-27T06:10:09Z</time>
      </trkpt>
      <trkpt lat="43.45551" lon="1.59179">
        <ele>178</ele>
        <time>2023-05-27T06:10:10Z</time>
      </trkpt>
      <trkpt lat="43.45549" lon="1.59185">
        <ele>178</ele>
        <time>2023-05-27T06:10:11Z</time>
      </trkpt>
      <trkpt lat="43.45548" lon="1.59189">
        <ele>177.8</ele>
        <time>2023-05-27T06:10:12Z</time>
      </trkpt>
      <trkpt lat="43.45546" lon="1.59195">
        <ele>177.8</ele>
        <time>2023-05-27T06:10:13Z</time>
      </trkpt>
      <trkpt lat="43.45544" lon="1.592">
        <ele>177.8</ele>
        <time>2023-05-27T06:10:14Z</time>
      </trkpt>
      <trkpt lat="43.45543" lon="1.59205">
        <ele>177.8</ele>
        <time>2023-05-27T06:10:15Z</time>
      </trkpt>
      <trkpt lat="43.4554" lon="1.5921">
        <ele>177.8</ele>
        <time>2023-05-27T06:10:16Z</time>
      </trkpt>
      <trkpt lat="43.45537" lon="1.59216">
        <ele>177.8</ele>
        <time>2023-05-27T06:10:17Z</time>
      </trkpt>
      <trkpt lat="43.45533" lon="1.59222">
        <ele>177.8</ele>
        <time>2023-05-27T06:10:18Z</time>
      </trkpt>
      <trkpt lat="43.45531" lon="1.59228">
        <ele>177.8</ele>
        <time>2023-05-27T06:10:19Z</time>
      </trkpt>
      <trkpt lat="43.45528" lon="1.59233">
        <ele>177.8</ele>
        <time>2023-05-27T06:10:20Z</time>
      </trkpt>
      <trkpt lat="43.45525" lon="1.59238">
        <ele>177.8</ele>
        <time>2023-05-27T06:10:21Z</time>
      </trkpt>
      <trkpt lat="43.45524" lon="1.59242">
        <ele>177.8</ele>
        <time>2023-05-27T06:10:22Z</time>
      </trkpt>
      <trkpt lat="43.45521" lon="1.59246">
        <ele>177.8</ele>
        <time>2023-05-27T06:10:23Z</time>
      </trkpt>
      <trkpt lat="43.45519" lon="1.5925">
        <ele>177.8</ele>
        <time>2023-05-27T06:10:24Z</time>
      </trkpt>
      <trkpt lat="43.45517" lon="1.59253">
        <ele>177.8</ele>
        <time>2023-05-27T06:10:25Z</time>
      </trkpt>
      <trkpt lat="43.45515" lon="1.59257">
        <ele>177.8</ele>
        <time>2023-05-27T06:10:26Z</time>
      </trkpt>
      <trkpt lat="43.45513" lon="1.5926">
        <ele>177.8</ele>
        <time>2023-05-27T06:10:27Z</time>
      </trkpt>
      <trkpt lat="43.45509" lon="1.59265">
        <ele>177.8</ele>
        <time>2023-05-27T06:10:28Z</time>
      </trkpt>
      <trkpt lat="43.45506" lon="1.59269">
        <ele>177.8</ele>
        <time>2023-05-27T06:10:29Z</time>
      </trkpt>
      <trkpt lat="43.45502" lon="1.59273">
        <ele>177.8</ele>
        <time>2023-05-27T06:10:30Z</time>
      </trkpt>
      <trkpt lat="43.45498" lon="1.59278">
        <ele>177.8</ele>
        <time>2023-05-27T06:10:31Z</time>
      </trkpt>
      <trkpt lat="43.45494" lon="1.59282">
        <ele>177.8</ele>
        <time>2023-05-27T06:10:32Z</time>
      </trkpt>
      <trkpt lat="43.4549" lon="1.59284">
        <ele>177.8</ele>
        <time>2023-05-27T06:10:33Z</time>
      </trkpt>
      <trkpt lat="43.45485" lon="1.59286">
        <ele>177.8</ele>
        <time>2023-05-27T06:10:34Z</time>
      </trkpt>
      <trkpt lat="43.45481" lon="1.59288">
        <ele>177.8</ele>
        <time>2023-05-27T06:10:35Z</time>
      </trkpt>
      <trkpt lat="43.45476" lon="1.5929">
        <ele>177.8</ele>
        <time>2023-05-27T06:10:36Z</time>
      </trkpt>
      <trkpt lat="43.45472" lon="1.59292">
        <ele>177.8</ele>
        <time>2023-05-27T06:10:37Z</time>
      </trkpt>
      <trkpt lat="43.45468" lon="1.59294">
        <ele>177.8</ele>
        <time>2023-05-27T06:10:38Z</time>
      </trkpt>
      <trkpt lat="43.45461" lon="1.59296">
        <ele>177.8</ele>
        <time>2023-05-27T06:10:39Z</time>
      </trkpt>
      <trkpt lat="43.45456" lon="1.59298">
        <ele>178</ele>
        <time>2023-05-27T06:10:40Z</time>
      </trkpt>
      <trkpt lat="43.45451" lon="1.593">
        <ele>178</ele>
        <time>2023-05-27T06:10:41Z</time>
      </trkpt>
      <trkpt lat="43.45446" lon="1.59303">
        <ele>177.8</ele>
        <time>2023-05-27T06:10:42Z</time>
      </trkpt>
      <trkpt lat="43.4544" lon="1.59306">
        <ele>177.8</ele>
        <time>2023-05-27T06:10:43Z</time>
      </trkpt>
      <trkpt lat="43.45435" lon="1.59308">
        <ele>177.8</ele>
        <time>2023-05-27T06:10:44Z</time>
      </trkpt>
      <trkpt lat="43.45429" lon="1.5931">
        <ele>177.8</ele>
        <time>2023-05-27T06:10:45Z</time>
      </trkpt>
      <trkpt lat="43.45424" lon="1.59311">
        <ele>177.8</ele>
        <time>2023-05-27T06:10:46Z</time>
      </trkpt>
      <trkpt lat="43.45419" lon="1.59312">
        <ele>177.8</ele>
        <time>2023-05-27T06:10:47Z</time>
      </trkpt>
      <trkpt lat="43.45415" lon="1.59314">
        <ele>177.8</ele>
        <time>2023-05-27T06:10:48Z</time>
      </trkpt>
      <trkpt lat="43.45409" lon="1.59316">
        <ele>177.6</ele>
        <time>2023-05-27T06:10:49Z</time>
      </trkpt>
      <trkpt lat="43.45404" lon="1.59317">
        <ele>177.6</ele>
        <time>2023-05-27T06:10:50Z</time>
      </trkpt>
      <trkpt lat="43.45397" lon="1.59319">
        <ele>177.6</ele>
        <time>2023-05-27T06:10:51Z</time>
      </trkpt>
      <trkpt lat="43.45393" lon="1.59321">
        <ele>177.4</ele>
        <time>2023-05-27T06:10:52Z</time>
      </trkpt>
      <trkpt lat="43.45388" lon="1.59323">
        <ele>177.4</ele>
        <time>2023-05-27T06:10:53Z</time>
      </trkpt>
      <trkpt lat="43.45383" lon="1.59324">
        <ele>177.4</ele>
        <time>2023-05-27T06:10:54Z</time>
      </trkpt>
      <trkpt lat="43.45379" lon="1.59325">
        <ele>177.4</ele>
        <time>2023-05-27T06:10:55Z</time>
      </trkpt>
      <trkpt lat="43.45373" lon="1.59327">
        <ele>177.2</ele>
        <time>2023-05-27T06:10:56Z</time>
      </trkpt>
      <trkpt lat="43.45369" lon="1.59329">
        <ele>177.2</ele>
        <time>2023-05-27T06:10:57Z</time>
      </trkpt>
      <trkpt lat="43.45363" lon="1.5933">
        <ele>177.2</ele>
        <time>2023-05-27T06:10:58Z</time>
      </trkpt>
      <trkpt lat="43.45357" lon="1.59332">
        <ele>177.2</ele>
        <time>2023-05-27T06:10:59Z</time>
      </trkpt>
      <trkpt lat="43.45352" lon="1.59334">
        <ele>177.2</ele>
        <time>2023-05-27T06:11:00Z</time>
      </trkpt>
      <trkpt lat="43.45347" lon="1.59335">
        <ele>177.2</ele>
        <time>2023-05-27T06:11:01Z</time>
      </trkpt>
      <trkpt lat="43.45342" lon="1.59337">
        <ele>177.2</ele>
        <time>2023-05-27T06:11:02Z</time>
      </trkpt>
      <trkpt lat="43.45337" lon="1.59339">
        <ele>177.2</ele>
        <time>2023-05-27T06:11:03Z</time>
      </trkpt>
      <trkpt lat="43.45333" lon="1.5934">
        <ele>177.2</ele>
        <time>2023-05-27T06:11:04Z</time>
      </trkpt>
      <trkpt lat="43.45329" lon="1.59342">
        <ele>177.2</ele>
        <time>2023-05-27T06:11:05Z</time>
      </trkpt>
      <trkpt lat="43.45325" lon="1.59343">
        <ele>177.2</ele>
        <time>2023-05-27T06:11:06Z</time>
      </trkpt>
      <trkpt lat="43.4532" lon="1.59345">
        <ele>177.2</ele>
        <time>2023-05-27T06:11:07Z</time>
      </trkpt>
      <trkpt lat="43.45316" lon="1.59347">
        <ele>177.2</ele>
        <time>2023-05-27T06:11:08Z</time>
      </trkpt>
      <trkpt lat="43.45311" lon="1.59349">
        <ele>177.2</ele>
        <time>2023-05-27T06:11:09Z</time>
      </trkpt>
      <trkpt lat="43.45306" lon="1.59351">
        <ele>177.2</ele>
        <time>2023-05-27T06:11:10Z</time>
      </trkpt>
      <trkpt lat="43.45301" lon="1.59353">
        <ele>177.2</ele>
        <time>2023-05-27T06:11:11Z</time>
      </trkpt>
      <trkpt lat="43.45296" lon="1.59356">
        <ele>177.2</ele>
        <time>2023-05-27T06:11:12Z</time>
      </trkpt>
      <trkpt lat="43.45292" lon="1.59359">
        <ele>177.2</ele>
        <time>2023-05-27T06:11:13Z</time>
      </trkpt>
      <trkpt lat="43.45288" lon="1.59361">
        <ele>177.2</ele>
        <time>2023-05-27T06:11:14Z</time>
      </trkpt>
      <trkpt lat="43.45284" lon="1.59363">
        <ele>177.2</ele>
        <time>2023-05-27T06:11:15Z</time>
      </trkpt>
      <trkpt lat="43.45279" lon="1.59366">
        <ele>177.2</ele>
        <time>2023-05-27T06:11:16Z</time>
      </trkpt>
      <trkpt lat="43.45274" lon="1.59369">
        <ele>177.2</ele>
        <time>2023-05-27T06:11:17Z</time>
      </trkpt>
      <trkpt lat="43.45271" lon="1.59371">
        <ele>177.2</ele>
        <time>2023-05-27T06:11:18Z</time>
      </trkpt>
      <trkpt lat="43.45267" lon="1.59373">
        <ele>177.2</ele>
        <time>2023-05-27T06:11:19Z</time>
      </trkpt>
      <trkpt lat="43.45264" lon="1.59375">
        <ele>177.2</ele>
        <time>2023-05-27T06:11:20Z</time>
      </trkpt>
      <trkpt lat="43.4526" lon="1.59377">
        <ele>177.2</ele>
        <time>2023-05-27T06:11:21Z</time>
      </trkpt>
      <trkpt lat="43.45255" lon="1.5938">
        <ele>177.2</ele>
        <time>2023-05-27T06:11:22Z</time>
      </trkpt>
      <trkpt lat="43.45252" lon="1.59382">
        <ele>177.2</ele>
        <time>2023-05-27T06:11:23Z</time>
      </trkpt>
      <trkpt lat="43.45248" lon="1.59384">
        <ele>177.4</ele>
        <time>2023-05-27T06:11:24Z</time>
      </trkpt>
      <trkpt lat="43.45244" lon="1.59387">
        <ele>177.4</ele>
        <time>2023-05-27T06:11:25Z</time>
      </trkpt>
      <trkpt lat="43.45241" lon="1.5939">
        <ele>177.4</ele>
        <time>2023-05-27T06:11:26Z</time>
      </trkpt>
      <trkpt lat="43.45238" lon="1.59394">
        <ele>177.4</ele>
        <time>2023-05-27T06:11:27Z</time>
      </trkpt>
      <trkpt lat="43.45235" lon="1.59397">
        <ele>177.4</ele>
        <time>2023-05-27T06:11:28Z</time>
      </trkpt>
      <trkpt lat="43.45233" lon="1.59399">
        <ele>177.4</ele>
        <time>2023-05-27T06:11:29Z</time>
      </trkpt>
      <trkpt lat="43.45231" lon="1.59402">
        <ele>177.4</ele>
        <time>2023-05-27T06:11:30Z</time>
      </trkpt>
      <trkpt lat="43.45227" lon="1.59405">
        <ele>177.4</ele>
        <time>2023-05-27T06:11:31Z</time>
      </trkpt>
      <trkpt lat="43.45224" lon="1.59407">
        <ele>177.4</ele>
        <time>2023-05-27T06:11:32Z</time>
      </trkpt>
      <trkpt lat="43.4522" lon="1.59411">
        <ele>177.4</ele>
        <time>2023-05-27T06:11:33Z</time>
      </trkpt>
      <trkpt lat="43.45216" lon="1.59415">
        <ele>177.4</ele>
        <time>2023-05-27T06:11:34Z</time>
      </trkpt>
      <trkpt lat="43.45213" lon="1.59419">
        <ele>177.2</ele>
        <time>2023-05-27T06:11:35Z</time>
      </trkpt>
      <trkpt lat="43.4521" lon="1.59422">
        <ele>177.4</ele>
        <time>2023-05-27T06:11:36Z</time>
      </trkpt>
      <trkpt lat="43.45207" lon="1.59426">
        <ele>177.2</ele>
        <time>2023-05-27T06:11:37Z</time>
      </trkpt>
      <trkpt lat="43.45205" lon="1.5943">
        <ele>177.4</ele>
        <time>2023-05-27T06:11:38Z</time>
      </trkpt>
      <trkpt lat="43.45203" lon="1.59433">
        <ele>177.4</ele>
        <time>2023-05-27T06:11:39Z</time>
      </trkpt>
      <trkpt lat="43.452" lon="1.59436">
        <ele>177.4</ele>
        <time>2023-05-27T06:11:40Z</time>
      </trkpt>
      <trkpt lat="43.45198" lon="1.59439">
        <ele>177.4</ele>
        <time>2023-05-27T06:11:41Z</time>
      </trkpt>
      <trkpt lat="43.45195" lon="1.59443">
        <ele>177.4</ele>
        <time>2023-05-27T06:11:42Z</time>
      </trkpt>
      <trkpt lat="43.45191" lon="1.59447">
        <ele>177.4</ele>
        <time>2023-05-27T06:11:43Z</time>
      </trkpt>
      <trkpt lat="43.45188" lon="1.5945">
        <ele>177.6</ele>
        <time>2023-05-27T06:11:44Z</time>
      </trkpt>
      <trkpt lat="43.45185" lon="1.59453">
        <ele>177.6</ele>
        <time>2023-05-27T06:11:45Z</time>
      </trkpt>
      <trkpt lat="43.45182" lon="1.59456">
        <ele>177.6</ele>
        <time>2023-05-27T06:11:46Z</time>
      </trkpt>
      <trkpt lat="43.45178" lon="1.59461">
        <ele>177.6</ele>
        <time>2023-05-27T06:11:47Z</time>
      </trkpt>
      <trkpt lat="43.45174" lon="1.59464">
        <ele>177.6</ele>
        <time>2023-05-27T06:11:48Z</time>
      </trkpt>
      <trkpt lat="43.4517" lon="1.59469">
        <ele>177.6</ele>
        <time>2023-05-27T06:11:49Z</time>
      </trkpt>
      <trkpt lat="43.45166" lon="1.59473">
        <ele>177.6</ele>
        <time>2023-05-27T06:11:50Z</time>
      </trkpt>
      <trkpt lat="43.45162" lon="1.59478">
        <ele>177.6</ele>
        <time>2023-05-27T06:11:51Z</time>
      </trkpt>
      <trkpt lat="43.45159" lon="1.59482">
        <ele>177.6</ele>
        <time>2023-05-27T06:11:52Z</time>
      </trkpt>
      <trkpt lat="43.45155" lon="1.59487">
        <ele>177.6</ele>
        <time>2023-05-27T06:11:53Z</time>
      </trkpt>
      <trkpt lat="43.4515" lon="1.59492">
        <ele>177.8</ele>
        <time>2023-05-27T06:11:54Z</time>
      </trkpt>
      <trkpt lat="43.45146" lon="1.59498">
        <ele>177.8</ele>
        <time>2023-05-27T06:11:55Z</time>
      </trkpt>
      <trkpt lat="43.45143" lon="1.59502">
        <ele>177.8</ele>
        <time>2023-05-27T06:11:56Z</time>
      </trkpt>
      <trkpt lat="43.45137" lon="1.59508">
        <ele>177.8</ele>
        <time>2023-05-27T06:11:57Z</time>
      </trkpt>
      <trkpt lat="43.45133" lon="1.59511">
        <ele>177.8</ele>
        <time>2023-05-27T06:11:58Z</time>
      </trkpt>
      <trkpt lat="43.4513" lon="1.59516">
        <ele>177.8</ele>
        <time>2023-05-27T06:11:59Z</time>
      </trkpt>
      <trkpt lat="43.45128" lon="1.59523">
        <ele>178</ele>
        <time>2023-05-27T06:12:00Z</time>
      </trkpt>
      <trkpt lat="43.45126" lon="1.59529">
        <ele>178</ele>
        <time>2023-05-27T06:12:01Z</time>
      </trkpt>
      <trkpt lat="43.45124" lon="1.59535">
        <ele>178</ele>
        <time>2023-05-27T06:12:02Z</time>
      </trkpt>
      <trkpt lat="43.4512" lon="1.59541">
        <ele>178.2</ele>
        <time>2023-05-27T06:12:03Z</time>
      </trkpt>
      <trkpt lat="43.45117" lon="1.59548">
        <ele>178.2</ele>
        <time>2023-05-27T06:12:04Z</time>
      </trkpt>
      <trkpt lat="43.45114" lon="1.59555">
        <ele>178.2</ele>
        <time>2023-05-27T06:12:05Z</time>
      </trkpt>
      <trkpt lat="43.45112" lon="1.59561">
        <ele>178.2</ele>
        <time>2023-05-27T06:12:06Z</time>
      </trkpt>
      <trkpt lat="43.4511" lon="1.59567">
        <ele>178.2</ele>
        <time>2023-05-27T06:12:07Z</time>
      </trkpt>
      <trkpt lat="43.45108" lon="1.59573">
        <ele>178.2</ele>
        <time>2023-05-27T06:12:08Z</time>
      </trkpt>
      <trkpt lat="43.45106" lon="1.59581">
        <ele>178.2</ele>
        <time>2023-05-27T06:12:09Z</time>
      </trkpt>
      <trkpt lat="43.45105" lon="1.59586">
        <ele>178.4</ele>
        <time>2023-05-27T06:12:10Z</time>
      </trkpt>
      <trkpt lat="43.45103" lon="1.59592">
        <ele>178.4</ele>
        <time>2023-05-27T06:12:11Z</time>
      </trkpt>
      <trkpt lat="43.45102" lon="1.59597">
        <ele>178.4</ele>
        <time>2023-05-27T06:12:12Z</time>
      </trkpt>
      <trkpt lat="43.45101" lon="1.59603">
        <ele>178.4</ele>
        <time>2023-05-27T06:12:13Z</time>
      </trkpt>
      <trkpt lat="43.451" lon="1.59608">
        <ele>178.4</ele>
        <time>2023-05-27T06:12:14Z</time>
      </trkpt>
      <trkpt lat="43.45097" lon="1.59612">
        <ele>178.4</ele>
        <time>2023-05-27T06:12:15Z</time>
      </trkpt>
      <trkpt lat="43.45096" lon="1.59617">
        <ele>178.4</ele>
        <time>2023-05-27T06:12:16Z</time>
      </trkpt>
      <trkpt lat="43.45094" lon="1.59622">
        <ele>178.4</ele>
        <time>2023-05-27T06:12:17Z</time>
      </trkpt>
      <trkpt lat="43.45091" lon="1.59627">
        <ele>178.4</ele>
        <time>2023-05-27T06:12:18Z</time>
      </trkpt>
      <trkpt lat="43.45089" lon="1.59632">
        <ele>178.6</ele>
        <time>2023-05-27T06:12:19Z</time>
      </trkpt>
      <trkpt lat="43.45087" lon="1.59636">
        <ele>178.6</ele>
        <time>2023-05-27T06:12:20Z</time>
      </trkpt>
      <trkpt lat="43.45086" lon="1.5964">
        <ele>178.6</ele>
        <time>2023-05-27T06:12:21Z</time>
      </trkpt>
      <trkpt lat="43.45085" lon="1.59644">
        <ele>178.6</ele>
        <time>2023-05-27T06:12:22Z</time>
      </trkpt>
      <trkpt lat="43.45083" lon="1.59649">
        <ele>178.6</ele>
        <time>2023-05-27T06:12:23Z</time>
      </trkpt>
      <trkpt lat="43.45081" lon="1.59654">
        <ele>178.6</ele>
        <time>2023-05-27T06:12:24Z</time>
      </trkpt>
      <trkpt lat="43.45079" lon="1.59659">
        <ele>178.4</ele>
        <time>2023-05-27T06:12:25Z</time>
      </trkpt>
      <trkpt lat="43.45077" lon="1.59665">
        <ele>178.2</ele>
        <time>2023-05-27T06:12:26Z</time>
      </trkpt>
      <trkpt lat="43.45074" lon="1.59674">
        <ele>178.2</ele>
        <time>2023-05-27T06:12:27Z</time>
      </trkpt>
      <trkpt lat="43.45071" lon="1.5968">
        <ele>178</ele>
        <time>2023-05-27T06:12:28Z</time>
      </trkpt>
      <trkpt lat="43.4507" lon="1.59686">
        <ele>178</ele>
        <time>2023-05-27T06:12:29Z</time>
      </trkpt>
      <trkpt lat="43.45067" lon="1.59692">
        <ele>178.2</ele>
        <time>2023-05-27T06:12:30Z</time>
      </trkpt>
      <trkpt lat="43.45066" lon="1.59698">
        <ele>178.2</ele>
        <time>2023-05-27T06:12:31Z</time>
      </trkpt>
      <trkpt lat="43.45063" lon="1.59704">
        <ele>178.2</ele>
        <time>2023-05-27T06:12:32Z</time>
      </trkpt>
      <trkpt lat="43.45061" lon="1.59709">
        <ele>178.2</ele>
        <time>2023-05-27T06:12:33Z</time>
      </trkpt>
      <trkpt lat="43.45059" lon="1.59715">
        <ele>178.2</ele>
        <time>2023-05-27T06:12:34Z</time>
      </trkpt>
      <trkpt lat="43.45057" lon="1.59719">
        <ele>178.2</ele>
        <time>2023-05-27T06:12:35Z</time>
      </trkpt>
      <trkpt lat="43.45055" lon="1.59724">
        <ele>178.4</ele>
        <time>2023-05-27T06:12:36Z</time>
      </trkpt>
      <trkpt lat="43.45054" lon="1.59728">
        <ele>178.4</ele>
        <time>2023-05-27T06:12:37Z</time>
      </trkpt>
      <trkpt lat="43.45053" lon="1.59732">
        <ele>178.4</ele>
        <time>2023-05-27T06:12:38Z</time>
      </trkpt>
      <trkpt lat="43.45052" lon="1.59735">
        <ele>178.4</ele>
        <time>2023-05-27T06:12:39Z</time>
      </trkpt>
      <trkpt lat="43.45049" lon="1.5974">
        <ele>178.4</ele>
        <time>2023-05-27T06:12:40Z</time>
      </trkpt>
      <trkpt lat="43.45047" lon="1.59745">
        <ele>178.4</ele>
        <time>2023-05-27T06:12:41Z</time>
      </trkpt>
      <trkpt lat="43.45044" lon="1.59749">
        <ele>178.4</ele>
        <time>2023-05-27T06:12:42Z</time>
      </trkpt>
      <trkpt lat="43.45041" lon="1.59753">
        <ele>178.4</ele>
        <time>2023-05-27T06:12:43Z</time>
      </trkpt>
      <trkpt lat="43.45038" lon="1.59758">
        <ele>178.6</ele>
        <time>2023-05-27T06:12:44Z</time>
      </trkpt>
      <trkpt lat="43.45036" lon="1.59762">
        <ele>178.6</ele>
        <time>2023-05-27T06:12:45Z</time>
      </trkpt>
      <trkpt lat="43.45034" lon="1.59767">
        <ele>178.6</ele>
        <time>2023-05-27T06:12:46Z</time>
      </trkpt>
      <trkpt lat="43.45033" lon="1.59771">
        <ele>178.6</ele>
        <time>2023-05-27T06:12:47Z</time>
      </trkpt>
      <trkpt lat="43.4503" lon="1.59776">
        <ele>178.6</ele>
        <time>2023-05-27T06:12:48Z</time>
      </trkpt>
      <trkpt lat="43.45027" lon="1.5978">
        <ele>178.6</ele>
        <time>2023-05-27T06:12:49Z</time>
      </trkpt>
      <trkpt lat="43.45024" lon="1.59785">
        <ele>178.6</ele>
        <time>2023-05-27T06:12:50Z</time>
      </trkpt>
      <trkpt lat="43.45021" lon="1.59789">
        <ele>178.6</ele>
        <time>2023-05-27T06:12:51Z</time>
      </trkpt>
      <trkpt lat="43.45017" lon="1.59792">
        <ele>178.6</ele>
        <time>2023-05-27T06:12:52Z</time>
      </trkpt>
      <trkpt lat="43.45009" lon="1.598">
        <ele>178.6</ele>
        <time>2023-05-27T06:12:53Z</time>
      </trkpt>
      <trkpt lat="43.45006" lon="1.59805">
        <ele>178.6</ele>
        <time>2023-05-27T06:12:54Z</time>
      </trkpt>
      <trkpt lat="43.45003" lon="1.5981">
        <ele>178.6</ele>
        <time>2023-05-27T06:12:55Z</time>
      </trkpt>
      <trkpt lat="43.45" lon="1.59813">
        <ele>178.8</ele>
        <time>2023-05-27T06:12:56Z</time>
      </trkpt>
      <trkpt lat="43.44997" lon="1.59817">
        <ele>178.8</ele>
        <time>2023-05-27T06:12:57Z</time>
      </trkpt>
      <trkpt lat="43.44996" lon="1.59822">
        <ele>178.8</ele>
        <time>2023-05-27T06:12:58Z</time>
      </trkpt>
      <trkpt lat="43.4499" lon="1.59827">
        <ele>178.8</ele>
        <time>2023-05-27T06:12:59Z</time>
      </trkpt>
      <trkpt lat="43.44988" lon="1.59831">
        <ele>178.8</ele>
        <time>2023-05-27T06:13:00Z</time>
      </trkpt>
      <trkpt lat="43.44985" lon="1.59835">
        <ele>178.8</ele>
        <time>2023-05-27T06:13:01Z</time>
      </trkpt>
      <trkpt lat="43.44981" lon="1.5984">
        <ele>179</ele>
        <time>2023-05-27T06:13:02Z</time>
      </trkpt>
      <trkpt lat="43.44978" lon="1.59844">
        <ele>179</ele>
        <time>2023-05-27T06:13:03Z</time>
      </trkpt>
      <trkpt lat="43.44975" lon="1.59849">
        <ele>179</ele>
        <time>2023-05-27T06:13:04Z</time>
      </trkpt>
      <trkpt lat="43.44971" lon="1.59852">
        <ele>179</ele>
        <time>2023-05-27T06:13:05Z</time>
      </trkpt>
      <trkpt lat="43.44966" lon="1.59856">
        <ele>179.2</ele>
        <time>2023-05-27T06:13:06Z</time>
      </trkpt>
      <trkpt lat="43.44962" lon="1.5986">
        <ele>179.4</ele>
        <time>2023-05-27T06:13:07Z</time>
      </trkpt>
      <trkpt lat="43.44957" lon="1.59862">
        <ele>179.6</ele>
        <time>2023-05-27T06:13:08Z</time>
      </trkpt>
      <trkpt lat="43.44956" lon="1.59864">
        <ele>179.6</ele>
        <time>2023-05-27T06:13:09Z</time>
      </trkpt>
      <trkpt lat="43.44952" lon="1.59867">
        <ele>179.8</ele>
        <time>2023-05-27T06:13:10Z</time>
      </trkpt>
      <trkpt lat="43.4495" lon="1.5987">
        <ele>180</ele>
        <time>2023-05-27T06:13:11Z</time>
      </trkpt>
      <trkpt lat="43.44947" lon="1.59872">
        <ele>180</ele>
        <time>2023-05-27T06:13:12Z</time>
      </trkpt>
      <trkpt lat="43.44943" lon="1.59874">
        <ele>180.2</ele>
        <time>2023-05-27T06:13:13Z</time>
      </trkpt>
      <trkpt lat="43.4494" lon="1.59875">
        <ele>180.2</ele>
        <time>2023-05-27T06:13:14Z</time>
      </trkpt>
      <trkpt lat="43.44937" lon="1.59877">
        <ele>180.4</ele>
        <time>2023-05-27T06:13:15Z</time>
      </trkpt>
      <trkpt lat="43.44934" lon="1.59878">
        <ele>180.4</ele>
        <time>2023-05-27T06:13:16Z</time>
      </trkpt>
      <trkpt lat="43.44931" lon="1.59879">
        <ele>180.4</ele>
        <time>2023-05-27T06:13:17Z</time>
      </trkpt>
      <trkpt lat="43.44927" lon="1.59881">
        <ele>180.4</ele>
        <time>2023-05-27T06:13:18Z</time>
      </trkpt>
      <trkpt lat="43.44924" lon="1.59882">
        <ele>180.4</ele>
        <time>2023-05-27T06:13:19Z</time>
      </trkpt>
      <trkpt lat="43.4492" lon="1.59884">
        <ele>180.4</ele>
        <time>2023-05-27T06:13:20Z</time>
      </trkpt>
      <trkpt lat="43.44916" lon="1.59885">
        <ele>180.4</ele>
        <time>2023-05-27T06:13:21Z</time>
      </trkpt>
      <trkpt lat="43.44912" lon="1.59886">
        <ele>180.4</ele>
        <time>2023-05-27T06:13:22Z</time>
      </trkpt>
      <trkpt lat="43.44909" lon="1.59887">
        <ele>180.4</ele>
        <time>2023-05-27T06:13:23Z</time>
      </trkpt>
      <trkpt lat="43.44903" lon="1.59889">
        <ele>180.2</ele>
        <time>2023-05-27T06:13:24Z</time>
      </trkpt>
      <trkpt lat="43.44899" lon="1.5989">
        <ele>180.2</ele>
        <time>2023-05-27T06:13:25Z</time>
      </trkpt>
      <trkpt lat="43.44896" lon="1.59891">
        <ele>180.2</ele>
        <time>2023-05-27T06:13:26Z</time>
      </trkpt>
      <trkpt lat="43.44893" lon="1.59892">
        <ele>180.2</ele>
        <time>2023-05-27T06:13:27Z</time>
      </trkpt>
      <trkpt lat="43.44889" lon="1.59894">
        <ele>180</ele>
        <time>2023-05-27T06:13:28Z</time>
      </trkpt>
      <trkpt lat="43.44884" lon="1.59895">
        <ele>180</ele>
        <time>2023-05-27T06:13:29Z</time>
      </trkpt>
      <trkpt lat="43.4488" lon="1.59896">
        <ele>180</ele>
        <time>2023-05-27T06:13:30Z</time>
      </trkpt>
      <trkpt lat="43.44877" lon="1.59897">
        <ele>180</ele>
        <time>2023-05-27T06:13:31Z</time>
      </trkpt>
      <trkpt lat="43.44872" lon="1.59899">
        <ele>180</ele>
        <time>2023-05-27T06:13:32Z</time>
      </trkpt>
      <trkpt lat="43.44866" lon="1.59902">
        <ele>179.8</ele>
        <time>2023-05-27T06:13:33Z</time>
      </trkpt>
      <trkpt lat="43.44861" lon="1.59904">
        <ele>179.8</ele>
        <time>2023-05-27T06:13:34Z</time>
      </trkpt>
      <trkpt lat="43.44856" lon="1.59905">
        <ele>179.8</ele>
        <time>2023-05-27T06:13:35Z</time>
      </trkpt>
      <trkpt lat="43.4485" lon="1.59906">
        <ele>179.8</ele>
        <time>2023-05-27T06:13:36Z</time>
      </trkpt>
      <trkpt lat="43.44845" lon="1.59907">
        <ele>180</ele>
        <time>2023-05-27T06:13:37Z</time>
      </trkpt>
      <trkpt lat="43.4484" lon="1.5991">
        <ele>180</ele>
        <time>2023-05-27T06:13:38Z</time>
      </trkpt>
      <trkpt lat="43.44834" lon="1.59912">
        <ele>180</ele>
        <time>2023-05-27T06:13:39Z</time>
      </trkpt>
      <trkpt lat="43.44829" lon="1.59914">
        <ele>180</ele>
        <time>2023-05-27T06:13:40Z</time>
      </trkpt>
      <trkpt lat="43.44824" lon="1.59916">
        <ele>180</ele>
        <time>2023-05-27T06:13:41Z</time>
      </trkpt>
      <trkpt lat="43.4482" lon="1.59918">
        <ele>180</ele>
        <time>2023-05-27T06:13:42Z</time>
      </trkpt>
      <trkpt lat="43.44815" lon="1.5992">
        <ele>180</ele>
        <time>2023-05-27T06:13:43Z</time>
      </trkpt>
      <trkpt lat="43.44811" lon="1.5992">
        <ele>180</ele>
        <time>2023-05-27T06:13:44Z</time>
      </trkpt>
      <trkpt lat="43.44807" lon="1.59922">
        <ele>180</ele>
        <time>2023-05-27T06:13:45Z</time>
      </trkpt>
      <trkpt lat="43.44801" lon="1.59923">
        <ele>180</ele>
        <time>2023-05-27T06:13:46Z</time>
      </trkpt>
      <trkpt lat="43.44796" lon="1.59924">
        <ele>179.8</ele>
        <time>2023-05-27T06:13:47Z</time>
      </trkpt>
      <trkpt lat="43.44792" lon="1.59925">
        <ele>179.8</ele>
        <time>2023-05-27T06:13:48Z</time>
      </trkpt>
      <trkpt lat="43.44788" lon="1.59926">
        <ele>179.6</ele>
        <time>2023-05-27T06:13:49Z</time>
      </trkpt>
      <trkpt lat="43.44783" lon="1.59927">
        <ele>179.4</ele>
        <time>2023-05-27T06:13:50Z</time>
      </trkpt>
      <trkpt lat="43.44778" lon="1.59928">
        <ele>179.2</ele>
        <time>2023-05-27T06:13:51Z</time>
      </trkpt>
      <trkpt lat="43.44772" lon="1.59928">
        <ele>178.8</ele>
        <time>2023-05-27T06:13:52Z</time>
      </trkpt>
      <trkpt lat="43.44767" lon="1.59926">
        <ele>178.4</ele>
        <time>2023-05-27T06:13:53Z</time>
      </trkpt>
      <trkpt lat="43.44761" lon="1.59924">
        <ele>178</ele>
        <time>2023-05-27T06:13:54Z</time>
      </trkpt>
      <trkpt lat="43.44755" lon="1.59923">
        <ele>177.8</ele>
        <time>2023-05-27T06:13:55Z</time>
      </trkpt>
      <trkpt lat="43.44749" lon="1.59923">
        <ele>177.6</ele>
        <time>2023-05-27T06:13:56Z</time>
      </trkpt>
      <trkpt lat="43.44744" lon="1.59923">
        <ele>177.6</ele>
        <time>2023-05-27T06:13:57Z</time>
      </trkpt>
      <trkpt lat="43.44738" lon="1.59926">
        <ele>177.6</ele>
        <time>2023-05-27T06:13:58Z</time>
      </trkpt>
      <trkpt lat="43.44734" lon="1.59928">
        <ele>177.8</ele>
        <time>2023-05-27T06:13:59Z</time>
      </trkpt>
      <trkpt lat="43.4473" lon="1.5993">
        <ele>177.8</ele>
        <time>2023-05-27T06:14:00Z</time>
      </trkpt>
      <trkpt lat="43.44726" lon="1.59931">
        <ele>178</ele>
        <time>2023-05-27T06:14:01Z</time>
      </trkpt>
      <trkpt lat="43.44723" lon="1.59933">
        <ele>178.2</ele>
        <time>2023-05-27T06:14:02Z</time>
      </trkpt>
      <trkpt lat="43.4472" lon="1.59934">
        <ele>178.4</ele>
        <time>2023-05-27T06:14:03Z</time>
      </trkpt>
      <trkpt lat="43.44717" lon="1.59934">
        <ele>178.8</ele>
        <time>2023-05-27T06:14:04Z</time>
      </trkpt>
      <trkpt lat="43.44714" lon="1.59934">
        <ele>179</ele>
        <time>2023-05-27T06:14:05Z</time>
      </trkpt>
      <trkpt lat="43.44712" lon="1.59935">
        <ele>179.2</ele>
        <time>2023-05-27T06:14:06Z</time>
      </trkpt>
      <trkpt lat="43.4471" lon="1.59935">
        <ele>179.4</ele>
        <time>2023-05-27T06:14:07Z</time>
      </trkpt>
      <trkpt lat="43.44708" lon="1.59936">
        <ele>179.6</ele>
        <time>2023-05-27T06:14:08Z</time>
      </trkpt>
      <trkpt lat="43.44705" lon="1.59937">
        <ele>180</ele>
        <time>2023-05-27T06:14:09Z</time>
      </trkpt>
      <trkpt lat="43.44703" lon="1.59937">
        <ele>180.2</ele>
        <time>2023-05-27T06:14:10Z</time>
      </trkpt>
      <trkpt lat="43.44702" lon="1.59937">
        <ele>180.4</ele>
        <time>2023-05-27T06:14:11Z</time>
      </trkpt>
      <trkpt lat="43.447" lon="1.59937">
        <ele>180.6</ele>
        <time>2023-05-27T06:14:12Z</time>
      </trkpt>
      <trkpt lat="43.44698" lon="1.59936">
        <ele>180.8</ele>
        <time>2023-05-27T06:14:13Z</time>
      </trkpt>
      <trkpt lat="43.44696" lon="1.59936">
        <ele>180.8</ele>
        <time>2023-05-27T06:14:14Z</time>
      </trkpt>
      <trkpt lat="43.44693" lon="1.59937">
        <ele>181</ele>
        <time>2023-05-27T06:14:15Z</time>
      </trkpt>
      <trkpt lat="43.44691" lon="1.59937">
        <ele>181.2</ele>
        <time>2023-05-27T06:14:16Z</time>
      </trkpt>
      <trkpt lat="43.44688" lon="1.59939">
        <ele>181.2</ele>
        <time>2023-05-27T06:14:17Z</time>
      </trkpt>
      <trkpt lat="43.44685" lon="1.59939">
        <ele>181</ele>
        <time>2023-05-27T06:14:18Z</time>
      </trkpt>
      <trkpt lat="43.44681" lon="1.5994">
        <ele>181</ele>
        <time>2023-05-27T06:14:19Z</time>
      </trkpt>
      <trkpt lat="43.44678" lon="1.59941">
        <ele>181</ele>
        <time>2023-05-27T06:14:20Z</time>
      </trkpt>
      <trkpt lat="43.44674" lon="1.59942">
        <ele>181</ele>
        <time>2023-05-27T06:14:21Z</time>
      </trkpt>
      <trkpt lat="43.44671" lon="1.59943">
        <ele>181</ele>
        <time>2023-05-27T06:14:22Z</time>
      </trkpt>
      <trkpt lat="43.44668" lon="1.59944">
        <ele>180.8</ele>
        <time>2023-05-27T06:14:23Z</time>
      </trkpt>
      <trkpt lat="43.44664" lon="1.59945">
        <ele>180.8</ele>
        <time>2023-05-27T06:14:24Z</time>
      </trkpt>
      <trkpt lat="43.44661" lon="1.59947">
        <ele>180.8</ele>
        <time>2023-05-27T06:14:25Z</time>
      </trkpt>
      <trkpt lat="43.44659" lon="1.59948">
        <ele>180.8</ele>
        <time>2023-05-27T06:14:26Z</time>
      </trkpt>
      <trkpt lat="43.44658" lon="1.59949">
        <ele>180.8</ele>
        <time>2023-05-27T06:14:27Z</time>
      </trkpt>
      <trkpt lat="43.44656" lon="1.59949">
        <ele>180.8</ele>
        <time>2023-05-27T06:14:28Z</time>
      </trkpt>
      <trkpt lat="43.44655" lon="1.59949">
        <ele>180.8</ele>
        <time>2023-05-27T06:14:29Z</time>
      </trkpt>
      <trkpt lat="43.44653" lon="1.5995">
        <ele>180.8</ele>
        <time>2023-05-27T06:14:30Z</time>
      </trkpt>
      <trkpt lat="43.44651" lon="1.5995">
        <ele>180.8</ele>
        <time>2023-05-27T06:14:31Z</time>
      </trkpt>
      <trkpt lat="43.44649" lon="1.59951">
        <ele>180.8</ele>
        <time>2023-05-27T06:14:32Z</time>
      </trkpt>
      <trkpt lat="43.44647" lon="1.59952">
        <ele>180.8</ele>
        <time>2023-05-27T06:14:33Z</time>
      </trkpt>
      <trkpt lat="43.44645" lon="1.59952">
        <ele>181</ele>
        <time>2023-05-27T06:14:34Z</time>
      </trkpt>
      <trkpt lat="43.44643" lon="1.59954">
        <ele>181</ele>
        <time>2023-05-27T06:14:35Z</time>
      </trkpt>
      <trkpt lat="43.4464" lon="1.59954">
        <ele>181</ele>
        <time>2023-05-27T06:14:36Z</time>
      </trkpt>
      <trkpt lat="43.44636" lon="1.59956">
        <ele>181</ele>
        <time>2023-05-27T06:14:37Z</time>
      </trkpt>
      <trkpt lat="43.44632" lon="1.59957">
        <ele>181</ele>
        <time>2023-05-27T06:14:38Z</time>
      </trkpt>
      <trkpt lat="43.44629" lon="1.59959">
        <ele>181</ele>
        <time>2023-05-27T06:14:39Z</time>
      </trkpt>
      <trkpt lat="43.44626" lon="1.59961">
        <ele>181</ele>
        <time>2023-05-27T06:14:40Z</time>
      </trkpt>
      <trkpt lat="43.44623" lon="1.59964">
        <ele>181</ele>
        <time>2023-05-27T06:14:41Z</time>
      </trkpt>
      <trkpt lat="43.4462" lon="1.59966">
        <ele>181</ele>
        <time>2023-05-27T06:14:42Z</time>
      </trkpt>
      <trkpt lat="43.44618" lon="1.59968">
        <ele>181</ele>
        <time>2023-05-27T06:14:43Z</time>
      </trkpt>
      <trkpt lat="43.44613" lon="1.59971">
        <ele>181</ele>
        <time>2023-05-27T06:14:44Z</time>
      </trkpt>
      <trkpt lat="43.4461" lon="1.59972">
        <ele>181</ele>
        <time>2023-05-27T06:14:45Z</time>
      </trkpt>
      <trkpt lat="43.44607" lon="1.59975">
        <ele>181</ele>
        <time>2023-05-27T06:14:46Z</time>
      </trkpt>
      <trkpt lat="43.44604" lon="1.59977">
        <ele>181</ele>
        <time>2023-05-27T06:14:47Z</time>
      </trkpt>
      <trkpt lat="43.44601" lon="1.59979">
        <ele>181</ele>
        <time>2023-05-27T06:14:48Z</time>
      </trkpt>
      <trkpt lat="43.44598" lon="1.59982">
        <ele>181</ele>
        <time>2023-05-27T06:14:49Z</time>
      </trkpt>
      <trkpt lat="43.44595" lon="1.59985">
        <ele>181</ele>
        <time>2023-05-27T06:14:50Z</time>
      </trkpt>
      <trkpt lat="43.44592" lon="1.59988">
        <ele>181</ele>
        <time>2023-05-27T06:14:51Z</time>
      </trkpt>
      <trkpt lat="43.4459" lon="1.59991">
        <ele>181</ele>
        <time>2023-05-27T06:14:52Z</time>
      </trkpt>
      <trkpt lat="43.44586" lon="1.59995">
        <ele>181</ele>
        <time>2023-05-27T06:14:53Z</time>
      </trkpt>
      <trkpt lat="43.44582" lon="1.59999">
        <ele>181</ele>
        <time>2023-05-27T06:14:54Z</time>
      </trkpt>
      <trkpt lat="43.4458" lon="1.60002">
        <ele>181</ele>
        <time>2023-05-27T06:14:55Z</time>
      </trkpt>
      <trkpt lat="43.44576" lon="1.60005">
        <ele>181</ele>
        <time>2023-05-27T06:14:56Z</time>
      </trkpt>
      <trkpt lat="43.4457" lon="1.6001">
        <ele>181</ele>
        <time>2023-05-27T06:14:57Z</time>
      </trkpt>
      <trkpt lat="43.44566" lon="1.60014">
        <ele>181</ele>
        <time>2023-05-27T06:14:58Z</time>
      </trkpt>
      <trkpt lat="43.44563" lon="1.60017">
        <ele>181</ele>
        <time>2023-05-27T06:14:59Z</time>
      </trkpt>
      <trkpt lat="43.4456" lon="1.6002">
        <ele>181</ele>
        <time>2023-05-27T06:15:00Z</time>
      </trkpt>
      <trkpt lat="43.44557" lon="1.60024">
        <ele>181</ele>
        <time>2023-05-27T06:15:01Z</time>
      </trkpt>
      <trkpt lat="43.44553" lon="1.60028">
        <ele>181</ele>
        <time>2023-05-27T06:15:02Z</time>
      </trkpt>
      <trkpt lat="43.4455" lon="1.60031">
        <ele>181</ele>
        <time>2023-05-27T06:15:03Z</time>
      </trkpt>
      <trkpt lat="43.44547" lon="1.60036">
        <ele>181</ele>
        <time>2023-05-27T06:15:04Z</time>
      </trkpt>
      <trkpt lat="43.44545" lon="1.6004">
        <ele>181</ele>
        <time>2023-05-27T06:15:05Z</time>
      </trkpt>
      <trkpt lat="43.44542" lon="1.60045">
        <ele>181.2</ele>
        <time>2023-05-27T06:15:06Z</time>
      </trkpt>
      <trkpt lat="43.44541" lon="1.60049">
        <ele>181.2</ele>
        <time>2023-05-27T06:15:07Z</time>
      </trkpt>
      <trkpt lat="43.4454" lon="1.60054">
        <ele>181.2</ele>
        <time>2023-05-27T06:15:08Z</time>
      </trkpt>
      <trkpt lat="43.44538" lon="1.60058">
        <ele>181.2</ele>
        <time>2023-05-27T06:15:09Z</time>
      </trkpt>
      <trkpt lat="43.44534" lon="1.60064">
        <ele>181.2</ele>
        <time>2023-05-27T06:15:10Z</time>
      </trkpt>
      <trkpt lat="43.44531" lon="1.6007">
        <ele>181.2</ele>
        <time>2023-05-27T06:15:11Z</time>
      </trkpt>
      <trkpt lat="43.4453" lon="1.60076">
        <ele>181.2</ele>
        <time>2023-05-27T06:15:12Z</time>
      </trkpt>
      <trkpt lat="43.44527" lon="1.60085">
        <ele>181.2</ele>
        <time>2023-05-27T06:15:13Z</time>
      </trkpt>
      <trkpt lat="43.44526" lon="1.60091">
        <ele>181.2</ele>
        <time>2023-05-27T06:15:14Z</time>
      </trkpt>
      <trkpt lat="43.44525" lon="1.60095">
        <ele>181.2</ele>
        <time>2023-05-27T06:15:15Z</time>
      </trkpt>
      <trkpt lat="43.44523" lon="1.60099">
        <ele>181.2</ele>
        <time>2023-05-27T06:15:16Z</time>
      </trkpt>
      <trkpt lat="43.4452" lon="1.60103">
        <ele>181.2</ele>
        <time>2023-05-27T06:15:17Z</time>
      </trkpt>
      <trkpt lat="43.44518" lon="1.60108">
        <ele>181.2</ele>
        <time>2023-05-27T06:15:18Z</time>
      </trkpt>
      <trkpt lat="43.44517" lon="1.60113">
        <ele>181.2</ele>
        <time>2023-05-27T06:15:19Z</time>
      </trkpt>
      <trkpt lat="43.44516" lon="1.60118">
        <ele>181.2</ele>
        <time>2023-05-27T06:15:20Z</time>
      </trkpt>
      <trkpt lat="43.44516" lon="1.60123">
        <ele>181.2</ele>
        <time>2023-05-27T06:15:21Z</time>
      </trkpt>
      <trkpt lat="43.44516" lon="1.60128">
        <ele>181.2</ele>
        <time>2023-05-27T06:15:22Z</time>
      </trkpt>
      <trkpt lat="43.44516" lon="1.60133">
        <ele>181.2</ele>
        <time>2023-05-27T06:15:23Z</time>
      </trkpt>
      <trkpt lat="43.44516" lon="1.60138">
        <ele>181</ele>
        <time>2023-05-27T06:15:24Z</time>
      </trkpt>
      <trkpt lat="43.44517" lon="1.60143">
        <ele>181</ele>
        <time>2023-05-27T06:15:25Z</time>
      </trkpt>
      <trkpt lat="43.44519" lon="1.60148">
        <ele>181.2</ele>
        <time>2023-05-27T06:15:26Z</time>
      </trkpt>
      <trkpt lat="43.4452" lon="1.60153">
        <ele>181.2</ele>
        <time>2023-05-27T06:15:27Z</time>
      </trkpt>
      <trkpt lat="43.44521" lon="1.60159">
        <ele>181.4</ele>
        <time>2023-05-27T06:15:28Z</time>
      </trkpt>
      <trkpt lat="43.44521" lon="1.60163">
        <ele>181.4</ele>
        <time>2023-05-27T06:15:29Z</time>
      </trkpt>
      <trkpt lat="43.44522" lon="1.60167">
        <ele>181.6</ele>
        <time>2023-05-27T06:15:30Z</time>
      </trkpt>
      <trkpt lat="43.44523" lon="1.60172">
        <ele>181.8</ele>
        <time>2023-05-27T06:15:31Z</time>
      </trkpt>
      <trkpt lat="43.44524" lon="1.60176">
        <ele>181.8</ele>
        <time>2023-05-27T06:15:32Z</time>
      </trkpt>
      <trkpt lat="43.44524" lon="1.60181">
        <ele>182</ele>
        <time>2023-05-27T06:15:33Z</time>
      </trkpt>
      <trkpt lat="43.44525" lon="1.60185">
        <ele>182.2</ele>
        <time>2023-05-27T06:15:34Z</time>
      </trkpt>
      <trkpt lat="43.44526" lon="1.60189">
        <ele>182.2</ele>
        <time>2023-05-27T06:15:35Z</time>
      </trkpt>
      <trkpt lat="43.44526" lon="1.60193">
        <ele>182.2</ele>
        <time>2023-05-27T06:15:36Z</time>
      </trkpt>
      <trkpt lat="43.44527" lon="1.60198">
        <ele>182.4</ele>
        <time>2023-05-27T06:15:37Z</time>
      </trkpt>
      <trkpt lat="43.44528" lon="1.60202">
        <ele>182.4</ele>
        <time>2023-05-27T06:15:38Z</time>
      </trkpt>
      <trkpt lat="43.44529" lon="1.60206">
        <ele>182.4</ele>
        <time>2023-05-27T06:15:39Z</time>
      </trkpt>
      <trkpt lat="43.4453" lon="1.60211">
        <ele>182.4</ele>
        <time>2023-05-27T06:15:40Z</time>
      </trkpt>
      <trkpt lat="43.44532" lon="1.60218">
        <ele>182.6</ele>
        <time>2023-05-27T06:15:41Z</time>
      </trkpt>
      <trkpt lat="43.44533" lon="1.60225">
        <ele>182.6</ele>
        <time>2023-05-27T06:15:42Z</time>
      </trkpt>
      <trkpt lat="43.44535" lon="1.60231">
        <ele>182.6</ele>
        <time>2023-05-27T06:15:43Z</time>
      </trkpt>
      <trkpt lat="43.44537" lon="1.60237">
        <ele>182.6</ele>
        <time>2023-05-27T06:15:44Z</time>
      </trkpt>
      <trkpt lat="43.44538" lon="1.60243">
        <ele>182.6</ele>
        <time>2023-05-27T06:15:45Z</time>
      </trkpt>
      <trkpt lat="43.4454" lon="1.60249">
        <ele>182.6</ele>
        <time>2023-05-27T06:15:46Z</time>
      </trkpt>
      <trkpt lat="43.44542" lon="1.60255">
        <ele>182.6</ele>
        <time>2023-05-27T06:15:47Z</time>
      </trkpt>
      <trkpt lat="43.44543" lon="1.60262">
        <ele>182.6</ele>
        <time>2023-05-27T06:15:48Z</time>
      </trkpt>
      <trkpt lat="43.44544" lon="1.60267">
        <ele>182.6</ele>
        <time>2023-05-27T06:15:49Z</time>
      </trkpt>
      <trkpt lat="43.44544" lon="1.60272">
        <ele>182.6</ele>
        <time>2023-05-27T06:15:50Z</time>
      </trkpt>
      <trkpt lat="43.44546" lon="1.60277">
        <ele>182.6</ele>
        <time>2023-05-27T06:15:51Z</time>
      </trkpt>
      <trkpt lat="43.44548" lon="1.60282">
        <ele>182.6</ele>
        <time>2023-05-27T06:15:52Z</time>
      </trkpt>
      <trkpt lat="43.44549" lon="1.60288">
        <ele>182.6</ele>
        <time>2023-05-27T06:15:53Z</time>
      </trkpt>
      <trkpt lat="43.44551" lon="1.60293">
        <ele>182.6</ele>
        <time>2023-05-27T06:15:54Z</time>
      </trkpt>
      <trkpt lat="43.44553" lon="1.60299">
        <ele>182.6</ele>
        <time>2023-05-27T06:15:55Z</time>
      </trkpt>
      <trkpt lat="43.44554" lon="1.60304">
        <ele>182.6</ele>
        <time>2023-05-27T06:15:56Z</time>
      </trkpt>
      <trkpt lat="43.44556" lon="1.6031">
        <ele>182.6</ele>
        <time>2023-05-27T06:15:57Z</time>
      </trkpt>
      <trkpt lat="43.44557" lon="1.60315">
        <ele>182.6</ele>
        <time>2023-05-27T06:15:58Z</time>
      </trkpt>
      <trkpt lat="43.44558" lon="1.60321">
        <ele>182.6</ele>
        <time>2023-05-27T06:15:59Z</time>
      </trkpt>
      <trkpt lat="43.4456" lon="1.60326">
        <ele>182.6</ele>
        <time>2023-05-27T06:16:00Z</time>
      </trkpt>
      <trkpt lat="43.44561" lon="1.60332">
        <ele>182.6</ele>
        <time>2023-05-27T06:16:01Z</time>
      </trkpt>
      <trkpt lat="43.44563" lon="1.60337">
        <ele>182.4</ele>
        <time>2023-05-27T06:16:02Z</time>
      </trkpt>
      <trkpt lat="43.44564" lon="1.60343">
        <ele>182.4</ele>
        <time>2023-05-27T06:16:03Z</time>
      </trkpt>
      <trkpt lat="43.44566" lon="1.60349">
        <ele>182.4</ele>
        <time>2023-05-27T06:16:04Z</time>
      </trkpt>
      <trkpt lat="43.44567" lon="1.60355">
        <ele>182.4</ele>
        <time>2023-05-27T06:16:05Z</time>
      </trkpt>
      <trkpt lat="43.44568" lon="1.60361">
        <ele>182.4</ele>
        <time>2023-05-27T06:16:06Z</time>
      </trkpt>
      <trkpt lat="43.44569" lon="1.60366">
        <ele>182.4</ele>
        <time>2023-05-27T06:16:07Z</time>
      </trkpt>
      <trkpt lat="43.4457" lon="1.60372">
        <ele>182.4</ele>
        <time>2023-05-27T06:16:08Z</time>
      </trkpt>
      <trkpt lat="43.44571" lon="1.60377">
        <ele>182.4</ele>
        <time>2023-05-27T06:16:09Z</time>
      </trkpt>
      <trkpt lat="43.44571" lon="1.60383">
        <ele>182.4</ele>
        <time>2023-05-27T06:16:10Z</time>
      </trkpt>
      <trkpt lat="43.44572" lon="1.60388">
        <ele>182.4</ele>
        <time>2023-05-27T06:16:11Z</time>
      </trkpt>
      <trkpt lat="43.44573" lon="1.60394">
        <ele>182.4</ele>
        <time>2023-05-27T06:16:12Z</time>
      </trkpt>
      <trkpt lat="43.44573" lon="1.60401">
        <ele>182.2</ele>
        <time>2023-05-27T06:16:13Z</time>
      </trkpt>
      <trkpt lat="43.44574" lon="1.60407">
        <ele>182.2</ele>
        <time>2023-05-27T06:16:14Z</time>
      </trkpt>
      <trkpt lat="43.44574" lon="1.60413">
        <ele>182.2</ele>
        <time>2023-05-27T06:16:15Z</time>
      </trkpt>
      <trkpt lat="43.44574" lon="1.60419">
        <ele>182.2</ele>
        <time>2023-05-27T06:16:16Z</time>
      </trkpt>
      <trkpt lat="43.44574" lon="1.60426">
        <ele>182.2</ele>
        <time>2023-05-27T06:16:17Z</time>
      </trkpt>
      <trkpt lat="43.44574" lon="1.60432">
        <ele>182.2</ele>
        <time>2023-05-27T06:16:18Z</time>
      </trkpt>
      <trkpt lat="43.44574" lon="1.60438">
        <ele>182.2</ele>
        <time>2023-05-27T06:16:19Z</time>
      </trkpt>
      <trkpt lat="43.44574" lon="1.60444">
        <ele>182.2</ele>
        <time>2023-05-27T06:16:20Z</time>
      </trkpt>
      <trkpt lat="43.44574" lon="1.6045">
        <ele>182.2</ele>
        <time>2023-05-27T06:16:21Z</time>
      </trkpt>
      <trkpt lat="43.44573" lon="1.60456">
        <ele>182.2</ele>
        <time>2023-05-27T06:16:22Z</time>
      </trkpt>
      <trkpt lat="43.44571" lon="1.60462">
        <ele>182</ele>
        <time>2023-05-27T06:16:23Z</time>
      </trkpt>
      <trkpt lat="43.44569" lon="1.60468">
        <ele>182</ele>
        <time>2023-05-27T06:16:24Z</time>
      </trkpt>
      <trkpt lat="43.44568" lon="1.60474">
        <ele>182</ele>
        <time>2023-05-27T06:16:25Z</time>
      </trkpt>
      <trkpt lat="43.44566" lon="1.6048">
        <ele>181.8</ele>
        <time>2023-05-27T06:16:26Z</time>
      </trkpt>
      <trkpt lat="43.44565" lon="1.60487">
        <ele>181.6</ele>
        <time>2023-05-27T06:16:27Z</time>
      </trkpt>
      <trkpt lat="43.44563" lon="1.60493">
        <ele>181.4</ele>
        <time>2023-05-27T06:16:28Z</time>
      </trkpt>
      <trkpt lat="43.4456" lon="1.605">
        <ele>181.4</ele>
        <time>2023-05-27T06:16:29Z</time>
      </trkpt>
      <trkpt lat="43.44557" lon="1.60506">
        <ele>181.2</ele>
        <time>2023-05-27T06:16:30Z</time>
      </trkpt>
      <trkpt lat="43.44554" lon="1.60513">
        <ele>181.4</ele>
        <time>2023-05-27T06:16:31Z</time>
      </trkpt>
      <trkpt lat="43.4455" lon="1.60518">
        <ele>181.4</ele>
        <time>2023-05-27T06:16:32Z</time>
      </trkpt>
      <trkpt lat="43.44548" lon="1.60522">
        <ele>181.4</ele>
        <time>2023-05-27T06:16:33Z</time>
      </trkpt>
      <trkpt lat="43.44545" lon="1.60527">
        <ele>181.4</ele>
        <time>2023-05-27T06:16:34Z</time>
      </trkpt>
      <trkpt lat="43.44542" lon="1.6053">
        <ele>181.6</ele>
        <time>2023-05-27T06:16:35Z</time>
      </trkpt>
      <trkpt lat="43.4454" lon="1.60534">
        <ele>181.6</ele>
        <time>2023-05-27T06:16:36Z</time>
      </trkpt>
      <trkpt lat="43.44537" lon="1.60539">
        <ele>181.6</ele>
        <time>2023-05-27T06:16:37Z</time>
      </trkpt>
      <trkpt lat="43.44534" lon="1.60543">
        <ele>181.6</ele>
        <time>2023-05-27T06:16:38Z</time>
      </trkpt>
      <trkpt lat="43.44531" lon="1.60547">
        <ele>181.6</ele>
        <time>2023-05-27T06:16:39Z</time>
      </trkpt>
      <trkpt lat="43.44529" lon="1.60551">
        <ele>181.8</ele>
        <time>2023-05-27T06:16:40Z</time>
      </trkpt>
      <trkpt lat="43.44527" lon="1.60554">
        <ele>181.8</ele>
        <time>2023-05-27T06:16:41Z</time>
      </trkpt>
      <trkpt lat="43.44525" lon="1.60557">
        <ele>182</ele>
        <time>2023-05-27T06:16:42Z</time>
      </trkpt>
      <trkpt lat="43.44524" lon="1.60559">
        <ele>182.2</ele>
        <time>2023-05-27T06:16:43Z</time>
      </trkpt>
      <trkpt lat="43.44522" lon="1.60563">
        <ele>182.2</ele>
        <time>2023-05-27T06:16:44Z</time>
      </trkpt>
      <trkpt lat="43.4452" lon="1.60566">
        <ele>182.2</ele>
        <time>2023-05-27T06:16:45Z</time>
      </trkpt>
      <trkpt lat="43.44518" lon="1.60569">
        <ele>182.2</ele>
        <time>2023-05-27T06:16:46Z</time>
      </trkpt>
      <trkpt lat="43.44514" lon="1.60573">
        <ele>182.2</ele>
        <time>2023-05-27T06:16:47Z</time>
      </trkpt>
      <trkpt lat="43.44512" lon="1.60576">
        <ele>182.2</ele>
        <time>2023-05-27T06:16:48Z</time>
      </trkpt>
      <trkpt lat="43.4451" lon="1.6058">
        <ele>182.2</ele>
        <time>2023-05-27T06:16:49Z</time>
      </trkpt>
      <trkpt lat="43.44507" lon="1.60584">
        <ele>182.2</ele>
        <time>2023-05-27T06:16:50Z</time>
      </trkpt>
      <trkpt lat="43.44504" lon="1.60588">
        <ele>182.2</ele>
        <time>2023-05-27T06:16:51Z</time>
      </trkpt>
      <trkpt lat="43.44501" lon="1.60592">
        <ele>182.2</ele>
        <time>2023-05-27T06:16:52Z</time>
      </trkpt>
      <trkpt lat="43.44497" lon="1.60597">
        <ele>182.2</ele>
        <time>2023-05-27T06:16:53Z</time>
      </trkpt>
      <trkpt lat="43.44494" lon="1.60601">
        <ele>182.2</ele>
        <time>2023-05-27T06:16:54Z</time>
      </trkpt>
      <trkpt lat="43.44491" lon="1.60605">
        <ele>182.2</ele>
        <time>2023-05-27T06:16:55Z</time>
      </trkpt>
      <trkpt lat="43.44488" lon="1.60608">
        <ele>182.2</ele>
        <time>2023-05-27T06:16:56Z</time>
      </trkpt>
      <trkpt lat="43.44486" lon="1.60611">
        <ele>182</ele>
        <time>2023-05-27T06:16:57Z</time>
      </trkpt>
      <trkpt lat="43.44483" lon="1.60615">
        <ele>182</ele>
        <time>2023-05-27T06:16:58Z</time>
      </trkpt>
      <trkpt lat="43.4448" lon="1.60618">
        <ele>182</ele>
        <time>2023-05-27T06:16:59Z</time>
      </trkpt>
      <trkpt lat="43.44477" lon="1.60622">
        <ele>182</ele>
        <time>2023-05-27T06:17:00Z</time>
      </trkpt>
      <trkpt lat="43.44474" lon="1.60626">
        <ele>182</ele>
        <time>2023-05-27T06:17:01Z</time>
      </trkpt>
      <trkpt lat="43.44471" lon="1.6063">
        <ele>182</ele>
        <time>2023-05-27T06:17:02Z</time>
      </trkpt>
      <trkpt lat="43.44469" lon="1.60634">
        <ele>182</ele>
        <time>2023-05-27T06:17:03Z</time>
      </trkpt>
      <trkpt lat="43.44465" lon="1.60637">
        <ele>182</ele>
        <time>2023-05-27T06:17:04Z</time>
      </trkpt>
      <trkpt lat="43.44462" lon="1.60641">
        <ele>182</ele>
        <time>2023-05-27T06:17:05Z</time>
      </trkpt>
      <trkpt lat="43.44459" lon="1.60645">
        <ele>182</ele>
        <time>2023-05-27T06:17:06Z</time>
      </trkpt>
      <trkpt lat="43.44455" lon="1.60649">
        <ele>182</ele>
        <time>2023-05-27T06:17:07Z</time>
      </trkpt>
      <trkpt lat="43.44452" lon="1.60653">
        <ele>182.2</ele>
        <time>2023-05-27T06:17:08Z</time>
      </trkpt>
      <trkpt lat="43.44449" lon="1.60657">
        <ele>182.2</ele>
        <time>2023-05-27T06:17:09Z</time>
      </trkpt>
      <trkpt lat="43.44446" lon="1.60661">
        <ele>182</ele>
        <time>2023-05-27T06:17:10Z</time>
      </trkpt>
      <trkpt lat="43.44443" lon="1.60665">
        <ele>182</ele>
        <time>2023-05-27T06:17:11Z</time>
      </trkpt>
      <trkpt lat="43.4444" lon="1.60669">
        <ele>182.2</ele>
        <time>2023-05-27T06:17:12Z</time>
      </trkpt>
      <trkpt lat="43.44437" lon="1.60672">
        <ele>182.2</ele>
        <time>2023-05-27T06:17:13Z</time>
      </trkpt>
      <trkpt lat="43.44434" lon="1.60676">
        <ele>182.2</ele>
        <time>2023-05-27T06:17:14Z</time>
      </trkpt>
      <trkpt lat="43.4443" lon="1.6068">
        <ele>182.2</ele>
        <time>2023-05-27T06:17:15Z</time>
      </trkpt>
      <trkpt lat="43.44428" lon="1.60684">
        <ele>182.2</ele>
        <time>2023-05-27T06:17:16Z</time>
      </trkpt>
      <trkpt lat="43.44425" lon="1.60688">
        <ele>182.2</ele>
        <time>2023-05-27T06:17:17Z</time>
      </trkpt>
      <trkpt lat="43.44422" lon="1.60691">
        <ele>182.2</ele>
        <time>2023-05-27T06:17:18Z</time>
      </trkpt>
      <trkpt lat="43.44419" lon="1.60694">
        <ele>182.2</ele>
        <time>2023-05-27T06:17:19Z</time>
      </trkpt>
      <trkpt lat="43.44416" lon="1.60697">
        <ele>182</ele>
        <time>2023-05-27T06:17:20Z</time>
      </trkpt>
      <trkpt lat="43.44413" lon="1.60701">
        <ele>182</ele>
        <time>2023-05-27T06:17:21Z</time>
      </trkpt>
      <trkpt lat="43.4441" lon="1.60704">
        <ele>182</ele>
        <time>2023-05-27T06:17:22Z</time>
      </trkpt>
      <trkpt lat="43.44408" lon="1.60706">
        <ele>182</ele>
        <time>2023-05-27T06:17:23Z</time>
      </trkpt>
      <trkpt lat="43.44405" lon="1.6071">
        <ele>182</ele>
        <time>2023-05-27T06:17:24Z</time>
      </trkpt>
      <trkpt lat="43.44401" lon="1.60713">
        <ele>182</ele>
        <time>2023-05-27T06:17:25Z</time>
      </trkpt>
      <trkpt lat="43.44398" lon="1.60715">
        <ele>182</ele>
        <time>2023-05-27T06:17:26Z</time>
      </trkpt>
      <trkpt lat="43.44395" lon="1.60717">
        <ele>182.2</ele>
        <time>2023-05-27T06:17:27Z</time>
      </trkpt>
      <trkpt lat="43.44391" lon="1.6072">
        <ele>182.2</ele>
        <time>2023-05-27T06:17:28Z</time>
      </trkpt>
      <trkpt lat="43.44384" lon="1.60724">
        <ele>182.2</ele>
        <time>2023-05-27T06:17:29Z</time>
      </trkpt>
      <trkpt lat="43.4438" lon="1.60728">
        <ele>182</ele>
        <time>2023-05-27T06:17:30Z</time>
      </trkpt>
      <trkpt lat="43.44375" lon="1.60731">
        <ele>182</ele>
        <time>2023-05-27T06:17:31Z</time>
      </trkpt>
      <trkpt lat="43.44373" lon="1.60733">
        <ele>182</ele>
        <time>2023-05-27T06:17:32Z</time>
      </trkpt>
      <trkpt lat="43.4437" lon="1.60736">
        <ele>182</ele>
        <time>2023-05-27T06:17:33Z</time>
      </trkpt>
      <trkpt lat="43.44366" lon="1.60739">
        <ele>182</ele>
        <time>2023-05-27T06:17:34Z</time>
      </trkpt>
      <trkpt lat="43.44362" lon="1.60741">
        <ele>182.2</ele>
        <time>2023-05-27T06:17:35Z</time>
      </trkpt>
      <trkpt lat="43.44358" lon="1.60745">
        <ele>182.2</ele>
        <time>2023-05-27T06:17:36Z</time>
      </trkpt>
      <trkpt lat="43.44354" lon="1.60748">
        <ele>182.2</ele>
        <time>2023-05-27T06:17:37Z</time>
      </trkpt>
      <trkpt lat="43.44348" lon="1.60751">
        <ele>182</ele>
        <time>2023-05-27T06:17:38Z</time>
      </trkpt>
      <trkpt lat="43.44344" lon="1.60755">
        <ele>182</ele>
        <time>2023-05-27T06:17:39Z</time>
      </trkpt>
      <trkpt lat="43.44339" lon="1.60759">
        <ele>182</ele>
        <time>2023-05-27T06:17:40Z</time>
      </trkpt>
      <trkpt lat="43.44335" lon="1.60762">
        <ele>182</ele>
        <time>2023-05-27T06:17:41Z</time>
      </trkpt>
      <trkpt lat="43.44331" lon="1.60765">
        <ele>182</ele>
        <time>2023-05-27T06:17:42Z</time>
      </trkpt>
      <trkpt lat="43.44327" lon="1.60768">
        <ele>182</ele>
        <time>2023-05-27T06:17:43Z</time>
      </trkpt>
      <trkpt lat="43.44323" lon="1.60771">
        <ele>182</ele>
        <time>2023-05-27T06:17:44Z</time>
      </trkpt>
      <trkpt lat="43.44319" lon="1.60773">
        <ele>182</ele>
        <time>2023-05-27T06:17:45Z</time>
      </trkpt>
      <trkpt lat="43.44315" lon="1.60777">
        <ele>182</ele>
        <time>2023-05-27T06:17:46Z</time>
      </trkpt>
      <trkpt lat="43.44311" lon="1.6078">
        <ele>182</ele>
        <time>2023-05-27T06:17:47Z</time>
      </trkpt>
      <trkpt lat="43.44308" lon="1.60782">
        <ele>182</ele>
        <time>2023-05-27T06:17:48Z</time>
      </trkpt>
      <trkpt lat="43.44305" lon="1.60784">
        <ele>182</ele>
        <time>2023-05-27T06:17:49Z</time>
      </trkpt>
      <trkpt lat="43.44301" lon="1.60786">
        <ele>182</ele>
        <time>2023-05-27T06:17:50Z</time>
      </trkpt>
      <trkpt lat="43.44296" lon="1.60789">
        <ele>182</ele>
        <time>2023-05-27T06:17:51Z</time>
      </trkpt>
      <trkpt lat="43.44293" lon="1.60792">
        <ele>181.8</ele>
        <time>2023-05-27T06:17:52Z</time>
      </trkpt>
      <trkpt lat="43.4429" lon="1.60794">
        <ele>181.8</ele>
        <time>2023-05-27T06:17:53Z</time>
      </trkpt>
      <trkpt lat="43.44288" lon="1.60796">
        <ele>181.8</ele>
        <time>2023-05-27T06:17:54Z</time>
      </trkpt>
      <trkpt lat="43.44284" lon="1.60799">
        <ele>181.8</ele>
        <time>2023-05-27T06:17:55Z</time>
      </trkpt>
      <trkpt lat="43.44281" lon="1.60803">
        <ele>181.8</ele>
        <time>2023-05-27T06:17:56Z</time>
      </trkpt>
      <trkpt lat="43.44277" lon="1.60808">
        <ele>181.8</ele>
        <time>2023-05-27T06:17:57Z</time>
      </trkpt>
      <trkpt lat="43.44275" lon="1.60811">
        <ele>181.8</ele>
        <time>2023-05-27T06:17:58Z</time>
      </trkpt>
      <trkpt lat="43.44272" lon="1.60815">
        <ele>181.8</ele>
        <time>2023-05-27T06:17:59Z</time>
      </trkpt>
      <trkpt lat="43.44269" lon="1.60819">
        <ele>181.8</ele>
        <time>2023-05-27T06:18:00Z</time>
      </trkpt>
      <trkpt lat="43.44266" lon="1.60823">
        <ele>181.8</ele>
        <time>2023-05-27T06:18:01Z</time>
      </trkpt>
      <trkpt lat="43.44262" lon="1.60828">
        <ele>181.8</ele>
        <time>2023-05-27T06:18:02Z</time>
      </trkpt>
      <trkpt lat="43.44259" lon="1.60832">
        <ele>181.8</ele>
        <time>2023-05-27T06:18:03Z</time>
      </trkpt>
      <trkpt lat="43.44256" lon="1.60836">
        <ele>181.8</ele>
        <time>2023-05-27T06:18:04Z</time>
      </trkpt>
      <trkpt lat="43.44252" lon="1.60841">
        <ele>181.8</ele>
        <time>2023-05-27T06:18:05Z</time>
      </trkpt>
      <trkpt lat="43.44248" lon="1.60846">
        <ele>181.8</ele>
        <time>2023-05-27T06:18:06Z</time>
      </trkpt>
      <trkpt lat="43.44245" lon="1.60851">
        <ele>181.8</ele>
        <time>2023-05-27T06:18:07Z</time>
      </trkpt>
      <trkpt lat="43.44242" lon="1.60855">
        <ele>181.8</ele>
        <time>2023-05-27T06:18:08Z</time>
      </trkpt>
      <trkpt lat="43.44238" lon="1.60861">
        <ele>181.6</ele>
        <time>2023-05-27T06:18:09Z</time>
      </trkpt>
      <trkpt lat="43.44235" lon="1.60865">
        <ele>181.6</ele>
        <time>2023-05-27T06:18:10Z</time>
      </trkpt>
      <trkpt lat="43.44231" lon="1.60871">
        <ele>181.6</ele>
        <time>2023-05-27T06:18:11Z</time>
      </trkpt>
      <trkpt lat="43.44226" lon="1.60876">
        <ele>181.6</ele>
        <time>2023-05-27T06:18:12Z</time>
      </trkpt>
      <trkpt lat="43.44221" lon="1.60882">
        <ele>181.6</ele>
        <time>2023-05-27T06:18:13Z</time>
      </trkpt>
      <trkpt lat="43.44216" lon="1.60888">
        <ele>181.6</ele>
        <time>2023-05-27T06:18:14Z</time>
      </trkpt>
      <trkpt lat="43.44212" lon="1.60894">
        <ele>181.6</ele>
        <time>2023-05-27T06:18:15Z</time>
      </trkpt>
      <trkpt lat="43.44208" lon="1.609">
        <ele>181.6</ele>
        <time>2023-05-27T06:18:16Z</time>
      </trkpt>
      <trkpt lat="43.44204" lon="1.60906">
        <ele>181.4</ele>
        <time>2023-05-27T06:18:17Z</time>
      </trkpt>
      <trkpt lat="43.442" lon="1.60913">
        <ele>181.4</ele>
        <time>2023-05-27T06:18:18Z</time>
      </trkpt>
      <trkpt lat="43.44196" lon="1.60919">
        <ele>181.4</ele>
        <time>2023-05-27T06:18:19Z</time>
      </trkpt>
      <trkpt lat="43.44193" lon="1.60925">
        <ele>181.4</ele>
        <time>2023-05-27T06:18:20Z</time>
      </trkpt>
      <trkpt lat="43.4419" lon="1.6093">
        <ele>181.4</ele>
        <time>2023-05-27T06:18:21Z</time>
      </trkpt>
      <trkpt lat="43.44187" lon="1.60935">
        <ele>181.4</ele>
        <time>2023-05-27T06:18:22Z</time>
      </trkpt>
      <trkpt lat="43.44184" lon="1.60941">
        <ele>181.4</ele>
        <time>2023-05-27T06:18:23Z</time>
      </trkpt>
      <trkpt lat="43.44181" lon="1.60946">
        <ele>181.4</ele>
        <time>2023-05-27T06:18:24Z</time>
      </trkpt>
      <trkpt lat="43.44179" lon="1.60951">
        <ele>181.2</ele>
        <time>2023-05-27T06:18:25Z</time>
      </trkpt>
      <trkpt lat="43.44176" lon="1.60958">
        <ele>181.2</ele>
        <time>2023-05-27T06:18:26Z</time>
      </trkpt>
      <trkpt lat="43.44174" lon="1.60963">
        <ele>181.2</ele>
        <time>2023-05-27T06:18:27Z</time>
      </trkpt>
      <trkpt lat="43.4417" lon="1.60969">
        <ele>181.2</ele>
        <time>2023-05-27T06:18:28Z</time>
      </trkpt>
      <trkpt lat="43.44167" lon="1.60975">
        <ele>181.2</ele>
        <time>2023-05-27T06:18:29Z</time>
      </trkpt>
      <trkpt lat="43.44164" lon="1.60982">
        <ele>181.4</ele>
        <time>2023-05-27T06:18:30Z</time>
      </trkpt>
      <trkpt lat="43.44162" lon="1.60986">
        <ele>181.4</ele>
        <time>2023-05-27T06:18:31Z</time>
      </trkpt>
      <trkpt lat="43.44159" lon="1.60991">
        <ele>181.4</ele>
        <time>2023-05-27T06:18:32Z</time>
      </trkpt>
      <trkpt lat="43.44156" lon="1.60998">
        <ele>181.4</ele>
        <time>2023-05-27T06:18:33Z</time>
      </trkpt>
      <trkpt lat="43.44154" lon="1.61004">
        <ele>181.4</ele>
        <time>2023-05-27T06:18:34Z</time>
      </trkpt>
      <trkpt lat="43.44152" lon="1.61009">
        <ele>181.4</ele>
        <time>2023-05-27T06:18:35Z</time>
      </trkpt>
      <trkpt lat="43.4415" lon="1.61016">
        <ele>181.4</ele>
        <time>2023-05-27T06:18:36Z</time>
      </trkpt>
      <trkpt lat="43.44147" lon="1.61021">
        <ele>181.6</ele>
        <time>2023-05-27T06:18:37Z</time>
      </trkpt>
      <trkpt lat="43.44145" lon="1.61026">
        <ele>181.6</ele>
        <time>2023-05-27T06:18:38Z</time>
      </trkpt>
      <trkpt lat="43.44144" lon="1.61031">
        <ele>181.6</ele>
        <time>2023-05-27T06:18:39Z</time>
      </trkpt>
      <trkpt lat="43.44142" lon="1.61037">
        <ele>181.6</ele>
        <time>2023-05-27T06:18:40Z</time>
      </trkpt>
      <trkpt lat="43.44141" lon="1.61043">
        <ele>181.8</ele>
        <time>2023-05-27T06:18:41Z</time>
      </trkpt>
      <trkpt lat="43.44138" lon="1.6105">
        <ele>181.8</ele>
        <time>2023-05-27T06:18:42Z</time>
      </trkpt>
      <trkpt lat="43.44137" lon="1.61055">
        <ele>181.8</ele>
        <time>2023-05-27T06:18:43Z</time>
      </trkpt>
      <trkpt lat="43.44135" lon="1.6106">
        <ele>181.8</ele>
        <time>2023-05-27T06:18:44Z</time>
      </trkpt>
      <trkpt lat="43.44134" lon="1.61065">
        <ele>181.8</ele>
        <time>2023-05-27T06:18:45Z</time>
      </trkpt>
      <trkpt lat="43.44133" lon="1.61069">
        <ele>182</ele>
        <time>2023-05-27T06:18:46Z</time>
      </trkpt>
      <trkpt lat="43.44132" lon="1.61074">
        <ele>182</ele>
        <time>2023-05-27T06:18:47Z</time>
      </trkpt>
      <trkpt lat="43.4413" lon="1.61079">
        <ele>182</ele>
        <time>2023-05-27T06:18:48Z</time>
      </trkpt>
      <trkpt lat="43.44128" lon="1.61085">
        <ele>182</ele>
        <time>2023-05-27T06:18:49Z</time>
      </trkpt>
      <trkpt lat="43.44125" lon="1.61091">
        <ele>182.2</ele>
        <time>2023-05-27T06:18:50Z</time>
      </trkpt>
      <trkpt lat="43.44122" lon="1.61096">
        <ele>182.2</ele>
        <time>2023-05-27T06:18:51Z</time>
      </trkpt>
      <trkpt lat="43.44121" lon="1.61101">
        <ele>182.2</ele>
        <time>2023-05-27T06:18:52Z</time>
      </trkpt>
      <trkpt lat="43.44118" lon="1.61106">
        <ele>182.4</ele>
        <time>2023-05-27T06:18:53Z</time>
      </trkpt>
      <trkpt lat="43.44116" lon="1.61111">
        <ele>182.4</ele>
        <time>2023-05-27T06:18:54Z</time>
      </trkpt>
      <trkpt lat="43.44115" lon="1.61117">
        <ele>182.4</ele>
        <time>2023-05-27T06:18:55Z</time>
      </trkpt>
      <trkpt lat="43.44114" lon="1.61123">
        <ele>182.6</ele>
        <time>2023-05-27T06:18:56Z</time>
      </trkpt>
      <trkpt lat="43.44112" lon="1.6113">
        <ele>182.6</ele>
        <time>2023-05-27T06:18:57Z</time>
      </trkpt>
      <trkpt lat="43.44109" lon="1.61136">
        <ele>182.6</ele>
        <time>2023-05-27T06:18:58Z</time>
      </trkpt>
      <trkpt lat="43.44105" lon="1.61143">
        <ele>182.6</ele>
        <time>2023-05-27T06:18:59Z</time>
      </trkpt>
      <trkpt lat="43.44102" lon="1.61148">
        <ele>182.8</ele>
        <time>2023-05-27T06:19:00Z</time>
      </trkpt>
      <trkpt lat="43.44097" lon="1.61155">
        <ele>182.8</ele>
        <time>2023-05-27T06:19:01Z</time>
      </trkpt>
      <trkpt lat="43.44094" lon="1.61162">
        <ele>182.8</ele>
        <time>2023-05-27T06:19:02Z</time>
      </trkpt>
      <trkpt lat="43.44092" lon="1.61166">
        <ele>182.8</ele>
        <time>2023-05-27T06:19:03Z</time>
      </trkpt>
      <trkpt lat="43.4409" lon="1.61171">
        <ele>182.8</ele>
        <time>2023-05-27T06:19:04Z</time>
      </trkpt>
      <trkpt lat="43.44089" lon="1.61175">
        <ele>182.8</ele>
        <time>2023-05-27T06:19:05Z</time>
      </trkpt>
      <trkpt lat="43.44085" lon="1.6118">
        <ele>182.8</ele>
        <time>2023-05-27T06:19:06Z</time>
      </trkpt>
      <trkpt lat="43.44084" lon="1.61184">
        <ele>182.8</ele>
        <time>2023-05-27T06:19:07Z</time>
      </trkpt>
      <trkpt lat="43.44082" lon="1.61188">
        <ele>182.8</ele>
        <time>2023-05-27T06:19:08Z</time>
      </trkpt>
      <trkpt lat="43.44079" lon="1.61191">
        <ele>182.8</ele>
        <time>2023-05-27T06:19:09Z</time>
      </trkpt>
      <trkpt lat="43.44076" lon="1.61194">
        <ele>183</ele>
        <time>2023-05-27T06:19:10Z</time>
      </trkpt>
      <trkpt lat="43.44072" lon="1.61198">
        <ele>183</ele>
        <time>2023-05-27T06:19:11Z</time>
      </trkpt>
      <trkpt lat="43.44068" lon="1.61202">
        <ele>183</ele>
        <time>2023-05-27T06:19:12Z</time>
      </trkpt>
      <trkpt lat="43.44063" lon="1.61206">
        <ele>183</ele>
        <time>2023-05-27T06:19:13Z</time>
      </trkpt>
      <trkpt lat="43.44058" lon="1.6121">
        <ele>183</ele>
        <time>2023-05-27T06:19:14Z</time>
      </trkpt>
      <trkpt lat="43.44054" lon="1.61214">
        <ele>183</ele>
        <time>2023-05-27T06:19:15Z</time>
      </trkpt>
      <trkpt lat="43.4405" lon="1.61217">
        <ele>183</ele>
        <time>2023-05-27T06:19:16Z</time>
      </trkpt>
      <trkpt lat="43.44045" lon="1.61221">
        <ele>182.8</ele>
        <time>2023-05-27T06:19:17Z</time>
      </trkpt>
      <trkpt lat="43.4404" lon="1.61225">
        <ele>182.8</ele>
        <time>2023-05-27T06:19:18Z</time>
      </trkpt>
      <trkpt lat="43.44036" lon="1.61228">
        <ele>182.8</ele>
        <time>2023-05-27T06:19:19Z</time>
      </trkpt>
      <trkpt lat="43.44032" lon="1.61231">
        <ele>182.8</ele>
        <time>2023-05-27T06:19:20Z</time>
      </trkpt>
      <trkpt lat="43.44028" lon="1.61234">
        <ele>182.8</ele>
        <time>2023-05-27T06:19:21Z</time>
      </trkpt>
      <trkpt lat="43.44023" lon="1.61237">
        <ele>182.8</ele>
        <time>2023-05-27T06:19:22Z</time>
      </trkpt>
      <trkpt lat="43.44019" lon="1.6124">
        <ele>182.8</ele>
        <time>2023-05-27T06:19:23Z</time>
      </trkpt>
      <trkpt lat="43.44015" lon="1.61242">
        <ele>182.8</ele>
        <time>2023-05-27T06:19:24Z</time>
      </trkpt>
      <trkpt lat="43.44009" lon="1.61245">
        <ele>182.8</ele>
        <time>2023-05-27T06:19:25Z</time>
      </trkpt>
      <trkpt lat="43.44002" lon="1.61247">
        <ele>182.8</ele>
        <time>2023-05-27T06:19:26Z</time>
      </trkpt>
      <trkpt lat="43.43997" lon="1.61249">
        <ele>182.8</ele>
        <time>2023-05-27T06:19:27Z</time>
      </trkpt>
      <trkpt lat="43.43993" lon="1.6125">
        <ele>183</ele>
        <time>2023-05-27T06:19:28Z</time>
      </trkpt>
      <trkpt lat="43.43988" lon="1.61252">
        <ele>183</ele>
        <time>2023-05-27T06:19:29Z</time>
      </trkpt>
      <trkpt lat="43.43984" lon="1.61253">
        <ele>183.2</ele>
        <time>2023-05-27T06:19:30Z</time>
      </trkpt>
      <trkpt lat="43.43981" lon="1.61254">
        <ele>183.2</ele>
        <time>2023-05-27T06:19:31Z</time>
      </trkpt>
      <trkpt lat="43.43977" lon="1.61256">
        <ele>183.4</ele>
        <time>2023-05-27T06:19:32Z</time>
      </trkpt>
      <trkpt lat="43.43974" lon="1.61257">
        <ele>183.6</ele>
        <time>2023-05-27T06:19:33Z</time>
      </trkpt>
      <trkpt lat="43.43971" lon="1.61258">
        <ele>183.8</ele>
        <time>2023-05-27T06:19:34Z</time>
      </trkpt>
      <trkpt lat="43.43968" lon="1.6126">
        <ele>184</ele>
        <time>2023-05-27T06:19:35Z</time>
      </trkpt>
      <trkpt lat="43.43965" lon="1.6126">
        <ele>184.2</ele>
        <time>2023-05-27T06:19:36Z</time>
      </trkpt>
      <trkpt lat="43.43962" lon="1.6126">
        <ele>184.4</ele>
        <time>2023-05-27T06:19:37Z</time>
      </trkpt>
      <trkpt lat="43.4396" lon="1.6126">
        <ele>184.4</ele>
        <time>2023-05-27T06:19:38Z</time>
      </trkpt>
      <trkpt lat="43.43957" lon="1.61262">
        <ele>184.6</ele>
        <time>2023-05-27T06:19:39Z</time>
      </trkpt>
      <trkpt lat="43.43953" lon="1.61263">
        <ele>184.6</ele>
        <time>2023-05-27T06:19:40Z</time>
      </trkpt>
      <trkpt lat="43.4395" lon="1.61265">
        <ele>184.6</ele>
        <time>2023-05-27T06:19:41Z</time>
      </trkpt>
      <trkpt lat="43.43947" lon="1.61267">
        <ele>184.6</ele>
        <time>2023-05-27T06:19:42Z</time>
      </trkpt>
      <trkpt lat="43.43943" lon="1.61269">
        <ele>184.6</ele>
        <time>2023-05-27T06:19:43Z</time>
      </trkpt>
      <trkpt lat="43.4394" lon="1.61271">
        <ele>184.6</ele>
        <time>2023-05-27T06:19:44Z</time>
      </trkpt>
      <trkpt lat="43.43936" lon="1.61273">
        <ele>184.6</ele>
        <time>2023-05-27T06:19:45Z</time>
      </trkpt>
      <trkpt lat="43.43933" lon="1.61275">
        <ele>184.6</ele>
        <time>2023-05-27T06:19:46Z</time>
      </trkpt>
      <trkpt lat="43.43929" lon="1.61278">
        <ele>184.6</ele>
        <time>2023-05-27T06:19:47Z</time>
      </trkpt>
      <trkpt lat="43.43926" lon="1.61281">
        <ele>184.6</ele>
        <time>2023-05-27T06:19:48Z</time>
      </trkpt>
      <trkpt lat="43.43922" lon="1.61283">
        <ele>184.6</ele>
        <time>2023-05-27T06:19:49Z</time>
      </trkpt>
      <trkpt lat="43.43919" lon="1.61285">
        <ele>184.6</ele>
        <time>2023-05-27T06:19:50Z</time>
      </trkpt>
      <trkpt lat="43.43916" lon="1.61287">
        <ele>184.6</ele>
        <time>2023-05-27T06:19:51Z</time>
      </trkpt>
      <trkpt lat="43.43913" lon="1.6129">
        <ele>184.6</ele>
        <time>2023-05-27T06:19:52Z</time>
      </trkpt>
      <trkpt lat="43.4391" lon="1.61293">
        <ele>184.8</ele>
        <time>2023-05-27T06:19:53Z</time>
      </trkpt>
      <trkpt lat="43.43907" lon="1.61296">
        <ele>184.8</ele>
        <time>2023-05-27T06:19:54Z</time>
      </trkpt>
      <trkpt lat="43.43905" lon="1.61298">
        <ele>185</ele>
        <time>2023-05-27T06:19:55Z</time>
      </trkpt>
      <trkpt lat="43.43902" lon="1.613">
        <ele>185</ele>
        <time>2023-05-27T06:19:56Z</time>
      </trkpt>
      <trkpt lat="43.439" lon="1.61301">
        <ele>185.2</ele>
        <time>2023-05-27T06:19:57Z</time>
      </trkpt>
      <trkpt lat="43.43898" lon="1.61302">
        <ele>185.2</ele>
        <time>2023-05-27T06:19:58Z</time>
      </trkpt>
      <trkpt lat="43.43895" lon="1.61304">
        <ele>185.2</ele>
        <time>2023-05-27T06:19:59Z</time>
      </trkpt>
      <trkpt lat="43.43892" lon="1.61306">
        <ele>185.2</ele>
        <time>2023-05-27T06:20:00Z</time>
      </trkpt>
      <trkpt lat="43.43889" lon="1.61307">
        <ele>185.4</ele>
        <time>2023-05-27T06:20:01Z</time>
      </trkpt>
      <trkpt lat="43.43886" lon="1.61308">
        <ele>185.2</ele>
        <time>2023-05-27T06:20:02Z</time>
      </trkpt>
      <trkpt lat="43.43883" lon="1.6131">
        <ele>185.2</ele>
        <time>2023-05-27T06:20:03Z</time>
      </trkpt>
      <trkpt lat="43.4388" lon="1.61312">
        <ele>185.2</ele>
        <time>2023-05-27T06:20:04Z</time>
      </trkpt>
      <trkpt lat="43.43877" lon="1.61315">
        <ele>185.2</ele>
        <time>2023-05-27T06:20:05Z</time>
      </trkpt>
      <trkpt lat="43.43874" lon="1.61318">
        <ele>185.2</ele>
        <time>2023-05-27T06:20:06Z</time>
      </trkpt>
      <trkpt lat="43.43871" lon="1.61319">
        <ele>185.2</ele>
        <time>2023-05-27T06:20:07Z</time>
      </trkpt>
      <trkpt lat="43.43868" lon="1.61321">
        <ele>185.2</ele>
        <time>2023-05-27T06:20:08Z</time>
      </trkpt>
      <trkpt lat="43.43865" lon="1.61324">
        <ele>185.2</ele>
        <time>2023-05-27T06:20:09Z</time>
      </trkpt>
      <trkpt lat="43.43862" lon="1.61326">
        <ele>185.2</ele>
        <time>2023-05-27T06:20:10Z</time>
      </trkpt>
      <trkpt lat="43.4386" lon="1.61329">
        <ele>185.4</ele>
        <time>2023-05-27T06:20:11Z</time>
      </trkpt>
      <trkpt lat="43.43857" lon="1.61332">
        <ele>185.4</ele>
        <time>2023-05-27T06:20:12Z</time>
      </trkpt>
      <trkpt lat="43.43855" lon="1.61335">
        <ele>185.4</ele>
        <time>2023-05-27T06:20:13Z</time>
      </trkpt>
      <trkpt lat="43.43853" lon="1.61338">
        <ele>185.4</ele>
        <time>2023-05-27T06:20:14Z</time>
      </trkpt>
      <trkpt lat="43.4385" lon="1.61341">
        <ele>185.4</ele>
        <time>2023-05-27T06:20:15Z</time>
      </trkpt>
      <trkpt lat="43.43847" lon="1.61344">
        <ele>185.4</ele>
        <time>2023-05-27T06:20:16Z</time>
      </trkpt>
      <trkpt lat="43.43845" lon="1.61347">
        <ele>185.6</ele>
        <time>2023-05-27T06:20:17Z</time>
      </trkpt>
      <trkpt lat="43.43843" lon="1.6135">
        <ele>185.6</ele>
        <time>2023-05-27T06:20:18Z</time>
      </trkpt>
      <trkpt lat="43.43839" lon="1.61354">
        <ele>185.6</ele>
        <time>2023-05-27T06:20:19Z</time>
      </trkpt>
      <trkpt lat="43.43837" lon="1.61357">
        <ele>185.6</ele>
        <time>2023-05-27T06:20:20Z</time>
      </trkpt>
      <trkpt lat="43.43834" lon="1.61361">
        <ele>185.6</ele>
        <time>2023-05-27T06:20:21Z</time>
      </trkpt>
      <trkpt lat="43.43832" lon="1.61363">
        <ele>185.6</ele>
        <time>2023-05-27T06:20:22Z</time>
      </trkpt>
      <trkpt lat="43.4383" lon="1.61366">
        <ele>185.6</ele>
        <time>2023-05-27T06:20:23Z</time>
      </trkpt>
      <trkpt lat="43.43828" lon="1.61369">
        <ele>185.8</ele>
        <time>2023-05-27T06:20:24Z</time>
      </trkpt>
      <trkpt lat="43.43824" lon="1.61373">
        <ele>185.8</ele>
        <time>2023-05-27T06:20:25Z</time>
      </trkpt>
      <trkpt lat="43.43822" lon="1.61376">
        <ele>185.8</ele>
        <time>2023-05-27T06:20:26Z</time>
      </trkpt>
      <trkpt lat="43.43818" lon="1.61381">
        <ele>185.8</ele>
        <time>2023-05-27T06:20:27Z</time>
      </trkpt>
      <trkpt lat="43.43815" lon="1.61385">
        <ele>185.8</ele>
        <time>2023-05-27T06:20:28Z</time>
      </trkpt>
      <trkpt lat="43.43813" lon="1.6139">
        <ele>186</ele>
        <time>2023-05-27T06:20:29Z</time>
      </trkpt>
      <trkpt lat="43.43807" lon="1.61395">
        <ele>186</ele>
        <time>2023-05-27T06:20:30Z</time>
      </trkpt>
      <trkpt lat="43.43804" lon="1.61399">
        <ele>186</ele>
        <time>2023-05-27T06:20:31Z</time>
      </trkpt>
      <trkpt lat="43.43802" lon="1.61403">
        <ele>186.2</ele>
        <time>2023-05-27T06:20:32Z</time>
      </trkpt>
      <trkpt lat="43.43799" lon="1.61407">
        <ele>186.2</ele>
        <time>2023-05-27T06:20:33Z</time>
      </trkpt>
      <trkpt lat="43.43797" lon="1.6141">
        <ele>186.2</ele>
        <time>2023-05-27T06:20:34Z</time>
      </trkpt>
      <trkpt lat="43.43794" lon="1.61413">
        <ele>186.2</ele>
        <time>2023-05-27T06:20:35Z</time>
      </trkpt>
      <trkpt lat="43.43791" lon="1.61417">
        <ele>186.2</ele>
        <time>2023-05-27T06:20:36Z</time>
      </trkpt>
      <trkpt lat="43.43788" lon="1.6142">
        <ele>186.2</ele>
        <time>2023-05-27T06:20:37Z</time>
      </trkpt>
      <trkpt lat="43.43784" lon="1.61424">
        <ele>186.2</ele>
        <time>2023-05-27T06:20:38Z</time>
      </trkpt>
      <trkpt lat="43.43783" lon="1.61428">
        <ele>186.4</ele>
        <time>2023-05-27T06:20:39Z</time>
      </trkpt>
      <trkpt lat="43.43781" lon="1.61432">
        <ele>186.4</ele>
        <time>2023-05-27T06:20:40Z</time>
      </trkpt>
      <trkpt lat="43.43778" lon="1.61436">
        <ele>186.4</ele>
        <time>2023-05-27T06:20:41Z</time>
      </trkpt>
      <trkpt lat="43.43774" lon="1.6144">
        <ele>186.4</ele>
        <time>2023-05-27T06:20:42Z</time>
      </trkpt>
      <trkpt lat="43.4377" lon="1.61443">
        <ele>186.4</ele>
        <time>2023-05-27T06:20:43Z</time>
      </trkpt>
      <trkpt lat="43.43766" lon="1.61448">
        <ele>186.4</ele>
        <time>2023-05-27T06:20:44Z</time>
      </trkpt>
      <trkpt lat="43.43763" lon="1.61453">
        <ele>186.2</ele>
        <time>2023-05-27T06:20:45Z</time>
      </trkpt>
      <trkpt lat="43.43759" lon="1.61458">
        <ele>186.2</ele>
        <time>2023-05-27T06:20:46Z</time>
      </trkpt>
      <trkpt lat="43.43756" lon="1.61462">
        <ele>186.2</ele>
        <time>2023-05-27T06:20:47Z</time>
      </trkpt>
      <trkpt lat="43.43754" lon="1.61464">
        <ele>186.2</ele>
        <time>2023-05-27T06:20:48Z</time>
      </trkpt>
      <trkpt lat="43.4375" lon="1.61469">
        <ele>186.2</ele>
        <time>2023-05-27T06:20:49Z</time>
      </trkpt>
      <trkpt lat="43.43743" lon="1.61477">
        <ele>186.2</ele>
        <time>2023-05-27T06:20:50Z</time>
      </trkpt>
      <trkpt lat="43.43739" lon="1.61482">
        <ele>186.2</ele>
        <time>2023-05-27T06:20:51Z</time>
      </trkpt>
      <trkpt lat="43.43737" lon="1.61487">
        <ele>186.2</ele>
        <time>2023-05-27T06:20:52Z</time>
      </trkpt>
      <trkpt lat="43.43734" lon="1.6149">
        <ele>186.2</ele>
        <time>2023-05-27T06:20:53Z</time>
      </trkpt>
      <trkpt lat="43.43729" lon="1.61494">
        <ele>186.2</ele>
        <time>2023-05-27T06:20:54Z</time>
      </trkpt>
      <trkpt lat="43.43725" lon="1.61498">
        <ele>186.2</ele>
        <time>2023-05-27T06:20:55Z</time>
      </trkpt>
      <trkpt lat="43.43722" lon="1.61504">
        <ele>186.2</ele>
        <time>2023-05-27T06:20:56Z</time>
      </trkpt>
      <trkpt lat="43.4372" lon="1.61508">
        <ele>186.2</ele>
        <time>2023-05-27T06:20:57Z</time>
      </trkpt>
      <trkpt lat="43.43716" lon="1.61512">
        <ele>186.2</ele>
        <time>2023-05-27T06:20:58Z</time>
      </trkpt>
      <trkpt lat="43.43712" lon="1.61517">
        <ele>186.2</ele>
        <time>2023-05-27T06:20:59Z</time>
      </trkpt>
      <trkpt lat="43.4371" lon="1.6152">
        <ele>186.2</ele>
        <time>2023-05-27T06:21:00Z</time>
      </trkpt>
      <trkpt lat="43.43707" lon="1.61524">
        <ele>186.2</ele>
        <time>2023-05-27T06:21:01Z</time>
      </trkpt>
      <trkpt lat="43.43704" lon="1.61527">
        <ele>186.2</ele>
        <time>2023-05-27T06:21:02Z</time>
      </trkpt>
      <trkpt lat="43.43701" lon="1.61531">
        <ele>186.2</ele>
        <time>2023-05-27T06:21:03Z</time>
      </trkpt>
      <trkpt lat="43.43699" lon="1.61534">
        <ele>186.2</ele>
        <time>2023-05-27T06:21:04Z</time>
      </trkpt>
      <trkpt lat="43.43697" lon="1.61537">
        <ele>186.2</ele>
        <time>2023-05-27T06:21:05Z</time>
      </trkpt>
      <trkpt lat="43.43695" lon="1.61539">
        <ele>186.2</ele>
        <time>2023-05-27T06:21:06Z</time>
      </trkpt>
      <trkpt lat="43.43693" lon="1.61542">
        <ele>186.2</ele>
        <time>2023-05-27T06:21:07Z</time>
      </trkpt>
      <trkpt lat="43.43691" lon="1.61545">
        <ele>186.2</ele>
        <time>2023-05-27T06:21:08Z</time>
      </trkpt>
      <trkpt lat="43.43688" lon="1.61548">
        <ele>186.2</ele>
        <time>2023-05-27T06:21:09Z</time>
      </trkpt>
      <trkpt lat="43.43686" lon="1.61551">
        <ele>186.2</ele>
        <time>2023-05-27T06:21:10Z</time>
      </trkpt>
      <trkpt lat="43.43683" lon="1.61555">
        <ele>186.4</ele>
        <time>2023-05-27T06:21:11Z</time>
      </trkpt>
      <trkpt lat="43.4368" lon="1.61559">
        <ele>186.4</ele>
        <time>2023-05-27T06:21:12Z</time>
      </trkpt>
      <trkpt lat="43.43677" lon="1.61562">
        <ele>186.4</ele>
        <time>2023-05-27T06:21:13Z</time>
      </trkpt>
      <trkpt lat="43.43673" lon="1.61565">
        <ele>186.4</ele>
        <time>2023-05-27T06:21:14Z</time>
      </trkpt>
      <trkpt lat="43.43669" lon="1.61569">
        <ele>186.4</ele>
        <time>2023-05-27T06:21:15Z</time>
      </trkpt>
      <trkpt lat="43.43665" lon="1.61573">
        <ele>186.4</ele>
        <time>2023-05-27T06:21:16Z</time>
      </trkpt>
      <trkpt lat="43.43662" lon="1.61576">
        <ele>186.4</ele>
        <time>2023-05-27T06:21:17Z</time>
      </trkpt>
      <trkpt lat="43.43659" lon="1.61579">
        <ele>186.4</ele>
        <time>2023-05-27T06:21:18Z</time>
      </trkpt>
      <trkpt lat="43.43655" lon="1.61583">
        <ele>186.4</ele>
        <time>2023-05-27T06:21:19Z</time>
      </trkpt>
      <trkpt lat="43.43651" lon="1.61588">
        <ele>186.4</ele>
        <time>2023-05-27T06:21:20Z</time>
      </trkpt>
      <trkpt lat="43.43647" lon="1.61592">
        <ele>186.2</ele>
        <time>2023-05-27T06:21:21Z</time>
      </trkpt>
      <trkpt lat="43.43643" lon="1.61596">
        <ele>186.2</ele>
        <time>2023-05-27T06:21:22Z</time>
      </trkpt>
      <trkpt lat="43.43638" lon="1.616">
        <ele>186.2</ele>
        <time>2023-05-27T06:21:23Z</time>
      </trkpt>
      <trkpt lat="43.43633" lon="1.61606">
        <ele>186.2</ele>
        <time>2023-05-27T06:21:24Z</time>
      </trkpt>
      <trkpt lat="43.43628" lon="1.61611">
        <ele>186</ele>
        <time>2023-05-27T06:21:25Z</time>
      </trkpt>
      <trkpt lat="43.43625" lon="1.61615">
        <ele>186</ele>
        <time>2023-05-27T06:21:26Z</time>
      </trkpt>
      <trkpt lat="43.43622" lon="1.61618">
        <ele>186</ele>
        <time>2023-05-27T06:21:27Z</time>
      </trkpt>
      <trkpt lat="43.43617" lon="1.61622">
        <ele>186</ele>
        <time>2023-05-27T06:21:28Z</time>
      </trkpt>
      <trkpt lat="43.43615" lon="1.61626">
        <ele>186</ele>
        <time>2023-05-27T06:21:29Z</time>
      </trkpt>
      <trkpt lat="43.43611" lon="1.61628">
        <ele>186</ele>
        <time>2023-05-27T06:21:30Z</time>
      </trkpt>
      <trkpt lat="43.43608" lon="1.61632">
        <ele>186</ele>
        <time>2023-05-27T06:21:31Z</time>
      </trkpt>
      <trkpt lat="43.43605" lon="1.61636">
        <ele>186</ele>
        <time>2023-05-27T06:21:32Z</time>
      </trkpt>
      <trkpt lat="43.43601" lon="1.6164">
        <ele>185.8</ele>
        <time>2023-05-27T06:21:33Z</time>
      </trkpt>
      <trkpt lat="43.43598" lon="1.61644">
        <ele>185.8</ele>
        <time>2023-05-27T06:21:34Z</time>
      </trkpt>
      <trkpt lat="43.43596" lon="1.61648">
        <ele>186</ele>
        <time>2023-05-27T06:21:35Z</time>
      </trkpt>
      <trkpt lat="43.4359" lon="1.61653">
        <ele>186</ele>
        <time>2023-05-27T06:21:36Z</time>
      </trkpt>
      <trkpt lat="43.43587" lon="1.61657">
        <ele>186</ele>
        <time>2023-05-27T06:21:37Z</time>
      </trkpt>
      <trkpt lat="43.43582" lon="1.61662">
        <ele>186</ele>
        <time>2023-05-27T06:21:38Z</time>
      </trkpt>
      <trkpt lat="43.43579" lon="1.61666">
        <ele>186</ele>
        <time>2023-05-27T06:21:39Z</time>
      </trkpt>
      <trkpt lat="43.43578" lon="1.61668">
        <ele>186</ele>
        <time>2023-05-27T06:21:40Z</time>
      </trkpt>
      <trkpt lat="43.43574" lon="1.61672">
        <ele>186</ele>
        <time>2023-05-27T06:21:41Z</time>
      </trkpt>
      <trkpt lat="43.43572" lon="1.61675">
        <ele>186</ele>
        <time>2023-05-27T06:21:42Z</time>
      </trkpt>
      <trkpt lat="43.43569" lon="1.61677">
        <ele>186</ele>
        <time>2023-05-27T06:21:43Z</time>
      </trkpt>
      <trkpt lat="43.43566" lon="1.6168">
        <ele>186</ele>
        <time>2023-05-27T06:21:44Z</time>
      </trkpt>
      <trkpt lat="43.43563" lon="1.61683">
        <ele>186</ele>
        <time>2023-05-27T06:21:45Z</time>
      </trkpt>
      <trkpt lat="43.4356" lon="1.61687">
        <ele>186</ele>
        <time>2023-05-27T06:21:46Z</time>
      </trkpt>
      <trkpt lat="43.43557" lon="1.6169">
        <ele>186</ele>
        <time>2023-05-27T06:21:47Z</time>
      </trkpt>
      <trkpt lat="43.43555" lon="1.61693">
        <ele>186</ele>
        <time>2023-05-27T06:21:48Z</time>
      </trkpt>
      <trkpt lat="43.43553" lon="1.61697">
        <ele>186.2</ele>
        <time>2023-05-27T06:21:49Z</time>
      </trkpt>
      <trkpt lat="43.43551" lon="1.61701">
        <ele>186.2</ele>
        <time>2023-05-27T06:21:50Z</time>
      </trkpt>
      <trkpt lat="43.43548" lon="1.61705">
        <ele>186.2</ele>
        <time>2023-05-27T06:21:51Z</time>
      </trkpt>
      <trkpt lat="43.43545" lon="1.61709">
        <ele>186.4</ele>
        <time>2023-05-27T06:21:52Z</time>
      </trkpt>
      <trkpt lat="43.43543" lon="1.61712">
        <ele>186.4</ele>
        <time>2023-05-27T06:21:53Z</time>
      </trkpt>
      <trkpt lat="43.4354" lon="1.61716">
        <ele>186.4</ele>
        <time>2023-05-27T06:21:54Z</time>
      </trkpt>
      <trkpt lat="43.43537" lon="1.6172">
        <ele>186.2</ele>
        <time>2023-05-27T06:21:55Z</time>
      </trkpt>
      <trkpt lat="43.43534" lon="1.61725">
        <ele>186.2</ele>
        <time>2023-05-27T06:21:56Z</time>
      </trkpt>
      <trkpt lat="43.43529" lon="1.61729">
        <ele>186.2</ele>
        <time>2023-05-27T06:21:57Z</time>
      </trkpt>
      <trkpt lat="43.43526" lon="1.61734">
        <ele>186.2</ele>
        <time>2023-05-27T06:21:58Z</time>
      </trkpt>
      <trkpt lat="43.43524" lon="1.61737">
        <ele>186.2</ele>
        <time>2023-05-27T06:21:59Z</time>
      </trkpt>
      <trkpt lat="43.43521" lon="1.61741">
        <ele>186.2</ele>
        <time>2023-05-27T06:22:00Z</time>
      </trkpt>
      <trkpt lat="43.43517" lon="1.61746">
        <ele>186.2</ele>
        <time>2023-05-27T06:22:01Z</time>
      </trkpt>
      <trkpt lat="43.43515" lon="1.61751">
        <ele>186.2</ele>
        <time>2023-05-27T06:22:02Z</time>
      </trkpt>
      <trkpt lat="43.43512" lon="1.61755">
        <ele>186.2</ele>
        <time>2023-05-27T06:22:03Z</time>
      </trkpt>
      <trkpt lat="43.4351" lon="1.6176">
        <ele>186.2</ele>
        <time>2023-05-27T06:22:04Z</time>
      </trkpt>
      <trkpt lat="43.43508" lon="1.61765">
        <ele>186.2</ele>
        <time>2023-05-27T06:22:05Z</time>
      </trkpt>
      <trkpt lat="43.43503" lon="1.61771">
        <ele>186.2</ele>
        <time>2023-05-27T06:22:06Z</time>
      </trkpt>
      <trkpt lat="43.43498" lon="1.61777">
        <ele>186.2</ele>
        <time>2023-05-27T06:22:07Z</time>
      </trkpt>
      <trkpt lat="43.43492" lon="1.61784">
        <ele>186.2</ele>
        <time>2023-05-27T06:22:08Z</time>
      </trkpt>
      <trkpt lat="43.4349" lon="1.61789">
        <ele>186.2</ele>
        <time>2023-05-27T06:22:09Z</time>
      </trkpt>
      <trkpt lat="43.43488" lon="1.61793">
        <ele>186.2</ele>
        <time>2023-05-27T06:22:10Z</time>
      </trkpt>
      <trkpt lat="43.43486" lon="1.61798">
        <ele>186.2</ele>
        <time>2023-05-27T06:22:11Z</time>
      </trkpt>
      <trkpt lat="43.43481" lon="1.61803">
        <ele>186.2</ele>
        <time>2023-05-27T06:22:12Z</time>
      </trkpt>
      <trkpt lat="43.43479" lon="1.61808">
        <ele>186.2</ele>
        <time>2023-05-27T06:22:13Z</time>
      </trkpt>
      <trkpt lat="43.43476" lon="1.61813">
        <ele>186.2</ele>
        <time>2023-05-27T06:22:14Z</time>
      </trkpt>
      <trkpt lat="43.43474" lon="1.61816">
        <ele>186.2</ele>
        <time>2023-05-27T06:22:15Z</time>
      </trkpt>
      <trkpt lat="43.43471" lon="1.6182">
        <ele>186.2</ele>
        <time>2023-05-27T06:22:16Z</time>
      </trkpt>
      <trkpt lat="43.43468" lon="1.61826">
        <ele>186.2</ele>
        <time>2023-05-27T06:22:17Z</time>
      </trkpt>
      <trkpt lat="43.43465" lon="1.61831">
        <ele>186.2</ele>
        <time>2023-05-27T06:22:18Z</time>
      </trkpt>
      <trkpt lat="43.43462" lon="1.61836">
        <ele>186.2</ele>
        <time>2023-05-27T06:22:19Z</time>
      </trkpt>
      <trkpt lat="43.43459" lon="1.6184">
        <ele>186.2</ele>
        <time>2023-05-27T06:22:20Z</time>
      </trkpt>
      <trkpt lat="43.43457" lon="1.61844">
        <ele>186.2</ele>
        <time>2023-05-27T06:22:21Z</time>
      </trkpt>
      <trkpt lat="43.43454" lon="1.61848">
        <ele>186.2</ele>
        <time>2023-05-27T06:22:22Z</time>
      </trkpt>
      <trkpt lat="43.43453" lon="1.61851">
        <ele>186.2</ele>
        <time>2023-05-27T06:22:23Z</time>
      </trkpt>
      <trkpt lat="43.4345" lon="1.61855">
        <ele>186.2</ele>
        <time>2023-05-27T06:22:24Z</time>
      </trkpt>
      <trkpt lat="43.43448" lon="1.61858">
        <ele>186</ele>
        <time>2023-05-27T06:22:25Z</time>
      </trkpt>
      <trkpt lat="43.43445" lon="1.61862">
        <ele>186</ele>
        <time>2023-05-27T06:22:26Z</time>
      </trkpt>
      <trkpt lat="43.43442" lon="1.61867">
        <ele>186</ele>
        <time>2023-05-27T06:22:27Z</time>
      </trkpt>
      <trkpt lat="43.4344" lon="1.61871">
        <ele>186</ele>
        <time>2023-05-27T06:22:28Z</time>
      </trkpt>
      <trkpt lat="43.43436" lon="1.61876">
        <ele>186</ele>
        <time>2023-05-27T06:22:29Z</time>
      </trkpt>
      <trkpt lat="43.43432" lon="1.61881">
        <ele>186</ele>
        <time>2023-05-27T06:22:30Z</time>
      </trkpt>
      <trkpt lat="43.43428" lon="1.61886">
        <ele>186</ele>
        <time>2023-05-27T06:22:31Z</time>
      </trkpt>
      <trkpt lat="43.43425" lon="1.6189">
        <ele>185.8</ele>
        <time>2023-05-27T06:22:32Z</time>
      </trkpt>
      <trkpt lat="43.43422" lon="1.61894">
        <ele>185.8</ele>
        <time>2023-05-27T06:22:33Z</time>
      </trkpt>
      <trkpt lat="43.4342" lon="1.61897">
        <ele>185.8</ele>
        <time>2023-05-27T06:22:34Z</time>
      </trkpt>
      <trkpt lat="43.43418" lon="1.619">
        <ele>185.8</ele>
        <time>2023-05-27T06:22:35Z</time>
      </trkpt>
      <trkpt lat="43.43414" lon="1.61904">
        <ele>185.8</ele>
        <time>2023-05-27T06:22:36Z</time>
      </trkpt>
      <trkpt lat="43.43411" lon="1.61908">
        <ele>185.8</ele>
        <time>2023-05-27T06:22:37Z</time>
      </trkpt>
      <trkpt lat="43.43408" lon="1.61912">
        <ele>185.8</ele>
        <time>2023-05-27T06:22:38Z</time>
      </trkpt>
      <trkpt lat="43.43406" lon="1.61915">
        <ele>185.8</ele>
        <time>2023-05-27T06:22:39Z</time>
      </trkpt>
      <trkpt lat="43.43402" lon="1.61919">
        <ele>185.8</ele>
        <time>2023-05-27T06:22:40Z</time>
      </trkpt>
      <trkpt lat="43.43399" lon="1.61923">
        <ele>185.8</ele>
        <time>2023-05-27T06:22:41Z</time>
      </trkpt>
      <trkpt lat="43.43396" lon="1.61927">
        <ele>185.8</ele>
        <time>2023-05-27T06:22:42Z</time>
      </trkpt>
      <trkpt lat="43.43394" lon="1.6193">
        <ele>185.8</ele>
        <time>2023-05-27T06:22:43Z</time>
      </trkpt>
      <trkpt lat="43.43389" lon="1.61935">
        <ele>185.8</ele>
        <time>2023-05-27T06:22:44Z</time>
      </trkpt>
      <trkpt lat="43.43384" lon="1.61939">
        <ele>185.8</ele>
        <time>2023-05-27T06:22:45Z</time>
      </trkpt>
      <trkpt lat="43.4338" lon="1.61942">
        <ele>185.8</ele>
        <time>2023-05-27T06:22:46Z</time>
      </trkpt>
      <trkpt lat="43.43376" lon="1.61947">
        <ele>185.8</ele>
        <time>2023-05-27T06:22:47Z</time>
      </trkpt>
      <trkpt lat="43.43373" lon="1.61951">
        <ele>185.8</ele>
        <time>2023-05-27T06:22:48Z</time>
      </trkpt>
      <trkpt lat="43.4337" lon="1.61956">
        <ele>185.8</ele>
        <time>2023-05-27T06:22:49Z</time>
      </trkpt>
      <trkpt lat="43.43364" lon="1.61961">
        <ele>185.8</ele>
        <time>2023-05-27T06:22:50Z</time>
      </trkpt>
      <trkpt lat="43.4336" lon="1.61965">
        <ele>185.8</ele>
        <time>2023-05-27T06:22:51Z</time>
      </trkpt>
      <trkpt lat="43.43355" lon="1.6197">
        <ele>185.8</ele>
        <time>2023-05-27T06:22:52Z</time>
      </trkpt>
      <trkpt lat="43.43351" lon="1.61975">
        <ele>185.8</ele>
        <time>2023-05-27T06:22:53Z</time>
      </trkpt>
      <trkpt lat="43.43349" lon="1.61978">
        <ele>185.8</ele>
        <time>2023-05-27T06:22:54Z</time>
      </trkpt>
      <trkpt lat="43.43345" lon="1.61981">
        <ele>185.8</ele>
        <time>2023-05-27T06:22:55Z</time>
      </trkpt>
      <trkpt lat="43.43339" lon="1.61986">
        <ele>185.8</ele>
        <time>2023-05-27T06:22:56Z</time>
      </trkpt>
      <trkpt lat="43.43333" lon="1.61991">
        <ele>185.8</ele>
        <time>2023-05-27T06:22:57Z</time>
      </trkpt>
      <trkpt lat="43.43329" lon="1.61996">
        <ele>185.8</ele>
        <time>2023-05-27T06:22:58Z</time>
      </trkpt>
      <trkpt lat="43.43325" lon="1.62">
        <ele>185.8</ele>
        <time>2023-05-27T06:22:59Z</time>
      </trkpt>
      <trkpt lat="43.43323" lon="1.62003">
        <ele>185.8</ele>
        <time>2023-05-27T06:23:00Z</time>
      </trkpt>
      <trkpt lat="43.43319" lon="1.62006">
        <ele>185.8</ele>
        <time>2023-05-27T06:23:01Z</time>
      </trkpt>
      <trkpt lat="43.43316" lon="1.62009">
        <ele>185.8</ele>
        <time>2023-05-27T06:23:02Z</time>
      </trkpt>
      <trkpt lat="43.43311" lon="1.62012">
        <ele>185.8</ele>
        <time>2023-05-27T06:23:03Z</time>
      </trkpt>
      <trkpt lat="43.43307" lon="1.62017">
        <ele>185.8</ele>
        <time>2023-05-27T06:23:04Z</time>
      </trkpt>
      <trkpt lat="43.43304" lon="1.62021">
        <ele>185.6</ele>
        <time>2023-05-27T06:23:05Z</time>
      </trkpt>
      <trkpt lat="43.433" lon="1.62024">
        <ele>185.6</ele>
        <time>2023-05-27T06:23:06Z</time>
      </trkpt>
      <trkpt lat="43.43296" lon="1.62028">
        <ele>185.6</ele>
        <time>2023-05-27T06:23:07Z</time>
      </trkpt>
      <trkpt lat="43.43293" lon="1.62031">
        <ele>185.6</ele>
        <time>2023-05-27T06:23:08Z</time>
      </trkpt>
      <trkpt lat="43.4329" lon="1.62034">
        <ele>185.4</ele>
        <time>2023-05-27T06:23:09Z</time>
      </trkpt>
      <trkpt lat="43.43286" lon="1.62038">
        <ele>185.4</ele>
        <time>2023-05-27T06:23:10Z</time>
      </trkpt>
      <trkpt lat="43.43282" lon="1.62042">
        <ele>185.4</ele>
        <time>2023-05-27T06:23:11Z</time>
      </trkpt>
      <trkpt lat="43.43279" lon="1.62046">
        <ele>185.4</ele>
        <time>2023-05-27T06:23:12Z</time>
      </trkpt>
      <trkpt lat="43.43275" lon="1.62049">
        <ele>185.4</ele>
        <time>2023-05-27T06:23:13Z</time>
      </trkpt>
      <trkpt lat="43.43272" lon="1.62053">
        <ele>185.4</ele>
        <time>2023-05-27T06:23:14Z</time>
      </trkpt>
      <trkpt lat="43.43269" lon="1.62056">
        <ele>185.4</ele>
        <time>2023-05-27T06:23:15Z</time>
      </trkpt>
      <trkpt lat="43.43266" lon="1.62059">
        <ele>185.2</ele>
        <time>2023-05-27T06:23:16Z</time>
      </trkpt>
      <trkpt lat="43.43262" lon="1.62063">
        <ele>185.2</ele>
        <time>2023-05-27T06:23:17Z</time>
      </trkpt>
      <trkpt lat="43.43259" lon="1.62066">
        <ele>185.2</ele>
        <time>2023-05-27T06:23:18Z</time>
      </trkpt>
      <trkpt lat="43.43255" lon="1.62069">
        <ele>185.2</ele>
        <time>2023-05-27T06:23:19Z</time>
      </trkpt>
      <trkpt lat="43.43252" lon="1.62072">
        <ele>185.4</ele>
        <time>2023-05-27T06:23:20Z</time>
      </trkpt>
      <trkpt lat="43.43248" lon="1.62074">
        <ele>185.4</ele>
        <time>2023-05-27T06:23:21Z</time>
      </trkpt>
      <trkpt lat="43.43245" lon="1.62076">
        <ele>185.4</ele>
        <time>2023-05-27T06:23:22Z</time>
      </trkpt>
      <trkpt lat="43.43241" lon="1.62078">
        <ele>185.4</ele>
        <time>2023-05-27T06:23:23Z</time>
      </trkpt>
      <trkpt lat="43.43237" lon="1.62081">
        <ele>185.4</ele>
        <time>2023-05-27T06:23:24Z</time>
      </trkpt>
      <trkpt lat="43.43233" lon="1.62083">
        <ele>185.6</ele>
        <time>2023-05-27T06:23:25Z</time>
      </trkpt>
      <trkpt lat="43.43229" lon="1.62085">
        <ele>185.6</ele>
        <time>2023-05-27T06:23:26Z</time>
      </trkpt>
      <trkpt lat="43.43225" lon="1.62086">
        <ele>185.6</ele>
        <time>2023-05-27T06:23:27Z</time>
      </trkpt>
      <trkpt lat="43.43221" lon="1.62088">
        <ele>185.6</ele>
        <time>2023-05-27T06:23:28Z</time>
      </trkpt>
      <trkpt lat="43.43216" lon="1.6209">
        <ele>185.6</ele>
        <time>2023-05-27T06:23:29Z</time>
      </trkpt>
      <trkpt lat="43.43211" lon="1.62092">
        <ele>185.6</ele>
        <time>2023-05-27T06:23:30Z</time>
      </trkpt>
      <trkpt lat="43.43207" lon="1.62093">
        <ele>185.6</ele>
        <time>2023-05-27T06:23:31Z</time>
      </trkpt>
      <trkpt lat="43.43203" lon="1.62094">
        <ele>185.6</ele>
        <time>2023-05-27T06:23:32Z</time>
      </trkpt>
      <trkpt lat="43.43198" lon="1.62095">
        <ele>185.8</ele>
        <time>2023-05-27T06:23:33Z</time>
      </trkpt>
      <trkpt lat="43.43194" lon="1.62096">
        <ele>185.8</ele>
        <time>2023-05-27T06:23:34Z</time>
      </trkpt>
      <trkpt lat="43.43189" lon="1.62096">
        <ele>185.8</ele>
        <time>2023-05-27T06:23:35Z</time>
      </trkpt>
      <trkpt lat="43.43185" lon="1.62096">
        <ele>185.8</ele>
        <time>2023-05-27T06:23:36Z</time>
      </trkpt>
      <trkpt lat="43.43181" lon="1.62097">
        <ele>185.8</ele>
        <time>2023-05-27T06:23:37Z</time>
      </trkpt>
      <trkpt lat="43.43177" lon="1.62097">
        <ele>186</ele>
        <time>2023-05-27T06:23:38Z</time>
      </trkpt>
      <trkpt lat="43.43172" lon="1.62096">
        <ele>186</ele>
        <time>2023-05-27T06:23:39Z</time>
      </trkpt>
      <trkpt lat="43.43167" lon="1.62096">
        <ele>186</ele>
        <time>2023-05-27T06:23:40Z</time>
      </trkpt>
      <trkpt lat="43.43163" lon="1.62096">
        <ele>186</ele>
        <time>2023-05-27T06:23:41Z</time>
      </trkpt>
      <trkpt lat="43.43159" lon="1.62095">
        <ele>186</ele>
        <time>2023-05-27T06:23:42Z</time>
      </trkpt>
      <trkpt lat="43.43157" lon="1.62095">
        <ele>186</ele>
        <time>2023-05-27T06:23:43Z</time>
      </trkpt>
      <trkpt lat="43.43152" lon="1.62094">
        <ele>186</ele>
        <time>2023-05-27T06:23:44Z</time>
      </trkpt>
      <trkpt lat="43.43148" lon="1.62092">
        <ele>186</ele>
        <time>2023-05-27T06:23:45Z</time>
      </trkpt>
      <trkpt lat="43.43144" lon="1.62092">
        <ele>186.2</ele>
        <time>2023-05-27T06:23:46Z</time>
      </trkpt>
      <trkpt lat="43.43139" lon="1.62092">
        <ele>186.2</ele>
        <time>2023-05-27T06:23:47Z</time>
      </trkpt>
      <trkpt lat="43.43134" lon="1.6209">
        <ele>186.2</ele>
        <time>2023-05-27T06:23:48Z</time>
      </trkpt>
      <trkpt lat="43.43129" lon="1.6209">
        <ele>186.2</ele>
        <time>2023-05-27T06:23:49Z</time>
      </trkpt>
      <trkpt lat="43.43125" lon="1.62089">
        <ele>186.2</ele>
        <time>2023-05-27T06:23:50Z</time>
      </trkpt>
      <trkpt lat="43.43121" lon="1.62089">
        <ele>186.2</ele>
        <time>2023-05-27T06:23:51Z</time>
      </trkpt>
      <trkpt lat="43.43116" lon="1.62088">
        <ele>186.2</ele>
        <time>2023-05-27T06:23:52Z</time>
      </trkpt>
      <trkpt lat="43.43112" lon="1.62088">
        <ele>186.2</ele>
        <time>2023-05-27T06:23:53Z</time>
      </trkpt>
      <trkpt lat="43.43108" lon="1.62087">
        <ele>186.2</ele>
        <time>2023-05-27T06:23:54Z</time>
      </trkpt>
      <trkpt lat="43.43103" lon="1.62086">
        <ele>186.2</ele>
        <time>2023-05-27T06:23:55Z</time>
      </trkpt>
      <trkpt lat="43.43099" lon="1.62086">
        <ele>186.2</ele>
        <time>2023-05-27T06:23:56Z</time>
      </trkpt>
      <trkpt lat="43.43096" lon="1.62086">
        <ele>186.2</ele>
        <time>2023-05-27T06:23:57Z</time>
      </trkpt>
      <trkpt lat="43.43092" lon="1.62085">
        <ele>186.2</ele>
        <time>2023-05-27T06:23:58Z</time>
      </trkpt>
      <trkpt lat="43.43088" lon="1.62085">
        <ele>186.4</ele>
        <time>2023-05-27T06:23:59Z</time>
      </trkpt>
      <trkpt lat="43.43086" lon="1.62085">
        <ele>186.4</ele>
        <time>2023-05-27T06:24:00Z</time>
      </trkpt>
      <trkpt lat="43.43084" lon="1.62085">
        <ele>186.4</ele>
        <time>2023-05-27T06:24:01Z</time>
      </trkpt>
      <trkpt lat="43.43077" lon="1.62086">
        <ele>186.4</ele>
        <time>2023-05-27T06:24:02Z</time>
      </trkpt>
      <trkpt lat="43.43072" lon="1.62086">
        <ele>186.4</ele>
        <time>2023-05-27T06:24:03Z</time>
      </trkpt>
      <trkpt lat="43.43068" lon="1.62087">
        <ele>186.6</ele>
        <time>2023-05-27T06:24:04Z</time>
      </trkpt>
      <trkpt lat="43.43064" lon="1.62087">
        <ele>186.6</ele>
        <time>2023-05-27T06:24:05Z</time>
      </trkpt>
      <trkpt lat="43.43061" lon="1.62087">
        <ele>186.6</ele>
        <time>2023-05-27T06:24:06Z</time>
      </trkpt>
      <trkpt lat="43.43056" lon="1.62088">
        <ele>186.6</ele>
        <time>2023-05-27T06:24:07Z</time>
      </trkpt>
      <trkpt lat="43.43052" lon="1.62089">
        <ele>186.6</ele>
        <time>2023-05-27T06:24:08Z</time>
      </trkpt>
      <trkpt lat="43.43048" lon="1.62088">
        <ele>186.6</ele>
        <time>2023-05-27T06:24:09Z</time>
      </trkpt>
      <trkpt lat="43.43045" lon="1.62088">
        <ele>186.8</ele>
        <time>2023-05-27T06:24:10Z</time>
      </trkpt>
      <trkpt lat="43.43041" lon="1.62089">
        <ele>186.8</ele>
        <time>2023-05-27T06:24:11Z</time>
      </trkpt>
      <trkpt lat="43.43037" lon="1.6209">
        <ele>186.8</ele>
        <time>2023-05-27T06:24:12Z</time>
      </trkpt>
      <trkpt lat="43.43033" lon="1.62091">
        <ele>187</ele>
        <time>2023-05-27T06:24:13Z</time>
      </trkpt>
      <trkpt lat="43.43029" lon="1.62093">
        <ele>187</ele>
        <time>2023-05-27T06:24:14Z</time>
      </trkpt>
      <trkpt lat="43.43025" lon="1.62094">
        <ele>187</ele>
        <time>2023-05-27T06:24:15Z</time>
      </trkpt>
      <trkpt lat="43.43021" lon="1.62095">
        <ele>187</ele>
        <time>2023-05-27T06:24:16Z</time>
      </trkpt>
      <trkpt lat="43.43017" lon="1.62096">
        <ele>187</ele>
        <time>2023-05-27T06:24:17Z</time>
      </trkpt>
      <trkpt lat="43.43014" lon="1.62097">
        <ele>187.2</ele>
        <time>2023-05-27T06:24:18Z</time>
      </trkpt>
      <trkpt lat="43.4301" lon="1.62099">
        <ele>187.2</ele>
        <time>2023-05-27T06:24:19Z</time>
      </trkpt>
      <trkpt lat="43.43006" lon="1.621">
        <ele>187.2</ele>
        <time>2023-05-27T06:24:20Z</time>
      </trkpt>
      <trkpt lat="43.43003" lon="1.62103">
        <ele>187.2</ele>
        <time>2023-05-27T06:24:21Z</time>
      </trkpt>
      <trkpt lat="43.42999" lon="1.62105">
        <ele>187.2</ele>
        <time>2023-05-27T06:24:22Z</time>
      </trkpt>
      <trkpt lat="43.42995" lon="1.62107">
        <ele>187.2</ele>
        <time>2023-05-27T06:24:23Z</time>
      </trkpt>
      <trkpt lat="43.42992" lon="1.62109">
        <ele>187.4</ele>
        <time>2023-05-27T06:24:24Z</time>
      </trkpt>
      <trkpt lat="43.42989" lon="1.62111">
        <ele>187.4</ele>
        <time>2023-05-27T06:24:25Z</time>
      </trkpt>
      <trkpt lat="43.42987" lon="1.62112">
        <ele>187.4</ele>
        <time>2023-05-27T06:24:26Z</time>
      </trkpt>
      <trkpt lat="43.42984" lon="1.62114">
        <ele>187.4</ele>
        <time>2023-05-27T06:24:27Z</time>
      </trkpt>
      <trkpt lat="43.42982" lon="1.62117">
        <ele>187.4</ele>
        <time>2023-05-27T06:24:28Z</time>
      </trkpt>
      <trkpt lat="43.4298" lon="1.62121">
        <ele>187.4</ele>
        <time>2023-05-27T06:24:29Z</time>
      </trkpt>
      <trkpt lat="43.42977" lon="1.62124">
        <ele>187.4</ele>
        <time>2023-05-27T06:24:30Z</time>
      </trkpt>
      <trkpt lat="43.42974" lon="1.62127">
        <ele>187.4</ele>
        <time>2023-05-27T06:24:31Z</time>
      </trkpt>
      <trkpt lat="43.42972" lon="1.6213">
        <ele>187.4</ele>
        <time>2023-05-27T06:24:32Z</time>
      </trkpt>
      <trkpt lat="43.42969" lon="1.62133">
        <ele>187.4</ele>
        <time>2023-05-27T06:24:33Z</time>
      </trkpt>
      <trkpt lat="43.42967" lon="1.62137">
        <ele>187.4</ele>
        <time>2023-05-27T06:24:34Z</time>
      </trkpt>
      <trkpt lat="43.42964" lon="1.6214">
        <ele>187.4</ele>
        <time>2023-05-27T06:24:35Z</time>
      </trkpt>
      <trkpt lat="43.42962" lon="1.62144">
        <ele>187.4</ele>
        <time>2023-05-27T06:24:36Z</time>
      </trkpt>
      <trkpt lat="43.42958" lon="1.62147">
        <ele>187.4</ele>
        <time>2023-05-27T06:24:37Z</time>
      </trkpt>
      <trkpt lat="43.42955" lon="1.62151">
        <ele>187.4</ele>
        <time>2023-05-27T06:24:38Z</time>
      </trkpt>
      <trkpt lat="43.42953" lon="1.62156">
        <ele>187.4</ele>
        <time>2023-05-27T06:24:39Z</time>
      </trkpt>
      <trkpt lat="43.4295" lon="1.62159">
        <ele>187.6</ele>
        <time>2023-05-27T06:24:40Z</time>
      </trkpt>
      <trkpt lat="43.42946" lon="1.62164">
        <ele>187.6</ele>
        <time>2023-05-27T06:24:41Z</time>
      </trkpt>
      <trkpt lat="43.42943" lon="1.62169">
        <ele>187.6</ele>
        <time>2023-05-27T06:24:42Z</time>
      </trkpt>
      <trkpt lat="43.4294" lon="1.62172">
        <ele>187.6</ele>
        <time>2023-05-27T06:24:43Z</time>
      </trkpt>
      <trkpt lat="43.42938" lon="1.62176">
        <ele>187.6</ele>
        <time>2023-05-27T06:24:44Z</time>
      </trkpt>
      <trkpt lat="43.42937" lon="1.62179">
        <ele>187.6</ele>
        <time>2023-05-27T06:24:45Z</time>
      </trkpt>
      <trkpt lat="43.42934" lon="1.62183">
        <ele>187.6</ele>
        <time>2023-05-27T06:24:46Z</time>
      </trkpt>
      <trkpt lat="43.4293" lon="1.62187">
        <ele>187.6</ele>
        <time>2023-05-27T06:24:47Z</time>
      </trkpt>
      <trkpt lat="43.42927" lon="1.62192">
        <ele>187.6</ele>
        <time>2023-05-27T06:24:48Z</time>
      </trkpt>
      <trkpt lat="43.42925" lon="1.62196">
        <ele>187.6</ele>
        <time>2023-05-27T06:24:49Z</time>
      </trkpt>
      <trkpt lat="43.42921" lon="1.62201">
        <ele>187.6</ele>
        <time>2023-05-27T06:24:50Z</time>
      </trkpt>
      <trkpt lat="43.42917" lon="1.62205">
        <ele>187.8</ele>
        <time>2023-05-27T06:24:51Z</time>
      </trkpt>
      <trkpt lat="43.42914" lon="1.62211">
        <ele>187.8</ele>
        <time>2023-05-27T06:24:52Z</time>
      </trkpt>
      <trkpt lat="43.42912" lon="1.62214">
        <ele>187.8</ele>
        <time>2023-05-27T06:24:53Z</time>
      </trkpt>
      <trkpt lat="43.42909" lon="1.62217">
        <ele>187.8</ele>
        <time>2023-05-27T06:24:54Z</time>
      </trkpt>
      <trkpt lat="43.42907" lon="1.62221">
        <ele>187.8</ele>
        <time>2023-05-27T06:24:55Z</time>
      </trkpt>
      <trkpt lat="43.42906" lon="1.62225">
        <ele>187.8</ele>
        <time>2023-05-27T06:24:56Z</time>
      </trkpt>
      <trkpt lat="43.42904" lon="1.62229">
        <ele>187.8</ele>
        <time>2023-05-27T06:24:57Z</time>
      </trkpt>
      <trkpt lat="43.42903" lon="1.62231">
        <ele>187.8</ele>
        <time>2023-05-27T06:24:58Z</time>
      </trkpt>
      <trkpt lat="43.429" lon="1.62234">
        <ele>187.8</ele>
        <time>2023-05-27T06:24:59Z</time>
      </trkpt>
      <trkpt lat="43.42897" lon="1.62238">
        <ele>187.8</ele>
        <time>2023-05-27T06:25:00Z</time>
      </trkpt>
      <trkpt lat="43.42895" lon="1.62242">
        <ele>187.8</ele>
        <time>2023-05-27T06:25:01Z</time>
      </trkpt>
      <trkpt lat="43.42891" lon="1.62248">
        <ele>187.8</ele>
        <time>2023-05-27T06:25:02Z</time>
      </trkpt>
      <trkpt lat="43.42887" lon="1.62255">
        <ele>187.8</ele>
        <time>2023-05-27T06:25:03Z</time>
      </trkpt>
      <trkpt lat="43.42883" lon="1.6226">
        <ele>188</ele>
        <time>2023-05-27T06:25:04Z</time>
      </trkpt>
      <trkpt lat="43.42882" lon="1.62262">
        <ele>188</ele>
        <time>2023-05-27T06:25:05Z</time>
      </trkpt>
      <trkpt lat="43.4288" lon="1.62264">
        <ele>188</ele>
        <time>2023-05-27T06:25:06Z</time>
      </trkpt>
      <trkpt lat="43.42878" lon="1.62268">
        <ele>188.2</ele>
        <time>2023-05-27T06:25:07Z</time>
      </trkpt>
      <trkpt lat="43.42874" lon="1.62273">
        <ele>188.2</ele>
        <time>2023-05-27T06:25:08Z</time>
      </trkpt>
      <trkpt lat="43.42871" lon="1.62277">
        <ele>188.2</ele>
        <time>2023-05-27T06:25:09Z</time>
      </trkpt>
      <trkpt lat="43.42867" lon="1.62283">
        <ele>188.4</ele>
        <time>2023-05-27T06:25:10Z</time>
      </trkpt>
      <trkpt lat="43.42864" lon="1.62287">
        <ele>188.4</ele>
        <time>2023-05-27T06:25:11Z</time>
      </trkpt>
      <trkpt lat="43.42864" lon="1.6229">
        <ele>188.6</ele>
        <time>2023-05-27T06:25:12Z</time>
      </trkpt>
      <trkpt lat="43.42864" lon="1.62292">
        <ele>188.6</ele>
        <time>2023-05-27T06:25:13Z</time>
      </trkpt>
      <trkpt lat="43.42862" lon="1.62296">
        <ele>188.6</ele>
        <time>2023-05-27T06:25:14Z</time>
      </trkpt>
      <trkpt lat="43.42858" lon="1.62301">
        <ele>188.8</ele>
        <time>2023-05-27T06:25:15Z</time>
      </trkpt>
      <trkpt lat="43.42855" lon="1.62303">
        <ele>188.8</ele>
        <time>2023-05-27T06:25:16Z</time>
      </trkpt>
      <trkpt lat="43.42853" lon="1.62306">
        <ele>188.8</ele>
        <time>2023-05-27T06:25:17Z</time>
      </trkpt>
      <trkpt lat="43.42851" lon="1.62308">
        <ele>188.8</ele>
        <time>2023-05-27T06:25:18Z</time>
      </trkpt>
      <trkpt lat="43.42849" lon="1.62311">
        <ele>189</ele>
        <time>2023-05-27T06:25:19Z</time>
      </trkpt>
      <trkpt lat="43.42847" lon="1.62314">
        <ele>189</ele>
        <time>2023-05-27T06:25:20Z</time>
      </trkpt>
      <trkpt lat="43.42844" lon="1.62318">
        <ele>189</ele>
        <time>2023-05-27T06:25:21Z</time>
      </trkpt>
      <trkpt lat="43.42841" lon="1.62322">
        <ele>189</ele>
        <time>2023-05-27T06:25:22Z</time>
      </trkpt>
      <trkpt lat="43.42839" lon="1.62326">
        <ele>188.8</ele>
        <time>2023-05-27T06:25:23Z</time>
      </trkpt>
      <trkpt lat="43.42835" lon="1.6233">
        <ele>188.8</ele>
        <time>2023-05-27T06:25:24Z</time>
      </trkpt>
      <trkpt lat="43.42832" lon="1.62334">
        <ele>188.8</ele>
        <time>2023-05-27T06:25:25Z</time>
      </trkpt>
      <trkpt lat="43.42829" lon="1.62338">
        <ele>188.6</ele>
        <time>2023-05-27T06:25:26Z</time>
      </trkpt>
      <trkpt lat="43.42826" lon="1.62342">
        <ele>188.6</ele>
        <time>2023-05-27T06:25:27Z</time>
      </trkpt>
      <trkpt lat="43.42823" lon="1.62347">
        <ele>188.6</ele>
        <time>2023-05-27T06:25:28Z</time>
      </trkpt>
      <trkpt lat="43.4282" lon="1.62352">
        <ele>188.4</ele>
        <time>2023-05-27T06:25:29Z</time>
      </trkpt>
      <trkpt lat="43.42816" lon="1.62356">
        <ele>188.2</ele>
        <time>2023-05-27T06:25:30Z</time>
      </trkpt>
      <trkpt lat="43.4281" lon="1.62362">
        <ele>188.2</ele>
        <time>2023-05-27T06:25:31Z</time>
      </trkpt>
      <trkpt lat="43.42807" lon="1.62367">
        <ele>188.2</ele>
        <time>2023-05-27T06:25:32Z</time>
      </trkpt>
      <trkpt lat="43.42803" lon="1.62372">
        <ele>188</ele>
        <time>2023-05-27T06:25:33Z</time>
      </trkpt>
      <trkpt lat="43.42799" lon="1.62377">
        <ele>188</ele>
        <time>2023-05-27T06:25:34Z</time>
      </trkpt>
      <trkpt lat="43.42797" lon="1.62382">
        <ele>188</ele>
        <time>2023-05-27T06:25:35Z</time>
      </trkpt>
      <trkpt lat="43.42794" lon="1.62386">
        <ele>188</ele>
        <time>2023-05-27T06:25:36Z</time>
      </trkpt>
      <trkpt lat="43.42791" lon="1.62391">
        <ele>187.8</ele>
        <time>2023-05-27T06:25:37Z</time>
      </trkpt>
      <trkpt lat="43.4279" lon="1.62397">
        <ele>187.8</ele>
        <time>2023-05-27T06:25:38Z</time>
      </trkpt>
      <trkpt lat="43.42787" lon="1.62403">
        <ele>187.8</ele>
        <time>2023-05-27T06:25:39Z</time>
      </trkpt>
      <trkpt lat="43.42784" lon="1.62409">
        <ele>187.8</ele>
        <time>2023-05-27T06:25:40Z</time>
      </trkpt>
      <trkpt lat="43.42781" lon="1.62415">
        <ele>187.8</ele>
        <time>2023-05-27T06:25:41Z</time>
      </trkpt>
      <trkpt lat="43.42777" lon="1.62421">
        <ele>187.6</ele>
        <time>2023-05-27T06:25:42Z</time>
      </trkpt>
      <trkpt lat="43.42774" lon="1.62426">
        <ele>187.6</ele>
        <time>2023-05-27T06:25:43Z</time>
      </trkpt>
      <trkpt lat="43.42771" lon="1.6243">
        <ele>187.6</ele>
        <time>2023-05-27T06:25:44Z</time>
      </trkpt>
      <trkpt lat="43.42768" lon="1.62435">
        <ele>187.6</ele>
        <time>2023-05-27T06:25:45Z</time>
      </trkpt>
      <trkpt lat="43.42765" lon="1.6244">
        <ele>187.6</ele>
        <time>2023-05-27T06:25:46Z</time>
      </trkpt>
      <trkpt lat="43.42761" lon="1.62447">
        <ele>187.6</ele>
        <time>2023-05-27T06:25:47Z</time>
      </trkpt>
      <trkpt lat="43.42759" lon="1.62452">
        <ele>187.6</ele>
        <time>2023-05-27T06:25:48Z</time>
      </trkpt>
      <trkpt lat="43.42757" lon="1.62455">
        <ele>187.6</ele>
        <time>2023-05-27T06:25:49Z</time>
      </trkpt>
      <trkpt lat="43.42756" lon="1.6246">
        <ele>187.6</ele>
        <time>2023-05-27T06:25:50Z</time>
      </trkpt>
      <trkpt lat="43.42752" lon="1.62464">
        <ele>187.6</ele>
        <time>2023-05-27T06:25:51Z</time>
      </trkpt>
      <trkpt lat="43.4275" lon="1.6247">
        <ele>187.6</ele>
        <time>2023-05-27T06:25:52Z</time>
      </trkpt>
      <trkpt lat="43.42746" lon="1.62476">
        <ele>187.6</ele>
        <time>2023-05-27T06:25:53Z</time>
      </trkpt>
      <trkpt lat="43.42745" lon="1.62481">
        <ele>187.6</ele>
        <time>2023-05-27T06:25:54Z</time>
      </trkpt>
      <trkpt lat="43.42743" lon="1.62486">
        <ele>187.6</ele>
        <time>2023-05-27T06:25:55Z</time>
      </trkpt>
      <trkpt lat="43.42741" lon="1.62491">
        <ele>187.6</ele>
        <time>2023-05-27T06:25:56Z</time>
      </trkpt>
      <trkpt lat="43.42737" lon="1.62498">
        <ele>187.8</ele>
        <time>2023-05-27T06:25:57Z</time>
      </trkpt>
      <trkpt lat="43.42736" lon="1.62504">
        <ele>187.8</ele>
        <time>2023-05-27T06:25:58Z</time>
      </trkpt>
      <trkpt lat="43.42736" lon="1.62508">
        <ele>187.8</ele>
        <time>2023-05-27T06:25:59Z</time>
      </trkpt>
      <trkpt lat="43.42734" lon="1.62512">
        <ele>188</ele>
        <time>2023-05-27T06:26:00Z</time>
      </trkpt>
      <trkpt lat="43.42733" lon="1.62515">
        <ele>188</ele>
        <time>2023-05-27T06:26:01Z</time>
      </trkpt>
      <trkpt lat="43.4273" lon="1.62521">
        <ele>188.2</ele>
        <time>2023-05-27T06:26:02Z</time>
      </trkpt>
      <trkpt lat="43.42728" lon="1.62526">
        <ele>188.2</ele>
        <time>2023-05-27T06:26:03Z</time>
      </trkpt>
      <trkpt lat="43.42726" lon="1.62533">
        <ele>188.2</ele>
        <time>2023-05-27T06:26:04Z</time>
      </trkpt>
      <trkpt lat="43.42723" lon="1.62539">
        <ele>188.4</ele>
        <time>2023-05-27T06:26:05Z</time>
      </trkpt>
      <trkpt lat="43.4272" lon="1.62544">
        <ele>188.4</ele>
        <time>2023-05-27T06:26:06Z</time>
      </trkpt>
      <trkpt lat="43.42719" lon="1.6255">
        <ele>188.4</ele>
        <time>2023-05-27T06:26:07Z</time>
      </trkpt>
      <trkpt lat="43.42716" lon="1.62556">
        <ele>188.4</ele>
        <time>2023-05-27T06:26:08Z</time>
      </trkpt>
      <trkpt lat="43.42714" lon="1.62562">
        <ele>188.4</ele>
        <time>2023-05-27T06:26:09Z</time>
      </trkpt>
      <trkpt lat="43.42712" lon="1.62567">
        <ele>188.2</ele>
        <time>2023-05-27T06:26:10Z</time>
      </trkpt>
      <trkpt lat="43.42711" lon="1.62573">
        <ele>188</ele>
        <time>2023-05-27T06:26:11Z</time>
      </trkpt>
      <trkpt lat="43.42707" lon="1.6258">
        <ele>187.8</ele>
        <time>2023-05-27T06:26:12Z</time>
      </trkpt>
      <trkpt lat="43.42702" lon="1.62587">
        <ele>187.8</ele>
        <time>2023-05-27T06:26:13Z</time>
      </trkpt>
      <trkpt lat="43.42699" lon="1.62594">
        <ele>187.8</ele>
        <time>2023-05-27T06:26:14Z</time>
      </trkpt>
      <trkpt lat="43.42697" lon="1.62598">
        <ele>187.8</ele>
        <time>2023-05-27T06:26:15Z</time>
      </trkpt>
      <trkpt lat="43.42695" lon="1.62603">
        <ele>187.8</ele>
        <time>2023-05-27T06:26:16Z</time>
      </trkpt>
      <trkpt lat="43.42695" lon="1.62607">
        <ele>187.8</ele>
        <time>2023-05-27T06:26:17Z</time>
      </trkpt>
      <trkpt lat="43.42693" lon="1.62612">
        <ele>187.8</ele>
        <time>2023-05-27T06:26:18Z</time>
      </trkpt>
      <trkpt lat="43.42692" lon="1.62617">
        <ele>187.8</ele>
        <time>2023-05-27T06:26:19Z</time>
      </trkpt>
      <trkpt lat="43.4269" lon="1.62623">
        <ele>187.6</ele>
        <time>2023-05-27T06:26:20Z</time>
      </trkpt>
      <trkpt lat="43.42688" lon="1.6263">
        <ele>187.4</ele>
        <time>2023-05-27T06:26:21Z</time>
      </trkpt>
      <trkpt lat="43.42686" lon="1.62636">
        <ele>187.2</ele>
        <time>2023-05-27T06:26:22Z</time>
      </trkpt>
      <trkpt lat="43.42684" lon="1.62644">
        <ele>187</ele>
        <time>2023-05-27T06:26:23Z</time>
      </trkpt>
      <trkpt lat="43.42681" lon="1.62652">
        <ele>186.8</ele>
        <time>2023-05-27T06:26:24Z</time>
      </trkpt>
      <trkpt lat="43.42679" lon="1.62659">
        <ele>186.8</ele>
        <time>2023-05-27T06:26:25Z</time>
      </trkpt>
      <trkpt lat="43.42676" lon="1.62666">
        <ele>186.6</ele>
        <time>2023-05-27T06:26:26Z</time>
      </trkpt>
      <trkpt lat="43.42675" lon="1.62673">
        <ele>186.6</ele>
        <time>2023-05-27T06:26:27Z</time>
      </trkpt>
      <trkpt lat="43.42673" lon="1.62679">
        <ele>186.6</ele>
        <time>2023-05-27T06:26:28Z</time>
      </trkpt>
      <trkpt lat="43.42671" lon="1.62686">
        <ele>186.6</ele>
        <time>2023-05-27T06:26:29Z</time>
      </trkpt>
      <trkpt lat="43.42669" lon="1.62692">
        <ele>186.6</ele>
        <time>2023-05-27T06:26:30Z</time>
      </trkpt>
      <trkpt lat="43.42668" lon="1.62698">
        <ele>186.6</ele>
        <time>2023-05-27T06:26:31Z</time>
      </trkpt>
      <trkpt lat="43.42666" lon="1.62704">
        <ele>186.8</ele>
        <time>2023-05-27T06:26:32Z</time>
      </trkpt>
      <trkpt lat="43.42664" lon="1.62709">
        <ele>186.8</ele>
        <time>2023-05-27T06:26:33Z</time>
      </trkpt>
      <trkpt lat="43.42663" lon="1.62714">
        <ele>187</ele>
        <time>2023-05-27T06:26:34Z</time>
      </trkpt>
      <trkpt lat="43.42662" lon="1.62717">
        <ele>187.2</ele>
        <time>2023-05-27T06:26:35Z</time>
      </trkpt>
      <trkpt lat="43.42661" lon="1.6272">
        <ele>187.4</ele>
        <time>2023-05-27T06:26:36Z</time>
      </trkpt>
      <trkpt lat="43.42661" lon="1.62723">
        <ele>187.6</ele>
        <time>2023-05-27T06:26:37Z</time>
      </trkpt>
      <trkpt lat="43.42659" lon="1.62727">
        <ele>187.8</ele>
        <time>2023-05-27T06:26:38Z</time>
      </trkpt>
      <trkpt lat="43.42658" lon="1.6273">
        <ele>188</ele>
        <time>2023-05-27T06:26:39Z</time>
      </trkpt>
      <trkpt lat="43.42658" lon="1.62733">
        <ele>188</ele>
        <time>2023-05-27T06:26:40Z</time>
      </trkpt>
      <trkpt lat="43.42657" lon="1.62736">
        <ele>188.2</ele>
        <time>2023-05-27T06:26:41Z</time>
      </trkpt>
      <trkpt lat="43.42657" lon="1.6274">
        <ele>188.2</ele>
        <time>2023-05-27T06:26:42Z</time>
      </trkpt>
      <trkpt lat="43.42655" lon="1.62745">
        <ele>188.2</ele>
        <time>2023-05-27T06:26:43Z</time>
      </trkpt>
      <trkpt lat="43.42653" lon="1.62749">
        <ele>188.4</ele>
        <time>2023-05-27T06:26:44Z</time>
      </trkpt>
      <trkpt lat="43.42651" lon="1.62754">
        <ele>188.4</ele>
        <time>2023-05-27T06:26:45Z</time>
      </trkpt>
      <trkpt lat="43.4265" lon="1.62757">
        <ele>188.4</ele>
        <time>2023-05-27T06:26:46Z</time>
      </trkpt>
      <trkpt lat="43.42649" lon="1.62761">
        <ele>188.6</ele>
        <time>2023-05-27T06:26:47Z</time>
      </trkpt>
      <trkpt lat="43.42648" lon="1.62766">
        <ele>188.6</ele>
        <time>2023-05-27T06:26:48Z</time>
      </trkpt>
      <trkpt lat="43.42646" lon="1.62771">
        <ele>188.6</ele>
        <time>2023-05-27T06:26:49Z</time>
      </trkpt>
      <trkpt lat="43.42645" lon="1.62778">
        <ele>188.6</ele>
        <time>2023-05-27T06:26:50Z</time>
      </trkpt>
      <trkpt lat="43.42641" lon="1.62784">
        <ele>188.6</ele>
        <time>2023-05-27T06:26:51Z</time>
      </trkpt>
      <trkpt lat="43.42639" lon="1.62789">
        <ele>188.6</ele>
        <time>2023-05-27T06:26:52Z</time>
      </trkpt>
      <trkpt lat="43.42637" lon="1.62793">
        <ele>188.6</ele>
        <time>2023-05-27T06:26:53Z</time>
      </trkpt>
      <trkpt lat="43.42636" lon="1.62798">
        <ele>188.6</ele>
        <time>2023-05-27T06:26:54Z</time>
      </trkpt>
      <trkpt lat="43.42635" lon="1.62803">
        <ele>188.8</ele>
        <time>2023-05-27T06:26:55Z</time>
      </trkpt>
      <trkpt lat="43.42635" lon="1.62809">
        <ele>188.8</ele>
        <time>2023-05-27T06:26:56Z</time>
      </trkpt>
      <trkpt lat="43.42634" lon="1.62813">
        <ele>188.8</ele>
        <time>2023-05-27T06:26:57Z</time>
      </trkpt>
      <trkpt lat="43.42632" lon="1.62818">
        <ele>188.8</ele>
        <time>2023-05-27T06:26:58Z</time>
      </trkpt>
      <trkpt lat="43.42628" lon="1.62825">
        <ele>188.8</ele>
        <time>2023-05-27T06:26:59Z</time>
      </trkpt>
      <trkpt lat="43.42625" lon="1.62832">
        <ele>188.8</ele>
        <time>2023-05-27T06:27:00Z</time>
      </trkpt>
      <trkpt lat="43.42624" lon="1.62838">
        <ele>188.8</ele>
        <time>2023-05-27T06:27:01Z</time>
      </trkpt>
      <trkpt lat="43.42623" lon="1.62843">
        <ele>188.8</ele>
        <time>2023-05-27T06:27:02Z</time>
      </trkpt>
      <trkpt lat="43.42621" lon="1.62848">
        <ele>188.6</ele>
        <time>2023-05-27T06:27:03Z</time>
      </trkpt>
      <trkpt lat="43.42619" lon="1.62855">
        <ele>188.2</ele>
        <time>2023-05-27T06:27:04Z</time>
      </trkpt>
      <trkpt lat="43.42618" lon="1.62864">
        <ele>188</ele>
        <time>2023-05-27T06:27:05Z</time>
      </trkpt>
      <trkpt lat="43.42617" lon="1.62872">
        <ele>187.8</ele>
        <time>2023-05-27T06:27:06Z</time>
      </trkpt>
      <trkpt lat="43.42616" lon="1.62881">
        <ele>187.6</ele>
        <time>2023-05-27T06:27:07Z</time>
      </trkpt>
      <trkpt lat="43.42611" lon="1.62891">
        <ele>187.6</ele>
        <time>2023-05-27T06:27:08Z</time>
      </trkpt>
      <trkpt lat="43.4261" lon="1.62898">
        <ele>187.8</ele>
        <time>2023-05-27T06:27:09Z</time>
      </trkpt>
      <trkpt lat="43.42609" lon="1.62903">
        <ele>188</ele>
        <time>2023-05-27T06:27:10Z</time>
      </trkpt>
      <trkpt lat="43.42609" lon="1.62908">
        <ele>188.2</ele>
        <time>2023-05-27T06:27:11Z</time>
      </trkpt>
      <trkpt lat="43.42609" lon="1.62911">
        <ele>188.2</ele>
        <time>2023-05-27T06:27:12Z</time>
      </trkpt>
      <trkpt lat="43.42609" lon="1.62915">
        <ele>188.4</ele>
        <time>2023-05-27T06:27:13Z</time>
      </trkpt>
      <trkpt lat="43.42609" lon="1.62919">
        <ele>188.4</ele>
        <time>2023-05-27T06:27:14Z</time>
      </trkpt>
      <trkpt lat="43.4261" lon="1.62924">
        <ele>188.4</ele>
        <time>2023-05-27T06:27:15Z</time>
      </trkpt>
      <trkpt lat="43.4261" lon="1.62932">
        <ele>188.4</ele>
        <time>2023-05-27T06:27:16Z</time>
      </trkpt>
      <trkpt lat="43.4261" lon="1.62942">
        <ele>188.4</ele>
        <time>2023-05-27T06:27:17Z</time>
      </trkpt>
      <trkpt lat="43.42611" lon="1.62949">
        <ele>188.2</ele>
        <time>2023-05-27T06:27:18Z</time>
      </trkpt>
      <trkpt lat="43.42612" lon="1.62955">
        <ele>188.2</ele>
        <time>2023-05-27T06:27:19Z</time>
      </trkpt>
      <trkpt lat="43.42613" lon="1.6296">
        <ele>188.2</ele>
        <time>2023-05-27T06:27:20Z</time>
      </trkpt>
      <trkpt lat="43.42614" lon="1.62964">
        <ele>188.2</ele>
        <time>2023-05-27T06:27:21Z</time>
      </trkpt>
      <trkpt lat="43.42615" lon="1.62969">
        <ele>188</ele>
        <time>2023-05-27T06:27:22Z</time>
      </trkpt>
      <trkpt lat="43.42615" lon="1.62975">
        <ele>188</ele>
        <time>2023-05-27T06:27:23Z</time>
      </trkpt>
      <trkpt lat="43.42617" lon="1.62979">
        <ele>188</ele>
        <time>2023-05-27T06:27:24Z</time>
      </trkpt>
      <trkpt lat="43.42617" lon="1.62986">
        <ele>188</ele>
        <time>2023-05-27T06:27:25Z</time>
      </trkpt>
      <trkpt lat="43.42618" lon="1.62993">
        <ele>188</ele>
        <time>2023-05-27T06:27:26Z</time>
      </trkpt>
      <trkpt lat="43.4262" lon="1.62999">
        <ele>188</ele>
        <time>2023-05-27T06:27:27Z</time>
      </trkpt>
      <trkpt lat="43.42622" lon="1.63006">
        <ele>188</ele>
        <time>2023-05-27T06:27:28Z</time>
      </trkpt>
      <trkpt lat="43.42623" lon="1.63013">
        <ele>188</ele>
        <time>2023-05-27T06:27:29Z</time>
      </trkpt>
      <trkpt lat="43.42624" lon="1.63019">
        <ele>188</ele>
        <time>2023-05-27T06:27:30Z</time>
      </trkpt>
      <trkpt lat="43.42626" lon="1.63024">
        <ele>188</ele>
        <time>2023-05-27T06:27:31Z</time>
      </trkpt>
      <trkpt lat="43.42628" lon="1.63029">
        <ele>188.2</ele>
        <time>2023-05-27T06:27:32Z</time>
      </trkpt>
      <trkpt lat="43.42629" lon="1.63033">
        <ele>188.2</ele>
        <time>2023-05-27T06:27:33Z</time>
      </trkpt>
      <trkpt lat="43.42631" lon="1.63036">
        <ele>188.2</ele>
        <time>2023-05-27T06:27:34Z</time>
      </trkpt>
      <trkpt lat="43.42631" lon="1.63039">
        <ele>188.2</ele>
        <time>2023-05-27T06:27:35Z</time>
      </trkpt>
      <trkpt lat="43.42633" lon="1.63043">
        <ele>188.2</ele>
        <time>2023-05-27T06:27:36Z</time>
      </trkpt>
      <trkpt lat="43.42634" lon="1.63048">
        <ele>188.2</ele>
        <time>2023-05-27T06:27:37Z</time>
      </trkpt>
      <trkpt lat="43.42635" lon="1.63052">
        <ele>188.2</ele>
        <time>2023-05-27T06:27:38Z</time>
      </trkpt>
      <trkpt lat="43.42637" lon="1.63056">
        <ele>188.2</ele>
        <time>2023-05-27T06:27:39Z</time>
      </trkpt>
      <trkpt lat="43.42638" lon="1.63061">
        <ele>188.2</ele>
        <time>2023-05-27T06:27:40Z</time>
      </trkpt>
      <trkpt lat="43.4264" lon="1.63065">
        <ele>188</ele>
        <time>2023-05-27T06:27:41Z</time>
      </trkpt>
      <trkpt lat="43.42642" lon="1.63069">
        <ele>188</ele>
        <time>2023-05-27T06:27:42Z</time>
      </trkpt>
      <trkpt lat="43.42644" lon="1.63073">
        <ele>188</ele>
        <time>2023-05-27T06:27:43Z</time>
      </trkpt>
      <trkpt lat="43.42646" lon="1.63076">
        <ele>188</ele>
        <time>2023-05-27T06:27:44Z</time>
      </trkpt>
      <trkpt lat="43.42647" lon="1.63081">
        <ele>187.8</ele>
        <time>2023-05-27T06:27:45Z</time>
      </trkpt>
      <trkpt lat="43.42649" lon="1.63085">
        <ele>187.8</ele>
        <time>2023-05-27T06:27:46Z</time>
      </trkpt>
      <trkpt lat="43.42651" lon="1.6309">
        <ele>187.8</ele>
        <time>2023-05-27T06:27:47Z</time>
      </trkpt>
      <trkpt lat="43.42653" lon="1.63097">
        <ele>187.6</ele>
        <time>2023-05-27T06:27:48Z</time>
      </trkpt>
      <trkpt lat="43.42656" lon="1.63102">
        <ele>187.6</ele>
        <time>2023-05-27T06:27:49Z</time>
      </trkpt>
      <trkpt lat="43.4266" lon="1.63108">
        <ele>187.6</ele>
        <time>2023-05-27T06:27:50Z</time>
      </trkpt>
      <trkpt lat="43.42663" lon="1.63114">
        <ele>187.6</ele>
        <time>2023-05-27T06:27:51Z</time>
      </trkpt>
      <trkpt lat="43.42665" lon="1.63119">
        <ele>187.6</ele>
        <time>2023-05-27T06:27:52Z</time>
      </trkpt>
      <trkpt lat="43.42668" lon="1.63124">
        <ele>187.6</ele>
        <time>2023-05-27T06:27:53Z</time>
      </trkpt>
      <trkpt lat="43.42671" lon="1.63128">
        <ele>187.8</ele>
        <time>2023-05-27T06:27:54Z</time>
      </trkpt>
      <trkpt lat="43.42673" lon="1.63132">
        <ele>187.8</ele>
        <time>2023-05-27T06:27:55Z</time>
      </trkpt>
      <trkpt lat="43.42675" lon="1.63136">
        <ele>187.8</ele>
        <time>2023-05-27T06:27:56Z</time>
      </trkpt>
      <trkpt lat="43.42677" lon="1.63141">
        <ele>188</ele>
        <time>2023-05-27T06:27:57Z</time>
      </trkpt>
      <trkpt lat="43.42679" lon="1.63145">
        <ele>188</ele>
        <time>2023-05-27T06:27:58Z</time>
      </trkpt>
      <trkpt lat="43.42682" lon="1.6315">
        <ele>188.2</ele>
        <time>2023-05-27T06:27:59Z</time>
      </trkpt>
      <trkpt lat="43.42685" lon="1.63156">
        <ele>188.2</ele>
        <time>2023-05-27T06:28:00Z</time>
      </trkpt>
      <trkpt lat="43.42689" lon="1.63162">
        <ele>188.2</ele>
        <time>2023-05-27T06:28:01Z</time>
      </trkpt>
      <trkpt lat="43.42693" lon="1.63169">
        <ele>188.4</ele>
        <time>2023-05-27T06:28:02Z</time>
      </trkpt>
      <trkpt lat="43.42696" lon="1.63176">
        <ele>188.4</ele>
        <time>2023-05-27T06:28:03Z</time>
      </trkpt>
      <trkpt lat="43.427" lon="1.63182">
        <ele>188.4</ele>
        <time>2023-05-27T06:28:04Z</time>
      </trkpt>
      <trkpt lat="43.42702" lon="1.6319">
        <ele>188.4</ele>
        <time>2023-05-27T06:28:05Z</time>
      </trkpt>
      <trkpt lat="43.42705" lon="1.63198">
        <ele>188.6</ele>
        <time>2023-05-27T06:28:06Z</time>
      </trkpt>
      <trkpt lat="43.42708" lon="1.63207">
        <ele>188.6</ele>
        <time>2023-05-27T06:28:07Z</time>
      </trkpt>
      <trkpt lat="43.42711" lon="1.63214">
        <ele>188.6</ele>
        <time>2023-05-27T06:28:08Z</time>
      </trkpt>
      <trkpt lat="43.42713" lon="1.63221">
        <ele>188.4</ele>
        <time>2023-05-27T06:28:09Z</time>
      </trkpt>
      <trkpt lat="43.42715" lon="1.63228">
        <ele>188.4</ele>
        <time>2023-05-27T06:28:10Z</time>
      </trkpt>
      <trkpt lat="43.42717" lon="1.63235">
        <ele>188.4</ele>
        <time>2023-05-27T06:28:11Z</time>
      </trkpt>
      <trkpt lat="43.4272" lon="1.63241">
        <ele>188.2</ele>
        <time>2023-05-27T06:28:12Z</time>
      </trkpt>
      <trkpt lat="43.42723" lon="1.63248">
        <ele>188.2</ele>
        <time>2023-05-27T06:28:13Z</time>
      </trkpt>
      <trkpt lat="43.42724" lon="1.63255">
        <ele>188.2</ele>
        <time>2023-05-27T06:28:14Z</time>
      </trkpt>
      <trkpt lat="43.42724" lon="1.63263">
        <ele>188.2</ele>
        <time>2023-05-27T06:28:15Z</time>
      </trkpt>
      <trkpt lat="43.42722" lon="1.63269">
        <ele>188</ele>
        <time>2023-05-27T06:28:16Z</time>
      </trkpt>
      <trkpt lat="43.42721" lon="1.63277">
        <ele>188</ele>
        <time>2023-05-27T06:28:17Z</time>
      </trkpt>
      <trkpt lat="43.42719" lon="1.63285">
        <ele>188</ele>
        <time>2023-05-27T06:28:18Z</time>
      </trkpt>
      <trkpt lat="43.42717" lon="1.63293">
        <ele>188</ele>
        <time>2023-05-27T06:28:19Z</time>
      </trkpt>
      <trkpt lat="43.42716" lon="1.63298">
        <ele>188</ele>
        <time>2023-05-27T06:28:20Z</time>
      </trkpt>
      <trkpt lat="43.42714" lon="1.63304">
        <ele>188</ele>
        <time>2023-05-27T06:28:21Z</time>
      </trkpt>
      <trkpt lat="43.42714" lon="1.63311">
        <ele>188</ele>
        <time>2023-05-27T06:28:22Z</time>
      </trkpt>
      <trkpt lat="43.42715" lon="1.63318">
        <ele>188</ele>
        <time>2023-05-27T06:28:23Z</time>
      </trkpt>
      <trkpt lat="43.42713" lon="1.63324">
        <ele>188</ele>
        <time>2023-05-27T06:28:24Z</time>
      </trkpt>
      <trkpt lat="43.42711" lon="1.63331">
        <ele>188.2</ele>
        <time>2023-05-27T06:28:25Z</time>
      </trkpt>
      <trkpt lat="43.42709" lon="1.63335">
        <ele>188</ele>
        <time>2023-05-27T06:28:26Z</time>
      </trkpt>
      <trkpt lat="43.42707" lon="1.63339">
        <ele>188</ele>
        <time>2023-05-27T06:28:27Z</time>
      </trkpt>
      <trkpt lat="43.42706" lon="1.63344">
        <ele>188</ele>
        <time>2023-05-27T06:28:28Z</time>
      </trkpt>
      <trkpt lat="43.42705" lon="1.63348">
        <ele>188</ele>
        <time>2023-05-27T06:28:29Z</time>
      </trkpt>
      <trkpt lat="43.42703" lon="1.63354">
        <ele>188</ele>
        <time>2023-05-27T06:28:30Z</time>
      </trkpt>
      <trkpt lat="43.42701" lon="1.63359">
        <ele>188</ele>
        <time>2023-05-27T06:28:31Z</time>
      </trkpt>
      <trkpt lat="43.42698" lon="1.63365">
        <ele>188</ele>
        <time>2023-05-27T06:28:32Z</time>
      </trkpt>
      <trkpt lat="43.42696" lon="1.63369">
        <ele>188</ele>
        <time>2023-05-27T06:28:33Z</time>
      </trkpt>
      <trkpt lat="43.42694" lon="1.63372">
        <ele>187.8</ele>
        <time>2023-05-27T06:28:34Z</time>
      </trkpt>
      <trkpt lat="43.42691" lon="1.63376">
        <ele>187.8</ele>
        <time>2023-05-27T06:28:35Z</time>
      </trkpt>
      <trkpt lat="43.42686" lon="1.63382">
        <ele>187.8</ele>
        <time>2023-05-27T06:28:36Z</time>
      </trkpt>
      <trkpt lat="43.42682" lon="1.63387">
        <ele>187.8</ele>
        <time>2023-05-27T06:28:37Z</time>
      </trkpt>
      <trkpt lat="43.42678" lon="1.63391">
        <ele>187.8</ele>
        <time>2023-05-27T06:28:38Z</time>
      </trkpt>
      <trkpt lat="43.42674" lon="1.63396">
        <ele>187.6</ele>
        <time>2023-05-27T06:28:39Z</time>
      </trkpt>
      <trkpt lat="43.42667" lon="1.634">
        <ele>187.6</ele>
        <time>2023-05-27T06:28:40Z</time>
      </trkpt>
      <trkpt lat="43.42662" lon="1.63405">
        <ele>187.6</ele>
        <time>2023-05-27T06:28:41Z</time>
      </trkpt>
      <trkpt lat="43.42657" lon="1.63409">
        <ele>187.8</ele>
        <time>2023-05-27T06:28:42Z</time>
      </trkpt>
      <trkpt lat="43.42653" lon="1.63413">
        <ele>187.8</ele>
        <time>2023-05-27T06:28:43Z</time>
      </trkpt>
      <trkpt lat="43.42648" lon="1.63417">
        <ele>187.6</ele>
        <time>2023-05-27T06:28:44Z</time>
      </trkpt>
      <trkpt lat="43.42642" lon="1.6342">
        <ele>187.6</ele>
        <time>2023-05-27T06:28:45Z</time>
      </trkpt>
      <trkpt lat="43.42637" lon="1.63423">
        <ele>187.8</ele>
        <time>2023-05-27T06:28:46Z</time>
      </trkpt>
      <trkpt lat="43.42633" lon="1.63423">
        <ele>187.8</ele>
        <time>2023-05-27T06:28:47Z</time>
      </trkpt>
      <trkpt lat="43.42628" lon="1.63423">
        <ele>187.8</ele>
        <time>2023-05-27T06:28:48Z</time>
      </trkpt>
      <trkpt lat="43.42623" lon="1.63423">
        <ele>187.8</ele>
        <time>2023-05-27T06:28:49Z</time>
      </trkpt>
      <trkpt lat="43.4262" lon="1.63421">
        <ele>187.8</ele>
        <time>2023-05-27T06:28:50Z</time>
      </trkpt>
      <trkpt lat="43.42616" lon="1.63421">
        <ele>188</ele>
        <time>2023-05-27T06:28:51Z</time>
      </trkpt>
      <trkpt lat="43.42612" lon="1.6342">
        <ele>188</ele>
        <time>2023-05-27T06:28:52Z</time>
      </trkpt>
      <trkpt lat="43.42608" lon="1.6342">
        <ele>188</ele>
        <time>2023-05-27T06:28:53Z</time>
      </trkpt>
      <trkpt lat="43.42604" lon="1.63419">
        <ele>188</ele>
        <time>2023-05-27T06:28:54Z</time>
      </trkpt>
      <trkpt lat="43.42599" lon="1.63418">
        <ele>188</ele>
        <time>2023-05-27T06:28:55Z</time>
      </trkpt>
      <trkpt lat="43.42596" lon="1.63417">
        <ele>188</ele>
        <time>2023-05-27T06:28:56Z</time>
      </trkpt>
      <trkpt lat="43.42592" lon="1.63416">
        <ele>188</ele>
        <time>2023-05-27T06:28:57Z</time>
      </trkpt>
      <trkpt lat="43.42587" lon="1.63414">
        <ele>188</ele>
        <time>2023-05-27T06:28:58Z</time>
      </trkpt>
      <trkpt lat="43.42582" lon="1.63413">
        <ele>187.8</ele>
        <time>2023-05-27T06:28:59Z</time>
      </trkpt>
      <trkpt lat="43.42577" lon="1.63411">
        <ele>187.6</ele>
        <time>2023-05-27T06:29:00Z</time>
      </trkpt>
      <trkpt lat="43.42571" lon="1.6341">
        <ele>187.4</ele>
        <time>2023-05-27T06:29:01Z</time>
      </trkpt>
      <trkpt lat="43.42565" lon="1.63409">
        <ele>187.4</ele>
        <time>2023-05-27T06:29:02Z</time>
      </trkpt>
      <trkpt lat="43.42559" lon="1.6341">
        <ele>187.4</ele>
        <time>2023-05-27T06:29:03Z</time>
      </trkpt>
      <trkpt lat="43.42554" lon="1.63411">
        <ele>187.6</ele>
        <time>2023-05-27T06:29:04Z</time>
      </trkpt>
      <trkpt lat="43.4255" lon="1.63412">
        <ele>187.6</ele>
        <time>2023-05-27T06:29:05Z</time>
      </trkpt>
      <trkpt lat="43.42546" lon="1.63414">
        <ele>187.8</ele>
        <time>2023-05-27T06:29:06Z</time>
      </trkpt>
      <trkpt lat="43.42543" lon="1.63416">
        <ele>188</ele>
        <time>2023-05-27T06:29:07Z</time>
      </trkpt>
      <trkpt lat="43.4254" lon="1.63419">
        <ele>188</ele>
        <time>2023-05-27T06:29:08Z</time>
      </trkpt>
      <trkpt lat="43.42537" lon="1.63421">
        <ele>188.2</ele>
        <time>2023-05-27T06:29:09Z</time>
      </trkpt>
      <trkpt lat="43.42534" lon="1.63424">
        <ele>188.4</ele>
        <time>2023-05-27T06:29:10Z</time>
      </trkpt>
      <trkpt lat="43.42532" lon="1.63427">
        <ele>188.4</ele>
        <time>2023-05-27T06:29:11Z</time>
      </trkpt>
      <trkpt lat="43.4253" lon="1.63429">
        <ele>188.6</ele>
        <time>2023-05-27T06:29:12Z</time>
      </trkpt>
      <trkpt lat="43.42529" lon="1.63432">
        <ele>188.6</ele>
        <time>2023-05-27T06:29:13Z</time>
      </trkpt>
      <trkpt lat="43.42527" lon="1.63434">
        <ele>188.8</ele>
        <time>2023-05-27T06:29:14Z</time>
      </trkpt>
      <trkpt lat="43.42526" lon="1.63437">
        <ele>188.8</ele>
        <time>2023-05-27T06:29:15Z</time>
      </trkpt>
      <trkpt lat="43.42524" lon="1.63439">
        <ele>189</ele>
        <time>2023-05-27T06:29:16Z</time>
      </trkpt>
      <trkpt lat="43.42522" lon="1.63442">
        <ele>189</ele>
        <time>2023-05-27T06:29:17Z</time>
      </trkpt>
      <trkpt lat="43.4252" lon="1.63445">
        <ele>189</ele>
        <time>2023-05-27T06:29:18Z</time>
      </trkpt>
      <trkpt lat="43.42518" lon="1.63448">
        <ele>189</ele>
        <time>2023-05-27T06:29:19Z</time>
      </trkpt>
      <trkpt lat="43.42516" lon="1.63453">
        <ele>189</ele>
        <time>2023-05-27T06:29:20Z</time>
      </trkpt>
      <trkpt lat="43.42513" lon="1.63458">
        <ele>189</ele>
        <time>2023-05-27T06:29:21Z</time>
      </trkpt>
      <trkpt lat="43.4251" lon="1.63462">
        <ele>189</ele>
        <time>2023-05-27T06:29:22Z</time>
      </trkpt>
      <trkpt lat="43.42506" lon="1.63467">
        <ele>189</ele>
        <time>2023-05-27T06:29:23Z</time>
      </trkpt>
      <trkpt lat="43.42504" lon="1.63472">
        <ele>189</ele>
        <time>2023-05-27T06:29:24Z</time>
      </trkpt>
      <trkpt lat="43.42502" lon="1.63476">
        <ele>188.8</ele>
        <time>2023-05-27T06:29:25Z</time>
      </trkpt>
      <trkpt lat="43.425" lon="1.6348">
        <ele>188.8</ele>
        <time>2023-05-27T06:29:26Z</time>
      </trkpt>
      <trkpt lat="43.42497" lon="1.63485">
        <ele>188.8</ele>
        <time>2023-05-27T06:29:27Z</time>
      </trkpt>
      <trkpt lat="43.42496" lon="1.6349">
        <ele>188.8</ele>
        <time>2023-05-27T06:29:28Z</time>
      </trkpt>
      <trkpt lat="43.42493" lon="1.63494">
        <ele>188.8</ele>
        <time>2023-05-27T06:29:29Z</time>
      </trkpt>
      <trkpt lat="43.42491" lon="1.63499">
        <ele>188.6</ele>
        <time>2023-05-27T06:29:30Z</time>
      </trkpt>
      <trkpt lat="43.42488" lon="1.63504">
        <ele>188.6</ele>
        <time>2023-05-27T06:29:31Z</time>
      </trkpt>
      <trkpt lat="43.42484" lon="1.6351">
        <ele>188.6</ele>
        <time>2023-05-27T06:29:32Z</time>
      </trkpt>
      <trkpt lat="43.4248" lon="1.63515">
        <ele>188.6</ele>
        <time>2023-05-27T06:29:33Z</time>
      </trkpt>
      <trkpt lat="43.42477" lon="1.6352">
        <ele>188.6</ele>
        <time>2023-05-27T06:29:34Z</time>
      </trkpt>
      <trkpt lat="43.42474" lon="1.63525">
        <ele>188.6</ele>
        <time>2023-05-27T06:29:35Z</time>
      </trkpt>
      <trkpt lat="43.4247" lon="1.63531">
        <ele>188.4</ele>
        <time>2023-05-27T06:29:36Z</time>
      </trkpt>
      <trkpt lat="43.42466" lon="1.63536">
        <ele>188.4</ele>
        <time>2023-05-27T06:29:37Z</time>
      </trkpt>
      <trkpt lat="43.42463" lon="1.63541">
        <ele>188.4</ele>
        <time>2023-05-27T06:29:38Z</time>
      </trkpt>
      <trkpt lat="43.42459" lon="1.63546">
        <ele>188.4</ele>
        <time>2023-05-27T06:29:39Z</time>
      </trkpt>
      <trkpt lat="43.42455" lon="1.63551">
        <ele>188.4</ele>
        <time>2023-05-27T06:29:40Z</time>
      </trkpt>
      <trkpt lat="43.42452" lon="1.63556">
        <ele>188.4</ele>
        <time>2023-05-27T06:29:41Z</time>
      </trkpt>
      <trkpt lat="43.42449" lon="1.63562">
        <ele>188.4</ele>
        <time>2023-05-27T06:29:42Z</time>
      </trkpt>
      <trkpt lat="43.42445" lon="1.63567">
        <ele>188.4</ele>
        <time>2023-05-27T06:29:43Z</time>
      </trkpt>
      <trkpt lat="43.42442" lon="1.63572">
        <ele>188.4</ele>
        <time>2023-05-27T06:29:44Z</time>
      </trkpt>
      <trkpt lat="43.42439" lon="1.63576">
        <ele>188.4</ele>
        <time>2023-05-27T06:29:45Z</time>
      </trkpt>
      <trkpt lat="43.42437" lon="1.63581">
        <ele>188.4</ele>
        <time>2023-05-27T06:29:46Z</time>
      </trkpt>
      <trkpt lat="43.42434" lon="1.63585">
        <ele>188.4</ele>
        <time>2023-05-27T06:29:47Z</time>
      </trkpt>
      <trkpt lat="43.42432" lon="1.6359">
        <ele>188.4</ele>
        <time>2023-05-27T06:29:48Z</time>
      </trkpt>
      <trkpt lat="43.4243" lon="1.63594">
        <ele>188.4</ele>
        <time>2023-05-27T06:29:49Z</time>
      </trkpt>
      <trkpt lat="43.42428" lon="1.63597">
        <ele>188.6</ele>
        <time>2023-05-27T06:29:50Z</time>
      </trkpt>
      <trkpt lat="43.42425" lon="1.63601">
        <ele>188.6</ele>
        <time>2023-05-27T06:29:51Z</time>
      </trkpt>
      <trkpt lat="43.42422" lon="1.63605">
        <ele>188.6</ele>
        <time>2023-05-27T06:29:52Z</time>
      </trkpt>
      <trkpt lat="43.4242" lon="1.63609">
        <ele>188.6</ele>
        <time>2023-05-27T06:29:53Z</time>
      </trkpt>
      <trkpt lat="43.42418" lon="1.63612">
        <ele>188.6</ele>
        <time>2023-05-27T06:29:54Z</time>
      </trkpt>
      <trkpt lat="43.42415" lon="1.63616">
        <ele>188.8</ele>
        <time>2023-05-27T06:29:55Z</time>
      </trkpt>
      <trkpt lat="43.42413" lon="1.6362">
        <ele>188.8</ele>
        <time>2023-05-27T06:29:56Z</time>
      </trkpt>
      <trkpt lat="43.4241" lon="1.63623">
        <ele>188.8</ele>
        <time>2023-05-27T06:29:57Z</time>
      </trkpt>
      <trkpt lat="43.42407" lon="1.63628">
        <ele>188.8</ele>
        <time>2023-05-27T06:29:58Z</time>
      </trkpt>
      <trkpt lat="43.42405" lon="1.63632">
        <ele>188.8</ele>
        <time>2023-05-27T06:29:59Z</time>
      </trkpt>
      <trkpt lat="43.42402" lon="1.63637">
        <ele>188.8</ele>
        <time>2023-05-27T06:30:00Z</time>
      </trkpt>
      <trkpt lat="43.42399" lon="1.63642">
        <ele>188.8</ele>
        <time>2023-05-27T06:30:01Z</time>
      </trkpt>
      <trkpt lat="43.42395" lon="1.63646">
        <ele>188.8</ele>
        <time>2023-05-27T06:30:02Z</time>
      </trkpt>
      <trkpt lat="43.42393" lon="1.63651">
        <ele>188.8</ele>
        <time>2023-05-27T06:30:03Z</time>
      </trkpt>
      <trkpt lat="43.42389" lon="1.63655">
        <ele>188.8</ele>
        <time>2023-05-27T06:30:04Z</time>
      </trkpt>
      <trkpt lat="43.42386" lon="1.63659">
        <ele>188.8</ele>
        <time>2023-05-27T06:30:05Z</time>
      </trkpt>
      <trkpt lat="43.42382" lon="1.63663">
        <ele>188.8</ele>
        <time>2023-05-27T06:30:06Z</time>
      </trkpt>
      <trkpt lat="43.42379" lon="1.63667">
        <ele>188.8</ele>
        <time>2023-05-27T06:30:07Z</time>
      </trkpt>
      <trkpt lat="43.42376" lon="1.63671">
        <ele>188.8</ele>
        <time>2023-05-27T06:30:08Z</time>
      </trkpt>
      <trkpt lat="43.42373" lon="1.63675">
        <ele>188.8</ele>
        <time>2023-05-27T06:30:09Z</time>
      </trkpt>
      <trkpt lat="43.42369" lon="1.63679">
        <ele>188.8</ele>
        <time>2023-05-27T06:30:10Z</time>
      </trkpt>
      <trkpt lat="43.42365" lon="1.63683">
        <ele>188.8</ele>
        <time>2023-05-27T06:30:11Z</time>
      </trkpt>
      <trkpt lat="43.42361" lon="1.63686">
        <ele>188.8</ele>
        <time>2023-05-27T06:30:12Z</time>
      </trkpt>
      <trkpt lat="43.42356" lon="1.6369">
        <ele>188.8</ele>
        <time>2023-05-27T06:30:13Z</time>
      </trkpt>
      <trkpt lat="43.42351" lon="1.63693">
        <ele>188.8</ele>
        <time>2023-05-27T06:30:14Z</time>
      </trkpt>
      <trkpt lat="43.42346" lon="1.63697">
        <ele>188.8</ele>
        <time>2023-05-27T06:30:15Z</time>
      </trkpt>
      <trkpt lat="43.42343" lon="1.63701">
        <ele>188.8</ele>
        <time>2023-05-27T06:30:16Z</time>
      </trkpt>
      <trkpt lat="43.42339" lon="1.63705">
        <ele>188.8</ele>
        <time>2023-05-27T06:30:17Z</time>
      </trkpt>
      <trkpt lat="43.42334" lon="1.63708">
        <ele>188.8</ele>
        <time>2023-05-27T06:30:18Z</time>
      </trkpt>
      <trkpt lat="43.4233" lon="1.63712">
        <ele>188.8</ele>
        <time>2023-05-27T06:30:19Z</time>
      </trkpt>
      <trkpt lat="43.42327" lon="1.63715">
        <ele>188.8</ele>
        <time>2023-05-27T06:30:20Z</time>
      </trkpt>
      <trkpt lat="43.42322" lon="1.63718">
        <ele>188.8</ele>
        <time>2023-05-27T06:30:21Z</time>
      </trkpt>
      <trkpt lat="43.42319" lon="1.63721">
        <ele>188.8</ele>
        <time>2023-05-27T06:30:22Z</time>
      </trkpt>
      <trkpt lat="43.42314" lon="1.63726">
        <ele>188.8</ele>
        <time>2023-05-27T06:30:23Z</time>
      </trkpt>
      <trkpt lat="43.42309" lon="1.6373">
        <ele>188.8</ele>
        <time>2023-05-27T06:30:24Z</time>
      </trkpt>
      <trkpt lat="43.42305" lon="1.63734">
        <ele>188.8</ele>
        <time>2023-05-27T06:30:25Z</time>
      </trkpt>
      <trkpt lat="43.42302" lon="1.63738">
        <ele>188.8</ele>
        <time>2023-05-27T06:30:26Z</time>
      </trkpt>
      <trkpt lat="43.42299" lon="1.6374">
        <ele>188.8</ele>
        <time>2023-05-27T06:30:27Z</time>
      </trkpt>
      <trkpt lat="43.42296" lon="1.63743">
        <ele>189</ele>
        <time>2023-05-27T06:30:28Z</time>
      </trkpt>
      <trkpt lat="43.42293" lon="1.63746">
        <ele>189</ele>
        <time>2023-05-27T06:30:29Z</time>
      </trkpt>
      <trkpt lat="43.42291" lon="1.63748">
        <ele>189</ele>
        <time>2023-05-27T06:30:30Z</time>
      </trkpt>
      <trkpt lat="43.42288" lon="1.6375">
        <ele>189</ele>
        <time>2023-05-27T06:30:31Z</time>
      </trkpt>
      <trkpt lat="43.42285" lon="1.63753">
        <ele>189</ele>
        <time>2023-05-27T06:30:32Z</time>
      </trkpt>
      <trkpt lat="43.42282" lon="1.63756">
        <ele>189</ele>
        <time>2023-05-27T06:30:33Z</time>
      </trkpt>
      <trkpt lat="43.42279" lon="1.63759">
        <ele>189</ele>
        <time>2023-05-27T06:30:34Z</time>
      </trkpt>
      <trkpt lat="43.42275" lon="1.63762">
        <ele>189</ele>
        <time>2023-05-27T06:30:35Z</time>
      </trkpt>
      <trkpt lat="43.42271" lon="1.63765">
        <ele>189</ele>
        <time>2023-05-27T06:30:36Z</time>
      </trkpt>
      <trkpt lat="43.42268" lon="1.63768">
        <ele>189</ele>
        <time>2023-05-27T06:30:37Z</time>
      </trkpt>
      <trkpt lat="43.42264" lon="1.63771">
        <ele>189</ele>
        <time>2023-05-27T06:30:38Z</time>
      </trkpt>
      <trkpt lat="43.42261" lon="1.63774">
        <ele>189.2</ele>
        <time>2023-05-27T06:30:39Z</time>
      </trkpt>
      <trkpt lat="43.42258" lon="1.63777">
        <ele>189.2</ele>
        <time>2023-05-27T06:30:40Z</time>
      </trkpt>
      <trkpt lat="43.42255" lon="1.6378">
        <ele>189.2</ele>
        <time>2023-05-27T06:30:41Z</time>
      </trkpt>
      <trkpt lat="43.42251" lon="1.63784">
        <ele>189.2</ele>
        <time>2023-05-27T06:30:42Z</time>
      </trkpt>
      <trkpt lat="43.42247" lon="1.63787">
        <ele>189.2</ele>
        <time>2023-05-27T06:30:43Z</time>
      </trkpt>
      <trkpt lat="43.42243" lon="1.63791">
        <ele>189.2</ele>
        <time>2023-05-27T06:30:44Z</time>
      </trkpt>
      <trkpt lat="43.4224" lon="1.63794">
        <ele>189.2</ele>
        <time>2023-05-27T06:30:45Z</time>
      </trkpt>
      <trkpt lat="43.42236" lon="1.63798">
        <ele>189.2</ele>
        <time>2023-05-27T06:30:46Z</time>
      </trkpt>
      <trkpt lat="43.42231" lon="1.63802">
        <ele>189.4</ele>
        <time>2023-05-27T06:30:47Z</time>
      </trkpt>
      <trkpt lat="43.42228" lon="1.63805">
        <ele>189.4</ele>
        <time>2023-05-27T06:30:48Z</time>
      </trkpt>
      <trkpt lat="43.42224" lon="1.63808">
        <ele>189.4</ele>
        <time>2023-05-27T06:30:49Z</time>
      </trkpt>
      <trkpt lat="43.42222" lon="1.63811">
        <ele>189.4</ele>
        <time>2023-05-27T06:30:50Z</time>
      </trkpt>
      <trkpt lat="43.42219" lon="1.63814">
        <ele>189.4</ele>
        <time>2023-05-27T06:30:51Z</time>
      </trkpt>
      <trkpt lat="43.42215" lon="1.63819">
        <ele>189.4</ele>
        <time>2023-05-27T06:30:52Z</time>
      </trkpt>
      <trkpt lat="43.42212" lon="1.63822">
        <ele>189.4</ele>
        <time>2023-05-27T06:30:53Z</time>
      </trkpt>
      <trkpt lat="43.42209" lon="1.63825">
        <ele>189.6</ele>
        <time>2023-05-27T06:30:54Z</time>
      </trkpt>
      <trkpt lat="43.42206" lon="1.63828">
        <ele>189.6</ele>
        <time>2023-05-27T06:30:55Z</time>
      </trkpt>
      <trkpt lat="43.42203" lon="1.63831">
        <ele>189.6</ele>
        <time>2023-05-27T06:30:56Z</time>
      </trkpt>
      <trkpt lat="43.422" lon="1.63834">
        <ele>189.6</ele>
        <time>2023-05-27T06:30:57Z</time>
      </trkpt>
      <trkpt lat="43.42197" lon="1.63837">
        <ele>189.6</ele>
        <time>2023-05-27T06:30:58Z</time>
      </trkpt>
      <trkpt lat="43.42194" lon="1.63841">
        <ele>189.6</ele>
        <time>2023-05-27T06:30:59Z</time>
      </trkpt>
      <trkpt lat="43.42191" lon="1.63846">
        <ele>189.6</ele>
        <time>2023-05-27T06:31:00Z</time>
      </trkpt>
      <trkpt lat="43.42188" lon="1.63851">
        <ele>189.6</ele>
        <time>2023-05-27T06:31:01Z</time>
      </trkpt>
      <trkpt lat="43.42182" lon="1.63857">
        <ele>189.8</ele>
        <time>2023-05-27T06:31:02Z</time>
      </trkpt>
      <trkpt lat="43.42178" lon="1.63862">
        <ele>189.8</ele>
        <time>2023-05-27T06:31:03Z</time>
      </trkpt>
      <trkpt lat="43.42172" lon="1.63868">
        <ele>189.8</ele>
        <time>2023-05-27T06:31:04Z</time>
      </trkpt>
      <trkpt lat="43.42166" lon="1.63873">
        <ele>189.8</ele>
        <time>2023-05-27T06:31:05Z</time>
      </trkpt>
      <trkpt lat="43.42164" lon="1.63876">
        <ele>190</ele>
        <time>2023-05-27T06:31:06Z</time>
      </trkpt>
      <trkpt lat="43.42161" lon="1.63879">
        <ele>190</ele>
        <time>2023-05-27T06:31:07Z</time>
      </trkpt>
      <trkpt lat="43.4216" lon="1.63881">
        <ele>190</ele>
        <time>2023-05-27T06:31:08Z</time>
      </trkpt>
      <trkpt lat="43.42159" lon="1.63885">
        <ele>190.2</ele>
        <time>2023-05-27T06:31:09Z</time>
      </trkpt>
      <trkpt lat="43.42158" lon="1.63886">
        <ele>190.2</ele>
        <time>2023-05-27T06:31:10Z</time>
      </trkpt>
      <trkpt lat="43.42155" lon="1.63888">
        <ele>190.4</ele>
        <time>2023-05-27T06:31:11Z</time>
      </trkpt>
      <trkpt lat="43.42153" lon="1.63891">
        <ele>190.4</ele>
        <time>2023-05-27T06:31:12Z</time>
      </trkpt>
      <trkpt lat="43.42151" lon="1.63895">
        <ele>190.4</ele>
        <time>2023-05-27T06:31:13Z</time>
      </trkpt>
      <trkpt lat="43.42149" lon="1.63897">
        <ele>190.4</ele>
        <time>2023-05-27T06:31:14Z</time>
      </trkpt>
      <trkpt lat="43.42145" lon="1.639">
        <ele>190.6</ele>
        <time>2023-05-27T06:31:15Z</time>
      </trkpt>
      <trkpt lat="43.42143" lon="1.63902">
        <ele>190.6</ele>
        <time>2023-05-27T06:31:16Z</time>
      </trkpt>
      <trkpt lat="43.42142" lon="1.63904">
        <ele>190.6</ele>
        <time>2023-05-27T06:31:17Z</time>
      </trkpt>
      <trkpt lat="43.42139" lon="1.63908">
        <ele>190.6</ele>
        <time>2023-05-27T06:31:18Z</time>
      </trkpt>
      <trkpt lat="43.42135" lon="1.63912">
        <ele>190.6</ele>
        <time>2023-05-27T06:31:19Z</time>
      </trkpt>
      <trkpt lat="43.42131" lon="1.63916">
        <ele>190.6</ele>
        <time>2023-05-27T06:31:20Z</time>
      </trkpt>
      <trkpt lat="43.42128" lon="1.6392">
        <ele>190.6</ele>
        <time>2023-05-27T06:31:21Z</time>
      </trkpt>
      <trkpt lat="43.42123" lon="1.63925">
        <ele>190.8</ele>
        <time>2023-05-27T06:31:22Z</time>
      </trkpt>
      <trkpt lat="43.4212" lon="1.6393">
        <ele>190.8</ele>
        <time>2023-05-27T06:31:23Z</time>
      </trkpt>
      <trkpt lat="43.42115" lon="1.63934">
        <ele>190.8</ele>
        <time>2023-05-27T06:31:24Z</time>
      </trkpt>
      <trkpt lat="43.42113" lon="1.63937">
        <ele>190.8</ele>
        <time>2023-05-27T06:31:25Z</time>
      </trkpt>
      <trkpt lat="43.4211" lon="1.63941">
        <ele>190.8</ele>
        <time>2023-05-27T06:31:26Z</time>
      </trkpt>
      <trkpt lat="43.42107" lon="1.63943">
        <ele>191</ele>
        <time>2023-05-27T06:31:27Z</time>
      </trkpt>
      <trkpt lat="43.42103" lon="1.63947">
        <ele>191</ele>
        <time>2023-05-27T06:31:28Z</time>
      </trkpt>
      <trkpt lat="43.42099" lon="1.6395">
        <ele>191</ele>
        <time>2023-05-27T06:31:29Z</time>
      </trkpt>
      <trkpt lat="43.42097" lon="1.63953">
        <ele>191</ele>
        <time>2023-05-27T06:31:30Z</time>
      </trkpt>
      <trkpt lat="43.42094" lon="1.63956">
        <ele>191</ele>
        <time>2023-05-27T06:31:31Z</time>
      </trkpt>
      <trkpt lat="43.4209" lon="1.63959">
        <ele>191</ele>
        <time>2023-05-27T06:31:32Z</time>
      </trkpt>
      <trkpt lat="43.42084" lon="1.63963">
        <ele>191</ele>
        <time>2023-05-27T06:31:33Z</time>
      </trkpt>
      <trkpt lat="43.42078" lon="1.63968">
        <ele>191</ele>
        <time>2023-05-27T06:31:34Z</time>
      </trkpt>
      <trkpt lat="43.42075" lon="1.63971">
        <ele>191</ele>
        <time>2023-05-27T06:31:35Z</time>
      </trkpt>
      <trkpt lat="43.42071" lon="1.63975">
        <ele>191</ele>
        <time>2023-05-27T06:31:36Z</time>
      </trkpt>
      <trkpt lat="43.42067" lon="1.6398">
        <ele>190.8</ele>
        <time>2023-05-27T06:31:37Z</time>
      </trkpt>
      <trkpt lat="43.42063" lon="1.63985">
        <ele>190.8</ele>
        <time>2023-05-27T06:31:38Z</time>
      </trkpt>
      <trkpt lat="43.42059" lon="1.63988">
        <ele>190.8</ele>
        <time>2023-05-27T06:31:39Z</time>
      </trkpt>
      <trkpt lat="43.42052" lon="1.63994">
        <ele>190.8</ele>
        <time>2023-05-27T06:31:40Z</time>
      </trkpt>
      <trkpt lat="43.4205" lon="1.63996">
        <ele>190.8</ele>
        <time>2023-05-27T06:31:41Z</time>
      </trkpt>
      <trkpt lat="43.42047" lon="1.63998">
        <ele>190.6</ele>
        <time>2023-05-27T06:31:42Z</time>
      </trkpt>
      <trkpt lat="43.42043" lon="1.64001">
        <ele>190.6</ele>
        <time>2023-05-27T06:31:43Z</time>
      </trkpt>
      <trkpt lat="43.42038" lon="1.64005">
        <ele>190.6</ele>
        <time>2023-05-27T06:31:44Z</time>
      </trkpt>
      <trkpt lat="43.42033" lon="1.64008">
        <ele>190.6</ele>
        <time>2023-05-27T06:31:45Z</time>
      </trkpt>
      <trkpt lat="43.42028" lon="1.64012">
        <ele>190.6</ele>
        <time>2023-05-27T06:31:46Z</time>
      </trkpt>
      <trkpt lat="43.42025" lon="1.64014">
        <ele>190.6</ele>
        <time>2023-05-27T06:31:47Z</time>
      </trkpt>
      <trkpt lat="43.42022" lon="1.64017">
        <ele>190.8</ele>
        <time>2023-05-27T06:31:48Z</time>
      </trkpt>
      <trkpt lat="43.42018" lon="1.64019">
        <ele>190.8</ele>
        <time>2023-05-27T06:31:49Z</time>
      </trkpt>
      <trkpt lat="43.42015" lon="1.64022">
        <ele>190.8</ele>
        <time>2023-05-27T06:31:50Z</time>
      </trkpt>
      <trkpt lat="43.42012" lon="1.64024">
        <ele>190.8</ele>
        <time>2023-05-27T06:31:51Z</time>
      </trkpt>
      <trkpt lat="43.42009" lon="1.64026">
        <ele>191</ele>
        <time>2023-05-27T06:31:52Z</time>
      </trkpt>
      <trkpt lat="43.42005" lon="1.64028">
        <ele>191</ele>
        <time>2023-05-27T06:31:53Z</time>
      </trkpt>
      <trkpt lat="43.42002" lon="1.6403">
        <ele>191</ele>
        <time>2023-05-27T06:31:54Z</time>
      </trkpt>
      <trkpt lat="43.41999" lon="1.64032">
        <ele>191.2</ele>
        <time>2023-05-27T06:31:55Z</time>
      </trkpt>
      <trkpt lat="43.41997" lon="1.64034">
        <ele>191.2</ele>
        <time>2023-05-27T06:31:56Z</time>
      </trkpt>
      <trkpt lat="43.41993" lon="1.64037">
        <ele>191.2</ele>
        <time>2023-05-27T06:31:57Z</time>
      </trkpt>
      <trkpt lat="43.41989" lon="1.6404">
        <ele>191.2</ele>
        <time>2023-05-27T06:31:58Z</time>
      </trkpt>
      <trkpt lat="43.41986" lon="1.64042">
        <ele>191.4</ele>
        <time>2023-05-27T06:31:59Z</time>
      </trkpt>
      <trkpt lat="43.41982" lon="1.64045">
        <ele>191.4</ele>
        <time>2023-05-27T06:32:00Z</time>
      </trkpt>
      <trkpt lat="43.41978" lon="1.64048">
        <ele>191.4</ele>
        <time>2023-05-27T06:32:01Z</time>
      </trkpt>
      <trkpt lat="43.41975" lon="1.6405">
        <ele>191.4</ele>
        <time>2023-05-27T06:32:02Z</time>
      </trkpt>
      <trkpt lat="43.41971" lon="1.64053">
        <ele>191.4</ele>
        <time>2023-05-27T06:32:03Z</time>
      </trkpt>
      <trkpt lat="43.41967" lon="1.64055">
        <ele>191.4</ele>
        <time>2023-05-27T06:32:04Z</time>
      </trkpt>
      <trkpt lat="43.41964" lon="1.64057">
        <ele>191.6</ele>
        <time>2023-05-27T06:32:05Z</time>
      </trkpt>
      <trkpt lat="43.41961" lon="1.64059">
        <ele>191.6</ele>
        <time>2023-05-27T06:32:06Z</time>
      </trkpt>
      <trkpt lat="43.41958" lon="1.64061">
        <ele>191.6</ele>
        <time>2023-05-27T06:32:07Z</time>
      </trkpt>
      <trkpt lat="43.41954" lon="1.64064">
        <ele>191.6</ele>
        <time>2023-05-27T06:32:08Z</time>
      </trkpt>
      <trkpt lat="43.4195" lon="1.64067">
        <ele>191.6</ele>
        <time>2023-05-27T06:32:09Z</time>
      </trkpt>
      <trkpt lat="43.41946" lon="1.64069">
        <ele>191.6</ele>
        <time>2023-05-27T06:32:10Z</time>
      </trkpt>
      <trkpt lat="43.41942" lon="1.64072">
        <ele>191.6</ele>
        <time>2023-05-27T06:32:11Z</time>
      </trkpt>
      <trkpt lat="43.41938" lon="1.64075">
        <ele>191.6</ele>
        <time>2023-05-27T06:32:12Z</time>
      </trkpt>
      <trkpt lat="43.41935" lon="1.64077">
        <ele>191.4</ele>
        <time>2023-05-27T06:32:13Z</time>
      </trkpt>
      <trkpt lat="43.41931" lon="1.6408">
        <ele>191.2</ele>
        <time>2023-05-27T06:32:14Z</time>
      </trkpt>
      <trkpt lat="43.41926" lon="1.64083">
        <ele>191</ele>
        <time>2023-05-27T06:32:15Z</time>
      </trkpt>
      <trkpt lat="43.41921" lon="1.64085">
        <ele>190.8</ele>
        <time>2023-05-27T06:32:16Z</time>
      </trkpt>
      <trkpt lat="43.41914" lon="1.64087">
        <ele>190.4</ele>
        <time>2023-05-27T06:32:17Z</time>
      </trkpt>
      <trkpt lat="43.41908" lon="1.64088">
        <ele>190.2</ele>
        <time>2023-05-27T06:32:18Z</time>
      </trkpt>
      <trkpt lat="43.41901" lon="1.64091">
        <ele>190.2</ele>
        <time>2023-05-27T06:32:19Z</time>
      </trkpt>
      <trkpt lat="43.41896" lon="1.64094">
        <ele>190</ele>
        <time>2023-05-27T06:32:20Z</time>
      </trkpt>
      <trkpt lat="43.41891" lon="1.64097">
        <ele>190</ele>
        <time>2023-05-27T06:32:21Z</time>
      </trkpt>
      <trkpt lat="43.41886" lon="1.64099">
        <ele>190</ele>
        <time>2023-05-27T06:32:22Z</time>
      </trkpt>
      <trkpt lat="43.41882" lon="1.64101">
        <ele>190.2</ele>
        <time>2023-05-27T06:32:23Z</time>
      </trkpt>
      <trkpt lat="43.41877" lon="1.64103">
        <ele>190.2</ele>
        <time>2023-05-27T06:32:24Z</time>
      </trkpt>
      <trkpt lat="43.41874" lon="1.64105">
        <ele>190.4</ele>
        <time>2023-05-27T06:32:25Z</time>
      </trkpt>
      <trkpt lat="43.41872" lon="1.64106">
        <ele>190.6</ele>
        <time>2023-05-27T06:32:26Z</time>
      </trkpt>
      <trkpt lat="43.41871" lon="1.64107">
        <ele>190.6</ele>
        <time>2023-05-27T06:32:27Z</time>
      </trkpt>
      <trkpt lat="43.4187" lon="1.64108">
        <ele>190.6</ele>
        <time>2023-05-27T06:32:28Z</time>
      </trkpt>
      <trkpt lat="43.41869" lon="1.64109">
        <ele>190.8</ele>
        <time>2023-05-27T06:32:29Z</time>
      </trkpt>
      <trkpt lat="43.41868" lon="1.64111">
        <ele>190.8</ele>
        <time>2023-05-27T06:32:30Z</time>
      </trkpt>
      <trkpt lat="43.41868" lon="1.64113">
        <ele>190.8</ele>
        <time>2023-05-27T06:32:31Z</time>
      </trkpt>
      <trkpt lat="43.41867" lon="1.64116">
        <ele>190.8</ele>
        <time>2023-05-27T06:32:32Z</time>
      </trkpt>
      <trkpt lat="43.41866" lon="1.64119">
        <ele>190.8</ele>
        <time>2023-05-27T06:32:33Z</time>
      </trkpt>
      <trkpt lat="43.41866" lon="1.64121">
        <ele>190.8</ele>
        <time>2023-05-27T06:32:34Z</time>
      </trkpt>
      <trkpt lat="43.41865" lon="1.64124">
        <ele>190.8</ele>
        <time>2023-05-27T06:32:35Z</time>
      </trkpt>
      <trkpt lat="43.41864" lon="1.64127">
        <ele>190.8</ele>
        <time>2023-05-27T06:32:36Z</time>
      </trkpt>
      <trkpt lat="43.41863" lon="1.6413">
        <ele>190.8</ele>
        <time>2023-05-27T06:32:37Z</time>
      </trkpt>
      <trkpt lat="43.41861" lon="1.64133">
        <ele>190.8</ele>
        <time>2023-05-27T06:32:38Z</time>
      </trkpt>
      <trkpt lat="43.41859" lon="1.64136">
        <ele>190.8</ele>
        <time>2023-05-27T06:32:39Z</time>
      </trkpt>
      <trkpt lat="43.41856" lon="1.64138">
        <ele>190.8</ele>
        <time>2023-05-27T06:32:40Z</time>
      </trkpt>
      <trkpt lat="43.41853" lon="1.64141">
        <ele>190.8</ele>
        <time>2023-05-27T06:32:41Z</time>
      </trkpt>
      <trkpt lat="43.4185" lon="1.64142">
        <ele>191</ele>
        <time>2023-05-27T06:32:42Z</time>
      </trkpt>
      <trkpt lat="43.41848" lon="1.64143">
        <ele>191</ele>
        <time>2023-05-27T06:32:43Z</time>
      </trkpt>
      <trkpt lat="43.41844" lon="1.64143">
        <ele>191</ele>
        <time>2023-05-27T06:32:44Z</time>
      </trkpt>
      <trkpt lat="43.41842" lon="1.64143">
        <ele>191</ele>
        <time>2023-05-27T06:32:45Z</time>
      </trkpt>
      <trkpt lat="43.41839" lon="1.64143">
        <ele>191.2</ele>
        <time>2023-05-27T06:32:46Z</time>
      </trkpt>
      <trkpt lat="43.41836" lon="1.64143">
        <ele>191.2</ele>
        <time>2023-05-27T06:32:47Z</time>
      </trkpt>
      <trkpt lat="43.41833" lon="1.64143">
        <ele>191.2</ele>
        <time>2023-05-27T06:32:48Z</time>
      </trkpt>
      <trkpt lat="43.4183" lon="1.64144">
        <ele>191.2</ele>
        <time>2023-05-27T06:32:49Z</time>
      </trkpt>
      <trkpt lat="43.41827" lon="1.64144">
        <ele>191.4</ele>
        <time>2023-05-27T06:32:50Z</time>
      </trkpt>
      <trkpt lat="43.41824" lon="1.64145">
        <ele>191.4</ele>
        <time>2023-05-27T06:32:51Z</time>
      </trkpt>
      <trkpt lat="43.41822" lon="1.64147">
        <ele>191.4</ele>
        <time>2023-05-27T06:32:52Z</time>
      </trkpt>
      <trkpt lat="43.4182" lon="1.64148">
        <ele>191.6</ele>
        <time>2023-05-27T06:32:53Z</time>
      </trkpt>
      <trkpt lat="43.41818" lon="1.64149">
        <ele>191.6</ele>
        <time>2023-05-27T06:32:54Z</time>
      </trkpt>
      <trkpt lat="43.41816" lon="1.6415">
        <ele>191.8</ele>
        <time>2023-05-27T06:32:55Z</time>
      </trkpt>
      <trkpt lat="43.41815" lon="1.64151">
        <ele>191.8</ele>
        <time>2023-05-27T06:32:56Z</time>
      </trkpt>
      <trkpt lat="43.41813" lon="1.64152">
        <ele>191.8</ele>
        <time>2023-05-27T06:32:57Z</time>
      </trkpt>
      <trkpt lat="43.41811" lon="1.64153">
        <ele>191.8</ele>
        <time>2023-05-27T06:32:58Z</time>
      </trkpt>
      <trkpt lat="43.41809" lon="1.64154">
        <ele>191.8</ele>
        <time>2023-05-27T06:32:59Z</time>
      </trkpt>
      <trkpt lat="43.41807" lon="1.64155">
        <ele>191.8</ele>
        <time>2023-05-27T06:33:00Z</time>
      </trkpt>
      <trkpt lat="43.41804" lon="1.64156">
        <ele>191.6</ele>
        <time>2023-05-27T06:33:01Z</time>
      </trkpt>
      <trkpt lat="43.41801" lon="1.64156">
        <ele>191.6</ele>
        <time>2023-05-27T06:33:02Z</time>
      </trkpt>
      <trkpt lat="43.41799" lon="1.64157">
        <ele>191.6</ele>
        <time>2023-05-27T06:33:03Z</time>
      </trkpt>
      <trkpt lat="43.41797" lon="1.64158">
        <ele>191.6</ele>
        <time>2023-05-27T06:33:04Z</time>
      </trkpt>
      <trkpt lat="43.41795" lon="1.64159">
        <ele>191.6</ele>
        <time>2023-05-27T06:33:05Z</time>
      </trkpt>
      <trkpt lat="43.41793" lon="1.6416">
        <ele>191.6</ele>
        <time>2023-05-27T06:33:06Z</time>
      </trkpt>
      <trkpt lat="43.41791" lon="1.64161">
        <ele>191.6</ele>
        <time>2023-05-27T06:33:07Z</time>
      </trkpt>
      <trkpt lat="43.41789" lon="1.64162">
        <ele>191.6</ele>
        <time>2023-05-27T06:33:08Z</time>
      </trkpt>
      <trkpt lat="43.41786" lon="1.64163">
        <ele>191.6</ele>
        <time>2023-05-27T06:33:09Z</time>
      </trkpt>
      <trkpt lat="43.41784" lon="1.64166">
        <ele>191.6</ele>
        <time>2023-05-27T06:33:10Z</time>
      </trkpt>
      <trkpt lat="43.41782" lon="1.64168">
        <ele>191.6</ele>
        <time>2023-05-27T06:33:11Z</time>
      </trkpt>
      <trkpt lat="43.4178" lon="1.64171">
        <ele>191.6</ele>
        <time>2023-05-27T06:33:12Z</time>
      </trkpt>
      <trkpt lat="43.41777" lon="1.64175">
        <ele>191.6</ele>
        <time>2023-05-27T06:33:13Z</time>
      </trkpt>
      <trkpt lat="43.41774" lon="1.64178">
        <ele>191.6</ele>
        <time>2023-05-27T06:33:14Z</time>
      </trkpt>
      <trkpt lat="43.41772" lon="1.64181">
        <ele>191.6</ele>
        <time>2023-05-27T06:33:15Z</time>
      </trkpt>
      <trkpt lat="43.41769" lon="1.64185">
        <ele>191.4</ele>
        <time>2023-05-27T06:33:16Z</time>
      </trkpt>
      <trkpt lat="43.41765" lon="1.64189">
        <ele>191.4</ele>
        <time>2023-05-27T06:33:17Z</time>
      </trkpt>
      <trkpt lat="43.41761" lon="1.64192">
        <ele>191.4</ele>
        <time>2023-05-27T06:33:18Z</time>
      </trkpt>
      <trkpt lat="43.41759" lon="1.64195">
        <ele>191.4</ele>
        <time>2023-05-27T06:33:19Z</time>
      </trkpt>
      <trkpt lat="43.41755" lon="1.64198">
        <ele>191.2</ele>
        <time>2023-05-27T06:33:20Z</time>
      </trkpt>
      <trkpt lat="43.41751" lon="1.64201">
        <ele>191.2</ele>
        <time>2023-05-27T06:33:21Z</time>
      </trkpt>
      <trkpt lat="43.41746" lon="1.64205">
        <ele>191.2</ele>
        <time>2023-05-27T06:33:22Z</time>
      </trkpt>
      <trkpt lat="43.41742" lon="1.64208">
        <ele>191</ele>
        <time>2023-05-27T06:33:23Z</time>
      </trkpt>
      <trkpt lat="43.41739" lon="1.64211">
        <ele>191</ele>
        <time>2023-05-27T06:33:24Z</time>
      </trkpt>
      <trkpt lat="43.41734" lon="1.64215">
        <ele>191</ele>
        <time>2023-05-27T06:33:25Z</time>
      </trkpt>
      <trkpt lat="43.4173" lon="1.64218">
        <ele>191</ele>
        <time>2023-05-27T06:33:26Z</time>
      </trkpt>
      <trkpt lat="43.41727" lon="1.64221">
        <ele>191.2</ele>
        <time>2023-05-27T06:33:27Z</time>
      </trkpt>
      <trkpt lat="43.41724" lon="1.64223">
        <ele>191.2</ele>
        <time>2023-05-27T06:33:28Z</time>
      </trkpt>
      <trkpt lat="43.41719" lon="1.64227">
        <ele>191.2</ele>
        <time>2023-05-27T06:33:29Z</time>
      </trkpt>
      <trkpt lat="43.41715" lon="1.64229">
        <ele>191.2</ele>
        <time>2023-05-27T06:33:30Z</time>
      </trkpt>
      <trkpt lat="43.41712" lon="1.64232">
        <ele>191.2</ele>
        <time>2023-05-27T06:33:31Z</time>
      </trkpt>
      <trkpt lat="43.41708" lon="1.64235">
        <ele>191.2</ele>
        <time>2023-05-27T06:33:32Z</time>
      </trkpt>
      <trkpt lat="43.41705" lon="1.64237">
        <ele>191.2</ele>
        <time>2023-05-27T06:33:33Z</time>
      </trkpt>
      <trkpt lat="43.41701" lon="1.64241">
        <ele>191.4</ele>
        <time>2023-05-27T06:33:34Z</time>
      </trkpt>
      <trkpt lat="43.41698" lon="1.64244">
        <ele>191.4</ele>
        <time>2023-05-27T06:33:35Z</time>
      </trkpt>
      <trkpt lat="43.41694" lon="1.64247">
        <ele>191.4</ele>
        <time>2023-05-27T06:33:36Z</time>
      </trkpt>
      <trkpt lat="43.41691" lon="1.6425">
        <ele>191.6</ele>
        <time>2023-05-27T06:33:37Z</time>
      </trkpt>
      <trkpt lat="43.41688" lon="1.64253">
        <ele>191.6</ele>
        <time>2023-05-27T06:33:38Z</time>
      </trkpt>
      <trkpt lat="43.41685" lon="1.64256">
        <ele>191.6</ele>
        <time>2023-05-27T06:33:39Z</time>
      </trkpt>
      <trkpt lat="43.41682" lon="1.6426">
        <ele>191.6</ele>
        <time>2023-05-27T06:33:40Z</time>
      </trkpt>
      <trkpt lat="43.41679" lon="1.64262">
        <ele>191.6</ele>
        <time>2023-05-27T06:33:41Z</time>
      </trkpt>
      <trkpt lat="43.41676" lon="1.64265">
        <ele>191.8</ele>
        <time>2023-05-27T06:33:42Z</time>
      </trkpt>
      <trkpt lat="43.41674" lon="1.64268">
        <ele>191.8</ele>
        <time>2023-05-27T06:33:43Z</time>
      </trkpt>
      <trkpt lat="43.41671" lon="1.64272">
        <ele>191.8</ele>
        <time>2023-05-27T06:33:44Z</time>
      </trkpt>
      <trkpt lat="43.41668" lon="1.64275">
        <ele>191.8</ele>
        <time>2023-05-27T06:33:45Z</time>
      </trkpt>
      <trkpt lat="43.41664" lon="1.64278">
        <ele>191.8</ele>
        <time>2023-05-27T06:33:46Z</time>
      </trkpt>
      <trkpt lat="43.41661" lon="1.64281">
        <ele>191.8</ele>
        <time>2023-05-27T06:33:47Z</time>
      </trkpt>
      <trkpt lat="43.41658" lon="1.64285">
        <ele>192</ele>
        <time>2023-05-27T06:33:48Z</time>
      </trkpt>
      <trkpt lat="43.41655" lon="1.64288">
        <ele>192</ele>
        <time>2023-05-27T06:33:49Z</time>
      </trkpt>
      <trkpt lat="43.41651" lon="1.64291">
        <ele>192</ele>
        <time>2023-05-27T06:33:50Z</time>
      </trkpt>
      <trkpt lat="43.41648" lon="1.64295">
        <ele>192</ele>
        <time>2023-05-27T06:33:51Z</time>
      </trkpt>
      <trkpt lat="43.41645" lon="1.64298">
        <ele>192</ele>
        <time>2023-05-27T06:33:52Z</time>
      </trkpt>
      <trkpt lat="43.41642" lon="1.64302">
        <ele>192</ele>
        <time>2023-05-27T06:33:53Z</time>
      </trkpt>
      <trkpt lat="43.41639" lon="1.64305">
        <ele>192</ele>
        <time>2023-05-27T06:33:54Z</time>
      </trkpt>
      <trkpt lat="43.41636" lon="1.64309">
        <ele>192</ele>
        <time>2023-05-27T06:33:55Z</time>
      </trkpt>
      <trkpt lat="43.41633" lon="1.64312">
        <ele>192</ele>
        <time>2023-05-27T06:33:56Z</time>
      </trkpt>
      <trkpt lat="43.4163" lon="1.64317">
        <ele>192</ele>
        <time>2023-05-27T06:33:57Z</time>
      </trkpt>
      <trkpt lat="43.41628" lon="1.64321">
        <ele>192</ele>
        <time>2023-05-27T06:33:58Z</time>
      </trkpt>
      <trkpt lat="43.41625" lon="1.64326">
        <ele>192</ele>
        <time>2023-05-27T06:33:59Z</time>
      </trkpt>
      <trkpt lat="43.41623" lon="1.64329">
        <ele>192</ele>
        <time>2023-05-27T06:34:00Z</time>
      </trkpt>
      <trkpt lat="43.4162" lon="1.64334">
        <ele>192</ele>
        <time>2023-05-27T06:34:01Z</time>
      </trkpt>
      <trkpt lat="43.41616" lon="1.64339">
        <ele>191.8</ele>
        <time>2023-05-27T06:34:02Z</time>
      </trkpt>
      <trkpt lat="43.41612" lon="1.64342">
        <ele>191.8</ele>
        <time>2023-05-27T06:34:03Z</time>
      </trkpt>
      <trkpt lat="43.41609" lon="1.64345">
        <ele>191.8</ele>
        <time>2023-05-27T06:34:04Z</time>
      </trkpt>
      <trkpt lat="43.41605" lon="1.64348">
        <ele>191.8</ele>
        <time>2023-05-27T06:34:05Z</time>
      </trkpt>
      <trkpt lat="43.41602" lon="1.64351">
        <ele>191.8</ele>
        <time>2023-05-27T06:34:06Z</time>
      </trkpt>
      <trkpt lat="43.41599" lon="1.64354">
        <ele>192</ele>
        <time>2023-05-27T06:34:07Z</time>
      </trkpt>
      <trkpt lat="43.41596" lon="1.64357">
        <ele>192</ele>
        <time>2023-05-27T06:34:08Z</time>
      </trkpt>
      <trkpt lat="43.41595" lon="1.64359">
        <ele>192.2</ele>
        <time>2023-05-27T06:34:09Z</time>
      </trkpt>
      <trkpt lat="43.41593" lon="1.64361">
        <ele>192.2</ele>
        <time>2023-05-27T06:34:10Z</time>
      </trkpt>
      <trkpt lat="43.41591" lon="1.64364">
        <ele>192.4</ele>
        <time>2023-05-27T06:34:11Z</time>
      </trkpt>
      <trkpt lat="43.4159" lon="1.64366">
        <ele>192.8</ele>
        <time>2023-05-27T06:34:12Z</time>
      </trkpt>
      <trkpt lat="43.41589" lon="1.64368">
        <ele>192.8</ele>
        <time>2023-05-27T06:34:13Z</time>
      </trkpt>
      <trkpt lat="43.41587" lon="1.64372">
        <ele>193</ele>
        <time>2023-05-27T06:34:14Z</time>
      </trkpt>
      <trkpt lat="43.41586" lon="1.64375">
        <ele>193</ele>
        <time>2023-05-27T06:34:15Z</time>
      </trkpt>
      <trkpt lat="43.41585" lon="1.64378">
        <ele>193.2</ele>
        <time>2023-05-27T06:34:16Z</time>
      </trkpt>
      <trkpt lat="43.41584" lon="1.64381">
        <ele>193.2</ele>
        <time>2023-05-27T06:34:17Z</time>
      </trkpt>
      <trkpt lat="43.41583" lon="1.64384">
        <ele>193.2</ele>
        <time>2023-05-27T06:34:18Z</time>
      </trkpt>
      <trkpt lat="43.41583" lon="1.64387">
        <ele>193.2</ele>
        <time>2023-05-27T06:34:19Z</time>
      </trkpt>
      <trkpt lat="43.4158" lon="1.64391">
        <ele>193.2</ele>
        <time>2023-05-27T06:34:20Z</time>
      </trkpt>
      <trkpt lat="43.41577" lon="1.64396">
        <ele>193.2</ele>
        <time>2023-05-27T06:34:21Z</time>
      </trkpt>
      <trkpt lat="43.41575" lon="1.644">
        <ele>193.2</ele>
        <time>2023-05-27T06:34:22Z</time>
      </trkpt>
      <trkpt lat="43.41574" lon="1.64405">
        <ele>193</ele>
        <time>2023-05-27T06:34:23Z</time>
      </trkpt>
      <trkpt lat="43.41572" lon="1.64408">
        <ele>193</ele>
        <time>2023-05-27T06:34:24Z</time>
      </trkpt>
      <trkpt lat="43.41568" lon="1.64413">
        <ele>193</ele>
        <time>2023-05-27T06:34:25Z</time>
      </trkpt>
      <trkpt lat="43.41566" lon="1.64418">
        <ele>193</ele>
        <time>2023-05-27T06:34:26Z</time>
      </trkpt>
      <trkpt lat="43.41564" lon="1.64422">
        <ele>192.8</ele>
        <time>2023-05-27T06:34:27Z</time>
      </trkpt>
      <trkpt lat="43.41561" lon="1.64426">
        <ele>192.8</ele>
        <time>2023-05-27T06:34:28Z</time>
      </trkpt>
      <trkpt lat="43.4156" lon="1.6443">
        <ele>192.8</ele>
        <time>2023-05-27T06:34:29Z</time>
      </trkpt>
      <trkpt lat="43.41558" lon="1.64433">
        <ele>192.8</ele>
        <time>2023-05-27T06:34:30Z</time>
      </trkpt>
      <trkpt lat="43.41556" lon="1.64438">
        <ele>192.8</ele>
        <time>2023-05-27T06:34:31Z</time>
      </trkpt>
      <trkpt lat="43.41554" lon="1.64443">
        <ele>192.8</ele>
        <time>2023-05-27T06:34:32Z</time>
      </trkpt>
      <trkpt lat="43.41554" lon="1.64447">
        <ele>192.8</ele>
        <time>2023-05-27T06:34:33Z</time>
      </trkpt>
      <trkpt lat="43.41552" lon="1.64451">
        <ele>192.8</ele>
        <time>2023-05-27T06:34:34Z</time>
      </trkpt>
      <trkpt lat="43.41552" lon="1.64454">
        <ele>192.8</ele>
        <time>2023-05-27T06:34:35Z</time>
      </trkpt>
      <trkpt lat="43.4155" lon="1.64459">
        <ele>192.8</ele>
        <time>2023-05-27T06:34:36Z</time>
      </trkpt>
      <trkpt lat="43.41545" lon="1.64465">
        <ele>192.8</ele>
        <time>2023-05-27T06:34:37Z</time>
      </trkpt>
      <trkpt lat="43.41541" lon="1.64471">
        <ele>192.8</ele>
        <time>2023-05-27T06:34:38Z</time>
      </trkpt>
      <trkpt lat="43.41537" lon="1.64477">
        <ele>193</ele>
        <time>2023-05-27T06:34:39Z</time>
      </trkpt>
      <trkpt lat="43.41534" lon="1.64482">
        <ele>192.8</ele>
        <time>2023-05-27T06:34:40Z</time>
      </trkpt>
      <trkpt lat="43.41532" lon="1.64486">
        <ele>192.8</ele>
        <time>2023-05-27T06:34:41Z</time>
      </trkpt>
      <trkpt lat="43.4153" lon="1.6449">
        <ele>192.8</ele>
        <time>2023-05-27T06:34:42Z</time>
      </trkpt>
      <trkpt lat="43.41527" lon="1.64495">
        <ele>192.8</ele>
        <time>2023-05-27T06:34:43Z</time>
      </trkpt>
      <trkpt lat="43.41524" lon="1.64501">
        <ele>193</ele>
        <time>2023-05-27T06:34:44Z</time>
      </trkpt>
      <trkpt lat="43.41522" lon="1.64506">
        <ele>193</ele>
        <time>2023-05-27T06:34:45Z</time>
      </trkpt>
      <trkpt lat="43.41521" lon="1.64511">
        <ele>193</ele>
        <time>2023-05-27T06:34:46Z</time>
      </trkpt>
      <trkpt lat="43.41517" lon="1.64517">
        <ele>193</ele>
        <time>2023-05-27T06:34:47Z</time>
      </trkpt>
      <trkpt lat="43.41514" lon="1.64524">
        <ele>193</ele>
        <time>2023-05-27T06:34:48Z</time>
      </trkpt>
      <trkpt lat="43.41512" lon="1.64528">
        <ele>193</ele>
        <time>2023-05-27T06:34:49Z</time>
      </trkpt>
      <trkpt lat="43.41511" lon="1.64532">
        <ele>193.2</ele>
        <time>2023-05-27T06:34:50Z</time>
      </trkpt>
      <trkpt lat="43.4151" lon="1.64535">
        <ele>193.2</ele>
        <time>2023-05-27T06:34:51Z</time>
      </trkpt>
      <trkpt lat="43.41509" lon="1.64538">
        <ele>193.2</ele>
        <time>2023-05-27T06:34:52Z</time>
      </trkpt>
      <trkpt lat="43.41507" lon="1.64543">
        <ele>193.2</ele>
        <time>2023-05-27T06:34:53Z</time>
      </trkpt>
      <trkpt lat="43.41505" lon="1.64546">
        <ele>193.2</ele>
        <time>2023-05-27T06:34:54Z</time>
      </trkpt>
      <trkpt lat="43.41503" lon="1.6455">
        <ele>193.2</ele>
        <time>2023-05-27T06:34:55Z</time>
      </trkpt>
      <trkpt lat="43.41502" lon="1.64553">
        <ele>193.2</ele>
        <time>2023-05-27T06:34:56Z</time>
      </trkpt>
      <trkpt lat="43.41501" lon="1.64556">
        <ele>193.2</ele>
        <time>2023-05-27T06:34:57Z</time>
      </trkpt>
      <trkpt lat="43.415" lon="1.6456">
        <ele>193.2</ele>
        <time>2023-05-27T06:34:58Z</time>
      </trkpt>
      <trkpt lat="43.41498" lon="1.64565">
        <ele>193.2</ele>
        <time>2023-05-27T06:34:59Z</time>
      </trkpt>
      <trkpt lat="43.41495" lon="1.64569">
        <ele>193.2</ele>
        <time>2023-05-27T06:35:00Z</time>
      </trkpt>
      <trkpt lat="43.41492" lon="1.64574">
        <ele>193.2</ele>
        <time>2023-05-27T06:35:01Z</time>
      </trkpt>
      <trkpt lat="43.41489" lon="1.64579">
        <ele>193.2</ele>
        <time>2023-05-27T06:35:02Z</time>
      </trkpt>
      <trkpt lat="43.41487" lon="1.64583">
        <ele>193.2</ele>
        <time>2023-05-27T06:35:03Z</time>
      </trkpt>
      <trkpt lat="43.41484" lon="1.64587">
        <ele>193.2</ele>
        <time>2023-05-27T06:35:04Z</time>
      </trkpt>
      <trkpt lat="43.4148" lon="1.64591">
        <ele>193.2</ele>
        <time>2023-05-27T06:35:05Z</time>
      </trkpt>
      <trkpt lat="43.41476" lon="1.64597">
        <ele>193.2</ele>
        <time>2023-05-27T06:35:06Z</time>
      </trkpt>
      <trkpt lat="43.41474" lon="1.64601">
        <ele>193.2</ele>
        <time>2023-05-27T06:35:07Z</time>
      </trkpt>
      <trkpt lat="43.41472" lon="1.64605">
        <ele>193.2</ele>
        <time>2023-05-27T06:35:08Z</time>
      </trkpt>
      <trkpt lat="43.41468" lon="1.6461">
        <ele>193.2</ele>
        <time>2023-05-27T06:35:09Z</time>
      </trkpt>
      <trkpt lat="43.41464" lon="1.64615">
        <ele>193.2</ele>
        <time>2023-05-27T06:35:10Z</time>
      </trkpt>
      <trkpt lat="43.4146" lon="1.6462">
        <ele>193.2</ele>
        <time>2023-05-27T06:35:11Z</time>
      </trkpt>
      <trkpt lat="43.41457" lon="1.64626">
        <ele>193.2</ele>
        <time>2023-05-27T06:35:12Z</time>
      </trkpt>
      <trkpt lat="43.41456" lon="1.64629">
        <ele>193.2</ele>
        <time>2023-05-27T06:35:13Z</time>
      </trkpt>
      <trkpt lat="43.41454" lon="1.64633">
        <ele>193.2</ele>
        <time>2023-05-27T06:35:14Z</time>
      </trkpt>
      <trkpt lat="43.41452" lon="1.64638">
        <ele>193.2</ele>
        <time>2023-05-27T06:35:15Z</time>
      </trkpt>
      <trkpt lat="43.41448" lon="1.64642">
        <ele>193.2</ele>
        <time>2023-05-27T06:35:16Z</time>
      </trkpt>
      <trkpt lat="43.41445" lon="1.64647">
        <ele>193.2</ele>
        <time>2023-05-27T06:35:17Z</time>
      </trkpt>
      <trkpt lat="43.41439" lon="1.64653">
        <ele>193</ele>
        <time>2023-05-27T06:35:18Z</time>
      </trkpt>
      <trkpt lat="43.41436" lon="1.64656">
        <ele>193</ele>
        <time>2023-05-27T06:35:19Z</time>
      </trkpt>
      <trkpt lat="43.41434" lon="1.64659">
        <ele>193</ele>
        <time>2023-05-27T06:35:20Z</time>
      </trkpt>
      <trkpt lat="43.4143" lon="1.64663">
        <ele>193</ele>
        <time>2023-05-27T06:35:21Z</time>
      </trkpt>
      <trkpt lat="43.41426" lon="1.64667">
        <ele>193</ele>
        <time>2023-05-27T06:35:22Z</time>
      </trkpt>
      <trkpt lat="43.41423" lon="1.64671">
        <ele>193</ele>
        <time>2023-05-27T06:35:23Z</time>
      </trkpt>
      <trkpt lat="43.41416" lon="1.64676">
        <ele>193</ele>
        <time>2023-05-27T06:35:24Z</time>
      </trkpt>
      <trkpt lat="43.41411" lon="1.64679">
        <ele>193</ele>
        <time>2023-05-27T06:35:25Z</time>
      </trkpt>
      <trkpt lat="43.41405" lon="1.64684">
        <ele>192.8</ele>
        <time>2023-05-27T06:35:26Z</time>
      </trkpt>
      <trkpt lat="43.41403" lon="1.64687">
        <ele>193</ele>
        <time>2023-05-27T06:35:27Z</time>
      </trkpt>
      <trkpt lat="43.41401" lon="1.64689">
        <ele>193</ele>
        <time>2023-05-27T06:35:28Z</time>
      </trkpt>
      <trkpt lat="43.41399" lon="1.64692">
        <ele>193</ele>
        <time>2023-05-27T06:35:29Z</time>
      </trkpt>
      <trkpt lat="43.41394" lon="1.64698">
        <ele>193</ele>
        <time>2023-05-27T06:35:30Z</time>
      </trkpt>
      <trkpt lat="43.4139" lon="1.64702">
        <ele>193</ele>
        <time>2023-05-27T06:35:31Z</time>
      </trkpt>
      <trkpt lat="43.41387" lon="1.64704">
        <ele>193</ele>
        <time>2023-05-27T06:35:32Z</time>
      </trkpt>
      <trkpt lat="43.41383" lon="1.64707">
        <ele>193</ele>
        <time>2023-05-27T06:35:33Z</time>
      </trkpt>
      <trkpt lat="43.4138" lon="1.64708">
        <ele>193</ele>
        <time>2023-05-27T06:35:34Z</time>
      </trkpt>
      <trkpt lat="43.41375" lon="1.64711">
        <ele>193</ele>
        <time>2023-05-27T06:35:35Z</time>
      </trkpt>
      <trkpt lat="43.41372" lon="1.64714">
        <ele>193</ele>
        <time>2023-05-27T06:35:36Z</time>
      </trkpt>
      <trkpt lat="43.41369" lon="1.64716">
        <ele>193</ele>
        <time>2023-05-27T06:35:37Z</time>
      </trkpt>
      <trkpt lat="43.41365" lon="1.64718">
        <ele>193</ele>
        <time>2023-05-27T06:35:38Z</time>
      </trkpt>
      <trkpt lat="43.41361" lon="1.64721">
        <ele>193</ele>
        <time>2023-05-27T06:35:39Z</time>
      </trkpt>
      <trkpt lat="43.41357" lon="1.64723">
        <ele>193</ele>
        <time>2023-05-27T06:35:40Z</time>
      </trkpt>
      <trkpt lat="43.41354" lon="1.64725">
        <ele>193</ele>
        <time>2023-05-27T06:35:41Z</time>
      </trkpt>
      <trkpt lat="43.4135" lon="1.64727">
        <ele>193</ele>
        <time>2023-05-27T06:35:42Z</time>
      </trkpt>
      <trkpt lat="43.41346" lon="1.64728">
        <ele>193</ele>
        <time>2023-05-27T06:35:43Z</time>
      </trkpt>
      <trkpt lat="43.41342" lon="1.64729">
        <ele>193</ele>
        <time>2023-05-27T06:35:44Z</time>
      </trkpt>
      <trkpt lat="43.41338" lon="1.64731">
        <ele>193</ele>
        <time>2023-05-27T06:35:45Z</time>
      </trkpt>
      <trkpt lat="43.41335" lon="1.64733">
        <ele>193</ele>
        <time>2023-05-27T06:35:46Z</time>
      </trkpt>
      <trkpt lat="43.41329" lon="1.64734">
        <ele>193.2</ele>
        <time>2023-05-27T06:35:47Z</time>
      </trkpt>
      <trkpt lat="43.41324" lon="1.64736">
        <ele>193.2</ele>
        <time>2023-05-27T06:35:48Z</time>
      </trkpt>
      <trkpt lat="43.41321" lon="1.64737">
        <ele>193.2</ele>
        <time>2023-05-27T06:35:49Z</time>
      </trkpt>
      <trkpt lat="43.41319" lon="1.64738">
        <ele>193.2</ele>
        <time>2023-05-27T06:35:50Z</time>
      </trkpt>
      <trkpt lat="43.41315" lon="1.64739">
        <ele>193.2</ele>
        <time>2023-05-27T06:35:51Z</time>
      </trkpt>
      <trkpt lat="43.41311" lon="1.64741">
        <ele>193.4</ele>
        <time>2023-05-27T06:35:52Z</time>
      </trkpt>
      <trkpt lat="43.41306" lon="1.64742">
        <ele>193.4</ele>
        <time>2023-05-27T06:35:53Z</time>
      </trkpt>
      <trkpt lat="43.41302" lon="1.64743">
        <ele>193.4</ele>
        <time>2023-05-27T06:35:54Z</time>
      </trkpt>
      <trkpt lat="43.41297" lon="1.64744">
        <ele>193.4</ele>
        <time>2023-05-27T06:35:55Z</time>
      </trkpt>
      <trkpt lat="43.41293" lon="1.64746">
        <ele>193.6</ele>
        <time>2023-05-27T06:35:56Z</time>
      </trkpt>
      <trkpt lat="43.41288" lon="1.64748">
        <ele>193.6</ele>
        <time>2023-05-27T06:35:57Z</time>
      </trkpt>
      <trkpt lat="43.41284" lon="1.6475">
        <ele>193.6</ele>
        <time>2023-05-27T06:35:58Z</time>
      </trkpt>
      <trkpt lat="43.41279" lon="1.64752">
        <ele>193.6</ele>
        <time>2023-05-27T06:35:59Z</time>
      </trkpt>
      <trkpt lat="43.41275" lon="1.64754">
        <ele>193.6</ele>
        <time>2023-05-27T06:36:00Z</time>
      </trkpt>
      <trkpt lat="43.41272" lon="1.64755">
        <ele>193.6</ele>
        <time>2023-05-27T06:36:01Z</time>
      </trkpt>
      <trkpt lat="43.41267" lon="1.64757">
        <ele>193.8</ele>
        <time>2023-05-27T06:36:02Z</time>
      </trkpt>
      <trkpt lat="43.41263" lon="1.64759">
        <ele>193.8</ele>
        <time>2023-05-27T06:36:03Z</time>
      </trkpt>
      <trkpt lat="43.41261" lon="1.64758">
        <ele>193.8</ele>
        <time>2023-05-27T06:36:04Z</time>
      </trkpt>
      <trkpt lat="43.41258" lon="1.6476">
        <ele>194</ele>
        <time>2023-05-27T06:36:05Z</time>
      </trkpt>
      <trkpt lat="43.41253" lon="1.64763">
        <ele>194</ele>
        <time>2023-05-27T06:36:06Z</time>
      </trkpt>
      <trkpt lat="43.4125" lon="1.64765">
        <ele>194.2</ele>
        <time>2023-05-27T06:36:07Z</time>
      </trkpt>
      <trkpt lat="43.41247" lon="1.64767">
        <ele>194.2</ele>
        <time>2023-05-27T06:36:08Z</time>
      </trkpt>
      <trkpt lat="43.41245" lon="1.64769">
        <ele>194.2</ele>
        <time>2023-05-27T06:36:09Z</time>
      </trkpt>
      <trkpt lat="43.41242" lon="1.64771">
        <ele>194.2</ele>
        <time>2023-05-27T06:36:10Z</time>
      </trkpt>
      <trkpt lat="43.4124" lon="1.64773">
        <ele>194.4</ele>
        <time>2023-05-27T06:36:11Z</time>
      </trkpt>
      <trkpt lat="43.41238" lon="1.64776">
        <ele>194.4</ele>
        <time>2023-05-27T06:36:12Z</time>
      </trkpt>
      <trkpt lat="43.41234" lon="1.6478">
        <ele>194.4</ele>
        <time>2023-05-27T06:36:13Z</time>
      </trkpt>
      <trkpt lat="43.41231" lon="1.64783">
        <ele>194.4</ele>
        <time>2023-05-27T06:36:14Z</time>
      </trkpt>
      <trkpt lat="43.41228" lon="1.64785">
        <ele>194.4</ele>
        <time>2023-05-27T06:36:15Z</time>
      </trkpt>
      <trkpt lat="43.41226" lon="1.64788">
        <ele>194.4</ele>
        <time>2023-05-27T06:36:16Z</time>
      </trkpt>
      <trkpt lat="43.41223" lon="1.6479">
        <ele>194.4</ele>
        <time>2023-05-27T06:36:17Z</time>
      </trkpt>
      <trkpt lat="43.41221" lon="1.64793">
        <ele>194.4</ele>
        <time>2023-05-27T06:36:18Z</time>
      </trkpt>
      <trkpt lat="43.4122" lon="1.64795">
        <ele>194.4</ele>
        <time>2023-05-27T06:36:19Z</time>
      </trkpt>
      <trkpt lat="43.41217" lon="1.648">
        <ele>194.4</ele>
        <time>2023-05-27T06:36:20Z</time>
      </trkpt>
      <trkpt lat="43.41214" lon="1.64803">
        <ele>194.2</ele>
        <time>2023-05-27T06:36:21Z</time>
      </trkpt>
      <trkpt lat="43.41211" lon="1.64808">
        <ele>194.2</ele>
        <time>2023-05-27T06:36:22Z</time>
      </trkpt>
      <trkpt lat="43.41206" lon="1.64813">
        <ele>194.2</ele>
        <time>2023-05-27T06:36:23Z</time>
      </trkpt>
      <trkpt lat="43.41205" lon="1.64818">
        <ele>194.4</ele>
        <time>2023-05-27T06:36:24Z</time>
      </trkpt>
      <trkpt lat="43.41202" lon="1.64823">
        <ele>194.2</ele>
        <time>2023-05-27T06:36:25Z</time>
      </trkpt>
      <trkpt lat="43.41199" lon="1.64828">
        <ele>194.2</ele>
        <time>2023-05-27T06:36:26Z</time>
      </trkpt>
      <trkpt lat="43.41195" lon="1.64834">
        <ele>194.2</ele>
        <time>2023-05-27T06:36:27Z</time>
      </trkpt>
      <trkpt lat="43.41191" lon="1.6484">
        <ele>194.2</ele>
        <time>2023-05-27T06:36:28Z</time>
      </trkpt>
      <trkpt lat="43.41189" lon="1.64845">
        <ele>194.2</ele>
        <time>2023-05-27T06:36:29Z</time>
      </trkpt>
      <trkpt lat="43.41188" lon="1.64851">
        <ele>194.2</ele>
        <time>2023-05-27T06:36:30Z</time>
      </trkpt>
      <trkpt lat="43.41184" lon="1.64858">
        <ele>194.2</ele>
        <time>2023-05-27T06:36:31Z</time>
      </trkpt>
      <trkpt lat="43.4118" lon="1.64865">
        <ele>194.2</ele>
        <time>2023-05-27T06:36:32Z</time>
      </trkpt>
      <trkpt lat="43.41178" lon="1.64871">
        <ele>194.2</ele>
        <time>2023-05-27T06:36:33Z</time>
      </trkpt>
      <trkpt lat="43.41177" lon="1.64877">
        <ele>194.2</ele>
        <time>2023-05-27T06:36:34Z</time>
      </trkpt>
      <trkpt lat="43.41173" lon="1.64884">
        <ele>194</ele>
        <time>2023-05-27T06:36:35Z</time>
      </trkpt>
      <trkpt lat="43.41172" lon="1.64889">
        <ele>194</ele>
        <time>2023-05-27T06:36:36Z</time>
      </trkpt>
      <trkpt lat="43.41169" lon="1.64895">
        <ele>194</ele>
        <time>2023-05-27T06:36:37Z</time>
      </trkpt>
      <trkpt lat="43.41168" lon="1.64901">
        <ele>194</ele>
        <time>2023-05-27T06:36:38Z</time>
      </trkpt>
      <trkpt lat="43.41169" lon="1.64905">
        <ele>193.8</ele>
        <time>2023-05-27T06:36:39Z</time>
      </trkpt>
      <trkpt lat="43.41166" lon="1.64911">
        <ele>193.8</ele>
        <time>2023-05-27T06:36:40Z</time>
      </trkpt>
      <trkpt lat="43.41162" lon="1.64917">
        <ele>193.8</ele>
        <time>2023-05-27T06:36:41Z</time>
      </trkpt>
      <trkpt lat="43.41162" lon="1.64922">
        <ele>193.8</ele>
        <time>2023-05-27T06:36:42Z</time>
      </trkpt>
      <trkpt lat="43.41162" lon="1.64928">
        <ele>193.8</ele>
        <time>2023-05-27T06:36:43Z</time>
      </trkpt>
      <trkpt lat="43.4116" lon="1.64934">
        <ele>193.8</ele>
        <time>2023-05-27T06:36:44Z</time>
      </trkpt>
      <trkpt lat="43.41157" lon="1.64942">
        <ele>193.8</ele>
        <time>2023-05-27T06:36:45Z</time>
      </trkpt>
      <trkpt lat="43.41155" lon="1.64948">
        <ele>193.6</ele>
        <time>2023-05-27T06:36:46Z</time>
      </trkpt>
      <trkpt lat="43.41154" lon="1.64952">
        <ele>193.6</ele>
        <time>2023-05-27T06:36:47Z</time>
      </trkpt>
      <trkpt lat="43.41153" lon="1.64957">
        <ele>193.6</ele>
        <time>2023-05-27T06:36:48Z</time>
      </trkpt>
      <trkpt lat="43.41153" lon="1.64962">
        <ele>193.6</ele>
        <time>2023-05-27T06:36:49Z</time>
      </trkpt>
      <trkpt lat="43.41151" lon="1.64968">
        <ele>193.6</ele>
        <time>2023-05-27T06:36:50Z</time>
      </trkpt>
      <trkpt lat="43.41149" lon="1.64977">
        <ele>193.8</ele>
        <time>2023-05-27T06:36:51Z</time>
      </trkpt>
      <trkpt lat="43.41145" lon="1.64984">
        <ele>193.8</ele>
        <time>2023-05-27T06:36:52Z</time>
      </trkpt>
      <trkpt lat="43.41144" lon="1.6499">
        <ele>193.8</ele>
        <time>2023-05-27T06:36:53Z</time>
      </trkpt>
      <trkpt lat="43.41143" lon="1.64995">
        <ele>193.8</ele>
        <time>2023-05-27T06:36:54Z</time>
      </trkpt>
      <trkpt lat="43.41143" lon="1.65002">
        <ele>193.8</ele>
        <time>2023-05-27T06:36:55Z</time>
      </trkpt>
      <trkpt lat="43.41143" lon="1.65005">
        <ele>193.8</ele>
        <time>2023-05-27T06:36:56Z</time>
      </trkpt>
      <trkpt lat="43.41141" lon="1.65011">
        <ele>193.8</ele>
        <time>2023-05-27T06:36:57Z</time>
      </trkpt>
      <trkpt lat="43.41139" lon="1.65018">
        <ele>193.8</ele>
        <time>2023-05-27T06:36:58Z</time>
      </trkpt>
      <trkpt lat="43.41139" lon="1.65024">
        <ele>193.8</ele>
        <time>2023-05-27T06:36:59Z</time>
      </trkpt>
      <trkpt lat="43.41139" lon="1.65031">
        <ele>193.8</ele>
        <time>2023-05-27T06:37:00Z</time>
      </trkpt>
      <trkpt lat="43.41138" lon="1.65038">
        <ele>193.8</ele>
        <time>2023-05-27T06:37:01Z</time>
      </trkpt>
      <trkpt lat="43.41137" lon="1.65048">
        <ele>193.8</ele>
        <time>2023-05-27T06:37:02Z</time>
      </trkpt>
      <trkpt lat="43.41137" lon="1.65054">
        <ele>193.8</ele>
        <time>2023-05-27T06:37:03Z</time>
      </trkpt>
      <trkpt lat="43.41138" lon="1.6506">
        <ele>193.6</ele>
        <time>2023-05-27T06:37:04Z</time>
      </trkpt>
      <trkpt lat="43.41136" lon="1.65064">
        <ele>193.6</ele>
        <time>2023-05-27T06:37:05Z</time>
      </trkpt>
      <trkpt lat="43.41133" lon="1.6507">
        <ele>193.6</ele>
        <time>2023-05-27T06:37:06Z</time>
      </trkpt>
      <trkpt lat="43.41127" lon="1.65079">
        <ele>193.6</ele>
        <time>2023-05-27T06:37:07Z</time>
      </trkpt>
      <trkpt lat="43.41123" lon="1.65087">
        <ele>193.6</ele>
        <time>2023-05-27T06:37:08Z</time>
      </trkpt>
      <trkpt lat="43.41122" lon="1.65095">
        <ele>193.4</ele>
        <time>2023-05-27T06:37:09Z</time>
      </trkpt>
      <trkpt lat="43.41121" lon="1.65103">
        <ele>193.4</ele>
        <time>2023-05-27T06:37:10Z</time>
      </trkpt>
      <trkpt lat="43.41122" lon="1.65111">
        <ele>193.2</ele>
        <time>2023-05-27T06:37:11Z</time>
      </trkpt>
      <trkpt lat="43.41126" lon="1.65119">
        <ele>193.2</ele>
        <time>2023-05-27T06:37:12Z</time>
      </trkpt>
      <trkpt lat="43.41127" lon="1.65127">
        <ele>193</ele>
        <time>2023-05-27T06:37:13Z</time>
      </trkpt>
      <trkpt lat="43.41126" lon="1.65132">
        <ele>193</ele>
        <time>2023-05-27T06:37:14Z</time>
      </trkpt>
      <trkpt lat="43.41124" lon="1.65139">
        <ele>192.8</ele>
        <time>2023-05-27T06:37:15Z</time>
      </trkpt>
      <trkpt lat="43.41124" lon="1.65145">
        <ele>192.8</ele>
        <time>2023-05-27T06:37:16Z</time>
      </trkpt>
      <trkpt lat="43.4112" lon="1.65149">
        <ele>192.8</ele>
        <time>2023-05-27T06:37:17Z</time>
      </trkpt>
      <trkpt lat="43.41122" lon="1.65154">
        <ele>192.8</ele>
        <time>2023-05-27T06:37:18Z</time>
      </trkpt>
      <trkpt lat="43.41121" lon="1.65157">
        <ele>192.8</ele>
        <time>2023-05-27T06:37:19Z</time>
      </trkpt>
      <trkpt lat="43.41121" lon="1.65159">
        <ele>192.8</ele>
        <time>2023-05-27T06:37:20Z</time>
      </trkpt>
      <trkpt lat="43.41121" lon="1.65165">
        <ele>192.8</ele>
        <time>2023-05-27T06:37:21Z</time>
      </trkpt>
      <trkpt lat="43.4112" lon="1.65172">
        <ele>192.8</ele>
        <time>2023-05-27T06:37:22Z</time>
      </trkpt>
      <trkpt lat="43.4112" lon="1.65178">
        <ele>192.8</ele>
        <time>2023-05-27T06:37:23Z</time>
      </trkpt>
      <trkpt lat="43.41121" lon="1.65184">
        <ele>192.8</ele>
        <time>2023-05-27T06:37:24Z</time>
      </trkpt>
      <trkpt lat="43.41122" lon="1.65191">
        <ele>193</ele>
        <time>2023-05-27T06:37:25Z</time>
      </trkpt>
      <trkpt lat="43.41123" lon="1.65197">
        <ele>193</ele>
        <time>2023-05-27T06:37:26Z</time>
      </trkpt>
      <trkpt lat="43.41124" lon="1.65202">
        <ele>193.2</ele>
        <time>2023-05-27T06:37:27Z</time>
      </trkpt>
      <trkpt lat="43.41125" lon="1.65206">
        <ele>193.4</ele>
        <time>2023-05-27T06:37:28Z</time>
      </trkpt>
      <trkpt lat="43.41125" lon="1.65211">
        <ele>193.6</ele>
        <time>2023-05-27T06:37:29Z</time>
      </trkpt>
      <trkpt lat="43.41125" lon="1.65216">
        <ele>193.8</ele>
        <time>2023-05-27T06:37:30Z</time>
      </trkpt>
      <trkpt lat="43.41125" lon="1.6522">
        <ele>193.8</ele>
        <time>2023-05-27T06:37:31Z</time>
      </trkpt>
      <trkpt lat="43.41125" lon="1.65223">
        <ele>194</ele>
        <time>2023-05-27T06:37:32Z</time>
      </trkpt>
      <trkpt lat="43.41125" lon="1.65226">
        <ele>194</ele>
        <time>2023-05-27T06:37:33Z</time>
      </trkpt>
      <trkpt lat="43.41125" lon="1.6523">
        <ele>194</ele>
        <time>2023-05-27T06:37:34Z</time>
      </trkpt>
      <trkpt lat="43.41126" lon="1.65234">
        <ele>194.2</ele>
        <time>2023-05-27T06:37:35Z</time>
      </trkpt>
      <trkpt lat="43.41127" lon="1.65239">
        <ele>194.2</ele>
        <time>2023-05-27T06:37:36Z</time>
      </trkpt>
      <trkpt lat="43.41127" lon="1.65243">
        <ele>194.2</ele>
        <time>2023-05-27T06:37:37Z</time>
      </trkpt>
      <trkpt lat="43.41128" lon="1.6525">
        <ele>194.2</ele>
        <time>2023-05-27T06:37:38Z</time>
      </trkpt>
      <trkpt lat="43.4113" lon="1.65257">
        <ele>194.2</ele>
        <time>2023-05-27T06:37:39Z</time>
      </trkpt>
      <trkpt lat="43.41131" lon="1.65262">
        <ele>194.2</ele>
        <time>2023-05-27T06:37:40Z</time>
      </trkpt>
      <trkpt lat="43.41132" lon="1.65268">
        <ele>194.2</ele>
        <time>2023-05-27T06:37:41Z</time>
      </trkpt>
      <trkpt lat="43.41132" lon="1.65273">
        <ele>194.4</ele>
        <time>2023-05-27T06:37:42Z</time>
      </trkpt>
      <trkpt lat="43.41132" lon="1.65279">
        <ele>194.4</ele>
        <time>2023-05-27T06:37:43Z</time>
      </trkpt>
      <trkpt lat="43.41131" lon="1.65283">
        <ele>194.4</ele>
        <time>2023-05-27T06:37:44Z</time>
      </trkpt>
      <trkpt lat="43.41132" lon="1.65287">
        <ele>194.6</ele>
        <time>2023-05-27T06:37:45Z</time>
      </trkpt>
      <trkpt lat="43.41133" lon="1.65291">
        <ele>194.6</ele>
        <time>2023-05-27T06:37:46Z</time>
      </trkpt>
      <trkpt lat="43.41135" lon="1.65294">
        <ele>194.8</ele>
        <time>2023-05-27T06:37:47Z</time>
      </trkpt>
      <trkpt lat="43.41136" lon="1.65299">
        <ele>194.8</ele>
        <time>2023-05-27T06:37:48Z</time>
      </trkpt>
      <trkpt lat="43.41138" lon="1.65305">
        <ele>195</ele>
        <time>2023-05-27T06:37:49Z</time>
      </trkpt>
      <trkpt lat="43.41139" lon="1.65312">
        <ele>195</ele>
        <time>2023-05-27T06:37:50Z</time>
      </trkpt>
      <trkpt lat="43.41141" lon="1.65318">
        <ele>195</ele>
        <time>2023-05-27T06:37:51Z</time>
      </trkpt>
      <trkpt lat="43.41142" lon="1.65323">
        <ele>195</ele>
        <time>2023-05-27T06:37:52Z</time>
      </trkpt>
      <trkpt lat="43.41144" lon="1.65329">
        <ele>195</ele>
        <time>2023-05-27T06:37:53Z</time>
      </trkpt>
      <trkpt lat="43.41143" lon="1.65335">
        <ele>195.2</ele>
        <time>2023-05-27T06:37:54Z</time>
      </trkpt>
      <trkpt lat="43.41144" lon="1.6534">
        <ele>195.2</ele>
        <time>2023-05-27T06:37:55Z</time>
      </trkpt>
      <trkpt lat="43.41148" lon="1.65347">
        <ele>195.2</ele>
        <time>2023-05-27T06:37:56Z</time>
      </trkpt>
      <trkpt lat="43.4115" lon="1.65352">
        <ele>195.2</ele>
        <time>2023-05-27T06:37:57Z</time>
      </trkpt>
      <trkpt lat="43.41151" lon="1.65356">
        <ele>195.2</ele>
        <time>2023-05-27T06:37:58Z</time>
      </trkpt>
      <trkpt lat="43.41151" lon="1.65359">
        <ele>195.2</ele>
        <time>2023-05-27T06:37:59Z</time>
      </trkpt>
      <trkpt lat="43.41153" lon="1.65365">
        <ele>195.2</ele>
        <time>2023-05-27T06:38:00Z</time>
      </trkpt>
      <trkpt lat="43.41155" lon="1.65372">
        <ele>195.2</ele>
        <time>2023-05-27T06:38:01Z</time>
      </trkpt>
      <trkpt lat="43.41156" lon="1.65377">
        <ele>195.2</ele>
        <time>2023-05-27T06:38:02Z</time>
      </trkpt>
      <trkpt lat="43.41158" lon="1.65383">
        <ele>195.4</ele>
        <time>2023-05-27T06:38:03Z</time>
      </trkpt>
      <trkpt lat="43.41159" lon="1.65388">
        <ele>195.4</ele>
        <time>2023-05-27T06:38:04Z</time>
      </trkpt>
      <trkpt lat="43.41161" lon="1.65393">
        <ele>195.4</ele>
        <time>2023-05-27T06:38:05Z</time>
      </trkpt>
      <trkpt lat="43.41162" lon="1.65399">
        <ele>195.4</ele>
        <time>2023-05-27T06:38:06Z</time>
      </trkpt>
      <trkpt lat="43.41164" lon="1.65403">
        <ele>195.4</ele>
        <time>2023-05-27T06:38:07Z</time>
      </trkpt>
      <trkpt lat="43.41165" lon="1.65408">
        <ele>195.6</ele>
        <time>2023-05-27T06:38:08Z</time>
      </trkpt>
      <trkpt lat="43.41167" lon="1.65413">
        <ele>195.4</ele>
        <time>2023-05-27T06:38:09Z</time>
      </trkpt>
      <trkpt lat="43.41168" lon="1.65419">
        <ele>195.4</ele>
        <time>2023-05-27T06:38:10Z</time>
      </trkpt>
      <trkpt lat="43.41169" lon="1.65426">
        <ele>195.4</ele>
        <time>2023-05-27T06:38:11Z</time>
      </trkpt>
      <trkpt lat="43.41171" lon="1.65433">
        <ele>195.2</ele>
        <time>2023-05-27T06:38:12Z</time>
      </trkpt>
      <trkpt lat="43.41172" lon="1.65439">
        <ele>195</ele>
        <time>2023-05-27T06:38:13Z</time>
      </trkpt>
      <trkpt lat="43.41174" lon="1.65446">
        <ele>194.8</ele>
        <time>2023-05-27T06:38:14Z</time>
      </trkpt>
      <trkpt lat="43.41176" lon="1.65453">
        <ele>194.6</ele>
        <time>2023-05-27T06:38:15Z</time>
      </trkpt>
      <trkpt lat="43.41177" lon="1.6546">
        <ele>194.4</ele>
        <time>2023-05-27T06:38:16Z</time>
      </trkpt>
      <trkpt lat="43.41178" lon="1.65467">
        <ele>194.4</ele>
        <time>2023-05-27T06:38:17Z</time>
      </trkpt>
      <trkpt lat="43.4118" lon="1.65473">
        <ele>194.2</ele>
        <time>2023-05-27T06:38:18Z</time>
      </trkpt>
      <trkpt lat="43.41181" lon="1.65482">
        <ele>194</ele>
        <time>2023-05-27T06:38:19Z</time>
      </trkpt>
      <trkpt lat="43.41183" lon="1.65489">
        <ele>193.8</ele>
        <time>2023-05-27T06:38:20Z</time>
      </trkpt>
      <trkpt lat="43.41185" lon="1.65498">
        <ele>193.8</ele>
        <time>2023-05-27T06:38:21Z</time>
      </trkpt>
      <trkpt lat="43.41186" lon="1.65506">
        <ele>193.8</ele>
        <time>2023-05-27T06:38:22Z</time>
      </trkpt>
      <trkpt lat="43.41188" lon="1.65512">
        <ele>193.8</ele>
        <time>2023-05-27T06:38:23Z</time>
      </trkpt>
      <trkpt lat="43.41189" lon="1.6552">
        <ele>193.8</ele>
        <time>2023-05-27T06:38:24Z</time>
      </trkpt>
      <trkpt lat="43.4119" lon="1.65526">
        <ele>194</ele>
        <time>2023-05-27T06:38:25Z</time>
      </trkpt>
      <trkpt lat="43.41192" lon="1.65532">
        <ele>194</ele>
        <time>2023-05-27T06:38:26Z</time>
      </trkpt>
      <trkpt lat="43.41193" lon="1.65537">
        <ele>194</ele>
        <time>2023-05-27T06:38:27Z</time>
      </trkpt>
      <trkpt lat="43.41195" lon="1.65544">
        <ele>194</ele>
        <time>2023-05-27T06:38:28Z</time>
      </trkpt>
      <trkpt lat="43.41196" lon="1.65549">
        <ele>194</ele>
        <time>2023-05-27T06:38:29Z</time>
      </trkpt>
      <trkpt lat="43.41197" lon="1.65555">
        <ele>194.2</ele>
        <time>2023-05-27T06:38:30Z</time>
      </trkpt>
      <trkpt lat="43.41199" lon="1.65559">
        <ele>194.2</ele>
        <time>2023-05-27T06:38:31Z</time>
      </trkpt>
      <trkpt lat="43.412" lon="1.65566">
        <ele>194.2</ele>
        <time>2023-05-27T06:38:32Z</time>
      </trkpt>
      <trkpt lat="43.41201" lon="1.65571">
        <ele>194.2</ele>
        <time>2023-05-27T06:38:33Z</time>
      </trkpt>
      <trkpt lat="43.41202" lon="1.65576">
        <ele>194.2</ele>
        <time>2023-05-27T06:38:34Z</time>
      </trkpt>
      <trkpt lat="43.41204" lon="1.65581">
        <ele>194.2</ele>
        <time>2023-05-27T06:38:35Z</time>
      </trkpt>
      <trkpt lat="43.41205" lon="1.65585">
        <ele>194.2</ele>
        <time>2023-05-27T06:38:36Z</time>
      </trkpt>
      <trkpt lat="43.41206" lon="1.6559">
        <ele>194.2</ele>
        <time>2023-05-27T06:38:37Z</time>
      </trkpt>
      <trkpt lat="43.41208" lon="1.65596">
        <ele>194.2</ele>
        <time>2023-05-27T06:38:38Z</time>
      </trkpt>
      <trkpt lat="43.41209" lon="1.656">
        <ele>194.2</ele>
        <time>2023-05-27T06:38:39Z</time>
      </trkpt>
      <trkpt lat="43.4121" lon="1.65605">
        <ele>194.2</ele>
        <time>2023-05-27T06:38:40Z</time>
      </trkpt>
      <trkpt lat="43.41211" lon="1.65608">
        <ele>194.2</ele>
        <time>2023-05-27T06:38:41Z</time>
      </trkpt>
      <trkpt lat="43.41211" lon="1.65611">
        <ele>194.2</ele>
        <time>2023-05-27T06:38:42Z</time>
      </trkpt>
      <trkpt lat="43.41212" lon="1.65615">
        <ele>194.2</ele>
        <time>2023-05-27T06:38:43Z</time>
      </trkpt>
      <trkpt lat="43.41213" lon="1.6562">
        <ele>194.2</ele>
        <time>2023-05-27T06:38:44Z</time>
      </trkpt>
      <trkpt lat="43.41214" lon="1.65624">
        <ele>194.2</ele>
        <time>2023-05-27T06:38:45Z</time>
      </trkpt>
      <trkpt lat="43.41215" lon="1.6563">
        <ele>194.2</ele>
        <time>2023-05-27T06:38:46Z</time>
      </trkpt>
      <trkpt lat="43.41217" lon="1.65636">
        <ele>194</ele>
        <time>2023-05-27T06:38:47Z</time>
      </trkpt>
      <trkpt lat="43.41219" lon="1.65644">
        <ele>194</ele>
        <time>2023-05-27T06:38:48Z</time>
      </trkpt>
      <trkpt lat="43.4122" lon="1.6565">
        <ele>194</ele>
        <time>2023-05-27T06:38:49Z</time>
      </trkpt>
      <trkpt lat="43.41221" lon="1.65656">
        <ele>194</ele>
        <time>2023-05-27T06:38:50Z</time>
      </trkpt>
      <trkpt lat="43.41223" lon="1.65662">
        <ele>194</ele>
        <time>2023-05-27T06:38:51Z</time>
      </trkpt>
      <trkpt lat="43.41225" lon="1.65669">
        <ele>194</ele>
        <time>2023-05-27T06:38:52Z</time>
      </trkpt>
      <trkpt lat="43.41226" lon="1.65674">
        <ele>194.2</ele>
        <time>2023-05-27T06:38:53Z</time>
      </trkpt>
      <trkpt lat="43.41226" lon="1.65678">
        <ele>194.2</ele>
        <time>2023-05-27T06:38:54Z</time>
      </trkpt>
      <trkpt lat="43.41226" lon="1.65682">
        <ele>194.4</ele>
        <time>2023-05-27T06:38:55Z</time>
      </trkpt>
      <trkpt lat="43.41226" lon="1.65686">
        <ele>194.6</ele>
        <time>2023-05-27T06:38:56Z</time>
      </trkpt>
      <trkpt lat="43.41226" lon="1.65691">
        <ele>194.6</ele>
        <time>2023-05-27T06:38:57Z</time>
      </trkpt>
      <trkpt lat="43.41226" lon="1.65695">
        <ele>194.8</ele>
        <time>2023-05-27T06:38:58Z</time>
      </trkpt>
      <trkpt lat="43.41226" lon="1.657">
        <ele>194.8</ele>
        <time>2023-05-27T06:38:59Z</time>
      </trkpt>
      <trkpt lat="43.41226" lon="1.65705">
        <ele>194.8</ele>
        <time>2023-05-27T06:39:00Z</time>
      </trkpt>
      <trkpt lat="43.41226" lon="1.65712">
        <ele>194.6</ele>
        <time>2023-05-27T06:39:01Z</time>
      </trkpt>
      <trkpt lat="43.41226" lon="1.65718">
        <ele>194.4</ele>
        <time>2023-05-27T06:39:02Z</time>
      </trkpt>
      <trkpt lat="43.41226" lon="1.65724">
        <ele>194.2</ele>
        <time>2023-05-27T06:39:03Z</time>
      </trkpt>
      <trkpt lat="43.41226" lon="1.65732">
        <ele>194</ele>
        <time>2023-05-27T06:39:04Z</time>
      </trkpt>
      <trkpt lat="43.41227" lon="1.65743">
        <ele>193.6</ele>
        <time>2023-05-27T06:39:05Z</time>
      </trkpt>
      <trkpt lat="43.41228" lon="1.65752">
        <ele>193.4</ele>
        <time>2023-05-27T06:39:06Z</time>
      </trkpt>
      <trkpt lat="43.41228" lon="1.65759">
        <ele>193.2</ele>
        <time>2023-05-27T06:39:07Z</time>
      </trkpt>
      <trkpt lat="43.41228" lon="1.65768">
        <ele>192.8</ele>
        <time>2023-05-27T06:39:08Z</time>
      </trkpt>
      <trkpt lat="43.41228" lon="1.65777">
        <ele>192.6</ele>
        <time>2023-05-27T06:39:09Z</time>
      </trkpt>
      <trkpt lat="43.41228" lon="1.65787">
        <ele>192.4</ele>
        <time>2023-05-27T06:39:10Z</time>
      </trkpt>
      <trkpt lat="43.41228" lon="1.65796">
        <ele>192.4</ele>
        <time>2023-05-27T06:39:11Z</time>
      </trkpt>
      <trkpt lat="43.41228" lon="1.65803">
        <ele>192.2</ele>
        <time>2023-05-27T06:39:12Z</time>
      </trkpt>
      <trkpt lat="43.41228" lon="1.65813">
        <ele>192</ele>
        <time>2023-05-27T06:39:13Z</time>
      </trkpt>
      <trkpt lat="43.41228" lon="1.65822">
        <ele>192</ele>
        <time>2023-05-27T06:39:14Z</time>
      </trkpt>
      <trkpt lat="43.41229" lon="1.6583">
        <ele>191.8</ele>
        <time>2023-05-27T06:39:15Z</time>
      </trkpt>
      <trkpt lat="43.41229" lon="1.65837">
        <ele>191.8</ele>
        <time>2023-05-27T06:39:16Z</time>
      </trkpt>
      <trkpt lat="43.41229" lon="1.65846">
        <ele>191.8</ele>
        <time>2023-05-27T06:39:17Z</time>
      </trkpt>
      <trkpt lat="43.41228" lon="1.65854">
        <ele>191.8</ele>
        <time>2023-05-27T06:39:18Z</time>
      </trkpt>
      <trkpt lat="43.41227" lon="1.65862">
        <ele>191.8</ele>
        <time>2023-05-27T06:39:19Z</time>
      </trkpt>
      <trkpt lat="43.41227" lon="1.65868">
        <ele>192</ele>
        <time>2023-05-27T06:39:20Z</time>
      </trkpt>
      <trkpt lat="43.41226" lon="1.65873">
        <ele>192.2</ele>
        <time>2023-05-27T06:39:21Z</time>
      </trkpt>
      <trkpt lat="43.41225" lon="1.65879">
        <ele>192.4</ele>
        <time>2023-05-27T06:39:22Z</time>
      </trkpt>
      <trkpt lat="43.41225" lon="1.65884">
        <ele>192.4</ele>
        <time>2023-05-27T06:39:23Z</time>
      </trkpt>
      <trkpt lat="43.41224" lon="1.65888">
        <ele>192.6</ele>
        <time>2023-05-27T06:39:24Z</time>
      </trkpt>
      <trkpt lat="43.41224" lon="1.65893">
        <ele>192.6</ele>
        <time>2023-05-27T06:39:25Z</time>
      </trkpt>
      <trkpt lat="43.41224" lon="1.65898">
        <ele>192.6</ele>
        <time>2023-05-27T06:39:26Z</time>
      </trkpt>
      <trkpt lat="43.41223" lon="1.65903">
        <ele>192.8</ele>
        <time>2023-05-27T06:39:27Z</time>
      </trkpt>
      <trkpt lat="43.41223" lon="1.65908">
        <ele>192.8</ele>
        <time>2023-05-27T06:39:28Z</time>
      </trkpt>
      <trkpt lat="43.41222" lon="1.65914">
        <ele>192.8</ele>
        <time>2023-05-27T06:39:29Z</time>
      </trkpt>
      <trkpt lat="43.41221" lon="1.6592">
        <ele>192.8</ele>
        <time>2023-05-27T06:39:30Z</time>
      </trkpt>
      <trkpt lat="43.41221" lon="1.65926">
        <ele>192.8</ele>
        <time>2023-05-27T06:39:31Z</time>
      </trkpt>
      <trkpt lat="43.41219" lon="1.65934">
        <ele>192.8</ele>
        <time>2023-05-27T06:39:32Z</time>
      </trkpt>
      <trkpt lat="43.41218" lon="1.6594">
        <ele>192.8</ele>
        <time>2023-05-27T06:39:33Z</time>
      </trkpt>
      <trkpt lat="43.41217" lon="1.65946">
        <ele>192.8</ele>
        <time>2023-05-27T06:39:34Z</time>
      </trkpt>
      <trkpt lat="43.41216" lon="1.65951">
        <ele>192.8</ele>
        <time>2023-05-27T06:39:35Z</time>
      </trkpt>
      <trkpt lat="43.41214" lon="1.65957">
        <ele>192.8</ele>
        <time>2023-05-27T06:39:36Z</time>
      </trkpt>
      <trkpt lat="43.41212" lon="1.65963">
        <ele>192.8</ele>
        <time>2023-05-27T06:39:37Z</time>
      </trkpt>
      <trkpt lat="43.41209" lon="1.65969">
        <ele>192.8</ele>
        <time>2023-05-27T06:39:38Z</time>
      </trkpt>
      <trkpt lat="43.41208" lon="1.65973">
        <ele>192.8</ele>
        <time>2023-05-27T06:39:39Z</time>
      </trkpt>
      <trkpt lat="43.41206" lon="1.6598">
        <ele>193</ele>
        <time>2023-05-27T06:39:40Z</time>
      </trkpt>
      <trkpt lat="43.41205" lon="1.65986">
        <ele>193</ele>
        <time>2023-05-27T06:39:41Z</time>
      </trkpt>
      <trkpt lat="43.41204" lon="1.65992">
        <ele>193</ele>
        <time>2023-05-27T06:39:42Z</time>
      </trkpt>
      <trkpt lat="43.41203" lon="1.65998">
        <ele>193</ele>
        <time>2023-05-27T06:39:43Z</time>
      </trkpt>
      <trkpt lat="43.41199" lon="1.66005">
        <ele>193</ele>
        <time>2023-05-27T06:39:44Z</time>
      </trkpt>
      <trkpt lat="43.41196" lon="1.66011">
        <ele>193</ele>
        <time>2023-05-27T06:39:45Z</time>
      </trkpt>
      <trkpt lat="43.41195" lon="1.66015">
        <ele>193</ele>
        <time>2023-05-27T06:39:46Z</time>
      </trkpt>
      <trkpt lat="43.41192" lon="1.66021">
        <ele>193</ele>
        <time>2023-05-27T06:39:47Z</time>
      </trkpt>
      <trkpt lat="43.41191" lon="1.66027">
        <ele>192.8</ele>
        <time>2023-05-27T06:39:48Z</time>
      </trkpt>
      <trkpt lat="43.41188" lon="1.66034">
        <ele>192.8</ele>
        <time>2023-05-27T06:39:49Z</time>
      </trkpt>
      <trkpt lat="43.41185" lon="1.6604">
        <ele>192.8</ele>
        <time>2023-05-27T06:39:50Z</time>
      </trkpt>
      <trkpt lat="43.41182" lon="1.66046">
        <ele>192.8</ele>
        <time>2023-05-27T06:39:51Z</time>
      </trkpt>
      <trkpt lat="43.41179" lon="1.66052">
        <ele>192.8</ele>
        <time>2023-05-27T06:39:52Z</time>
      </trkpt>
      <trkpt lat="43.41176" lon="1.66058">
        <ele>192.8</ele>
        <time>2023-05-27T06:39:53Z</time>
      </trkpt>
      <trkpt lat="43.41173" lon="1.66063">
        <ele>192.8</ele>
        <time>2023-05-27T06:39:54Z</time>
      </trkpt>
      <trkpt lat="43.41171" lon="1.66069">
        <ele>192.6</ele>
        <time>2023-05-27T06:39:55Z</time>
      </trkpt>
      <trkpt lat="43.41169" lon="1.66075">
        <ele>192.8</ele>
        <time>2023-05-27T06:39:56Z</time>
      </trkpt>
      <trkpt lat="43.41167" lon="1.6608">
        <ele>192.8</ele>
        <time>2023-05-27T06:39:57Z</time>
      </trkpt>
      <trkpt lat="43.41165" lon="1.66086">
        <ele>192.8</ele>
        <time>2023-05-27T06:39:58Z</time>
      </trkpt>
      <trkpt lat="43.41164" lon="1.66092">
        <ele>192.8</ele>
        <time>2023-05-27T06:39:59Z</time>
      </trkpt>
      <trkpt lat="43.41161" lon="1.66097">
        <ele>192.8</ele>
        <time>2023-05-27T06:40:00Z</time>
      </trkpt>
      <trkpt lat="43.41158" lon="1.66101">
        <ele>192.8</ele>
        <time>2023-05-27T06:40:01Z</time>
      </trkpt>
      <trkpt lat="43.4115" lon="1.66108">
        <ele>192.8</ele>
        <time>2023-05-27T06:40:02Z</time>
      </trkpt>
      <trkpt lat="43.41147" lon="1.66113">
        <ele>192.8</ele>
        <time>2023-05-27T06:40:03Z</time>
      </trkpt>
      <trkpt lat="43.41144" lon="1.66118">
        <ele>192.8</ele>
        <time>2023-05-27T06:40:04Z</time>
      </trkpt>
      <trkpt lat="43.41142" lon="1.66122">
        <ele>192.8</ele>
        <time>2023-05-27T06:40:05Z</time>
      </trkpt>
      <trkpt lat="43.41139" lon="1.66127">
        <ele>192.6</ele>
        <time>2023-05-27T06:40:06Z</time>
      </trkpt>
      <trkpt lat="43.41137" lon="1.66132">
        <ele>192.6</ele>
        <time>2023-05-27T06:40:07Z</time>
      </trkpt>
      <trkpt lat="43.41134" lon="1.66136">
        <ele>192.6</ele>
        <time>2023-05-27T06:40:08Z</time>
      </trkpt>
      <trkpt lat="43.41132" lon="1.6614">
        <ele>192.6</ele>
        <time>2023-05-27T06:40:09Z</time>
      </trkpt>
      <trkpt lat="43.41129" lon="1.66144">
        <ele>192.6</ele>
        <time>2023-05-27T06:40:10Z</time>
      </trkpt>
      <trkpt lat="43.41125" lon="1.66149">
        <ele>192.6</ele>
        <time>2023-05-27T06:40:11Z</time>
      </trkpt>
      <trkpt lat="43.41122" lon="1.66154">
        <ele>192.6</ele>
        <time>2023-05-27T06:40:12Z</time>
      </trkpt>
      <trkpt lat="43.41119" lon="1.66158">
        <ele>192.6</ele>
        <time>2023-05-27T06:40:13Z</time>
      </trkpt>
      <trkpt lat="43.41116" lon="1.66163">
        <ele>192.6</ele>
        <time>2023-05-27T06:40:14Z</time>
      </trkpt>
      <trkpt lat="43.41112" lon="1.66168">
        <ele>192.6</ele>
        <time>2023-05-27T06:40:15Z</time>
      </trkpt>
      <trkpt lat="43.41108" lon="1.66173">
        <ele>192.6</ele>
        <time>2023-05-27T06:40:16Z</time>
      </trkpt>
      <trkpt lat="43.41105" lon="1.66178">
        <ele>192.6</ele>
        <time>2023-05-27T06:40:17Z</time>
      </trkpt>
      <trkpt lat="43.41101" lon="1.66182">
        <ele>192.6</ele>
        <time>2023-05-27T06:40:18Z</time>
      </trkpt>
      <trkpt lat="43.41098" lon="1.66186">
        <ele>192.6</ele>
        <time>2023-05-27T06:40:19Z</time>
      </trkpt>
      <trkpt lat="43.41096" lon="1.66189">
        <ele>192.6</ele>
        <time>2023-05-27T06:40:20Z</time>
      </trkpt>
      <trkpt lat="43.41092" lon="1.66193">
        <ele>192.6</ele>
        <time>2023-05-27T06:40:21Z</time>
      </trkpt>
      <trkpt lat="43.41089" lon="1.66197">
        <ele>192.6</ele>
        <time>2023-05-27T06:40:22Z</time>
      </trkpt>
      <trkpt lat="43.41086" lon="1.66201">
        <ele>192.6</ele>
        <time>2023-05-27T06:40:23Z</time>
      </trkpt>
      <trkpt lat="43.41084" lon="1.66204">
        <ele>192.6</ele>
        <time>2023-05-27T06:40:24Z</time>
      </trkpt>
      <trkpt lat="43.41081" lon="1.66208">
        <ele>192.6</ele>
        <time>2023-05-27T06:40:25Z</time>
      </trkpt>
      <trkpt lat="43.41078" lon="1.66212">
        <ele>192.6</ele>
        <time>2023-05-27T06:40:26Z</time>
      </trkpt>
      <trkpt lat="43.41074" lon="1.66216">
        <ele>192.6</ele>
        <time>2023-05-27T06:40:27Z</time>
      </trkpt>
      <trkpt lat="43.41071" lon="1.6622">
        <ele>192.6</ele>
        <time>2023-05-27T06:40:28Z</time>
      </trkpt>
      <trkpt lat="43.41068" lon="1.66224">
        <ele>192.6</ele>
        <time>2023-05-27T06:40:29Z</time>
      </trkpt>
      <trkpt lat="43.41065" lon="1.66227">
        <ele>192.6</ele>
        <time>2023-05-27T06:40:30Z</time>
      </trkpt>
      <trkpt lat="43.41061" lon="1.66231">
        <ele>192.6</ele>
        <time>2023-05-27T06:40:31Z</time>
      </trkpt>
      <trkpt lat="43.41056" lon="1.66235">
        <ele>192.6</ele>
        <time>2023-05-27T06:40:32Z</time>
      </trkpt>
      <trkpt lat="43.41053" lon="1.6624">
        <ele>192.6</ele>
        <time>2023-05-27T06:40:33Z</time>
      </trkpt>
      <trkpt lat="43.41049" lon="1.66245">
        <ele>192.6</ele>
        <time>2023-05-27T06:40:34Z</time>
      </trkpt>
      <trkpt lat="43.41044" lon="1.66249">
        <ele>192.6</ele>
        <time>2023-05-27T06:40:35Z</time>
      </trkpt>
      <trkpt lat="43.41041" lon="1.66253">
        <ele>192.6</ele>
        <time>2023-05-27T06:40:36Z</time>
      </trkpt>
      <trkpt lat="43.41037" lon="1.66258">
        <ele>192.6</ele>
        <time>2023-05-27T06:40:37Z</time>
      </trkpt>
      <trkpt lat="43.41033" lon="1.66263">
        <ele>192.6</ele>
        <time>2023-05-27T06:40:38Z</time>
      </trkpt>
      <trkpt lat="43.41029" lon="1.66267">
        <ele>192.4</ele>
        <time>2023-05-27T06:40:39Z</time>
      </trkpt>
      <trkpt lat="43.41025" lon="1.66272">
        <ele>192.6</ele>
        <time>2023-05-27T06:40:40Z</time>
      </trkpt>
      <trkpt lat="43.41022" lon="1.66275">
        <ele>192.6</ele>
        <time>2023-05-27T06:40:41Z</time>
      </trkpt>
      <trkpt lat="43.41017" lon="1.6628">
        <ele>192.6</ele>
        <time>2023-05-27T06:40:42Z</time>
      </trkpt>
      <trkpt lat="43.41011" lon="1.66285">
        <ele>192.6</ele>
        <time>2023-05-27T06:40:43Z</time>
      </trkpt>
      <trkpt lat="43.41007" lon="1.6629">
        <ele>192.6</ele>
        <time>2023-05-27T06:40:44Z</time>
      </trkpt>
      <trkpt lat="43.41003" lon="1.66294">
        <ele>192.6</ele>
        <time>2023-05-27T06:40:45Z</time>
      </trkpt>
      <trkpt lat="43.41" lon="1.66299">
        <ele>192.6</ele>
        <time>2023-05-27T06:40:46Z</time>
      </trkpt>
      <trkpt lat="43.40997" lon="1.66303">
        <ele>192.6</ele>
        <time>2023-05-27T06:40:47Z</time>
      </trkpt>
      <trkpt lat="43.40993" lon="1.66307">
        <ele>192.6</ele>
        <time>2023-05-27T06:40:48Z</time>
      </trkpt>
      <trkpt lat="43.4099" lon="1.66311">
        <ele>192.6</ele>
        <time>2023-05-27T06:40:49Z</time>
      </trkpt>
      <trkpt lat="43.40987" lon="1.66315">
        <ele>192.6</ele>
        <time>2023-05-27T06:40:50Z</time>
      </trkpt>
      <trkpt lat="43.40983" lon="1.66319">
        <ele>192.6</ele>
        <time>2023-05-27T06:40:51Z</time>
      </trkpt>
      <trkpt lat="43.40979" lon="1.66323">
        <ele>192.6</ele>
        <time>2023-05-27T06:40:52Z</time>
      </trkpt>
      <trkpt lat="43.40974" lon="1.66326">
        <ele>192.6</ele>
        <time>2023-05-27T06:40:53Z</time>
      </trkpt>
      <trkpt lat="43.4097" lon="1.6633">
        <ele>192.6</ele>
        <time>2023-05-27T06:40:54Z</time>
      </trkpt>
      <trkpt lat="43.40966" lon="1.66333">
        <ele>192.6</ele>
        <time>2023-05-27T06:40:55Z</time>
      </trkpt>
      <trkpt lat="43.40961" lon="1.66338">
        <ele>192.8</ele>
        <time>2023-05-27T06:40:56Z</time>
      </trkpt>
      <trkpt lat="43.40957" lon="1.66343">
        <ele>192.8</ele>
        <time>2023-05-27T06:40:57Z</time>
      </trkpt>
      <trkpt lat="43.40952" lon="1.66348">
        <ele>192.8</ele>
        <time>2023-05-27T06:40:58Z</time>
      </trkpt>
      <trkpt lat="43.40947" lon="1.66353">
        <ele>192.8</ele>
        <time>2023-05-27T06:40:59Z</time>
      </trkpt>
      <trkpt lat="43.40943" lon="1.66356">
        <ele>192.8</ele>
        <time>2023-05-27T06:41:00Z</time>
      </trkpt>
      <trkpt lat="43.4094" lon="1.66359">
        <ele>192.8</ele>
        <time>2023-05-27T06:41:01Z</time>
      </trkpt>
      <trkpt lat="43.40936" lon="1.66361">
        <ele>192.8</ele>
        <time>2023-05-27T06:41:02Z</time>
      </trkpt>
      <trkpt lat="43.40933" lon="1.66364">
        <ele>192.8</ele>
        <time>2023-05-27T06:41:03Z</time>
      </trkpt>
      <trkpt lat="43.4093" lon="1.66366">
        <ele>192.8</ele>
        <time>2023-05-27T06:41:04Z</time>
      </trkpt>
      <trkpt lat="43.40926" lon="1.66368">
        <ele>192.8</ele>
        <time>2023-05-27T06:41:05Z</time>
      </trkpt>
      <trkpt lat="43.40923" lon="1.66371">
        <ele>192.8</ele>
        <time>2023-05-27T06:41:06Z</time>
      </trkpt>
      <trkpt lat="43.40918" lon="1.66375">
        <ele>192.8</ele>
        <time>2023-05-27T06:41:07Z</time>
      </trkpt>
      <trkpt lat="43.40914" lon="1.66379">
        <ele>192.8</ele>
        <time>2023-05-27T06:41:08Z</time>
      </trkpt>
      <trkpt lat="43.40909" lon="1.66384">
        <ele>192.6</ele>
        <time>2023-05-27T06:41:09Z</time>
      </trkpt>
      <trkpt lat="43.40904" lon="1.66388">
        <ele>192.6</ele>
        <time>2023-05-27T06:41:10Z</time>
      </trkpt>
      <trkpt lat="43.40899" lon="1.66391">
        <ele>192.6</ele>
        <time>2023-05-27T06:41:11Z</time>
      </trkpt>
      <trkpt lat="43.40896" lon="1.66394">
        <ele>192.6</ele>
        <time>2023-05-27T06:41:12Z</time>
      </trkpt>
      <trkpt lat="43.40892" lon="1.66398">
        <ele>192.6</ele>
        <time>2023-05-27T06:41:13Z</time>
      </trkpt>
      <trkpt lat="43.40889" lon="1.66401">
        <ele>192.6</ele>
        <time>2023-05-27T06:41:14Z</time>
      </trkpt>
      <trkpt lat="43.40885" lon="1.66404">
        <ele>192.6</ele>
        <time>2023-05-27T06:41:15Z</time>
      </trkpt>
      <trkpt lat="43.40881" lon="1.66407">
        <ele>192.6</ele>
        <time>2023-05-27T06:41:16Z</time>
      </trkpt>
      <trkpt lat="43.40877" lon="1.6641">
        <ele>192.6</ele>
        <time>2023-05-27T06:41:17Z</time>
      </trkpt>
      <trkpt lat="43.40874" lon="1.66413">
        <ele>192.6</ele>
        <time>2023-05-27T06:41:18Z</time>
      </trkpt>
      <trkpt lat="43.4087" lon="1.66416">
        <ele>192.6</ele>
        <time>2023-05-27T06:41:19Z</time>
      </trkpt>
      <trkpt lat="43.40866" lon="1.66419">
        <ele>192.6</ele>
        <time>2023-05-27T06:41:20Z</time>
      </trkpt>
      <trkpt lat="43.40863" lon="1.66422">
        <ele>192.6</ele>
        <time>2023-05-27T06:41:21Z</time>
      </trkpt>
      <trkpt lat="43.40859" lon="1.66426">
        <ele>192.6</ele>
        <time>2023-05-27T06:41:22Z</time>
      </trkpt>
      <trkpt lat="43.40854" lon="1.66428">
        <ele>192.6</ele>
        <time>2023-05-27T06:41:23Z</time>
      </trkpt>
      <trkpt lat="43.40852" lon="1.66431">
        <ele>192.6</ele>
        <time>2023-05-27T06:41:24Z</time>
      </trkpt>
      <trkpt lat="43.40848" lon="1.66435">
        <ele>192.6</ele>
        <time>2023-05-27T06:41:25Z</time>
      </trkpt>
      <trkpt lat="43.40844" lon="1.66439">
        <ele>192.6</ele>
        <time>2023-05-27T06:41:26Z</time>
      </trkpt>
      <trkpt lat="43.40837" lon="1.66444">
        <ele>192.6</ele>
        <time>2023-05-27T06:41:27Z</time>
      </trkpt>
      <trkpt lat="43.40832" lon="1.66449">
        <ele>192.6</ele>
        <time>2023-05-27T06:41:28Z</time>
      </trkpt>
      <trkpt lat="43.40827" lon="1.66453">
        <ele>192.6</ele>
        <time>2023-05-27T06:41:29Z</time>
      </trkpt>
      <trkpt lat="43.40823" lon="1.66456">
        <ele>192.6</ele>
        <time>2023-05-27T06:41:30Z</time>
      </trkpt>
      <trkpt lat="43.4082" lon="1.66459">
        <ele>192.6</ele>
        <time>2023-05-27T06:41:31Z</time>
      </trkpt>
      <trkpt lat="43.40817" lon="1.66461">
        <ele>192.6</ele>
        <time>2023-05-27T06:41:32Z</time>
      </trkpt>
      <trkpt lat="43.40813" lon="1.66464">
        <ele>192.6</ele>
        <time>2023-05-27T06:41:33Z</time>
      </trkpt>
      <trkpt lat="43.40809" lon="1.66467">
        <ele>192.6</ele>
        <time>2023-05-27T06:41:34Z</time>
      </trkpt>
      <trkpt lat="43.40804" lon="1.66472">
        <ele>192.6</ele>
        <time>2023-05-27T06:41:35Z</time>
      </trkpt>
      <trkpt lat="43.40799" lon="1.66476">
        <ele>192.6</ele>
        <time>2023-05-27T06:41:36Z</time>
      </trkpt>
      <trkpt lat="43.40792" lon="1.6648">
        <ele>192.6</ele>
        <time>2023-05-27T06:41:37Z</time>
      </trkpt>
      <trkpt lat="43.40787" lon="1.66483">
        <ele>192.6</ele>
        <time>2023-05-27T06:41:38Z</time>
      </trkpt>
      <trkpt lat="43.40783" lon="1.66487">
        <ele>192.4</ele>
        <time>2023-05-27T06:41:39Z</time>
      </trkpt>
      <trkpt lat="43.40778" lon="1.66491">
        <ele>192.4</ele>
        <time>2023-05-27T06:41:40Z</time>
      </trkpt>
      <trkpt lat="43.40774" lon="1.66494">
        <ele>192.4</ele>
        <time>2023-05-27T06:41:41Z</time>
      </trkpt>
      <trkpt lat="43.40769" lon="1.66498">
        <ele>192.4</ele>
        <time>2023-05-27T06:41:42Z</time>
      </trkpt>
      <trkpt lat="43.40763" lon="1.66503">
        <ele>192.2</ele>
        <time>2023-05-27T06:41:43Z</time>
      </trkpt>
      <trkpt lat="43.40758" lon="1.66506">
        <ele>192.2</ele>
        <time>2023-05-27T06:41:44Z</time>
      </trkpt>
      <trkpt lat="43.40754" lon="1.66509">
        <ele>192.2</ele>
        <time>2023-05-27T06:41:45Z</time>
      </trkpt>
      <trkpt lat="43.40749" lon="1.66512">
        <ele>192.2</ele>
        <time>2023-05-27T06:41:46Z</time>
      </trkpt>
      <trkpt lat="43.40745" lon="1.66515">
        <ele>192.4</ele>
        <time>2023-05-27T06:41:47Z</time>
      </trkpt>
      <trkpt lat="43.40742" lon="1.66517">
        <ele>192.4</ele>
        <time>2023-05-27T06:41:48Z</time>
      </trkpt>
      <trkpt lat="43.40737" lon="1.6652">
        <ele>192.4</ele>
        <time>2023-05-27T06:41:49Z</time>
      </trkpt>
      <trkpt lat="43.40733" lon="1.66523">
        <ele>192.4</ele>
        <time>2023-05-27T06:41:50Z</time>
      </trkpt>
      <trkpt lat="43.4073" lon="1.66525">
        <ele>192.4</ele>
        <time>2023-05-27T06:41:51Z</time>
      </trkpt>
      <trkpt lat="43.40725" lon="1.66528">
        <ele>192.4</ele>
        <time>2023-05-27T06:41:52Z</time>
      </trkpt>
      <trkpt lat="43.4072" lon="1.66531">
        <ele>192.4</ele>
        <time>2023-05-27T06:41:53Z</time>
      </trkpt>
      <trkpt lat="43.40717" lon="1.66533">
        <ele>192.4</ele>
        <time>2023-05-27T06:41:54Z</time>
      </trkpt>
      <trkpt lat="43.40712" lon="1.66535">
        <ele>192.4</ele>
        <time>2023-05-27T06:41:55Z</time>
      </trkpt>
      <trkpt lat="43.40708" lon="1.66538">
        <ele>192.4</ele>
        <time>2023-05-27T06:41:56Z</time>
      </trkpt>
      <trkpt lat="43.40703" lon="1.6654">
        <ele>192.6</ele>
        <time>2023-05-27T06:41:57Z</time>
      </trkpt>
      <trkpt lat="43.40698" lon="1.66543">
        <ele>192.6</ele>
        <time>2023-05-27T06:41:58Z</time>
      </trkpt>
      <trkpt lat="43.40694" lon="1.66545">
        <ele>192.4</ele>
        <time>2023-05-27T06:41:59Z</time>
      </trkpt>
      <trkpt lat="43.4069" lon="1.66548">
        <ele>192.4</ele>
        <time>2023-05-27T06:42:00Z</time>
      </trkpt>
      <trkpt lat="43.40685" lon="1.6655">
        <ele>192.4</ele>
        <time>2023-05-27T06:42:01Z</time>
      </trkpt>
      <trkpt lat="43.4068" lon="1.66552">
        <ele>192.4</ele>
        <time>2023-05-27T06:42:02Z</time>
      </trkpt>
      <trkpt lat="43.40676" lon="1.66554">
        <ele>192.4</ele>
        <time>2023-05-27T06:42:03Z</time>
      </trkpt>
      <trkpt lat="43.40671" lon="1.66556">
        <ele>192.4</ele>
        <time>2023-05-27T06:42:04Z</time>
      </trkpt>
      <trkpt lat="43.40667" lon="1.66558">
        <ele>192.4</ele>
        <time>2023-05-27T06:42:05Z</time>
      </trkpt>
      <trkpt lat="43.40662" lon="1.6656">
        <ele>192.4</ele>
        <time>2023-05-27T06:42:06Z</time>
      </trkpt>
      <trkpt lat="43.40657" lon="1.66563">
        <ele>192.4</ele>
        <time>2023-05-27T06:42:07Z</time>
      </trkpt>
      <trkpt lat="43.40652" lon="1.66565">
        <ele>192.4</ele>
        <time>2023-05-27T06:42:08Z</time>
      </trkpt>
      <trkpt lat="43.40648" lon="1.66567">
        <ele>192.4</ele>
        <time>2023-05-27T06:42:09Z</time>
      </trkpt>
      <trkpt lat="43.40644" lon="1.6657">
        <ele>192.4</ele>
        <time>2023-05-27T06:42:10Z</time>
      </trkpt>
      <trkpt lat="43.40639" lon="1.66572">
        <ele>192.4</ele>
        <time>2023-05-27T06:42:11Z</time>
      </trkpt>
      <trkpt lat="43.40636" lon="1.66573">
        <ele>192.4</ele>
        <time>2023-05-27T06:42:12Z</time>
      </trkpt>
      <trkpt lat="43.40632" lon="1.66575">
        <ele>192.2</ele>
        <time>2023-05-27T06:42:13Z</time>
      </trkpt>
      <trkpt lat="43.40627" lon="1.66576">
        <ele>192.2</ele>
        <time>2023-05-27T06:42:14Z</time>
      </trkpt>
      <trkpt lat="43.40623" lon="1.66579">
        <ele>192.2</ele>
        <time>2023-05-27T06:42:15Z</time>
      </trkpt>
      <trkpt lat="43.40619" lon="1.66581">
        <ele>192.2</ele>
        <time>2023-05-27T06:42:16Z</time>
      </trkpt>
      <trkpt lat="43.40615" lon="1.66583">
        <ele>192.2</ele>
        <time>2023-05-27T06:42:17Z</time>
      </trkpt>
      <trkpt lat="43.40611" lon="1.66585">
        <ele>192.2</ele>
        <time>2023-05-27T06:42:18Z</time>
      </trkpt>
      <trkpt lat="43.40606" lon="1.66588">
        <ele>192.2</ele>
        <time>2023-05-27T06:42:19Z</time>
      </trkpt>
      <trkpt lat="43.40602" lon="1.6659">
        <ele>192.2</ele>
        <time>2023-05-27T06:42:20Z</time>
      </trkpt>
      <trkpt lat="43.40598" lon="1.66592">
        <ele>192.2</ele>
        <time>2023-05-27T06:42:21Z</time>
      </trkpt>
      <trkpt lat="43.40593" lon="1.66594">
        <ele>192.2</ele>
        <time>2023-05-27T06:42:22Z</time>
      </trkpt>
      <trkpt lat="43.40588" lon="1.66597">
        <ele>192.2</ele>
        <time>2023-05-27T06:42:23Z</time>
      </trkpt>
      <trkpt lat="43.40583" lon="1.666">
        <ele>192.2</ele>
        <time>2023-05-27T06:42:24Z</time>
      </trkpt>
      <trkpt lat="43.40578" lon="1.66603">
        <ele>192.2</ele>
        <time>2023-05-27T06:42:25Z</time>
      </trkpt>
      <trkpt lat="43.40573" lon="1.66607">
        <ele>192.2</ele>
        <time>2023-05-27T06:42:26Z</time>
      </trkpt>
      <trkpt lat="43.40569" lon="1.6661">
        <ele>192.2</ele>
        <time>2023-05-27T06:42:27Z</time>
      </trkpt>
      <trkpt lat="43.40563" lon="1.66613">
        <ele>192.2</ele>
        <time>2023-05-27T06:42:28Z</time>
      </trkpt>
      <trkpt lat="43.40558" lon="1.66617">
        <ele>192</ele>
        <time>2023-05-27T06:42:29Z</time>
      </trkpt>
      <trkpt lat="43.40553" lon="1.6662">
        <ele>192</ele>
        <time>2023-05-27T06:42:30Z</time>
      </trkpt>
      <trkpt lat="43.4055" lon="1.66623">
        <ele>192.2</ele>
        <time>2023-05-27T06:42:31Z</time>
      </trkpt>
      <trkpt lat="43.40546" lon="1.66627">
        <ele>192.2</ele>
        <time>2023-05-27T06:42:32Z</time>
      </trkpt>
      <trkpt lat="43.4054" lon="1.66631">
        <ele>192.2</ele>
        <time>2023-05-27T06:42:33Z</time>
      </trkpt>
      <trkpt lat="43.40535" lon="1.66635">
        <ele>192.2</ele>
        <time>2023-05-27T06:42:34Z</time>
      </trkpt>
      <trkpt lat="43.40532" lon="1.66638">
        <ele>192.2</ele>
        <time>2023-05-27T06:42:35Z</time>
      </trkpt>
      <trkpt lat="43.40528" lon="1.66641">
        <ele>192.2</ele>
        <time>2023-05-27T06:42:36Z</time>
      </trkpt>
      <trkpt lat="43.40524" lon="1.66644">
        <ele>192.2</ele>
        <time>2023-05-27T06:42:37Z</time>
      </trkpt>
      <trkpt lat="43.40522" lon="1.66648">
        <ele>192.2</ele>
        <time>2023-05-27T06:42:38Z</time>
      </trkpt>
      <trkpt lat="43.40519" lon="1.66651">
        <ele>192.2</ele>
        <time>2023-05-27T06:42:39Z</time>
      </trkpt>
      <trkpt lat="43.40515" lon="1.66656">
        <ele>192</ele>
        <time>2023-05-27T06:42:40Z</time>
      </trkpt>
      <trkpt lat="43.40509" lon="1.6666">
        <ele>191.8</ele>
        <time>2023-05-27T06:42:41Z</time>
      </trkpt>
      <trkpt lat="43.40504" lon="1.66666">
        <ele>191.6</ele>
        <time>2023-05-27T06:42:42Z</time>
      </trkpt>
      <trkpt lat="43.40499" lon="1.66671">
        <ele>191.6</ele>
        <time>2023-05-27T06:42:43Z</time>
      </trkpt>
      <trkpt lat="43.40497" lon="1.66675">
        <ele>191.6</ele>
        <time>2023-05-27T06:42:44Z</time>
      </trkpt>
      <trkpt lat="43.40494" lon="1.66677">
        <ele>191.6</ele>
        <time>2023-05-27T06:42:45Z</time>
      </trkpt>
      <trkpt lat="43.4049" lon="1.66682">
        <ele>191.8</ele>
        <time>2023-05-27T06:42:46Z</time>
      </trkpt>
      <trkpt lat="43.40488" lon="1.66685">
        <ele>191.8</ele>
        <time>2023-05-27T06:42:47Z</time>
      </trkpt>
      <trkpt lat="43.40485" lon="1.66687">
        <ele>191.8</ele>
        <time>2023-05-27T06:42:48Z</time>
      </trkpt>
      <trkpt lat="43.40483" lon="1.66691">
        <ele>191.8</ele>
        <time>2023-05-27T06:42:49Z</time>
      </trkpt>
      <trkpt lat="43.4048" lon="1.66694">
        <ele>192</ele>
        <time>2023-05-27T06:42:50Z</time>
      </trkpt>
      <trkpt lat="43.40476" lon="1.66698">
        <ele>192</ele>
        <time>2023-05-27T06:42:51Z</time>
      </trkpt>
      <trkpt lat="43.40473" lon="1.66701">
        <ele>192</ele>
        <time>2023-05-27T06:42:52Z</time>
      </trkpt>
      <trkpt lat="43.40471" lon="1.66704">
        <ele>192</ele>
        <time>2023-05-27T06:42:53Z</time>
      </trkpt>
      <trkpt lat="43.40469" lon="1.66707">
        <ele>192</ele>
        <time>2023-05-27T06:42:54Z</time>
      </trkpt>
      <trkpt lat="43.40466" lon="1.6671">
        <ele>192</ele>
        <time>2023-05-27T06:42:55Z</time>
      </trkpt>
      <trkpt lat="43.40463" lon="1.66714">
        <ele>192</ele>
        <time>2023-05-27T06:42:56Z</time>
      </trkpt>
      <trkpt lat="43.4046" lon="1.66716">
        <ele>192</ele>
        <time>2023-05-27T06:42:57Z</time>
      </trkpt>
      <trkpt lat="43.40458" lon="1.66719">
        <ele>192</ele>
        <time>2023-05-27T06:42:58Z</time>
      </trkpt>
      <trkpt lat="43.40455" lon="1.66723">
        <ele>192</ele>
        <time>2023-05-27T06:42:59Z</time>
      </trkpt>
      <trkpt lat="43.40452" lon="1.66726">
        <ele>192</ele>
        <time>2023-05-27T06:43:00Z</time>
      </trkpt>
      <trkpt lat="43.40449" lon="1.66731">
        <ele>192</ele>
        <time>2023-05-27T06:43:01Z</time>
      </trkpt>
      <trkpt lat="43.40447" lon="1.66735">
        <ele>192</ele>
        <time>2023-05-27T06:43:02Z</time>
      </trkpt>
      <trkpt lat="43.40443" lon="1.66741">
        <ele>192</ele>
        <time>2023-05-27T06:43:03Z</time>
      </trkpt>
      <trkpt lat="43.40438" lon="1.66748">
        <ele>192</ele>
        <time>2023-05-27T06:43:04Z</time>
      </trkpt>
      <trkpt lat="43.40436" lon="1.66753">
        <ele>192</ele>
        <time>2023-05-27T06:43:05Z</time>
      </trkpt>
      <trkpt lat="43.40433" lon="1.66759">
        <ele>192</ele>
        <time>2023-05-27T06:43:06Z</time>
      </trkpt>
      <trkpt lat="43.40431" lon="1.66764">
        <ele>192</ele>
        <time>2023-05-27T06:43:07Z</time>
      </trkpt>
      <trkpt lat="43.40426" lon="1.66769">
        <ele>192</ele>
        <time>2023-05-27T06:43:08Z</time>
      </trkpt>
      <trkpt lat="43.40422" lon="1.66775">
        <ele>192</ele>
        <time>2023-05-27T06:43:09Z</time>
      </trkpt>
      <trkpt lat="43.40419" lon="1.6678">
        <ele>192</ele>
        <time>2023-05-27T06:43:10Z</time>
      </trkpt>
      <trkpt lat="43.40417" lon="1.66785">
        <ele>192</ele>
        <time>2023-05-27T06:43:11Z</time>
      </trkpt>
      <trkpt lat="43.40413" lon="1.66791">
        <ele>192</ele>
        <time>2023-05-27T06:43:12Z</time>
      </trkpt>
      <trkpt lat="43.4041" lon="1.66796">
        <ele>192</ele>
        <time>2023-05-27T06:43:13Z</time>
      </trkpt>
      <trkpt lat="43.40405" lon="1.66802">
        <ele>192</ele>
        <time>2023-05-27T06:43:14Z</time>
      </trkpt>
      <trkpt lat="43.40402" lon="1.66807">
        <ele>192</ele>
        <time>2023-05-27T06:43:15Z</time>
      </trkpt>
      <trkpt lat="43.40399" lon="1.66814">
        <ele>192.2</ele>
        <time>2023-05-27T06:43:16Z</time>
      </trkpt>
      <trkpt lat="43.40395" lon="1.6682">
        <ele>192.2</ele>
        <time>2023-05-27T06:43:17Z</time>
      </trkpt>
      <trkpt lat="43.40393" lon="1.66826">
        <ele>192.2</ele>
        <time>2023-05-27T06:43:18Z</time>
      </trkpt>
      <trkpt lat="43.40391" lon="1.66831">
        <ele>192.2</ele>
        <time>2023-05-27T06:43:19Z</time>
      </trkpt>
      <trkpt lat="43.4039" lon="1.66836">
        <ele>192.2</ele>
        <time>2023-05-27T06:43:20Z</time>
      </trkpt>
      <trkpt lat="43.40388" lon="1.6684">
        <ele>192.2</ele>
        <time>2023-05-27T06:43:21Z</time>
      </trkpt>
      <trkpt lat="43.40388" lon="1.66846">
        <ele>192.2</ele>
        <time>2023-05-27T06:43:22Z</time>
      </trkpt>
      <trkpt lat="43.40387" lon="1.66853">
        <ele>192.2</ele>
        <time>2023-05-27T06:43:23Z</time>
      </trkpt>
      <trkpt lat="43.40385" lon="1.66858">
        <ele>192.2</ele>
        <time>2023-05-27T06:43:24Z</time>
      </trkpt>
      <trkpt lat="43.40383" lon="1.66864">
        <ele>192.2</ele>
        <time>2023-05-27T06:43:25Z</time>
      </trkpt>
      <trkpt lat="43.40381" lon="1.66869">
        <ele>192.2</ele>
        <time>2023-05-27T06:43:26Z</time>
      </trkpt>
      <trkpt lat="43.40379" lon="1.66874">
        <ele>192.2</ele>
        <time>2023-05-27T06:43:27Z</time>
      </trkpt>
      <trkpt lat="43.40377" lon="1.66879">
        <ele>192.2</ele>
        <time>2023-05-27T06:43:28Z</time>
      </trkpt>
      <trkpt lat="43.40374" lon="1.66885">
        <ele>192.4</ele>
        <time>2023-05-27T06:43:29Z</time>
      </trkpt>
      <trkpt lat="43.40372" lon="1.6689">
        <ele>192.4</ele>
        <time>2023-05-27T06:43:30Z</time>
      </trkpt>
      <trkpt lat="43.4037" lon="1.66894">
        <ele>192.4</ele>
        <time>2023-05-27T06:43:31Z</time>
      </trkpt>
      <trkpt lat="43.40369" lon="1.66898">
        <ele>192.4</ele>
        <time>2023-05-27T06:43:32Z</time>
      </trkpt>
      <trkpt lat="43.40367" lon="1.66902">
        <ele>192.4</ele>
        <time>2023-05-27T06:43:33Z</time>
      </trkpt>
      <trkpt lat="43.40365" lon="1.66907">
        <ele>192.6</ele>
        <time>2023-05-27T06:43:34Z</time>
      </trkpt>
      <trkpt lat="43.40363" lon="1.66911">
        <ele>192.6</ele>
        <time>2023-05-27T06:43:35Z</time>
      </trkpt>
      <trkpt lat="43.40361" lon="1.66915">
        <ele>192.6</ele>
        <time>2023-05-27T06:43:36Z</time>
      </trkpt>
      <trkpt lat="43.4036" lon="1.66919">
        <ele>192.6</ele>
        <time>2023-05-27T06:43:37Z</time>
      </trkpt>
      <trkpt lat="43.40359" lon="1.66924">
        <ele>192.6</ele>
        <time>2023-05-27T06:43:38Z</time>
      </trkpt>
      <trkpt lat="43.40358" lon="1.66929">
        <ele>192.6</ele>
        <time>2023-05-27T06:43:39Z</time>
      </trkpt>
      <trkpt lat="43.40356" lon="1.66935">
        <ele>192.4</ele>
        <time>2023-05-27T06:43:40Z</time>
      </trkpt>
      <trkpt lat="43.40354" lon="1.66939">
        <ele>192.4</ele>
        <time>2023-05-27T06:43:41Z</time>
      </trkpt>
      <trkpt lat="43.40352" lon="1.66944">
        <ele>192.4</ele>
        <time>2023-05-27T06:43:42Z</time>
      </trkpt>
      <trkpt lat="43.40349" lon="1.6695">
        <ele>192.4</ele>
        <time>2023-05-27T06:43:43Z</time>
      </trkpt>
      <trkpt lat="43.40346" lon="1.66955">
        <ele>192.4</ele>
        <time>2023-05-27T06:43:44Z</time>
      </trkpt>
      <trkpt lat="43.40344" lon="1.6696">
        <ele>192.4</ele>
        <time>2023-05-27T06:43:45Z</time>
      </trkpt>
      <trkpt lat="43.40342" lon="1.66965">
        <ele>192.4</ele>
        <time>2023-05-27T06:43:46Z</time>
      </trkpt>
      <trkpt lat="43.4034" lon="1.6697">
        <ele>192.2</ele>
        <time>2023-05-27T06:43:47Z</time>
      </trkpt>
      <trkpt lat="43.40339" lon="1.66976">
        <ele>192.2</ele>
        <time>2023-05-27T06:43:48Z</time>
      </trkpt>
      <trkpt lat="43.40337" lon="1.66982">
        <ele>192.2</ele>
        <time>2023-05-27T06:43:49Z</time>
      </trkpt>
      <trkpt lat="43.40334" lon="1.66989">
        <ele>192.2</ele>
        <time>2023-05-27T06:43:50Z</time>
      </trkpt>
      <trkpt lat="43.40332" lon="1.66995">
        <ele>192.2</ele>
        <time>2023-05-27T06:43:51Z</time>
      </trkpt>
      <trkpt lat="43.40329" lon="1.67">
        <ele>192.2</ele>
        <time>2023-05-27T06:43:52Z</time>
      </trkpt>
      <trkpt lat="43.40328" lon="1.67006">
        <ele>192.4</ele>
        <time>2023-05-27T06:43:53Z</time>
      </trkpt>
      <trkpt lat="43.40326" lon="1.67011">
        <ele>192.4</ele>
        <time>2023-05-27T06:43:54Z</time>
      </trkpt>
      <trkpt lat="43.40324" lon="1.67016">
        <ele>192.4</ele>
        <time>2023-05-27T06:43:55Z</time>
      </trkpt>
      <trkpt lat="43.4032" lon="1.67022">
        <ele>192.4</ele>
        <time>2023-05-27T06:43:56Z</time>
      </trkpt>
      <trkpt lat="43.40319" lon="1.67027">
        <ele>192.4</ele>
        <time>2023-05-27T06:43:57Z</time>
      </trkpt>
      <trkpt lat="43.40317" lon="1.67034">
        <ele>192.4</ele>
        <time>2023-05-27T06:43:58Z</time>
      </trkpt>
      <trkpt lat="43.40315" lon="1.6704">
        <ele>192.4</ele>
        <time>2023-05-27T06:43:59Z</time>
      </trkpt>
      <trkpt lat="43.40312" lon="1.67045">
        <ele>192.4</ele>
        <time>2023-05-27T06:44:00Z</time>
      </trkpt>
      <trkpt lat="43.4031" lon="1.67052">
        <ele>192.4</ele>
        <time>2023-05-27T06:44:01Z</time>
      </trkpt>
      <trkpt lat="43.40309" lon="1.67057">
        <ele>192.4</ele>
        <time>2023-05-27T06:44:02Z</time>
      </trkpt>
      <trkpt lat="43.40308" lon="1.67063">
        <ele>192.4</ele>
        <time>2023-05-27T06:44:03Z</time>
      </trkpt>
      <trkpt lat="43.40306" lon="1.67069">
        <ele>192.4</ele>
        <time>2023-05-27T06:44:04Z</time>
      </trkpt>
      <trkpt lat="43.40304" lon="1.67075">
        <ele>192.4</ele>
        <time>2023-05-27T06:44:05Z</time>
      </trkpt>
      <trkpt lat="43.40303" lon="1.67081">
        <ele>192.4</ele>
        <time>2023-05-27T06:44:06Z</time>
      </trkpt>
      <trkpt lat="43.40301" lon="1.67087">
        <ele>192.4</ele>
        <time>2023-05-27T06:44:07Z</time>
      </trkpt>
      <trkpt lat="43.40301" lon="1.67091">
        <ele>192.4</ele>
        <time>2023-05-27T06:44:08Z</time>
      </trkpt>
      <trkpt lat="43.403" lon="1.67097">
        <ele>192.4</ele>
        <time>2023-05-27T06:44:09Z</time>
      </trkpt>
      <trkpt lat="43.40298" lon="1.67103">
        <ele>192.4</ele>
        <time>2023-05-27T06:44:10Z</time>
      </trkpt>
      <trkpt lat="43.40295" lon="1.67108">
        <ele>192.4</ele>
        <time>2023-05-27T06:44:11Z</time>
      </trkpt>
      <trkpt lat="43.40294" lon="1.67113">
        <ele>192.4</ele>
        <time>2023-05-27T06:44:12Z</time>
      </trkpt>
      <trkpt lat="43.40292" lon="1.67118">
        <ele>192.4</ele>
        <time>2023-05-27T06:44:13Z</time>
      </trkpt>
      <trkpt lat="43.40291" lon="1.67123">
        <ele>192.4</ele>
        <time>2023-05-27T06:44:14Z</time>
      </trkpt>
      <trkpt lat="43.40289" lon="1.67128">
        <ele>192.4</ele>
        <time>2023-05-27T06:44:15Z</time>
      </trkpt>
      <trkpt lat="43.40288" lon="1.67133">
        <ele>192.4</ele>
        <time>2023-05-27T06:44:16Z</time>
      </trkpt>
      <trkpt lat="43.40286" lon="1.67137">
        <ele>192.4</ele>
        <time>2023-05-27T06:44:17Z</time>
      </trkpt>
      <trkpt lat="43.40284" lon="1.67141">
        <ele>192.6</ele>
        <time>2023-05-27T06:44:18Z</time>
      </trkpt>
      <trkpt lat="43.40283" lon="1.67146">
        <ele>192.6</ele>
        <time>2023-05-27T06:44:19Z</time>
      </trkpt>
      <trkpt lat="43.40282" lon="1.67151">
        <ele>192.6</ele>
        <time>2023-05-27T06:44:20Z</time>
      </trkpt>
      <trkpt lat="43.4028" lon="1.67155">
        <ele>192.8</ele>
        <time>2023-05-27T06:44:21Z</time>
      </trkpt>
      <trkpt lat="43.40279" lon="1.67159">
        <ele>192.8</ele>
        <time>2023-05-27T06:44:22Z</time>
      </trkpt>
      <trkpt lat="43.40278" lon="1.67163">
        <ele>192.8</ele>
        <time>2023-05-27T06:44:23Z</time>
      </trkpt>
      <trkpt lat="43.40276" lon="1.67167">
        <ele>192.8</ele>
        <time>2023-05-27T06:44:24Z</time>
      </trkpt>
      <trkpt lat="43.40275" lon="1.67173">
        <ele>192.8</ele>
        <time>2023-05-27T06:44:25Z</time>
      </trkpt>
      <trkpt lat="43.40273" lon="1.67178">
        <ele>192.8</ele>
        <time>2023-05-27T06:44:26Z</time>
      </trkpt>
      <trkpt lat="43.40271" lon="1.67184">
        <ele>192.8</ele>
        <time>2023-05-27T06:44:27Z</time>
      </trkpt>
      <trkpt lat="43.40269" lon="1.67189">
        <ele>192.8</ele>
        <time>2023-05-27T06:44:28Z</time>
      </trkpt>
      <trkpt lat="43.40266" lon="1.67195">
        <ele>192.8</ele>
        <time>2023-05-27T06:44:29Z</time>
      </trkpt>
      <trkpt lat="43.40263" lon="1.67201">
        <ele>192.8</ele>
        <time>2023-05-27T06:44:30Z</time>
      </trkpt>
      <trkpt lat="43.40261" lon="1.67206">
        <ele>192.8</ele>
        <time>2023-05-27T06:44:31Z</time>
      </trkpt>
      <trkpt lat="43.40259" lon="1.67212">
        <ele>192.6</ele>
        <time>2023-05-27T06:44:32Z</time>
      </trkpt>
      <trkpt lat="43.40257" lon="1.67218">
        <ele>192.6</ele>
        <time>2023-05-27T06:44:33Z</time>
      </trkpt>
      <trkpt lat="43.40254" lon="1.67224">
        <ele>192.6</ele>
        <time>2023-05-27T06:44:34Z</time>
      </trkpt>
      <trkpt lat="43.40252" lon="1.67231">
        <ele>192.6</ele>
        <time>2023-05-27T06:44:35Z</time>
      </trkpt>
      <trkpt lat="43.4025" lon="1.67237">
        <ele>192.6</ele>
        <time>2023-05-27T06:44:36Z</time>
      </trkpt>
      <trkpt lat="43.40248" lon="1.67242">
        <ele>192.6</ele>
        <time>2023-05-27T06:44:37Z</time>
      </trkpt>
      <trkpt lat="43.40245" lon="1.67249">
        <ele>192.6</ele>
        <time>2023-05-27T06:44:38Z</time>
      </trkpt>
      <trkpt lat="43.40244" lon="1.67255">
        <ele>192.6</ele>
        <time>2023-05-27T06:44:39Z</time>
      </trkpt>
      <trkpt lat="43.40242" lon="1.67261">
        <ele>192.6</ele>
        <time>2023-05-27T06:44:40Z</time>
      </trkpt>
      <trkpt lat="43.40241" lon="1.67266">
        <ele>192.6</ele>
        <time>2023-05-27T06:44:41Z</time>
      </trkpt>
      <trkpt lat="43.40238" lon="1.67273">
        <ele>192.6</ele>
        <time>2023-05-27T06:44:42Z</time>
      </trkpt>
      <trkpt lat="43.40236" lon="1.67278">
        <ele>192.6</ele>
        <time>2023-05-27T06:44:43Z</time>
      </trkpt>
      <trkpt lat="43.40234" lon="1.67284">
        <ele>192.6</ele>
        <time>2023-05-27T06:44:44Z</time>
      </trkpt>
      <trkpt lat="43.40233" lon="1.67291">
        <ele>192.6</ele>
        <time>2023-05-27T06:44:45Z</time>
      </trkpt>
      <trkpt lat="43.40232" lon="1.67295">
        <ele>192.6</ele>
        <time>2023-05-27T06:44:46Z</time>
      </trkpt>
      <trkpt lat="43.40231" lon="1.67299">
        <ele>192.6</ele>
        <time>2023-05-27T06:44:47Z</time>
      </trkpt>
      <trkpt lat="43.4023" lon="1.67305">
        <ele>192.6</ele>
        <time>2023-05-27T06:44:48Z</time>
      </trkpt>
      <trkpt lat="43.40228" lon="1.6731">
        <ele>192.6</ele>
        <time>2023-05-27T06:44:49Z</time>
      </trkpt>
      <trkpt lat="43.40225" lon="1.67316">
        <ele>192.6</ele>
        <time>2023-05-27T06:44:50Z</time>
      </trkpt>
      <trkpt lat="43.40222" lon="1.67322">
        <ele>192.6</ele>
        <time>2023-05-27T06:44:51Z</time>
      </trkpt>
      <trkpt lat="43.40219" lon="1.67331">
        <ele>192.4</ele>
        <time>2023-05-27T06:44:52Z</time>
      </trkpt>
      <trkpt lat="43.40216" lon="1.67337">
        <ele>192.4</ele>
        <time>2023-05-27T06:44:53Z</time>
      </trkpt>
      <trkpt lat="43.40214" lon="1.67344">
        <ele>192.4</ele>
        <time>2023-05-27T06:44:54Z</time>
      </trkpt>
      <trkpt lat="43.40213" lon="1.6735">
        <ele>192.2</ele>
        <time>2023-05-27T06:44:55Z</time>
      </trkpt>
      <trkpt lat="43.40211" lon="1.67355">
        <ele>192.2</ele>
        <time>2023-05-27T06:44:56Z</time>
      </trkpt>
      <trkpt lat="43.40209" lon="1.6736">
        <ele>192.2</ele>
        <time>2023-05-27T06:44:57Z</time>
      </trkpt>
      <trkpt lat="43.40208" lon="1.67366">
        <ele>192.2</ele>
        <time>2023-05-27T06:44:58Z</time>
      </trkpt>
      <trkpt lat="43.40206" lon="1.67372">
        <ele>192.2</ele>
        <time>2023-05-27T06:44:59Z</time>
      </trkpt>
      <trkpt lat="43.40204" lon="1.67378">
        <ele>192.2</ele>
        <time>2023-05-27T06:45:00Z</time>
      </trkpt>
      <trkpt lat="43.40202" lon="1.67383">
        <ele>192.2</ele>
        <time>2023-05-27T06:45:01Z</time>
      </trkpt>
      <trkpt lat="43.40201" lon="1.67389">
        <ele>192.2</ele>
        <time>2023-05-27T06:45:02Z</time>
      </trkpt>
      <trkpt lat="43.402" lon="1.67394">
        <ele>192.2</ele>
        <time>2023-05-27T06:45:03Z</time>
      </trkpt>
      <trkpt lat="43.40199" lon="1.67399">
        <ele>192.2</ele>
        <time>2023-05-27T06:45:04Z</time>
      </trkpt>
      <trkpt lat="43.40198" lon="1.67404">
        <ele>192.2</ele>
        <time>2023-05-27T06:45:05Z</time>
      </trkpt>
      <trkpt lat="43.40196" lon="1.67409">
        <ele>192.2</ele>
        <time>2023-05-27T06:45:06Z</time>
      </trkpt>
      <trkpt lat="43.40194" lon="1.67414">
        <ele>192.2</ele>
        <time>2023-05-27T06:45:07Z</time>
      </trkpt>
      <trkpt lat="43.40192" lon="1.67419">
        <ele>192.4</ele>
        <time>2023-05-27T06:45:08Z</time>
      </trkpt>
      <trkpt lat="43.40191" lon="1.67424">
        <ele>192.4</ele>
        <time>2023-05-27T06:45:09Z</time>
      </trkpt>
      <trkpt lat="43.40189" lon="1.67428">
        <ele>192.4</ele>
        <time>2023-05-27T06:45:10Z</time>
      </trkpt>
      <trkpt lat="43.40188" lon="1.67433">
        <ele>192.4</ele>
        <time>2023-05-27T06:45:11Z</time>
      </trkpt>
      <trkpt lat="43.40186" lon="1.67437">
        <ele>192.4</ele>
        <time>2023-05-27T06:45:12Z</time>
      </trkpt>
      <trkpt lat="43.40184" lon="1.67441">
        <ele>192.4</ele>
        <time>2023-05-27T06:45:13Z</time>
      </trkpt>
      <trkpt lat="43.40182" lon="1.67446">
        <ele>192.4</ele>
        <time>2023-05-27T06:45:14Z</time>
      </trkpt>
      <trkpt lat="43.40179" lon="1.67451">
        <ele>192.4</ele>
        <time>2023-05-27T06:45:15Z</time>
      </trkpt>
      <trkpt lat="43.40178" lon="1.67455">
        <ele>192.4</ele>
        <time>2023-05-27T06:45:16Z</time>
      </trkpt>
      <trkpt lat="43.40177" lon="1.67461">
        <ele>192.4</ele>
        <time>2023-05-27T06:45:17Z</time>
      </trkpt>
      <trkpt lat="43.40175" lon="1.67467">
        <ele>192.4</ele>
        <time>2023-05-27T06:45:18Z</time>
      </trkpt>
      <trkpt lat="43.40172" lon="1.67473">
        <ele>192.2</ele>
        <time>2023-05-27T06:45:19Z</time>
      </trkpt>
      <trkpt lat="43.4017" lon="1.67478">
        <ele>192.2</ele>
        <time>2023-05-27T06:45:20Z</time>
      </trkpt>
      <trkpt lat="43.40168" lon="1.67484">
        <ele>192.2</ele>
        <time>2023-05-27T06:45:21Z</time>
      </trkpt>
      <trkpt lat="43.40166" lon="1.6749">
        <ele>192</ele>
        <time>2023-05-27T06:45:22Z</time>
      </trkpt>
      <trkpt lat="43.40162" lon="1.67497">
        <ele>192</ele>
        <time>2023-05-27T06:45:23Z</time>
      </trkpt>
      <trkpt lat="43.4016" lon="1.67502">
        <ele>192</ele>
        <time>2023-05-27T06:45:24Z</time>
      </trkpt>
      <trkpt lat="43.40158" lon="1.67507">
        <ele>192</ele>
        <time>2023-05-27T06:45:25Z</time>
      </trkpt>
      <trkpt lat="43.40155" lon="1.67513">
        <ele>192</ele>
        <time>2023-05-27T06:45:26Z</time>
      </trkpt>
      <trkpt lat="43.40153" lon="1.67518">
        <ele>192</ele>
        <time>2023-05-27T06:45:27Z</time>
      </trkpt>
      <trkpt lat="43.40151" lon="1.67524">
        <ele>192</ele>
        <time>2023-05-27T06:45:28Z</time>
      </trkpt>
      <trkpt lat="43.40149" lon="1.67528">
        <ele>192</ele>
        <time>2023-05-27T06:45:29Z</time>
      </trkpt>
      <trkpt lat="43.40148" lon="1.67534">
        <ele>192</ele>
        <time>2023-05-27T06:45:30Z</time>
      </trkpt>
      <trkpt lat="43.40144" lon="1.67539">
        <ele>192</ele>
        <time>2023-05-27T06:45:31Z</time>
      </trkpt>
      <trkpt lat="43.4014" lon="1.67547">
        <ele>192</ele>
        <time>2023-05-27T06:45:32Z</time>
      </trkpt>
      <trkpt lat="43.40138" lon="1.67551">
        <ele>192</ele>
        <time>2023-05-27T06:45:33Z</time>
      </trkpt>
      <trkpt lat="43.40137" lon="1.67555">
        <ele>192</ele>
        <time>2023-05-27T06:45:34Z</time>
      </trkpt>
      <trkpt lat="43.40135" lon="1.6756">
        <ele>191.8</ele>
        <time>2023-05-27T06:45:35Z</time>
      </trkpt>
      <trkpt lat="43.40134" lon="1.67565">
        <ele>191.8</ele>
        <time>2023-05-27T06:45:36Z</time>
      </trkpt>
      <trkpt lat="43.40132" lon="1.67569">
        <ele>192</ele>
        <time>2023-05-27T06:45:37Z</time>
      </trkpt>
      <trkpt lat="43.40129" lon="1.67573">
        <ele>192</ele>
        <time>2023-05-27T06:45:38Z</time>
      </trkpt>
      <trkpt lat="43.40127" lon="1.67578">
        <ele>192</ele>
        <time>2023-05-27T06:45:39Z</time>
      </trkpt>
      <trkpt lat="43.40125" lon="1.67583">
        <ele>191.8</ele>
        <time>2023-05-27T06:45:40Z</time>
      </trkpt>
      <trkpt lat="43.40123" lon="1.67587">
        <ele>191.8</ele>
        <time>2023-05-27T06:45:41Z</time>
      </trkpt>
      <trkpt lat="43.40121" lon="1.6759">
        <ele>191.8</ele>
        <time>2023-05-27T06:45:42Z</time>
      </trkpt>
      <trkpt lat="43.40119" lon="1.67595">
        <ele>191.8</ele>
        <time>2023-05-27T06:45:43Z</time>
      </trkpt>
      <trkpt lat="43.40117" lon="1.676">
        <ele>191.8</ele>
        <time>2023-05-27T06:45:44Z</time>
      </trkpt>
      <trkpt lat="43.40115" lon="1.67605">
        <ele>191.8</ele>
        <time>2023-05-27T06:45:45Z</time>
      </trkpt>
      <trkpt lat="43.40113" lon="1.6761">
        <ele>191.8</ele>
        <time>2023-05-27T06:45:46Z</time>
      </trkpt>
      <trkpt lat="43.40111" lon="1.67614">
        <ele>191.8</ele>
        <time>2023-05-27T06:45:47Z</time>
      </trkpt>
      <trkpt lat="43.40108" lon="1.67619">
        <ele>192</ele>
        <time>2023-05-27T06:45:48Z</time>
      </trkpt>
      <trkpt lat="43.40106" lon="1.67623">
        <ele>192</ele>
        <time>2023-05-27T06:45:49Z</time>
      </trkpt>
      <trkpt lat="43.40105" lon="1.67627">
        <ele>192</ele>
        <time>2023-05-27T06:45:50Z</time>
      </trkpt>
      <trkpt lat="43.40103" lon="1.67631">
        <ele>192.2</ele>
        <time>2023-05-27T06:45:51Z</time>
      </trkpt>
      <trkpt lat="43.40101" lon="1.67636">
        <ele>192.2</ele>
        <time>2023-05-27T06:45:52Z</time>
      </trkpt>
      <trkpt lat="43.40098" lon="1.67641">
        <ele>192.2</ele>
        <time>2023-05-27T06:45:53Z</time>
      </trkpt>
      <trkpt lat="43.40096" lon="1.67646">
        <ele>192.2</ele>
        <time>2023-05-27T06:45:54Z</time>
      </trkpt>
      <trkpt lat="43.40093" lon="1.67651">
        <ele>192.2</ele>
        <time>2023-05-27T06:45:55Z</time>
      </trkpt>
      <trkpt lat="43.40091" lon="1.67656">
        <ele>192</ele>
        <time>2023-05-27T06:45:56Z</time>
      </trkpt>
      <trkpt lat="43.40089" lon="1.67661">
        <ele>192</ele>
        <time>2023-05-27T06:45:57Z</time>
      </trkpt>
      <trkpt lat="43.40087" lon="1.67666">
        <ele>192</ele>
        <time>2023-05-27T06:45:58Z</time>
      </trkpt>
      <trkpt lat="43.40082" lon="1.67673">
        <ele>192</ele>
        <time>2023-05-27T06:45:59Z</time>
      </trkpt>
      <trkpt lat="43.40079" lon="1.67679">
        <ele>192</ele>
        <time>2023-05-27T06:46:00Z</time>
      </trkpt>
      <trkpt lat="43.40077" lon="1.67684">
        <ele>192</ele>
        <time>2023-05-27T06:46:01Z</time>
      </trkpt>
      <trkpt lat="43.40076" lon="1.6769">
        <ele>192</ele>
        <time>2023-05-27T06:46:02Z</time>
      </trkpt>
      <trkpt lat="43.40072" lon="1.67696">
        <ele>192</ele>
        <time>2023-05-27T06:46:03Z</time>
      </trkpt>
      <trkpt lat="43.40068" lon="1.67701">
        <ele>192</ele>
        <time>2023-05-27T06:46:04Z</time>
      </trkpt>
      <trkpt lat="43.40064" lon="1.67707">
        <ele>192</ele>
        <time>2023-05-27T06:46:05Z</time>
      </trkpt>
      <trkpt lat="43.4006" lon="1.67714">
        <ele>192</ele>
        <time>2023-05-27T06:46:06Z</time>
      </trkpt>
      <trkpt lat="43.40057" lon="1.6772">
        <ele>192</ele>
        <time>2023-05-27T06:46:07Z</time>
      </trkpt>
      <trkpt lat="43.40054" lon="1.67726">
        <ele>192</ele>
        <time>2023-05-27T06:46:08Z</time>
      </trkpt>
      <trkpt lat="43.40051" lon="1.67732">
        <ele>192</ele>
        <time>2023-05-27T06:46:09Z</time>
      </trkpt>
      <trkpt lat="43.40048" lon="1.67738">
        <ele>192</ele>
        <time>2023-05-27T06:46:10Z</time>
      </trkpt>
      <trkpt lat="43.40045" lon="1.67744">
        <ele>192</ele>
        <time>2023-05-27T06:46:11Z</time>
      </trkpt>
      <trkpt lat="43.40042" lon="1.67749">
        <ele>192</ele>
        <time>2023-05-27T06:46:12Z</time>
      </trkpt>
      <trkpt lat="43.4004" lon="1.67753">
        <ele>192</ele>
        <time>2023-05-27T06:46:13Z</time>
      </trkpt>
      <trkpt lat="43.40038" lon="1.67758">
        <ele>192</ele>
        <time>2023-05-27T06:46:14Z</time>
      </trkpt>
      <trkpt lat="43.40035" lon="1.67765">
        <ele>192</ele>
        <time>2023-05-27T06:46:15Z</time>
      </trkpt>
      <trkpt lat="43.40032" lon="1.6777">
        <ele>192</ele>
        <time>2023-05-27T06:46:16Z</time>
      </trkpt>
      <trkpt lat="43.4003" lon="1.67775">
        <ele>192</ele>
        <time>2023-05-27T06:46:17Z</time>
      </trkpt>
      <trkpt lat="43.40028" lon="1.67779">
        <ele>192</ele>
        <time>2023-05-27T06:46:18Z</time>
      </trkpt>
      <trkpt lat="43.40025" lon="1.67784">
        <ele>192</ele>
        <time>2023-05-27T06:46:19Z</time>
      </trkpt>
      <trkpt lat="43.40022" lon="1.67789">
        <ele>192</ele>
        <time>2023-05-27T06:46:20Z</time>
      </trkpt>
      <trkpt lat="43.4002" lon="1.67794">
        <ele>192</ele>
        <time>2023-05-27T06:46:21Z</time>
      </trkpt>
      <trkpt lat="43.40018" lon="1.67798">
        <ele>192</ele>
        <time>2023-05-27T06:46:22Z</time>
      </trkpt>
      <trkpt lat="43.40015" lon="1.67804">
        <ele>192</ele>
        <time>2023-05-27T06:46:23Z</time>
      </trkpt>
      <trkpt lat="43.40012" lon="1.67809">
        <ele>192</ele>
        <time>2023-05-27T06:46:24Z</time>
      </trkpt>
      <trkpt lat="43.4001" lon="1.67814">
        <ele>192</ele>
        <time>2023-05-27T06:46:25Z</time>
      </trkpt>
      <trkpt lat="43.40007" lon="1.67818">
        <ele>192</ele>
        <time>2023-05-27T06:46:26Z</time>
      </trkpt>
      <trkpt lat="43.40005" lon="1.67822">
        <ele>192</ele>
        <time>2023-05-27T06:46:27Z</time>
      </trkpt>
      <trkpt lat="43.40002" lon="1.67828">
        <ele>192.2</ele>
        <time>2023-05-27T06:46:28Z</time>
      </trkpt>
      <trkpt lat="43.4" lon="1.67833">
        <ele>192.2</ele>
        <time>2023-05-27T06:46:29Z</time>
      </trkpt>
      <trkpt lat="43.39997" lon="1.67837">
        <ele>192.2</ele>
        <time>2023-05-27T06:46:30Z</time>
      </trkpt>
      <trkpt lat="43.39995" lon="1.67841">
        <ele>192.2</ele>
        <time>2023-05-27T06:46:31Z</time>
      </trkpt>
      <trkpt lat="43.39992" lon="1.67846">
        <ele>192.2</ele>
        <time>2023-05-27T06:46:32Z</time>
      </trkpt>
      <trkpt lat="43.3999" lon="1.67851">
        <ele>192.2</ele>
        <time>2023-05-27T06:46:33Z</time>
      </trkpt>
      <trkpt lat="43.39987" lon="1.67855">
        <ele>192.2</ele>
        <time>2023-05-27T06:46:34Z</time>
      </trkpt>
      <trkpt lat="43.39985" lon="1.67859">
        <ele>192.2</ele>
        <time>2023-05-27T06:46:35Z</time>
      </trkpt>
      <trkpt lat="43.39983" lon="1.67863">
        <ele>192.4</ele>
        <time>2023-05-27T06:46:36Z</time>
      </trkpt>
      <trkpt lat="43.39981" lon="1.67867">
        <ele>192.4</ele>
        <time>2023-05-27T06:46:37Z</time>
      </trkpt>
      <trkpt lat="43.39978" lon="1.67871">
        <ele>192.4</ele>
        <time>2023-05-27T06:46:38Z</time>
      </trkpt>
      <trkpt lat="43.39976" lon="1.67875">
        <ele>192.6</ele>
        <time>2023-05-27T06:46:39Z</time>
      </trkpt>
      <trkpt lat="43.39973" lon="1.67879">
        <ele>192.6</ele>
        <time>2023-05-27T06:46:40Z</time>
      </trkpt>
      <trkpt lat="43.3997" lon="1.67884">
        <ele>192.6</ele>
        <time>2023-05-27T06:46:41Z</time>
      </trkpt>
      <trkpt lat="43.39967" lon="1.67887">
        <ele>192.8</ele>
        <time>2023-05-27T06:46:42Z</time>
      </trkpt>
      <trkpt lat="43.39964" lon="1.67892">
        <ele>192.8</ele>
        <time>2023-05-27T06:46:43Z</time>
      </trkpt>
      <trkpt lat="43.39961" lon="1.67896">
        <ele>192.8</ele>
        <time>2023-05-27T06:46:44Z</time>
      </trkpt>
      <trkpt lat="43.39958" lon="1.67899">
        <ele>193</ele>
        <time>2023-05-27T06:46:45Z</time>
      </trkpt>
      <trkpt lat="43.39955" lon="1.67903">
        <ele>193</ele>
        <time>2023-05-27T06:46:46Z</time>
      </trkpt>
      <trkpt lat="43.39952" lon="1.67907">
        <ele>193</ele>
        <time>2023-05-27T06:46:47Z</time>
      </trkpt>
      <trkpt lat="43.39948" lon="1.67911">
        <ele>193</ele>
        <time>2023-05-27T06:46:48Z</time>
      </trkpt>
      <trkpt lat="43.39945" lon="1.67915">
        <ele>193.2</ele>
        <time>2023-05-27T06:46:49Z</time>
      </trkpt>
      <trkpt lat="43.39943" lon="1.67918">
        <ele>193.2</ele>
        <time>2023-05-27T06:46:50Z</time>
      </trkpt>
      <trkpt lat="43.3994" lon="1.67921">
        <ele>193.2</ele>
        <time>2023-05-27T06:46:51Z</time>
      </trkpt>
      <trkpt lat="43.39936" lon="1.67924">
        <ele>193.2</ele>
        <time>2023-05-27T06:46:52Z</time>
      </trkpt>
      <trkpt lat="43.39933" lon="1.67928">
        <ele>193.2</ele>
        <time>2023-05-27T06:46:53Z</time>
      </trkpt>
      <trkpt lat="43.3993" lon="1.67931">
        <ele>193.2</ele>
        <time>2023-05-27T06:46:54Z</time>
      </trkpt>
      <trkpt lat="43.39927" lon="1.67934">
        <ele>193.2</ele>
        <time>2023-05-27T06:46:55Z</time>
      </trkpt>
      <trkpt lat="43.39924" lon="1.67938">
        <ele>193</ele>
        <time>2023-05-27T06:46:56Z</time>
      </trkpt>
      <trkpt lat="43.39921" lon="1.67941">
        <ele>193</ele>
        <time>2023-05-27T06:46:57Z</time>
      </trkpt>
      <trkpt lat="43.39918" lon="1.67944">
        <ele>193</ele>
        <time>2023-05-27T06:46:58Z</time>
      </trkpt>
      <trkpt lat="43.39915" lon="1.67946">
        <ele>192.8</ele>
        <time>2023-05-27T06:46:59Z</time>
      </trkpt>
      <trkpt lat="43.39912" lon="1.67949">
        <ele>192.8</ele>
        <time>2023-05-27T06:47:00Z</time>
      </trkpt>
      <trkpt lat="43.39908" lon="1.67951">
        <ele>192.8</ele>
        <time>2023-05-27T06:47:01Z</time>
      </trkpt>
      <trkpt lat="43.39905" lon="1.67952">
        <ele>192.8</ele>
        <time>2023-05-27T06:47:02Z</time>
      </trkpt>
      <trkpt lat="43.39901" lon="1.67953">
        <ele>192.8</ele>
        <time>2023-05-27T06:47:03Z</time>
      </trkpt>
      <trkpt lat="43.39899" lon="1.67954">
        <ele>192.8</ele>
        <time>2023-05-27T06:47:04Z</time>
      </trkpt>
      <trkpt lat="43.39895" lon="1.67954">
        <ele>192.8</ele>
        <time>2023-05-27T06:47:05Z</time>
      </trkpt>
      <trkpt lat="43.39893" lon="1.67955">
        <ele>192.8</ele>
        <time>2023-05-27T06:47:06Z</time>
      </trkpt>
      <trkpt lat="43.39891" lon="1.67955">
        <ele>193</ele>
        <time>2023-05-27T06:47:07Z</time>
      </trkpt>
      <trkpt lat="43.39889" lon="1.67956">
        <ele>193</ele>
        <time>2023-05-27T06:47:08Z</time>
      </trkpt>
      <trkpt lat="43.39887" lon="1.67957">
        <ele>193</ele>
        <time>2023-05-27T06:47:09Z</time>
      </trkpt>
      <trkpt lat="43.39885" lon="1.67958">
        <ele>193</ele>
        <time>2023-05-27T06:47:10Z</time>
      </trkpt>
      <trkpt lat="43.39884" lon="1.67959">
        <ele>193</ele>
        <time>2023-05-27T06:47:11Z</time>
      </trkpt>
      <trkpt lat="43.39884" lon="1.6796">
        <ele>193.2</ele>
        <time>2023-05-27T06:47:12Z</time>
      </trkpt>
      <trkpt lat="43.39882" lon="1.67961">
        <ele>193.2</ele>
        <time>2023-05-27T06:47:13Z</time>
      </trkpt>
      <trkpt lat="43.39881" lon="1.67961">
        <ele>193.2</ele>
        <time>2023-05-27T06:47:14Z</time>
      </trkpt>
      <trkpt lat="43.39879" lon="1.67961">
        <ele>193.4</ele>
        <time>2023-05-27T06:47:15Z</time>
      </trkpt>
      <trkpt lat="43.39878" lon="1.67962">
        <ele>193.4</ele>
        <time>2023-05-27T06:47:16Z</time>
      </trkpt>
      <trkpt lat="43.39876" lon="1.67963">
        <ele>193.6</ele>
        <time>2023-05-27T06:47:17Z</time>
      </trkpt>
      <trkpt lat="43.39875" lon="1.67965">
        <ele>193.6</ele>
        <time>2023-05-27T06:47:18Z</time>
      </trkpt>
      <trkpt lat="43.39872" lon="1.67966">
        <ele>193.8</ele>
        <time>2023-05-27T06:47:19Z</time>
      </trkpt>
      <trkpt lat="43.39872" lon="1.67967">
        <ele>193.8</ele>
        <time>2023-05-27T06:47:20Z</time>
      </trkpt>
      <trkpt lat="43.39871" lon="1.67967">
        <ele>194</ele>
        <time>2023-05-27T06:47:21Z</time>
      </trkpt>
      <trkpt lat="43.39869" lon="1.67968">
        <ele>194</ele>
        <time>2023-05-27T06:47:22Z</time>
      </trkpt>
      <trkpt lat="43.39866" lon="1.6797">
        <ele>194.2</ele>
        <time>2023-05-27T06:47:23Z</time>
      </trkpt>
      <trkpt lat="43.39864" lon="1.67971">
        <ele>194.2</ele>
        <time>2023-05-27T06:47:24Z</time>
      </trkpt>
      <trkpt lat="43.39862" lon="1.67972">
        <ele>194.4</ele>
        <time>2023-05-27T06:47:25Z</time>
      </trkpt>
      <trkpt lat="43.3986" lon="1.67973">
        <ele>194.4</ele>
        <time>2023-05-27T06:47:26Z</time>
      </trkpt>
      <trkpt lat="43.39859" lon="1.67974">
        <ele>194.6</ele>
        <time>2023-05-27T06:47:27Z</time>
      </trkpt>
      <trkpt lat="43.39857" lon="1.67975">
        <ele>194.6</ele>
        <time>2023-05-27T06:47:28Z</time>
      </trkpt>
      <trkpt lat="43.39855" lon="1.67976">
        <ele>194.8</ele>
        <time>2023-05-27T06:47:29Z</time>
      </trkpt>
      <trkpt lat="43.39854" lon="1.67977">
        <ele>194.8</ele>
        <time>2023-05-27T06:47:30Z</time>
      </trkpt>
      <trkpt lat="43.39852" lon="1.67978">
        <ele>194.8</ele>
        <time>2023-05-27T06:47:31Z</time>
      </trkpt>
      <trkpt lat="43.39849" lon="1.6798">
        <ele>194.8</ele>
        <time>2023-05-27T06:47:32Z</time>
      </trkpt>
      <trkpt lat="43.39846" lon="1.67981">
        <ele>195</ele>
        <time>2023-05-27T06:47:33Z</time>
      </trkpt>
      <trkpt lat="43.39845" lon="1.67983">
        <ele>195</ele>
        <time>2023-05-27T06:47:34Z</time>
      </trkpt>
      <trkpt lat="43.39844" lon="1.67983">
        <ele>195</ele>
        <time>2023-05-27T06:47:35Z</time>
      </trkpt>
      <trkpt lat="43.39842" lon="1.67984">
        <ele>195.2</ele>
        <time>2023-05-27T06:47:36Z</time>
      </trkpt>
      <trkpt lat="43.39841" lon="1.67985">
        <ele>195.2</ele>
        <time>2023-05-27T06:47:37Z</time>
      </trkpt>
      <trkpt lat="43.3984" lon="1.67987">
        <ele>195.2</ele>
        <time>2023-05-27T06:47:38Z</time>
      </trkpt>
      <trkpt lat="43.39838" lon="1.67989">
        <ele>195.4</ele>
        <time>2023-05-27T06:47:39Z</time>
      </trkpt>
      <trkpt lat="43.39837" lon="1.6799">
        <ele>195.4</ele>
        <time>2023-05-27T06:47:40Z</time>
      </trkpt>
      <trkpt lat="43.39835" lon="1.67992">
        <ele>195.4</ele>
        <time>2023-05-27T06:47:41Z</time>
      </trkpt>
      <trkpt lat="43.39833" lon="1.67993">
        <ele>195.4</ele>
        <time>2023-05-27T06:47:42Z</time>
      </trkpt>
      <trkpt lat="43.39832" lon="1.67994">
        <ele>195.4</ele>
        <time>2023-05-27T06:47:43Z</time>
      </trkpt>
      <trkpt lat="43.3983" lon="1.67995">
        <ele>195.6</ele>
        <time>2023-05-27T06:47:44Z</time>
      </trkpt>
      <trkpt lat="43.39829" lon="1.67995">
        <ele>195.6</ele>
        <time>2023-05-27T06:47:45Z</time>
      </trkpt>
      <trkpt lat="43.39829" lon="1.67996">
        <ele>195.6</ele>
        <time>2023-05-27T06:47:46Z</time>
      </trkpt>
      <trkpt lat="43.39829" lon="1.67996">
        <ele>195.6</ele>
        <time>2023-05-27T06:47:47Z</time>
      </trkpt>
      <trkpt lat="43.39829" lon="1.67996">
        <ele>195.6</ele>
        <time>2023-05-27T06:47:48Z</time>
      </trkpt>
      <trkpt lat="43.39829" lon="1.67996">
        <ele>195.6</ele>
        <time>2023-05-27T06:47:49Z</time>
      </trkpt>
      <trkpt lat="43.39829" lon="1.67996">
        <ele>195.6</ele>
        <time>2023-05-27T06:47:50Z</time>
      </trkpt>
      <trkpt lat="43.39829" lon="1.67996">
        <ele>195.6</ele>
        <time>2023-05-27T06:47:51Z</time>
      </trkpt>
      <trkpt lat="43.39829" lon="1.67996">
        <ele>195.6</ele>
        <time>2023-05-27T06:47:52Z</time>
      </trkpt>
      <trkpt lat="43.39829" lon="1.67996">
        <ele>195.6</ele>
        <time>2023-05-27T06:47:53Z</time>
      </trkpt>
      <trkpt lat="43.39828" lon="1.67997">
        <ele>195.6</ele>
        <time>2023-05-27T06:51:53Z</time>
      </trkpt>
      <trkpt lat="43.39828" lon="1.67997">
        <ele>195.6</ele>
        <time>2023-05-27T06:51:54Z</time>
      </trkpt>
      <trkpt lat="43.39828" lon="1.67997">
        <ele>195.6</ele>
        <time>2023-05-27T06:51:55Z</time>
      </trkpt>
      <trkpt lat="43.39828" lon="1.67997">
        <ele>195.6</ele>
        <time>2023-05-27T06:51:56Z</time>
      </trkpt>
      <trkpt lat="43.39828" lon="1.67997">
        <ele>195.6</ele>
        <time>2023-05-27T06:51:57Z</time>
      </trkpt>
      <trkpt lat="43.39828" lon="1.67997">
        <ele>195.6</ele>
        <time>2023-05-27T06:51:58Z</time>
      </trkpt>
      <trkpt lat="43.39827" lon="1.67998">
        <ele>195.6</ele>
        <time>2023-05-27T06:51:59Z</time>
      </trkpt>
      <trkpt lat="43.39826" lon="1.67999">
        <ele>195.6</ele>
        <time>2023-05-27T06:52:00Z</time>
      </trkpt>
      <trkpt lat="43.39825" lon="1.68001">
        <ele>195.6</ele>
        <time>2023-05-27T06:52:01Z</time>
      </trkpt>
      <trkpt lat="43.39825" lon="1.68002">
        <ele>195.6</ele>
        <time>2023-05-27T06:52:02Z</time>
      </trkpt>
      <trkpt lat="43.39824" lon="1.68003">
        <ele>195.6</ele>
        <time>2023-05-27T06:52:03Z</time>
      </trkpt>
      <trkpt lat="43.39824" lon="1.68004">
        <ele>195.6</ele>
        <time>2023-05-27T06:52:04Z</time>
      </trkpt>
      <trkpt lat="43.39823" lon="1.68004">
        <ele>195.6</ele>
        <time>2023-05-27T06:52:05Z</time>
      </trkpt>
      <trkpt lat="43.39823" lon="1.68005">
        <ele>195.6</ele>
        <time>2023-05-27T06:52:06Z</time>
      </trkpt>
      <trkpt lat="43.39822" lon="1.68007">
        <ele>195.6</ele>
        <time>2023-05-27T06:52:07Z</time>
      </trkpt>
      <trkpt lat="43.39821" lon="1.68009">
        <ele>195.8</ele>
        <time>2023-05-27T06:52:08Z</time>
      </trkpt>
      <trkpt lat="43.3982" lon="1.68011">
        <ele>195.8</ele>
        <time>2023-05-27T06:52:09Z</time>
      </trkpt>
      <trkpt lat="43.39819" lon="1.68013">
        <ele>195.8</ele>
        <time>2023-05-27T06:52:10Z</time>
      </trkpt>
      <trkpt lat="43.39818" lon="1.68015">
        <ele>195.8</ele>
        <time>2023-05-27T06:52:11Z</time>
      </trkpt>
      <trkpt lat="43.39816" lon="1.68018">
        <ele>195.8</ele>
        <time>2023-05-27T06:52:12Z</time>
      </trkpt>
      <trkpt lat="43.39814" lon="1.6802">
        <ele>195.8</ele>
        <time>2023-05-27T06:52:13Z</time>
      </trkpt>
      <trkpt lat="43.39813" lon="1.68023">
        <ele>196</ele>
        <time>2023-05-27T06:52:14Z</time>
      </trkpt>
      <trkpt lat="43.39812" lon="1.68027">
        <ele>196</ele>
        <time>2023-05-27T06:52:15Z</time>
      </trkpt>
      <trkpt lat="43.39809" lon="1.6803">
        <ele>196</ele>
        <time>2023-05-27T06:52:16Z</time>
      </trkpt>
      <trkpt lat="43.39808" lon="1.68033">
        <ele>196</ele>
        <time>2023-05-27T06:52:17Z</time>
      </trkpt>
      <trkpt lat="43.39807" lon="1.68037">
        <ele>196</ele>
        <time>2023-05-27T06:52:18Z</time>
      </trkpt>
      <trkpt lat="43.39804" lon="1.6804">
        <ele>196</ele>
        <time>2023-05-27T06:52:19Z</time>
      </trkpt>
      <trkpt lat="43.39802" lon="1.68044">
        <ele>196</ele>
        <time>2023-05-27T06:52:20Z</time>
      </trkpt>
      <trkpt lat="43.39802" lon="1.68047">
        <ele>196.2</ele>
        <time>2023-05-27T06:52:21Z</time>
      </trkpt>
      <trkpt lat="43.39799" lon="1.68052">
        <ele>196.2</ele>
        <time>2023-05-27T06:52:22Z</time>
      </trkpt>
      <trkpt lat="43.39797" lon="1.68057">
        <ele>196.2</ele>
        <time>2023-05-27T06:52:23Z</time>
      </trkpt>
      <trkpt lat="43.39795" lon="1.68062">
        <ele>196.2</ele>
        <time>2023-05-27T06:52:24Z</time>
      </trkpt>
      <trkpt lat="43.39792" lon="1.68068">
        <ele>196.2</ele>
        <time>2023-05-27T06:52:25Z</time>
      </trkpt>
      <trkpt lat="43.39789" lon="1.68074">
        <ele>196.2</ele>
        <time>2023-05-27T06:52:26Z</time>
      </trkpt>
      <trkpt lat="43.39787" lon="1.68079">
        <ele>196.2</ele>
        <time>2023-05-27T06:52:27Z</time>
      </trkpt>
      <trkpt lat="43.39787" lon="1.68085">
        <ele>196.4</ele>
        <time>2023-05-27T06:52:28Z</time>
      </trkpt>
      <trkpt lat="43.39785" lon="1.6809">
        <ele>196.4</ele>
        <time>2023-05-27T06:52:29Z</time>
      </trkpt>
      <trkpt lat="43.39782" lon="1.68096">
        <ele>196.4</ele>
        <time>2023-05-27T06:52:30Z</time>
      </trkpt>
      <trkpt lat="43.39779" lon="1.68102">
        <ele>196.4</ele>
        <time>2023-05-27T06:52:31Z</time>
      </trkpt>
      <trkpt lat="43.39777" lon="1.68107">
        <ele>196.4</ele>
        <time>2023-05-27T06:52:32Z</time>
      </trkpt>
      <trkpt lat="43.39776" lon="1.68112">
        <ele>196.4</ele>
        <time>2023-05-27T06:52:33Z</time>
      </trkpt>
      <trkpt lat="43.39775" lon="1.68116">
        <ele>196.4</ele>
        <time>2023-05-27T06:52:34Z</time>
      </trkpt>
      <trkpt lat="43.39774" lon="1.68122">
        <ele>196.6</ele>
        <time>2023-05-27T06:52:35Z</time>
      </trkpt>
      <trkpt lat="43.39772" lon="1.6813">
        <ele>196.6</ele>
        <time>2023-05-27T06:52:36Z</time>
      </trkpt>
      <trkpt lat="43.3977" lon="1.68136">
        <ele>196.6</ele>
        <time>2023-05-27T06:52:37Z</time>
      </trkpt>
      <trkpt lat="43.39768" lon="1.68142">
        <ele>196.6</ele>
        <time>2023-05-27T06:52:38Z</time>
      </trkpt>
      <trkpt lat="43.39767" lon="1.68147">
        <ele>196.8</ele>
        <time>2023-05-27T06:52:39Z</time>
      </trkpt>
      <trkpt lat="43.39766" lon="1.68153">
        <ele>196.8</ele>
        <time>2023-05-27T06:52:40Z</time>
      </trkpt>
      <trkpt lat="43.39765" lon="1.68158">
        <ele>196.8</ele>
        <time>2023-05-27T06:52:41Z</time>
      </trkpt>
      <trkpt lat="43.39764" lon="1.68163">
        <ele>196.8</ele>
        <time>2023-05-27T06:52:42Z</time>
      </trkpt>
      <trkpt lat="43.39761" lon="1.68169">
        <ele>196.8</ele>
        <time>2023-05-27T06:52:43Z</time>
      </trkpt>
      <trkpt lat="43.3976" lon="1.68174">
        <ele>196.8</ele>
        <time>2023-05-27T06:52:44Z</time>
      </trkpt>
      <trkpt lat="43.39759" lon="1.68179">
        <ele>196.8</ele>
        <time>2023-05-27T06:52:45Z</time>
      </trkpt>
      <trkpt lat="43.39759" lon="1.68184">
        <ele>196.8</ele>
        <time>2023-05-27T06:52:46Z</time>
      </trkpt>
      <trkpt lat="43.39758" lon="1.68189">
        <ele>196.8</ele>
        <time>2023-05-27T06:52:47Z</time>
      </trkpt>
      <trkpt lat="43.39757" lon="1.68194">
        <ele>196.8</ele>
        <time>2023-05-27T06:52:48Z</time>
      </trkpt>
      <trkpt lat="43.39755" lon="1.68198">
        <ele>196.8</ele>
        <time>2023-05-27T06:52:49Z</time>
      </trkpt>
      <trkpt lat="43.39754" lon="1.68202">
        <ele>196.8</ele>
        <time>2023-05-27T06:52:50Z</time>
      </trkpt>
      <trkpt lat="43.39752" lon="1.68207">
        <ele>196.8</ele>
        <time>2023-05-27T06:52:51Z</time>
      </trkpt>
      <trkpt lat="43.39751" lon="1.68211">
        <ele>196.8</ele>
        <time>2023-05-27T06:52:52Z</time>
      </trkpt>
      <trkpt lat="43.39748" lon="1.68217">
        <ele>196.8</ele>
        <time>2023-05-27T06:52:53Z</time>
      </trkpt>
      <trkpt lat="43.39746" lon="1.68222">
        <ele>196.8</ele>
        <time>2023-05-27T06:52:54Z</time>
      </trkpt>
      <trkpt lat="43.39745" lon="1.68226">
        <ele>196.8</ele>
        <time>2023-05-27T06:52:55Z</time>
      </trkpt>
      <trkpt lat="43.39745" lon="1.6823">
        <ele>196.8</ele>
        <time>2023-05-27T06:52:56Z</time>
      </trkpt>
      <trkpt lat="43.39745" lon="1.68234">
        <ele>196.8</ele>
        <time>2023-05-27T06:52:57Z</time>
      </trkpt>
      <trkpt lat="43.39743" lon="1.68239">
        <ele>196.8</ele>
        <time>2023-05-27T06:52:58Z</time>
      </trkpt>
      <trkpt lat="43.39741" lon="1.68244">
        <ele>196.8</ele>
        <time>2023-05-27T06:52:59Z</time>
      </trkpt>
      <trkpt lat="43.39739" lon="1.6825">
        <ele>196.8</ele>
        <time>2023-05-27T06:53:00Z</time>
      </trkpt>
      <trkpt lat="43.39735" lon="1.68255">
        <ele>196.6</ele>
        <time>2023-05-27T06:53:01Z</time>
      </trkpt>
      <trkpt lat="43.39732" lon="1.6826">
        <ele>196.6</ele>
        <time>2023-05-27T06:53:02Z</time>
      </trkpt>
      <trkpt lat="43.39728" lon="1.68266">
        <ele>196.6</ele>
        <time>2023-05-27T06:53:03Z</time>
      </trkpt>
      <trkpt lat="43.39725" lon="1.68271">
        <ele>196.6</ele>
        <time>2023-05-27T06:53:04Z</time>
      </trkpt>
      <trkpt lat="43.39722" lon="1.68277">
        <ele>196.6</ele>
        <time>2023-05-27T06:53:05Z</time>
      </trkpt>
      <trkpt lat="43.39718" lon="1.68282">
        <ele>196.8</ele>
        <time>2023-05-27T06:53:06Z</time>
      </trkpt>
      <trkpt lat="43.39714" lon="1.68286">
        <ele>196.8</ele>
        <time>2023-05-27T06:53:07Z</time>
      </trkpt>
      <trkpt lat="43.39711" lon="1.68291">
        <ele>196.8</ele>
        <time>2023-05-27T06:53:08Z</time>
      </trkpt>
      <trkpt lat="43.39708" lon="1.68295">
        <ele>196.8</ele>
        <time>2023-05-27T06:53:09Z</time>
      </trkpt>
      <trkpt lat="43.39706" lon="1.68299">
        <ele>196.8</ele>
        <time>2023-05-27T06:53:10Z</time>
      </trkpt>
      <trkpt lat="43.39702" lon="1.68303">
        <ele>196.8</ele>
        <time>2023-05-27T06:53:11Z</time>
      </trkpt>
      <trkpt lat="43.39698" lon="1.68308">
        <ele>196.8</ele>
        <time>2023-05-27T06:53:12Z</time>
      </trkpt>
      <trkpt lat="43.39694" lon="1.68312">
        <ele>196.8</ele>
        <time>2023-05-27T06:53:13Z</time>
      </trkpt>
      <trkpt lat="43.39691" lon="1.68315">
        <ele>196.8</ele>
        <time>2023-05-27T06:53:14Z</time>
      </trkpt>
      <trkpt lat="43.39688" lon="1.68318">
        <ele>196.8</ele>
        <time>2023-05-27T06:53:15Z</time>
      </trkpt>
      <trkpt lat="43.39685" lon="1.6832">
        <ele>197</ele>
        <time>2023-05-27T06:53:16Z</time>
      </trkpt>
      <trkpt lat="43.39683" lon="1.68322">
        <ele>197</ele>
        <time>2023-05-27T06:53:17Z</time>
      </trkpt>
      <trkpt lat="43.39679" lon="1.68325">
        <ele>197</ele>
        <time>2023-05-27T06:53:18Z</time>
      </trkpt>
      <trkpt lat="43.39676" lon="1.68327">
        <ele>197</ele>
        <time>2023-05-27T06:53:19Z</time>
      </trkpt>
      <trkpt lat="43.39671" lon="1.68332">
        <ele>197</ele>
        <time>2023-05-27T06:53:20Z</time>
      </trkpt>
      <trkpt lat="43.39665" lon="1.68336">
        <ele>197</ele>
        <time>2023-05-27T06:53:21Z</time>
      </trkpt>
      <trkpt lat="43.39659" lon="1.6834">
        <ele>197</ele>
        <time>2023-05-27T06:53:22Z</time>
      </trkpt>
      <trkpt lat="43.39655" lon="1.68342">
        <ele>197</ele>
        <time>2023-05-27T06:53:23Z</time>
      </trkpt>
      <trkpt lat="43.39648" lon="1.68346">
        <ele>197</ele>
        <time>2023-05-27T06:53:24Z</time>
      </trkpt>
      <trkpt lat="43.39644" lon="1.68349">
        <ele>197</ele>
        <time>2023-05-27T06:53:25Z</time>
      </trkpt>
      <trkpt lat="43.39641" lon="1.68352">
        <ele>197</ele>
        <time>2023-05-27T06:53:26Z</time>
      </trkpt>
      <trkpt lat="43.39637" lon="1.68355">
        <ele>197</ele>
        <time>2023-05-27T06:53:27Z</time>
      </trkpt>
      <trkpt lat="43.39632" lon="1.68359">
        <ele>197</ele>
        <time>2023-05-27T06:53:28Z</time>
      </trkpt>
      <trkpt lat="43.39629" lon="1.68362">
        <ele>197</ele>
        <time>2023-05-27T06:53:29Z</time>
      </trkpt>
      <trkpt lat="43.39625" lon="1.68365">
        <ele>197</ele>
        <time>2023-05-27T06:53:30Z</time>
      </trkpt>
      <trkpt lat="43.3962" lon="1.68368">
        <ele>196.8</ele>
        <time>2023-05-27T06:53:31Z</time>
      </trkpt>
      <trkpt lat="43.39616" lon="1.68371">
        <ele>196.8</ele>
        <time>2023-05-27T06:53:32Z</time>
      </trkpt>
      <trkpt lat="43.39613" lon="1.68373">
        <ele>196.8</ele>
        <time>2023-05-27T06:53:33Z</time>
      </trkpt>
      <trkpt lat="43.39609" lon="1.68376">
        <ele>196.8</ele>
        <time>2023-05-27T06:53:34Z</time>
      </trkpt>
      <trkpt lat="43.39604" lon="1.68381">
        <ele>196.8</ele>
        <time>2023-05-27T06:53:35Z</time>
      </trkpt>
      <trkpt lat="43.396" lon="1.68386">
        <ele>197</ele>
        <time>2023-05-27T06:53:36Z</time>
      </trkpt>
      <trkpt lat="43.39597" lon="1.68389">
        <ele>197</ele>
        <time>2023-05-27T06:53:37Z</time>
      </trkpt>
      <trkpt lat="43.39593" lon="1.68393">
        <ele>197</ele>
        <time>2023-05-27T06:53:38Z</time>
      </trkpt>
      <trkpt lat="43.39588" lon="1.68398">
        <ele>197</ele>
        <time>2023-05-27T06:53:39Z</time>
      </trkpt>
      <trkpt lat="43.39585" lon="1.68402">
        <ele>197</ele>
        <time>2023-05-27T06:53:40Z</time>
      </trkpt>
      <trkpt lat="43.39581" lon="1.68406">
        <ele>197</ele>
        <time>2023-05-27T06:53:41Z</time>
      </trkpt>
      <trkpt lat="43.39578" lon="1.68411">
        <ele>197.2</ele>
        <time>2023-05-27T06:53:42Z</time>
      </trkpt>
      <trkpt lat="43.39576" lon="1.68416">
        <ele>197.2</ele>
        <time>2023-05-27T06:53:43Z</time>
      </trkpt>
      <trkpt lat="43.39573" lon="1.6842">
        <ele>197.2</ele>
        <time>2023-05-27T06:53:44Z</time>
      </trkpt>
      <trkpt lat="43.39569" lon="1.68424">
        <ele>197.2</ele>
        <time>2023-05-27T06:53:45Z</time>
      </trkpt>
      <trkpt lat="43.39565" lon="1.68429">
        <ele>197.2</ele>
        <time>2023-05-27T06:53:46Z</time>
      </trkpt>
      <trkpt lat="43.39562" lon="1.68436">
        <ele>197.2</ele>
        <time>2023-05-27T06:53:47Z</time>
      </trkpt>
      <trkpt lat="43.39562" lon="1.6844">
        <ele>197.4</ele>
        <time>2023-05-27T06:53:48Z</time>
      </trkpt>
      <trkpt lat="43.39561" lon="1.68445">
        <ele>197.4</ele>
        <time>2023-05-27T06:53:49Z</time>
      </trkpt>
      <trkpt lat="43.39559" lon="1.6845">
        <ele>197.4</ele>
        <time>2023-05-27T06:53:50Z</time>
      </trkpt>
      <trkpt lat="43.39558" lon="1.68455">
        <ele>197.4</ele>
        <time>2023-05-27T06:53:51Z</time>
      </trkpt>
      <trkpt lat="43.39556" lon="1.6846">
        <ele>197.6</ele>
        <time>2023-05-27T06:53:52Z</time>
      </trkpt>
      <trkpt lat="43.39556" lon="1.68465">
        <ele>197.6</ele>
        <time>2023-05-27T06:53:53Z</time>
      </trkpt>
      <trkpt lat="43.39555" lon="1.6847">
        <ele>197.6</ele>
        <time>2023-05-27T06:53:54Z</time>
      </trkpt>
      <trkpt lat="43.39554" lon="1.68476">
        <ele>197.4</ele>
        <time>2023-05-27T06:53:55Z</time>
      </trkpt>
      <trkpt lat="43.39554" lon="1.68481">
        <ele>197.4</ele>
        <time>2023-05-27T06:53:56Z</time>
      </trkpt>
      <trkpt lat="43.39553" lon="1.68487">
        <ele>197.4</ele>
        <time>2023-05-27T06:53:57Z</time>
      </trkpt>
      <trkpt lat="43.39554" lon="1.68493">
        <ele>197.4</ele>
        <time>2023-05-27T06:53:58Z</time>
      </trkpt>
      <trkpt lat="43.39555" lon="1.68499">
        <ele>197.4</ele>
        <time>2023-05-27T06:53:59Z</time>
      </trkpt>
      <trkpt lat="43.39556" lon="1.68506">
        <ele>197.4</ele>
        <time>2023-05-27T06:54:00Z</time>
      </trkpt>
      <trkpt lat="43.39557" lon="1.68512">
        <ele>197.4</ele>
        <time>2023-05-27T06:54:01Z</time>
      </trkpt>
      <trkpt lat="43.39559" lon="1.68518">
        <ele>197.4</ele>
        <time>2023-05-27T06:54:02Z</time>
      </trkpt>
      <trkpt lat="43.39559" lon="1.68524">
        <ele>197.4</ele>
        <time>2023-05-27T06:54:03Z</time>
      </trkpt>
      <trkpt lat="43.3956" lon="1.6853">
        <ele>197.4</ele>
        <time>2023-05-27T06:54:04Z</time>
      </trkpt>
      <trkpt lat="43.3956" lon="1.68535">
        <ele>197.4</ele>
        <time>2023-05-27T06:54:05Z</time>
      </trkpt>
      <trkpt lat="43.3956" lon="1.68541">
        <ele>197.6</ele>
        <time>2023-05-27T06:54:06Z</time>
      </trkpt>
      <trkpt lat="43.39561" lon="1.68546">
        <ele>197.6</ele>
        <time>2023-05-27T06:54:07Z</time>
      </trkpt>
      <trkpt lat="43.39562" lon="1.68552">
        <ele>197.6</ele>
        <time>2023-05-27T06:54:08Z</time>
      </trkpt>
      <trkpt lat="43.39563" lon="1.68557">
        <ele>197.8</ele>
        <time>2023-05-27T06:54:09Z</time>
      </trkpt>
      <trkpt lat="43.39564" lon="1.68562">
        <ele>197.8</ele>
        <time>2023-05-27T06:54:10Z</time>
      </trkpt>
      <trkpt lat="43.39564" lon="1.68567">
        <ele>197.8</ele>
        <time>2023-05-27T06:54:11Z</time>
      </trkpt>
      <trkpt lat="43.39563" lon="1.68573">
        <ele>198</ele>
        <time>2023-05-27T06:54:12Z</time>
      </trkpt>
      <trkpt lat="43.39563" lon="1.68578">
        <ele>198</ele>
        <time>2023-05-27T06:54:13Z</time>
      </trkpt>
      <trkpt lat="43.39563" lon="1.68583">
        <ele>198</ele>
        <time>2023-05-27T06:54:14Z</time>
      </trkpt>
      <trkpt lat="43.39563" lon="1.68589">
        <ele>198.2</ele>
        <time>2023-05-27T06:54:15Z</time>
      </trkpt>
      <trkpt lat="43.39564" lon="1.68594">
        <ele>198.2</ele>
        <time>2023-05-27T06:54:16Z</time>
      </trkpt>
      <trkpt lat="43.39565" lon="1.68599">
        <ele>198.2</ele>
        <time>2023-05-27T06:54:17Z</time>
      </trkpt>
      <trkpt lat="43.39565" lon="1.68605">
        <ele>198.2</ele>
        <time>2023-05-27T06:54:18Z</time>
      </trkpt>
      <trkpt lat="43.39566" lon="1.68609">
        <ele>198.2</ele>
        <time>2023-05-27T06:54:19Z</time>
      </trkpt>
      <trkpt lat="43.39567" lon="1.68615">
        <ele>198.2</ele>
        <time>2023-05-27T06:54:20Z</time>
      </trkpt>
      <trkpt lat="43.39568" lon="1.6862">
        <ele>198.2</ele>
        <time>2023-05-27T06:54:21Z</time>
      </trkpt>
      <trkpt lat="43.39567" lon="1.68626">
        <ele>198.2</ele>
        <time>2023-05-27T06:54:22Z</time>
      </trkpt>
      <trkpt lat="43.39567" lon="1.68632">
        <ele>198.2</ele>
        <time>2023-05-27T06:54:23Z</time>
      </trkpt>
      <trkpt lat="43.39567" lon="1.68639">
        <ele>198.4</ele>
        <time>2023-05-27T06:54:24Z</time>
      </trkpt>
      <trkpt lat="43.39566" lon="1.68645">
        <ele>198.4</ele>
        <time>2023-05-27T06:54:25Z</time>
      </trkpt>
      <trkpt lat="43.39565" lon="1.6865">
        <ele>198.2</ele>
        <time>2023-05-27T06:54:26Z</time>
      </trkpt>
      <trkpt lat="43.39565" lon="1.68657">
        <ele>198.2</ele>
        <time>2023-05-27T06:54:27Z</time>
      </trkpt>
      <trkpt lat="43.39565" lon="1.68662">
        <ele>198.2</ele>
        <time>2023-05-27T06:54:28Z</time>
      </trkpt>
      <trkpt lat="43.39565" lon="1.68669">
        <ele>198.2</ele>
        <time>2023-05-27T06:54:29Z</time>
      </trkpt>
      <trkpt lat="43.39565" lon="1.68676">
        <ele>198.2</ele>
        <time>2023-05-27T06:54:30Z</time>
      </trkpt>
      <trkpt lat="43.39564" lon="1.68682">
        <ele>198.2</ele>
        <time>2023-05-27T06:54:31Z</time>
      </trkpt>
      <trkpt lat="43.39564" lon="1.68688">
        <ele>198.2</ele>
        <time>2023-05-27T06:54:32Z</time>
      </trkpt>
      <trkpt lat="43.39566" lon="1.68694">
        <ele>198.2</ele>
        <time>2023-05-27T06:54:33Z</time>
      </trkpt>
      <trkpt lat="43.39567" lon="1.687">
        <ele>198.2</ele>
        <time>2023-05-27T06:54:34Z</time>
      </trkpt>
      <trkpt lat="43.39568" lon="1.68708">
        <ele>198</ele>
        <time>2023-05-27T06:54:35Z</time>
      </trkpt>
      <trkpt lat="43.39567" lon="1.68715">
        <ele>198</ele>
        <time>2023-05-27T06:54:36Z</time>
      </trkpt>
      <trkpt lat="43.39564" lon="1.68722">
        <ele>198</ele>
        <time>2023-05-27T06:54:37Z</time>
      </trkpt>
      <trkpt lat="43.39562" lon="1.68728">
        <ele>198</ele>
        <time>2023-05-27T06:54:38Z</time>
      </trkpt>
      <trkpt lat="43.3956" lon="1.68733">
        <ele>198</ele>
        <time>2023-05-27T06:54:39Z</time>
      </trkpt>
      <trkpt lat="43.3956" lon="1.6874">
        <ele>198</ele>
        <time>2023-05-27T06:54:40Z</time>
      </trkpt>
      <trkpt lat="43.39559" lon="1.68746">
        <ele>197.8</ele>
        <time>2023-05-27T06:54:41Z</time>
      </trkpt>
      <trkpt lat="43.39557" lon="1.68752">
        <ele>197.8</ele>
        <time>2023-05-27T06:54:42Z</time>
      </trkpt>
      <trkpt lat="43.39556" lon="1.68758">
        <ele>197.8</ele>
        <time>2023-05-27T06:54:43Z</time>
      </trkpt>
      <trkpt lat="43.39555" lon="1.68764">
        <ele>197.8</ele>
        <time>2023-05-27T06:54:44Z</time>
      </trkpt>
      <trkpt lat="43.39553" lon="1.68768">
        <ele>197.6</ele>
        <time>2023-05-27T06:54:45Z</time>
      </trkpt>
      <trkpt lat="43.3955" lon="1.68775">
        <ele>197.6</ele>
        <time>2023-05-27T06:54:46Z</time>
      </trkpt>
      <trkpt lat="43.39548" lon="1.68782">
        <ele>197.6</ele>
        <time>2023-05-27T06:54:47Z</time>
      </trkpt>
      <trkpt lat="43.39545" lon="1.68788">
        <ele>197.4</ele>
        <time>2023-05-27T06:54:48Z</time>
      </trkpt>
      <trkpt lat="43.39542" lon="1.68794">
        <ele>197.4</ele>
        <time>2023-05-27T06:54:49Z</time>
      </trkpt>
      <trkpt lat="43.39539" lon="1.688">
        <ele>197.2</ele>
        <time>2023-05-27T06:54:50Z</time>
      </trkpt>
      <trkpt lat="43.39536" lon="1.68806">
        <ele>197</ele>
        <time>2023-05-27T06:54:51Z</time>
      </trkpt>
      <trkpt lat="43.39532" lon="1.68811">
        <ele>197</ele>
        <time>2023-05-27T06:54:52Z</time>
      </trkpt>
      <trkpt lat="43.39528" lon="1.68815">
        <ele>197</ele>
        <time>2023-05-27T06:54:53Z</time>
      </trkpt>
      <trkpt lat="43.39523" lon="1.68819">
        <ele>197</ele>
        <time>2023-05-27T06:54:54Z</time>
      </trkpt>
      <trkpt lat="43.39519" lon="1.68823">
        <ele>196.8</ele>
        <time>2023-05-27T06:54:55Z</time>
      </trkpt>
      <trkpt lat="43.39514" lon="1.68825">
        <ele>196.8</ele>
        <time>2023-05-27T06:54:56Z</time>
      </trkpt>
      <trkpt lat="43.39509" lon="1.68828">
        <ele>196.8</ele>
        <time>2023-05-27T06:54:57Z</time>
      </trkpt>
      <trkpt lat="43.39503" lon="1.6883">
        <ele>196.8</ele>
        <time>2023-05-27T06:54:58Z</time>
      </trkpt>
      <trkpt lat="43.39499" lon="1.68831">
        <ele>196.8</ele>
        <time>2023-05-27T06:54:59Z</time>
      </trkpt>
      <trkpt lat="43.39494" lon="1.68831">
        <ele>196.8</ele>
        <time>2023-05-27T06:55:00Z</time>
      </trkpt>
      <trkpt lat="43.39489" lon="1.68831">
        <ele>196.6</ele>
        <time>2023-05-27T06:55:01Z</time>
      </trkpt>
      <trkpt lat="43.39484" lon="1.6883">
        <ele>196.6</ele>
        <time>2023-05-27T06:55:02Z</time>
      </trkpt>
      <trkpt lat="43.39479" lon="1.68829">
        <ele>196.6</ele>
        <time>2023-05-27T06:55:03Z</time>
      </trkpt>
      <trkpt lat="43.39473" lon="1.68829">
        <ele>196.4</ele>
        <time>2023-05-27T06:55:04Z</time>
      </trkpt>
      <trkpt lat="43.39468" lon="1.68828">
        <ele>196.4</ele>
        <time>2023-05-27T06:55:05Z</time>
      </trkpt>
      <trkpt lat="43.39463" lon="1.68827">
        <ele>196.4</ele>
        <time>2023-05-27T06:55:06Z</time>
      </trkpt>
      <trkpt lat="43.39458" lon="1.68826">
        <ele>196.4</ele>
        <time>2023-05-27T06:55:07Z</time>
      </trkpt>
      <trkpt lat="43.39454" lon="1.68825">
        <ele>196.4</ele>
        <time>2023-05-27T06:55:08Z</time>
      </trkpt>
      <trkpt lat="43.39449" lon="1.68824">
        <ele>196.4</ele>
        <time>2023-05-27T06:55:09Z</time>
      </trkpt>
      <trkpt lat="43.39444" lon="1.68823">
        <ele>196.4</ele>
        <time>2023-05-27T06:55:10Z</time>
      </trkpt>
      <trkpt lat="43.3944" lon="1.68822">
        <ele>196.4</ele>
        <time>2023-05-27T06:55:11Z</time>
      </trkpt>
      <trkpt lat="43.39436" lon="1.68821">
        <ele>196.6</ele>
        <time>2023-05-27T06:55:12Z</time>
      </trkpt>
      <trkpt lat="43.39431" lon="1.6882">
        <ele>196.6</ele>
        <time>2023-05-27T06:55:13Z</time>
      </trkpt>
      <trkpt lat="43.39428" lon="1.6882">
        <ele>196.8</ele>
        <time>2023-05-27T06:55:14Z</time>
      </trkpt>
      <trkpt lat="43.39424" lon="1.68819">
        <ele>197</ele>
        <time>2023-05-27T06:55:15Z</time>
      </trkpt>
      <trkpt lat="43.39421" lon="1.68819">
        <ele>197</ele>
        <time>2023-05-27T06:55:16Z</time>
      </trkpt>
      <trkpt lat="43.39417" lon="1.68818">
        <ele>197.2</ele>
        <time>2023-05-27T06:55:17Z</time>
      </trkpt>
      <trkpt lat="43.39414" lon="1.68818">
        <ele>197.2</ele>
        <time>2023-05-27T06:55:18Z</time>
      </trkpt>
      <trkpt lat="43.3941" lon="1.68817">
        <ele>197.2</ele>
        <time>2023-05-27T06:55:19Z</time>
      </trkpt>
      <trkpt lat="43.39406" lon="1.68816">
        <ele>197</ele>
        <time>2023-05-27T06:55:20Z</time>
      </trkpt>
      <trkpt lat="43.39402" lon="1.68815">
        <ele>197</ele>
        <time>2023-05-27T06:55:21Z</time>
      </trkpt>
      <trkpt lat="43.39398" lon="1.68814">
        <ele>196.6</ele>
        <time>2023-05-27T06:55:22Z</time>
      </trkpt>
      <trkpt lat="43.39393" lon="1.68812">
        <ele>196.4</ele>
        <time>2023-05-27T06:55:23Z</time>
      </trkpt>
      <trkpt lat="43.39388" lon="1.68809">
        <ele>196</ele>
        <time>2023-05-27T06:55:24Z</time>
      </trkpt>
      <trkpt lat="43.39382" lon="1.68806">
        <ele>195.8</ele>
        <time>2023-05-27T06:55:25Z</time>
      </trkpt>
      <trkpt lat="43.39376" lon="1.68805">
        <ele>195.6</ele>
        <time>2023-05-27T06:55:26Z</time>
      </trkpt>
      <trkpt lat="43.39369" lon="1.68807">
        <ele>195.4</ele>
        <time>2023-05-27T06:55:27Z</time>
      </trkpt>
      <trkpt lat="43.39364" lon="1.68811">
        <ele>195.2</ele>
        <time>2023-05-27T06:55:28Z</time>
      </trkpt>
      <trkpt lat="43.3936" lon="1.68816">
        <ele>195.2</ele>
        <time>2023-05-27T06:55:29Z</time>
      </trkpt>
      <trkpt lat="43.39357" lon="1.68823">
        <ele>195.4</ele>
        <time>2023-05-27T06:55:30Z</time>
      </trkpt>
      <trkpt lat="43.39355" lon="1.68829">
        <ele>195.6</ele>
        <time>2023-05-27T06:55:31Z</time>
      </trkpt>
      <trkpt lat="43.39353" lon="1.68835">
        <ele>195.8</ele>
        <time>2023-05-27T06:55:32Z</time>
      </trkpt>
      <trkpt lat="43.39351" lon="1.68839">
        <ele>196</ele>
        <time>2023-05-27T06:55:33Z</time>
      </trkpt>
      <trkpt lat="43.39349" lon="1.68843">
        <ele>196.2</ele>
        <time>2023-05-27T06:55:34Z</time>
      </trkpt>
      <trkpt lat="43.39347" lon="1.68846">
        <ele>196.2</ele>
        <time>2023-05-27T06:55:35Z</time>
      </trkpt>
      <trkpt lat="43.39345" lon="1.68849">
        <ele>196.4</ele>
        <time>2023-05-27T06:55:36Z</time>
      </trkpt>
      <trkpt lat="43.39342" lon="1.68852">
        <ele>196.4</ele>
        <time>2023-05-27T06:55:37Z</time>
      </trkpt>
      <trkpt lat="43.3934" lon="1.68856">
        <ele>196.4</ele>
        <time>2023-05-27T06:55:38Z</time>
      </trkpt>
      <trkpt lat="43.39337" lon="1.6886">
        <ele>196.4</ele>
        <time>2023-05-27T06:55:39Z</time>
      </trkpt>
      <trkpt lat="43.39334" lon="1.68864">
        <ele>196.4</ele>
        <time>2023-05-27T06:55:40Z</time>
      </trkpt>
      <trkpt lat="43.39331" lon="1.68869">
        <ele>196.2</ele>
        <time>2023-05-27T06:55:41Z</time>
      </trkpt>
      <trkpt lat="43.39328" lon="1.68873">
        <ele>196.2</ele>
        <time>2023-05-27T06:55:42Z</time>
      </trkpt>
      <trkpt lat="43.39325" lon="1.68878">
        <ele>196.2</ele>
        <time>2023-05-27T06:55:43Z</time>
      </trkpt>
      <trkpt lat="43.39322" lon="1.68883">
        <ele>196</ele>
        <time>2023-05-27T06:55:44Z</time>
      </trkpt>
      <trkpt lat="43.39319" lon="1.68888">
        <ele>196</ele>
        <time>2023-05-27T06:55:45Z</time>
      </trkpt>
      <trkpt lat="43.39317" lon="1.68893">
        <ele>196</ele>
        <time>2023-05-27T06:55:46Z</time>
      </trkpt>
      <trkpt lat="43.39314" lon="1.68898">
        <ele>196</ele>
        <time>2023-05-27T06:55:47Z</time>
      </trkpt>
      <trkpt lat="43.39311" lon="1.68903">
        <ele>196</ele>
        <time>2023-05-27T06:55:48Z</time>
      </trkpt>
      <trkpt lat="43.39309" lon="1.68909">
        <ele>196</ele>
        <time>2023-05-27T06:55:49Z</time>
      </trkpt>
      <trkpt lat="43.39307" lon="1.68914">
        <ele>195.8</ele>
        <time>2023-05-27T06:55:50Z</time>
      </trkpt>
      <trkpt lat="43.39304" lon="1.68919">
        <ele>195.8</ele>
        <time>2023-05-27T06:55:51Z</time>
      </trkpt>
      <trkpt lat="43.39302" lon="1.68925">
        <ele>195.8</ele>
        <time>2023-05-27T06:55:52Z</time>
      </trkpt>
      <trkpt lat="43.39299" lon="1.68931">
        <ele>195.8</ele>
        <time>2023-05-27T06:55:53Z</time>
      </trkpt>
      <trkpt lat="43.39297" lon="1.68936">
        <ele>195.8</ele>
        <time>2023-05-27T06:55:54Z</time>
      </trkpt>
      <trkpt lat="43.39295" lon="1.68941">
        <ele>195.8</ele>
        <time>2023-05-27T06:55:55Z</time>
      </trkpt>
      <trkpt lat="43.39293" lon="1.68947">
        <ele>195.6</ele>
        <time>2023-05-27T06:55:56Z</time>
      </trkpt>
      <trkpt lat="43.39291" lon="1.68954">
        <ele>195.6</ele>
        <time>2023-05-27T06:55:57Z</time>
      </trkpt>
      <trkpt lat="43.39289" lon="1.6896">
        <ele>195.6</ele>
        <time>2023-05-27T06:55:58Z</time>
      </trkpt>
      <trkpt lat="43.39287" lon="1.68966">
        <ele>195.6</ele>
        <time>2023-05-27T06:55:59Z</time>
      </trkpt>
      <trkpt lat="43.39285" lon="1.68972">
        <ele>195.6</ele>
        <time>2023-05-27T06:56:00Z</time>
      </trkpt>
      <trkpt lat="43.39283" lon="1.68978">
        <ele>195.4</ele>
        <time>2023-05-27T06:56:01Z</time>
      </trkpt>
      <trkpt lat="43.39281" lon="1.68983">
        <ele>195.4</ele>
        <time>2023-05-27T06:56:02Z</time>
      </trkpt>
      <trkpt lat="43.39278" lon="1.68989">
        <ele>195.4</ele>
        <time>2023-05-27T06:56:03Z</time>
      </trkpt>
      <trkpt lat="43.39276" lon="1.68995">
        <ele>195.4</ele>
        <time>2023-05-27T06:56:04Z</time>
      </trkpt>
      <trkpt lat="43.39275" lon="1.69">
        <ele>195.4</ele>
        <time>2023-05-27T06:56:05Z</time>
      </trkpt>
      <trkpt lat="43.39273" lon="1.69006">
        <ele>195.4</ele>
        <time>2023-05-27T06:56:06Z</time>
      </trkpt>
      <trkpt lat="43.39271" lon="1.69011">
        <ele>195.4</ele>
        <time>2023-05-27T06:56:07Z</time>
      </trkpt>
      <trkpt lat="43.39269" lon="1.69017">
        <ele>195.4</ele>
        <time>2023-05-27T06:56:08Z</time>
      </trkpt>
      <trkpt lat="43.39268" lon="1.69022">
        <ele>195.4</ele>
        <time>2023-05-27T06:56:09Z</time>
      </trkpt>
      <trkpt lat="43.39266" lon="1.69027">
        <ele>195.6</ele>
        <time>2023-05-27T06:56:10Z</time>
      </trkpt>
      <trkpt lat="43.39264" lon="1.69032">
        <ele>195.6</ele>
        <time>2023-05-27T06:56:11Z</time>
      </trkpt>
      <trkpt lat="43.39262" lon="1.69037">
        <ele>195.6</ele>
        <time>2023-05-27T06:56:12Z</time>
      </trkpt>
      <trkpt lat="43.3926" lon="1.69042">
        <ele>195.6</ele>
        <time>2023-05-27T06:56:13Z</time>
      </trkpt>
      <trkpt lat="43.39258" lon="1.69047">
        <ele>195.6</ele>
        <time>2023-05-27T06:56:14Z</time>
      </trkpt>
      <trkpt lat="43.39257" lon="1.69052">
        <ele>195.6</ele>
        <time>2023-05-27T06:56:15Z</time>
      </trkpt>
      <trkpt lat="43.39255" lon="1.69057">
        <ele>195.6</ele>
        <time>2023-05-27T06:56:16Z</time>
      </trkpt>
      <trkpt lat="43.39252" lon="1.69063">
        <ele>195.6</ele>
        <time>2023-05-27T06:56:17Z</time>
      </trkpt>
      <trkpt lat="43.3925" lon="1.69068">
        <ele>195.8</ele>
        <time>2023-05-27T06:56:18Z</time>
      </trkpt>
      <trkpt lat="43.39248" lon="1.69073">
        <ele>195.8</ele>
        <time>2023-05-27T06:56:19Z</time>
      </trkpt>
      <trkpt lat="43.39247" lon="1.69078">
        <ele>195.8</ele>
        <time>2023-05-27T06:56:20Z</time>
      </trkpt>
      <trkpt lat="43.39245" lon="1.69083">
        <ele>195.8</ele>
        <time>2023-05-27T06:56:21Z</time>
      </trkpt>
      <trkpt lat="43.39244" lon="1.69088">
        <ele>195.8</ele>
        <time>2023-05-27T06:56:22Z</time>
      </trkpt>
      <trkpt lat="43.39241" lon="1.69093">
        <ele>195.8</ele>
        <time>2023-05-27T06:56:23Z</time>
      </trkpt>
      <trkpt lat="43.3924" lon="1.69098">
        <ele>196</ele>
        <time>2023-05-27T06:56:24Z</time>
      </trkpt>
      <trkpt lat="43.39238" lon="1.69103">
        <ele>196</ele>
        <time>2023-05-27T06:56:25Z</time>
      </trkpt>
      <trkpt lat="43.39236" lon="1.69108">
        <ele>196</ele>
        <time>2023-05-27T06:56:26Z</time>
      </trkpt>
      <trkpt lat="43.39234" lon="1.69112">
        <ele>196</ele>
        <time>2023-05-27T06:56:27Z</time>
      </trkpt>
      <trkpt lat="43.39232" lon="1.69116">
        <ele>196.2</ele>
        <time>2023-05-27T06:56:28Z</time>
      </trkpt>
      <trkpt lat="43.3923" lon="1.69121">
        <ele>196.2</ele>
        <time>2023-05-27T06:56:29Z</time>
      </trkpt>
      <trkpt lat="43.39228" lon="1.69125">
        <ele>196.2</ele>
        <time>2023-05-27T06:56:30Z</time>
      </trkpt>
      <trkpt lat="43.39226" lon="1.69129">
        <ele>196.2</ele>
        <time>2023-05-27T06:56:31Z</time>
      </trkpt>
      <trkpt lat="43.39225" lon="1.69134">
        <ele>196.2</ele>
        <time>2023-05-27T06:56:32Z</time>
      </trkpt>
      <trkpt lat="43.39222" lon="1.69138">
        <ele>196.2</ele>
        <time>2023-05-27T06:56:33Z</time>
      </trkpt>
      <trkpt lat="43.39219" lon="1.69142">
        <ele>196.2</ele>
        <time>2023-05-27T06:56:34Z</time>
      </trkpt>
      <trkpt lat="43.39216" lon="1.69146">
        <ele>196</ele>
        <time>2023-05-27T06:56:35Z</time>
      </trkpt>
      <trkpt lat="43.39213" lon="1.69151">
        <ele>196</ele>
        <time>2023-05-27T06:56:36Z</time>
      </trkpt>
      <trkpt lat="43.3921" lon="1.69155">
        <ele>196</ele>
        <time>2023-05-27T06:56:37Z</time>
      </trkpt>
      <trkpt lat="43.39207" lon="1.69159">
        <ele>196.2</ele>
        <time>2023-05-27T06:56:38Z</time>
      </trkpt>
      <trkpt lat="43.39206" lon="1.69162">
        <ele>196.2</ele>
        <time>2023-05-27T06:56:39Z</time>
      </trkpt>
      <trkpt lat="43.39204" lon="1.69165">
        <ele>196.4</ele>
        <time>2023-05-27T06:56:40Z</time>
      </trkpt>
      <trkpt lat="43.39202" lon="1.69167">
        <ele>196.6</ele>
        <time>2023-05-27T06:56:41Z</time>
      </trkpt>
      <trkpt lat="43.392" lon="1.69169">
        <ele>196.8</ele>
        <time>2023-05-27T06:56:42Z</time>
      </trkpt>
      <trkpt lat="43.39198" lon="1.6917">
        <ele>197</ele>
        <time>2023-05-27T06:56:43Z</time>
      </trkpt>
      <trkpt lat="43.39197" lon="1.69171">
        <ele>197.2</ele>
        <time>2023-05-27T06:56:44Z</time>
      </trkpt>
      <trkpt lat="43.39195" lon="1.69172">
        <ele>197.2</ele>
        <time>2023-05-27T06:56:45Z</time>
      </trkpt>
      <trkpt lat="43.39194" lon="1.69172">
        <ele>197.4</ele>
        <time>2023-05-27T06:56:46Z</time>
      </trkpt>
      <trkpt lat="43.39193" lon="1.69173">
        <ele>197.6</ele>
        <time>2023-05-27T06:56:47Z</time>
      </trkpt>
      <trkpt lat="43.39191" lon="1.69174">
        <ele>197.6</ele>
        <time>2023-05-27T06:56:48Z</time>
      </trkpt>
      <trkpt lat="43.3919" lon="1.69175">
        <ele>197.8</ele>
        <time>2023-05-27T06:56:49Z</time>
      </trkpt>
      <trkpt lat="43.39188" lon="1.69177">
        <ele>197.8</ele>
        <time>2023-05-27T06:56:50Z</time>
      </trkpt>
      <trkpt lat="43.39186" lon="1.69179">
        <ele>197.8</ele>
        <time>2023-05-27T06:56:51Z</time>
      </trkpt>
      <trkpt lat="43.39184" lon="1.69181">
        <ele>197.8</ele>
        <time>2023-05-27T06:56:52Z</time>
      </trkpt>
      <trkpt lat="43.39182" lon="1.69183">
        <ele>197.8</ele>
        <time>2023-05-27T06:56:53Z</time>
      </trkpt>
      <trkpt lat="43.39178" lon="1.69185">
        <ele>197.6</ele>
        <time>2023-05-27T06:56:54Z</time>
      </trkpt>
      <trkpt lat="43.39175" lon="1.69188">
        <ele>197.6</ele>
        <time>2023-05-27T06:56:55Z</time>
      </trkpt>
      <trkpt lat="43.39173" lon="1.69191">
        <ele>197.4</ele>
        <time>2023-05-27T06:56:56Z</time>
      </trkpt>
      <trkpt lat="43.3917" lon="1.69195">
        <ele>197.2</ele>
        <time>2023-05-27T06:56:57Z</time>
      </trkpt>
      <trkpt lat="43.39168" lon="1.69198">
        <ele>197.2</ele>
        <time>2023-05-27T06:56:58Z</time>
      </trkpt>
      <trkpt lat="43.39165" lon="1.69201">
        <ele>197</ele>
        <time>2023-05-27T06:56:59Z</time>
      </trkpt>
      <trkpt lat="43.39162" lon="1.69205">
        <ele>197</ele>
        <time>2023-05-27T06:57:00Z</time>
      </trkpt>
      <trkpt lat="43.39159" lon="1.69208">
        <ele>196.8</ele>
        <time>2023-05-27T06:57:01Z</time>
      </trkpt>
      <trkpt lat="43.39156" lon="1.69212">
        <ele>196.8</ele>
        <time>2023-05-27T06:57:02Z</time>
      </trkpt>
      <trkpt lat="43.39153" lon="1.69215">
        <ele>196.6</ele>
        <time>2023-05-27T06:57:03Z</time>
      </trkpt>
      <trkpt lat="43.3915" lon="1.69219">
        <ele>196.6</ele>
        <time>2023-05-27T06:57:04Z</time>
      </trkpt>
      <trkpt lat="43.39148" lon="1.69223">
        <ele>196.4</ele>
        <time>2023-05-27T06:57:05Z</time>
      </trkpt>
      <trkpt lat="43.39145" lon="1.69226">
        <ele>196.4</ele>
        <time>2023-05-27T06:57:06Z</time>
      </trkpt>
      <trkpt lat="43.39143" lon="1.69229">
        <ele>196.4</ele>
        <time>2023-05-27T06:57:07Z</time>
      </trkpt>
      <trkpt lat="43.3914" lon="1.69232">
        <ele>196.4</ele>
        <time>2023-05-27T06:57:08Z</time>
      </trkpt>
      <trkpt lat="43.39138" lon="1.69235">
        <ele>196.4</ele>
        <time>2023-05-27T06:57:09Z</time>
      </trkpt>
      <trkpt lat="43.39135" lon="1.69239">
        <ele>196.4</ele>
        <time>2023-05-27T06:57:10Z</time>
      </trkpt>
      <trkpt lat="43.39133" lon="1.69242">
        <ele>196.4</ele>
        <time>2023-05-27T06:57:11Z</time>
      </trkpt>
      <trkpt lat="43.39131" lon="1.69245">
        <ele>196.2</ele>
        <time>2023-05-27T06:57:12Z</time>
      </trkpt>
      <trkpt lat="43.3913" lon="1.69248">
        <ele>196.2</ele>
        <time>2023-05-27T06:57:13Z</time>
      </trkpt>
      <trkpt lat="43.39128" lon="1.69251">
        <ele>196.2</ele>
        <time>2023-05-27T06:57:14Z</time>
      </trkpt>
      <trkpt lat="43.39127" lon="1.69253">
        <ele>196.2</ele>
        <time>2023-05-27T06:57:15Z</time>
      </trkpt>
      <trkpt lat="43.39127" lon="1.69254">
        <ele>196.2</ele>
        <time>2023-05-27T06:57:16Z</time>
      </trkpt>
      <trkpt lat="43.39127" lon="1.69254">
        <ele>196.2</ele>
        <time>2023-05-27T06:57:17Z</time>
      </trkpt>
      <trkpt lat="43.39127" lon="1.69254">
        <ele>196.2</ele>
        <time>2023-05-27T06:57:18Z</time>
      </trkpt>
      <trkpt lat="43.39127" lon="1.69254">
        <ele>196.2</ele>
        <time>2023-05-27T06:57:19Z</time>
      </trkpt>
      <trkpt lat="43.39127" lon="1.69254">
        <ele>196.2</ele>
        <time>2023-05-27T06:57:20Z</time>
      </trkpt>
      <trkpt lat="43.39124" lon="1.69254">
        <ele>196.2</ele>
        <time>2023-05-27T07:03:31Z</time>
      </trkpt>
      <trkpt lat="43.39124" lon="1.69254">
        <ele>196.2</ele>
        <time>2023-05-27T07:03:32Z</time>
      </trkpt>
      <trkpt lat="43.39124" lon="1.69254">
        <ele>196.2</ele>
        <time>2023-05-27T07:03:33Z</time>
      </trkpt>
      <trkpt lat="43.39124" lon="1.69254">
        <ele>196.2</ele>
        <time>2023-05-27T07:03:34Z</time>
      </trkpt>
      <trkpt lat="43.39123" lon="1.69254">
        <ele>196.2</ele>
        <time>2023-05-27T07:03:35Z</time>
      </trkpt>
      <trkpt lat="43.39122" lon="1.69254">
        <ele>196.2</ele>
        <time>2023-05-27T07:03:36Z</time>
      </trkpt>
      <trkpt lat="43.39121" lon="1.69255">
        <ele>196.2</ele>
        <time>2023-05-27T07:03:37Z</time>
      </trkpt>
      <trkpt lat="43.3912" lon="1.69257">
        <ele>196.2</ele>
        <time>2023-05-27T07:03:38Z</time>
      </trkpt>
      <trkpt lat="43.39118" lon="1.69259">
        <ele>196.2</ele>
        <time>2023-05-27T07:03:39Z</time>
      </trkpt>
      <trkpt lat="43.39117" lon="1.69262">
        <ele>196.4</ele>
        <time>2023-05-27T07:03:40Z</time>
      </trkpt>
      <trkpt lat="43.39116" lon="1.69263">
        <ele>196.4</ele>
        <time>2023-05-27T07:03:41Z</time>
      </trkpt>
      <trkpt lat="43.39115" lon="1.69265">
        <ele>196.4</ele>
        <time>2023-05-27T07:03:42Z</time>
      </trkpt>
      <trkpt lat="43.39114" lon="1.69267">
        <ele>196.4</ele>
        <time>2023-05-27T07:03:43Z</time>
      </trkpt>
      <trkpt lat="43.39113" lon="1.69269">
        <ele>196.6</ele>
        <time>2023-05-27T07:03:44Z</time>
      </trkpt>
      <trkpt lat="43.39111" lon="1.69271">
        <ele>196.6</ele>
        <time>2023-05-27T07:03:45Z</time>
      </trkpt>
      <trkpt lat="43.3911" lon="1.69274">
        <ele>196.8</ele>
        <time>2023-05-27T07:03:46Z</time>
      </trkpt>
      <trkpt lat="43.39108" lon="1.69276">
        <ele>196.8</ele>
        <time>2023-05-27T07:03:47Z</time>
      </trkpt>
      <trkpt lat="43.39108" lon="1.69278">
        <ele>197</ele>
        <time>2023-05-27T07:03:48Z</time>
      </trkpt>
      <trkpt lat="43.39106" lon="1.6928">
        <ele>197</ele>
        <time>2023-05-27T07:03:49Z</time>
      </trkpt>
      <trkpt lat="43.39104" lon="1.69282">
        <ele>197</ele>
        <time>2023-05-27T07:03:50Z</time>
      </trkpt>
      <trkpt lat="43.39102" lon="1.69283">
        <ele>197</ele>
        <time>2023-05-27T07:03:51Z</time>
      </trkpt>
      <trkpt lat="43.39101" lon="1.69285">
        <ele>197.2</ele>
        <time>2023-05-27T07:03:52Z</time>
      </trkpt>
      <trkpt lat="43.39098" lon="1.69287">
        <ele>197.2</ele>
        <time>2023-05-27T07:03:53Z</time>
      </trkpt>
      <trkpt lat="43.39096" lon="1.69289">
        <ele>197.2</ele>
        <time>2023-05-27T07:03:54Z</time>
      </trkpt>
      <trkpt lat="43.39094" lon="1.69291">
        <ele>197.2</ele>
        <time>2023-05-27T07:03:55Z</time>
      </trkpt>
      <trkpt lat="43.39092" lon="1.69293">
        <ele>197</ele>
        <time>2023-05-27T07:03:56Z</time>
      </trkpt>
      <trkpt lat="43.39089" lon="1.69296">
        <ele>197</ele>
        <time>2023-05-27T07:03:57Z</time>
      </trkpt>
      <trkpt lat="43.39086" lon="1.69299">
        <ele>197</ele>
        <time>2023-05-27T07:03:58Z</time>
      </trkpt>
      <trkpt lat="43.39082" lon="1.69302">
        <ele>197</ele>
        <time>2023-05-27T07:03:59Z</time>
      </trkpt>
      <trkpt lat="43.39079" lon="1.69305">
        <ele>197</ele>
        <time>2023-05-27T07:04:00Z</time>
      </trkpt>
      <trkpt lat="43.39075" lon="1.69308">
        <ele>197</ele>
        <time>2023-05-27T07:04:01Z</time>
      </trkpt>
      <trkpt lat="43.39072" lon="1.69312">
        <ele>197</ele>
        <time>2023-05-27T07:04:02Z</time>
      </trkpt>
      <trkpt lat="43.39068" lon="1.69316">
        <ele>197</ele>
        <time>2023-05-27T07:04:03Z</time>
      </trkpt>
      <trkpt lat="43.39064" lon="1.69319">
        <ele>197</ele>
        <time>2023-05-27T07:04:04Z</time>
      </trkpt>
      <trkpt lat="43.39061" lon="1.69323">
        <ele>197</ele>
        <time>2023-05-27T07:04:05Z</time>
      </trkpt>
      <trkpt lat="43.39058" lon="1.69326">
        <ele>197</ele>
        <time>2023-05-27T07:04:06Z</time>
      </trkpt>
      <trkpt lat="43.39056" lon="1.69329">
        <ele>197</ele>
        <time>2023-05-27T07:04:07Z</time>
      </trkpt>
      <trkpt lat="43.39054" lon="1.69331">
        <ele>197</ele>
        <time>2023-05-27T07:04:08Z</time>
      </trkpt>
      <trkpt lat="43.39052" lon="1.69334">
        <ele>197</ele>
        <time>2023-05-27T07:04:09Z</time>
      </trkpt>
      <trkpt lat="43.39049" lon="1.69338">
        <ele>197</ele>
        <time>2023-05-27T07:04:10Z</time>
      </trkpt>
      <trkpt lat="43.39047" lon="1.69342">
        <ele>196.8</ele>
        <time>2023-05-27T07:04:11Z</time>
      </trkpt>
      <trkpt lat="43.39044" lon="1.69346">
        <ele>196.8</ele>
        <time>2023-05-27T07:04:12Z</time>
      </trkpt>
      <trkpt lat="43.39041" lon="1.69351">
        <ele>196.8</ele>
        <time>2023-05-27T07:04:13Z</time>
      </trkpt>
      <trkpt lat="43.39037" lon="1.69355">
        <ele>196.6</ele>
        <time>2023-05-27T07:04:14Z</time>
      </trkpt>
      <trkpt lat="43.39034" lon="1.6936">
        <ele>196.6</ele>
        <time>2023-05-27T07:04:15Z</time>
      </trkpt>
      <trkpt lat="43.39031" lon="1.69365">
        <ele>196.6</ele>
        <time>2023-05-27T07:04:16Z</time>
      </trkpt>
      <trkpt lat="43.39029" lon="1.69369">
        <ele>196.8</ele>
        <time>2023-05-27T07:04:17Z</time>
      </trkpt>
      <trkpt lat="43.39026" lon="1.69371">
        <ele>197</ele>
        <time>2023-05-27T07:04:18Z</time>
      </trkpt>
      <trkpt lat="43.39022" lon="1.69374">
        <ele>197.2</ele>
        <time>2023-05-27T07:04:19Z</time>
      </trkpt>
      <trkpt lat="43.39019" lon="1.69377">
        <ele>197.4</ele>
        <time>2023-05-27T07:04:20Z</time>
      </trkpt>
      <trkpt lat="43.39017" lon="1.69382">
        <ele>197.4</ele>
        <time>2023-05-27T07:04:21Z</time>
      </trkpt>
      <trkpt lat="43.39015" lon="1.69386">
        <ele>197.6</ele>
        <time>2023-05-27T07:04:22Z</time>
      </trkpt>
      <trkpt lat="43.39013" lon="1.69389">
        <ele>197.6</ele>
        <time>2023-05-27T07:04:23Z</time>
      </trkpt>
      <trkpt lat="43.3901" lon="1.69392">
        <ele>197.8</ele>
        <time>2023-05-27T07:04:24Z</time>
      </trkpt>
      <trkpt lat="43.39008" lon="1.69396">
        <ele>197.8</ele>
        <time>2023-05-27T07:04:25Z</time>
      </trkpt>
      <trkpt lat="43.39006" lon="1.69402">
        <ele>197.8</ele>
        <time>2023-05-27T07:04:26Z</time>
      </trkpt>
      <trkpt lat="43.39005" lon="1.69406">
        <ele>197.8</ele>
        <time>2023-05-27T07:04:27Z</time>
      </trkpt>
      <trkpt lat="43.39003" lon="1.69413">
        <ele>197.8</ele>
        <time>2023-05-27T07:04:28Z</time>
      </trkpt>
      <trkpt lat="43.39" lon="1.69418">
        <ele>197.8</ele>
        <time>2023-05-27T07:04:29Z</time>
      </trkpt>
      <trkpt lat="43.38997" lon="1.69423">
        <ele>197.8</ele>
        <time>2023-05-27T07:04:30Z</time>
      </trkpt>
      <trkpt lat="43.38994" lon="1.69426">
        <ele>197.8</ele>
        <time>2023-05-27T07:04:31Z</time>
      </trkpt>
      <trkpt lat="43.38993" lon="1.69429">
        <ele>197.8</ele>
        <time>2023-05-27T07:04:32Z</time>
      </trkpt>
      <trkpt lat="43.38991" lon="1.69434">
        <ele>197.8</ele>
        <time>2023-05-27T07:04:33Z</time>
      </trkpt>
      <trkpt lat="43.38991" lon="1.69441">
        <ele>197.8</ele>
        <time>2023-05-27T07:04:34Z</time>
      </trkpt>
      <trkpt lat="43.38989" lon="1.69447">
        <ele>197.8</ele>
        <time>2023-05-27T07:04:35Z</time>
      </trkpt>
      <trkpt lat="43.38986" lon="1.69454">
        <ele>197.8</ele>
        <time>2023-05-27T07:04:36Z</time>
      </trkpt>
      <trkpt lat="43.38985" lon="1.69461">
        <ele>197.8</ele>
        <time>2023-05-27T07:04:37Z</time>
      </trkpt>
      <trkpt lat="43.38983" lon="1.69468">
        <ele>197.8</ele>
        <time>2023-05-27T07:04:38Z</time>
      </trkpt>
      <trkpt lat="43.38981" lon="1.69475">
        <ele>197.8</ele>
        <time>2023-05-27T07:04:39Z</time>
      </trkpt>
      <trkpt lat="43.38979" lon="1.69484">
        <ele>197.6</ele>
        <time>2023-05-27T07:04:40Z</time>
      </trkpt>
      <trkpt lat="43.38977" lon="1.69491">
        <ele>197.6</ele>
        <time>2023-05-27T07:04:41Z</time>
      </trkpt>
      <trkpt lat="43.38977" lon="1.69496">
        <ele>197.6</ele>
        <time>2023-05-27T07:04:42Z</time>
      </trkpt>
      <trkpt lat="43.38977" lon="1.69502">
        <ele>197.6</ele>
        <time>2023-05-27T07:04:43Z</time>
      </trkpt>
      <trkpt lat="43.38975" lon="1.69508">
        <ele>197.6</ele>
        <time>2023-05-27T07:04:44Z</time>
      </trkpt>
      <trkpt lat="43.38974" lon="1.69516">
        <ele>197.4</ele>
        <time>2023-05-27T07:04:45Z</time>
      </trkpt>
      <trkpt lat="43.38973" lon="1.69524">
        <ele>197.4</ele>
        <time>2023-05-27T07:04:46Z</time>
      </trkpt>
      <trkpt lat="43.38972" lon="1.69531">
        <ele>197.4</ele>
        <time>2023-05-27T07:04:47Z</time>
      </trkpt>
      <trkpt lat="43.38972" lon="1.69537">
        <ele>197.4</ele>
        <time>2023-05-27T07:04:48Z</time>
      </trkpt>
      <trkpt lat="43.38973" lon="1.69543">
        <ele>197.4</ele>
        <time>2023-05-27T07:04:49Z</time>
      </trkpt>
      <trkpt lat="43.38973" lon="1.69552">
        <ele>197.4</ele>
        <time>2023-05-27T07:04:50Z</time>
      </trkpt>
      <trkpt lat="43.38972" lon="1.6956">
        <ele>197.4</ele>
        <time>2023-05-27T07:04:51Z</time>
      </trkpt>
      <trkpt lat="43.3897" lon="1.69567">
        <ele>197.4</ele>
        <time>2023-05-27T07:04:52Z</time>
      </trkpt>
      <trkpt lat="43.3897" lon="1.69574">
        <ele>197.4</ele>
        <time>2023-05-27T07:04:53Z</time>
      </trkpt>
      <trkpt lat="43.38972" lon="1.69581">
        <ele>197.4</ele>
        <time>2023-05-27T07:04:54Z</time>
      </trkpt>
      <trkpt lat="43.38974" lon="1.69588">
        <ele>197.4</ele>
        <time>2023-05-27T07:04:55Z</time>
      </trkpt>
      <trkpt lat="43.38976" lon="1.69595">
        <ele>197.4</ele>
        <time>2023-05-27T07:04:56Z</time>
      </trkpt>
      <trkpt lat="43.38978" lon="1.69601">
        <ele>197.4</ele>
        <time>2023-05-27T07:04:57Z</time>
      </trkpt>
      <trkpt lat="43.3898" lon="1.69606">
        <ele>197.4</ele>
        <time>2023-05-27T07:04:58Z</time>
      </trkpt>
      <trkpt lat="43.38982" lon="1.69611">
        <ele>197.4</ele>
        <time>2023-05-27T07:04:59Z</time>
      </trkpt>
      <trkpt lat="43.38985" lon="1.69616">
        <ele>197.4</ele>
        <time>2023-05-27T07:05:00Z</time>
      </trkpt>
      <trkpt lat="43.38988" lon="1.69621">
        <ele>197.4</ele>
        <time>2023-05-27T07:05:01Z</time>
      </trkpt>
      <trkpt lat="43.38991" lon="1.69625">
        <ele>197.4</ele>
        <time>2023-05-27T07:05:02Z</time>
      </trkpt>
      <trkpt lat="43.38994" lon="1.6963">
        <ele>197.4</ele>
        <time>2023-05-27T07:05:03Z</time>
      </trkpt>
      <trkpt lat="43.38997" lon="1.69634">
        <ele>197.6</ele>
        <time>2023-05-27T07:05:04Z</time>
      </trkpt>
      <trkpt lat="43.39" lon="1.69639">
        <ele>197.6</ele>
        <time>2023-05-27T07:05:05Z</time>
      </trkpt>
      <trkpt lat="43.39002" lon="1.69644">
        <ele>197.6</ele>
        <time>2023-05-27T07:05:06Z</time>
      </trkpt>
      <trkpt lat="43.39005" lon="1.69649">
        <ele>197.6</ele>
        <time>2023-05-27T07:05:07Z</time>
      </trkpt>
      <trkpt lat="43.39008" lon="1.69653">
        <ele>197.6</ele>
        <time>2023-05-27T07:05:08Z</time>
      </trkpt>
      <trkpt lat="43.39011" lon="1.69657">
        <ele>197.4</ele>
        <time>2023-05-27T07:05:09Z</time>
      </trkpt>
      <trkpt lat="43.39014" lon="1.69662">
        <ele>197.4</ele>
        <time>2023-05-27T07:05:10Z</time>
      </trkpt>
      <trkpt lat="43.39017" lon="1.69667">
        <ele>197.4</ele>
        <time>2023-05-27T07:05:11Z</time>
      </trkpt>
      <trkpt lat="43.3902" lon="1.69673">
        <ele>197.2</ele>
        <time>2023-05-27T07:05:12Z</time>
      </trkpt>
      <trkpt lat="43.39022" lon="1.69679">
        <ele>197.2</ele>
        <time>2023-05-27T07:05:13Z</time>
      </trkpt>
      <trkpt lat="43.39026" lon="1.69684">
        <ele>197.2</ele>
        <time>2023-05-27T07:05:14Z</time>
      </trkpt>
      <trkpt lat="43.39028" lon="1.69688">
        <ele>197</ele>
        <time>2023-05-27T07:05:15Z</time>
      </trkpt>
      <trkpt lat="43.39032" lon="1.69694">
        <ele>197</ele>
        <time>2023-05-27T07:05:16Z</time>
      </trkpt>
      <trkpt lat="43.39035" lon="1.697">
        <ele>197</ele>
        <time>2023-05-27T07:05:17Z</time>
      </trkpt>
      <trkpt lat="43.39038" lon="1.69706">
        <ele>196.8</ele>
        <time>2023-05-27T07:05:18Z</time>
      </trkpt>
      <trkpt lat="43.3904" lon="1.69711">
        <ele>196.8</ele>
        <time>2023-05-27T07:05:19Z</time>
      </trkpt>
      <trkpt lat="43.39042" lon="1.69717">
        <ele>196.6</ele>
        <time>2023-05-27T07:05:20Z</time>
      </trkpt>
      <trkpt lat="43.39043" lon="1.69721">
        <ele>196.6</ele>
        <time>2023-05-27T07:05:21Z</time>
      </trkpt>
      <trkpt lat="43.39044" lon="1.69725">
        <ele>196.4</ele>
        <time>2023-05-27T07:05:22Z</time>
      </trkpt>
      <trkpt lat="43.39044" lon="1.69728">
        <ele>196.4</ele>
        <time>2023-05-27T07:05:23Z</time>
      </trkpt>
      <trkpt lat="43.39045" lon="1.69731">
        <ele>196.4</ele>
        <time>2023-05-27T07:05:24Z</time>
      </trkpt>
      <trkpt lat="43.39045" lon="1.69733">
        <ele>196.4</ele>
        <time>2023-05-27T07:05:25Z</time>
      </trkpt>
      <trkpt lat="43.39045" lon="1.69735">
        <ele>196.4</ele>
        <time>2023-05-27T07:05:26Z</time>
      </trkpt>
      <trkpt lat="43.39044" lon="1.69738">
        <ele>196.4</ele>
        <time>2023-05-27T07:05:27Z</time>
      </trkpt>
      <trkpt lat="43.39044" lon="1.69742">
        <ele>196.4</ele>
        <time>2023-05-27T07:05:28Z</time>
      </trkpt>
      <trkpt lat="43.39043" lon="1.69746">
        <ele>196.4</ele>
        <time>2023-05-27T07:05:29Z</time>
      </trkpt>
      <trkpt lat="43.39042" lon="1.69749">
        <ele>196.4</ele>
        <time>2023-05-27T07:05:30Z</time>
      </trkpt>
      <trkpt lat="43.39042" lon="1.69752">
        <ele>196.4</ele>
        <time>2023-05-27T07:05:31Z</time>
      </trkpt>
      <trkpt lat="43.39042" lon="1.69756">
        <ele>196.6</ele>
        <time>2023-05-27T07:05:32Z</time>
      </trkpt>
      <trkpt lat="43.39042" lon="1.6976">
        <ele>196.6</ele>
        <time>2023-05-27T07:05:33Z</time>
      </trkpt>
      <trkpt lat="43.39042" lon="1.69765">
        <ele>196.6</ele>
        <time>2023-05-27T07:05:34Z</time>
      </trkpt>
      <trkpt lat="43.39042" lon="1.6977">
        <ele>196.6</ele>
        <time>2023-05-27T07:05:35Z</time>
      </trkpt>
      <trkpt lat="43.39041" lon="1.69775">
        <ele>196.6</ele>
        <time>2023-05-27T07:05:36Z</time>
      </trkpt>
      <trkpt lat="43.3904" lon="1.6978">
        <ele>196.6</ele>
        <time>2023-05-27T07:05:37Z</time>
      </trkpt>
      <trkpt lat="43.3904" lon="1.69786">
        <ele>196.6</ele>
        <time>2023-05-27T07:05:38Z</time>
      </trkpt>
      <trkpt lat="43.39039" lon="1.69791">
        <ele>196.6</ele>
        <time>2023-05-27T07:05:39Z</time>
      </trkpt>
      <trkpt lat="43.39039" lon="1.69797">
        <ele>196.6</ele>
        <time>2023-05-27T07:05:40Z</time>
      </trkpt>
      <trkpt lat="43.39038" lon="1.69803">
        <ele>196.6</ele>
        <time>2023-05-27T07:05:41Z</time>
      </trkpt>
      <trkpt lat="43.39037" lon="1.69809">
        <ele>196.6</ele>
        <time>2023-05-27T07:05:42Z</time>
      </trkpt>
      <trkpt lat="43.39037" lon="1.69815">
        <ele>196.8</ele>
        <time>2023-05-27T07:05:43Z</time>
      </trkpt>
      <trkpt lat="43.39037" lon="1.69821">
        <ele>196.8</ele>
        <time>2023-05-27T07:05:44Z</time>
      </trkpt>
      <trkpt lat="43.39037" lon="1.69828">
        <ele>196.8</ele>
        <time>2023-05-27T07:05:45Z</time>
      </trkpt>
      <trkpt lat="43.39036" lon="1.69835">
        <ele>196.6</ele>
        <time>2023-05-27T07:05:46Z</time>
      </trkpt>
      <trkpt lat="43.39035" lon="1.69842">
        <ele>196.6</ele>
        <time>2023-05-27T07:05:47Z</time>
      </trkpt>
      <trkpt lat="43.39034" lon="1.69849">
        <ele>196.6</ele>
        <time>2023-05-27T07:05:48Z</time>
      </trkpt>
      <trkpt lat="43.39033" lon="1.69855">
        <ele>196.6</ele>
        <time>2023-05-27T07:05:49Z</time>
      </trkpt>
      <trkpt lat="43.39033" lon="1.69862">
        <ele>196.6</ele>
        <time>2023-05-27T07:05:50Z</time>
      </trkpt>
      <trkpt lat="43.39033" lon="1.69868">
        <ele>196.6</ele>
        <time>2023-05-27T07:05:51Z</time>
      </trkpt>
      <trkpt lat="43.39032" lon="1.69875">
        <ele>196.6</ele>
        <time>2023-05-27T07:05:52Z</time>
      </trkpt>
      <trkpt lat="43.39032" lon="1.69881">
        <ele>196.6</ele>
        <time>2023-05-27T07:05:53Z</time>
      </trkpt>
      <trkpt lat="43.39031" lon="1.69888">
        <ele>196.6</ele>
        <time>2023-05-27T07:05:54Z</time>
      </trkpt>
      <trkpt lat="43.39029" lon="1.69894">
        <ele>196.6</ele>
        <time>2023-05-27T07:05:55Z</time>
      </trkpt>
      <trkpt lat="43.39028" lon="1.69901">
        <ele>196.4</ele>
        <time>2023-05-27T07:05:56Z</time>
      </trkpt>
      <trkpt lat="43.39026" lon="1.69908">
        <ele>196.4</ele>
        <time>2023-05-27T07:05:57Z</time>
      </trkpt>
      <trkpt lat="43.39025" lon="1.69914">
        <ele>196.4</ele>
        <time>2023-05-27T07:05:58Z</time>
      </trkpt>
      <trkpt lat="43.39024" lon="1.6992">
        <ele>196.4</ele>
        <time>2023-05-27T07:05:59Z</time>
      </trkpt>
      <trkpt lat="43.39021" lon="1.69927">
        <ele>196.4</ele>
        <time>2023-05-27T07:06:00Z</time>
      </trkpt>
      <trkpt lat="43.3902" lon="1.69933">
        <ele>196.4</ele>
        <time>2023-05-27T07:06:01Z</time>
      </trkpt>
      <trkpt lat="43.39018" lon="1.69938">
        <ele>196.2</ele>
        <time>2023-05-27T07:06:02Z</time>
      </trkpt>
      <trkpt lat="43.39016" lon="1.69943">
        <ele>196</ele>
        <time>2023-05-27T07:06:03Z</time>
      </trkpt>
      <trkpt lat="43.3901" lon="1.69948">
        <ele>196</ele>
        <time>2023-05-27T07:06:04Z</time>
      </trkpt>
      <trkpt lat="43.39005" lon="1.69953">
        <ele>196</ele>
        <time>2023-05-27T07:06:05Z</time>
      </trkpt>
      <trkpt lat="43.39001" lon="1.69957">
        <ele>196.2</ele>
        <time>2023-05-27T07:06:06Z</time>
      </trkpt>
      <trkpt lat="43.38997" lon="1.69961">
        <ele>196.2</ele>
        <time>2023-05-27T07:06:07Z</time>
      </trkpt>
      <trkpt lat="43.38994" lon="1.69964">
        <ele>196.2</ele>
        <time>2023-05-27T07:06:08Z</time>
      </trkpt>
      <trkpt lat="43.38991" lon="1.69967">
        <ele>196.2</ele>
        <time>2023-05-27T07:06:09Z</time>
      </trkpt>
      <trkpt lat="43.38988" lon="1.6997">
        <ele>196.2</ele>
        <time>2023-05-27T07:06:10Z</time>
      </trkpt>
      <trkpt lat="43.38985" lon="1.69973">
        <ele>196.2</ele>
        <time>2023-05-27T07:06:11Z</time>
      </trkpt>
      <trkpt lat="43.38983" lon="1.69976">
        <ele>196.2</ele>
        <time>2023-05-27T07:06:12Z</time>
      </trkpt>
      <trkpt lat="43.3898" lon="1.69978">
        <ele>196.4</ele>
        <time>2023-05-27T07:06:13Z</time>
      </trkpt>
      <trkpt lat="43.38976" lon="1.69978">
        <ele>196.4</ele>
        <time>2023-05-27T07:06:14Z</time>
      </trkpt>
      <trkpt lat="43.38972" lon="1.69978">
        <ele>196.4</ele>
        <time>2023-05-27T07:06:15Z</time>
      </trkpt>
      <trkpt lat="43.38967" lon="1.69977">
        <ele>196.4</ele>
        <time>2023-05-27T07:06:16Z</time>
      </trkpt>
      <trkpt lat="43.38963" lon="1.69976">
        <ele>196.4</ele>
        <time>2023-05-27T07:06:17Z</time>
      </trkpt>
      <trkpt lat="43.3896" lon="1.69974">
        <ele>196.6</ele>
        <time>2023-05-27T07:06:18Z</time>
      </trkpt>
      <trkpt lat="43.38956" lon="1.69974">
        <ele>196.6</ele>
        <time>2023-05-27T07:06:19Z</time>
      </trkpt>
      <trkpt lat="43.38952" lon="1.69974">
        <ele>196.6</ele>
        <time>2023-05-27T07:06:20Z</time>
      </trkpt>
      <trkpt lat="43.38948" lon="1.69973">
        <ele>196.6</ele>
        <time>2023-05-27T07:06:21Z</time>
      </trkpt>
      <trkpt lat="43.38944" lon="1.69972">
        <ele>196.6</ele>
        <time>2023-05-27T07:06:22Z</time>
      </trkpt>
      <trkpt lat="43.38939" lon="1.69972">
        <ele>196.6</ele>
        <time>2023-05-27T07:06:23Z</time>
      </trkpt>
      <trkpt lat="43.38935" lon="1.69971">
        <ele>196.8</ele>
        <time>2023-05-27T07:06:24Z</time>
      </trkpt>
      <trkpt lat="43.38931" lon="1.69971">
        <ele>196.8</ele>
        <time>2023-05-27T07:06:25Z</time>
      </trkpt>
      <trkpt lat="43.38927" lon="1.69971">
        <ele>196.8</ele>
        <time>2023-05-27T07:06:26Z</time>
      </trkpt>
      <trkpt lat="43.38922" lon="1.69971">
        <ele>197</ele>
        <time>2023-05-27T07:06:27Z</time>
      </trkpt>
      <trkpt lat="43.38918" lon="1.6997">
        <ele>197</ele>
        <time>2023-05-27T07:06:28Z</time>
      </trkpt>
      <trkpt lat="43.38913" lon="1.69969">
        <ele>197</ele>
        <time>2023-05-27T07:06:29Z</time>
      </trkpt>
      <trkpt lat="43.3891" lon="1.69969">
        <ele>197</ele>
        <time>2023-05-27T07:06:30Z</time>
      </trkpt>
      <trkpt lat="43.38906" lon="1.69967">
        <ele>197.2</ele>
        <time>2023-05-27T07:06:31Z</time>
      </trkpt>
      <trkpt lat="43.38903" lon="1.69967">
        <ele>197.2</ele>
        <time>2023-05-27T07:06:32Z</time>
      </trkpt>
      <trkpt lat="43.38899" lon="1.69967">
        <ele>197.2</ele>
        <time>2023-05-27T07:06:33Z</time>
      </trkpt>
      <trkpt lat="43.38896" lon="1.69967">
        <ele>197.2</ele>
        <time>2023-05-27T07:06:34Z</time>
      </trkpt>
      <trkpt lat="43.38892" lon="1.69967">
        <ele>197.2</ele>
        <time>2023-05-27T07:06:35Z</time>
      </trkpt>
      <trkpt lat="43.38888" lon="1.69968">
        <ele>197.2</ele>
        <time>2023-05-27T07:06:36Z</time>
      </trkpt>
      <trkpt lat="43.38884" lon="1.69969">
        <ele>197.4</ele>
        <time>2023-05-27T07:06:37Z</time>
      </trkpt>
      <trkpt lat="43.38881" lon="1.69969">
        <ele>197.4</ele>
        <time>2023-05-27T07:06:38Z</time>
      </trkpt>
      <trkpt lat="43.38879" lon="1.6997">
        <ele>197.4</ele>
        <time>2023-05-27T07:06:39Z</time>
      </trkpt>
      <trkpt lat="43.38875" lon="1.69971">
        <ele>197.4</ele>
        <time>2023-05-27T07:06:40Z</time>
      </trkpt>
      <trkpt lat="43.38872" lon="1.69972">
        <ele>197.4</ele>
        <time>2023-05-27T07:06:41Z</time>
      </trkpt>
      <trkpt lat="43.38868" lon="1.69973">
        <ele>197.4</ele>
        <time>2023-05-27T07:06:42Z</time>
      </trkpt>
      <trkpt lat="43.38865" lon="1.69974">
        <ele>197.4</ele>
        <time>2023-05-27T07:06:43Z</time>
      </trkpt>
      <trkpt lat="43.38862" lon="1.69976">
        <ele>197.4</ele>
        <time>2023-05-27T07:06:44Z</time>
      </trkpt>
      <trkpt lat="43.3886" lon="1.69977">
        <ele>197.2</ele>
        <time>2023-05-27T07:06:45Z</time>
      </trkpt>
      <trkpt lat="43.38857" lon="1.69978">
        <ele>197.2</ele>
        <time>2023-05-27T07:06:46Z</time>
      </trkpt>
      <trkpt lat="43.38853" lon="1.6998">
        <ele>197.2</ele>
        <time>2023-05-27T07:06:47Z</time>
      </trkpt>
      <trkpt lat="43.38848" lon="1.69983">
        <ele>197.2</ele>
        <time>2023-05-27T07:06:48Z</time>
      </trkpt>
      <trkpt lat="43.38842" lon="1.69986">
        <ele>197.2</ele>
        <time>2023-05-27T07:06:49Z</time>
      </trkpt>
      <trkpt lat="43.38836" lon="1.69989">
        <ele>197.2</ele>
        <time>2023-05-27T07:06:50Z</time>
      </trkpt>
      <trkpt lat="43.3883" lon="1.69993">
        <ele>197.2</ele>
        <time>2023-05-27T07:06:51Z</time>
      </trkpt>
      <trkpt lat="43.38825" lon="1.69998">
        <ele>197.2</ele>
        <time>2023-05-27T07:06:52Z</time>
      </trkpt>
      <trkpt lat="43.38821" lon="1.70001">
        <ele>197.2</ele>
        <time>2023-05-27T07:06:53Z</time>
      </trkpt>
      <trkpt lat="43.38817" lon="1.70004">
        <ele>197.2</ele>
        <time>2023-05-27T07:06:54Z</time>
      </trkpt>
      <trkpt lat="43.38815" lon="1.70006">
        <ele>197.2</ele>
        <time>2023-05-27T07:06:55Z</time>
      </trkpt>
      <trkpt lat="43.38812" lon="1.70009">
        <ele>197</ele>
        <time>2023-05-27T07:06:56Z</time>
      </trkpt>
      <trkpt lat="43.38809" lon="1.70011">
        <ele>197</ele>
        <time>2023-05-27T07:06:57Z</time>
      </trkpt>
      <trkpt lat="43.38805" lon="1.70013">
        <ele>197</ele>
        <time>2023-05-27T07:06:58Z</time>
      </trkpt>
      <trkpt lat="43.388" lon="1.70018">
        <ele>197</ele>
        <time>2023-05-27T07:06:59Z</time>
      </trkpt>
      <trkpt lat="43.38797" lon="1.7002">
        <ele>197</ele>
        <time>2023-05-27T07:07:00Z</time>
      </trkpt>
      <trkpt lat="43.38794" lon="1.70023">
        <ele>197.2</ele>
        <time>2023-05-27T07:07:01Z</time>
      </trkpt>
      <trkpt lat="43.38792" lon="1.70026">
        <ele>197.2</ele>
        <time>2023-05-27T07:07:02Z</time>
      </trkpt>
      <trkpt lat="43.38788" lon="1.70029">
        <ele>197.2</ele>
        <time>2023-05-27T07:07:03Z</time>
      </trkpt>
      <trkpt lat="43.38783" lon="1.70032">
        <ele>197.2</ele>
        <time>2023-05-27T07:07:04Z</time>
      </trkpt>
      <trkpt lat="43.38779" lon="1.70037">
        <ele>197.2</ele>
        <time>2023-05-27T07:07:05Z</time>
      </trkpt>
      <trkpt lat="43.38777" lon="1.7004">
        <ele>197.2</ele>
        <time>2023-05-27T07:07:06Z</time>
      </trkpt>
      <trkpt lat="43.38774" lon="1.70043">
        <ele>197.2</ele>
        <time>2023-05-27T07:07:07Z</time>
      </trkpt>
      <trkpt lat="43.3877" lon="1.70046">
        <ele>197.2</ele>
        <time>2023-05-27T07:07:08Z</time>
      </trkpt>
      <trkpt lat="43.38765" lon="1.70051">
        <ele>197.2</ele>
        <time>2023-05-27T07:07:09Z</time>
      </trkpt>
      <trkpt lat="43.38761" lon="1.70054">
        <ele>197.2</ele>
        <time>2023-05-27T07:07:10Z</time>
      </trkpt>
      <trkpt lat="43.38755" lon="1.70057">
        <ele>197.2</ele>
        <time>2023-05-27T07:07:11Z</time>
      </trkpt>
      <trkpt lat="43.3875" lon="1.70061">
        <ele>197.2</ele>
        <time>2023-05-27T07:07:12Z</time>
      </trkpt>
      <trkpt lat="43.38745" lon="1.70064">
        <ele>197.2</ele>
        <time>2023-05-27T07:07:13Z</time>
      </trkpt>
      <trkpt lat="43.38741" lon="1.70067">
        <ele>197.2</ele>
        <time>2023-05-27T07:07:14Z</time>
      </trkpt>
      <trkpt lat="43.38738" lon="1.7007">
        <ele>197.2</ele>
        <time>2023-05-27T07:07:15Z</time>
      </trkpt>
      <trkpt lat="43.38734" lon="1.70073">
        <ele>197.2</ele>
        <time>2023-05-27T07:07:16Z</time>
      </trkpt>
      <trkpt lat="43.3873" lon="1.70076">
        <ele>197.2</ele>
        <time>2023-05-27T07:07:17Z</time>
      </trkpt>
      <trkpt lat="43.38726" lon="1.7008">
        <ele>197.2</ele>
        <time>2023-05-27T07:07:18Z</time>
      </trkpt>
      <trkpt lat="43.38722" lon="1.70084">
        <ele>197.2</ele>
        <time>2023-05-27T07:07:19Z</time>
      </trkpt>
      <trkpt lat="43.38718" lon="1.70087">
        <ele>197.2</ele>
        <time>2023-05-27T07:07:20Z</time>
      </trkpt>
      <trkpt lat="43.38715" lon="1.7009">
        <ele>197.2</ele>
        <time>2023-05-27T07:07:21Z</time>
      </trkpt>
      <trkpt lat="43.38713" lon="1.70092">
        <ele>197.2</ele>
        <time>2023-05-27T07:07:22Z</time>
      </trkpt>
      <trkpt lat="43.38711" lon="1.70094">
        <ele>197.2</ele>
        <time>2023-05-27T07:07:23Z</time>
      </trkpt>
      <trkpt lat="43.38709" lon="1.70095">
        <ele>197.2</ele>
        <time>2023-05-27T07:07:24Z</time>
      </trkpt>
      <trkpt lat="43.38706" lon="1.70099">
        <ele>197.2</ele>
        <time>2023-05-27T07:07:25Z</time>
      </trkpt>
      <trkpt lat="43.38702" lon="1.70102">
        <ele>197.2</ele>
        <time>2023-05-27T07:07:26Z</time>
      </trkpt>
      <trkpt lat="43.38698" lon="1.70104">
        <ele>197.2</ele>
        <time>2023-05-27T07:07:27Z</time>
      </trkpt>
      <trkpt lat="43.38693" lon="1.70108">
        <ele>197.2</ele>
        <time>2023-05-27T07:07:28Z</time>
      </trkpt>
      <trkpt lat="43.38688" lon="1.70113">
        <ele>197.2</ele>
        <time>2023-05-27T07:07:29Z</time>
      </trkpt>
      <trkpt lat="43.38683" lon="1.70116">
        <ele>197.2</ele>
        <time>2023-05-27T07:07:30Z</time>
      </trkpt>
      <trkpt lat="43.38679" lon="1.70119">
        <ele>197.2</ele>
        <time>2023-05-27T07:07:31Z</time>
      </trkpt>
      <trkpt lat="43.38676" lon="1.70122">
        <ele>197.2</ele>
        <time>2023-05-27T07:07:32Z</time>
      </trkpt>
      <trkpt lat="43.38673" lon="1.70125">
        <ele>197.2</ele>
        <time>2023-05-27T07:07:33Z</time>
      </trkpt>
      <trkpt lat="43.3867" lon="1.70129">
        <ele>197.2</ele>
        <time>2023-05-27T07:07:34Z</time>
      </trkpt>
      <trkpt lat="43.38667" lon="1.70133">
        <ele>197.2</ele>
        <time>2023-05-27T07:07:35Z</time>
      </trkpt>
      <trkpt lat="43.38664" lon="1.70137">
        <ele>197.2</ele>
        <time>2023-05-27T07:07:36Z</time>
      </trkpt>
      <trkpt lat="43.38661" lon="1.7014">
        <ele>197.2</ele>
        <time>2023-05-27T07:07:37Z</time>
      </trkpt>
      <trkpt lat="43.38659" lon="1.70144">
        <ele>197.2</ele>
        <time>2023-05-27T07:07:38Z</time>
      </trkpt>
      <trkpt lat="43.38654" lon="1.70149">
        <ele>197.4</ele>
        <time>2023-05-27T07:07:39Z</time>
      </trkpt>
      <trkpt lat="43.3865" lon="1.70154">
        <ele>197.4</ele>
        <time>2023-05-27T07:07:40Z</time>
      </trkpt>
      <trkpt lat="43.38646" lon="1.70158">
        <ele>197.4</ele>
        <time>2023-05-27T07:07:41Z</time>
      </trkpt>
      <trkpt lat="43.38644" lon="1.70162">
        <ele>197.4</ele>
        <time>2023-05-27T07:07:42Z</time>
      </trkpt>
      <trkpt lat="43.38641" lon="1.70165">
        <ele>197.4</ele>
        <time>2023-05-27T07:07:43Z</time>
      </trkpt>
      <trkpt lat="43.38639" lon="1.70168">
        <ele>197.4</ele>
        <time>2023-05-27T07:07:44Z</time>
      </trkpt>
      <trkpt lat="43.38637" lon="1.70173">
        <ele>197.4</ele>
        <time>2023-05-27T07:07:45Z</time>
      </trkpt>
      <trkpt lat="43.38634" lon="1.70176">
        <ele>197.6</ele>
        <time>2023-05-27T07:07:46Z</time>
      </trkpt>
      <trkpt lat="43.3863" lon="1.70181">
        <ele>197.6</ele>
        <time>2023-05-27T07:07:47Z</time>
      </trkpt>
      <trkpt lat="43.38627" lon="1.70184">
        <ele>197.6</ele>
        <time>2023-05-27T07:07:48Z</time>
      </trkpt>
      <trkpt lat="43.38624" lon="1.70188">
        <ele>197.6</ele>
        <time>2023-05-27T07:07:49Z</time>
      </trkpt>
      <trkpt lat="43.38621" lon="1.70192">
        <ele>197.6</ele>
        <time>2023-05-27T07:07:50Z</time>
      </trkpt>
      <trkpt lat="43.38617" lon="1.70196">
        <ele>197.6</ele>
        <time>2023-05-27T07:07:51Z</time>
      </trkpt>
      <trkpt lat="43.38614" lon="1.702">
        <ele>197.6</ele>
        <time>2023-05-27T07:07:52Z</time>
      </trkpt>
      <trkpt lat="43.38612" lon="1.70205">
        <ele>197.4</ele>
        <time>2023-05-27T07:07:53Z</time>
      </trkpt>
      <trkpt lat="43.38609" lon="1.70209">
        <ele>197.4</ele>
        <time>2023-05-27T07:07:54Z</time>
      </trkpt>
      <trkpt lat="43.38607" lon="1.70215">
        <ele>197.4</ele>
        <time>2023-05-27T07:07:55Z</time>
      </trkpt>
      <trkpt lat="43.38604" lon="1.70219">
        <ele>197.4</ele>
        <time>2023-05-27T07:07:56Z</time>
      </trkpt>
      <trkpt lat="43.38601" lon="1.70223">
        <ele>197.4</ele>
        <time>2023-05-27T07:07:57Z</time>
      </trkpt>
      <trkpt lat="43.38598" lon="1.70229">
        <ele>197.4</ele>
        <time>2023-05-27T07:07:58Z</time>
      </trkpt>
      <trkpt lat="43.38594" lon="1.70233">
        <ele>197.4</ele>
        <time>2023-05-27T07:07:59Z</time>
      </trkpt>
      <trkpt lat="43.38592" lon="1.70237">
        <ele>197.4</ele>
        <time>2023-05-27T07:08:00Z</time>
      </trkpt>
      <trkpt lat="43.38589" lon="1.7024">
        <ele>197.4</ele>
        <time>2023-05-27T07:08:01Z</time>
      </trkpt>
      <trkpt lat="43.38587" lon="1.70243">
        <ele>197.4</ele>
        <time>2023-05-27T07:08:02Z</time>
      </trkpt>
      <trkpt lat="43.38584" lon="1.70249">
        <ele>197.4</ele>
        <time>2023-05-27T07:08:03Z</time>
      </trkpt>
      <trkpt lat="43.38582" lon="1.70254">
        <ele>197.4</ele>
        <time>2023-05-27T07:08:04Z</time>
      </trkpt>
      <trkpt lat="43.38578" lon="1.70258">
        <ele>197.4</ele>
        <time>2023-05-27T07:08:05Z</time>
      </trkpt>
      <trkpt lat="43.38574" lon="1.70263">
        <ele>197.4</ele>
        <time>2023-05-27T07:08:06Z</time>
      </trkpt>
      <trkpt lat="43.38571" lon="1.70269">
        <ele>197.4</ele>
        <time>2023-05-27T07:08:07Z</time>
      </trkpt>
      <trkpt lat="43.38569" lon="1.70274">
        <ele>197.4</ele>
        <time>2023-05-27T07:08:08Z</time>
      </trkpt>
      <trkpt lat="43.38567" lon="1.70278">
        <ele>197.6</ele>
        <time>2023-05-27T07:08:09Z</time>
      </trkpt>
      <trkpt lat="43.38565" lon="1.70281">
        <ele>197.6</ele>
        <time>2023-05-27T07:08:10Z</time>
      </trkpt>
      <trkpt lat="43.38563" lon="1.70284">
        <ele>197.6</ele>
        <time>2023-05-27T07:08:11Z</time>
      </trkpt>
      <trkpt lat="43.3856" lon="1.70288">
        <ele>197.6</ele>
        <time>2023-05-27T07:08:12Z</time>
      </trkpt>
      <trkpt lat="43.38558" lon="1.70292">
        <ele>197.6</ele>
        <time>2023-05-27T07:08:13Z</time>
      </trkpt>
      <trkpt lat="43.38557" lon="1.70297">
        <ele>197.6</ele>
        <time>2023-05-27T07:08:14Z</time>
      </trkpt>
      <trkpt lat="43.38556" lon="1.70301">
        <ele>197.6</ele>
        <time>2023-05-27T07:08:15Z</time>
      </trkpt>
      <trkpt lat="43.38553" lon="1.70307">
        <ele>197.6</ele>
        <time>2023-05-27T07:08:16Z</time>
      </trkpt>
      <trkpt lat="43.38549" lon="1.70314">
        <ele>197.6</ele>
        <time>2023-05-27T07:08:17Z</time>
      </trkpt>
      <trkpt lat="43.38546" lon="1.70321">
        <ele>197.6</ele>
        <time>2023-05-27T07:08:18Z</time>
      </trkpt>
      <trkpt lat="43.38544" lon="1.70326">
        <ele>197.6</ele>
        <time>2023-05-27T07:08:19Z</time>
      </trkpt>
      <trkpt lat="43.38542" lon="1.70329">
        <ele>197.6</ele>
        <time>2023-05-27T07:08:20Z</time>
      </trkpt>
      <trkpt lat="43.38541" lon="1.70333">
        <ele>197.6</ele>
        <time>2023-05-27T07:08:21Z</time>
      </trkpt>
      <trkpt lat="43.38537" lon="1.70339">
        <ele>197.6</ele>
        <time>2023-05-27T07:08:22Z</time>
      </trkpt>
      <trkpt lat="43.38535" lon="1.70343">
        <ele>197.6</ele>
        <time>2023-05-27T07:08:23Z</time>
      </trkpt>
      <trkpt lat="43.38533" lon="1.70347">
        <ele>197.6</ele>
        <time>2023-05-27T07:08:24Z</time>
      </trkpt>
      <trkpt lat="43.3853" lon="1.70352">
        <ele>197.6</ele>
        <time>2023-05-27T07:08:25Z</time>
      </trkpt>
      <trkpt lat="43.38525" lon="1.70356">
        <ele>197.8</ele>
        <time>2023-05-27T07:08:26Z</time>
      </trkpt>
      <trkpt lat="43.38522" lon="1.70361">
        <ele>197.8</ele>
        <time>2023-05-27T07:08:27Z</time>
      </trkpt>
      <trkpt lat="43.38519" lon="1.70367">
        <ele>197.8</ele>
        <time>2023-05-27T07:08:28Z</time>
      </trkpt>
      <trkpt lat="43.38516" lon="1.70372">
        <ele>197.8</ele>
        <time>2023-05-27T07:08:29Z</time>
      </trkpt>
      <trkpt lat="43.38513" lon="1.70376">
        <ele>197.8</ele>
        <time>2023-05-27T07:08:30Z</time>
      </trkpt>
      <trkpt lat="43.38511" lon="1.70381">
        <ele>197.8</ele>
        <time>2023-05-27T07:08:31Z</time>
      </trkpt>
      <trkpt lat="43.38509" lon="1.70386">
        <ele>197.8</ele>
        <time>2023-05-27T07:08:32Z</time>
      </trkpt>
      <trkpt lat="43.38506" lon="1.7039">
        <ele>197.8</ele>
        <time>2023-05-27T07:08:33Z</time>
      </trkpt>
      <trkpt lat="43.38504" lon="1.70393">
        <ele>197.8</ele>
        <time>2023-05-27T07:08:34Z</time>
      </trkpt>
      <trkpt lat="43.38501" lon="1.70398">
        <ele>197.8</ele>
        <time>2023-05-27T07:08:35Z</time>
      </trkpt>
      <trkpt lat="43.38498" lon="1.70405">
        <ele>197.8</ele>
        <time>2023-05-27T07:08:36Z</time>
      </trkpt>
      <trkpt lat="43.38497" lon="1.7041">
        <ele>197.8</ele>
        <time>2023-05-27T07:08:37Z</time>
      </trkpt>
      <trkpt lat="43.38496" lon="1.70415">
        <ele>197.8</ele>
        <time>2023-05-27T07:08:38Z</time>
      </trkpt>
      <trkpt lat="43.38494" lon="1.70419">
        <ele>197.6</ele>
        <time>2023-05-27T07:08:39Z</time>
      </trkpt>
      <trkpt lat="43.38493" lon="1.70424">
        <ele>197.6</ele>
        <time>2023-05-27T07:08:40Z</time>
      </trkpt>
      <trkpt lat="43.38491" lon="1.70428">
        <ele>197.6</ele>
        <time>2023-05-27T07:08:41Z</time>
      </trkpt>
      <trkpt lat="43.3849" lon="1.70431">
        <ele>197.6</ele>
        <time>2023-05-27T07:08:42Z</time>
      </trkpt>
      <trkpt lat="43.38489" lon="1.70435">
        <ele>197.6</ele>
        <time>2023-05-27T07:08:43Z</time>
      </trkpt>
      <trkpt lat="43.38486" lon="1.70444">
        <ele>197.4</ele>
        <time>2023-05-27T07:08:44Z</time>
      </trkpt>
      <trkpt lat="43.38483" lon="1.70453">
        <ele>197.4</ele>
        <time>2023-05-27T07:08:45Z</time>
      </trkpt>
      <trkpt lat="43.38481" lon="1.70462">
        <ele>197.4</ele>
        <time>2023-05-27T07:08:46Z</time>
      </trkpt>
      <trkpt lat="43.38478" lon="1.70473">
        <ele>197.4</ele>
        <time>2023-05-27T07:08:47Z</time>
      </trkpt>
      <trkpt lat="43.38479" lon="1.70481">
        <ele>197.4</ele>
        <time>2023-05-27T07:08:48Z</time>
      </trkpt>
      <trkpt lat="43.38481" lon="1.70491">
        <ele>197.2</ele>
        <time>2023-05-27T07:08:49Z</time>
      </trkpt>
      <trkpt lat="43.38484" lon="1.70497">
        <ele>197.2</ele>
        <time>2023-05-27T07:08:50Z</time>
      </trkpt>
      <trkpt lat="43.38486" lon="1.70503">
        <ele>197.2</ele>
        <time>2023-05-27T07:08:51Z</time>
      </trkpt>
      <trkpt lat="43.38488" lon="1.70506">
        <ele>197.2</ele>
        <time>2023-05-27T07:08:52Z</time>
      </trkpt>
      <trkpt lat="43.38491" lon="1.70511">
        <ele>197.2</ele>
        <time>2023-05-27T07:08:53Z</time>
      </trkpt>
      <trkpt lat="43.38495" lon="1.70518">
        <ele>197.2</ele>
        <time>2023-05-27T07:08:54Z</time>
      </trkpt>
      <trkpt lat="43.38498" lon="1.70525">
        <ele>197</ele>
        <time>2023-05-27T07:08:55Z</time>
      </trkpt>
      <trkpt lat="43.38503" lon="1.70532">
        <ele>197</ele>
        <time>2023-05-27T07:08:56Z</time>
      </trkpt>
      <trkpt lat="43.38506" lon="1.70539">
        <ele>197</ele>
        <time>2023-05-27T07:08:57Z</time>
      </trkpt>
      <trkpt lat="43.38509" lon="1.70545">
        <ele>197</ele>
        <time>2023-05-27T07:08:58Z</time>
      </trkpt>
      <trkpt lat="43.3851" lon="1.7055">
        <ele>197</ele>
        <time>2023-05-27T07:08:59Z</time>
      </trkpt>
      <trkpt lat="43.38512" lon="1.70556">
        <ele>197</ele>
        <time>2023-05-27T07:09:00Z</time>
      </trkpt>
      <trkpt lat="43.38513" lon="1.70562">
        <ele>197</ele>
        <time>2023-05-27T07:09:01Z</time>
      </trkpt>
      <trkpt lat="43.38515" lon="1.70567">
        <ele>196.8</ele>
        <time>2023-05-27T07:09:02Z</time>
      </trkpt>
      <trkpt lat="43.38518" lon="1.70572">
        <ele>196.8</ele>
        <time>2023-05-27T07:09:03Z</time>
      </trkpt>
      <trkpt lat="43.3852" lon="1.70578">
        <ele>196.8</ele>
        <time>2023-05-27T07:09:04Z</time>
      </trkpt>
      <trkpt lat="43.38523" lon="1.70583">
        <ele>196.8</ele>
        <time>2023-05-27T07:09:05Z</time>
      </trkpt>
      <trkpt lat="43.38524" lon="1.70588">
        <ele>196.8</ele>
        <time>2023-05-27T07:09:06Z</time>
      </trkpt>
      <trkpt lat="43.38526" lon="1.70593">
        <ele>196.8</ele>
        <time>2023-05-27T07:09:07Z</time>
      </trkpt>
      <trkpt lat="43.38528" lon="1.70598">
        <ele>196.6</ele>
        <time>2023-05-27T07:09:08Z</time>
      </trkpt>
      <trkpt lat="43.3853" lon="1.70604">
        <ele>196.6</ele>
        <time>2023-05-27T07:09:09Z</time>
      </trkpt>
      <trkpt lat="43.38532" lon="1.7061">
        <ele>196.6</ele>
        <time>2023-05-27T07:09:10Z</time>
      </trkpt>
      <trkpt lat="43.38534" lon="1.70617">
        <ele>196.6</ele>
        <time>2023-05-27T07:09:11Z</time>
      </trkpt>
      <trkpt lat="43.38536" lon="1.70623">
        <ele>196.6</ele>
        <time>2023-05-27T07:09:12Z</time>
      </trkpt>
      <trkpt lat="43.38538" lon="1.70629">
        <ele>196.6</ele>
        <time>2023-05-27T07:09:13Z</time>
      </trkpt>
      <trkpt lat="43.38539" lon="1.70634">
        <ele>196.6</ele>
        <time>2023-05-27T07:09:14Z</time>
      </trkpt>
      <trkpt lat="43.38542" lon="1.7064">
        <ele>196.6</ele>
        <time>2023-05-27T07:09:15Z</time>
      </trkpt>
      <trkpt lat="43.38544" lon="1.70646">
        <ele>196.6</ele>
        <time>2023-05-27T07:09:16Z</time>
      </trkpt>
      <trkpt lat="43.38546" lon="1.70651">
        <ele>196.6</ele>
        <time>2023-05-27T07:09:17Z</time>
      </trkpt>
      <trkpt lat="43.38547" lon="1.70655">
        <ele>196.6</ele>
        <time>2023-05-27T07:09:18Z</time>
      </trkpt>
      <trkpt lat="43.3855" lon="1.7066">
        <ele>196.6</ele>
        <time>2023-05-27T07:09:19Z</time>
      </trkpt>
      <trkpt lat="43.38551" lon="1.70665">
        <ele>196.6</ele>
        <time>2023-05-27T07:09:20Z</time>
      </trkpt>
      <trkpt lat="43.38553" lon="1.70668">
        <ele>196.6</ele>
        <time>2023-05-27T07:09:21Z</time>
      </trkpt>
      <trkpt lat="43.38554" lon="1.70672">
        <ele>196.6</ele>
        <time>2023-05-27T07:09:22Z</time>
      </trkpt>
      <trkpt lat="43.38555" lon="1.70675">
        <ele>196.8</ele>
        <time>2023-05-27T07:09:23Z</time>
      </trkpt>
      <trkpt lat="43.38556" lon="1.70679">
        <ele>196.6</ele>
        <time>2023-05-27T07:09:24Z</time>
      </trkpt>
      <trkpt lat="43.38558" lon="1.70684">
        <ele>196.8</ele>
        <time>2023-05-27T07:09:25Z</time>
      </trkpt>
      <trkpt lat="43.3856" lon="1.70688">
        <ele>196.8</ele>
        <time>2023-05-27T07:09:26Z</time>
      </trkpt>
      <trkpt lat="43.38562" lon="1.70694">
        <ele>196.6</ele>
        <time>2023-05-27T07:09:27Z</time>
      </trkpt>
      <trkpt lat="43.38564" lon="1.707">
        <ele>196.6</ele>
        <time>2023-05-27T07:09:28Z</time>
      </trkpt>
      <trkpt lat="43.38566" lon="1.70706">
        <ele>196.6</ele>
        <time>2023-05-27T07:09:29Z</time>
      </trkpt>
      <trkpt lat="43.38568" lon="1.70711">
        <ele>196.6</ele>
        <time>2023-05-27T07:09:30Z</time>
      </trkpt>
      <trkpt lat="43.38571" lon="1.70717">
        <ele>196.6</ele>
        <time>2023-05-27T07:09:31Z</time>
      </trkpt>
      <trkpt lat="43.38572" lon="1.70721">
        <ele>196.6</ele>
        <time>2023-05-27T07:09:32Z</time>
      </trkpt>
      <trkpt lat="43.38574" lon="1.70727">
        <ele>196.6</ele>
        <time>2023-05-27T07:09:33Z</time>
      </trkpt>
      <trkpt lat="43.38577" lon="1.70734">
        <ele>196.6</ele>
        <time>2023-05-27T07:09:34Z</time>
      </trkpt>
      <trkpt lat="43.38579" lon="1.7074">
        <ele>196.6</ele>
        <time>2023-05-27T07:09:35Z</time>
      </trkpt>
      <trkpt lat="43.38582" lon="1.70747">
        <ele>196.6</ele>
        <time>2023-05-27T07:09:36Z</time>
      </trkpt>
      <trkpt lat="43.38584" lon="1.70754">
        <ele>196.6</ele>
        <time>2023-05-27T07:09:37Z</time>
      </trkpt>
      <trkpt lat="43.38586" lon="1.70761">
        <ele>196.6</ele>
        <time>2023-05-27T07:09:38Z</time>
      </trkpt>
      <trkpt lat="43.38588" lon="1.70767">
        <ele>196.6</ele>
        <time>2023-05-27T07:09:39Z</time>
      </trkpt>
      <trkpt lat="43.38591" lon="1.70773">
        <ele>196.6</ele>
        <time>2023-05-27T07:09:40Z</time>
      </trkpt>
      <trkpt lat="43.38593" lon="1.70778">
        <ele>196.6</ele>
        <time>2023-05-27T07:09:41Z</time>
      </trkpt>
      <trkpt lat="43.38597" lon="1.70785">
        <ele>196.6</ele>
        <time>2023-05-27T07:09:42Z</time>
      </trkpt>
      <trkpt lat="43.38599" lon="1.70792">
        <ele>196.6</ele>
        <time>2023-05-27T07:09:43Z</time>
      </trkpt>
      <trkpt lat="43.386" lon="1.70797">
        <ele>196.6</ele>
        <time>2023-05-27T07:09:44Z</time>
      </trkpt>
      <trkpt lat="43.38601" lon="1.70803">
        <ele>196.6</ele>
        <time>2023-05-27T07:09:45Z</time>
      </trkpt>
      <trkpt lat="43.38603" lon="1.70809">
        <ele>196.6</ele>
        <time>2023-05-27T07:09:46Z</time>
      </trkpt>
      <trkpt lat="43.38603" lon="1.70816">
        <ele>196.4</ele>
        <time>2023-05-27T07:09:47Z</time>
      </trkpt>
      <trkpt lat="43.38606" lon="1.70822">
        <ele>196.4</ele>
        <time>2023-05-27T07:09:48Z</time>
      </trkpt>
      <trkpt lat="43.38607" lon="1.70829">
        <ele>196.2</ele>
        <time>2023-05-27T07:09:49Z</time>
      </trkpt>
      <trkpt lat="43.38608" lon="1.70836">
        <ele>196</ele>
        <time>2023-05-27T07:09:50Z</time>
      </trkpt>
      <trkpt lat="43.38609" lon="1.70843">
        <ele>196</ele>
        <time>2023-05-27T07:09:51Z</time>
      </trkpt>
      <trkpt lat="43.38611" lon="1.7085">
        <ele>196</ele>
        <time>2023-05-27T07:09:52Z</time>
      </trkpt>
      <trkpt lat="43.38612" lon="1.70857">
        <ele>196</ele>
        <time>2023-05-27T07:09:53Z</time>
      </trkpt>
      <trkpt lat="43.38613" lon="1.70863">
        <ele>195.8</ele>
        <time>2023-05-27T07:09:54Z</time>
      </trkpt>
      <trkpt lat="43.38613" lon="1.70868">
        <ele>195.8</ele>
        <time>2023-05-27T07:09:55Z</time>
      </trkpt>
      <trkpt lat="43.38614" lon="1.70873">
        <ele>195.6</ele>
        <time>2023-05-27T07:09:56Z</time>
      </trkpt>
      <trkpt lat="43.38615" lon="1.70878">
        <ele>195.6</ele>
        <time>2023-05-27T07:09:57Z</time>
      </trkpt>
      <trkpt lat="43.38616" lon="1.70882">
        <ele>195.6</ele>
        <time>2023-05-27T07:09:58Z</time>
      </trkpt>
      <trkpt lat="43.38617" lon="1.70886">
        <ele>195.4</ele>
        <time>2023-05-27T07:09:59Z</time>
      </trkpt>
      <trkpt lat="43.38619" lon="1.7089">
        <ele>195.4</ele>
        <time>2023-05-27T07:10:00Z</time>
      </trkpt>
      <trkpt lat="43.38621" lon="1.70893">
        <ele>195.4</ele>
        <time>2023-05-27T07:10:01Z</time>
      </trkpt>
      <trkpt lat="43.38624" lon="1.70896">
        <ele>195.4</ele>
        <time>2023-05-27T07:10:02Z</time>
      </trkpt>
      <trkpt lat="43.38626" lon="1.70899">
        <ele>195.4</ele>
        <time>2023-05-27T07:10:03Z</time>
      </trkpt>
      <trkpt lat="43.38628" lon="1.70902">
        <ele>195.4</ele>
        <time>2023-05-27T07:10:04Z</time>
      </trkpt>
      <trkpt lat="43.38631" lon="1.70904">
        <ele>195.4</ele>
        <time>2023-05-27T07:10:05Z</time>
      </trkpt>
      <trkpt lat="43.38633" lon="1.70906">
        <ele>195.4</ele>
        <time>2023-05-27T07:10:06Z</time>
      </trkpt>
      <trkpt lat="43.38634" lon="1.70909">
        <ele>195.4</ele>
        <time>2023-05-27T07:10:07Z</time>
      </trkpt>
      <trkpt lat="43.38636" lon="1.70912">
        <ele>195.4</ele>
        <time>2023-05-27T07:10:08Z</time>
      </trkpt>
      <trkpt lat="43.38638" lon="1.70915">
        <ele>195.4</ele>
        <time>2023-05-27T07:10:09Z</time>
      </trkpt>
      <trkpt lat="43.38639" lon="1.70918">
        <ele>195.4</ele>
        <time>2023-05-27T07:10:10Z</time>
      </trkpt>
      <trkpt lat="43.38641" lon="1.7092">
        <ele>195.4</ele>
        <time>2023-05-27T07:10:11Z</time>
      </trkpt>
      <trkpt lat="43.38642" lon="1.70923">
        <ele>195.4</ele>
        <time>2023-05-27T07:10:12Z</time>
      </trkpt>
      <trkpt lat="43.38644" lon="1.70926">
        <ele>195.4</ele>
        <time>2023-05-27T07:10:13Z</time>
      </trkpt>
      <trkpt lat="43.38646" lon="1.70928">
        <ele>195.4</ele>
        <time>2023-05-27T07:10:14Z</time>
      </trkpt>
      <trkpt lat="43.38648" lon="1.70929">
        <ele>195.4</ele>
        <time>2023-05-27T07:10:15Z</time>
      </trkpt>
      <trkpt lat="43.38651" lon="1.7093">
        <ele>195.2</ele>
        <time>2023-05-27T07:10:16Z</time>
      </trkpt>
      <trkpt lat="43.38654" lon="1.70931">
        <ele>195.2</ele>
        <time>2023-05-27T07:10:17Z</time>
      </trkpt>
      <trkpt lat="43.38658" lon="1.70931">
        <ele>195</ele>
        <time>2023-05-27T07:10:18Z</time>
      </trkpt>
      <trkpt lat="43.38661" lon="1.70932">
        <ele>194.8</ele>
        <time>2023-05-27T07:10:19Z</time>
      </trkpt>
      <trkpt lat="43.38664" lon="1.70935">
        <ele>194.6</ele>
        <time>2023-05-27T07:10:20Z</time>
      </trkpt>
      <trkpt lat="43.38667" lon="1.70939">
        <ele>194.6</ele>
        <time>2023-05-27T07:10:21Z</time>
      </trkpt>
      <trkpt lat="43.3867" lon="1.70943">
        <ele>194.6</ele>
        <time>2023-05-27T07:10:22Z</time>
      </trkpt>
      <trkpt lat="43.38674" lon="1.70946">
        <ele>194.6</ele>
        <time>2023-05-27T07:10:23Z</time>
      </trkpt>
      <trkpt lat="43.38677" lon="1.7095">
        <ele>194.6</ele>
        <time>2023-05-27T07:10:24Z</time>
      </trkpt>
      <trkpt lat="43.38681" lon="1.70953">
        <ele>194.8</ele>
        <time>2023-05-27T07:10:25Z</time>
      </trkpt>
      <trkpt lat="43.38685" lon="1.70956">
        <ele>194.8</ele>
        <time>2023-05-27T07:10:26Z</time>
      </trkpt>
      <trkpt lat="43.38688" lon="1.70958">
        <ele>195</ele>
        <time>2023-05-27T07:10:27Z</time>
      </trkpt>
      <trkpt lat="43.38691" lon="1.7096">
        <ele>195</ele>
        <time>2023-05-27T07:10:28Z</time>
      </trkpt>
      <trkpt lat="43.38694" lon="1.70962">
        <ele>195</ele>
        <time>2023-05-27T07:10:29Z</time>
      </trkpt>
      <trkpt lat="43.38697" lon="1.70963">
        <ele>195.2</ele>
        <time>2023-05-27T07:10:30Z</time>
      </trkpt>
      <trkpt lat="43.38701" lon="1.70965">
        <ele>195.2</ele>
        <time>2023-05-27T07:10:31Z</time>
      </trkpt>
      <trkpt lat="43.38705" lon="1.70967">
        <ele>195.2</ele>
        <time>2023-05-27T07:10:32Z</time>
      </trkpt>
      <trkpt lat="43.38709" lon="1.70968">
        <ele>195.2</ele>
        <time>2023-05-27T07:10:33Z</time>
      </trkpt>
      <trkpt lat="43.38713" lon="1.7097">
        <ele>195.2</ele>
        <time>2023-05-27T07:10:34Z</time>
      </trkpt>
      <trkpt lat="43.38718" lon="1.70972">
        <ele>195.2</ele>
        <time>2023-05-27T07:10:35Z</time>
      </trkpt>
      <trkpt lat="43.38722" lon="1.70973">
        <ele>195.2</ele>
        <time>2023-05-27T07:10:36Z</time>
      </trkpt>
      <trkpt lat="43.38727" lon="1.70975">
        <ele>195</ele>
        <time>2023-05-27T07:10:37Z</time>
      </trkpt>
      <trkpt lat="43.38731" lon="1.70978">
        <ele>195</ele>
        <time>2023-05-27T07:10:38Z</time>
      </trkpt>
      <trkpt lat="43.38736" lon="1.7098">
        <ele>195</ele>
        <time>2023-05-27T07:10:39Z</time>
      </trkpt>
      <trkpt lat="43.3874" lon="1.70983">
        <ele>194.8</ele>
        <time>2023-05-27T07:10:40Z</time>
      </trkpt>
      <trkpt lat="43.38745" lon="1.70985">
        <ele>194.8</ele>
        <time>2023-05-27T07:10:41Z</time>
      </trkpt>
      <trkpt lat="43.38749" lon="1.70986">
        <ele>194.6</ele>
        <time>2023-05-27T07:10:42Z</time>
      </trkpt>
      <trkpt lat="43.38754" lon="1.70989">
        <ele>194.6</ele>
        <time>2023-05-27T07:10:43Z</time>
      </trkpt>
      <trkpt lat="43.38758" lon="1.70993">
        <ele>194.6</ele>
        <time>2023-05-27T07:10:44Z</time>
      </trkpt>
      <trkpt lat="43.38762" lon="1.70998">
        <ele>194.6</ele>
        <time>2023-05-27T07:10:45Z</time>
      </trkpt>
      <trkpt lat="43.38767" lon="1.71001">
        <ele>194.6</ele>
        <time>2023-05-27T07:10:46Z</time>
      </trkpt>
      <trkpt lat="43.38772" lon="1.71005">
        <ele>194.4</ele>
        <time>2023-05-27T07:10:47Z</time>
      </trkpt>
      <trkpt lat="43.38777" lon="1.71009">
        <ele>194.4</ele>
        <time>2023-05-27T07:10:48Z</time>
      </trkpt>
      <trkpt lat="43.38781" lon="1.71013">
        <ele>194.4</ele>
        <time>2023-05-27T07:10:49Z</time>
      </trkpt>
      <trkpt lat="43.38786" lon="1.71015">
        <ele>194.2</ele>
        <time>2023-05-27T07:10:50Z</time>
      </trkpt>
      <trkpt lat="43.38791" lon="1.71018">
        <ele>194.2</ele>
        <time>2023-05-27T07:10:51Z</time>
      </trkpt>
      <trkpt lat="43.38796" lon="1.71021">
        <ele>194.2</ele>
        <time>2023-05-27T07:10:52Z</time>
      </trkpt>
      <trkpt lat="43.388" lon="1.71024">
        <ele>194.2</ele>
        <time>2023-05-27T07:10:53Z</time>
      </trkpt>
      <trkpt lat="43.38805" lon="1.71027">
        <ele>194</ele>
        <time>2023-05-27T07:10:54Z</time>
      </trkpt>
      <trkpt lat="43.38809" lon="1.71031">
        <ele>194</ele>
        <time>2023-05-27T07:10:55Z</time>
      </trkpt>
      <trkpt lat="43.38814" lon="1.71034">
        <ele>194</ele>
        <time>2023-05-27T07:10:56Z</time>
      </trkpt>
      <trkpt lat="43.38818" lon="1.71037">
        <ele>194</ele>
        <time>2023-05-27T07:10:57Z</time>
      </trkpt>
      <trkpt lat="43.38822" lon="1.71041">
        <ele>194</ele>
        <time>2023-05-27T07:10:58Z</time>
      </trkpt>
      <trkpt lat="43.38826" lon="1.71043">
        <ele>194</ele>
        <time>2023-05-27T07:10:59Z</time>
      </trkpt>
      <trkpt lat="43.3883" lon="1.71046">
        <ele>194</ele>
        <time>2023-05-27T07:11:00Z</time>
      </trkpt>
      <trkpt lat="43.38835" lon="1.71049">
        <ele>194</ele>
        <time>2023-05-27T07:11:01Z</time>
      </trkpt>
      <trkpt lat="43.38839" lon="1.71052">
        <ele>194</ele>
        <time>2023-05-27T07:11:02Z</time>
      </trkpt>
      <trkpt lat="43.38843" lon="1.71055">
        <ele>193.8</ele>
        <time>2023-05-27T07:11:03Z</time>
      </trkpt>
      <trkpt lat="43.38847" lon="1.71057">
        <ele>193.8</ele>
        <time>2023-05-27T07:11:04Z</time>
      </trkpt>
      <trkpt lat="43.38851" lon="1.7106">
        <ele>193.8</ele>
        <time>2023-05-27T07:11:05Z</time>
      </trkpt>
      <trkpt lat="43.38854" lon="1.71063">
        <ele>193.8</ele>
        <time>2023-05-27T07:11:06Z</time>
      </trkpt>
      <trkpt lat="43.38858" lon="1.71065">
        <ele>193.8</ele>
        <time>2023-05-27T07:11:07Z</time>
      </trkpt>
      <trkpt lat="43.38861" lon="1.71067">
        <ele>193.8</ele>
        <time>2023-05-27T07:11:08Z</time>
      </trkpt>
      <trkpt lat="43.38865" lon="1.71069">
        <ele>193.8</ele>
        <time>2023-05-27T07:11:09Z</time>
      </trkpt>
      <trkpt lat="43.38869" lon="1.71071">
        <ele>193.8</ele>
        <time>2023-05-27T07:11:10Z</time>
      </trkpt>
      <trkpt lat="43.38872" lon="1.71073">
        <ele>193.8</ele>
        <time>2023-05-27T07:11:11Z</time>
      </trkpt>
      <trkpt lat="43.38875" lon="1.71076">
        <ele>193.8</ele>
        <time>2023-05-27T07:11:12Z</time>
      </trkpt>
      <trkpt lat="43.38878" lon="1.71078">
        <ele>193.6</ele>
        <time>2023-05-27T07:11:13Z</time>
      </trkpt>
      <trkpt lat="43.38882" lon="1.7108">
        <ele>193.6</ele>
        <time>2023-05-27T07:11:14Z</time>
      </trkpt>
      <trkpt lat="43.38886" lon="1.71081">
        <ele>193.6</ele>
        <time>2023-05-27T07:11:15Z</time>
      </trkpt>
      <trkpt lat="43.38888" lon="1.71082">
        <ele>193.6</ele>
        <time>2023-05-27T07:11:16Z</time>
      </trkpt>
      <trkpt lat="43.38891" lon="1.71084">
        <ele>193.6</ele>
        <time>2023-05-27T07:11:17Z</time>
      </trkpt>
      <trkpt lat="43.38894" lon="1.71086">
        <ele>193.6</ele>
        <time>2023-05-27T07:11:18Z</time>
      </trkpt>
      <trkpt lat="43.38897" lon="1.71088">
        <ele>193.6</ele>
        <time>2023-05-27T07:11:19Z</time>
      </trkpt>
      <trkpt lat="43.38899" lon="1.71089">
        <ele>193.6</ele>
        <time>2023-05-27T07:11:20Z</time>
      </trkpt>
      <trkpt lat="43.38902" lon="1.7109">
        <ele>193.6</ele>
        <time>2023-05-27T07:11:21Z</time>
      </trkpt>
      <trkpt lat="43.38905" lon="1.71092">
        <ele>193.6</ele>
        <time>2023-05-27T07:11:22Z</time>
      </trkpt>
      <trkpt lat="43.38907" lon="1.71093">
        <ele>193.6</ele>
        <time>2023-05-27T07:11:23Z</time>
      </trkpt>
      <trkpt lat="43.38909" lon="1.71094">
        <ele>193.6</ele>
        <time>2023-05-27T07:11:24Z</time>
      </trkpt>
      <trkpt lat="43.38912" lon="1.71095">
        <ele>193.6</ele>
        <time>2023-05-27T07:11:25Z</time>
      </trkpt>
      <trkpt lat="43.38915" lon="1.71096">
        <ele>193.6</ele>
        <time>2023-05-27T07:11:26Z</time>
      </trkpt>
      <trkpt lat="43.38918" lon="1.71098">
        <ele>193.6</ele>
        <time>2023-05-27T07:11:27Z</time>
      </trkpt>
      <trkpt lat="43.38921" lon="1.71099">
        <ele>193.6</ele>
        <time>2023-05-27T07:11:28Z</time>
      </trkpt>
      <trkpt lat="43.38924" lon="1.711">
        <ele>193.6</ele>
        <time>2023-05-27T07:11:29Z</time>
      </trkpt>
      <trkpt lat="43.38927" lon="1.71102">
        <ele>193.6</ele>
        <time>2023-05-27T07:11:30Z</time>
      </trkpt>
      <trkpt lat="43.3893" lon="1.71103">
        <ele>193.6</ele>
        <time>2023-05-27T07:11:31Z</time>
      </trkpt>
      <trkpt lat="43.38933" lon="1.71105">
        <ele>193.6</ele>
        <time>2023-05-27T07:11:32Z</time>
      </trkpt>
      <trkpt lat="43.38936" lon="1.71107">
        <ele>193.6</ele>
        <time>2023-05-27T07:11:33Z</time>
      </trkpt>
      <trkpt lat="43.38938" lon="1.71108">
        <ele>193.6</ele>
        <time>2023-05-27T07:11:34Z</time>
      </trkpt>
      <trkpt lat="43.38941" lon="1.7111">
        <ele>193.6</ele>
        <time>2023-05-27T07:11:35Z</time>
      </trkpt>
      <trkpt lat="43.38943" lon="1.71111">
        <ele>193.6</ele>
        <time>2023-05-27T07:11:36Z</time>
      </trkpt>
      <trkpt lat="43.38946" lon="1.71112">
        <ele>193.6</ele>
        <time>2023-05-27T07:11:37Z</time>
      </trkpt>
      <trkpt lat="43.38948" lon="1.71112">
        <ele>193.6</ele>
        <time>2023-05-27T07:11:38Z</time>
      </trkpt>
      <trkpt lat="43.38951" lon="1.71113">
        <ele>193.6</ele>
        <time>2023-05-27T07:11:39Z</time>
      </trkpt>
      <trkpt lat="43.38954" lon="1.71114">
        <ele>193.6</ele>
        <time>2023-05-27T07:11:40Z</time>
      </trkpt>
      <trkpt lat="43.38956" lon="1.71115">
        <ele>193.6</ele>
        <time>2023-05-27T07:11:41Z</time>
      </trkpt>
      <trkpt lat="43.38959" lon="1.71116">
        <ele>193.6</ele>
        <time>2023-05-27T07:11:42Z</time>
      </trkpt>
      <trkpt lat="43.38962" lon="1.71117">
        <ele>193.6</ele>
        <time>2023-05-27T07:11:43Z</time>
      </trkpt>
      <trkpt lat="43.38964" lon="1.71118">
        <ele>193.6</ele>
        <time>2023-05-27T07:11:44Z</time>
      </trkpt>
      <trkpt lat="43.38967" lon="1.71118">
        <ele>193.6</ele>
        <time>2023-05-27T07:11:45Z</time>
      </trkpt>
      <trkpt lat="43.3897" lon="1.71119">
        <ele>193.6</ele>
        <time>2023-05-27T07:11:46Z</time>
      </trkpt>
      <trkpt lat="43.38972" lon="1.7112">
        <ele>193.6</ele>
        <time>2023-05-27T07:11:47Z</time>
      </trkpt>
      <trkpt lat="43.38975" lon="1.71122">
        <ele>193.6</ele>
        <time>2023-05-27T07:11:48Z</time>
      </trkpt>
      <trkpt lat="43.38977" lon="1.71123">
        <ele>193.6</ele>
        <time>2023-05-27T07:11:49Z</time>
      </trkpt>
      <trkpt lat="43.3898" lon="1.71125">
        <ele>193.6</ele>
        <time>2023-05-27T07:11:50Z</time>
      </trkpt>
      <trkpt lat="43.38982" lon="1.71128">
        <ele>193.6</ele>
        <time>2023-05-27T07:11:51Z</time>
      </trkpt>
      <trkpt lat="43.38984" lon="1.71132">
        <ele>193.6</ele>
        <time>2023-05-27T07:11:52Z</time>
      </trkpt>
      <trkpt lat="43.38984" lon="1.71136">
        <ele>193.6</ele>
        <time>2023-05-27T07:11:53Z</time>
      </trkpt>
      <trkpt lat="43.38984" lon="1.71139">
        <ele>193.8</ele>
        <time>2023-05-27T07:11:54Z</time>
      </trkpt>
      <trkpt lat="43.38983" lon="1.71142">
        <ele>194</ele>
        <time>2023-05-27T07:11:55Z</time>
      </trkpt>
      <trkpt lat="43.38982" lon="1.71145">
        <ele>194</ele>
        <time>2023-05-27T07:11:56Z</time>
      </trkpt>
      <trkpt lat="43.38981" lon="1.71147">
        <ele>194.2</ele>
        <time>2023-05-27T07:11:57Z</time>
      </trkpt>
      <trkpt lat="43.3898" lon="1.7115">
        <ele>194.4</ele>
        <time>2023-05-27T07:11:58Z</time>
      </trkpt>
      <trkpt lat="43.38979" lon="1.71152">
        <ele>194.6</ele>
        <time>2023-05-27T07:11:59Z</time>
      </trkpt>
      <trkpt lat="43.38979" lon="1.71155">
        <ele>194.8</ele>
        <time>2023-05-27T07:12:00Z</time>
      </trkpt>
      <trkpt lat="43.38978" lon="1.71158">
        <ele>195</ele>
        <time>2023-05-27T07:12:01Z</time>
      </trkpt>
      <trkpt lat="43.38977" lon="1.71161">
        <ele>195.2</ele>
        <time>2023-05-27T07:12:02Z</time>
      </trkpt>
      <trkpt lat="43.38977" lon="1.71165">
        <ele>195.4</ele>
        <time>2023-05-27T07:12:03Z</time>
      </trkpt>
      <trkpt lat="43.38977" lon="1.71168">
        <ele>195.6</ele>
        <time>2023-05-27T07:12:04Z</time>
      </trkpt>
      <trkpt lat="43.38978" lon="1.71171">
        <ele>195.8</ele>
        <time>2023-05-27T07:12:05Z</time>
      </trkpt>
      <trkpt lat="43.38979" lon="1.71175">
        <ele>196</ele>
        <time>2023-05-27T07:12:06Z</time>
      </trkpt>
      <trkpt lat="43.3898" lon="1.71177">
        <ele>196</ele>
        <time>2023-05-27T07:12:07Z</time>
      </trkpt>
      <trkpt lat="43.38982" lon="1.71179">
        <ele>196.2</ele>
        <time>2023-05-27T07:12:08Z</time>
      </trkpt>
      <trkpt lat="43.38984" lon="1.71182">
        <ele>196.2</ele>
        <time>2023-05-27T07:12:09Z</time>
      </trkpt>
      <trkpt lat="43.38986" lon="1.71184">
        <ele>196.2</ele>
        <time>2023-05-27T07:12:10Z</time>
      </trkpt>
      <trkpt lat="43.38988" lon="1.71186">
        <ele>196.2</ele>
        <time>2023-05-27T07:12:11Z</time>
      </trkpt>
      <trkpt lat="43.38991" lon="1.71189">
        <ele>196.4</ele>
        <time>2023-05-27T07:12:12Z</time>
      </trkpt>
      <trkpt lat="43.38994" lon="1.71191">
        <ele>196.4</ele>
        <time>2023-05-27T07:12:13Z</time>
      </trkpt>
      <trkpt lat="43.38997" lon="1.71193">
        <ele>196.4</ele>
        <time>2023-05-27T07:12:14Z</time>
      </trkpt>
      <trkpt lat="43.39" lon="1.71196">
        <ele>196.4</ele>
        <time>2023-05-27T07:12:15Z</time>
      </trkpt>
      <trkpt lat="43.39002" lon="1.71198">
        <ele>196.4</ele>
        <time>2023-05-27T07:12:16Z</time>
      </trkpt>
      <trkpt lat="43.39005" lon="1.71201">
        <ele>196.4</ele>
        <time>2023-05-27T07:12:17Z</time>
      </trkpt>
      <trkpt lat="43.39008" lon="1.71203">
        <ele>196.4</ele>
        <time>2023-05-27T07:12:18Z</time>
      </trkpt>
      <trkpt lat="43.3901" lon="1.71205">
        <ele>196.4</ele>
        <time>2023-05-27T07:12:19Z</time>
      </trkpt>
      <trkpt lat="43.39013" lon="1.71207">
        <ele>196.4</ele>
        <time>2023-05-27T07:12:20Z</time>
      </trkpt>
      <trkpt lat="43.39016" lon="1.71209">
        <ele>196.4</ele>
        <time>2023-05-27T07:12:21Z</time>
      </trkpt>
      <trkpt lat="43.39019" lon="1.71212">
        <ele>196.4</ele>
        <time>2023-05-27T07:12:22Z</time>
      </trkpt>
      <trkpt lat="43.39022" lon="1.71214">
        <ele>196.4</ele>
        <time>2023-05-27T07:12:23Z</time>
      </trkpt>
      <trkpt lat="43.39025" lon="1.71217">
        <ele>196.4</ele>
        <time>2023-05-27T07:12:24Z</time>
      </trkpt>
      <trkpt lat="43.39028" lon="1.7122">
        <ele>196.4</ele>
        <time>2023-05-27T07:12:25Z</time>
      </trkpt>
      <trkpt lat="43.39031" lon="1.71223">
        <ele>196.4</ele>
        <time>2023-05-27T07:12:26Z</time>
      </trkpt>
      <trkpt lat="43.39034" lon="1.71226">
        <ele>196.4</ele>
        <time>2023-05-27T07:12:27Z</time>
      </trkpt>
      <trkpt lat="43.39037" lon="1.71229">
        <ele>196.4</ele>
        <time>2023-05-27T07:12:28Z</time>
      </trkpt>
      <trkpt lat="43.39039" lon="1.71233">
        <ele>196.4</ele>
        <time>2023-05-27T07:12:29Z</time>
      </trkpt>
      <trkpt lat="43.39042" lon="1.71236">
        <ele>196.4</ele>
        <time>2023-05-27T07:12:30Z</time>
      </trkpt>
      <trkpt lat="43.39044" lon="1.71239">
        <ele>196.4</ele>
        <time>2023-05-27T07:12:31Z</time>
      </trkpt>
      <trkpt lat="43.39046" lon="1.71242">
        <ele>196.4</ele>
        <time>2023-05-27T07:12:32Z</time>
      </trkpt>
      <trkpt lat="43.39049" lon="1.71246">
        <ele>196.4</ele>
        <time>2023-05-27T07:12:33Z</time>
      </trkpt>
      <trkpt lat="43.39051" lon="1.71249">
        <ele>196.4</ele>
        <time>2023-05-27T07:12:34Z</time>
      </trkpt>
      <trkpt lat="43.39054" lon="1.71253">
        <ele>196.4</ele>
        <time>2023-05-27T07:12:35Z</time>
      </trkpt>
      <trkpt lat="43.39056" lon="1.71256">
        <ele>196.4</ele>
        <time>2023-05-27T07:12:36Z</time>
      </trkpt>
      <trkpt lat="43.39058" lon="1.7126">
        <ele>196.4</ele>
        <time>2023-05-27T07:12:37Z</time>
      </trkpt>
      <trkpt lat="43.3906" lon="1.71263">
        <ele>196.4</ele>
        <time>2023-05-27T07:12:38Z</time>
      </trkpt>
      <trkpt lat="43.39062" lon="1.71267">
        <ele>196.4</ele>
        <time>2023-05-27T07:12:39Z</time>
      </trkpt>
      <trkpt lat="43.39064" lon="1.71271">
        <ele>196.4</ele>
        <time>2023-05-27T07:12:40Z</time>
      </trkpt>
      <trkpt lat="43.39066" lon="1.71275">
        <ele>196.4</ele>
        <time>2023-05-27T07:12:41Z</time>
      </trkpt>
      <trkpt lat="43.39068" lon="1.71279">
        <ele>196.4</ele>
        <time>2023-05-27T07:12:42Z</time>
      </trkpt>
      <trkpt lat="43.3907" lon="1.71283">
        <ele>196.4</ele>
        <time>2023-05-27T07:12:43Z</time>
      </trkpt>
      <trkpt lat="43.39072" lon="1.71288">
        <ele>196.2</ele>
        <time>2023-05-27T07:12:44Z</time>
      </trkpt>
      <trkpt lat="43.39073" lon="1.71292">
        <ele>196.2</ele>
        <time>2023-05-27T07:12:45Z</time>
      </trkpt>
      <trkpt lat="43.39075" lon="1.71297">
        <ele>196.2</ele>
        <time>2023-05-27T07:12:46Z</time>
      </trkpt>
      <trkpt lat="43.39077" lon="1.71302">
        <ele>196.2</ele>
        <time>2023-05-27T07:12:47Z</time>
      </trkpt>
      <trkpt lat="43.3908" lon="1.71308">
        <ele>196.2</ele>
        <time>2023-05-27T07:12:48Z</time>
      </trkpt>
      <trkpt lat="43.39082" lon="1.71313">
        <ele>196.2</ele>
        <time>2023-05-27T07:12:49Z</time>
      </trkpt>
      <trkpt lat="43.39083" lon="1.71318">
        <ele>196.2</ele>
        <time>2023-05-27T07:12:50Z</time>
      </trkpt>
      <trkpt lat="43.39084" lon="1.71323">
        <ele>196.2</ele>
        <time>2023-05-27T07:12:51Z</time>
      </trkpt>
      <trkpt lat="43.39085" lon="1.71328">
        <ele>196.2</ele>
        <time>2023-05-27T07:12:52Z</time>
      </trkpt>
      <trkpt lat="43.39086" lon="1.71335">
        <ele>196.2</ele>
        <time>2023-05-27T07:12:53Z</time>
      </trkpt>
      <trkpt lat="43.39087" lon="1.71341">
        <ele>196.2</ele>
        <time>2023-05-27T07:12:54Z</time>
      </trkpt>
      <trkpt lat="43.39088" lon="1.71347">
        <ele>196.2</ele>
        <time>2023-05-27T07:12:55Z</time>
      </trkpt>
      <trkpt lat="43.39088" lon="1.71353">
        <ele>196.2</ele>
        <time>2023-05-27T07:12:56Z</time>
      </trkpt>
      <trkpt lat="43.39088" lon="1.71359">
        <ele>196</ele>
        <time>2023-05-27T07:12:57Z</time>
      </trkpt>
      <trkpt lat="43.39088" lon="1.71365">
        <ele>196</ele>
        <time>2023-05-27T07:12:58Z</time>
      </trkpt>
      <trkpt lat="43.39088" lon="1.7137">
        <ele>196</ele>
        <time>2023-05-27T07:12:59Z</time>
      </trkpt>
      <trkpt lat="43.39088" lon="1.71377">
        <ele>196</ele>
        <time>2023-05-27T07:13:00Z</time>
      </trkpt>
      <trkpt lat="43.39087" lon="1.71383">
        <ele>196</ele>
        <time>2023-05-27T07:13:01Z</time>
      </trkpt>
      <trkpt lat="43.39087" lon="1.71389">
        <ele>196</ele>
        <time>2023-05-27T07:13:02Z</time>
      </trkpt>
      <trkpt lat="43.39087" lon="1.71395">
        <ele>196</ele>
        <time>2023-05-27T07:13:03Z</time>
      </trkpt>
      <trkpt lat="43.39086" lon="1.71401">
        <ele>196</ele>
        <time>2023-05-27T07:13:04Z</time>
      </trkpt>
      <trkpt lat="43.39085" lon="1.71407">
        <ele>195.8</ele>
        <time>2023-05-27T07:13:05Z</time>
      </trkpt>
      <trkpt lat="43.39083" lon="1.71412">
        <ele>195.8</ele>
        <time>2023-05-27T07:13:06Z</time>
      </trkpt>
      <trkpt lat="43.39081" lon="1.71417">
        <ele>195.8</ele>
        <time>2023-05-27T07:13:07Z</time>
      </trkpt>
      <trkpt lat="43.39079" lon="1.71423">
        <ele>195.8</ele>
        <time>2023-05-27T07:13:08Z</time>
      </trkpt>
      <trkpt lat="43.39078" lon="1.71429">
        <ele>195.8</ele>
        <time>2023-05-27T07:13:09Z</time>
      </trkpt>
      <trkpt lat="43.39077" lon="1.71435">
        <ele>195.8</ele>
        <time>2023-05-27T07:13:10Z</time>
      </trkpt>
      <trkpt lat="43.39077" lon="1.7144">
        <ele>196</ele>
        <time>2023-05-27T07:13:11Z</time>
      </trkpt>
      <trkpt lat="43.39076" lon="1.71444">
        <ele>195.8</ele>
        <time>2023-05-27T07:13:12Z</time>
      </trkpt>
      <trkpt lat="43.39076" lon="1.71448">
        <ele>195.8</ele>
        <time>2023-05-27T07:13:13Z</time>
      </trkpt>
      <trkpt lat="43.39075" lon="1.71453">
        <ele>195.8</ele>
        <time>2023-05-27T07:13:14Z</time>
      </trkpt>
      <trkpt lat="43.39074" lon="1.71458">
        <ele>195.8</ele>
        <time>2023-05-27T07:13:15Z</time>
      </trkpt>
      <trkpt lat="43.39073" lon="1.71463">
        <ele>195.8</ele>
        <time>2023-05-27T07:13:16Z</time>
      </trkpt>
      <trkpt lat="43.39073" lon="1.71468">
        <ele>195.8</ele>
        <time>2023-05-27T07:13:17Z</time>
      </trkpt>
      <trkpt lat="43.39072" lon="1.71473">
        <ele>195.8</ele>
        <time>2023-05-27T07:13:18Z</time>
      </trkpt>
      <trkpt lat="43.39071" lon="1.71478">
        <ele>195.8</ele>
        <time>2023-05-27T07:13:19Z</time>
      </trkpt>
      <trkpt lat="43.39071" lon="1.71483">
        <ele>195.8</ele>
        <time>2023-05-27T07:13:20Z</time>
      </trkpt>
      <trkpt lat="43.39071" lon="1.71489">
        <ele>195.8</ele>
        <time>2023-05-27T07:13:21Z</time>
      </trkpt>
      <trkpt lat="43.3907" lon="1.71494">
        <ele>195.8</ele>
        <time>2023-05-27T07:13:22Z</time>
      </trkpt>
      <trkpt lat="43.3907" lon="1.71499">
        <ele>195.8</ele>
        <time>2023-05-27T07:13:23Z</time>
      </trkpt>
      <trkpt lat="43.39068" lon="1.71504">
        <ele>195.8</ele>
        <time>2023-05-27T07:13:24Z</time>
      </trkpt>
      <trkpt lat="43.39068" lon="1.7151">
        <ele>195.8</ele>
        <time>2023-05-27T07:13:25Z</time>
      </trkpt>
      <trkpt lat="43.39068" lon="1.71516">
        <ele>195.8</ele>
        <time>2023-05-27T07:13:26Z</time>
      </trkpt>
      <trkpt lat="43.39067" lon="1.71521">
        <ele>195.8</ele>
        <time>2023-05-27T07:13:27Z</time>
      </trkpt>
      <trkpt lat="43.39066" lon="1.71526">
        <ele>195.8</ele>
        <time>2023-05-27T07:13:28Z</time>
      </trkpt>
      <trkpt lat="43.39066" lon="1.71531">
        <ele>195.8</ele>
        <time>2023-05-27T07:13:29Z</time>
      </trkpt>
      <trkpt lat="43.39065" lon="1.71536">
        <ele>195.8</ele>
        <time>2023-05-27T07:13:30Z</time>
      </trkpt>
      <trkpt lat="43.39064" lon="1.71543">
        <ele>195.8</ele>
        <time>2023-05-27T07:13:31Z</time>
      </trkpt>
      <trkpt lat="43.39063" lon="1.71548">
        <ele>195.8</ele>
        <time>2023-05-27T07:13:32Z</time>
      </trkpt>
      <trkpt lat="43.39063" lon="1.71555">
        <ele>195.8</ele>
        <time>2023-05-27T07:13:33Z</time>
      </trkpt>
      <trkpt lat="43.39062" lon="1.7156">
        <ele>195.8</ele>
        <time>2023-05-27T07:13:34Z</time>
      </trkpt>
      <trkpt lat="43.39061" lon="1.71567">
        <ele>196</ele>
        <time>2023-05-27T07:13:35Z</time>
      </trkpt>
      <trkpt lat="43.3906" lon="1.71573">
        <ele>196</ele>
        <time>2023-05-27T07:13:36Z</time>
      </trkpt>
      <trkpt lat="43.3906" lon="1.71579">
        <ele>196</ele>
        <time>2023-05-27T07:13:37Z</time>
      </trkpt>
      <trkpt lat="43.39059" lon="1.71585">
        <ele>195.8</ele>
        <time>2023-05-27T07:13:38Z</time>
      </trkpt>
      <trkpt lat="43.39057" lon="1.71591">
        <ele>196</ele>
        <time>2023-05-27T07:13:39Z</time>
      </trkpt>
      <trkpt lat="43.39056" lon="1.71598">
        <ele>196</ele>
        <time>2023-05-27T07:13:40Z</time>
      </trkpt>
      <trkpt lat="43.39054" lon="1.71604">
        <ele>195.8</ele>
        <time>2023-05-27T07:13:41Z</time>
      </trkpt>
      <trkpt lat="43.39052" lon="1.71611">
        <ele>195.8</ele>
        <time>2023-05-27T07:13:42Z</time>
      </trkpt>
      <trkpt lat="43.39051" lon="1.71618">
        <ele>195.8</ele>
        <time>2023-05-27T07:13:43Z</time>
      </trkpt>
      <trkpt lat="43.39051" lon="1.71624">
        <ele>195.8</ele>
        <time>2023-05-27T07:13:44Z</time>
      </trkpt>
      <trkpt lat="43.39049" lon="1.71629">
        <ele>195.8</ele>
        <time>2023-05-27T07:13:45Z</time>
      </trkpt>
      <trkpt lat="43.39048" lon="1.71633">
        <ele>196</ele>
        <time>2023-05-27T07:13:46Z</time>
      </trkpt>
      <trkpt lat="43.39047" lon="1.71639">
        <ele>196</ele>
        <time>2023-05-27T07:13:47Z</time>
      </trkpt>
      <trkpt lat="43.39047" lon="1.71645">
        <ele>196</ele>
        <time>2023-05-27T07:13:48Z</time>
      </trkpt>
      <trkpt lat="43.39046" lon="1.71651">
        <ele>196</ele>
        <time>2023-05-27T07:13:49Z</time>
      </trkpt>
      <trkpt lat="43.39045" lon="1.71658">
        <ele>196</ele>
        <time>2023-05-27T07:13:50Z</time>
      </trkpt>
      <trkpt lat="43.39045" lon="1.71663">
        <ele>196</ele>
        <time>2023-05-27T07:13:51Z</time>
      </trkpt>
      <trkpt lat="43.39044" lon="1.71669">
        <ele>196</ele>
        <time>2023-05-27T07:13:52Z</time>
      </trkpt>
      <trkpt lat="43.39044" lon="1.71673">
        <ele>196</ele>
        <time>2023-05-27T07:13:53Z</time>
      </trkpt>
      <trkpt lat="43.39044" lon="1.71679">
        <ele>196</ele>
        <time>2023-05-27T07:13:54Z</time>
      </trkpt>
      <trkpt lat="43.39043" lon="1.71683">
        <ele>196</ele>
        <time>2023-05-27T07:13:55Z</time>
      </trkpt>
      <trkpt lat="43.39042" lon="1.71688">
        <ele>196</ele>
        <time>2023-05-27T07:13:56Z</time>
      </trkpt>
      <trkpt lat="43.39041" lon="1.71694">
        <ele>196</ele>
        <time>2023-05-27T07:13:57Z</time>
      </trkpt>
      <trkpt lat="43.39041" lon="1.717">
        <ele>196</ele>
        <time>2023-05-27T07:13:58Z</time>
      </trkpt>
      <trkpt lat="43.39041" lon="1.71708">
        <ele>196</ele>
        <time>2023-05-27T07:13:59Z</time>
      </trkpt>
      <trkpt lat="43.39041" lon="1.71713">
        <ele>196</ele>
        <time>2023-05-27T07:14:00Z</time>
      </trkpt>
      <trkpt lat="43.39042" lon="1.71719">
        <ele>196</ele>
        <time>2023-05-27T07:14:01Z</time>
      </trkpt>
      <trkpt lat="43.39043" lon="1.71724">
        <ele>196.2</ele>
        <time>2023-05-27T07:14:02Z</time>
      </trkpt>
      <trkpt lat="43.39043" lon="1.71729">
        <ele>196.2</ele>
        <time>2023-05-27T07:14:03Z</time>
      </trkpt>
      <trkpt lat="43.39043" lon="1.71735">
        <ele>196.2</ele>
        <time>2023-05-27T07:14:04Z</time>
      </trkpt>
      <trkpt lat="43.39043" lon="1.71742">
        <ele>196</ele>
        <time>2023-05-27T07:14:05Z</time>
      </trkpt>
      <trkpt lat="43.39042" lon="1.71747">
        <ele>196</ele>
        <time>2023-05-27T07:14:06Z</time>
      </trkpt>
      <trkpt lat="43.39042" lon="1.71752">
        <ele>196</ele>
        <time>2023-05-27T07:14:07Z</time>
      </trkpt>
      <trkpt lat="43.39042" lon="1.71756">
        <ele>196</ele>
        <time>2023-05-27T07:14:08Z</time>
      </trkpt>
      <trkpt lat="43.3904" lon="1.71761">
        <ele>196</ele>
        <time>2023-05-27T07:14:09Z</time>
      </trkpt>
      <trkpt lat="43.39039" lon="1.71767">
        <ele>196</ele>
        <time>2023-05-27T07:14:10Z</time>
      </trkpt>
      <trkpt lat="43.39039" lon="1.71771">
        <ele>196</ele>
        <time>2023-05-27T07:14:11Z</time>
      </trkpt>
      <trkpt lat="43.39038" lon="1.71776">
        <ele>196</ele>
        <time>2023-05-27T07:14:12Z</time>
      </trkpt>
      <trkpt lat="43.39037" lon="1.71781">
        <ele>196</ele>
        <time>2023-05-27T07:14:13Z</time>
      </trkpt>
      <trkpt lat="43.39036" lon="1.71787">
        <ele>196</ele>
        <time>2023-05-27T07:14:14Z</time>
      </trkpt>
      <trkpt lat="43.39035" lon="1.71792">
        <ele>196</ele>
        <time>2023-05-27T07:14:15Z</time>
      </trkpt>
      <trkpt lat="43.39033" lon="1.71798">
        <ele>196</ele>
        <time>2023-05-27T07:14:16Z</time>
      </trkpt>
      <trkpt lat="43.39032" lon="1.71803">
        <ele>195.8</ele>
        <time>2023-05-27T07:14:17Z</time>
      </trkpt>
      <trkpt lat="43.3903" lon="1.71808">
        <ele>195.8</ele>
        <time>2023-05-27T07:14:18Z</time>
      </trkpt>
      <trkpt lat="43.39029" lon="1.71813">
        <ele>195.8</ele>
        <time>2023-05-27T07:14:19Z</time>
      </trkpt>
      <trkpt lat="43.39028" lon="1.71818">
        <ele>195.8</ele>
        <time>2023-05-27T07:14:20Z</time>
      </trkpt>
      <trkpt lat="43.39027" lon="1.71822">
        <ele>195.8</ele>
        <time>2023-05-27T07:14:21Z</time>
      </trkpt>
      <trkpt lat="43.39026" lon="1.71826">
        <ele>195.8</ele>
        <time>2023-05-27T07:14:22Z</time>
      </trkpt>
      <trkpt lat="43.39024" lon="1.7183">
        <ele>195.8</ele>
        <time>2023-05-27T07:14:23Z</time>
      </trkpt>
      <trkpt lat="43.39023" lon="1.71834">
        <ele>195.8</ele>
        <time>2023-05-27T07:14:24Z</time>
      </trkpt>
      <trkpt lat="43.39022" lon="1.7184">
        <ele>195.8</ele>
        <time>2023-05-27T07:14:25Z</time>
      </trkpt>
      <trkpt lat="43.3902" lon="1.71846">
        <ele>195.8</ele>
        <time>2023-05-27T07:14:26Z</time>
      </trkpt>
      <trkpt lat="43.39019" lon="1.71852">
        <ele>195.8</ele>
        <time>2023-05-27T07:14:27Z</time>
      </trkpt>
      <trkpt lat="43.39016" lon="1.71857">
        <ele>195.8</ele>
        <time>2023-05-27T07:14:28Z</time>
      </trkpt>
      <trkpt lat="43.39014" lon="1.71862">
        <ele>195.8</ele>
        <time>2023-05-27T07:14:29Z</time>
      </trkpt>
      <trkpt lat="43.39012" lon="1.71866">
        <ele>195.8</ele>
        <time>2023-05-27T07:14:30Z</time>
      </trkpt>
      <trkpt lat="43.3901" lon="1.71871">
        <ele>195.8</ele>
        <time>2023-05-27T07:14:31Z</time>
      </trkpt>
      <trkpt lat="43.39007" lon="1.71876">
        <ele>195.8</ele>
        <time>2023-05-27T07:14:32Z</time>
      </trkpt>
      <trkpt lat="43.39006" lon="1.7188">
        <ele>195.8</ele>
        <time>2023-05-27T07:14:33Z</time>
      </trkpt>
      <trkpt lat="43.39004" lon="1.71886">
        <ele>195.8</ele>
        <time>2023-05-27T07:14:34Z</time>
      </trkpt>
      <trkpt lat="43.39002" lon="1.7189">
        <ele>195.8</ele>
        <time>2023-05-27T07:14:35Z</time>
      </trkpt>
      <trkpt lat="43.39" lon="1.71894">
        <ele>195.8</ele>
        <time>2023-05-27T07:14:36Z</time>
      </trkpt>
      <trkpt lat="43.38999" lon="1.71898">
        <ele>195.8</ele>
        <time>2023-05-27T07:14:37Z</time>
      </trkpt>
      <trkpt lat="43.38997" lon="1.71903">
        <ele>195.8</ele>
        <time>2023-05-27T07:14:38Z</time>
      </trkpt>
      <trkpt lat="43.38993" lon="1.71907">
        <ele>195.8</ele>
        <time>2023-05-27T07:14:39Z</time>
      </trkpt>
      <trkpt lat="43.38989" lon="1.71913">
        <ele>195.8</ele>
        <time>2023-05-27T07:14:40Z</time>
      </trkpt>
      <trkpt lat="43.38985" lon="1.7192">
        <ele>195.8</ele>
        <time>2023-05-27T07:14:41Z</time>
      </trkpt>
      <trkpt lat="43.38981" lon="1.71925">
        <ele>195.8</ele>
        <time>2023-05-27T07:14:42Z</time>
      </trkpt>
      <trkpt lat="43.38977" lon="1.7193">
        <ele>196</ele>
        <time>2023-05-27T07:14:43Z</time>
      </trkpt>
      <trkpt lat="43.38971" lon="1.71935">
        <ele>195.8</ele>
        <time>2023-05-27T07:14:44Z</time>
      </trkpt>
      <trkpt lat="43.38967" lon="1.7194">
        <ele>196</ele>
        <time>2023-05-27T07:14:45Z</time>
      </trkpt>
      <trkpt lat="43.38963" lon="1.71944">
        <ele>196</ele>
        <time>2023-05-27T07:14:46Z</time>
      </trkpt>
      <trkpt lat="43.3896" lon="1.71947">
        <ele>196</ele>
        <time>2023-05-27T07:14:47Z</time>
      </trkpt>
      <trkpt lat="43.38955" lon="1.71954">
        <ele>196</ele>
        <time>2023-05-27T07:14:48Z</time>
      </trkpt>
      <trkpt lat="43.3895" lon="1.7196">
        <ele>196</ele>
        <time>2023-05-27T07:14:49Z</time>
      </trkpt>
      <trkpt lat="43.38947" lon="1.71962">
        <ele>196</ele>
        <time>2023-05-27T07:14:50Z</time>
      </trkpt>
      <trkpt lat="43.38944" lon="1.71965">
        <ele>196</ele>
        <time>2023-05-27T07:14:51Z</time>
      </trkpt>
      <trkpt lat="43.3894" lon="1.71969">
        <ele>196</ele>
        <time>2023-05-27T07:14:52Z</time>
      </trkpt>
      <trkpt lat="43.38936" lon="1.71972">
        <ele>196</ele>
        <time>2023-05-27T07:14:53Z</time>
      </trkpt>
      <trkpt lat="43.38931" lon="1.71975">
        <ele>196</ele>
        <time>2023-05-27T07:14:54Z</time>
      </trkpt>
      <trkpt lat="43.38927" lon="1.71979">
        <ele>196</ele>
        <time>2023-05-27T07:14:55Z</time>
      </trkpt>
      <trkpt lat="43.38922" lon="1.71982">
        <ele>196</ele>
        <time>2023-05-27T07:14:56Z</time>
      </trkpt>
      <trkpt lat="43.38918" lon="1.71986">
        <ele>196</ele>
        <time>2023-05-27T07:14:57Z</time>
      </trkpt>
      <trkpt lat="43.38914" lon="1.71989">
        <ele>196</ele>
        <time>2023-05-27T07:14:58Z</time>
      </trkpt>
      <trkpt lat="43.38909" lon="1.71992">
        <ele>196</ele>
        <time>2023-05-27T07:14:59Z</time>
      </trkpt>
      <trkpt lat="43.38907" lon="1.71994">
        <ele>196</ele>
        <time>2023-05-27T07:15:00Z</time>
      </trkpt>
      <trkpt lat="43.38905" lon="1.71995">
        <ele>196</ele>
        <time>2023-05-27T07:15:01Z</time>
      </trkpt>
      <trkpt lat="43.38898" lon="1.71998">
        <ele>196</ele>
        <time>2023-05-27T07:15:02Z</time>
      </trkpt>
      <trkpt lat="43.38895" lon="1.72">
        <ele>196</ele>
        <time>2023-05-27T07:15:03Z</time>
      </trkpt>
      <trkpt lat="43.38891" lon="1.72001">
        <ele>196</ele>
        <time>2023-05-27T07:15:04Z</time>
      </trkpt>
      <trkpt lat="43.38888" lon="1.72002">
        <ele>196</ele>
        <time>2023-05-27T07:15:05Z</time>
      </trkpt>
      <trkpt lat="43.38885" lon="1.72003">
        <ele>196</ele>
        <time>2023-05-27T07:15:06Z</time>
      </trkpt>
      <trkpt lat="43.38882" lon="1.72003">
        <ele>196</ele>
        <time>2023-05-27T07:15:07Z</time>
      </trkpt>
      <trkpt lat="43.38878" lon="1.72003">
        <ele>196</ele>
        <time>2023-05-27T07:15:08Z</time>
      </trkpt>
      <trkpt lat="43.38875" lon="1.72004">
        <ele>196</ele>
        <time>2023-05-27T07:15:09Z</time>
      </trkpt>
      <trkpt lat="43.38871" lon="1.72005">
        <ele>196</ele>
        <time>2023-05-27T07:15:10Z</time>
      </trkpt>
      <trkpt lat="43.38867" lon="1.72006">
        <ele>196</ele>
        <time>2023-05-27T07:15:11Z</time>
      </trkpt>
      <trkpt lat="43.38863" lon="1.72007">
        <ele>196</ele>
        <time>2023-05-27T07:15:12Z</time>
      </trkpt>
      <trkpt lat="43.3886" lon="1.72008">
        <ele>196</ele>
        <time>2023-05-27T07:15:13Z</time>
      </trkpt>
      <trkpt lat="43.38856" lon="1.7201">
        <ele>196</ele>
        <time>2023-05-27T07:15:14Z</time>
      </trkpt>
      <trkpt lat="43.38854" lon="1.72011">
        <ele>196</ele>
        <time>2023-05-27T07:15:15Z</time>
      </trkpt>
      <trkpt lat="43.3885" lon="1.72012">
        <ele>196</ele>
        <time>2023-05-27T07:15:16Z</time>
      </trkpt>
      <trkpt lat="43.38845" lon="1.72014">
        <ele>196</ele>
        <time>2023-05-27T07:15:17Z</time>
      </trkpt>
      <trkpt lat="43.38841" lon="1.72015">
        <ele>196</ele>
        <time>2023-05-27T07:15:18Z</time>
      </trkpt>
      <trkpt lat="43.38836" lon="1.72016">
        <ele>196</ele>
        <time>2023-05-27T07:15:19Z</time>
      </trkpt>
      <trkpt lat="43.38833" lon="1.72016">
        <ele>196</ele>
        <time>2023-05-27T07:15:20Z</time>
      </trkpt>
      <trkpt lat="43.38829" lon="1.72018">
        <ele>196</ele>
        <time>2023-05-27T07:15:21Z</time>
      </trkpt>
      <trkpt lat="43.38825" lon="1.72019">
        <ele>196</ele>
        <time>2023-05-27T07:15:22Z</time>
      </trkpt>
      <trkpt lat="43.38821" lon="1.7202">
        <ele>196</ele>
        <time>2023-05-27T07:15:23Z</time>
      </trkpt>
      <trkpt lat="43.38817" lon="1.72021">
        <ele>196</ele>
        <time>2023-05-27T07:15:24Z</time>
      </trkpt>
      <trkpt lat="43.38813" lon="1.72023">
        <ele>196.2</ele>
        <time>2023-05-27T07:15:25Z</time>
      </trkpt>
      <trkpt lat="43.38808" lon="1.72024">
        <ele>196.2</ele>
        <time>2023-05-27T07:15:26Z</time>
      </trkpt>
      <trkpt lat="43.38803" lon="1.72024">
        <ele>196.2</ele>
        <time>2023-05-27T07:15:27Z</time>
      </trkpt>
      <trkpt lat="43.38797" lon="1.72025">
        <ele>196</ele>
        <time>2023-05-27T07:15:28Z</time>
      </trkpt>
      <trkpt lat="43.38792" lon="1.72025">
        <ele>196</ele>
        <time>2023-05-27T07:15:29Z</time>
      </trkpt>
      <trkpt lat="43.38787" lon="1.72026">
        <ele>196.2</ele>
        <time>2023-05-27T07:15:30Z</time>
      </trkpt>
      <trkpt lat="43.38782" lon="1.72027">
        <ele>196.2</ele>
        <time>2023-05-27T07:15:31Z</time>
      </trkpt>
      <trkpt lat="43.38778" lon="1.72028">
        <ele>196</ele>
        <time>2023-05-27T07:15:32Z</time>
      </trkpt>
      <trkpt lat="43.38774" lon="1.72028">
        <ele>196</ele>
        <time>2023-05-27T07:15:33Z</time>
      </trkpt>
      <trkpt lat="43.38769" lon="1.7203">
        <ele>196</ele>
        <time>2023-05-27T07:15:34Z</time>
      </trkpt>
      <trkpt lat="43.38765" lon="1.72031">
        <ele>196</ele>
        <time>2023-05-27T07:15:35Z</time>
      </trkpt>
      <trkpt lat="43.38761" lon="1.72032">
        <ele>196</ele>
        <time>2023-05-27T07:15:36Z</time>
      </trkpt>
      <trkpt lat="43.38756" lon="1.72033">
        <ele>196</ele>
        <time>2023-05-27T07:15:37Z</time>
      </trkpt>
      <trkpt lat="43.38751" lon="1.72034">
        <ele>196</ele>
        <time>2023-05-27T07:15:38Z</time>
      </trkpt>
      <trkpt lat="43.38747" lon="1.72035">
        <ele>196</ele>
        <time>2023-05-27T07:15:39Z</time>
      </trkpt>
      <trkpt lat="43.38743" lon="1.72037">
        <ele>196</ele>
        <time>2023-05-27T07:15:40Z</time>
      </trkpt>
      <trkpt lat="43.38738" lon="1.72038">
        <ele>196</ele>
        <time>2023-05-27T07:15:41Z</time>
      </trkpt>
      <trkpt lat="43.38735" lon="1.7204">
        <ele>196</ele>
        <time>2023-05-27T07:15:42Z</time>
      </trkpt>
      <trkpt lat="43.3873" lon="1.72041">
        <ele>196</ele>
        <time>2023-05-27T07:15:43Z</time>
      </trkpt>
      <trkpt lat="43.38725" lon="1.72043">
        <ele>196</ele>
        <time>2023-05-27T07:15:44Z</time>
      </trkpt>
      <trkpt lat="43.38722" lon="1.72045">
        <ele>196</ele>
        <time>2023-05-27T07:15:45Z</time>
      </trkpt>
      <trkpt lat="43.38718" lon="1.72047">
        <ele>196</ele>
        <time>2023-05-27T07:15:46Z</time>
      </trkpt>
      <trkpt lat="43.38714" lon="1.72049">
        <ele>196</ele>
        <time>2023-05-27T07:15:47Z</time>
      </trkpt>
      <trkpt lat="43.38709" lon="1.7205">
        <ele>196</ele>
        <time>2023-05-27T07:15:48Z</time>
      </trkpt>
      <trkpt lat="43.38705" lon="1.72051">
        <ele>196</ele>
        <time>2023-05-27T07:15:49Z</time>
      </trkpt>
      <trkpt lat="43.38701" lon="1.72053">
        <ele>196</ele>
        <time>2023-05-27T07:15:50Z</time>
      </trkpt>
      <trkpt lat="43.38696" lon="1.72055">
        <ele>196.2</ele>
        <time>2023-05-27T07:15:51Z</time>
      </trkpt>
      <trkpt lat="43.38691" lon="1.7206">
        <ele>196.2</ele>
        <time>2023-05-27T07:15:52Z</time>
      </trkpt>
      <trkpt lat="43.38687" lon="1.72065">
        <ele>196.2</ele>
        <time>2023-05-27T07:15:53Z</time>
      </trkpt>
      <trkpt lat="43.38685" lon="1.72069">
        <ele>196.2</ele>
        <time>2023-05-27T07:15:54Z</time>
      </trkpt>
      <trkpt lat="43.38683" lon="1.72073">
        <ele>196.2</ele>
        <time>2023-05-27T07:15:55Z</time>
      </trkpt>
      <trkpt lat="43.38679" lon="1.72076">
        <ele>196.2</ele>
        <time>2023-05-27T07:15:56Z</time>
      </trkpt>
      <trkpt lat="43.38676" lon="1.72079">
        <ele>196.2</ele>
        <time>2023-05-27T07:15:57Z</time>
      </trkpt>
      <trkpt lat="43.38673" lon="1.72081">
        <ele>196.2</ele>
        <time>2023-05-27T07:15:58Z</time>
      </trkpt>
      <trkpt lat="43.38669" lon="1.72084">
        <ele>196.2</ele>
        <time>2023-05-27T07:15:59Z</time>
      </trkpt>
      <trkpt lat="43.38666" lon="1.72088">
        <ele>196.2</ele>
        <time>2023-05-27T07:16:00Z</time>
      </trkpt>
      <trkpt lat="43.38662" lon="1.72094">
        <ele>196.2</ele>
        <time>2023-05-27T07:16:01Z</time>
      </trkpt>
      <trkpt lat="43.3866" lon="1.72098">
        <ele>196</ele>
        <time>2023-05-27T07:16:02Z</time>
      </trkpt>
      <trkpt lat="43.38657" lon="1.72103">
        <ele>196.2</ele>
        <time>2023-05-27T07:16:03Z</time>
      </trkpt>
      <trkpt lat="43.38654" lon="1.72107">
        <ele>196.2</ele>
        <time>2023-05-27T07:16:04Z</time>
      </trkpt>
      <trkpt lat="43.38651" lon="1.72113">
        <ele>196.2</ele>
        <time>2023-05-27T07:16:05Z</time>
      </trkpt>
      <trkpt lat="43.38648" lon="1.72117">
        <ele>196.2</ele>
        <time>2023-05-27T07:16:06Z</time>
      </trkpt>
      <trkpt lat="43.38646" lon="1.72122">
        <ele>196.2</ele>
        <time>2023-05-27T07:16:07Z</time>
      </trkpt>
      <trkpt lat="43.38642" lon="1.72127">
        <ele>196.2</ele>
        <time>2023-05-27T07:16:08Z</time>
      </trkpt>
      <trkpt lat="43.38639" lon="1.72133">
        <ele>196.2</ele>
        <time>2023-05-27T07:16:09Z</time>
      </trkpt>
      <trkpt lat="43.38635" lon="1.72138">
        <ele>196.2</ele>
        <time>2023-05-27T07:16:10Z</time>
      </trkpt>
      <trkpt lat="43.38632" lon="1.72142">
        <ele>196.2</ele>
        <time>2023-05-27T07:16:11Z</time>
      </trkpt>
      <trkpt lat="43.3863" lon="1.72147">
        <ele>196.2</ele>
        <time>2023-05-27T07:16:12Z</time>
      </trkpt>
      <trkpt lat="43.38628" lon="1.72153">
        <ele>196.2</ele>
        <time>2023-05-27T07:16:13Z</time>
      </trkpt>
      <trkpt lat="43.38626" lon="1.72156">
        <ele>196.2</ele>
        <time>2023-05-27T07:16:14Z</time>
      </trkpt>
      <trkpt lat="43.38623" lon="1.7216">
        <ele>196.2</ele>
        <time>2023-05-27T07:16:15Z</time>
      </trkpt>
      <trkpt lat="43.3862" lon="1.72164">
        <ele>196.2</ele>
        <time>2023-05-27T07:16:16Z</time>
      </trkpt>
      <trkpt lat="43.38617" lon="1.72168">
        <ele>196.2</ele>
        <time>2023-05-27T07:16:17Z</time>
      </trkpt>
      <trkpt lat="43.38614" lon="1.72173">
        <ele>196.2</ele>
        <time>2023-05-27T07:16:18Z</time>
      </trkpt>
      <trkpt lat="43.38612" lon="1.72178">
        <ele>196.2</ele>
        <time>2023-05-27T07:16:19Z</time>
      </trkpt>
      <trkpt lat="43.38609" lon="1.72185">
        <ele>196.2</ele>
        <time>2023-05-27T07:16:20Z</time>
      </trkpt>
      <trkpt lat="43.38607" lon="1.72189">
        <ele>196.2</ele>
        <time>2023-05-27T07:16:21Z</time>
      </trkpt>
      <trkpt lat="43.38605" lon="1.72195">
        <ele>196.2</ele>
        <time>2023-05-27T07:16:22Z</time>
      </trkpt>
      <trkpt lat="43.38602" lon="1.72199">
        <ele>196.2</ele>
        <time>2023-05-27T07:16:23Z</time>
      </trkpt>
      <trkpt lat="43.38598" lon="1.72204">
        <ele>196.2</ele>
        <time>2023-05-27T07:16:24Z</time>
      </trkpt>
      <trkpt lat="43.38594" lon="1.72208">
        <ele>196.2</ele>
        <time>2023-05-27T07:16:25Z</time>
      </trkpt>
      <trkpt lat="43.38593" lon="1.72212">
        <ele>196.2</ele>
        <time>2023-05-27T07:16:26Z</time>
      </trkpt>
      <trkpt lat="43.38588" lon="1.72217">
        <ele>196.2</ele>
        <time>2023-05-27T07:16:27Z</time>
      </trkpt>
      <trkpt lat="43.38585" lon="1.72223">
        <ele>196.2</ele>
        <time>2023-05-27T07:16:28Z</time>
      </trkpt>
      <trkpt lat="43.38583" lon="1.72227">
        <ele>196.2</ele>
        <time>2023-05-27T07:16:29Z</time>
      </trkpt>
      <trkpt lat="43.38581" lon="1.72231">
        <ele>196.2</ele>
        <time>2023-05-27T07:16:30Z</time>
      </trkpt>
      <trkpt lat="43.3858" lon="1.72236">
        <ele>196.2</ele>
        <time>2023-05-27T07:16:31Z</time>
      </trkpt>
      <trkpt lat="43.38576" lon="1.72241">
        <ele>196.2</ele>
        <time>2023-05-27T07:16:32Z</time>
      </trkpt>
      <trkpt lat="43.38572" lon="1.72247">
        <ele>196</ele>
        <time>2023-05-27T07:16:33Z</time>
      </trkpt>
      <trkpt lat="43.38569" lon="1.72253">
        <ele>196</ele>
        <time>2023-05-27T07:16:34Z</time>
      </trkpt>
      <trkpt lat="43.38566" lon="1.72257">
        <ele>196</ele>
        <time>2023-05-27T07:16:35Z</time>
      </trkpt>
      <trkpt lat="43.38564" lon="1.72262">
        <ele>196</ele>
        <time>2023-05-27T07:16:36Z</time>
      </trkpt>
      <trkpt lat="43.38561" lon="1.72267">
        <ele>196</ele>
        <time>2023-05-27T07:16:37Z</time>
      </trkpt>
      <trkpt lat="43.38558" lon="1.72272">
        <ele>196</ele>
        <time>2023-05-27T07:16:38Z</time>
      </trkpt>
      <trkpt lat="43.38555" lon="1.72279">
        <ele>196</ele>
        <time>2023-05-27T07:16:39Z</time>
      </trkpt>
      <trkpt lat="43.38552" lon="1.72284">
        <ele>196</ele>
        <time>2023-05-27T07:16:40Z</time>
      </trkpt>
      <trkpt lat="43.38549" lon="1.72289">
        <ele>196</ele>
        <time>2023-05-27T07:16:41Z</time>
      </trkpt>
      <trkpt lat="43.38546" lon="1.72293">
        <ele>196</ele>
        <time>2023-05-27T07:16:42Z</time>
      </trkpt>
      <trkpt lat="43.38545" lon="1.72297">
        <ele>196</ele>
        <time>2023-05-27T07:16:43Z</time>
      </trkpt>
      <trkpt lat="43.38543" lon="1.72301">
        <ele>196</ele>
        <time>2023-05-27T07:16:44Z</time>
      </trkpt>
      <trkpt lat="43.38542" lon="1.72304">
        <ele>196</ele>
        <time>2023-05-27T07:16:45Z</time>
      </trkpt>
      <trkpt lat="43.3854" lon="1.72308">
        <ele>196</ele>
        <time>2023-05-27T07:16:46Z</time>
      </trkpt>
      <trkpt lat="43.38539" lon="1.72311">
        <ele>196</ele>
        <time>2023-05-27T07:16:47Z</time>
      </trkpt>
      <trkpt lat="43.38537" lon="1.72314">
        <ele>196</ele>
        <time>2023-05-27T07:16:48Z</time>
      </trkpt>
      <trkpt lat="43.38535" lon="1.72318">
        <ele>196</ele>
        <time>2023-05-27T07:16:49Z</time>
      </trkpt>
      <trkpt lat="43.38533" lon="1.72322">
        <ele>196</ele>
        <time>2023-05-27T07:16:50Z</time>
      </trkpt>
      <trkpt lat="43.3853" lon="1.72326">
        <ele>196</ele>
        <time>2023-05-27T07:16:51Z</time>
      </trkpt>
      <trkpt lat="43.38528" lon="1.7233">
        <ele>196</ele>
        <time>2023-05-27T07:16:52Z</time>
      </trkpt>
      <trkpt lat="43.38525" lon="1.72334">
        <ele>196</ele>
        <time>2023-05-27T07:16:53Z</time>
      </trkpt>
      <trkpt lat="43.38522" lon="1.72339">
        <ele>196</ele>
        <time>2023-05-27T07:16:54Z</time>
      </trkpt>
      <trkpt lat="43.38518" lon="1.72344">
        <ele>196</ele>
        <time>2023-05-27T07:16:55Z</time>
      </trkpt>
      <trkpt lat="43.38515" lon="1.72349">
        <ele>196</ele>
        <time>2023-05-27T07:16:56Z</time>
      </trkpt>
      <trkpt lat="43.38512" lon="1.72354">
        <ele>196</ele>
        <time>2023-05-27T07:16:57Z</time>
      </trkpt>
      <trkpt lat="43.38508" lon="1.72358">
        <ele>196</ele>
        <time>2023-05-27T07:16:58Z</time>
      </trkpt>
      <trkpt lat="43.38505" lon="1.72362">
        <ele>196</ele>
        <time>2023-05-27T07:16:59Z</time>
      </trkpt>
      <trkpt lat="43.38503" lon="1.72365">
        <ele>196</ele>
        <time>2023-05-27T07:17:00Z</time>
      </trkpt>
      <trkpt lat="43.38501" lon="1.72368">
        <ele>196</ele>
        <time>2023-05-27T07:17:01Z</time>
      </trkpt>
      <trkpt lat="43.38498" lon="1.72372">
        <ele>195.8</ele>
        <time>2023-05-27T07:17:02Z</time>
      </trkpt>
      <trkpt lat="43.38495" lon="1.72376">
        <ele>196</ele>
        <time>2023-05-27T07:17:03Z</time>
      </trkpt>
      <trkpt lat="43.38492" lon="1.7238">
        <ele>196</ele>
        <time>2023-05-27T07:17:04Z</time>
      </trkpt>
      <trkpt lat="43.38491" lon="1.72384">
        <ele>196</ele>
        <time>2023-05-27T07:17:05Z</time>
      </trkpt>
      <trkpt lat="43.38489" lon="1.72389">
        <ele>196</ele>
        <time>2023-05-27T07:17:06Z</time>
      </trkpt>
      <trkpt lat="43.38487" lon="1.72394">
        <ele>196</ele>
        <time>2023-05-27T07:17:07Z</time>
      </trkpt>
      <trkpt lat="43.38484" lon="1.72401">
        <ele>196</ele>
        <time>2023-05-27T07:17:08Z</time>
      </trkpt>
      <trkpt lat="43.38482" lon="1.72406">
        <ele>196</ele>
        <time>2023-05-27T07:17:09Z</time>
      </trkpt>
      <trkpt lat="43.38477" lon="1.72413">
        <ele>196</ele>
        <time>2023-05-27T07:17:10Z</time>
      </trkpt>
      <trkpt lat="43.38472" lon="1.72421">
        <ele>196</ele>
        <time>2023-05-27T07:17:11Z</time>
      </trkpt>
      <trkpt lat="43.38468" lon="1.72428">
        <ele>196</ele>
        <time>2023-05-27T07:17:12Z</time>
      </trkpt>
      <trkpt lat="43.38464" lon="1.72434">
        <ele>196</ele>
        <time>2023-05-27T07:17:13Z</time>
      </trkpt>
      <trkpt lat="43.38461" lon="1.72442">
        <ele>196</ele>
        <time>2023-05-27T07:17:14Z</time>
      </trkpt>
      <trkpt lat="43.38459" lon="1.7245">
        <ele>196</ele>
        <time>2023-05-27T07:17:15Z</time>
      </trkpt>
      <trkpt lat="43.38458" lon="1.72457">
        <ele>196</ele>
        <time>2023-05-27T07:17:16Z</time>
      </trkpt>
      <trkpt lat="43.38455" lon="1.72462">
        <ele>196</ele>
        <time>2023-05-27T07:17:17Z</time>
      </trkpt>
      <trkpt lat="43.38453" lon="1.72467">
        <ele>196</ele>
        <time>2023-05-27T07:17:18Z</time>
      </trkpt>
      <trkpt lat="43.38451" lon="1.72472">
        <ele>196</ele>
        <time>2023-05-27T07:17:19Z</time>
      </trkpt>
      <trkpt lat="43.38449" lon="1.72478">
        <ele>196</ele>
        <time>2023-05-27T07:17:20Z</time>
      </trkpt>
      <trkpt lat="43.38447" lon="1.72483">
        <ele>196</ele>
        <time>2023-05-27T07:17:21Z</time>
      </trkpt>
      <trkpt lat="43.38445" lon="1.72488">
        <ele>196</ele>
        <time>2023-05-27T07:17:22Z</time>
      </trkpt>
      <trkpt lat="43.38442" lon="1.72493">
        <ele>196</ele>
        <time>2023-05-27T07:17:23Z</time>
      </trkpt>
      <trkpt lat="43.3844" lon="1.72498">
        <ele>196</ele>
        <time>2023-05-27T07:17:24Z</time>
      </trkpt>
      <trkpt lat="43.38438" lon="1.72504">
        <ele>196</ele>
        <time>2023-05-27T07:17:25Z</time>
      </trkpt>
      <trkpt lat="43.38435" lon="1.72509">
        <ele>196</ele>
        <time>2023-05-27T07:17:26Z</time>
      </trkpt>
      <trkpt lat="43.38433" lon="1.72515">
        <ele>196</ele>
        <time>2023-05-27T07:17:27Z</time>
      </trkpt>
      <trkpt lat="43.3843" lon="1.7252">
        <ele>196</ele>
        <time>2023-05-27T07:17:28Z</time>
      </trkpt>
      <trkpt lat="43.38428" lon="1.72526">
        <ele>196</ele>
        <time>2023-05-27T07:17:29Z</time>
      </trkpt>
      <trkpt lat="43.38427" lon="1.7253">
        <ele>196</ele>
        <time>2023-05-27T07:17:30Z</time>
      </trkpt>
      <trkpt lat="43.38424" lon="1.72534">
        <ele>196</ele>
        <time>2023-05-27T07:17:31Z</time>
      </trkpt>
      <trkpt lat="43.38422" lon="1.72539">
        <ele>196</ele>
        <time>2023-05-27T07:17:32Z</time>
      </trkpt>
      <trkpt lat="43.3842" lon="1.72543">
        <ele>196</ele>
        <time>2023-05-27T07:17:33Z</time>
      </trkpt>
      <trkpt lat="43.38418" lon="1.72547">
        <ele>196</ele>
        <time>2023-05-27T07:17:34Z</time>
      </trkpt>
      <trkpt lat="43.38416" lon="1.7255">
        <ele>196</ele>
        <time>2023-05-27T07:17:35Z</time>
      </trkpt>
      <trkpt lat="43.38415" lon="1.72554">
        <ele>196</ele>
        <time>2023-05-27T07:17:36Z</time>
      </trkpt>
      <trkpt lat="43.38414" lon="1.72558">
        <ele>196</ele>
        <time>2023-05-27T07:17:37Z</time>
      </trkpt>
      <trkpt lat="43.38413" lon="1.72562">
        <ele>196</ele>
        <time>2023-05-27T07:17:38Z</time>
      </trkpt>
      <trkpt lat="43.38411" lon="1.72565">
        <ele>196</ele>
        <time>2023-05-27T07:17:39Z</time>
      </trkpt>
      <trkpt lat="43.3841" lon="1.72569">
        <ele>196</ele>
        <time>2023-05-27T07:17:40Z</time>
      </trkpt>
      <trkpt lat="43.38408" lon="1.72574">
        <ele>196</ele>
        <time>2023-05-27T07:17:41Z</time>
      </trkpt>
      <trkpt lat="43.38406" lon="1.72578">
        <ele>196</ele>
        <time>2023-05-27T07:17:42Z</time>
      </trkpt>
      <trkpt lat="43.38405" lon="1.72582">
        <ele>196</ele>
        <time>2023-05-27T07:17:43Z</time>
      </trkpt>
      <trkpt lat="43.38404" lon="1.72587">
        <ele>196.2</ele>
        <time>2023-05-27T07:17:44Z</time>
      </trkpt>
      <trkpt lat="43.38401" lon="1.72591">
        <ele>196.2</ele>
        <time>2023-05-27T07:17:45Z</time>
      </trkpt>
      <trkpt lat="43.38399" lon="1.72597">
        <ele>196.2</ele>
        <time>2023-05-27T07:17:46Z</time>
      </trkpt>
      <trkpt lat="43.38397" lon="1.72601">
        <ele>196.2</ele>
        <time>2023-05-27T07:17:47Z</time>
      </trkpt>
      <trkpt lat="43.38395" lon="1.72604">
        <ele>196.2</ele>
        <time>2023-05-27T07:17:48Z</time>
      </trkpt>
      <trkpt lat="43.38394" lon="1.72607">
        <ele>196.2</ele>
        <time>2023-05-27T07:17:49Z</time>
      </trkpt>
      <trkpt lat="43.38392" lon="1.72612">
        <ele>196.2</ele>
        <time>2023-05-27T07:17:50Z</time>
      </trkpt>
      <trkpt lat="43.38389" lon="1.72618">
        <ele>196.2</ele>
        <time>2023-05-27T07:17:51Z</time>
      </trkpt>
      <trkpt lat="43.38386" lon="1.72624">
        <ele>196.2</ele>
        <time>2023-05-27T07:17:52Z</time>
      </trkpt>
      <trkpt lat="43.38384" lon="1.7263">
        <ele>196.2</ele>
        <time>2023-05-27T07:17:53Z</time>
      </trkpt>
      <trkpt lat="43.38382" lon="1.72637">
        <ele>196.2</ele>
        <time>2023-05-27T07:17:54Z</time>
      </trkpt>
      <trkpt lat="43.38379" lon="1.72645">
        <ele>196.2</ele>
        <time>2023-05-27T07:17:55Z</time>
      </trkpt>
      <trkpt lat="43.38376" lon="1.72652">
        <ele>196.2</ele>
        <time>2023-05-27T07:17:56Z</time>
      </trkpt>
      <trkpt lat="43.38374" lon="1.72657">
        <ele>196.2</ele>
        <time>2023-05-27T07:17:57Z</time>
      </trkpt>
      <trkpt lat="43.38371" lon="1.72663">
        <ele>196.2</ele>
        <time>2023-05-27T07:17:58Z</time>
      </trkpt>
      <trkpt lat="43.38369" lon="1.72667">
        <ele>196.2</ele>
        <time>2023-05-27T07:17:59Z</time>
      </trkpt>
      <trkpt lat="43.38367" lon="1.72672">
        <ele>196.2</ele>
        <time>2023-05-27T07:18:00Z</time>
      </trkpt>
      <trkpt lat="43.38366" lon="1.72676">
        <ele>196.2</ele>
        <time>2023-05-27T07:18:01Z</time>
      </trkpt>
      <trkpt lat="43.38364" lon="1.7268">
        <ele>196.2</ele>
        <time>2023-05-27T07:18:02Z</time>
      </trkpt>
      <trkpt lat="43.3836" lon="1.72688">
        <ele>196.4</ele>
        <time>2023-05-27T07:18:03Z</time>
      </trkpt>
      <trkpt lat="43.38357" lon="1.72694">
        <ele>196.4</ele>
        <time>2023-05-27T07:18:04Z</time>
      </trkpt>
      <trkpt lat="43.38354" lon="1.727">
        <ele>196.4</ele>
        <time>2023-05-27T07:18:05Z</time>
      </trkpt>
      <trkpt lat="43.38352" lon="1.72705">
        <ele>196.4</ele>
        <time>2023-05-27T07:18:06Z</time>
      </trkpt>
      <trkpt lat="43.38351" lon="1.72708">
        <ele>196.6</ele>
        <time>2023-05-27T07:18:07Z</time>
      </trkpt>
      <trkpt lat="43.38349" lon="1.72711">
        <ele>196.6</ele>
        <time>2023-05-27T07:18:08Z</time>
      </trkpt>
      <trkpt lat="43.38347" lon="1.72715">
        <ele>196.6</ele>
        <time>2023-05-27T07:18:09Z</time>
      </trkpt>
      <trkpt lat="43.38346" lon="1.72718">
        <ele>196.6</ele>
        <time>2023-05-27T07:18:10Z</time>
      </trkpt>
      <trkpt lat="43.38346" lon="1.72722">
        <ele>196.8</ele>
        <time>2023-05-27T07:18:11Z</time>
      </trkpt>
      <trkpt lat="43.38344" lon="1.72726">
        <ele>196.8</ele>
        <time>2023-05-27T07:18:12Z</time>
      </trkpt>
      <trkpt lat="43.38342" lon="1.7273">
        <ele>196.8</ele>
        <time>2023-05-27T07:18:13Z</time>
      </trkpt>
      <trkpt lat="43.38341" lon="1.72734">
        <ele>196.8</ele>
        <time>2023-05-27T07:18:14Z</time>
      </trkpt>
      <trkpt lat="43.38339" lon="1.72738">
        <ele>197</ele>
        <time>2023-05-27T07:18:15Z</time>
      </trkpt>
      <trkpt lat="43.38337" lon="1.72742">
        <ele>197</ele>
        <time>2023-05-27T07:18:16Z</time>
      </trkpt>
      <trkpt lat="43.38335" lon="1.72746">
        <ele>197</ele>
        <time>2023-05-27T07:18:17Z</time>
      </trkpt>
      <trkpt lat="43.38333" lon="1.72749">
        <ele>197.2</ele>
        <time>2023-05-27T07:18:18Z</time>
      </trkpt>
      <trkpt lat="43.38331" lon="1.72752">
        <ele>197.2</ele>
        <time>2023-05-27T07:18:19Z</time>
      </trkpt>
      <trkpt lat="43.38329" lon="1.72754">
        <ele>197.4</ele>
        <time>2023-05-27T07:18:20Z</time>
      </trkpt>
      <trkpt lat="43.38326" lon="1.72756">
        <ele>197.6</ele>
        <time>2023-05-27T07:18:21Z</time>
      </trkpt>
      <trkpt lat="43.38325" lon="1.72758">
        <ele>197.8</ele>
        <time>2023-05-27T07:18:22Z</time>
      </trkpt>
      <trkpt lat="43.38323" lon="1.7276">
        <ele>197.8</ele>
        <time>2023-05-27T07:18:23Z</time>
      </trkpt>
      <trkpt lat="43.38321" lon="1.72761">
        <ele>198</ele>
        <time>2023-05-27T07:18:24Z</time>
      </trkpt>
      <trkpt lat="43.38319" lon="1.72764">
        <ele>198</ele>
        <time>2023-05-27T07:18:25Z</time>
      </trkpt>
      <trkpt lat="43.38316" lon="1.72766">
        <ele>198</ele>
        <time>2023-05-27T07:18:26Z</time>
      </trkpt>
      <trkpt lat="43.38315" lon="1.72769">
        <ele>198</ele>
        <time>2023-05-27T07:18:27Z</time>
      </trkpt>
      <trkpt lat="43.38313" lon="1.72771">
        <ele>198</ele>
        <time>2023-05-27T07:18:28Z</time>
      </trkpt>
      <trkpt lat="43.38311" lon="1.72774">
        <ele>198</ele>
        <time>2023-05-27T07:18:29Z</time>
      </trkpt>
      <trkpt lat="43.38309" lon="1.72777">
        <ele>198</ele>
        <time>2023-05-27T07:18:30Z</time>
      </trkpt>
      <trkpt lat="43.38308" lon="1.7278">
        <ele>198</ele>
        <time>2023-05-27T07:18:31Z</time>
      </trkpt>
      <trkpt lat="43.38307" lon="1.72781">
        <ele>198</ele>
        <time>2023-05-27T07:18:32Z</time>
      </trkpt>
      <trkpt lat="43.38307" lon="1.72782">
        <ele>198</ele>
        <time>2023-05-27T07:18:33Z</time>
      </trkpt>
      <trkpt lat="43.38302" lon="1.72786">
        <ele>197.8</ele>
        <time>2023-05-27T07:29:55Z</time>
      </trkpt>
      <trkpt lat="43.38301" lon="1.72787">
        <ele>197.8</ele>
        <time>2023-05-27T07:29:56Z</time>
      </trkpt>
      <trkpt lat="43.38299" lon="1.7279">
        <ele>197.8</ele>
        <time>2023-05-27T07:29:57Z</time>
      </trkpt>
      <trkpt lat="43.38298" lon="1.72793">
        <ele>197.8</ele>
        <time>2023-05-27T07:29:58Z</time>
      </trkpt>
      <trkpt lat="43.38296" lon="1.72795">
        <ele>197.8</ele>
        <time>2023-05-27T07:29:59Z</time>
      </trkpt>
      <trkpt lat="43.38294" lon="1.72798">
        <ele>197.8</ele>
        <time>2023-05-27T07:30:00Z</time>
      </trkpt>
      <trkpt lat="43.38291" lon="1.72801">
        <ele>198</ele>
        <time>2023-05-27T07:30:01Z</time>
      </trkpt>
      <trkpt lat="43.38289" lon="1.72804">
        <ele>198</ele>
        <time>2023-05-27T07:30:02Z</time>
      </trkpt>
      <trkpt lat="43.38287" lon="1.72807">
        <ele>198</ele>
        <time>2023-05-27T07:30:03Z</time>
      </trkpt>
      <trkpt lat="43.38286" lon="1.72809">
        <ele>198</ele>
        <time>2023-05-27T07:30:04Z</time>
      </trkpt>
      <trkpt lat="43.38284" lon="1.72813">
        <ele>198.2</ele>
        <time>2023-05-27T07:30:05Z</time>
      </trkpt>
      <trkpt lat="43.38282" lon="1.72818">
        <ele>198.2</ele>
        <time>2023-05-27T07:30:06Z</time>
      </trkpt>
      <trkpt lat="43.38281" lon="1.72823">
        <ele>198.2</ele>
        <time>2023-05-27T07:30:07Z</time>
      </trkpt>
      <trkpt lat="43.3828" lon="1.72828">
        <ele>198.4</ele>
        <time>2023-05-27T07:30:08Z</time>
      </trkpt>
      <trkpt lat="43.38279" lon="1.72832">
        <ele>198.4</ele>
        <time>2023-05-27T07:30:09Z</time>
      </trkpt>
      <trkpt lat="43.38278" lon="1.72836">
        <ele>198.6</ele>
        <time>2023-05-27T07:30:10Z</time>
      </trkpt>
      <trkpt lat="43.38277" lon="1.72839">
        <ele>198.8</ele>
        <time>2023-05-27T07:30:11Z</time>
      </trkpt>
      <trkpt lat="43.38275" lon="1.72842">
        <ele>199</ele>
        <time>2023-05-27T07:30:12Z</time>
      </trkpt>
      <trkpt lat="43.38273" lon="1.72844">
        <ele>199.2</ele>
        <time>2023-05-27T07:30:13Z</time>
      </trkpt>
      <trkpt lat="43.38271" lon="1.72848">
        <ele>199.4</ele>
        <time>2023-05-27T07:30:14Z</time>
      </trkpt>
      <trkpt lat="43.38269" lon="1.72851">
        <ele>199.4</ele>
        <time>2023-05-27T07:30:15Z</time>
      </trkpt>
      <trkpt lat="43.38266" lon="1.72854">
        <ele>199.6</ele>
        <time>2023-05-27T07:30:16Z</time>
      </trkpt>
      <trkpt lat="43.38264" lon="1.72858">
        <ele>199.6</ele>
        <time>2023-05-27T07:30:17Z</time>
      </trkpt>
      <trkpt lat="43.38262" lon="1.72862">
        <ele>199.6</ele>
        <time>2023-05-27T07:30:18Z</time>
      </trkpt>
      <trkpt lat="43.38259" lon="1.72867">
        <ele>199.8</ele>
        <time>2023-05-27T07:30:19Z</time>
      </trkpt>
      <trkpt lat="43.38257" lon="1.72871">
        <ele>199.8</ele>
        <time>2023-05-27T07:30:20Z</time>
      </trkpt>
      <trkpt lat="43.38255" lon="1.72875">
        <ele>199.8</ele>
        <time>2023-05-27T07:30:21Z</time>
      </trkpt>
      <trkpt lat="43.38253" lon="1.72878">
        <ele>200</ele>
        <time>2023-05-27T07:30:22Z</time>
      </trkpt>
      <trkpt lat="43.3825" lon="1.72883">
        <ele>200</ele>
        <time>2023-05-27T07:30:23Z</time>
      </trkpt>
      <trkpt lat="43.38247" lon="1.72886">
        <ele>200</ele>
        <time>2023-05-27T07:30:24Z</time>
      </trkpt>
      <trkpt lat="43.38245" lon="1.72891">
        <ele>200</ele>
        <time>2023-05-27T07:30:25Z</time>
      </trkpt>
      <trkpt lat="43.38243" lon="1.72896">
        <ele>200.2</ele>
        <time>2023-05-27T07:30:26Z</time>
      </trkpt>
      <trkpt lat="43.3824" lon="1.72901">
        <ele>200.2</ele>
        <time>2023-05-27T07:30:27Z</time>
      </trkpt>
      <trkpt lat="43.38237" lon="1.72906">
        <ele>200.2</ele>
        <time>2023-05-27T07:30:28Z</time>
      </trkpt>
      <trkpt lat="43.38234" lon="1.72911">
        <ele>200.2</ele>
        <time>2023-05-27T07:30:29Z</time>
      </trkpt>
      <trkpt lat="43.38231" lon="1.72918">
        <ele>200.2</ele>
        <time>2023-05-27T07:30:30Z</time>
      </trkpt>
      <trkpt lat="43.38228" lon="1.72924">
        <ele>200.2</ele>
        <time>2023-05-27T07:30:31Z</time>
      </trkpt>
      <trkpt lat="43.38226" lon="1.72929">
        <ele>200.2</ele>
        <time>2023-05-27T07:30:32Z</time>
      </trkpt>
      <trkpt lat="43.38224" lon="1.72936">
        <ele>200.2</ele>
        <time>2023-05-27T07:30:33Z</time>
      </trkpt>
      <trkpt lat="43.38222" lon="1.72942">
        <ele>200.2</ele>
        <time>2023-05-27T07:30:34Z</time>
      </trkpt>
      <trkpt lat="43.3822" lon="1.72948">
        <ele>200.2</ele>
        <time>2023-05-27T07:30:35Z</time>
      </trkpt>
      <trkpt lat="43.38217" lon="1.72953">
        <ele>200</ele>
        <time>2023-05-27T07:30:36Z</time>
      </trkpt>
      <trkpt lat="43.38214" lon="1.72959">
        <ele>200</ele>
        <time>2023-05-27T07:30:37Z</time>
      </trkpt>
      <trkpt lat="43.38212" lon="1.72964">
        <ele>200</ele>
        <time>2023-05-27T07:30:38Z</time>
      </trkpt>
      <trkpt lat="43.3821" lon="1.72969">
        <ele>200</ele>
        <time>2023-05-27T07:30:39Z</time>
      </trkpt>
      <trkpt lat="43.38208" lon="1.72973">
        <ele>200</ele>
        <time>2023-05-27T07:30:40Z</time>
      </trkpt>
      <trkpt lat="43.38205" lon="1.72978">
        <ele>200</ele>
        <time>2023-05-27T07:30:41Z</time>
      </trkpt>
      <trkpt lat="43.38202" lon="1.72982">
        <ele>200.2</ele>
        <time>2023-05-27T07:30:42Z</time>
      </trkpt>
      <trkpt lat="43.382" lon="1.72986">
        <ele>200.2</ele>
        <time>2023-05-27T07:30:43Z</time>
      </trkpt>
      <trkpt lat="43.38198" lon="1.7299">
        <ele>200.2</ele>
        <time>2023-05-27T07:30:44Z</time>
      </trkpt>
      <trkpt lat="43.38195" lon="1.72995">
        <ele>200.2</ele>
        <time>2023-05-27T07:30:45Z</time>
      </trkpt>
      <trkpt lat="43.38193" lon="1.72999">
        <ele>200.2</ele>
        <time>2023-05-27T07:30:46Z</time>
      </trkpt>
      <trkpt lat="43.38191" lon="1.73003">
        <ele>200.4</ele>
        <time>2023-05-27T07:30:47Z</time>
      </trkpt>
      <trkpt lat="43.38189" lon="1.73007">
        <ele>200.4</ele>
        <time>2023-05-27T07:30:48Z</time>
      </trkpt>
      <trkpt lat="43.38186" lon="1.73012">
        <ele>200.4</ele>
        <time>2023-05-27T07:30:49Z</time>
      </trkpt>
      <trkpt lat="43.38183" lon="1.73018">
        <ele>200.4</ele>
        <time>2023-05-27T07:30:50Z</time>
      </trkpt>
      <trkpt lat="43.38181" lon="1.73023">
        <ele>200.4</ele>
        <time>2023-05-27T07:30:51Z</time>
      </trkpt>
      <trkpt lat="43.38178" lon="1.73029">
        <ele>200.6</ele>
        <time>2023-05-27T07:30:52Z</time>
      </trkpt>
      <trkpt lat="43.38175" lon="1.73036">
        <ele>200.6</ele>
        <time>2023-05-27T07:30:53Z</time>
      </trkpt>
      <trkpt lat="43.38173" lon="1.73041">
        <ele>200.6</ele>
        <time>2023-05-27T07:30:54Z</time>
      </trkpt>
      <trkpt lat="43.38171" lon="1.73048">
        <ele>200.6</ele>
        <time>2023-05-27T07:30:55Z</time>
      </trkpt>
      <trkpt lat="43.38169" lon="1.73055">
        <ele>200.6</ele>
        <time>2023-05-27T07:30:56Z</time>
      </trkpt>
      <trkpt lat="43.38167" lon="1.73061">
        <ele>200.4</ele>
        <time>2023-05-27T07:30:57Z</time>
      </trkpt>
      <trkpt lat="43.38164" lon="1.73068">
        <ele>200.4</ele>
        <time>2023-05-27T07:30:58Z</time>
      </trkpt>
      <trkpt lat="43.38161" lon="1.73076">
        <ele>200.4</ele>
        <time>2023-05-27T07:30:59Z</time>
      </trkpt>
      <trkpt lat="43.38158" lon="1.73082">
        <ele>200.4</ele>
        <time>2023-05-27T07:31:00Z</time>
      </trkpt>
      <trkpt lat="43.38156" lon="1.73089">
        <ele>200.4</ele>
        <time>2023-05-27T07:31:01Z</time>
      </trkpt>
      <trkpt lat="43.38153" lon="1.73097">
        <ele>200.4</ele>
        <time>2023-05-27T07:31:02Z</time>
      </trkpt>
      <trkpt lat="43.38151" lon="1.73103">
        <ele>200.4</ele>
        <time>2023-05-27T07:31:03Z</time>
      </trkpt>
      <trkpt lat="43.38149" lon="1.7311">
        <ele>200.2</ele>
        <time>2023-05-27T07:31:04Z</time>
      </trkpt>
      <trkpt lat="43.38146" lon="1.73117">
        <ele>200</ele>
        <time>2023-05-27T07:31:05Z</time>
      </trkpt>
      <trkpt lat="43.38144" lon="1.73124">
        <ele>200</ele>
        <time>2023-05-27T07:31:06Z</time>
      </trkpt>
      <trkpt lat="43.38141" lon="1.73133">
        <ele>199.8</ele>
        <time>2023-05-27T07:31:07Z</time>
      </trkpt>
      <trkpt lat="43.38138" lon="1.73141">
        <ele>199.6</ele>
        <time>2023-05-27T07:31:08Z</time>
      </trkpt>
      <trkpt lat="43.38136" lon="1.7315">
        <ele>199.6</ele>
        <time>2023-05-27T07:31:09Z</time>
      </trkpt>
      <trkpt lat="43.38134" lon="1.73156">
        <ele>199.6</ele>
        <time>2023-05-27T07:31:10Z</time>
      </trkpt>
      <trkpt lat="43.38132" lon="1.73163">
        <ele>199.6</ele>
        <time>2023-05-27T07:31:11Z</time>
      </trkpt>
      <trkpt lat="43.38129" lon="1.7317">
        <ele>199.6</ele>
        <time>2023-05-27T07:31:12Z</time>
      </trkpt>
      <trkpt lat="43.38126" lon="1.73176">
        <ele>199.6</ele>
        <time>2023-05-27T07:31:13Z</time>
      </trkpt>
      <trkpt lat="43.38124" lon="1.73182">
        <ele>199.6</ele>
        <time>2023-05-27T07:31:14Z</time>
      </trkpt>
      <trkpt lat="43.38122" lon="1.73189">
        <ele>199.6</ele>
        <time>2023-05-27T07:31:15Z</time>
      </trkpt>
      <trkpt lat="43.3812" lon="1.73196">
        <ele>199.6</ele>
        <time>2023-05-27T07:31:16Z</time>
      </trkpt>
      <trkpt lat="43.38118" lon="1.73202">
        <ele>199.6</ele>
        <time>2023-05-27T07:31:17Z</time>
      </trkpt>
      <trkpt lat="43.38117" lon="1.73209">
        <ele>199.4</ele>
        <time>2023-05-27T07:31:18Z</time>
      </trkpt>
      <trkpt lat="43.38115" lon="1.73216">
        <ele>199.4</ele>
        <time>2023-05-27T07:31:19Z</time>
      </trkpt>
      <trkpt lat="43.38113" lon="1.73223">
        <ele>199.4</ele>
        <time>2023-05-27T07:31:20Z</time>
      </trkpt>
      <trkpt lat="43.38112" lon="1.7323">
        <ele>199.4</ele>
        <time>2023-05-27T07:31:21Z</time>
      </trkpt>
      <trkpt lat="43.3811" lon="1.73237">
        <ele>199.4</ele>
        <time>2023-05-27T07:31:22Z</time>
      </trkpt>
      <trkpt lat="43.38109" lon="1.73243">
        <ele>199.4</ele>
        <time>2023-05-27T07:31:23Z</time>
      </trkpt>
      <trkpt lat="43.38107" lon="1.7325">
        <ele>199.4</ele>
        <time>2023-05-27T07:31:24Z</time>
      </trkpt>
      <trkpt lat="43.38106" lon="1.73257">
        <ele>199.4</ele>
        <time>2023-05-27T07:31:25Z</time>
      </trkpt>
      <trkpt lat="43.38105" lon="1.73264">
        <ele>199.4</ele>
        <time>2023-05-27T07:31:26Z</time>
      </trkpt>
      <trkpt lat="43.38103" lon="1.73272">
        <ele>199.4</ele>
        <time>2023-05-27T07:31:27Z</time>
      </trkpt>
      <trkpt lat="43.38102" lon="1.73279">
        <ele>199.4</ele>
        <time>2023-05-27T07:31:28Z</time>
      </trkpt>
      <trkpt lat="43.38101" lon="1.73285">
        <ele>199.4</ele>
        <time>2023-05-27T07:31:29Z</time>
      </trkpt>
      <trkpt lat="43.381" lon="1.73291">
        <ele>199.4</ele>
        <time>2023-05-27T07:31:30Z</time>
      </trkpt>
      <trkpt lat="43.38099" lon="1.73298">
        <ele>199.4</ele>
        <time>2023-05-27T07:31:31Z</time>
      </trkpt>
      <trkpt lat="43.38097" lon="1.73303">
        <ele>199.4</ele>
        <time>2023-05-27T07:31:32Z</time>
      </trkpt>
      <trkpt lat="43.38096" lon="1.73311">
        <ele>199.4</ele>
        <time>2023-05-27T07:31:33Z</time>
      </trkpt>
      <trkpt lat="43.38095" lon="1.73318">
        <ele>199.4</ele>
        <time>2023-05-27T07:31:34Z</time>
      </trkpt>
      <trkpt lat="43.38094" lon="1.73324">
        <ele>199.4</ele>
        <time>2023-05-27T07:31:35Z</time>
      </trkpt>
      <trkpt lat="43.38093" lon="1.73331">
        <ele>199.4</ele>
        <time>2023-05-27T07:31:36Z</time>
      </trkpt>
      <trkpt lat="43.38092" lon="1.73337">
        <ele>199.4</ele>
        <time>2023-05-27T07:31:37Z</time>
      </trkpt>
      <trkpt lat="43.38091" lon="1.73342">
        <ele>199.6</ele>
        <time>2023-05-27T07:31:38Z</time>
      </trkpt>
      <trkpt lat="43.38089" lon="1.73348">
        <ele>199.6</ele>
        <time>2023-05-27T07:31:39Z</time>
      </trkpt>
      <trkpt lat="43.38088" lon="1.73353">
        <ele>199.6</ele>
        <time>2023-05-27T07:31:40Z</time>
      </trkpt>
      <trkpt lat="43.38086" lon="1.73359">
        <ele>199.6</ele>
        <time>2023-05-27T07:31:41Z</time>
      </trkpt>
      <trkpt lat="43.38084" lon="1.73366">
        <ele>199.6</ele>
        <time>2023-05-27T07:31:42Z</time>
      </trkpt>
      <trkpt lat="43.38083" lon="1.73373">
        <ele>199.6</ele>
        <time>2023-05-27T07:31:43Z</time>
      </trkpt>
      <trkpt lat="43.38081" lon="1.73379">
        <ele>199.6</ele>
        <time>2023-05-27T07:31:44Z</time>
      </trkpt>
      <trkpt lat="43.38079" lon="1.73385">
        <ele>199.6</ele>
        <time>2023-05-27T07:31:45Z</time>
      </trkpt>
      <trkpt lat="43.38078" lon="1.73391">
        <ele>199.6</ele>
        <time>2023-05-27T07:31:46Z</time>
      </trkpt>
      <trkpt lat="43.38076" lon="1.73397">
        <ele>199.8</ele>
        <time>2023-05-27T07:31:47Z</time>
      </trkpt>
      <trkpt lat="43.38073" lon="1.73403">
        <ele>199.8</ele>
        <time>2023-05-27T07:31:48Z</time>
      </trkpt>
      <trkpt lat="43.38071" lon="1.73408">
        <ele>199.8</ele>
        <time>2023-05-27T07:31:49Z</time>
      </trkpt>
      <trkpt lat="43.38069" lon="1.73414">
        <ele>199.8</ele>
        <time>2023-05-27T07:31:50Z</time>
      </trkpt>
      <trkpt lat="43.38066" lon="1.7342">
        <ele>199.8</ele>
        <time>2023-05-27T07:31:51Z</time>
      </trkpt>
      <trkpt lat="43.38064" lon="1.73426">
        <ele>199.8</ele>
        <time>2023-05-27T07:31:52Z</time>
      </trkpt>
      <trkpt lat="43.38062" lon="1.73431">
        <ele>199.8</ele>
        <time>2023-05-27T07:31:53Z</time>
      </trkpt>
      <trkpt lat="43.3806" lon="1.73436">
        <ele>200</ele>
        <time>2023-05-27T07:31:54Z</time>
      </trkpt>
      <trkpt lat="43.38058" lon="1.73442">
        <ele>200</ele>
        <time>2023-05-27T07:31:55Z</time>
      </trkpt>
      <trkpt lat="43.38056" lon="1.73448">
        <ele>200</ele>
        <time>2023-05-27T07:31:56Z</time>
      </trkpt>
      <trkpt lat="43.38054" lon="1.73453">
        <ele>200</ele>
        <time>2023-05-27T07:31:57Z</time>
      </trkpt>
      <trkpt lat="43.38052" lon="1.73457">
        <ele>200</ele>
        <time>2023-05-27T07:31:58Z</time>
      </trkpt>
      <trkpt lat="43.3805" lon="1.73462">
        <ele>200</ele>
        <time>2023-05-27T07:31:59Z</time>
      </trkpt>
      <trkpt lat="43.38048" lon="1.73468">
        <ele>200</ele>
        <time>2023-05-27T07:32:00Z</time>
      </trkpt>
      <trkpt lat="43.38046" lon="1.73473">
        <ele>200</ele>
        <time>2023-05-27T07:32:01Z</time>
      </trkpt>
      <trkpt lat="43.38044" lon="1.73479">
        <ele>200</ele>
        <time>2023-05-27T07:32:02Z</time>
      </trkpt>
      <trkpt lat="43.38042" lon="1.73484">
        <ele>200</ele>
        <time>2023-05-27T07:32:03Z</time>
      </trkpt>
      <trkpt lat="43.3804" lon="1.7349">
        <ele>200</ele>
        <time>2023-05-27T07:32:04Z</time>
      </trkpt>
      <trkpt lat="43.38037" lon="1.73498">
        <ele>200</ele>
        <time>2023-05-27T07:32:05Z</time>
      </trkpt>
      <trkpt lat="43.38035" lon="1.73503">
        <ele>200</ele>
        <time>2023-05-27T07:32:06Z</time>
      </trkpt>
      <trkpt lat="43.38033" lon="1.73509">
        <ele>200</ele>
        <time>2023-05-27T07:32:07Z</time>
      </trkpt>
      <trkpt lat="43.3803" lon="1.73515">
        <ele>200</ele>
        <time>2023-05-27T07:32:08Z</time>
      </trkpt>
      <trkpt lat="43.38028" lon="1.73522">
        <ele>199.8</ele>
        <time>2023-05-27T07:32:09Z</time>
      </trkpt>
      <trkpt lat="43.38025" lon="1.73529">
        <ele>199.8</ele>
        <time>2023-05-27T07:32:10Z</time>
      </trkpt>
      <trkpt lat="43.38023" lon="1.73536">
        <ele>199.8</ele>
        <time>2023-05-27T07:32:11Z</time>
      </trkpt>
      <trkpt lat="43.3802" lon="1.73543">
        <ele>199.8</ele>
        <time>2023-05-27T07:32:12Z</time>
      </trkpt>
      <trkpt lat="43.38018" lon="1.73549">
        <ele>199.8</ele>
        <time>2023-05-27T07:32:13Z</time>
      </trkpt>
      <trkpt lat="43.38015" lon="1.73556">
        <ele>199.6</ele>
        <time>2023-05-27T07:32:14Z</time>
      </trkpt>
      <trkpt lat="43.38013" lon="1.73562">
        <ele>199.6</ele>
        <time>2023-05-27T07:32:15Z</time>
      </trkpt>
      <trkpt lat="43.3801" lon="1.73568">
        <ele>199.6</ele>
        <time>2023-05-27T07:32:16Z</time>
      </trkpt>
      <trkpt lat="43.38008" lon="1.73575">
        <ele>199.4</ele>
        <time>2023-05-27T07:32:17Z</time>
      </trkpt>
      <trkpt lat="43.38006" lon="1.73582">
        <ele>199.4</ele>
        <time>2023-05-27T07:32:18Z</time>
      </trkpt>
      <trkpt lat="43.38003" lon="1.7359">
        <ele>199.2</ele>
        <time>2023-05-27T07:32:19Z</time>
      </trkpt>
      <trkpt lat="43.38" lon="1.73598">
        <ele>199</ele>
        <time>2023-05-27T07:32:20Z</time>
      </trkpt>
      <trkpt lat="43.37997" lon="1.73606">
        <ele>199</ele>
        <time>2023-05-27T07:32:21Z</time>
      </trkpt>
      <trkpt lat="43.37994" lon="1.73614">
        <ele>199</ele>
        <time>2023-05-27T07:32:22Z</time>
      </trkpt>
      <trkpt lat="43.37991" lon="1.73622">
        <ele>199</ele>
        <time>2023-05-27T07:32:23Z</time>
      </trkpt>
      <trkpt lat="43.37988" lon="1.73629">
        <ele>199</ele>
        <time>2023-05-27T07:32:24Z</time>
      </trkpt>
      <trkpt lat="43.37986" lon="1.73636">
        <ele>199</ele>
        <time>2023-05-27T07:32:25Z</time>
      </trkpt>
      <trkpt lat="43.37984" lon="1.73642">
        <ele>199</ele>
        <time>2023-05-27T07:32:26Z</time>
      </trkpt>
      <trkpt lat="43.37981" lon="1.73648">
        <ele>199</ele>
        <time>2023-05-27T07:32:27Z</time>
      </trkpt>
      <trkpt lat="43.37979" lon="1.73653">
        <ele>199</ele>
        <time>2023-05-27T07:32:28Z</time>
      </trkpt>
      <trkpt lat="43.37977" lon="1.73659">
        <ele>199</ele>
        <time>2023-05-27T07:32:29Z</time>
      </trkpt>
      <trkpt lat="43.37974" lon="1.73667">
        <ele>199</ele>
        <time>2023-05-27T07:32:30Z</time>
      </trkpt>
      <trkpt lat="43.37971" lon="1.73673">
        <ele>199</ele>
        <time>2023-05-27T07:32:31Z</time>
      </trkpt>
      <trkpt lat="43.37969" lon="1.73679">
        <ele>199</ele>
        <time>2023-05-27T07:32:32Z</time>
      </trkpt>
      <trkpt lat="43.37967" lon="1.73684">
        <ele>199</ele>
        <time>2023-05-27T07:32:33Z</time>
      </trkpt>
      <trkpt lat="43.37965" lon="1.7369">
        <ele>199</ele>
        <time>2023-05-27T07:32:34Z</time>
      </trkpt>
      <trkpt lat="43.37963" lon="1.73697">
        <ele>199.2</ele>
        <time>2023-05-27T07:32:35Z</time>
      </trkpt>
      <trkpt lat="43.37962" lon="1.73702">
        <ele>199.2</ele>
        <time>2023-05-27T07:32:36Z</time>
      </trkpt>
      <trkpt lat="43.3796" lon="1.73707">
        <ele>199.2</ele>
        <time>2023-05-27T07:32:37Z</time>
      </trkpt>
      <trkpt lat="43.37958" lon="1.73712">
        <ele>199.2</ele>
        <time>2023-05-27T07:32:38Z</time>
      </trkpt>
      <trkpt lat="43.37957" lon="1.73718">
        <ele>199.2</ele>
        <time>2023-05-27T07:32:39Z</time>
      </trkpt>
      <trkpt lat="43.37955" lon="1.73723">
        <ele>199.4</ele>
        <time>2023-05-27T07:32:40Z</time>
      </trkpt>
      <trkpt lat="43.37954" lon="1.73728">
        <ele>199.4</ele>
        <time>2023-05-27T07:32:41Z</time>
      </trkpt>
      <trkpt lat="43.37952" lon="1.73733">
        <ele>199.4</ele>
        <time>2023-05-27T07:32:42Z</time>
      </trkpt>
      <trkpt lat="43.37949" lon="1.73738">
        <ele>199.4</ele>
        <time>2023-05-27T07:32:43Z</time>
      </trkpt>
      <trkpt lat="43.37947" lon="1.73743">
        <ele>199.6</ele>
        <time>2023-05-27T07:32:44Z</time>
      </trkpt>
      <trkpt lat="43.37944" lon="1.73749">
        <ele>199.6</ele>
        <time>2023-05-27T07:32:45Z</time>
      </trkpt>
      <trkpt lat="43.37942" lon="1.73754">
        <ele>199.6</ele>
        <time>2023-05-27T07:32:46Z</time>
      </trkpt>
      <trkpt lat="43.3794" lon="1.73759">
        <ele>199.6</ele>
        <time>2023-05-27T07:32:47Z</time>
      </trkpt>
      <trkpt lat="43.37938" lon="1.73765">
        <ele>199.8</ele>
        <time>2023-05-27T07:32:48Z</time>
      </trkpt>
      <trkpt lat="43.37936" lon="1.73771">
        <ele>199.8</ele>
        <time>2023-05-27T07:32:49Z</time>
      </trkpt>
      <trkpt lat="43.37933" lon="1.73776">
        <ele>200</ele>
        <time>2023-05-27T07:32:50Z</time>
      </trkpt>
      <trkpt lat="43.37931" lon="1.7378">
        <ele>200</ele>
        <time>2023-05-27T07:32:51Z</time>
      </trkpt>
      <trkpt lat="43.37929" lon="1.73786">
        <ele>200</ele>
        <time>2023-05-27T07:32:52Z</time>
      </trkpt>
      <trkpt lat="43.37926" lon="1.73791">
        <ele>200.2</ele>
        <time>2023-05-27T07:32:53Z</time>
      </trkpt>
      <trkpt lat="43.37923" lon="1.73797">
        <ele>200.2</ele>
        <time>2023-05-27T07:32:54Z</time>
      </trkpt>
      <trkpt lat="43.37921" lon="1.73801">
        <ele>200.2</ele>
        <time>2023-05-27T07:32:55Z</time>
      </trkpt>
      <trkpt lat="43.37918" lon="1.73806">
        <ele>200.2</ele>
        <time>2023-05-27T07:32:56Z</time>
      </trkpt>
      <trkpt lat="43.37916" lon="1.73812">
        <ele>200.2</ele>
        <time>2023-05-27T07:32:57Z</time>
      </trkpt>
      <trkpt lat="43.37913" lon="1.73817">
        <ele>200.4</ele>
        <time>2023-05-27T07:32:58Z</time>
      </trkpt>
      <trkpt lat="43.3791" lon="1.73822">
        <ele>200.4</ele>
        <time>2023-05-27T07:32:59Z</time>
      </trkpt>
      <trkpt lat="43.37908" lon="1.73827">
        <ele>200.4</ele>
        <time>2023-05-27T07:33:00Z</time>
      </trkpt>
      <trkpt lat="43.37905" lon="1.73833">
        <ele>200.4</ele>
        <time>2023-05-27T07:33:01Z</time>
      </trkpt>
      <trkpt lat="43.37902" lon="1.73839">
        <ele>200.4</ele>
        <time>2023-05-27T07:33:02Z</time>
      </trkpt>
      <trkpt lat="43.37899" lon="1.73844">
        <ele>200.4</ele>
        <time>2023-05-27T07:33:03Z</time>
      </trkpt>
      <trkpt lat="43.37896" lon="1.73849">
        <ele>200.4</ele>
        <time>2023-05-27T07:33:04Z</time>
      </trkpt>
      <trkpt lat="43.37893" lon="1.73856">
        <ele>200.4</ele>
        <time>2023-05-27T07:33:05Z</time>
      </trkpt>
      <trkpt lat="43.37889" lon="1.73862">
        <ele>200.4</ele>
        <time>2023-05-27T07:33:06Z</time>
      </trkpt>
      <trkpt lat="43.37886" lon="1.73867">
        <ele>200.4</ele>
        <time>2023-05-27T07:33:07Z</time>
      </trkpt>
      <trkpt lat="43.37884" lon="1.73871">
        <ele>200.4</ele>
        <time>2023-05-27T07:33:08Z</time>
      </trkpt>
      <trkpt lat="43.37881" lon="1.73877">
        <ele>200.4</ele>
        <time>2023-05-27T07:33:09Z</time>
      </trkpt>
      <trkpt lat="43.37877" lon="1.73882">
        <ele>200.4</ele>
        <time>2023-05-27T07:33:10Z</time>
      </trkpt>
      <trkpt lat="43.37875" lon="1.73886">
        <ele>200.4</ele>
        <time>2023-05-27T07:33:11Z</time>
      </trkpt>
      <trkpt lat="43.37872" lon="1.73891">
        <ele>200.4</ele>
        <time>2023-05-27T07:33:12Z</time>
      </trkpt>
      <trkpt lat="43.37869" lon="1.73896">
        <ele>200.4</ele>
        <time>2023-05-27T07:33:13Z</time>
      </trkpt>
      <trkpt lat="43.37865" lon="1.73901">
        <ele>200.6</ele>
        <time>2023-05-27T07:33:14Z</time>
      </trkpt>
      <trkpt lat="43.37861" lon="1.73906">
        <ele>200.4</ele>
        <time>2023-05-27T07:33:15Z</time>
      </trkpt>
      <trkpt lat="43.37858" lon="1.73911">
        <ele>200.4</ele>
        <time>2023-05-27T07:33:16Z</time>
      </trkpt>
      <trkpt lat="43.37855" lon="1.73916">
        <ele>200.4</ele>
        <time>2023-05-27T07:33:17Z</time>
      </trkpt>
      <trkpt lat="43.37851" lon="1.73921">
        <ele>200.4</ele>
        <time>2023-05-27T07:33:18Z</time>
      </trkpt>
      <trkpt lat="43.37848" lon="1.73925">
        <ele>200.4</ele>
        <time>2023-05-27T07:33:19Z</time>
      </trkpt>
      <trkpt lat="43.37845" lon="1.7393">
        <ele>200.4</ele>
        <time>2023-05-27T07:33:20Z</time>
      </trkpt>
      <trkpt lat="43.37842" lon="1.73935">
        <ele>200.4</ele>
        <time>2023-05-27T07:33:21Z</time>
      </trkpt>
      <trkpt lat="43.37838" lon="1.73941">
        <ele>200.4</ele>
        <time>2023-05-27T07:33:22Z</time>
      </trkpt>
      <trkpt lat="43.37834" lon="1.73945">
        <ele>200.2</ele>
        <time>2023-05-27T07:33:23Z</time>
      </trkpt>
      <trkpt lat="43.3783" lon="1.73951">
        <ele>200.2</ele>
        <time>2023-05-27T07:33:24Z</time>
      </trkpt>
      <trkpt lat="43.37826" lon="1.73956">
        <ele>200.2</ele>
        <time>2023-05-27T07:33:25Z</time>
      </trkpt>
      <trkpt lat="43.37823" lon="1.73961">
        <ele>200.2</ele>
        <time>2023-05-27T07:33:26Z</time>
      </trkpt>
      <trkpt lat="43.37819" lon="1.73965">
        <ele>200</ele>
        <time>2023-05-27T07:33:27Z</time>
      </trkpt>
      <trkpt lat="43.37814" lon="1.7397">
        <ele>200</ele>
        <time>2023-05-27T07:33:28Z</time>
      </trkpt>
      <trkpt lat="43.3781" lon="1.73974">
        <ele>200</ele>
        <time>2023-05-27T07:33:29Z</time>
      </trkpt>
      <trkpt lat="43.37807" lon="1.73978">
        <ele>200</ele>
        <time>2023-05-27T07:33:30Z</time>
      </trkpt>
      <trkpt lat="43.37803" lon="1.73982">
        <ele>200</ele>
        <time>2023-05-27T07:33:31Z</time>
      </trkpt>
      <trkpt lat="43.37799" lon="1.73986">
        <ele>200</ele>
        <time>2023-05-27T07:33:32Z</time>
      </trkpt>
      <trkpt lat="43.37796" lon="1.73989">
        <ele>200</ele>
        <time>2023-05-27T07:33:33Z</time>
      </trkpt>
      <trkpt lat="43.37792" lon="1.73994">
        <ele>200</ele>
        <time>2023-05-27T07:33:34Z</time>
      </trkpt>
      <trkpt lat="43.37788" lon="1.73996">
        <ele>200</ele>
        <time>2023-05-27T07:33:35Z</time>
      </trkpt>
      <trkpt lat="43.37785" lon="1.73999">
        <ele>200</ele>
        <time>2023-05-27T07:33:36Z</time>
      </trkpt>
      <trkpt lat="43.37781" lon="1.74003">
        <ele>200</ele>
        <time>2023-05-27T07:33:37Z</time>
      </trkpt>
      <trkpt lat="43.37777" lon="1.74007">
        <ele>200.2</ele>
        <time>2023-05-27T07:33:38Z</time>
      </trkpt>
      <trkpt lat="43.37773" lon="1.74012">
        <ele>200.2</ele>
        <time>2023-05-27T07:33:39Z</time>
      </trkpt>
      <trkpt lat="43.37769" lon="1.74017">
        <ele>200.2</ele>
        <time>2023-05-27T07:33:40Z</time>
      </trkpt>
      <trkpt lat="43.37766" lon="1.7402">
        <ele>200.2</ele>
        <time>2023-05-27T07:33:41Z</time>
      </trkpt>
      <trkpt lat="43.37762" lon="1.74024">
        <ele>200.2</ele>
        <time>2023-05-27T07:33:42Z</time>
      </trkpt>
      <trkpt lat="43.37758" lon="1.74027">
        <ele>200.2</ele>
        <time>2023-05-27T07:33:43Z</time>
      </trkpt>
      <trkpt lat="43.37755" lon="1.7403">
        <ele>200.2</ele>
        <time>2023-05-27T07:33:44Z</time>
      </trkpt>
      <trkpt lat="43.37751" lon="1.74035">
        <ele>200.2</ele>
        <time>2023-05-27T07:33:45Z</time>
      </trkpt>
      <trkpt lat="43.37746" lon="1.74039">
        <ele>200.2</ele>
        <time>2023-05-27T07:33:46Z</time>
      </trkpt>
      <trkpt lat="43.37741" lon="1.74044">
        <ele>200.2</ele>
        <time>2023-05-27T07:33:47Z</time>
      </trkpt>
      <trkpt lat="43.37737" lon="1.74049">
        <ele>200.4</ele>
        <time>2023-05-27T07:33:48Z</time>
      </trkpt>
      <trkpt lat="43.37734" lon="1.74053">
        <ele>200.4</ele>
        <time>2023-05-27T07:33:49Z</time>
      </trkpt>
      <trkpt lat="43.37731" lon="1.74058">
        <ele>200.4</ele>
        <time>2023-05-27T07:33:50Z</time>
      </trkpt>
      <trkpt lat="43.37728" lon="1.74061">
        <ele>200.4</ele>
        <time>2023-05-27T07:33:51Z</time>
      </trkpt>
      <trkpt lat="43.37726" lon="1.74064">
        <ele>200.6</ele>
        <time>2023-05-27T07:33:52Z</time>
      </trkpt>
      <trkpt lat="43.37723" lon="1.74067">
        <ele>200.6</ele>
        <time>2023-05-27T07:33:53Z</time>
      </trkpt>
      <trkpt lat="43.3772" lon="1.74069">
        <ele>200.6</ele>
        <time>2023-05-27T07:33:54Z</time>
      </trkpt>
      <trkpt lat="43.37718" lon="1.74072">
        <ele>200.6</ele>
        <time>2023-05-27T07:33:55Z</time>
      </trkpt>
      <trkpt lat="43.37715" lon="1.74074">
        <ele>200.8</ele>
        <time>2023-05-27T07:33:56Z</time>
      </trkpt>
      <trkpt lat="43.37712" lon="1.74078">
        <ele>200.8</ele>
        <time>2023-05-27T07:33:57Z</time>
      </trkpt>
      <trkpt lat="43.37709" lon="1.74082">
        <ele>200.8</ele>
        <time>2023-05-27T07:33:58Z</time>
      </trkpt>
      <trkpt lat="43.37704" lon="1.74086">
        <ele>200.8</ele>
        <time>2023-05-27T07:33:59Z</time>
      </trkpt>
      <trkpt lat="43.37701" lon="1.7409">
        <ele>200.8</ele>
        <time>2023-05-27T07:34:00Z</time>
      </trkpt>
      <trkpt lat="43.37698" lon="1.74094">
        <ele>200.8</ele>
        <time>2023-05-27T07:34:01Z</time>
      </trkpt>
      <trkpt lat="43.37695" lon="1.74097">
        <ele>200.8</ele>
        <time>2023-05-27T07:34:02Z</time>
      </trkpt>
      <trkpt lat="43.37691" lon="1.74101">
        <ele>200.8</ele>
        <time>2023-05-27T07:34:03Z</time>
      </trkpt>
      <trkpt lat="43.37688" lon="1.74105">
        <ele>200.6</ele>
        <time>2023-05-27T07:34:04Z</time>
      </trkpt>
      <trkpt lat="43.37684" lon="1.74111">
        <ele>200.6</ele>
        <time>2023-05-27T07:34:05Z</time>
      </trkpt>
      <trkpt lat="43.3768" lon="1.74116">
        <ele>200.6</ele>
        <time>2023-05-27T07:34:06Z</time>
      </trkpt>
      <trkpt lat="43.37677" lon="1.74121">
        <ele>200.6</ele>
        <time>2023-05-27T07:34:07Z</time>
      </trkpt>
      <trkpt lat="43.37673" lon="1.74127">
        <ele>200.6</ele>
        <time>2023-05-27T07:34:08Z</time>
      </trkpt>
      <trkpt lat="43.3767" lon="1.74134">
        <ele>200.6</ele>
        <time>2023-05-27T07:34:09Z</time>
      </trkpt>
      <trkpt lat="43.37667" lon="1.74139">
        <ele>200.4</ele>
        <time>2023-05-27T07:34:10Z</time>
      </trkpt>
      <trkpt lat="43.37665" lon="1.74145">
        <ele>200.4</ele>
        <time>2023-05-27T07:34:11Z</time>
      </trkpt>
      <trkpt lat="43.37663" lon="1.74152">
        <ele>200.4</ele>
        <time>2023-05-27T07:34:12Z</time>
      </trkpt>
      <trkpt lat="43.3766" lon="1.74158">
        <ele>200.4</ele>
        <time>2023-05-27T07:34:13Z</time>
      </trkpt>
      <trkpt lat="43.37659" lon="1.74164">
        <ele>200.2</ele>
        <time>2023-05-27T07:34:14Z</time>
      </trkpt>
      <trkpt lat="43.37656" lon="1.74171">
        <ele>200.2</ele>
        <time>2023-05-27T07:34:15Z</time>
      </trkpt>
      <trkpt lat="43.37654" lon="1.74178">
        <ele>200.2</ele>
        <time>2023-05-27T07:34:16Z</time>
      </trkpt>
      <trkpt lat="43.37651" lon="1.74185">
        <ele>200.2</ele>
        <time>2023-05-27T07:34:17Z</time>
      </trkpt>
      <trkpt lat="43.3765" lon="1.74191">
        <ele>200.2</ele>
        <time>2023-05-27T07:34:18Z</time>
      </trkpt>
      <trkpt lat="43.37648" lon="1.74197">
        <ele>200</ele>
        <time>2023-05-27T07:34:19Z</time>
      </trkpt>
      <trkpt lat="43.37644" lon="1.74205">
        <ele>200</ele>
        <time>2023-05-27T07:34:20Z</time>
      </trkpt>
      <trkpt lat="43.37642" lon="1.74211">
        <ele>200</ele>
        <time>2023-05-27T07:34:21Z</time>
      </trkpt>
      <trkpt lat="43.37639" lon="1.74218">
        <ele>199.8</ele>
        <time>2023-05-27T07:34:22Z</time>
      </trkpt>
      <trkpt lat="43.37636" lon="1.74226">
        <ele>199.8</ele>
        <time>2023-05-27T07:34:23Z</time>
      </trkpt>
      <trkpt lat="43.37633" lon="1.74234">
        <ele>199.6</ele>
        <time>2023-05-27T07:34:24Z</time>
      </trkpt>
      <trkpt lat="43.3763" lon="1.74241">
        <ele>199.6</ele>
        <time>2023-05-27T07:34:25Z</time>
      </trkpt>
      <trkpt lat="43.37627" lon="1.74249">
        <ele>199.6</ele>
        <time>2023-05-27T07:34:26Z</time>
      </trkpt>
      <trkpt lat="43.37625" lon="1.74255">
        <ele>199.6</ele>
        <time>2023-05-27T07:34:27Z</time>
      </trkpt>
      <trkpt lat="43.37624" lon="1.74261">
        <ele>199.8</ele>
        <time>2023-05-27T07:34:28Z</time>
      </trkpt>
      <trkpt lat="43.37622" lon="1.74266">
        <ele>199.8</ele>
        <time>2023-05-27T07:34:29Z</time>
      </trkpt>
      <trkpt lat="43.37619" lon="1.74273">
        <ele>199.8</ele>
        <time>2023-05-27T07:34:30Z</time>
      </trkpt>
      <trkpt lat="43.37618" lon="1.74279">
        <ele>199.8</ele>
        <time>2023-05-27T07:34:31Z</time>
      </trkpt>
      <trkpt lat="43.37615" lon="1.74286">
        <ele>199.8</ele>
        <time>2023-05-27T07:34:32Z</time>
      </trkpt>
      <trkpt lat="43.37614" lon="1.74291">
        <ele>199.8</ele>
        <time>2023-05-27T07:34:33Z</time>
      </trkpt>
      <trkpt lat="43.37612" lon="1.74298">
        <ele>199.8</ele>
        <time>2023-05-27T07:34:34Z</time>
      </trkpt>
      <trkpt lat="43.3761" lon="1.74303">
        <ele>199.8</ele>
        <time>2023-05-27T07:34:35Z</time>
      </trkpt>
      <trkpt lat="43.37609" lon="1.74308">
        <ele>199.8</ele>
        <time>2023-05-27T07:34:36Z</time>
      </trkpt>
      <trkpt lat="43.37607" lon="1.74314">
        <ele>199.8</ele>
        <time>2023-05-27T07:34:37Z</time>
      </trkpt>
      <trkpt lat="43.37605" lon="1.7432">
        <ele>199.8</ele>
        <time>2023-05-27T07:34:38Z</time>
      </trkpt>
      <trkpt lat="43.37603" lon="1.74326">
        <ele>199.8</ele>
        <time>2023-05-27T07:34:39Z</time>
      </trkpt>
      <trkpt lat="43.37601" lon="1.74331">
        <ele>199.8</ele>
        <time>2023-05-27T07:34:40Z</time>
      </trkpt>
      <trkpt lat="43.376" lon="1.74337">
        <ele>199.8</ele>
        <time>2023-05-27T07:34:41Z</time>
      </trkpt>
      <trkpt lat="43.37598" lon="1.74342">
        <ele>199.8</ele>
        <time>2023-05-27T07:34:42Z</time>
      </trkpt>
      <trkpt lat="43.37597" lon="1.74349">
        <ele>199.8</ele>
        <time>2023-05-27T07:34:43Z</time>
      </trkpt>
      <trkpt lat="43.37595" lon="1.74354">
        <ele>199.8</ele>
        <time>2023-05-27T07:34:44Z</time>
      </trkpt>
      <trkpt lat="43.37593" lon="1.7436">
        <ele>199.8</ele>
        <time>2023-05-27T07:34:45Z</time>
      </trkpt>
      <trkpt lat="43.37592" lon="1.74366">
        <ele>199.8</ele>
        <time>2023-05-27T07:34:46Z</time>
      </trkpt>
      <trkpt lat="43.37591" lon="1.74372">
        <ele>199.8</ele>
        <time>2023-05-27T07:34:47Z</time>
      </trkpt>
      <trkpt lat="43.37589" lon="1.74379">
        <ele>199.8</ele>
        <time>2023-05-27T07:34:48Z</time>
      </trkpt>
      <trkpt lat="43.37587" lon="1.74385">
        <ele>199.8</ele>
        <time>2023-05-27T07:34:49Z</time>
      </trkpt>
      <trkpt lat="43.37586" lon="1.7439">
        <ele>199.8</ele>
        <time>2023-05-27T07:34:50Z</time>
      </trkpt>
      <trkpt lat="43.37584" lon="1.74397">
        <ele>199.8</ele>
        <time>2023-05-27T07:34:51Z</time>
      </trkpt>
      <trkpt lat="43.37583" lon="1.74402">
        <ele>199.8</ele>
        <time>2023-05-27T07:34:52Z</time>
      </trkpt>
      <trkpt lat="43.37581" lon="1.74407">
        <ele>199.8</ele>
        <time>2023-05-27T07:34:53Z</time>
      </trkpt>
      <trkpt lat="43.3758" lon="1.74414">
        <ele>199.8</ele>
        <time>2023-05-27T07:34:54Z</time>
      </trkpt>
      <trkpt lat="43.37577" lon="1.74422">
        <ele>199.8</ele>
        <time>2023-05-27T07:34:55Z</time>
      </trkpt>
      <trkpt lat="43.37575" lon="1.74429">
        <ele>199.8</ele>
        <time>2023-05-27T07:34:56Z</time>
      </trkpt>
      <trkpt lat="43.37573" lon="1.74436">
        <ele>199.8</ele>
        <time>2023-05-27T07:34:57Z</time>
      </trkpt>
      <trkpt lat="43.37571" lon="1.74444">
        <ele>199.8</ele>
        <time>2023-05-27T07:34:58Z</time>
      </trkpt>
      <trkpt lat="43.37569" lon="1.74451">
        <ele>199.8</ele>
        <time>2023-05-27T07:34:59Z</time>
      </trkpt>
      <trkpt lat="43.37566" lon="1.74458">
        <ele>199.8</ele>
        <time>2023-05-27T07:35:00Z</time>
      </trkpt>
      <trkpt lat="43.37563" lon="1.74466">
        <ele>199.8</ele>
        <time>2023-05-27T07:35:01Z</time>
      </trkpt>
      <trkpt lat="43.37561" lon="1.74472">
        <ele>199.8</ele>
        <time>2023-05-27T07:35:02Z</time>
      </trkpt>
      <trkpt lat="43.3756" lon="1.74479">
        <ele>199.8</ele>
        <time>2023-05-27T07:35:03Z</time>
      </trkpt>
      <trkpt lat="43.37558" lon="1.74485">
        <ele>199.8</ele>
        <time>2023-05-27T07:35:04Z</time>
      </trkpt>
      <trkpt lat="43.37557" lon="1.7449">
        <ele>199.8</ele>
        <time>2023-05-27T07:35:05Z</time>
      </trkpt>
      <trkpt lat="43.37556" lon="1.74496">
        <ele>199.8</ele>
        <time>2023-05-27T07:35:06Z</time>
      </trkpt>
      <trkpt lat="43.37554" lon="1.74502">
        <ele>199.8</ele>
        <time>2023-05-27T07:35:07Z</time>
      </trkpt>
      <trkpt lat="43.37552" lon="1.74509">
        <ele>199.8</ele>
        <time>2023-05-27T07:35:08Z</time>
      </trkpt>
      <trkpt lat="43.3755" lon="1.74515">
        <ele>199.8</ele>
        <time>2023-05-27T07:35:09Z</time>
      </trkpt>
      <trkpt lat="43.37547" lon="1.74524">
        <ele>199.8</ele>
        <time>2023-05-27T07:35:10Z</time>
      </trkpt>
      <trkpt lat="43.37545" lon="1.74531">
        <ele>199.8</ele>
        <time>2023-05-27T07:35:11Z</time>
      </trkpt>
      <trkpt lat="43.37543" lon="1.74539">
        <ele>199.8</ele>
        <time>2023-05-27T07:35:12Z</time>
      </trkpt>
      <trkpt lat="43.37541" lon="1.74547">
        <ele>199.8</ele>
        <time>2023-05-27T07:35:13Z</time>
      </trkpt>
      <trkpt lat="43.37539" lon="1.74555">
        <ele>199.8</ele>
        <time>2023-05-27T07:35:14Z</time>
      </trkpt>
      <trkpt lat="43.37537" lon="1.74561">
        <ele>199.8</ele>
        <time>2023-05-27T07:35:15Z</time>
      </trkpt>
      <trkpt lat="43.37535" lon="1.74566">
        <ele>199.8</ele>
        <time>2023-05-27T07:35:16Z</time>
      </trkpt>
      <trkpt lat="43.37533" lon="1.74572">
        <ele>199.6</ele>
        <time>2023-05-27T07:35:17Z</time>
      </trkpt>
      <trkpt lat="43.37531" lon="1.74579">
        <ele>199.6</ele>
        <time>2023-05-27T07:35:18Z</time>
      </trkpt>
      <trkpt lat="43.37529" lon="1.74586">
        <ele>199.6</ele>
        <time>2023-05-27T07:35:19Z</time>
      </trkpt>
      <trkpt lat="43.37527" lon="1.74592">
        <ele>199.6</ele>
        <time>2023-05-27T07:35:20Z</time>
      </trkpt>
      <trkpt lat="43.37525" lon="1.74599">
        <ele>199.6</ele>
        <time>2023-05-27T07:35:21Z</time>
      </trkpt>
      <trkpt lat="43.37522" lon="1.74606">
        <ele>199.6</ele>
        <time>2023-05-27T07:35:22Z</time>
      </trkpt>
      <trkpt lat="43.3752" lon="1.74612">
        <ele>199.6</ele>
        <time>2023-05-27T07:35:23Z</time>
      </trkpt>
      <trkpt lat="43.37517" lon="1.74618">
        <ele>199.6</ele>
        <time>2023-05-27T07:35:24Z</time>
      </trkpt>
      <trkpt lat="43.37515" lon="1.74624">
        <ele>199.6</ele>
        <time>2023-05-27T07:35:25Z</time>
      </trkpt>
      <trkpt lat="43.37513" lon="1.7463">
        <ele>199.6</ele>
        <time>2023-05-27T07:35:26Z</time>
      </trkpt>
      <trkpt lat="43.37511" lon="1.74636">
        <ele>199.6</ele>
        <time>2023-05-27T07:35:27Z</time>
      </trkpt>
      <trkpt lat="43.37509" lon="1.74641">
        <ele>199.6</ele>
        <time>2023-05-27T07:35:28Z</time>
      </trkpt>
      <trkpt lat="43.37507" lon="1.74647">
        <ele>199.6</ele>
        <time>2023-05-27T07:35:29Z</time>
      </trkpt>
      <trkpt lat="43.37504" lon="1.74653">
        <ele>199.6</ele>
        <time>2023-05-27T07:35:30Z</time>
      </trkpt>
      <trkpt lat="43.37502" lon="1.7466">
        <ele>199.6</ele>
        <time>2023-05-27T07:35:31Z</time>
      </trkpt>
      <trkpt lat="43.375" lon="1.74666">
        <ele>199.6</ele>
        <time>2023-05-27T07:35:32Z</time>
      </trkpt>
      <trkpt lat="43.37498" lon="1.74672">
        <ele>199.6</ele>
        <time>2023-05-27T07:35:33Z</time>
      </trkpt>
      <trkpt lat="43.37495" lon="1.74678">
        <ele>199.6</ele>
        <time>2023-05-27T07:35:34Z</time>
      </trkpt>
      <trkpt lat="43.37493" lon="1.74685">
        <ele>199.6</ele>
        <time>2023-05-27T07:35:35Z</time>
      </trkpt>
      <trkpt lat="43.3749" lon="1.7469">
        <ele>199.6</ele>
        <time>2023-05-27T07:35:36Z</time>
      </trkpt>
      <trkpt lat="43.37488" lon="1.74695">
        <ele>199.6</ele>
        <time>2023-05-27T07:35:37Z</time>
      </trkpt>
      <trkpt lat="43.37485" lon="1.747">
        <ele>199.6</ele>
        <time>2023-05-27T07:35:38Z</time>
      </trkpt>
      <trkpt lat="43.37483" lon="1.74705">
        <ele>199.6</ele>
        <time>2023-05-27T07:35:39Z</time>
      </trkpt>
      <trkpt lat="43.37482" lon="1.74709">
        <ele>199.6</ele>
        <time>2023-05-27T07:35:40Z</time>
      </trkpt>
      <trkpt lat="43.3748" lon="1.74713">
        <ele>199.6</ele>
        <time>2023-05-27T07:35:41Z</time>
      </trkpt>
      <trkpt lat="43.37477" lon="1.74718">
        <ele>199.6</ele>
        <time>2023-05-27T07:35:42Z</time>
      </trkpt>
      <trkpt lat="43.37475" lon="1.74724">
        <ele>199.8</ele>
        <time>2023-05-27T07:35:43Z</time>
      </trkpt>
      <trkpt lat="43.37472" lon="1.7473">
        <ele>199.8</ele>
        <time>2023-05-27T07:35:44Z</time>
      </trkpt>
      <trkpt lat="43.37469" lon="1.74736">
        <ele>199.8</ele>
        <time>2023-05-27T07:35:45Z</time>
      </trkpt>
      <trkpt lat="43.37467" lon="1.7474">
        <ele>200</ele>
        <time>2023-05-27T07:35:46Z</time>
      </trkpt>
      <trkpt lat="43.37464" lon="1.74745">
        <ele>200</ele>
        <time>2023-05-27T07:35:47Z</time>
      </trkpt>
      <trkpt lat="43.3746" lon="1.74751">
        <ele>200</ele>
        <time>2023-05-27T07:35:48Z</time>
      </trkpt>
      <trkpt lat="43.37458" lon="1.74755">
        <ele>200</ele>
        <time>2023-05-27T07:35:49Z</time>
      </trkpt>
      <trkpt lat="43.37456" lon="1.74759">
        <ele>200</ele>
        <time>2023-05-27T07:35:50Z</time>
      </trkpt>
      <trkpt lat="43.37453" lon="1.74762">
        <ele>200</ele>
        <time>2023-05-27T07:35:51Z</time>
      </trkpt>
      <trkpt lat="43.37451" lon="1.74765">
        <ele>200</ele>
        <time>2023-05-27T07:35:52Z</time>
      </trkpt>
      <trkpt lat="43.37449" lon="1.7477">
        <ele>200.2</ele>
        <time>2023-05-27T07:35:53Z</time>
      </trkpt>
      <trkpt lat="43.37446" lon="1.74775">
        <ele>200.2</ele>
        <time>2023-05-27T07:35:54Z</time>
      </trkpt>
      <trkpt lat="43.37443" lon="1.7478">
        <ele>200.2</ele>
        <time>2023-05-27T07:35:55Z</time>
      </trkpt>
      <trkpt lat="43.3744" lon="1.74785">
        <ele>200.2</ele>
        <time>2023-05-27T07:35:56Z</time>
      </trkpt>
      <trkpt lat="43.37437" lon="1.7479">
        <ele>200.2</ele>
        <time>2023-05-27T07:35:57Z</time>
      </trkpt>
      <trkpt lat="43.37433" lon="1.74795">
        <ele>200.2</ele>
        <time>2023-05-27T07:35:58Z</time>
      </trkpt>
      <trkpt lat="43.37429" lon="1.74801">
        <ele>200.2</ele>
        <time>2023-05-27T07:35:59Z</time>
      </trkpt>
      <trkpt lat="43.37425" lon="1.74807">
        <ele>200.2</ele>
        <time>2023-05-27T07:36:00Z</time>
      </trkpt>
      <trkpt lat="43.37421" lon="1.74813">
        <ele>200.2</ele>
        <time>2023-05-27T07:36:01Z</time>
      </trkpt>
      <trkpt lat="43.37416" lon="1.74818">
        <ele>200.2</ele>
        <time>2023-05-27T07:36:02Z</time>
      </trkpt>
      <trkpt lat="43.37413" lon="1.74821">
        <ele>200.2</ele>
        <time>2023-05-27T07:36:03Z</time>
      </trkpt>
      <trkpt lat="43.37408" lon="1.74825">
        <ele>200</ele>
        <time>2023-05-27T07:36:04Z</time>
      </trkpt>
      <trkpt lat="43.37405" lon="1.74829">
        <ele>200.2</ele>
        <time>2023-05-27T07:36:05Z</time>
      </trkpt>
      <trkpt lat="43.37403" lon="1.74834">
        <ele>200.2</ele>
        <time>2023-05-27T07:36:06Z</time>
      </trkpt>
      <trkpt lat="43.374" lon="1.74841">
        <ele>200</ele>
        <time>2023-05-27T07:36:07Z</time>
      </trkpt>
      <trkpt lat="43.37396" lon="1.74847">
        <ele>200</ele>
        <time>2023-05-27T07:36:08Z</time>
      </trkpt>
      <trkpt lat="43.37392" lon="1.74854">
        <ele>200</ele>
        <time>2023-05-27T07:36:09Z</time>
      </trkpt>
      <trkpt lat="43.37386" lon="1.7486">
        <ele>200.2</ele>
        <time>2023-05-27T07:36:10Z</time>
      </trkpt>
      <trkpt lat="43.37383" lon="1.74863">
        <ele>200.2</ele>
        <time>2023-05-27T07:36:11Z</time>
      </trkpt>
      <trkpt lat="43.3738" lon="1.74867">
        <ele>200.2</ele>
        <time>2023-05-27T07:36:12Z</time>
      </trkpt>
      <trkpt lat="43.37376" lon="1.74874">
        <ele>200.2</ele>
        <time>2023-05-27T07:36:13Z</time>
      </trkpt>
      <trkpt lat="43.37373" lon="1.7488">
        <ele>200.2</ele>
        <time>2023-05-27T07:36:14Z</time>
      </trkpt>
      <trkpt lat="43.37368" lon="1.74887">
        <ele>200.2</ele>
        <time>2023-05-27T07:36:15Z</time>
      </trkpt>
      <trkpt lat="43.37364" lon="1.74892">
        <ele>200.2</ele>
        <time>2023-05-27T07:36:16Z</time>
      </trkpt>
      <trkpt lat="43.37362" lon="1.74895">
        <ele>200.2</ele>
        <time>2023-05-27T07:36:17Z</time>
      </trkpt>
      <trkpt lat="43.37358" lon="1.74899">
        <ele>200.2</ele>
        <time>2023-05-27T07:36:18Z</time>
      </trkpt>
      <trkpt lat="43.37355" lon="1.74902">
        <ele>200.2</ele>
        <time>2023-05-27T07:36:19Z</time>
      </trkpt>
      <trkpt lat="43.37353" lon="1.74904">
        <ele>200.2</ele>
        <time>2023-05-27T07:36:20Z</time>
      </trkpt>
      <trkpt lat="43.37351" lon="1.74907">
        <ele>200.2</ele>
        <time>2023-05-27T07:36:21Z</time>
      </trkpt>
      <trkpt lat="43.37348" lon="1.74909">
        <ele>200.2</ele>
        <time>2023-05-27T07:36:22Z</time>
      </trkpt>
      <trkpt lat="43.37344" lon="1.74913">
        <ele>200.2</ele>
        <time>2023-05-27T07:36:23Z</time>
      </trkpt>
      <trkpt lat="43.3734" lon="1.74918">
        <ele>200.2</ele>
        <time>2023-05-27T07:36:24Z</time>
      </trkpt>
      <trkpt lat="43.37337" lon="1.74923">
        <ele>200.2</ele>
        <time>2023-05-27T07:36:25Z</time>
      </trkpt>
      <trkpt lat="43.37332" lon="1.74928">
        <ele>200.2</ele>
        <time>2023-05-27T07:36:26Z</time>
      </trkpt>
      <trkpt lat="43.37328" lon="1.74933">
        <ele>200.2</ele>
        <time>2023-05-27T07:36:27Z</time>
      </trkpt>
      <trkpt lat="43.37325" lon="1.74937">
        <ele>200.2</ele>
        <time>2023-05-27T07:36:28Z</time>
      </trkpt>
      <trkpt lat="43.37321" lon="1.74942">
        <ele>200.2</ele>
        <time>2023-05-27T07:36:29Z</time>
      </trkpt>
      <trkpt lat="43.37318" lon="1.74946">
        <ele>200</ele>
        <time>2023-05-27T07:36:30Z</time>
      </trkpt>
      <trkpt lat="43.37315" lon="1.7495">
        <ele>200</ele>
        <time>2023-05-27T07:36:31Z</time>
      </trkpt>
      <trkpt lat="43.37311" lon="1.74956">
        <ele>200</ele>
        <time>2023-05-27T07:36:32Z</time>
      </trkpt>
      <trkpt lat="43.37308" lon="1.74961">
        <ele>200</ele>
        <time>2023-05-27T07:36:33Z</time>
      </trkpt>
      <trkpt lat="43.37304" lon="1.74968">
        <ele>199.8</ele>
        <time>2023-05-27T07:36:34Z</time>
      </trkpt>
      <trkpt lat="43.373" lon="1.74973">
        <ele>199.8</ele>
        <time>2023-05-27T07:36:35Z</time>
      </trkpt>
      <trkpt lat="43.37297" lon="1.74978">
        <ele>199.8</ele>
        <time>2023-05-27T07:36:36Z</time>
      </trkpt>
      <trkpt lat="43.37293" lon="1.74983">
        <ele>199.8</ele>
        <time>2023-05-27T07:36:37Z</time>
      </trkpt>
      <trkpt lat="43.3729" lon="1.74989">
        <ele>199.8</ele>
        <time>2023-05-27T07:36:38Z</time>
      </trkpt>
      <trkpt lat="43.37286" lon="1.74996">
        <ele>199.6</ele>
        <time>2023-05-27T07:36:39Z</time>
      </trkpt>
      <trkpt lat="43.37282" lon="1.75004">
        <ele>199.6</ele>
        <time>2023-05-27T07:36:40Z</time>
      </trkpt>
      <trkpt lat="43.37278" lon="1.75012">
        <ele>199.6</ele>
        <time>2023-05-27T07:36:41Z</time>
      </trkpt>
      <trkpt lat="43.37275" lon="1.75018">
        <ele>199.6</ele>
        <time>2023-05-27T07:36:42Z</time>
      </trkpt>
      <trkpt lat="43.37271" lon="1.75026">
        <ele>199.6</ele>
        <time>2023-05-27T07:36:43Z</time>
      </trkpt>
      <trkpt lat="43.37268" lon="1.75035">
        <ele>199.6</ele>
        <time>2023-05-27T07:36:44Z</time>
      </trkpt>
      <trkpt lat="43.37265" lon="1.75042">
        <ele>199.6</ele>
        <time>2023-05-27T07:36:45Z</time>
      </trkpt>
      <trkpt lat="43.37262" lon="1.75049">
        <ele>199.6</ele>
        <time>2023-05-27T07:36:46Z</time>
      </trkpt>
      <trkpt lat="43.37259" lon="1.75056">
        <ele>199.6</ele>
        <time>2023-05-27T07:36:47Z</time>
      </trkpt>
      <trkpt lat="43.37256" lon="1.75062">
        <ele>199.6</ele>
        <time>2023-05-27T07:36:48Z</time>
      </trkpt>
      <trkpt lat="43.37253" lon="1.75068">
        <ele>199.6</ele>
        <time>2023-05-27T07:36:49Z</time>
      </trkpt>
      <trkpt lat="43.37251" lon="1.75073">
        <ele>199.6</ele>
        <time>2023-05-27T07:36:50Z</time>
      </trkpt>
      <trkpt lat="43.37249" lon="1.75078">
        <ele>199.6</ele>
        <time>2023-05-27T07:36:51Z</time>
      </trkpt>
      <trkpt lat="43.37246" lon="1.75086">
        <ele>199.6</ele>
        <time>2023-05-27T07:36:52Z</time>
      </trkpt>
      <trkpt lat="43.37243" lon="1.75091">
        <ele>199.6</ele>
        <time>2023-05-27T07:36:53Z</time>
      </trkpt>
      <trkpt lat="43.37242" lon="1.75096">
        <ele>199.6</ele>
        <time>2023-05-27T07:36:54Z</time>
      </trkpt>
      <trkpt lat="43.37242" lon="1.751">
        <ele>199.6</ele>
        <time>2023-05-27T07:36:55Z</time>
      </trkpt>
      <trkpt lat="43.3724" lon="1.75106">
        <ele>199.6</ele>
        <time>2023-05-27T07:36:56Z</time>
      </trkpt>
      <trkpt lat="43.37239" lon="1.75112">
        <ele>199.6</ele>
        <time>2023-05-27T07:36:57Z</time>
      </trkpt>
      <trkpt lat="43.37237" lon="1.75118">
        <ele>199.6</ele>
        <time>2023-05-27T07:36:58Z</time>
      </trkpt>
      <trkpt lat="43.37233" lon="1.75125">
        <ele>199.6</ele>
        <time>2023-05-27T07:36:59Z</time>
      </trkpt>
      <trkpt lat="43.37229" lon="1.75133">
        <ele>199.6</ele>
        <time>2023-05-27T07:37:00Z</time>
      </trkpt>
      <trkpt lat="43.37226" lon="1.75141">
        <ele>199.8</ele>
        <time>2023-05-27T07:37:01Z</time>
      </trkpt>
      <trkpt lat="43.37224" lon="1.75149">
        <ele>199.6</ele>
        <time>2023-05-27T07:37:02Z</time>
      </trkpt>
      <trkpt lat="43.37223" lon="1.75154">
        <ele>199.6</ele>
        <time>2023-05-27T07:37:03Z</time>
      </trkpt>
      <trkpt lat="43.37222" lon="1.75159">
        <ele>199.8</ele>
        <time>2023-05-27T07:37:04Z</time>
      </trkpt>
      <trkpt lat="43.37221" lon="1.75163">
        <ele>199.8</ele>
        <time>2023-05-27T07:37:05Z</time>
      </trkpt>
      <trkpt lat="43.37218" lon="1.75169">
        <ele>199.8</ele>
        <time>2023-05-27T07:37:06Z</time>
      </trkpt>
      <trkpt lat="43.37215" lon="1.75177">
        <ele>199.8</ele>
        <time>2023-05-27T07:37:07Z</time>
      </trkpt>
      <trkpt lat="43.37212" lon="1.75183">
        <ele>199.8</ele>
        <time>2023-05-27T07:37:08Z</time>
      </trkpt>
      <trkpt lat="43.37211" lon="1.75188">
        <ele>199.8</ele>
        <time>2023-05-27T07:37:09Z</time>
      </trkpt>
      <trkpt lat="43.37208" lon="1.75194">
        <ele>199.8</ele>
        <time>2023-05-27T07:37:10Z</time>
      </trkpt>
      <trkpt lat="43.37206" lon="1.75199">
        <ele>199.8</ele>
        <time>2023-05-27T07:37:11Z</time>
      </trkpt>
      <trkpt lat="43.37204" lon="1.75205">
        <ele>199.8</ele>
        <time>2023-05-27T07:37:12Z</time>
      </trkpt>
      <trkpt lat="43.37202" lon="1.75211">
        <ele>199.8</ele>
        <time>2023-05-27T07:37:13Z</time>
      </trkpt>
      <trkpt lat="43.372" lon="1.75216">
        <ele>199.8</ele>
        <time>2023-05-27T07:37:14Z</time>
      </trkpt>
      <trkpt lat="43.37198" lon="1.75223">
        <ele>199.6</ele>
        <time>2023-05-27T07:37:15Z</time>
      </trkpt>
      <trkpt lat="43.37196" lon="1.75229">
        <ele>199.6</ele>
        <time>2023-05-27T07:37:16Z</time>
      </trkpt>
      <trkpt lat="43.37194" lon="1.75234">
        <ele>199.4</ele>
        <time>2023-05-27T07:37:17Z</time>
      </trkpt>
      <trkpt lat="43.37192" lon="1.7524">
        <ele>199.4</ele>
        <time>2023-05-27T07:37:18Z</time>
      </trkpt>
      <trkpt lat="43.3719" lon="1.75247">
        <ele>199.4</ele>
        <time>2023-05-27T07:37:19Z</time>
      </trkpt>
      <trkpt lat="43.37187" lon="1.75254">
        <ele>199.6</ele>
        <time>2023-05-27T07:37:20Z</time>
      </trkpt>
      <trkpt lat="43.37185" lon="1.75261">
        <ele>199.6</ele>
        <time>2023-05-27T07:37:21Z</time>
      </trkpt>
      <trkpt lat="43.37183" lon="1.75266">
        <ele>199.8</ele>
        <time>2023-05-27T07:37:22Z</time>
      </trkpt>
      <trkpt lat="43.37182" lon="1.7527">
        <ele>199.8</ele>
        <time>2023-05-27T07:37:23Z</time>
      </trkpt>
      <trkpt lat="43.37181" lon="1.75274">
        <ele>200</ele>
        <time>2023-05-27T07:37:24Z</time>
      </trkpt>
      <trkpt lat="43.37179" lon="1.75278">
        <ele>200</ele>
        <time>2023-05-27T07:37:25Z</time>
      </trkpt>
      <trkpt lat="43.37177" lon="1.75283">
        <ele>200</ele>
        <time>2023-05-27T07:37:26Z</time>
      </trkpt>
      <trkpt lat="43.37175" lon="1.75288">
        <ele>200</ele>
        <time>2023-05-27T07:37:27Z</time>
      </trkpt>
      <trkpt lat="43.37172" lon="1.75293">
        <ele>200.2</ele>
        <time>2023-05-27T07:37:28Z</time>
      </trkpt>
      <trkpt lat="43.37169" lon="1.753">
        <ele>200.2</ele>
        <time>2023-05-27T07:37:29Z</time>
      </trkpt>
      <trkpt lat="43.37167" lon="1.75306">
        <ele>200.2</ele>
        <time>2023-05-27T07:37:30Z</time>
      </trkpt>
      <trkpt lat="43.37165" lon="1.75312">
        <ele>200.2</ele>
        <time>2023-05-27T07:37:31Z</time>
      </trkpt>
      <trkpt lat="43.37162" lon="1.7532">
        <ele>200.2</ele>
        <time>2023-05-27T07:37:32Z</time>
      </trkpt>
      <trkpt lat="43.3716" lon="1.75327">
        <ele>200.2</ele>
        <time>2023-05-27T07:37:33Z</time>
      </trkpt>
      <trkpt lat="43.37157" lon="1.75333">
        <ele>200.2</ele>
        <time>2023-05-27T07:37:34Z</time>
      </trkpt>
      <trkpt lat="43.37155" lon="1.75338">
        <ele>200.2</ele>
        <time>2023-05-27T07:37:35Z</time>
      </trkpt>
      <trkpt lat="43.37153" lon="1.75344">
        <ele>200.2</ele>
        <time>2023-05-27T07:37:36Z</time>
      </trkpt>
      <trkpt lat="43.3715" lon="1.7535">
        <ele>200.2</ele>
        <time>2023-05-27T07:37:37Z</time>
      </trkpt>
      <trkpt lat="43.37147" lon="1.75356">
        <ele>200.2</ele>
        <time>2023-05-27T07:37:38Z</time>
      </trkpt>
      <trkpt lat="43.37143" lon="1.75363">
        <ele>200.2</ele>
        <time>2023-05-27T07:37:39Z</time>
      </trkpt>
      <trkpt lat="43.3714" lon="1.75369">
        <ele>200.2</ele>
        <time>2023-05-27T07:37:40Z</time>
      </trkpt>
      <trkpt lat="43.37138" lon="1.75373">
        <ele>200.2</ele>
        <time>2023-05-27T07:37:41Z</time>
      </trkpt>
      <trkpt lat="43.37135" lon="1.75377">
        <ele>200.2</ele>
        <time>2023-05-27T07:37:42Z</time>
      </trkpt>
      <trkpt lat="43.37133" lon="1.75381">
        <ele>200</ele>
        <time>2023-05-27T07:37:43Z</time>
      </trkpt>
      <trkpt lat="43.3713" lon="1.75385">
        <ele>200</ele>
        <time>2023-05-27T07:37:44Z</time>
      </trkpt>
      <trkpt lat="43.37127" lon="1.7539">
        <ele>200</ele>
        <time>2023-05-27T07:37:45Z</time>
      </trkpt>
      <trkpt lat="43.37124" lon="1.75394">
        <ele>200.2</ele>
        <time>2023-05-27T07:37:46Z</time>
      </trkpt>
      <trkpt lat="43.37121" lon="1.75399">
        <ele>200.2</ele>
        <time>2023-05-27T07:37:47Z</time>
      </trkpt>
      <trkpt lat="43.37118" lon="1.75404">
        <ele>200.2</ele>
        <time>2023-05-27T07:37:48Z</time>
      </trkpt>
      <trkpt lat="43.37115" lon="1.75407">
        <ele>200.2</ele>
        <time>2023-05-27T07:37:49Z</time>
      </trkpt>
      <trkpt lat="43.37112" lon="1.75412">
        <ele>200.2</ele>
        <time>2023-05-27T07:37:50Z</time>
      </trkpt>
      <trkpt lat="43.37108" lon="1.75415">
        <ele>200.4</ele>
        <time>2023-05-27T07:37:51Z</time>
      </trkpt>
      <trkpt lat="43.37106" lon="1.75419">
        <ele>200.4</ele>
        <time>2023-05-27T07:37:52Z</time>
      </trkpt>
      <trkpt lat="43.37102" lon="1.75422">
        <ele>200.4</ele>
        <time>2023-05-27T07:37:53Z</time>
      </trkpt>
      <trkpt lat="43.37098" lon="1.75426">
        <ele>200.4</ele>
        <time>2023-05-27T07:37:54Z</time>
      </trkpt>
      <trkpt lat="43.37095" lon="1.75429">
        <ele>200.4</ele>
        <time>2023-05-27T07:37:55Z</time>
      </trkpt>
      <trkpt lat="43.37091" lon="1.75432">
        <ele>200.4</ele>
        <time>2023-05-27T07:37:56Z</time>
      </trkpt>
      <trkpt lat="43.37088" lon="1.75434">
        <ele>200.4</ele>
        <time>2023-05-27T07:37:57Z</time>
      </trkpt>
      <trkpt lat="43.37085" lon="1.75437">
        <ele>200.4</ele>
        <time>2023-05-27T07:37:58Z</time>
      </trkpt>
      <trkpt lat="43.37081" lon="1.75441">
        <ele>200.4</ele>
        <time>2023-05-27T07:37:59Z</time>
      </trkpt>
      <trkpt lat="43.37077" lon="1.75444">
        <ele>200.4</ele>
        <time>2023-05-27T07:38:00Z</time>
      </trkpt>
      <trkpt lat="43.37073" lon="1.75447">
        <ele>200.2</ele>
        <time>2023-05-27T07:38:01Z</time>
      </trkpt>
      <trkpt lat="43.37069" lon="1.75451">
        <ele>200.2</ele>
        <time>2023-05-27T07:38:02Z</time>
      </trkpt>
      <trkpt lat="43.37065" lon="1.75455">
        <ele>200.2</ele>
        <time>2023-05-27T07:38:03Z</time>
      </trkpt>
      <trkpt lat="43.37061" lon="1.75459">
        <ele>200.2</ele>
        <time>2023-05-27T07:38:04Z</time>
      </trkpt>
      <trkpt lat="43.37057" lon="1.75462">
        <ele>200.2</ele>
        <time>2023-05-27T07:38:05Z</time>
      </trkpt>
      <trkpt lat="43.37053" lon="1.75466">
        <ele>200</ele>
        <time>2023-05-27T07:38:06Z</time>
      </trkpt>
      <trkpt lat="43.37048" lon="1.7547">
        <ele>200</ele>
        <time>2023-05-27T07:38:07Z</time>
      </trkpt>
      <trkpt lat="43.37044" lon="1.75474">
        <ele>200</ele>
        <time>2023-05-27T07:38:08Z</time>
      </trkpt>
      <trkpt lat="43.3704" lon="1.75479">
        <ele>199.8</ele>
        <time>2023-05-27T07:38:09Z</time>
      </trkpt>
      <trkpt lat="43.37036" lon="1.75483">
        <ele>199.8</ele>
        <time>2023-05-27T07:38:10Z</time>
      </trkpt>
      <trkpt lat="43.37032" lon="1.75486">
        <ele>199.8</ele>
        <time>2023-05-27T07:38:11Z</time>
      </trkpt>
      <trkpt lat="43.37028" lon="1.7549">
        <ele>199.8</ele>
        <time>2023-05-27T07:38:12Z</time>
      </trkpt>
      <trkpt lat="43.37024" lon="1.75493">
        <ele>199.6</ele>
        <time>2023-05-27T07:38:13Z</time>
      </trkpt>
      <trkpt lat="43.3702" lon="1.75497">
        <ele>199.8</ele>
        <time>2023-05-27T07:38:14Z</time>
      </trkpt>
      <trkpt lat="43.37017" lon="1.75501">
        <ele>199.8</ele>
        <time>2023-05-27T07:38:15Z</time>
      </trkpt>
      <trkpt lat="43.37013" lon="1.75506">
        <ele>199.8</ele>
        <time>2023-05-27T07:38:16Z</time>
      </trkpt>
      <trkpt lat="43.37009" lon="1.7551">
        <ele>199.8</ele>
        <time>2023-05-27T07:38:17Z</time>
      </trkpt>
      <trkpt lat="43.37006" lon="1.75513">
        <ele>199.8</ele>
        <time>2023-05-27T07:38:18Z</time>
      </trkpt>
      <trkpt lat="43.37003" lon="1.75516">
        <ele>199.8</ele>
        <time>2023-05-27T07:38:19Z</time>
      </trkpt>
      <trkpt lat="43.36999" lon="1.7552">
        <ele>199.8</ele>
        <time>2023-05-27T07:38:20Z</time>
      </trkpt>
      <trkpt lat="43.36995" lon="1.75523">
        <ele>199.8</ele>
        <time>2023-05-27T07:38:21Z</time>
      </trkpt>
      <trkpt lat="43.36992" lon="1.75527">
        <ele>200</ele>
        <time>2023-05-27T07:38:22Z</time>
      </trkpt>
      <trkpt lat="43.36988" lon="1.7553">
        <ele>200</ele>
        <time>2023-05-27T07:38:23Z</time>
      </trkpt>
      <trkpt lat="43.36984" lon="1.75533">
        <ele>200</ele>
        <time>2023-05-27T07:38:24Z</time>
      </trkpt>
      <trkpt lat="43.36981" lon="1.75537">
        <ele>200.2</ele>
        <time>2023-05-27T07:38:25Z</time>
      </trkpt>
      <trkpt lat="43.36978" lon="1.7554">
        <ele>200.2</ele>
        <time>2023-05-27T07:38:26Z</time>
      </trkpt>
      <trkpt lat="43.36976" lon="1.75543">
        <ele>200.2</ele>
        <time>2023-05-27T07:38:27Z</time>
      </trkpt>
      <trkpt lat="43.36973" lon="1.75545">
        <ele>200.4</ele>
        <time>2023-05-27T07:38:28Z</time>
      </trkpt>
      <trkpt lat="43.36969" lon="1.75549">
        <ele>200.4</ele>
        <time>2023-05-27T07:38:29Z</time>
      </trkpt>
      <trkpt lat="43.36967" lon="1.75552">
        <ele>200.4</ele>
        <time>2023-05-27T07:38:30Z</time>
      </trkpt>
      <trkpt lat="43.36963" lon="1.75555">
        <ele>200.4</ele>
        <time>2023-05-27T07:38:31Z</time>
      </trkpt>
      <trkpt lat="43.36961" lon="1.75558">
        <ele>200.6</ele>
        <time>2023-05-27T07:38:32Z</time>
      </trkpt>
      <trkpt lat="43.36957" lon="1.7556">
        <ele>200.6</ele>
        <time>2023-05-27T07:38:33Z</time>
      </trkpt>
      <trkpt lat="43.36954" lon="1.75564">
        <ele>200.6</ele>
        <time>2023-05-27T07:38:34Z</time>
      </trkpt>
      <trkpt lat="43.36951" lon="1.75567">
        <ele>200.8</ele>
        <time>2023-05-27T07:38:35Z</time>
      </trkpt>
      <trkpt lat="43.36948" lon="1.7557">
        <ele>200.8</ele>
        <time>2023-05-27T07:38:36Z</time>
      </trkpt>
      <trkpt lat="43.36945" lon="1.75573">
        <ele>200.8</ele>
        <time>2023-05-27T07:38:37Z</time>
      </trkpt>
      <trkpt lat="43.36941" lon="1.75576">
        <ele>200.8</ele>
        <time>2023-05-27T07:38:38Z</time>
      </trkpt>
      <trkpt lat="43.36938" lon="1.7558">
        <ele>200.8</ele>
        <time>2023-05-27T07:38:39Z</time>
      </trkpt>
      <trkpt lat="43.36935" lon="1.75583">
        <ele>200.8</ele>
        <time>2023-05-27T07:38:40Z</time>
      </trkpt>
      <trkpt lat="43.36932" lon="1.75586">
        <ele>200.8</ele>
        <time>2023-05-27T07:38:41Z</time>
      </trkpt>
      <trkpt lat="43.36928" lon="1.75591">
        <ele>200.8</ele>
        <time>2023-05-27T07:38:42Z</time>
      </trkpt>
      <trkpt lat="43.36924" lon="1.75595">
        <ele>200.8</ele>
        <time>2023-05-27T07:38:43Z</time>
      </trkpt>
      <trkpt lat="43.36921" lon="1.75598">
        <ele>200.8</ele>
        <time>2023-05-27T07:38:44Z</time>
      </trkpt>
      <trkpt lat="43.36917" lon="1.75601">
        <ele>200.8</ele>
        <time>2023-05-27T07:38:45Z</time>
      </trkpt>
      <trkpt lat="43.36913" lon="1.75604">
        <ele>201</ele>
        <time>2023-05-27T07:38:46Z</time>
      </trkpt>
      <trkpt lat="43.36909" lon="1.75605">
        <ele>201.2</ele>
        <time>2023-05-27T07:38:47Z</time>
      </trkpt>
      <trkpt lat="43.36905" lon="1.75607">
        <ele>201.2</ele>
        <time>2023-05-27T07:38:48Z</time>
      </trkpt>
      <trkpt lat="43.36901" lon="1.75609">
        <ele>201.2</ele>
        <time>2023-05-27T07:38:49Z</time>
      </trkpt>
      <trkpt lat="43.36898" lon="1.75611">
        <ele>201.4</ele>
        <time>2023-05-27T07:38:50Z</time>
      </trkpt>
      <trkpt lat="43.36894" lon="1.75613">
        <ele>201.4</ele>
        <time>2023-05-27T07:38:51Z</time>
      </trkpt>
      <trkpt lat="43.36891" lon="1.75616">
        <ele>201.6</ele>
        <time>2023-05-27T07:38:52Z</time>
      </trkpt>
      <trkpt lat="43.36889" lon="1.75619">
        <ele>201.6</ele>
        <time>2023-05-27T07:38:53Z</time>
      </trkpt>
      <trkpt lat="43.36886" lon="1.75622">
        <ele>201.6</ele>
        <time>2023-05-27T07:38:54Z</time>
      </trkpt>
      <trkpt lat="43.36882" lon="1.75626">
        <ele>201.8</ele>
        <time>2023-05-27T07:38:55Z</time>
      </trkpt>
      <trkpt lat="43.36879" lon="1.75629">
        <ele>201.8</ele>
        <time>2023-05-27T07:38:56Z</time>
      </trkpt>
      <trkpt lat="43.36876" lon="1.75633">
        <ele>202</ele>
        <time>2023-05-27T07:38:57Z</time>
      </trkpt>
      <trkpt lat="43.36874" lon="1.75636">
        <ele>202.2</ele>
        <time>2023-05-27T07:38:58Z</time>
      </trkpt>
      <trkpt lat="43.36871" lon="1.75638">
        <ele>202.2</ele>
        <time>2023-05-27T07:38:59Z</time>
      </trkpt>
      <trkpt lat="43.36868" lon="1.75642">
        <ele>202.4</ele>
        <time>2023-05-27T07:39:00Z</time>
      </trkpt>
      <trkpt lat="43.36866" lon="1.75645">
        <ele>202.4</ele>
        <time>2023-05-27T07:39:01Z</time>
      </trkpt>
      <trkpt lat="43.36863" lon="1.75647">
        <ele>202.4</ele>
        <time>2023-05-27T07:39:02Z</time>
      </trkpt>
      <trkpt lat="43.36861" lon="1.75649">
        <ele>202.4</ele>
        <time>2023-05-27T07:39:03Z</time>
      </trkpt>
      <trkpt lat="43.36859" lon="1.75652">
        <ele>202.4</ele>
        <time>2023-05-27T07:39:04Z</time>
      </trkpt>
      <trkpt lat="43.36856" lon="1.75655">
        <ele>202.4</ele>
        <time>2023-05-27T07:39:05Z</time>
      </trkpt>
      <trkpt lat="43.36854" lon="1.75658">
        <ele>202.4</ele>
        <time>2023-05-27T07:39:06Z</time>
      </trkpt>
      <trkpt lat="43.36852" lon="1.75661">
        <ele>202.4</ele>
        <time>2023-05-27T07:39:07Z</time>
      </trkpt>
      <trkpt lat="43.3685" lon="1.75664">
        <ele>202.4</ele>
        <time>2023-05-27T07:39:08Z</time>
      </trkpt>
      <trkpt lat="43.36848" lon="1.75667">
        <ele>202.4</ele>
        <time>2023-05-27T07:39:09Z</time>
      </trkpt>
      <trkpt lat="43.36846" lon="1.75671">
        <ele>202.4</ele>
        <time>2023-05-27T07:39:10Z</time>
      </trkpt>
      <trkpt lat="43.36843" lon="1.75675">
        <ele>202.6</ele>
        <time>2023-05-27T07:39:11Z</time>
      </trkpt>
      <trkpt lat="43.3684" lon="1.75678">
        <ele>202.6</ele>
        <time>2023-05-27T07:39:12Z</time>
      </trkpt>
      <trkpt lat="43.36838" lon="1.7568">
        <ele>202.6</ele>
        <time>2023-05-27T07:39:13Z</time>
      </trkpt>
      <trkpt lat="43.36835" lon="1.75684">
        <ele>202.6</ele>
        <time>2023-05-27T07:39:14Z</time>
      </trkpt>
      <trkpt lat="43.36832" lon="1.75687">
        <ele>202.6</ele>
        <time>2023-05-27T07:39:15Z</time>
      </trkpt>
      <trkpt lat="43.3683" lon="1.7569">
        <ele>202.6</ele>
        <time>2023-05-27T07:39:16Z</time>
      </trkpt>
      <trkpt lat="43.36827" lon="1.75693">
        <ele>202.6</ele>
        <time>2023-05-27T07:39:17Z</time>
      </trkpt>
      <trkpt lat="43.36824" lon="1.75696">
        <ele>202.6</ele>
        <time>2023-05-27T07:39:18Z</time>
      </trkpt>
      <trkpt lat="43.36821" lon="1.757">
        <ele>202.8</ele>
        <time>2023-05-27T07:39:19Z</time>
      </trkpt>
      <trkpt lat="43.36819" lon="1.75704">
        <ele>202.8</ele>
        <time>2023-05-27T07:39:20Z</time>
      </trkpt>
      <trkpt lat="43.36817" lon="1.75707">
        <ele>202.8</ele>
        <time>2023-05-27T07:39:21Z</time>
      </trkpt>
      <trkpt lat="43.36815" lon="1.7571">
        <ele>202.8</ele>
        <time>2023-05-27T07:39:22Z</time>
      </trkpt>
      <trkpt lat="43.36813" lon="1.75714">
        <ele>203</ele>
        <time>2023-05-27T07:39:23Z</time>
      </trkpt>
      <trkpt lat="43.36811" lon="1.75716">
        <ele>203.2</ele>
        <time>2023-05-27T07:39:24Z</time>
      </trkpt>
      <trkpt lat="43.36809" lon="1.75718">
        <ele>203.4</ele>
        <time>2023-05-27T07:39:25Z</time>
      </trkpt>
      <trkpt lat="43.36808" lon="1.75721">
        <ele>203.6</ele>
        <time>2023-05-27T07:39:26Z</time>
      </trkpt>
      <trkpt lat="43.36806" lon="1.75723">
        <ele>203.8</ele>
        <time>2023-05-27T07:39:27Z</time>
      </trkpt>
      <trkpt lat="43.36804" lon="1.75725">
        <ele>204</ele>
        <time>2023-05-27T07:39:28Z</time>
      </trkpt>
      <trkpt lat="43.36803" lon="1.75728">
        <ele>204.2</ele>
        <time>2023-05-27T07:39:29Z</time>
      </trkpt>
      <trkpt lat="43.36801" lon="1.7573">
        <ele>204.2</ele>
        <time>2023-05-27T07:39:30Z</time>
      </trkpt>
      <trkpt lat="43.36799" lon="1.75733">
        <ele>204.4</ele>
        <time>2023-05-27T07:39:31Z</time>
      </trkpt>
      <trkpt lat="43.36797" lon="1.75736">
        <ele>204.4</ele>
        <time>2023-05-27T07:39:32Z</time>
      </trkpt>
      <trkpt lat="43.36794" lon="1.7574">
        <ele>204.6</ele>
        <time>2023-05-27T07:39:33Z</time>
      </trkpt>
      <trkpt lat="43.36792" lon="1.75742">
        <ele>204.6</ele>
        <time>2023-05-27T07:39:34Z</time>
      </trkpt>
      <trkpt lat="43.36789" lon="1.75745">
        <ele>204.6</ele>
        <time>2023-05-27T07:39:35Z</time>
      </trkpt>
      <trkpt lat="43.36786" lon="1.75749">
        <ele>204.6</ele>
        <time>2023-05-27T07:39:36Z</time>
      </trkpt>
      <trkpt lat="43.36784" lon="1.75752">
        <ele>204.6</ele>
        <time>2023-05-27T07:39:37Z</time>
      </trkpt>
      <trkpt lat="43.36781" lon="1.75755">
        <ele>204.6</ele>
        <time>2023-05-27T07:39:38Z</time>
      </trkpt>
      <trkpt lat="43.36779" lon="1.75758">
        <ele>204.8</ele>
        <time>2023-05-27T07:39:39Z</time>
      </trkpt>
      <trkpt lat="43.36777" lon="1.7576">
        <ele>204.8</ele>
        <time>2023-05-27T07:39:40Z</time>
      </trkpt>
      <trkpt lat="43.36774" lon="1.75762">
        <ele>204.8</ele>
        <time>2023-05-27T07:39:41Z</time>
      </trkpt>
      <trkpt lat="43.36772" lon="1.75765">
        <ele>204.8</ele>
        <time>2023-05-27T07:39:42Z</time>
      </trkpt>
      <trkpt lat="43.36769" lon="1.75768">
        <ele>204.8</ele>
        <time>2023-05-27T07:39:43Z</time>
      </trkpt>
      <trkpt lat="43.36766" lon="1.75772">
        <ele>204.8</ele>
        <time>2023-05-27T07:39:44Z</time>
      </trkpt>
      <trkpt lat="43.36763" lon="1.75775">
        <ele>204.8</ele>
        <time>2023-05-27T07:39:45Z</time>
      </trkpt>
      <trkpt lat="43.36761" lon="1.75778">
        <ele>204.8</ele>
        <time>2023-05-27T07:39:46Z</time>
      </trkpt>
      <trkpt lat="43.36758" lon="1.75783">
        <ele>204.8</ele>
        <time>2023-05-27T07:39:47Z</time>
      </trkpt>
      <trkpt lat="43.36755" lon="1.75787">
        <ele>204.6</ele>
        <time>2023-05-27T07:39:48Z</time>
      </trkpt>
      <trkpt lat="43.36752" lon="1.75791">
        <ele>204.6</ele>
        <time>2023-05-27T07:39:49Z</time>
      </trkpt>
      <trkpt lat="43.36749" lon="1.75796">
        <ele>204.6</ele>
        <time>2023-05-27T07:39:50Z</time>
      </trkpt>
      <trkpt lat="43.36746" lon="1.75801">
        <ele>204.6</ele>
        <time>2023-05-27T07:39:51Z</time>
      </trkpt>
      <trkpt lat="43.36744" lon="1.75804">
        <ele>204.6</ele>
        <time>2023-05-27T07:39:52Z</time>
      </trkpt>
      <trkpt lat="43.36741" lon="1.75809">
        <ele>204.6</ele>
        <time>2023-05-27T07:39:53Z</time>
      </trkpt>
      <trkpt lat="43.36738" lon="1.75815">
        <ele>204.6</ele>
        <time>2023-05-27T07:39:54Z</time>
      </trkpt>
      <trkpt lat="43.36736" lon="1.7582">
        <ele>204.6</ele>
        <time>2023-05-27T07:39:55Z</time>
      </trkpt>
      <trkpt lat="43.36733" lon="1.75826">
        <ele>204.6</ele>
        <time>2023-05-27T07:39:56Z</time>
      </trkpt>
      <trkpt lat="43.3673" lon="1.75831">
        <ele>204.6</ele>
        <time>2023-05-27T07:39:57Z</time>
      </trkpt>
      <trkpt lat="43.36727" lon="1.75837">
        <ele>204.6</ele>
        <time>2023-05-27T07:39:58Z</time>
      </trkpt>
      <trkpt lat="43.36725" lon="1.75842">
        <ele>204.6</ele>
        <time>2023-05-27T07:39:59Z</time>
      </trkpt>
      <trkpt lat="43.36722" lon="1.75847">
        <ele>204.6</ele>
        <time>2023-05-27T07:40:00Z</time>
      </trkpt>
      <trkpt lat="43.3672" lon="1.75853">
        <ele>204.6</ele>
        <time>2023-05-27T07:40:01Z</time>
      </trkpt>
      <trkpt lat="43.36718" lon="1.75859">
        <ele>204.8</ele>
        <time>2023-05-27T07:40:02Z</time>
      </trkpt>
      <trkpt lat="43.36715" lon="1.75864">
        <ele>204.8</ele>
        <time>2023-05-27T07:40:03Z</time>
      </trkpt>
      <trkpt lat="43.36714" lon="1.75867">
        <ele>204.8</ele>
        <time>2023-05-27T07:40:04Z</time>
      </trkpt>
      <trkpt lat="43.36712" lon="1.75872">
        <ele>205</ele>
        <time>2023-05-27T07:40:05Z</time>
      </trkpt>
      <trkpt lat="43.3671" lon="1.75877">
        <ele>205</ele>
        <time>2023-05-27T07:40:06Z</time>
      </trkpt>
      <trkpt lat="43.36708" lon="1.75883">
        <ele>205.2</ele>
        <time>2023-05-27T07:40:07Z</time>
      </trkpt>
      <trkpt lat="43.36707" lon="1.75888">
        <ele>205.2</ele>
        <time>2023-05-27T07:40:08Z</time>
      </trkpt>
      <trkpt lat="43.36705" lon="1.75891">
        <ele>205.4</ele>
        <time>2023-05-27T07:40:09Z</time>
      </trkpt>
      <trkpt lat="43.36703" lon="1.75896">
        <ele>205.4</ele>
        <time>2023-05-27T07:40:10Z</time>
      </trkpt>
      <trkpt lat="43.36701" lon="1.75901">
        <ele>205.6</ele>
        <time>2023-05-27T07:40:11Z</time>
      </trkpt>
      <trkpt lat="43.36699" lon="1.75905">
        <ele>205.6</ele>
        <time>2023-05-27T07:40:12Z</time>
      </trkpt>
      <trkpt lat="43.36697" lon="1.7591">
        <ele>205.6</ele>
        <time>2023-05-27T07:40:13Z</time>
      </trkpt>
      <trkpt lat="43.36695" lon="1.75915">
        <ele>205.6</ele>
        <time>2023-05-27T07:40:14Z</time>
      </trkpt>
      <trkpt lat="43.36693" lon="1.7592">
        <ele>205.6</ele>
        <time>2023-05-27T07:40:15Z</time>
      </trkpt>
      <trkpt lat="43.36691" lon="1.75926">
        <ele>205.6</ele>
        <time>2023-05-27T07:40:16Z</time>
      </trkpt>
      <trkpt lat="43.36689" lon="1.75931">
        <ele>205.6</ele>
        <time>2023-05-27T07:40:17Z</time>
      </trkpt>
      <trkpt lat="43.36687" lon="1.75936">
        <ele>205.6</ele>
        <time>2023-05-27T07:40:18Z</time>
      </trkpt>
      <trkpt lat="43.36684" lon="1.75941">
        <ele>205.6</ele>
        <time>2023-05-27T07:40:19Z</time>
      </trkpt>
      <trkpt lat="43.36682" lon="1.75947">
        <ele>205.4</ele>
        <time>2023-05-27T07:40:20Z</time>
      </trkpt>
      <trkpt lat="43.3668" lon="1.75951">
        <ele>205.4</ele>
        <time>2023-05-27T07:40:21Z</time>
      </trkpt>
      <trkpt lat="43.36678" lon="1.75957">
        <ele>205.4</ele>
        <time>2023-05-27T07:40:22Z</time>
      </trkpt>
      <trkpt lat="43.36676" lon="1.75963">
        <ele>205.4</ele>
        <time>2023-05-27T07:40:23Z</time>
      </trkpt>
      <trkpt lat="43.36674" lon="1.75968">
        <ele>205.4</ele>
        <time>2023-05-27T07:40:24Z</time>
      </trkpt>
      <trkpt lat="43.36671" lon="1.75975">
        <ele>205.4</ele>
        <time>2023-05-27T07:40:25Z</time>
      </trkpt>
      <trkpt lat="43.3667" lon="1.7598">
        <ele>205.4</ele>
        <time>2023-05-27T07:40:26Z</time>
      </trkpt>
      <trkpt lat="43.36667" lon="1.75985">
        <ele>205.4</ele>
        <time>2023-05-27T07:40:27Z</time>
      </trkpt>
      <trkpt lat="43.36665" lon="1.75991">
        <ele>205.4</ele>
        <time>2023-05-27T07:40:28Z</time>
      </trkpt>
      <trkpt lat="43.36662" lon="1.75998">
        <ele>205.4</ele>
        <time>2023-05-27T07:40:29Z</time>
      </trkpt>
      <trkpt lat="43.3666" lon="1.76003">
        <ele>205.4</ele>
        <time>2023-05-27T07:40:30Z</time>
      </trkpt>
      <trkpt lat="43.36658" lon="1.76008">
        <ele>205.6</ele>
        <time>2023-05-27T07:40:31Z</time>
      </trkpt>
      <trkpt lat="43.36656" lon="1.76013">
        <ele>205.6</ele>
        <time>2023-05-27T07:40:32Z</time>
      </trkpt>
      <trkpt lat="43.36654" lon="1.76018">
        <ele>205.6</ele>
        <time>2023-05-27T07:40:33Z</time>
      </trkpt>
      <trkpt lat="43.36652" lon="1.76023">
        <ele>205.8</ele>
        <time>2023-05-27T07:40:34Z</time>
      </trkpt>
      <trkpt lat="43.3665" lon="1.76028">
        <ele>206</ele>
        <time>2023-05-27T07:40:35Z</time>
      </trkpt>
      <trkpt lat="43.36649" lon="1.76032">
        <ele>206</ele>
        <time>2023-05-27T07:40:36Z</time>
      </trkpt>
      <trkpt lat="43.36647" lon="1.76037">
        <ele>206</ele>
        <time>2023-05-27T07:40:37Z</time>
      </trkpt>
      <trkpt lat="43.36645" lon="1.76041">
        <ele>206</ele>
        <time>2023-05-27T07:40:38Z</time>
      </trkpt>
      <trkpt lat="43.36643" lon="1.76045">
        <ele>206.2</ele>
        <time>2023-05-27T07:40:39Z</time>
      </trkpt>
      <trkpt lat="43.36641" lon="1.7605">
        <ele>206.2</ele>
        <time>2023-05-27T07:40:40Z</time>
      </trkpt>
      <trkpt lat="43.36639" lon="1.76055">
        <ele>206.2</ele>
        <time>2023-05-27T07:40:41Z</time>
      </trkpt>
      <trkpt lat="43.36636" lon="1.76062">
        <ele>206</ele>
        <time>2023-05-27T07:40:42Z</time>
      </trkpt>
      <trkpt lat="43.36634" lon="1.76067">
        <ele>206</ele>
        <time>2023-05-27T07:40:43Z</time>
      </trkpt>
      <trkpt lat="43.36632" lon="1.76072">
        <ele>206</ele>
        <time>2023-05-27T07:40:44Z</time>
      </trkpt>
      <trkpt lat="43.36629" lon="1.76079">
        <ele>205.8</ele>
        <time>2023-05-27T07:40:45Z</time>
      </trkpt>
      <trkpt lat="43.36626" lon="1.76086">
        <ele>205.6</ele>
        <time>2023-05-27T07:40:46Z</time>
      </trkpt>
      <trkpt lat="43.36624" lon="1.76092">
        <ele>205.6</ele>
        <time>2023-05-27T07:40:47Z</time>
      </trkpt>
      <trkpt lat="43.36622" lon="1.76099">
        <ele>205.4</ele>
        <time>2023-05-27T07:40:48Z</time>
      </trkpt>
      <trkpt lat="43.3662" lon="1.76107">
        <ele>205.4</ele>
        <time>2023-05-27T07:40:49Z</time>
      </trkpt>
      <trkpt lat="43.36618" lon="1.76114">
        <ele>205.4</ele>
        <time>2023-05-27T07:40:50Z</time>
      </trkpt>
      <trkpt lat="43.36615" lon="1.76122">
        <ele>205.4</ele>
        <time>2023-05-27T07:40:51Z</time>
      </trkpt>
      <trkpt lat="43.36614" lon="1.76128">
        <ele>205.4</ele>
        <time>2023-05-27T07:40:52Z</time>
      </trkpt>
      <trkpt lat="43.36612" lon="1.76133">
        <ele>205.6</ele>
        <time>2023-05-27T07:40:53Z</time>
      </trkpt>
      <trkpt lat="43.36611" lon="1.7614">
        <ele>205.6</ele>
        <time>2023-05-27T07:40:54Z</time>
      </trkpt>
      <trkpt lat="43.36609" lon="1.76147">
        <ele>205.6</ele>
        <time>2023-05-27T07:40:55Z</time>
      </trkpt>
      <trkpt lat="43.36608" lon="1.76153">
        <ele>205.6</ele>
        <time>2023-05-27T07:40:56Z</time>
      </trkpt>
      <trkpt lat="43.36607" lon="1.76159">
        <ele>205.6</ele>
        <time>2023-05-27T07:40:57Z</time>
      </trkpt>
      <trkpt lat="43.36605" lon="1.76166">
        <ele>205.6</ele>
        <time>2023-05-27T07:40:58Z</time>
      </trkpt>
      <trkpt lat="43.36604" lon="1.76172">
        <ele>205.6</ele>
        <time>2023-05-27T07:40:59Z</time>
      </trkpt>
      <trkpt lat="43.36602" lon="1.76179">
        <ele>205.6</ele>
        <time>2023-05-27T07:41:00Z</time>
      </trkpt>
      <trkpt lat="43.366" lon="1.76186">
        <ele>205.6</ele>
        <time>2023-05-27T07:41:01Z</time>
      </trkpt>
      <trkpt lat="43.36599" lon="1.76192">
        <ele>205.6</ele>
        <time>2023-05-27T07:41:02Z</time>
      </trkpt>
      <trkpt lat="43.36597" lon="1.76199">
        <ele>205.6</ele>
        <time>2023-05-27T07:41:03Z</time>
      </trkpt>
      <trkpt lat="43.36596" lon="1.76207">
        <ele>205.4</ele>
        <time>2023-05-27T07:41:04Z</time>
      </trkpt>
      <trkpt lat="43.36594" lon="1.76214">
        <ele>205.2</ele>
        <time>2023-05-27T07:41:05Z</time>
      </trkpt>
      <trkpt lat="43.36593" lon="1.76222">
        <ele>205</ele>
        <time>2023-05-27T07:41:06Z</time>
      </trkpt>
      <trkpt lat="43.36591" lon="1.7623">
        <ele>204.8</ele>
        <time>2023-05-27T07:41:07Z</time>
      </trkpt>
      <trkpt lat="43.3659" lon="1.7624">
        <ele>204.8</ele>
        <time>2023-05-27T07:41:08Z</time>
      </trkpt>
      <trkpt lat="43.36588" lon="1.76249">
        <ele>204.8</ele>
        <time>2023-05-27T07:41:09Z</time>
      </trkpt>
      <trkpt lat="43.36587" lon="1.76256">
        <ele>204.6</ele>
        <time>2023-05-27T07:41:10Z</time>
      </trkpt>
      <trkpt lat="43.36586" lon="1.76265">
        <ele>204.8</ele>
        <time>2023-05-27T07:41:11Z</time>
      </trkpt>
      <trkpt lat="43.36585" lon="1.76272">
        <ele>204.8</ele>
        <time>2023-05-27T07:41:12Z</time>
      </trkpt>
      <trkpt lat="43.36584" lon="1.76278">
        <ele>204.8</ele>
        <time>2023-05-27T07:41:13Z</time>
      </trkpt>
      <trkpt lat="43.36584" lon="1.76285">
        <ele>204.8</ele>
        <time>2023-05-27T07:41:14Z</time>
      </trkpt>
      <trkpt lat="43.36583" lon="1.76292">
        <ele>205</ele>
        <time>2023-05-27T07:41:15Z</time>
      </trkpt>
      <trkpt lat="43.36582" lon="1.76298">
        <ele>205</ele>
        <time>2023-05-27T07:41:16Z</time>
      </trkpt>
      <trkpt lat="43.36582" lon="1.76305">
        <ele>205.2</ele>
        <time>2023-05-27T07:41:17Z</time>
      </trkpt>
      <trkpt lat="43.36582" lon="1.76312">
        <ele>205.4</ele>
        <time>2023-05-27T07:41:18Z</time>
      </trkpt>
      <trkpt lat="43.36581" lon="1.76317">
        <ele>205.4</ele>
        <time>2023-05-27T07:41:19Z</time>
      </trkpt>
      <trkpt lat="43.36581" lon="1.76323">
        <ele>205.6</ele>
        <time>2023-05-27T07:41:20Z</time>
      </trkpt>
      <trkpt lat="43.3658" lon="1.76328">
        <ele>205.8</ele>
        <time>2023-05-27T07:41:21Z</time>
      </trkpt>
      <trkpt lat="43.3658" lon="1.76333">
        <ele>205.8</ele>
        <time>2023-05-27T07:41:22Z</time>
      </trkpt>
      <trkpt lat="43.36579" lon="1.76337">
        <ele>206</ele>
        <time>2023-05-27T07:41:23Z</time>
      </trkpt>
      <trkpt lat="43.36578" lon="1.76342">
        <ele>206</ele>
        <time>2023-05-27T07:41:24Z</time>
      </trkpt>
      <trkpt lat="43.36578" lon="1.76347">
        <ele>206.2</ele>
        <time>2023-05-27T07:41:25Z</time>
      </trkpt>
      <trkpt lat="43.36577" lon="1.76353">
        <ele>206.2</ele>
        <time>2023-05-27T07:41:26Z</time>
      </trkpt>
      <trkpt lat="43.36576" lon="1.76358">
        <ele>206.2</ele>
        <time>2023-05-27T07:41:27Z</time>
      </trkpt>
      <trkpt lat="43.36575" lon="1.76363">
        <ele>206.2</ele>
        <time>2023-05-27T07:41:28Z</time>
      </trkpt>
      <trkpt lat="43.36573" lon="1.76369">
        <ele>206.2</ele>
        <time>2023-05-27T07:41:29Z</time>
      </trkpt>
      <trkpt lat="43.36572" lon="1.76375">
        <ele>206.2</ele>
        <time>2023-05-27T07:41:30Z</time>
      </trkpt>
      <trkpt lat="43.36571" lon="1.7638">
        <ele>206.2</ele>
        <time>2023-05-27T07:41:31Z</time>
      </trkpt>
      <trkpt lat="43.3657" lon="1.76385">
        <ele>206.4</ele>
        <time>2023-05-27T07:41:32Z</time>
      </trkpt>
      <trkpt lat="43.36569" lon="1.76391">
        <ele>206.4</ele>
        <time>2023-05-27T07:41:33Z</time>
      </trkpt>
      <trkpt lat="43.36568" lon="1.76396">
        <ele>206.4</ele>
        <time>2023-05-27T07:41:34Z</time>
      </trkpt>
      <trkpt lat="43.36567" lon="1.76401">
        <ele>206.6</ele>
        <time>2023-05-27T07:41:35Z</time>
      </trkpt>
      <trkpt lat="43.36566" lon="1.76406">
        <ele>206.6</ele>
        <time>2023-05-27T07:41:36Z</time>
      </trkpt>
      <trkpt lat="43.36565" lon="1.76411">
        <ele>206.6</ele>
        <time>2023-05-27T07:41:37Z</time>
      </trkpt>
      <trkpt lat="43.36563" lon="1.76416">
        <ele>206.6</ele>
        <time>2023-05-27T07:41:38Z</time>
      </trkpt>
      <trkpt lat="43.36561" lon="1.76421">
        <ele>206.6</ele>
        <time>2023-05-27T07:41:39Z</time>
      </trkpt>
      <trkpt lat="43.3656" lon="1.76426">
        <ele>206.6</ele>
        <time>2023-05-27T07:41:40Z</time>
      </trkpt>
      <trkpt lat="43.36558" lon="1.76431">
        <ele>206.6</ele>
        <time>2023-05-27T07:41:41Z</time>
      </trkpt>
      <trkpt lat="43.36555" lon="1.76438">
        <ele>206.4</ele>
        <time>2023-05-27T07:41:42Z</time>
      </trkpt>
      <trkpt lat="43.36552" lon="1.76443">
        <ele>206.2</ele>
        <time>2023-05-27T07:41:43Z</time>
      </trkpt>
      <trkpt lat="43.36549" lon="1.76448">
        <ele>206</ele>
        <time>2023-05-27T07:41:44Z</time>
      </trkpt>
      <trkpt lat="43.36545" lon="1.76455">
        <ele>205.8</ele>
        <time>2023-05-27T07:41:45Z</time>
      </trkpt>
      <trkpt lat="43.36541" lon="1.76463">
        <ele>205.6</ele>
        <time>2023-05-27T07:41:46Z</time>
      </trkpt>
      <trkpt lat="43.36537" lon="1.7647">
        <ele>205.4</ele>
        <time>2023-05-27T07:41:47Z</time>
      </trkpt>
      <trkpt lat="43.36533" lon="1.76478">
        <ele>205.4</ele>
        <time>2023-05-27T07:41:48Z</time>
      </trkpt>
      <trkpt lat="43.3653" lon="1.76484">
        <ele>205.2</ele>
        <time>2023-05-27T07:41:49Z</time>
      </trkpt>
      <trkpt lat="43.36527" lon="1.76491">
        <ele>205</ele>
        <time>2023-05-27T07:41:50Z</time>
      </trkpt>
      <trkpt lat="43.36522" lon="1.76499">
        <ele>204.8</ele>
        <time>2023-05-27T07:41:51Z</time>
      </trkpt>
      <trkpt lat="43.36519" lon="1.76506">
        <ele>204.8</ele>
        <time>2023-05-27T07:41:52Z</time>
      </trkpt>
      <trkpt lat="43.36516" lon="1.76513">
        <ele>204.6</ele>
        <time>2023-05-27T07:41:53Z</time>
      </trkpt>
      <trkpt lat="43.36512" lon="1.7652">
        <ele>204.6</ele>
        <time>2023-05-27T07:41:54Z</time>
      </trkpt>
      <trkpt lat="43.36509" lon="1.76527">
        <ele>204.4</ele>
        <time>2023-05-27T07:41:55Z</time>
      </trkpt>
      <trkpt lat="43.36506" lon="1.76534">
        <ele>204.4</ele>
        <time>2023-05-27T07:41:56Z</time>
      </trkpt>
      <trkpt lat="43.36503" lon="1.7654">
        <ele>204.4</ele>
        <time>2023-05-27T07:41:57Z</time>
      </trkpt>
      <trkpt lat="43.365" lon="1.76546">
        <ele>204.4</ele>
        <time>2023-05-27T07:41:58Z</time>
      </trkpt>
      <trkpt lat="43.36498" lon="1.76553">
        <ele>204.4</ele>
        <time>2023-05-27T07:41:59Z</time>
      </trkpt>
      <trkpt lat="43.36495" lon="1.7656">
        <ele>204.4</ele>
        <time>2023-05-27T07:42:00Z</time>
      </trkpt>
      <trkpt lat="43.36493" lon="1.76567">
        <ele>204.4</ele>
        <time>2023-05-27T07:42:01Z</time>
      </trkpt>
      <trkpt lat="43.36491" lon="1.76573">
        <ele>204.4</ele>
        <time>2023-05-27T07:42:02Z</time>
      </trkpt>
      <trkpt lat="43.36488" lon="1.7658">
        <ele>204.4</ele>
        <time>2023-05-27T07:42:03Z</time>
      </trkpt>
      <trkpt lat="43.36486" lon="1.76586">
        <ele>204.4</ele>
        <time>2023-05-27T07:42:04Z</time>
      </trkpt>
      <trkpt lat="43.36483" lon="1.76594">
        <ele>204.4</ele>
        <time>2023-05-27T07:42:05Z</time>
      </trkpt>
      <trkpt lat="43.36481" lon="1.76601">
        <ele>204.4</ele>
        <time>2023-05-27T07:42:06Z</time>
      </trkpt>
      <trkpt lat="43.36479" lon="1.76606">
        <ele>204.4</ele>
        <time>2023-05-27T07:42:07Z</time>
      </trkpt>
      <trkpt lat="43.36477" lon="1.76614">
        <ele>204.4</ele>
        <time>2023-05-27T07:42:08Z</time>
      </trkpt>
      <trkpt lat="43.36474" lon="1.76621">
        <ele>204.4</ele>
        <time>2023-05-27T07:42:09Z</time>
      </trkpt>
      <trkpt lat="43.36472" lon="1.76627">
        <ele>204.4</ele>
        <time>2023-05-27T07:42:10Z</time>
      </trkpt>
      <trkpt lat="43.3647" lon="1.76632">
        <ele>204.4</ele>
        <time>2023-05-27T07:42:11Z</time>
      </trkpt>
      <trkpt lat="43.36467" lon="1.76639">
        <ele>204.4</ele>
        <time>2023-05-27T07:42:12Z</time>
      </trkpt>
      <trkpt lat="43.36465" lon="1.76646">
        <ele>204.4</ele>
        <time>2023-05-27T07:42:13Z</time>
      </trkpt>
      <trkpt lat="43.36462" lon="1.76653">
        <ele>204.4</ele>
        <time>2023-05-27T07:42:14Z</time>
      </trkpt>
      <trkpt lat="43.3646" lon="1.76659">
        <ele>204.4</ele>
        <time>2023-05-27T07:42:15Z</time>
      </trkpt>
      <trkpt lat="43.36458" lon="1.76665">
        <ele>204.4</ele>
        <time>2023-05-27T07:42:16Z</time>
      </trkpt>
      <trkpt lat="43.36456" lon="1.76671">
        <ele>204.4</ele>
        <time>2023-05-27T07:42:17Z</time>
      </trkpt>
      <trkpt lat="43.36453" lon="1.76678">
        <ele>204.4</ele>
        <time>2023-05-27T07:42:18Z</time>
      </trkpt>
      <trkpt lat="43.36452" lon="1.76684">
        <ele>204.4</ele>
        <time>2023-05-27T07:42:19Z</time>
      </trkpt>
      <trkpt lat="43.3645" lon="1.7669">
        <ele>204.4</ele>
        <time>2023-05-27T07:42:20Z</time>
      </trkpt>
      <trkpt lat="43.36448" lon="1.76695">
        <ele>204.4</ele>
        <time>2023-05-27T07:42:21Z</time>
      </trkpt>
      <trkpt lat="43.36446" lon="1.76701">
        <ele>204.4</ele>
        <time>2023-05-27T07:42:22Z</time>
      </trkpt>
      <trkpt lat="43.36443" lon="1.76708">
        <ele>204.4</ele>
        <time>2023-05-27T07:42:23Z</time>
      </trkpt>
      <trkpt lat="43.36442" lon="1.76714">
        <ele>204.4</ele>
        <time>2023-05-27T07:42:24Z</time>
      </trkpt>
      <trkpt lat="43.3644" lon="1.7672">
        <ele>204.4</ele>
        <time>2023-05-27T07:42:25Z</time>
      </trkpt>
      <trkpt lat="43.36438" lon="1.76727">
        <ele>204.4</ele>
        <time>2023-05-27T07:42:26Z</time>
      </trkpt>
      <trkpt lat="43.36436" lon="1.76734">
        <ele>204.4</ele>
        <time>2023-05-27T07:42:27Z</time>
      </trkpt>
      <trkpt lat="43.36434" lon="1.7674">
        <ele>204.4</ele>
        <time>2023-05-27T07:42:28Z</time>
      </trkpt>
      <trkpt lat="43.36432" lon="1.76746">
        <ele>204.4</ele>
        <time>2023-05-27T07:42:29Z</time>
      </trkpt>
      <trkpt lat="43.3643" lon="1.76753">
        <ele>204.2</ele>
        <time>2023-05-27T07:42:30Z</time>
      </trkpt>
      <trkpt lat="43.36428" lon="1.7676">
        <ele>204</ele>
        <time>2023-05-27T07:42:31Z</time>
      </trkpt>
      <trkpt lat="43.36426" lon="1.76769">
        <ele>204</ele>
        <time>2023-05-27T07:42:32Z</time>
      </trkpt>
      <trkpt lat="43.36424" lon="1.76775">
        <ele>204</ele>
        <time>2023-05-27T07:42:33Z</time>
      </trkpt>
      <trkpt lat="43.36423" lon="1.76781">
        <ele>204</ele>
        <time>2023-05-27T07:42:34Z</time>
      </trkpt>
      <trkpt lat="43.36421" lon="1.76788">
        <ele>204</ele>
        <time>2023-05-27T07:42:35Z</time>
      </trkpt>
      <trkpt lat="43.3642" lon="1.76794">
        <ele>204.2</ele>
        <time>2023-05-27T07:42:36Z</time>
      </trkpt>
      <trkpt lat="43.36418" lon="1.76799">
        <ele>204.2</ele>
        <time>2023-05-27T07:42:37Z</time>
      </trkpt>
      <trkpt lat="43.36416" lon="1.76806">
        <ele>204.2</ele>
        <time>2023-05-27T07:42:38Z</time>
      </trkpt>
      <trkpt lat="43.36415" lon="1.76812">
        <ele>204.2</ele>
        <time>2023-05-27T07:42:39Z</time>
      </trkpt>
      <trkpt lat="43.36414" lon="1.76818">
        <ele>204.2</ele>
        <time>2023-05-27T07:42:40Z</time>
      </trkpt>
      <trkpt lat="43.36412" lon="1.76824">
        <ele>204.2</ele>
        <time>2023-05-27T07:42:41Z</time>
      </trkpt>
      <trkpt lat="43.36411" lon="1.7683">
        <ele>204.2</ele>
        <time>2023-05-27T07:42:42Z</time>
      </trkpt>
      <trkpt lat="43.3641" lon="1.76837">
        <ele>204.2</ele>
        <time>2023-05-27T07:42:43Z</time>
      </trkpt>
      <trkpt lat="43.36409" lon="1.76844">
        <ele>204.2</ele>
        <time>2023-05-27T07:42:44Z</time>
      </trkpt>
      <trkpt lat="43.36408" lon="1.7685">
        <ele>204.4</ele>
        <time>2023-05-27T07:42:45Z</time>
      </trkpt>
      <trkpt lat="43.36407" lon="1.76856">
        <ele>204.4</ele>
        <time>2023-05-27T07:42:46Z</time>
      </trkpt>
      <trkpt lat="43.36407" lon="1.76863">
        <ele>204.2</ele>
        <time>2023-05-27T07:42:47Z</time>
      </trkpt>
      <trkpt lat="43.36406" lon="1.76869">
        <ele>204.2</ele>
        <time>2023-05-27T07:42:48Z</time>
      </trkpt>
      <trkpt lat="43.36406" lon="1.76876">
        <ele>204.2</ele>
        <time>2023-05-27T07:42:49Z</time>
      </trkpt>
      <trkpt lat="43.36405" lon="1.76882">
        <ele>204.2</ele>
        <time>2023-05-27T07:42:50Z</time>
      </trkpt>
      <trkpt lat="43.36405" lon="1.76888">
        <ele>204.2</ele>
        <time>2023-05-27T07:42:51Z</time>
      </trkpt>
      <trkpt lat="43.36404" lon="1.76896">
        <ele>204.2</ele>
        <time>2023-05-27T07:42:52Z</time>
      </trkpt>
      <trkpt lat="43.36403" lon="1.76902">
        <ele>204.2</ele>
        <time>2023-05-27T07:42:53Z</time>
      </trkpt>
      <trkpt lat="43.36403" lon="1.76908">
        <ele>204.2</ele>
        <time>2023-05-27T07:42:54Z</time>
      </trkpt>
      <trkpt lat="43.36402" lon="1.76914">
        <ele>204.2</ele>
        <time>2023-05-27T07:42:55Z</time>
      </trkpt>
      <trkpt lat="43.36402" lon="1.76921">
        <ele>204.2</ele>
        <time>2023-05-27T07:42:56Z</time>
      </trkpt>
      <trkpt lat="43.36402" lon="1.76929">
        <ele>204.2</ele>
        <time>2023-05-27T07:42:57Z</time>
      </trkpt>
      <trkpt lat="43.36401" lon="1.76936">
        <ele>204.2</ele>
        <time>2023-05-27T07:42:58Z</time>
      </trkpt>
      <trkpt lat="43.36401" lon="1.76942">
        <ele>204.2</ele>
        <time>2023-05-27T07:42:59Z</time>
      </trkpt>
      <trkpt lat="43.36401" lon="1.76948">
        <ele>204</ele>
        <time>2023-05-27T07:43:00Z</time>
      </trkpt>
      <trkpt lat="43.364" lon="1.76956">
        <ele>204</ele>
        <time>2023-05-27T07:43:01Z</time>
      </trkpt>
      <trkpt lat="43.364" lon="1.76962">
        <ele>204</ele>
        <time>2023-05-27T07:43:02Z</time>
      </trkpt>
      <trkpt lat="43.364" lon="1.76968">
        <ele>204</ele>
        <time>2023-05-27T07:43:03Z</time>
      </trkpt>
      <trkpt lat="43.36399" lon="1.76975">
        <ele>204</ele>
        <time>2023-05-27T07:43:04Z</time>
      </trkpt>
      <trkpt lat="43.36399" lon="1.76981">
        <ele>204</ele>
        <time>2023-05-27T07:43:05Z</time>
      </trkpt>
      <trkpt lat="43.36398" lon="1.76989">
        <ele>204.2</ele>
        <time>2023-05-27T07:43:06Z</time>
      </trkpt>
      <trkpt lat="43.36397" lon="1.76996">
        <ele>204.2</ele>
        <time>2023-05-27T07:43:07Z</time>
      </trkpt>
      <trkpt lat="43.36396" lon="1.77001">
        <ele>204.2</ele>
        <time>2023-05-27T07:43:08Z</time>
      </trkpt>
      <trkpt lat="43.36395" lon="1.77007">
        <ele>204.2</ele>
        <time>2023-05-27T07:43:09Z</time>
      </trkpt>
      <trkpt lat="43.36394" lon="1.77013">
        <ele>204.2</ele>
        <time>2023-05-27T07:43:10Z</time>
      </trkpt>
      <trkpt lat="43.36393" lon="1.77019">
        <ele>204.4</ele>
        <time>2023-05-27T07:43:11Z</time>
      </trkpt>
      <trkpt lat="43.36393" lon="1.77025">
        <ele>204.2</ele>
        <time>2023-05-27T07:43:12Z</time>
      </trkpt>
      <trkpt lat="43.36392" lon="1.77032">
        <ele>204.2</ele>
        <time>2023-05-27T07:43:13Z</time>
      </trkpt>
      <trkpt lat="43.36391" lon="1.77038">
        <ele>204.2</ele>
        <time>2023-05-27T07:43:14Z</time>
      </trkpt>
      <trkpt lat="43.3639" lon="1.77045">
        <ele>204.2</ele>
        <time>2023-05-27T07:43:15Z</time>
      </trkpt>
      <trkpt lat="43.36389" lon="1.77051">
        <ele>204.2</ele>
        <time>2023-05-27T07:43:16Z</time>
      </trkpt>
      <trkpt lat="43.36389" lon="1.77058">
        <ele>204.2</ele>
        <time>2023-05-27T07:43:17Z</time>
      </trkpt>
      <trkpt lat="43.36388" lon="1.77065">
        <ele>204.2</ele>
        <time>2023-05-27T07:43:18Z</time>
      </trkpt>
      <trkpt lat="43.36387" lon="1.77072">
        <ele>204</ele>
        <time>2023-05-27T07:43:19Z</time>
      </trkpt>
      <trkpt lat="43.36386" lon="1.77078">
        <ele>204</ele>
        <time>2023-05-27T07:43:20Z</time>
      </trkpt>
      <trkpt lat="43.36385" lon="1.77084">
        <ele>204</ele>
        <time>2023-05-27T07:43:21Z</time>
      </trkpt>
      <trkpt lat="43.36384" lon="1.77092">
        <ele>204</ele>
        <time>2023-05-27T07:43:22Z</time>
      </trkpt>
      <trkpt lat="43.36383" lon="1.77099">
        <ele>204</ele>
        <time>2023-05-27T07:43:23Z</time>
      </trkpt>
      <trkpt lat="43.36383" lon="1.77104">
        <ele>204</ele>
        <time>2023-05-27T07:43:24Z</time>
      </trkpt>
      <trkpt lat="43.36382" lon="1.7711">
        <ele>204</ele>
        <time>2023-05-27T07:43:25Z</time>
      </trkpt>
      <trkpt lat="43.36381" lon="1.77117">
        <ele>204</ele>
        <time>2023-05-27T07:43:26Z</time>
      </trkpt>
      <trkpt lat="43.3638" lon="1.77124">
        <ele>204</ele>
        <time>2023-05-27T07:43:27Z</time>
      </trkpt>
      <trkpt lat="43.36379" lon="1.7713">
        <ele>204</ele>
        <time>2023-05-27T07:43:28Z</time>
      </trkpt>
      <trkpt lat="43.36378" lon="1.77135">
        <ele>204</ele>
        <time>2023-05-27T07:43:29Z</time>
      </trkpt>
      <trkpt lat="43.36377" lon="1.77141">
        <ele>204</ele>
        <time>2023-05-27T07:43:30Z</time>
      </trkpt>
      <trkpt lat="43.36376" lon="1.77148">
        <ele>204</ele>
        <time>2023-05-27T07:43:31Z</time>
      </trkpt>
      <trkpt lat="43.36375" lon="1.77154">
        <ele>204.2</ele>
        <time>2023-05-27T07:43:32Z</time>
      </trkpt>
      <trkpt lat="43.36374" lon="1.7716">
        <ele>204</ele>
        <time>2023-05-27T07:43:33Z</time>
      </trkpt>
      <trkpt lat="43.36374" lon="1.77166">
        <ele>204</ele>
        <time>2023-05-27T07:43:34Z</time>
      </trkpt>
      <trkpt lat="43.36372" lon="1.77172">
        <ele>204</ele>
        <time>2023-05-27T07:43:35Z</time>
      </trkpt>
      <trkpt lat="43.36371" lon="1.7718">
        <ele>204</ele>
        <time>2023-05-27T07:43:36Z</time>
      </trkpt>
      <trkpt lat="43.3637" lon="1.77186">
        <ele>204</ele>
        <time>2023-05-27T07:43:37Z</time>
      </trkpt>
      <trkpt lat="43.36369" lon="1.77192">
        <ele>204</ele>
        <time>2023-05-27T07:43:38Z</time>
      </trkpt>
      <trkpt lat="43.36367" lon="1.77198">
        <ele>204</ele>
        <time>2023-05-27T07:43:39Z</time>
      </trkpt>
      <trkpt lat="43.36365" lon="1.77205">
        <ele>204</ele>
        <time>2023-05-27T07:43:40Z</time>
      </trkpt>
      <trkpt lat="43.36363" lon="1.77212">
        <ele>203.8</ele>
        <time>2023-05-27T07:43:41Z</time>
      </trkpt>
      <trkpt lat="43.36361" lon="1.77217">
        <ele>203.8</ele>
        <time>2023-05-27T07:43:42Z</time>
      </trkpt>
      <trkpt lat="43.36359" lon="1.77223">
        <ele>203.8</ele>
        <time>2023-05-27T07:43:43Z</time>
      </trkpt>
      <trkpt lat="43.36357" lon="1.7723">
        <ele>203.8</ele>
        <time>2023-05-27T07:43:44Z</time>
      </trkpt>
      <trkpt lat="43.36355" lon="1.77236">
        <ele>204</ele>
        <time>2023-05-27T07:43:45Z</time>
      </trkpt>
      <trkpt lat="43.36354" lon="1.77241">
        <ele>204</ele>
        <time>2023-05-27T07:43:46Z</time>
      </trkpt>
      <trkpt lat="43.36353" lon="1.77247">
        <ele>204.2</ele>
        <time>2023-05-27T07:43:47Z</time>
      </trkpt>
      <trkpt lat="43.36351" lon="1.77252">
        <ele>204.4</ele>
        <time>2023-05-27T07:43:48Z</time>
      </trkpt>
      <trkpt lat="43.3635" lon="1.77257">
        <ele>204.4</ele>
        <time>2023-05-27T07:43:49Z</time>
      </trkpt>
      <trkpt lat="43.36349" lon="1.77262">
        <ele>204.6</ele>
        <time>2023-05-27T07:43:50Z</time>
      </trkpt>
      <trkpt lat="43.36348" lon="1.77267">
        <ele>204.8</ele>
        <time>2023-05-27T07:43:51Z</time>
      </trkpt>
      <trkpt lat="43.36346" lon="1.77271">
        <ele>205</ele>
        <time>2023-05-27T07:43:52Z</time>
      </trkpt>
      <trkpt lat="43.36345" lon="1.77276">
        <ele>205.2</ele>
        <time>2023-05-27T07:43:53Z</time>
      </trkpt>
      <trkpt lat="43.36343" lon="1.77281">
        <ele>205.4</ele>
        <time>2023-05-27T07:43:54Z</time>
      </trkpt>
      <trkpt lat="43.36342" lon="1.77285">
        <ele>205.6</ele>
        <time>2023-05-27T07:43:55Z</time>
      </trkpt>
      <trkpt lat="43.36341" lon="1.77288">
        <ele>205.8</ele>
        <time>2023-05-27T07:43:56Z</time>
      </trkpt>
      <trkpt lat="43.3634" lon="1.77292">
        <ele>206</ele>
        <time>2023-05-27T07:43:57Z</time>
      </trkpt>
      <trkpt lat="43.36339" lon="1.77295">
        <ele>206.2</ele>
        <time>2023-05-27T07:43:58Z</time>
      </trkpt>
      <trkpt lat="43.36338" lon="1.77298">
        <ele>206.4</ele>
        <time>2023-05-27T07:43:59Z</time>
      </trkpt>
      <trkpt lat="43.36337" lon="1.77301">
        <ele>206.4</ele>
        <time>2023-05-27T07:44:00Z</time>
      </trkpt>
      <trkpt lat="43.36335" lon="1.77304">
        <ele>206.6</ele>
        <time>2023-05-27T07:44:01Z</time>
      </trkpt>
      <trkpt lat="43.36334" lon="1.77307">
        <ele>206.8</ele>
        <time>2023-05-27T07:44:02Z</time>
      </trkpt>
      <trkpt lat="43.36333" lon="1.77311">
        <ele>206.8</ele>
        <time>2023-05-27T07:44:03Z</time>
      </trkpt>
      <trkpt lat="43.36332" lon="1.77315">
        <ele>206.6</ele>
        <time>2023-05-27T07:44:04Z</time>
      </trkpt>
      <trkpt lat="43.3633" lon="1.7732">
        <ele>206.6</ele>
        <time>2023-05-27T07:44:05Z</time>
      </trkpt>
      <trkpt lat="43.36329" lon="1.77324">
        <ele>206.4</ele>
        <time>2023-05-27T07:44:06Z</time>
      </trkpt>
      <trkpt lat="43.36327" lon="1.77329">
        <ele>206.4</ele>
        <time>2023-05-27T07:44:07Z</time>
      </trkpt>
      <trkpt lat="43.36326" lon="1.77334">
        <ele>206.4</ele>
        <time>2023-05-27T07:44:08Z</time>
      </trkpt>
      <trkpt lat="43.36324" lon="1.77339">
        <ele>206.2</ele>
        <time>2023-05-27T07:44:09Z</time>
      </trkpt>
      <trkpt lat="43.36322" lon="1.77344">
        <ele>206.2</ele>
        <time>2023-05-27T07:44:10Z</time>
      </trkpt>
      <trkpt lat="43.36321" lon="1.77348">
        <ele>206.2</ele>
        <time>2023-05-27T07:44:11Z</time>
      </trkpt>
      <trkpt lat="43.36321" lon="1.77352">
        <ele>206.2</ele>
        <time>2023-05-27T07:44:12Z</time>
      </trkpt>
      <trkpt lat="43.3632" lon="1.77356">
        <ele>206</ele>
        <time>2023-05-27T07:44:13Z</time>
      </trkpt>
      <trkpt lat="43.3632" lon="1.7736">
        <ele>206</ele>
        <time>2023-05-27T07:44:14Z</time>
      </trkpt>
      <trkpt lat="43.36319" lon="1.77364">
        <ele>206</ele>
        <time>2023-05-27T07:44:15Z</time>
      </trkpt>
      <trkpt lat="43.36317" lon="1.77366">
        <ele>206</ele>
        <time>2023-05-27T07:44:16Z</time>
      </trkpt>
      <trkpt lat="43.36316" lon="1.77367">
        <ele>206</ele>
        <time>2023-05-27T07:44:17Z</time>
      </trkpt>
      <trkpt lat="43.36315" lon="1.77367">
        <ele>206</ele>
        <time>2023-05-27T07:44:18Z</time>
      </trkpt>
      <trkpt lat="43.36314" lon="1.77369">
        <ele>206</ele>
        <time>2023-05-27T07:44:19Z</time>
      </trkpt>
      <trkpt lat="43.36314" lon="1.77371">
        <ele>206</ele>
        <time>2023-05-27T07:44:20Z</time>
      </trkpt>
      <trkpt lat="43.36313" lon="1.77373">
        <ele>206</ele>
        <time>2023-05-27T07:44:21Z</time>
      </trkpt>
      <trkpt lat="43.36313" lon="1.77376">
        <ele>206</ele>
        <time>2023-05-27T07:44:22Z</time>
      </trkpt>
      <trkpt lat="43.36312" lon="1.77379">
        <ele>206</ele>
        <time>2023-05-27T07:44:23Z</time>
      </trkpt>
      <trkpt lat="43.36311" lon="1.77381">
        <ele>206</ele>
        <time>2023-05-27T07:44:24Z</time>
      </trkpt>
      <trkpt lat="43.3631" lon="1.77384">
        <ele>206</ele>
        <time>2023-05-27T07:44:25Z</time>
      </trkpt>
      <trkpt lat="43.36309" lon="1.77386">
        <ele>206</ele>
        <time>2023-05-27T07:44:26Z</time>
      </trkpt>
      <trkpt lat="43.36308" lon="1.77389">
        <ele>206</ele>
        <time>2023-05-27T07:44:27Z</time>
      </trkpt>
      <trkpt lat="43.36307" lon="1.77392">
        <ele>206</ele>
        <time>2023-05-27T07:44:28Z</time>
      </trkpt>
      <trkpt lat="43.36305" lon="1.77395">
        <ele>206</ele>
        <time>2023-05-27T07:44:29Z</time>
      </trkpt>
      <trkpt lat="43.36303" lon="1.77398">
        <ele>206</ele>
        <time>2023-05-27T07:44:30Z</time>
      </trkpt>
      <trkpt lat="43.36302" lon="1.77401">
        <ele>206</ele>
        <time>2023-05-27T07:44:31Z</time>
      </trkpt>
      <trkpt lat="43.363" lon="1.77405">
        <ele>206</ele>
        <time>2023-05-27T07:44:32Z</time>
      </trkpt>
      <trkpt lat="43.36299" lon="1.77408">
        <ele>206</ele>
        <time>2023-05-27T07:44:33Z</time>
      </trkpt>
      <trkpt lat="43.36298" lon="1.77411">
        <ele>206</ele>
        <time>2023-05-27T07:44:34Z</time>
      </trkpt>
      <trkpt lat="43.36296" lon="1.77414">
        <ele>206.2</ele>
        <time>2023-05-27T07:44:35Z</time>
      </trkpt>
      <trkpt lat="43.36295" lon="1.77418">
        <ele>206.2</ele>
        <time>2023-05-27T07:44:36Z</time>
      </trkpt>
      <trkpt lat="43.36294" lon="1.77422">
        <ele>206.2</ele>
        <time>2023-05-27T07:44:37Z</time>
      </trkpt>
      <trkpt lat="43.36293" lon="1.77426">
        <ele>206.2</ele>
        <time>2023-05-27T07:44:38Z</time>
      </trkpt>
      <trkpt lat="43.36292" lon="1.7743">
        <ele>206.2</ele>
        <time>2023-05-27T07:44:39Z</time>
      </trkpt>
      <trkpt lat="43.36291" lon="1.77435">
        <ele>206.2</ele>
        <time>2023-05-27T07:44:40Z</time>
      </trkpt>
      <trkpt lat="43.3629" lon="1.77439">
        <ele>206.2</ele>
        <time>2023-05-27T07:44:41Z</time>
      </trkpt>
      <trkpt lat="43.36288" lon="1.77443">
        <ele>206.2</ele>
        <time>2023-05-27T07:44:42Z</time>
      </trkpt>
      <trkpt lat="43.36287" lon="1.77447">
        <ele>206.2</ele>
        <time>2023-05-27T07:44:43Z</time>
      </trkpt>
      <trkpt lat="43.36285" lon="1.77452">
        <ele>206.2</ele>
        <time>2023-05-27T07:44:44Z</time>
      </trkpt>
      <trkpt lat="43.36284" lon="1.77457">
        <ele>206.2</ele>
        <time>2023-05-27T07:44:45Z</time>
      </trkpt>
      <trkpt lat="43.36283" lon="1.77461">
        <ele>206.2</ele>
        <time>2023-05-27T07:44:46Z</time>
      </trkpt>
      <trkpt lat="43.36282" lon="1.77466">
        <ele>206.2</ele>
        <time>2023-05-27T07:44:47Z</time>
      </trkpt>
      <trkpt lat="43.3628" lon="1.77472">
        <ele>206.2</ele>
        <time>2023-05-27T07:44:48Z</time>
      </trkpt>
      <trkpt lat="43.36279" lon="1.77478">
        <ele>206.2</ele>
        <time>2023-05-27T07:44:49Z</time>
      </trkpt>
      <trkpt lat="43.36277" lon="1.77483">
        <ele>206.2</ele>
        <time>2023-05-27T07:44:50Z</time>
      </trkpt>
      <trkpt lat="43.36275" lon="1.77488">
        <ele>206.2</ele>
        <time>2023-05-27T07:44:51Z</time>
      </trkpt>
      <trkpt lat="43.36273" lon="1.77493">
        <ele>206.2</ele>
        <time>2023-05-27T07:44:52Z</time>
      </trkpt>
      <trkpt lat="43.36271" lon="1.77498">
        <ele>206.2</ele>
        <time>2023-05-27T07:44:53Z</time>
      </trkpt>
      <trkpt lat="43.3627" lon="1.77504">
        <ele>206.2</ele>
        <time>2023-05-27T07:44:54Z</time>
      </trkpt>
      <trkpt lat="43.36269" lon="1.7751">
        <ele>206.2</ele>
        <time>2023-05-27T07:44:55Z</time>
      </trkpt>
      <trkpt lat="43.36266" lon="1.77515">
        <ele>206.2</ele>
        <time>2023-05-27T07:44:56Z</time>
      </trkpt>
      <trkpt lat="43.36264" lon="1.77521">
        <ele>206.2</ele>
        <time>2023-05-27T07:44:57Z</time>
      </trkpt>
      <trkpt lat="43.36261" lon="1.77527">
        <ele>206.2</ele>
        <time>2023-05-27T07:44:58Z</time>
      </trkpt>
      <trkpt lat="43.36259" lon="1.77534">
        <ele>206.2</ele>
        <time>2023-05-27T07:44:59Z</time>
      </trkpt>
      <trkpt lat="43.36257" lon="1.7754">
        <ele>206.2</ele>
        <time>2023-05-27T07:45:00Z</time>
      </trkpt>
      <trkpt lat="43.36255" lon="1.77545">
        <ele>206.2</ele>
        <time>2023-05-27T07:45:01Z</time>
      </trkpt>
      <trkpt lat="43.36254" lon="1.7755">
        <ele>206.2</ele>
        <time>2023-05-27T07:45:02Z</time>
      </trkpt>
      <trkpt lat="43.36252" lon="1.77557">
        <ele>206.2</ele>
        <time>2023-05-27T07:45:03Z</time>
      </trkpt>
      <trkpt lat="43.3625" lon="1.77563">
        <ele>206.4</ele>
        <time>2023-05-27T07:45:04Z</time>
      </trkpt>
      <trkpt lat="43.36247" lon="1.77569">
        <ele>206.4</ele>
        <time>2023-05-27T07:45:05Z</time>
      </trkpt>
      <trkpt lat="43.36246" lon="1.77574">
        <ele>206.4</ele>
        <time>2023-05-27T07:45:06Z</time>
      </trkpt>
      <trkpt lat="43.36245" lon="1.77579">
        <ele>206.4</ele>
        <time>2023-05-27T07:45:07Z</time>
      </trkpt>
      <trkpt lat="43.36243" lon="1.77583">
        <ele>206.4</ele>
        <time>2023-05-27T07:45:08Z</time>
      </trkpt>
      <trkpt lat="43.36242" lon="1.77587">
        <ele>206.4</ele>
        <time>2023-05-27T07:45:09Z</time>
      </trkpt>
      <trkpt lat="43.36241" lon="1.77592">
        <ele>206.4</ele>
        <time>2023-05-27T07:45:10Z</time>
      </trkpt>
      <trkpt lat="43.36239" lon="1.77597">
        <ele>206.4</ele>
        <time>2023-05-27T07:45:11Z</time>
      </trkpt>
      <trkpt lat="43.36238" lon="1.77601">
        <ele>206.6</ele>
        <time>2023-05-27T07:45:12Z</time>
      </trkpt>
      <trkpt lat="43.36236" lon="1.77606">
        <ele>206.6</ele>
        <time>2023-05-27T07:45:13Z</time>
      </trkpt>
      <trkpt lat="43.36235" lon="1.77611">
        <ele>206.4</ele>
        <time>2023-05-27T07:45:14Z</time>
      </trkpt>
      <trkpt lat="43.36233" lon="1.77616">
        <ele>206.6</ele>
        <time>2023-05-27T07:45:15Z</time>
      </trkpt>
      <trkpt lat="43.36232" lon="1.77622">
        <ele>206.6</ele>
        <time>2023-05-27T07:45:16Z</time>
      </trkpt>
      <trkpt lat="43.36231" lon="1.77628">
        <ele>206.6</ele>
        <time>2023-05-27T07:45:17Z</time>
      </trkpt>
      <trkpt lat="43.3623" lon="1.77633">
        <ele>206.6</ele>
        <time>2023-05-27T07:45:18Z</time>
      </trkpt>
      <trkpt lat="43.36228" lon="1.77638">
        <ele>206.6</ele>
        <time>2023-05-27T07:45:19Z</time>
      </trkpt>
      <trkpt lat="43.36226" lon="1.77642">
        <ele>206.8</ele>
        <time>2023-05-27T07:45:20Z</time>
      </trkpt>
      <trkpt lat="43.36225" lon="1.77646">
        <ele>207</ele>
        <time>2023-05-27T07:45:21Z</time>
      </trkpt>
      <trkpt lat="43.36223" lon="1.77648">
        <ele>207.2</ele>
        <time>2023-05-27T07:45:22Z</time>
      </trkpt>
      <trkpt lat="43.36221" lon="1.77651">
        <ele>207.4</ele>
        <time>2023-05-27T07:45:23Z</time>
      </trkpt>
      <trkpt lat="43.3622" lon="1.77653">
        <ele>207.6</ele>
        <time>2023-05-27T07:45:24Z</time>
      </trkpt>
      <trkpt lat="43.36218" lon="1.77656">
        <ele>207.8</ele>
        <time>2023-05-27T07:45:25Z</time>
      </trkpt>
      <trkpt lat="43.36217" lon="1.77659">
        <ele>208</ele>
        <time>2023-05-27T07:45:26Z</time>
      </trkpt>
      <trkpt lat="43.36215" lon="1.7766">
        <ele>208.2</ele>
        <time>2023-05-27T07:45:27Z</time>
      </trkpt>
      <trkpt lat="43.36214" lon="1.77662">
        <ele>208.4</ele>
        <time>2023-05-27T07:45:28Z</time>
      </trkpt>
      <trkpt lat="43.36213" lon="1.77665">
        <ele>208.6</ele>
        <time>2023-05-27T07:45:29Z</time>
      </trkpt>
      <trkpt lat="43.36211" lon="1.77668">
        <ele>208.6</ele>
        <time>2023-05-27T07:45:30Z</time>
      </trkpt>
      <trkpt lat="43.36209" lon="1.77672">
        <ele>208.6</ele>
        <time>2023-05-27T07:45:31Z</time>
      </trkpt>
      <trkpt lat="43.36206" lon="1.77674">
        <ele>208.6</ele>
        <time>2023-05-27T07:45:32Z</time>
      </trkpt>
      <trkpt lat="43.36204" lon="1.77678">
        <ele>208.8</ele>
        <time>2023-05-27T07:45:33Z</time>
      </trkpt>
      <trkpt lat="43.36201" lon="1.77681">
        <ele>208.8</ele>
        <time>2023-05-27T07:45:34Z</time>
      </trkpt>
      <trkpt lat="43.36199" lon="1.77685">
        <ele>208.8</ele>
        <time>2023-05-27T07:45:35Z</time>
      </trkpt>
      <trkpt lat="43.36197" lon="1.77688">
        <ele>208.8</ele>
        <time>2023-05-27T07:45:36Z</time>
      </trkpt>
      <trkpt lat="43.36195" lon="1.77692">
        <ele>208.8</ele>
        <time>2023-05-27T07:45:37Z</time>
      </trkpt>
      <trkpt lat="43.36192" lon="1.77696">
        <ele>208.8</ele>
        <time>2023-05-27T07:45:38Z</time>
      </trkpt>
      <trkpt lat="43.3619" lon="1.77699">
        <ele>208.8</ele>
        <time>2023-05-27T07:45:39Z</time>
      </trkpt>
      <trkpt lat="43.36187" lon="1.77703">
        <ele>208.8</ele>
        <time>2023-05-27T07:45:40Z</time>
      </trkpt>
      <trkpt lat="43.36185" lon="1.77705">
        <ele>208.8</ele>
        <time>2023-05-27T07:45:41Z</time>
      </trkpt>
      <trkpt lat="43.36183" lon="1.77709">
        <ele>208.6</ele>
        <time>2023-05-27T07:45:42Z</time>
      </trkpt>
      <trkpt lat="43.3618" lon="1.77713">
        <ele>208.6</ele>
        <time>2023-05-27T07:45:43Z</time>
      </trkpt>
      <trkpt lat="43.36177" lon="1.77716">
        <ele>208.6</ele>
        <time>2023-05-27T07:45:44Z</time>
      </trkpt>
      <trkpt lat="43.36174" lon="1.7772">
        <ele>208.6</ele>
        <time>2023-05-27T07:45:45Z</time>
      </trkpt>
      <trkpt lat="43.3617" lon="1.77725">
        <ele>208.4</ele>
        <time>2023-05-27T07:45:46Z</time>
      </trkpt>
      <trkpt lat="43.36166" lon="1.7773">
        <ele>208.4</ele>
        <time>2023-05-27T07:45:47Z</time>
      </trkpt>
      <trkpt lat="43.36163" lon="1.77736">
        <ele>208.4</ele>
        <time>2023-05-27T07:45:48Z</time>
      </trkpt>
      <trkpt lat="43.3616" lon="1.77741">
        <ele>208.2</ele>
        <time>2023-05-27T07:45:49Z</time>
      </trkpt>
      <trkpt lat="43.36157" lon="1.77747">
        <ele>208.2</ele>
        <time>2023-05-27T07:45:50Z</time>
      </trkpt>
      <trkpt lat="43.36154" lon="1.77752">
        <ele>208.2</ele>
        <time>2023-05-27T07:45:51Z</time>
      </trkpt>
      <trkpt lat="43.3615" lon="1.77758">
        <ele>208.2</ele>
        <time>2023-05-27T07:45:52Z</time>
      </trkpt>
      <trkpt lat="43.36147" lon="1.77762">
        <ele>208.2</ele>
        <time>2023-05-27T07:45:53Z</time>
      </trkpt>
      <trkpt lat="43.36143" lon="1.77767">
        <ele>208.2</ele>
        <time>2023-05-27T07:45:54Z</time>
      </trkpt>
      <trkpt lat="43.36141" lon="1.7777">
        <ele>208.2</ele>
        <time>2023-05-27T07:45:55Z</time>
      </trkpt>
      <trkpt lat="43.36137" lon="1.77775">
        <ele>208.2</ele>
        <time>2023-05-27T07:45:56Z</time>
      </trkpt>
      <trkpt lat="43.36133" lon="1.7778">
        <ele>208</ele>
        <time>2023-05-27T07:45:57Z</time>
      </trkpt>
      <trkpt lat="43.3613" lon="1.77785">
        <ele>208</ele>
        <time>2023-05-27T07:45:58Z</time>
      </trkpt>
      <trkpt lat="43.36127" lon="1.7779">
        <ele>208</ele>
        <time>2023-05-27T07:45:59Z</time>
      </trkpt>
      <trkpt lat="43.36124" lon="1.77798">
        <ele>208</ele>
        <time>2023-05-27T07:46:00Z</time>
      </trkpt>
      <trkpt lat="43.36121" lon="1.77804">
        <ele>208</ele>
        <time>2023-05-27T07:46:01Z</time>
      </trkpt>
      <trkpt lat="43.36118" lon="1.77808">
        <ele>207.8</ele>
        <time>2023-05-27T07:46:02Z</time>
      </trkpt>
      <trkpt lat="43.36115" lon="1.77813">
        <ele>207.8</ele>
        <time>2023-05-27T07:46:03Z</time>
      </trkpt>
      <trkpt lat="43.36112" lon="1.77817">
        <ele>207.8</ele>
        <time>2023-05-27T07:46:04Z</time>
      </trkpt>
      <trkpt lat="43.36109" lon="1.77822">
        <ele>207.8</ele>
        <time>2023-05-27T07:46:05Z</time>
      </trkpt>
      <trkpt lat="43.36106" lon="1.77826">
        <ele>208</ele>
        <time>2023-05-27T07:46:06Z</time>
      </trkpt>
      <trkpt lat="43.36103" lon="1.77831">
        <ele>208</ele>
        <time>2023-05-27T07:46:07Z</time>
      </trkpt>
      <trkpt lat="43.361" lon="1.77835">
        <ele>208</ele>
        <time>2023-05-27T07:46:08Z</time>
      </trkpt>
      <trkpt lat="43.36096" lon="1.77841">
        <ele>208</ele>
        <time>2023-05-27T07:46:09Z</time>
      </trkpt>
      <trkpt lat="43.36093" lon="1.77846">
        <ele>208</ele>
        <time>2023-05-27T07:46:10Z</time>
      </trkpt>
      <trkpt lat="43.3609" lon="1.77852">
        <ele>208</ele>
        <time>2023-05-27T07:46:11Z</time>
      </trkpt>
      <trkpt lat="43.36087" lon="1.77858">
        <ele>208</ele>
        <time>2023-05-27T07:46:12Z</time>
      </trkpt>
      <trkpt lat="43.36085" lon="1.77863">
        <ele>208</ele>
        <time>2023-05-27T07:46:13Z</time>
      </trkpt>
      <trkpt lat="43.36083" lon="1.77869">
        <ele>208</ele>
        <time>2023-05-27T07:46:14Z</time>
      </trkpt>
      <trkpt lat="43.36081" lon="1.77873">
        <ele>208</ele>
        <time>2023-05-27T07:46:15Z</time>
      </trkpt>
      <trkpt lat="43.36079" lon="1.77878">
        <ele>208</ele>
        <time>2023-05-27T07:46:16Z</time>
      </trkpt>
      <trkpt lat="43.36078" lon="1.77883">
        <ele>208.2</ele>
        <time>2023-05-27T07:46:17Z</time>
      </trkpt>
      <trkpt lat="43.36076" lon="1.77888">
        <ele>208.2</ele>
        <time>2023-05-27T07:46:18Z</time>
      </trkpt>
      <trkpt lat="43.36075" lon="1.77893">
        <ele>208.2</ele>
        <time>2023-05-27T07:46:19Z</time>
      </trkpt>
      <trkpt lat="43.36073" lon="1.77899">
        <ele>208.2</ele>
        <time>2023-05-27T07:46:20Z</time>
      </trkpt>
      <trkpt lat="43.36071" lon="1.77904">
        <ele>208.2</ele>
        <time>2023-05-27T07:46:21Z</time>
      </trkpt>
      <trkpt lat="43.36069" lon="1.77909">
        <ele>208.4</ele>
        <time>2023-05-27T07:46:22Z</time>
      </trkpt>
      <trkpt lat="43.36067" lon="1.77916">
        <ele>208.4</ele>
        <time>2023-05-27T07:46:23Z</time>
      </trkpt>
      <trkpt lat="43.36065" lon="1.77922">
        <ele>208.4</ele>
        <time>2023-05-27T07:46:24Z</time>
      </trkpt>
      <trkpt lat="43.36063" lon="1.77928">
        <ele>208.4</ele>
        <time>2023-05-27T07:46:25Z</time>
      </trkpt>
      <trkpt lat="43.36062" lon="1.77933">
        <ele>208.4</ele>
        <time>2023-05-27T07:46:26Z</time>
      </trkpt>
      <trkpt lat="43.36061" lon="1.77938">
        <ele>208.6</ele>
        <time>2023-05-27T07:46:27Z</time>
      </trkpt>
      <trkpt lat="43.36059" lon="1.77943">
        <ele>208.6</ele>
        <time>2023-05-27T07:46:28Z</time>
      </trkpt>
      <trkpt lat="43.36058" lon="1.77948">
        <ele>208.6</ele>
        <time>2023-05-27T07:46:29Z</time>
      </trkpt>
      <trkpt lat="43.36056" lon="1.77954">
        <ele>208.6</ele>
        <time>2023-05-27T07:46:30Z</time>
      </trkpt>
      <trkpt lat="43.36055" lon="1.77959">
        <ele>208.6</ele>
        <time>2023-05-27T07:46:31Z</time>
      </trkpt>
      <trkpt lat="43.36054" lon="1.77965">
        <ele>208.6</ele>
        <time>2023-05-27T07:46:32Z</time>
      </trkpt>
      <trkpt lat="43.36052" lon="1.77971">
        <ele>208.6</ele>
        <time>2023-05-27T07:46:33Z</time>
      </trkpt>
      <trkpt lat="43.3605" lon="1.77976">
        <ele>208.6</ele>
        <time>2023-05-27T07:46:34Z</time>
      </trkpt>
      <trkpt lat="43.36048" lon="1.77983">
        <ele>208.4</ele>
        <time>2023-05-27T07:46:35Z</time>
      </trkpt>
      <trkpt lat="43.36046" lon="1.77989">
        <ele>208.4</ele>
        <time>2023-05-27T07:46:36Z</time>
      </trkpt>
      <trkpt lat="43.36043" lon="1.77997">
        <ele>208.4</ele>
        <time>2023-05-27T07:46:37Z</time>
      </trkpt>
      <trkpt lat="43.36041" lon="1.78005">
        <ele>208.2</ele>
        <time>2023-05-27T07:46:38Z</time>
      </trkpt>
      <trkpt lat="43.36038" lon="1.78014">
        <ele>208</ele>
        <time>2023-05-27T07:46:39Z</time>
      </trkpt>
      <trkpt lat="43.36035" lon="1.78023">
        <ele>207.8</ele>
        <time>2023-05-27T07:46:40Z</time>
      </trkpt>
      <trkpt lat="43.36032" lon="1.78031">
        <ele>207.8</ele>
        <time>2023-05-27T07:46:41Z</time>
      </trkpt>
      <trkpt lat="43.36031" lon="1.78038">
        <ele>207.8</ele>
        <time>2023-05-27T07:46:42Z</time>
      </trkpt>
      <trkpt lat="43.36029" lon="1.78044">
        <ele>208</ele>
        <time>2023-05-27T07:46:43Z</time>
      </trkpt>
      <trkpt lat="43.36027" lon="1.78051">
        <ele>208</ele>
        <time>2023-05-27T07:46:44Z</time>
      </trkpt>
      <trkpt lat="43.36026" lon="1.78058">
        <ele>208.2</ele>
        <time>2023-05-27T07:46:45Z</time>
      </trkpt>
      <trkpt lat="43.36024" lon="1.78064">
        <ele>208.2</ele>
        <time>2023-05-27T07:46:46Z</time>
      </trkpt>
      <trkpt lat="43.36022" lon="1.78069">
        <ele>208.2</ele>
        <time>2023-05-27T07:46:47Z</time>
      </trkpt>
      <trkpt lat="43.36019" lon="1.78076">
        <ele>208.4</ele>
        <time>2023-05-27T07:46:48Z</time>
      </trkpt>
      <trkpt lat="43.36016" lon="1.78082">
        <ele>208.4</ele>
        <time>2023-05-27T07:46:49Z</time>
      </trkpt>
      <trkpt lat="43.36013" lon="1.78086">
        <ele>208.4</ele>
        <time>2023-05-27T07:46:50Z</time>
      </trkpt>
      <trkpt lat="43.36012" lon="1.7809">
        <ele>208.6</ele>
        <time>2023-05-27T07:46:51Z</time>
      </trkpt>
      <trkpt lat="43.3601" lon="1.78096">
        <ele>208.6</ele>
        <time>2023-05-27T07:46:52Z</time>
      </trkpt>
      <trkpt lat="43.36008" lon="1.78101">
        <ele>208.6</ele>
        <time>2023-05-27T07:46:53Z</time>
      </trkpt>
      <trkpt lat="43.36006" lon="1.78106">
        <ele>208.6</ele>
        <time>2023-05-27T07:46:54Z</time>
      </trkpt>
      <trkpt lat="43.36003" lon="1.78111">
        <ele>208.8</ele>
        <time>2023-05-27T07:46:55Z</time>
      </trkpt>
      <trkpt lat="43.36001" lon="1.78116">
        <ele>208.8</ele>
        <time>2023-05-27T07:46:56Z</time>
      </trkpt>
      <trkpt lat="43.35998" lon="1.78121">
        <ele>208.8</ele>
        <time>2023-05-27T07:46:57Z</time>
      </trkpt>
      <trkpt lat="43.35996" lon="1.78127">
        <ele>208.6</ele>
        <time>2023-05-27T07:46:58Z</time>
      </trkpt>
      <trkpt lat="43.35993" lon="1.78131">
        <ele>208.6</ele>
        <time>2023-05-27T07:46:59Z</time>
      </trkpt>
      <trkpt lat="43.35991" lon="1.78136">
        <ele>208.6</ele>
        <time>2023-05-27T07:47:00Z</time>
      </trkpt>
      <trkpt lat="43.35989" lon="1.7814">
        <ele>208.6</ele>
        <time>2023-05-27T07:47:01Z</time>
      </trkpt>
      <trkpt lat="43.35987" lon="1.78145">
        <ele>208.6</ele>
        <time>2023-05-27T07:47:02Z</time>
      </trkpt>
      <trkpt lat="43.35984" lon="1.7815">
        <ele>208.6</ele>
        <time>2023-05-27T07:47:03Z</time>
      </trkpt>
      <trkpt lat="43.35981" lon="1.78155">
        <ele>208.8</ele>
        <time>2023-05-27T07:47:04Z</time>
      </trkpt>
      <trkpt lat="43.35978" lon="1.78161">
        <ele>208.8</ele>
        <time>2023-05-27T07:47:05Z</time>
      </trkpt>
      <trkpt lat="43.35975" lon="1.78166">
        <ele>208.8</ele>
        <time>2023-05-27T07:47:06Z</time>
      </trkpt>
      <trkpt lat="43.35972" lon="1.7817">
        <ele>208.8</ele>
        <time>2023-05-27T07:47:07Z</time>
      </trkpt>
      <trkpt lat="43.35969" lon="1.78175">
        <ele>208.8</ele>
        <time>2023-05-27T07:47:08Z</time>
      </trkpt>
      <trkpt lat="43.35967" lon="1.78179">
        <ele>208.8</ele>
        <time>2023-05-27T07:47:09Z</time>
      </trkpt>
      <trkpt lat="43.35964" lon="1.78183">
        <ele>208.8</ele>
        <time>2023-05-27T07:47:10Z</time>
      </trkpt>
      <trkpt lat="43.35962" lon="1.78187">
        <ele>208.6</ele>
        <time>2023-05-27T07:47:11Z</time>
      </trkpt>
      <trkpt lat="43.35961" lon="1.78189">
        <ele>208.6</ele>
        <time>2023-05-27T07:47:12Z</time>
      </trkpt>
      <trkpt lat="43.35959" lon="1.78192">
        <ele>208.6</ele>
        <time>2023-05-27T07:47:13Z</time>
      </trkpt>
      <trkpt lat="43.35957" lon="1.78195">
        <ele>208.6</ele>
        <time>2023-05-27T07:47:14Z</time>
      </trkpt>
      <trkpt lat="43.35955" lon="1.78198">
        <ele>208.6</ele>
        <time>2023-05-27T07:47:15Z</time>
      </trkpt>
      <trkpt lat="43.35953" lon="1.78201">
        <ele>208.6</ele>
        <time>2023-05-27T07:47:16Z</time>
      </trkpt>
      <trkpt lat="43.3595" lon="1.78205">
        <ele>208.6</ele>
        <time>2023-05-27T07:47:17Z</time>
      </trkpt>
      <trkpt lat="43.35947" lon="1.78209">
        <ele>208.4</ele>
        <time>2023-05-27T07:47:18Z</time>
      </trkpt>
      <trkpt lat="43.35944" lon="1.78215">
        <ele>208.2</ele>
        <time>2023-05-27T07:47:19Z</time>
      </trkpt>
      <trkpt lat="43.3594" lon="1.78222">
        <ele>208</ele>
        <time>2023-05-27T07:47:20Z</time>
      </trkpt>
      <trkpt lat="43.35935" lon="1.78229">
        <ele>207.8</ele>
        <time>2023-05-27T07:47:21Z</time>
      </trkpt>
      <trkpt lat="43.35931" lon="1.78235">
        <ele>207.8</ele>
        <time>2023-05-27T07:47:22Z</time>
      </trkpt>
      <trkpt lat="43.35927" lon="1.78241">
        <ele>208</ele>
        <time>2023-05-27T07:47:23Z</time>
      </trkpt>
      <trkpt lat="43.35924" lon="1.78247">
        <ele>208</ele>
        <time>2023-05-27T07:47:24Z</time>
      </trkpt>
      <trkpt lat="43.35921" lon="1.78252">
        <ele>208.2</ele>
        <time>2023-05-27T07:47:25Z</time>
      </trkpt>
      <trkpt lat="43.35919" lon="1.78256">
        <ele>208.2</ele>
        <time>2023-05-27T07:47:26Z</time>
      </trkpt>
      <trkpt lat="43.35917" lon="1.7826">
        <ele>208.4</ele>
        <time>2023-05-27T07:47:27Z</time>
      </trkpt>
      <trkpt lat="43.35914" lon="1.78265">
        <ele>208.4</ele>
        <time>2023-05-27T07:47:28Z</time>
      </trkpt>
      <trkpt lat="43.35912" lon="1.78269">
        <ele>208.6</ele>
        <time>2023-05-27T07:47:29Z</time>
      </trkpt>
      <trkpt lat="43.3591" lon="1.78274">
        <ele>208.6</ele>
        <time>2023-05-27T07:47:30Z</time>
      </trkpt>
      <trkpt lat="43.35907" lon="1.78279">
        <ele>208.8</ele>
        <time>2023-05-27T07:47:31Z</time>
      </trkpt>
      <trkpt lat="43.35904" lon="1.78284">
        <ele>208.8</ele>
        <time>2023-05-27T07:47:32Z</time>
      </trkpt>
      <trkpt lat="43.35901" lon="1.78289">
        <ele>208.6</ele>
        <time>2023-05-27T07:47:33Z</time>
      </trkpt>
      <trkpt lat="43.35899" lon="1.78294">
        <ele>208.6</ele>
        <time>2023-05-27T07:47:34Z</time>
      </trkpt>
      <trkpt lat="43.35897" lon="1.78299">
        <ele>208.6</ele>
        <time>2023-05-27T07:47:35Z</time>
      </trkpt>
      <trkpt lat="43.35894" lon="1.78305">
        <ele>208.6</ele>
        <time>2023-05-27T07:47:36Z</time>
      </trkpt>
      <trkpt lat="43.35891" lon="1.7831">
        <ele>208.6</ele>
        <time>2023-05-27T07:47:37Z</time>
      </trkpt>
      <trkpt lat="43.3589" lon="1.78315">
        <ele>208.6</ele>
        <time>2023-05-27T07:47:38Z</time>
      </trkpt>
      <trkpt lat="43.35887" lon="1.7832">
        <ele>208.6</ele>
        <time>2023-05-27T07:47:39Z</time>
      </trkpt>
      <trkpt lat="43.35885" lon="1.78325">
        <ele>208.6</ele>
        <time>2023-05-27T07:47:40Z</time>
      </trkpt>
      <trkpt lat="43.35884" lon="1.78331">
        <ele>208.6</ele>
        <time>2023-05-27T07:47:41Z</time>
      </trkpt>
      <trkpt lat="43.35882" lon="1.78336">
        <ele>208.6</ele>
        <time>2023-05-27T07:47:42Z</time>
      </trkpt>
      <trkpt lat="43.3588" lon="1.78341">
        <ele>208.6</ele>
        <time>2023-05-27T07:47:43Z</time>
      </trkpt>
      <trkpt lat="43.35878" lon="1.78346">
        <ele>208.6</ele>
        <time>2023-05-27T07:47:44Z</time>
      </trkpt>
      <trkpt lat="43.35877" lon="1.78351">
        <ele>208.6</ele>
        <time>2023-05-27T07:47:45Z</time>
      </trkpt>
      <trkpt lat="43.35875" lon="1.78357">
        <ele>208.6</ele>
        <time>2023-05-27T07:47:46Z</time>
      </trkpt>
      <trkpt lat="43.35874" lon="1.78361">
        <ele>208.6</ele>
        <time>2023-05-27T07:47:47Z</time>
      </trkpt>
      <trkpt lat="43.35872" lon="1.78367">
        <ele>208.6</ele>
        <time>2023-05-27T07:47:48Z</time>
      </trkpt>
      <trkpt lat="43.35869" lon="1.78372">
        <ele>208.6</ele>
        <time>2023-05-27T07:47:49Z</time>
      </trkpt>
      <trkpt lat="43.35867" lon="1.78378">
        <ele>208.6</ele>
        <time>2023-05-27T07:47:50Z</time>
      </trkpt>
      <trkpt lat="43.35865" lon="1.78384">
        <ele>208.6</ele>
        <time>2023-05-27T07:47:51Z</time>
      </trkpt>
      <trkpt lat="43.35863" lon="1.78389">
        <ele>208.6</ele>
        <time>2023-05-27T07:47:52Z</time>
      </trkpt>
      <trkpt lat="43.35862" lon="1.78395">
        <ele>208.6</ele>
        <time>2023-05-27T07:47:53Z</time>
      </trkpt>
      <trkpt lat="43.3586" lon="1.784">
        <ele>208.6</ele>
        <time>2023-05-27T07:47:54Z</time>
      </trkpt>
      <trkpt lat="43.35859" lon="1.78404">
        <ele>208.6</ele>
        <time>2023-05-27T07:47:55Z</time>
      </trkpt>
      <trkpt lat="43.35857" lon="1.78409">
        <ele>208.6</ele>
        <time>2023-05-27T07:47:56Z</time>
      </trkpt>
      <trkpt lat="43.35856" lon="1.78413">
        <ele>208.6</ele>
        <time>2023-05-27T07:47:57Z</time>
      </trkpt>
      <trkpt lat="43.35855" lon="1.78417">
        <ele>208.6</ele>
        <time>2023-05-27T07:47:58Z</time>
      </trkpt>
      <trkpt lat="43.35854" lon="1.78423">
        <ele>208.6</ele>
        <time>2023-05-27T07:47:59Z</time>
      </trkpt>
      <trkpt lat="43.35852" lon="1.7843">
        <ele>208.8</ele>
        <time>2023-05-27T07:48:00Z</time>
      </trkpt>
      <trkpt lat="43.35851" lon="1.78435">
        <ele>208.8</ele>
        <time>2023-05-27T07:48:01Z</time>
      </trkpt>
      <trkpt lat="43.35849" lon="1.78441">
        <ele>208.8</ele>
        <time>2023-05-27T07:48:02Z</time>
      </trkpt>
      <trkpt lat="43.35847" lon="1.78448">
        <ele>208.8</ele>
        <time>2023-05-27T07:48:03Z</time>
      </trkpt>
      <trkpt lat="43.35845" lon="1.78455">
        <ele>208.8</ele>
        <time>2023-05-27T07:48:04Z</time>
      </trkpt>
      <trkpt lat="43.35843" lon="1.78462">
        <ele>208.8</ele>
        <time>2023-05-27T07:48:05Z</time>
      </trkpt>
      <trkpt lat="43.35842" lon="1.78468">
        <ele>208.8</ele>
        <time>2023-05-27T07:48:06Z</time>
      </trkpt>
      <trkpt lat="43.3584" lon="1.78474">
        <ele>208.8</ele>
        <time>2023-05-27T07:48:07Z</time>
      </trkpt>
      <trkpt lat="43.35838" lon="1.7848">
        <ele>208.6</ele>
        <time>2023-05-27T07:48:08Z</time>
      </trkpt>
      <trkpt lat="43.35837" lon="1.78486">
        <ele>208.6</ele>
        <time>2023-05-27T07:48:09Z</time>
      </trkpt>
      <trkpt lat="43.35835" lon="1.78491">
        <ele>208.6</ele>
        <time>2023-05-27T07:48:10Z</time>
      </trkpt>
      <trkpt lat="43.35834" lon="1.78495">
        <ele>208.6</ele>
        <time>2023-05-27T07:48:11Z</time>
      </trkpt>
      <trkpt lat="43.35833" lon="1.785">
        <ele>208.6</ele>
        <time>2023-05-27T07:48:12Z</time>
      </trkpt>
      <trkpt lat="43.35831" lon="1.78506">
        <ele>208.8</ele>
        <time>2023-05-27T07:48:13Z</time>
      </trkpt>
      <trkpt lat="43.3583" lon="1.78511">
        <ele>208.6</ele>
        <time>2023-05-27T07:48:14Z</time>
      </trkpt>
      <trkpt lat="43.35828" lon="1.78515">
        <ele>208.6</ele>
        <time>2023-05-27T07:48:15Z</time>
      </trkpt>
      <trkpt lat="43.35827" lon="1.7852">
        <ele>208.6</ele>
        <time>2023-05-27T07:48:16Z</time>
      </trkpt>
      <trkpt lat="43.35825" lon="1.78526">
        <ele>208.6</ele>
        <time>2023-05-27T07:48:17Z</time>
      </trkpt>
      <trkpt lat="43.35823" lon="1.78533">
        <ele>208.6</ele>
        <time>2023-05-27T07:48:18Z</time>
      </trkpt>
      <trkpt lat="43.35822" lon="1.78539">
        <ele>208.4</ele>
        <time>2023-05-27T07:48:19Z</time>
      </trkpt>
      <trkpt lat="43.3582" lon="1.78544">
        <ele>208.6</ele>
        <time>2023-05-27T07:48:20Z</time>
      </trkpt>
      <trkpt lat="43.35819" lon="1.78549">
        <ele>208.6</ele>
        <time>2023-05-27T07:48:21Z</time>
      </trkpt>
      <trkpt lat="43.35817" lon="1.78555">
        <ele>208.6</ele>
        <time>2023-05-27T07:48:22Z</time>
      </trkpt>
      <trkpt lat="43.35815" lon="1.7856">
        <ele>208.6</ele>
        <time>2023-05-27T07:48:23Z</time>
      </trkpt>
      <trkpt lat="43.35814" lon="1.78565">
        <ele>208.6</ele>
        <time>2023-05-27T07:48:24Z</time>
      </trkpt>
      <trkpt lat="43.35812" lon="1.7857">
        <ele>208.6</ele>
        <time>2023-05-27T07:48:25Z</time>
      </trkpt>
      <trkpt lat="43.35811" lon="1.78575">
        <ele>208.6</ele>
        <time>2023-05-27T07:48:26Z</time>
      </trkpt>
      <trkpt lat="43.3581" lon="1.7858">
        <ele>208.8</ele>
        <time>2023-05-27T07:48:27Z</time>
      </trkpt>
      <trkpt lat="43.35808" lon="1.78586">
        <ele>208.8</ele>
        <time>2023-05-27T07:48:28Z</time>
      </trkpt>
      <trkpt lat="43.35807" lon="1.78592">
        <ele>208.8</ele>
        <time>2023-05-27T07:48:29Z</time>
      </trkpt>
      <trkpt lat="43.35805" lon="1.78597">
        <ele>208.8</ele>
        <time>2023-05-27T07:48:30Z</time>
      </trkpt>
      <trkpt lat="43.35804" lon="1.78603">
        <ele>209</ele>
        <time>2023-05-27T07:48:31Z</time>
      </trkpt>
      <trkpt lat="43.35802" lon="1.78609">
        <ele>209</ele>
        <time>2023-05-27T07:48:32Z</time>
      </trkpt>
      <trkpt lat="43.35801" lon="1.78614">
        <ele>209</ele>
        <time>2023-05-27T07:48:33Z</time>
      </trkpt>
      <trkpt lat="43.358" lon="1.7862">
        <ele>209</ele>
        <time>2023-05-27T07:48:34Z</time>
      </trkpt>
      <trkpt lat="43.35799" lon="1.78626">
        <ele>209.2</ele>
        <time>2023-05-27T07:48:35Z</time>
      </trkpt>
      <trkpt lat="43.35797" lon="1.78632">
        <ele>209.2</ele>
        <time>2023-05-27T07:48:36Z</time>
      </trkpt>
      <trkpt lat="43.35795" lon="1.78638">
        <ele>209.2</ele>
        <time>2023-05-27T07:48:37Z</time>
      </trkpt>
      <trkpt lat="43.35794" lon="1.78644">
        <ele>209.2</ele>
        <time>2023-05-27T07:48:38Z</time>
      </trkpt>
      <trkpt lat="43.35792" lon="1.7865">
        <ele>209.4</ele>
        <time>2023-05-27T07:48:39Z</time>
      </trkpt>
      <trkpt lat="43.3579" lon="1.78655">
        <ele>209.4</ele>
        <time>2023-05-27T07:48:40Z</time>
      </trkpt>
      <trkpt lat="43.35789" lon="1.7866">
        <ele>209.2</ele>
        <time>2023-05-27T07:48:41Z</time>
      </trkpt>
      <trkpt lat="43.35787" lon="1.78667">
        <ele>209.2</ele>
        <time>2023-05-27T07:48:42Z</time>
      </trkpt>
      <trkpt lat="43.35785" lon="1.78674">
        <ele>209.2</ele>
        <time>2023-05-27T07:48:43Z</time>
      </trkpt>
      <trkpt lat="43.35783" lon="1.78681">
        <ele>209.2</ele>
        <time>2023-05-27T07:48:44Z</time>
      </trkpt>
      <trkpt lat="43.35781" lon="1.78687">
        <ele>209.2</ele>
        <time>2023-05-27T07:48:45Z</time>
      </trkpt>
      <trkpt lat="43.3578" lon="1.78693">
        <ele>209.2</ele>
        <time>2023-05-27T07:48:46Z</time>
      </trkpt>
      <trkpt lat="43.35778" lon="1.78699">
        <ele>209.2</ele>
        <time>2023-05-27T07:48:47Z</time>
      </trkpt>
      <trkpt lat="43.35776" lon="1.78705">
        <ele>209.2</ele>
        <time>2023-05-27T07:48:48Z</time>
      </trkpt>
      <trkpt lat="43.35774" lon="1.7871">
        <ele>209</ele>
        <time>2023-05-27T07:48:49Z</time>
      </trkpt>
      <trkpt lat="43.35773" lon="1.78715">
        <ele>209</ele>
        <time>2023-05-27T07:48:50Z</time>
      </trkpt>
      <trkpt lat="43.35771" lon="1.7872">
        <ele>209</ele>
        <time>2023-05-27T07:48:51Z</time>
      </trkpt>
      <trkpt lat="43.35769" lon="1.78726">
        <ele>209</ele>
        <time>2023-05-27T07:48:52Z</time>
      </trkpt>
      <trkpt lat="43.35767" lon="1.78732">
        <ele>209</ele>
        <time>2023-05-27T07:48:53Z</time>
      </trkpt>
      <trkpt lat="43.35766" lon="1.78737">
        <ele>209</ele>
        <time>2023-05-27T07:48:54Z</time>
      </trkpt>
      <trkpt lat="43.35764" lon="1.78743">
        <ele>208.8</ele>
        <time>2023-05-27T07:48:55Z</time>
      </trkpt>
      <trkpt lat="43.35763" lon="1.7875">
        <ele>208.8</ele>
        <time>2023-05-27T07:48:56Z</time>
      </trkpt>
      <trkpt lat="43.35761" lon="1.78756">
        <ele>208.8</ele>
        <time>2023-05-27T07:48:57Z</time>
      </trkpt>
      <trkpt lat="43.35759" lon="1.78763">
        <ele>208.8</ele>
        <time>2023-05-27T07:48:58Z</time>
      </trkpt>
      <trkpt lat="43.35758" lon="1.78768">
        <ele>208.8</ele>
        <time>2023-05-27T07:48:59Z</time>
      </trkpt>
      <trkpt lat="43.35757" lon="1.78775">
        <ele>208.8</ele>
        <time>2023-05-27T07:49:00Z</time>
      </trkpt>
      <trkpt lat="43.35756" lon="1.78781">
        <ele>208.8</ele>
        <time>2023-05-27T07:49:01Z</time>
      </trkpt>
      <trkpt lat="43.35754" lon="1.78787">
        <ele>209</ele>
        <time>2023-05-27T07:49:02Z</time>
      </trkpt>
      <trkpt lat="43.35753" lon="1.78793">
        <ele>208.8</ele>
        <time>2023-05-27T07:49:03Z</time>
      </trkpt>
      <trkpt lat="43.35751" lon="1.78799">
        <ele>208.8</ele>
        <time>2023-05-27T07:49:04Z</time>
      </trkpt>
      <trkpt lat="43.3575" lon="1.78805">
        <ele>208.8</ele>
        <time>2023-05-27T07:49:05Z</time>
      </trkpt>
      <trkpt lat="43.35748" lon="1.78811">
        <ele>208.8</ele>
        <time>2023-05-27T07:49:06Z</time>
      </trkpt>
      <trkpt lat="43.35746" lon="1.78816">
        <ele>208.8</ele>
        <time>2023-05-27T07:49:07Z</time>
      </trkpt>
      <trkpt lat="43.35745" lon="1.78822">
        <ele>208.8</ele>
        <time>2023-05-27T07:49:08Z</time>
      </trkpt>
      <trkpt lat="43.35744" lon="1.78827">
        <ele>208.6</ele>
        <time>2023-05-27T07:49:09Z</time>
      </trkpt>
      <trkpt lat="43.35741" lon="1.78833">
        <ele>208.6</ele>
        <time>2023-05-27T07:49:10Z</time>
      </trkpt>
      <trkpt lat="43.3574" lon="1.78839">
        <ele>208.6</ele>
        <time>2023-05-27T07:49:11Z</time>
      </trkpt>
      <trkpt lat="43.35738" lon="1.78846">
        <ele>208.6</ele>
        <time>2023-05-27T07:49:12Z</time>
      </trkpt>
      <trkpt lat="43.35736" lon="1.78852">
        <ele>208.6</ele>
        <time>2023-05-27T07:49:13Z</time>
      </trkpt>
      <trkpt lat="43.35735" lon="1.78859">
        <ele>208.6</ele>
        <time>2023-05-27T07:49:14Z</time>
      </trkpt>
      <trkpt lat="43.35733" lon="1.78865">
        <ele>208.6</ele>
        <time>2023-05-27T07:49:15Z</time>
      </trkpt>
      <trkpt lat="43.35731" lon="1.78871">
        <ele>208.6</ele>
        <time>2023-05-27T07:49:16Z</time>
      </trkpt>
      <trkpt lat="43.35729" lon="1.78876">
        <ele>208.6</ele>
        <time>2023-05-27T07:49:17Z</time>
      </trkpt>
      <trkpt lat="43.35728" lon="1.78882">
        <ele>208.6</ele>
        <time>2023-05-27T07:49:18Z</time>
      </trkpt>
      <trkpt lat="43.35727" lon="1.78888">
        <ele>208.6</ele>
        <time>2023-05-27T07:49:19Z</time>
      </trkpt>
      <trkpt lat="43.35727" lon="1.78894">
        <ele>208.4</ele>
        <time>2023-05-27T07:49:20Z</time>
      </trkpt>
      <trkpt lat="43.35725" lon="1.789">
        <ele>208.4</ele>
        <time>2023-05-27T07:49:21Z</time>
      </trkpt>
      <trkpt lat="43.35723" lon="1.78905">
        <ele>208.4</ele>
        <time>2023-05-27T07:49:22Z</time>
      </trkpt>
      <trkpt lat="43.35722" lon="1.78911">
        <ele>208.4</ele>
        <time>2023-05-27T07:49:23Z</time>
      </trkpt>
      <trkpt lat="43.3572" lon="1.78917">
        <ele>208.4</ele>
        <time>2023-05-27T07:49:24Z</time>
      </trkpt>
      <trkpt lat="43.35719" lon="1.78922">
        <ele>208.4</ele>
        <time>2023-05-27T07:49:25Z</time>
      </trkpt>
      <trkpt lat="43.35717" lon="1.78927">
        <ele>208.4</ele>
        <time>2023-05-27T07:49:26Z</time>
      </trkpt>
      <trkpt lat="43.35715" lon="1.78934">
        <ele>208.4</ele>
        <time>2023-05-27T07:49:27Z</time>
      </trkpt>
      <trkpt lat="43.35713" lon="1.78939">
        <ele>208.4</ele>
        <time>2023-05-27T07:49:28Z</time>
      </trkpt>
      <trkpt lat="43.35712" lon="1.78944">
        <ele>208.2</ele>
        <time>2023-05-27T07:49:29Z</time>
      </trkpt>
      <trkpt lat="43.3571" lon="1.78949">
        <ele>208.2</ele>
        <time>2023-05-27T07:49:30Z</time>
      </trkpt>
      <trkpt lat="43.35709" lon="1.78955">
        <ele>208.4</ele>
        <time>2023-05-27T07:49:31Z</time>
      </trkpt>
      <trkpt lat="43.35707" lon="1.78961">
        <ele>208.4</ele>
        <time>2023-05-27T07:49:32Z</time>
      </trkpt>
      <trkpt lat="43.35706" lon="1.78967">
        <ele>208.4</ele>
        <time>2023-05-27T07:49:33Z</time>
      </trkpt>
      <trkpt lat="43.35705" lon="1.78972">
        <ele>208.4</ele>
        <time>2023-05-27T07:49:34Z</time>
      </trkpt>
      <trkpt lat="43.35703" lon="1.78977">
        <ele>208.4</ele>
        <time>2023-05-27T07:49:35Z</time>
      </trkpt>
      <trkpt lat="43.35701" lon="1.78983">
        <ele>208.4</ele>
        <time>2023-05-27T07:49:36Z</time>
      </trkpt>
      <trkpt lat="43.357" lon="1.78987">
        <ele>208.4</ele>
        <time>2023-05-27T07:49:37Z</time>
      </trkpt>
      <trkpt lat="43.35698" lon="1.78993">
        <ele>208.6</ele>
        <time>2023-05-27T07:49:38Z</time>
      </trkpt>
      <trkpt lat="43.35697" lon="1.78999">
        <ele>208.6</ele>
        <time>2023-05-27T07:49:39Z</time>
      </trkpt>
      <trkpt lat="43.35695" lon="1.79005">
        <ele>208.6</ele>
        <time>2023-05-27T07:49:40Z</time>
      </trkpt>
      <trkpt lat="43.35694" lon="1.79011">
        <ele>208.6</ele>
        <time>2023-05-27T07:49:41Z</time>
      </trkpt>
      <trkpt lat="43.35692" lon="1.79016">
        <ele>208.6</ele>
        <time>2023-05-27T07:49:42Z</time>
      </trkpt>
      <trkpt lat="43.35691" lon="1.79021">
        <ele>208.8</ele>
        <time>2023-05-27T07:49:43Z</time>
      </trkpt>
      <trkpt lat="43.35689" lon="1.79027">
        <ele>208.8</ele>
        <time>2023-05-27T07:49:44Z</time>
      </trkpt>
      <trkpt lat="43.35687" lon="1.79033">
        <ele>208.8</ele>
        <time>2023-05-27T07:49:45Z</time>
      </trkpt>
      <trkpt lat="43.35686" lon="1.79039">
        <ele>208.8</ele>
        <time>2023-05-27T07:49:46Z</time>
      </trkpt>
      <trkpt lat="43.35685" lon="1.79045">
        <ele>208.8</ele>
        <time>2023-05-27T07:49:47Z</time>
      </trkpt>
      <trkpt lat="43.35683" lon="1.79051">
        <ele>208.8</ele>
        <time>2023-05-27T07:49:48Z</time>
      </trkpt>
      <trkpt lat="43.35683" lon="1.79056">
        <ele>209</ele>
        <time>2023-05-27T07:49:49Z</time>
      </trkpt>
      <trkpt lat="43.35682" lon="1.79061">
        <ele>209</ele>
        <time>2023-05-27T07:49:50Z</time>
      </trkpt>
      <trkpt lat="43.35682" lon="1.79066">
        <ele>209</ele>
        <time>2023-05-27T07:49:51Z</time>
      </trkpt>
      <trkpt lat="43.3568" lon="1.79073">
        <ele>209</ele>
        <time>2023-05-27T07:49:52Z</time>
      </trkpt>
      <trkpt lat="43.35678" lon="1.79079">
        <ele>209.2</ele>
        <time>2023-05-27T07:49:53Z</time>
      </trkpt>
      <trkpt lat="43.35676" lon="1.79085">
        <ele>209.2</ele>
        <time>2023-05-27T07:49:54Z</time>
      </trkpt>
      <trkpt lat="43.35674" lon="1.79091">
        <ele>209.2</ele>
        <time>2023-05-27T07:49:55Z</time>
      </trkpt>
      <trkpt lat="43.35672" lon="1.79098">
        <ele>209.2</ele>
        <time>2023-05-27T07:49:56Z</time>
      </trkpt>
      <trkpt lat="43.3567" lon="1.79104">
        <ele>209.2</ele>
        <time>2023-05-27T07:49:57Z</time>
      </trkpt>
      <trkpt lat="43.35668" lon="1.79109">
        <ele>209.2</ele>
        <time>2023-05-27T07:49:58Z</time>
      </trkpt>
      <trkpt lat="43.35667" lon="1.79114">
        <ele>209.2</ele>
        <time>2023-05-27T07:49:59Z</time>
      </trkpt>
      <trkpt lat="43.35666" lon="1.7912">
        <ele>209.2</ele>
        <time>2023-05-27T07:50:00Z</time>
      </trkpt>
      <trkpt lat="43.35665" lon="1.79126">
        <ele>209.2</ele>
        <time>2023-05-27T07:50:01Z</time>
      </trkpt>
      <trkpt lat="43.35663" lon="1.79133">
        <ele>209.2</ele>
        <time>2023-05-27T07:50:02Z</time>
      </trkpt>
      <trkpt lat="43.35661" lon="1.7914">
        <ele>209.2</ele>
        <time>2023-05-27T07:50:03Z</time>
      </trkpt>
      <trkpt lat="43.3566" lon="1.79145">
        <ele>209</ele>
        <time>2023-05-27T07:50:04Z</time>
      </trkpt>
      <trkpt lat="43.35659" lon="1.79151">
        <ele>209</ele>
        <time>2023-05-27T07:50:05Z</time>
      </trkpt>
      <trkpt lat="43.35658" lon="1.79159">
        <ele>208.8</ele>
        <time>2023-05-27T07:50:06Z</time>
      </trkpt>
      <trkpt lat="43.35656" lon="1.79166">
        <ele>208.6</ele>
        <time>2023-05-27T07:50:07Z</time>
      </trkpt>
      <trkpt lat="43.35655" lon="1.79172">
        <ele>208.4</ele>
        <time>2023-05-27T07:50:08Z</time>
      </trkpt>
      <trkpt lat="43.35654" lon="1.79177">
        <ele>208.4</ele>
        <time>2023-05-27T07:50:09Z</time>
      </trkpt>
      <trkpt lat="43.35653" lon="1.79184">
        <ele>208.2</ele>
        <time>2023-05-27T07:50:10Z</time>
      </trkpt>
      <trkpt lat="43.35651" lon="1.7919">
        <ele>208.2</ele>
        <time>2023-05-27T07:50:11Z</time>
      </trkpt>
      <trkpt lat="43.3565" lon="1.79197">
        <ele>208.2</ele>
        <time>2023-05-27T07:50:12Z</time>
      </trkpt>
      <trkpt lat="43.35648" lon="1.79203">
        <ele>208.2</ele>
        <time>2023-05-27T07:50:13Z</time>
      </trkpt>
      <trkpt lat="43.35647" lon="1.79208">
        <ele>208.2</ele>
        <time>2023-05-27T07:50:14Z</time>
      </trkpt>
      <trkpt lat="43.35646" lon="1.79214">
        <ele>208.2</ele>
        <time>2023-05-27T07:50:15Z</time>
      </trkpt>
      <trkpt lat="43.35644" lon="1.79221">
        <ele>208.2</ele>
        <time>2023-05-27T07:50:16Z</time>
      </trkpt>
      <trkpt lat="43.35643" lon="1.79226">
        <ele>208.2</ele>
        <time>2023-05-27T07:50:17Z</time>
      </trkpt>
      <trkpt lat="43.35641" lon="1.79232">
        <ele>208.2</ele>
        <time>2023-05-27T07:50:18Z</time>
      </trkpt>
      <trkpt lat="43.3564" lon="1.79238">
        <ele>208.2</ele>
        <time>2023-05-27T07:50:19Z</time>
      </trkpt>
      <trkpt lat="43.35638" lon="1.79244">
        <ele>208.2</ele>
        <time>2023-05-27T07:50:20Z</time>
      </trkpt>
      <trkpt lat="43.35638" lon="1.79251">
        <ele>208.2</ele>
        <time>2023-05-27T07:50:21Z</time>
      </trkpt>
      <trkpt lat="43.35637" lon="1.79255">
        <ele>208.4</ele>
        <time>2023-05-27T07:50:22Z</time>
      </trkpt>
      <trkpt lat="43.35635" lon="1.79261">
        <ele>208.4</ele>
        <time>2023-05-27T07:50:23Z</time>
      </trkpt>
      <trkpt lat="43.35634" lon="1.79267">
        <ele>208.4</ele>
        <time>2023-05-27T07:50:24Z</time>
      </trkpt>
      <trkpt lat="43.35633" lon="1.79272">
        <ele>208.4</ele>
        <time>2023-05-27T07:50:25Z</time>
      </trkpt>
      <trkpt lat="43.35632" lon="1.79277">
        <ele>208.6</ele>
        <time>2023-05-27T07:50:26Z</time>
      </trkpt>
      <trkpt lat="43.3563" lon="1.79282">
        <ele>208.6</ele>
        <time>2023-05-27T07:50:27Z</time>
      </trkpt>
      <trkpt lat="43.35629" lon="1.79287">
        <ele>208.6</ele>
        <time>2023-05-27T07:50:28Z</time>
      </trkpt>
      <trkpt lat="43.35628" lon="1.79293">
        <ele>208.6</ele>
        <time>2023-05-27T07:50:29Z</time>
      </trkpt>
      <trkpt lat="43.35627" lon="1.79298">
        <ele>208.8</ele>
        <time>2023-05-27T07:50:30Z</time>
      </trkpt>
      <trkpt lat="43.35626" lon="1.79303">
        <ele>208.8</ele>
        <time>2023-05-27T07:50:31Z</time>
      </trkpt>
      <trkpt lat="43.35625" lon="1.79308">
        <ele>208.8</ele>
        <time>2023-05-27T07:50:32Z</time>
      </trkpt>
      <trkpt lat="43.35624" lon="1.79313">
        <ele>208.8</ele>
        <time>2023-05-27T07:50:33Z</time>
      </trkpt>
      <trkpt lat="43.35623" lon="1.79318">
        <ele>208.8</ele>
        <time>2023-05-27T07:50:34Z</time>
      </trkpt>
      <trkpt lat="43.35622" lon="1.79323">
        <ele>209</ele>
        <time>2023-05-27T07:50:35Z</time>
      </trkpt>
      <trkpt lat="43.35621" lon="1.79328">
        <ele>209</ele>
        <time>2023-05-27T07:50:36Z</time>
      </trkpt>
      <trkpt lat="43.3562" lon="1.79333">
        <ele>209</ele>
        <time>2023-05-27T07:50:37Z</time>
      </trkpt>
      <trkpt lat="43.35619" lon="1.79338">
        <ele>209</ele>
        <time>2023-05-27T07:50:38Z</time>
      </trkpt>
      <trkpt lat="43.35618" lon="1.79344">
        <ele>209.2</ele>
        <time>2023-05-27T07:50:39Z</time>
      </trkpt>
      <trkpt lat="43.35617" lon="1.79349">
        <ele>209.2</ele>
        <time>2023-05-27T07:50:40Z</time>
      </trkpt>
      <trkpt lat="43.35616" lon="1.79355">
        <ele>209.2</ele>
        <time>2023-05-27T07:50:41Z</time>
      </trkpt>
      <trkpt lat="43.35615" lon="1.79361">
        <ele>209.2</ele>
        <time>2023-05-27T07:50:42Z</time>
      </trkpt>
      <trkpt lat="43.35613" lon="1.79367">
        <ele>209.2</ele>
        <time>2023-05-27T07:50:43Z</time>
      </trkpt>
      <trkpt lat="43.35613" lon="1.79372">
        <ele>209.2</ele>
        <time>2023-05-27T07:50:44Z</time>
      </trkpt>
      <trkpt lat="43.35612" lon="1.79378">
        <ele>209</ele>
        <time>2023-05-27T07:50:45Z</time>
      </trkpt>
      <trkpt lat="43.35611" lon="1.79385">
        <ele>209</ele>
        <time>2023-05-27T07:50:46Z</time>
      </trkpt>
      <trkpt lat="43.3561" lon="1.79392">
        <ele>209</ele>
        <time>2023-05-27T07:50:47Z</time>
      </trkpt>
      <trkpt lat="43.35608" lon="1.79398">
        <ele>208.8</ele>
        <time>2023-05-27T07:50:48Z</time>
      </trkpt>
      <trkpt lat="43.35607" lon="1.79403">
        <ele>208.8</ele>
        <time>2023-05-27T07:50:49Z</time>
      </trkpt>
      <trkpt lat="43.35606" lon="1.79409">
        <ele>208.8</ele>
        <time>2023-05-27T07:50:50Z</time>
      </trkpt>
      <trkpt lat="43.35605" lon="1.79415">
        <ele>208.8</ele>
        <time>2023-05-27T07:50:51Z</time>
      </trkpt>
      <trkpt lat="43.35604" lon="1.79422">
        <ele>208.6</ele>
        <time>2023-05-27T07:50:52Z</time>
      </trkpt>
      <trkpt lat="43.35604" lon="1.79428">
        <ele>208.6</ele>
        <time>2023-05-27T07:50:53Z</time>
      </trkpt>
      <trkpt lat="43.35603" lon="1.79435">
        <ele>208.6</ele>
        <time>2023-05-27T07:50:54Z</time>
      </trkpt>
      <trkpt lat="43.35601" lon="1.79442">
        <ele>208.6</ele>
        <time>2023-05-27T07:50:55Z</time>
      </trkpt>
      <trkpt lat="43.35601" lon="1.79449">
        <ele>208.4</ele>
        <time>2023-05-27T07:50:56Z</time>
      </trkpt>
      <trkpt lat="43.356" lon="1.79454">
        <ele>208.4</ele>
        <time>2023-05-27T07:50:57Z</time>
      </trkpt>
      <trkpt lat="43.35599" lon="1.7946">
        <ele>208.4</ele>
        <time>2023-05-27T07:50:58Z</time>
      </trkpt>
      <trkpt lat="43.35599" lon="1.79466">
        <ele>208.4</ele>
        <time>2023-05-27T07:50:59Z</time>
      </trkpt>
      <trkpt lat="43.35598" lon="1.79473">
        <ele>208.4</ele>
        <time>2023-05-27T07:51:00Z</time>
      </trkpt>
      <trkpt lat="43.35597" lon="1.79479">
        <ele>208.4</ele>
        <time>2023-05-27T07:51:01Z</time>
      </trkpt>
      <trkpt lat="43.35596" lon="1.79485">
        <ele>208.4</ele>
        <time>2023-05-27T07:51:02Z</time>
      </trkpt>
      <trkpt lat="43.35595" lon="1.7949">
        <ele>208.4</ele>
        <time>2023-05-27T07:51:03Z</time>
      </trkpt>
      <trkpt lat="43.35594" lon="1.79496">
        <ele>208.4</ele>
        <time>2023-05-27T07:51:04Z</time>
      </trkpt>
      <trkpt lat="43.35593" lon="1.79502">
        <ele>208.2</ele>
        <time>2023-05-27T07:51:05Z</time>
      </trkpt>
      <trkpt lat="43.35592" lon="1.79506">
        <ele>208.2</ele>
        <time>2023-05-27T07:51:06Z</time>
      </trkpt>
      <trkpt lat="43.35591" lon="1.79511">
        <ele>208.2</ele>
        <time>2023-05-27T07:51:07Z</time>
      </trkpt>
      <trkpt lat="43.3559" lon="1.79517">
        <ele>208.2</ele>
        <time>2023-05-27T07:51:08Z</time>
      </trkpt>
      <trkpt lat="43.35589" lon="1.79523">
        <ele>208.2</ele>
        <time>2023-05-27T07:51:09Z</time>
      </trkpt>
      <trkpt lat="43.35587" lon="1.79529">
        <ele>208.2</ele>
        <time>2023-05-27T07:51:10Z</time>
      </trkpt>
      <trkpt lat="43.35585" lon="1.79535">
        <ele>208.2</ele>
        <time>2023-05-27T07:51:11Z</time>
      </trkpt>
      <trkpt lat="43.35584" lon="1.7954">
        <ele>208.4</ele>
        <time>2023-05-27T07:51:12Z</time>
      </trkpt>
      <trkpt lat="43.35582" lon="1.79545">
        <ele>208.6</ele>
        <time>2023-05-27T07:51:13Z</time>
      </trkpt>
      <trkpt lat="43.35581" lon="1.79549">
        <ele>208.6</ele>
        <time>2023-05-27T07:51:14Z</time>
      </trkpt>
      <trkpt lat="43.3558" lon="1.79553">
        <ele>208.8</ele>
        <time>2023-05-27T07:51:15Z</time>
      </trkpt>
      <trkpt lat="43.35579" lon="1.79558">
        <ele>208.8</ele>
        <time>2023-05-27T07:51:16Z</time>
      </trkpt>
      <trkpt lat="43.35577" lon="1.79562">
        <ele>208.8</ele>
        <time>2023-05-27T07:51:17Z</time>
      </trkpt>
      <trkpt lat="43.35576" lon="1.79567">
        <ele>208.8</ele>
        <time>2023-05-27T07:51:18Z</time>
      </trkpt>
      <trkpt lat="43.35574" lon="1.79571">
        <ele>208.8</ele>
        <time>2023-05-27T07:51:19Z</time>
      </trkpt>
      <trkpt lat="43.35572" lon="1.79576">
        <ele>208.6</ele>
        <time>2023-05-27T07:51:20Z</time>
      </trkpt>
      <trkpt lat="43.3557" lon="1.79582">
        <ele>208.2</ele>
        <time>2023-05-27T07:51:21Z</time>
      </trkpt>
      <trkpt lat="43.35568" lon="1.79589">
        <ele>208</ele>
        <time>2023-05-27T07:51:22Z</time>
      </trkpt>
      <trkpt lat="43.35566" lon="1.79596">
        <ele>207.8</ele>
        <time>2023-05-27T07:51:23Z</time>
      </trkpt>
      <trkpt lat="43.35564" lon="1.79601">
        <ele>207.6</ele>
        <time>2023-05-27T07:51:24Z</time>
      </trkpt>
      <trkpt lat="43.35561" lon="1.79607">
        <ele>207.2</ele>
        <time>2023-05-27T07:51:25Z</time>
      </trkpt>
      <trkpt lat="43.35558" lon="1.79614">
        <ele>207.2</ele>
        <time>2023-05-27T07:51:26Z</time>
      </trkpt>
      <trkpt lat="43.35555" lon="1.79621">
        <ele>207</ele>
        <time>2023-05-27T07:51:27Z</time>
      </trkpt>
      <trkpt lat="43.35552" lon="1.79627">
        <ele>206.8</ele>
        <time>2023-05-27T07:51:28Z</time>
      </trkpt>
      <trkpt lat="43.35549" lon="1.79633">
        <ele>206.8</ele>
        <time>2023-05-27T07:51:29Z</time>
      </trkpt>
      <trkpt lat="43.35544" lon="1.79638">
        <ele>206.8</ele>
        <time>2023-05-27T07:51:30Z</time>
      </trkpt>
      <trkpt lat="43.35539" lon="1.79645">
        <ele>206.6</ele>
        <time>2023-05-27T07:51:31Z</time>
      </trkpt>
      <trkpt lat="43.35535" lon="1.79651">
        <ele>206.6</ele>
        <time>2023-05-27T07:51:32Z</time>
      </trkpt>
      <trkpt lat="43.35531" lon="1.79658">
        <ele>206.6</ele>
        <time>2023-05-27T07:51:33Z</time>
      </trkpt>
      <trkpt lat="43.35526" lon="1.79666">
        <ele>206.6</ele>
        <time>2023-05-27T07:51:34Z</time>
      </trkpt>
      <trkpt lat="43.35521" lon="1.79674">
        <ele>206.6</ele>
        <time>2023-05-27T07:51:35Z</time>
      </trkpt>
      <trkpt lat="43.35517" lon="1.7968">
        <ele>206.6</ele>
        <time>2023-05-27T07:51:36Z</time>
      </trkpt>
      <trkpt lat="43.35513" lon="1.79687">
        <ele>206.4</ele>
        <time>2023-05-27T07:51:37Z</time>
      </trkpt>
      <trkpt lat="43.35509" lon="1.79695">
        <ele>206.4</ele>
        <time>2023-05-27T07:51:38Z</time>
      </trkpt>
      <trkpt lat="43.35505" lon="1.79703">
        <ele>206.4</ele>
        <time>2023-05-27T07:51:39Z</time>
      </trkpt>
      <trkpt lat="43.35501" lon="1.79711">
        <ele>206.4</ele>
        <time>2023-05-27T07:51:40Z</time>
      </trkpt>
      <trkpt lat="43.35497" lon="1.79717">
        <ele>206.4</ele>
        <time>2023-05-27T07:51:41Z</time>
      </trkpt>
      <trkpt lat="43.35494" lon="1.79723">
        <ele>206.4</ele>
        <time>2023-05-27T07:51:42Z</time>
      </trkpt>
      <trkpt lat="43.35491" lon="1.79729">
        <ele>206.4</ele>
        <time>2023-05-27T07:51:43Z</time>
      </trkpt>
      <trkpt lat="43.35488" lon="1.79734">
        <ele>206.6</ele>
        <time>2023-05-27T07:51:44Z</time>
      </trkpt>
      <trkpt lat="43.35485" lon="1.79739">
        <ele>206.6</ele>
        <time>2023-05-27T07:51:45Z</time>
      </trkpt>
      <trkpt lat="43.35483" lon="1.79745">
        <ele>206.6</ele>
        <time>2023-05-27T07:51:46Z</time>
      </trkpt>
      <trkpt lat="43.35481" lon="1.79751">
        <ele>206.6</ele>
        <time>2023-05-27T07:51:47Z</time>
      </trkpt>
      <trkpt lat="43.35478" lon="1.79756">
        <ele>206.6</ele>
        <time>2023-05-27T07:51:48Z</time>
      </trkpt>
      <trkpt lat="43.35476" lon="1.79763">
        <ele>206.6</ele>
        <time>2023-05-27T07:51:49Z</time>
      </trkpt>
      <trkpt lat="43.35473" lon="1.79769">
        <ele>206.6</ele>
        <time>2023-05-27T07:51:50Z</time>
      </trkpt>
      <trkpt lat="43.3547" lon="1.79775">
        <ele>206.6</ele>
        <time>2023-05-27T07:51:51Z</time>
      </trkpt>
      <trkpt lat="43.35467" lon="1.79783">
        <ele>206.6</ele>
        <time>2023-05-27T07:51:52Z</time>
      </trkpt>
      <trkpt lat="43.35465" lon="1.7979">
        <ele>206.4</ele>
        <time>2023-05-27T07:51:53Z</time>
      </trkpt>
      <trkpt lat="43.35463" lon="1.79796">
        <ele>206.4</ele>
        <time>2023-05-27T07:51:54Z</time>
      </trkpt>
      <trkpt lat="43.35462" lon="1.79801">
        <ele>206.6</ele>
        <time>2023-05-27T07:51:55Z</time>
      </trkpt>
      <trkpt lat="43.35461" lon="1.79804">
        <ele>206.6</ele>
        <time>2023-05-27T07:51:56Z</time>
      </trkpt>
      <trkpt lat="43.35459" lon="1.79809">
        <ele>206.6</ele>
        <time>2023-05-27T07:51:57Z</time>
      </trkpt>
      <trkpt lat="43.35457" lon="1.79815">
        <ele>206.6</ele>
        <time>2023-05-27T07:51:58Z</time>
      </trkpt>
      <trkpt lat="43.35454" lon="1.79821">
        <ele>206.6</ele>
        <time>2023-05-27T07:51:59Z</time>
      </trkpt>
      <trkpt lat="43.35449" lon="1.79828">
        <ele>206.6</ele>
        <time>2023-05-27T07:52:00Z</time>
      </trkpt>
      <trkpt lat="43.35445" lon="1.79837">
        <ele>206.6</ele>
        <time>2023-05-27T07:52:01Z</time>
      </trkpt>
      <trkpt lat="43.35443" lon="1.79844">
        <ele>206.6</ele>
        <time>2023-05-27T07:52:02Z</time>
      </trkpt>
      <trkpt lat="43.35441" lon="1.79851">
        <ele>206.6</ele>
        <time>2023-05-27T07:52:03Z</time>
      </trkpt>
      <trkpt lat="43.35439" lon="1.79856">
        <ele>206.6</ele>
        <time>2023-05-27T07:52:04Z</time>
      </trkpt>
      <trkpt lat="43.35437" lon="1.7986">
        <ele>206.6</ele>
        <time>2023-05-27T07:52:05Z</time>
      </trkpt>
      <trkpt lat="43.35434" lon="1.79864">
        <ele>206.6</ele>
        <time>2023-05-27T07:52:06Z</time>
      </trkpt>
      <trkpt lat="43.35431" lon="1.79869">
        <ele>206.6</ele>
        <time>2023-05-27T07:52:07Z</time>
      </trkpt>
      <trkpt lat="43.35429" lon="1.79873">
        <ele>206.6</ele>
        <time>2023-05-27T07:52:08Z</time>
      </trkpt>
      <trkpt lat="43.35425" lon="1.7988">
        <ele>206.6</ele>
        <time>2023-05-27T07:52:09Z</time>
      </trkpt>
      <trkpt lat="43.35422" lon="1.79887">
        <ele>206.6</ele>
        <time>2023-05-27T07:52:10Z</time>
      </trkpt>
      <trkpt lat="43.35419" lon="1.79896">
        <ele>206.6</ele>
        <time>2023-05-27T07:52:11Z</time>
      </trkpt>
      <trkpt lat="43.35415" lon="1.79904">
        <ele>206.6</ele>
        <time>2023-05-27T07:52:12Z</time>
      </trkpt>
      <trkpt lat="43.35413" lon="1.7991">
        <ele>206.6</ele>
        <time>2023-05-27T07:52:13Z</time>
      </trkpt>
      <trkpt lat="43.35411" lon="1.79916">
        <ele>206.6</ele>
        <time>2023-05-27T07:52:14Z</time>
      </trkpt>
      <trkpt lat="43.35409" lon="1.79922">
        <ele>206.6</ele>
        <time>2023-05-27T07:52:15Z</time>
      </trkpt>
      <trkpt lat="43.35407" lon="1.79928">
        <ele>206.6</ele>
        <time>2023-05-27T07:52:16Z</time>
      </trkpt>
      <trkpt lat="43.35404" lon="1.79934">
        <ele>206.6</ele>
        <time>2023-05-27T07:52:17Z</time>
      </trkpt>
      <trkpt lat="43.35401" lon="1.79941">
        <ele>206.6</ele>
        <time>2023-05-27T07:52:18Z</time>
      </trkpt>
      <trkpt lat="43.35398" lon="1.79947">
        <ele>206.6</ele>
        <time>2023-05-27T07:52:19Z</time>
      </trkpt>
      <trkpt lat="43.35396" lon="1.79954">
        <ele>206.6</ele>
        <time>2023-05-27T07:52:20Z</time>
      </trkpt>
      <trkpt lat="43.35394" lon="1.7996">
        <ele>206.6</ele>
        <time>2023-05-27T07:52:21Z</time>
      </trkpt>
      <trkpt lat="43.35394" lon="1.79964">
        <ele>206.8</ele>
        <time>2023-05-27T07:52:22Z</time>
      </trkpt>
      <trkpt lat="43.35395" lon="1.79969">
        <ele>206.8</ele>
        <time>2023-05-27T07:52:23Z</time>
      </trkpt>
      <trkpt lat="43.35397" lon="1.79972">
        <ele>207</ele>
        <time>2023-05-27T07:52:24Z</time>
      </trkpt>
      <trkpt lat="43.35398" lon="1.79976">
        <ele>207.2</ele>
        <time>2023-05-27T07:52:25Z</time>
      </trkpt>
      <trkpt lat="43.354" lon="1.79982">
        <ele>207.2</ele>
        <time>2023-05-27T07:52:26Z</time>
      </trkpt>
      <trkpt lat="43.35403" lon="1.7999">
        <ele>207.2</ele>
        <time>2023-05-27T07:52:27Z</time>
      </trkpt>
      <trkpt lat="43.35405" lon="1.79997">
        <ele>207.2</ele>
        <time>2023-05-27T07:52:28Z</time>
      </trkpt>
      <trkpt lat="43.35404" lon="1.80003">
        <ele>207.2</ele>
        <time>2023-05-27T07:52:29Z</time>
      </trkpt>
      <trkpt lat="43.35403" lon="1.80007">
        <ele>207.2</ele>
        <time>2023-05-27T07:52:30Z</time>
      </trkpt>
      <trkpt lat="43.35403" lon="1.80013">
        <ele>207.2</ele>
        <time>2023-05-27T07:52:31Z</time>
      </trkpt>
      <trkpt lat="43.35404" lon="1.80021">
        <ele>207.2</ele>
        <time>2023-05-27T07:52:32Z</time>
      </trkpt>
      <trkpt lat="43.35403" lon="1.80028">
        <ele>207.2</ele>
        <time>2023-05-27T07:52:33Z</time>
      </trkpt>
      <trkpt lat="43.35402" lon="1.80034">
        <ele>207.2</ele>
        <time>2023-05-27T07:52:34Z</time>
      </trkpt>
      <trkpt lat="43.35402" lon="1.80039">
        <ele>207.2</ele>
        <time>2023-05-27T07:52:35Z</time>
      </trkpt>
      <trkpt lat="43.35402" lon="1.80044">
        <ele>207</ele>
        <time>2023-05-27T07:52:36Z</time>
      </trkpt>
      <trkpt lat="43.35402" lon="1.8005">
        <ele>207</ele>
        <time>2023-05-27T07:52:37Z</time>
      </trkpt>
      <trkpt lat="43.35403" lon="1.80056">
        <ele>207</ele>
        <time>2023-05-27T07:52:38Z</time>
      </trkpt>
      <trkpt lat="43.35404" lon="1.80062">
        <ele>207</ele>
        <time>2023-05-27T07:52:39Z</time>
      </trkpt>
      <trkpt lat="43.35405" lon="1.80068">
        <ele>207</ele>
        <time>2023-05-27T07:52:40Z</time>
      </trkpt>
      <trkpt lat="43.35406" lon="1.80074">
        <ele>207</ele>
        <time>2023-05-27T07:52:41Z</time>
      </trkpt>
      <trkpt lat="43.35407" lon="1.80079">
        <ele>207</ele>
        <time>2023-05-27T07:52:42Z</time>
      </trkpt>
      <trkpt lat="43.35408" lon="1.80085">
        <ele>207</ele>
        <time>2023-05-27T07:52:43Z</time>
      </trkpt>
      <trkpt lat="43.35409" lon="1.80092">
        <ele>207.2</ele>
        <time>2023-05-27T07:52:44Z</time>
      </trkpt>
      <trkpt lat="43.3541" lon="1.80098">
        <ele>207.2</ele>
        <time>2023-05-27T07:52:45Z</time>
      </trkpt>
      <trkpt lat="43.35412" lon="1.80103">
        <ele>207.2</ele>
        <time>2023-05-27T07:52:46Z</time>
      </trkpt>
      <trkpt lat="43.35414" lon="1.80109">
        <ele>207.2</ele>
        <time>2023-05-27T07:52:47Z</time>
      </trkpt>
      <trkpt lat="43.35416" lon="1.80115">
        <ele>207.2</ele>
        <time>2023-05-27T07:52:48Z</time>
      </trkpt>
      <trkpt lat="43.35417" lon="1.80121">
        <ele>207.2</ele>
        <time>2023-05-27T07:52:49Z</time>
      </trkpt>
      <trkpt lat="43.35419" lon="1.80127">
        <ele>207.2</ele>
        <time>2023-05-27T07:52:50Z</time>
      </trkpt>
      <trkpt lat="43.3542" lon="1.80132">
        <ele>207.2</ele>
        <time>2023-05-27T07:52:51Z</time>
      </trkpt>
      <trkpt lat="43.35422" lon="1.80137">
        <ele>207.2</ele>
        <time>2023-05-27T07:52:52Z</time>
      </trkpt>
      <trkpt lat="43.35424" lon="1.80142">
        <ele>207.2</ele>
        <time>2023-05-27T07:52:53Z</time>
      </trkpt>
      <trkpt lat="43.35426" lon="1.80148">
        <ele>207.2</ele>
        <time>2023-05-27T07:52:54Z</time>
      </trkpt>
      <trkpt lat="43.35427" lon="1.80153">
        <ele>207.2</ele>
        <time>2023-05-27T07:52:55Z</time>
      </trkpt>
      <trkpt lat="43.35429" lon="1.80157">
        <ele>207.2</ele>
        <time>2023-05-27T07:52:56Z</time>
      </trkpt>
      <trkpt lat="43.35431" lon="1.80161">
        <ele>207.2</ele>
        <time>2023-05-27T07:52:57Z</time>
      </trkpt>
      <trkpt lat="43.35432" lon="1.80166">
        <ele>207.2</ele>
        <time>2023-05-27T07:52:58Z</time>
      </trkpt>
      <trkpt lat="43.35435" lon="1.80171">
        <ele>207.2</ele>
        <time>2023-05-27T07:52:59Z</time>
      </trkpt>
      <trkpt lat="43.35438" lon="1.80176">
        <ele>207.2</ele>
        <time>2023-05-27T07:53:00Z</time>
      </trkpt>
      <trkpt lat="43.35441" lon="1.80181">
        <ele>207.2</ele>
        <time>2023-05-27T07:53:01Z</time>
      </trkpt>
      <trkpt lat="43.35444" lon="1.80185">
        <ele>207</ele>
        <time>2023-05-27T07:53:02Z</time>
      </trkpt>
      <trkpt lat="43.35447" lon="1.8019">
        <ele>207</ele>
        <time>2023-05-27T07:53:03Z</time>
      </trkpt>
      <trkpt lat="43.3545" lon="1.80196">
        <ele>207</ele>
        <time>2023-05-27T07:53:04Z</time>
      </trkpt>
      <trkpt lat="43.35453" lon="1.80201">
        <ele>207</ele>
        <time>2023-05-27T07:53:05Z</time>
      </trkpt>
      <trkpt lat="43.35456" lon="1.80205">
        <ele>207</ele>
        <time>2023-05-27T07:53:06Z</time>
      </trkpt>
      <trkpt lat="43.35459" lon="1.80208">
        <ele>207.2</ele>
        <time>2023-05-27T07:53:07Z</time>
      </trkpt>
      <trkpt lat="43.35462" lon="1.80212">
        <ele>207.2</ele>
        <time>2023-05-27T07:53:08Z</time>
      </trkpt>
      <trkpt lat="43.35466" lon="1.80216">
        <ele>207.2</ele>
        <time>2023-05-27T07:53:09Z</time>
      </trkpt>
      <trkpt lat="43.3547" lon="1.8022">
        <ele>207.2</ele>
        <time>2023-05-27T07:53:10Z</time>
      </trkpt>
      <trkpt lat="43.35473" lon="1.80224">
        <ele>207.2</ele>
        <time>2023-05-27T07:53:11Z</time>
      </trkpt>
      <trkpt lat="43.35476" lon="1.8023">
        <ele>207.2</ele>
        <time>2023-05-27T07:53:12Z</time>
      </trkpt>
      <trkpt lat="43.35479" lon="1.80235">
        <ele>207</ele>
        <time>2023-05-27T07:53:13Z</time>
      </trkpt>
      <trkpt lat="43.35482" lon="1.8024">
        <ele>207</ele>
        <time>2023-05-27T07:53:14Z</time>
      </trkpt>
      <trkpt lat="43.35484" lon="1.80246">
        <ele>207</ele>
        <time>2023-05-27T07:53:15Z</time>
      </trkpt>
      <trkpt lat="43.35486" lon="1.80253">
        <ele>207</ele>
        <time>2023-05-27T07:53:16Z</time>
      </trkpt>
      <trkpt lat="43.35488" lon="1.8026">
        <ele>207</ele>
        <time>2023-05-27T07:53:17Z</time>
      </trkpt>
      <trkpt lat="43.3549" lon="1.80268">
        <ele>207</ele>
        <time>2023-05-27T07:53:18Z</time>
      </trkpt>
      <trkpt lat="43.35493" lon="1.80274">
        <ele>207</ele>
        <time>2023-05-27T07:53:19Z</time>
      </trkpt>
      <trkpt lat="43.35497" lon="1.8028">
        <ele>206.8</ele>
        <time>2023-05-27T07:53:20Z</time>
      </trkpt>
      <trkpt lat="43.35499" lon="1.80285">
        <ele>206.8</ele>
        <time>2023-05-27T07:53:21Z</time>
      </trkpt>
      <trkpt lat="43.355" lon="1.80288">
        <ele>206.8</ele>
        <time>2023-05-27T07:53:22Z</time>
      </trkpt>
      <trkpt lat="43.35502" lon="1.8029">
        <ele>206.8</ele>
        <time>2023-05-27T07:53:23Z</time>
      </trkpt>
      <trkpt lat="43.35504" lon="1.80293">
        <ele>206.8</ele>
        <time>2023-05-27T07:53:24Z</time>
      </trkpt>
      <trkpt lat="43.35506" lon="1.80296">
        <ele>206.8</ele>
        <time>2023-05-27T07:53:25Z</time>
      </trkpt>
      <trkpt lat="43.3551" lon="1.80302">
        <ele>206.8</ele>
        <time>2023-05-27T07:53:26Z</time>
      </trkpt>
      <trkpt lat="43.35515" lon="1.8031">
        <ele>206.8</ele>
        <time>2023-05-27T07:53:27Z</time>
      </trkpt>
      <trkpt lat="43.35518" lon="1.80316">
        <ele>206.8</ele>
        <time>2023-05-27T07:53:28Z</time>
      </trkpt>
      <trkpt lat="43.3552" lon="1.80319">
        <ele>207</ele>
        <time>2023-05-27T07:53:29Z</time>
      </trkpt>
      <trkpt lat="43.35521" lon="1.80322">
        <ele>207</ele>
        <time>2023-05-27T07:53:30Z</time>
      </trkpt>
      <trkpt lat="43.35523" lon="1.80324">
        <ele>207</ele>
        <time>2023-05-27T07:53:31Z</time>
      </trkpt>
      <trkpt lat="43.35526" lon="1.80327">
        <ele>207</ele>
        <time>2023-05-27T07:53:32Z</time>
      </trkpt>
      <trkpt lat="43.3553" lon="1.8033">
        <ele>207</ele>
        <time>2023-05-27T07:53:33Z</time>
      </trkpt>
      <trkpt lat="43.35533" lon="1.80332">
        <ele>207</ele>
        <time>2023-05-27T07:53:34Z</time>
      </trkpt>
      <trkpt lat="43.35537" lon="1.80335">
        <ele>206.8</ele>
        <time>2023-05-27T07:53:35Z</time>
      </trkpt>
      <trkpt lat="43.35542" lon="1.80337">
        <ele>206.8</ele>
        <time>2023-05-27T07:53:36Z</time>
      </trkpt>
      <trkpt lat="43.35546" lon="1.80339">
        <ele>206.4</ele>
        <time>2023-05-27T07:53:37Z</time>
      </trkpt>
      <trkpt lat="43.35551" lon="1.80342">
        <ele>206.2</ele>
        <time>2023-05-27T07:53:38Z</time>
      </trkpt>
      <trkpt lat="43.35557" lon="1.80347">
        <ele>206</ele>
        <time>2023-05-27T07:53:39Z</time>
      </trkpt>
      <trkpt lat="43.35563" lon="1.80353">
        <ele>205.8</ele>
        <time>2023-05-27T07:53:40Z</time>
      </trkpt>
      <trkpt lat="43.35568" lon="1.80358">
        <ele>205.6</ele>
        <time>2023-05-27T07:53:41Z</time>
      </trkpt>
      <trkpt lat="43.35573" lon="1.80364">
        <ele>205.4</ele>
        <time>2023-05-27T07:53:42Z</time>
      </trkpt>
      <trkpt lat="43.35578" lon="1.80371">
        <ele>205.2</ele>
        <time>2023-05-27T07:53:43Z</time>
      </trkpt>
      <trkpt lat="43.35584" lon="1.80377">
        <ele>205.2</ele>
        <time>2023-05-27T07:53:44Z</time>
      </trkpt>
      <trkpt lat="43.3559" lon="1.80383">
        <ele>205</ele>
        <time>2023-05-27T07:53:45Z</time>
      </trkpt>
      <trkpt lat="43.35595" lon="1.80389">
        <ele>205</ele>
        <time>2023-05-27T07:53:46Z</time>
      </trkpt>
      <trkpt lat="43.356" lon="1.80395">
        <ele>204.8</ele>
        <time>2023-05-27T07:53:47Z</time>
      </trkpt>
      <trkpt lat="43.35605" lon="1.80401">
        <ele>204.8</ele>
        <time>2023-05-27T07:53:48Z</time>
      </trkpt>
      <trkpt lat="43.35608" lon="1.80408">
        <ele>204.8</ele>
        <time>2023-05-27T07:53:49Z</time>
      </trkpt>
      <trkpt lat="43.35611" lon="1.80414">
        <ele>204.8</ele>
        <time>2023-05-27T07:53:50Z</time>
      </trkpt>
      <trkpt lat="43.35615" lon="1.8042">
        <ele>204.8</ele>
        <time>2023-05-27T07:53:51Z</time>
      </trkpt>
      <trkpt lat="43.35618" lon="1.80427">
        <ele>204.8</ele>
        <time>2023-05-27T07:53:52Z</time>
      </trkpt>
      <trkpt lat="43.35623" lon="1.80435">
        <ele>204.8</ele>
        <time>2023-05-27T07:53:53Z</time>
      </trkpt>
      <trkpt lat="43.35626" lon="1.8044">
        <ele>204.8</ele>
        <time>2023-05-27T07:53:54Z</time>
      </trkpt>
      <trkpt lat="43.35629" lon="1.80445">
        <ele>204.8</ele>
        <time>2023-05-27T07:53:55Z</time>
      </trkpt>
      <trkpt lat="43.35633" lon="1.80451">
        <ele>204.8</ele>
        <time>2023-05-27T07:53:56Z</time>
      </trkpt>
      <trkpt lat="43.35636" lon="1.80456">
        <ele>204.8</ele>
        <time>2023-05-27T07:53:57Z</time>
      </trkpt>
      <trkpt lat="43.35638" lon="1.80462">
        <ele>204.8</ele>
        <time>2023-05-27T07:53:58Z</time>
      </trkpt>
      <trkpt lat="43.35641" lon="1.80468">
        <ele>204.8</ele>
        <time>2023-05-27T07:53:59Z</time>
      </trkpt>
      <trkpt lat="43.35643" lon="1.80474">
        <ele>205</ele>
        <time>2023-05-27T07:54:00Z</time>
      </trkpt>
      <trkpt lat="43.35647" lon="1.80479">
        <ele>205</ele>
        <time>2023-05-27T07:54:01Z</time>
      </trkpt>
      <trkpt lat="43.3565" lon="1.80485">
        <ele>205</ele>
        <time>2023-05-27T07:54:02Z</time>
      </trkpt>
      <trkpt lat="43.35653" lon="1.80492">
        <ele>205</ele>
        <time>2023-05-27T07:54:03Z</time>
      </trkpt>
      <trkpt lat="43.35655" lon="1.80498">
        <ele>205</ele>
        <time>2023-05-27T07:54:04Z</time>
      </trkpt>
      <trkpt lat="43.35659" lon="1.80505">
        <ele>205</ele>
        <time>2023-05-27T07:54:05Z</time>
      </trkpt>
      <trkpt lat="43.35663" lon="1.80511">
        <ele>205</ele>
        <time>2023-05-27T07:54:06Z</time>
      </trkpt>
      <trkpt lat="43.35665" lon="1.80516">
        <ele>205</ele>
        <time>2023-05-27T07:54:07Z</time>
      </trkpt>
      <trkpt lat="43.35668" lon="1.80519">
        <ele>205</ele>
        <time>2023-05-27T07:54:08Z</time>
      </trkpt>
      <trkpt lat="43.35671" lon="1.80523">
        <ele>205.2</ele>
        <time>2023-05-27T07:54:09Z</time>
      </trkpt>
      <trkpt lat="43.35674" lon="1.80527">
        <ele>205.2</ele>
        <time>2023-05-27T07:54:10Z</time>
      </trkpt>
      <trkpt lat="43.35678" lon="1.80531">
        <ele>205.2</ele>
        <time>2023-05-27T07:54:11Z</time>
      </trkpt>
      <trkpt lat="43.35682" lon="1.80536">
        <ele>205.2</ele>
        <time>2023-05-27T07:54:12Z</time>
      </trkpt>
      <trkpt lat="43.35686" lon="1.8054">
        <ele>205.2</ele>
        <time>2023-05-27T07:54:13Z</time>
      </trkpt>
      <trkpt lat="43.35688" lon="1.80544">
        <ele>205.2</ele>
        <time>2023-05-27T07:54:14Z</time>
      </trkpt>
      <trkpt lat="43.3569" lon="1.80548">
        <ele>205.2</ele>
        <time>2023-05-27T07:54:15Z</time>
      </trkpt>
      <trkpt lat="43.35692" lon="1.80553">
        <ele>205.4</ele>
        <time>2023-05-27T07:54:16Z</time>
      </trkpt>
      <trkpt lat="43.35694" lon="1.80559">
        <ele>205.4</ele>
        <time>2023-05-27T07:54:17Z</time>
      </trkpt>
      <trkpt lat="43.35696" lon="1.80564">
        <ele>205.6</ele>
        <time>2023-05-27T07:54:18Z</time>
      </trkpt>
      <trkpt lat="43.35698" lon="1.80569">
        <ele>205.8</ele>
        <time>2023-05-27T07:54:19Z</time>
      </trkpt>
      <trkpt lat="43.35699" lon="1.80574">
        <ele>205.8</ele>
        <time>2023-05-27T07:54:20Z</time>
      </trkpt>
      <trkpt lat="43.357" lon="1.80578">
        <ele>206</ele>
        <time>2023-05-27T07:54:21Z</time>
      </trkpt>
      <trkpt lat="43.357" lon="1.80583">
        <ele>206.2</ele>
        <time>2023-05-27T07:54:22Z</time>
      </trkpt>
      <trkpt lat="43.357" lon="1.80588">
        <ele>206.2</ele>
        <time>2023-05-27T07:54:23Z</time>
      </trkpt>
      <trkpt lat="43.35699" lon="1.80594">
        <ele>206.4</ele>
        <time>2023-05-27T07:54:24Z</time>
      </trkpt>
      <trkpt lat="43.35699" lon="1.806">
        <ele>206.4</ele>
        <time>2023-05-27T07:54:25Z</time>
      </trkpt>
      <trkpt lat="43.35699" lon="1.80607">
        <ele>206.4</ele>
        <time>2023-05-27T07:54:26Z</time>
      </trkpt>
      <trkpt lat="43.35701" lon="1.80611">
        <ele>206.4</ele>
        <time>2023-05-27T07:54:27Z</time>
      </trkpt>
      <trkpt lat="43.35702" lon="1.80615">
        <ele>206.4</ele>
        <time>2023-05-27T07:54:28Z</time>
      </trkpt>
      <trkpt lat="43.35704" lon="1.80619">
        <ele>206.6</ele>
        <time>2023-05-27T07:54:29Z</time>
      </trkpt>
      <trkpt lat="43.35706" lon="1.80623">
        <ele>206.6</ele>
        <time>2023-05-27T07:54:30Z</time>
      </trkpt>
      <trkpt lat="43.35709" lon="1.80627">
        <ele>206.6</ele>
        <time>2023-05-27T07:54:31Z</time>
      </trkpt>
      <trkpt lat="43.35711" lon="1.80633">
        <ele>206.6</ele>
        <time>2023-05-27T07:54:32Z</time>
      </trkpt>
      <trkpt lat="43.35712" lon="1.80638">
        <ele>206.4</ele>
        <time>2023-05-27T07:54:33Z</time>
      </trkpt>
      <trkpt lat="43.35714" lon="1.80643">
        <ele>206.4</ele>
        <time>2023-05-27T07:54:34Z</time>
      </trkpt>
      <trkpt lat="43.35716" lon="1.80648">
        <ele>206.4</ele>
        <time>2023-05-27T07:54:35Z</time>
      </trkpt>
      <trkpt lat="43.35718" lon="1.80653">
        <ele>206.6</ele>
        <time>2023-05-27T07:54:36Z</time>
      </trkpt>
      <trkpt lat="43.35719" lon="1.80657">
        <ele>206.6</ele>
        <time>2023-05-27T07:54:37Z</time>
      </trkpt>
      <trkpt lat="43.35722" lon="1.80662">
        <ele>206.6</ele>
        <time>2023-05-27T07:54:38Z</time>
      </trkpt>
      <trkpt lat="43.35724" lon="1.80666">
        <ele>206.8</ele>
        <time>2023-05-27T07:54:39Z</time>
      </trkpt>
      <trkpt lat="43.35726" lon="1.80669">
        <ele>206.8</ele>
        <time>2023-05-27T07:54:40Z</time>
      </trkpt>
      <trkpt lat="43.35727" lon="1.80672">
        <ele>207</ele>
        <time>2023-05-27T07:54:41Z</time>
      </trkpt>
      <trkpt lat="43.35728" lon="1.80675">
        <ele>207</ele>
        <time>2023-05-27T07:54:42Z</time>
      </trkpt>
      <trkpt lat="43.3573" lon="1.80678">
        <ele>207.2</ele>
        <time>2023-05-27T07:54:43Z</time>
      </trkpt>
      <trkpt lat="43.35731" lon="1.80682">
        <ele>207.2</ele>
        <time>2023-05-27T07:54:44Z</time>
      </trkpt>
      <trkpt lat="43.35732" lon="1.80685">
        <ele>207.4</ele>
        <time>2023-05-27T07:54:45Z</time>
      </trkpt>
      <trkpt lat="43.35733" lon="1.80688">
        <ele>207.4</ele>
        <time>2023-05-27T07:54:46Z</time>
      </trkpt>
      <trkpt lat="43.35734" lon="1.80692">
        <ele>207.4</ele>
        <time>2023-05-27T07:54:47Z</time>
      </trkpt>
      <trkpt lat="43.35735" lon="1.80695">
        <ele>207.6</ele>
        <time>2023-05-27T07:54:48Z</time>
      </trkpt>
      <trkpt lat="43.35737" lon="1.80699">
        <ele>207.6</ele>
        <time>2023-05-27T07:54:49Z</time>
      </trkpt>
      <trkpt lat="43.35738" lon="1.80702">
        <ele>207.6</ele>
        <time>2023-05-27T07:54:50Z</time>
      </trkpt>
      <trkpt lat="43.3574" lon="1.80706">
        <ele>207.6</ele>
        <time>2023-05-27T07:54:51Z</time>
      </trkpt>
      <trkpt lat="43.35741" lon="1.8071">
        <ele>207.6</ele>
        <time>2023-05-27T07:54:52Z</time>
      </trkpt>
      <trkpt lat="43.35742" lon="1.80715">
        <ele>207.8</ele>
        <time>2023-05-27T07:54:53Z</time>
      </trkpt>
      <trkpt lat="43.35743" lon="1.8072">
        <ele>207.8</ele>
        <time>2023-05-27T07:54:54Z</time>
      </trkpt>
      <trkpt lat="43.35744" lon="1.80724">
        <ele>207.8</ele>
        <time>2023-05-27T07:54:55Z</time>
      </trkpt>
      <trkpt lat="43.35746" lon="1.80728">
        <ele>207.8</ele>
        <time>2023-05-27T07:54:56Z</time>
      </trkpt>
      <trkpt lat="43.35747" lon="1.80733">
        <ele>207.8</ele>
        <time>2023-05-27T07:54:57Z</time>
      </trkpt>
      <trkpt lat="43.35748" lon="1.80739">
        <ele>207.8</ele>
        <time>2023-05-27T07:54:58Z</time>
      </trkpt>
      <trkpt lat="43.35749" lon="1.80744">
        <ele>207.8</ele>
        <time>2023-05-27T07:54:59Z</time>
      </trkpt>
      <trkpt lat="43.35751" lon="1.80748">
        <ele>207.8</ele>
        <time>2023-05-27T07:55:00Z</time>
      </trkpt>
      <trkpt lat="43.35753" lon="1.80753">
        <ele>207.8</ele>
        <time>2023-05-27T07:55:01Z</time>
      </trkpt>
      <trkpt lat="43.35754" lon="1.80756">
        <ele>207.8</ele>
        <time>2023-05-27T07:55:02Z</time>
      </trkpt>
      <trkpt lat="43.35755" lon="1.80759">
        <ele>207.6</ele>
        <time>2023-05-27T07:55:03Z</time>
      </trkpt>
      <trkpt lat="43.35756" lon="1.80763">
        <ele>207.6</ele>
        <time>2023-05-27T07:55:04Z</time>
      </trkpt>
      <trkpt lat="43.35757" lon="1.80769">
        <ele>207.6</ele>
        <time>2023-05-27T07:55:05Z</time>
      </trkpt>
      <trkpt lat="43.35759" lon="1.80774">
        <ele>207.6</ele>
        <time>2023-05-27T07:55:06Z</time>
      </trkpt>
      <trkpt lat="43.3576" lon="1.8078">
        <ele>207.6</ele>
        <time>2023-05-27T07:55:07Z</time>
      </trkpt>
      <trkpt lat="43.35761" lon="1.80785">
        <ele>207.6</ele>
        <time>2023-05-27T07:55:08Z</time>
      </trkpt>
      <trkpt lat="43.35762" lon="1.8079">
        <ele>207.4</ele>
        <time>2023-05-27T07:55:09Z</time>
      </trkpt>
      <trkpt lat="43.35763" lon="1.80796">
        <ele>207.4</ele>
        <time>2023-05-27T07:55:10Z</time>
      </trkpt>
      <trkpt lat="43.35764" lon="1.80802">
        <ele>207.4</ele>
        <time>2023-05-27T07:55:11Z</time>
      </trkpt>
      <trkpt lat="43.35765" lon="1.80808">
        <ele>207.4</ele>
        <time>2023-05-27T07:55:12Z</time>
      </trkpt>
      <trkpt lat="43.35766" lon="1.80815">
        <ele>207.4</ele>
        <time>2023-05-27T07:55:13Z</time>
      </trkpt>
      <trkpt lat="43.35767" lon="1.8082">
        <ele>207.2</ele>
        <time>2023-05-27T07:55:14Z</time>
      </trkpt>
      <trkpt lat="43.35768" lon="1.80825">
        <ele>207.2</ele>
        <time>2023-05-27T07:55:15Z</time>
      </trkpt>
      <trkpt lat="43.35769" lon="1.80829">
        <ele>207.2</ele>
        <time>2023-05-27T07:55:16Z</time>
      </trkpt>
      <trkpt lat="43.3577" lon="1.80834">
        <ele>207</ele>
        <time>2023-05-27T07:55:17Z</time>
      </trkpt>
      <trkpt lat="43.3577" lon="1.80839">
        <ele>207</ele>
        <time>2023-05-27T07:55:18Z</time>
      </trkpt>
      <trkpt lat="43.35771" lon="1.80845">
        <ele>207</ele>
        <time>2023-05-27T07:55:19Z</time>
      </trkpt>
      <trkpt lat="43.3577" lon="1.8085">
        <ele>207</ele>
        <time>2023-05-27T07:55:20Z</time>
      </trkpt>
      <trkpt lat="43.35771" lon="1.80854">
        <ele>207</ele>
        <time>2023-05-27T07:55:21Z</time>
      </trkpt>
      <trkpt lat="43.35772" lon="1.80858">
        <ele>207</ele>
        <time>2023-05-27T07:55:22Z</time>
      </trkpt>
      <trkpt lat="43.35773" lon="1.80864">
        <ele>207</ele>
        <time>2023-05-27T07:55:23Z</time>
      </trkpt>
      <trkpt lat="43.35774" lon="1.80869">
        <ele>207</ele>
        <time>2023-05-27T07:55:24Z</time>
      </trkpt>
      <trkpt lat="43.35775" lon="1.80876">
        <ele>207</ele>
        <time>2023-05-27T07:55:25Z</time>
      </trkpt>
      <trkpt lat="43.35776" lon="1.80884">
        <ele>207</ele>
        <time>2023-05-27T07:55:26Z</time>
      </trkpt>
      <trkpt lat="43.35777" lon="1.80891">
        <ele>207</ele>
        <time>2023-05-27T07:55:27Z</time>
      </trkpt>
      <trkpt lat="43.35778" lon="1.80898">
        <ele>206.8</ele>
        <time>2023-05-27T07:55:28Z</time>
      </trkpt>
      <trkpt lat="43.35779" lon="1.80902">
        <ele>206.8</ele>
        <time>2023-05-27T07:55:29Z</time>
      </trkpt>
      <trkpt lat="43.3578" lon="1.80907">
        <ele>207</ele>
        <time>2023-05-27T07:55:30Z</time>
      </trkpt>
      <trkpt lat="43.3578" lon="1.80912">
        <ele>207</ele>
        <time>2023-05-27T07:55:31Z</time>
      </trkpt>
      <trkpt lat="43.35782" lon="1.80916">
        <ele>207</ele>
        <time>2023-05-27T07:55:32Z</time>
      </trkpt>
      <trkpt lat="43.35782" lon="1.80921">
        <ele>207</ele>
        <time>2023-05-27T07:55:33Z</time>
      </trkpt>
      <trkpt lat="43.35782" lon="1.80927">
        <ele>207</ele>
        <time>2023-05-27T07:55:34Z</time>
      </trkpt>
      <trkpt lat="43.35782" lon="1.80932">
        <ele>207.2</ele>
        <time>2023-05-27T07:55:35Z</time>
      </trkpt>
      <trkpt lat="43.35783" lon="1.80937">
        <ele>207.2</ele>
        <time>2023-05-27T07:55:36Z</time>
      </trkpt>
      <trkpt lat="43.35784" lon="1.80941">
        <ele>207.2</ele>
        <time>2023-05-27T07:55:37Z</time>
      </trkpt>
      <trkpt lat="43.35785" lon="1.80945">
        <ele>207.2</ele>
        <time>2023-05-27T07:55:38Z</time>
      </trkpt>
      <trkpt lat="43.35785" lon="1.8095">
        <ele>207.2</ele>
        <time>2023-05-27T07:55:39Z</time>
      </trkpt>
      <trkpt lat="43.35783" lon="1.80955">
        <ele>207.2</ele>
        <time>2023-05-27T07:55:40Z</time>
      </trkpt>
      <trkpt lat="43.35782" lon="1.8096">
        <ele>207.2</ele>
        <time>2023-05-27T07:55:41Z</time>
      </trkpt>
      <trkpt lat="43.35784" lon="1.80965">
        <ele>207.2</ele>
        <time>2023-05-27T07:55:42Z</time>
      </trkpt>
      <trkpt lat="43.35785" lon="1.80972">
        <ele>207.2</ele>
        <time>2023-05-27T07:55:43Z</time>
      </trkpt>
      <trkpt lat="43.35786" lon="1.80978">
        <ele>207.2</ele>
        <time>2023-05-27T07:55:44Z</time>
      </trkpt>
      <trkpt lat="43.35787" lon="1.80983">
        <ele>207.2</ele>
        <time>2023-05-27T07:55:45Z</time>
      </trkpt>
      <trkpt lat="43.35788" lon="1.80988">
        <ele>207.2</ele>
        <time>2023-05-27T07:55:46Z</time>
      </trkpt>
      <trkpt lat="43.35788" lon="1.80993">
        <ele>207.2</ele>
        <time>2023-05-27T07:55:47Z</time>
      </trkpt>
      <trkpt lat="43.35788" lon="1.80999">
        <ele>207.4</ele>
        <time>2023-05-27T07:55:48Z</time>
      </trkpt>
      <trkpt lat="43.35788" lon="1.81004">
        <ele>207.4</ele>
        <time>2023-05-27T07:55:49Z</time>
      </trkpt>
      <trkpt lat="43.35788" lon="1.8101">
        <ele>207.4</ele>
        <time>2023-05-27T07:55:50Z</time>
      </trkpt>
      <trkpt lat="43.35789" lon="1.81015">
        <ele>207.4</ele>
        <time>2023-05-27T07:55:51Z</time>
      </trkpt>
      <trkpt lat="43.3579" lon="1.8102">
        <ele>207.4</ele>
        <time>2023-05-27T07:55:52Z</time>
      </trkpt>
      <trkpt lat="43.35792" lon="1.81026">
        <ele>207.4</ele>
        <time>2023-05-27T07:55:53Z</time>
      </trkpt>
      <trkpt lat="43.35793" lon="1.8103">
        <ele>207.4</ele>
        <time>2023-05-27T07:55:54Z</time>
      </trkpt>
      <trkpt lat="43.35793" lon="1.81037">
        <ele>207.4</ele>
        <time>2023-05-27T07:55:55Z</time>
      </trkpt>
      <trkpt lat="43.35793" lon="1.81043">
        <ele>207.4</ele>
        <time>2023-05-27T07:55:56Z</time>
      </trkpt>
      <trkpt lat="43.35793" lon="1.81048">
        <ele>207.4</ele>
        <time>2023-05-27T07:55:57Z</time>
      </trkpt>
      <trkpt lat="43.35792" lon="1.81053">
        <ele>207.4</ele>
        <time>2023-05-27T07:55:58Z</time>
      </trkpt>
      <trkpt lat="43.35792" lon="1.81059">
        <ele>207.4</ele>
        <time>2023-05-27T07:55:59Z</time>
      </trkpt>
      <trkpt lat="43.35793" lon="1.81063">
        <ele>207.4</ele>
        <time>2023-05-27T07:56:00Z</time>
      </trkpt>
      <trkpt lat="43.35793" lon="1.81066">
        <ele>207.4</ele>
        <time>2023-05-27T07:56:01Z</time>
      </trkpt>
      <trkpt lat="43.35793" lon="1.8107">
        <ele>207.4</ele>
        <time>2023-05-27T07:56:02Z</time>
      </trkpt>
      <trkpt lat="43.35794" lon="1.81073">
        <ele>207.4</ele>
        <time>2023-05-27T07:56:03Z</time>
      </trkpt>
      <trkpt lat="43.35794" lon="1.81078">
        <ele>207.4</ele>
        <time>2023-05-27T07:56:04Z</time>
      </trkpt>
      <trkpt lat="43.35794" lon="1.81081">
        <ele>207.4</ele>
        <time>2023-05-27T07:56:05Z</time>
      </trkpt>
      <trkpt lat="43.35794" lon="1.81085">
        <ele>207.4</ele>
        <time>2023-05-27T07:56:06Z</time>
      </trkpt>
      <trkpt lat="43.35794" lon="1.81089">
        <ele>207.4</ele>
        <time>2023-05-27T07:56:07Z</time>
      </trkpt>
      <trkpt lat="43.35795" lon="1.81094">
        <ele>207.4</ele>
        <time>2023-05-27T07:56:08Z</time>
      </trkpt>
      <trkpt lat="43.35796" lon="1.81098">
        <ele>207.4</ele>
        <time>2023-05-27T07:56:09Z</time>
      </trkpt>
      <trkpt lat="43.35796" lon="1.81104">
        <ele>207.4</ele>
        <time>2023-05-27T07:56:10Z</time>
      </trkpt>
      <trkpt lat="43.35796" lon="1.8111">
        <ele>207.2</ele>
        <time>2023-05-27T07:56:11Z</time>
      </trkpt>
      <trkpt lat="43.35794" lon="1.81117">
        <ele>207.2</ele>
        <time>2023-05-27T07:56:12Z</time>
      </trkpt>
      <trkpt lat="43.35793" lon="1.81123">
        <ele>207</ele>
        <time>2023-05-27T07:56:13Z</time>
      </trkpt>
      <trkpt lat="43.35792" lon="1.81129">
        <ele>207</ele>
        <time>2023-05-27T07:56:14Z</time>
      </trkpt>
      <trkpt lat="43.35792" lon="1.81136">
        <ele>206.8</ele>
        <time>2023-05-27T07:56:15Z</time>
      </trkpt>
      <trkpt lat="43.35791" lon="1.81143">
        <ele>206.8</ele>
        <time>2023-05-27T07:56:16Z</time>
      </trkpt>
      <trkpt lat="43.3579" lon="1.81148">
        <ele>206.8</ele>
        <time>2023-05-27T07:56:17Z</time>
      </trkpt>
      <trkpt lat="43.3579" lon="1.81153">
        <ele>206.6</ele>
        <time>2023-05-27T07:56:18Z</time>
      </trkpt>
      <trkpt lat="43.35789" lon="1.81159">
        <ele>206.6</ele>
        <time>2023-05-27T07:56:19Z</time>
      </trkpt>
      <trkpt lat="43.35789" lon="1.81165">
        <ele>206.6</ele>
        <time>2023-05-27T07:56:20Z</time>
      </trkpt>
      <trkpt lat="43.35788" lon="1.81171">
        <ele>206.6</ele>
        <time>2023-05-27T07:56:21Z</time>
      </trkpt>
      <trkpt lat="43.35788" lon="1.81176">
        <ele>206.4</ele>
        <time>2023-05-27T07:56:22Z</time>
      </trkpt>
      <trkpt lat="43.35788" lon="1.81182">
        <ele>206.4</ele>
        <time>2023-05-27T07:56:23Z</time>
      </trkpt>
      <trkpt lat="43.35787" lon="1.81188">
        <ele>206.4</ele>
        <time>2023-05-27T07:56:24Z</time>
      </trkpt>
      <trkpt lat="43.35787" lon="1.81193">
        <ele>206.4</ele>
        <time>2023-05-27T07:56:25Z</time>
      </trkpt>
      <trkpt lat="43.35785" lon="1.81197">
        <ele>206.4</ele>
        <time>2023-05-27T07:56:26Z</time>
      </trkpt>
      <trkpt lat="43.35784" lon="1.81202">
        <ele>206.4</ele>
        <time>2023-05-27T07:56:27Z</time>
      </trkpt>
      <trkpt lat="43.35783" lon="1.81206">
        <ele>206.4</ele>
        <time>2023-05-27T07:56:28Z</time>
      </trkpt>
      <trkpt lat="43.35782" lon="1.81212">
        <ele>206.4</ele>
        <time>2023-05-27T07:56:29Z</time>
      </trkpt>
      <trkpt lat="43.35783" lon="1.81219">
        <ele>206.4</ele>
        <time>2023-05-27T07:56:30Z</time>
      </trkpt>
      <trkpt lat="43.35783" lon="1.81224">
        <ele>206.4</ele>
        <time>2023-05-27T07:56:31Z</time>
      </trkpt>
      <trkpt lat="43.35783" lon="1.81228">
        <ele>206.4</ele>
        <time>2023-05-27T07:56:32Z</time>
      </trkpt>
      <trkpt lat="43.35783" lon="1.81232">
        <ele>206.4</ele>
        <time>2023-05-27T07:56:33Z</time>
      </trkpt>
      <trkpt lat="43.35782" lon="1.81236">
        <ele>206.4</ele>
        <time>2023-05-27T07:56:34Z</time>
      </trkpt>
      <trkpt lat="43.35781" lon="1.81241">
        <ele>206.4</ele>
        <time>2023-05-27T07:56:35Z</time>
      </trkpt>
      <trkpt lat="43.35781" lon="1.81246">
        <ele>206.4</ele>
        <time>2023-05-27T07:56:36Z</time>
      </trkpt>
      <trkpt lat="43.3578" lon="1.81252">
        <ele>206.4</ele>
        <time>2023-05-27T07:56:37Z</time>
      </trkpt>
      <trkpt lat="43.35777" lon="1.81262">
        <ele>206.4</ele>
        <time>2023-05-27T07:56:38Z</time>
      </trkpt>
      <trkpt lat="43.35776" lon="1.81268">
        <ele>206.4</ele>
        <time>2023-05-27T07:56:39Z</time>
      </trkpt>
      <trkpt lat="43.35776" lon="1.81273">
        <ele>206.4</ele>
        <time>2023-05-27T07:56:40Z</time>
      </trkpt>
      <trkpt lat="43.35776" lon="1.81279">
        <ele>206.4</ele>
        <time>2023-05-27T07:56:41Z</time>
      </trkpt>
      <trkpt lat="43.35777" lon="1.81282">
        <ele>206.4</ele>
        <time>2023-05-27T07:56:42Z</time>
      </trkpt>
      <trkpt lat="43.35777" lon="1.81286">
        <ele>206.4</ele>
        <time>2023-05-27T07:56:43Z</time>
      </trkpt>
      <trkpt lat="43.35774" lon="1.81291">
        <ele>206.4</ele>
        <time>2023-05-27T07:56:44Z</time>
      </trkpt>
      <trkpt lat="43.35771" lon="1.81295">
        <ele>206.4</ele>
        <time>2023-05-27T07:56:45Z</time>
      </trkpt>
      <trkpt lat="43.35768" lon="1.81303">
        <ele>206.4</ele>
        <time>2023-05-27T07:56:46Z</time>
      </trkpt>
      <trkpt lat="43.35764" lon="1.81313">
        <ele>206.4</ele>
        <time>2023-05-27T07:56:47Z</time>
      </trkpt>
      <trkpt lat="43.35762" lon="1.81321">
        <ele>206.4</ele>
        <time>2023-05-27T07:56:48Z</time>
      </trkpt>
      <trkpt lat="43.3576" lon="1.81327">
        <ele>206.4</ele>
        <time>2023-05-27T07:56:49Z</time>
      </trkpt>
      <trkpt lat="43.35759" lon="1.81333">
        <ele>206.4</ele>
        <time>2023-05-27T07:56:50Z</time>
      </trkpt>
      <trkpt lat="43.3576" lon="1.81337">
        <ele>206.4</ele>
        <time>2023-05-27T07:56:51Z</time>
      </trkpt>
      <trkpt lat="43.3576" lon="1.8134">
        <ele>206.4</ele>
        <time>2023-05-27T07:56:52Z</time>
      </trkpt>
      <trkpt lat="43.35761" lon="1.81345">
        <ele>206.4</ele>
        <time>2023-05-27T07:56:53Z</time>
      </trkpt>
      <trkpt lat="43.3576" lon="1.81349">
        <ele>206.4</ele>
        <time>2023-05-27T07:56:54Z</time>
      </trkpt>
      <trkpt lat="43.35757" lon="1.81353">
        <ele>206.4</ele>
        <time>2023-05-27T07:56:55Z</time>
      </trkpt>
      <trkpt lat="43.35754" lon="1.81356">
        <ele>206.4</ele>
        <time>2023-05-27T07:56:56Z</time>
      </trkpt>
      <trkpt lat="43.35752" lon="1.8136">
        <ele>206.4</ele>
        <time>2023-05-27T07:56:57Z</time>
      </trkpt>
      <trkpt lat="43.3575" lon="1.81365">
        <ele>206.4</ele>
        <time>2023-05-27T07:56:58Z</time>
      </trkpt>
      <trkpt lat="43.35749" lon="1.81373">
        <ele>206.4</ele>
        <time>2023-05-27T07:56:59Z</time>
      </trkpt>
      <trkpt lat="43.35748" lon="1.81381">
        <ele>206.2</ele>
        <time>2023-05-27T07:57:00Z</time>
      </trkpt>
      <trkpt lat="43.35746" lon="1.81388">
        <ele>206.2</ele>
        <time>2023-05-27T07:57:01Z</time>
      </trkpt>
      <trkpt lat="43.35744" lon="1.8139">
        <ele>206.4</ele>
        <time>2023-05-27T07:57:02Z</time>
      </trkpt>
      <trkpt lat="43.35743" lon="1.81392">
        <ele>206.4</ele>
        <time>2023-05-27T07:57:03Z</time>
      </trkpt>
      <trkpt lat="43.35743" lon="1.81396">
        <ele>206.4</ele>
        <time>2023-05-27T07:57:04Z</time>
      </trkpt>
      <trkpt lat="43.35743" lon="1.81401">
        <ele>206.4</ele>
        <time>2023-05-27T07:57:05Z</time>
      </trkpt>
      <trkpt lat="43.35743" lon="1.81405">
        <ele>206.4</ele>
        <time>2023-05-27T07:57:06Z</time>
      </trkpt>
      <trkpt lat="43.35742" lon="1.8141">
        <ele>206.4</ele>
        <time>2023-05-27T07:57:07Z</time>
      </trkpt>
      <trkpt lat="43.3574" lon="1.81414">
        <ele>206.4</ele>
        <time>2023-05-27T07:57:08Z</time>
      </trkpt>
      <trkpt lat="43.35737" lon="1.81421">
        <ele>206.4</ele>
        <time>2023-05-27T07:57:09Z</time>
      </trkpt>
      <trkpt lat="43.35736" lon="1.81426">
        <ele>206.4</ele>
        <time>2023-05-27T07:57:10Z</time>
      </trkpt>
      <trkpt lat="43.35736" lon="1.8143">
        <ele>206.4</ele>
        <time>2023-05-27T07:57:11Z</time>
      </trkpt>
      <trkpt lat="43.35735" lon="1.81435">
        <ele>206.4</ele>
        <time>2023-05-27T07:57:12Z</time>
      </trkpt>
      <trkpt lat="43.35734" lon="1.8144">
        <ele>206.4</ele>
        <time>2023-05-27T07:57:13Z</time>
      </trkpt>
      <trkpt lat="43.35733" lon="1.81445">
        <ele>206.4</ele>
        <time>2023-05-27T07:57:14Z</time>
      </trkpt>
      <trkpt lat="43.35732" lon="1.8145">
        <ele>206.4</ele>
        <time>2023-05-27T07:57:15Z</time>
      </trkpt>
      <trkpt lat="43.35731" lon="1.81455">
        <ele>206.4</ele>
        <time>2023-05-27T07:57:16Z</time>
      </trkpt>
      <trkpt lat="43.35731" lon="1.81461">
        <ele>206.4</ele>
        <time>2023-05-27T07:57:17Z</time>
      </trkpt>
      <trkpt lat="43.3573" lon="1.81464">
        <ele>206.4</ele>
        <time>2023-05-27T07:57:18Z</time>
      </trkpt>
      <trkpt lat="43.35729" lon="1.81467">
        <ele>206.4</ele>
        <time>2023-05-27T07:57:19Z</time>
      </trkpt>
      <trkpt lat="43.35728" lon="1.81473">
        <ele>206.4</ele>
        <time>2023-05-27T07:57:20Z</time>
      </trkpt>
      <trkpt lat="43.35726" lon="1.81479">
        <ele>206.6</ele>
        <time>2023-05-27T07:57:21Z</time>
      </trkpt>
      <trkpt lat="43.35725" lon="1.81484">
        <ele>206.6</ele>
        <time>2023-05-27T07:57:22Z</time>
      </trkpt>
      <trkpt lat="43.35721" lon="1.81489">
        <ele>206.6</ele>
        <time>2023-05-27T07:57:23Z</time>
      </trkpt>
      <trkpt lat="43.35719" lon="1.81493">
        <ele>206.6</ele>
        <time>2023-05-27T07:57:24Z</time>
      </trkpt>
      <trkpt lat="43.35719" lon="1.81497">
        <ele>206.6</ele>
        <time>2023-05-27T07:57:25Z</time>
      </trkpt>
      <trkpt lat="43.35718" lon="1.815">
        <ele>206.6</ele>
        <time>2023-05-27T07:57:26Z</time>
      </trkpt>
      <trkpt lat="43.35715" lon="1.81505">
        <ele>206.6</ele>
        <time>2023-05-27T07:57:27Z</time>
      </trkpt>
      <trkpt lat="43.35713" lon="1.8151">
        <ele>206.6</ele>
        <time>2023-05-27T07:57:28Z</time>
      </trkpt>
      <trkpt lat="43.35711" lon="1.81517">
        <ele>206.6</ele>
        <time>2023-05-27T07:57:29Z</time>
      </trkpt>
      <trkpt lat="43.3571" lon="1.81522">
        <ele>206.6</ele>
        <time>2023-05-27T07:57:30Z</time>
      </trkpt>
      <trkpt lat="43.35708" lon="1.81527">
        <ele>206.6</ele>
        <time>2023-05-27T07:57:31Z</time>
      </trkpt>
      <trkpt lat="43.35706" lon="1.81533">
        <ele>206.6</ele>
        <time>2023-05-27T07:57:32Z</time>
      </trkpt>
      <trkpt lat="43.35705" lon="1.81538">
        <ele>206.6</ele>
        <time>2023-05-27T07:57:33Z</time>
      </trkpt>
      <trkpt lat="43.35705" lon="1.81542">
        <ele>206.6</ele>
        <time>2023-05-27T07:57:34Z</time>
      </trkpt>
      <trkpt lat="43.35703" lon="1.81548">
        <ele>206.6</ele>
        <time>2023-05-27T07:57:35Z</time>
      </trkpt>
      <trkpt lat="43.35701" lon="1.81553">
        <ele>206.6</ele>
        <time>2023-05-27T07:57:36Z</time>
      </trkpt>
      <trkpt lat="43.35698" lon="1.81556">
        <ele>206.6</ele>
        <time>2023-05-27T07:57:37Z</time>
      </trkpt>
      <trkpt lat="43.35697" lon="1.81559">
        <ele>206.8</ele>
        <time>2023-05-27T07:57:38Z</time>
      </trkpt>
      <trkpt lat="43.35696" lon="1.81562">
        <ele>206.8</ele>
        <time>2023-05-27T07:57:39Z</time>
      </trkpt>
      <trkpt lat="43.35695" lon="1.81565">
        <ele>206.8</ele>
        <time>2023-05-27T07:57:40Z</time>
      </trkpt>
      <trkpt lat="43.35694" lon="1.8157">
        <ele>206.8</ele>
        <time>2023-05-27T07:57:41Z</time>
      </trkpt>
      <trkpt lat="43.35691" lon="1.81574">
        <ele>206.8</ele>
        <time>2023-05-27T07:57:42Z</time>
      </trkpt>
      <trkpt lat="43.35688" lon="1.8158">
        <ele>206.8</ele>
        <time>2023-05-27T07:57:43Z</time>
      </trkpt>
      <trkpt lat="43.35687" lon="1.81585">
        <ele>206.8</ele>
        <time>2023-05-27T07:57:44Z</time>
      </trkpt>
      <trkpt lat="43.35685" lon="1.8159">
        <ele>206.8</ele>
        <time>2023-05-27T07:57:45Z</time>
      </trkpt>
      <trkpt lat="43.35682" lon="1.81595">
        <ele>206.8</ele>
        <time>2023-05-27T07:57:46Z</time>
      </trkpt>
      <trkpt lat="43.3568" lon="1.81599">
        <ele>206.8</ele>
        <time>2023-05-27T07:57:47Z</time>
      </trkpt>
      <trkpt lat="43.35679" lon="1.81604">
        <ele>206.8</ele>
        <time>2023-05-27T07:57:48Z</time>
      </trkpt>
      <trkpt lat="43.35679" lon="1.81608">
        <ele>206.8</ele>
        <time>2023-05-27T07:57:49Z</time>
      </trkpt>
      <trkpt lat="43.3568" lon="1.81611">
        <ele>206.8</ele>
        <time>2023-05-27T07:57:50Z</time>
      </trkpt>
      <trkpt lat="43.35678" lon="1.81616">
        <ele>206.8</ele>
        <time>2023-05-27T07:57:51Z</time>
      </trkpt>
      <trkpt lat="43.35676" lon="1.81621">
        <ele>207</ele>
        <time>2023-05-27T07:57:52Z</time>
      </trkpt>
      <trkpt lat="43.35675" lon="1.81629">
        <ele>207</ele>
        <time>2023-05-27T07:57:53Z</time>
      </trkpt>
      <trkpt lat="43.35675" lon="1.81636">
        <ele>207.2</ele>
        <time>2023-05-27T07:57:54Z</time>
      </trkpt>
      <trkpt lat="43.35677" lon="1.81642">
        <ele>207.2</ele>
        <time>2023-05-27T07:57:55Z</time>
      </trkpt>
      <trkpt lat="43.35678" lon="1.81647">
        <ele>207.4</ele>
        <time>2023-05-27T07:57:56Z</time>
      </trkpt>
      <trkpt lat="43.35677" lon="1.81653">
        <ele>207.8</ele>
        <time>2023-05-27T07:57:57Z</time>
      </trkpt>
      <trkpt lat="43.35675" lon="1.81655">
        <ele>208</ele>
        <time>2023-05-27T07:57:58Z</time>
      </trkpt>
      <trkpt lat="43.35672" lon="1.81659">
        <ele>208.2</ele>
        <time>2023-05-27T07:57:59Z</time>
      </trkpt>
      <trkpt lat="43.35671" lon="1.81661">
        <ele>208.4</ele>
        <time>2023-05-27T07:58:00Z</time>
      </trkpt>
      <trkpt lat="43.35671" lon="1.81662">
        <ele>208.6</ele>
        <time>2023-05-27T07:58:01Z</time>
      </trkpt>
      <trkpt lat="43.3567" lon="1.81665">
        <ele>208.8</ele>
        <time>2023-05-27T07:58:02Z</time>
      </trkpt>
      <trkpt lat="43.35668" lon="1.81668">
        <ele>208.8</ele>
        <time>2023-05-27T07:58:03Z</time>
      </trkpt>
      <trkpt lat="43.35666" lon="1.81671">
        <ele>208.8</ele>
        <time>2023-05-27T07:58:04Z</time>
      </trkpt>
      <trkpt lat="43.35665" lon="1.81674">
        <ele>209</ele>
        <time>2023-05-27T07:58:05Z</time>
      </trkpt>
      <trkpt lat="43.35663" lon="1.81677">
        <ele>209</ele>
        <time>2023-05-27T07:58:06Z</time>
      </trkpt>
      <trkpt lat="43.35662" lon="1.8168">
        <ele>209</ele>
        <time>2023-05-27T07:58:07Z</time>
      </trkpt>
      <trkpt lat="43.3566" lon="1.81683">
        <ele>209</ele>
        <time>2023-05-27T07:58:08Z</time>
      </trkpt>
      <trkpt lat="43.35658" lon="1.81687">
        <ele>209</ele>
        <time>2023-05-27T07:58:09Z</time>
      </trkpt>
      <trkpt lat="43.35656" lon="1.81691">
        <ele>209.2</ele>
        <time>2023-05-27T07:58:10Z</time>
      </trkpt>
      <trkpt lat="43.35654" lon="1.81696">
        <ele>209</ele>
        <time>2023-05-27T07:58:11Z</time>
      </trkpt>
      <trkpt lat="43.35652" lon="1.817">
        <ele>209</ele>
        <time>2023-05-27T07:58:12Z</time>
      </trkpt>
      <trkpt lat="43.3565" lon="1.81704">
        <ele>209</ele>
        <time>2023-05-27T07:58:13Z</time>
      </trkpt>
      <trkpt lat="43.35648" lon="1.81707">
        <ele>209</ele>
        <time>2023-05-27T07:58:14Z</time>
      </trkpt>
      <trkpt lat="43.35646" lon="1.81711">
        <ele>209.2</ele>
        <time>2023-05-27T07:58:15Z</time>
      </trkpt>
      <trkpt lat="43.35644" lon="1.81714">
        <ele>209.2</ele>
        <time>2023-05-27T07:58:16Z</time>
      </trkpt>
      <trkpt lat="43.35642" lon="1.81718">
        <ele>209.2</ele>
        <time>2023-05-27T07:58:17Z</time>
      </trkpt>
      <trkpt lat="43.3564" lon="1.8172">
        <ele>209.2</ele>
        <time>2023-05-27T07:58:18Z</time>
      </trkpt>
      <trkpt lat="43.35638" lon="1.81722">
        <ele>209.2</ele>
        <time>2023-05-27T07:58:19Z</time>
      </trkpt>
      <trkpt lat="43.35636" lon="1.81724">
        <ele>209.2</ele>
        <time>2023-05-27T07:58:20Z</time>
      </trkpt>
      <trkpt lat="43.35634" lon="1.81726">
        <ele>209</ele>
        <time>2023-05-27T07:58:21Z</time>
      </trkpt>
      <trkpt lat="43.35632" lon="1.81729">
        <ele>209.2</ele>
        <time>2023-05-27T07:58:22Z</time>
      </trkpt>
      <trkpt lat="43.35629" lon="1.81733">
        <ele>209.2</ele>
        <time>2023-05-27T07:58:23Z</time>
      </trkpt>
      <trkpt lat="43.35627" lon="1.81736">
        <ele>209.2</ele>
        <time>2023-05-27T07:58:24Z</time>
      </trkpt>
      <trkpt lat="43.35625" lon="1.81739">
        <ele>209.2</ele>
        <time>2023-05-27T07:58:25Z</time>
      </trkpt>
      <trkpt lat="43.35623" lon="1.81742">
        <ele>209.2</ele>
        <time>2023-05-27T07:58:26Z</time>
      </trkpt>
      <trkpt lat="43.35621" lon="1.81746">
        <ele>209.2</ele>
        <time>2023-05-27T07:58:27Z</time>
      </trkpt>
      <trkpt lat="43.35618" lon="1.81749">
        <ele>209.2</ele>
        <time>2023-05-27T07:58:28Z</time>
      </trkpt>
      <trkpt lat="43.35615" lon="1.81753">
        <ele>209.2</ele>
        <time>2023-05-27T07:58:29Z</time>
      </trkpt>
      <trkpt lat="43.35611" lon="1.81758">
        <ele>209.2</ele>
        <time>2023-05-27T07:58:30Z</time>
      </trkpt>
      <trkpt lat="43.35608" lon="1.81765">
        <ele>209.2</ele>
        <time>2023-05-27T07:58:31Z</time>
      </trkpt>
      <trkpt lat="43.35605" lon="1.81769">
        <ele>209.2</ele>
        <time>2023-05-27T07:58:32Z</time>
      </trkpt>
      <trkpt lat="43.35602" lon="1.81773">
        <ele>209.2</ele>
        <time>2023-05-27T07:58:33Z</time>
      </trkpt>
      <trkpt lat="43.35599" lon="1.81777">
        <ele>209.2</ele>
        <time>2023-05-27T07:58:34Z</time>
      </trkpt>
      <trkpt lat="43.35596" lon="1.8178">
        <ele>209.2</ele>
        <time>2023-05-27T07:58:35Z</time>
      </trkpt>
      <trkpt lat="43.35593" lon="1.81785">
        <ele>209.4</ele>
        <time>2023-05-27T07:58:36Z</time>
      </trkpt>
      <trkpt lat="43.35589" lon="1.81791">
        <ele>209.4</ele>
        <time>2023-05-27T07:58:37Z</time>
      </trkpt>
      <trkpt lat="43.35586" lon="1.81796">
        <ele>209.4</ele>
        <time>2023-05-27T07:58:38Z</time>
      </trkpt>
      <trkpt lat="43.35583" lon="1.818">
        <ele>209.6</ele>
        <time>2023-05-27T07:58:39Z</time>
      </trkpt>
      <trkpt lat="43.35581" lon="1.81805">
        <ele>209.6</ele>
        <time>2023-05-27T07:58:40Z</time>
      </trkpt>
      <trkpt lat="43.3558" lon="1.81808">
        <ele>209.6</ele>
        <time>2023-05-27T07:58:41Z</time>
      </trkpt>
      <trkpt lat="43.35577" lon="1.81811">
        <ele>209.6</ele>
        <time>2023-05-27T07:58:42Z</time>
      </trkpt>
      <trkpt lat="43.35575" lon="1.81814">
        <ele>209.8</ele>
        <time>2023-05-27T07:58:43Z</time>
      </trkpt>
      <trkpt lat="43.35572" lon="1.81816">
        <ele>209.8</ele>
        <time>2023-05-27T07:58:44Z</time>
      </trkpt>
      <trkpt lat="43.35569" lon="1.8182">
        <ele>209.6</ele>
        <time>2023-05-27T07:58:45Z</time>
      </trkpt>
      <trkpt lat="43.35566" lon="1.81822">
        <ele>209.6</ele>
        <time>2023-05-27T07:58:46Z</time>
      </trkpt>
      <trkpt lat="43.35563" lon="1.81822">
        <ele>209.6</ele>
        <time>2023-05-27T07:58:47Z</time>
      </trkpt>
      <trkpt lat="43.3556" lon="1.81822">
        <ele>209.4</ele>
        <time>2023-05-27T07:58:48Z</time>
      </trkpt>
      <trkpt lat="43.35557" lon="1.81823">
        <ele>209.4</ele>
        <time>2023-05-27T07:58:49Z</time>
      </trkpt>
      <trkpt lat="43.35553" lon="1.81825">
        <ele>209.6</ele>
        <time>2023-05-27T07:58:50Z</time>
      </trkpt>
      <trkpt lat="43.3555" lon="1.81827">
        <ele>209.6</ele>
        <time>2023-05-27T07:58:51Z</time>
      </trkpt>
      <trkpt lat="43.35548" lon="1.81828">
        <ele>209.8</ele>
        <time>2023-05-27T07:58:52Z</time>
      </trkpt>
      <trkpt lat="43.35545" lon="1.8183">
        <ele>210</ele>
        <time>2023-05-27T07:58:53Z</time>
      </trkpt>
      <trkpt lat="43.35543" lon="1.81831">
        <ele>210</ele>
        <time>2023-05-27T07:58:54Z</time>
      </trkpt>
      <trkpt lat="43.3554" lon="1.81833">
        <ele>210.2</ele>
        <time>2023-05-27T07:58:55Z</time>
      </trkpt>
      <trkpt lat="43.35538" lon="1.81835">
        <ele>210.2</ele>
        <time>2023-05-27T07:58:56Z</time>
      </trkpt>
      <trkpt lat="43.35536" lon="1.81837">
        <ele>210.2</ele>
        <time>2023-05-27T07:58:57Z</time>
      </trkpt>
      <trkpt lat="43.35535" lon="1.81838">
        <ele>210.2</ele>
        <time>2023-05-27T07:58:58Z</time>
      </trkpt>
      <trkpt lat="43.35533" lon="1.8184">
        <ele>210.2</ele>
        <time>2023-05-27T07:58:59Z</time>
      </trkpt>
      <trkpt lat="43.35531" lon="1.81842">
        <ele>210.2</ele>
        <time>2023-05-27T07:59:00Z</time>
      </trkpt>
      <trkpt lat="43.35528" lon="1.81844">
        <ele>210.2</ele>
        <time>2023-05-27T07:59:01Z</time>
      </trkpt>
      <trkpt lat="43.35526" lon="1.81845">
        <ele>210.4</ele>
        <time>2023-05-27T07:59:02Z</time>
      </trkpt>
      <trkpt lat="43.35524" lon="1.81847">
        <ele>210.4</ele>
        <time>2023-05-27T07:59:03Z</time>
      </trkpt>
      <trkpt lat="43.35522" lon="1.81848">
        <ele>210.4</ele>
        <time>2023-05-27T07:59:04Z</time>
      </trkpt>
      <trkpt lat="43.35519" lon="1.81848">
        <ele>210.4</ele>
        <time>2023-05-27T07:59:05Z</time>
      </trkpt>
      <trkpt lat="43.35516" lon="1.8185">
        <ele>210.4</ele>
        <time>2023-05-27T07:59:06Z</time>
      </trkpt>
      <trkpt lat="43.35512" lon="1.81853">
        <ele>210.4</ele>
        <time>2023-05-27T07:59:07Z</time>
      </trkpt>
      <trkpt lat="43.3551" lon="1.81857">
        <ele>210.4</ele>
        <time>2023-05-27T07:59:08Z</time>
      </trkpt>
      <trkpt lat="43.35507" lon="1.81861">
        <ele>210.4</ele>
        <time>2023-05-27T07:59:09Z</time>
      </trkpt>
      <trkpt lat="43.35505" lon="1.81864">
        <ele>210.4</ele>
        <time>2023-05-27T07:59:10Z</time>
      </trkpt>
      <trkpt lat="43.35502" lon="1.81866">
        <ele>210.6</ele>
        <time>2023-05-27T07:59:11Z</time>
      </trkpt>
      <trkpt lat="43.355" lon="1.81869">
        <ele>210.6</ele>
        <time>2023-05-27T07:59:12Z</time>
      </trkpt>
      <trkpt lat="43.35497" lon="1.81872">
        <ele>210.6</ele>
        <time>2023-05-27T07:59:13Z</time>
      </trkpt>
      <trkpt lat="43.35495" lon="1.81874">
        <ele>210.6</ele>
        <time>2023-05-27T07:59:14Z</time>
      </trkpt>
      <trkpt lat="43.35492" lon="1.81877">
        <ele>210.6</ele>
        <time>2023-05-27T07:59:15Z</time>
      </trkpt>
      <trkpt lat="43.35489" lon="1.81881">
        <ele>210.6</ele>
        <time>2023-05-27T07:59:16Z</time>
      </trkpt>
      <trkpt lat="43.35486" lon="1.81883">
        <ele>210.8</ele>
        <time>2023-05-27T07:59:17Z</time>
      </trkpt>
      <trkpt lat="43.35483" lon="1.81886">
        <ele>210.8</ele>
        <time>2023-05-27T07:59:18Z</time>
      </trkpt>
      <trkpt lat="43.35481" lon="1.81888">
        <ele>210.8</ele>
        <time>2023-05-27T07:59:19Z</time>
      </trkpt>
      <trkpt lat="43.3548" lon="1.8189">
        <ele>210.8</ele>
        <time>2023-05-27T07:59:20Z</time>
      </trkpt>
      <trkpt lat="43.35478" lon="1.81892">
        <ele>210.8</ele>
        <time>2023-05-27T07:59:21Z</time>
      </trkpt>
      <trkpt lat="43.35475" lon="1.81894">
        <ele>211</ele>
        <time>2023-05-27T07:59:22Z</time>
      </trkpt>
      <trkpt lat="43.35473" lon="1.81896">
        <ele>211</ele>
        <time>2023-05-27T07:59:23Z</time>
      </trkpt>
      <trkpt lat="43.35471" lon="1.81898">
        <ele>211</ele>
        <time>2023-05-27T07:59:24Z</time>
      </trkpt>
      <trkpt lat="43.35468" lon="1.819">
        <ele>211</ele>
        <time>2023-05-27T07:59:25Z</time>
      </trkpt>
      <trkpt lat="43.35466" lon="1.81903">
        <ele>211</ele>
        <time>2023-05-27T07:59:26Z</time>
      </trkpt>
      <trkpt lat="43.35463" lon="1.81905">
        <ele>211</ele>
        <time>2023-05-27T07:59:27Z</time>
      </trkpt>
      <trkpt lat="43.3546" lon="1.81907">
        <ele>211</ele>
        <time>2023-05-27T07:59:28Z</time>
      </trkpt>
      <trkpt lat="43.35458" lon="1.8191">
        <ele>211</ele>
        <time>2023-05-27T07:59:29Z</time>
      </trkpt>
      <trkpt lat="43.35455" lon="1.81913">
        <ele>211</ele>
        <time>2023-05-27T07:59:30Z</time>
      </trkpt>
      <trkpt lat="43.35452" lon="1.81915">
        <ele>211</ele>
        <time>2023-05-27T07:59:31Z</time>
      </trkpt>
      <trkpt lat="43.3545" lon="1.81918">
        <ele>211</ele>
        <time>2023-05-27T07:59:32Z</time>
      </trkpt>
      <trkpt lat="43.35448" lon="1.81921">
        <ele>211.2</ele>
        <time>2023-05-27T07:59:33Z</time>
      </trkpt>
      <trkpt lat="43.35446" lon="1.81923">
        <ele>211.2</ele>
        <time>2023-05-27T07:59:34Z</time>
      </trkpt>
      <trkpt lat="43.35444" lon="1.81926">
        <ele>211.2</ele>
        <time>2023-05-27T07:59:35Z</time>
      </trkpt>
      <trkpt lat="43.35441" lon="1.81928">
        <ele>211.2</ele>
        <time>2023-05-27T07:59:36Z</time>
      </trkpt>
      <trkpt lat="43.35439" lon="1.8193">
        <ele>211.2</ele>
        <time>2023-05-27T07:59:37Z</time>
      </trkpt>
      <trkpt lat="43.35436" lon="1.81932">
        <ele>211.2</ele>
        <time>2023-05-27T07:59:38Z</time>
      </trkpt>
      <trkpt lat="43.35434" lon="1.81935">
        <ele>211.2</ele>
        <time>2023-05-27T07:59:39Z</time>
      </trkpt>
      <trkpt lat="43.35432" lon="1.81937">
        <ele>211.2</ele>
        <time>2023-05-27T07:59:40Z</time>
      </trkpt>
      <trkpt lat="43.3543" lon="1.81939">
        <ele>211.2</ele>
        <time>2023-05-27T07:59:41Z</time>
      </trkpt>
      <trkpt lat="43.35427" lon="1.81941">
        <ele>211.2</ele>
        <time>2023-05-27T07:59:42Z</time>
      </trkpt>
      <trkpt lat="43.35425" lon="1.81943">
        <ele>211.2</ele>
        <time>2023-05-27T07:59:43Z</time>
      </trkpt>
      <trkpt lat="43.35422" lon="1.81946">
        <ele>211.2</ele>
        <time>2023-05-27T07:59:44Z</time>
      </trkpt>
      <trkpt lat="43.35419" lon="1.81948">
        <ele>211.2</ele>
        <time>2023-05-27T07:59:45Z</time>
      </trkpt>
      <trkpt lat="43.35416" lon="1.8195">
        <ele>211.2</ele>
        <time>2023-05-27T07:59:46Z</time>
      </trkpt>
      <trkpt lat="43.35414" lon="1.81952">
        <ele>211.2</ele>
        <time>2023-05-27T07:59:47Z</time>
      </trkpt>
      <trkpt lat="43.35411" lon="1.81953">
        <ele>211.2</ele>
        <time>2023-05-27T07:59:48Z</time>
      </trkpt>
      <trkpt lat="43.35409" lon="1.81955">
        <ele>211.2</ele>
        <time>2023-05-27T07:59:49Z</time>
      </trkpt>
      <trkpt lat="43.35407" lon="1.81957">
        <ele>211.2</ele>
        <time>2023-05-27T07:59:50Z</time>
      </trkpt>
      <trkpt lat="43.35405" lon="1.81958">
        <ele>211.4</ele>
        <time>2023-05-27T07:59:51Z</time>
      </trkpt>
      <trkpt lat="43.35403" lon="1.81959">
        <ele>211.4</ele>
        <time>2023-05-27T07:59:52Z</time>
      </trkpt>
      <trkpt lat="43.354" lon="1.8196">
        <ele>211.2</ele>
        <time>2023-05-27T07:59:53Z</time>
      </trkpt>
      <trkpt lat="43.35398" lon="1.81962">
        <ele>211.4</ele>
        <time>2023-05-27T07:59:54Z</time>
      </trkpt>
      <trkpt lat="43.35395" lon="1.81964">
        <ele>211.4</ele>
        <time>2023-05-27T07:59:55Z</time>
      </trkpt>
      <trkpt lat="43.35394" lon="1.81966">
        <ele>211.4</ele>
        <time>2023-05-27T07:59:56Z</time>
      </trkpt>
      <trkpt lat="43.35392" lon="1.81968">
        <ele>211.4</ele>
        <time>2023-05-27T07:59:57Z</time>
      </trkpt>
      <trkpt lat="43.3539" lon="1.81969">
        <ele>211.4</ele>
        <time>2023-05-27T07:59:58Z</time>
      </trkpt>
      <trkpt lat="43.35389" lon="1.81971">
        <ele>211.4</ele>
        <time>2023-05-27T07:59:59Z</time>
      </trkpt>
      <trkpt lat="43.35386" lon="1.81974">
        <ele>211.4</ele>
        <time>2023-05-27T08:00:00Z</time>
      </trkpt>
      <trkpt lat="43.35383" lon="1.81977">
        <ele>211.4</ele>
        <time>2023-05-27T08:00:01Z</time>
      </trkpt>
      <trkpt lat="43.3538" lon="1.8198">
        <ele>211.4</ele>
        <time>2023-05-27T08:00:02Z</time>
      </trkpt>
      <trkpt lat="43.35377" lon="1.81983">
        <ele>211.4</ele>
        <time>2023-05-27T08:00:03Z</time>
      </trkpt>
      <trkpt lat="43.35373" lon="1.81988">
        <ele>211.6</ele>
        <time>2023-05-27T08:00:04Z</time>
      </trkpt>
      <trkpt lat="43.3537" lon="1.81993">
        <ele>211.6</ele>
        <time>2023-05-27T08:00:05Z</time>
      </trkpt>
      <trkpt lat="43.35367" lon="1.81997">
        <ele>211.6</ele>
        <time>2023-05-27T08:00:06Z</time>
      </trkpt>
      <trkpt lat="43.35365" lon="1.82">
        <ele>211.6</ele>
        <time>2023-05-27T08:00:07Z</time>
      </trkpt>
      <trkpt lat="43.35363" lon="1.82003">
        <ele>211.6</ele>
        <time>2023-05-27T08:00:08Z</time>
      </trkpt>
      <trkpt lat="43.3536" lon="1.82006">
        <ele>211.6</ele>
        <time>2023-05-27T08:00:09Z</time>
      </trkpt>
      <trkpt lat="43.35358" lon="1.82011">
        <ele>211.6</ele>
        <time>2023-05-27T08:00:10Z</time>
      </trkpt>
      <trkpt lat="43.35355" lon="1.82014">
        <ele>211.6</ele>
        <time>2023-05-27T08:00:11Z</time>
      </trkpt>
      <trkpt lat="43.35353" lon="1.82017">
        <ele>211.6</ele>
        <time>2023-05-27T08:00:12Z</time>
      </trkpt>
      <trkpt lat="43.35352" lon="1.8202">
        <ele>211.6</ele>
        <time>2023-05-27T08:00:13Z</time>
      </trkpt>
      <trkpt lat="43.3535" lon="1.82022">
        <ele>211.6</ele>
        <time>2023-05-27T08:00:14Z</time>
      </trkpt>
      <trkpt lat="43.35348" lon="1.82024">
        <ele>211.6</ele>
        <time>2023-05-27T08:00:15Z</time>
      </trkpt>
      <trkpt lat="43.35347" lon="1.82027">
        <ele>211.6</ele>
        <time>2023-05-27T08:00:16Z</time>
      </trkpt>
      <trkpt lat="43.35345" lon="1.82028">
        <ele>211.6</ele>
        <time>2023-05-27T08:00:17Z</time>
      </trkpt>
      <trkpt lat="43.35344" lon="1.82029">
        <ele>211.6</ele>
        <time>2023-05-27T08:00:18Z</time>
      </trkpt>
      <trkpt lat="43.35343" lon="1.8203">
        <ele>211.6</ele>
        <time>2023-05-27T08:00:19Z</time>
      </trkpt>
      <trkpt lat="43.35342" lon="1.82032">
        <ele>211.6</ele>
        <time>2023-05-27T08:00:20Z</time>
      </trkpt>
      <trkpt lat="43.35341" lon="1.82033">
        <ele>211.4</ele>
        <time>2023-05-27T08:00:21Z</time>
      </trkpt>
      <trkpt lat="43.35339" lon="1.82035">
        <ele>211.4</ele>
        <time>2023-05-27T08:00:22Z</time>
      </trkpt>
      <trkpt lat="43.35337" lon="1.82037">
        <ele>211.4</ele>
        <time>2023-05-27T08:00:23Z</time>
      </trkpt>
      <trkpt lat="43.35335" lon="1.82039">
        <ele>211.2</ele>
        <time>2023-05-27T08:00:24Z</time>
      </trkpt>
      <trkpt lat="43.35333" lon="1.8204">
        <ele>211.2</ele>
        <time>2023-05-27T08:00:25Z</time>
      </trkpt>
      <trkpt lat="43.35331" lon="1.82042">
        <ele>211</ele>
        <time>2023-05-27T08:00:26Z</time>
      </trkpt>
      <trkpt lat="43.3533" lon="1.82044">
        <ele>211</ele>
        <time>2023-05-27T08:00:27Z</time>
      </trkpt>
      <trkpt lat="43.35328" lon="1.82046">
        <ele>210.8</ele>
        <time>2023-05-27T08:00:28Z</time>
      </trkpt>
      <trkpt lat="43.35326" lon="1.8205">
        <ele>210.8</ele>
        <time>2023-05-27T08:00:29Z</time>
      </trkpt>
      <trkpt lat="43.35324" lon="1.82052">
        <ele>210.6</ele>
        <time>2023-05-27T08:00:30Z</time>
      </trkpt>
      <trkpt lat="43.35321" lon="1.82054">
        <ele>210.6</ele>
        <time>2023-05-27T08:00:31Z</time>
      </trkpt>
      <trkpt lat="43.35319" lon="1.82057">
        <ele>210.6</ele>
        <time>2023-05-27T08:00:32Z</time>
      </trkpt>
      <trkpt lat="43.35316" lon="1.82061">
        <ele>210.6</ele>
        <time>2023-05-27T08:00:33Z</time>
      </trkpt>
      <trkpt lat="43.35313" lon="1.82066">
        <ele>210.4</ele>
        <time>2023-05-27T08:00:34Z</time>
      </trkpt>
      <trkpt lat="43.35309" lon="1.8207">
        <ele>210.4</ele>
        <time>2023-05-27T08:00:35Z</time>
      </trkpt>
      <trkpt lat="43.35307" lon="1.82073">
        <ele>210.2</ele>
        <time>2023-05-27T08:00:36Z</time>
      </trkpt>
      <trkpt lat="43.35304" lon="1.82077">
        <ele>210.2</ele>
        <time>2023-05-27T08:00:37Z</time>
      </trkpt>
      <trkpt lat="43.35301" lon="1.82082">
        <ele>210.2</ele>
        <time>2023-05-27T08:00:38Z</time>
      </trkpt>
      <trkpt lat="43.35298" lon="1.82086">
        <ele>210.2</ele>
        <time>2023-05-27T08:00:39Z</time>
      </trkpt>
      <trkpt lat="43.35295" lon="1.82089">
        <ele>210.2</ele>
        <time>2023-05-27T08:00:40Z</time>
      </trkpt>
      <trkpt lat="43.35293" lon="1.82092">
        <ele>210</ele>
        <time>2023-05-27T08:00:41Z</time>
      </trkpt>
      <trkpt lat="43.3529" lon="1.82094">
        <ele>210</ele>
        <time>2023-05-27T08:00:42Z</time>
      </trkpt>
      <trkpt lat="43.35287" lon="1.82096">
        <ele>210</ele>
        <time>2023-05-27T08:00:43Z</time>
      </trkpt>
      <trkpt lat="43.35285" lon="1.82099">
        <ele>210</ele>
        <time>2023-05-27T08:00:44Z</time>
      </trkpt>
      <trkpt lat="43.35283" lon="1.82103">
        <ele>210</ele>
        <time>2023-05-27T08:00:45Z</time>
      </trkpt>
      <trkpt lat="43.3528" lon="1.8211">
        <ele>210</ele>
        <time>2023-05-27T08:00:46Z</time>
      </trkpt>
      <trkpt lat="43.35276" lon="1.82115">
        <ele>210</ele>
        <time>2023-05-27T08:00:47Z</time>
      </trkpt>
      <trkpt lat="43.35272" lon="1.82119">
        <ele>210</ele>
        <time>2023-05-27T08:00:48Z</time>
      </trkpt>
      <trkpt lat="43.3527" lon="1.82122">
        <ele>210</ele>
        <time>2023-05-27T08:00:49Z</time>
      </trkpt>
      <trkpt lat="43.35267" lon="1.82127">
        <ele>210</ele>
        <time>2023-05-27T08:00:50Z</time>
      </trkpt>
      <trkpt lat="43.35266" lon="1.82133">
        <ele>210</ele>
        <time>2023-05-27T08:00:51Z</time>
      </trkpt>
      <trkpt lat="43.35265" lon="1.82136">
        <ele>210</ele>
        <time>2023-05-27T08:00:52Z</time>
      </trkpt>
      <trkpt lat="43.35262" lon="1.82141">
        <ele>210</ele>
        <time>2023-05-27T08:00:53Z</time>
      </trkpt>
      <trkpt lat="43.35259" lon="1.82144">
        <ele>210</ele>
        <time>2023-05-27T08:00:54Z</time>
      </trkpt>
      <trkpt lat="43.35256" lon="1.82147">
        <ele>210</ele>
        <time>2023-05-27T08:00:55Z</time>
      </trkpt>
      <trkpt lat="43.35252" lon="1.8215">
        <ele>210</ele>
        <time>2023-05-27T08:00:56Z</time>
      </trkpt>
      <trkpt lat="43.3525" lon="1.82153">
        <ele>210</ele>
        <time>2023-05-27T08:00:57Z</time>
      </trkpt>
      <trkpt lat="43.35248" lon="1.82154">
        <ele>210</ele>
        <time>2023-05-27T08:00:58Z</time>
      </trkpt>
      <trkpt lat="43.35246" lon="1.82157">
        <ele>210</ele>
        <time>2023-05-27T08:00:59Z</time>
      </trkpt>
      <trkpt lat="43.35244" lon="1.8216">
        <ele>210</ele>
        <time>2023-05-27T08:01:00Z</time>
      </trkpt>
      <trkpt lat="43.3524" lon="1.82166">
        <ele>210</ele>
        <time>2023-05-27T08:01:01Z</time>
      </trkpt>
      <trkpt lat="43.35238" lon="1.8217">
        <ele>210</ele>
        <time>2023-05-27T08:01:02Z</time>
      </trkpt>
      <trkpt lat="43.35235" lon="1.82173">
        <ele>210</ele>
        <time>2023-05-27T08:01:03Z</time>
      </trkpt>
      <trkpt lat="43.35233" lon="1.82175">
        <ele>210</ele>
        <time>2023-05-27T08:01:04Z</time>
      </trkpt>
      <trkpt lat="43.35232" lon="1.82177">
        <ele>210</ele>
        <time>2023-05-27T08:01:05Z</time>
      </trkpt>
      <trkpt lat="43.35231" lon="1.8218">
        <ele>210.2</ele>
        <time>2023-05-27T08:01:06Z</time>
      </trkpt>
      <trkpt lat="43.3523" lon="1.82183">
        <ele>210.2</ele>
        <time>2023-05-27T08:01:07Z</time>
      </trkpt>
      <trkpt lat="43.35227" lon="1.82185">
        <ele>210.2</ele>
        <time>2023-05-27T08:01:08Z</time>
      </trkpt>
      <trkpt lat="43.35222" lon="1.82188">
        <ele>210.2</ele>
        <time>2023-05-27T08:01:09Z</time>
      </trkpt>
      <trkpt lat="43.3522" lon="1.82192">
        <ele>210.2</ele>
        <time>2023-05-27T08:01:10Z</time>
      </trkpt>
      <trkpt lat="43.35219" lon="1.82195">
        <ele>210.2</ele>
        <time>2023-05-27T08:01:11Z</time>
      </trkpt>
      <trkpt lat="43.35217" lon="1.82199">
        <ele>210.2</ele>
        <time>2023-05-27T08:01:12Z</time>
      </trkpt>
      <trkpt lat="43.35216" lon="1.82201">
        <ele>210.2</ele>
        <time>2023-05-27T08:01:13Z</time>
      </trkpt>
      <trkpt lat="43.35213" lon="1.82204">
        <ele>210.4</ele>
        <time>2023-05-27T08:01:14Z</time>
      </trkpt>
      <trkpt lat="43.3521" lon="1.82206">
        <ele>210.4</ele>
        <time>2023-05-27T08:01:15Z</time>
      </trkpt>
      <trkpt lat="43.35208" lon="1.82207">
        <ele>210.4</ele>
        <time>2023-05-27T08:01:16Z</time>
      </trkpt>
      <trkpt lat="43.35206" lon="1.8221">
        <ele>210.4</ele>
        <time>2023-05-27T08:01:17Z</time>
      </trkpt>
      <trkpt lat="43.35203" lon="1.82213">
        <ele>210.4</ele>
        <time>2023-05-27T08:01:18Z</time>
      </trkpt>
      <trkpt lat="43.352" lon="1.82217">
        <ele>210.4</ele>
        <time>2023-05-27T08:01:19Z</time>
      </trkpt>
      <trkpt lat="43.35198" lon="1.82221">
        <ele>210.6</ele>
        <time>2023-05-27T08:01:20Z</time>
      </trkpt>
      <trkpt lat="43.35197" lon="1.82224">
        <ele>210.6</ele>
        <time>2023-05-27T08:01:21Z</time>
      </trkpt>
      <trkpt lat="43.35195" lon="1.82226">
        <ele>210.8</ele>
        <time>2023-05-27T08:01:22Z</time>
      </trkpt>
      <trkpt lat="43.35193" lon="1.82227">
        <ele>211</ele>
        <time>2023-05-27T08:01:23Z</time>
      </trkpt>
      <trkpt lat="43.3519" lon="1.82229">
        <ele>211</ele>
        <time>2023-05-27T08:01:24Z</time>
      </trkpt>
      <trkpt lat="43.35187" lon="1.82232">
        <ele>211</ele>
        <time>2023-05-27T08:01:25Z</time>
      </trkpt>
      <trkpt lat="43.35185" lon="1.82234">
        <ele>211.2</ele>
        <time>2023-05-27T08:01:26Z</time>
      </trkpt>
      <trkpt lat="43.35184" lon="1.82237">
        <ele>211.4</ele>
        <time>2023-05-27T08:01:27Z</time>
      </trkpt>
      <trkpt lat="43.35184" lon="1.82239">
        <ele>211.4</ele>
        <time>2023-05-27T08:01:28Z</time>
      </trkpt>
      <trkpt lat="43.35183" lon="1.82241">
        <ele>211.6</ele>
        <time>2023-05-27T08:01:29Z</time>
      </trkpt>
      <trkpt lat="43.35183" lon="1.82243">
        <ele>211.6</ele>
        <time>2023-05-27T08:01:30Z</time>
      </trkpt>
      <trkpt lat="43.35182" lon="1.82246">
        <ele>211.8</ele>
        <time>2023-05-27T08:01:31Z</time>
      </trkpt>
      <trkpt lat="43.35179" lon="1.82249">
        <ele>211.8</ele>
        <time>2023-05-27T08:01:32Z</time>
      </trkpt>
      <trkpt lat="43.35177" lon="1.82252">
        <ele>212</ele>
        <time>2023-05-27T08:01:33Z</time>
      </trkpt>
      <trkpt lat="43.35175" lon="1.82254">
        <ele>212</ele>
        <time>2023-05-27T08:01:34Z</time>
      </trkpt>
      <trkpt lat="43.35173" lon="1.82255">
        <ele>212.2</ele>
        <time>2023-05-27T08:01:35Z</time>
      </trkpt>
      <trkpt lat="43.3517" lon="1.82256">
        <ele>212.2</ele>
        <time>2023-05-27T08:01:36Z</time>
      </trkpt>
      <trkpt lat="43.35167" lon="1.82259">
        <ele>212.2</ele>
        <time>2023-05-27T08:01:37Z</time>
      </trkpt>
      <trkpt lat="43.35165" lon="1.82262">
        <ele>212.4</ele>
        <time>2023-05-27T08:01:38Z</time>
      </trkpt>
      <trkpt lat="43.35164" lon="1.82265">
        <ele>212.4</ele>
        <time>2023-05-27T08:01:39Z</time>
      </trkpt>
      <trkpt lat="43.35163" lon="1.82267">
        <ele>212.6</ele>
        <time>2023-05-27T08:01:40Z</time>
      </trkpt>
      <trkpt lat="43.35161" lon="1.82269">
        <ele>212.6</ele>
        <time>2023-05-27T08:01:41Z</time>
      </trkpt>
      <trkpt lat="43.35161" lon="1.82272">
        <ele>212.6</ele>
        <time>2023-05-27T08:01:42Z</time>
      </trkpt>
      <trkpt lat="43.3516" lon="1.82273">
        <ele>212.8</ele>
        <time>2023-05-27T08:01:43Z</time>
      </trkpt>
      <trkpt lat="43.35157" lon="1.82273">
        <ele>212.8</ele>
        <time>2023-05-27T08:01:44Z</time>
      </trkpt>
      <trkpt lat="43.35154" lon="1.82275">
        <ele>212.8</ele>
        <time>2023-05-27T08:01:45Z</time>
      </trkpt>
      <trkpt lat="43.35153" lon="1.82276">
        <ele>213</ele>
        <time>2023-05-27T08:01:46Z</time>
      </trkpt>
      <trkpt lat="43.35151" lon="1.82276">
        <ele>213</ele>
        <time>2023-05-27T08:01:47Z</time>
      </trkpt>
      <trkpt lat="43.3515" lon="1.82276">
        <ele>213</ele>
        <time>2023-05-27T08:01:48Z</time>
      </trkpt>
      <trkpt lat="43.35148" lon="1.82276">
        <ele>213</ele>
        <time>2023-05-27T08:01:49Z</time>
      </trkpt>
      <trkpt lat="43.35146" lon="1.82276">
        <ele>213</ele>
        <time>2023-05-27T08:01:50Z</time>
      </trkpt>
      <trkpt lat="43.35146" lon="1.82275">
        <ele>213</ele>
        <time>2023-05-27T08:01:51Z</time>
      </trkpt>
      <trkpt lat="43.35145" lon="1.82275">
        <ele>213</ele>
        <time>2023-05-27T08:01:52Z</time>
      </trkpt>
      <trkpt lat="43.35145" lon="1.82275">
        <ele>213</ele>
        <time>2023-05-27T08:01:53Z</time>
      </trkpt>
      <trkpt lat="43.35138" lon="1.82274">
        <ele>213</ele>
        <time>2023-05-27T08:11:06Z</time>
      </trkpt>
      <trkpt lat="43.35137" lon="1.82275">
        <ele>213</ele>
        <time>2023-05-27T08:11:07Z</time>
      </trkpt>
      <trkpt lat="43.35137" lon="1.82275">
        <ele>213</ele>
        <time>2023-05-27T08:11:08Z</time>
      </trkpt>
      <trkpt lat="43.35136" lon="1.82276">
        <ele>213</ele>
        <time>2023-05-27T08:11:09Z</time>
      </trkpt>
      <trkpt lat="43.35136" lon="1.82276">
        <ele>213</ele>
        <time>2023-05-27T08:11:10Z</time>
      </trkpt>
      <trkpt lat="43.35136" lon="1.82276">
        <ele>213</ele>
        <time>2023-05-27T08:11:11Z</time>
      </trkpt>
      <trkpt lat="43.35136" lon="1.82276">
        <ele>213</ele>
        <time>2023-05-27T08:11:12Z</time>
      </trkpt>
      <trkpt lat="43.35136" lon="1.82276">
        <ele>213</ele>
        <time>2023-05-27T08:11:13Z</time>
      </trkpt>
      <trkpt lat="43.35136" lon="1.82276">
        <ele>213</ele>
        <time>2023-05-27T08:11:14Z</time>
      </trkpt>
      <trkpt lat="43.35136" lon="1.82277">
        <ele>213</ele>
        <time>2023-05-27T08:20:26Z</time>
      </trkpt>
      <trkpt lat="43.35136" lon="1.82277">
        <ele>213</ele>
        <time>2023-05-27T08:20:27Z</time>
      </trkpt>
      <trkpt lat="43.35136" lon="1.82277">
        <ele>213</ele>
        <time>2023-05-27T08:20:28Z</time>
      </trkpt>
      <trkpt lat="43.35136" lon="1.82277">
        <ele>213</ele>
        <time>2023-05-27T08:20:29Z</time>
      </trkpt>
      <trkpt lat="43.35136" lon="1.82277">
        <ele>213</ele>
        <time>2023-05-27T08:20:30Z</time>
      </trkpt>
      <trkpt lat="43.35136" lon="1.82277">
        <ele>213</ele>
        <time>2023-05-27T08:20:31Z</time>
      </trkpt>
      <trkpt lat="43.35135" lon="1.82278">
        <ele>213</ele>
        <time>2023-05-27T08:20:32Z</time>
      </trkpt>
      <trkpt lat="43.35135" lon="1.82278">
        <ele>213</ele>
        <time>2023-05-27T08:20:33Z</time>
      </trkpt>
      <trkpt lat="43.35134" lon="1.82279">
        <ele>213</ele>
        <time>2023-05-27T08:20:34Z</time>
      </trkpt>
      <trkpt lat="43.35133" lon="1.8228">
        <ele>213</ele>
        <time>2023-05-27T08:20:35Z</time>
      </trkpt>
      <trkpt lat="43.35132" lon="1.82281">
        <ele>213</ele>
        <time>2023-05-27T08:20:36Z</time>
      </trkpt>
      <trkpt lat="43.35131" lon="1.82282">
        <ele>213</ele>
        <time>2023-05-27T08:20:37Z</time>
      </trkpt>
      <trkpt lat="43.35131" lon="1.82282">
        <ele>213</ele>
        <time>2023-05-27T08:20:38Z</time>
      </trkpt>
      <trkpt lat="43.35131" lon="1.82282">
        <ele>213</ele>
        <time>2023-05-27T08:20:39Z</time>
      </trkpt>
      <trkpt lat="43.3513" lon="1.82283">
        <ele>213</ele>
        <time>2023-05-27T08:20:40Z</time>
      </trkpt>
      <trkpt lat="43.35128" lon="1.82284">
        <ele>213</ele>
        <time>2023-05-27T08:20:41Z</time>
      </trkpt>
      <trkpt lat="43.35127" lon="1.82285">
        <ele>213</ele>
        <time>2023-05-27T08:20:42Z</time>
      </trkpt>
      <trkpt lat="43.35126" lon="1.82287">
        <ele>213</ele>
        <time>2023-05-27T08:20:43Z</time>
      </trkpt>
      <trkpt lat="43.35126" lon="1.82289">
        <ele>213</ele>
        <time>2023-05-27T08:20:44Z</time>
      </trkpt>
      <trkpt lat="43.35125" lon="1.82291">
        <ele>213.2</ele>
        <time>2023-05-27T08:20:45Z</time>
      </trkpt>
      <trkpt lat="43.35124" lon="1.82293">
        <ele>213.2</ele>
        <time>2023-05-27T08:20:46Z</time>
      </trkpt>
      <trkpt lat="43.35123" lon="1.82295">
        <ele>213.2</ele>
        <time>2023-05-27T08:20:47Z</time>
      </trkpt>
      <trkpt lat="43.35123" lon="1.82297">
        <ele>213.4</ele>
        <time>2023-05-27T08:20:48Z</time>
      </trkpt>
      <trkpt lat="43.35121" lon="1.82299">
        <ele>213.4</ele>
        <time>2023-05-27T08:20:49Z</time>
      </trkpt>
      <trkpt lat="43.3512" lon="1.82301">
        <ele>213.6</ele>
        <time>2023-05-27T08:20:50Z</time>
      </trkpt>
      <trkpt lat="43.35119" lon="1.82304">
        <ele>213.8</ele>
        <time>2023-05-27T08:20:51Z</time>
      </trkpt>
      <trkpt lat="43.35117" lon="1.82306">
        <ele>213.8</ele>
        <time>2023-05-27T08:20:52Z</time>
      </trkpt>
      <trkpt lat="43.35116" lon="1.82308">
        <ele>214</ele>
        <time>2023-05-27T08:20:53Z</time>
      </trkpt>
      <trkpt lat="43.35115" lon="1.82311">
        <ele>214.2</ele>
        <time>2023-05-27T08:20:54Z</time>
      </trkpt>
      <trkpt lat="43.35114" lon="1.82313">
        <ele>214.2</ele>
        <time>2023-05-27T08:20:55Z</time>
      </trkpt>
      <trkpt lat="43.35112" lon="1.82315">
        <ele>214.4</ele>
        <time>2023-05-27T08:20:56Z</time>
      </trkpt>
      <trkpt lat="43.3511" lon="1.82318">
        <ele>214.6</ele>
        <time>2023-05-27T08:20:57Z</time>
      </trkpt>
      <trkpt lat="43.35108" lon="1.82321">
        <ele>214.6</ele>
        <time>2023-05-27T08:20:58Z</time>
      </trkpt>
      <trkpt lat="43.35107" lon="1.82324">
        <ele>214.8</ele>
        <time>2023-05-27T08:20:59Z</time>
      </trkpt>
      <trkpt lat="43.35105" lon="1.82326">
        <ele>215</ele>
        <time>2023-05-27T08:21:00Z</time>
      </trkpt>
      <trkpt lat="43.35103" lon="1.82328">
        <ele>215</ele>
        <time>2023-05-27T08:21:01Z</time>
      </trkpt>
      <trkpt lat="43.351" lon="1.8233">
        <ele>215.2</ele>
        <time>2023-05-27T08:21:02Z</time>
      </trkpt>
      <trkpt lat="43.35097" lon="1.82333">
        <ele>215.2</ele>
        <time>2023-05-27T08:21:03Z</time>
      </trkpt>
      <trkpt lat="43.35094" lon="1.82334">
        <ele>215.4</ele>
        <time>2023-05-27T08:21:04Z</time>
      </trkpt>
      <trkpt lat="43.35092" lon="1.82336">
        <ele>215.4</ele>
        <time>2023-05-27T08:21:05Z</time>
      </trkpt>
      <trkpt lat="43.35089" lon="1.82337">
        <ele>215.4</ele>
        <time>2023-05-27T08:21:06Z</time>
      </trkpt>
      <trkpt lat="43.35086" lon="1.82338">
        <ele>215.6</ele>
        <time>2023-05-27T08:21:07Z</time>
      </trkpt>
      <trkpt lat="43.35084" lon="1.82339">
        <ele>215.6</ele>
        <time>2023-05-27T08:21:08Z</time>
      </trkpt>
      <trkpt lat="43.3508" lon="1.82342">
        <ele>215.6</ele>
        <time>2023-05-27T08:21:09Z</time>
      </trkpt>
      <trkpt lat="43.35077" lon="1.82344">
        <ele>215.6</ele>
        <time>2023-05-27T08:21:10Z</time>
      </trkpt>
      <trkpt lat="43.35074" lon="1.82346">
        <ele>215.6</ele>
        <time>2023-05-27T08:21:11Z</time>
      </trkpt>
      <trkpt lat="43.35071" lon="1.82348">
        <ele>215.8</ele>
        <time>2023-05-27T08:21:12Z</time>
      </trkpt>
      <trkpt lat="43.35067" lon="1.8235">
        <ele>215.8</ele>
        <time>2023-05-27T08:21:13Z</time>
      </trkpt>
      <trkpt lat="43.35064" lon="1.82352">
        <ele>215.8</ele>
        <time>2023-05-27T08:21:14Z</time>
      </trkpt>
      <trkpt lat="43.35061" lon="1.82354">
        <ele>215.8</ele>
        <time>2023-05-27T08:21:15Z</time>
      </trkpt>
      <trkpt lat="43.35058" lon="1.82356">
        <ele>215.8</ele>
        <time>2023-05-27T08:21:16Z</time>
      </trkpt>
      <trkpt lat="43.35055" lon="1.82358">
        <ele>215.8</ele>
        <time>2023-05-27T08:21:17Z</time>
      </trkpt>
      <trkpt lat="43.35052" lon="1.82361">
        <ele>215.8</ele>
        <time>2023-05-27T08:21:18Z</time>
      </trkpt>
      <trkpt lat="43.35048" lon="1.82363">
        <ele>215.8</ele>
        <time>2023-05-27T08:21:19Z</time>
      </trkpt>
      <trkpt lat="43.35045" lon="1.82366">
        <ele>215.8</ele>
        <time>2023-05-27T08:21:20Z</time>
      </trkpt>
      <trkpt lat="43.35042" lon="1.82368">
        <ele>216</ele>
        <time>2023-05-27T08:21:21Z</time>
      </trkpt>
      <trkpt lat="43.35039" lon="1.82371">
        <ele>216</ele>
        <time>2023-05-27T08:21:22Z</time>
      </trkpt>
      <trkpt lat="43.35036" lon="1.82373">
        <ele>216</ele>
        <time>2023-05-27T08:21:23Z</time>
      </trkpt>
      <trkpt lat="43.35034" lon="1.82375">
        <ele>216</ele>
        <time>2023-05-27T08:21:24Z</time>
      </trkpt>
      <trkpt lat="43.35031" lon="1.82378">
        <ele>216</ele>
        <time>2023-05-27T08:21:25Z</time>
      </trkpt>
      <trkpt lat="43.35029" lon="1.82381">
        <ele>216</ele>
        <time>2023-05-27T08:21:26Z</time>
      </trkpt>
      <trkpt lat="43.35027" lon="1.82385">
        <ele>216</ele>
        <time>2023-05-27T08:21:27Z</time>
      </trkpt>
      <trkpt lat="43.35025" lon="1.82388">
        <ele>216</ele>
        <time>2023-05-27T08:21:28Z</time>
      </trkpt>
      <trkpt lat="43.35022" lon="1.8239">
        <ele>216</ele>
        <time>2023-05-27T08:21:29Z</time>
      </trkpt>
      <trkpt lat="43.3502" lon="1.82393">
        <ele>216</ele>
        <time>2023-05-27T08:21:30Z</time>
      </trkpt>
      <trkpt lat="43.35017" lon="1.82396">
        <ele>216</ele>
        <time>2023-05-27T08:21:31Z</time>
      </trkpt>
      <trkpt lat="43.35015" lon="1.82398">
        <ele>216.2</ele>
        <time>2023-05-27T08:21:32Z</time>
      </trkpt>
      <trkpt lat="43.35013" lon="1.82401">
        <ele>216.2</ele>
        <time>2023-05-27T08:21:33Z</time>
      </trkpt>
      <trkpt lat="43.35011" lon="1.82403">
        <ele>216.2</ele>
        <time>2023-05-27T08:21:34Z</time>
      </trkpt>
      <trkpt lat="43.35009" lon="1.82406">
        <ele>216.2</ele>
        <time>2023-05-27T08:21:35Z</time>
      </trkpt>
      <trkpt lat="43.35007" lon="1.82407">
        <ele>216.2</ele>
        <time>2023-05-27T08:21:36Z</time>
      </trkpt>
      <trkpt lat="43.35005" lon="1.82409">
        <ele>216.2</ele>
        <time>2023-05-27T08:21:37Z</time>
      </trkpt>
      <trkpt lat="43.35003" lon="1.82412">
        <ele>216.2</ele>
        <time>2023-05-27T08:21:38Z</time>
      </trkpt>
      <trkpt lat="43.35002" lon="1.82414">
        <ele>216.2</ele>
        <time>2023-05-27T08:21:39Z</time>
      </trkpt>
      <trkpt lat="43.35" lon="1.82417">
        <ele>216.2</ele>
        <time>2023-05-27T08:21:40Z</time>
      </trkpt>
      <trkpt lat="43.34998" lon="1.82419">
        <ele>216.2</ele>
        <time>2023-05-27T08:21:41Z</time>
      </trkpt>
      <trkpt lat="43.34995" lon="1.82422">
        <ele>216.2</ele>
        <time>2023-05-27T08:21:42Z</time>
      </trkpt>
      <trkpt lat="43.34994" lon="1.82425">
        <ele>216.2</ele>
        <time>2023-05-27T08:21:43Z</time>
      </trkpt>
      <trkpt lat="43.34991" lon="1.82428">
        <ele>216.2</ele>
        <time>2023-05-27T08:21:44Z</time>
      </trkpt>
      <trkpt lat="43.34988" lon="1.82432">
        <ele>216.4</ele>
        <time>2023-05-27T08:21:45Z</time>
      </trkpt>
      <trkpt lat="43.34984" lon="1.82436">
        <ele>216.4</ele>
        <time>2023-05-27T08:21:46Z</time>
      </trkpt>
      <trkpt lat="43.34981" lon="1.8244">
        <ele>216.4</ele>
        <time>2023-05-27T08:21:47Z</time>
      </trkpt>
      <trkpt lat="43.34978" lon="1.82443">
        <ele>216.4</ele>
        <time>2023-05-27T08:21:48Z</time>
      </trkpt>
      <trkpt lat="43.34976" lon="1.82447">
        <ele>216.4</ele>
        <time>2023-05-27T08:21:49Z</time>
      </trkpt>
      <trkpt lat="43.34974" lon="1.8245">
        <ele>216.4</ele>
        <time>2023-05-27T08:21:50Z</time>
      </trkpt>
      <trkpt lat="43.34972" lon="1.82453">
        <ele>216.6</ele>
        <time>2023-05-27T08:21:51Z</time>
      </trkpt>
      <trkpt lat="43.3497" lon="1.82457">
        <ele>216.6</ele>
        <time>2023-05-27T08:21:52Z</time>
      </trkpt>
      <trkpt lat="43.34968" lon="1.8246">
        <ele>216.6</ele>
        <time>2023-05-27T08:21:53Z</time>
      </trkpt>
      <trkpt lat="43.34964" lon="1.82464">
        <ele>216.6</ele>
        <time>2023-05-27T08:21:54Z</time>
      </trkpt>
      <trkpt lat="43.34959" lon="1.8247">
        <ele>216.6</ele>
        <time>2023-05-27T08:21:55Z</time>
      </trkpt>
      <trkpt lat="43.34955" lon="1.82476">
        <ele>216.6</ele>
        <time>2023-05-27T08:21:56Z</time>
      </trkpt>
      <trkpt lat="43.34952" lon="1.82481">
        <ele>216.6</ele>
        <time>2023-05-27T08:21:57Z</time>
      </trkpt>
      <trkpt lat="43.34948" lon="1.82487">
        <ele>216.6</ele>
        <time>2023-05-27T08:21:58Z</time>
      </trkpt>
      <trkpt lat="43.34945" lon="1.82493">
        <ele>216.6</ele>
        <time>2023-05-27T08:21:59Z</time>
      </trkpt>
      <trkpt lat="43.34943" lon="1.82498">
        <ele>216.6</ele>
        <time>2023-05-27T08:22:00Z</time>
      </trkpt>
      <trkpt lat="43.34941" lon="1.82502">
        <ele>216.6</ele>
        <time>2023-05-27T08:22:01Z</time>
      </trkpt>
      <trkpt lat="43.34939" lon="1.82505">
        <ele>216.6</ele>
        <time>2023-05-27T08:22:02Z</time>
      </trkpt>
      <trkpt lat="43.34937" lon="1.82507">
        <ele>216.8</ele>
        <time>2023-05-27T08:22:03Z</time>
      </trkpt>
      <trkpt lat="43.34935" lon="1.8251">
        <ele>216.8</ele>
        <time>2023-05-27T08:22:04Z</time>
      </trkpt>
      <trkpt lat="43.34932" lon="1.82514">
        <ele>216.8</ele>
        <time>2023-05-27T08:22:05Z</time>
      </trkpt>
      <trkpt lat="43.34928" lon="1.8252">
        <ele>216.8</ele>
        <time>2023-05-27T08:22:06Z</time>
      </trkpt>
      <trkpt lat="43.34925" lon="1.82526">
        <ele>216.8</ele>
        <time>2023-05-27T08:22:07Z</time>
      </trkpt>
      <trkpt lat="43.34922" lon="1.82531">
        <ele>216.8</ele>
        <time>2023-05-27T08:22:08Z</time>
      </trkpt>
      <trkpt lat="43.34918" lon="1.82537">
        <ele>216.8</ele>
        <time>2023-05-27T08:22:09Z</time>
      </trkpt>
      <trkpt lat="43.34914" lon="1.82542">
        <ele>216.8</ele>
        <time>2023-05-27T08:22:10Z</time>
      </trkpt>
      <trkpt lat="43.34911" lon="1.82548">
        <ele>216.8</ele>
        <time>2023-05-27T08:22:11Z</time>
      </trkpt>
      <trkpt lat="43.34909" lon="1.82551">
        <ele>216.8</ele>
        <time>2023-05-27T08:22:12Z</time>
      </trkpt>
      <trkpt lat="43.34908" lon="1.82555">
        <ele>216.8</ele>
        <time>2023-05-27T08:22:13Z</time>
      </trkpt>
      <trkpt lat="43.34905" lon="1.82561">
        <ele>216.8</ele>
        <time>2023-05-27T08:22:14Z</time>
      </trkpt>
      <trkpt lat="43.34901" lon="1.82567">
        <ele>216.8</ele>
        <time>2023-05-27T08:22:15Z</time>
      </trkpt>
      <trkpt lat="43.34898" lon="1.82572">
        <ele>216.8</ele>
        <time>2023-05-27T08:22:16Z</time>
      </trkpt>
      <trkpt lat="43.34896" lon="1.82575">
        <ele>216.8</ele>
        <time>2023-05-27T08:22:17Z</time>
      </trkpt>
      <trkpt lat="43.34894" lon="1.8258">
        <ele>216.8</ele>
        <time>2023-05-27T08:22:18Z</time>
      </trkpt>
      <trkpt lat="43.34892" lon="1.82583">
        <ele>216.8</ele>
        <time>2023-05-27T08:22:19Z</time>
      </trkpt>
      <trkpt lat="43.3489" lon="1.82587">
        <ele>216.8</ele>
        <time>2023-05-27T08:22:20Z</time>
      </trkpt>
      <trkpt lat="43.34888" lon="1.82591">
        <ele>216.8</ele>
        <time>2023-05-27T08:22:21Z</time>
      </trkpt>
      <trkpt lat="43.34885" lon="1.82596">
        <ele>216.8</ele>
        <time>2023-05-27T08:22:22Z</time>
      </trkpt>
      <trkpt lat="43.34881" lon="1.82602">
        <ele>216.8</ele>
        <time>2023-05-27T08:22:23Z</time>
      </trkpt>
      <trkpt lat="43.34877" lon="1.82608">
        <ele>216.8</ele>
        <time>2023-05-27T08:22:24Z</time>
      </trkpt>
      <trkpt lat="43.34872" lon="1.82613">
        <ele>216.8</ele>
        <time>2023-05-27T08:22:25Z</time>
      </trkpt>
      <trkpt lat="43.34869" lon="1.82619">
        <ele>216.8</ele>
        <time>2023-05-27T08:22:26Z</time>
      </trkpt>
      <trkpt lat="43.34866" lon="1.82624">
        <ele>216.8</ele>
        <time>2023-05-27T08:22:27Z</time>
      </trkpt>
      <trkpt lat="43.34863" lon="1.82629">
        <ele>217</ele>
        <time>2023-05-27T08:22:28Z</time>
      </trkpt>
      <trkpt lat="43.34861" lon="1.82632">
        <ele>217</ele>
        <time>2023-05-27T08:22:29Z</time>
      </trkpt>
      <trkpt lat="43.34859" lon="1.82636">
        <ele>217</ele>
        <time>2023-05-27T08:22:30Z</time>
      </trkpt>
      <trkpt lat="43.34857" lon="1.82639">
        <ele>217</ele>
        <time>2023-05-27T08:22:31Z</time>
      </trkpt>
      <trkpt lat="43.34855" lon="1.82641">
        <ele>217</ele>
        <time>2023-05-27T08:22:32Z</time>
      </trkpt>
      <trkpt lat="43.34853" lon="1.82643">
        <ele>217</ele>
        <time>2023-05-27T08:22:33Z</time>
      </trkpt>
      <trkpt lat="43.34852" lon="1.82646">
        <ele>217</ele>
        <time>2023-05-27T08:22:34Z</time>
      </trkpt>
      <trkpt lat="43.34851" lon="1.82648">
        <ele>217</ele>
        <time>2023-05-27T08:22:35Z</time>
      </trkpt>
      <trkpt lat="43.34849" lon="1.82652">
        <ele>217</ele>
        <time>2023-05-27T08:22:36Z</time>
      </trkpt>
      <trkpt lat="43.34847" lon="1.82655">
        <ele>217</ele>
        <time>2023-05-27T08:22:37Z</time>
      </trkpt>
      <trkpt lat="43.34845" lon="1.82658">
        <ele>217</ele>
        <time>2023-05-27T08:22:38Z</time>
      </trkpt>
      <trkpt lat="43.34843" lon="1.82661">
        <ele>217</ele>
        <time>2023-05-27T08:22:39Z</time>
      </trkpt>
      <trkpt lat="43.3484" lon="1.82665">
        <ele>217</ele>
        <time>2023-05-27T08:22:40Z</time>
      </trkpt>
      <trkpt lat="43.34838" lon="1.8267">
        <ele>217</ele>
        <time>2023-05-27T08:22:41Z</time>
      </trkpt>
      <trkpt lat="43.34835" lon="1.82674">
        <ele>217</ele>
        <time>2023-05-27T08:22:42Z</time>
      </trkpt>
      <trkpt lat="43.34833" lon="1.82678">
        <ele>217</ele>
        <time>2023-05-27T08:22:43Z</time>
      </trkpt>
      <trkpt lat="43.34831" lon="1.82681">
        <ele>217</ele>
        <time>2023-05-27T08:22:44Z</time>
      </trkpt>
      <trkpt lat="43.34828" lon="1.82685">
        <ele>217</ele>
        <time>2023-05-27T08:22:45Z</time>
      </trkpt>
      <trkpt lat="43.34825" lon="1.82689">
        <ele>217</ele>
        <time>2023-05-27T08:22:46Z</time>
      </trkpt>
      <trkpt lat="43.34822" lon="1.82693">
        <ele>217</ele>
        <time>2023-05-27T08:22:47Z</time>
      </trkpt>
      <trkpt lat="43.3482" lon="1.82697">
        <ele>217</ele>
        <time>2023-05-27T08:22:48Z</time>
      </trkpt>
      <trkpt lat="43.34816" lon="1.82701">
        <ele>217</ele>
        <time>2023-05-27T08:22:49Z</time>
      </trkpt>
      <trkpt lat="43.34813" lon="1.82705">
        <ele>217</ele>
        <time>2023-05-27T08:22:50Z</time>
      </trkpt>
      <trkpt lat="43.34809" lon="1.8271">
        <ele>217</ele>
        <time>2023-05-27T08:22:51Z</time>
      </trkpt>
      <trkpt lat="43.34805" lon="1.82715">
        <ele>217</ele>
        <time>2023-05-27T08:22:52Z</time>
      </trkpt>
      <trkpt lat="43.348" lon="1.82721">
        <ele>217</ele>
        <time>2023-05-27T08:22:53Z</time>
      </trkpt>
      <trkpt lat="43.34796" lon="1.82727">
        <ele>217</ele>
        <time>2023-05-27T08:22:54Z</time>
      </trkpt>
      <trkpt lat="43.34792" lon="1.82733">
        <ele>217.2</ele>
        <time>2023-05-27T08:22:55Z</time>
      </trkpt>
      <trkpt lat="43.34789" lon="1.82738">
        <ele>217.2</ele>
        <time>2023-05-27T08:22:56Z</time>
      </trkpt>
      <trkpt lat="43.34786" lon="1.82743">
        <ele>217.2</ele>
        <time>2023-05-27T08:22:57Z</time>
      </trkpt>
      <trkpt lat="43.34783" lon="1.82746">
        <ele>217.2</ele>
        <time>2023-05-27T08:22:58Z</time>
      </trkpt>
      <trkpt lat="43.3478" lon="1.82751">
        <ele>217</ele>
        <time>2023-05-27T08:22:59Z</time>
      </trkpt>
      <trkpt lat="43.34777" lon="1.82756">
        <ele>217</ele>
        <time>2023-05-27T08:23:00Z</time>
      </trkpt>
      <trkpt lat="43.34774" lon="1.82761">
        <ele>217</ele>
        <time>2023-05-27T08:23:01Z</time>
      </trkpt>
      <trkpt lat="43.34771" lon="1.82766">
        <ele>217</ele>
        <time>2023-05-27T08:23:02Z</time>
      </trkpt>
      <trkpt lat="43.34767" lon="1.82774">
        <ele>217</ele>
        <time>2023-05-27T08:23:03Z</time>
      </trkpt>
      <trkpt lat="43.34764" lon="1.8278">
        <ele>217</ele>
        <time>2023-05-27T08:23:04Z</time>
      </trkpt>
      <trkpt lat="43.3476" lon="1.82787">
        <ele>217</ele>
        <time>2023-05-27T08:23:05Z</time>
      </trkpt>
      <trkpt lat="43.34757" lon="1.82793">
        <ele>217</ele>
        <time>2023-05-27T08:23:06Z</time>
      </trkpt>
      <trkpt lat="43.34755" lon="1.82798">
        <ele>217</ele>
        <time>2023-05-27T08:23:07Z</time>
      </trkpt>
      <trkpt lat="43.34752" lon="1.82803">
        <ele>217</ele>
        <time>2023-05-27T08:23:08Z</time>
      </trkpt>
      <trkpt lat="43.34749" lon="1.82808">
        <ele>217</ele>
        <time>2023-05-27T08:23:09Z</time>
      </trkpt>
      <trkpt lat="43.34748" lon="1.82813">
        <ele>217</ele>
        <time>2023-05-27T08:23:10Z</time>
      </trkpt>
      <trkpt lat="43.34748" lon="1.82818">
        <ele>217.2</ele>
        <time>2023-05-27T08:23:11Z</time>
      </trkpt>
      <trkpt lat="43.34748" lon="1.82822">
        <ele>217</ele>
        <time>2023-05-27T08:23:12Z</time>
      </trkpt>
      <trkpt lat="43.34746" lon="1.82827">
        <ele>217</ele>
        <time>2023-05-27T08:23:13Z</time>
      </trkpt>
      <trkpt lat="43.34745" lon="1.82833">
        <ele>217</ele>
        <time>2023-05-27T08:23:14Z</time>
      </trkpt>
      <trkpt lat="43.34744" lon="1.82838">
        <ele>217</ele>
        <time>2023-05-27T08:23:15Z</time>
      </trkpt>
      <trkpt lat="43.34744" lon="1.82843">
        <ele>217</ele>
        <time>2023-05-27T08:23:16Z</time>
      </trkpt>
      <trkpt lat="43.34743" lon="1.82847">
        <ele>217</ele>
        <time>2023-05-27T08:23:17Z</time>
      </trkpt>
      <trkpt lat="43.34743" lon="1.82852">
        <ele>217</ele>
        <time>2023-05-27T08:23:18Z</time>
      </trkpt>
      <trkpt lat="43.34743" lon="1.82858">
        <ele>217</ele>
        <time>2023-05-27T08:23:19Z</time>
      </trkpt>
      <trkpt lat="43.34742" lon="1.82865">
        <ele>217</ele>
        <time>2023-05-27T08:23:20Z</time>
      </trkpt>
      <trkpt lat="43.34742" lon="1.82871">
        <ele>217</ele>
        <time>2023-05-27T08:23:21Z</time>
      </trkpt>
      <trkpt lat="43.34741" lon="1.82877">
        <ele>217</ele>
        <time>2023-05-27T08:23:22Z</time>
      </trkpt>
      <trkpt lat="43.34741" lon="1.82884">
        <ele>217.2</ele>
        <time>2023-05-27T08:23:23Z</time>
      </trkpt>
      <trkpt lat="43.34741" lon="1.8289">
        <ele>217.2</ele>
        <time>2023-05-27T08:23:24Z</time>
      </trkpt>
      <trkpt lat="43.3474" lon="1.82895">
        <ele>217.2</ele>
        <time>2023-05-27T08:23:25Z</time>
      </trkpt>
      <trkpt lat="43.3474" lon="1.829">
        <ele>217.2</ele>
        <time>2023-05-27T08:23:26Z</time>
      </trkpt>
      <trkpt lat="43.3474" lon="1.82905">
        <ele>217.2</ele>
        <time>2023-05-27T08:23:27Z</time>
      </trkpt>
      <trkpt lat="43.3474" lon="1.8291">
        <ele>217.4</ele>
        <time>2023-05-27T08:23:28Z</time>
      </trkpt>
      <trkpt lat="43.34741" lon="1.82915">
        <ele>217.4</ele>
        <time>2023-05-27T08:23:29Z</time>
      </trkpt>
      <trkpt lat="43.34741" lon="1.8292">
        <ele>217.4</ele>
        <time>2023-05-27T08:23:30Z</time>
      </trkpt>
      <trkpt lat="43.34742" lon="1.82926">
        <ele>217.4</ele>
        <time>2023-05-27T08:23:31Z</time>
      </trkpt>
      <trkpt lat="43.34744" lon="1.82931">
        <ele>217.4</ele>
        <time>2023-05-27T08:23:32Z</time>
      </trkpt>
      <trkpt lat="43.34746" lon="1.82936">
        <ele>217.4</ele>
        <time>2023-05-27T08:23:33Z</time>
      </trkpt>
      <trkpt lat="43.34747" lon="1.8294">
        <ele>217.4</ele>
        <time>2023-05-27T08:23:34Z</time>
      </trkpt>
      <trkpt lat="43.34749" lon="1.82943">
        <ele>217.4</ele>
        <time>2023-05-27T08:23:35Z</time>
      </trkpt>
      <trkpt lat="43.34753" lon="1.82947">
        <ele>217.4</ele>
        <time>2023-05-27T08:23:36Z</time>
      </trkpt>
      <trkpt lat="43.34756" lon="1.82951">
        <ele>217.4</ele>
        <time>2023-05-27T08:23:37Z</time>
      </trkpt>
      <trkpt lat="43.34759" lon="1.82954">
        <ele>217.6</ele>
        <time>2023-05-27T08:23:38Z</time>
      </trkpt>
      <trkpt lat="43.34762" lon="1.82956">
        <ele>217.6</ele>
        <time>2023-05-27T08:23:39Z</time>
      </trkpt>
      <trkpt lat="43.34765" lon="1.82959">
        <ele>217.6</ele>
        <time>2023-05-27T08:23:40Z</time>
      </trkpt>
      <trkpt lat="43.34769" lon="1.82964">
        <ele>217.6</ele>
        <time>2023-05-27T08:23:41Z</time>
      </trkpt>
      <trkpt lat="43.34772" lon="1.82968">
        <ele>217.6</ele>
        <time>2023-05-27T08:23:42Z</time>
      </trkpt>
      <trkpt lat="43.34776" lon="1.82972">
        <ele>217.6</ele>
        <time>2023-05-27T08:23:43Z</time>
      </trkpt>
      <trkpt lat="43.34779" lon="1.82977">
        <ele>217.6</ele>
        <time>2023-05-27T08:23:44Z</time>
      </trkpt>
      <trkpt lat="43.34782" lon="1.8298">
        <ele>217.6</ele>
        <time>2023-05-27T08:23:45Z</time>
      </trkpt>
      <trkpt lat="43.34784" lon="1.82984">
        <ele>217.6</ele>
        <time>2023-05-27T08:23:46Z</time>
      </trkpt>
      <trkpt lat="43.34788" lon="1.82987">
        <ele>217.6</ele>
        <time>2023-05-27T08:23:47Z</time>
      </trkpt>
      <trkpt lat="43.34791" lon="1.82991">
        <ele>217.6</ele>
        <time>2023-05-27T08:23:48Z</time>
      </trkpt>
      <trkpt lat="43.34793" lon="1.82993">
        <ele>217.6</ele>
        <time>2023-05-27T08:23:49Z</time>
      </trkpt>
      <trkpt lat="43.34797" lon="1.82997">
        <ele>217.6</ele>
        <time>2023-05-27T08:23:50Z</time>
      </trkpt>
      <trkpt lat="43.34802" lon="1.83">
        <ele>217.6</ele>
        <time>2023-05-27T08:23:51Z</time>
      </trkpt>
      <trkpt lat="43.34805" lon="1.83003">
        <ele>217.6</ele>
        <time>2023-05-27T08:23:52Z</time>
      </trkpt>
      <trkpt lat="43.34809" lon="1.83007">
        <ele>217.6</ele>
        <time>2023-05-27T08:23:53Z</time>
      </trkpt>
      <trkpt lat="43.34812" lon="1.8301">
        <ele>217.8</ele>
        <time>2023-05-27T08:23:54Z</time>
      </trkpt>
      <trkpt lat="43.34815" lon="1.83013">
        <ele>217.6</ele>
        <time>2023-05-27T08:23:55Z</time>
      </trkpt>
      <trkpt lat="43.3482" lon="1.83018">
        <ele>217.6</ele>
        <time>2023-05-27T08:23:56Z</time>
      </trkpt>
      <trkpt lat="43.34824" lon="1.83022">
        <ele>217.6</ele>
        <time>2023-05-27T08:23:57Z</time>
      </trkpt>
      <trkpt lat="43.34828" lon="1.83025">
        <ele>217.6</ele>
        <time>2023-05-27T08:23:58Z</time>
      </trkpt>
      <trkpt lat="43.34831" lon="1.83028">
        <ele>217.6</ele>
        <time>2023-05-27T08:23:59Z</time>
      </trkpt>
      <trkpt lat="43.34834" lon="1.83029">
        <ele>217.6</ele>
        <time>2023-05-27T08:24:00Z</time>
      </trkpt>
      <trkpt lat="43.34837" lon="1.83031">
        <ele>217.6</ele>
        <time>2023-05-27T08:24:01Z</time>
      </trkpt>
      <trkpt lat="43.34841" lon="1.83034">
        <ele>217.6</ele>
        <time>2023-05-27T08:24:02Z</time>
      </trkpt>
      <trkpt lat="43.34846" lon="1.83036">
        <ele>217.6</ele>
        <time>2023-05-27T08:24:03Z</time>
      </trkpt>
      <trkpt lat="43.34851" lon="1.83038">
        <ele>217.6</ele>
        <time>2023-05-27T08:24:04Z</time>
      </trkpt>
      <trkpt lat="43.34856" lon="1.83039">
        <ele>217.6</ele>
        <time>2023-05-27T08:24:05Z</time>
      </trkpt>
      <trkpt lat="43.34861" lon="1.83042">
        <ele>217.6</ele>
        <time>2023-05-27T08:24:06Z</time>
      </trkpt>
      <trkpt lat="43.34864" lon="1.83044">
        <ele>217.6</ele>
        <time>2023-05-27T08:24:07Z</time>
      </trkpt>
      <trkpt lat="43.34867" lon="1.83046">
        <ele>217.6</ele>
        <time>2023-05-27T08:24:08Z</time>
      </trkpt>
      <trkpt lat="43.34871" lon="1.83047">
        <ele>217.6</ele>
        <time>2023-05-27T08:24:09Z</time>
      </trkpt>
      <trkpt lat="43.34875" lon="1.83047">
        <ele>217.6</ele>
        <time>2023-05-27T08:24:10Z</time>
      </trkpt>
      <trkpt lat="43.34878" lon="1.83048">
        <ele>217.8</ele>
        <time>2023-05-27T08:24:11Z</time>
      </trkpt>
      <trkpt lat="43.34882" lon="1.83048">
        <ele>217.8</ele>
        <time>2023-05-27T08:24:12Z</time>
      </trkpt>
      <trkpt lat="43.34885" lon="1.83049">
        <ele>217.8</ele>
        <time>2023-05-27T08:24:13Z</time>
      </trkpt>
      <trkpt lat="43.34888" lon="1.83049">
        <ele>217.8</ele>
        <time>2023-05-27T08:24:14Z</time>
      </trkpt>
      <trkpt lat="43.34892" lon="1.8305">
        <ele>217.8</ele>
        <time>2023-05-27T08:24:15Z</time>
      </trkpt>
      <trkpt lat="43.34896" lon="1.83051">
        <ele>217.8</ele>
        <time>2023-05-27T08:24:16Z</time>
      </trkpt>
      <trkpt lat="43.349" lon="1.83054">
        <ele>217.8</ele>
        <time>2023-05-27T08:24:17Z</time>
      </trkpt>
      <trkpt lat="43.34903" lon="1.83057">
        <ele>217.8</ele>
        <time>2023-05-27T08:24:18Z</time>
      </trkpt>
      <trkpt lat="43.34906" lon="1.83059">
        <ele>217.8</ele>
        <time>2023-05-27T08:24:19Z</time>
      </trkpt>
      <trkpt lat="43.34909" lon="1.83062">
        <ele>218</ele>
        <time>2023-05-27T08:24:20Z</time>
      </trkpt>
      <trkpt lat="43.34913" lon="1.83066">
        <ele>218</ele>
        <time>2023-05-27T08:24:21Z</time>
      </trkpt>
      <trkpt lat="43.34916" lon="1.83069">
        <ele>218</ele>
        <time>2023-05-27T08:24:22Z</time>
      </trkpt>
      <trkpt lat="43.34919" lon="1.83072">
        <ele>218</ele>
        <time>2023-05-27T08:24:23Z</time>
      </trkpt>
      <trkpt lat="43.34923" lon="1.83074">
        <ele>218</ele>
        <time>2023-05-27T08:24:24Z</time>
      </trkpt>
      <trkpt lat="43.34926" lon="1.83077">
        <ele>218</ele>
        <time>2023-05-27T08:24:25Z</time>
      </trkpt>
      <trkpt lat="43.34929" lon="1.83081">
        <ele>218</ele>
        <time>2023-05-27T08:24:26Z</time>
      </trkpt>
      <trkpt lat="43.34932" lon="1.83085">
        <ele>218</ele>
        <time>2023-05-27T08:24:27Z</time>
      </trkpt>
      <trkpt lat="43.34935" lon="1.83089">
        <ele>218</ele>
        <time>2023-05-27T08:24:28Z</time>
      </trkpt>
      <trkpt lat="43.34938" lon="1.83094">
        <ele>218</ele>
        <time>2023-05-27T08:24:29Z</time>
      </trkpt>
      <trkpt lat="43.34939" lon="1.83098">
        <ele>218</ele>
        <time>2023-05-27T08:24:30Z</time>
      </trkpt>
      <trkpt lat="43.34941" lon="1.83103">
        <ele>218</ele>
        <time>2023-05-27T08:24:31Z</time>
      </trkpt>
      <trkpt lat="43.34942" lon="1.83108">
        <ele>218</ele>
        <time>2023-05-27T08:24:32Z</time>
      </trkpt>
      <trkpt lat="43.34943" lon="1.83113">
        <ele>218</ele>
        <time>2023-05-27T08:24:33Z</time>
      </trkpt>
      <trkpt lat="43.34944" lon="1.83118">
        <ele>218</ele>
        <time>2023-05-27T08:24:34Z</time>
      </trkpt>
      <trkpt lat="43.34944" lon="1.83123">
        <ele>218</ele>
        <time>2023-05-27T08:24:35Z</time>
      </trkpt>
      <trkpt lat="43.34944" lon="1.83128">
        <ele>218</ele>
        <time>2023-05-27T08:24:36Z</time>
      </trkpt>
      <trkpt lat="43.34945" lon="1.83132">
        <ele>218</ele>
        <time>2023-05-27T08:24:37Z</time>
      </trkpt>
      <trkpt lat="43.34946" lon="1.83137">
        <ele>218</ele>
        <time>2023-05-27T08:24:38Z</time>
      </trkpt>
      <trkpt lat="43.34946" lon="1.83142">
        <ele>218</ele>
        <time>2023-05-27T08:24:39Z</time>
      </trkpt>
      <trkpt lat="43.34946" lon="1.83147">
        <ele>218</ele>
        <time>2023-05-27T08:24:40Z</time>
      </trkpt>
      <trkpt lat="43.34947" lon="1.83152">
        <ele>218.2</ele>
        <time>2023-05-27T08:24:41Z</time>
      </trkpt>
      <trkpt lat="43.34947" lon="1.83157">
        <ele>218.2</ele>
        <time>2023-05-27T08:24:42Z</time>
      </trkpt>
      <trkpt lat="43.34948" lon="1.83162">
        <ele>218.2</ele>
        <time>2023-05-27T08:24:43Z</time>
      </trkpt>
      <trkpt lat="43.34948" lon="1.83167">
        <ele>218.2</ele>
        <time>2023-05-27T08:24:44Z</time>
      </trkpt>
      <trkpt lat="43.34948" lon="1.83171">
        <ele>218.2</ele>
        <time>2023-05-27T08:24:45Z</time>
      </trkpt>
      <trkpt lat="43.34949" lon="1.83175">
        <ele>218.2</ele>
        <time>2023-05-27T08:24:46Z</time>
      </trkpt>
      <trkpt lat="43.34949" lon="1.83179">
        <ele>218.4</ele>
        <time>2023-05-27T08:24:47Z</time>
      </trkpt>
      <trkpt lat="43.3495" lon="1.83184">
        <ele>218.4</ele>
        <time>2023-05-27T08:24:48Z</time>
      </trkpt>
      <trkpt lat="43.3495" lon="1.83189">
        <ele>218.4</ele>
        <time>2023-05-27T08:24:49Z</time>
      </trkpt>
      <trkpt lat="43.3495" lon="1.83194">
        <ele>218.4</ele>
        <time>2023-05-27T08:24:50Z</time>
      </trkpt>
      <trkpt lat="43.3495" lon="1.83198">
        <ele>218.4</ele>
        <time>2023-05-27T08:24:51Z</time>
      </trkpt>
      <trkpt lat="43.3495" lon="1.83203">
        <ele>218.4</ele>
        <time>2023-05-27T08:24:52Z</time>
      </trkpt>
      <trkpt lat="43.34951" lon="1.83208">
        <ele>218.4</ele>
        <time>2023-05-27T08:24:53Z</time>
      </trkpt>
      <trkpt lat="43.34952" lon="1.83213">
        <ele>218.4</ele>
        <time>2023-05-27T08:24:54Z</time>
      </trkpt>
      <trkpt lat="43.34954" lon="1.83219">
        <ele>218.4</ele>
        <time>2023-05-27T08:24:55Z</time>
      </trkpt>
      <trkpt lat="43.34955" lon="1.83224">
        <ele>218.4</ele>
        <time>2023-05-27T08:24:56Z</time>
      </trkpt>
      <trkpt lat="43.34955" lon="1.83228">
        <ele>218.6</ele>
        <time>2023-05-27T08:24:57Z</time>
      </trkpt>
      <trkpt lat="43.34955" lon="1.83234">
        <ele>218.6</ele>
        <time>2023-05-27T08:24:58Z</time>
      </trkpt>
      <trkpt lat="43.34956" lon="1.83239">
        <ele>218.6</ele>
        <time>2023-05-27T08:24:59Z</time>
      </trkpt>
      <trkpt lat="43.34956" lon="1.83245">
        <ele>218.6</ele>
        <time>2023-05-27T08:25:00Z</time>
      </trkpt>
      <trkpt lat="43.34956" lon="1.83252">
        <ele>218.6</ele>
        <time>2023-05-27T08:25:01Z</time>
      </trkpt>
      <trkpt lat="43.34957" lon="1.83258">
        <ele>218.6</ele>
        <time>2023-05-27T08:25:02Z</time>
      </trkpt>
      <trkpt lat="43.34957" lon="1.83264">
        <ele>218.6</ele>
        <time>2023-05-27T08:25:03Z</time>
      </trkpt>
      <trkpt lat="43.34958" lon="1.8327">
        <ele>218.6</ele>
        <time>2023-05-27T08:25:04Z</time>
      </trkpt>
      <trkpt lat="43.34959" lon="1.83276">
        <ele>218.6</ele>
        <time>2023-05-27T08:25:05Z</time>
      </trkpt>
      <trkpt lat="43.34961" lon="1.83282">
        <ele>218.6</ele>
        <time>2023-05-27T08:25:06Z</time>
      </trkpt>
      <trkpt lat="43.34962" lon="1.83289">
        <ele>218.6</ele>
        <time>2023-05-27T08:25:07Z</time>
      </trkpt>
      <trkpt lat="43.34963" lon="1.83295">
        <ele>218.6</ele>
        <time>2023-05-27T08:25:08Z</time>
      </trkpt>
      <trkpt lat="43.34963" lon="1.83301">
        <ele>218.6</ele>
        <time>2023-05-27T08:25:09Z</time>
      </trkpt>
      <trkpt lat="43.34963" lon="1.83307">
        <ele>218.6</ele>
        <time>2023-05-27T08:25:10Z</time>
      </trkpt>
      <trkpt lat="43.34965" lon="1.83313">
        <ele>218.6</ele>
        <time>2023-05-27T08:25:11Z</time>
      </trkpt>
      <trkpt lat="43.34967" lon="1.83318">
        <ele>218.6</ele>
        <time>2023-05-27T08:25:12Z</time>
      </trkpt>
      <trkpt lat="43.34968" lon="1.83324">
        <ele>218.6</ele>
        <time>2023-05-27T08:25:13Z</time>
      </trkpt>
      <trkpt lat="43.34969" lon="1.8333">
        <ele>218.6</ele>
        <time>2023-05-27T08:25:14Z</time>
      </trkpt>
      <trkpt lat="43.34969" lon="1.83335">
        <ele>218.6</ele>
        <time>2023-05-27T08:25:15Z</time>
      </trkpt>
      <trkpt lat="43.3497" lon="1.83341">
        <ele>218.6</ele>
        <time>2023-05-27T08:25:16Z</time>
      </trkpt>
      <trkpt lat="43.34971" lon="1.83346">
        <ele>218.6</ele>
        <time>2023-05-27T08:25:17Z</time>
      </trkpt>
      <trkpt lat="43.3497" lon="1.83354">
        <ele>218.6</ele>
        <time>2023-05-27T08:25:18Z</time>
      </trkpt>
      <trkpt lat="43.34969" lon="1.8336">
        <ele>218.6</ele>
        <time>2023-05-27T08:25:19Z</time>
      </trkpt>
      <trkpt lat="43.34969" lon="1.83365">
        <ele>218.6</ele>
        <time>2023-05-27T08:25:20Z</time>
      </trkpt>
      <trkpt lat="43.34969" lon="1.8337">
        <ele>218.6</ele>
        <time>2023-05-27T08:25:21Z</time>
      </trkpt>
      <trkpt lat="43.34969" lon="1.83375">
        <ele>218.6</ele>
        <time>2023-05-27T08:25:22Z</time>
      </trkpt>
      <trkpt lat="43.3497" lon="1.83381">
        <ele>218.6</ele>
        <time>2023-05-27T08:25:23Z</time>
      </trkpt>
      <trkpt lat="43.34971" lon="1.83386">
        <ele>218.6</ele>
        <time>2023-05-27T08:25:24Z</time>
      </trkpt>
      <trkpt lat="43.34971" lon="1.8339">
        <ele>218.6</ele>
        <time>2023-05-27T08:25:25Z</time>
      </trkpt>
      <trkpt lat="43.34972" lon="1.83395">
        <ele>218.4</ele>
        <time>2023-05-27T08:25:26Z</time>
      </trkpt>
      <trkpt lat="43.34972" lon="1.834">
        <ele>218.4</ele>
        <time>2023-05-27T08:25:27Z</time>
      </trkpt>
      <trkpt lat="43.34971" lon="1.83404">
        <ele>218.4</ele>
        <time>2023-05-27T08:25:28Z</time>
      </trkpt>
      <trkpt lat="43.3497" lon="1.8341">
        <ele>218.4</ele>
        <time>2023-05-27T08:25:29Z</time>
      </trkpt>
      <trkpt lat="43.3497" lon="1.83416">
        <ele>218.4</ele>
        <time>2023-05-27T08:25:30Z</time>
      </trkpt>
      <trkpt lat="43.3497" lon="1.8342">
        <ele>218.4</ele>
        <time>2023-05-27T08:25:31Z</time>
      </trkpt>
      <trkpt lat="43.34969" lon="1.83425">
        <ele>218.4</ele>
        <time>2023-05-27T08:25:32Z</time>
      </trkpt>
      <trkpt lat="43.34969" lon="1.8343">
        <ele>218.4</ele>
        <time>2023-05-27T08:25:33Z</time>
      </trkpt>
      <trkpt lat="43.34968" lon="1.83435">
        <ele>218.4</ele>
        <time>2023-05-27T08:25:34Z</time>
      </trkpt>
      <trkpt lat="43.34967" lon="1.83442">
        <ele>218.4</ele>
        <time>2023-05-27T08:25:35Z</time>
      </trkpt>
      <trkpt lat="43.34966" lon="1.83449">
        <ele>218.4</ele>
        <time>2023-05-27T08:25:36Z</time>
      </trkpt>
      <trkpt lat="43.34965" lon="1.83455">
        <ele>218.4</ele>
        <time>2023-05-27T08:25:37Z</time>
      </trkpt>
      <trkpt lat="43.34964" lon="1.8346">
        <ele>218.4</ele>
        <time>2023-05-27T08:25:38Z</time>
      </trkpt>
      <trkpt lat="43.34964" lon="1.83466">
        <ele>218.4</ele>
        <time>2023-05-27T08:25:39Z</time>
      </trkpt>
      <trkpt lat="43.34964" lon="1.83473">
        <ele>218.6</ele>
        <time>2023-05-27T08:25:40Z</time>
      </trkpt>
      <trkpt lat="43.34964" lon="1.8348">
        <ele>218.6</ele>
        <time>2023-05-27T08:25:41Z</time>
      </trkpt>
      <trkpt lat="43.34964" lon="1.83486">
        <ele>218.6</ele>
        <time>2023-05-27T08:25:42Z</time>
      </trkpt>
      <trkpt lat="43.34965" lon="1.83492">
        <ele>218.6</ele>
        <time>2023-05-27T08:25:43Z</time>
      </trkpt>
      <trkpt lat="43.34966" lon="1.83498">
        <ele>218.6</ele>
        <time>2023-05-27T08:25:44Z</time>
      </trkpt>
      <trkpt lat="43.34966" lon="1.83505">
        <ele>218.6</ele>
        <time>2023-05-27T08:25:45Z</time>
      </trkpt>
      <trkpt lat="43.34968" lon="1.83511">
        <ele>218.6</ele>
        <time>2023-05-27T08:25:46Z</time>
      </trkpt>
      <trkpt lat="43.3497" lon="1.83516">
        <ele>218.6</ele>
        <time>2023-05-27T08:25:47Z</time>
      </trkpt>
      <trkpt lat="43.34972" lon="1.83521">
        <ele>218.6</ele>
        <time>2023-05-27T08:25:48Z</time>
      </trkpt>
      <trkpt lat="43.34974" lon="1.83526">
        <ele>218.6</ele>
        <time>2023-05-27T08:25:49Z</time>
      </trkpt>
      <trkpt lat="43.34977" lon="1.8353">
        <ele>218.6</ele>
        <time>2023-05-27T08:25:50Z</time>
      </trkpt>
      <trkpt lat="43.34979" lon="1.83533">
        <ele>218.6</ele>
        <time>2023-05-27T08:25:51Z</time>
      </trkpt>
      <trkpt lat="43.34982" lon="1.83536">
        <ele>218.6</ele>
        <time>2023-05-27T08:25:52Z</time>
      </trkpt>
      <trkpt lat="43.34985" lon="1.83537">
        <ele>218.6</ele>
        <time>2023-05-27T08:25:53Z</time>
      </trkpt>
      <trkpt lat="43.34989" lon="1.83538">
        <ele>218.6</ele>
        <time>2023-05-27T08:25:54Z</time>
      </trkpt>
      <trkpt lat="43.34993" lon="1.83538">
        <ele>218.6</ele>
        <time>2023-05-27T08:25:55Z</time>
      </trkpt>
      <trkpt lat="43.34997" lon="1.83537">
        <ele>218.8</ele>
        <time>2023-05-27T08:25:56Z</time>
      </trkpt>
      <trkpt lat="43.35001" lon="1.83535">
        <ele>218.8</ele>
        <time>2023-05-27T08:25:57Z</time>
      </trkpt>
      <trkpt lat="43.35005" lon="1.83533">
        <ele>218.8</ele>
        <time>2023-05-27T08:25:58Z</time>
      </trkpt>
      <trkpt lat="43.3501" lon="1.83531">
        <ele>218.8</ele>
        <time>2023-05-27T08:25:59Z</time>
      </trkpt>
      <trkpt lat="43.35014" lon="1.83528">
        <ele>218.8</ele>
        <time>2023-05-27T08:26:00Z</time>
      </trkpt>
      <trkpt lat="43.35017" lon="1.83525">
        <ele>218.8</ele>
        <time>2023-05-27T08:26:01Z</time>
      </trkpt>
      <trkpt lat="43.3502" lon="1.83521">
        <ele>218.8</ele>
        <time>2023-05-27T08:26:02Z</time>
      </trkpt>
      <trkpt lat="43.35022" lon="1.83517">
        <ele>218.8</ele>
        <time>2023-05-27T08:26:03Z</time>
      </trkpt>
      <trkpt lat="43.35025" lon="1.83512">
        <ele>218.8</ele>
        <time>2023-05-27T08:26:04Z</time>
      </trkpt>
      <trkpt lat="43.35028" lon="1.83508">
        <ele>219</ele>
        <time>2023-05-27T08:26:05Z</time>
      </trkpt>
      <trkpt lat="43.3503" lon="1.83504">
        <ele>219</ele>
        <time>2023-05-27T08:26:06Z</time>
      </trkpt>
      <trkpt lat="43.35032" lon="1.83499">
        <ele>219</ele>
        <time>2023-05-27T08:26:07Z</time>
      </trkpt>
      <trkpt lat="43.35034" lon="1.83495">
        <ele>219</ele>
        <time>2023-05-27T08:26:08Z</time>
      </trkpt>
      <trkpt lat="43.35036" lon="1.8349">
        <ele>219</ele>
        <time>2023-05-27T08:26:09Z</time>
      </trkpt>
      <trkpt lat="43.35038" lon="1.83485">
        <ele>219</ele>
        <time>2023-05-27T08:26:10Z</time>
      </trkpt>
      <trkpt lat="43.3504" lon="1.83481">
        <ele>219</ele>
        <time>2023-05-27T08:26:11Z</time>
      </trkpt>
      <trkpt lat="43.35042" lon="1.83476">
        <ele>219</ele>
        <time>2023-05-27T08:26:12Z</time>
      </trkpt>
      <trkpt lat="43.35044" lon="1.83471">
        <ele>219</ele>
        <time>2023-05-27T08:26:13Z</time>
      </trkpt>
      <trkpt lat="43.35046" lon="1.83467">
        <ele>219</ele>
        <time>2023-05-27T08:26:14Z</time>
      </trkpt>
      <trkpt lat="43.35048" lon="1.83462">
        <ele>219</ele>
        <time>2023-05-27T08:26:15Z</time>
      </trkpt>
      <trkpt lat="43.3505" lon="1.83458">
        <ele>219</ele>
        <time>2023-05-27T08:26:16Z</time>
      </trkpt>
      <trkpt lat="43.35053" lon="1.83453">
        <ele>219</ele>
        <time>2023-05-27T08:26:17Z</time>
      </trkpt>
      <trkpt lat="43.35054" lon="1.8345">
        <ele>219</ele>
        <time>2023-05-27T08:26:18Z</time>
      </trkpt>
      <trkpt lat="43.35056" lon="1.83446">
        <ele>219</ele>
        <time>2023-05-27T08:26:19Z</time>
      </trkpt>
      <trkpt lat="43.35058" lon="1.83442">
        <ele>219</ele>
        <time>2023-05-27T08:26:20Z</time>
      </trkpt>
      <trkpt lat="43.35061" lon="1.83438">
        <ele>219</ele>
        <time>2023-05-27T08:26:21Z</time>
      </trkpt>
      <trkpt lat="43.35064" lon="1.83435">
        <ele>219</ele>
        <time>2023-05-27T08:26:22Z</time>
      </trkpt>
      <trkpt lat="43.35067" lon="1.83432">
        <ele>219.2</ele>
        <time>2023-05-27T08:26:23Z</time>
      </trkpt>
      <trkpt lat="43.35069" lon="1.8343">
        <ele>219.2</ele>
        <time>2023-05-27T08:26:24Z</time>
      </trkpt>
      <trkpt lat="43.35071" lon="1.83428">
        <ele>219.2</ele>
        <time>2023-05-27T08:26:25Z</time>
      </trkpt>
      <trkpt lat="43.35074" lon="1.83426">
        <ele>219.2</ele>
        <time>2023-05-27T08:26:26Z</time>
      </trkpt>
      <trkpt lat="43.35076" lon="1.83426">
        <ele>219.2</ele>
        <time>2023-05-27T08:26:27Z</time>
      </trkpt>
      <trkpt lat="43.35079" lon="1.83424">
        <ele>219.2</ele>
        <time>2023-05-27T08:26:28Z</time>
      </trkpt>
      <trkpt lat="43.35083" lon="1.83424">
        <ele>219.2</ele>
        <time>2023-05-27T08:26:29Z</time>
      </trkpt>
      <trkpt lat="43.35088" lon="1.83426">
        <ele>219.2</ele>
        <time>2023-05-27T08:26:30Z</time>
      </trkpt>
      <trkpt lat="43.35092" lon="1.83429">
        <ele>219.2</ele>
        <time>2023-05-27T08:26:31Z</time>
      </trkpt>
      <trkpt lat="43.35096" lon="1.83432">
        <ele>219.2</ele>
        <time>2023-05-27T08:26:32Z</time>
      </trkpt>
      <trkpt lat="43.35098" lon="1.83436">
        <ele>219.2</ele>
        <time>2023-05-27T08:26:33Z</time>
      </trkpt>
      <trkpt lat="43.351" lon="1.83441">
        <ele>219.2</ele>
        <time>2023-05-27T08:26:34Z</time>
      </trkpt>
      <trkpt lat="43.35102" lon="1.83446">
        <ele>219.2</ele>
        <time>2023-05-27T08:26:35Z</time>
      </trkpt>
      <trkpt lat="43.35103" lon="1.8345">
        <ele>219.2</ele>
        <time>2023-05-27T08:26:36Z</time>
      </trkpt>
      <trkpt lat="43.35104" lon="1.83455">
        <ele>219.2</ele>
        <time>2023-05-27T08:26:37Z</time>
      </trkpt>
      <trkpt lat="43.35105" lon="1.83459">
        <ele>219.2</ele>
        <time>2023-05-27T08:26:38Z</time>
      </trkpt>
      <trkpt lat="43.35106" lon="1.83462">
        <ele>219.2</ele>
        <time>2023-05-27T08:26:39Z</time>
      </trkpt>
      <trkpt lat="43.35106" lon="1.83467">
        <ele>219.2</ele>
        <time>2023-05-27T08:26:40Z</time>
      </trkpt>
      <trkpt lat="43.35106" lon="1.83473">
        <ele>219.2</ele>
        <time>2023-05-27T08:26:41Z</time>
      </trkpt>
      <trkpt lat="43.35106" lon="1.83479">
        <ele>219.2</ele>
        <time>2023-05-27T08:26:42Z</time>
      </trkpt>
      <trkpt lat="43.35106" lon="1.83484">
        <ele>219.2</ele>
        <time>2023-05-27T08:26:43Z</time>
      </trkpt>
      <trkpt lat="43.35106" lon="1.83488">
        <ele>219.4</ele>
        <time>2023-05-27T08:26:44Z</time>
      </trkpt>
      <trkpt lat="43.35105" lon="1.83493">
        <ele>219.4</ele>
        <time>2023-05-27T08:26:45Z</time>
      </trkpt>
      <trkpt lat="43.35105" lon="1.83499">
        <ele>219.4</ele>
        <time>2023-05-27T08:26:46Z</time>
      </trkpt>
      <trkpt lat="43.35105" lon="1.83505">
        <ele>219.4</ele>
        <time>2023-05-27T08:26:47Z</time>
      </trkpt>
      <trkpt lat="43.35104" lon="1.8351">
        <ele>219.2</ele>
        <time>2023-05-27T08:26:48Z</time>
      </trkpt>
      <trkpt lat="43.35104" lon="1.83515">
        <ele>219.4</ele>
        <time>2023-05-27T08:26:49Z</time>
      </trkpt>
      <trkpt lat="43.35105" lon="1.83519">
        <ele>219.4</ele>
        <time>2023-05-27T08:26:50Z</time>
      </trkpt>
      <trkpt lat="43.35106" lon="1.83523">
        <ele>219.4</ele>
        <time>2023-05-27T08:26:51Z</time>
      </trkpt>
      <trkpt lat="43.35106" lon="1.83528">
        <ele>219.4</ele>
        <time>2023-05-27T08:26:52Z</time>
      </trkpt>
      <trkpt lat="43.35105" lon="1.83532">
        <ele>219.6</ele>
        <time>2023-05-27T08:26:53Z</time>
      </trkpt>
      <trkpt lat="43.35104" lon="1.83537">
        <ele>219.6</ele>
        <time>2023-05-27T08:26:54Z</time>
      </trkpt>
      <trkpt lat="43.35105" lon="1.83541">
        <ele>219.6</ele>
        <time>2023-05-27T08:26:55Z</time>
      </trkpt>
      <trkpt lat="43.35103" lon="1.83546">
        <ele>219.6</ele>
        <time>2023-05-27T08:26:56Z</time>
      </trkpt>
      <trkpt lat="43.35101" lon="1.83553">
        <ele>219.4</ele>
        <time>2023-05-27T08:26:57Z</time>
      </trkpt>
      <trkpt lat="43.351" lon="1.83559">
        <ele>219.4</ele>
        <time>2023-05-27T08:26:58Z</time>
      </trkpt>
      <trkpt lat="43.35099" lon="1.83565">
        <ele>219.4</ele>
        <time>2023-05-27T08:26:59Z</time>
      </trkpt>
      <trkpt lat="43.35098" lon="1.83571">
        <ele>219.4</ele>
        <time>2023-05-27T08:27:00Z</time>
      </trkpt>
      <trkpt lat="43.35098" lon="1.83576">
        <ele>219.4</ele>
        <time>2023-05-27T08:27:01Z</time>
      </trkpt>
      <trkpt lat="43.35098" lon="1.83581">
        <ele>219.4</ele>
        <time>2023-05-27T08:27:02Z</time>
      </trkpt>
      <trkpt lat="43.35098" lon="1.83585">
        <ele>219.4</ele>
        <time>2023-05-27T08:27:03Z</time>
      </trkpt>
      <trkpt lat="43.35099" lon="1.8359">
        <ele>219.4</ele>
        <time>2023-05-27T08:27:04Z</time>
      </trkpt>
      <trkpt lat="43.351" lon="1.83594">
        <ele>219.4</ele>
        <time>2023-05-27T08:27:05Z</time>
      </trkpt>
      <trkpt lat="43.35101" lon="1.83597">
        <ele>219.6</ele>
        <time>2023-05-27T08:27:06Z</time>
      </trkpt>
      <trkpt lat="43.35101" lon="1.836">
        <ele>219.6</ele>
        <time>2023-05-27T08:27:07Z</time>
      </trkpt>
      <trkpt lat="43.35102" lon="1.83603">
        <ele>219.8</ele>
        <time>2023-05-27T08:27:08Z</time>
      </trkpt>
      <trkpt lat="43.35102" lon="1.83606">
        <ele>219.8</ele>
        <time>2023-05-27T08:27:09Z</time>
      </trkpt>
      <trkpt lat="43.35102" lon="1.83608">
        <ele>220</ele>
        <time>2023-05-27T08:27:10Z</time>
      </trkpt>
      <trkpt lat="43.35102" lon="1.83611">
        <ele>220</ele>
        <time>2023-05-27T08:27:11Z</time>
      </trkpt>
      <trkpt lat="43.35101" lon="1.83615">
        <ele>220</ele>
        <time>2023-05-27T08:27:12Z</time>
      </trkpt>
      <trkpt lat="43.35101" lon="1.83619">
        <ele>220</ele>
        <time>2023-05-27T08:27:13Z</time>
      </trkpt>
      <trkpt lat="43.35101" lon="1.83623">
        <ele>220.2</ele>
        <time>2023-05-27T08:27:14Z</time>
      </trkpt>
      <trkpt lat="43.35101" lon="1.83627">
        <ele>220.2</ele>
        <time>2023-05-27T08:27:15Z</time>
      </trkpt>
      <trkpt lat="43.35101" lon="1.83631">
        <ele>220.2</ele>
        <time>2023-05-27T08:27:16Z</time>
      </trkpt>
      <trkpt lat="43.35101" lon="1.83637">
        <ele>220.4</ele>
        <time>2023-05-27T08:27:17Z</time>
      </trkpt>
      <trkpt lat="43.35101" lon="1.83643">
        <ele>220.4</ele>
        <time>2023-05-27T08:27:18Z</time>
      </trkpt>
      <trkpt lat="43.35101" lon="1.83648">
        <ele>220.4</ele>
        <time>2023-05-27T08:27:19Z</time>
      </trkpt>
      <trkpt lat="43.35101" lon="1.83654">
        <ele>220.4</ele>
        <time>2023-05-27T08:27:20Z</time>
      </trkpt>
      <trkpt lat="43.351" lon="1.83659">
        <ele>220.4</ele>
        <time>2023-05-27T08:27:21Z</time>
      </trkpt>
      <trkpt lat="43.35099" lon="1.83665">
        <ele>220.4</ele>
        <time>2023-05-27T08:27:22Z</time>
      </trkpt>
      <trkpt lat="43.35097" lon="1.8367">
        <ele>220.4</ele>
        <time>2023-05-27T08:27:23Z</time>
      </trkpt>
      <trkpt lat="43.35096" lon="1.83675">
        <ele>220.4</ele>
        <time>2023-05-27T08:27:24Z</time>
      </trkpt>
      <trkpt lat="43.35095" lon="1.83681">
        <ele>220.4</ele>
        <time>2023-05-27T08:27:25Z</time>
      </trkpt>
      <trkpt lat="43.35095" lon="1.83686">
        <ele>220.2</ele>
        <time>2023-05-27T08:27:26Z</time>
      </trkpt>
      <trkpt lat="43.35096" lon="1.8369">
        <ele>220.2</ele>
        <time>2023-05-27T08:27:27Z</time>
      </trkpt>
      <trkpt lat="43.35096" lon="1.83694">
        <ele>220</ele>
        <time>2023-05-27T08:27:28Z</time>
      </trkpt>
      <trkpt lat="43.35097" lon="1.83697">
        <ele>220</ele>
        <time>2023-05-27T08:27:29Z</time>
      </trkpt>
      <trkpt lat="43.35098" lon="1.83697">
        <ele>219.8</ele>
        <time>2023-05-27T08:27:30Z</time>
      </trkpt>
      <trkpt lat="43.35098" lon="1.83697">
        <ele>219.8</ele>
        <time>2023-05-27T08:27:31Z</time>
      </trkpt>
      <trkpt lat="43.35098" lon="1.83697">
        <ele>219.6</ele>
        <time>2023-05-27T08:27:32Z</time>
      </trkpt>
      <trkpt lat="43.35098" lon="1.83697">
        <ele>219.6</ele>
        <time>2023-05-27T08:27:33Z</time>
      </trkpt>
      <trkpt lat="43.35098" lon="1.83697">
        <ele>219.6</ele>
        <time>2023-05-27T08:27:34Z</time>
      </trkpt>
      <trkpt lat="43.35099" lon="1.83698">
        <ele>219.6</ele>
        <time>2023-05-27T08:27:40Z</time>
      </trkpt>
      <trkpt lat="43.35099" lon="1.83699">
        <ele>219.6</ele>
        <time>2023-05-27T08:27:41Z</time>
      </trkpt>
      <trkpt lat="43.351" lon="1.837">
        <ele>219.6</ele>
        <time>2023-05-27T08:27:42Z</time>
      </trkpt>
      <trkpt lat="43.351" lon="1.83702">
        <ele>219.6</ele>
        <time>2023-05-27T08:27:43Z</time>
      </trkpt>
      <trkpt lat="43.35101" lon="1.83704">
        <ele>219.6</ele>
        <time>2023-05-27T08:27:44Z</time>
      </trkpt>
      <trkpt lat="43.35101" lon="1.83704">
        <ele>219.6</ele>
        <time>2023-05-27T08:27:45Z</time>
      </trkpt>
      <trkpt lat="43.35101" lon="1.83705">
        <ele>219.6</ele>
        <time>2023-05-27T08:27:46Z</time>
      </trkpt>
      <trkpt lat="43.35101" lon="1.83705">
        <ele>219.6</ele>
        <time>2023-05-27T08:27:47Z</time>
      </trkpt>
      <trkpt lat="43.35101" lon="1.83705">
        <ele>219.6</ele>
        <time>2023-05-27T08:27:48Z</time>
      </trkpt>
      <trkpt lat="43.35102" lon="1.83706">
        <ele>219.6</ele>
        <time>2023-05-27T08:27:49Z</time>
      </trkpt>
      <trkpt lat="43.35102" lon="1.83707">
        <ele>219.6</ele>
        <time>2023-05-27T08:27:50Z</time>
      </trkpt>
      <trkpt lat="43.35103" lon="1.83709">
        <ele>219.6</ele>
        <time>2023-05-27T08:27:51Z</time>
      </trkpt>
      <trkpt lat="43.35103" lon="1.83712">
        <ele>219.8</ele>
        <time>2023-05-27T08:27:52Z</time>
      </trkpt>
      <trkpt lat="43.35104" lon="1.83714">
        <ele>219.8</ele>
        <time>2023-05-27T08:27:53Z</time>
      </trkpt>
      <trkpt lat="43.35104" lon="1.83717">
        <ele>220</ele>
        <time>2023-05-27T08:27:54Z</time>
      </trkpt>
      <trkpt lat="43.35105" lon="1.8372">
        <ele>220</ele>
        <time>2023-05-27T08:27:55Z</time>
      </trkpt>
      <trkpt lat="43.35105" lon="1.83723">
        <ele>220.2</ele>
        <time>2023-05-27T08:27:56Z</time>
      </trkpt>
      <trkpt lat="43.35106" lon="1.83726">
        <ele>220.2</ele>
        <time>2023-05-27T08:27:57Z</time>
      </trkpt>
      <trkpt lat="43.35107" lon="1.83728">
        <ele>220.4</ele>
        <time>2023-05-27T08:27:58Z</time>
      </trkpt>
      <trkpt lat="43.35107" lon="1.83731">
        <ele>220.4</ele>
        <time>2023-05-27T08:27:59Z</time>
      </trkpt>
      <trkpt lat="43.35108" lon="1.83733">
        <ele>220.6</ele>
        <time>2023-05-27T08:28:00Z</time>
      </trkpt>
      <trkpt lat="43.35109" lon="1.83735">
        <ele>220.6</ele>
        <time>2023-05-27T08:28:01Z</time>
      </trkpt>
      <trkpt lat="43.3511" lon="1.83736">
        <ele>220.8</ele>
        <time>2023-05-27T08:28:02Z</time>
      </trkpt>
      <trkpt lat="43.35112" lon="1.83737">
        <ele>220.8</ele>
        <time>2023-05-27T08:28:03Z</time>
      </trkpt>
      <trkpt lat="43.35112" lon="1.83738">
        <ele>221</ele>
        <time>2023-05-27T08:28:04Z</time>
      </trkpt>
      <trkpt lat="43.35113" lon="1.83738">
        <ele>221</ele>
        <time>2023-05-27T08:28:05Z</time>
      </trkpt>
      <trkpt lat="43.35114" lon="1.83738">
        <ele>221</ele>
        <time>2023-05-27T08:28:06Z</time>
      </trkpt>
      <trkpt lat="43.35114" lon="1.83738">
        <ele>221</ele>
        <time>2023-05-27T08:28:07Z</time>
      </trkpt>
      <trkpt lat="43.35114" lon="1.83738">
        <ele>221</ele>
        <time>2023-05-27T08:28:08Z</time>
      </trkpt>
      <trkpt lat="43.35115" lon="1.83739">
        <ele>221</ele>
        <time>2023-05-27T08:28:09Z</time>
      </trkpt>
      <trkpt lat="43.35115" lon="1.83739">
        <ele>221</ele>
        <time>2023-05-27T08:28:10Z</time>
      </trkpt>
      <trkpt lat="43.35116" lon="1.8374">
        <ele>221</ele>
        <time>2023-05-27T08:28:11Z</time>
      </trkpt>
      <trkpt lat="43.35116" lon="1.83741">
        <ele>221</ele>
        <time>2023-05-27T08:28:12Z</time>
      </trkpt>
      <trkpt lat="43.35117" lon="1.83741">
        <ele>221</ele>
        <time>2023-05-27T08:28:13Z</time>
      </trkpt>
      <trkpt lat="43.35116" lon="1.83741">
        <ele>221</ele>
        <time>2023-05-27T08:28:14Z</time>
      </trkpt>
      <trkpt lat="43.35116" lon="1.83742">
        <ele>221</ele>
        <time>2023-05-27T08:28:15Z</time>
      </trkpt>
      <trkpt lat="43.35116" lon="1.83742">
        <ele>220.8</ele>
        <time>2023-05-27T08:28:16Z</time>
      </trkpt>
      <trkpt lat="43.35117" lon="1.83742">
        <ele>220.8</ele>
        <time>2023-05-27T08:28:17Z</time>
      </trkpt>
      <trkpt lat="43.35119" lon="1.83742">
        <ele>220.6</ele>
        <time>2023-05-27T08:28:52Z</time>
      </trkpt>
      <trkpt lat="43.35121" lon="1.83744">
        <ele>220.4</ele>
        <time>2023-05-27T08:28:53Z</time>
      </trkpt>
      <trkpt lat="43.35123" lon="1.83745">
        <ele>220.4</ele>
        <time>2023-05-27T08:28:54Z</time>
      </trkpt>
      <trkpt lat="43.35126" lon="1.83746">
        <ele>220.4</ele>
        <time>2023-05-27T08:28:55Z</time>
      </trkpt>
      <trkpt lat="43.35128" lon="1.83746">
        <ele>220.4</ele>
        <time>2023-05-27T08:28:56Z</time>
      </trkpt>
      <trkpt lat="43.35131" lon="1.83747">
        <ele>220.2</ele>
        <time>2023-05-27T08:28:57Z</time>
      </trkpt>
      <trkpt lat="43.35134" lon="1.83747">
        <ele>220.2</ele>
        <time>2023-05-27T08:28:58Z</time>
      </trkpt>
      <trkpt lat="43.35137" lon="1.83748">
        <ele>220.2</ele>
        <time>2023-05-27T08:28:59Z</time>
      </trkpt>
      <trkpt lat="43.35139" lon="1.83749">
        <ele>220.2</ele>
        <time>2023-05-27T08:29:00Z</time>
      </trkpt>
      <trkpt lat="43.35142" lon="1.83749">
        <ele>220.2</ele>
        <time>2023-05-27T08:29:01Z</time>
      </trkpt>
      <trkpt lat="43.35144" lon="1.83749">
        <ele>220.2</ele>
        <time>2023-05-27T08:29:02Z</time>
      </trkpt>
      <trkpt lat="43.35147" lon="1.83749">
        <ele>220.2</ele>
        <time>2023-05-27T08:29:03Z</time>
      </trkpt>
      <trkpt lat="43.3515" lon="1.8375">
        <ele>220.2</ele>
        <time>2023-05-27T08:29:04Z</time>
      </trkpt>
      <trkpt lat="43.35153" lon="1.83752">
        <ele>220.2</ele>
        <time>2023-05-27T08:29:05Z</time>
      </trkpt>
      <trkpt lat="43.35157" lon="1.83752">
        <ele>220</ele>
        <time>2023-05-27T08:29:06Z</time>
      </trkpt>
      <trkpt lat="43.3516" lon="1.83752">
        <ele>220</ele>
        <time>2023-05-27T08:29:07Z</time>
      </trkpt>
      <trkpt lat="43.35165" lon="1.83753">
        <ele>220</ele>
        <time>2023-05-27T08:29:08Z</time>
      </trkpt>
      <trkpt lat="43.3517" lon="1.83754">
        <ele>220.2</ele>
        <time>2023-05-27T08:29:09Z</time>
      </trkpt>
      <trkpt lat="43.35175" lon="1.83755">
        <ele>220.2</ele>
        <time>2023-05-27T08:29:10Z</time>
      </trkpt>
      <trkpt lat="43.35181" lon="1.83756">
        <ele>220.2</ele>
        <time>2023-05-27T08:29:11Z</time>
      </trkpt>
      <trkpt lat="43.35186" lon="1.83757">
        <ele>220.2</ele>
        <time>2023-05-27T08:29:12Z</time>
      </trkpt>
      <trkpt lat="43.3519" lon="1.83758">
        <ele>220.2</ele>
        <time>2023-05-27T08:29:13Z</time>
      </trkpt>
      <trkpt lat="43.35194" lon="1.83758">
        <ele>220.2</ele>
        <time>2023-05-27T08:29:14Z</time>
      </trkpt>
      <trkpt lat="43.35198" lon="1.83758">
        <ele>220.2</ele>
        <time>2023-05-27T08:29:15Z</time>
      </trkpt>
      <trkpt lat="43.35202" lon="1.8376">
        <ele>220</ele>
        <time>2023-05-27T08:29:16Z</time>
      </trkpt>
      <trkpt lat="43.35206" lon="1.83761">
        <ele>220.2</ele>
        <time>2023-05-27T08:29:17Z</time>
      </trkpt>
      <trkpt lat="43.3521" lon="1.83761">
        <ele>220.2</ele>
        <time>2023-05-27T08:29:18Z</time>
      </trkpt>
      <trkpt lat="43.35215" lon="1.8376">
        <ele>220.2</ele>
        <time>2023-05-27T08:29:19Z</time>
      </trkpt>
      <trkpt lat="43.35221" lon="1.83761">
        <ele>220.2</ele>
        <time>2023-05-27T08:29:20Z</time>
      </trkpt>
      <trkpt lat="43.35225" lon="1.8376">
        <ele>220.2</ele>
        <time>2023-05-27T08:29:21Z</time>
      </trkpt>
      <trkpt lat="43.35229" lon="1.83758">
        <ele>220.2</ele>
        <time>2023-05-27T08:29:22Z</time>
      </trkpt>
      <trkpt lat="43.35232" lon="1.83757">
        <ele>220.2</ele>
        <time>2023-05-27T08:29:23Z</time>
      </trkpt>
      <trkpt lat="43.35236" lon="1.83755">
        <ele>220.2</ele>
        <time>2023-05-27T08:29:24Z</time>
      </trkpt>
      <trkpt lat="43.35238" lon="1.83754">
        <ele>220.2</ele>
        <time>2023-05-27T08:29:25Z</time>
      </trkpt>
      <trkpt lat="43.35242" lon="1.83751">
        <ele>220.2</ele>
        <time>2023-05-27T08:29:26Z</time>
      </trkpt>
      <trkpt lat="43.35246" lon="1.83747">
        <ele>220.2</ele>
        <time>2023-05-27T08:29:27Z</time>
      </trkpt>
      <trkpt lat="43.35251" lon="1.83743">
        <ele>220.2</ele>
        <time>2023-05-27T08:29:28Z</time>
      </trkpt>
      <trkpt lat="43.35255" lon="1.83739">
        <ele>220.2</ele>
        <time>2023-05-27T08:29:29Z</time>
      </trkpt>
      <trkpt lat="43.35258" lon="1.83735">
        <ele>220.2</ele>
        <time>2023-05-27T08:29:30Z</time>
      </trkpt>
      <trkpt lat="43.35261" lon="1.83732">
        <ele>220.2</ele>
        <time>2023-05-27T08:29:31Z</time>
      </trkpt>
      <trkpt lat="43.35263" lon="1.83728">
        <ele>220.2</ele>
        <time>2023-05-27T08:29:32Z</time>
      </trkpt>
      <trkpt lat="43.35266" lon="1.83725">
        <ele>220.2</ele>
        <time>2023-05-27T08:29:33Z</time>
      </trkpt>
      <trkpt lat="43.35269" lon="1.83721">
        <ele>220.2</ele>
        <time>2023-05-27T08:29:34Z</time>
      </trkpt>
      <trkpt lat="43.35272" lon="1.83718">
        <ele>220.2</ele>
        <time>2023-05-27T08:29:35Z</time>
      </trkpt>
      <trkpt lat="43.35275" lon="1.83714">
        <ele>220.2</ele>
        <time>2023-05-27T08:29:36Z</time>
      </trkpt>
      <trkpt lat="43.35277" lon="1.83711">
        <ele>220.2</ele>
        <time>2023-05-27T08:29:37Z</time>
      </trkpt>
      <trkpt lat="43.3528" lon="1.83708">
        <ele>220.4</ele>
        <time>2023-05-27T08:29:38Z</time>
      </trkpt>
      <trkpt lat="43.35282" lon="1.83705">
        <ele>220.4</ele>
        <time>2023-05-27T08:29:39Z</time>
      </trkpt>
      <trkpt lat="43.35286" lon="1.83702">
        <ele>220.4</ele>
        <time>2023-05-27T08:29:40Z</time>
      </trkpt>
      <trkpt lat="43.35289" lon="1.83699">
        <ele>220.4</ele>
        <time>2023-05-27T08:29:41Z</time>
      </trkpt>
      <trkpt lat="43.35292" lon="1.83695">
        <ele>220.4</ele>
        <time>2023-05-27T08:29:42Z</time>
      </trkpt>
      <trkpt lat="43.35295" lon="1.83692">
        <ele>220.4</ele>
        <time>2023-05-27T08:29:43Z</time>
      </trkpt>
      <trkpt lat="43.35297" lon="1.8369">
        <ele>220.4</ele>
        <time>2023-05-27T08:29:44Z</time>
      </trkpt>
      <trkpt lat="43.353" lon="1.83688">
        <ele>220.4</ele>
        <time>2023-05-27T08:29:45Z</time>
      </trkpt>
      <trkpt lat="43.35303" lon="1.83686">
        <ele>220.4</ele>
        <time>2023-05-27T08:29:46Z</time>
      </trkpt>
      <trkpt lat="43.35307" lon="1.83684">
        <ele>220.4</ele>
        <time>2023-05-27T08:29:47Z</time>
      </trkpt>
      <trkpt lat="43.35311" lon="1.83683">
        <ele>220.4</ele>
        <time>2023-05-27T08:29:48Z</time>
      </trkpt>
      <trkpt lat="43.35314" lon="1.83682">
        <ele>220.4</ele>
        <time>2023-05-27T08:29:49Z</time>
      </trkpt>
      <trkpt lat="43.35317" lon="1.83681">
        <ele>220.4</ele>
        <time>2023-05-27T08:29:50Z</time>
      </trkpt>
      <trkpt lat="43.3532" lon="1.83679">
        <ele>220.4</ele>
        <time>2023-05-27T08:29:51Z</time>
      </trkpt>
      <trkpt lat="43.35323" lon="1.83678">
        <ele>220.4</ele>
        <time>2023-05-27T08:29:52Z</time>
      </trkpt>
      <trkpt lat="43.35327" lon="1.83677">
        <ele>220.4</ele>
        <time>2023-05-27T08:29:53Z</time>
      </trkpt>
      <trkpt lat="43.35331" lon="1.83677">
        <ele>220.4</ele>
        <time>2023-05-27T08:29:54Z</time>
      </trkpt>
      <trkpt lat="43.35335" lon="1.83676">
        <ele>220.4</ele>
        <time>2023-05-27T08:29:55Z</time>
      </trkpt>
      <trkpt lat="43.3534" lon="1.83675">
        <ele>220.4</ele>
        <time>2023-05-27T08:29:56Z</time>
      </trkpt>
      <trkpt lat="43.35344" lon="1.83674">
        <ele>220.4</ele>
        <time>2023-05-27T08:29:57Z</time>
      </trkpt>
      <trkpt lat="43.35348" lon="1.83673">
        <ele>220.4</ele>
        <time>2023-05-27T08:29:58Z</time>
      </trkpt>
      <trkpt lat="43.35352" lon="1.83673">
        <ele>220.4</ele>
        <time>2023-05-27T08:29:59Z</time>
      </trkpt>
      <trkpt lat="43.35356" lon="1.83671">
        <ele>220.4</ele>
        <time>2023-05-27T08:30:00Z</time>
      </trkpt>
      <trkpt lat="43.3536" lon="1.8367">
        <ele>220.4</ele>
        <time>2023-05-27T08:30:01Z</time>
      </trkpt>
      <trkpt lat="43.35364" lon="1.8367">
        <ele>220.4</ele>
        <time>2023-05-27T08:30:02Z</time>
      </trkpt>
      <trkpt lat="43.35368" lon="1.83669">
        <ele>220.4</ele>
        <time>2023-05-27T08:30:03Z</time>
      </trkpt>
      <trkpt lat="43.35372" lon="1.83668">
        <ele>220.4</ele>
        <time>2023-05-27T08:30:04Z</time>
      </trkpt>
      <trkpt lat="43.35375" lon="1.83667">
        <ele>220.4</ele>
        <time>2023-05-27T08:30:05Z</time>
      </trkpt>
      <trkpt lat="43.35378" lon="1.83666">
        <ele>220.4</ele>
        <time>2023-05-27T08:30:06Z</time>
      </trkpt>
      <trkpt lat="43.35381" lon="1.83666">
        <ele>220.4</ele>
        <time>2023-05-27T08:30:07Z</time>
      </trkpt>
      <trkpt lat="43.35384" lon="1.83665">
        <ele>220.4</ele>
        <time>2023-05-27T08:30:08Z</time>
      </trkpt>
      <trkpt lat="43.35388" lon="1.83664">
        <ele>220.6</ele>
        <time>2023-05-27T08:30:09Z</time>
      </trkpt>
      <trkpt lat="43.35392" lon="1.83663">
        <ele>220.6</ele>
        <time>2023-05-27T08:30:10Z</time>
      </trkpt>
      <trkpt lat="43.35395" lon="1.83662">
        <ele>220.6</ele>
        <time>2023-05-27T08:30:11Z</time>
      </trkpt>
      <trkpt lat="43.35399" lon="1.83661">
        <ele>220.6</ele>
        <time>2023-05-27T08:30:12Z</time>
      </trkpt>
      <trkpt lat="43.35404" lon="1.83661">
        <ele>220.4</ele>
        <time>2023-05-27T08:30:13Z</time>
      </trkpt>
      <trkpt lat="43.35408" lon="1.8366">
        <ele>220.4</ele>
        <time>2023-05-27T08:30:14Z</time>
      </trkpt>
      <trkpt lat="43.35412" lon="1.83659">
        <ele>220.4</ele>
        <time>2023-05-27T08:30:15Z</time>
      </trkpt>
      <trkpt lat="43.35415" lon="1.83659">
        <ele>220.4</ele>
        <time>2023-05-27T08:30:16Z</time>
      </trkpt>
      <trkpt lat="43.3542" lon="1.8366">
        <ele>220.4</ele>
        <time>2023-05-27T08:30:17Z</time>
      </trkpt>
      <trkpt lat="43.35423" lon="1.83659">
        <ele>220.6</ele>
        <time>2023-05-27T08:30:18Z</time>
      </trkpt>
      <trkpt lat="43.35426" lon="1.83659">
        <ele>220.6</ele>
        <time>2023-05-27T08:30:19Z</time>
      </trkpt>
      <trkpt lat="43.3543" lon="1.83659">
        <ele>220.6</ele>
        <time>2023-05-27T08:30:20Z</time>
      </trkpt>
      <trkpt lat="43.35433" lon="1.8366">
        <ele>220.6</ele>
        <time>2023-05-27T08:30:21Z</time>
      </trkpt>
      <trkpt lat="43.35437" lon="1.8366">
        <ele>220.6</ele>
        <time>2023-05-27T08:30:22Z</time>
      </trkpt>
      <trkpt lat="43.35442" lon="1.83662">
        <ele>220.6</ele>
        <time>2023-05-27T08:30:23Z</time>
      </trkpt>
      <trkpt lat="43.35446" lon="1.83664">
        <ele>220.6</ele>
        <time>2023-05-27T08:30:24Z</time>
      </trkpt>
      <trkpt lat="43.3545" lon="1.83666">
        <ele>220.6</ele>
        <time>2023-05-27T08:30:25Z</time>
      </trkpt>
      <trkpt lat="43.35453" lon="1.8367">
        <ele>220.4</ele>
        <time>2023-05-27T08:30:26Z</time>
      </trkpt>
      <trkpt lat="43.35455" lon="1.83674">
        <ele>220.6</ele>
        <time>2023-05-27T08:30:27Z</time>
      </trkpt>
      <trkpt lat="43.35457" lon="1.83679">
        <ele>220.6</ele>
        <time>2023-05-27T08:30:28Z</time>
      </trkpt>
      <trkpt lat="43.35459" lon="1.83684">
        <ele>220.6</ele>
        <time>2023-05-27T08:30:29Z</time>
      </trkpt>
      <trkpt lat="43.35463" lon="1.83688">
        <ele>220.6</ele>
        <time>2023-05-27T08:30:30Z</time>
      </trkpt>
      <trkpt lat="43.35466" lon="1.83693">
        <ele>220.6</ele>
        <time>2023-05-27T08:30:31Z</time>
      </trkpt>
      <trkpt lat="43.35467" lon="1.83698">
        <ele>220.6</ele>
        <time>2023-05-27T08:30:32Z</time>
      </trkpt>
      <trkpt lat="43.35468" lon="1.83703">
        <ele>220.6</ele>
        <time>2023-05-27T08:30:33Z</time>
      </trkpt>
      <trkpt lat="43.35468" lon="1.83708">
        <ele>220.6</ele>
        <time>2023-05-27T08:30:34Z</time>
      </trkpt>
      <trkpt lat="43.35467" lon="1.83713">
        <ele>220.6</ele>
        <time>2023-05-27T08:30:35Z</time>
      </trkpt>
      <trkpt lat="43.35465" lon="1.83717">
        <ele>220.6</ele>
        <time>2023-05-27T08:30:36Z</time>
      </trkpt>
      <trkpt lat="43.35463" lon="1.83721">
        <ele>220.6</ele>
        <time>2023-05-27T08:30:37Z</time>
      </trkpt>
      <trkpt lat="43.35461" lon="1.83726">
        <ele>220.6</ele>
        <time>2023-05-27T08:30:38Z</time>
      </trkpt>
      <trkpt lat="43.35458" lon="1.83732">
        <ele>220.6</ele>
        <time>2023-05-27T08:30:39Z</time>
      </trkpt>
      <trkpt lat="43.35455" lon="1.83738">
        <ele>220.6</ele>
        <time>2023-05-27T08:30:40Z</time>
      </trkpt>
      <trkpt lat="43.35452" lon="1.83744">
        <ele>220.6</ele>
        <time>2023-05-27T08:30:41Z</time>
      </trkpt>
      <trkpt lat="43.3545" lon="1.83748">
        <ele>220.6</ele>
        <time>2023-05-27T08:30:42Z</time>
      </trkpt>
      <trkpt lat="43.3545" lon="1.83751">
        <ele>220.6</ele>
        <time>2023-05-27T08:30:43Z</time>
      </trkpt>
      <trkpt lat="43.3545" lon="1.83754">
        <ele>220.6</ele>
        <time>2023-05-27T08:30:44Z</time>
      </trkpt>
      <trkpt lat="43.35448" lon="1.83758">
        <ele>220.6</ele>
        <time>2023-05-27T08:30:45Z</time>
      </trkpt>
      <trkpt lat="43.35447" lon="1.83762">
        <ele>220.6</ele>
        <time>2023-05-27T08:30:46Z</time>
      </trkpt>
      <trkpt lat="43.35447" lon="1.83765">
        <ele>220.6</ele>
        <time>2023-05-27T08:30:47Z</time>
      </trkpt>
      <trkpt lat="43.35447" lon="1.83769">
        <ele>220.6</ele>
        <time>2023-05-27T08:30:48Z</time>
      </trkpt>
      <trkpt lat="43.35447" lon="1.83773">
        <ele>220.6</ele>
        <time>2023-05-27T08:30:49Z</time>
      </trkpt>
      <trkpt lat="43.35446" lon="1.83776">
        <ele>220.6</ele>
        <time>2023-05-27T08:30:50Z</time>
      </trkpt>
      <trkpt lat="43.35446" lon="1.83781">
        <ele>220.6</ele>
        <time>2023-05-27T08:30:51Z</time>
      </trkpt>
      <trkpt lat="43.35446" lon="1.83786">
        <ele>220.6</ele>
        <time>2023-05-27T08:30:52Z</time>
      </trkpt>
      <trkpt lat="43.35446" lon="1.83792">
        <ele>220.8</ele>
        <time>2023-05-27T08:30:53Z</time>
      </trkpt>
      <trkpt lat="43.35445" lon="1.838">
        <ele>220.8</ele>
        <time>2023-05-27T08:30:54Z</time>
      </trkpt>
      <trkpt lat="43.35443" lon="1.83806">
        <ele>220.8</ele>
        <time>2023-05-27T08:30:55Z</time>
      </trkpt>
      <trkpt lat="43.35443" lon="1.83811">
        <ele>220.8</ele>
        <time>2023-05-27T08:30:56Z</time>
      </trkpt>
      <trkpt lat="43.35443" lon="1.83817">
        <ele>220.8</ele>
        <time>2023-05-27T08:30:57Z</time>
      </trkpt>
      <trkpt lat="43.35443" lon="1.83823">
        <ele>220.8</ele>
        <time>2023-05-27T08:30:58Z</time>
      </trkpt>
      <trkpt lat="43.35443" lon="1.83828">
        <ele>220.8</ele>
        <time>2023-05-27T08:30:59Z</time>
      </trkpt>
      <trkpt lat="43.35444" lon="1.83833">
        <ele>220.8</ele>
        <time>2023-05-27T08:31:00Z</time>
      </trkpt>
      <trkpt lat="43.35445" lon="1.83837">
        <ele>220.8</ele>
        <time>2023-05-27T08:31:01Z</time>
      </trkpt>
      <trkpt lat="43.35446" lon="1.83842">
        <ele>220.8</ele>
        <time>2023-05-27T08:31:02Z</time>
      </trkpt>
      <trkpt lat="43.35445" lon="1.83849">
        <ele>220.8</ele>
        <time>2023-05-27T08:31:03Z</time>
      </trkpt>
      <trkpt lat="43.35443" lon="1.83856">
        <ele>220.8</ele>
        <time>2023-05-27T08:31:04Z</time>
      </trkpt>
      <trkpt lat="43.35442" lon="1.83861">
        <ele>220.8</ele>
        <time>2023-05-27T08:31:05Z</time>
      </trkpt>
      <trkpt lat="43.35443" lon="1.83867">
        <ele>220.8</ele>
        <time>2023-05-27T08:31:06Z</time>
      </trkpt>
      <trkpt lat="43.35445" lon="1.83872">
        <ele>220.8</ele>
        <time>2023-05-27T08:31:07Z</time>
      </trkpt>
      <trkpt lat="43.35446" lon="1.83877">
        <ele>220.8</ele>
        <time>2023-05-27T08:31:08Z</time>
      </trkpt>
      <trkpt lat="43.35447" lon="1.83882">
        <ele>220.8</ele>
        <time>2023-05-27T08:31:09Z</time>
      </trkpt>
      <trkpt lat="43.35448" lon="1.83886">
        <ele>220.8</ele>
        <time>2023-05-27T08:31:10Z</time>
      </trkpt>
      <trkpt lat="43.35449" lon="1.83892">
        <ele>220.8</ele>
        <time>2023-05-27T08:31:11Z</time>
      </trkpt>
      <trkpt lat="43.3545" lon="1.83897">
        <ele>220.8</ele>
        <time>2023-05-27T08:31:12Z</time>
      </trkpt>
      <trkpt lat="43.35451" lon="1.83903">
        <ele>220.8</ele>
        <time>2023-05-27T08:31:13Z</time>
      </trkpt>
      <trkpt lat="43.35452" lon="1.83907">
        <ele>220.8</ele>
        <time>2023-05-27T08:31:14Z</time>
      </trkpt>
      <trkpt lat="43.35454" lon="1.83912">
        <ele>220.8</ele>
        <time>2023-05-27T08:31:15Z</time>
      </trkpt>
      <trkpt lat="43.35455" lon="1.83916">
        <ele>220.8</ele>
        <time>2023-05-27T08:31:16Z</time>
      </trkpt>
      <trkpt lat="43.35457" lon="1.83921">
        <ele>220.8</ele>
        <time>2023-05-27T08:31:17Z</time>
      </trkpt>
      <trkpt lat="43.35458" lon="1.83925">
        <ele>220.8</ele>
        <time>2023-05-27T08:31:18Z</time>
      </trkpt>
      <trkpt lat="43.3546" lon="1.8393">
        <ele>220.8</ele>
        <time>2023-05-27T08:31:19Z</time>
      </trkpt>
      <trkpt lat="43.35461" lon="1.83936">
        <ele>220.8</ele>
        <time>2023-05-27T08:31:20Z</time>
      </trkpt>
      <trkpt lat="43.35462" lon="1.83941">
        <ele>220.8</ele>
        <time>2023-05-27T08:31:21Z</time>
      </trkpt>
      <trkpt lat="43.35463" lon="1.83946">
        <ele>220.8</ele>
        <time>2023-05-27T08:31:22Z</time>
      </trkpt>
      <trkpt lat="43.35464" lon="1.83951">
        <ele>221</ele>
        <time>2023-05-27T08:31:23Z</time>
      </trkpt>
      <trkpt lat="43.35464" lon="1.83956">
        <ele>221</ele>
        <time>2023-05-27T08:31:24Z</time>
      </trkpt>
      <trkpt lat="43.35465" lon="1.83961">
        <ele>221</ele>
        <time>2023-05-27T08:31:25Z</time>
      </trkpt>
      <trkpt lat="43.35467" lon="1.83965">
        <ele>221</ele>
        <time>2023-05-27T08:31:26Z</time>
      </trkpt>
      <trkpt lat="43.35469" lon="1.8397">
        <ele>221</ele>
        <time>2023-05-27T08:31:27Z</time>
      </trkpt>
      <trkpt lat="43.3547" lon="1.83975">
        <ele>221</ele>
        <time>2023-05-27T08:31:28Z</time>
      </trkpt>
      <trkpt lat="43.35471" lon="1.83979">
        <ele>221</ele>
        <time>2023-05-27T08:31:29Z</time>
      </trkpt>
      <trkpt lat="43.35472" lon="1.83983">
        <ele>221</ele>
        <time>2023-05-27T08:31:30Z</time>
      </trkpt>
      <trkpt lat="43.35473" lon="1.83988">
        <ele>221</ele>
        <time>2023-05-27T08:31:31Z</time>
      </trkpt>
      <trkpt lat="43.35475" lon="1.83992">
        <ele>221</ele>
        <time>2023-05-27T08:31:32Z</time>
      </trkpt>
      <trkpt lat="43.35477" lon="1.83997">
        <ele>221</ele>
        <time>2023-05-27T08:31:33Z</time>
      </trkpt>
      <trkpt lat="43.35478" lon="1.84001">
        <ele>221</ele>
        <time>2023-05-27T08:31:34Z</time>
      </trkpt>
      <trkpt lat="43.35479" lon="1.84006">
        <ele>221</ele>
        <time>2023-05-27T08:31:35Z</time>
      </trkpt>
      <trkpt lat="43.35481" lon="1.8401">
        <ele>221</ele>
        <time>2023-05-27T08:31:36Z</time>
      </trkpt>
      <trkpt lat="43.35483" lon="1.84015">
        <ele>221</ele>
        <time>2023-05-27T08:31:37Z</time>
      </trkpt>
      <trkpt lat="43.35485" lon="1.8402">
        <ele>221</ele>
        <time>2023-05-27T08:31:38Z</time>
      </trkpt>
      <trkpt lat="43.35487" lon="1.84026">
        <ele>221</ele>
        <time>2023-05-27T08:31:39Z</time>
      </trkpt>
      <trkpt lat="43.35489" lon="1.8403">
        <ele>221</ele>
        <time>2023-05-27T08:31:40Z</time>
      </trkpt>
      <trkpt lat="43.35491" lon="1.84035">
        <ele>221</ele>
        <time>2023-05-27T08:31:41Z</time>
      </trkpt>
      <trkpt lat="43.35493" lon="1.8404">
        <ele>221</ele>
        <time>2023-05-27T08:31:42Z</time>
      </trkpt>
      <trkpt lat="43.35495" lon="1.84045">
        <ele>221</ele>
        <time>2023-05-27T08:31:43Z</time>
      </trkpt>
      <trkpt lat="43.35497" lon="1.8405">
        <ele>221.2</ele>
        <time>2023-05-27T08:31:44Z</time>
      </trkpt>
      <trkpt lat="43.35499" lon="1.84054">
        <ele>221.2</ele>
        <time>2023-05-27T08:31:45Z</time>
      </trkpt>
      <trkpt lat="43.35501" lon="1.84057">
        <ele>221.2</ele>
        <time>2023-05-27T08:31:46Z</time>
      </trkpt>
      <trkpt lat="43.35504" lon="1.84061">
        <ele>221.2</ele>
        <time>2023-05-27T08:31:47Z</time>
      </trkpt>
      <trkpt lat="43.35507" lon="1.84065">
        <ele>221.2</ele>
        <time>2023-05-27T08:31:48Z</time>
      </trkpt>
      <trkpt lat="43.3551" lon="1.84069">
        <ele>221.2</ele>
        <time>2023-05-27T08:31:49Z</time>
      </trkpt>
      <trkpt lat="43.35512" lon="1.84071">
        <ele>221.2</ele>
        <time>2023-05-27T08:31:50Z</time>
      </trkpt>
      <trkpt lat="43.35514" lon="1.84074">
        <ele>221.2</ele>
        <time>2023-05-27T08:31:51Z</time>
      </trkpt>
      <trkpt lat="43.35517" lon="1.84077">
        <ele>221.2</ele>
        <time>2023-05-27T08:31:52Z</time>
      </trkpt>
      <trkpt lat="43.3552" lon="1.84081">
        <ele>221.2</ele>
        <time>2023-05-27T08:31:53Z</time>
      </trkpt>
      <trkpt lat="43.35523" lon="1.84083">
        <ele>221.2</ele>
        <time>2023-05-27T08:31:54Z</time>
      </trkpt>
      <trkpt lat="43.35526" lon="1.84085">
        <ele>221.2</ele>
        <time>2023-05-27T08:31:55Z</time>
      </trkpt>
      <trkpt lat="43.35529" lon="1.84087">
        <ele>221.2</ele>
        <time>2023-05-27T08:31:56Z</time>
      </trkpt>
      <trkpt lat="43.35531" lon="1.84088">
        <ele>221.4</ele>
        <time>2023-05-27T08:31:57Z</time>
      </trkpt>
      <trkpt lat="43.35534" lon="1.84089">
        <ele>221.4</ele>
        <time>2023-05-27T08:31:58Z</time>
      </trkpt>
      <trkpt lat="43.35536" lon="1.8409">
        <ele>221.4</ele>
        <time>2023-05-27T08:31:59Z</time>
      </trkpt>
      <trkpt lat="43.35539" lon="1.84091">
        <ele>221.4</ele>
        <time>2023-05-27T08:32:00Z</time>
      </trkpt>
      <trkpt lat="43.35542" lon="1.84092">
        <ele>221.4</ele>
        <time>2023-05-27T08:32:01Z</time>
      </trkpt>
      <trkpt lat="43.35544" lon="1.84093">
        <ele>221.4</ele>
        <time>2023-05-27T08:32:02Z</time>
      </trkpt>
      <trkpt lat="43.35547" lon="1.84094">
        <ele>221.4</ele>
        <time>2023-05-27T08:32:03Z</time>
      </trkpt>
      <trkpt lat="43.3555" lon="1.84097">
        <ele>221.4</ele>
        <time>2023-05-27T08:32:04Z</time>
      </trkpt>
      <trkpt lat="43.35553" lon="1.84099">
        <ele>221.4</ele>
        <time>2023-05-27T08:32:05Z</time>
      </trkpt>
      <trkpt lat="43.35557" lon="1.84101">
        <ele>221.4</ele>
        <time>2023-05-27T08:32:06Z</time>
      </trkpt>
      <trkpt lat="43.3556" lon="1.84103">
        <ele>221.4</ele>
        <time>2023-05-27T08:32:07Z</time>
      </trkpt>
      <trkpt lat="43.35562" lon="1.84105">
        <ele>221.4</ele>
        <time>2023-05-27T08:32:08Z</time>
      </trkpt>
      <trkpt lat="43.35565" lon="1.84106">
        <ele>221.6</ele>
        <time>2023-05-27T08:32:09Z</time>
      </trkpt>
      <trkpt lat="43.35567" lon="1.84108">
        <ele>221.6</ele>
        <time>2023-05-27T08:32:10Z</time>
      </trkpt>
      <trkpt lat="43.3557" lon="1.8411">
        <ele>221.6</ele>
        <time>2023-05-27T08:32:11Z</time>
      </trkpt>
      <trkpt lat="43.35573" lon="1.84112">
        <ele>221.6</ele>
        <time>2023-05-27T08:32:12Z</time>
      </trkpt>
      <trkpt lat="43.35576" lon="1.84114">
        <ele>221.6</ele>
        <time>2023-05-27T08:32:13Z</time>
      </trkpt>
      <trkpt lat="43.35578" lon="1.84116">
        <ele>221.8</ele>
        <time>2023-05-27T08:32:14Z</time>
      </trkpt>
      <trkpt lat="43.35581" lon="1.84118">
        <ele>221.8</ele>
        <time>2023-05-27T08:32:15Z</time>
      </trkpt>
      <trkpt lat="43.35584" lon="1.84121">
        <ele>221.8</ele>
        <time>2023-05-27T08:32:16Z</time>
      </trkpt>
      <trkpt lat="43.35587" lon="1.84124">
        <ele>221.8</ele>
        <time>2023-05-27T08:32:17Z</time>
      </trkpt>
      <trkpt lat="43.3559" lon="1.84127">
        <ele>221.8</ele>
        <time>2023-05-27T08:32:18Z</time>
      </trkpt>
      <trkpt lat="43.35594" lon="1.84131">
        <ele>221.8</ele>
        <time>2023-05-27T08:32:19Z</time>
      </trkpt>
      <trkpt lat="43.35597" lon="1.84135">
        <ele>221.8</ele>
        <time>2023-05-27T08:32:20Z</time>
      </trkpt>
      <trkpt lat="43.356" lon="1.84139">
        <ele>221.8</ele>
        <time>2023-05-27T08:32:21Z</time>
      </trkpt>
      <trkpt lat="43.35604" lon="1.84143">
        <ele>221.8</ele>
        <time>2023-05-27T08:32:22Z</time>
      </trkpt>
      <trkpt lat="43.35609" lon="1.84148">
        <ele>221.8</ele>
        <time>2023-05-27T08:32:23Z</time>
      </trkpt>
      <trkpt lat="43.35611" lon="1.84154">
        <ele>221.6</ele>
        <time>2023-05-27T08:32:24Z</time>
      </trkpt>
      <trkpt lat="43.35613" lon="1.8416">
        <ele>221.6</ele>
        <time>2023-05-27T08:32:25Z</time>
      </trkpt>
      <trkpt lat="43.35615" lon="1.84166">
        <ele>221.4</ele>
        <time>2023-05-27T08:32:26Z</time>
      </trkpt>
      <trkpt lat="43.35616" lon="1.84172">
        <ele>221.4</ele>
        <time>2023-05-27T08:32:27Z</time>
      </trkpt>
      <trkpt lat="43.35617" lon="1.84178">
        <ele>221.4</ele>
        <time>2023-05-27T08:32:28Z</time>
      </trkpt>
      <trkpt lat="43.35618" lon="1.84184">
        <ele>221.2</ele>
        <time>2023-05-27T08:32:29Z</time>
      </trkpt>
      <trkpt lat="43.35619" lon="1.84189">
        <ele>221.2</ele>
        <time>2023-05-27T08:32:30Z</time>
      </trkpt>
      <trkpt lat="43.3562" lon="1.84193">
        <ele>221.2</ele>
        <time>2023-05-27T08:32:31Z</time>
      </trkpt>
      <trkpt lat="43.35621" lon="1.84197">
        <ele>221.2</ele>
        <time>2023-05-27T08:32:32Z</time>
      </trkpt>
      <trkpt lat="43.35622" lon="1.84202">
        <ele>221.2</ele>
        <time>2023-05-27T08:32:33Z</time>
      </trkpt>
      <trkpt lat="43.35623" lon="1.84208">
        <ele>221.2</ele>
        <time>2023-05-27T08:32:34Z</time>
      </trkpt>
      <trkpt lat="43.35624" lon="1.84213">
        <ele>221.2</ele>
        <time>2023-05-27T08:32:35Z</time>
      </trkpt>
      <trkpt lat="43.35624" lon="1.84218">
        <ele>221.2</ele>
        <time>2023-05-27T08:32:36Z</time>
      </trkpt>
      <trkpt lat="43.35625" lon="1.84223">
        <ele>221.2</ele>
        <time>2023-05-27T08:32:37Z</time>
      </trkpt>
      <trkpt lat="43.35626" lon="1.84229">
        <ele>221.2</ele>
        <time>2023-05-27T08:32:38Z</time>
      </trkpt>
      <trkpt lat="43.35625" lon="1.84234">
        <ele>221.2</ele>
        <time>2023-05-27T08:32:39Z</time>
      </trkpt>
      <trkpt lat="43.35625" lon="1.8424">
        <ele>221.4</ele>
        <time>2023-05-27T08:32:40Z</time>
      </trkpt>
      <trkpt lat="43.35625" lon="1.84244">
        <ele>221.4</ele>
        <time>2023-05-27T08:32:41Z</time>
      </trkpt>
      <trkpt lat="43.35626" lon="1.84248">
        <ele>221.4</ele>
        <time>2023-05-27T08:32:42Z</time>
      </trkpt>
      <trkpt lat="43.35626" lon="1.84253">
        <ele>221.4</ele>
        <time>2023-05-27T08:32:43Z</time>
      </trkpt>
      <trkpt lat="43.35627" lon="1.84258">
        <ele>221.4</ele>
        <time>2023-05-27T08:32:44Z</time>
      </trkpt>
      <trkpt lat="43.35627" lon="1.84263">
        <ele>221.4</ele>
        <time>2023-05-27T08:32:45Z</time>
      </trkpt>
      <trkpt lat="43.35628" lon="1.84268">
        <ele>221.4</ele>
        <time>2023-05-27T08:32:46Z</time>
      </trkpt>
      <trkpt lat="43.35628" lon="1.84273">
        <ele>221.4</ele>
        <time>2023-05-27T08:32:47Z</time>
      </trkpt>
      <trkpt lat="43.35629" lon="1.84279">
        <ele>221.4</ele>
        <time>2023-05-27T08:32:48Z</time>
      </trkpt>
      <trkpt lat="43.35629" lon="1.84284">
        <ele>221.4</ele>
        <time>2023-05-27T08:32:49Z</time>
      </trkpt>
      <trkpt lat="43.3563" lon="1.8429">
        <ele>221.4</ele>
        <time>2023-05-27T08:32:50Z</time>
      </trkpt>
      <trkpt lat="43.3563" lon="1.84296">
        <ele>221.4</ele>
        <time>2023-05-27T08:32:51Z</time>
      </trkpt>
      <trkpt lat="43.35631" lon="1.84302">
        <ele>221.4</ele>
        <time>2023-05-27T08:32:52Z</time>
      </trkpt>
      <trkpt lat="43.35632" lon="1.84308">
        <ele>221.4</ele>
        <time>2023-05-27T08:32:53Z</time>
      </trkpt>
      <trkpt lat="43.35635" lon="1.84312">
        <ele>221.6</ele>
        <time>2023-05-27T08:32:54Z</time>
      </trkpt>
      <trkpt lat="43.35638" lon="1.84315">
        <ele>221.6</ele>
        <time>2023-05-27T08:32:55Z</time>
      </trkpt>
      <trkpt lat="43.3564" lon="1.84319">
        <ele>221.6</ele>
        <time>2023-05-27T08:32:56Z</time>
      </trkpt>
      <trkpt lat="43.35642" lon="1.84322">
        <ele>221.6</ele>
        <time>2023-05-27T08:32:57Z</time>
      </trkpt>
      <trkpt lat="43.35644" lon="1.84325">
        <ele>221.6</ele>
        <time>2023-05-27T08:32:58Z</time>
      </trkpt>
      <trkpt lat="43.35646" lon="1.84328">
        <ele>221.6</ele>
        <time>2023-05-27T08:32:59Z</time>
      </trkpt>
      <trkpt lat="43.35649" lon="1.84331">
        <ele>221.6</ele>
        <time>2023-05-27T08:33:00Z</time>
      </trkpt>
      <trkpt lat="43.35653" lon="1.84334">
        <ele>221.6</ele>
        <time>2023-05-27T08:33:01Z</time>
      </trkpt>
      <trkpt lat="43.35656" lon="1.84337">
        <ele>221.6</ele>
        <time>2023-05-27T08:33:02Z</time>
      </trkpt>
      <trkpt lat="43.35658" lon="1.8434">
        <ele>221.6</ele>
        <time>2023-05-27T08:33:03Z</time>
      </trkpt>
      <trkpt lat="43.3566" lon="1.84343">
        <ele>221.8</ele>
        <time>2023-05-27T08:33:04Z</time>
      </trkpt>
      <trkpt lat="43.35663" lon="1.84346">
        <ele>221.8</ele>
        <time>2023-05-27T08:33:05Z</time>
      </trkpt>
      <trkpt lat="43.35665" lon="1.84348">
        <ele>221.8</ele>
        <time>2023-05-27T08:33:06Z</time>
      </trkpt>
      <trkpt lat="43.35667" lon="1.84351">
        <ele>221.8</ele>
        <time>2023-05-27T08:33:07Z</time>
      </trkpt>
      <trkpt lat="43.3567" lon="1.84354">
        <ele>221.8</ele>
        <time>2023-05-27T08:33:08Z</time>
      </trkpt>
      <trkpt lat="43.35672" lon="1.84357">
        <ele>221.8</ele>
        <time>2023-05-27T08:33:09Z</time>
      </trkpt>
      <trkpt lat="43.35675" lon="1.84359">
        <ele>221.8</ele>
        <time>2023-05-27T08:33:10Z</time>
      </trkpt>
      <trkpt lat="43.35678" lon="1.84362">
        <ele>222</ele>
        <time>2023-05-27T08:33:11Z</time>
      </trkpt>
      <trkpt lat="43.35682" lon="1.84366">
        <ele>222</ele>
        <time>2023-05-27T08:33:12Z</time>
      </trkpt>
      <trkpt lat="43.35685" lon="1.8437">
        <ele>222</ele>
        <time>2023-05-27T08:33:13Z</time>
      </trkpt>
      <trkpt lat="43.35689" lon="1.84373">
        <ele>222</ele>
        <time>2023-05-27T08:33:14Z</time>
      </trkpt>
      <trkpt lat="43.35692" lon="1.84376">
        <ele>222.2</ele>
        <time>2023-05-27T08:33:15Z</time>
      </trkpt>
      <trkpt lat="43.35694" lon="1.8438">
        <ele>222.2</ele>
        <time>2023-05-27T08:33:16Z</time>
      </trkpt>
      <trkpt lat="43.35697" lon="1.84383">
        <ele>222</ele>
        <time>2023-05-27T08:33:17Z</time>
      </trkpt>
      <trkpt lat="43.35698" lon="1.84387">
        <ele>222</ele>
        <time>2023-05-27T08:33:18Z</time>
      </trkpt>
      <trkpt lat="43.35699" lon="1.84391">
        <ele>222</ele>
        <time>2023-05-27T08:33:19Z</time>
      </trkpt>
      <trkpt lat="43.357" lon="1.84395">
        <ele>221.8</ele>
        <time>2023-05-27T08:33:20Z</time>
      </trkpt>
      <trkpt lat="43.35702" lon="1.84399">
        <ele>221.8</ele>
        <time>2023-05-27T08:33:21Z</time>
      </trkpt>
      <trkpt lat="43.35705" lon="1.84402">
        <ele>221.6</ele>
        <time>2023-05-27T08:33:22Z</time>
      </trkpt>
      <trkpt lat="43.35707" lon="1.84405">
        <ele>221.6</ele>
        <time>2023-05-27T08:33:23Z</time>
      </trkpt>
      <trkpt lat="43.3571" lon="1.84407">
        <ele>221.6</ele>
        <time>2023-05-27T08:33:24Z</time>
      </trkpt>
      <trkpt lat="43.35713" lon="1.84409">
        <ele>221.8</ele>
        <time>2023-05-27T08:33:25Z</time>
      </trkpt>
      <trkpt lat="43.35716" lon="1.84411">
        <ele>221.8</ele>
        <time>2023-05-27T08:33:26Z</time>
      </trkpt>
      <trkpt lat="43.35718" lon="1.84412">
        <ele>222</ele>
        <time>2023-05-27T08:33:27Z</time>
      </trkpt>
      <trkpt lat="43.3572" lon="1.84414">
        <ele>222.2</ele>
        <time>2023-05-27T08:33:28Z</time>
      </trkpt>
      <trkpt lat="43.35721" lon="1.84415">
        <ele>222.2</ele>
        <time>2023-05-27T08:33:29Z</time>
      </trkpt>
      <trkpt lat="43.35723" lon="1.84417">
        <ele>222.2</ele>
        <time>2023-05-27T08:33:30Z</time>
      </trkpt>
      <trkpt lat="43.35725" lon="1.84419">
        <ele>222.4</ele>
        <time>2023-05-27T08:33:31Z</time>
      </trkpt>
      <trkpt lat="43.35727" lon="1.84421">
        <ele>222.4</ele>
        <time>2023-05-27T08:33:32Z</time>
      </trkpt>
      <trkpt lat="43.35729" lon="1.84422">
        <ele>222.4</ele>
        <time>2023-05-27T08:33:33Z</time>
      </trkpt>
      <trkpt lat="43.35731" lon="1.84424">
        <ele>222.6</ele>
        <time>2023-05-27T08:33:34Z</time>
      </trkpt>
      <trkpt lat="43.35733" lon="1.84426">
        <ele>222.6</ele>
        <time>2023-05-27T08:33:35Z</time>
      </trkpt>
      <trkpt lat="43.35736" lon="1.84429">
        <ele>222.6</ele>
        <time>2023-05-27T08:33:36Z</time>
      </trkpt>
      <trkpt lat="43.35739" lon="1.84431">
        <ele>222.6</ele>
        <time>2023-05-27T08:33:37Z</time>
      </trkpt>
      <trkpt lat="43.35742" lon="1.84433">
        <ele>222.8</ele>
        <time>2023-05-27T08:33:38Z</time>
      </trkpt>
      <trkpt lat="43.35745" lon="1.84435">
        <ele>222.8</ele>
        <time>2023-05-27T08:33:39Z</time>
      </trkpt>
      <trkpt lat="43.35747" lon="1.84436">
        <ele>222.8</ele>
        <time>2023-05-27T08:33:40Z</time>
      </trkpt>
      <trkpt lat="43.35749" lon="1.84439">
        <ele>222.8</ele>
        <time>2023-05-27T08:33:41Z</time>
      </trkpt>
      <trkpt lat="43.35752" lon="1.84441">
        <ele>222.8</ele>
        <time>2023-05-27T08:33:42Z</time>
      </trkpt>
      <trkpt lat="43.35754" lon="1.84443">
        <ele>222.8</ele>
        <time>2023-05-27T08:33:43Z</time>
      </trkpt>
      <trkpt lat="43.35757" lon="1.84445">
        <ele>222.8</ele>
        <time>2023-05-27T08:33:44Z</time>
      </trkpt>
      <trkpt lat="43.35761" lon="1.84447">
        <ele>222.8</ele>
        <time>2023-05-27T08:33:45Z</time>
      </trkpt>
      <trkpt lat="43.35765" lon="1.84449">
        <ele>223</ele>
        <time>2023-05-27T08:33:46Z</time>
      </trkpt>
      <trkpt lat="43.35768" lon="1.84449">
        <ele>223</ele>
        <time>2023-05-27T08:33:47Z</time>
      </trkpt>
      <trkpt lat="43.35772" lon="1.84449">
        <ele>223</ele>
        <time>2023-05-27T08:33:48Z</time>
      </trkpt>
      <trkpt lat="43.35775" lon="1.84449">
        <ele>222.8</ele>
        <time>2023-05-27T08:33:49Z</time>
      </trkpt>
      <trkpt lat="43.35778" lon="1.84447">
        <ele>222.8</ele>
        <time>2023-05-27T08:33:50Z</time>
      </trkpt>
      <trkpt lat="43.35782" lon="1.84445">
        <ele>222.8</ele>
        <time>2023-05-27T08:33:51Z</time>
      </trkpt>
      <trkpt lat="43.35787" lon="1.84443">
        <ele>222.6</ele>
        <time>2023-05-27T08:33:52Z</time>
      </trkpt>
      <trkpt lat="43.35791" lon="1.8444">
        <ele>222.6</ele>
        <time>2023-05-27T08:33:53Z</time>
      </trkpt>
      <trkpt lat="43.35794" lon="1.84436">
        <ele>222.6</ele>
        <time>2023-05-27T08:33:54Z</time>
      </trkpt>
      <trkpt lat="43.35797" lon="1.84433">
        <ele>222.4</ele>
        <time>2023-05-27T08:33:55Z</time>
      </trkpt>
      <trkpt lat="43.358" lon="1.84429">
        <ele>222.4</ele>
        <time>2023-05-27T08:33:56Z</time>
      </trkpt>
      <trkpt lat="43.35803" lon="1.84425">
        <ele>222.2</ele>
        <time>2023-05-27T08:33:57Z</time>
      </trkpt>
      <trkpt lat="43.35806" lon="1.8442">
        <ele>222.2</ele>
        <time>2023-05-27T08:33:58Z</time>
      </trkpt>
      <trkpt lat="43.3581" lon="1.84415">
        <ele>222.2</ele>
        <time>2023-05-27T08:33:59Z</time>
      </trkpt>
      <trkpt lat="43.35814" lon="1.84409">
        <ele>222.2</ele>
        <time>2023-05-27T08:34:00Z</time>
      </trkpt>
      <trkpt lat="43.35817" lon="1.84405">
        <ele>222</ele>
        <time>2023-05-27T08:34:01Z</time>
      </trkpt>
      <trkpt lat="43.35821" lon="1.84399">
        <ele>222</ele>
        <time>2023-05-27T08:34:02Z</time>
      </trkpt>
      <trkpt lat="43.35824" lon="1.84394">
        <ele>222</ele>
        <time>2023-05-27T08:34:03Z</time>
      </trkpt>
      <trkpt lat="43.35827" lon="1.84389">
        <ele>222</ele>
        <time>2023-05-27T08:34:04Z</time>
      </trkpt>
      <trkpt lat="43.35831" lon="1.84383">
        <ele>221.8</ele>
        <time>2023-05-27T08:34:05Z</time>
      </trkpt>
      <trkpt lat="43.35834" lon="1.84378">
        <ele>221.8</ele>
        <time>2023-05-27T08:34:06Z</time>
      </trkpt>
      <trkpt lat="43.35836" lon="1.84372">
        <ele>221.8</ele>
        <time>2023-05-27T08:34:07Z</time>
      </trkpt>
      <trkpt lat="43.35839" lon="1.84368">
        <ele>221.8</ele>
        <time>2023-05-27T08:34:08Z</time>
      </trkpt>
      <trkpt lat="43.35841" lon="1.84363">
        <ele>221.8</ele>
        <time>2023-05-27T08:34:09Z</time>
      </trkpt>
      <trkpt lat="43.35843" lon="1.84359">
        <ele>221.8</ele>
        <time>2023-05-27T08:34:10Z</time>
      </trkpt>
      <trkpt lat="43.35844" lon="1.84354">
        <ele>222</ele>
        <time>2023-05-27T08:34:11Z</time>
      </trkpt>
      <trkpt lat="43.35846" lon="1.84349">
        <ele>222</ele>
        <time>2023-05-27T08:34:12Z</time>
      </trkpt>
      <trkpt lat="43.35847" lon="1.84345">
        <ele>222</ele>
        <time>2023-05-27T08:34:13Z</time>
      </trkpt>
      <trkpt lat="43.35848" lon="1.84341">
        <ele>222</ele>
        <time>2023-05-27T08:34:14Z</time>
      </trkpt>
      <trkpt lat="43.3585" lon="1.84337">
        <ele>222</ele>
        <time>2023-05-27T08:34:15Z</time>
      </trkpt>
      <trkpt lat="43.35851" lon="1.84332">
        <ele>222</ele>
        <time>2023-05-27T08:34:16Z</time>
      </trkpt>
      <trkpt lat="43.35852" lon="1.84328">
        <ele>222</ele>
        <time>2023-05-27T08:34:17Z</time>
      </trkpt>
      <trkpt lat="43.35853" lon="1.84323">
        <ele>222</ele>
        <time>2023-05-27T08:34:18Z</time>
      </trkpt>
      <trkpt lat="43.35854" lon="1.84318">
        <ele>222</ele>
        <time>2023-05-27T08:34:19Z</time>
      </trkpt>
      <trkpt lat="43.35855" lon="1.84313">
        <ele>222</ele>
        <time>2023-05-27T08:34:20Z</time>
      </trkpt>
      <trkpt lat="43.35856" lon="1.84307">
        <ele>222</ele>
        <time>2023-05-27T08:34:21Z</time>
      </trkpt>
      <trkpt lat="43.35856" lon="1.84302">
        <ele>222</ele>
        <time>2023-05-27T08:34:22Z</time>
      </trkpt>
      <trkpt lat="43.35857" lon="1.84297">
        <ele>222</ele>
        <time>2023-05-27T08:34:23Z</time>
      </trkpt>
      <trkpt lat="43.35858" lon="1.84292">
        <ele>222</ele>
        <time>2023-05-27T08:34:24Z</time>
      </trkpt>
      <trkpt lat="43.3586" lon="1.84287">
        <ele>222</ele>
        <time>2023-05-27T08:34:25Z</time>
      </trkpt>
      <trkpt lat="43.35861" lon="1.84282">
        <ele>222</ele>
        <time>2023-05-27T08:34:26Z</time>
      </trkpt>
      <trkpt lat="43.35862" lon="1.84277">
        <ele>221.8</ele>
        <time>2023-05-27T08:34:27Z</time>
      </trkpt>
      <trkpt lat="43.35862" lon="1.84273">
        <ele>221.8</ele>
        <time>2023-05-27T08:34:28Z</time>
      </trkpt>
      <trkpt lat="43.35863" lon="1.84267">
        <ele>221.8</ele>
        <time>2023-05-27T08:34:29Z</time>
      </trkpt>
      <trkpt lat="43.35864" lon="1.84262">
        <ele>221.8</ele>
        <time>2023-05-27T08:34:30Z</time>
      </trkpt>
      <trkpt lat="43.35866" lon="1.84257">
        <ele>221.8</ele>
        <time>2023-05-27T08:34:31Z</time>
      </trkpt>
      <trkpt lat="43.35867" lon="1.84252">
        <ele>221.8</ele>
        <time>2023-05-27T08:34:32Z</time>
      </trkpt>
      <trkpt lat="43.35868" lon="1.84247">
        <ele>221.8</ele>
        <time>2023-05-27T08:34:33Z</time>
      </trkpt>
      <trkpt lat="43.35869" lon="1.84242">
        <ele>221.6</ele>
        <time>2023-05-27T08:34:34Z</time>
      </trkpt>
      <trkpt lat="43.3587" lon="1.84238">
        <ele>221.6</ele>
        <time>2023-05-27T08:34:35Z</time>
      </trkpt>
      <trkpt lat="43.35871" lon="1.84234">
        <ele>221.6</ele>
        <time>2023-05-27T08:34:36Z</time>
      </trkpt>
      <trkpt lat="43.35872" lon="1.8423">
        <ele>221.6</ele>
        <time>2023-05-27T08:34:37Z</time>
      </trkpt>
      <trkpt lat="43.35873" lon="1.84225">
        <ele>221.6</ele>
        <time>2023-05-27T08:34:38Z</time>
      </trkpt>
      <trkpt lat="43.35875" lon="1.84219">
        <ele>221.4</ele>
        <time>2023-05-27T08:34:39Z</time>
      </trkpt>
      <trkpt lat="43.35876" lon="1.84213">
        <ele>221.4</ele>
        <time>2023-05-27T08:34:40Z</time>
      </trkpt>
      <trkpt lat="43.35878" lon="1.84208">
        <ele>221.4</ele>
        <time>2023-05-27T08:34:41Z</time>
      </trkpt>
      <trkpt lat="43.35879" lon="1.84203">
        <ele>221.4</ele>
        <time>2023-05-27T08:34:42Z</time>
      </trkpt>
      <trkpt lat="43.35881" lon="1.84198">
        <ele>221.4</ele>
        <time>2023-05-27T08:34:43Z</time>
      </trkpt>
      <trkpt lat="43.35883" lon="1.84194">
        <ele>221.6</ele>
        <time>2023-05-27T08:34:44Z</time>
      </trkpt>
      <trkpt lat="43.35885" lon="1.8419">
        <ele>221.6</ele>
        <time>2023-05-27T08:34:45Z</time>
      </trkpt>
      <trkpt lat="43.35887" lon="1.84185">
        <ele>221.6</ele>
        <time>2023-05-27T08:34:46Z</time>
      </trkpt>
      <trkpt lat="43.3589" lon="1.84181">
        <ele>221.6</ele>
        <time>2023-05-27T08:34:47Z</time>
      </trkpt>
      <trkpt lat="43.35892" lon="1.84176">
        <ele>221.6</ele>
        <time>2023-05-27T08:34:48Z</time>
      </trkpt>
      <trkpt lat="43.35893" lon="1.84171">
        <ele>221.6</ele>
        <time>2023-05-27T08:34:49Z</time>
      </trkpt>
      <trkpt lat="43.35895" lon="1.84166">
        <ele>221.8</ele>
        <time>2023-05-27T08:34:50Z</time>
      </trkpt>
      <trkpt lat="43.35897" lon="1.84161">
        <ele>221.8</ele>
        <time>2023-05-27T08:34:51Z</time>
      </trkpt>
      <trkpt lat="43.35899" lon="1.84155">
        <ele>221.8</ele>
        <time>2023-05-27T08:34:52Z</time>
      </trkpt>
      <trkpt lat="43.35901" lon="1.8415">
        <ele>221.8</ele>
        <time>2023-05-27T08:34:53Z</time>
      </trkpt>
      <trkpt lat="43.35903" lon="1.84146">
        <ele>221.8</ele>
        <time>2023-05-27T08:34:54Z</time>
      </trkpt>
      <trkpt lat="43.35906" lon="1.84141">
        <ele>221.8</ele>
        <time>2023-05-27T08:34:55Z</time>
      </trkpt>
      <trkpt lat="43.35908" lon="1.84136">
        <ele>221.8</ele>
        <time>2023-05-27T08:34:56Z</time>
      </trkpt>
      <trkpt lat="43.3591" lon="1.84132">
        <ele>221.8</ele>
        <time>2023-05-27T08:34:57Z</time>
      </trkpt>
      <trkpt lat="43.35912" lon="1.84127">
        <ele>221.8</ele>
        <time>2023-05-27T08:34:58Z</time>
      </trkpt>
      <trkpt lat="43.35915" lon="1.84122">
        <ele>221.8</ele>
        <time>2023-05-27T08:34:59Z</time>
      </trkpt>
      <trkpt lat="43.35917" lon="1.84118">
        <ele>221.8</ele>
        <time>2023-05-27T08:35:00Z</time>
      </trkpt>
      <trkpt lat="43.35919" lon="1.84114">
        <ele>222</ele>
        <time>2023-05-27T08:35:01Z</time>
      </trkpt>
      <trkpt lat="43.35921" lon="1.84111">
        <ele>222</ele>
        <time>2023-05-27T08:35:02Z</time>
      </trkpt>
      <trkpt lat="43.35923" lon="1.84106">
        <ele>222</ele>
        <time>2023-05-27T08:35:03Z</time>
      </trkpt>
      <trkpt lat="43.35926" lon="1.84102">
        <ele>222</ele>
        <time>2023-05-27T08:35:04Z</time>
      </trkpt>
      <trkpt lat="43.35929" lon="1.84096">
        <ele>222.2</ele>
        <time>2023-05-27T08:35:05Z</time>
      </trkpt>
      <trkpt lat="43.35933" lon="1.8409">
        <ele>222.2</ele>
        <time>2023-05-27T08:35:06Z</time>
      </trkpt>
      <trkpt lat="43.35935" lon="1.84086">
        <ele>222.2</ele>
        <time>2023-05-27T08:35:07Z</time>
      </trkpt>
      <trkpt lat="43.35938" lon="1.84082">
        <ele>222.2</ele>
        <time>2023-05-27T08:35:08Z</time>
      </trkpt>
      <trkpt lat="43.3594" lon="1.84077">
        <ele>222.2</ele>
        <time>2023-05-27T08:35:09Z</time>
      </trkpt>
      <trkpt lat="43.35943" lon="1.84072">
        <ele>222.2</ele>
        <time>2023-05-27T08:35:10Z</time>
      </trkpt>
      <trkpt lat="43.35946" lon="1.84069">
        <ele>222.2</ele>
        <time>2023-05-27T08:35:11Z</time>
      </trkpt>
      <trkpt lat="43.35948" lon="1.84066">
        <ele>222.2</ele>
        <time>2023-05-27T08:35:12Z</time>
      </trkpt>
      <trkpt lat="43.35951" lon="1.84063">
        <ele>222.2</ele>
        <time>2023-05-27T08:35:13Z</time>
      </trkpt>
      <trkpt lat="43.35953" lon="1.84061">
        <ele>222.2</ele>
        <time>2023-05-27T08:35:14Z</time>
      </trkpt>
      <trkpt lat="43.35956" lon="1.84059">
        <ele>222.2</ele>
        <time>2023-05-27T08:35:15Z</time>
      </trkpt>
      <trkpt lat="43.35959" lon="1.84057">
        <ele>222.2</ele>
        <time>2023-05-27T08:35:16Z</time>
      </trkpt>
      <trkpt lat="43.35962" lon="1.84056">
        <ele>222.2</ele>
        <time>2023-05-27T08:35:17Z</time>
      </trkpt>
      <trkpt lat="43.35965" lon="1.84055">
        <ele>222.2</ele>
        <time>2023-05-27T08:35:18Z</time>
      </trkpt>
      <trkpt lat="43.35969" lon="1.84051">
        <ele>222.2</ele>
        <time>2023-05-27T08:35:19Z</time>
      </trkpt>
      <trkpt lat="43.35972" lon="1.84048">
        <ele>222.2</ele>
        <time>2023-05-27T08:35:20Z</time>
      </trkpt>
      <trkpt lat="43.35975" lon="1.84045">
        <ele>222.2</ele>
        <time>2023-05-27T08:35:21Z</time>
      </trkpt>
      <trkpt lat="43.35978" lon="1.84042">
        <ele>222.2</ele>
        <time>2023-05-27T08:35:22Z</time>
      </trkpt>
      <trkpt lat="43.35981" lon="1.8404">
        <ele>222.2</ele>
        <time>2023-05-27T08:35:23Z</time>
      </trkpt>
      <trkpt lat="43.35985" lon="1.84037">
        <ele>222.2</ele>
        <time>2023-05-27T08:35:24Z</time>
      </trkpt>
      <trkpt lat="43.35988" lon="1.84034">
        <ele>222.2</ele>
        <time>2023-05-27T08:35:25Z</time>
      </trkpt>
      <trkpt lat="43.35992" lon="1.84032">
        <ele>222.2</ele>
        <time>2023-05-27T08:35:26Z</time>
      </trkpt>
      <trkpt lat="43.35994" lon="1.8403">
        <ele>222.2</ele>
        <time>2023-05-27T08:35:27Z</time>
      </trkpt>
      <trkpt lat="43.35997" lon="1.84028">
        <ele>222.4</ele>
        <time>2023-05-27T08:35:28Z</time>
      </trkpt>
      <trkpt lat="43.36" lon="1.84026">
        <ele>222.4</ele>
        <time>2023-05-27T08:35:29Z</time>
      </trkpt>
      <trkpt lat="43.36003" lon="1.84023">
        <ele>222.4</ele>
        <time>2023-05-27T08:35:30Z</time>
      </trkpt>
      <trkpt lat="43.36006" lon="1.8402">
        <ele>222.4</ele>
        <time>2023-05-27T08:35:31Z</time>
      </trkpt>
      <trkpt lat="43.3601" lon="1.84016">
        <ele>222.4</ele>
        <time>2023-05-27T08:35:32Z</time>
      </trkpt>
      <trkpt lat="43.36013" lon="1.84012">
        <ele>222.4</ele>
        <time>2023-05-27T08:35:33Z</time>
      </trkpt>
      <trkpt lat="43.36016" lon="1.8401">
        <ele>222.4</ele>
        <time>2023-05-27T08:35:34Z</time>
      </trkpt>
      <trkpt lat="43.36021" lon="1.84006">
        <ele>222.4</ele>
        <time>2023-05-27T08:35:35Z</time>
      </trkpt>
      <trkpt lat="43.36026" lon="1.84002">
        <ele>222.4</ele>
        <time>2023-05-27T08:35:36Z</time>
      </trkpt>
      <trkpt lat="43.36029" lon="1.84">
        <ele>222.6</ele>
        <time>2023-05-27T08:35:37Z</time>
      </trkpt>
      <trkpt lat="43.36034" lon="1.83997">
        <ele>222.6</ele>
        <time>2023-05-27T08:35:38Z</time>
      </trkpt>
      <trkpt lat="43.36038" lon="1.83995">
        <ele>222.6</ele>
        <time>2023-05-27T08:35:39Z</time>
      </trkpt>
      <trkpt lat="43.36041" lon="1.83994">
        <ele>222.6</ele>
        <time>2023-05-27T08:35:40Z</time>
      </trkpt>
      <trkpt lat="43.36045" lon="1.83995">
        <ele>222.6</ele>
        <time>2023-05-27T08:35:41Z</time>
      </trkpt>
      <trkpt lat="43.36048" lon="1.83998">
        <ele>222.4</ele>
        <time>2023-05-27T08:35:42Z</time>
      </trkpt>
      <trkpt lat="43.36051" lon="1.84003">
        <ele>222.2</ele>
        <time>2023-05-27T08:35:43Z</time>
      </trkpt>
      <trkpt lat="43.36053" lon="1.84008">
        <ele>222.2</ele>
        <time>2023-05-27T08:35:44Z</time>
      </trkpt>
      <trkpt lat="43.36052" lon="1.84014">
        <ele>222.2</ele>
        <time>2023-05-27T08:35:45Z</time>
      </trkpt>
      <trkpt lat="43.36051" lon="1.84019">
        <ele>222.2</ele>
        <time>2023-05-27T08:35:46Z</time>
      </trkpt>
      <trkpt lat="43.3605" lon="1.84024">
        <ele>222.2</ele>
        <time>2023-05-27T08:35:47Z</time>
      </trkpt>
      <trkpt lat="43.36048" lon="1.84028">
        <ele>222.4</ele>
        <time>2023-05-27T08:35:48Z</time>
      </trkpt>
      <trkpt lat="43.36047" lon="1.84032">
        <ele>222.4</ele>
        <time>2023-05-27T08:35:49Z</time>
      </trkpt>
      <trkpt lat="43.36046" lon="1.84036">
        <ele>222.4</ele>
        <time>2023-05-27T08:35:50Z</time>
      </trkpt>
      <trkpt lat="43.36046" lon="1.84039">
        <ele>222.4</ele>
        <time>2023-05-27T08:35:51Z</time>
      </trkpt>
      <trkpt lat="43.36045" lon="1.84043">
        <ele>222.4</ele>
        <time>2023-05-27T08:35:52Z</time>
      </trkpt>
      <trkpt lat="43.36044" lon="1.84047">
        <ele>222.4</ele>
        <time>2023-05-27T08:35:53Z</time>
      </trkpt>
      <trkpt lat="43.36043" lon="1.84051">
        <ele>222.4</ele>
        <time>2023-05-27T08:35:54Z</time>
      </trkpt>
      <trkpt lat="43.36042" lon="1.84055">
        <ele>222.4</ele>
        <time>2023-05-27T08:35:55Z</time>
      </trkpt>
      <trkpt lat="43.36041" lon="1.84059">
        <ele>222.6</ele>
        <time>2023-05-27T08:35:56Z</time>
      </trkpt>
      <trkpt lat="43.3604" lon="1.84063">
        <ele>222.6</ele>
        <time>2023-05-27T08:35:57Z</time>
      </trkpt>
      <trkpt lat="43.36039" lon="1.84067">
        <ele>222.6</ele>
        <time>2023-05-27T08:35:58Z</time>
      </trkpt>
      <trkpt lat="43.36038" lon="1.84072">
        <ele>222.6</ele>
        <time>2023-05-27T08:35:59Z</time>
      </trkpt>
      <trkpt lat="43.36036" lon="1.84076">
        <ele>222.6</ele>
        <time>2023-05-27T08:36:00Z</time>
      </trkpt>
      <trkpt lat="43.36035" lon="1.8408">
        <ele>222.8</ele>
        <time>2023-05-27T08:36:01Z</time>
      </trkpt>
      <trkpt lat="43.36034" lon="1.84085">
        <ele>222.8</ele>
        <time>2023-05-27T08:36:02Z</time>
      </trkpt>
      <trkpt lat="43.36033" lon="1.8409">
        <ele>222.8</ele>
        <time>2023-05-27T08:36:03Z</time>
      </trkpt>
      <trkpt lat="43.36032" lon="1.84095">
        <ele>222.8</ele>
        <time>2023-05-27T08:36:04Z</time>
      </trkpt>
      <trkpt lat="43.3603" lon="1.841">
        <ele>222.8</ele>
        <time>2023-05-27T08:36:05Z</time>
      </trkpt>
      <trkpt lat="43.36029" lon="1.84106">
        <ele>222.8</ele>
        <time>2023-05-27T08:36:06Z</time>
      </trkpt>
      <trkpt lat="43.36028" lon="1.84113">
        <ele>222.8</ele>
        <time>2023-05-27T08:36:07Z</time>
      </trkpt>
      <trkpt lat="43.36026" lon="1.84119">
        <ele>223</ele>
        <time>2023-05-27T08:36:08Z</time>
      </trkpt>
      <trkpt lat="43.36024" lon="1.84124">
        <ele>223</ele>
        <time>2023-05-27T08:36:09Z</time>
      </trkpt>
      <trkpt lat="43.36022" lon="1.84129">
        <ele>223</ele>
        <time>2023-05-27T08:36:10Z</time>
      </trkpt>
      <trkpt lat="43.3602" lon="1.84134">
        <ele>223</ele>
        <time>2023-05-27T08:36:11Z</time>
      </trkpt>
      <trkpt lat="43.3602" lon="1.84139">
        <ele>222.8</ele>
        <time>2023-05-27T08:36:12Z</time>
      </trkpt>
      <trkpt lat="43.36019" lon="1.84145">
        <ele>222.8</ele>
        <time>2023-05-27T08:36:13Z</time>
      </trkpt>
      <trkpt lat="43.36018" lon="1.84152">
        <ele>222.8</ele>
        <time>2023-05-27T08:36:14Z</time>
      </trkpt>
      <trkpt lat="43.36018" lon="1.84157">
        <ele>222.8</ele>
        <time>2023-05-27T08:36:15Z</time>
      </trkpt>
      <trkpt lat="43.36018" lon="1.84162">
        <ele>222.8</ele>
        <time>2023-05-27T08:36:16Z</time>
      </trkpt>
      <trkpt lat="43.36019" lon="1.84167">
        <ele>222.8</ele>
        <time>2023-05-27T08:36:17Z</time>
      </trkpt>
      <trkpt lat="43.36019" lon="1.84173">
        <ele>222.8</ele>
        <time>2023-05-27T08:36:18Z</time>
      </trkpt>
      <trkpt lat="43.36019" lon="1.84181">
        <ele>222.8</ele>
        <time>2023-05-27T08:36:19Z</time>
      </trkpt>
      <trkpt lat="43.36018" lon="1.84189">
        <ele>222.8</ele>
        <time>2023-05-27T08:36:20Z</time>
      </trkpt>
      <trkpt lat="43.36017" lon="1.84194">
        <ele>222.8</ele>
        <time>2023-05-27T08:36:21Z</time>
      </trkpt>
      <trkpt lat="43.36016" lon="1.842">
        <ele>222.8</ele>
        <time>2023-05-27T08:36:22Z</time>
      </trkpt>
      <trkpt lat="43.36016" lon="1.84206">
        <ele>222.8</ele>
        <time>2023-05-27T08:36:23Z</time>
      </trkpt>
      <trkpt lat="43.36015" lon="1.84213">
        <ele>222.8</ele>
        <time>2023-05-27T08:36:24Z</time>
      </trkpt>
      <trkpt lat="43.36015" lon="1.84221">
        <ele>222.8</ele>
        <time>2023-05-27T08:36:25Z</time>
      </trkpt>
      <trkpt lat="43.36015" lon="1.84225">
        <ele>222.8</ele>
        <time>2023-05-27T08:36:26Z</time>
      </trkpt>
      <trkpt lat="43.36015" lon="1.84229">
        <ele>222.8</ele>
        <time>2023-05-27T08:36:27Z</time>
      </trkpt>
      <trkpt lat="43.36015" lon="1.84234">
        <ele>222.8</ele>
        <time>2023-05-27T08:36:28Z</time>
      </trkpt>
      <trkpt lat="43.36015" lon="1.8424">
        <ele>222.8</ele>
        <time>2023-05-27T08:36:29Z</time>
      </trkpt>
      <trkpt lat="43.36014" lon="1.84246">
        <ele>222.8</ele>
        <time>2023-05-27T08:36:30Z</time>
      </trkpt>
      <trkpt lat="43.36014" lon="1.84252">
        <ele>222.8</ele>
        <time>2023-05-27T08:36:31Z</time>
      </trkpt>
      <trkpt lat="43.36013" lon="1.84259">
        <ele>222.8</ele>
        <time>2023-05-27T08:36:32Z</time>
      </trkpt>
      <trkpt lat="43.36011" lon="1.84266">
        <ele>223</ele>
        <time>2023-05-27T08:36:33Z</time>
      </trkpt>
      <trkpt lat="43.3601" lon="1.84272">
        <ele>223</ele>
        <time>2023-05-27T08:36:34Z</time>
      </trkpt>
      <trkpt lat="43.36009" lon="1.84277">
        <ele>223</ele>
        <time>2023-05-27T08:36:35Z</time>
      </trkpt>
      <trkpt lat="43.36008" lon="1.84282">
        <ele>223</ele>
        <time>2023-05-27T08:36:36Z</time>
      </trkpt>
      <trkpt lat="43.36008" lon="1.84286">
        <ele>223</ele>
        <time>2023-05-27T08:36:37Z</time>
      </trkpt>
      <trkpt lat="43.36009" lon="1.8429">
        <ele>223</ele>
        <time>2023-05-27T08:36:38Z</time>
      </trkpt>
      <trkpt lat="43.3601" lon="1.84296">
        <ele>223</ele>
        <time>2023-05-27T08:36:39Z</time>
      </trkpt>
      <trkpt lat="43.36011" lon="1.84301">
        <ele>223.2</ele>
        <time>2023-05-27T08:36:40Z</time>
      </trkpt>
      <trkpt lat="43.3601" lon="1.84305">
        <ele>223.2</ele>
        <time>2023-05-27T08:36:41Z</time>
      </trkpt>
      <trkpt lat="43.36008" lon="1.84313">
        <ele>223.2</ele>
        <time>2023-05-27T08:36:42Z</time>
      </trkpt>
      <trkpt lat="43.36005" lon="1.84323">
        <ele>223.2</ele>
        <time>2023-05-27T08:36:43Z</time>
      </trkpt>
      <trkpt lat="43.36003" lon="1.84333">
        <ele>223.2</ele>
        <time>2023-05-27T08:36:44Z</time>
      </trkpt>
      <trkpt lat="43.36002" lon="1.8434">
        <ele>223.2</ele>
        <time>2023-05-27T08:36:45Z</time>
      </trkpt>
      <trkpt lat="43.36001" lon="1.84344">
        <ele>223.2</ele>
        <time>2023-05-27T08:36:46Z</time>
      </trkpt>
      <trkpt lat="43.36001" lon="1.84349">
        <ele>223.2</ele>
        <time>2023-05-27T08:36:47Z</time>
      </trkpt>
      <trkpt lat="43.35999" lon="1.84354">
        <ele>223.2</ele>
        <time>2023-05-27T08:36:48Z</time>
      </trkpt>
      <trkpt lat="43.36" lon="1.84359">
        <ele>223.2</ele>
        <time>2023-05-27T08:36:49Z</time>
      </trkpt>
      <trkpt lat="43.36" lon="1.84364">
        <ele>223</ele>
        <time>2023-05-27T08:36:50Z</time>
      </trkpt>
      <trkpt lat="43.36" lon="1.8437">
        <ele>223</ele>
        <time>2023-05-27T08:36:51Z</time>
      </trkpt>
      <trkpt lat="43.35999" lon="1.84375">
        <ele>223</ele>
        <time>2023-05-27T08:36:52Z</time>
      </trkpt>
      <trkpt lat="43.35999" lon="1.8438">
        <ele>223</ele>
        <time>2023-05-27T08:36:53Z</time>
      </trkpt>
      <trkpt lat="43.35999" lon="1.84386">
        <ele>223</ele>
        <time>2023-05-27T08:36:54Z</time>
      </trkpt>
      <trkpt lat="43.36" lon="1.84392">
        <ele>223</ele>
        <time>2023-05-27T08:36:55Z</time>
      </trkpt>
      <trkpt lat="43.36001" lon="1.84398">
        <ele>223</ele>
        <time>2023-05-27T08:36:56Z</time>
      </trkpt>
      <trkpt lat="43.36003" lon="1.84402">
        <ele>222.8</ele>
        <time>2023-05-27T08:36:57Z</time>
      </trkpt>
      <trkpt lat="43.36004" lon="1.84406">
        <ele>223</ele>
        <time>2023-05-27T08:36:58Z</time>
      </trkpt>
      <trkpt lat="43.36006" lon="1.84411">
        <ele>222.8</ele>
        <time>2023-05-27T08:36:59Z</time>
      </trkpt>
      <trkpt lat="43.36008" lon="1.84416">
        <ele>222.8</ele>
        <time>2023-05-27T08:37:00Z</time>
      </trkpt>
      <trkpt lat="43.36011" lon="1.8442">
        <ele>222.8</ele>
        <time>2023-05-27T08:37:01Z</time>
      </trkpt>
      <trkpt lat="43.36013" lon="1.84424">
        <ele>223</ele>
        <time>2023-05-27T08:37:02Z</time>
      </trkpt>
      <trkpt lat="43.36016" lon="1.84428">
        <ele>223</ele>
        <time>2023-05-27T08:37:03Z</time>
      </trkpt>
      <trkpt lat="43.36018" lon="1.84431">
        <ele>223</ele>
        <time>2023-05-27T08:37:04Z</time>
      </trkpt>
      <trkpt lat="43.36021" lon="1.84435">
        <ele>223</ele>
        <time>2023-05-27T08:37:05Z</time>
      </trkpt>
      <trkpt lat="43.36024" lon="1.84439">
        <ele>223.2</ele>
        <time>2023-05-27T08:37:06Z</time>
      </trkpt>
      <trkpt lat="43.36027" lon="1.84443">
        <ele>223.2</ele>
        <time>2023-05-27T08:37:07Z</time>
      </trkpt>
      <trkpt lat="43.3603" lon="1.84446">
        <ele>223.2</ele>
        <time>2023-05-27T08:37:08Z</time>
      </trkpt>
      <trkpt lat="43.36033" lon="1.84449">
        <ele>223.2</ele>
        <time>2023-05-27T08:37:09Z</time>
      </trkpt>
      <trkpt lat="43.36036" lon="1.84453">
        <ele>223.2</ele>
        <time>2023-05-27T08:37:10Z</time>
      </trkpt>
      <trkpt lat="43.36039" lon="1.84456">
        <ele>223.2</ele>
        <time>2023-05-27T08:37:11Z</time>
      </trkpt>
      <trkpt lat="43.36042" lon="1.8446">
        <ele>223.4</ele>
        <time>2023-05-27T08:37:12Z</time>
      </trkpt>
      <trkpt lat="43.36045" lon="1.84463">
        <ele>223.4</ele>
        <time>2023-05-27T08:37:13Z</time>
      </trkpt>
      <trkpt lat="43.36049" lon="1.84466">
        <ele>223.4</ele>
        <time>2023-05-27T08:37:14Z</time>
      </trkpt>
      <trkpt lat="43.36053" lon="1.84469">
        <ele>223.4</ele>
        <time>2023-05-27T08:37:15Z</time>
      </trkpt>
      <trkpt lat="43.36056" lon="1.84472">
        <ele>223.4</ele>
        <time>2023-05-27T08:37:16Z</time>
      </trkpt>
      <trkpt lat="43.36059" lon="1.84475">
        <ele>223.4</ele>
        <time>2023-05-27T08:37:17Z</time>
      </trkpt>
      <trkpt lat="43.36063" lon="1.84478">
        <ele>223.4</ele>
        <time>2023-05-27T08:37:18Z</time>
      </trkpt>
      <trkpt lat="43.36067" lon="1.84481">
        <ele>223.4</ele>
        <time>2023-05-27T08:37:19Z</time>
      </trkpt>
      <trkpt lat="43.36071" lon="1.84484">
        <ele>223.4</ele>
        <time>2023-05-27T08:37:20Z</time>
      </trkpt>
      <trkpt lat="43.36075" lon="1.84486">
        <ele>223.4</ele>
        <time>2023-05-27T08:37:21Z</time>
      </trkpt>
      <trkpt lat="43.3608" lon="1.84489">
        <ele>223.2</ele>
        <time>2023-05-27T08:37:22Z</time>
      </trkpt>
      <trkpt lat="43.36084" lon="1.84491">
        <ele>223.2</ele>
        <time>2023-05-27T08:37:23Z</time>
      </trkpt>
      <trkpt lat="43.36088" lon="1.84494">
        <ele>223.2</ele>
        <time>2023-05-27T08:37:24Z</time>
      </trkpt>
      <trkpt lat="43.36091" lon="1.84496">
        <ele>223.2</ele>
        <time>2023-05-27T08:37:25Z</time>
      </trkpt>
      <trkpt lat="43.36095" lon="1.84498">
        <ele>223.2</ele>
        <time>2023-05-27T08:37:26Z</time>
      </trkpt>
      <trkpt lat="43.361" lon="1.845">
        <ele>223.2</ele>
        <time>2023-05-27T08:37:27Z</time>
      </trkpt>
      <trkpt lat="43.36105" lon="1.84501">
        <ele>223.2</ele>
        <time>2023-05-27T08:37:28Z</time>
      </trkpt>
      <trkpt lat="43.3611" lon="1.84502">
        <ele>223.2</ele>
        <time>2023-05-27T08:37:29Z</time>
      </trkpt>
      <trkpt lat="43.36114" lon="1.84502">
        <ele>223.2</ele>
        <time>2023-05-27T08:37:30Z</time>
      </trkpt>
      <trkpt lat="43.36118" lon="1.84501">
        <ele>223.2</ele>
        <time>2023-05-27T08:37:31Z</time>
      </trkpt>
      <trkpt lat="43.36121" lon="1.84501">
        <ele>223.2</ele>
        <time>2023-05-27T08:37:32Z</time>
      </trkpt>
      <trkpt lat="43.36124" lon="1.84501">
        <ele>223.2</ele>
        <time>2023-05-27T08:37:33Z</time>
      </trkpt>
      <trkpt lat="43.36127" lon="1.84501">
        <ele>223.2</ele>
        <time>2023-05-27T08:37:34Z</time>
      </trkpt>
      <trkpt lat="43.36131" lon="1.84501">
        <ele>223.2</ele>
        <time>2023-05-27T08:37:35Z</time>
      </trkpt>
      <trkpt lat="43.36134" lon="1.84501">
        <ele>223.2</ele>
        <time>2023-05-27T08:37:36Z</time>
      </trkpt>
      <trkpt lat="43.36137" lon="1.84501">
        <ele>223.2</ele>
        <time>2023-05-27T08:37:37Z</time>
      </trkpt>
      <trkpt lat="43.36141" lon="1.845">
        <ele>223.2</ele>
        <time>2023-05-27T08:37:38Z</time>
      </trkpt>
      <trkpt lat="43.36143" lon="1.845">
        <ele>223.2</ele>
        <time>2023-05-27T08:37:39Z</time>
      </trkpt>
      <trkpt lat="43.36146" lon="1.845">
        <ele>223.2</ele>
        <time>2023-05-27T08:37:40Z</time>
      </trkpt>
      <trkpt lat="43.36148" lon="1.845">
        <ele>223</ele>
        <time>2023-05-27T08:37:41Z</time>
      </trkpt>
      <trkpt lat="43.36151" lon="1.845">
        <ele>223</ele>
        <time>2023-05-27T08:37:42Z</time>
      </trkpt>
      <trkpt lat="43.36153" lon="1.845">
        <ele>223</ele>
        <time>2023-05-27T08:37:43Z</time>
      </trkpt>
      <trkpt lat="43.36156" lon="1.84499">
        <ele>223</ele>
        <time>2023-05-27T08:37:44Z</time>
      </trkpt>
      <trkpt lat="43.36158" lon="1.84499">
        <ele>223</ele>
        <time>2023-05-27T08:37:45Z</time>
      </trkpt>
      <trkpt lat="43.36161" lon="1.84498">
        <ele>223</ele>
        <time>2023-05-27T08:37:46Z</time>
      </trkpt>
      <trkpt lat="43.36164" lon="1.84498">
        <ele>222.8</ele>
        <time>2023-05-27T08:37:47Z</time>
      </trkpt>
      <trkpt lat="43.36166" lon="1.84498">
        <ele>222.8</ele>
        <time>2023-05-27T08:37:48Z</time>
      </trkpt>
      <trkpt lat="43.36168" lon="1.84497">
        <ele>222.8</ele>
        <time>2023-05-27T08:37:49Z</time>
      </trkpt>
      <trkpt lat="43.3617" lon="1.84497">
        <ele>222.8</ele>
        <time>2023-05-27T08:37:50Z</time>
      </trkpt>
      <trkpt lat="43.36173" lon="1.84497">
        <ele>222.8</ele>
        <time>2023-05-27T08:37:51Z</time>
      </trkpt>
      <trkpt lat="43.36176" lon="1.84497">
        <ele>222.8</ele>
        <time>2023-05-27T08:37:52Z</time>
      </trkpt>
      <trkpt lat="43.36179" lon="1.84497">
        <ele>222.8</ele>
        <time>2023-05-27T08:37:53Z</time>
      </trkpt>
      <trkpt lat="43.36182" lon="1.84497">
        <ele>222.8</ele>
        <time>2023-05-27T08:37:54Z</time>
      </trkpt>
      <trkpt lat="43.36185" lon="1.84497">
        <ele>222.8</ele>
        <time>2023-05-27T08:37:55Z</time>
      </trkpt>
      <trkpt lat="43.36188" lon="1.84496">
        <ele>222.8</ele>
        <time>2023-05-27T08:37:56Z</time>
      </trkpt>
      <trkpt lat="43.36191" lon="1.84496">
        <ele>222.8</ele>
        <time>2023-05-27T08:37:57Z</time>
      </trkpt>
      <trkpt lat="43.36194" lon="1.84496">
        <ele>222.8</ele>
        <time>2023-05-27T08:37:58Z</time>
      </trkpt>
      <trkpt lat="43.36197" lon="1.84496">
        <ele>222.8</ele>
        <time>2023-05-27T08:37:59Z</time>
      </trkpt>
      <trkpt lat="43.362" lon="1.84495">
        <ele>222.8</ele>
        <time>2023-05-27T08:38:00Z</time>
      </trkpt>
      <trkpt lat="43.36204" lon="1.84495">
        <ele>222.8</ele>
        <time>2023-05-27T08:38:01Z</time>
      </trkpt>
      <trkpt lat="43.36208" lon="1.84495">
        <ele>222.8</ele>
        <time>2023-05-27T08:38:02Z</time>
      </trkpt>
      <trkpt lat="43.36212" lon="1.84496">
        <ele>222.8</ele>
        <time>2023-05-27T08:38:03Z</time>
      </trkpt>
      <trkpt lat="43.36217" lon="1.84497">
        <ele>222.8</ele>
        <time>2023-05-27T08:38:04Z</time>
      </trkpt>
      <trkpt lat="43.36222" lon="1.84498">
        <ele>222.8</ele>
        <time>2023-05-27T08:38:05Z</time>
      </trkpt>
      <trkpt lat="43.36226" lon="1.84499">
        <ele>223</ele>
        <time>2023-05-27T08:38:06Z</time>
      </trkpt>
      <trkpt lat="43.3623" lon="1.84501">
        <ele>223</ele>
        <time>2023-05-27T08:38:07Z</time>
      </trkpt>
      <trkpt lat="43.36235" lon="1.84502">
        <ele>223</ele>
        <time>2023-05-27T08:38:08Z</time>
      </trkpt>
      <trkpt lat="43.36239" lon="1.84503">
        <ele>223</ele>
        <time>2023-05-27T08:38:09Z</time>
      </trkpt>
      <trkpt lat="43.36243" lon="1.84504">
        <ele>223</ele>
        <time>2023-05-27T08:38:10Z</time>
      </trkpt>
      <trkpt lat="43.36246" lon="1.84504">
        <ele>223</ele>
        <time>2023-05-27T08:38:11Z</time>
      </trkpt>
      <trkpt lat="43.3625" lon="1.84505">
        <ele>223.2</ele>
        <time>2023-05-27T08:38:12Z</time>
      </trkpt>
      <trkpt lat="43.36254" lon="1.84508">
        <ele>223.2</ele>
        <time>2023-05-27T08:38:13Z</time>
      </trkpt>
      <trkpt lat="43.36257" lon="1.84509">
        <ele>223.2</ele>
        <time>2023-05-27T08:38:14Z</time>
      </trkpt>
      <trkpt lat="43.3626" lon="1.84512">
        <ele>223.2</ele>
        <time>2023-05-27T08:38:15Z</time>
      </trkpt>
      <trkpt lat="43.36262" lon="1.84513">
        <ele>223.2</ele>
        <time>2023-05-27T08:38:16Z</time>
      </trkpt>
      <trkpt lat="43.36266" lon="1.84514">
        <ele>223.2</ele>
        <time>2023-05-27T08:38:17Z</time>
      </trkpt>
      <trkpt lat="43.36271" lon="1.84516">
        <ele>223.2</ele>
        <time>2023-05-27T08:38:18Z</time>
      </trkpt>
      <trkpt lat="43.36274" lon="1.84518">
        <ele>223.2</ele>
        <time>2023-05-27T08:38:19Z</time>
      </trkpt>
      <trkpt lat="43.36277" lon="1.8452">
        <ele>223.2</ele>
        <time>2023-05-27T08:38:20Z</time>
      </trkpt>
      <trkpt lat="43.3628" lon="1.84523">
        <ele>223.2</ele>
        <time>2023-05-27T08:38:21Z</time>
      </trkpt>
      <trkpt lat="43.36284" lon="1.84528">
        <ele>223.2</ele>
        <time>2023-05-27T08:38:22Z</time>
      </trkpt>
      <trkpt lat="43.36286" lon="1.84532">
        <ele>223.2</ele>
        <time>2023-05-27T08:38:23Z</time>
      </trkpt>
      <trkpt lat="43.36289" lon="1.84535">
        <ele>223.2</ele>
        <time>2023-05-27T08:38:24Z</time>
      </trkpt>
      <trkpt lat="43.36292" lon="1.8454">
        <ele>223.2</ele>
        <time>2023-05-27T08:38:25Z</time>
      </trkpt>
      <trkpt lat="43.36297" lon="1.84544">
        <ele>223.4</ele>
        <time>2023-05-27T08:38:26Z</time>
      </trkpt>
      <trkpt lat="43.363" lon="1.84548">
        <ele>223.4</ele>
        <time>2023-05-27T08:38:27Z</time>
      </trkpt>
      <trkpt lat="43.36302" lon="1.84552">
        <ele>223.2</ele>
        <time>2023-05-27T08:38:28Z</time>
      </trkpt>
      <trkpt lat="43.36306" lon="1.84555">
        <ele>223.2</ele>
        <time>2023-05-27T08:38:29Z</time>
      </trkpt>
      <trkpt lat="43.36309" lon="1.84558">
        <ele>223.2</ele>
        <time>2023-05-27T08:38:30Z</time>
      </trkpt>
      <trkpt lat="43.3631" lon="1.84562">
        <ele>223.2</ele>
        <time>2023-05-27T08:38:31Z</time>
      </trkpt>
      <trkpt lat="43.36313" lon="1.84567">
        <ele>223.2</ele>
        <time>2023-05-27T08:38:32Z</time>
      </trkpt>
      <trkpt lat="43.36315" lon="1.84573">
        <ele>223.2</ele>
        <time>2023-05-27T08:38:33Z</time>
      </trkpt>
      <trkpt lat="43.36318" lon="1.84578">
        <ele>223.2</ele>
        <time>2023-05-27T08:38:34Z</time>
      </trkpt>
      <trkpt lat="43.36321" lon="1.84582">
        <ele>223.2</ele>
        <time>2023-05-27T08:38:35Z</time>
      </trkpt>
      <trkpt lat="43.36323" lon="1.84587">
        <ele>223.2</ele>
        <time>2023-05-27T08:38:36Z</time>
      </trkpt>
      <trkpt lat="43.36326" lon="1.8459">
        <ele>223.2</ele>
        <time>2023-05-27T08:38:37Z</time>
      </trkpt>
      <trkpt lat="43.36328" lon="1.84594">
        <ele>223.2</ele>
        <time>2023-05-27T08:38:38Z</time>
      </trkpt>
      <trkpt lat="43.3633" lon="1.84598">
        <ele>223.2</ele>
        <time>2023-05-27T08:38:39Z</time>
      </trkpt>
      <trkpt lat="43.36332" lon="1.84602">
        <ele>223.2</ele>
        <time>2023-05-27T08:38:40Z</time>
      </trkpt>
      <trkpt lat="43.36333" lon="1.84605">
        <ele>223.2</ele>
        <time>2023-05-27T08:38:41Z</time>
      </trkpt>
      <trkpt lat="43.36335" lon="1.84609">
        <ele>223.2</ele>
        <time>2023-05-27T08:38:42Z</time>
      </trkpt>
      <trkpt lat="43.36336" lon="1.84613">
        <ele>223.2</ele>
        <time>2023-05-27T08:38:43Z</time>
      </trkpt>
      <trkpt lat="43.36337" lon="1.84617">
        <ele>223.2</ele>
        <time>2023-05-27T08:38:44Z</time>
      </trkpt>
      <trkpt lat="43.36337" lon="1.84622">
        <ele>223.2</ele>
        <time>2023-05-27T08:38:45Z</time>
      </trkpt>
      <trkpt lat="43.36338" lon="1.84625">
        <ele>223.2</ele>
        <time>2023-05-27T08:38:46Z</time>
      </trkpt>
      <trkpt lat="43.36338" lon="1.84628">
        <ele>223.2</ele>
        <time>2023-05-27T08:38:47Z</time>
      </trkpt>
      <trkpt lat="43.36338" lon="1.84632">
        <ele>223.2</ele>
        <time>2023-05-27T08:38:48Z</time>
      </trkpt>
      <trkpt lat="43.36339" lon="1.84635">
        <ele>223.2</ele>
        <time>2023-05-27T08:38:49Z</time>
      </trkpt>
      <trkpt lat="43.36339" lon="1.84639">
        <ele>223.2</ele>
        <time>2023-05-27T08:38:50Z</time>
      </trkpt>
      <trkpt lat="43.36339" lon="1.84643">
        <ele>223.2</ele>
        <time>2023-05-27T08:38:51Z</time>
      </trkpt>
      <trkpt lat="43.36339" lon="1.84646">
        <ele>223.2</ele>
        <time>2023-05-27T08:38:52Z</time>
      </trkpt>
      <trkpt lat="43.36339" lon="1.8465">
        <ele>223.2</ele>
        <time>2023-05-27T08:38:53Z</time>
      </trkpt>
      <trkpt lat="43.36339" lon="1.84654">
        <ele>223.4</ele>
        <time>2023-05-27T08:38:54Z</time>
      </trkpt>
      <trkpt lat="43.36338" lon="1.84657">
        <ele>223.2</ele>
        <time>2023-05-27T08:38:55Z</time>
      </trkpt>
      <trkpt lat="43.36337" lon="1.84661">
        <ele>223.2</ele>
        <time>2023-05-27T08:38:56Z</time>
      </trkpt>
      <trkpt lat="43.36337" lon="1.84664">
        <ele>223.2</ele>
        <time>2023-05-27T08:38:57Z</time>
      </trkpt>
      <trkpt lat="43.36337" lon="1.84668">
        <ele>223.2</ele>
        <time>2023-05-27T08:38:58Z</time>
      </trkpt>
      <trkpt lat="43.36336" lon="1.84672">
        <ele>223.2</ele>
        <time>2023-05-27T08:38:59Z</time>
      </trkpt>
      <trkpt lat="43.36335" lon="1.84677">
        <ele>223.2</ele>
        <time>2023-05-27T08:39:00Z</time>
      </trkpt>
      <trkpt lat="43.36333" lon="1.84683">
        <ele>223.2</ele>
        <time>2023-05-27T08:39:01Z</time>
      </trkpt>
      <trkpt lat="43.36332" lon="1.84689">
        <ele>223.2</ele>
        <time>2023-05-27T08:39:02Z</time>
      </trkpt>
      <trkpt lat="43.36331" lon="1.84694">
        <ele>223.2</ele>
        <time>2023-05-27T08:39:03Z</time>
      </trkpt>
      <trkpt lat="43.36331" lon="1.84698">
        <ele>223.2</ele>
        <time>2023-05-27T08:39:04Z</time>
      </trkpt>
      <trkpt lat="43.36331" lon="1.84702">
        <ele>223.2</ele>
        <time>2023-05-27T08:39:05Z</time>
      </trkpt>
      <trkpt lat="43.36331" lon="1.84706">
        <ele>223.2</ele>
        <time>2023-05-27T08:39:06Z</time>
      </trkpt>
      <trkpt lat="43.36331" lon="1.84711">
        <ele>223.2</ele>
        <time>2023-05-27T08:39:07Z</time>
      </trkpt>
      <trkpt lat="43.36329" lon="1.84718">
        <ele>223.2</ele>
        <time>2023-05-27T08:39:08Z</time>
      </trkpt>
      <trkpt lat="43.36327" lon="1.84724">
        <ele>223.4</ele>
        <time>2023-05-27T08:39:09Z</time>
      </trkpt>
      <trkpt lat="43.36326" lon="1.8473">
        <ele>223.4</ele>
        <time>2023-05-27T08:39:10Z</time>
      </trkpt>
      <trkpt lat="43.36326" lon="1.84735">
        <ele>223.4</ele>
        <time>2023-05-27T08:39:11Z</time>
      </trkpt>
      <trkpt lat="43.36325" lon="1.84741">
        <ele>223.4</ele>
        <time>2023-05-27T08:39:12Z</time>
      </trkpt>
      <trkpt lat="43.36324" lon="1.84749">
        <ele>223.4</ele>
        <time>2023-05-27T08:39:13Z</time>
      </trkpt>
      <trkpt lat="43.36323" lon="1.84757">
        <ele>223.4</ele>
        <time>2023-05-27T08:39:14Z</time>
      </trkpt>
      <trkpt lat="43.36322" lon="1.84764">
        <ele>223.4</ele>
        <time>2023-05-27T08:39:15Z</time>
      </trkpt>
      <trkpt lat="43.36322" lon="1.84769">
        <ele>223.4</ele>
        <time>2023-05-27T08:39:16Z</time>
      </trkpt>
      <trkpt lat="43.3632" lon="1.84775">
        <ele>223.6</ele>
        <time>2023-05-27T08:39:17Z</time>
      </trkpt>
      <trkpt lat="43.36318" lon="1.8478">
        <ele>223.6</ele>
        <time>2023-05-27T08:39:18Z</time>
      </trkpt>
      <trkpt lat="43.36317" lon="1.84785">
        <ele>223.6</ele>
        <time>2023-05-27T08:39:19Z</time>
      </trkpt>
      <trkpt lat="43.36317" lon="1.84788">
        <ele>223.6</ele>
        <time>2023-05-27T08:39:20Z</time>
      </trkpt>
      <trkpt lat="43.36318" lon="1.84793">
        <ele>223.6</ele>
        <time>2023-05-27T08:39:21Z</time>
      </trkpt>
      <trkpt lat="43.36316" lon="1.84799">
        <ele>223.6</ele>
        <time>2023-05-27T08:39:22Z</time>
      </trkpt>
      <trkpt lat="43.36314" lon="1.84804">
        <ele>223.6</ele>
        <time>2023-05-27T08:39:23Z</time>
      </trkpt>
      <trkpt lat="43.36311" lon="1.84809">
        <ele>223.6</ele>
        <time>2023-05-27T08:39:24Z</time>
      </trkpt>
      <trkpt lat="43.3631" lon="1.84813">
        <ele>223.6</ele>
        <time>2023-05-27T08:39:25Z</time>
      </trkpt>
      <trkpt lat="43.36309" lon="1.84817">
        <ele>223.6</ele>
        <time>2023-05-27T08:39:26Z</time>
      </trkpt>
      <trkpt lat="43.36309" lon="1.84821">
        <ele>223.6</ele>
        <time>2023-05-27T08:39:27Z</time>
      </trkpt>
      <trkpt lat="43.36308" lon="1.84827">
        <ele>223.6</ele>
        <time>2023-05-27T08:39:28Z</time>
      </trkpt>
      <trkpt lat="43.36307" lon="1.84833">
        <ele>223.6</ele>
        <time>2023-05-27T08:39:29Z</time>
      </trkpt>
      <trkpt lat="43.36307" lon="1.84838">
        <ele>223.6</ele>
        <time>2023-05-27T08:39:30Z</time>
      </trkpt>
      <trkpt lat="43.36308" lon="1.84841">
        <ele>223.6</ele>
        <time>2023-05-27T08:39:31Z</time>
      </trkpt>
      <trkpt lat="43.36308" lon="1.84844">
        <ele>223.6</ele>
        <time>2023-05-27T08:39:32Z</time>
      </trkpt>
      <trkpt lat="43.36307" lon="1.84849">
        <ele>223.6</ele>
        <time>2023-05-27T08:39:33Z</time>
      </trkpt>
      <trkpt lat="43.36306" lon="1.84855">
        <ele>223.6</ele>
        <time>2023-05-27T08:39:34Z</time>
      </trkpt>
      <trkpt lat="43.36304" lon="1.8486">
        <ele>223.6</ele>
        <time>2023-05-27T08:39:35Z</time>
      </trkpt>
      <trkpt lat="43.36303" lon="1.84865">
        <ele>223.6</ele>
        <time>2023-05-27T08:39:36Z</time>
      </trkpt>
      <trkpt lat="43.36301" lon="1.84871">
        <ele>223.8</ele>
        <time>2023-05-27T08:39:37Z</time>
      </trkpt>
      <trkpt lat="43.363" lon="1.84877">
        <ele>223.8</ele>
        <time>2023-05-27T08:39:38Z</time>
      </trkpt>
      <trkpt lat="43.36299" lon="1.84881">
        <ele>223.8</ele>
        <time>2023-05-27T08:39:39Z</time>
      </trkpt>
      <trkpt lat="43.36298" lon="1.84885">
        <ele>223.8</ele>
        <time>2023-05-27T08:39:40Z</time>
      </trkpt>
      <trkpt lat="43.36297" lon="1.84889">
        <ele>223.8</ele>
        <time>2023-05-27T08:39:41Z</time>
      </trkpt>
      <trkpt lat="43.36296" lon="1.84893">
        <ele>224</ele>
        <time>2023-05-27T08:39:42Z</time>
      </trkpt>
      <trkpt lat="43.36296" lon="1.84896">
        <ele>224</ele>
        <time>2023-05-27T08:39:43Z</time>
      </trkpt>
      <trkpt lat="43.36296" lon="1.849">
        <ele>224</ele>
        <time>2023-05-27T08:39:44Z</time>
      </trkpt>
      <trkpt lat="43.36295" lon="1.84905">
        <ele>224</ele>
        <time>2023-05-27T08:39:45Z</time>
      </trkpt>
      <trkpt lat="43.36295" lon="1.84911">
        <ele>224</ele>
        <time>2023-05-27T08:39:46Z</time>
      </trkpt>
      <trkpt lat="43.36295" lon="1.84917">
        <ele>224.2</ele>
        <time>2023-05-27T08:39:47Z</time>
      </trkpt>
      <trkpt lat="43.36294" lon="1.84923">
        <ele>224.2</ele>
        <time>2023-05-27T08:39:48Z</time>
      </trkpt>
      <trkpt lat="43.36292" lon="1.84928">
        <ele>224.2</ele>
        <time>2023-05-27T08:39:49Z</time>
      </trkpt>
      <trkpt lat="43.3629" lon="1.84934">
        <ele>224.2</ele>
        <time>2023-05-27T08:39:50Z</time>
      </trkpt>
      <trkpt lat="43.36289" lon="1.84939">
        <ele>224.2</ele>
        <time>2023-05-27T08:39:51Z</time>
      </trkpt>
      <trkpt lat="43.36288" lon="1.84943">
        <ele>224.2</ele>
        <time>2023-05-27T08:39:52Z</time>
      </trkpt>
      <trkpt lat="43.36287" lon="1.84946">
        <ele>224.2</ele>
        <time>2023-05-27T08:39:53Z</time>
      </trkpt>
      <trkpt lat="43.36286" lon="1.84949">
        <ele>224.2</ele>
        <time>2023-05-27T08:39:54Z</time>
      </trkpt>
      <trkpt lat="43.36285" lon="1.84953">
        <ele>224.2</ele>
        <time>2023-05-27T08:39:55Z</time>
      </trkpt>
      <trkpt lat="43.36283" lon="1.84957">
        <ele>224.2</ele>
        <time>2023-05-27T08:39:56Z</time>
      </trkpt>
      <trkpt lat="43.36282" lon="1.84961">
        <ele>224.2</ele>
        <time>2023-05-27T08:39:57Z</time>
      </trkpt>
      <trkpt lat="43.3628" lon="1.84965">
        <ele>224.2</ele>
        <time>2023-05-27T08:39:58Z</time>
      </trkpt>
      <trkpt lat="43.36277" lon="1.8497">
        <ele>224.4</ele>
        <time>2023-05-27T08:39:59Z</time>
      </trkpt>
      <trkpt lat="43.36275" lon="1.84977">
        <ele>224.4</ele>
        <time>2023-05-27T08:40:00Z</time>
      </trkpt>
      <trkpt lat="43.36274" lon="1.84981">
        <ele>224.4</ele>
        <time>2023-05-27T08:40:01Z</time>
      </trkpt>
      <trkpt lat="43.36272" lon="1.84986">
        <ele>224.4</ele>
        <time>2023-05-27T08:40:02Z</time>
      </trkpt>
      <trkpt lat="43.36269" lon="1.8499">
        <ele>224.4</ele>
        <time>2023-05-27T08:40:03Z</time>
      </trkpt>
      <trkpt lat="43.36267" lon="1.84993">
        <ele>224.4</ele>
        <time>2023-05-27T08:40:04Z</time>
      </trkpt>
      <trkpt lat="43.36265" lon="1.84998">
        <ele>224.4</ele>
        <time>2023-05-27T08:40:05Z</time>
      </trkpt>
      <trkpt lat="43.36263" lon="1.85002">
        <ele>224.4</ele>
        <time>2023-05-27T08:40:06Z</time>
      </trkpt>
      <trkpt lat="43.36261" lon="1.85006">
        <ele>224.4</ele>
        <time>2023-05-27T08:40:07Z</time>
      </trkpt>
      <trkpt lat="43.36258" lon="1.8501">
        <ele>224.4</ele>
        <time>2023-05-27T08:40:08Z</time>
      </trkpt>
      <trkpt lat="43.36256" lon="1.85015">
        <ele>224.4</ele>
        <time>2023-05-27T08:40:09Z</time>
      </trkpt>
      <trkpt lat="43.36253" lon="1.8502">
        <ele>224.4</ele>
        <time>2023-05-27T08:40:10Z</time>
      </trkpt>
      <trkpt lat="43.3625" lon="1.85025">
        <ele>224.2</ele>
        <time>2023-05-27T08:40:11Z</time>
      </trkpt>
      <trkpt lat="43.36248" lon="1.8503">
        <ele>224.2</ele>
        <time>2023-05-27T08:40:12Z</time>
      </trkpt>
      <trkpt lat="43.36245" lon="1.85034">
        <ele>224.2</ele>
        <time>2023-05-27T08:40:13Z</time>
      </trkpt>
      <trkpt lat="43.36243" lon="1.8504">
        <ele>224.2</ele>
        <time>2023-05-27T08:40:14Z</time>
      </trkpt>
      <trkpt lat="43.3624" lon="1.85044">
        <ele>224.2</ele>
        <time>2023-05-27T08:40:15Z</time>
      </trkpt>
      <trkpt lat="43.36238" lon="1.85047">
        <ele>224.2</ele>
        <time>2023-05-27T08:40:16Z</time>
      </trkpt>
      <trkpt lat="43.36236" lon="1.8505">
        <ele>224.2</ele>
        <time>2023-05-27T08:40:17Z</time>
      </trkpt>
      <trkpt lat="43.36234" lon="1.85054">
        <ele>224.4</ele>
        <time>2023-05-27T08:40:18Z</time>
      </trkpt>
      <trkpt lat="43.36233" lon="1.85058">
        <ele>224.4</ele>
        <time>2023-05-27T08:40:19Z</time>
      </trkpt>
      <trkpt lat="43.36231" lon="1.85063">
        <ele>224.4</ele>
        <time>2023-05-27T08:40:20Z</time>
      </trkpt>
      <trkpt lat="43.3623" lon="1.85067">
        <ele>224.4</ele>
        <time>2023-05-27T08:40:21Z</time>
      </trkpt>
      <trkpt lat="43.36229" lon="1.85072">
        <ele>224.6</ele>
        <time>2023-05-27T08:40:22Z</time>
      </trkpt>
      <trkpt lat="43.36228" lon="1.85076">
        <ele>224.6</ele>
        <time>2023-05-27T08:40:23Z</time>
      </trkpt>
      <trkpt lat="43.36227" lon="1.85081">
        <ele>224.6</ele>
        <time>2023-05-27T08:40:24Z</time>
      </trkpt>
      <trkpt lat="43.36226" lon="1.85086">
        <ele>224.6</ele>
        <time>2023-05-27T08:40:25Z</time>
      </trkpt>
      <trkpt lat="43.36225" lon="1.85091">
        <ele>224.8</ele>
        <time>2023-05-27T08:40:26Z</time>
      </trkpt>
      <trkpt lat="43.36225" lon="1.85096">
        <ele>224.8</ele>
        <time>2023-05-27T08:40:27Z</time>
      </trkpt>
      <trkpt lat="43.36224" lon="1.85101">
        <ele>224.8</ele>
        <time>2023-05-27T08:40:28Z</time>
      </trkpt>
      <trkpt lat="43.36224" lon="1.85106">
        <ele>224.8</ele>
        <time>2023-05-27T08:40:29Z</time>
      </trkpt>
      <trkpt lat="43.36224" lon="1.85111">
        <ele>224.8</ele>
        <time>2023-05-27T08:40:30Z</time>
      </trkpt>
      <trkpt lat="43.36224" lon="1.85116">
        <ele>224.8</ele>
        <time>2023-05-27T08:40:31Z</time>
      </trkpt>
      <trkpt lat="43.36224" lon="1.85121">
        <ele>224.8</ele>
        <time>2023-05-27T08:40:32Z</time>
      </trkpt>
      <trkpt lat="43.36225" lon="1.85126">
        <ele>224.8</ele>
        <time>2023-05-27T08:40:33Z</time>
      </trkpt>
      <trkpt lat="43.36225" lon="1.85131">
        <ele>224.8</ele>
        <time>2023-05-27T08:40:34Z</time>
      </trkpt>
      <trkpt lat="43.36225" lon="1.85136">
        <ele>224.8</ele>
        <time>2023-05-27T08:40:35Z</time>
      </trkpt>
      <trkpt lat="43.36226" lon="1.85141">
        <ele>224.8</ele>
        <time>2023-05-27T08:40:36Z</time>
      </trkpt>
      <trkpt lat="43.36227" lon="1.85146">
        <ele>224.8</ele>
        <time>2023-05-27T08:40:37Z</time>
      </trkpt>
      <trkpt lat="43.36229" lon="1.8515">
        <ele>224.8</ele>
        <time>2023-05-27T08:40:38Z</time>
      </trkpt>
      <trkpt lat="43.3623" lon="1.85155">
        <ele>224.8</ele>
        <time>2023-05-27T08:40:39Z</time>
      </trkpt>
      <trkpt lat="43.36232" lon="1.85159">
        <ele>224.8</ele>
        <time>2023-05-27T08:40:40Z</time>
      </trkpt>
      <trkpt lat="43.36234" lon="1.85163">
        <ele>225</ele>
        <time>2023-05-27T08:40:41Z</time>
      </trkpt>
      <trkpt lat="43.36236" lon="1.85166">
        <ele>225</ele>
        <time>2023-05-27T08:40:42Z</time>
      </trkpt>
      <trkpt lat="43.36239" lon="1.8517">
        <ele>225</ele>
        <time>2023-05-27T08:40:43Z</time>
      </trkpt>
      <trkpt lat="43.36242" lon="1.85174">
        <ele>225</ele>
        <time>2023-05-27T08:40:44Z</time>
      </trkpt>
      <trkpt lat="43.36245" lon="1.85177">
        <ele>225</ele>
        <time>2023-05-27T08:40:45Z</time>
      </trkpt>
      <trkpt lat="43.36247" lon="1.8518">
        <ele>225</ele>
        <time>2023-05-27T08:40:46Z</time>
      </trkpt>
      <trkpt lat="43.3625" lon="1.85182">
        <ele>225</ele>
        <time>2023-05-27T08:40:47Z</time>
      </trkpt>
      <trkpt lat="43.36252" lon="1.85184">
        <ele>225.2</ele>
        <time>2023-05-27T08:40:48Z</time>
      </trkpt>
      <trkpt lat="43.36254" lon="1.85186">
        <ele>225.2</ele>
        <time>2023-05-27T08:40:49Z</time>
      </trkpt>
      <trkpt lat="43.36255" lon="1.85188">
        <ele>225.4</ele>
        <time>2023-05-27T08:40:50Z</time>
      </trkpt>
      <trkpt lat="43.36257" lon="1.8519">
        <ele>225.4</ele>
        <time>2023-05-27T08:40:51Z</time>
      </trkpt>
      <trkpt lat="43.3626" lon="1.85191">
        <ele>225.6</ele>
        <time>2023-05-27T08:40:52Z</time>
      </trkpt>
      <trkpt lat="43.36262" lon="1.85194">
        <ele>225.6</ele>
        <time>2023-05-27T08:40:53Z</time>
      </trkpt>
      <trkpt lat="43.36263" lon="1.85195">
        <ele>225.8</ele>
        <time>2023-05-27T08:40:54Z</time>
      </trkpt>
      <trkpt lat="43.36264" lon="1.85197">
        <ele>225.8</ele>
        <time>2023-05-27T08:40:55Z</time>
      </trkpt>
      <trkpt lat="43.36266" lon="1.85199">
        <ele>225.8</ele>
        <time>2023-05-27T08:40:56Z</time>
      </trkpt>
      <trkpt lat="43.36269" lon="1.85201">
        <ele>225.8</ele>
        <time>2023-05-27T08:40:57Z</time>
      </trkpt>
      <trkpt lat="43.36272" lon="1.85204">
        <ele>225.8</ele>
        <time>2023-05-27T08:40:58Z</time>
      </trkpt>
      <trkpt lat="43.36275" lon="1.85207">
        <ele>225.8</ele>
        <time>2023-05-27T08:40:59Z</time>
      </trkpt>
      <trkpt lat="43.36278" lon="1.85209">
        <ele>225.6</ele>
        <time>2023-05-27T08:41:00Z</time>
      </trkpt>
      <trkpt lat="43.36281" lon="1.85212">
        <ele>225.6</ele>
        <time>2023-05-27T08:41:01Z</time>
      </trkpt>
      <trkpt lat="43.36285" lon="1.85215">
        <ele>225.6</ele>
        <time>2023-05-27T08:41:02Z</time>
      </trkpt>
      <trkpt lat="43.36289" lon="1.85218">
        <ele>225.4</ele>
        <time>2023-05-27T08:41:03Z</time>
      </trkpt>
      <trkpt lat="43.36292" lon="1.85221">
        <ele>225.4</ele>
        <time>2023-05-27T08:41:04Z</time>
      </trkpt>
      <trkpt lat="43.36296" lon="1.85224">
        <ele>225.4</ele>
        <time>2023-05-27T08:41:05Z</time>
      </trkpt>
      <trkpt lat="43.363" lon="1.85227">
        <ele>225.2</ele>
        <time>2023-05-27T08:41:06Z</time>
      </trkpt>
      <trkpt lat="43.36302" lon="1.85229">
        <ele>225.2</ele>
        <time>2023-05-27T08:41:07Z</time>
      </trkpt>
      <trkpt lat="43.36305" lon="1.85231">
        <ele>225.2</ele>
        <time>2023-05-27T08:41:08Z</time>
      </trkpt>
      <trkpt lat="43.36308" lon="1.85233">
        <ele>225</ele>
        <time>2023-05-27T08:41:09Z</time>
      </trkpt>
      <trkpt lat="43.36312" lon="1.85236">
        <ele>225</ele>
        <time>2023-05-27T08:41:10Z</time>
      </trkpt>
      <trkpt lat="43.36316" lon="1.85238">
        <ele>224.8</ele>
        <time>2023-05-27T08:41:11Z</time>
      </trkpt>
      <trkpt lat="43.36319" lon="1.85239">
        <ele>224.8</ele>
        <time>2023-05-27T08:41:12Z</time>
      </trkpt>
      <trkpt lat="43.36323" lon="1.8524">
        <ele>224.8</ele>
        <time>2023-05-27T08:41:13Z</time>
      </trkpt>
      <trkpt lat="43.36328" lon="1.85241">
        <ele>224.8</ele>
        <time>2023-05-27T08:41:14Z</time>
      </trkpt>
      <trkpt lat="43.36333" lon="1.85241">
        <ele>224.8</ele>
        <time>2023-05-27T08:41:15Z</time>
      </trkpt>
      <trkpt lat="43.36337" lon="1.85242">
        <ele>224.8</ele>
        <time>2023-05-27T08:41:16Z</time>
      </trkpt>
      <trkpt lat="43.36341" lon="1.85241">
        <ele>224.8</ele>
        <time>2023-05-27T08:41:17Z</time>
      </trkpt>
      <trkpt lat="43.36344" lon="1.85241">
        <ele>225</ele>
        <time>2023-05-27T08:41:18Z</time>
      </trkpt>
      <trkpt lat="43.36347" lon="1.85242">
        <ele>225</ele>
        <time>2023-05-27T08:41:19Z</time>
      </trkpt>
      <trkpt lat="43.3635" lon="1.85242">
        <ele>225.2</ele>
        <time>2023-05-27T08:41:20Z</time>
      </trkpt>
      <trkpt lat="43.36354" lon="1.85242">
        <ele>225.2</ele>
        <time>2023-05-27T08:41:21Z</time>
      </trkpt>
      <trkpt lat="43.36359" lon="1.85241">
        <ele>225.2</ele>
        <time>2023-05-27T08:41:22Z</time>
      </trkpt>
      <trkpt lat="43.36363" lon="1.8524">
        <ele>225.2</ele>
        <time>2023-05-27T08:41:23Z</time>
      </trkpt>
      <trkpt lat="43.36366" lon="1.85239">
        <ele>225.2</ele>
        <time>2023-05-27T08:41:24Z</time>
      </trkpt>
      <trkpt lat="43.3637" lon="1.85238">
        <ele>225.4</ele>
        <time>2023-05-27T08:41:25Z</time>
      </trkpt>
      <trkpt lat="43.36374" lon="1.85237">
        <ele>225.4</ele>
        <time>2023-05-27T08:41:26Z</time>
      </trkpt>
      <trkpt lat="43.36379" lon="1.85233">
        <ele>225.4</ele>
        <time>2023-05-27T08:41:27Z</time>
      </trkpt>
      <trkpt lat="43.36382" lon="1.8523">
        <ele>225.4</ele>
        <time>2023-05-27T08:41:28Z</time>
      </trkpt>
      <trkpt lat="43.36386" lon="1.85228">
        <ele>225.4</ele>
        <time>2023-05-27T08:41:29Z</time>
      </trkpt>
      <trkpt lat="43.36389" lon="1.85227">
        <ele>225.4</ele>
        <time>2023-05-27T08:41:30Z</time>
      </trkpt>
      <trkpt lat="43.36394" lon="1.85224">
        <ele>225.4</ele>
        <time>2023-05-27T08:41:31Z</time>
      </trkpt>
      <trkpt lat="43.36399" lon="1.8522">
        <ele>225.4</ele>
        <time>2023-05-27T08:41:32Z</time>
      </trkpt>
      <trkpt lat="43.36402" lon="1.85216">
        <ele>225.6</ele>
        <time>2023-05-27T08:41:33Z</time>
      </trkpt>
      <trkpt lat="43.36405" lon="1.85213">
        <ele>225.6</ele>
        <time>2023-05-27T08:41:34Z</time>
      </trkpt>
      <trkpt lat="43.36409" lon="1.85209">
        <ele>225.6</ele>
        <time>2023-05-27T08:41:35Z</time>
      </trkpt>
      <trkpt lat="43.36412" lon="1.85206">
        <ele>225.6</ele>
        <time>2023-05-27T08:41:36Z</time>
      </trkpt>
      <trkpt lat="43.36415" lon="1.85202">
        <ele>225.6</ele>
        <time>2023-05-27T08:41:37Z</time>
      </trkpt>
      <trkpt lat="43.36417" lon="1.85199">
        <ele>225.6</ele>
        <time>2023-05-27T08:41:38Z</time>
      </trkpt>
      <trkpt lat="43.3642" lon="1.85196">
        <ele>225.6</ele>
        <time>2023-05-27T08:41:39Z</time>
      </trkpt>
      <trkpt lat="43.36423" lon="1.85192">
        <ele>225.6</ele>
        <time>2023-05-27T08:41:40Z</time>
      </trkpt>
      <trkpt lat="43.36426" lon="1.85188">
        <ele>225.6</ele>
        <time>2023-05-27T08:41:41Z</time>
      </trkpt>
      <trkpt lat="43.36429" lon="1.85185">
        <ele>225.6</ele>
        <time>2023-05-27T08:41:42Z</time>
      </trkpt>
      <trkpt lat="43.36432" lon="1.85181">
        <ele>225.6</ele>
        <time>2023-05-27T08:41:43Z</time>
      </trkpt>
      <trkpt lat="43.36434" lon="1.85178">
        <ele>225.6</ele>
        <time>2023-05-27T08:41:44Z</time>
      </trkpt>
      <trkpt lat="43.36436" lon="1.85175">
        <ele>225.6</ele>
        <time>2023-05-27T08:41:45Z</time>
      </trkpt>
      <trkpt lat="43.36439" lon="1.85172">
        <ele>225.6</ele>
        <time>2023-05-27T08:41:46Z</time>
      </trkpt>
      <trkpt lat="43.36442" lon="1.85167">
        <ele>225.6</ele>
        <time>2023-05-27T08:41:47Z</time>
      </trkpt>
      <trkpt lat="43.36445" lon="1.85164">
        <ele>225.6</ele>
        <time>2023-05-27T08:41:48Z</time>
      </trkpt>
      <trkpt lat="43.36449" lon="1.85161">
        <ele>225.6</ele>
        <time>2023-05-27T08:41:49Z</time>
      </trkpt>
      <trkpt lat="43.36452" lon="1.85157">
        <ele>225.6</ele>
        <time>2023-05-27T08:41:50Z</time>
      </trkpt>
      <trkpt lat="43.36455" lon="1.85153">
        <ele>225.6</ele>
        <time>2023-05-27T08:41:51Z</time>
      </trkpt>
      <trkpt lat="43.36458" lon="1.85149">
        <ele>225.4</ele>
        <time>2023-05-27T08:41:52Z</time>
      </trkpt>
      <trkpt lat="43.3646" lon="1.85145">
        <ele>225.4</ele>
        <time>2023-05-27T08:41:53Z</time>
      </trkpt>
      <trkpt lat="43.36463" lon="1.85141">
        <ele>225.4</ele>
        <time>2023-05-27T08:41:54Z</time>
      </trkpt>
      <trkpt lat="43.36467" lon="1.85137">
        <ele>225.2</ele>
        <time>2023-05-27T08:41:55Z</time>
      </trkpt>
      <trkpt lat="43.36469" lon="1.85134">
        <ele>225.2</ele>
        <time>2023-05-27T08:41:56Z</time>
      </trkpt>
      <trkpt lat="43.36472" lon="1.85131">
        <ele>225.2</ele>
        <time>2023-05-27T08:41:57Z</time>
      </trkpt>
      <trkpt lat="43.36474" lon="1.85128">
        <ele>225.2</ele>
        <time>2023-05-27T08:41:58Z</time>
      </trkpt>
      <trkpt lat="43.36476" lon="1.85124">
        <ele>225.2</ele>
        <time>2023-05-27T08:41:59Z</time>
      </trkpt>
      <trkpt lat="43.36479" lon="1.85121">
        <ele>225</ele>
        <time>2023-05-27T08:42:00Z</time>
      </trkpt>
      <trkpt lat="43.36481" lon="1.85117">
        <ele>225</ele>
        <time>2023-05-27T08:42:01Z</time>
      </trkpt>
      <trkpt lat="43.36484" lon="1.85113">
        <ele>225</ele>
        <time>2023-05-27T08:42:02Z</time>
      </trkpt>
      <trkpt lat="43.36487" lon="1.8511">
        <ele>225</ele>
        <time>2023-05-27T08:42:03Z</time>
      </trkpt>
      <trkpt lat="43.3649" lon="1.85107">
        <ele>225</ele>
        <time>2023-05-27T08:42:04Z</time>
      </trkpt>
      <trkpt lat="43.36492" lon="1.85104">
        <ele>225</ele>
        <time>2023-05-27T08:42:05Z</time>
      </trkpt>
      <trkpt lat="43.36495" lon="1.85101">
        <ele>225</ele>
        <time>2023-05-27T08:42:06Z</time>
      </trkpt>
      <trkpt lat="43.36498" lon="1.85098">
        <ele>225</ele>
        <time>2023-05-27T08:42:07Z</time>
      </trkpt>
      <trkpt lat="43.36501" lon="1.85094">
        <ele>225</ele>
        <time>2023-05-27T08:42:08Z</time>
      </trkpt>
      <trkpt lat="43.36504" lon="1.85091">
        <ele>225</ele>
        <time>2023-05-27T08:42:09Z</time>
      </trkpt>
      <trkpt lat="43.36507" lon="1.85088">
        <ele>225</ele>
        <time>2023-05-27T08:42:10Z</time>
      </trkpt>
      <trkpt lat="43.3651" lon="1.85085">
        <ele>225</ele>
        <time>2023-05-27T08:42:11Z</time>
      </trkpt>
      <trkpt lat="43.36513" lon="1.85082">
        <ele>225</ele>
        <time>2023-05-27T08:42:12Z</time>
      </trkpt>
      <trkpt lat="43.36517" lon="1.85079">
        <ele>225</ele>
        <time>2023-05-27T08:42:13Z</time>
      </trkpt>
      <trkpt lat="43.3652" lon="1.85075">
        <ele>225</ele>
        <time>2023-05-27T08:42:14Z</time>
      </trkpt>
      <trkpt lat="43.36523" lon="1.85072">
        <ele>225</ele>
        <time>2023-05-27T08:42:15Z</time>
      </trkpt>
      <trkpt lat="43.36527" lon="1.85068">
        <ele>225</ele>
        <time>2023-05-27T08:42:16Z</time>
      </trkpt>
      <trkpt lat="43.3653" lon="1.85066">
        <ele>225</ele>
        <time>2023-05-27T08:42:17Z</time>
      </trkpt>
      <trkpt lat="43.36532" lon="1.85063">
        <ele>225</ele>
        <time>2023-05-27T08:42:18Z</time>
      </trkpt>
      <trkpt lat="43.36535" lon="1.8506">
        <ele>225</ele>
        <time>2023-05-27T08:42:19Z</time>
      </trkpt>
      <trkpt lat="43.36539" lon="1.85057">
        <ele>225</ele>
        <time>2023-05-27T08:42:20Z</time>
      </trkpt>
      <trkpt lat="43.36542" lon="1.85054">
        <ele>225</ele>
        <time>2023-05-27T08:42:21Z</time>
      </trkpt>
      <trkpt lat="43.36545" lon="1.85051">
        <ele>224.8</ele>
        <time>2023-05-27T08:42:22Z</time>
      </trkpt>
      <trkpt lat="43.36548" lon="1.85047">
        <ele>224.8</ele>
        <time>2023-05-27T08:42:23Z</time>
      </trkpt>
      <trkpt lat="43.3655" lon="1.85044">
        <ele>224.8</ele>
        <time>2023-05-27T08:42:24Z</time>
      </trkpt>
      <trkpt lat="43.36553" lon="1.8504">
        <ele>224.8</ele>
        <time>2023-05-27T08:42:25Z</time>
      </trkpt>
      <trkpt lat="43.36555" lon="1.85036">
        <ele>224.8</ele>
        <time>2023-05-27T08:42:26Z</time>
      </trkpt>
      <trkpt lat="43.36557" lon="1.85032">
        <ele>224.8</ele>
        <time>2023-05-27T08:42:27Z</time>
      </trkpt>
      <trkpt lat="43.36559" lon="1.85028">
        <ele>224.8</ele>
        <time>2023-05-27T08:42:28Z</time>
      </trkpt>
      <trkpt lat="43.36562" lon="1.85024">
        <ele>224.8</ele>
        <time>2023-05-27T08:42:29Z</time>
      </trkpt>
      <trkpt lat="43.36564" lon="1.85021">
        <ele>224.8</ele>
        <time>2023-05-27T08:42:30Z</time>
      </trkpt>
      <trkpt lat="43.36566" lon="1.85016">
        <ele>224.8</ele>
        <time>2023-05-27T08:42:31Z</time>
      </trkpt>
      <trkpt lat="43.36569" lon="1.85011">
        <ele>224.8</ele>
        <time>2023-05-27T08:42:32Z</time>
      </trkpt>
      <trkpt lat="43.36573" lon="1.85006">
        <ele>224.8</ele>
        <time>2023-05-27T08:42:33Z</time>
      </trkpt>
      <trkpt lat="43.36576" lon="1.85002">
        <ele>224.8</ele>
        <time>2023-05-27T08:42:34Z</time>
      </trkpt>
      <trkpt lat="43.36578" lon="1.84998">
        <ele>224.8</ele>
        <time>2023-05-27T08:42:35Z</time>
      </trkpt>
      <trkpt lat="43.3658" lon="1.84995">
        <ele>224.8</ele>
        <time>2023-05-27T08:42:36Z</time>
      </trkpt>
      <trkpt lat="43.36582" lon="1.84991">
        <ele>224.6</ele>
        <time>2023-05-27T08:42:37Z</time>
      </trkpt>
      <trkpt lat="43.36585" lon="1.84987">
        <ele>224.6</ele>
        <time>2023-05-27T08:42:38Z</time>
      </trkpt>
      <trkpt lat="43.36587" lon="1.84982">
        <ele>224.6</ele>
        <time>2023-05-27T08:42:39Z</time>
      </trkpt>
      <trkpt lat="43.36591" lon="1.84976">
        <ele>224.6</ele>
        <time>2023-05-27T08:42:40Z</time>
      </trkpt>
      <trkpt lat="43.36593" lon="1.8497">
        <ele>224.6</ele>
        <time>2023-05-27T08:42:41Z</time>
      </trkpt>
      <trkpt lat="43.36596" lon="1.84966">
        <ele>224.6</ele>
        <time>2023-05-27T08:42:42Z</time>
      </trkpt>
      <trkpt lat="43.36599" lon="1.84963">
        <ele>224.6</ele>
        <time>2023-05-27T08:42:43Z</time>
      </trkpt>
      <trkpt lat="43.36601" lon="1.84961">
        <ele>224.6</ele>
        <time>2023-05-27T08:42:44Z</time>
      </trkpt>
      <trkpt lat="43.36602" lon="1.84959">
        <ele>224.6</ele>
        <time>2023-05-27T08:42:45Z</time>
      </trkpt>
      <trkpt lat="43.36604" lon="1.84957">
        <ele>224.6</ele>
        <time>2023-05-27T08:42:46Z</time>
      </trkpt>
      <trkpt lat="43.36607" lon="1.84954">
        <ele>224.6</ele>
        <time>2023-05-27T08:42:47Z</time>
      </trkpt>
      <trkpt lat="43.36609" lon="1.84951">
        <ele>224.6</ele>
        <time>2023-05-27T08:42:48Z</time>
      </trkpt>
      <trkpt lat="43.36611" lon="1.84947">
        <ele>224.6</ele>
        <time>2023-05-27T08:42:49Z</time>
      </trkpt>
      <trkpt lat="43.36614" lon="1.84943">
        <ele>224.8</ele>
        <time>2023-05-27T08:42:50Z</time>
      </trkpt>
      <trkpt lat="43.36616" lon="1.8494">
        <ele>224.8</ele>
        <time>2023-05-27T08:42:51Z</time>
      </trkpt>
      <trkpt lat="43.36618" lon="1.84937">
        <ele>224.8</ele>
        <time>2023-05-27T08:42:52Z</time>
      </trkpt>
      <trkpt lat="43.36621" lon="1.84934">
        <ele>224.8</ele>
        <time>2023-05-27T08:42:53Z</time>
      </trkpt>
      <trkpt lat="43.36623" lon="1.84932">
        <ele>224.8</ele>
        <time>2023-05-27T08:42:54Z</time>
      </trkpt>
      <trkpt lat="43.36625" lon="1.84929">
        <ele>224.8</ele>
        <time>2023-05-27T08:42:55Z</time>
      </trkpt>
      <trkpt lat="43.36628" lon="1.84926">
        <ele>224.8</ele>
        <time>2023-05-27T08:42:56Z</time>
      </trkpt>
      <trkpt lat="43.36631" lon="1.84923">
        <ele>224.8</ele>
        <time>2023-05-27T08:42:57Z</time>
      </trkpt>
      <trkpt lat="43.36634" lon="1.8492">
        <ele>224.8</ele>
        <time>2023-05-27T08:42:58Z</time>
      </trkpt>
      <trkpt lat="43.36638" lon="1.84916">
        <ele>224.8</ele>
        <time>2023-05-27T08:42:59Z</time>
      </trkpt>
      <trkpt lat="43.36641" lon="1.84912">
        <ele>224.8</ele>
        <time>2023-05-27T08:43:00Z</time>
      </trkpt>
      <trkpt lat="43.36644" lon="1.84909">
        <ele>224.8</ele>
        <time>2023-05-27T08:43:01Z</time>
      </trkpt>
      <trkpt lat="43.36648" lon="1.84906">
        <ele>224.8</ele>
        <time>2023-05-27T08:43:02Z</time>
      </trkpt>
      <trkpt lat="43.36651" lon="1.84902">
        <ele>224.8</ele>
        <time>2023-05-27T08:43:03Z</time>
      </trkpt>
      <trkpt lat="43.36654" lon="1.84897">
        <ele>224.8</ele>
        <time>2023-05-27T08:43:04Z</time>
      </trkpt>
      <trkpt lat="43.36657" lon="1.84893">
        <ele>224.8</ele>
        <time>2023-05-27T08:43:05Z</time>
      </trkpt>
      <trkpt lat="43.3666" lon="1.84889">
        <ele>224.8</ele>
        <time>2023-05-27T08:43:06Z</time>
      </trkpt>
      <trkpt lat="43.36663" lon="1.84886">
        <ele>224.8</ele>
        <time>2023-05-27T08:43:07Z</time>
      </trkpt>
      <trkpt lat="43.36665" lon="1.84882">
        <ele>224.8</ele>
        <time>2023-05-27T08:43:08Z</time>
      </trkpt>
      <trkpt lat="43.36668" lon="1.8488">
        <ele>224.6</ele>
        <time>2023-05-27T08:43:09Z</time>
      </trkpt>
      <trkpt lat="43.3667" lon="1.84879">
        <ele>224.6</ele>
        <time>2023-05-27T08:43:10Z</time>
      </trkpt>
      <trkpt lat="43.36673" lon="1.84879">
        <ele>224.6</ele>
        <time>2023-05-27T08:43:11Z</time>
      </trkpt>
      <trkpt lat="43.36676" lon="1.84881">
        <ele>224.6</ele>
        <time>2023-05-27T08:43:12Z</time>
      </trkpt>
      <trkpt lat="43.36678" lon="1.84882">
        <ele>224.6</ele>
        <time>2023-05-27T08:43:13Z</time>
      </trkpt>
      <trkpt lat="43.36679" lon="1.84885">
        <ele>224.8</ele>
        <time>2023-05-27T08:43:14Z</time>
      </trkpt>
      <trkpt lat="43.36679" lon="1.84888">
        <ele>224.8</ele>
        <time>2023-05-27T08:43:15Z</time>
      </trkpt>
      <trkpt lat="43.36679" lon="1.84892">
        <ele>224.8</ele>
        <time>2023-05-27T08:43:16Z</time>
      </trkpt>
      <trkpt lat="43.36679" lon="1.84896">
        <ele>224.8</ele>
        <time>2023-05-27T08:43:17Z</time>
      </trkpt>
      <trkpt lat="43.36679" lon="1.849">
        <ele>224.8</ele>
        <time>2023-05-27T08:43:18Z</time>
      </trkpt>
      <trkpt lat="43.36678" lon="1.84903">
        <ele>224.8</ele>
        <time>2023-05-27T08:43:19Z</time>
      </trkpt>
      <trkpt lat="43.36677" lon="1.84906">
        <ele>225</ele>
        <time>2023-05-27T08:43:20Z</time>
      </trkpt>
      <trkpt lat="43.36677" lon="1.84909">
        <ele>225</ele>
        <time>2023-05-27T08:43:21Z</time>
      </trkpt>
      <trkpt lat="43.36676" lon="1.84913">
        <ele>225</ele>
        <time>2023-05-27T08:43:22Z</time>
      </trkpt>
      <trkpt lat="43.36674" lon="1.84917">
        <ele>225</ele>
        <time>2023-05-27T08:43:23Z</time>
      </trkpt>
      <trkpt lat="43.36674" lon="1.8492">
        <ele>225</ele>
        <time>2023-05-27T08:43:24Z</time>
      </trkpt>
      <trkpt lat="43.36674" lon="1.84924">
        <ele>225.2</ele>
        <time>2023-05-27T08:43:25Z</time>
      </trkpt>
      <trkpt lat="43.36674" lon="1.84928">
        <ele>225.2</ele>
        <time>2023-05-27T08:43:26Z</time>
      </trkpt>
      <trkpt lat="43.36674" lon="1.84932">
        <ele>225.2</ele>
        <time>2023-05-27T08:43:27Z</time>
      </trkpt>
      <trkpt lat="43.36674" lon="1.84936">
        <ele>225.2</ele>
        <time>2023-05-27T08:43:28Z</time>
      </trkpt>
      <trkpt lat="43.36675" lon="1.8494">
        <ele>225.4</ele>
        <time>2023-05-27T08:43:29Z</time>
      </trkpt>
      <trkpt lat="43.36675" lon="1.84945">
        <ele>225.4</ele>
        <time>2023-05-27T08:43:30Z</time>
      </trkpt>
      <trkpt lat="43.36674" lon="1.8495">
        <ele>225.4</ele>
        <time>2023-05-27T08:43:31Z</time>
      </trkpt>
      <trkpt lat="43.36673" lon="1.84954">
        <ele>225.4</ele>
        <time>2023-05-27T08:43:32Z</time>
      </trkpt>
      <trkpt lat="43.36672" lon="1.84958">
        <ele>225.4</ele>
        <time>2023-05-27T08:43:33Z</time>
      </trkpt>
      <trkpt lat="43.3667" lon="1.84962">
        <ele>225.4</ele>
        <time>2023-05-27T08:43:34Z</time>
      </trkpt>
      <trkpt lat="43.36669" lon="1.84967">
        <ele>225.4</ele>
        <time>2023-05-27T08:43:35Z</time>
      </trkpt>
      <trkpt lat="43.36669" lon="1.84973">
        <ele>225.4</ele>
        <time>2023-05-27T08:43:36Z</time>
      </trkpt>
      <trkpt lat="43.36669" lon="1.8498">
        <ele>225.4</ele>
        <time>2023-05-27T08:43:37Z</time>
      </trkpt>
      <trkpt lat="43.36669" lon="1.84987">
        <ele>225.4</ele>
        <time>2023-05-27T08:43:38Z</time>
      </trkpt>
      <trkpt lat="43.36668" lon="1.84993">
        <ele>225.4</ele>
        <time>2023-05-27T08:43:39Z</time>
      </trkpt>
      <trkpt lat="43.36668" lon="1.84999">
        <ele>225.4</ele>
        <time>2023-05-27T08:43:40Z</time>
      </trkpt>
      <trkpt lat="43.36668" lon="1.85005">
        <ele>225.4</ele>
        <time>2023-05-27T08:43:41Z</time>
      </trkpt>
      <trkpt lat="43.36669" lon="1.85009">
        <ele>225.4</ele>
        <time>2023-05-27T08:43:42Z</time>
      </trkpt>
      <trkpt lat="43.3667" lon="1.85013">
        <ele>225.6</ele>
        <time>2023-05-27T08:43:43Z</time>
      </trkpt>
      <trkpt lat="43.36671" lon="1.85017">
        <ele>225.6</ele>
        <time>2023-05-27T08:43:44Z</time>
      </trkpt>
      <trkpt lat="43.36672" lon="1.85021">
        <ele>225.6</ele>
        <time>2023-05-27T08:43:45Z</time>
      </trkpt>
      <trkpt lat="43.36674" lon="1.85024">
        <ele>225.8</ele>
        <time>2023-05-27T08:43:46Z</time>
      </trkpt>
      <trkpt lat="43.36675" lon="1.85026">
        <ele>225.8</ele>
        <time>2023-05-27T08:43:47Z</time>
      </trkpt>
      <trkpt lat="43.36677" lon="1.85028">
        <ele>226</ele>
        <time>2023-05-27T08:43:48Z</time>
      </trkpt>
      <trkpt lat="43.36678" lon="1.8503">
        <ele>226</ele>
        <time>2023-05-27T08:43:49Z</time>
      </trkpt>
      <trkpt lat="43.36679" lon="1.85033">
        <ele>226.2</ele>
        <time>2023-05-27T08:43:50Z</time>
      </trkpt>
      <trkpt lat="43.3668" lon="1.85034">
        <ele>226.4</ele>
        <time>2023-05-27T08:43:51Z</time>
      </trkpt>
      <trkpt lat="43.36682" lon="1.85036">
        <ele>226.4</ele>
        <time>2023-05-27T08:43:52Z</time>
      </trkpt>
      <trkpt lat="43.36683" lon="1.85038">
        <ele>226.6</ele>
        <time>2023-05-27T08:43:53Z</time>
      </trkpt>
      <trkpt lat="43.36684" lon="1.8504">
        <ele>226.8</ele>
        <time>2023-05-27T08:43:54Z</time>
      </trkpt>
      <trkpt lat="43.36685" lon="1.85042">
        <ele>226.8</ele>
        <time>2023-05-27T08:43:55Z</time>
      </trkpt>
      <trkpt lat="43.36687" lon="1.85044">
        <ele>226.8</ele>
        <time>2023-05-27T08:43:56Z</time>
      </trkpt>
      <trkpt lat="43.36689" lon="1.85045">
        <ele>227</ele>
        <time>2023-05-27T08:43:57Z</time>
      </trkpt>
      <trkpt lat="43.3669" lon="1.85046">
        <ele>227</ele>
        <time>2023-05-27T08:43:58Z</time>
      </trkpt>
      <trkpt lat="43.36691" lon="1.85047">
        <ele>227</ele>
        <time>2023-05-27T08:43:59Z</time>
      </trkpt>
      <trkpt lat="43.36693" lon="1.85048">
        <ele>227.2</ele>
        <time>2023-05-27T08:44:00Z</time>
      </trkpt>
      <trkpt lat="43.36694" lon="1.85049">
        <ele>227.2</ele>
        <time>2023-05-27T08:44:01Z</time>
      </trkpt>
      <trkpt lat="43.36696" lon="1.8505">
        <ele>227.2</ele>
        <time>2023-05-27T08:44:02Z</time>
      </trkpt>
      <trkpt lat="43.36697" lon="1.85051">
        <ele>227.2</ele>
        <time>2023-05-27T08:44:03Z</time>
      </trkpt>
      <trkpt lat="43.36699" lon="1.85052">
        <ele>227.2</ele>
        <time>2023-05-27T08:44:04Z</time>
      </trkpt>
      <trkpt lat="43.367" lon="1.85054">
        <ele>227.4</ele>
        <time>2023-05-27T08:44:05Z</time>
      </trkpt>
      <trkpt lat="43.36702" lon="1.85055">
        <ele>227.4</ele>
        <time>2023-05-27T08:44:06Z</time>
      </trkpt>
      <trkpt lat="43.36704" lon="1.85057">
        <ele>227.4</ele>
        <time>2023-05-27T08:44:07Z</time>
      </trkpt>
      <trkpt lat="43.36706" lon="1.85058">
        <ele>227.4</ele>
        <time>2023-05-27T08:44:08Z</time>
      </trkpt>
      <trkpt lat="43.36708" lon="1.8506">
        <ele>227.4</ele>
        <time>2023-05-27T08:44:09Z</time>
      </trkpt>
      <trkpt lat="43.36709" lon="1.85061">
        <ele>227.6</ele>
        <time>2023-05-27T08:44:10Z</time>
      </trkpt>
      <trkpt lat="43.36711" lon="1.85063">
        <ele>227.6</ele>
        <time>2023-05-27T08:44:11Z</time>
      </trkpt>
      <trkpt lat="43.36713" lon="1.85064">
        <ele>227.6</ele>
        <time>2023-05-27T08:44:12Z</time>
      </trkpt>
      <trkpt lat="43.36715" lon="1.85066">
        <ele>227.6</ele>
        <time>2023-05-27T08:44:13Z</time>
      </trkpt>
      <trkpt lat="43.36717" lon="1.85068">
        <ele>227.6</ele>
        <time>2023-05-27T08:44:14Z</time>
      </trkpt>
      <trkpt lat="43.36719" lon="1.85069">
        <ele>227.6</ele>
        <time>2023-05-27T08:44:15Z</time>
      </trkpt>
      <trkpt lat="43.36721" lon="1.8507">
        <ele>227.6</ele>
        <time>2023-05-27T08:44:16Z</time>
      </trkpt>
      <trkpt lat="43.36723" lon="1.85072">
        <ele>227.6</ele>
        <time>2023-05-27T08:44:17Z</time>
      </trkpt>
      <trkpt lat="43.36725" lon="1.85074">
        <ele>227.6</ele>
        <time>2023-05-27T08:44:18Z</time>
      </trkpt>
      <trkpt lat="43.36728" lon="1.85076">
        <ele>227.6</ele>
        <time>2023-05-27T08:44:19Z</time>
      </trkpt>
      <trkpt lat="43.36731" lon="1.85078">
        <ele>227.6</ele>
        <time>2023-05-27T08:44:20Z</time>
      </trkpt>
      <trkpt lat="43.36735" lon="1.8508">
        <ele>227.6</ele>
        <time>2023-05-27T08:44:21Z</time>
      </trkpt>
      <trkpt lat="43.36739" lon="1.85081">
        <ele>227.6</ele>
        <time>2023-05-27T08:44:22Z</time>
      </trkpt>
      <trkpt lat="43.36742" lon="1.85082">
        <ele>227.4</ele>
        <time>2023-05-27T08:44:23Z</time>
      </trkpt>
      <trkpt lat="43.36746" lon="1.85084">
        <ele>227.2</ele>
        <time>2023-05-27T08:44:24Z</time>
      </trkpt>
      <trkpt lat="43.36751" lon="1.85086">
        <ele>227.2</ele>
        <time>2023-05-27T08:44:25Z</time>
      </trkpt>
      <trkpt lat="43.36755" lon="1.85087">
        <ele>227</ele>
        <time>2023-05-27T08:44:26Z</time>
      </trkpt>
      <trkpt lat="43.36759" lon="1.85089">
        <ele>226.8</ele>
        <time>2023-05-27T08:44:27Z</time>
      </trkpt>
      <trkpt lat="43.36762" lon="1.8509">
        <ele>226.8</ele>
        <time>2023-05-27T08:44:28Z</time>
      </trkpt>
      <trkpt lat="43.36766" lon="1.85091">
        <ele>226.6</ele>
        <time>2023-05-27T08:44:29Z</time>
      </trkpt>
      <trkpt lat="43.36769" lon="1.85092">
        <ele>226.6</ele>
        <time>2023-05-27T08:44:30Z</time>
      </trkpt>
      <trkpt lat="43.36771" lon="1.85093">
        <ele>226.4</ele>
        <time>2023-05-27T08:44:31Z</time>
      </trkpt>
      <trkpt lat="43.36774" lon="1.85093">
        <ele>226.4</ele>
        <time>2023-05-27T08:44:32Z</time>
      </trkpt>
      <trkpt lat="43.36778" lon="1.85095">
        <ele>226.4</ele>
        <time>2023-05-27T08:44:33Z</time>
      </trkpt>
      <trkpt lat="43.36783" lon="1.85098">
        <ele>226.2</ele>
        <time>2023-05-27T08:44:34Z</time>
      </trkpt>
      <trkpt lat="43.36787" lon="1.85101">
        <ele>226.2</ele>
        <time>2023-05-27T08:44:35Z</time>
      </trkpt>
      <trkpt lat="43.36791" lon="1.85105">
        <ele>226.2</ele>
        <time>2023-05-27T08:44:36Z</time>
      </trkpt>
      <trkpt lat="43.36795" lon="1.85108">
        <ele>226.2</ele>
        <time>2023-05-27T08:44:37Z</time>
      </trkpt>
      <trkpt lat="43.36799" lon="1.85112">
        <ele>226.2</ele>
        <time>2023-05-27T08:44:38Z</time>
      </trkpt>
      <trkpt lat="43.36803" lon="1.85116">
        <ele>226.2</ele>
        <time>2023-05-27T08:44:39Z</time>
      </trkpt>
      <trkpt lat="43.36805" lon="1.85119">
        <ele>226.2</ele>
        <time>2023-05-27T08:44:40Z</time>
      </trkpt>
      <trkpt lat="43.36807" lon="1.85122">
        <ele>226.2</ele>
        <time>2023-05-27T08:44:41Z</time>
      </trkpt>
      <trkpt lat="43.3681" lon="1.85126">
        <ele>226.2</ele>
        <time>2023-05-27T08:44:42Z</time>
      </trkpt>
      <trkpt lat="43.36813" lon="1.85131">
        <ele>226.2</ele>
        <time>2023-05-27T08:44:43Z</time>
      </trkpt>
      <trkpt lat="43.36815" lon="1.85137">
        <ele>226.2</ele>
        <time>2023-05-27T08:44:44Z</time>
      </trkpt>
      <trkpt lat="43.36818" lon="1.85142">
        <ele>226.2</ele>
        <time>2023-05-27T08:44:45Z</time>
      </trkpt>
      <trkpt lat="43.36821" lon="1.85148">
        <ele>226.2</ele>
        <time>2023-05-27T08:44:46Z</time>
      </trkpt>
      <trkpt lat="43.36823" lon="1.85155">
        <ele>226.2</ele>
        <time>2023-05-27T08:44:47Z</time>
      </trkpt>
      <trkpt lat="43.36823" lon="1.8516">
        <ele>226.2</ele>
        <time>2023-05-27T08:44:48Z</time>
      </trkpt>
      <trkpt lat="43.36824" lon="1.85164">
        <ele>226.2</ele>
        <time>2023-05-27T08:44:49Z</time>
      </trkpt>
      <trkpt lat="43.36825" lon="1.85169">
        <ele>226</ele>
        <time>2023-05-27T08:44:50Z</time>
      </trkpt>
      <trkpt lat="43.36824" lon="1.85175">
        <ele>226</ele>
        <time>2023-05-27T08:44:51Z</time>
      </trkpt>
      <trkpt lat="43.36824" lon="1.85181">
        <ele>226</ele>
        <time>2023-05-27T08:44:52Z</time>
      </trkpt>
      <trkpt lat="43.36824" lon="1.85187">
        <ele>226</ele>
        <time>2023-05-27T08:44:53Z</time>
      </trkpt>
      <trkpt lat="43.36825" lon="1.85193">
        <ele>226</ele>
        <time>2023-05-27T08:44:54Z</time>
      </trkpt>
      <trkpt lat="43.36825" lon="1.85198">
        <ele>226</ele>
        <time>2023-05-27T08:44:55Z</time>
      </trkpt>
      <trkpt lat="43.36826" lon="1.85202">
        <ele>226</ele>
        <time>2023-05-27T08:44:56Z</time>
      </trkpt>
      <trkpt lat="43.36826" lon="1.85207">
        <ele>226</ele>
        <time>2023-05-27T08:44:57Z</time>
      </trkpt>
      <trkpt lat="43.36826" lon="1.85211">
        <ele>226</ele>
        <time>2023-05-27T08:44:58Z</time>
      </trkpt>
      <trkpt lat="43.36827" lon="1.85215">
        <ele>225.8</ele>
        <time>2023-05-27T08:44:59Z</time>
      </trkpt>
      <trkpt lat="43.36827" lon="1.85219">
        <ele>225.8</ele>
        <time>2023-05-27T08:45:00Z</time>
      </trkpt>
      <trkpt lat="43.36827" lon="1.85223">
        <ele>225.8</ele>
        <time>2023-05-27T08:45:01Z</time>
      </trkpt>
      <trkpt lat="43.36828" lon="1.85227">
        <ele>225.8</ele>
        <time>2023-05-27T08:45:02Z</time>
      </trkpt>
      <trkpt lat="43.36828" lon="1.85231">
        <ele>226</ele>
        <time>2023-05-27T08:45:03Z</time>
      </trkpt>
      <trkpt lat="43.36828" lon="1.85235">
        <ele>226</ele>
        <time>2023-05-27T08:45:04Z</time>
      </trkpt>
      <trkpt lat="43.36829" lon="1.85239">
        <ele>226</ele>
        <time>2023-05-27T08:45:05Z</time>
      </trkpt>
      <trkpt lat="43.36829" lon="1.85243">
        <ele>226</ele>
        <time>2023-05-27T08:45:06Z</time>
      </trkpt>
      <trkpt lat="43.36829" lon="1.85246">
        <ele>226</ele>
        <time>2023-05-27T08:45:07Z</time>
      </trkpt>
      <trkpt lat="43.36829" lon="1.8525">
        <ele>226</ele>
        <time>2023-05-27T08:45:08Z</time>
      </trkpt>
      <trkpt lat="43.36829" lon="1.85254">
        <ele>226.2</ele>
        <time>2023-05-27T08:45:09Z</time>
      </trkpt>
      <trkpt lat="43.3683" lon="1.8526">
        <ele>226.2</ele>
        <time>2023-05-27T08:45:10Z</time>
      </trkpt>
      <trkpt lat="43.36831" lon="1.85265">
        <ele>226.2</ele>
        <time>2023-05-27T08:45:11Z</time>
      </trkpt>
      <trkpt lat="43.36832" lon="1.8527">
        <ele>226.2</ele>
        <time>2023-05-27T08:45:12Z</time>
      </trkpt>
      <trkpt lat="43.36834" lon="1.85275">
        <ele>226.2</ele>
        <time>2023-05-27T08:45:13Z</time>
      </trkpt>
      <trkpt lat="43.36834" lon="1.85279">
        <ele>226.2</ele>
        <time>2023-05-27T08:45:14Z</time>
      </trkpt>
      <trkpt lat="43.36833" lon="1.85283">
        <ele>226.4</ele>
        <time>2023-05-27T08:45:15Z</time>
      </trkpt>
      <trkpt lat="43.36833" lon="1.85287">
        <ele>226.4</ele>
        <time>2023-05-27T08:45:16Z</time>
      </trkpt>
      <trkpt lat="43.36832" lon="1.85291">
        <ele>226.4</ele>
        <time>2023-05-27T08:45:17Z</time>
      </trkpt>
      <trkpt lat="43.36831" lon="1.85296">
        <ele>226.4</ele>
        <time>2023-05-27T08:45:18Z</time>
      </trkpt>
      <trkpt lat="43.3683" lon="1.85301">
        <ele>226.4</ele>
        <time>2023-05-27T08:45:19Z</time>
      </trkpt>
      <trkpt lat="43.36828" lon="1.85306">
        <ele>226.4</ele>
        <time>2023-05-27T08:45:20Z</time>
      </trkpt>
      <trkpt lat="43.36827" lon="1.85311">
        <ele>226.4</ele>
        <time>2023-05-27T08:45:21Z</time>
      </trkpt>
      <trkpt lat="43.36826" lon="1.85314">
        <ele>226.4</ele>
        <time>2023-05-27T08:45:22Z</time>
      </trkpt>
      <trkpt lat="43.36826" lon="1.85319">
        <ele>226.4</ele>
        <time>2023-05-27T08:45:23Z</time>
      </trkpt>
      <trkpt lat="43.36825" lon="1.85324">
        <ele>226.4</ele>
        <time>2023-05-27T08:45:24Z</time>
      </trkpt>
      <trkpt lat="43.36824" lon="1.85328">
        <ele>226.4</ele>
        <time>2023-05-27T08:45:25Z</time>
      </trkpt>
      <trkpt lat="43.36823" lon="1.85333">
        <ele>226.4</ele>
        <time>2023-05-27T08:45:26Z</time>
      </trkpt>
      <trkpt lat="43.36822" lon="1.85339">
        <ele>226.4</ele>
        <time>2023-05-27T08:45:27Z</time>
      </trkpt>
      <trkpt lat="43.3682" lon="1.85345">
        <ele>226.4</ele>
        <time>2023-05-27T08:45:28Z</time>
      </trkpt>
      <trkpt lat="43.36818" lon="1.85351">
        <ele>226.4</ele>
        <time>2023-05-27T08:45:29Z</time>
      </trkpt>
      <trkpt lat="43.36815" lon="1.85354">
        <ele>226.4</ele>
        <time>2023-05-27T08:45:30Z</time>
      </trkpt>
      <trkpt lat="43.36812" lon="1.85359">
        <ele>226.2</ele>
        <time>2023-05-27T08:45:31Z</time>
      </trkpt>
      <trkpt lat="43.36811" lon="1.85364">
        <ele>226.2</ele>
        <time>2023-05-27T08:45:32Z</time>
      </trkpt>
      <trkpt lat="43.36812" lon="1.85369">
        <ele>226.4</ele>
        <time>2023-05-27T08:45:33Z</time>
      </trkpt>
      <trkpt lat="43.36812" lon="1.85373">
        <ele>226.4</ele>
        <time>2023-05-27T08:45:34Z</time>
      </trkpt>
      <trkpt lat="43.3681" lon="1.85378">
        <ele>226.4</ele>
        <time>2023-05-27T08:45:35Z</time>
      </trkpt>
      <trkpt lat="43.36809" lon="1.85383">
        <ele>226.4</ele>
        <time>2023-05-27T08:45:36Z</time>
      </trkpt>
      <trkpt lat="43.36808" lon="1.85388">
        <ele>226.4</ele>
        <time>2023-05-27T08:45:37Z</time>
      </trkpt>
      <trkpt lat="43.36807" lon="1.85395">
        <ele>226.4</ele>
        <time>2023-05-27T08:45:38Z</time>
      </trkpt>
      <trkpt lat="43.36806" lon="1.85403">
        <ele>226.4</ele>
        <time>2023-05-27T08:45:39Z</time>
      </trkpt>
      <trkpt lat="43.36804" lon="1.85408">
        <ele>226.4</ele>
        <time>2023-05-27T08:45:40Z</time>
      </trkpt>
      <trkpt lat="43.36804" lon="1.85412">
        <ele>226.6</ele>
        <time>2023-05-27T08:45:41Z</time>
      </trkpt>
      <trkpt lat="43.36804" lon="1.85416">
        <ele>226.6</ele>
        <time>2023-05-27T08:45:42Z</time>
      </trkpt>
      <trkpt lat="43.36804" lon="1.85422">
        <ele>226.6</ele>
        <time>2023-05-27T08:45:43Z</time>
      </trkpt>
      <trkpt lat="43.36803" lon="1.85429">
        <ele>226.6</ele>
        <time>2023-05-27T08:45:44Z</time>
      </trkpt>
      <trkpt lat="43.36803" lon="1.85434">
        <ele>226.6</ele>
        <time>2023-05-27T08:45:45Z</time>
      </trkpt>
      <trkpt lat="43.36803" lon="1.85439">
        <ele>226.8</ele>
        <time>2023-05-27T08:45:46Z</time>
      </trkpt>
      <trkpt lat="43.36803" lon="1.85444">
        <ele>226.8</ele>
        <time>2023-05-27T08:45:47Z</time>
      </trkpt>
      <trkpt lat="43.36803" lon="1.85448">
        <ele>226.8</ele>
        <time>2023-05-27T08:45:48Z</time>
      </trkpt>
      <trkpt lat="43.36803" lon="1.85452">
        <ele>227</ele>
        <time>2023-05-27T08:45:49Z</time>
      </trkpt>
      <trkpt lat="43.36803" lon="1.85455">
        <ele>227</ele>
        <time>2023-05-27T08:45:50Z</time>
      </trkpt>
      <trkpt lat="43.36803" lon="1.85458">
        <ele>227</ele>
        <time>2023-05-27T08:45:51Z</time>
      </trkpt>
      <trkpt lat="43.36802" lon="1.85462">
        <ele>227.2</ele>
        <time>2023-05-27T08:45:52Z</time>
      </trkpt>
      <trkpt lat="43.36802" lon="1.85465">
        <ele>227.2</ele>
        <time>2023-05-27T08:45:53Z</time>
      </trkpt>
      <trkpt lat="43.36803" lon="1.85468">
        <ele>227.4</ele>
        <time>2023-05-27T08:45:54Z</time>
      </trkpt>
      <trkpt lat="43.36804" lon="1.85471">
        <ele>227.4</ele>
        <time>2023-05-27T08:45:55Z</time>
      </trkpt>
      <trkpt lat="43.36804" lon="1.85473">
        <ele>227.4</ele>
        <time>2023-05-27T08:45:56Z</time>
      </trkpt>
      <trkpt lat="43.36804" lon="1.85475">
        <ele>227.6</ele>
        <time>2023-05-27T08:45:57Z</time>
      </trkpt>
      <trkpt lat="43.36804" lon="1.85478">
        <ele>227.6</ele>
        <time>2023-05-27T08:45:58Z</time>
      </trkpt>
      <trkpt lat="43.36804" lon="1.85482">
        <ele>227.6</ele>
        <time>2023-05-27T08:45:59Z</time>
      </trkpt>
      <trkpt lat="43.36804" lon="1.85486">
        <ele>227.6</ele>
        <time>2023-05-27T08:46:00Z</time>
      </trkpt>
      <trkpt lat="43.36804" lon="1.8549">
        <ele>227.6</ele>
        <time>2023-05-27T08:46:01Z</time>
      </trkpt>
      <trkpt lat="43.36804" lon="1.85494">
        <ele>227.6</ele>
        <time>2023-05-27T08:46:02Z</time>
      </trkpt>
      <trkpt lat="43.36805" lon="1.85497">
        <ele>227.6</ele>
        <time>2023-05-27T08:46:03Z</time>
      </trkpt>
      <trkpt lat="43.36805" lon="1.855">
        <ele>227.6</ele>
        <time>2023-05-27T08:46:04Z</time>
      </trkpt>
      <trkpt lat="43.36806" lon="1.85503">
        <ele>227.6</ele>
        <time>2023-05-27T08:46:05Z</time>
      </trkpt>
      <trkpt lat="43.36806" lon="1.85506">
        <ele>227.6</ele>
        <time>2023-05-27T08:46:06Z</time>
      </trkpt>
      <trkpt lat="43.36806" lon="1.8551">
        <ele>227.8</ele>
        <time>2023-05-27T08:46:07Z</time>
      </trkpt>
      <trkpt lat="43.36807" lon="1.85514">
        <ele>227.8</ele>
        <time>2023-05-27T08:46:08Z</time>
      </trkpt>
      <trkpt lat="43.36808" lon="1.85517">
        <ele>227.8</ele>
        <time>2023-05-27T08:46:09Z</time>
      </trkpt>
      <trkpt lat="43.36809" lon="1.85521">
        <ele>227.8</ele>
        <time>2023-05-27T08:46:10Z</time>
      </trkpt>
      <trkpt lat="43.3681" lon="1.85524">
        <ele>227.6</ele>
        <time>2023-05-27T08:46:11Z</time>
      </trkpt>
      <trkpt lat="43.36811" lon="1.85529">
        <ele>227.6</ele>
        <time>2023-05-27T08:46:12Z</time>
      </trkpt>
      <trkpt lat="43.36812" lon="1.85533">
        <ele>227.8</ele>
        <time>2023-05-27T08:46:13Z</time>
      </trkpt>
      <trkpt lat="43.36814" lon="1.85537">
        <ele>227.8</ele>
        <time>2023-05-27T08:46:14Z</time>
      </trkpt>
      <trkpt lat="43.36815" lon="1.8554">
        <ele>227.8</ele>
        <time>2023-05-27T08:46:15Z</time>
      </trkpt>
      <trkpt lat="43.36816" lon="1.85544">
        <ele>227.8</ele>
        <time>2023-05-27T08:46:16Z</time>
      </trkpt>
      <trkpt lat="43.36818" lon="1.85548">
        <ele>227.8</ele>
        <time>2023-05-27T08:46:17Z</time>
      </trkpt>
      <trkpt lat="43.36818" lon="1.85552">
        <ele>228</ele>
        <time>2023-05-27T08:46:18Z</time>
      </trkpt>
      <trkpt lat="43.36819" lon="1.85555">
        <ele>228</ele>
        <time>2023-05-27T08:46:19Z</time>
      </trkpt>
      <trkpt lat="43.36821" lon="1.85559">
        <ele>228</ele>
        <time>2023-05-27T08:46:20Z</time>
      </trkpt>
      <trkpt lat="43.36822" lon="1.85563">
        <ele>228</ele>
        <time>2023-05-27T08:46:21Z</time>
      </trkpt>
      <trkpt lat="43.36824" lon="1.85567">
        <ele>228</ele>
        <time>2023-05-27T08:46:22Z</time>
      </trkpt>
      <trkpt lat="43.36827" lon="1.8557">
        <ele>228</ele>
        <time>2023-05-27T08:46:23Z</time>
      </trkpt>
      <trkpt lat="43.36829" lon="1.85574">
        <ele>228</ele>
        <time>2023-05-27T08:46:24Z</time>
      </trkpt>
      <trkpt lat="43.36831" lon="1.85578">
        <ele>228</ele>
        <time>2023-05-27T08:46:25Z</time>
      </trkpt>
      <trkpt lat="43.36833" lon="1.85581">
        <ele>227.8</ele>
        <time>2023-05-27T08:46:26Z</time>
      </trkpt>
      <trkpt lat="43.36835" lon="1.85584">
        <ele>227.8</ele>
        <time>2023-05-27T08:46:27Z</time>
      </trkpt>
      <trkpt lat="43.36837" lon="1.85588">
        <ele>227.8</ele>
        <time>2023-05-27T08:46:28Z</time>
      </trkpt>
      <trkpt lat="43.36839" lon="1.85592">
        <ele>228</ele>
        <time>2023-05-27T08:46:29Z</time>
      </trkpt>
      <trkpt lat="43.36841" lon="1.85595">
        <ele>228</ele>
        <time>2023-05-27T08:46:30Z</time>
      </trkpt>
      <trkpt lat="43.36843" lon="1.85598">
        <ele>228</ele>
        <time>2023-05-27T08:46:31Z</time>
      </trkpt>
      <trkpt lat="43.36846" lon="1.85601">
        <ele>228</ele>
        <time>2023-05-27T08:46:32Z</time>
      </trkpt>
      <trkpt lat="43.3685" lon="1.85605">
        <ele>228</ele>
        <time>2023-05-27T08:46:33Z</time>
      </trkpt>
      <trkpt lat="43.36853" lon="1.85608">
        <ele>227.8</ele>
        <time>2023-05-27T08:46:34Z</time>
      </trkpt>
      <trkpt lat="43.36854" lon="1.85611">
        <ele>227.8</ele>
        <time>2023-05-27T08:46:35Z</time>
      </trkpt>
      <trkpt lat="43.36856" lon="1.85613">
        <ele>227.8</ele>
        <time>2023-05-27T08:46:36Z</time>
      </trkpt>
      <trkpt lat="43.36858" lon="1.85615">
        <ele>227.8</ele>
        <time>2023-05-27T08:46:37Z</time>
      </trkpt>
      <trkpt lat="43.36862" lon="1.85616">
        <ele>227.8</ele>
        <time>2023-05-27T08:46:38Z</time>
      </trkpt>
      <trkpt lat="43.36866" lon="1.85616">
        <ele>227.8</ele>
        <time>2023-05-27T08:46:39Z</time>
      </trkpt>
      <trkpt lat="43.3687" lon="1.85616">
        <ele>227.8</ele>
        <time>2023-05-27T08:46:40Z</time>
      </trkpt>
      <trkpt lat="43.36873" lon="1.85616">
        <ele>227.8</ele>
        <time>2023-05-27T08:46:41Z</time>
      </trkpt>
      <trkpt lat="43.36876" lon="1.85616">
        <ele>227.8</ele>
        <time>2023-05-27T08:46:42Z</time>
      </trkpt>
      <trkpt lat="43.3688" lon="1.85614">
        <ele>227.8</ele>
        <time>2023-05-27T08:46:43Z</time>
      </trkpt>
      <trkpt lat="43.36884" lon="1.85613">
        <ele>227.6</ele>
        <time>2023-05-27T08:46:44Z</time>
      </trkpt>
      <trkpt lat="43.36887" lon="1.85611">
        <ele>227.6</ele>
        <time>2023-05-27T08:46:45Z</time>
      </trkpt>
      <trkpt lat="43.36891" lon="1.8561">
        <ele>227.6</ele>
        <time>2023-05-27T08:46:46Z</time>
      </trkpt>
      <trkpt lat="43.36894" lon="1.85609">
        <ele>227.6</ele>
        <time>2023-05-27T08:46:47Z</time>
      </trkpt>
      <trkpt lat="43.36896" lon="1.85607">
        <ele>227.6</ele>
        <time>2023-05-27T08:46:48Z</time>
      </trkpt>
      <trkpt lat="43.36899" lon="1.85605">
        <ele>227.6</ele>
        <time>2023-05-27T08:46:49Z</time>
      </trkpt>
      <trkpt lat="43.36902" lon="1.85603">
        <ele>227.6</ele>
        <time>2023-05-27T08:46:50Z</time>
      </trkpt>
      <trkpt lat="43.36905" lon="1.856">
        <ele>227.6</ele>
        <time>2023-05-27T08:46:51Z</time>
      </trkpt>
      <trkpt lat="43.36908" lon="1.85598">
        <ele>227.6</ele>
        <time>2023-05-27T08:46:52Z</time>
      </trkpt>
      <trkpt lat="43.36911" lon="1.85596">
        <ele>227.6</ele>
        <time>2023-05-27T08:46:53Z</time>
      </trkpt>
      <trkpt lat="43.36914" lon="1.85594">
        <ele>227.6</ele>
        <time>2023-05-27T08:46:54Z</time>
      </trkpt>
      <trkpt lat="43.36917" lon="1.85591">
        <ele>227.6</ele>
        <time>2023-05-27T08:46:55Z</time>
      </trkpt>
      <trkpt lat="43.36919" lon="1.85589">
        <ele>227.4</ele>
        <time>2023-05-27T08:46:56Z</time>
      </trkpt>
      <trkpt lat="43.36922" lon="1.85587">
        <ele>227.4</ele>
        <time>2023-05-27T08:46:57Z</time>
      </trkpt>
      <trkpt lat="43.36926" lon="1.85586">
        <ele>227.2</ele>
        <time>2023-05-27T08:46:58Z</time>
      </trkpt>
      <trkpt lat="43.36928" lon="1.85585">
        <ele>227.2</ele>
        <time>2023-05-27T08:46:59Z</time>
      </trkpt>
      <trkpt lat="43.36931" lon="1.85582">
        <ele>227.2</ele>
        <time>2023-05-27T08:47:00Z</time>
      </trkpt>
      <trkpt lat="43.36934" lon="1.85579">
        <ele>227.2</ele>
        <time>2023-05-27T08:47:01Z</time>
      </trkpt>
      <trkpt lat="43.36936" lon="1.85576">
        <ele>227.2</ele>
        <time>2023-05-27T08:47:02Z</time>
      </trkpt>
      <trkpt lat="43.36939" lon="1.85573">
        <ele>227.2</ele>
        <time>2023-05-27T08:47:03Z</time>
      </trkpt>
      <trkpt lat="43.36941" lon="1.85569">
        <ele>227.2</ele>
        <time>2023-05-27T08:47:04Z</time>
      </trkpt>
      <trkpt lat="43.36944" lon="1.85566">
        <ele>227.2</ele>
        <time>2023-05-27T08:47:05Z</time>
      </trkpt>
      <trkpt lat="43.36946" lon="1.85563">
        <ele>227</ele>
        <time>2023-05-27T08:47:06Z</time>
      </trkpt>
      <trkpt lat="43.36948" lon="1.85561">
        <ele>227</ele>
        <time>2023-05-27T08:47:07Z</time>
      </trkpt>
      <trkpt lat="43.3695" lon="1.85559">
        <ele>227</ele>
        <time>2023-05-27T08:47:08Z</time>
      </trkpt>
      <trkpt lat="43.36952" lon="1.85557">
        <ele>227</ele>
        <time>2023-05-27T08:47:09Z</time>
      </trkpt>
      <trkpt lat="43.36954" lon="1.85553">
        <ele>227</ele>
        <time>2023-05-27T08:47:10Z</time>
      </trkpt>
      <trkpt lat="43.36956" lon="1.8555">
        <ele>227</ele>
        <time>2023-05-27T08:47:11Z</time>
      </trkpt>
      <trkpt lat="43.36959" lon="1.85546">
        <ele>227</ele>
        <time>2023-05-27T08:47:12Z</time>
      </trkpt>
      <trkpt lat="43.36961" lon="1.85543">
        <ele>226.8</ele>
        <time>2023-05-27T08:47:13Z</time>
      </trkpt>
      <trkpt lat="43.36964" lon="1.85541">
        <ele>226.8</ele>
        <time>2023-05-27T08:47:14Z</time>
      </trkpt>
      <trkpt lat="43.36967" lon="1.85539">
        <ele>226.8</ele>
        <time>2023-05-27T08:47:15Z</time>
      </trkpt>
      <trkpt lat="43.36969" lon="1.85537">
        <ele>226.8</ele>
        <time>2023-05-27T08:47:16Z</time>
      </trkpt>
      <trkpt lat="43.36972" lon="1.85534">
        <ele>226.8</ele>
        <time>2023-05-27T08:47:17Z</time>
      </trkpt>
      <trkpt lat="43.36974" lon="1.8553">
        <ele>226.8</ele>
        <time>2023-05-27T08:47:18Z</time>
      </trkpt>
      <trkpt lat="43.36976" lon="1.85528">
        <ele>226.8</ele>
        <time>2023-05-27T08:47:19Z</time>
      </trkpt>
      <trkpt lat="43.36977" lon="1.85525">
        <ele>226.8</ele>
        <time>2023-05-27T08:47:20Z</time>
      </trkpt>
      <trkpt lat="43.36979" lon="1.85523">
        <ele>226.8</ele>
        <time>2023-05-27T08:47:21Z</time>
      </trkpt>
      <trkpt lat="43.36982" lon="1.8552">
        <ele>226.8</ele>
        <time>2023-05-27T08:47:22Z</time>
      </trkpt>
      <trkpt lat="43.36984" lon="1.85518">
        <ele>226.8</ele>
        <time>2023-05-27T08:47:23Z</time>
      </trkpt>
      <trkpt lat="43.36986" lon="1.85517">
        <ele>226.8</ele>
        <time>2023-05-27T08:47:24Z</time>
      </trkpt>
      <trkpt lat="43.36988" lon="1.85515">
        <ele>226.8</ele>
        <time>2023-05-27T08:47:25Z</time>
      </trkpt>
      <trkpt lat="43.3699" lon="1.85512">
        <ele>226.8</ele>
        <time>2023-05-27T08:47:26Z</time>
      </trkpt>
      <trkpt lat="43.36991" lon="1.85507">
        <ele>226.8</ele>
        <time>2023-05-27T08:47:27Z</time>
      </trkpt>
      <trkpt lat="43.36992" lon="1.85504">
        <ele>226.8</ele>
        <time>2023-05-27T08:47:28Z</time>
      </trkpt>
      <trkpt lat="43.36994" lon="1.85502">
        <ele>226.8</ele>
        <time>2023-05-27T08:47:29Z</time>
      </trkpt>
      <trkpt lat="43.36996" lon="1.855">
        <ele>226.8</ele>
        <time>2023-05-27T08:47:30Z</time>
      </trkpt>
      <trkpt lat="43.36999" lon="1.85498">
        <ele>226.8</ele>
        <time>2023-05-27T08:47:31Z</time>
      </trkpt>
      <trkpt lat="43.37003" lon="1.85494">
        <ele>226.8</ele>
        <time>2023-05-27T08:47:32Z</time>
      </trkpt>
      <trkpt lat="43.37006" lon="1.8549">
        <ele>226.8</ele>
        <time>2023-05-27T08:47:33Z</time>
      </trkpt>
      <trkpt lat="43.37008" lon="1.85486">
        <ele>226.8</ele>
        <time>2023-05-27T08:47:34Z</time>
      </trkpt>
      <trkpt lat="43.37009" lon="1.85483">
        <ele>227</ele>
        <time>2023-05-27T08:47:35Z</time>
      </trkpt>
      <trkpt lat="43.37012" lon="1.85481">
        <ele>227</ele>
        <time>2023-05-27T08:47:36Z</time>
      </trkpt>
      <trkpt lat="43.37014" lon="1.85479">
        <ele>227</ele>
        <time>2023-05-27T08:47:37Z</time>
      </trkpt>
      <trkpt lat="43.37017" lon="1.85476">
        <ele>227</ele>
        <time>2023-05-27T08:47:38Z</time>
      </trkpt>
      <trkpt lat="43.37019" lon="1.85474">
        <ele>227</ele>
        <time>2023-05-27T08:47:39Z</time>
      </trkpt>
      <trkpt lat="43.37022" lon="1.85472">
        <ele>227.2</ele>
        <time>2023-05-27T08:47:40Z</time>
      </trkpt>
      <trkpt lat="43.37024" lon="1.85471">
        <ele>227.2</ele>
        <time>2023-05-27T08:47:41Z</time>
      </trkpt>
      <trkpt lat="43.37026" lon="1.8547">
        <ele>227.2</ele>
        <time>2023-05-27T08:47:42Z</time>
      </trkpt>
      <trkpt lat="43.37027" lon="1.85468">
        <ele>227.2</ele>
        <time>2023-05-27T08:47:43Z</time>
      </trkpt>
      <trkpt lat="43.37028" lon="1.85465">
        <ele>227.2</ele>
        <time>2023-05-27T08:47:44Z</time>
      </trkpt>
      <trkpt lat="43.37029" lon="1.85463">
        <ele>227.2</ele>
        <time>2023-05-27T08:47:45Z</time>
      </trkpt>
      <trkpt lat="43.3703" lon="1.85462">
        <ele>227.2</ele>
        <time>2023-05-27T08:47:46Z</time>
      </trkpt>
      <trkpt lat="43.37031" lon="1.85461">
        <ele>227.2</ele>
        <time>2023-05-27T08:47:47Z</time>
      </trkpt>
      <trkpt lat="43.37033" lon="1.85459">
        <ele>227.2</ele>
        <time>2023-05-27T08:47:48Z</time>
      </trkpt>
      <trkpt lat="43.37035" lon="1.85458">
        <ele>227.2</ele>
        <time>2023-05-27T08:47:49Z</time>
      </trkpt>
      <trkpt lat="43.37037" lon="1.85456">
        <ele>227.4</ele>
        <time>2023-05-27T08:47:50Z</time>
      </trkpt>
      <trkpt lat="43.37039" lon="1.85454">
        <ele>227.4</ele>
        <time>2023-05-27T08:47:51Z</time>
      </trkpt>
      <trkpt lat="43.37041" lon="1.85452">
        <ele>227.4</ele>
        <time>2023-05-27T08:47:52Z</time>
      </trkpt>
      <trkpt lat="43.37043" lon="1.85451">
        <ele>227.4</ele>
        <time>2023-05-27T08:47:53Z</time>
      </trkpt>
      <trkpt lat="43.37045" lon="1.85449">
        <ele>227.4</ele>
        <time>2023-05-27T08:47:54Z</time>
      </trkpt>
      <trkpt lat="43.37047" lon="1.85447">
        <ele>227.4</ele>
        <time>2023-05-27T08:47:55Z</time>
      </trkpt>
      <trkpt lat="43.3705" lon="1.85445">
        <ele>227.4</ele>
        <time>2023-05-27T08:47:56Z</time>
      </trkpt>
      <trkpt lat="43.37053" lon="1.85443">
        <ele>227.4</ele>
        <time>2023-05-27T08:47:57Z</time>
      </trkpt>
      <trkpt lat="43.37056" lon="1.85442">
        <ele>227.4</ele>
        <time>2023-05-27T08:47:58Z</time>
      </trkpt>
      <trkpt lat="43.37058" lon="1.85441">
        <ele>227.4</ele>
        <time>2023-05-27T08:47:59Z</time>
      </trkpt>
      <trkpt lat="43.3706" lon="1.85439">
        <ele>227.4</ele>
        <time>2023-05-27T08:48:00Z</time>
      </trkpt>
      <trkpt lat="43.37063" lon="1.85437">
        <ele>227.4</ele>
        <time>2023-05-27T08:48:01Z</time>
      </trkpt>
      <trkpt lat="43.37065" lon="1.85435">
        <ele>227.4</ele>
        <time>2023-05-27T08:48:02Z</time>
      </trkpt>
      <trkpt lat="43.37067" lon="1.85433">
        <ele>227.4</ele>
        <time>2023-05-27T08:48:03Z</time>
      </trkpt>
      <trkpt lat="43.3707" lon="1.85431">
        <ele>227.4</ele>
        <time>2023-05-27T08:48:04Z</time>
      </trkpt>
      <trkpt lat="43.37074" lon="1.85428">
        <ele>227.4</ele>
        <time>2023-05-27T08:48:05Z</time>
      </trkpt>
      <trkpt lat="43.37078" lon="1.85426">
        <ele>227.4</ele>
        <time>2023-05-27T08:48:06Z</time>
      </trkpt>
      <trkpt lat="43.3708" lon="1.85425">
        <ele>227.4</ele>
        <time>2023-05-27T08:48:07Z</time>
      </trkpt>
      <trkpt lat="43.37083" lon="1.85424">
        <ele>227.4</ele>
        <time>2023-05-27T08:48:08Z</time>
      </trkpt>
      <trkpt lat="43.37086" lon="1.85423">
        <ele>227.4</ele>
        <time>2023-05-27T08:48:09Z</time>
      </trkpt>
      <trkpt lat="43.37089" lon="1.85421">
        <ele>227.4</ele>
        <time>2023-05-27T08:48:10Z</time>
      </trkpt>
      <trkpt lat="43.37091" lon="1.85419">
        <ele>227.4</ele>
        <time>2023-05-27T08:48:11Z</time>
      </trkpt>
      <trkpt lat="43.37094" lon="1.85418">
        <ele>227.4</ele>
        <time>2023-05-27T08:48:12Z</time>
      </trkpt>
      <trkpt lat="43.37097" lon="1.85415">
        <ele>227.4</ele>
        <time>2023-05-27T08:48:13Z</time>
      </trkpt>
      <trkpt lat="43.371" lon="1.85413">
        <ele>227.4</ele>
        <time>2023-05-27T08:48:14Z</time>
      </trkpt>
      <trkpt lat="43.37103" lon="1.8541">
        <ele>227.4</ele>
        <time>2023-05-27T08:48:15Z</time>
      </trkpt>
      <trkpt lat="43.37106" lon="1.85408">
        <ele>227.2</ele>
        <time>2023-05-27T08:48:16Z</time>
      </trkpt>
      <trkpt lat="43.3711" lon="1.85406">
        <ele>227.2</ele>
        <time>2023-05-27T08:48:17Z</time>
      </trkpt>
      <trkpt lat="43.37114" lon="1.85404">
        <ele>227.2</ele>
        <time>2023-05-27T08:48:18Z</time>
      </trkpt>
      <trkpt lat="43.37118" lon="1.85403">
        <ele>227.2</ele>
        <time>2023-05-27T08:48:19Z</time>
      </trkpt>
      <trkpt lat="43.37122" lon="1.85401">
        <ele>227.2</ele>
        <time>2023-05-27T08:48:20Z</time>
      </trkpt>
      <trkpt lat="43.37125" lon="1.854">
        <ele>227.2</ele>
        <time>2023-05-27T08:48:21Z</time>
      </trkpt>
      <trkpt lat="43.37128" lon="1.85399">
        <ele>227</ele>
        <time>2023-05-27T08:48:22Z</time>
      </trkpt>
      <trkpt lat="43.37132" lon="1.85399">
        <ele>227</ele>
        <time>2023-05-27T08:48:23Z</time>
      </trkpt>
      <trkpt lat="43.37135" lon="1.85398">
        <ele>227</ele>
        <time>2023-05-27T08:48:24Z</time>
      </trkpt>
      <trkpt lat="43.37139" lon="1.85398">
        <ele>227</ele>
        <time>2023-05-27T08:48:25Z</time>
      </trkpt>
      <trkpt lat="43.37144" lon="1.854">
        <ele>227</ele>
        <time>2023-05-27T08:48:26Z</time>
      </trkpt>
      <trkpt lat="43.37148" lon="1.85403">
        <ele>227</ele>
        <time>2023-05-27T08:48:27Z</time>
      </trkpt>
      <trkpt lat="43.37151" lon="1.85407">
        <ele>227</ele>
        <time>2023-05-27T08:48:28Z</time>
      </trkpt>
      <trkpt lat="43.37153" lon="1.85412">
        <ele>227</ele>
        <time>2023-05-27T08:48:29Z</time>
      </trkpt>
      <trkpt lat="43.37154" lon="1.85418">
        <ele>227</ele>
        <time>2023-05-27T08:48:30Z</time>
      </trkpt>
      <trkpt lat="43.37155" lon="1.85422">
        <ele>227</ele>
        <time>2023-05-27T08:48:31Z</time>
      </trkpt>
      <trkpt lat="43.37155" lon="1.85425">
        <ele>227</ele>
        <time>2023-05-27T08:48:32Z</time>
      </trkpt>
      <trkpt lat="43.37154" lon="1.85428">
        <ele>227</ele>
        <time>2023-05-27T08:48:33Z</time>
      </trkpt>
      <trkpt lat="43.37154" lon="1.85431">
        <ele>227</ele>
        <time>2023-05-27T08:48:34Z</time>
      </trkpt>
      <trkpt lat="43.37154" lon="1.85435">
        <ele>227</ele>
        <time>2023-05-27T08:48:35Z</time>
      </trkpt>
      <trkpt lat="43.37153" lon="1.85438">
        <ele>226.8</ele>
        <time>2023-05-27T08:48:36Z</time>
      </trkpt>
      <trkpt lat="43.37153" lon="1.85441">
        <ele>226.8</ele>
        <time>2023-05-27T08:48:37Z</time>
      </trkpt>
      <trkpt lat="43.37153" lon="1.85444">
        <ele>226.8</ele>
        <time>2023-05-27T08:48:38Z</time>
      </trkpt>
      <trkpt lat="43.37152" lon="1.85447">
        <ele>226.8</ele>
        <time>2023-05-27T08:48:39Z</time>
      </trkpt>
      <trkpt lat="43.37151" lon="1.8545">
        <ele>226.8</ele>
        <time>2023-05-27T08:48:40Z</time>
      </trkpt>
      <trkpt lat="43.3715" lon="1.85453">
        <ele>226.8</ele>
        <time>2023-05-27T08:48:41Z</time>
      </trkpt>
      <trkpt lat="43.37149" lon="1.85456">
        <ele>226.8</ele>
        <time>2023-05-27T08:48:42Z</time>
      </trkpt>
      <trkpt lat="43.37148" lon="1.8546">
        <ele>226.8</ele>
        <time>2023-05-27T08:48:43Z</time>
      </trkpt>
      <trkpt lat="43.37147" lon="1.85463">
        <ele>226.8</ele>
        <time>2023-05-27T08:48:44Z</time>
      </trkpt>
      <trkpt lat="43.37147" lon="1.85466">
        <ele>226.8</ele>
        <time>2023-05-27T08:48:45Z</time>
      </trkpt>
      <trkpt lat="43.37146" lon="1.8547">
        <ele>226.8</ele>
        <time>2023-05-27T08:48:46Z</time>
      </trkpt>
      <trkpt lat="43.37144" lon="1.85474">
        <ele>226.8</ele>
        <time>2023-05-27T08:48:47Z</time>
      </trkpt>
      <trkpt lat="43.37142" lon="1.85478">
        <ele>226.8</ele>
        <time>2023-05-27T08:48:48Z</time>
      </trkpt>
      <trkpt lat="43.37141" lon="1.85482">
        <ele>226.8</ele>
        <time>2023-05-27T08:48:49Z</time>
      </trkpt>
      <trkpt lat="43.3714" lon="1.85486">
        <ele>226.8</ele>
        <time>2023-05-27T08:48:50Z</time>
      </trkpt>
      <trkpt lat="43.37139" lon="1.85491">
        <ele>227</ele>
        <time>2023-05-27T08:48:51Z</time>
      </trkpt>
      <trkpt lat="43.37138" lon="1.85495">
        <ele>227</ele>
        <time>2023-05-27T08:48:52Z</time>
      </trkpt>
      <trkpt lat="43.37136" lon="1.85501">
        <ele>227</ele>
        <time>2023-05-27T08:48:53Z</time>
      </trkpt>
      <trkpt lat="43.37134" lon="1.85507">
        <ele>227</ele>
        <time>2023-05-27T08:48:54Z</time>
      </trkpt>
      <trkpt lat="43.37131" lon="1.85513">
        <ele>227.2</ele>
        <time>2023-05-27T08:48:55Z</time>
      </trkpt>
      <trkpt lat="43.37131" lon="1.85517">
        <ele>227.2</ele>
        <time>2023-05-27T08:48:56Z</time>
      </trkpt>
      <trkpt lat="43.3713" lon="1.85521">
        <ele>227.2</ele>
        <time>2023-05-27T08:48:57Z</time>
      </trkpt>
      <trkpt lat="43.3713" lon="1.85525">
        <ele>227.4</ele>
        <time>2023-05-27T08:48:58Z</time>
      </trkpt>
      <trkpt lat="43.37129" lon="1.85529">
        <ele>227.4</ele>
        <time>2023-05-27T08:48:59Z</time>
      </trkpt>
      <trkpt lat="43.37127" lon="1.85535">
        <ele>227.6</ele>
        <time>2023-05-27T08:49:00Z</time>
      </trkpt>
      <trkpt lat="43.37126" lon="1.85541">
        <ele>227.6</ele>
        <time>2023-05-27T08:49:01Z</time>
      </trkpt>
      <trkpt lat="43.37124" lon="1.85546">
        <ele>227.8</ele>
        <time>2023-05-27T08:49:02Z</time>
      </trkpt>
      <trkpt lat="43.37122" lon="1.8555">
        <ele>227.8</ele>
        <time>2023-05-27T08:49:03Z</time>
      </trkpt>
      <trkpt lat="43.3712" lon="1.85554">
        <ele>227.8</ele>
        <time>2023-05-27T08:49:04Z</time>
      </trkpt>
      <trkpt lat="43.3712" lon="1.85558">
        <ele>227.8</ele>
        <time>2023-05-27T08:49:05Z</time>
      </trkpt>
      <trkpt lat="43.3712" lon="1.85561">
        <ele>228</ele>
        <time>2023-05-27T08:49:06Z</time>
      </trkpt>
      <trkpt lat="43.3712" lon="1.85565">
        <ele>228</ele>
        <time>2023-05-27T08:49:07Z</time>
      </trkpt>
      <trkpt lat="43.37119" lon="1.85568">
        <ele>228</ele>
        <time>2023-05-27T08:49:08Z</time>
      </trkpt>
      <trkpt lat="43.37118" lon="1.85573">
        <ele>228</ele>
        <time>2023-05-27T08:49:09Z</time>
      </trkpt>
      <trkpt lat="43.37114" lon="1.85578">
        <ele>228</ele>
        <time>2023-05-27T08:49:10Z</time>
      </trkpt>
      <trkpt lat="43.37112" lon="1.85583">
        <ele>228.2</ele>
        <time>2023-05-27T08:49:11Z</time>
      </trkpt>
      <trkpt lat="43.37111" lon="1.85586">
        <ele>228.2</ele>
        <time>2023-05-27T08:49:12Z</time>
      </trkpt>
      <trkpt lat="43.3711" lon="1.8559">
        <ele>228</ele>
        <time>2023-05-27T08:49:13Z</time>
      </trkpt>
      <trkpt lat="43.3711" lon="1.85595">
        <ele>228</ele>
        <time>2023-05-27T08:49:14Z</time>
      </trkpt>
      <trkpt lat="43.37111" lon="1.85599">
        <ele>228</ele>
        <time>2023-05-27T08:49:15Z</time>
      </trkpt>
      <trkpt lat="43.3711" lon="1.85603">
        <ele>228</ele>
        <time>2023-05-27T08:49:16Z</time>
      </trkpt>
      <trkpt lat="43.3711" lon="1.85608">
        <ele>228</ele>
        <time>2023-05-27T08:49:17Z</time>
      </trkpt>
      <trkpt lat="43.3711" lon="1.85612">
        <ele>227.8</ele>
        <time>2023-05-27T08:49:18Z</time>
      </trkpt>
      <trkpt lat="43.3711" lon="1.85617">
        <ele>227.8</ele>
        <time>2023-05-27T08:49:19Z</time>
      </trkpt>
      <trkpt lat="43.3711" lon="1.85624">
        <ele>227.6</ele>
        <time>2023-05-27T08:49:20Z</time>
      </trkpt>
      <trkpt lat="43.3711" lon="1.85631">
        <ele>227.6</ele>
        <time>2023-05-27T08:49:21Z</time>
      </trkpt>
      <trkpt lat="43.3711" lon="1.85638">
        <ele>227.6</ele>
        <time>2023-05-27T08:49:22Z</time>
      </trkpt>
      <trkpt lat="43.3711" lon="1.85643">
        <ele>227.4</ele>
        <time>2023-05-27T08:49:23Z</time>
      </trkpt>
      <trkpt lat="43.3711" lon="1.85649">
        <ele>227.4</ele>
        <time>2023-05-27T08:49:24Z</time>
      </trkpt>
      <trkpt lat="43.37111" lon="1.85655">
        <ele>227.2</ele>
        <time>2023-05-27T08:49:25Z</time>
      </trkpt>
      <trkpt lat="43.37112" lon="1.85659">
        <ele>227.2</ele>
        <time>2023-05-27T08:49:26Z</time>
      </trkpt>
      <trkpt lat="43.37114" lon="1.85665">
        <ele>227.2</ele>
        <time>2023-05-27T08:49:27Z</time>
      </trkpt>
      <trkpt lat="43.37116" lon="1.85669">
        <ele>227.2</ele>
        <time>2023-05-27T08:49:28Z</time>
      </trkpt>
      <trkpt lat="43.37118" lon="1.85673">
        <ele>227.2</ele>
        <time>2023-05-27T08:49:29Z</time>
      </trkpt>
      <trkpt lat="43.3712" lon="1.85677">
        <ele>227.2</ele>
        <time>2023-05-27T08:49:30Z</time>
      </trkpt>
      <trkpt lat="43.37122" lon="1.8568">
        <ele>227.2</ele>
        <time>2023-05-27T08:49:31Z</time>
      </trkpt>
      <trkpt lat="43.37124" lon="1.85682">
        <ele>227</ele>
        <time>2023-05-27T08:49:32Z</time>
      </trkpt>
      <trkpt lat="43.37127" lon="1.85685">
        <ele>227</ele>
        <time>2023-05-27T08:49:33Z</time>
      </trkpt>
      <trkpt lat="43.37131" lon="1.85687">
        <ele>227</ele>
        <time>2023-05-27T08:49:34Z</time>
      </trkpt>
      <trkpt lat="43.37135" lon="1.85689">
        <ele>227</ele>
        <time>2023-05-27T08:49:35Z</time>
      </trkpt>
      <trkpt lat="43.3714" lon="1.85691">
        <ele>227</ele>
        <time>2023-05-27T08:49:36Z</time>
      </trkpt>
      <trkpt lat="43.37144" lon="1.85691">
        <ele>227</ele>
        <time>2023-05-27T08:49:37Z</time>
      </trkpt>
      <trkpt lat="43.37148" lon="1.85691">
        <ele>227</ele>
        <time>2023-05-27T08:49:38Z</time>
      </trkpt>
      <trkpt lat="43.37152" lon="1.8569">
        <ele>226.8</ele>
        <time>2023-05-27T08:49:39Z</time>
      </trkpt>
      <trkpt lat="43.37156" lon="1.85689">
        <ele>226.8</ele>
        <time>2023-05-27T08:49:40Z</time>
      </trkpt>
      <trkpt lat="43.37159" lon="1.85687">
        <ele>226.8</ele>
        <time>2023-05-27T08:49:41Z</time>
      </trkpt>
      <trkpt lat="43.37162" lon="1.85686">
        <ele>226.8</ele>
        <time>2023-05-27T08:49:42Z</time>
      </trkpt>
      <trkpt lat="43.37166" lon="1.85684">
        <ele>226.8</ele>
        <time>2023-05-27T08:49:43Z</time>
      </trkpt>
      <trkpt lat="43.37169" lon="1.85681">
        <ele>226.8</ele>
        <time>2023-05-27T08:49:44Z</time>
      </trkpt>
      <trkpt lat="43.37172" lon="1.85678">
        <ele>226.8</ele>
        <time>2023-05-27T08:49:45Z</time>
      </trkpt>
      <trkpt lat="43.37175" lon="1.85676">
        <ele>226.8</ele>
        <time>2023-05-27T08:49:46Z</time>
      </trkpt>
      <trkpt lat="43.37179" lon="1.85673">
        <ele>226.8</ele>
        <time>2023-05-27T08:49:47Z</time>
      </trkpt>
      <trkpt lat="43.37182" lon="1.8567">
        <ele>226.8</ele>
        <time>2023-05-27T08:49:48Z</time>
      </trkpt>
      <trkpt lat="43.37185" lon="1.85667">
        <ele>226.8</ele>
        <time>2023-05-27T08:49:49Z</time>
      </trkpt>
      <trkpt lat="43.37188" lon="1.85664">
        <ele>226.8</ele>
        <time>2023-05-27T08:49:50Z</time>
      </trkpt>
      <trkpt lat="43.37191" lon="1.85662">
        <ele>226.8</ele>
        <time>2023-05-27T08:49:51Z</time>
      </trkpt>
      <trkpt lat="43.37194" lon="1.85659">
        <ele>226.8</ele>
        <time>2023-05-27T08:49:52Z</time>
      </trkpt>
      <trkpt lat="43.37197" lon="1.85655">
        <ele>226.8</ele>
        <time>2023-05-27T08:49:53Z</time>
      </trkpt>
      <trkpt lat="43.372" lon="1.85651">
        <ele>226.8</ele>
        <time>2023-05-27T08:49:54Z</time>
      </trkpt>
      <trkpt lat="43.37202" lon="1.85647">
        <ele>226.8</ele>
        <time>2023-05-27T08:49:55Z</time>
      </trkpt>
      <trkpt lat="43.37204" lon="1.85644">
        <ele>226.8</ele>
        <time>2023-05-27T08:49:56Z</time>
      </trkpt>
      <trkpt lat="43.37207" lon="1.85642">
        <ele>226.8</ele>
        <time>2023-05-27T08:49:57Z</time>
      </trkpt>
      <trkpt lat="43.3721" lon="1.8564">
        <ele>226.8</ele>
        <time>2023-05-27T08:49:58Z</time>
      </trkpt>
      <trkpt lat="43.37212" lon="1.85636">
        <ele>226.8</ele>
        <time>2023-05-27T08:49:59Z</time>
      </trkpt>
      <trkpt lat="43.37215" lon="1.85633">
        <ele>226.8</ele>
        <time>2023-05-27T08:50:00Z</time>
      </trkpt>
      <trkpt lat="43.37217" lon="1.85629">
        <ele>226.8</ele>
        <time>2023-05-27T08:50:01Z</time>
      </trkpt>
      <trkpt lat="43.3722" lon="1.85625">
        <ele>226.8</ele>
        <time>2023-05-27T08:50:02Z</time>
      </trkpt>
      <trkpt lat="43.37222" lon="1.85621">
        <ele>226.8</ele>
        <time>2023-05-27T08:50:03Z</time>
      </trkpt>
      <trkpt lat="43.37224" lon="1.85618">
        <ele>226.8</ele>
        <time>2023-05-27T08:50:04Z</time>
      </trkpt>
      <trkpt lat="43.37226" lon="1.85615">
        <ele>226.8</ele>
        <time>2023-05-27T08:50:05Z</time>
      </trkpt>
      <trkpt lat="43.37228" lon="1.85613">
        <ele>226.8</ele>
        <time>2023-05-27T08:50:06Z</time>
      </trkpt>
      <trkpt lat="43.37231" lon="1.85611">
        <ele>226.8</ele>
        <time>2023-05-27T08:50:07Z</time>
      </trkpt>
      <trkpt lat="43.37234" lon="1.85609">
        <ele>226.8</ele>
        <time>2023-05-27T08:50:08Z</time>
      </trkpt>
      <trkpt lat="43.37236" lon="1.85606">
        <ele>226.8</ele>
        <time>2023-05-27T08:50:09Z</time>
      </trkpt>
      <trkpt lat="43.37239" lon="1.85604">
        <ele>226.8</ele>
        <time>2023-05-27T08:50:10Z</time>
      </trkpt>
      <trkpt lat="43.37241" lon="1.85601">
        <ele>226.8</ele>
        <time>2023-05-27T08:50:11Z</time>
      </trkpt>
      <trkpt lat="43.37243" lon="1.85599">
        <ele>226.8</ele>
        <time>2023-05-27T08:50:12Z</time>
      </trkpt>
      <trkpt lat="43.37245" lon="1.85596">
        <ele>226.8</ele>
        <time>2023-05-27T08:50:13Z</time>
      </trkpt>
      <trkpt lat="43.37247" lon="1.85594">
        <ele>226.8</ele>
        <time>2023-05-27T08:50:14Z</time>
      </trkpt>
      <trkpt lat="43.3725" lon="1.85591">
        <ele>226.8</ele>
        <time>2023-05-27T08:50:15Z</time>
      </trkpt>
      <trkpt lat="43.37253" lon="1.85589">
        <ele>226.8</ele>
        <time>2023-05-27T08:50:16Z</time>
      </trkpt>
      <trkpt lat="43.37255" lon="1.85587">
        <ele>226.8</ele>
        <time>2023-05-27T08:50:17Z</time>
      </trkpt>
      <trkpt lat="43.37258" lon="1.85585">
        <ele>226.8</ele>
        <time>2023-05-27T08:50:18Z</time>
      </trkpt>
      <trkpt lat="43.37261" lon="1.85583">
        <ele>226.8</ele>
        <time>2023-05-27T08:50:19Z</time>
      </trkpt>
      <trkpt lat="43.37263" lon="1.85581">
        <ele>226.8</ele>
        <time>2023-05-27T08:50:20Z</time>
      </trkpt>
      <trkpt lat="43.37265" lon="1.8558">
        <ele>226.8</ele>
        <time>2023-05-27T08:50:21Z</time>
      </trkpt>
      <trkpt lat="43.37267" lon="1.85579">
        <ele>227</ele>
        <time>2023-05-27T08:50:22Z</time>
      </trkpt>
      <trkpt lat="43.3727" lon="1.85577">
        <ele>227</ele>
        <time>2023-05-27T08:50:23Z</time>
      </trkpt>
      <trkpt lat="43.37272" lon="1.85576">
        <ele>227</ele>
        <time>2023-05-27T08:50:24Z</time>
      </trkpt>
      <trkpt lat="43.37274" lon="1.85574">
        <ele>227.2</ele>
        <time>2023-05-27T08:50:25Z</time>
      </trkpt>
      <trkpt lat="43.37277" lon="1.85572">
        <ele>227.2</ele>
        <time>2023-05-27T08:50:26Z</time>
      </trkpt>
      <trkpt lat="43.3728" lon="1.8557">
        <ele>227.2</ele>
        <time>2023-05-27T08:50:27Z</time>
      </trkpt>
      <trkpt lat="43.37282" lon="1.85569">
        <ele>227.2</ele>
        <time>2023-05-27T08:50:28Z</time>
      </trkpt>
      <trkpt lat="43.37285" lon="1.85567">
        <ele>227.4</ele>
        <time>2023-05-27T08:50:29Z</time>
      </trkpt>
      <trkpt lat="43.37287" lon="1.85566">
        <ele>227.4</ele>
        <time>2023-05-27T08:50:30Z</time>
      </trkpt>
      <trkpt lat="43.3729" lon="1.85564">
        <ele>227.4</ele>
        <time>2023-05-27T08:50:31Z</time>
      </trkpt>
      <trkpt lat="43.37293" lon="1.85562">
        <ele>227.4</ele>
        <time>2023-05-27T08:50:32Z</time>
      </trkpt>
      <trkpt lat="43.37296" lon="1.8556">
        <ele>227.6</ele>
        <time>2023-05-27T08:50:33Z</time>
      </trkpt>
      <trkpt lat="43.37299" lon="1.85559">
        <ele>227.6</ele>
        <time>2023-05-27T08:50:34Z</time>
      </trkpt>
      <trkpt lat="43.37302" lon="1.85557">
        <ele>227.6</ele>
        <time>2023-05-27T08:50:35Z</time>
      </trkpt>
      <trkpt lat="43.37304" lon="1.85555">
        <ele>227.6</ele>
        <time>2023-05-27T08:50:36Z</time>
      </trkpt>
      <trkpt lat="43.37307" lon="1.85554">
        <ele>227.8</ele>
        <time>2023-05-27T08:50:37Z</time>
      </trkpt>
      <trkpt lat="43.37309" lon="1.85552">
        <ele>227.8</ele>
        <time>2023-05-27T08:50:38Z</time>
      </trkpt>
      <trkpt lat="43.37312" lon="1.85551">
        <ele>227.8</ele>
        <time>2023-05-27T08:50:39Z</time>
      </trkpt>
      <trkpt lat="43.37314" lon="1.8555">
        <ele>227.8</ele>
        <time>2023-05-27T08:50:40Z</time>
      </trkpt>
      <trkpt lat="43.37316" lon="1.85548">
        <ele>228</ele>
        <time>2023-05-27T08:50:41Z</time>
      </trkpt>
      <trkpt lat="43.37319" lon="1.85547">
        <ele>228</ele>
        <time>2023-05-27T08:50:42Z</time>
      </trkpt>
      <trkpt lat="43.37321" lon="1.85546">
        <ele>228</ele>
        <time>2023-05-27T08:50:43Z</time>
      </trkpt>
      <trkpt lat="43.37324" lon="1.85544">
        <ele>228.2</ele>
        <time>2023-05-27T08:50:44Z</time>
      </trkpt>
      <trkpt lat="43.37326" lon="1.85543">
        <ele>228.2</ele>
        <time>2023-05-27T08:50:45Z</time>
      </trkpt>
      <trkpt lat="43.37328" lon="1.85542">
        <ele>228.2</ele>
        <time>2023-05-27T08:50:46Z</time>
      </trkpt>
      <trkpt lat="43.3733" lon="1.8554">
        <ele>228.2</ele>
        <time>2023-05-27T08:50:47Z</time>
      </trkpt>
      <trkpt lat="43.37332" lon="1.85538">
        <ele>228.4</ele>
        <time>2023-05-27T08:50:48Z</time>
      </trkpt>
      <trkpt lat="43.37334" lon="1.85536">
        <ele>228.4</ele>
        <time>2023-05-27T08:50:49Z</time>
      </trkpt>
      <trkpt lat="43.37336" lon="1.85535">
        <ele>228.4</ele>
        <time>2023-05-27T08:50:50Z</time>
      </trkpt>
      <trkpt lat="43.37337" lon="1.85534">
        <ele>228.6</ele>
        <time>2023-05-27T08:50:51Z</time>
      </trkpt>
      <trkpt lat="43.37337" lon="1.85534">
        <ele>228.6</ele>
        <time>2023-05-27T08:50:52Z</time>
      </trkpt>
      <trkpt lat="43.37345" lon="1.85531">
        <ele>228.6</ele>
        <time>2023-05-27T08:59:07Z</time>
      </trkpt>
      <trkpt lat="43.37347" lon="1.85531">
        <ele>228.6</ele>
        <time>2023-05-27T08:59:08Z</time>
      </trkpt>
      <trkpt lat="43.37348" lon="1.85531">
        <ele>228.6</ele>
        <time>2023-05-27T08:59:09Z</time>
      </trkpt>
      <trkpt lat="43.3735" lon="1.85532">
        <ele>228.6</ele>
        <time>2023-05-27T08:59:10Z</time>
      </trkpt>
      <trkpt lat="43.37352" lon="1.85532">
        <ele>228.6</ele>
        <time>2023-05-27T08:59:11Z</time>
      </trkpt>
      <trkpt lat="43.37354" lon="1.85532">
        <ele>228.6</ele>
        <time>2023-05-27T08:59:12Z</time>
      </trkpt>
      <trkpt lat="43.37355" lon="1.85532">
        <ele>228.6</ele>
        <time>2023-05-27T08:59:13Z</time>
      </trkpt>
      <trkpt lat="43.37357" lon="1.85533">
        <ele>228.6</ele>
        <time>2023-05-27T08:59:14Z</time>
      </trkpt>
      <trkpt lat="43.3736" lon="1.85533">
        <ele>228.6</ele>
        <time>2023-05-27T08:59:15Z</time>
      </trkpt>
      <trkpt lat="43.37361" lon="1.85534">
        <ele>228.6</ele>
        <time>2023-05-27T08:59:16Z</time>
      </trkpt>
      <trkpt lat="43.37363" lon="1.85534">
        <ele>228.6</ele>
        <time>2023-05-27T08:59:17Z</time>
      </trkpt>
      <trkpt lat="43.37365" lon="1.85534">
        <ele>228.6</ele>
        <time>2023-05-27T08:59:18Z</time>
      </trkpt>
      <trkpt lat="43.37368" lon="1.85536">
        <ele>228.6</ele>
        <time>2023-05-27T08:59:19Z</time>
      </trkpt>
      <trkpt lat="43.37372" lon="1.85537">
        <ele>228.6</ele>
        <time>2023-05-27T08:59:20Z</time>
      </trkpt>
      <trkpt lat="43.37376" lon="1.85538">
        <ele>228.6</ele>
        <time>2023-05-27T08:59:21Z</time>
      </trkpt>
      <trkpt lat="43.37379" lon="1.85539">
        <ele>228.8</ele>
        <time>2023-05-27T08:59:22Z</time>
      </trkpt>
      <trkpt lat="43.37382" lon="1.8554">
        <ele>228.8</ele>
        <time>2023-05-27T08:59:23Z</time>
      </trkpt>
      <trkpt lat="43.37386" lon="1.85541">
        <ele>228.8</ele>
        <time>2023-05-27T08:59:24Z</time>
      </trkpt>
      <trkpt lat="43.37389" lon="1.85542">
        <ele>228.8</ele>
        <time>2023-05-27T08:59:25Z</time>
      </trkpt>
      <trkpt lat="43.37393" lon="1.85542">
        <ele>228.8</ele>
        <time>2023-05-27T08:59:26Z</time>
      </trkpt>
      <trkpt lat="43.37396" lon="1.85541">
        <ele>228.8</ele>
        <time>2023-05-27T08:59:27Z</time>
      </trkpt>
      <trkpt lat="43.37399" lon="1.85541">
        <ele>229</ele>
        <time>2023-05-27T08:59:28Z</time>
      </trkpt>
      <trkpt lat="43.37402" lon="1.85542">
        <ele>229</ele>
        <time>2023-05-27T08:59:29Z</time>
      </trkpt>
      <trkpt lat="43.37404" lon="1.85542">
        <ele>229</ele>
        <time>2023-05-27T08:59:30Z</time>
      </trkpt>
      <trkpt lat="43.37407" lon="1.85543">
        <ele>229</ele>
        <time>2023-05-27T08:59:31Z</time>
      </trkpt>
      <trkpt lat="43.37412" lon="1.85544">
        <ele>229</ele>
        <time>2023-05-27T08:59:32Z</time>
      </trkpt>
      <trkpt lat="43.37416" lon="1.85546">
        <ele>229</ele>
        <time>2023-05-27T08:59:33Z</time>
      </trkpt>
      <trkpt lat="43.3742" lon="1.85546">
        <ele>229</ele>
        <time>2023-05-27T08:59:34Z</time>
      </trkpt>
      <trkpt lat="43.37423" lon="1.85546">
        <ele>229.2</ele>
        <time>2023-05-27T08:59:35Z</time>
      </trkpt>
      <trkpt lat="43.37426" lon="1.85547">
        <ele>229.2</ele>
        <time>2023-05-27T08:59:36Z</time>
      </trkpt>
      <trkpt lat="43.37429" lon="1.85547">
        <ele>229.2</ele>
        <time>2023-05-27T08:59:37Z</time>
      </trkpt>
      <trkpt lat="43.37432" lon="1.85546">
        <ele>229.2</ele>
        <time>2023-05-27T08:59:38Z</time>
      </trkpt>
      <trkpt lat="43.37435" lon="1.85547">
        <ele>229.2</ele>
        <time>2023-05-27T08:59:39Z</time>
      </trkpt>
      <trkpt lat="43.37437" lon="1.85549">
        <ele>229.4</ele>
        <time>2023-05-27T08:59:40Z</time>
      </trkpt>
      <trkpt lat="43.37441" lon="1.8555">
        <ele>229.4</ele>
        <time>2023-05-27T08:59:41Z</time>
      </trkpt>
      <trkpt lat="43.37444" lon="1.85551">
        <ele>229.4</ele>
        <time>2023-05-27T08:59:42Z</time>
      </trkpt>
      <trkpt lat="43.37447" lon="1.85551">
        <ele>229.4</ele>
        <time>2023-05-27T08:59:43Z</time>
      </trkpt>
      <trkpt lat="43.37449" lon="1.85551">
        <ele>229.4</ele>
        <time>2023-05-27T08:59:44Z</time>
      </trkpt>
      <trkpt lat="43.37451" lon="1.85552">
        <ele>229.4</ele>
        <time>2023-05-27T08:59:45Z</time>
      </trkpt>
      <trkpt lat="43.37453" lon="1.85553">
        <ele>229.6</ele>
        <time>2023-05-27T08:59:46Z</time>
      </trkpt>
      <trkpt lat="43.37456" lon="1.85554">
        <ele>229.6</ele>
        <time>2023-05-27T08:59:47Z</time>
      </trkpt>
      <trkpt lat="43.37458" lon="1.85555">
        <ele>229.6</ele>
        <time>2023-05-27T08:59:48Z</time>
      </trkpt>
      <trkpt lat="43.37461" lon="1.85556">
        <ele>229.6</ele>
        <time>2023-05-27T08:59:49Z</time>
      </trkpt>
      <trkpt lat="43.37463" lon="1.85558">
        <ele>229.6</ele>
        <time>2023-05-27T08:59:50Z</time>
      </trkpt>
      <trkpt lat="43.37466" lon="1.85559">
        <ele>229.8</ele>
        <time>2023-05-27T08:59:51Z</time>
      </trkpt>
      <trkpt lat="43.37468" lon="1.8556">
        <ele>229.8</ele>
        <time>2023-05-27T08:59:52Z</time>
      </trkpt>
      <trkpt lat="43.3747" lon="1.85561">
        <ele>229.8</ele>
        <time>2023-05-27T08:59:53Z</time>
      </trkpt>
      <trkpt lat="43.37472" lon="1.85563">
        <ele>229.8</ele>
        <time>2023-05-27T08:59:54Z</time>
      </trkpt>
      <trkpt lat="43.37475" lon="1.85564">
        <ele>229.8</ele>
        <time>2023-05-27T08:59:55Z</time>
      </trkpt>
      <trkpt lat="43.37477" lon="1.85565">
        <ele>230</ele>
        <time>2023-05-27T08:59:56Z</time>
      </trkpt>
      <trkpt lat="43.37479" lon="1.85566">
        <ele>230</ele>
        <time>2023-05-27T08:59:57Z</time>
      </trkpt>
      <trkpt lat="43.37481" lon="1.85568">
        <ele>230</ele>
        <time>2023-05-27T08:59:58Z</time>
      </trkpt>
      <trkpt lat="43.37483" lon="1.85569">
        <ele>230</ele>
        <time>2023-05-27T08:59:59Z</time>
      </trkpt>
      <trkpt lat="43.37486" lon="1.85572">
        <ele>230</ele>
        <time>2023-05-27T09:00:00Z</time>
      </trkpt>
      <trkpt lat="43.37488" lon="1.85574">
        <ele>230</ele>
        <time>2023-05-27T09:00:01Z</time>
      </trkpt>
      <trkpt lat="43.37491" lon="1.85577">
        <ele>230</ele>
        <time>2023-05-27T09:00:02Z</time>
      </trkpt>
      <trkpt lat="43.37493" lon="1.85579">
        <ele>230.2</ele>
        <time>2023-05-27T09:00:03Z</time>
      </trkpt>
      <trkpt lat="43.37496" lon="1.85582">
        <ele>230.2</ele>
        <time>2023-05-27T09:00:04Z</time>
      </trkpt>
      <trkpt lat="43.37498" lon="1.85585">
        <ele>230.2</ele>
        <time>2023-05-27T09:00:05Z</time>
      </trkpt>
      <trkpt lat="43.37499" lon="1.85587">
        <ele>230.2</ele>
        <time>2023-05-27T09:00:06Z</time>
      </trkpt>
      <trkpt lat="43.37501" lon="1.8559">
        <ele>230.2</ele>
        <time>2023-05-27T09:00:07Z</time>
      </trkpt>
      <trkpt lat="43.37503" lon="1.85593">
        <ele>230.4</ele>
        <time>2023-05-27T09:00:08Z</time>
      </trkpt>
      <trkpt lat="43.37505" lon="1.85596">
        <ele>230.4</ele>
        <time>2023-05-27T09:00:09Z</time>
      </trkpt>
      <trkpt lat="43.37507" lon="1.85599">
        <ele>230.4</ele>
        <time>2023-05-27T09:00:10Z</time>
      </trkpt>
      <trkpt lat="43.37509" lon="1.85602">
        <ele>230.6</ele>
        <time>2023-05-27T09:00:11Z</time>
      </trkpt>
      <trkpt lat="43.3751" lon="1.85606">
        <ele>230.6</ele>
        <time>2023-05-27T09:00:12Z</time>
      </trkpt>
      <trkpt lat="43.37511" lon="1.85609">
        <ele>230.6</ele>
        <time>2023-05-27T09:00:13Z</time>
      </trkpt>
      <trkpt lat="43.37512" lon="1.85612">
        <ele>230.6</ele>
        <time>2023-05-27T09:00:14Z</time>
      </trkpt>
      <trkpt lat="43.37514" lon="1.85615">
        <ele>230.8</ele>
        <time>2023-05-27T09:00:15Z</time>
      </trkpt>
      <trkpt lat="43.37515" lon="1.85618">
        <ele>230.8</ele>
        <time>2023-05-27T09:00:16Z</time>
      </trkpt>
      <trkpt lat="43.37516" lon="1.85623">
        <ele>230.8</ele>
        <time>2023-05-27T09:00:17Z</time>
      </trkpt>
      <trkpt lat="43.37517" lon="1.85626">
        <ele>230.8</ele>
        <time>2023-05-27T09:00:18Z</time>
      </trkpt>
      <trkpt lat="43.37517" lon="1.85629">
        <ele>231</ele>
        <time>2023-05-27T09:00:19Z</time>
      </trkpt>
      <trkpt lat="43.37518" lon="1.85634">
        <ele>231</ele>
        <time>2023-05-27T09:00:20Z</time>
      </trkpt>
      <trkpt lat="43.37519" lon="1.85638">
        <ele>231</ele>
        <time>2023-05-27T09:00:21Z</time>
      </trkpt>
      <trkpt lat="43.37519" lon="1.85642">
        <ele>231</ele>
        <time>2023-05-27T09:00:22Z</time>
      </trkpt>
      <trkpt lat="43.37519" lon="1.85646">
        <ele>230.8</ele>
        <time>2023-05-27T09:00:23Z</time>
      </trkpt>
      <trkpt lat="43.37519" lon="1.8565">
        <ele>230.8</ele>
        <time>2023-05-27T09:00:24Z</time>
      </trkpt>
      <trkpt lat="43.37518" lon="1.85655">
        <ele>230.8</ele>
        <time>2023-05-27T09:00:25Z</time>
      </trkpt>
      <trkpt lat="43.37517" lon="1.8566">
        <ele>230.8</ele>
        <time>2023-05-27T09:00:26Z</time>
      </trkpt>
      <trkpt lat="43.37517" lon="1.85666">
        <ele>230.8</ele>
        <time>2023-05-27T09:00:27Z</time>
      </trkpt>
      <trkpt lat="43.37516" lon="1.85671">
        <ele>230.6</ele>
        <time>2023-05-27T09:00:28Z</time>
      </trkpt>
      <trkpt lat="43.37515" lon="1.85677">
        <ele>230.6</ele>
        <time>2023-05-27T09:00:29Z</time>
      </trkpt>
      <trkpt lat="43.37514" lon="1.85683">
        <ele>230.4</ele>
        <time>2023-05-27T09:00:30Z</time>
      </trkpt>
      <trkpt lat="43.37514" lon="1.85689">
        <ele>230.2</ele>
        <time>2023-05-27T09:00:31Z</time>
      </trkpt>
      <trkpt lat="43.37514" lon="1.85694">
        <ele>230</ele>
        <time>2023-05-27T09:00:32Z</time>
      </trkpt>
      <trkpt lat="43.37514" lon="1.857">
        <ele>230</ele>
        <time>2023-05-27T09:00:33Z</time>
      </trkpt>
      <trkpt lat="43.37513" lon="1.85706">
        <ele>229.8</ele>
        <time>2023-05-27T09:00:34Z</time>
      </trkpt>
      <trkpt lat="43.37512" lon="1.85711">
        <ele>229.8</ele>
        <time>2023-05-27T09:00:35Z</time>
      </trkpt>
      <trkpt lat="43.37512" lon="1.85716">
        <ele>229.6</ele>
        <time>2023-05-27T09:00:36Z</time>
      </trkpt>
      <trkpt lat="43.37512" lon="1.85723">
        <ele>229.4</ele>
        <time>2023-05-27T09:00:37Z</time>
      </trkpt>
      <trkpt lat="43.37512" lon="1.8573">
        <ele>229.2</ele>
        <time>2023-05-27T09:00:38Z</time>
      </trkpt>
      <trkpt lat="43.37512" lon="1.85737">
        <ele>229.2</ele>
        <time>2023-05-27T09:00:39Z</time>
      </trkpt>
      <trkpt lat="43.37513" lon="1.85742">
        <ele>229</ele>
        <time>2023-05-27T09:00:40Z</time>
      </trkpt>
      <trkpt lat="43.37513" lon="1.85749">
        <ele>228.8</ele>
        <time>2023-05-27T09:00:41Z</time>
      </trkpt>
      <trkpt lat="43.37511" lon="1.85758">
        <ele>228.8</ele>
        <time>2023-05-27T09:00:42Z</time>
      </trkpt>
      <trkpt lat="43.37508" lon="1.85766">
        <ele>228.6</ele>
        <time>2023-05-27T09:00:43Z</time>
      </trkpt>
      <trkpt lat="43.37506" lon="1.85772">
        <ele>228.6</ele>
        <time>2023-05-27T09:00:44Z</time>
      </trkpt>
      <trkpt lat="43.37505" lon="1.85777">
        <ele>228.4</ele>
        <time>2023-05-27T09:00:45Z</time>
      </trkpt>
      <trkpt lat="43.37504" lon="1.85783">
        <ele>228.4</ele>
        <time>2023-05-27T09:00:46Z</time>
      </trkpt>
      <trkpt lat="43.37505" lon="1.85788">
        <ele>228.4</ele>
        <time>2023-05-27T09:00:47Z</time>
      </trkpt>
      <trkpt lat="43.37506" lon="1.85794">
        <ele>228.2</ele>
        <time>2023-05-27T09:00:48Z</time>
      </trkpt>
      <trkpt lat="43.37506" lon="1.858">
        <ele>228.2</ele>
        <time>2023-05-27T09:00:49Z</time>
      </trkpt>
      <trkpt lat="43.37507" lon="1.85808">
        <ele>228.2</ele>
        <time>2023-05-27T09:00:50Z</time>
      </trkpt>
      <trkpt lat="43.37508" lon="1.85815">
        <ele>228.2</ele>
        <time>2023-05-27T09:00:51Z</time>
      </trkpt>
      <trkpt lat="43.37508" lon="1.85821">
        <ele>228.2</ele>
        <time>2023-05-27T09:00:52Z</time>
      </trkpt>
      <trkpt lat="43.37507" lon="1.85826">
        <ele>228.2</ele>
        <time>2023-05-27T09:00:53Z</time>
      </trkpt>
      <trkpt lat="43.37506" lon="1.85832">
        <ele>228.2</ele>
        <time>2023-05-27T09:00:54Z</time>
      </trkpt>
      <trkpt lat="43.37504" lon="1.85838">
        <ele>228.2</ele>
        <time>2023-05-27T09:00:55Z</time>
      </trkpt>
      <trkpt lat="43.37502" lon="1.85844">
        <ele>228.2</ele>
        <time>2023-05-27T09:00:56Z</time>
      </trkpt>
      <trkpt lat="43.37501" lon="1.8585">
        <ele>228.2</ele>
        <time>2023-05-27T09:00:57Z</time>
      </trkpt>
      <trkpt lat="43.375" lon="1.85854">
        <ele>228.2</ele>
        <time>2023-05-27T09:00:58Z</time>
      </trkpt>
      <trkpt lat="43.375" lon="1.85858">
        <ele>228</ele>
        <time>2023-05-27T09:00:59Z</time>
      </trkpt>
      <trkpt lat="43.375" lon="1.85862">
        <ele>228</ele>
        <time>2023-05-27T09:01:00Z</time>
      </trkpt>
      <trkpt lat="43.375" lon="1.85866">
        <ele>228</ele>
        <time>2023-05-27T09:01:01Z</time>
      </trkpt>
      <trkpt lat="43.37499" lon="1.8587">
        <ele>228</ele>
        <time>2023-05-27T09:01:02Z</time>
      </trkpt>
      <trkpt lat="43.37499" lon="1.85873">
        <ele>228</ele>
        <time>2023-05-27T09:01:03Z</time>
      </trkpt>
      <trkpt lat="43.37499" lon="1.85877">
        <ele>228</ele>
        <time>2023-05-27T09:01:04Z</time>
      </trkpt>
      <trkpt lat="43.37498" lon="1.85881">
        <ele>228</ele>
        <time>2023-05-27T09:01:05Z</time>
      </trkpt>
      <trkpt lat="43.37497" lon="1.85885">
        <ele>228</ele>
        <time>2023-05-27T09:01:06Z</time>
      </trkpt>
      <trkpt lat="43.37496" lon="1.8589">
        <ele>228</ele>
        <time>2023-05-27T09:01:07Z</time>
      </trkpt>
      <trkpt lat="43.37495" lon="1.85895">
        <ele>228</ele>
        <time>2023-05-27T09:01:08Z</time>
      </trkpt>
      <trkpt lat="43.37494" lon="1.85901">
        <ele>228</ele>
        <time>2023-05-27T09:01:09Z</time>
      </trkpt>
      <trkpt lat="43.37494" lon="1.85906">
        <ele>227.8</ele>
        <time>2023-05-27T09:01:10Z</time>
      </trkpt>
      <trkpt lat="43.37493" lon="1.8591">
        <ele>227.8</ele>
        <time>2023-05-27T09:01:11Z</time>
      </trkpt>
      <trkpt lat="43.37493" lon="1.85915">
        <ele>227.8</ele>
        <time>2023-05-27T09:01:12Z</time>
      </trkpt>
      <trkpt lat="43.37493" lon="1.8592">
        <ele>227.8</ele>
        <time>2023-05-27T09:01:13Z</time>
      </trkpt>
      <trkpt lat="43.37493" lon="1.85925">
        <ele>227.8</ele>
        <time>2023-05-27T09:01:14Z</time>
      </trkpt>
      <trkpt lat="43.37492" lon="1.8593">
        <ele>227.8</ele>
        <time>2023-05-27T09:01:15Z</time>
      </trkpt>
      <trkpt lat="43.37493" lon="1.85935">
        <ele>227.8</ele>
        <time>2023-05-27T09:01:16Z</time>
      </trkpt>
      <trkpt lat="43.37493" lon="1.8594">
        <ele>227.8</ele>
        <time>2023-05-27T09:01:17Z</time>
      </trkpt>
      <trkpt lat="43.37492" lon="1.85945">
        <ele>227.8</ele>
        <time>2023-05-27T09:01:18Z</time>
      </trkpt>
      <trkpt lat="43.3749" lon="1.85949">
        <ele>227.8</ele>
        <time>2023-05-27T09:01:19Z</time>
      </trkpt>
      <trkpt lat="43.37489" lon="1.85953">
        <ele>227.8</ele>
        <time>2023-05-27T09:01:20Z</time>
      </trkpt>
      <trkpt lat="43.37488" lon="1.85957">
        <ele>227.8</ele>
        <time>2023-05-27T09:01:21Z</time>
      </trkpt>
      <trkpt lat="43.37487" lon="1.85961">
        <ele>227.6</ele>
        <time>2023-05-27T09:01:22Z</time>
      </trkpt>
      <trkpt lat="43.37485" lon="1.85966">
        <ele>227.6</ele>
        <time>2023-05-27T09:01:23Z</time>
      </trkpt>
      <trkpt lat="43.37483" lon="1.85971">
        <ele>227.6</ele>
        <time>2023-05-27T09:01:24Z</time>
      </trkpt>
      <trkpt lat="43.37481" lon="1.85976">
        <ele>227.6</ele>
        <time>2023-05-27T09:01:25Z</time>
      </trkpt>
      <trkpt lat="43.37479" lon="1.85982">
        <ele>227.6</ele>
        <time>2023-05-27T09:01:26Z</time>
      </trkpt>
      <trkpt lat="43.37476" lon="1.85988">
        <ele>227.6</ele>
        <time>2023-05-27T09:01:27Z</time>
      </trkpt>
      <trkpt lat="43.37474" lon="1.85994">
        <ele>227.6</ele>
        <time>2023-05-27T09:01:28Z</time>
      </trkpt>
      <trkpt lat="43.37471" lon="1.85999">
        <ele>227.6</ele>
        <time>2023-05-27T09:01:29Z</time>
      </trkpt>
      <trkpt lat="43.37469" lon="1.86004">
        <ele>227.6</ele>
        <time>2023-05-27T09:01:30Z</time>
      </trkpt>
      <trkpt lat="43.37468" lon="1.86008">
        <ele>227.6</ele>
        <time>2023-05-27T09:01:31Z</time>
      </trkpt>
      <trkpt lat="43.37466" lon="1.86013">
        <ele>227.6</ele>
        <time>2023-05-27T09:01:32Z</time>
      </trkpt>
      <trkpt lat="43.37465" lon="1.86018">
        <ele>227.6</ele>
        <time>2023-05-27T09:01:33Z</time>
      </trkpt>
      <trkpt lat="43.37463" lon="1.86023">
        <ele>227.6</ele>
        <time>2023-05-27T09:01:34Z</time>
      </trkpt>
      <trkpt lat="43.37461" lon="1.86027">
        <ele>227.6</ele>
        <time>2023-05-27T09:01:35Z</time>
      </trkpt>
      <trkpt lat="43.37459" lon="1.8603">
        <ele>227.8</ele>
        <time>2023-05-27T09:01:36Z</time>
      </trkpt>
      <trkpt lat="43.37457" lon="1.86034">
        <ele>227.8</ele>
        <time>2023-05-27T09:01:37Z</time>
      </trkpt>
      <trkpt lat="43.37456" lon="1.86039">
        <ele>227.8</ele>
        <time>2023-05-27T09:01:38Z</time>
      </trkpt>
      <trkpt lat="43.37455" lon="1.86042">
        <ele>227.8</ele>
        <time>2023-05-27T09:01:39Z</time>
      </trkpt>
      <trkpt lat="43.37454" lon="1.86046">
        <ele>227.8</ele>
        <time>2023-05-27T09:01:40Z</time>
      </trkpt>
      <trkpt lat="43.3745" lon="1.86052">
        <ele>227.8</ele>
        <time>2023-05-27T09:01:41Z</time>
      </trkpt>
      <trkpt lat="43.37446" lon="1.86059">
        <ele>227.8</ele>
        <time>2023-05-27T09:01:42Z</time>
      </trkpt>
      <trkpt lat="43.37443" lon="1.86066">
        <ele>227.8</ele>
        <time>2023-05-27T09:01:43Z</time>
      </trkpt>
      <trkpt lat="43.37443" lon="1.8607">
        <ele>227.8</ele>
        <time>2023-05-27T09:01:44Z</time>
      </trkpt>
      <trkpt lat="43.37443" lon="1.86073">
        <ele>227.8</ele>
        <time>2023-05-27T09:01:45Z</time>
      </trkpt>
      <trkpt lat="43.37443" lon="1.86077">
        <ele>227.8</ele>
        <time>2023-05-27T09:01:46Z</time>
      </trkpt>
      <trkpt lat="43.37441" lon="1.8608">
        <ele>227.8</ele>
        <time>2023-05-27T09:01:47Z</time>
      </trkpt>
      <trkpt lat="43.37439" lon="1.86082">
        <ele>228</ele>
        <time>2023-05-27T09:01:48Z</time>
      </trkpt>
      <trkpt lat="43.37436" lon="1.86086">
        <ele>228</ele>
        <time>2023-05-27T09:01:49Z</time>
      </trkpt>
      <trkpt lat="43.37434" lon="1.8609">
        <ele>228</ele>
        <time>2023-05-27T09:01:50Z</time>
      </trkpt>
      <trkpt lat="43.37433" lon="1.86094">
        <ele>228</ele>
        <time>2023-05-27T09:01:51Z</time>
      </trkpt>
      <trkpt lat="43.37431" lon="1.86098">
        <ele>228</ele>
        <time>2023-05-27T09:01:52Z</time>
      </trkpt>
      <trkpt lat="43.3743" lon="1.86101">
        <ele>228</ele>
        <time>2023-05-27T09:01:53Z</time>
      </trkpt>
      <trkpt lat="43.37429" lon="1.86104">
        <ele>228</ele>
        <time>2023-05-27T09:01:54Z</time>
      </trkpt>
      <trkpt lat="43.37428" lon="1.86106">
        <ele>228</ele>
        <time>2023-05-27T09:01:55Z</time>
      </trkpt>
      <trkpt lat="43.37427" lon="1.86108">
        <ele>228</ele>
        <time>2023-05-27T09:01:56Z</time>
      </trkpt>
      <trkpt lat="43.37426" lon="1.86112">
        <ele>228</ele>
        <time>2023-05-27T09:01:57Z</time>
      </trkpt>
      <trkpt lat="43.37424" lon="1.86115">
        <ele>228</ele>
        <time>2023-05-27T09:01:58Z</time>
      </trkpt>
      <trkpt lat="43.37423" lon="1.86119">
        <ele>228.2</ele>
        <time>2023-05-27T09:01:59Z</time>
      </trkpt>
      <trkpt lat="43.37422" lon="1.86123">
        <ele>228.2</ele>
        <time>2023-05-27T09:02:00Z</time>
      </trkpt>
      <trkpt lat="43.37421" lon="1.86125">
        <ele>228.2</ele>
        <time>2023-05-27T09:02:01Z</time>
      </trkpt>
      <trkpt lat="43.3742" lon="1.86129">
        <ele>228.2</ele>
        <time>2023-05-27T09:02:02Z</time>
      </trkpt>
      <trkpt lat="43.37419" lon="1.86133">
        <ele>228.2</ele>
        <time>2023-05-27T09:02:03Z</time>
      </trkpt>
      <trkpt lat="43.37418" lon="1.86136">
        <ele>228.2</ele>
        <time>2023-05-27T09:02:04Z</time>
      </trkpt>
      <trkpt lat="43.37416" lon="1.8614">
        <ele>228.2</ele>
        <time>2023-05-27T09:02:05Z</time>
      </trkpt>
      <trkpt lat="43.37415" lon="1.86143">
        <ele>228.2</ele>
        <time>2023-05-27T09:02:06Z</time>
      </trkpt>
      <trkpt lat="43.37414" lon="1.86146">
        <ele>228.4</ele>
        <time>2023-05-27T09:02:07Z</time>
      </trkpt>
      <trkpt lat="43.37413" lon="1.86149">
        <ele>228.4</ele>
        <time>2023-05-27T09:02:08Z</time>
      </trkpt>
      <trkpt lat="43.37412" lon="1.86153">
        <ele>228.4</ele>
        <time>2023-05-27T09:02:09Z</time>
      </trkpt>
      <trkpt lat="43.37411" lon="1.86157">
        <ele>228.4</ele>
        <time>2023-05-27T09:02:10Z</time>
      </trkpt>
      <trkpt lat="43.37409" lon="1.86162">
        <ele>228.4</ele>
        <time>2023-05-27T09:02:11Z</time>
      </trkpt>
      <trkpt lat="43.37407" lon="1.86168">
        <ele>228.4</ele>
        <time>2023-05-27T09:02:12Z</time>
      </trkpt>
      <trkpt lat="43.37406" lon="1.86173">
        <ele>228.4</ele>
        <time>2023-05-27T09:02:13Z</time>
      </trkpt>
      <trkpt lat="43.37405" lon="1.86177">
        <ele>228.4</ele>
        <time>2023-05-27T09:02:14Z</time>
      </trkpt>
      <trkpt lat="43.37404" lon="1.86181">
        <ele>228.4</ele>
        <time>2023-05-27T09:02:15Z</time>
      </trkpt>
      <trkpt lat="43.37404" lon="1.86185">
        <ele>228.4</ele>
        <time>2023-05-27T09:02:16Z</time>
      </trkpt>
      <trkpt lat="43.37402" lon="1.8619">
        <ele>228.4</ele>
        <time>2023-05-27T09:02:17Z</time>
      </trkpt>
      <trkpt lat="43.37401" lon="1.86194">
        <ele>228.4</ele>
        <time>2023-05-27T09:02:18Z</time>
      </trkpt>
      <trkpt lat="43.37398" lon="1.86199">
        <ele>228.4</ele>
        <time>2023-05-27T09:02:19Z</time>
      </trkpt>
      <trkpt lat="43.37396" lon="1.86205">
        <ele>228.4</ele>
        <time>2023-05-27T09:02:20Z</time>
      </trkpt>
      <trkpt lat="43.37394" lon="1.8621">
        <ele>228.4</ele>
        <time>2023-05-27T09:02:21Z</time>
      </trkpt>
      <trkpt lat="43.37392" lon="1.86215">
        <ele>228.4</ele>
        <time>2023-05-27T09:02:22Z</time>
      </trkpt>
      <trkpt lat="43.37389" lon="1.8622">
        <ele>228.4</ele>
        <time>2023-05-27T09:02:23Z</time>
      </trkpt>
      <trkpt lat="43.37385" lon="1.86226">
        <ele>228.2</ele>
        <time>2023-05-27T09:02:24Z</time>
      </trkpt>
      <trkpt lat="43.37382" lon="1.86232">
        <ele>228.2</ele>
        <time>2023-05-27T09:02:25Z</time>
      </trkpt>
      <trkpt lat="43.37379" lon="1.86238">
        <ele>228.2</ele>
        <time>2023-05-27T09:02:26Z</time>
      </trkpt>
      <trkpt lat="43.37377" lon="1.86243">
        <ele>228.2</ele>
        <time>2023-05-27T09:02:27Z</time>
      </trkpt>
      <trkpt lat="43.37377" lon="1.86247">
        <ele>228.2</ele>
        <time>2023-05-27T09:02:28Z</time>
      </trkpt>
      <trkpt lat="43.37376" lon="1.86252">
        <ele>228</ele>
        <time>2023-05-27T09:02:29Z</time>
      </trkpt>
      <trkpt lat="43.37373" lon="1.86258">
        <ele>228</ele>
        <time>2023-05-27T09:02:30Z</time>
      </trkpt>
      <trkpt lat="43.37371" lon="1.86262">
        <ele>228</ele>
        <time>2023-05-27T09:02:31Z</time>
      </trkpt>
      <trkpt lat="43.37369" lon="1.86266">
        <ele>228.2</ele>
        <time>2023-05-27T09:02:32Z</time>
      </trkpt>
      <trkpt lat="43.37368" lon="1.86269">
        <ele>228</ele>
        <time>2023-05-27T09:02:33Z</time>
      </trkpt>
      <trkpt lat="43.37366" lon="1.86272">
        <ele>228</ele>
        <time>2023-05-27T09:02:34Z</time>
      </trkpt>
      <trkpt lat="43.37364" lon="1.86276">
        <ele>228</ele>
        <time>2023-05-27T09:02:35Z</time>
      </trkpt>
      <trkpt lat="43.37363" lon="1.86279">
        <ele>228</ele>
        <time>2023-05-27T09:02:36Z</time>
      </trkpt>
      <trkpt lat="43.37361" lon="1.86282">
        <ele>228</ele>
        <time>2023-05-27T09:02:37Z</time>
      </trkpt>
      <trkpt lat="43.3736" lon="1.86285">
        <ele>228</ele>
        <time>2023-05-27T09:02:38Z</time>
      </trkpt>
      <trkpt lat="43.37358" lon="1.86289">
        <ele>228</ele>
        <time>2023-05-27T09:02:39Z</time>
      </trkpt>
      <trkpt lat="43.37356" lon="1.86292">
        <ele>228</ele>
        <time>2023-05-27T09:02:40Z</time>
      </trkpt>
      <trkpt lat="43.37354" lon="1.86296">
        <ele>227.8</ele>
        <time>2023-05-27T09:02:41Z</time>
      </trkpt>
      <trkpt lat="43.37353" lon="1.86301">
        <ele>227.8</ele>
        <time>2023-05-27T09:02:42Z</time>
      </trkpt>
      <trkpt lat="43.37351" lon="1.86304">
        <ele>227.8</ele>
        <time>2023-05-27T09:02:43Z</time>
      </trkpt>
      <trkpt lat="43.3735" lon="1.86308">
        <ele>227.8</ele>
        <time>2023-05-27T09:02:44Z</time>
      </trkpt>
      <trkpt lat="43.37349" lon="1.86311">
        <ele>227.8</ele>
        <time>2023-05-27T09:02:45Z</time>
      </trkpt>
      <trkpt lat="43.37348" lon="1.86314">
        <ele>227.8</ele>
        <time>2023-05-27T09:02:46Z</time>
      </trkpt>
      <trkpt lat="43.37346" lon="1.86318">
        <ele>227.8</ele>
        <time>2023-05-27T09:02:47Z</time>
      </trkpt>
      <trkpt lat="43.37344" lon="1.86321">
        <ele>227.8</ele>
        <time>2023-05-27T09:02:48Z</time>
      </trkpt>
      <trkpt lat="43.37343" lon="1.86324">
        <ele>227.8</ele>
        <time>2023-05-27T09:02:49Z</time>
      </trkpt>
      <trkpt lat="43.37342" lon="1.86327">
        <ele>227.8</ele>
        <time>2023-05-27T09:02:50Z</time>
      </trkpt>
      <trkpt lat="43.3734" lon="1.8633">
        <ele>227.8</ele>
        <time>2023-05-27T09:02:51Z</time>
      </trkpt>
      <trkpt lat="43.37339" lon="1.86333">
        <ele>227.8</ele>
        <time>2023-05-27T09:02:52Z</time>
      </trkpt>
      <trkpt lat="43.37337" lon="1.86337">
        <ele>227.8</ele>
        <time>2023-05-27T09:02:53Z</time>
      </trkpt>
      <trkpt lat="43.37335" lon="1.86341">
        <ele>227.6</ele>
        <time>2023-05-27T09:02:54Z</time>
      </trkpt>
      <trkpt lat="43.37334" lon="1.86344">
        <ele>227.6</ele>
        <time>2023-05-27T09:02:55Z</time>
      </trkpt>
      <trkpt lat="43.37332" lon="1.86348">
        <ele>227.6</ele>
        <time>2023-05-27T09:02:56Z</time>
      </trkpt>
      <trkpt lat="43.3733" lon="1.86352">
        <ele>227.6</ele>
        <time>2023-05-27T09:02:57Z</time>
      </trkpt>
      <trkpt lat="43.37329" lon="1.86356">
        <ele>227.6</ele>
        <time>2023-05-27T09:02:58Z</time>
      </trkpt>
      <trkpt lat="43.37328" lon="1.86361">
        <ele>227.6</ele>
        <time>2023-05-27T09:02:59Z</time>
      </trkpt>
      <trkpt lat="43.37326" lon="1.86365">
        <ele>227.8</ele>
        <time>2023-05-27T09:03:00Z</time>
      </trkpt>
      <trkpt lat="43.37325" lon="1.86368">
        <ele>227.8</ele>
        <time>2023-05-27T09:03:01Z</time>
      </trkpt>
      <trkpt lat="43.37324" lon="1.86371">
        <ele>227.8</ele>
        <time>2023-05-27T09:03:02Z</time>
      </trkpt>
      <trkpt lat="43.37322" lon="1.86376">
        <ele>227.8</ele>
        <time>2023-05-27T09:03:03Z</time>
      </trkpt>
      <trkpt lat="43.37321" lon="1.86381">
        <ele>227.8</ele>
        <time>2023-05-27T09:03:04Z</time>
      </trkpt>
      <trkpt lat="43.37319" lon="1.86387">
        <ele>227.8</ele>
        <time>2023-05-27T09:03:05Z</time>
      </trkpt>
      <trkpt lat="43.37317" lon="1.86395">
        <ele>227.8</ele>
        <time>2023-05-27T09:03:06Z</time>
      </trkpt>
      <trkpt lat="43.37317" lon="1.86401">
        <ele>227.8</ele>
        <time>2023-05-27T09:03:07Z</time>
      </trkpt>
      <trkpt lat="43.37316" lon="1.86405">
        <ele>228</ele>
        <time>2023-05-27T09:03:08Z</time>
      </trkpt>
      <trkpt lat="43.37316" lon="1.86409">
        <ele>228</ele>
        <time>2023-05-27T09:03:09Z</time>
      </trkpt>
      <trkpt lat="43.37314" lon="1.86414">
        <ele>228</ele>
        <time>2023-05-27T09:03:10Z</time>
      </trkpt>
      <trkpt lat="43.37313" lon="1.86419">
        <ele>228</ele>
        <time>2023-05-27T09:03:11Z</time>
      </trkpt>
      <trkpt lat="43.37313" lon="1.86423">
        <ele>228</ele>
        <time>2023-05-27T09:03:12Z</time>
      </trkpt>
      <trkpt lat="43.37314" lon="1.86427">
        <ele>228</ele>
        <time>2023-05-27T09:03:13Z</time>
      </trkpt>
      <trkpt lat="43.37313" lon="1.8643">
        <ele>228</ele>
        <time>2023-05-27T09:03:14Z</time>
      </trkpt>
      <trkpt lat="43.37313" lon="1.86433">
        <ele>228</ele>
        <time>2023-05-27T09:03:15Z</time>
      </trkpt>
      <trkpt lat="43.37312" lon="1.86437">
        <ele>228</ele>
        <time>2023-05-27T09:03:16Z</time>
      </trkpt>
      <trkpt lat="43.37312" lon="1.8644">
        <ele>228</ele>
        <time>2023-05-27T09:03:17Z</time>
      </trkpt>
      <trkpt lat="43.37312" lon="1.86443">
        <ele>228.2</ele>
        <time>2023-05-27T09:03:18Z</time>
      </trkpt>
      <trkpt lat="43.37312" lon="1.86447">
        <ele>228.2</ele>
        <time>2023-05-27T09:03:19Z</time>
      </trkpt>
      <trkpt lat="43.37312" lon="1.86452">
        <ele>228.2</ele>
        <time>2023-05-27T09:03:20Z</time>
      </trkpt>
      <trkpt lat="43.37312" lon="1.86457">
        <ele>228.2</ele>
        <time>2023-05-27T09:03:21Z</time>
      </trkpt>
      <trkpt lat="43.37312" lon="1.86461">
        <ele>228.2</ele>
        <time>2023-05-27T09:03:22Z</time>
      </trkpt>
      <trkpt lat="43.37313" lon="1.86464">
        <ele>228.2</ele>
        <time>2023-05-27T09:03:23Z</time>
      </trkpt>
      <trkpt lat="43.37314" lon="1.86469">
        <ele>228.2</ele>
        <time>2023-05-27T09:03:24Z</time>
      </trkpt>
      <trkpt lat="43.37315" lon="1.86475">
        <ele>228</ele>
        <time>2023-05-27T09:03:25Z</time>
      </trkpt>
      <trkpt lat="43.37317" lon="1.8648">
        <ele>228</ele>
        <time>2023-05-27T09:03:26Z</time>
      </trkpt>
      <trkpt lat="43.37319" lon="1.86484">
        <ele>228</ele>
        <time>2023-05-27T09:03:27Z</time>
      </trkpt>
      <trkpt lat="43.37321" lon="1.86488">
        <ele>227.8</ele>
        <time>2023-05-27T09:03:28Z</time>
      </trkpt>
      <trkpt lat="43.37323" lon="1.86491">
        <ele>227.8</ele>
        <time>2023-05-27T09:03:29Z</time>
      </trkpt>
      <trkpt lat="43.37325" lon="1.86495">
        <ele>227.6</ele>
        <time>2023-05-27T09:03:30Z</time>
      </trkpt>
      <trkpt lat="43.37327" lon="1.86499">
        <ele>227.6</ele>
        <time>2023-05-27T09:03:31Z</time>
      </trkpt>
      <trkpt lat="43.37328" lon="1.86503">
        <ele>227.6</ele>
        <time>2023-05-27T09:03:32Z</time>
      </trkpt>
      <trkpt lat="43.37329" lon="1.86507">
        <ele>227.6</ele>
        <time>2023-05-27T09:03:33Z</time>
      </trkpt>
      <trkpt lat="43.37331" lon="1.86509">
        <ele>227.6</ele>
        <time>2023-05-27T09:03:34Z</time>
      </trkpt>
      <trkpt lat="43.37334" lon="1.86511">
        <ele>227.4</ele>
        <time>2023-05-27T09:03:35Z</time>
      </trkpt>
      <trkpt lat="43.37338" lon="1.86514">
        <ele>227.4</ele>
        <time>2023-05-27T09:03:36Z</time>
      </trkpt>
      <trkpt lat="43.37341" lon="1.86517">
        <ele>227.4</ele>
        <time>2023-05-27T09:03:37Z</time>
      </trkpt>
      <trkpt lat="43.37344" lon="1.8652">
        <ele>227.4</ele>
        <time>2023-05-27T09:03:38Z</time>
      </trkpt>
      <trkpt lat="43.37347" lon="1.86522">
        <ele>227.4</ele>
        <time>2023-05-27T09:03:39Z</time>
      </trkpt>
      <trkpt lat="43.37351" lon="1.86524">
        <ele>227.4</ele>
        <time>2023-05-27T09:03:40Z</time>
      </trkpt>
      <trkpt lat="43.37355" lon="1.86525">
        <ele>227.4</ele>
        <time>2023-05-27T09:03:41Z</time>
      </trkpt>
      <trkpt lat="43.37359" lon="1.86526">
        <ele>227.4</ele>
        <time>2023-05-27T09:03:42Z</time>
      </trkpt>
      <trkpt lat="43.37363" lon="1.86527">
        <ele>227.4</ele>
        <time>2023-05-27T09:03:43Z</time>
      </trkpt>
      <trkpt lat="43.37366" lon="1.86528">
        <ele>227.2</ele>
        <time>2023-05-27T09:03:44Z</time>
      </trkpt>
      <trkpt lat="43.37369" lon="1.86528">
        <ele>227.2</ele>
        <time>2023-05-27T09:03:45Z</time>
      </trkpt>
      <trkpt lat="43.37372" lon="1.86528">
        <ele>227.4</ele>
        <time>2023-05-27T09:03:46Z</time>
      </trkpt>
      <trkpt lat="43.37375" lon="1.86528">
        <ele>227.4</ele>
        <time>2023-05-27T09:03:47Z</time>
      </trkpt>
      <trkpt lat="43.37378" lon="1.8653">
        <ele>227.4</ele>
        <time>2023-05-27T09:03:48Z</time>
      </trkpt>
      <trkpt lat="43.37381" lon="1.86531">
        <ele>227.4</ele>
        <time>2023-05-27T09:03:49Z</time>
      </trkpt>
      <trkpt lat="43.37384" lon="1.86532">
        <ele>227.4</ele>
        <time>2023-05-27T09:03:50Z</time>
      </trkpt>
      <trkpt lat="43.37387" lon="1.86532">
        <ele>227.4</ele>
        <time>2023-05-27T09:03:51Z</time>
      </trkpt>
      <trkpt lat="43.37389" lon="1.86532">
        <ele>227.4</ele>
        <time>2023-05-27T09:03:52Z</time>
      </trkpt>
      <trkpt lat="43.37392" lon="1.86532">
        <ele>227.4</ele>
        <time>2023-05-27T09:03:53Z</time>
      </trkpt>
      <trkpt lat="43.37394" lon="1.86531">
        <ele>227.4</ele>
        <time>2023-05-27T09:03:54Z</time>
      </trkpt>
      <trkpt lat="43.37398" lon="1.86531">
        <ele>227.4</ele>
        <time>2023-05-27T09:03:55Z</time>
      </trkpt>
      <trkpt lat="43.37401" lon="1.8653">
        <ele>227.6</ele>
        <time>2023-05-27T09:03:56Z</time>
      </trkpt>
      <trkpt lat="43.37404" lon="1.8653">
        <ele>227.6</ele>
        <time>2023-05-27T09:03:57Z</time>
      </trkpt>
      <trkpt lat="43.37407" lon="1.86531">
        <ele>227.6</ele>
        <time>2023-05-27T09:03:58Z</time>
      </trkpt>
      <trkpt lat="43.3741" lon="1.86531">
        <ele>227.6</ele>
        <time>2023-05-27T09:03:59Z</time>
      </trkpt>
      <trkpt lat="43.37412" lon="1.86531">
        <ele>227.6</ele>
        <time>2023-05-27T09:04:00Z</time>
      </trkpt>
      <trkpt lat="43.37415" lon="1.86532">
        <ele>227.4</ele>
        <time>2023-05-27T09:04:01Z</time>
      </trkpt>
      <trkpt lat="43.37418" lon="1.86534">
        <ele>227.4</ele>
        <time>2023-05-27T09:04:02Z</time>
      </trkpt>
      <trkpt lat="43.37421" lon="1.86536">
        <ele>227.6</ele>
        <time>2023-05-27T09:04:03Z</time>
      </trkpt>
      <trkpt lat="43.37424" lon="1.86537">
        <ele>227.6</ele>
        <time>2023-05-27T09:04:04Z</time>
      </trkpt>
      <trkpt lat="43.37427" lon="1.86537">
        <ele>227.6</ele>
        <time>2023-05-27T09:04:05Z</time>
      </trkpt>
      <trkpt lat="43.37429" lon="1.86539">
        <ele>227.4</ele>
        <time>2023-05-27T09:04:06Z</time>
      </trkpt>
      <trkpt lat="43.37431" lon="1.86543">
        <ele>227.4</ele>
        <time>2023-05-27T09:04:07Z</time>
      </trkpt>
      <trkpt lat="43.37434" lon="1.86546">
        <ele>227.4</ele>
        <time>2023-05-27T09:04:08Z</time>
      </trkpt>
      <trkpt lat="43.37437" lon="1.86551">
        <ele>227.4</ele>
        <time>2023-05-27T09:04:09Z</time>
      </trkpt>
      <trkpt lat="43.37442" lon="1.86555">
        <ele>227.6</ele>
        <time>2023-05-27T09:04:10Z</time>
      </trkpt>
      <trkpt lat="43.37446" lon="1.86559">
        <ele>227.6</ele>
        <time>2023-05-27T09:04:11Z</time>
      </trkpt>
      <trkpt lat="43.37448" lon="1.86561">
        <ele>227.6</ele>
        <time>2023-05-27T09:04:12Z</time>
      </trkpt>
      <trkpt lat="43.3745" lon="1.86563">
        <ele>227.6</ele>
        <time>2023-05-27T09:04:13Z</time>
      </trkpt>
      <trkpt lat="43.37453" lon="1.86566">
        <ele>227.6</ele>
        <time>2023-05-27T09:04:14Z</time>
      </trkpt>
      <trkpt lat="43.37456" lon="1.86571">
        <ele>227.6</ele>
        <time>2023-05-27T09:04:15Z</time>
      </trkpt>
      <trkpt lat="43.37458" lon="1.86574">
        <ele>227.6</ele>
        <time>2023-05-27T09:04:16Z</time>
      </trkpt>
      <trkpt lat="43.37459" lon="1.86577">
        <ele>227.6</ele>
        <time>2023-05-27T09:04:17Z</time>
      </trkpt>
      <trkpt lat="43.3746" lon="1.8658">
        <ele>227.6</ele>
        <time>2023-05-27T09:04:18Z</time>
      </trkpt>
      <trkpt lat="43.37461" lon="1.86583">
        <ele>227.6</ele>
        <time>2023-05-27T09:04:19Z</time>
      </trkpt>
      <trkpt lat="43.37462" lon="1.86586">
        <ele>227.6</ele>
        <time>2023-05-27T09:04:20Z</time>
      </trkpt>
      <trkpt lat="43.37463" lon="1.86589">
        <ele>227.6</ele>
        <time>2023-05-27T09:04:21Z</time>
      </trkpt>
      <trkpt lat="43.37464" lon="1.86591">
        <ele>227.6</ele>
        <time>2023-05-27T09:04:22Z</time>
      </trkpt>
      <trkpt lat="43.37465" lon="1.86593">
        <ele>227.6</ele>
        <time>2023-05-27T09:04:23Z</time>
      </trkpt>
      <trkpt lat="43.37466" lon="1.86594">
        <ele>227.6</ele>
        <time>2023-05-27T09:04:24Z</time>
      </trkpt>
      <trkpt lat="43.37467" lon="1.86595">
        <ele>227.6</ele>
        <time>2023-05-27T09:04:25Z</time>
      </trkpt>
      <trkpt lat="43.37468" lon="1.86597">
        <ele>227.6</ele>
        <time>2023-05-27T09:04:26Z</time>
      </trkpt>
      <trkpt lat="43.37469" lon="1.86598">
        <ele>227.6</ele>
        <time>2023-05-27T09:04:27Z</time>
      </trkpt>
      <trkpt lat="43.37471" lon="1.866">
        <ele>227.4</ele>
        <time>2023-05-27T09:04:28Z</time>
      </trkpt>
      <trkpt lat="43.37473" lon="1.86602">
        <ele>227.4</ele>
        <time>2023-05-27T09:04:29Z</time>
      </trkpt>
      <trkpt lat="43.37474" lon="1.86604">
        <ele>227.4</ele>
        <time>2023-05-27T09:04:30Z</time>
      </trkpt>
      <trkpt lat="43.37474" lon="1.86605">
        <ele>227.2</ele>
        <time>2023-05-27T09:04:31Z</time>
      </trkpt>
      <trkpt lat="43.37477" lon="1.86613">
        <ele>227.2</ele>
        <time>2023-05-27T09:05:35Z</time>
      </trkpt>
      <trkpt lat="43.37477" lon="1.86614">
        <ele>227.2</ele>
        <time>2023-05-27T09:05:36Z</time>
      </trkpt>
      <trkpt lat="43.37477" lon="1.86615">
        <ele>227.2</ele>
        <time>2023-05-27T09:05:37Z</time>
      </trkpt>
      <trkpt lat="43.37478" lon="1.86617">
        <ele>227.2</ele>
        <time>2023-05-27T09:05:38Z</time>
      </trkpt>
      <trkpt lat="43.37479" lon="1.86619">
        <ele>227.2</ele>
        <time>2023-05-27T09:05:39Z</time>
      </trkpt>
      <trkpt lat="43.37479" lon="1.86621">
        <ele>227.2</ele>
        <time>2023-05-27T09:05:40Z</time>
      </trkpt>
      <trkpt lat="43.37479" lon="1.86622">
        <ele>227.2</ele>
        <time>2023-05-27T09:05:41Z</time>
      </trkpt>
      <trkpt lat="43.37479" lon="1.86624">
        <ele>227.2</ele>
        <time>2023-05-27T09:05:42Z</time>
      </trkpt>
      <trkpt lat="43.3748" lon="1.86626">
        <ele>227.2</ele>
        <time>2023-05-27T09:05:43Z</time>
      </trkpt>
      <trkpt lat="43.3748" lon="1.8663">
        <ele>227.2</ele>
        <time>2023-05-27T09:05:44Z</time>
      </trkpt>
      <trkpt lat="43.37481" lon="1.86633">
        <ele>227.2</ele>
        <time>2023-05-27T09:05:45Z</time>
      </trkpt>
      <trkpt lat="43.37481" lon="1.86637">
        <ele>227</ele>
        <time>2023-05-27T09:05:46Z</time>
      </trkpt>
      <trkpt lat="43.37481" lon="1.8664">
        <ele>227</ele>
        <time>2023-05-27T09:05:47Z</time>
      </trkpt>
      <trkpt lat="43.37481" lon="1.86644">
        <ele>227</ele>
        <time>2023-05-27T09:05:48Z</time>
      </trkpt>
      <trkpt lat="43.37481" lon="1.86648">
        <ele>227</ele>
        <time>2023-05-27T09:05:49Z</time>
      </trkpt>
      <trkpt lat="43.3748" lon="1.86652">
        <ele>227</ele>
        <time>2023-05-27T09:05:50Z</time>
      </trkpt>
      <trkpt lat="43.37481" lon="1.86655">
        <ele>227</ele>
        <time>2023-05-27T09:05:51Z</time>
      </trkpt>
      <trkpt lat="43.37481" lon="1.86659">
        <ele>227</ele>
        <time>2023-05-27T09:05:52Z</time>
      </trkpt>
      <trkpt lat="43.37481" lon="1.86662">
        <ele>227</ele>
        <time>2023-05-27T09:05:53Z</time>
      </trkpt>
      <trkpt lat="43.3748" lon="1.86666">
        <ele>227</ele>
        <time>2023-05-27T09:05:54Z</time>
      </trkpt>
      <trkpt lat="43.37479" lon="1.86669">
        <ele>227</ele>
        <time>2023-05-27T09:05:55Z</time>
      </trkpt>
      <trkpt lat="43.37478" lon="1.86672">
        <ele>227</ele>
        <time>2023-05-27T09:05:56Z</time>
      </trkpt>
      <trkpt lat="43.37477" lon="1.86676">
        <ele>227</ele>
        <time>2023-05-27T09:05:57Z</time>
      </trkpt>
      <trkpt lat="43.37476" lon="1.86681">
        <ele>227</ele>
        <time>2023-05-27T09:05:58Z</time>
      </trkpt>
      <trkpt lat="43.37475" lon="1.86685">
        <ele>227</ele>
        <time>2023-05-27T09:05:59Z</time>
      </trkpt>
      <trkpt lat="43.37475" lon="1.86688">
        <ele>227</ele>
        <time>2023-05-27T09:06:00Z</time>
      </trkpt>
      <trkpt lat="43.37473" lon="1.86691">
        <ele>227</ele>
        <time>2023-05-27T09:06:01Z</time>
      </trkpt>
      <trkpt lat="43.37471" lon="1.86694">
        <ele>227</ele>
        <time>2023-05-27T09:06:02Z</time>
      </trkpt>
      <trkpt lat="43.37469" lon="1.86699">
        <ele>227</ele>
        <time>2023-05-27T09:06:03Z</time>
      </trkpt>
      <trkpt lat="43.37467" lon="1.86702">
        <ele>227</ele>
        <time>2023-05-27T09:06:04Z</time>
      </trkpt>
      <trkpt lat="43.37466" lon="1.86706">
        <ele>227</ele>
        <time>2023-05-27T09:06:05Z</time>
      </trkpt>
      <trkpt lat="43.37464" lon="1.8671">
        <ele>227</ele>
        <time>2023-05-27T09:06:06Z</time>
      </trkpt>
      <trkpt lat="43.37461" lon="1.86715">
        <ele>227</ele>
        <time>2023-05-27T09:06:07Z</time>
      </trkpt>
      <trkpt lat="43.37458" lon="1.86722">
        <ele>227</ele>
        <time>2023-05-27T09:06:08Z</time>
      </trkpt>
      <trkpt lat="43.37456" lon="1.86726">
        <ele>227</ele>
        <time>2023-05-27T09:06:09Z</time>
      </trkpt>
      <trkpt lat="43.37455" lon="1.8673">
        <ele>227</ele>
        <time>2023-05-27T09:06:10Z</time>
      </trkpt>
      <trkpt lat="43.37454" lon="1.86733">
        <ele>227</ele>
        <time>2023-05-27T09:06:11Z</time>
      </trkpt>
      <trkpt lat="43.37453" lon="1.86737">
        <ele>227</ele>
        <time>2023-05-27T09:06:12Z</time>
      </trkpt>
      <trkpt lat="43.37451" lon="1.86742">
        <ele>227</ele>
        <time>2023-05-27T09:06:13Z</time>
      </trkpt>
      <trkpt lat="43.37449" lon="1.86747">
        <ele>227.2</ele>
        <time>2023-05-27T09:06:14Z</time>
      </trkpt>
      <trkpt lat="43.37448" lon="1.86751">
        <ele>227.2</ele>
        <time>2023-05-27T09:06:15Z</time>
      </trkpt>
      <trkpt lat="43.37447" lon="1.86753">
        <ele>227.2</ele>
        <time>2023-05-27T09:06:16Z</time>
      </trkpt>
      <trkpt lat="43.37446" lon="1.86756">
        <ele>227.2</ele>
        <time>2023-05-27T09:06:17Z</time>
      </trkpt>
      <trkpt lat="43.37445" lon="1.86759">
        <ele>227.2</ele>
        <time>2023-05-27T09:06:18Z</time>
      </trkpt>
      <trkpt lat="43.37444" lon="1.86763">
        <ele>227.2</ele>
        <time>2023-05-27T09:06:19Z</time>
      </trkpt>
      <trkpt lat="43.37442" lon="1.86767">
        <ele>227.2</ele>
        <time>2023-05-27T09:06:20Z</time>
      </trkpt>
      <trkpt lat="43.3744" lon="1.86771">
        <ele>227.2</ele>
        <time>2023-05-27T09:06:21Z</time>
      </trkpt>
      <trkpt lat="43.37439" lon="1.86775">
        <ele>227.2</ele>
        <time>2023-05-27T09:06:22Z</time>
      </trkpt>
      <trkpt lat="43.37438" lon="1.86779">
        <ele>227.2</ele>
        <time>2023-05-27T09:06:23Z</time>
      </trkpt>
      <trkpt lat="43.37436" lon="1.86783">
        <ele>227.2</ele>
        <time>2023-05-27T09:06:24Z</time>
      </trkpt>
      <trkpt lat="43.37434" lon="1.86788">
        <ele>227.2</ele>
        <time>2023-05-27T09:06:25Z</time>
      </trkpt>
      <trkpt lat="43.37432" lon="1.86793">
        <ele>227.2</ele>
        <time>2023-05-27T09:06:26Z</time>
      </trkpt>
      <trkpt lat="43.3743" lon="1.86798">
        <ele>227.2</ele>
        <time>2023-05-27T09:06:27Z</time>
      </trkpt>
      <trkpt lat="43.37429" lon="1.86803">
        <ele>227.2</ele>
        <time>2023-05-27T09:06:28Z</time>
      </trkpt>
      <trkpt lat="43.37427" lon="1.86808">
        <ele>227.2</ele>
        <time>2023-05-27T09:06:29Z</time>
      </trkpt>
      <trkpt lat="43.37425" lon="1.86813">
        <ele>227.2</ele>
        <time>2023-05-27T09:06:30Z</time>
      </trkpt>
      <trkpt lat="43.37422" lon="1.86818">
        <ele>227.2</ele>
        <time>2023-05-27T09:06:31Z</time>
      </trkpt>
      <trkpt lat="43.37421" lon="1.86823">
        <ele>227.2</ele>
        <time>2023-05-27T09:06:32Z</time>
      </trkpt>
      <trkpt lat="43.37419" lon="1.86828">
        <ele>227.2</ele>
        <time>2023-05-27T09:06:33Z</time>
      </trkpt>
      <trkpt lat="43.37417" lon="1.86833">
        <ele>227.2</ele>
        <time>2023-05-27T09:06:34Z</time>
      </trkpt>
      <trkpt lat="43.37416" lon="1.86839">
        <ele>227.2</ele>
        <time>2023-05-27T09:06:35Z</time>
      </trkpt>
      <trkpt lat="43.37414" lon="1.86845">
        <ele>227.2</ele>
        <time>2023-05-27T09:06:36Z</time>
      </trkpt>
      <trkpt lat="43.37413" lon="1.86852">
        <ele>227</ele>
        <time>2023-05-27T09:06:37Z</time>
      </trkpt>
      <trkpt lat="43.37412" lon="1.86859">
        <ele>227</ele>
        <time>2023-05-27T09:06:38Z</time>
      </trkpt>
      <trkpt lat="43.37411" lon="1.86864">
        <ele>227</ele>
        <time>2023-05-27T09:06:39Z</time>
      </trkpt>
      <trkpt lat="43.3741" lon="1.86869">
        <ele>227</ele>
        <time>2023-05-27T09:06:40Z</time>
      </trkpt>
      <trkpt lat="43.37409" lon="1.86874">
        <ele>227</ele>
        <time>2023-05-27T09:06:41Z</time>
      </trkpt>
      <trkpt lat="43.37408" lon="1.8688">
        <ele>227</ele>
        <time>2023-05-27T09:06:42Z</time>
      </trkpt>
      <trkpt lat="43.37407" lon="1.86885">
        <ele>227</ele>
        <time>2023-05-27T09:06:43Z</time>
      </trkpt>
      <trkpt lat="43.37406" lon="1.8689">
        <ele>227</ele>
        <time>2023-05-27T09:06:44Z</time>
      </trkpt>
      <trkpt lat="43.37405" lon="1.86896">
        <ele>227</ele>
        <time>2023-05-27T09:06:45Z</time>
      </trkpt>
      <trkpt lat="43.37404" lon="1.86901">
        <ele>227</ele>
        <time>2023-05-27T09:06:46Z</time>
      </trkpt>
      <trkpt lat="43.37403" lon="1.86908">
        <ele>227</ele>
        <time>2023-05-27T09:06:47Z</time>
      </trkpt>
      <trkpt lat="43.37402" lon="1.86914">
        <ele>227</ele>
        <time>2023-05-27T09:06:48Z</time>
      </trkpt>
      <trkpt lat="43.37401" lon="1.86921">
        <ele>227</ele>
        <time>2023-05-27T09:06:49Z</time>
      </trkpt>
      <trkpt lat="43.374" lon="1.86927">
        <ele>227.2</ele>
        <time>2023-05-27T09:06:50Z</time>
      </trkpt>
      <trkpt lat="43.37399" lon="1.86932">
        <ele>227.2</ele>
        <time>2023-05-27T09:06:51Z</time>
      </trkpt>
      <trkpt lat="43.37398" lon="1.86937">
        <ele>227.2</ele>
        <time>2023-05-27T09:06:52Z</time>
      </trkpt>
      <trkpt lat="43.37397" lon="1.86941">
        <ele>227.4</ele>
        <time>2023-05-27T09:06:53Z</time>
      </trkpt>
      <trkpt lat="43.37396" lon="1.86945">
        <ele>227.4</ele>
        <time>2023-05-27T09:06:54Z</time>
      </trkpt>
      <trkpt lat="43.37395" lon="1.86949">
        <ele>227.6</ele>
        <time>2023-05-27T09:06:55Z</time>
      </trkpt>
      <trkpt lat="43.37394" lon="1.86952">
        <ele>227.6</ele>
        <time>2023-05-27T09:06:56Z</time>
      </trkpt>
      <trkpt lat="43.37393" lon="1.86955">
        <ele>227.8</ele>
        <time>2023-05-27T09:06:57Z</time>
      </trkpt>
      <trkpt lat="43.37392" lon="1.86959">
        <ele>227.8</ele>
        <time>2023-05-27T09:06:58Z</time>
      </trkpt>
      <trkpt lat="43.37392" lon="1.86963">
        <ele>228</ele>
        <time>2023-05-27T09:06:59Z</time>
      </trkpt>
      <trkpt lat="43.37391" lon="1.86966">
        <ele>228</ele>
        <time>2023-05-27T09:07:00Z</time>
      </trkpt>
      <trkpt lat="43.3739" lon="1.8697">
        <ele>228</ele>
        <time>2023-05-27T09:07:01Z</time>
      </trkpt>
      <trkpt lat="43.37389" lon="1.86973">
        <ele>228</ele>
        <time>2023-05-27T09:07:02Z</time>
      </trkpt>
      <trkpt lat="43.37388" lon="1.86977">
        <ele>228.2</ele>
        <time>2023-05-27T09:07:03Z</time>
      </trkpt>
      <trkpt lat="43.37387" lon="1.8698">
        <ele>228.2</ele>
        <time>2023-05-27T09:07:04Z</time>
      </trkpt>
      <trkpt lat="43.37386" lon="1.86984">
        <ele>228.2</ele>
        <time>2023-05-27T09:07:05Z</time>
      </trkpt>
      <trkpt lat="43.37385" lon="1.86987">
        <ele>228.2</ele>
        <time>2023-05-27T09:07:06Z</time>
      </trkpt>
      <trkpt lat="43.37384" lon="1.86991">
        <ele>228.2</ele>
        <time>2023-05-27T09:07:07Z</time>
      </trkpt>
      <trkpt lat="43.37383" lon="1.86994">
        <ele>228.2</ele>
        <time>2023-05-27T09:07:08Z</time>
      </trkpt>
      <trkpt lat="43.37382" lon="1.86997">
        <ele>228</ele>
        <time>2023-05-27T09:07:09Z</time>
      </trkpt>
      <trkpt lat="43.37381" lon="1.87001">
        <ele>228</ele>
        <time>2023-05-27T09:07:10Z</time>
      </trkpt>
      <trkpt lat="43.37379" lon="1.87006">
        <ele>228</ele>
        <time>2023-05-27T09:07:11Z</time>
      </trkpt>
      <trkpt lat="43.37377" lon="1.87012">
        <ele>228</ele>
        <time>2023-05-27T09:07:12Z</time>
      </trkpt>
      <trkpt lat="43.37375" lon="1.87017">
        <ele>228</ele>
        <time>2023-05-27T09:07:13Z</time>
      </trkpt>
      <trkpt lat="43.37374" lon="1.87022">
        <ele>228</ele>
        <time>2023-05-27T09:07:14Z</time>
      </trkpt>
      <trkpt lat="43.37372" lon="1.87029">
        <ele>227.8</ele>
        <time>2023-05-27T09:07:15Z</time>
      </trkpt>
      <trkpt lat="43.37371" lon="1.87034">
        <ele>227.8</ele>
        <time>2023-05-27T09:07:16Z</time>
      </trkpt>
      <trkpt lat="43.3737" lon="1.87041">
        <ele>227.8</ele>
        <time>2023-05-27T09:07:17Z</time>
      </trkpt>
      <trkpt lat="43.37368" lon="1.87048">
        <ele>227.8</ele>
        <time>2023-05-27T09:07:18Z</time>
      </trkpt>
      <trkpt lat="43.37367" lon="1.87054">
        <ele>227.8</ele>
        <time>2023-05-27T09:07:19Z</time>
      </trkpt>
      <trkpt lat="43.37365" lon="1.87059">
        <ele>227.8</ele>
        <time>2023-05-27T09:07:20Z</time>
      </trkpt>
      <trkpt lat="43.37364" lon="1.87065">
        <ele>227.8</ele>
        <time>2023-05-27T09:07:21Z</time>
      </trkpt>
      <trkpt lat="43.37362" lon="1.87072">
        <ele>227.8</ele>
        <time>2023-05-27T09:07:22Z</time>
      </trkpt>
      <trkpt lat="43.37361" lon="1.87077">
        <ele>227.8</ele>
        <time>2023-05-27T09:07:23Z</time>
      </trkpt>
      <trkpt lat="43.37361" lon="1.87082">
        <ele>227.8</ele>
        <time>2023-05-27T09:07:24Z</time>
      </trkpt>
      <trkpt lat="43.3736" lon="1.87088">
        <ele>227.8</ele>
        <time>2023-05-27T09:07:25Z</time>
      </trkpt>
      <trkpt lat="43.37359" lon="1.87094">
        <ele>227.8</ele>
        <time>2023-05-27T09:07:26Z</time>
      </trkpt>
      <trkpt lat="43.37359" lon="1.871">
        <ele>227.8</ele>
        <time>2023-05-27T09:07:27Z</time>
      </trkpt>
      <trkpt lat="43.37359" lon="1.87106">
        <ele>227.8</ele>
        <time>2023-05-27T09:07:28Z</time>
      </trkpt>
      <trkpt lat="43.3736" lon="1.8711">
        <ele>227.8</ele>
        <time>2023-05-27T09:07:29Z</time>
      </trkpt>
      <trkpt lat="43.3736" lon="1.87115">
        <ele>228</ele>
        <time>2023-05-27T09:07:30Z</time>
      </trkpt>
      <trkpt lat="43.37361" lon="1.8712">
        <ele>228</ele>
        <time>2023-05-27T09:07:31Z</time>
      </trkpt>
      <trkpt lat="43.37362" lon="1.87124">
        <ele>228</ele>
        <time>2023-05-27T09:07:32Z</time>
      </trkpt>
      <trkpt lat="43.37365" lon="1.8713">
        <ele>228</ele>
        <time>2023-05-27T09:07:33Z</time>
      </trkpt>
      <trkpt lat="43.37367" lon="1.87136">
        <ele>228</ele>
        <time>2023-05-27T09:07:34Z</time>
      </trkpt>
      <trkpt lat="43.37369" lon="1.87142">
        <ele>228</ele>
        <time>2023-05-27T09:07:35Z</time>
      </trkpt>
      <trkpt lat="43.3737" lon="1.87147">
        <ele>228</ele>
        <time>2023-05-27T09:07:36Z</time>
      </trkpt>
      <trkpt lat="43.37373" lon="1.87151">
        <ele>228</ele>
        <time>2023-05-27T09:07:37Z</time>
      </trkpt>
      <trkpt lat="43.37375" lon="1.87157">
        <ele>227.8</ele>
        <time>2023-05-27T09:07:38Z</time>
      </trkpt>
      <trkpt lat="43.37377" lon="1.87162">
        <ele>227.8</ele>
        <time>2023-05-27T09:07:39Z</time>
      </trkpt>
      <trkpt lat="43.37379" lon="1.87167">
        <ele>227.8</ele>
        <time>2023-05-27T09:07:40Z</time>
      </trkpt>
      <trkpt lat="43.37381" lon="1.87173">
        <ele>227.8</ele>
        <time>2023-05-27T09:07:41Z</time>
      </trkpt>
      <trkpt lat="43.37382" lon="1.87179">
        <ele>227.6</ele>
        <time>2023-05-27T09:07:42Z</time>
      </trkpt>
      <trkpt lat="43.37382" lon="1.87185">
        <ele>227.6</ele>
        <time>2023-05-27T09:07:43Z</time>
      </trkpt>
      <trkpt lat="43.37383" lon="1.87191">
        <ele>227.6</ele>
        <time>2023-05-27T09:07:44Z</time>
      </trkpt>
      <trkpt lat="43.37383" lon="1.87196">
        <ele>227.6</ele>
        <time>2023-05-27T09:07:45Z</time>
      </trkpt>
      <trkpt lat="43.37383" lon="1.87201">
        <ele>227.4</ele>
        <time>2023-05-27T09:07:46Z</time>
      </trkpt>
      <trkpt lat="43.37384" lon="1.87207">
        <ele>227.4</ele>
        <time>2023-05-27T09:07:47Z</time>
      </trkpt>
      <trkpt lat="43.37384" lon="1.87211">
        <ele>227.4</ele>
        <time>2023-05-27T09:07:48Z</time>
      </trkpt>
      <trkpt lat="43.37384" lon="1.87216">
        <ele>227.4</ele>
        <time>2023-05-27T09:07:49Z</time>
      </trkpt>
      <trkpt lat="43.37384" lon="1.87221">
        <ele>227.4</ele>
        <time>2023-05-27T09:07:50Z</time>
      </trkpt>
      <trkpt lat="43.37383" lon="1.87226">
        <ele>227.2</ele>
        <time>2023-05-27T09:07:51Z</time>
      </trkpt>
      <trkpt lat="43.37382" lon="1.8723">
        <ele>227.2</ele>
        <time>2023-05-27T09:07:52Z</time>
      </trkpt>
      <trkpt lat="43.37381" lon="1.87235">
        <ele>227.2</ele>
        <time>2023-05-27T09:07:53Z</time>
      </trkpt>
      <trkpt lat="43.3738" lon="1.87239">
        <ele>227.2</ele>
        <time>2023-05-27T09:07:54Z</time>
      </trkpt>
      <trkpt lat="43.3738" lon="1.87243">
        <ele>227.4</ele>
        <time>2023-05-27T09:07:55Z</time>
      </trkpt>
      <trkpt lat="43.3738" lon="1.87249">
        <ele>227.4</ele>
        <time>2023-05-27T09:07:56Z</time>
      </trkpt>
      <trkpt lat="43.3738" lon="1.87254">
        <ele>227.4</ele>
        <time>2023-05-27T09:07:57Z</time>
      </trkpt>
      <trkpt lat="43.37379" lon="1.8726">
        <ele>227.4</ele>
        <time>2023-05-27T09:07:58Z</time>
      </trkpt>
      <trkpt lat="43.37379" lon="1.87265">
        <ele>227.4</ele>
        <time>2023-05-27T09:07:59Z</time>
      </trkpt>
      <trkpt lat="43.37378" lon="1.8727">
        <ele>227.4</ele>
        <time>2023-05-27T09:08:00Z</time>
      </trkpt>
      <trkpt lat="43.37378" lon="1.87275">
        <ele>227.4</ele>
        <time>2023-05-27T09:08:01Z</time>
      </trkpt>
      <trkpt lat="43.37379" lon="1.87281">
        <ele>227.4</ele>
        <time>2023-05-27T09:08:02Z</time>
      </trkpt>
      <trkpt lat="43.37379" lon="1.87286">
        <ele>227.4</ele>
        <time>2023-05-27T09:08:03Z</time>
      </trkpt>
      <trkpt lat="43.37379" lon="1.87291">
        <ele>227.4</ele>
        <time>2023-05-27T09:08:04Z</time>
      </trkpt>
      <trkpt lat="43.37379" lon="1.87297">
        <ele>227.4</ele>
        <time>2023-05-27T09:08:05Z</time>
      </trkpt>
      <trkpt lat="43.37378" lon="1.87301">
        <ele>227.4</ele>
        <time>2023-05-27T09:08:06Z</time>
      </trkpt>
      <trkpt lat="43.37378" lon="1.87306">
        <ele>227.4</ele>
        <time>2023-05-27T09:08:07Z</time>
      </trkpt>
      <trkpt lat="43.37377" lon="1.87311">
        <ele>227.4</ele>
        <time>2023-05-27T09:08:08Z</time>
      </trkpt>
      <trkpt lat="43.37377" lon="1.87317">
        <ele>227.2</ele>
        <time>2023-05-27T09:08:09Z</time>
      </trkpt>
      <trkpt lat="43.37377" lon="1.87322">
        <ele>227.2</ele>
        <time>2023-05-27T09:08:10Z</time>
      </trkpt>
      <trkpt lat="43.37377" lon="1.87326">
        <ele>227.2</ele>
        <time>2023-05-27T09:08:11Z</time>
      </trkpt>
      <trkpt lat="43.37377" lon="1.87333">
        <ele>227.2</ele>
        <time>2023-05-27T09:08:12Z</time>
      </trkpt>
      <trkpt lat="43.37377" lon="1.87341">
        <ele>227.2</ele>
        <time>2023-05-27T09:08:13Z</time>
      </trkpt>
      <trkpt lat="43.37378" lon="1.87348">
        <ele>227.4</ele>
        <time>2023-05-27T09:08:14Z</time>
      </trkpt>
      <trkpt lat="43.37378" lon="1.87354">
        <ele>227.4</ele>
        <time>2023-05-27T09:08:15Z</time>
      </trkpt>
      <trkpt lat="43.37378" lon="1.8736">
        <ele>227.4</ele>
        <time>2023-05-27T09:08:16Z</time>
      </trkpt>
      <trkpt lat="43.37378" lon="1.87367">
        <ele>227.4</ele>
        <time>2023-05-27T09:08:17Z</time>
      </trkpt>
      <trkpt lat="43.37378" lon="1.87372">
        <ele>227.4</ele>
        <time>2023-05-27T09:08:18Z</time>
      </trkpt>
      <trkpt lat="43.37377" lon="1.87375">
        <ele>227.4</ele>
        <time>2023-05-27T09:08:19Z</time>
      </trkpt>
      <trkpt lat="43.37378" lon="1.87379">
        <ele>227.4</ele>
        <time>2023-05-27T09:08:20Z</time>
      </trkpt>
      <trkpt lat="43.37379" lon="1.87385">
        <ele>227.6</ele>
        <time>2023-05-27T09:08:21Z</time>
      </trkpt>
      <trkpt lat="43.37379" lon="1.87391">
        <ele>227.6</ele>
        <time>2023-05-27T09:08:22Z</time>
      </trkpt>
      <trkpt lat="43.3738" lon="1.87398">
        <ele>227.8</ele>
        <time>2023-05-27T09:08:23Z</time>
      </trkpt>
      <trkpt lat="43.37382" lon="1.87403">
        <ele>227.8</ele>
        <time>2023-05-27T09:08:24Z</time>
      </trkpt>
      <trkpt lat="43.37384" lon="1.87407">
        <ele>227.8</ele>
        <time>2023-05-27T09:08:25Z</time>
      </trkpt>
      <trkpt lat="43.37385" lon="1.87413">
        <ele>227.8</ele>
        <time>2023-05-27T09:08:26Z</time>
      </trkpt>
      <trkpt lat="43.37386" lon="1.87418">
        <ele>228</ele>
        <time>2023-05-27T09:08:27Z</time>
      </trkpt>
      <trkpt lat="43.37386" lon="1.87423">
        <ele>228</ele>
        <time>2023-05-27T09:08:28Z</time>
      </trkpt>
      <trkpt lat="43.37387" lon="1.87427">
        <ele>228</ele>
        <time>2023-05-27T09:08:29Z</time>
      </trkpt>
      <trkpt lat="43.37388" lon="1.87431">
        <ele>228.2</ele>
        <time>2023-05-27T09:08:30Z</time>
      </trkpt>
      <trkpt lat="43.3739" lon="1.87435">
        <ele>228.2</ele>
        <time>2023-05-27T09:08:31Z</time>
      </trkpt>
      <trkpt lat="43.37391" lon="1.87438">
        <ele>228.2</ele>
        <time>2023-05-27T09:08:32Z</time>
      </trkpt>
      <trkpt lat="43.37393" lon="1.8744">
        <ele>228.2</ele>
        <time>2023-05-27T09:08:33Z</time>
      </trkpt>
      <trkpt lat="43.37395" lon="1.87442">
        <ele>228.2</ele>
        <time>2023-05-27T09:08:34Z</time>
      </trkpt>
      <trkpt lat="43.37398" lon="1.87446">
        <ele>228.4</ele>
        <time>2023-05-27T09:08:35Z</time>
      </trkpt>
      <trkpt lat="43.374" lon="1.87449">
        <ele>228.4</ele>
        <time>2023-05-27T09:08:36Z</time>
      </trkpt>
      <trkpt lat="43.37402" lon="1.87453">
        <ele>228.4</ele>
        <time>2023-05-27T09:08:37Z</time>
      </trkpt>
      <trkpt lat="43.37404" lon="1.87456">
        <ele>228.6</ele>
        <time>2023-05-27T09:08:38Z</time>
      </trkpt>
      <trkpt lat="43.37406" lon="1.87459">
        <ele>228.6</ele>
        <time>2023-05-27T09:08:39Z</time>
      </trkpt>
      <trkpt lat="43.37409" lon="1.87461">
        <ele>228.6</ele>
        <time>2023-05-27T09:08:40Z</time>
      </trkpt>
      <trkpt lat="43.37411" lon="1.87463">
        <ele>228.8</ele>
        <time>2023-05-27T09:08:41Z</time>
      </trkpt>
      <trkpt lat="43.37413" lon="1.87465">
        <ele>228.8</ele>
        <time>2023-05-27T09:08:42Z</time>
      </trkpt>
      <trkpt lat="43.37414" lon="1.87468">
        <ele>228.8</ele>
        <time>2023-05-27T09:08:43Z</time>
      </trkpt>
      <trkpt lat="43.37417" lon="1.87472">
        <ele>228.8</ele>
        <time>2023-05-27T09:08:44Z</time>
      </trkpt>
      <trkpt lat="43.3742" lon="1.87476">
        <ele>228.8</ele>
        <time>2023-05-27T09:08:45Z</time>
      </trkpt>
      <trkpt lat="43.37422" lon="1.87479">
        <ele>228.8</ele>
        <time>2023-05-27T09:08:46Z</time>
      </trkpt>
      <trkpt lat="43.37424" lon="1.87481">
        <ele>228.8</ele>
        <time>2023-05-27T09:08:47Z</time>
      </trkpt>
      <trkpt lat="43.37426" lon="1.87483">
        <ele>229</ele>
        <time>2023-05-27T09:08:48Z</time>
      </trkpt>
      <trkpt lat="43.37427" lon="1.87485">
        <ele>229</ele>
        <time>2023-05-27T09:08:49Z</time>
      </trkpt>
      <trkpt lat="43.37428" lon="1.87487">
        <ele>229</ele>
        <time>2023-05-27T09:08:50Z</time>
      </trkpt>
      <trkpt lat="43.3743" lon="1.87489">
        <ele>229</ele>
        <time>2023-05-27T09:08:51Z</time>
      </trkpt>
      <trkpt lat="43.37432" lon="1.87491">
        <ele>229</ele>
        <time>2023-05-27T09:08:52Z</time>
      </trkpt>
      <trkpt lat="43.37435" lon="1.87494">
        <ele>229</ele>
        <time>2023-05-27T09:08:53Z</time>
      </trkpt>
      <trkpt lat="43.37437" lon="1.87496">
        <ele>229.2</ele>
        <time>2023-05-27T09:08:54Z</time>
      </trkpt>
      <trkpt lat="43.3744" lon="1.87499">
        <ele>229.2</ele>
        <time>2023-05-27T09:08:55Z</time>
      </trkpt>
      <trkpt lat="43.37443" lon="1.87502">
        <ele>229.2</ele>
        <time>2023-05-27T09:08:56Z</time>
      </trkpt>
      <trkpt lat="43.37446" lon="1.87504">
        <ele>229.2</ele>
        <time>2023-05-27T09:08:57Z</time>
      </trkpt>
      <trkpt lat="43.37448" lon="1.87505">
        <ele>229.2</ele>
        <time>2023-05-27T09:08:58Z</time>
      </trkpt>
      <trkpt lat="43.37451" lon="1.87507">
        <ele>229.2</ele>
        <time>2023-05-27T09:08:59Z</time>
      </trkpt>
      <trkpt lat="43.37453" lon="1.87507">
        <ele>229.2</ele>
        <time>2023-05-27T09:09:00Z</time>
      </trkpt>
      <trkpt lat="43.37456" lon="1.87508">
        <ele>229.2</ele>
        <time>2023-05-27T09:09:01Z</time>
      </trkpt>
      <trkpt lat="43.37459" lon="1.87509">
        <ele>229.2</ele>
        <time>2023-05-27T09:09:02Z</time>
      </trkpt>
      <trkpt lat="43.37462" lon="1.87508">
        <ele>229</ele>
        <time>2023-05-27T09:09:03Z</time>
      </trkpt>
      <trkpt lat="43.37465" lon="1.87507">
        <ele>229</ele>
        <time>2023-05-27T09:09:04Z</time>
      </trkpt>
      <trkpt lat="43.37468" lon="1.87506">
        <ele>229</ele>
        <time>2023-05-27T09:09:05Z</time>
      </trkpt>
      <trkpt lat="43.3747" lon="1.87503">
        <ele>228.8</ele>
        <time>2023-05-27T09:09:06Z</time>
      </trkpt>
      <trkpt lat="43.37473" lon="1.875">
        <ele>228.6</ele>
        <time>2023-05-27T09:09:07Z</time>
      </trkpt>
      <trkpt lat="43.37477" lon="1.87497">
        <ele>228.6</ele>
        <time>2023-05-27T09:09:08Z</time>
      </trkpt>
      <trkpt lat="43.37481" lon="1.87493">
        <ele>228.6</ele>
        <time>2023-05-27T09:09:09Z</time>
      </trkpt>
      <trkpt lat="43.37484" lon="1.8749">
        <ele>228.6</ele>
        <time>2023-05-27T09:09:10Z</time>
      </trkpt>
      <trkpt lat="43.37489" lon="1.87487">
        <ele>228.4</ele>
        <time>2023-05-27T09:09:11Z</time>
      </trkpt>
      <trkpt lat="43.37493" lon="1.87481">
        <ele>228.2</ele>
        <time>2023-05-27T09:09:12Z</time>
      </trkpt>
      <trkpt lat="43.37497" lon="1.87476">
        <ele>228.2</ele>
        <time>2023-05-27T09:09:13Z</time>
      </trkpt>
      <trkpt lat="43.375" lon="1.8747">
        <ele>228</ele>
        <time>2023-05-27T09:09:14Z</time>
      </trkpt>
      <trkpt lat="43.37504" lon="1.87466">
        <ele>228</ele>
        <time>2023-05-27T09:09:15Z</time>
      </trkpt>
      <trkpt lat="43.37509" lon="1.87461">
        <ele>228</ele>
        <time>2023-05-27T09:09:16Z</time>
      </trkpt>
      <trkpt lat="43.37514" lon="1.87456">
        <ele>227.8</ele>
        <time>2023-05-27T09:09:17Z</time>
      </trkpt>
      <trkpt lat="43.37518" lon="1.87451">
        <ele>227.8</ele>
        <time>2023-05-27T09:09:18Z</time>
      </trkpt>
      <trkpt lat="43.37521" lon="1.87447">
        <ele>227.8</ele>
        <time>2023-05-27T09:09:19Z</time>
      </trkpt>
      <trkpt lat="43.37525" lon="1.87442">
        <ele>227.8</ele>
        <time>2023-05-27T09:09:20Z</time>
      </trkpt>
      <trkpt lat="43.37529" lon="1.87438">
        <ele>227.8</ele>
        <time>2023-05-27T09:09:21Z</time>
      </trkpt>
      <trkpt lat="43.37532" lon="1.87433">
        <ele>227.8</ele>
        <time>2023-05-27T09:09:22Z</time>
      </trkpt>
      <trkpt lat="43.37535" lon="1.87428">
        <ele>227.8</ele>
        <time>2023-05-27T09:09:23Z</time>
      </trkpt>
      <trkpt lat="43.37539" lon="1.87423">
        <ele>227.8</ele>
        <time>2023-05-27T09:09:24Z</time>
      </trkpt>
      <trkpt lat="43.37541" lon="1.8742">
        <ele>227.8</ele>
        <time>2023-05-27T09:09:25Z</time>
      </trkpt>
      <trkpt lat="43.37544" lon="1.87416">
        <ele>227.8</ele>
        <time>2023-05-27T09:09:26Z</time>
      </trkpt>
      <trkpt lat="43.37546" lon="1.87413">
        <ele>227.8</ele>
        <time>2023-05-27T09:09:27Z</time>
      </trkpt>
      <trkpt lat="43.37548" lon="1.8741">
        <ele>227.8</ele>
        <time>2023-05-27T09:09:28Z</time>
      </trkpt>
      <trkpt lat="43.37549" lon="1.87407">
        <ele>228</ele>
        <time>2023-05-27T09:09:29Z</time>
      </trkpt>
      <trkpt lat="43.37551" lon="1.87403">
        <ele>228</ele>
        <time>2023-05-27T09:09:30Z</time>
      </trkpt>
      <trkpt lat="43.37553" lon="1.87399">
        <ele>228</ele>
        <time>2023-05-27T09:09:31Z</time>
      </trkpt>
      <trkpt lat="43.37554" lon="1.87395">
        <ele>228.2</ele>
        <time>2023-05-27T09:09:32Z</time>
      </trkpt>
      <trkpt lat="43.37554" lon="1.87391">
        <ele>228.2</ele>
        <time>2023-05-27T09:09:33Z</time>
      </trkpt>
      <trkpt lat="43.37555" lon="1.87387">
        <ele>228.2</ele>
        <time>2023-05-27T09:09:34Z</time>
      </trkpt>
      <trkpt lat="43.37556" lon="1.87382">
        <ele>228.4</ele>
        <time>2023-05-27T09:09:35Z</time>
      </trkpt>
      <trkpt lat="43.37557" lon="1.87379">
        <ele>228.4</ele>
        <time>2023-05-27T09:09:36Z</time>
      </trkpt>
      <trkpt lat="43.37558" lon="1.87376">
        <ele>228.6</ele>
        <time>2023-05-27T09:09:37Z</time>
      </trkpt>
      <trkpt lat="43.37559" lon="1.87373">
        <ele>228.6</ele>
        <time>2023-05-27T09:09:38Z</time>
      </trkpt>
      <trkpt lat="43.3756" lon="1.87368">
        <ele>228.6</ele>
        <time>2023-05-27T09:09:39Z</time>
      </trkpt>
      <trkpt lat="43.37561" lon="1.87363">
        <ele>228.6</ele>
        <time>2023-05-27T09:09:40Z</time>
      </trkpt>
      <trkpt lat="43.37562" lon="1.87359">
        <ele>228.8</ele>
        <time>2023-05-27T09:09:41Z</time>
      </trkpt>
      <trkpt lat="43.37564" lon="1.87354">
        <ele>228.8</ele>
        <time>2023-05-27T09:09:42Z</time>
      </trkpt>
      <trkpt lat="43.37565" lon="1.8735">
        <ele>228.8</ele>
        <time>2023-05-27T09:09:43Z</time>
      </trkpt>
      <trkpt lat="43.37567" lon="1.87346">
        <ele>229</ele>
        <time>2023-05-27T09:09:44Z</time>
      </trkpt>
      <trkpt lat="43.37569" lon="1.87343">
        <ele>229</ele>
        <time>2023-05-27T09:09:45Z</time>
      </trkpt>
      <trkpt lat="43.37571" lon="1.87339">
        <ele>229</ele>
        <time>2023-05-27T09:09:46Z</time>
      </trkpt>
      <trkpt lat="43.37574" lon="1.87335">
        <ele>229</ele>
        <time>2023-05-27T09:09:47Z</time>
      </trkpt>
      <trkpt lat="43.37577" lon="1.87332">
        <ele>229</ele>
        <time>2023-05-27T09:09:48Z</time>
      </trkpt>
      <trkpt lat="43.3758" lon="1.87328">
        <ele>229</ele>
        <time>2023-05-27T09:09:49Z</time>
      </trkpt>
      <trkpt lat="43.37583" lon="1.87324">
        <ele>229</ele>
        <time>2023-05-27T09:09:50Z</time>
      </trkpt>
      <trkpt lat="43.37586" lon="1.87321">
        <ele>229</ele>
        <time>2023-05-27T09:09:51Z</time>
      </trkpt>
      <trkpt lat="43.37589" lon="1.87318">
        <ele>229</ele>
        <time>2023-05-27T09:09:52Z</time>
      </trkpt>
      <trkpt lat="43.37594" lon="1.87315">
        <ele>228.8</ele>
        <time>2023-05-27T09:09:53Z</time>
      </trkpt>
      <trkpt lat="43.37597" lon="1.87312">
        <ele>228.8</ele>
        <time>2023-05-27T09:09:54Z</time>
      </trkpt>
      <trkpt lat="43.376" lon="1.87309">
        <ele>228.8</ele>
        <time>2023-05-27T09:09:55Z</time>
      </trkpt>
      <trkpt lat="43.37604" lon="1.87305">
        <ele>228.6</ele>
        <time>2023-05-27T09:09:56Z</time>
      </trkpt>
      <trkpt lat="43.37608" lon="1.87301">
        <ele>228.6</ele>
        <time>2023-05-27T09:09:57Z</time>
      </trkpt>
      <trkpt lat="43.37612" lon="1.87298">
        <ele>228.6</ele>
        <time>2023-05-27T09:09:58Z</time>
      </trkpt>
      <trkpt lat="43.37616" lon="1.87294">
        <ele>228.4</ele>
        <time>2023-05-27T09:09:59Z</time>
      </trkpt>
      <trkpt lat="43.37619" lon="1.8729">
        <ele>228.4</ele>
        <time>2023-05-27T09:10:00Z</time>
      </trkpt>
      <trkpt lat="43.37623" lon="1.87284">
        <ele>228.4</ele>
        <time>2023-05-27T09:10:01Z</time>
      </trkpt>
      <trkpt lat="43.37628" lon="1.87278">
        <ele>228.2</ele>
        <time>2023-05-27T09:10:02Z</time>
      </trkpt>
      <trkpt lat="43.3763" lon="1.87273">
        <ele>228.2</ele>
        <time>2023-05-27T09:10:03Z</time>
      </trkpt>
      <trkpt lat="43.37632" lon="1.87268">
        <ele>228.2</ele>
        <time>2023-05-27T09:10:04Z</time>
      </trkpt>
      <trkpt lat="43.37634" lon="1.87264">
        <ele>228.2</ele>
        <time>2023-05-27T09:10:05Z</time>
      </trkpt>
      <trkpt lat="43.37636" lon="1.8726">
        <ele>228.2</ele>
        <time>2023-05-27T09:10:06Z</time>
      </trkpt>
      <trkpt lat="43.37638" lon="1.87255">
        <ele>228.2</ele>
        <time>2023-05-27T09:10:07Z</time>
      </trkpt>
      <trkpt lat="43.37641" lon="1.87249">
        <ele>228</ele>
        <time>2023-05-27T09:10:08Z</time>
      </trkpt>
      <trkpt lat="43.37642" lon="1.87244">
        <ele>228</ele>
        <time>2023-05-27T09:10:09Z</time>
      </trkpt>
      <trkpt lat="43.37644" lon="1.87239">
        <ele>228</ele>
        <time>2023-05-27T09:10:10Z</time>
      </trkpt>
      <trkpt lat="43.37645" lon="1.87234">
        <ele>228.2</ele>
        <time>2023-05-27T09:10:11Z</time>
      </trkpt>
      <trkpt lat="43.37646" lon="1.8723">
        <ele>228.2</ele>
        <time>2023-05-27T09:10:12Z</time>
      </trkpt>
      <trkpt lat="43.37647" lon="1.87226">
        <ele>228.2</ele>
        <time>2023-05-27T09:10:13Z</time>
      </trkpt>
      <trkpt lat="43.37648" lon="1.87221">
        <ele>228.2</ele>
        <time>2023-05-27T09:10:14Z</time>
      </trkpt>
      <trkpt lat="43.3765" lon="1.87217">
        <ele>228.2</ele>
        <time>2023-05-27T09:10:15Z</time>
      </trkpt>
      <trkpt lat="43.37651" lon="1.87213">
        <ele>228.2</ele>
        <time>2023-05-27T09:10:16Z</time>
      </trkpt>
      <trkpt lat="43.37652" lon="1.87209">
        <ele>228.2</ele>
        <time>2023-05-27T09:10:17Z</time>
      </trkpt>
      <trkpt lat="43.37653" lon="1.87206">
        <ele>228.2</ele>
        <time>2023-05-27T09:10:18Z</time>
      </trkpt>
      <trkpt lat="43.37655" lon="1.87202">
        <ele>228.4</ele>
        <time>2023-05-27T09:10:19Z</time>
      </trkpt>
      <trkpt lat="43.37656" lon="1.87199">
        <ele>228.4</ele>
        <time>2023-05-27T09:10:20Z</time>
      </trkpt>
      <trkpt lat="43.37657" lon="1.87195">
        <ele>228.4</ele>
        <time>2023-05-27T09:10:21Z</time>
      </trkpt>
      <trkpt lat="43.37658" lon="1.87192">
        <ele>228.4</ele>
        <time>2023-05-27T09:10:22Z</time>
      </trkpt>
      <trkpt lat="43.3766" lon="1.87189">
        <ele>228.4</ele>
        <time>2023-05-27T09:10:23Z</time>
      </trkpt>
      <trkpt lat="43.37662" lon="1.87186">
        <ele>228.4</ele>
        <time>2023-05-27T09:10:24Z</time>
      </trkpt>
      <trkpt lat="43.37664" lon="1.87183">
        <ele>228.4</ele>
        <time>2023-05-27T09:10:25Z</time>
      </trkpt>
      <trkpt lat="43.37667" lon="1.87181">
        <ele>228.4</ele>
        <time>2023-05-27T09:10:26Z</time>
      </trkpt>
      <trkpt lat="43.37669" lon="1.87179">
        <ele>228.4</ele>
        <time>2023-05-27T09:10:27Z</time>
      </trkpt>
      <trkpt lat="43.37672" lon="1.87178">
        <ele>228.4</ele>
        <time>2023-05-27T09:10:28Z</time>
      </trkpt>
      <trkpt lat="43.37674" lon="1.87176">
        <ele>228.4</ele>
        <time>2023-05-27T09:10:29Z</time>
      </trkpt>
      <trkpt lat="43.37677" lon="1.87173">
        <ele>228.4</ele>
        <time>2023-05-27T09:10:30Z</time>
      </trkpt>
      <trkpt lat="43.37681" lon="1.87171">
        <ele>228.4</ele>
        <time>2023-05-27T09:10:31Z</time>
      </trkpt>
      <trkpt lat="43.37685" lon="1.87168">
        <ele>228.6</ele>
        <time>2023-05-27T09:10:32Z</time>
      </trkpt>
      <trkpt lat="43.37689" lon="1.87164">
        <ele>228.6</ele>
        <time>2023-05-27T09:10:33Z</time>
      </trkpt>
      <trkpt lat="43.37692" lon="1.87162">
        <ele>228.6</ele>
        <time>2023-05-27T09:10:34Z</time>
      </trkpt>
      <trkpt lat="43.37695" lon="1.8716">
        <ele>228.6</ele>
        <time>2023-05-27T09:10:35Z</time>
      </trkpt>
      <trkpt lat="43.37698" lon="1.87158">
        <ele>228.8</ele>
        <time>2023-05-27T09:10:36Z</time>
      </trkpt>
      <trkpt lat="43.37701" lon="1.87155">
        <ele>228.8</ele>
        <time>2023-05-27T09:10:37Z</time>
      </trkpt>
      <trkpt lat="43.37704" lon="1.87152">
        <ele>229</ele>
        <time>2023-05-27T09:10:38Z</time>
      </trkpt>
      <trkpt lat="43.37708" lon="1.87149">
        <ele>229</ele>
        <time>2023-05-27T09:10:39Z</time>
      </trkpt>
      <trkpt lat="43.37712" lon="1.87146">
        <ele>229</ele>
        <time>2023-05-27T09:10:40Z</time>
      </trkpt>
      <trkpt lat="43.37714" lon="1.87143">
        <ele>229.2</ele>
        <time>2023-05-27T09:10:41Z</time>
      </trkpt>
      <trkpt lat="43.37717" lon="1.8714">
        <ele>229.2</ele>
        <time>2023-05-27T09:10:42Z</time>
      </trkpt>
      <trkpt lat="43.37721" lon="1.87135">
        <ele>229.2</ele>
        <time>2023-05-27T09:10:43Z</time>
      </trkpt>
      <trkpt lat="43.37724" lon="1.87131">
        <ele>229.4</ele>
        <time>2023-05-27T09:10:44Z</time>
      </trkpt>
      <trkpt lat="43.37728" lon="1.87128">
        <ele>229.4</ele>
        <time>2023-05-27T09:10:45Z</time>
      </trkpt>
      <trkpt lat="43.3773" lon="1.87124">
        <ele>229.4</ele>
        <time>2023-05-27T09:10:46Z</time>
      </trkpt>
      <trkpt lat="43.37732" lon="1.87121">
        <ele>229.4</ele>
        <time>2023-05-27T09:10:47Z</time>
      </trkpt>
      <trkpt lat="43.37734" lon="1.87116">
        <ele>229.4</ele>
        <time>2023-05-27T09:10:48Z</time>
      </trkpt>
      <trkpt lat="43.37737" lon="1.87112">
        <ele>229.4</ele>
        <time>2023-05-27T09:10:49Z</time>
      </trkpt>
      <trkpt lat="43.3774" lon="1.87109">
        <ele>229.2</ele>
        <time>2023-05-27T09:10:50Z</time>
      </trkpt>
      <trkpt lat="43.37742" lon="1.87105">
        <ele>229.2</ele>
        <time>2023-05-27T09:10:51Z</time>
      </trkpt>
      <trkpt lat="43.37743" lon="1.871">
        <ele>229.2</ele>
        <time>2023-05-27T09:10:52Z</time>
      </trkpt>
      <trkpt lat="43.37744" lon="1.87097">
        <ele>229.2</ele>
        <time>2023-05-27T09:10:53Z</time>
      </trkpt>
      <trkpt lat="43.37746" lon="1.87094">
        <ele>229.2</ele>
        <time>2023-05-27T09:10:54Z</time>
      </trkpt>
      <trkpt lat="43.37748" lon="1.8709">
        <ele>229.2</ele>
        <time>2023-05-27T09:10:55Z</time>
      </trkpt>
      <trkpt lat="43.3775" lon="1.87086">
        <ele>229</ele>
        <time>2023-05-27T09:10:56Z</time>
      </trkpt>
      <trkpt lat="43.37753" lon="1.8708">
        <ele>229</ele>
        <time>2023-05-27T09:10:57Z</time>
      </trkpt>
      <trkpt lat="43.37755" lon="1.87075">
        <ele>229</ele>
        <time>2023-05-27T09:10:58Z</time>
      </trkpt>
      <trkpt lat="43.37757" lon="1.87071">
        <ele>229</ele>
        <time>2023-05-27T09:10:59Z</time>
      </trkpt>
      <trkpt lat="43.37759" lon="1.87066">
        <ele>228.8</ele>
        <time>2023-05-27T09:11:00Z</time>
      </trkpt>
      <trkpt lat="43.37762" lon="1.87062">
        <ele>228.8</ele>
        <time>2023-05-27T09:11:01Z</time>
      </trkpt>
      <trkpt lat="43.37764" lon="1.87059">
        <ele>228.8</ele>
        <time>2023-05-27T09:11:02Z</time>
      </trkpt>
      <trkpt lat="43.37766" lon="1.87054">
        <ele>228.8</ele>
        <time>2023-05-27T09:11:03Z</time>
      </trkpt>
      <trkpt lat="43.37769" lon="1.87049">
        <ele>228.6</ele>
        <time>2023-05-27T09:11:04Z</time>
      </trkpt>
      <trkpt lat="43.37772" lon="1.87044">
        <ele>228.6</ele>
        <time>2023-05-27T09:11:05Z</time>
      </trkpt>
      <trkpt lat="43.37775" lon="1.87039">
        <ele>228.6</ele>
        <time>2023-05-27T09:11:06Z</time>
      </trkpt>
      <trkpt lat="43.37778" lon="1.87035">
        <ele>228.6</ele>
        <time>2023-05-27T09:11:07Z</time>
      </trkpt>
      <trkpt lat="43.3778" lon="1.87031">
        <ele>228.4</ele>
        <time>2023-05-27T09:11:08Z</time>
      </trkpt>
      <trkpt lat="43.37783" lon="1.87026">
        <ele>228.4</ele>
        <time>2023-05-27T09:11:09Z</time>
      </trkpt>
      <trkpt lat="43.37786" lon="1.87022">
        <ele>228.2</ele>
        <time>2023-05-27T09:11:10Z</time>
      </trkpt>
      <trkpt lat="43.37789" lon="1.87017">
        <ele>228.2</ele>
        <time>2023-05-27T09:11:11Z</time>
      </trkpt>
      <trkpt lat="43.37793" lon="1.87011">
        <ele>228.2</ele>
        <time>2023-05-27T09:11:12Z</time>
      </trkpt>
      <trkpt lat="43.37796" lon="1.87007">
        <ele>228.2</ele>
        <time>2023-05-27T09:11:13Z</time>
      </trkpt>
      <trkpt lat="43.37798" lon="1.87003">
        <ele>228.2</ele>
        <time>2023-05-27T09:11:14Z</time>
      </trkpt>
      <trkpt lat="43.37801" lon="1.86999">
        <ele>228.2</ele>
        <time>2023-05-27T09:11:15Z</time>
      </trkpt>
      <trkpt lat="43.37804" lon="1.86994">
        <ele>228.2</ele>
        <time>2023-05-27T09:11:16Z</time>
      </trkpt>
      <trkpt lat="43.37805" lon="1.8699">
        <ele>228.2</ele>
        <time>2023-05-27T09:11:17Z</time>
      </trkpt>
      <trkpt lat="43.37807" lon="1.86987">
        <ele>228</ele>
        <time>2023-05-27T09:11:18Z</time>
      </trkpt>
      <trkpt lat="43.3781" lon="1.86983">
        <ele>228</ele>
        <time>2023-05-27T09:11:19Z</time>
      </trkpt>
      <trkpt lat="43.37812" lon="1.86978">
        <ele>228</ele>
        <time>2023-05-27T09:11:20Z</time>
      </trkpt>
      <trkpt lat="43.37814" lon="1.86975">
        <ele>228</ele>
        <time>2023-05-27T09:11:21Z</time>
      </trkpt>
      <trkpt lat="43.37815" lon="1.86972">
        <ele>228.2</ele>
        <time>2023-05-27T09:11:22Z</time>
      </trkpt>
      <trkpt lat="43.37816" lon="1.8697">
        <ele>228.2</ele>
        <time>2023-05-27T09:11:23Z</time>
      </trkpt>
      <trkpt lat="43.37818" lon="1.86968">
        <ele>228.2</ele>
        <time>2023-05-27T09:11:24Z</time>
      </trkpt>
      <trkpt lat="43.37821" lon="1.86964">
        <ele>228.2</ele>
        <time>2023-05-27T09:11:25Z</time>
      </trkpt>
      <trkpt lat="43.37823" lon="1.86961">
        <ele>228.2</ele>
        <time>2023-05-27T09:11:26Z</time>
      </trkpt>
      <trkpt lat="43.37825" lon="1.86956">
        <ele>228.2</ele>
        <time>2023-05-27T09:11:27Z</time>
      </trkpt>
      <trkpt lat="43.37827" lon="1.86952">
        <ele>228.2</ele>
        <time>2023-05-27T09:11:28Z</time>
      </trkpt>
      <trkpt lat="43.3783" lon="1.86947">
        <ele>228.2</ele>
        <time>2023-05-27T09:11:29Z</time>
      </trkpt>
      <trkpt lat="43.37834" lon="1.86942">
        <ele>228.2</ele>
        <time>2023-05-27T09:11:30Z</time>
      </trkpt>
      <trkpt lat="43.37836" lon="1.86936">
        <ele>228.2</ele>
        <time>2023-05-27T09:11:31Z</time>
      </trkpt>
      <trkpt lat="43.37839" lon="1.86931">
        <ele>228.2</ele>
        <time>2023-05-27T09:11:32Z</time>
      </trkpt>
      <trkpt lat="43.37841" lon="1.86926">
        <ele>228.2</ele>
        <time>2023-05-27T09:11:33Z</time>
      </trkpt>
      <trkpt lat="43.37842" lon="1.86921">
        <ele>228.2</ele>
        <time>2023-05-27T09:11:34Z</time>
      </trkpt>
      <trkpt lat="43.37844" lon="1.86917">
        <ele>228.2</ele>
        <time>2023-05-27T09:11:35Z</time>
      </trkpt>
      <trkpt lat="43.37845" lon="1.86914">
        <ele>228.2</ele>
        <time>2023-05-27T09:11:36Z</time>
      </trkpt>
      <trkpt lat="43.37847" lon="1.86911">
        <ele>228.2</ele>
        <time>2023-05-27T09:11:37Z</time>
      </trkpt>
      <trkpt lat="43.37849" lon="1.86906">
        <ele>228.4</ele>
        <time>2023-05-27T09:11:38Z</time>
      </trkpt>
      <trkpt lat="43.37853" lon="1.86901">
        <ele>228.4</ele>
        <time>2023-05-27T09:11:39Z</time>
      </trkpt>
      <trkpt lat="43.37855" lon="1.86896">
        <ele>228.4</ele>
        <time>2023-05-27T09:11:40Z</time>
      </trkpt>
      <trkpt lat="43.37858" lon="1.86892">
        <ele>228.4</ele>
        <time>2023-05-27T09:11:41Z</time>
      </trkpt>
      <trkpt lat="43.3786" lon="1.86888">
        <ele>228.4</ele>
        <time>2023-05-27T09:11:42Z</time>
      </trkpt>
      <trkpt lat="43.37861" lon="1.86885">
        <ele>228.4</ele>
        <time>2023-05-27T09:11:43Z</time>
      </trkpt>
      <trkpt lat="43.37863" lon="1.86881">
        <ele>228.4</ele>
        <time>2023-05-27T09:11:44Z</time>
      </trkpt>
      <trkpt lat="43.37865" lon="1.86877">
        <ele>228.4</ele>
        <time>2023-05-27T09:11:45Z</time>
      </trkpt>
      <trkpt lat="43.37867" lon="1.86874">
        <ele>228.4</ele>
        <time>2023-05-27T09:11:46Z</time>
      </trkpt>
      <trkpt lat="43.37868" lon="1.8687">
        <ele>228.6</ele>
        <time>2023-05-27T09:11:47Z</time>
      </trkpt>
      <trkpt lat="43.3787" lon="1.86868">
        <ele>228.6</ele>
        <time>2023-05-27T09:11:48Z</time>
      </trkpt>
      <trkpt lat="43.37871" lon="1.86865">
        <ele>228.6</ele>
        <time>2023-05-27T09:11:49Z</time>
      </trkpt>
      <trkpt lat="43.37872" lon="1.86862">
        <ele>228.6</ele>
        <time>2023-05-27T09:11:50Z</time>
      </trkpt>
      <trkpt lat="43.37874" lon="1.86859">
        <ele>228.6</ele>
        <time>2023-05-27T09:11:51Z</time>
      </trkpt>
      <trkpt lat="43.37876" lon="1.86855">
        <ele>228.6</ele>
        <time>2023-05-27T09:11:52Z</time>
      </trkpt>
      <trkpt lat="43.37878" lon="1.8685">
        <ele>228.6</ele>
        <time>2023-05-27T09:11:53Z</time>
      </trkpt>
      <trkpt lat="43.3788" lon="1.86847">
        <ele>228.6</ele>
        <time>2023-05-27T09:11:54Z</time>
      </trkpt>
      <trkpt lat="43.37881" lon="1.86844">
        <ele>228.6</ele>
        <time>2023-05-27T09:11:55Z</time>
      </trkpt>
      <trkpt lat="43.37882" lon="1.8684">
        <ele>228.6</ele>
        <time>2023-05-27T09:11:56Z</time>
      </trkpt>
      <trkpt lat="43.37884" lon="1.86837">
        <ele>228.4</ele>
        <time>2023-05-27T09:11:57Z</time>
      </trkpt>
      <trkpt lat="43.37886" lon="1.86834">
        <ele>228.4</ele>
        <time>2023-05-27T09:11:58Z</time>
      </trkpt>
      <trkpt lat="43.37888" lon="1.8683">
        <ele>228.4</ele>
        <time>2023-05-27T09:11:59Z</time>
      </trkpt>
      <trkpt lat="43.37889" lon="1.86827">
        <ele>228.4</ele>
        <time>2023-05-27T09:12:00Z</time>
      </trkpt>
      <trkpt lat="43.37891" lon="1.86823">
        <ele>228.4</ele>
        <time>2023-05-27T09:12:01Z</time>
      </trkpt>
      <trkpt lat="43.37894" lon="1.8682">
        <ele>228.4</ele>
        <time>2023-05-27T09:12:02Z</time>
      </trkpt>
      <trkpt lat="43.37896" lon="1.86817">
        <ele>228.4</ele>
        <time>2023-05-27T09:12:03Z</time>
      </trkpt>
      <trkpt lat="43.379" lon="1.86813">
        <ele>228.6</ele>
        <time>2023-05-27T09:12:04Z</time>
      </trkpt>
      <trkpt lat="43.37902" lon="1.8681">
        <ele>228.6</ele>
        <time>2023-05-27T09:12:05Z</time>
      </trkpt>
      <trkpt lat="43.37904" lon="1.86806">
        <ele>228.6</ele>
        <time>2023-05-27T09:12:06Z</time>
      </trkpt>
      <trkpt lat="43.37906" lon="1.86803">
        <ele>228.6</ele>
        <time>2023-05-27T09:12:07Z</time>
      </trkpt>
      <trkpt lat="43.37907" lon="1.868">
        <ele>228.6</ele>
        <time>2023-05-27T09:12:08Z</time>
      </trkpt>
      <trkpt lat="43.37909" lon="1.86798">
        <ele>228.6</ele>
        <time>2023-05-27T09:12:09Z</time>
      </trkpt>
      <trkpt lat="43.37912" lon="1.86795">
        <ele>228.6</ele>
        <time>2023-05-27T09:12:10Z</time>
      </trkpt>
      <trkpt lat="43.37914" lon="1.86792">
        <ele>228.6</ele>
        <time>2023-05-27T09:12:11Z</time>
      </trkpt>
      <trkpt lat="43.37917" lon="1.86788">
        <ele>228.6</ele>
        <time>2023-05-27T09:12:12Z</time>
      </trkpt>
      <trkpt lat="43.37921" lon="1.86783">
        <ele>228.6</ele>
        <time>2023-05-27T09:12:13Z</time>
      </trkpt>
      <trkpt lat="43.37925" lon="1.86778">
        <ele>228.6</ele>
        <time>2023-05-27T09:12:14Z</time>
      </trkpt>
      <trkpt lat="43.37927" lon="1.86775">
        <ele>228.6</ele>
        <time>2023-05-27T09:12:15Z</time>
      </trkpt>
      <trkpt lat="43.37928" lon="1.86772">
        <ele>228.4</ele>
        <time>2023-05-27T09:12:16Z</time>
      </trkpt>
      <trkpt lat="43.37931" lon="1.86768">
        <ele>228.4</ele>
        <time>2023-05-27T09:12:17Z</time>
      </trkpt>
      <trkpt lat="43.37933" lon="1.86766">
        <ele>228.4</ele>
        <time>2023-05-27T09:12:18Z</time>
      </trkpt>
      <trkpt lat="43.37936" lon="1.86762">
        <ele>228.4</ele>
        <time>2023-05-27T09:12:19Z</time>
      </trkpt>
      <trkpt lat="43.37938" lon="1.86759">
        <ele>228.4</ele>
        <time>2023-05-27T09:12:20Z</time>
      </trkpt>
      <trkpt lat="43.37939" lon="1.86755">
        <ele>228.4</ele>
        <time>2023-05-27T09:12:21Z</time>
      </trkpt>
      <trkpt lat="43.37941" lon="1.86751">
        <ele>228.4</ele>
        <time>2023-05-27T09:12:22Z</time>
      </trkpt>
      <trkpt lat="43.37944" lon="1.86748">
        <ele>228.4</ele>
        <time>2023-05-27T09:12:23Z</time>
      </trkpt>
      <trkpt lat="43.37945" lon="1.86744">
        <ele>228.4</ele>
        <time>2023-05-27T09:12:24Z</time>
      </trkpt>
      <trkpt lat="43.37945" lon="1.86741">
        <ele>228.4</ele>
        <time>2023-05-27T09:12:25Z</time>
      </trkpt>
      <trkpt lat="43.37945" lon="1.86738">
        <ele>228.4</ele>
        <time>2023-05-27T09:12:26Z</time>
      </trkpt>
      <trkpt lat="43.37947" lon="1.86734">
        <ele>228.4</ele>
        <time>2023-05-27T09:12:27Z</time>
      </trkpt>
      <trkpt lat="43.3795" lon="1.8673">
        <ele>228.4</ele>
        <time>2023-05-27T09:12:28Z</time>
      </trkpt>
      <trkpt lat="43.37952" lon="1.86726">
        <ele>228.6</ele>
        <time>2023-05-27T09:12:29Z</time>
      </trkpt>
      <trkpt lat="43.37955" lon="1.86721">
        <ele>228.6</ele>
        <time>2023-05-27T09:12:30Z</time>
      </trkpt>
      <trkpt lat="43.37957" lon="1.86714">
        <ele>228.6</ele>
        <time>2023-05-27T09:12:31Z</time>
      </trkpt>
      <trkpt lat="43.3796" lon="1.86709">
        <ele>228.4</ele>
        <time>2023-05-27T09:12:32Z</time>
      </trkpt>
      <trkpt lat="43.37961" lon="1.86705">
        <ele>228.6</ele>
        <time>2023-05-27T09:12:33Z</time>
      </trkpt>
      <trkpt lat="43.37963" lon="1.867">
        <ele>228.6</ele>
        <time>2023-05-27T09:12:34Z</time>
      </trkpt>
      <trkpt lat="43.37965" lon="1.86697">
        <ele>228.6</ele>
        <time>2023-05-27T09:12:35Z</time>
      </trkpt>
      <trkpt lat="43.37967" lon="1.86694">
        <ele>228.6</ele>
        <time>2023-05-27T09:12:36Z</time>
      </trkpt>
      <trkpt lat="43.37969" lon="1.86691">
        <ele>228.6</ele>
        <time>2023-05-27T09:12:37Z</time>
      </trkpt>
      <trkpt lat="43.37971" lon="1.86688">
        <ele>228.6</ele>
        <time>2023-05-27T09:12:38Z</time>
      </trkpt>
      <trkpt lat="43.37973" lon="1.86683">
        <ele>228.6</ele>
        <time>2023-05-27T09:12:39Z</time>
      </trkpt>
      <trkpt lat="43.37976" lon="1.86679">
        <ele>228.6</ele>
        <time>2023-05-27T09:12:40Z</time>
      </trkpt>
      <trkpt lat="43.37978" lon="1.86675">
        <ele>228.6</ele>
        <time>2023-05-27T09:12:41Z</time>
      </trkpt>
      <trkpt lat="43.3798" lon="1.86672">
        <ele>228.6</ele>
        <time>2023-05-27T09:12:42Z</time>
      </trkpt>
      <trkpt lat="43.37982" lon="1.86668">
        <ele>228.6</ele>
        <time>2023-05-27T09:12:43Z</time>
      </trkpt>
      <trkpt lat="43.37984" lon="1.86663">
        <ele>228.6</ele>
        <time>2023-05-27T09:12:44Z</time>
      </trkpt>
      <trkpt lat="43.37988" lon="1.86659">
        <ele>228.6</ele>
        <time>2023-05-27T09:12:45Z</time>
      </trkpt>
      <trkpt lat="43.3799" lon="1.86655">
        <ele>228.6</ele>
        <time>2023-05-27T09:12:46Z</time>
      </trkpt>
      <trkpt lat="43.37991" lon="1.86652">
        <ele>228.6</ele>
        <time>2023-05-27T09:12:47Z</time>
      </trkpt>
      <trkpt lat="43.37993" lon="1.86649">
        <ele>228.6</ele>
        <time>2023-05-27T09:12:48Z</time>
      </trkpt>
      <trkpt lat="43.37994" lon="1.86647">
        <ele>228.6</ele>
        <time>2023-05-27T09:12:49Z</time>
      </trkpt>
      <trkpt lat="43.37996" lon="1.86644">
        <ele>228.6</ele>
        <time>2023-05-27T09:12:50Z</time>
      </trkpt>
      <trkpt lat="43.37999" lon="1.86642">
        <ele>228.6</ele>
        <time>2023-05-27T09:12:51Z</time>
      </trkpt>
      <trkpt lat="43.38001" lon="1.86639">
        <ele>228.6</ele>
        <time>2023-05-27T09:12:52Z</time>
      </trkpt>
      <trkpt lat="43.38004" lon="1.86636">
        <ele>228.6</ele>
        <time>2023-05-27T09:12:53Z</time>
      </trkpt>
      <trkpt lat="43.38007" lon="1.86633">
        <ele>228.6</ele>
        <time>2023-05-27T09:12:54Z</time>
      </trkpt>
      <trkpt lat="43.38011" lon="1.86628">
        <ele>228.6</ele>
        <time>2023-05-27T09:12:55Z</time>
      </trkpt>
      <trkpt lat="43.38015" lon="1.86623">
        <ele>228.6</ele>
        <time>2023-05-27T09:12:56Z</time>
      </trkpt>
      <trkpt lat="43.38019" lon="1.86617">
        <ele>228.6</ele>
        <time>2023-05-27T09:12:57Z</time>
      </trkpt>
      <trkpt lat="43.38024" lon="1.86613">
        <ele>228.6</ele>
        <time>2023-05-27T09:12:58Z</time>
      </trkpt>
      <trkpt lat="43.38027" lon="1.8661">
        <ele>228.6</ele>
        <time>2023-05-27T09:12:59Z</time>
      </trkpt>
      <trkpt lat="43.38029" lon="1.86607">
        <ele>228.8</ele>
        <time>2023-05-27T09:13:00Z</time>
      </trkpt>
      <trkpt lat="43.38031" lon="1.86603">
        <ele>228.8</ele>
        <time>2023-05-27T09:13:01Z</time>
      </trkpt>
      <trkpt lat="43.38032" lon="1.86599">
        <ele>228.8</ele>
        <time>2023-05-27T09:13:02Z</time>
      </trkpt>
      <trkpt lat="43.38034" lon="1.86597">
        <ele>228.8</ele>
        <time>2023-05-27T09:13:03Z</time>
      </trkpt>
      <trkpt lat="43.38035" lon="1.86597">
        <ele>228.8</ele>
        <time>2023-05-27T09:13:04Z</time>
      </trkpt>
      <trkpt lat="43.38035" lon="1.86596">
        <ele>228.8</ele>
        <time>2023-05-27T09:13:05Z</time>
      </trkpt>
      <trkpt lat="43.38037" lon="1.86593">
        <ele>228.8</ele>
        <time>2023-05-27T09:13:06Z</time>
      </trkpt>
      <trkpt lat="43.38038" lon="1.8659">
        <ele>228.8</ele>
        <time>2023-05-27T09:13:07Z</time>
      </trkpt>
      <trkpt lat="43.3804" lon="1.86588">
        <ele>228.8</ele>
        <time>2023-05-27T09:13:08Z</time>
      </trkpt>
      <trkpt lat="43.38042" lon="1.86585">
        <ele>228.8</ele>
        <time>2023-05-27T09:13:09Z</time>
      </trkpt>
      <trkpt lat="43.38044" lon="1.86581">
        <ele>228.8</ele>
        <time>2023-05-27T09:13:10Z</time>
      </trkpt>
      <trkpt lat="43.38046" lon="1.86578">
        <ele>229</ele>
        <time>2023-05-27T09:13:11Z</time>
      </trkpt>
      <trkpt lat="43.38047" lon="1.86575">
        <ele>229</ele>
        <time>2023-05-27T09:13:12Z</time>
      </trkpt>
      <trkpt lat="43.38049" lon="1.86572">
        <ele>229</ele>
        <time>2023-05-27T09:13:13Z</time>
      </trkpt>
      <trkpt lat="43.38051" lon="1.86568">
        <ele>228.8</ele>
        <time>2023-05-27T09:13:14Z</time>
      </trkpt>
      <trkpt lat="43.38053" lon="1.86564">
        <ele>228.8</ele>
        <time>2023-05-27T09:13:15Z</time>
      </trkpt>
      <trkpt lat="43.38055" lon="1.8656">
        <ele>228.8</ele>
        <time>2023-05-27T09:13:16Z</time>
      </trkpt>
      <trkpt lat="43.38056" lon="1.86557">
        <ele>228.8</ele>
        <time>2023-05-27T09:13:17Z</time>
      </trkpt>
      <trkpt lat="43.38058" lon="1.86553">
        <ele>228.8</ele>
        <time>2023-05-27T09:13:18Z</time>
      </trkpt>
      <trkpt lat="43.3806" lon="1.8655">
        <ele>228.8</ele>
        <time>2023-05-27T09:13:19Z</time>
      </trkpt>
      <trkpt lat="43.38062" lon="1.86546">
        <ele>228.8</ele>
        <time>2023-05-27T09:13:20Z</time>
      </trkpt>
      <trkpt lat="43.38064" lon="1.86543">
        <ele>228.8</ele>
        <time>2023-05-27T09:13:21Z</time>
      </trkpt>
      <trkpt lat="43.38066" lon="1.86539">
        <ele>228.8</ele>
        <time>2023-05-27T09:13:22Z</time>
      </trkpt>
      <trkpt lat="43.38067" lon="1.86536">
        <ele>228.8</ele>
        <time>2023-05-27T09:13:23Z</time>
      </trkpt>
      <trkpt lat="43.3807" lon="1.86532">
        <ele>228.6</ele>
        <time>2023-05-27T09:13:24Z</time>
      </trkpt>
      <trkpt lat="43.38072" lon="1.86529">
        <ele>228.6</ele>
        <time>2023-05-27T09:13:25Z</time>
      </trkpt>
      <trkpt lat="43.38074" lon="1.86527">
        <ele>228.6</ele>
        <time>2023-05-27T09:13:26Z</time>
      </trkpt>
      <trkpt lat="43.38077" lon="1.86524">
        <ele>228.6</ele>
        <time>2023-05-27T09:13:27Z</time>
      </trkpt>
      <trkpt lat="43.38081" lon="1.8652">
        <ele>228.6</ele>
        <time>2023-05-27T09:13:28Z</time>
      </trkpt>
      <trkpt lat="43.38084" lon="1.86516">
        <ele>228.6</ele>
        <time>2023-05-27T09:13:29Z</time>
      </trkpt>
      <trkpt lat="43.38088" lon="1.86513">
        <ele>228.6</ele>
        <time>2023-05-27T09:13:30Z</time>
      </trkpt>
      <trkpt lat="43.3809" lon="1.8651">
        <ele>228.6</ele>
        <time>2023-05-27T09:13:31Z</time>
      </trkpt>
      <trkpt lat="43.38092" lon="1.86506">
        <ele>228.6</ele>
        <time>2023-05-27T09:13:32Z</time>
      </trkpt>
      <trkpt lat="43.38095" lon="1.86502">
        <ele>228.6</ele>
        <time>2023-05-27T09:13:33Z</time>
      </trkpt>
      <trkpt lat="43.38098" lon="1.86499">
        <ele>228.6</ele>
        <time>2023-05-27T09:13:34Z</time>
      </trkpt>
      <trkpt lat="43.38102" lon="1.86495">
        <ele>228.6</ele>
        <time>2023-05-27T09:13:35Z</time>
      </trkpt>
      <trkpt lat="43.38106" lon="1.86491">
        <ele>228.6</ele>
        <time>2023-05-27T09:13:36Z</time>
      </trkpt>
      <trkpt lat="43.38109" lon="1.86488">
        <ele>228.6</ele>
        <time>2023-05-27T09:13:37Z</time>
      </trkpt>
      <trkpt lat="43.38113" lon="1.86486">
        <ele>228.6</ele>
        <time>2023-05-27T09:13:38Z</time>
      </trkpt>
      <trkpt lat="43.38117" lon="1.86482">
        <ele>228.6</ele>
        <time>2023-05-27T09:13:39Z</time>
      </trkpt>
      <trkpt lat="43.3812" lon="1.86478">
        <ele>228.6</ele>
        <time>2023-05-27T09:13:40Z</time>
      </trkpt>
      <trkpt lat="43.38124" lon="1.86474">
        <ele>228.6</ele>
        <time>2023-05-27T09:13:41Z</time>
      </trkpt>
      <trkpt lat="43.38128" lon="1.8647">
        <ele>228.6</ele>
        <time>2023-05-27T09:13:42Z</time>
      </trkpt>
      <trkpt lat="43.3813" lon="1.86467">
        <ele>228.6</ele>
        <time>2023-05-27T09:13:43Z</time>
      </trkpt>
      <trkpt lat="43.38132" lon="1.86465">
        <ele>228.6</ele>
        <time>2023-05-27T09:13:44Z</time>
      </trkpt>
      <trkpt lat="43.38135" lon="1.86464">
        <ele>228.4</ele>
        <time>2023-05-27T09:13:45Z</time>
      </trkpt>
      <trkpt lat="43.38139" lon="1.86462">
        <ele>228.4</ele>
        <time>2023-05-27T09:13:46Z</time>
      </trkpt>
      <trkpt lat="43.38143" lon="1.8646">
        <ele>228.4</ele>
        <time>2023-05-27T09:13:47Z</time>
      </trkpt>
      <trkpt lat="43.38146" lon="1.86458">
        <ele>228.4</ele>
        <time>2023-05-27T09:13:48Z</time>
      </trkpt>
      <trkpt lat="43.38147" lon="1.86456">
        <ele>228.4</ele>
        <time>2023-05-27T09:13:49Z</time>
      </trkpt>
      <trkpt lat="43.38148" lon="1.86455">
        <ele>228.4</ele>
        <time>2023-05-27T09:13:50Z</time>
      </trkpt>
      <trkpt lat="43.3815" lon="1.86454">
        <ele>228.4</ele>
        <time>2023-05-27T09:13:51Z</time>
      </trkpt>
      <trkpt lat="43.38153" lon="1.86452">
        <ele>228.4</ele>
        <time>2023-05-27T09:13:52Z</time>
      </trkpt>
      <trkpt lat="43.38155" lon="1.86451">
        <ele>228.4</ele>
        <time>2023-05-27T09:13:53Z</time>
      </trkpt>
      <trkpt lat="43.38158" lon="1.8645">
        <ele>228.6</ele>
        <time>2023-05-27T09:13:54Z</time>
      </trkpt>
      <trkpt lat="43.3816" lon="1.86448">
        <ele>228.6</ele>
        <time>2023-05-27T09:13:55Z</time>
      </trkpt>
      <trkpt lat="43.38162" lon="1.86447">
        <ele>228.6</ele>
        <time>2023-05-27T09:13:56Z</time>
      </trkpt>
      <trkpt lat="43.38164" lon="1.86446">
        <ele>228.6</ele>
        <time>2023-05-27T09:13:57Z</time>
      </trkpt>
      <trkpt lat="43.38166" lon="1.86445">
        <ele>228.6</ele>
        <time>2023-05-27T09:13:58Z</time>
      </trkpt>
      <trkpt lat="43.38169" lon="1.86443">
        <ele>228.6</ele>
        <time>2023-05-27T09:13:59Z</time>
      </trkpt>
      <trkpt lat="43.38172" lon="1.86441">
        <ele>228.6</ele>
        <time>2023-05-27T09:14:00Z</time>
      </trkpt>
      <trkpt lat="43.38175" lon="1.86438">
        <ele>228.6</ele>
        <time>2023-05-27T09:14:01Z</time>
      </trkpt>
      <trkpt lat="43.38178" lon="1.86436">
        <ele>228.6</ele>
        <time>2023-05-27T09:14:02Z</time>
      </trkpt>
      <trkpt lat="43.38181" lon="1.86433">
        <ele>228.6</ele>
        <time>2023-05-27T09:14:03Z</time>
      </trkpt>
      <trkpt lat="43.38183" lon="1.86432">
        <ele>228.6</ele>
        <time>2023-05-27T09:14:04Z</time>
      </trkpt>
      <trkpt lat="43.38186" lon="1.86431">
        <ele>228.6</ele>
        <time>2023-05-27T09:14:05Z</time>
      </trkpt>
      <trkpt lat="43.38189" lon="1.86429">
        <ele>228.6</ele>
        <time>2023-05-27T09:14:06Z</time>
      </trkpt>
      <trkpt lat="43.38192" lon="1.86427">
        <ele>228.6</ele>
        <time>2023-05-27T09:14:07Z</time>
      </trkpt>
      <trkpt lat="43.38196" lon="1.86425">
        <ele>228.6</ele>
        <time>2023-05-27T09:14:08Z</time>
      </trkpt>
      <trkpt lat="43.38201" lon="1.86422">
        <ele>228.6</ele>
        <time>2023-05-27T09:14:09Z</time>
      </trkpt>
      <trkpt lat="43.38204" lon="1.8642">
        <ele>228.6</ele>
        <time>2023-05-27T09:14:10Z</time>
      </trkpt>
      <trkpt lat="43.38207" lon="1.86418">
        <ele>228.6</ele>
        <time>2023-05-27T09:14:11Z</time>
      </trkpt>
      <trkpt lat="43.38211" lon="1.86416">
        <ele>228.6</ele>
        <time>2023-05-27T09:14:12Z</time>
      </trkpt>
      <trkpt lat="43.38214" lon="1.86415">
        <ele>228.8</ele>
        <time>2023-05-27T09:14:13Z</time>
      </trkpt>
      <trkpt lat="43.38217" lon="1.86414">
        <ele>228.8</ele>
        <time>2023-05-27T09:14:14Z</time>
      </trkpt>
      <trkpt lat="43.3822" lon="1.86412">
        <ele>228.8</ele>
        <time>2023-05-27T09:14:15Z</time>
      </trkpt>
      <trkpt lat="43.38223" lon="1.86411">
        <ele>228.8</ele>
        <time>2023-05-27T09:14:16Z</time>
      </trkpt>
      <trkpt lat="43.38226" lon="1.8641">
        <ele>228.8</ele>
        <time>2023-05-27T09:14:17Z</time>
      </trkpt>
      <trkpt lat="43.38228" lon="1.8641">
        <ele>228.8</ele>
        <time>2023-05-27T09:14:18Z</time>
      </trkpt>
      <trkpt lat="43.3823" lon="1.8641">
        <ele>228.8</ele>
        <time>2023-05-27T09:14:19Z</time>
      </trkpt>
      <trkpt lat="43.38233" lon="1.86409">
        <ele>228.8</ele>
        <time>2023-05-27T09:14:20Z</time>
      </trkpt>
      <trkpt lat="43.38237" lon="1.86408">
        <ele>229</ele>
        <time>2023-05-27T09:14:21Z</time>
      </trkpt>
      <trkpt lat="43.38242" lon="1.86406">
        <ele>229</ele>
        <time>2023-05-27T09:14:22Z</time>
      </trkpt>
      <trkpt lat="43.38246" lon="1.86404">
        <ele>229</ele>
        <time>2023-05-27T09:14:23Z</time>
      </trkpt>
      <trkpt lat="43.3825" lon="1.86402">
        <ele>229</ele>
        <time>2023-05-27T09:14:24Z</time>
      </trkpt>
      <trkpt lat="43.38254" lon="1.86399">
        <ele>229</ele>
        <time>2023-05-27T09:14:25Z</time>
      </trkpt>
      <trkpt lat="43.38258" lon="1.86398">
        <ele>229.2</ele>
        <time>2023-05-27T09:14:26Z</time>
      </trkpt>
      <trkpt lat="43.38262" lon="1.86397">
        <ele>229.2</ele>
        <time>2023-05-27T09:14:27Z</time>
      </trkpt>
      <trkpt lat="43.38265" lon="1.86397">
        <ele>229.2</ele>
        <time>2023-05-27T09:14:28Z</time>
      </trkpt>
      <trkpt lat="43.38267" lon="1.86397">
        <ele>229.2</ele>
        <time>2023-05-27T09:14:29Z</time>
      </trkpt>
      <trkpt lat="43.3827" lon="1.86396">
        <ele>229.2</ele>
        <time>2023-05-27T09:14:30Z</time>
      </trkpt>
      <trkpt lat="43.38273" lon="1.86396">
        <ele>229.2</ele>
        <time>2023-05-27T09:14:31Z</time>
      </trkpt>
      <trkpt lat="43.38277" lon="1.86396">
        <ele>229.2</ele>
        <time>2023-05-27T09:14:32Z</time>
      </trkpt>
      <trkpt lat="43.38279" lon="1.86396">
        <ele>229.4</ele>
        <time>2023-05-27T09:14:33Z</time>
      </trkpt>
      <trkpt lat="43.38282" lon="1.86397">
        <ele>229.4</ele>
        <time>2023-05-27T09:14:34Z</time>
      </trkpt>
      <trkpt lat="43.38284" lon="1.86397">
        <ele>229.4</ele>
        <time>2023-05-27T09:14:35Z</time>
      </trkpt>
      <trkpt lat="43.38286" lon="1.86397">
        <ele>229.4</ele>
        <time>2023-05-27T09:14:36Z</time>
      </trkpt>
      <trkpt lat="43.38288" lon="1.864">
        <ele>229.4</ele>
        <time>2023-05-27T09:14:37Z</time>
      </trkpt>
      <trkpt lat="43.38291" lon="1.86405">
        <ele>229.4</ele>
        <time>2023-05-27T09:14:38Z</time>
      </trkpt>
      <trkpt lat="43.38294" lon="1.8641">
        <ele>229.4</ele>
        <time>2023-05-27T09:14:39Z</time>
      </trkpt>
      <trkpt lat="43.38296" lon="1.86414">
        <ele>229.2</ele>
        <time>2023-05-27T09:14:40Z</time>
      </trkpt>
      <trkpt lat="43.38298" lon="1.86417">
        <ele>229.2</ele>
        <time>2023-05-27T09:14:41Z</time>
      </trkpt>
      <trkpt lat="43.38298" lon="1.8642">
        <ele>229.2</ele>
        <time>2023-05-27T09:14:42Z</time>
      </trkpt>
      <trkpt lat="43.38298" lon="1.86423">
        <ele>229.2</ele>
        <time>2023-05-27T09:14:43Z</time>
      </trkpt>
      <trkpt lat="43.38298" lon="1.86427">
        <ele>229</ele>
        <time>2023-05-27T09:14:44Z</time>
      </trkpt>
      <trkpt lat="43.38297" lon="1.86431">
        <ele>229</ele>
        <time>2023-05-27T09:14:45Z</time>
      </trkpt>
      <trkpt lat="43.38296" lon="1.86436">
        <ele>229</ele>
        <time>2023-05-27T09:14:46Z</time>
      </trkpt>
      <trkpt lat="43.38294" lon="1.86441">
        <ele>228.8</ele>
        <time>2023-05-27T09:14:47Z</time>
      </trkpt>
      <trkpt lat="43.38293" lon="1.86448">
        <ele>228.8</ele>
        <time>2023-05-27T09:14:48Z</time>
      </trkpt>
      <trkpt lat="43.38292" lon="1.86454">
        <ele>228.8</ele>
        <time>2023-05-27T09:14:49Z</time>
      </trkpt>
      <trkpt lat="43.38291" lon="1.86459">
        <ele>228.6</ele>
        <time>2023-05-27T09:14:50Z</time>
      </trkpt>
      <trkpt lat="43.38289" lon="1.86464">
        <ele>228.6</ele>
        <time>2023-05-27T09:14:51Z</time>
      </trkpt>
      <trkpt lat="43.38289" lon="1.86468">
        <ele>228.6</ele>
        <time>2023-05-27T09:14:52Z</time>
      </trkpt>
      <trkpt lat="43.38288" lon="1.86473">
        <ele>228.6</ele>
        <time>2023-05-27T09:14:53Z</time>
      </trkpt>
      <trkpt lat="43.38288" lon="1.86477">
        <ele>228.6</ele>
        <time>2023-05-27T09:14:54Z</time>
      </trkpt>
      <trkpt lat="43.38286" lon="1.86482">
        <ele>228.6</ele>
        <time>2023-05-27T09:14:55Z</time>
      </trkpt>
      <trkpt lat="43.38285" lon="1.86487">
        <ele>228.6</ele>
        <time>2023-05-27T09:14:56Z</time>
      </trkpt>
      <trkpt lat="43.38284" lon="1.86491">
        <ele>228.6</ele>
        <time>2023-05-27T09:14:57Z</time>
      </trkpt>
      <trkpt lat="43.38284" lon="1.86494">
        <ele>228.6</ele>
        <time>2023-05-27T09:14:58Z</time>
      </trkpt>
      <trkpt lat="43.38283" lon="1.86497">
        <ele>228.6</ele>
        <time>2023-05-27T09:14:59Z</time>
      </trkpt>
      <trkpt lat="43.38282" lon="1.86502">
        <ele>228.6</ele>
        <time>2023-05-27T09:15:00Z</time>
      </trkpt>
      <trkpt lat="43.38281" lon="1.86508">
        <ele>228.6</ele>
        <time>2023-05-27T09:15:01Z</time>
      </trkpt>
      <trkpt lat="43.38281" lon="1.86514">
        <ele>228.6</ele>
        <time>2023-05-27T09:15:02Z</time>
      </trkpt>
      <trkpt lat="43.38281" lon="1.86519">
        <ele>228.6</ele>
        <time>2023-05-27T09:15:03Z</time>
      </trkpt>
      <trkpt lat="43.38281" lon="1.86524">
        <ele>228.6</ele>
        <time>2023-05-27T09:15:04Z</time>
      </trkpt>
      <trkpt lat="43.38281" lon="1.8653">
        <ele>228.6</ele>
        <time>2023-05-27T09:15:05Z</time>
      </trkpt>
      <trkpt lat="43.38282" lon="1.86537">
        <ele>228.6</ele>
        <time>2023-05-27T09:15:06Z</time>
      </trkpt>
      <trkpt lat="43.38282" lon="1.86542">
        <ele>228.4</ele>
        <time>2023-05-27T09:15:07Z</time>
      </trkpt>
      <trkpt lat="43.38282" lon="1.86546">
        <ele>228.2</ele>
        <time>2023-05-27T09:15:08Z</time>
      </trkpt>
      <trkpt lat="43.38283" lon="1.86551">
        <ele>228.4</ele>
        <time>2023-05-27T09:15:09Z</time>
      </trkpt>
      <trkpt lat="43.38284" lon="1.86556">
        <ele>228.4</ele>
        <time>2023-05-27T09:15:10Z</time>
      </trkpt>
      <trkpt lat="43.38284" lon="1.86562">
        <ele>228.4</ele>
        <time>2023-05-27T09:15:11Z</time>
      </trkpt>
      <trkpt lat="43.38284" lon="1.86568">
        <ele>228.4</ele>
        <time>2023-05-27T09:15:12Z</time>
      </trkpt>
      <trkpt lat="43.38285" lon="1.86573">
        <ele>228.4</ele>
        <time>2023-05-27T09:15:13Z</time>
      </trkpt>
      <trkpt lat="43.38286" lon="1.86578">
        <ele>228.2</ele>
        <time>2023-05-27T09:15:14Z</time>
      </trkpt>
      <trkpt lat="43.38287" lon="1.86582">
        <ele>228.2</ele>
        <time>2023-05-27T09:15:15Z</time>
      </trkpt>
      <trkpt lat="43.38289" lon="1.86586">
        <ele>228.2</ele>
        <time>2023-05-27T09:15:16Z</time>
      </trkpt>
      <trkpt lat="43.38291" lon="1.86591">
        <ele>228.2</ele>
        <time>2023-05-27T09:15:17Z</time>
      </trkpt>
      <trkpt lat="43.38292" lon="1.86596">
        <ele>228.2</ele>
        <time>2023-05-27T09:15:18Z</time>
      </trkpt>
      <trkpt lat="43.38292" lon="1.866">
        <ele>228.2</ele>
        <time>2023-05-27T09:15:19Z</time>
      </trkpt>
      <trkpt lat="43.38291" lon="1.86604">
        <ele>228.2</ele>
        <time>2023-05-27T09:15:20Z</time>
      </trkpt>
      <trkpt lat="43.38291" lon="1.86607">
        <ele>228.2</ele>
        <time>2023-05-27T09:15:21Z</time>
      </trkpt>
      <trkpt lat="43.38292" lon="1.8661">
        <ele>228.2</ele>
        <time>2023-05-27T09:15:22Z</time>
      </trkpt>
      <trkpt lat="43.38293" lon="1.86614">
        <ele>228.2</ele>
        <time>2023-05-27T09:15:23Z</time>
      </trkpt>
      <trkpt lat="43.38294" lon="1.86618">
        <ele>228.4</ele>
        <time>2023-05-27T09:15:24Z</time>
      </trkpt>
      <trkpt lat="43.38296" lon="1.86623">
        <ele>228.4</ele>
        <time>2023-05-27T09:15:25Z</time>
      </trkpt>
      <trkpt lat="43.38298" lon="1.86628">
        <ele>228.4</ele>
        <time>2023-05-27T09:15:26Z</time>
      </trkpt>
      <trkpt lat="43.383" lon="1.86633">
        <ele>228.4</ele>
        <time>2023-05-27T09:15:27Z</time>
      </trkpt>
      <trkpt lat="43.38301" lon="1.86636">
        <ele>228.4</ele>
        <time>2023-05-27T09:15:28Z</time>
      </trkpt>
      <trkpt lat="43.38302" lon="1.8664">
        <ele>228.4</ele>
        <time>2023-05-27T09:15:29Z</time>
      </trkpt>
      <trkpt lat="43.38303" lon="1.86645">
        <ele>228.6</ele>
        <time>2023-05-27T09:15:30Z</time>
      </trkpt>
      <trkpt lat="43.38305" lon="1.8665">
        <ele>228.6</ele>
        <time>2023-05-27T09:15:31Z</time>
      </trkpt>
      <trkpt lat="43.38306" lon="1.86654">
        <ele>228.6</ele>
        <time>2023-05-27T09:15:32Z</time>
      </trkpt>
      <trkpt lat="43.38307" lon="1.86658">
        <ele>228.6</ele>
        <time>2023-05-27T09:15:33Z</time>
      </trkpt>
      <trkpt lat="43.38308" lon="1.86661">
        <ele>228.6</ele>
        <time>2023-05-27T09:15:34Z</time>
      </trkpt>
      <trkpt lat="43.38309" lon="1.86665">
        <ele>228.6</ele>
        <time>2023-05-27T09:15:35Z</time>
      </trkpt>
      <trkpt lat="43.38311" lon="1.86669">
        <ele>228.4</ele>
        <time>2023-05-27T09:15:36Z</time>
      </trkpt>
      <trkpt lat="43.38313" lon="1.86672">
        <ele>228.4</ele>
        <time>2023-05-27T09:15:37Z</time>
      </trkpt>
      <trkpt lat="43.38316" lon="1.86674">
        <ele>228.4</ele>
        <time>2023-05-27T09:15:38Z</time>
      </trkpt>
      <trkpt lat="43.38319" lon="1.86676">
        <ele>228.4</ele>
        <time>2023-05-27T09:15:39Z</time>
      </trkpt>
      <trkpt lat="43.38321" lon="1.86677">
        <ele>228.4</ele>
        <time>2023-05-27T09:15:40Z</time>
      </trkpt>
      <trkpt lat="43.38325" lon="1.86678">
        <ele>228.4</ele>
        <time>2023-05-27T09:15:41Z</time>
      </trkpt>
      <trkpt lat="43.38328" lon="1.86679">
        <ele>228.4</ele>
        <time>2023-05-27T09:15:42Z</time>
      </trkpt>
      <trkpt lat="43.3833" lon="1.8668">
        <ele>228.4</ele>
        <time>2023-05-27T09:15:43Z</time>
      </trkpt>
      <trkpt lat="43.38333" lon="1.86681">
        <ele>228.4</ele>
        <time>2023-05-27T09:15:44Z</time>
      </trkpt>
      <trkpt lat="43.38335" lon="1.86681">
        <ele>228.4</ele>
        <time>2023-05-27T09:15:45Z</time>
      </trkpt>
      <trkpt lat="43.38338" lon="1.86682">
        <ele>228.4</ele>
        <time>2023-05-27T09:15:46Z</time>
      </trkpt>
      <trkpt lat="43.3834" lon="1.86682">
        <ele>228.4</ele>
        <time>2023-05-27T09:15:47Z</time>
      </trkpt>
      <trkpt lat="43.38343" lon="1.86683">
        <ele>228.6</ele>
        <time>2023-05-27T09:15:48Z</time>
      </trkpt>
      <trkpt lat="43.38345" lon="1.86684">
        <ele>228.6</ele>
        <time>2023-05-27T09:15:49Z</time>
      </trkpt>
      <trkpt lat="43.38348" lon="1.86685">
        <ele>228.8</ele>
        <time>2023-05-27T09:15:50Z</time>
      </trkpt>
      <trkpt lat="43.38351" lon="1.86685">
        <ele>228.8</ele>
        <time>2023-05-27T09:15:51Z</time>
      </trkpt>
      <trkpt lat="43.38354" lon="1.86686">
        <ele>228.8</ele>
        <time>2023-05-27T09:15:52Z</time>
      </trkpt>
      <trkpt lat="43.38356" lon="1.86686">
        <ele>229</ele>
        <time>2023-05-27T09:15:53Z</time>
      </trkpt>
      <trkpt lat="43.38358" lon="1.86686">
        <ele>229</ele>
        <time>2023-05-27T09:15:54Z</time>
      </trkpt>
      <trkpt lat="43.3836" lon="1.86686">
        <ele>229.2</ele>
        <time>2023-05-27T09:15:55Z</time>
      </trkpt>
      <trkpt lat="43.38363" lon="1.86688">
        <ele>229.2</ele>
        <time>2023-05-27T09:15:56Z</time>
      </trkpt>
      <trkpt lat="43.38366" lon="1.8669">
        <ele>229.4</ele>
        <time>2023-05-27T09:15:57Z</time>
      </trkpt>
      <trkpt lat="43.38369" lon="1.86694">
        <ele>229.4</ele>
        <time>2023-05-27T09:15:58Z</time>
      </trkpt>
      <trkpt lat="43.38371" lon="1.86697">
        <ele>229.4</ele>
        <time>2023-05-27T09:15:59Z</time>
      </trkpt>
      <trkpt lat="43.38373" lon="1.86699">
        <ele>229.6</ele>
        <time>2023-05-27T09:16:00Z</time>
      </trkpt>
      <trkpt lat="43.38375" lon="1.86702">
        <ele>229.6</ele>
        <time>2023-05-27T09:16:01Z</time>
      </trkpt>
      <trkpt lat="43.38378" lon="1.86706">
        <ele>229.6</ele>
        <time>2023-05-27T09:16:02Z</time>
      </trkpt>
      <trkpt lat="43.3838" lon="1.86709">
        <ele>229.8</ele>
        <time>2023-05-27T09:16:03Z</time>
      </trkpt>
      <trkpt lat="43.38382" lon="1.86711">
        <ele>229.8</ele>
        <time>2023-05-27T09:16:04Z</time>
      </trkpt>
      <trkpt lat="43.38384" lon="1.86713">
        <ele>229.8</ele>
        <time>2023-05-27T09:16:05Z</time>
      </trkpt>
      <trkpt lat="43.38386" lon="1.86716">
        <ele>229.8</ele>
        <time>2023-05-27T09:16:06Z</time>
      </trkpt>
      <trkpt lat="43.38387" lon="1.8672">
        <ele>229.8</ele>
        <time>2023-05-27T09:16:07Z</time>
      </trkpt>
      <trkpt lat="43.38389" lon="1.86723">
        <ele>229.8</ele>
        <time>2023-05-27T09:16:08Z</time>
      </trkpt>
      <trkpt lat="43.38391" lon="1.86726">
        <ele>229.8</ele>
        <time>2023-05-27T09:16:09Z</time>
      </trkpt>
      <trkpt lat="43.38392" lon="1.86728">
        <ele>229.6</ele>
        <time>2023-05-27T09:16:10Z</time>
      </trkpt>
      <trkpt lat="43.38393" lon="1.86731">
        <ele>229.6</ele>
        <time>2023-05-27T09:16:11Z</time>
      </trkpt>
      <trkpt lat="43.38394" lon="1.86734">
        <ele>229.6</ele>
        <time>2023-05-27T09:16:12Z</time>
      </trkpt>
      <trkpt lat="43.38395" lon="1.86738">
        <ele>229.6</ele>
        <time>2023-05-27T09:16:13Z</time>
      </trkpt>
      <trkpt lat="43.38396" lon="1.86742">
        <ele>229.6</ele>
        <time>2023-05-27T09:16:14Z</time>
      </trkpt>
      <trkpt lat="43.38397" lon="1.86745">
        <ele>229.6</ele>
        <time>2023-05-27T09:16:15Z</time>
      </trkpt>
      <trkpt lat="43.38398" lon="1.86749">
        <ele>229.4</ele>
        <time>2023-05-27T09:16:16Z</time>
      </trkpt>
      <trkpt lat="43.38399" lon="1.86752">
        <ele>229.4</ele>
        <time>2023-05-27T09:16:17Z</time>
      </trkpt>
      <trkpt lat="43.38399" lon="1.86756">
        <ele>229.4</ele>
        <time>2023-05-27T09:16:18Z</time>
      </trkpt>
      <trkpt lat="43.384" lon="1.86759">
        <ele>229.4</ele>
        <time>2023-05-27T09:16:19Z</time>
      </trkpt>
      <trkpt lat="43.384" lon="1.86763">
        <ele>229.4</ele>
        <time>2023-05-27T09:16:20Z</time>
      </trkpt>
      <trkpt lat="43.384" lon="1.86766">
        <ele>229.4</ele>
        <time>2023-05-27T09:16:21Z</time>
      </trkpt>
      <trkpt lat="43.384" lon="1.86771">
        <ele>229.6</ele>
        <time>2023-05-27T09:16:22Z</time>
      </trkpt>
      <trkpt lat="43.384" lon="1.86775">
        <ele>229.6</ele>
        <time>2023-05-27T09:16:23Z</time>
      </trkpt>
      <trkpt lat="43.38399" lon="1.86779">
        <ele>229.6</ele>
        <time>2023-05-27T09:16:24Z</time>
      </trkpt>
      <trkpt lat="43.38397" lon="1.86783">
        <ele>229.6</ele>
        <time>2023-05-27T09:16:25Z</time>
      </trkpt>
      <trkpt lat="43.38396" lon="1.86786">
        <ele>229.6</ele>
        <time>2023-05-27T09:16:26Z</time>
      </trkpt>
      <trkpt lat="43.38395" lon="1.86789">
        <ele>229.6</ele>
        <time>2023-05-27T09:16:27Z</time>
      </trkpt>
      <trkpt lat="43.38394" lon="1.86793">
        <ele>229.6</ele>
        <time>2023-05-27T09:16:28Z</time>
      </trkpt>
      <trkpt lat="43.38392" lon="1.86797">
        <ele>229.6</ele>
        <time>2023-05-27T09:16:29Z</time>
      </trkpt>
      <trkpt lat="43.3839" lon="1.86801">
        <ele>229.6</ele>
        <time>2023-05-27T09:16:30Z</time>
      </trkpt>
      <trkpt lat="43.38388" lon="1.86806">
        <ele>229.6</ele>
        <time>2023-05-27T09:16:31Z</time>
      </trkpt>
      <trkpt lat="43.38387" lon="1.86811">
        <ele>229.8</ele>
        <time>2023-05-27T09:16:32Z</time>
      </trkpt>
      <trkpt lat="43.38386" lon="1.86815">
        <ele>229.8</ele>
        <time>2023-05-27T09:16:33Z</time>
      </trkpt>
      <trkpt lat="43.38385" lon="1.86819">
        <ele>229.8</ele>
        <time>2023-05-27T09:16:34Z</time>
      </trkpt>
      <trkpt lat="43.38383" lon="1.86823">
        <ele>229.8</ele>
        <time>2023-05-27T09:16:35Z</time>
      </trkpt>
      <trkpt lat="43.38381" lon="1.86826">
        <ele>229.8</ele>
        <time>2023-05-27T09:16:36Z</time>
      </trkpt>
      <trkpt lat="43.3838" lon="1.8683">
        <ele>229.8</ele>
        <time>2023-05-27T09:16:37Z</time>
      </trkpt>
      <trkpt lat="43.3838" lon="1.86835">
        <ele>229.8</ele>
        <time>2023-05-27T09:16:38Z</time>
      </trkpt>
      <trkpt lat="43.3838" lon="1.8684">
        <ele>230</ele>
        <time>2023-05-27T09:16:39Z</time>
      </trkpt>
      <trkpt lat="43.38379" lon="1.86845">
        <ele>230</ele>
        <time>2023-05-27T09:16:40Z</time>
      </trkpt>
      <trkpt lat="43.38378" lon="1.8685">
        <ele>230</ele>
        <time>2023-05-27T09:16:41Z</time>
      </trkpt>
      <trkpt lat="43.38377" lon="1.86855">
        <ele>230</ele>
        <time>2023-05-27T09:16:42Z</time>
      </trkpt>
      <trkpt lat="43.38377" lon="1.8686">
        <ele>230</ele>
        <time>2023-05-27T09:16:43Z</time>
      </trkpt>
      <trkpt lat="43.38376" lon="1.86865">
        <ele>230</ele>
        <time>2023-05-27T09:16:44Z</time>
      </trkpt>
      <trkpt lat="43.38376" lon="1.86871">
        <ele>230</ele>
        <time>2023-05-27T09:16:45Z</time>
      </trkpt>
      <trkpt lat="43.38376" lon="1.86876">
        <ele>230</ele>
        <time>2023-05-27T09:16:46Z</time>
      </trkpt>
      <trkpt lat="43.38377" lon="1.86881">
        <ele>230</ele>
        <time>2023-05-27T09:16:47Z</time>
      </trkpt>
      <trkpt lat="43.38375" lon="1.86886">
        <ele>230</ele>
        <time>2023-05-27T09:16:48Z</time>
      </trkpt>
      <trkpt lat="43.38375" lon="1.8689">
        <ele>229.8</ele>
        <time>2023-05-27T09:16:49Z</time>
      </trkpt>
      <trkpt lat="43.38375" lon="1.86894">
        <ele>229.8</ele>
        <time>2023-05-27T09:16:50Z</time>
      </trkpt>
      <trkpt lat="43.38376" lon="1.86899">
        <ele>229.8</ele>
        <time>2023-05-27T09:16:51Z</time>
      </trkpt>
      <trkpt lat="43.38376" lon="1.86903">
        <ele>229.8</ele>
        <time>2023-05-27T09:16:52Z</time>
      </trkpt>
      <trkpt lat="43.38377" lon="1.86907">
        <ele>229.8</ele>
        <time>2023-05-27T09:16:53Z</time>
      </trkpt>
      <trkpt lat="43.38377" lon="1.86912">
        <ele>229.8</ele>
        <time>2023-05-27T09:16:54Z</time>
      </trkpt>
      <trkpt lat="43.38377" lon="1.86916">
        <ele>229.8</ele>
        <time>2023-05-27T09:16:55Z</time>
      </trkpt>
      <trkpt lat="43.38377" lon="1.8692">
        <ele>229.6</ele>
        <time>2023-05-27T09:16:56Z</time>
      </trkpt>
      <trkpt lat="43.38376" lon="1.86926">
        <ele>229.6</ele>
        <time>2023-05-27T09:16:57Z</time>
      </trkpt>
      <trkpt lat="43.38376" lon="1.86933">
        <ele>229.6</ele>
        <time>2023-05-27T09:16:58Z</time>
      </trkpt>
      <trkpt lat="43.38376" lon="1.86938">
        <ele>229.4</ele>
        <time>2023-05-27T09:16:59Z</time>
      </trkpt>
      <trkpt lat="43.38376" lon="1.86943">
        <ele>229.4</ele>
        <time>2023-05-27T09:17:00Z</time>
      </trkpt>
      <trkpt lat="43.38376" lon="1.86948">
        <ele>229.4</ele>
        <time>2023-05-27T09:17:01Z</time>
      </trkpt>
      <trkpt lat="43.38376" lon="1.86953">
        <ele>229.2</ele>
        <time>2023-05-27T09:17:02Z</time>
      </trkpt>
      <trkpt lat="43.38376" lon="1.86957">
        <ele>229.2</ele>
        <time>2023-05-27T09:17:03Z</time>
      </trkpt>
      <trkpt lat="43.38376" lon="1.86961">
        <ele>229</ele>
        <time>2023-05-27T09:17:04Z</time>
      </trkpt>
      <trkpt lat="43.38375" lon="1.86966">
        <ele>229</ele>
        <time>2023-05-27T09:17:05Z</time>
      </trkpt>
      <trkpt lat="43.38374" lon="1.86972">
        <ele>229</ele>
        <time>2023-05-27T09:17:06Z</time>
      </trkpt>
      <trkpt lat="43.38373" lon="1.86977">
        <ele>229</ele>
        <time>2023-05-27T09:17:07Z</time>
      </trkpt>
      <trkpt lat="43.38372" lon="1.86983">
        <ele>228.8</ele>
        <time>2023-05-27T09:17:08Z</time>
      </trkpt>
      <trkpt lat="43.38371" lon="1.86987">
        <ele>228.8</ele>
        <time>2023-05-27T09:17:09Z</time>
      </trkpt>
      <trkpt lat="43.3837" lon="1.86991">
        <ele>228.8</ele>
        <time>2023-05-27T09:17:10Z</time>
      </trkpt>
      <trkpt lat="43.38368" lon="1.86998">
        <ele>228.8</ele>
        <time>2023-05-27T09:17:11Z</time>
      </trkpt>
      <trkpt lat="43.38368" lon="1.87006">
        <ele>228.8</ele>
        <time>2023-05-27T09:17:12Z</time>
      </trkpt>
      <trkpt lat="43.38367" lon="1.87012">
        <ele>228.8</ele>
        <time>2023-05-27T09:17:13Z</time>
      </trkpt>
      <trkpt lat="43.38366" lon="1.87017">
        <ele>228.8</ele>
        <time>2023-05-27T09:17:14Z</time>
      </trkpt>
      <trkpt lat="43.38365" lon="1.87022">
        <ele>228.8</ele>
        <time>2023-05-27T09:17:15Z</time>
      </trkpt>
      <trkpt lat="43.38364" lon="1.87026">
        <ele>228.8</ele>
        <time>2023-05-27T09:17:16Z</time>
      </trkpt>
      <trkpt lat="43.38363" lon="1.87031">
        <ele>228.8</ele>
        <time>2023-05-27T09:17:17Z</time>
      </trkpt>
      <trkpt lat="43.38362" lon="1.87036">
        <ele>228.8</ele>
        <time>2023-05-27T09:17:18Z</time>
      </trkpt>
      <trkpt lat="43.38362" lon="1.87042">
        <ele>228.8</ele>
        <time>2023-05-27T09:17:19Z</time>
      </trkpt>
      <trkpt lat="43.38362" lon="1.87047">
        <ele>228.8</ele>
        <time>2023-05-27T09:17:20Z</time>
      </trkpt>
      <trkpt lat="43.38362" lon="1.87051">
        <ele>228.6</ele>
        <time>2023-05-27T09:17:21Z</time>
      </trkpt>
      <trkpt lat="43.38361" lon="1.87056">
        <ele>228.6</ele>
        <time>2023-05-27T09:17:22Z</time>
      </trkpt>
      <trkpt lat="43.3836" lon="1.87062">
        <ele>228.6</ele>
        <time>2023-05-27T09:17:23Z</time>
      </trkpt>
      <trkpt lat="43.3836" lon="1.87068">
        <ele>228.6</ele>
        <time>2023-05-27T09:17:24Z</time>
      </trkpt>
      <trkpt lat="43.38358" lon="1.87072">
        <ele>228.8</ele>
        <time>2023-05-27T09:17:25Z</time>
      </trkpt>
      <trkpt lat="43.38357" lon="1.87079">
        <ele>228.8</ele>
        <time>2023-05-27T09:17:26Z</time>
      </trkpt>
      <trkpt lat="43.38356" lon="1.87084">
        <ele>228.8</ele>
        <time>2023-05-27T09:17:27Z</time>
      </trkpt>
      <trkpt lat="43.38356" lon="1.87089">
        <ele>228.8</ele>
        <time>2023-05-27T09:17:28Z</time>
      </trkpt>
      <trkpt lat="43.38356" lon="1.87093">
        <ele>228.8</ele>
        <time>2023-05-27T09:17:29Z</time>
      </trkpt>
      <trkpt lat="43.38357" lon="1.87098">
        <ele>228.8</ele>
        <time>2023-05-27T09:17:30Z</time>
      </trkpt>
      <trkpt lat="43.38357" lon="1.87101">
        <ele>228.8</ele>
        <time>2023-05-27T09:17:31Z</time>
      </trkpt>
      <trkpt lat="43.38356" lon="1.87104">
        <ele>228.8</ele>
        <time>2023-05-27T09:17:32Z</time>
      </trkpt>
      <trkpt lat="43.38356" lon="1.87108">
        <ele>228.8</ele>
        <time>2023-05-27T09:17:33Z</time>
      </trkpt>
      <trkpt lat="43.38356" lon="1.87113">
        <ele>228.8</ele>
        <time>2023-05-27T09:17:34Z</time>
      </trkpt>
      <trkpt lat="43.38354" lon="1.87117">
        <ele>228.8</ele>
        <time>2023-05-27T09:17:35Z</time>
      </trkpt>
      <trkpt lat="43.38354" lon="1.8712">
        <ele>228.8</ele>
        <time>2023-05-27T09:17:36Z</time>
      </trkpt>
      <trkpt lat="43.38353" lon="1.87124">
        <ele>228.8</ele>
        <time>2023-05-27T09:17:37Z</time>
      </trkpt>
      <trkpt lat="43.38352" lon="1.87128">
        <ele>228.8</ele>
        <time>2023-05-27T09:17:38Z</time>
      </trkpt>
      <trkpt lat="43.38351" lon="1.87132">
        <ele>228.8</ele>
        <time>2023-05-27T09:17:39Z</time>
      </trkpt>
      <trkpt lat="43.3835" lon="1.87136">
        <ele>228.8</ele>
        <time>2023-05-27T09:17:40Z</time>
      </trkpt>
      <trkpt lat="43.38349" lon="1.87141">
        <ele>228.8</ele>
        <time>2023-05-27T09:17:41Z</time>
      </trkpt>
      <trkpt lat="43.38349" lon="1.87145">
        <ele>228.8</ele>
        <time>2023-05-27T09:17:42Z</time>
      </trkpt>
      <trkpt lat="43.38348" lon="1.87148">
        <ele>228.8</ele>
        <time>2023-05-27T09:17:43Z</time>
      </trkpt>
      <trkpt lat="43.38346" lon="1.87153">
        <ele>228.8</ele>
        <time>2023-05-27T09:17:44Z</time>
      </trkpt>
      <trkpt lat="43.38345" lon="1.87157">
        <ele>228.8</ele>
        <time>2023-05-27T09:17:45Z</time>
      </trkpt>
      <trkpt lat="43.38344" lon="1.87161">
        <ele>228.8</ele>
        <time>2023-05-27T09:17:46Z</time>
      </trkpt>
      <trkpt lat="43.38343" lon="1.87164">
        <ele>228.8</ele>
        <time>2023-05-27T09:17:47Z</time>
      </trkpt>
      <trkpt lat="43.38342" lon="1.87167">
        <ele>228.8</ele>
        <time>2023-05-27T09:17:48Z</time>
      </trkpt>
      <trkpt lat="43.38341" lon="1.87171">
        <ele>228.8</ele>
        <time>2023-05-27T09:17:49Z</time>
      </trkpt>
      <trkpt lat="43.38339" lon="1.87175">
        <ele>228.6</ele>
        <time>2023-05-27T09:17:50Z</time>
      </trkpt>
      <trkpt lat="43.38338" lon="1.87179">
        <ele>228.8</ele>
        <time>2023-05-27T09:17:51Z</time>
      </trkpt>
      <trkpt lat="43.38337" lon="1.87182">
        <ele>228.8</ele>
        <time>2023-05-27T09:17:52Z</time>
      </trkpt>
      <trkpt lat="43.38336" lon="1.87186">
        <ele>228.8</ele>
        <time>2023-05-27T09:17:53Z</time>
      </trkpt>
      <trkpt lat="43.38335" lon="1.87191">
        <ele>228.8</ele>
        <time>2023-05-27T09:17:54Z</time>
      </trkpt>
      <trkpt lat="43.38334" lon="1.87194">
        <ele>228.8</ele>
        <time>2023-05-27T09:17:55Z</time>
      </trkpt>
      <trkpt lat="43.38334" lon="1.87199">
        <ele>228.8</ele>
        <time>2023-05-27T09:17:56Z</time>
      </trkpt>
      <trkpt lat="43.38333" lon="1.87204">
        <ele>228.8</ele>
        <time>2023-05-27T09:17:57Z</time>
      </trkpt>
      <trkpt lat="43.38332" lon="1.8721">
        <ele>228.8</ele>
        <time>2023-05-27T09:17:58Z</time>
      </trkpt>
      <trkpt lat="43.3833" lon="1.87215">
        <ele>228.8</ele>
        <time>2023-05-27T09:17:59Z</time>
      </trkpt>
      <trkpt lat="43.38329" lon="1.87219">
        <ele>228.8</ele>
        <time>2023-05-27T09:18:00Z</time>
      </trkpt>
      <trkpt lat="43.38328" lon="1.87224">
        <ele>228.8</ele>
        <time>2023-05-27T09:18:01Z</time>
      </trkpt>
      <trkpt lat="43.38327" lon="1.8723">
        <ele>228.8</ele>
        <time>2023-05-27T09:18:02Z</time>
      </trkpt>
      <trkpt lat="43.38327" lon="1.87234">
        <ele>228.8</ele>
        <time>2023-05-27T09:18:03Z</time>
      </trkpt>
      <trkpt lat="43.38326" lon="1.87239">
        <ele>228.8</ele>
        <time>2023-05-27T09:18:04Z</time>
      </trkpt>
      <trkpt lat="43.38326" lon="1.87244">
        <ele>228.8</ele>
        <time>2023-05-27T09:18:05Z</time>
      </trkpt>
      <trkpt lat="43.38325" lon="1.8725">
        <ele>228.8</ele>
        <time>2023-05-27T09:18:06Z</time>
      </trkpt>
      <trkpt lat="43.38324" lon="1.87255">
        <ele>228.8</ele>
        <time>2023-05-27T09:18:07Z</time>
      </trkpt>
      <trkpt lat="43.38323" lon="1.87261">
        <ele>228.8</ele>
        <time>2023-05-27T09:18:08Z</time>
      </trkpt>
      <trkpt lat="43.38322" lon="1.87266">
        <ele>228.8</ele>
        <time>2023-05-27T09:18:09Z</time>
      </trkpt>
      <trkpt lat="43.38322" lon="1.87271">
        <ele>228.8</ele>
        <time>2023-05-27T09:18:10Z</time>
      </trkpt>
      <trkpt lat="43.38322" lon="1.87275">
        <ele>228.8</ele>
        <time>2023-05-27T09:18:11Z</time>
      </trkpt>
      <trkpt lat="43.38322" lon="1.8728">
        <ele>228.8</ele>
        <time>2023-05-27T09:18:12Z</time>
      </trkpt>
      <trkpt lat="43.38323" lon="1.87283">
        <ele>228.8</ele>
        <time>2023-05-27T09:18:13Z</time>
      </trkpt>
      <trkpt lat="43.38324" lon="1.87287">
        <ele>229</ele>
        <time>2023-05-27T09:18:14Z</time>
      </trkpt>
      <trkpt lat="43.38324" lon="1.87292">
        <ele>229</ele>
        <time>2023-05-27T09:18:15Z</time>
      </trkpt>
      <trkpt lat="43.38325" lon="1.87298">
        <ele>229</ele>
        <time>2023-05-27T09:18:16Z</time>
      </trkpt>
      <trkpt lat="43.38327" lon="1.87303">
        <ele>229</ele>
        <time>2023-05-27T09:18:17Z</time>
      </trkpt>
      <trkpt lat="43.38328" lon="1.87308">
        <ele>229.2</ele>
        <time>2023-05-27T09:18:18Z</time>
      </trkpt>
      <trkpt lat="43.38327" lon="1.87313">
        <ele>229.2</ele>
        <time>2023-05-27T09:18:19Z</time>
      </trkpt>
      <trkpt lat="43.38327" lon="1.87317">
        <ele>229.2</ele>
        <time>2023-05-27T09:18:20Z</time>
      </trkpt>
      <trkpt lat="43.38327" lon="1.87321">
        <ele>229.2</ele>
        <time>2023-05-27T09:18:21Z</time>
      </trkpt>
      <trkpt lat="43.38327" lon="1.87324">
        <ele>229.4</ele>
        <time>2023-05-27T09:18:22Z</time>
      </trkpt>
      <trkpt lat="43.38329" lon="1.87328">
        <ele>229.4</ele>
        <time>2023-05-27T09:18:23Z</time>
      </trkpt>
      <trkpt lat="43.38331" lon="1.8733">
        <ele>229.4</ele>
        <time>2023-05-27T09:18:24Z</time>
      </trkpt>
      <trkpt lat="43.38332" lon="1.87333">
        <ele>229.6</ele>
        <time>2023-05-27T09:18:25Z</time>
      </trkpt>
      <trkpt lat="43.38334" lon="1.87335">
        <ele>229.6</ele>
        <time>2023-05-27T09:18:26Z</time>
      </trkpt>
      <trkpt lat="43.38336" lon="1.87338">
        <ele>229.6</ele>
        <time>2023-05-27T09:18:27Z</time>
      </trkpt>
      <trkpt lat="43.38338" lon="1.8734">
        <ele>229.6</ele>
        <time>2023-05-27T09:18:28Z</time>
      </trkpt>
      <trkpt lat="43.3834" lon="1.87342">
        <ele>229.6</ele>
        <time>2023-05-27T09:18:29Z</time>
      </trkpt>
      <trkpt lat="43.38341" lon="1.87344">
        <ele>229.6</ele>
        <time>2023-05-27T09:18:30Z</time>
      </trkpt>
      <trkpt lat="43.38342" lon="1.87345">
        <ele>229.6</ele>
        <time>2023-05-27T09:18:31Z</time>
      </trkpt>
      <trkpt lat="43.38344" lon="1.87345">
        <ele>229.6</ele>
        <time>2023-05-27T09:18:32Z</time>
      </trkpt>
      <trkpt lat="43.38346" lon="1.87346">
        <ele>229.6</ele>
        <time>2023-05-27T09:18:33Z</time>
      </trkpt>
      <trkpt lat="43.38348" lon="1.87346">
        <ele>229.4</ele>
        <time>2023-05-27T09:18:34Z</time>
      </trkpt>
      <trkpt lat="43.3835" lon="1.87347">
        <ele>229.4</ele>
        <time>2023-05-27T09:18:35Z</time>
      </trkpt>
      <trkpt lat="43.38352" lon="1.87347">
        <ele>229.4</ele>
        <time>2023-05-27T09:18:36Z</time>
      </trkpt>
      <trkpt lat="43.38353" lon="1.87347">
        <ele>229.2</ele>
        <time>2023-05-27T09:18:37Z</time>
      </trkpt>
      <trkpt lat="43.38355" lon="1.87348">
        <ele>229.2</ele>
        <time>2023-05-27T09:18:38Z</time>
      </trkpt>
      <trkpt lat="43.38358" lon="1.87348">
        <ele>229.2</ele>
        <time>2023-05-27T09:18:39Z</time>
      </trkpt>
      <trkpt lat="43.3836" lon="1.87348">
        <ele>229</ele>
        <time>2023-05-27T09:18:40Z</time>
      </trkpt>
      <trkpt lat="43.38363" lon="1.87348">
        <ele>229</ele>
        <time>2023-05-27T09:18:41Z</time>
      </trkpt>
      <trkpt lat="43.38366" lon="1.87348">
        <ele>229</ele>
        <time>2023-05-27T09:18:42Z</time>
      </trkpt>
      <trkpt lat="43.38369" lon="1.87347">
        <ele>229</ele>
        <time>2023-05-27T09:18:43Z</time>
      </trkpt>
      <trkpt lat="43.38371" lon="1.87347">
        <ele>228.8</ele>
        <time>2023-05-27T09:18:44Z</time>
      </trkpt>
      <trkpt lat="43.38373" lon="1.87347">
        <ele>228.8</ele>
        <time>2023-05-27T09:18:45Z</time>
      </trkpt>
      <trkpt lat="43.38376" lon="1.87347">
        <ele>228.8</ele>
        <time>2023-05-27T09:18:46Z</time>
      </trkpt>
      <trkpt lat="43.38379" lon="1.87346">
        <ele>228.6</ele>
        <time>2023-05-27T09:18:47Z</time>
      </trkpt>
      <trkpt lat="43.38382" lon="1.87345">
        <ele>228.6</ele>
        <time>2023-05-27T09:18:48Z</time>
      </trkpt>
      <trkpt lat="43.38385" lon="1.87342">
        <ele>228.6</ele>
        <time>2023-05-27T09:18:49Z</time>
      </trkpt>
      <trkpt lat="43.38388" lon="1.8734">
        <ele>228.6</ele>
        <time>2023-05-27T09:18:50Z</time>
      </trkpt>
      <trkpt lat="43.38392" lon="1.87338">
        <ele>228.6</ele>
        <time>2023-05-27T09:18:51Z</time>
      </trkpt>
      <trkpt lat="43.38394" lon="1.87336">
        <ele>228.6</ele>
        <time>2023-05-27T09:18:52Z</time>
      </trkpt>
      <trkpt lat="43.38397" lon="1.87334">
        <ele>228.6</ele>
        <time>2023-05-27T09:18:53Z</time>
      </trkpt>
      <trkpt lat="43.38399" lon="1.87332">
        <ele>228.6</ele>
        <time>2023-05-27T09:18:54Z</time>
      </trkpt>
      <trkpt lat="43.38401" lon="1.8733">
        <ele>228.6</ele>
        <time>2023-05-27T09:18:55Z</time>
      </trkpt>
      <trkpt lat="43.38404" lon="1.87327">
        <ele>228.6</ele>
        <time>2023-05-27T09:18:56Z</time>
      </trkpt>
      <trkpt lat="43.38406" lon="1.87325">
        <ele>228.6</ele>
        <time>2023-05-27T09:18:57Z</time>
      </trkpt>
      <trkpt lat="43.38408" lon="1.87322">
        <ele>228.6</ele>
        <time>2023-05-27T09:18:58Z</time>
      </trkpt>
      <trkpt lat="43.3841" lon="1.87319">
        <ele>228.6</ele>
        <time>2023-05-27T09:18:59Z</time>
      </trkpt>
      <trkpt lat="43.38413" lon="1.87315">
        <ele>228.6</ele>
        <time>2023-05-27T09:19:00Z</time>
      </trkpt>
      <trkpt lat="43.38416" lon="1.87312">
        <ele>228.6</ele>
        <time>2023-05-27T09:19:01Z</time>
      </trkpt>
      <trkpt lat="43.38418" lon="1.87308">
        <ele>228.6</ele>
        <time>2023-05-27T09:19:02Z</time>
      </trkpt>
      <trkpt lat="43.38421" lon="1.87304">
        <ele>228.8</ele>
        <time>2023-05-27T09:19:03Z</time>
      </trkpt>
      <trkpt lat="43.38423" lon="1.87301">
        <ele>228.6</ele>
        <time>2023-05-27T09:19:04Z</time>
      </trkpt>
      <trkpt lat="43.38426" lon="1.87297">
        <ele>228.6</ele>
        <time>2023-05-27T09:19:05Z</time>
      </trkpt>
      <trkpt lat="43.38429" lon="1.87292">
        <ele>228.6</ele>
        <time>2023-05-27T09:19:06Z</time>
      </trkpt>
      <trkpt lat="43.38431" lon="1.87288">
        <ele>228.6</ele>
        <time>2023-05-27T09:19:07Z</time>
      </trkpt>
      <trkpt lat="43.38433" lon="1.87284">
        <ele>228.6</ele>
        <time>2023-05-27T09:19:08Z</time>
      </trkpt>
      <trkpt lat="43.38434" lon="1.8728">
        <ele>228.6</ele>
        <time>2023-05-27T09:19:09Z</time>
      </trkpt>
      <trkpt lat="43.38436" lon="1.87275">
        <ele>228.6</ele>
        <time>2023-05-27T09:19:10Z</time>
      </trkpt>
      <trkpt lat="43.38438" lon="1.8727">
        <ele>228.6</ele>
        <time>2023-05-27T09:19:11Z</time>
      </trkpt>
      <trkpt lat="43.3844" lon="1.87266">
        <ele>228.6</ele>
        <time>2023-05-27T09:19:12Z</time>
      </trkpt>
      <trkpt lat="43.38442" lon="1.87263">
        <ele>228.6</ele>
        <time>2023-05-27T09:19:13Z</time>
      </trkpt>
      <trkpt lat="43.38444" lon="1.87259">
        <ele>228.6</ele>
        <time>2023-05-27T09:19:14Z</time>
      </trkpt>
      <trkpt lat="43.38446" lon="1.87255">
        <ele>228.6</ele>
        <time>2023-05-27T09:19:15Z</time>
      </trkpt>
      <trkpt lat="43.38448" lon="1.87251">
        <ele>228.6</ele>
        <time>2023-05-27T09:19:16Z</time>
      </trkpt>
      <trkpt lat="43.3845" lon="1.87246">
        <ele>228.6</ele>
        <time>2023-05-27T09:19:17Z</time>
      </trkpt>
      <trkpt lat="43.38452" lon="1.87242">
        <ele>228.6</ele>
        <time>2023-05-27T09:19:18Z</time>
      </trkpt>
      <trkpt lat="43.38454" lon="1.87238">
        <ele>228.6</ele>
        <time>2023-05-27T09:19:19Z</time>
      </trkpt>
      <trkpt lat="43.38456" lon="1.87234">
        <ele>228.6</ele>
        <time>2023-05-27T09:19:20Z</time>
      </trkpt>
      <trkpt lat="43.38458" lon="1.87229">
        <ele>228.6</ele>
        <time>2023-05-27T09:19:21Z</time>
      </trkpt>
      <trkpt lat="43.3846" lon="1.87225">
        <ele>228.6</ele>
        <time>2023-05-27T09:19:22Z</time>
      </trkpt>
      <trkpt lat="43.38462" lon="1.87221">
        <ele>228.6</ele>
        <time>2023-05-27T09:19:23Z</time>
      </trkpt>
      <trkpt lat="43.38463" lon="1.87217">
        <ele>228.6</ele>
        <time>2023-05-27T09:19:24Z</time>
      </trkpt>
      <trkpt lat="43.38464" lon="1.87213">
        <ele>228.6</ele>
        <time>2023-05-27T09:19:25Z</time>
      </trkpt>
      <trkpt lat="43.38465" lon="1.8721">
        <ele>228.6</ele>
        <time>2023-05-27T09:19:26Z</time>
      </trkpt>
      <trkpt lat="43.38466" lon="1.87206">
        <ele>228.6</ele>
        <time>2023-05-27T09:19:27Z</time>
      </trkpt>
      <trkpt lat="43.38467" lon="1.87202">
        <ele>228.6</ele>
        <time>2023-05-27T09:19:28Z</time>
      </trkpt>
      <trkpt lat="43.38466" lon="1.87197">
        <ele>228.6</ele>
        <time>2023-05-27T09:19:29Z</time>
      </trkpt>
      <trkpt lat="43.38466" lon="1.87192">
        <ele>228.8</ele>
        <time>2023-05-27T09:19:30Z</time>
      </trkpt>
      <trkpt lat="43.38467" lon="1.87187">
        <ele>228.8</ele>
        <time>2023-05-27T09:19:31Z</time>
      </trkpt>
      <trkpt lat="43.38468" lon="1.87183">
        <ele>228.8</ele>
        <time>2023-05-27T09:19:32Z</time>
      </trkpt>
      <trkpt lat="43.38468" lon="1.87178">
        <ele>228.8</ele>
        <time>2023-05-27T09:19:33Z</time>
      </trkpt>
      <trkpt lat="43.38469" lon="1.87174">
        <ele>228.8</ele>
        <time>2023-05-27T09:19:34Z</time>
      </trkpt>
      <trkpt lat="43.3847" lon="1.87168">
        <ele>228.8</ele>
        <time>2023-05-27T09:19:35Z</time>
      </trkpt>
      <trkpt lat="43.3847" lon="1.87163">
        <ele>228.8</ele>
        <time>2023-05-27T09:19:36Z</time>
      </trkpt>
      <trkpt lat="43.38471" lon="1.87158">
        <ele>228.8</ele>
        <time>2023-05-27T09:19:37Z</time>
      </trkpt>
      <trkpt lat="43.38472" lon="1.87154">
        <ele>228.8</ele>
        <time>2023-05-27T09:19:38Z</time>
      </trkpt>
      <trkpt lat="43.38473" lon="1.87149">
        <ele>228.8</ele>
        <time>2023-05-27T09:19:39Z</time>
      </trkpt>
      <trkpt lat="43.38474" lon="1.87144">
        <ele>229</ele>
        <time>2023-05-27T09:19:40Z</time>
      </trkpt>
      <trkpt lat="43.38476" lon="1.87139">
        <ele>229</ele>
        <time>2023-05-27T09:19:41Z</time>
      </trkpt>
      <trkpt lat="43.38476" lon="1.87135">
        <ele>229</ele>
        <time>2023-05-27T09:19:42Z</time>
      </trkpt>
      <trkpt lat="43.38477" lon="1.87131">
        <ele>229</ele>
        <time>2023-05-27T09:19:43Z</time>
      </trkpt>
      <trkpt lat="43.38477" lon="1.87128">
        <ele>229</ele>
        <time>2023-05-27T09:19:44Z</time>
      </trkpt>
      <trkpt lat="43.38477" lon="1.87124">
        <ele>229</ele>
        <time>2023-05-27T09:19:45Z</time>
      </trkpt>
      <trkpt lat="43.38478" lon="1.87121">
        <ele>229</ele>
        <time>2023-05-27T09:19:46Z</time>
      </trkpt>
      <trkpt lat="43.38479" lon="1.87117">
        <ele>228.8</ele>
        <time>2023-05-27T09:19:47Z</time>
      </trkpt>
      <trkpt lat="43.38481" lon="1.87114">
        <ele>228.8</ele>
        <time>2023-05-27T09:19:48Z</time>
      </trkpt>
      <trkpt lat="43.38482" lon="1.8711">
        <ele>228.8</ele>
        <time>2023-05-27T09:19:49Z</time>
      </trkpt>
      <trkpt lat="43.38484" lon="1.87106">
        <ele>228.8</ele>
        <time>2023-05-27T09:19:50Z</time>
      </trkpt>
      <trkpt lat="43.38486" lon="1.87103">
        <ele>228.8</ele>
        <time>2023-05-27T09:19:51Z</time>
      </trkpt>
      <trkpt lat="43.38489" lon="1.871">
        <ele>228.8</ele>
        <time>2023-05-27T09:19:52Z</time>
      </trkpt>
      <trkpt lat="43.38491" lon="1.87097">
        <ele>228.8</ele>
        <time>2023-05-27T09:19:53Z</time>
      </trkpt>
      <trkpt lat="43.38493" lon="1.87094">
        <ele>228.8</ele>
        <time>2023-05-27T09:19:54Z</time>
      </trkpt>
      <trkpt lat="43.38495" lon="1.87091">
        <ele>228.8</ele>
        <time>2023-05-27T09:19:55Z</time>
      </trkpt>
      <trkpt lat="43.38497" lon="1.87088">
        <ele>228.8</ele>
        <time>2023-05-27T09:19:56Z</time>
      </trkpt>
      <trkpt lat="43.38498" lon="1.87086">
        <ele>228.8</ele>
        <time>2023-05-27T09:19:57Z</time>
      </trkpt>
      <trkpt lat="43.385" lon="1.87083">
        <ele>228.8</ele>
        <time>2023-05-27T09:19:58Z</time>
      </trkpt>
      <trkpt lat="43.38501" lon="1.8708">
        <ele>228.8</ele>
        <time>2023-05-27T09:19:59Z</time>
      </trkpt>
      <trkpt lat="43.38503" lon="1.87077">
        <ele>229</ele>
        <time>2023-05-27T09:20:00Z</time>
      </trkpt>
      <trkpt lat="43.38505" lon="1.87074">
        <ele>229</ele>
        <time>2023-05-27T09:20:01Z</time>
      </trkpt>
      <trkpt lat="43.38507" lon="1.87071">
        <ele>229</ele>
        <time>2023-05-27T09:20:02Z</time>
      </trkpt>
      <trkpt lat="43.38508" lon="1.87068">
        <ele>229</ele>
        <time>2023-05-27T09:20:03Z</time>
      </trkpt>
      <trkpt lat="43.3851" lon="1.87065">
        <ele>229</ele>
        <time>2023-05-27T09:20:04Z</time>
      </trkpt>
      <trkpt lat="43.38512" lon="1.87062">
        <ele>229</ele>
        <time>2023-05-27T09:20:05Z</time>
      </trkpt>
      <trkpt lat="43.38513" lon="1.87058">
        <ele>229</ele>
        <time>2023-05-27T09:20:06Z</time>
      </trkpt>
      <trkpt lat="43.38514" lon="1.87055">
        <ele>229</ele>
        <time>2023-05-27T09:20:07Z</time>
      </trkpt>
      <trkpt lat="43.38515" lon="1.87052">
        <ele>229</ele>
        <time>2023-05-27T09:20:08Z</time>
      </trkpt>
      <trkpt lat="43.38516" lon="1.87049">
        <ele>229</ele>
        <time>2023-05-27T09:20:09Z</time>
      </trkpt>
      <trkpt lat="43.38518" lon="1.87046">
        <ele>229</ele>
        <time>2023-05-27T09:20:10Z</time>
      </trkpt>
      <trkpt lat="43.38519" lon="1.87043">
        <ele>229</ele>
        <time>2023-05-27T09:20:11Z</time>
      </trkpt>
      <trkpt lat="43.38521" lon="1.87039">
        <ele>229</ele>
        <time>2023-05-27T09:20:12Z</time>
      </trkpt>
      <trkpt lat="43.38523" lon="1.87035">
        <ele>229</ele>
        <time>2023-05-27T09:20:13Z</time>
      </trkpt>
      <trkpt lat="43.38525" lon="1.87031">
        <ele>229</ele>
        <time>2023-05-27T09:20:14Z</time>
      </trkpt>
      <trkpt lat="43.38528" lon="1.87026">
        <ele>229</ele>
        <time>2023-05-27T09:20:15Z</time>
      </trkpt>
      <trkpt lat="43.38531" lon="1.87021">
        <ele>229</ele>
        <time>2023-05-27T09:20:16Z</time>
      </trkpt>
      <trkpt lat="43.38533" lon="1.87017">
        <ele>229</ele>
        <time>2023-05-27T09:20:17Z</time>
      </trkpt>
      <trkpt lat="43.38534" lon="1.87013">
        <ele>229</ele>
        <time>2023-05-27T09:20:18Z</time>
      </trkpt>
      <trkpt lat="43.38536" lon="1.8701">
        <ele>229</ele>
        <time>2023-05-27T09:20:19Z</time>
      </trkpt>
      <trkpt lat="43.38538" lon="1.87005">
        <ele>229</ele>
        <time>2023-05-27T09:20:20Z</time>
      </trkpt>
      <trkpt lat="43.38541" lon="1.87">
        <ele>229</ele>
        <time>2023-05-27T09:20:21Z</time>
      </trkpt>
      <trkpt lat="43.38544" lon="1.86995">
        <ele>229</ele>
        <time>2023-05-27T09:20:22Z</time>
      </trkpt>
      <trkpt lat="43.38547" lon="1.86991">
        <ele>229</ele>
        <time>2023-05-27T09:20:23Z</time>
      </trkpt>
      <trkpt lat="43.38549" lon="1.86988">
        <ele>229</ele>
        <time>2023-05-27T09:20:24Z</time>
      </trkpt>
      <trkpt lat="43.38551" lon="1.86984">
        <ele>229</ele>
        <time>2023-05-27T09:20:25Z</time>
      </trkpt>
      <trkpt lat="43.38554" lon="1.86981">
        <ele>229</ele>
        <time>2023-05-27T09:20:26Z</time>
      </trkpt>
      <trkpt lat="43.38557" lon="1.86978">
        <ele>229</ele>
        <time>2023-05-27T09:20:27Z</time>
      </trkpt>
      <trkpt lat="43.38559" lon="1.86976">
        <ele>229</ele>
        <time>2023-05-27T09:20:28Z</time>
      </trkpt>
      <trkpt lat="43.38561" lon="1.86973">
        <ele>229</ele>
        <time>2023-05-27T09:20:29Z</time>
      </trkpt>
      <trkpt lat="43.38563" lon="1.86969">
        <ele>229</ele>
        <time>2023-05-27T09:20:30Z</time>
      </trkpt>
      <trkpt lat="43.38564" lon="1.86966">
        <ele>229</ele>
        <time>2023-05-27T09:20:31Z</time>
      </trkpt>
      <trkpt lat="43.38567" lon="1.86962">
        <ele>229</ele>
        <time>2023-05-27T09:20:32Z</time>
      </trkpt>
      <trkpt lat="43.3857" lon="1.86959">
        <ele>229</ele>
        <time>2023-05-27T09:20:33Z</time>
      </trkpt>
      <trkpt lat="43.38573" lon="1.86955">
        <ele>229</ele>
        <time>2023-05-27T09:20:34Z</time>
      </trkpt>
      <trkpt lat="43.38576" lon="1.86951">
        <ele>228.8</ele>
        <time>2023-05-27T09:20:35Z</time>
      </trkpt>
      <trkpt lat="43.38578" lon="1.86949">
        <ele>228.8</ele>
        <time>2023-05-27T09:20:36Z</time>
      </trkpt>
      <trkpt lat="43.3858" lon="1.86946">
        <ele>228.8</ele>
        <time>2023-05-27T09:20:37Z</time>
      </trkpt>
      <trkpt lat="43.38582" lon="1.86942">
        <ele>228.8</ele>
        <time>2023-05-27T09:20:38Z</time>
      </trkpt>
      <trkpt lat="43.38584" lon="1.86939">
        <ele>228.8</ele>
        <time>2023-05-27T09:20:39Z</time>
      </trkpt>
      <trkpt lat="43.38586" lon="1.86936">
        <ele>228.6</ele>
        <time>2023-05-27T09:20:40Z</time>
      </trkpt>
      <trkpt lat="43.38588" lon="1.86933">
        <ele>228.6</ele>
        <time>2023-05-27T09:20:41Z</time>
      </trkpt>
      <trkpt lat="43.38591" lon="1.86928">
        <ele>228.4</ele>
        <time>2023-05-27T09:20:42Z</time>
      </trkpt>
      <trkpt lat="43.38593" lon="1.86923">
        <ele>228.4</ele>
        <time>2023-05-27T09:20:43Z</time>
      </trkpt>
      <trkpt lat="43.38596" lon="1.86918">
        <ele>228.4</ele>
        <time>2023-05-27T09:20:44Z</time>
      </trkpt>
      <trkpt lat="43.38598" lon="1.86915">
        <ele>228.4</ele>
        <time>2023-05-27T09:20:45Z</time>
      </trkpt>
      <trkpt lat="43.38601" lon="1.86912">
        <ele>228.2</ele>
        <time>2023-05-27T09:20:46Z</time>
      </trkpt>
      <trkpt lat="43.38603" lon="1.86908">
        <ele>228.2</ele>
        <time>2023-05-27T09:20:47Z</time>
      </trkpt>
      <trkpt lat="43.38605" lon="1.86905">
        <ele>228.2</ele>
        <time>2023-05-27T09:20:48Z</time>
      </trkpt>
      <trkpt lat="43.38608" lon="1.86902">
        <ele>228</ele>
        <time>2023-05-27T09:20:49Z</time>
      </trkpt>
      <trkpt lat="43.38611" lon="1.86899">
        <ele>228</ele>
        <time>2023-05-27T09:20:50Z</time>
      </trkpt>
      <trkpt lat="43.38613" lon="1.86896">
        <ele>228</ele>
        <time>2023-05-27T09:20:51Z</time>
      </trkpt>
      <trkpt lat="43.38615" lon="1.86893">
        <ele>228</ele>
        <time>2023-05-27T09:20:52Z</time>
      </trkpt>
      <trkpt lat="43.38617" lon="1.8689">
        <ele>228</ele>
        <time>2023-05-27T09:20:53Z</time>
      </trkpt>
      <trkpt lat="43.38618" lon="1.86888">
        <ele>227.8</ele>
        <time>2023-05-27T09:20:54Z</time>
      </trkpt>
      <trkpt lat="43.38621" lon="1.86885">
        <ele>227.8</ele>
        <time>2023-05-27T09:20:55Z</time>
      </trkpt>
      <trkpt lat="43.38624" lon="1.86882">
        <ele>227.8</ele>
        <time>2023-05-27T09:20:56Z</time>
      </trkpt>
      <trkpt lat="43.38626" lon="1.86878">
        <ele>227.8</ele>
        <time>2023-05-27T09:20:57Z</time>
      </trkpt>
      <trkpt lat="43.38628" lon="1.86875">
        <ele>227.8</ele>
        <time>2023-05-27T09:20:58Z</time>
      </trkpt>
      <trkpt lat="43.3863" lon="1.86872">
        <ele>227.8</ele>
        <time>2023-05-27T09:20:59Z</time>
      </trkpt>
      <trkpt lat="43.38633" lon="1.8687">
        <ele>227.8</ele>
        <time>2023-05-27T09:21:00Z</time>
      </trkpt>
      <trkpt lat="43.38635" lon="1.86868">
        <ele>227.8</ele>
        <time>2023-05-27T09:21:01Z</time>
      </trkpt>
      <trkpt lat="43.38637" lon="1.86866">
        <ele>227.8</ele>
        <time>2023-05-27T09:21:02Z</time>
      </trkpt>
      <trkpt lat="43.38639" lon="1.86864">
        <ele>227.8</ele>
        <time>2023-05-27T09:21:03Z</time>
      </trkpt>
      <trkpt lat="43.38641" lon="1.86862">
        <ele>228</ele>
        <time>2023-05-27T09:21:04Z</time>
      </trkpt>
      <trkpt lat="43.38643" lon="1.86859">
        <ele>228</ele>
        <time>2023-05-27T09:21:05Z</time>
      </trkpt>
      <trkpt lat="43.38645" lon="1.86857">
        <ele>228</ele>
        <time>2023-05-27T09:21:06Z</time>
      </trkpt>
      <trkpt lat="43.38646" lon="1.86855">
        <ele>228</ele>
        <time>2023-05-27T09:21:07Z</time>
      </trkpt>
      <trkpt lat="43.38649" lon="1.86853">
        <ele>228.2</ele>
        <time>2023-05-27T09:21:08Z</time>
      </trkpt>
      <trkpt lat="43.38651" lon="1.8685">
        <ele>228.2</ele>
        <time>2023-05-27T09:21:09Z</time>
      </trkpt>
      <trkpt lat="43.38654" lon="1.86848">
        <ele>228.2</ele>
        <time>2023-05-27T09:21:10Z</time>
      </trkpt>
      <trkpt lat="43.38656" lon="1.86845">
        <ele>228.2</ele>
        <time>2023-05-27T09:21:11Z</time>
      </trkpt>
      <trkpt lat="43.38659" lon="1.86843">
        <ele>228.4</ele>
        <time>2023-05-27T09:21:12Z</time>
      </trkpt>
      <trkpt lat="43.38662" lon="1.8684">
        <ele>228.4</ele>
        <time>2023-05-27T09:21:13Z</time>
      </trkpt>
      <trkpt lat="43.38665" lon="1.86836">
        <ele>228.4</ele>
        <time>2023-05-27T09:21:14Z</time>
      </trkpt>
      <trkpt lat="43.38669" lon="1.86833">
        <ele>228.4</ele>
        <time>2023-05-27T09:21:15Z</time>
      </trkpt>
      <trkpt lat="43.38672" lon="1.8683">
        <ele>228.4</ele>
        <time>2023-05-27T09:21:16Z</time>
      </trkpt>
      <trkpt lat="43.38675" lon="1.86827">
        <ele>228.4</ele>
        <time>2023-05-27T09:21:17Z</time>
      </trkpt>
      <trkpt lat="43.38678" lon="1.86824">
        <ele>228.6</ele>
        <time>2023-05-27T09:21:18Z</time>
      </trkpt>
      <trkpt lat="43.38681" lon="1.86822">
        <ele>228.6</ele>
        <time>2023-05-27T09:21:19Z</time>
      </trkpt>
      <trkpt lat="43.38683" lon="1.8682">
        <ele>228.6</ele>
        <time>2023-05-27T09:21:20Z</time>
      </trkpt>
      <trkpt lat="43.38686" lon="1.86818">
        <ele>228.6</ele>
        <time>2023-05-27T09:21:21Z</time>
      </trkpt>
      <trkpt lat="43.38689" lon="1.86816">
        <ele>228.6</ele>
        <time>2023-05-27T09:21:22Z</time>
      </trkpt>
      <trkpt lat="43.38691" lon="1.86815">
        <ele>228.6</ele>
        <time>2023-05-27T09:21:23Z</time>
      </trkpt>
      <trkpt lat="43.38694" lon="1.86813">
        <ele>228.6</ele>
        <time>2023-05-27T09:21:24Z</time>
      </trkpt>
      <trkpt lat="43.38697" lon="1.86811">
        <ele>228.6</ele>
        <time>2023-05-27T09:21:25Z</time>
      </trkpt>
      <trkpt lat="43.387" lon="1.86809">
        <ele>228.6</ele>
        <time>2023-05-27T09:21:26Z</time>
      </trkpt>
      <trkpt lat="43.38703" lon="1.86807">
        <ele>228.8</ele>
        <time>2023-05-27T09:21:27Z</time>
      </trkpt>
      <trkpt lat="43.38706" lon="1.86805">
        <ele>228.8</ele>
        <time>2023-05-27T09:21:28Z</time>
      </trkpt>
      <trkpt lat="43.38708" lon="1.86802">
        <ele>228.8</ele>
        <time>2023-05-27T09:21:29Z</time>
      </trkpt>
      <trkpt lat="43.38711" lon="1.868">
        <ele>228.8</ele>
        <time>2023-05-27T09:21:30Z</time>
      </trkpt>
      <trkpt lat="43.38714" lon="1.86798">
        <ele>228.8</ele>
        <time>2023-05-27T09:21:31Z</time>
      </trkpt>
      <trkpt lat="43.38717" lon="1.86795">
        <ele>228.8</ele>
        <time>2023-05-27T09:21:32Z</time>
      </trkpt>
      <trkpt lat="43.38719" lon="1.86793">
        <ele>228.8</ele>
        <time>2023-05-27T09:21:33Z</time>
      </trkpt>
      <trkpt lat="43.38722" lon="1.86791">
        <ele>229</ele>
        <time>2023-05-27T09:21:34Z</time>
      </trkpt>
      <trkpt lat="43.38724" lon="1.86789">
        <ele>229</ele>
        <time>2023-05-27T09:21:35Z</time>
      </trkpt>
      <trkpt lat="43.38727" lon="1.86787">
        <ele>229</ele>
        <time>2023-05-27T09:21:36Z</time>
      </trkpt>
      <trkpt lat="43.3873" lon="1.86785">
        <ele>229</ele>
        <time>2023-05-27T09:21:37Z</time>
      </trkpt>
      <trkpt lat="43.38732" lon="1.86783">
        <ele>229</ele>
        <time>2023-05-27T09:21:38Z</time>
      </trkpt>
      <trkpt lat="43.38734" lon="1.86781">
        <ele>229.2</ele>
        <time>2023-05-27T09:21:39Z</time>
      </trkpt>
      <trkpt lat="43.38737" lon="1.86778">
        <ele>229.2</ele>
        <time>2023-05-27T09:21:40Z</time>
      </trkpt>
      <trkpt lat="43.3874" lon="1.86776">
        <ele>229.2</ele>
        <time>2023-05-27T09:21:41Z</time>
      </trkpt>
      <trkpt lat="43.38742" lon="1.86775">
        <ele>229.2</ele>
        <time>2023-05-27T09:21:42Z</time>
      </trkpt>
      <trkpt lat="43.38744" lon="1.86773">
        <ele>229.4</ele>
        <time>2023-05-27T09:21:43Z</time>
      </trkpt>
      <trkpt lat="43.38746" lon="1.86772">
        <ele>229.4</ele>
        <time>2023-05-27T09:21:44Z</time>
      </trkpt>
      <trkpt lat="43.38748" lon="1.86771">
        <ele>229.4</ele>
        <time>2023-05-27T09:21:45Z</time>
      </trkpt>
      <trkpt lat="43.3875" lon="1.8677">
        <ele>229.6</ele>
        <time>2023-05-27T09:21:46Z</time>
      </trkpt>
      <trkpt lat="43.38751" lon="1.8677">
        <ele>229.6</ele>
        <time>2023-05-27T09:21:47Z</time>
      </trkpt>
      <trkpt lat="43.38753" lon="1.8677">
        <ele>229.6</ele>
        <time>2023-05-27T09:21:48Z</time>
      </trkpt>
      <trkpt lat="43.38756" lon="1.8677">
        <ele>229.6</ele>
        <time>2023-05-27T09:21:49Z</time>
      </trkpt>
      <trkpt lat="43.38758" lon="1.8677">
        <ele>229.6</ele>
        <time>2023-05-27T09:21:50Z</time>
      </trkpt>
      <trkpt lat="43.3876" lon="1.86771">
        <ele>229.6</ele>
        <time>2023-05-27T09:21:51Z</time>
      </trkpt>
      <trkpt lat="43.38762" lon="1.86773">
        <ele>229.4</ele>
        <time>2023-05-27T09:21:52Z</time>
      </trkpt>
      <trkpt lat="43.38765" lon="1.86776">
        <ele>229.4</ele>
        <time>2023-05-27T09:21:53Z</time>
      </trkpt>
      <trkpt lat="43.38767" lon="1.86778">
        <ele>229.2</ele>
        <time>2023-05-27T09:21:54Z</time>
      </trkpt>
      <trkpt lat="43.38769" lon="1.86782">
        <ele>229</ele>
        <time>2023-05-27T09:21:55Z</time>
      </trkpt>
      <trkpt lat="43.38773" lon="1.86786">
        <ele>229</ele>
        <time>2023-05-27T09:21:56Z</time>
      </trkpt>
      <trkpt lat="43.38778" lon="1.86791">
        <ele>228.8</ele>
        <time>2023-05-27T09:21:57Z</time>
      </trkpt>
      <trkpt lat="43.38782" lon="1.86796">
        <ele>228.6</ele>
        <time>2023-05-27T09:21:58Z</time>
      </trkpt>
      <trkpt lat="43.38787" lon="1.86801">
        <ele>228.6</ele>
        <time>2023-05-27T09:21:59Z</time>
      </trkpt>
      <trkpt lat="43.38791" lon="1.86804">
        <ele>228.6</ele>
        <time>2023-05-27T09:22:00Z</time>
      </trkpt>
      <trkpt lat="43.38796" lon="1.86806">
        <ele>228.6</ele>
        <time>2023-05-27T09:22:01Z</time>
      </trkpt>
      <trkpt lat="43.38801" lon="1.86808">
        <ele>228.6</ele>
        <time>2023-05-27T09:22:02Z</time>
      </trkpt>
      <trkpt lat="43.38806" lon="1.86809">
        <ele>228.6</ele>
        <time>2023-05-27T09:22:03Z</time>
      </trkpt>
      <trkpt lat="43.3881" lon="1.8681">
        <ele>228.4</ele>
        <time>2023-05-27T09:22:04Z</time>
      </trkpt>
      <trkpt lat="43.38814" lon="1.8681">
        <ele>228.4</ele>
        <time>2023-05-27T09:22:05Z</time>
      </trkpt>
      <trkpt lat="43.38818" lon="1.8681">
        <ele>228.4</ele>
        <time>2023-05-27T09:22:06Z</time>
      </trkpt>
      <trkpt lat="43.38823" lon="1.86809">
        <ele>228.4</ele>
        <time>2023-05-27T09:22:07Z</time>
      </trkpt>
      <trkpt lat="43.38828" lon="1.86808">
        <ele>228.4</ele>
        <time>2023-05-27T09:22:08Z</time>
      </trkpt>
      <trkpt lat="43.38832" lon="1.86807">
        <ele>228.4</ele>
        <time>2023-05-27T09:22:09Z</time>
      </trkpt>
      <trkpt lat="43.38836" lon="1.86805">
        <ele>228.2</ele>
        <time>2023-05-27T09:22:10Z</time>
      </trkpt>
      <trkpt lat="43.38841" lon="1.86802">
        <ele>228.2</ele>
        <time>2023-05-27T09:22:11Z</time>
      </trkpt>
      <trkpt lat="43.38845" lon="1.868">
        <ele>228</ele>
        <time>2023-05-27T09:22:12Z</time>
      </trkpt>
      <trkpt lat="43.38849" lon="1.86797">
        <ele>228</ele>
        <time>2023-05-27T09:22:13Z</time>
      </trkpt>
      <trkpt lat="43.38854" lon="1.86794">
        <ele>228</ele>
        <time>2023-05-27T09:22:14Z</time>
      </trkpt>
      <trkpt lat="43.38858" lon="1.86792">
        <ele>228</ele>
        <time>2023-05-27T09:22:15Z</time>
      </trkpt>
      <trkpt lat="43.38862" lon="1.86789">
        <ele>228</ele>
        <time>2023-05-27T09:22:16Z</time>
      </trkpt>
      <trkpt lat="43.38866" lon="1.86785">
        <ele>228</ele>
        <time>2023-05-27T09:22:17Z</time>
      </trkpt>
      <trkpt lat="43.38868" lon="1.86784">
        <ele>228</ele>
        <time>2023-05-27T09:22:18Z</time>
      </trkpt>
      <trkpt lat="43.3887" lon="1.86781">
        <ele>228.2</ele>
        <time>2023-05-27T09:22:19Z</time>
      </trkpt>
      <trkpt lat="43.38872" lon="1.86778">
        <ele>228.2</ele>
        <time>2023-05-27T09:22:20Z</time>
      </trkpt>
      <trkpt lat="43.38875" lon="1.86774">
        <ele>228.2</ele>
        <time>2023-05-27T09:22:21Z</time>
      </trkpt>
      <trkpt lat="43.38878" lon="1.86771">
        <ele>228.4</ele>
        <time>2023-05-27T09:22:22Z</time>
      </trkpt>
      <trkpt lat="43.3888" lon="1.86769">
        <ele>228.4</ele>
        <time>2023-05-27T09:22:23Z</time>
      </trkpt>
      <trkpt lat="43.38882" lon="1.86768">
        <ele>228.6</ele>
        <time>2023-05-27T09:22:24Z</time>
      </trkpt>
      <trkpt lat="43.38884" lon="1.86766">
        <ele>228.6</ele>
        <time>2023-05-27T09:22:25Z</time>
      </trkpt>
      <trkpt lat="43.38885" lon="1.86764">
        <ele>228.8</ele>
        <time>2023-05-27T09:22:26Z</time>
      </trkpt>
      <trkpt lat="43.38887" lon="1.86761">
        <ele>228.8</ele>
        <time>2023-05-27T09:22:27Z</time>
      </trkpt>
      <trkpt lat="43.38889" lon="1.86759">
        <ele>229</ele>
        <time>2023-05-27T09:22:28Z</time>
      </trkpt>
      <trkpt lat="43.38891" lon="1.86757">
        <ele>229.2</ele>
        <time>2023-05-27T09:22:29Z</time>
      </trkpt>
      <trkpt lat="43.38893" lon="1.86755">
        <ele>229.4</ele>
        <time>2023-05-27T09:22:30Z</time>
      </trkpt>
      <trkpt lat="43.38896" lon="1.86752">
        <ele>229.4</ele>
        <time>2023-05-27T09:22:31Z</time>
      </trkpt>
      <trkpt lat="43.38899" lon="1.8675">
        <ele>229.4</ele>
        <time>2023-05-27T09:22:32Z</time>
      </trkpt>
      <trkpt lat="43.38902" lon="1.86748">
        <ele>229.6</ele>
        <time>2023-05-27T09:22:33Z</time>
      </trkpt>
      <trkpt lat="43.38904" lon="1.86747">
        <ele>229.6</ele>
        <time>2023-05-27T09:22:34Z</time>
      </trkpt>
      <trkpt lat="43.38908" lon="1.86745">
        <ele>229.6</ele>
        <time>2023-05-27T09:22:35Z</time>
      </trkpt>
      <trkpt lat="43.38911" lon="1.86743">
        <ele>229.8</ele>
        <time>2023-05-27T09:22:36Z</time>
      </trkpt>
      <trkpt lat="43.38914" lon="1.86742">
        <ele>229.8</ele>
        <time>2023-05-27T09:22:37Z</time>
      </trkpt>
      <trkpt lat="43.38917" lon="1.86742">
        <ele>229.8</ele>
        <time>2023-05-27T09:22:38Z</time>
      </trkpt>
      <trkpt lat="43.38919" lon="1.86742">
        <ele>229.8</ele>
        <time>2023-05-27T09:22:39Z</time>
      </trkpt>
      <trkpt lat="43.38922" lon="1.86742">
        <ele>230</ele>
        <time>2023-05-27T09:22:40Z</time>
      </trkpt>
      <trkpt lat="43.38924" lon="1.86742">
        <ele>230</ele>
        <time>2023-05-27T09:22:41Z</time>
      </trkpt>
      <trkpt lat="43.38925" lon="1.86744">
        <ele>230</ele>
        <time>2023-05-27T09:22:42Z</time>
      </trkpt>
      <trkpt lat="43.38927" lon="1.86745">
        <ele>230</ele>
        <time>2023-05-27T09:22:43Z</time>
      </trkpt>
      <trkpt lat="43.3893" lon="1.86746">
        <ele>229.8</ele>
        <time>2023-05-27T09:22:44Z</time>
      </trkpt>
      <trkpt lat="43.38932" lon="1.86746">
        <ele>229.8</ele>
        <time>2023-05-27T09:22:45Z</time>
      </trkpt>
      <trkpt lat="43.38935" lon="1.86745">
        <ele>229.8</ele>
        <time>2023-05-27T09:22:46Z</time>
      </trkpt>
      <trkpt lat="43.3894" lon="1.86744">
        <ele>229.8</ele>
        <time>2023-05-27T09:22:47Z</time>
      </trkpt>
      <trkpt lat="43.38943" lon="1.86744">
        <ele>229.6</ele>
        <time>2023-05-27T09:22:48Z</time>
      </trkpt>
      <trkpt lat="43.38946" lon="1.86746">
        <ele>229.6</ele>
        <time>2023-05-27T09:22:49Z</time>
      </trkpt>
      <trkpt lat="43.3895" lon="1.8675">
        <ele>229.6</ele>
        <time>2023-05-27T09:22:50Z</time>
      </trkpt>
      <trkpt lat="43.38954" lon="1.86754">
        <ele>229.6</ele>
        <time>2023-05-27T09:22:51Z</time>
      </trkpt>
      <trkpt lat="43.38957" lon="1.86759">
        <ele>229.4</ele>
        <time>2023-05-27T09:22:52Z</time>
      </trkpt>
      <trkpt lat="43.38959" lon="1.86762">
        <ele>229.4</ele>
        <time>2023-05-27T09:22:53Z</time>
      </trkpt>
      <trkpt lat="43.38959" lon="1.86765">
        <ele>229.4</ele>
        <time>2023-05-27T09:22:54Z</time>
      </trkpt>
      <trkpt lat="43.3896" lon="1.86768">
        <ele>229.4</ele>
        <time>2023-05-27T09:22:55Z</time>
      </trkpt>
      <trkpt lat="43.38958" lon="1.86771">
        <ele>229.4</ele>
        <time>2023-05-27T09:22:56Z</time>
      </trkpt>
      <trkpt lat="43.38956" lon="1.86775">
        <ele>229.4</ele>
        <time>2023-05-27T09:22:57Z</time>
      </trkpt>
      <trkpt lat="43.38954" lon="1.86779">
        <ele>229.4</ele>
        <time>2023-05-27T09:22:58Z</time>
      </trkpt>
      <trkpt lat="43.38952" lon="1.86783">
        <ele>229.4</ele>
        <time>2023-05-27T09:22:59Z</time>
      </trkpt>
      <trkpt lat="43.3895" lon="1.86787">
        <ele>229.4</ele>
        <time>2023-05-27T09:23:00Z</time>
      </trkpt>
      <trkpt lat="43.38948" lon="1.8679">
        <ele>229.4</ele>
        <time>2023-05-27T09:23:01Z</time>
      </trkpt>
      <trkpt lat="43.38947" lon="1.86792">
        <ele>229.4</ele>
        <time>2023-05-27T09:23:02Z</time>
      </trkpt>
      <trkpt lat="43.38946" lon="1.86795">
        <ele>229.4</ele>
        <time>2023-05-27T09:23:03Z</time>
      </trkpt>
      <trkpt lat="43.38944" lon="1.86798">
        <ele>229.4</ele>
        <time>2023-05-27T09:23:04Z</time>
      </trkpt>
      <trkpt lat="43.38943" lon="1.86801">
        <ele>229.4</ele>
        <time>2023-05-27T09:23:05Z</time>
      </trkpt>
      <trkpt lat="43.38941" lon="1.86804">
        <ele>229.4</ele>
        <time>2023-05-27T09:23:06Z</time>
      </trkpt>
      <trkpt lat="43.3894" lon="1.86806">
        <ele>229.4</ele>
        <time>2023-05-27T09:23:07Z</time>
      </trkpt>
      <trkpt lat="43.38939" lon="1.86809">
        <ele>229.4</ele>
        <time>2023-05-27T09:23:08Z</time>
      </trkpt>
      <trkpt lat="43.38936" lon="1.86812">
        <ele>229.4</ele>
        <time>2023-05-27T09:23:09Z</time>
      </trkpt>
      <trkpt lat="43.38933" lon="1.86817">
        <ele>229.4</ele>
        <time>2023-05-27T09:23:10Z</time>
      </trkpt>
      <trkpt lat="43.38931" lon="1.8682">
        <ele>229.4</ele>
        <time>2023-05-27T09:23:11Z</time>
      </trkpt>
      <trkpt lat="43.38929" lon="1.86823">
        <ele>229.4</ele>
        <time>2023-05-27T09:23:12Z</time>
      </trkpt>
      <trkpt lat="43.38927" lon="1.86826">
        <ele>229.4</ele>
        <time>2023-05-27T09:23:13Z</time>
      </trkpt>
      <trkpt lat="43.38925" lon="1.86829">
        <ele>229.4</ele>
        <time>2023-05-27T09:23:14Z</time>
      </trkpt>
      <trkpt lat="43.38923" lon="1.86832">
        <ele>229.4</ele>
        <time>2023-05-27T09:23:15Z</time>
      </trkpt>
      <trkpt lat="43.38922" lon="1.86835">
        <ele>229.4</ele>
        <time>2023-05-27T09:23:16Z</time>
      </trkpt>
      <trkpt lat="43.38919" lon="1.86838">
        <ele>229.4</ele>
        <time>2023-05-27T09:23:17Z</time>
      </trkpt>
      <trkpt lat="43.38917" lon="1.86841">
        <ele>229.4</ele>
        <time>2023-05-27T09:23:18Z</time>
      </trkpt>
      <trkpt lat="43.38915" lon="1.86845">
        <ele>229.4</ele>
        <time>2023-05-27T09:23:19Z</time>
      </trkpt>
      <trkpt lat="43.38913" lon="1.86848">
        <ele>229.4</ele>
        <time>2023-05-27T09:23:20Z</time>
      </trkpt>
      <trkpt lat="43.38911" lon="1.86852">
        <ele>229.2</ele>
        <time>2023-05-27T09:23:21Z</time>
      </trkpt>
      <trkpt lat="43.38908" lon="1.86856">
        <ele>229.2</ele>
        <time>2023-05-27T09:23:22Z</time>
      </trkpt>
      <trkpt lat="43.38904" lon="1.86861">
        <ele>229.2</ele>
        <time>2023-05-27T09:23:23Z</time>
      </trkpt>
      <trkpt lat="43.38901" lon="1.86866">
        <ele>229.2</ele>
        <time>2023-05-27T09:23:24Z</time>
      </trkpt>
      <trkpt lat="43.38898" lon="1.8687">
        <ele>229.2</ele>
        <time>2023-05-27T09:23:25Z</time>
      </trkpt>
      <trkpt lat="43.38895" lon="1.86874">
        <ele>229.2</ele>
        <time>2023-05-27T09:23:26Z</time>
      </trkpt>
      <trkpt lat="43.38892" lon="1.86878">
        <ele>229.2</ele>
        <time>2023-05-27T09:23:27Z</time>
      </trkpt>
      <trkpt lat="43.3889" lon="1.86882">
        <ele>229.4</ele>
        <time>2023-05-27T09:23:28Z</time>
      </trkpt>
      <trkpt lat="43.38889" lon="1.86885">
        <ele>229.4</ele>
        <time>2023-05-27T09:23:29Z</time>
      </trkpt>
      <trkpt lat="43.38887" lon="1.8689">
        <ele>229.4</ele>
        <time>2023-05-27T09:23:30Z</time>
      </trkpt>
      <trkpt lat="43.38884" lon="1.86894">
        <ele>229.4</ele>
        <time>2023-05-27T09:23:31Z</time>
      </trkpt>
      <trkpt lat="43.38882" lon="1.86899">
        <ele>229.4</ele>
        <time>2023-05-27T09:23:32Z</time>
      </trkpt>
      <trkpt lat="43.3888" lon="1.86903">
        <ele>229.4</ele>
        <time>2023-05-27T09:23:33Z</time>
      </trkpt>
      <trkpt lat="43.38878" lon="1.86906">
        <ele>229.4</ele>
        <time>2023-05-27T09:23:34Z</time>
      </trkpt>
      <trkpt lat="43.38875" lon="1.86909">
        <ele>229.4</ele>
        <time>2023-05-27T09:23:35Z</time>
      </trkpt>
      <trkpt lat="43.38873" lon="1.86912">
        <ele>229.4</ele>
        <time>2023-05-27T09:23:36Z</time>
      </trkpt>
      <trkpt lat="43.3887" lon="1.86915">
        <ele>229.6</ele>
        <time>2023-05-27T09:23:37Z</time>
      </trkpt>
      <trkpt lat="43.38869" lon="1.86917">
        <ele>229.6</ele>
        <time>2023-05-27T09:23:38Z</time>
      </trkpt>
      <trkpt lat="43.38866" lon="1.8692">
        <ele>229.6</ele>
        <time>2023-05-27T09:23:39Z</time>
      </trkpt>
      <trkpt lat="43.38863" lon="1.86923">
        <ele>229.6</ele>
        <time>2023-05-27T09:23:40Z</time>
      </trkpt>
      <trkpt lat="43.3886" lon="1.86926">
        <ele>229.6</ele>
        <time>2023-05-27T09:23:41Z</time>
      </trkpt>
      <trkpt lat="43.38858" lon="1.86928">
        <ele>229.8</ele>
        <time>2023-05-27T09:23:42Z</time>
      </trkpt>
      <trkpt lat="43.38855" lon="1.86931">
        <ele>229.6</ele>
        <time>2023-05-27T09:23:43Z</time>
      </trkpt>
      <trkpt lat="43.38852" lon="1.86935">
        <ele>229.6</ele>
        <time>2023-05-27T09:23:44Z</time>
      </trkpt>
      <trkpt lat="43.38849" lon="1.86939">
        <ele>229.6</ele>
        <time>2023-05-27T09:23:45Z</time>
      </trkpt>
      <trkpt lat="43.38845" lon="1.86942">
        <ele>229.6</ele>
        <time>2023-05-27T09:23:46Z</time>
      </trkpt>
      <trkpt lat="43.38842" lon="1.86945">
        <ele>229.6</ele>
        <time>2023-05-27T09:23:47Z</time>
      </trkpt>
      <trkpt lat="43.3884" lon="1.86947">
        <ele>229.6</ele>
        <time>2023-05-27T09:23:48Z</time>
      </trkpt>
      <trkpt lat="43.38837" lon="1.86949">
        <ele>229.6</ele>
        <time>2023-05-27T09:23:49Z</time>
      </trkpt>
      <trkpt lat="43.38835" lon="1.86951">
        <ele>229.6</ele>
        <time>2023-05-27T09:23:50Z</time>
      </trkpt>
      <trkpt lat="43.38833" lon="1.86953">
        <ele>229.6</ele>
        <time>2023-05-27T09:23:51Z</time>
      </trkpt>
      <trkpt lat="43.3883" lon="1.86956">
        <ele>229.6</ele>
        <time>2023-05-27T09:23:52Z</time>
      </trkpt>
      <trkpt lat="43.38828" lon="1.86959">
        <ele>229.6</ele>
        <time>2023-05-27T09:23:53Z</time>
      </trkpt>
      <trkpt lat="43.38825" lon="1.86961">
        <ele>229.6</ele>
        <time>2023-05-27T09:23:54Z</time>
      </trkpt>
      <trkpt lat="43.38822" lon="1.86964">
        <ele>229.6</ele>
        <time>2023-05-27T09:23:55Z</time>
      </trkpt>
      <trkpt lat="43.38819" lon="1.86967">
        <ele>229.6</ele>
        <time>2023-05-27T09:23:56Z</time>
      </trkpt>
      <trkpt lat="43.38816" lon="1.8697">
        <ele>229.6</ele>
        <time>2023-05-27T09:23:57Z</time>
      </trkpt>
      <trkpt lat="43.38813" lon="1.86974">
        <ele>229.6</ele>
        <time>2023-05-27T09:23:58Z</time>
      </trkpt>
      <trkpt lat="43.38811" lon="1.86978">
        <ele>229.6</ele>
        <time>2023-05-27T09:23:59Z</time>
      </trkpt>
      <trkpt lat="43.38809" lon="1.86981">
        <ele>229.6</ele>
        <time>2023-05-27T09:24:00Z</time>
      </trkpt>
      <trkpt lat="43.38806" lon="1.86985">
        <ele>229.6</ele>
        <time>2023-05-27T09:24:01Z</time>
      </trkpt>
      <trkpt lat="43.38803" lon="1.86988">
        <ele>229.6</ele>
        <time>2023-05-27T09:24:02Z</time>
      </trkpt>
      <trkpt lat="43.38801" lon="1.86993">
        <ele>229.6</ele>
        <time>2023-05-27T09:24:03Z</time>
      </trkpt>
      <trkpt lat="43.388" lon="1.86997">
        <ele>229.6</ele>
        <time>2023-05-27T09:24:04Z</time>
      </trkpt>
      <trkpt lat="43.388" lon="1.87001">
        <ele>229.6</ele>
        <time>2023-05-27T09:24:05Z</time>
      </trkpt>
      <trkpt lat="43.388" lon="1.87006">
        <ele>229.6</ele>
        <time>2023-05-27T09:24:06Z</time>
      </trkpt>
      <trkpt lat="43.388" lon="1.8701">
        <ele>229.6</ele>
        <time>2023-05-27T09:24:07Z</time>
      </trkpt>
      <trkpt lat="43.38801" lon="1.87014">
        <ele>229.6</ele>
        <time>2023-05-27T09:24:08Z</time>
      </trkpt>
      <trkpt lat="43.38801" lon="1.87019">
        <ele>229.6</ele>
        <time>2023-05-27T09:24:09Z</time>
      </trkpt>
      <trkpt lat="43.38802" lon="1.87024">
        <ele>229.6</ele>
        <time>2023-05-27T09:24:10Z</time>
      </trkpt>
      <trkpt lat="43.38803" lon="1.87029">
        <ele>229.6</ele>
        <time>2023-05-27T09:24:11Z</time>
      </trkpt>
      <trkpt lat="43.38804" lon="1.87033">
        <ele>229.6</ele>
        <time>2023-05-27T09:24:12Z</time>
      </trkpt>
      <trkpt lat="43.38806" lon="1.87037">
        <ele>229.6</ele>
        <time>2023-05-27T09:24:13Z</time>
      </trkpt>
      <trkpt lat="43.38808" lon="1.87042">
        <ele>229.6</ele>
        <time>2023-05-27T09:24:14Z</time>
      </trkpt>
      <trkpt lat="43.38811" lon="1.87047">
        <ele>229.6</ele>
        <time>2023-05-27T09:24:15Z</time>
      </trkpt>
      <trkpt lat="43.38812" lon="1.87051">
        <ele>229.6</ele>
        <time>2023-05-27T09:24:16Z</time>
      </trkpt>
      <trkpt lat="43.38814" lon="1.87055">
        <ele>229.8</ele>
        <time>2023-05-27T09:24:17Z</time>
      </trkpt>
      <trkpt lat="43.38816" lon="1.87059">
        <ele>229.8</ele>
        <time>2023-05-27T09:24:18Z</time>
      </trkpt>
      <trkpt lat="43.38817" lon="1.87063">
        <ele>229.8</ele>
        <time>2023-05-27T09:24:19Z</time>
      </trkpt>
      <trkpt lat="43.38819" lon="1.87067">
        <ele>229.8</ele>
        <time>2023-05-27T09:24:20Z</time>
      </trkpt>
      <trkpt lat="43.3882" lon="1.87071">
        <ele>229.8</ele>
        <time>2023-05-27T09:24:21Z</time>
      </trkpt>
      <trkpt lat="43.38821" lon="1.87075">
        <ele>229.8</ele>
        <time>2023-05-27T09:24:22Z</time>
      </trkpt>
      <trkpt lat="43.38823" lon="1.87078">
        <ele>229.8</ele>
        <time>2023-05-27T09:24:23Z</time>
      </trkpt>
      <trkpt lat="43.38825" lon="1.8708">
        <ele>229.8</ele>
        <time>2023-05-27T09:24:24Z</time>
      </trkpt>
      <trkpt lat="43.38827" lon="1.87082">
        <ele>229.6</ele>
        <time>2023-05-27T09:24:25Z</time>
      </trkpt>
      <trkpt lat="43.3883" lon="1.87084">
        <ele>229.6</ele>
        <time>2023-05-27T09:24:26Z</time>
      </trkpt>
      <trkpt lat="43.38834" lon="1.87086">
        <ele>229.6</ele>
        <time>2023-05-27T09:24:27Z</time>
      </trkpt>
      <trkpt lat="43.38836" lon="1.87086">
        <ele>229.6</ele>
        <time>2023-05-27T09:24:28Z</time>
      </trkpt>
      <trkpt lat="43.38839" lon="1.87087">
        <ele>229.6</ele>
        <time>2023-05-27T09:24:29Z</time>
      </trkpt>
      <trkpt lat="43.38842" lon="1.87087">
        <ele>229.4</ele>
        <time>2023-05-27T09:24:30Z</time>
      </trkpt>
      <trkpt lat="43.38844" lon="1.87088">
        <ele>229.4</ele>
        <time>2023-05-27T09:24:31Z</time>
      </trkpt>
      <trkpt lat="43.38847" lon="1.87089">
        <ele>229.4</ele>
        <time>2023-05-27T09:24:32Z</time>
      </trkpt>
      <trkpt lat="43.38849" lon="1.8709">
        <ele>229.4</ele>
        <time>2023-05-27T09:24:33Z</time>
      </trkpt>
      <trkpt lat="43.38852" lon="1.87091">
        <ele>229.4</ele>
        <time>2023-05-27T09:24:34Z</time>
      </trkpt>
      <trkpt lat="43.38854" lon="1.87092">
        <ele>229.4</ele>
        <time>2023-05-27T09:24:35Z</time>
      </trkpt>
      <trkpt lat="43.38856" lon="1.87092">
        <ele>229.4</ele>
        <time>2023-05-27T09:24:36Z</time>
      </trkpt>
      <trkpt lat="43.38858" lon="1.87092">
        <ele>229.4</ele>
        <time>2023-05-27T09:24:37Z</time>
      </trkpt>
      <trkpt lat="43.3886" lon="1.87091">
        <ele>229.4</ele>
        <time>2023-05-27T09:24:38Z</time>
      </trkpt>
      <trkpt lat="43.38862" lon="1.87091">
        <ele>229.4</ele>
        <time>2023-05-27T09:24:39Z</time>
      </trkpt>
      <trkpt lat="43.38863" lon="1.87091">
        <ele>229.2</ele>
        <time>2023-05-27T09:24:40Z</time>
      </trkpt>
      <trkpt lat="43.38865" lon="1.8709">
        <ele>229.2</ele>
        <time>2023-05-27T09:24:41Z</time>
      </trkpt>
      <trkpt lat="43.38866" lon="1.8709">
        <ele>229.2</ele>
        <time>2023-05-27T09:24:42Z</time>
      </trkpt>
      <trkpt lat="43.38868" lon="1.8709">
        <ele>229.2</ele>
        <time>2023-05-27T09:24:43Z</time>
      </trkpt>
      <trkpt lat="43.38869" lon="1.8709">
        <ele>229.2</ele>
        <time>2023-05-27T09:24:44Z</time>
      </trkpt>
      <trkpt lat="43.3887" lon="1.8709">
        <ele>229.2</ele>
        <time>2023-05-27T09:24:45Z</time>
      </trkpt>
      <trkpt lat="43.3887" lon="1.8709">
        <ele>229.2</ele>
        <time>2023-05-27T09:24:46Z</time>
      </trkpt>
      <trkpt lat="43.3887" lon="1.8709">
        <ele>229.2</ele>
        <time>2023-05-27T09:24:47Z</time>
      </trkpt>
      <trkpt lat="43.3887" lon="1.8709">
        <ele>229.2</ele>
        <time>2023-05-27T09:24:48Z</time>
      </trkpt>
      <trkpt lat="43.3887" lon="1.8709">
        <ele>229.2</ele>
        <time>2023-05-27T09:24:49Z</time>
      </trkpt>
      <trkpt lat="43.38878" lon="1.87087">
        <ele>229.2</ele>
        <time>2023-05-27T09:27:45Z</time>
      </trkpt>
      <trkpt lat="43.38879" lon="1.87087">
        <ele>229.2</ele>
        <time>2023-05-27T09:27:46Z</time>
      </trkpt>
      <trkpt lat="43.3888" lon="1.87086">
        <ele>229.2</ele>
        <time>2023-05-27T09:27:47Z</time>
      </trkpt>
      <trkpt lat="43.38882" lon="1.87085">
        <ele>229.2</ele>
        <time>2023-05-27T09:27:48Z</time>
      </trkpt>
      <trkpt lat="43.38883" lon="1.87085">
        <ele>229.2</ele>
        <time>2023-05-27T09:27:49Z</time>
      </trkpt>
      <trkpt lat="43.38884" lon="1.87084">
        <ele>229.2</ele>
        <time>2023-05-27T09:27:50Z</time>
      </trkpt>
      <trkpt lat="43.38885" lon="1.87084">
        <ele>229.2</ele>
        <time>2023-05-27T09:27:51Z</time>
      </trkpt>
      <trkpt lat="43.38887" lon="1.87083">
        <ele>229.2</ele>
        <time>2023-05-27T09:27:52Z</time>
      </trkpt>
      <trkpt lat="43.38888" lon="1.87083">
        <ele>229.2</ele>
        <time>2023-05-27T09:27:53Z</time>
      </trkpt>
      <trkpt lat="43.38889" lon="1.87082">
        <ele>229.2</ele>
        <time>2023-05-27T09:27:54Z</time>
      </trkpt>
      <trkpt lat="43.3889" lon="1.87081">
        <ele>229.2</ele>
        <time>2023-05-27T09:27:55Z</time>
      </trkpt>
      <trkpt lat="43.38892" lon="1.8708">
        <ele>229.2</ele>
        <time>2023-05-27T09:27:56Z</time>
      </trkpt>
      <trkpt lat="43.38894" lon="1.87078">
        <ele>229.2</ele>
        <time>2023-05-27T09:27:57Z</time>
      </trkpt>
      <trkpt lat="43.38896" lon="1.87076">
        <ele>229.2</ele>
        <time>2023-05-27T09:27:58Z</time>
      </trkpt>
      <trkpt lat="43.38899" lon="1.87074">
        <ele>229.2</ele>
        <time>2023-05-27T09:27:59Z</time>
      </trkpt>
      <trkpt lat="43.38901" lon="1.87072">
        <ele>229.2</ele>
        <time>2023-05-27T09:28:00Z</time>
      </trkpt>
      <trkpt lat="43.38903" lon="1.8707">
        <ele>229.2</ele>
        <time>2023-05-27T09:28:01Z</time>
      </trkpt>
      <trkpt lat="43.38904" lon="1.87069">
        <ele>229.2</ele>
        <time>2023-05-27T09:28:02Z</time>
      </trkpt>
      <trkpt lat="43.38906" lon="1.87068">
        <ele>229.2</ele>
        <time>2023-05-27T09:28:03Z</time>
      </trkpt>
      <trkpt lat="43.38908" lon="1.87067">
        <ele>229.4</ele>
        <time>2023-05-27T09:28:04Z</time>
      </trkpt>
      <trkpt lat="43.3891" lon="1.87066">
        <ele>229.4</ele>
        <time>2023-05-27T09:28:05Z</time>
      </trkpt>
      <trkpt lat="43.38912" lon="1.87065">
        <ele>229.4</ele>
        <time>2023-05-27T09:28:06Z</time>
      </trkpt>
      <trkpt lat="43.38915" lon="1.87065">
        <ele>229.4</ele>
        <time>2023-05-27T09:28:07Z</time>
      </trkpt>
      <trkpt lat="43.38917" lon="1.87065">
        <ele>229.2</ele>
        <time>2023-05-27T09:28:08Z</time>
      </trkpt>
      <trkpt lat="43.38918" lon="1.87065">
        <ele>229.2</ele>
        <time>2023-05-27T09:28:09Z</time>
      </trkpt>
      <trkpt lat="43.38919" lon="1.87065">
        <ele>229.2</ele>
        <time>2023-05-27T09:28:10Z</time>
      </trkpt>
      <trkpt lat="43.38921" lon="1.87067">
        <ele>229.2</ele>
        <time>2023-05-27T09:28:11Z</time>
      </trkpt>
      <trkpt lat="43.38922" lon="1.87068">
        <ele>229.2</ele>
        <time>2023-05-27T09:28:12Z</time>
      </trkpt>
      <trkpt lat="43.38924" lon="1.87069">
        <ele>229.2</ele>
        <time>2023-05-27T09:28:13Z</time>
      </trkpt>
      <trkpt lat="43.38926" lon="1.87071">
        <ele>229.2</ele>
        <time>2023-05-27T09:28:14Z</time>
      </trkpt>
      <trkpt lat="43.38929" lon="1.87072">
        <ele>229.2</ele>
        <time>2023-05-27T09:28:15Z</time>
      </trkpt>
      <trkpt lat="43.38931" lon="1.87074">
        <ele>229.2</ele>
        <time>2023-05-27T09:28:16Z</time>
      </trkpt>
      <trkpt lat="43.38933" lon="1.87076">
        <ele>229.2</ele>
        <time>2023-05-27T09:28:17Z</time>
      </trkpt>
      <trkpt lat="43.38935" lon="1.87077">
        <ele>229</ele>
        <time>2023-05-27T09:28:18Z</time>
      </trkpt>
      <trkpt lat="43.38937" lon="1.87078">
        <ele>229</ele>
        <time>2023-05-27T09:28:19Z</time>
      </trkpt>
      <trkpt lat="43.38939" lon="1.8708">
        <ele>229</ele>
        <time>2023-05-27T09:28:20Z</time>
      </trkpt>
      <trkpt lat="43.38942" lon="1.87081">
        <ele>229.2</ele>
        <time>2023-05-27T09:28:21Z</time>
      </trkpt>
      <trkpt lat="43.38944" lon="1.87083">
        <ele>229.2</ele>
        <time>2023-05-27T09:28:22Z</time>
      </trkpt>
      <trkpt lat="43.38946" lon="1.87084">
        <ele>229.2</ele>
        <time>2023-05-27T09:28:23Z</time>
      </trkpt>
      <trkpt lat="43.38949" lon="1.87086">
        <ele>229.2</ele>
        <time>2023-05-27T09:28:24Z</time>
      </trkpt>
      <trkpt lat="43.38951" lon="1.87087">
        <ele>229</ele>
        <time>2023-05-27T09:28:25Z</time>
      </trkpt>
      <trkpt lat="43.38954" lon="1.87089">
        <ele>229</ele>
        <time>2023-05-27T09:28:26Z</time>
      </trkpt>
      <trkpt lat="43.38957" lon="1.8709">
        <ele>229</ele>
        <time>2023-05-27T09:28:27Z</time>
      </trkpt>
      <trkpt lat="43.38959" lon="1.87092">
        <ele>229</ele>
        <time>2023-05-27T09:28:28Z</time>
      </trkpt>
      <trkpt lat="43.38962" lon="1.87094">
        <ele>229</ele>
        <time>2023-05-27T09:28:29Z</time>
      </trkpt>
      <trkpt lat="43.38965" lon="1.87096">
        <ele>229</ele>
        <time>2023-05-27T09:28:30Z</time>
      </trkpt>
      <trkpt lat="43.38968" lon="1.87097">
        <ele>229</ele>
        <time>2023-05-27T09:28:31Z</time>
      </trkpt>
      <trkpt lat="43.38971" lon="1.87099">
        <ele>229</ele>
        <time>2023-05-27T09:28:32Z</time>
      </trkpt>
      <trkpt lat="43.38974" lon="1.87101">
        <ele>229</ele>
        <time>2023-05-27T09:28:33Z</time>
      </trkpt>
      <trkpt lat="43.38978" lon="1.87103">
        <ele>229</ele>
        <time>2023-05-27T09:28:34Z</time>
      </trkpt>
      <trkpt lat="43.38982" lon="1.87104">
        <ele>229</ele>
        <time>2023-05-27T09:28:35Z</time>
      </trkpt>
      <trkpt lat="43.38985" lon="1.87105">
        <ele>229</ele>
        <time>2023-05-27T09:28:36Z</time>
      </trkpt>
      <trkpt lat="43.38989" lon="1.87106">
        <ele>229</ele>
        <time>2023-05-27T09:28:37Z</time>
      </trkpt>
      <trkpt lat="43.38993" lon="1.87106">
        <ele>229</ele>
        <time>2023-05-27T09:28:38Z</time>
      </trkpt>
      <trkpt lat="43.38997" lon="1.87106">
        <ele>229</ele>
        <time>2023-05-27T09:28:39Z</time>
      </trkpt>
      <trkpt lat="43.39" lon="1.87103">
        <ele>229</ele>
        <time>2023-05-27T09:28:40Z</time>
      </trkpt>
      <trkpt lat="43.39003" lon="1.871">
        <ele>229</ele>
        <time>2023-05-27T09:28:41Z</time>
      </trkpt>
      <trkpt lat="43.39006" lon="1.87096">
        <ele>229</ele>
        <time>2023-05-27T09:28:42Z</time>
      </trkpt>
      <trkpt lat="43.39009" lon="1.87093">
        <ele>229</ele>
        <time>2023-05-27T09:28:43Z</time>
      </trkpt>
      <trkpt lat="43.39011" lon="1.8709">
        <ele>229</ele>
        <time>2023-05-27T09:28:44Z</time>
      </trkpt>
      <trkpt lat="43.39013" lon="1.87087">
        <ele>229</ele>
        <time>2023-05-27T09:28:45Z</time>
      </trkpt>
      <trkpt lat="43.39015" lon="1.87083">
        <ele>229.2</ele>
        <time>2023-05-27T09:28:46Z</time>
      </trkpt>
      <trkpt lat="43.39017" lon="1.8708">
        <ele>229.2</ele>
        <time>2023-05-27T09:28:47Z</time>
      </trkpt>
      <trkpt lat="43.39018" lon="1.87077">
        <ele>229.2</ele>
        <time>2023-05-27T09:28:48Z</time>
      </trkpt>
      <trkpt lat="43.3902" lon="1.87074">
        <ele>229.2</ele>
        <time>2023-05-27T09:28:49Z</time>
      </trkpt>
      <trkpt lat="43.39022" lon="1.8707">
        <ele>229.2</ele>
        <time>2023-05-27T09:28:50Z</time>
      </trkpt>
      <trkpt lat="43.39024" lon="1.87066">
        <ele>229.2</ele>
        <time>2023-05-27T09:28:51Z</time>
      </trkpt>
      <trkpt lat="43.39026" lon="1.87063">
        <ele>229.2</ele>
        <time>2023-05-27T09:28:52Z</time>
      </trkpt>
      <trkpt lat="43.39027" lon="1.8706">
        <ele>229.2</ele>
        <time>2023-05-27T09:28:53Z</time>
      </trkpt>
      <trkpt lat="43.39028" lon="1.87057">
        <ele>229.2</ele>
        <time>2023-05-27T09:28:54Z</time>
      </trkpt>
      <trkpt lat="43.39029" lon="1.87054">
        <ele>229.2</ele>
        <time>2023-05-27T09:28:55Z</time>
      </trkpt>
      <trkpt lat="43.3903" lon="1.87051">
        <ele>229.2</ele>
        <time>2023-05-27T09:28:56Z</time>
      </trkpt>
      <trkpt lat="43.39031" lon="1.87048">
        <ele>229.2</ele>
        <time>2023-05-27T09:28:57Z</time>
      </trkpt>
      <trkpt lat="43.39033" lon="1.87045">
        <ele>229.2</ele>
        <time>2023-05-27T09:28:58Z</time>
      </trkpt>
      <trkpt lat="43.39034" lon="1.87041">
        <ele>229.2</ele>
        <time>2023-05-27T09:28:59Z</time>
      </trkpt>
      <trkpt lat="43.39035" lon="1.87039">
        <ele>229.2</ele>
        <time>2023-05-27T09:29:00Z</time>
      </trkpt>
      <trkpt lat="43.39037" lon="1.87036">
        <ele>229.2</ele>
        <time>2023-05-27T09:29:01Z</time>
      </trkpt>
      <trkpt lat="43.39038" lon="1.87034">
        <ele>229.2</ele>
        <time>2023-05-27T09:29:02Z</time>
      </trkpt>
      <trkpt lat="43.3904" lon="1.8703">
        <ele>229.2</ele>
        <time>2023-05-27T09:29:03Z</time>
      </trkpt>
      <trkpt lat="43.39042" lon="1.87027">
        <ele>229.2</ele>
        <time>2023-05-27T09:29:04Z</time>
      </trkpt>
      <trkpt lat="43.39044" lon="1.87024">
        <ele>229.2</ele>
        <time>2023-05-27T09:29:05Z</time>
      </trkpt>
      <trkpt lat="43.39045" lon="1.87021">
        <ele>229.2</ele>
        <time>2023-05-27T09:29:06Z</time>
      </trkpt>
      <trkpt lat="43.39047" lon="1.87017">
        <ele>229.2</ele>
        <time>2023-05-27T09:29:07Z</time>
      </trkpt>
      <trkpt lat="43.39049" lon="1.87013">
        <ele>229.2</ele>
        <time>2023-05-27T09:29:08Z</time>
      </trkpt>
      <trkpt lat="43.3905" lon="1.87009">
        <ele>229.2</ele>
        <time>2023-05-27T09:29:09Z</time>
      </trkpt>
      <trkpt lat="43.39051" lon="1.87005">
        <ele>229.2</ele>
        <time>2023-05-27T09:29:10Z</time>
      </trkpt>
      <trkpt lat="43.39052" lon="1.87001">
        <ele>229.2</ele>
        <time>2023-05-27T09:29:11Z</time>
      </trkpt>
      <trkpt lat="43.39053" lon="1.86997">
        <ele>229.2</ele>
        <time>2023-05-27T09:29:12Z</time>
      </trkpt>
      <trkpt lat="43.39054" lon="1.86993">
        <ele>229.2</ele>
        <time>2023-05-27T09:29:13Z</time>
      </trkpt>
      <trkpt lat="43.39055" lon="1.86988">
        <ele>229.2</ele>
        <time>2023-05-27T09:29:14Z</time>
      </trkpt>
      <trkpt lat="43.39057" lon="1.86983">
        <ele>229.2</ele>
        <time>2023-05-27T09:29:15Z</time>
      </trkpt>
      <trkpt lat="43.39059" lon="1.86979">
        <ele>229.2</ele>
        <time>2023-05-27T09:29:16Z</time>
      </trkpt>
      <trkpt lat="43.3906" lon="1.86973">
        <ele>229</ele>
        <time>2023-05-27T09:29:17Z</time>
      </trkpt>
      <trkpt lat="43.39063" lon="1.86968">
        <ele>229</ele>
        <time>2023-05-27T09:29:18Z</time>
      </trkpt>
      <trkpt lat="43.39067" lon="1.86964">
        <ele>229</ele>
        <time>2023-05-27T09:29:19Z</time>
      </trkpt>
      <trkpt lat="43.39071" lon="1.86959">
        <ele>229</ele>
        <time>2023-05-27T09:29:20Z</time>
      </trkpt>
      <trkpt lat="43.39075" lon="1.86954">
        <ele>229</ele>
        <time>2023-05-27T09:29:21Z</time>
      </trkpt>
      <trkpt lat="43.39079" lon="1.8695">
        <ele>229</ele>
        <time>2023-05-27T09:29:22Z</time>
      </trkpt>
      <trkpt lat="43.39082" lon="1.86946">
        <ele>229</ele>
        <time>2023-05-27T09:29:23Z</time>
      </trkpt>
      <trkpt lat="43.39086" lon="1.86942">
        <ele>229</ele>
        <time>2023-05-27T09:29:24Z</time>
      </trkpt>
      <trkpt lat="43.39088" lon="1.86938">
        <ele>229</ele>
        <time>2023-05-27T09:29:25Z</time>
      </trkpt>
      <trkpt lat="43.3909" lon="1.86935">
        <ele>229</ele>
        <time>2023-05-27T09:29:26Z</time>
      </trkpt>
      <trkpt lat="43.39094" lon="1.86931">
        <ele>229</ele>
        <time>2023-05-27T09:29:27Z</time>
      </trkpt>
      <trkpt lat="43.39097" lon="1.86928">
        <ele>229</ele>
        <time>2023-05-27T09:29:28Z</time>
      </trkpt>
      <trkpt lat="43.39099" lon="1.86924">
        <ele>229</ele>
        <time>2023-05-27T09:29:29Z</time>
      </trkpt>
      <trkpt lat="43.39103" lon="1.8692">
        <ele>229</ele>
        <time>2023-05-27T09:29:30Z</time>
      </trkpt>
      <trkpt lat="43.39106" lon="1.86916">
        <ele>229</ele>
        <time>2023-05-27T09:29:31Z</time>
      </trkpt>
      <trkpt lat="43.39107" lon="1.86913">
        <ele>229</ele>
        <time>2023-05-27T09:29:32Z</time>
      </trkpt>
      <trkpt lat="43.39108" lon="1.8691">
        <ele>229</ele>
        <time>2023-05-27T09:29:33Z</time>
      </trkpt>
      <trkpt lat="43.39108" lon="1.86907">
        <ele>229</ele>
        <time>2023-05-27T09:29:34Z</time>
      </trkpt>
      <trkpt lat="43.39109" lon="1.86903">
        <ele>229</ele>
        <time>2023-05-27T09:29:35Z</time>
      </trkpt>
      <trkpt lat="43.3911" lon="1.869">
        <ele>229</ele>
        <time>2023-05-27T09:29:36Z</time>
      </trkpt>
      <trkpt lat="43.39114" lon="1.86896">
        <ele>229</ele>
        <time>2023-05-27T09:29:37Z</time>
      </trkpt>
      <trkpt lat="43.39117" lon="1.86891">
        <ele>229</ele>
        <time>2023-05-27T09:29:38Z</time>
      </trkpt>
      <trkpt lat="43.39121" lon="1.86886">
        <ele>229</ele>
        <time>2023-05-27T09:29:39Z</time>
      </trkpt>
      <trkpt lat="43.39123" lon="1.86882">
        <ele>229.2</ele>
        <time>2023-05-27T09:29:40Z</time>
      </trkpt>
      <trkpt lat="43.39125" lon="1.86879">
        <ele>229.2</ele>
        <time>2023-05-27T09:29:41Z</time>
      </trkpt>
      <trkpt lat="43.39127" lon="1.86876">
        <ele>229.2</ele>
        <time>2023-05-27T09:29:42Z</time>
      </trkpt>
      <trkpt lat="43.39129" lon="1.86874">
        <ele>229.2</ele>
        <time>2023-05-27T09:29:43Z</time>
      </trkpt>
      <trkpt lat="43.39131" lon="1.86872">
        <ele>229.2</ele>
        <time>2023-05-27T09:29:44Z</time>
      </trkpt>
      <trkpt lat="43.39134" lon="1.86868">
        <ele>229.4</ele>
        <time>2023-05-27T09:29:45Z</time>
      </trkpt>
      <trkpt lat="43.39138" lon="1.86865">
        <ele>229.4</ele>
        <time>2023-05-27T09:29:46Z</time>
      </trkpt>
      <trkpt lat="43.39141" lon="1.86864">
        <ele>229.4</ele>
        <time>2023-05-27T09:29:47Z</time>
      </trkpt>
      <trkpt lat="43.39144" lon="1.86865">
        <ele>229.4</ele>
        <time>2023-05-27T09:29:48Z</time>
      </trkpt>
      <trkpt lat="43.39147" lon="1.86866">
        <ele>229.4</ele>
        <time>2023-05-27T09:29:49Z</time>
      </trkpt>
      <trkpt lat="43.3915" lon="1.8687">
        <ele>229.4</ele>
        <time>2023-05-27T09:29:50Z</time>
      </trkpt>
      <trkpt lat="43.39152" lon="1.86875">
        <ele>229.4</ele>
        <time>2023-05-27T09:29:51Z</time>
      </trkpt>
      <trkpt lat="43.39153" lon="1.8688">
        <ele>229.4</ele>
        <time>2023-05-27T09:29:52Z</time>
      </trkpt>
      <trkpt lat="43.39154" lon="1.86884">
        <ele>229.4</ele>
        <time>2023-05-27T09:29:53Z</time>
      </trkpt>
      <trkpt lat="43.39154" lon="1.86887">
        <ele>229.4</ele>
        <time>2023-05-27T09:29:54Z</time>
      </trkpt>
      <trkpt lat="43.39153" lon="1.86891">
        <ele>229.4</ele>
        <time>2023-05-27T09:29:55Z</time>
      </trkpt>
      <trkpt lat="43.39152" lon="1.86894">
        <ele>229.4</ele>
        <time>2023-05-27T09:29:56Z</time>
      </trkpt>
      <trkpt lat="43.39152" lon="1.86897">
        <ele>229.4</ele>
        <time>2023-05-27T09:29:57Z</time>
      </trkpt>
      <trkpt lat="43.39152" lon="1.869">
        <ele>229.4</ele>
        <time>2023-05-27T09:29:58Z</time>
      </trkpt>
      <trkpt lat="43.39151" lon="1.86903">
        <ele>229.4</ele>
        <time>2023-05-27T09:29:59Z</time>
      </trkpt>
      <trkpt lat="43.3915" lon="1.86907">
        <ele>229.4</ele>
        <time>2023-05-27T09:30:00Z</time>
      </trkpt>
      <trkpt lat="43.3915" lon="1.8691">
        <ele>229.4</ele>
        <time>2023-05-27T09:30:01Z</time>
      </trkpt>
      <trkpt lat="43.3915" lon="1.86913">
        <ele>229.4</ele>
        <time>2023-05-27T09:30:02Z</time>
      </trkpt>
      <trkpt lat="43.39149" lon="1.86916">
        <ele>229.4</ele>
        <time>2023-05-27T09:30:03Z</time>
      </trkpt>
      <trkpt lat="43.39149" lon="1.86918">
        <ele>229.4</ele>
        <time>2023-05-27T09:30:04Z</time>
      </trkpt>
      <trkpt lat="43.39148" lon="1.86921">
        <ele>229.4</ele>
        <time>2023-05-27T09:30:05Z</time>
      </trkpt>
      <trkpt lat="43.39148" lon="1.86924">
        <ele>229.4</ele>
        <time>2023-05-27T09:30:06Z</time>
      </trkpt>
      <trkpt lat="43.39147" lon="1.86927">
        <ele>229.4</ele>
        <time>2023-05-27T09:30:07Z</time>
      </trkpt>
      <trkpt lat="43.39145" lon="1.86931">
        <ele>229.4</ele>
        <time>2023-05-27T09:30:08Z</time>
      </trkpt>
      <trkpt lat="43.39144" lon="1.86936">
        <ele>229.4</ele>
        <time>2023-05-27T09:30:09Z</time>
      </trkpt>
      <trkpt lat="43.39143" lon="1.8694">
        <ele>229.4</ele>
        <time>2023-05-27T09:30:10Z</time>
      </trkpt>
      <trkpt lat="43.39142" lon="1.86944">
        <ele>229.4</ele>
        <time>2023-05-27T09:30:11Z</time>
      </trkpt>
      <trkpt lat="43.39142" lon="1.86947">
        <ele>229.4</ele>
        <time>2023-05-27T09:30:12Z</time>
      </trkpt>
      <trkpt lat="43.39141" lon="1.86952">
        <ele>229.4</ele>
        <time>2023-05-27T09:30:13Z</time>
      </trkpt>
      <trkpt lat="43.3914" lon="1.86957">
        <ele>229.6</ele>
        <time>2023-05-27T09:30:14Z</time>
      </trkpt>
      <trkpt lat="43.39139" lon="1.86961">
        <ele>229.6</ele>
        <time>2023-05-27T09:30:15Z</time>
      </trkpt>
      <trkpt lat="43.39139" lon="1.86965">
        <ele>229.6</ele>
        <time>2023-05-27T09:30:16Z</time>
      </trkpt>
      <trkpt lat="43.39137" lon="1.86969">
        <ele>229.6</ele>
        <time>2023-05-27T09:30:17Z</time>
      </trkpt>
      <trkpt lat="43.39136" lon="1.86973">
        <ele>229.6</ele>
        <time>2023-05-27T09:30:18Z</time>
      </trkpt>
      <trkpt lat="43.39136" lon="1.86977">
        <ele>229.6</ele>
        <time>2023-05-27T09:30:19Z</time>
      </trkpt>
      <trkpt lat="43.39134" lon="1.86982">
        <ele>229.6</ele>
        <time>2023-05-27T09:30:20Z</time>
      </trkpt>
      <trkpt lat="43.39134" lon="1.86986">
        <ele>229.6</ele>
        <time>2023-05-27T09:30:21Z</time>
      </trkpt>
      <trkpt lat="43.39133" lon="1.86991">
        <ele>229.6</ele>
        <time>2023-05-27T09:30:22Z</time>
      </trkpt>
      <trkpt lat="43.39133" lon="1.86996">
        <ele>229.6</ele>
        <time>2023-05-27T09:30:23Z</time>
      </trkpt>
      <trkpt lat="43.39132" lon="1.87">
        <ele>229.6</ele>
        <time>2023-05-27T09:30:24Z</time>
      </trkpt>
      <trkpt lat="43.39132" lon="1.87005">
        <ele>229.6</ele>
        <time>2023-05-27T09:30:25Z</time>
      </trkpt>
      <trkpt lat="43.39133" lon="1.87009">
        <ele>229.6</ele>
        <time>2023-05-27T09:30:26Z</time>
      </trkpt>
      <trkpt lat="43.39135" lon="1.87014">
        <ele>229.6</ele>
        <time>2023-05-27T09:30:27Z</time>
      </trkpt>
      <trkpt lat="43.39137" lon="1.8702">
        <ele>229.6</ele>
        <time>2023-05-27T09:30:28Z</time>
      </trkpt>
      <trkpt lat="43.39138" lon="1.87026">
        <ele>229.6</ele>
        <time>2023-05-27T09:30:29Z</time>
      </trkpt>
      <trkpt lat="43.39138" lon="1.87031">
        <ele>229.6</ele>
        <time>2023-05-27T09:30:30Z</time>
      </trkpt>
      <trkpt lat="43.3914" lon="1.87037">
        <ele>229.6</ele>
        <time>2023-05-27T09:30:31Z</time>
      </trkpt>
      <trkpt lat="43.39143" lon="1.87042">
        <ele>229.6</ele>
        <time>2023-05-27T09:30:32Z</time>
      </trkpt>
      <trkpt lat="43.39145" lon="1.87047">
        <ele>229.4</ele>
        <time>2023-05-27T09:30:33Z</time>
      </trkpt>
      <trkpt lat="43.39147" lon="1.87051">
        <ele>229.4</ele>
        <time>2023-05-27T09:30:34Z</time>
      </trkpt>
      <trkpt lat="43.39149" lon="1.87055">
        <ele>229.4</ele>
        <time>2023-05-27T09:30:35Z</time>
      </trkpt>
      <trkpt lat="43.39152" lon="1.87059">
        <ele>229.4</ele>
        <time>2023-05-27T09:30:36Z</time>
      </trkpt>
      <trkpt lat="43.39156" lon="1.87061">
        <ele>229.4</ele>
        <time>2023-05-27T09:30:37Z</time>
      </trkpt>
      <trkpt lat="43.39159" lon="1.87062">
        <ele>229.4</ele>
        <time>2023-05-27T09:30:38Z</time>
      </trkpt>
      <trkpt lat="43.39161" lon="1.87064">
        <ele>229.4</ele>
        <time>2023-05-27T09:30:39Z</time>
      </trkpt>
      <trkpt lat="43.39163" lon="1.87066">
        <ele>229.4</ele>
        <time>2023-05-27T09:30:40Z</time>
      </trkpt>
      <trkpt lat="43.39166" lon="1.87067">
        <ele>229.4</ele>
        <time>2023-05-27T09:30:41Z</time>
      </trkpt>
      <trkpt lat="43.39169" lon="1.87069">
        <ele>229.4</ele>
        <time>2023-05-27T09:30:42Z</time>
      </trkpt>
      <trkpt lat="43.39171" lon="1.8707">
        <ele>229.4</ele>
        <time>2023-05-27T09:30:43Z</time>
      </trkpt>
      <trkpt lat="43.39174" lon="1.87071">
        <ele>229.6</ele>
        <time>2023-05-27T09:30:44Z</time>
      </trkpt>
      <trkpt lat="43.39176" lon="1.87072">
        <ele>229.6</ele>
        <time>2023-05-27T09:30:45Z</time>
      </trkpt>
      <trkpt lat="43.39179" lon="1.87073">
        <ele>229.4</ele>
        <time>2023-05-27T09:30:46Z</time>
      </trkpt>
      <trkpt lat="43.39182" lon="1.87072">
        <ele>229.4</ele>
        <time>2023-05-27T09:30:47Z</time>
      </trkpt>
      <trkpt lat="43.39185" lon="1.87071">
        <ele>229.4</ele>
        <time>2023-05-27T09:30:48Z</time>
      </trkpt>
      <trkpt lat="43.39188" lon="1.87069">
        <ele>229.4</ele>
        <time>2023-05-27T09:30:49Z</time>
      </trkpt>
      <trkpt lat="43.3919" lon="1.87067">
        <ele>229.4</ele>
        <time>2023-05-27T09:30:50Z</time>
      </trkpt>
      <trkpt lat="43.39193" lon="1.87066">
        <ele>229.4</ele>
        <time>2023-05-27T09:30:51Z</time>
      </trkpt>
      <trkpt lat="43.39194" lon="1.87064">
        <ele>229.4</ele>
        <time>2023-05-27T09:30:52Z</time>
      </trkpt>
      <trkpt lat="43.39197" lon="1.87063">
        <ele>229.4</ele>
        <time>2023-05-27T09:30:53Z</time>
      </trkpt>
      <trkpt lat="43.39199" lon="1.87061">
        <ele>229.4</ele>
        <time>2023-05-27T09:30:54Z</time>
      </trkpt>
      <trkpt lat="43.39201" lon="1.87058">
        <ele>229.4</ele>
        <time>2023-05-27T09:30:55Z</time>
      </trkpt>
      <trkpt lat="43.39204" lon="1.87056">
        <ele>229.6</ele>
        <time>2023-05-27T09:30:56Z</time>
      </trkpt>
      <trkpt lat="43.39207" lon="1.87053">
        <ele>229.4</ele>
        <time>2023-05-27T09:30:57Z</time>
      </trkpt>
      <trkpt lat="43.3921" lon="1.87052">
        <ele>229.4</ele>
        <time>2023-05-27T09:30:58Z</time>
      </trkpt>
      <trkpt lat="43.39212" lon="1.87051">
        <ele>229.4</ele>
        <time>2023-05-27T09:30:59Z</time>
      </trkpt>
      <trkpt lat="43.39215" lon="1.8705">
        <ele>229.4</ele>
        <time>2023-05-27T09:31:00Z</time>
      </trkpt>
      <trkpt lat="43.39217" lon="1.8705">
        <ele>229.4</ele>
        <time>2023-05-27T09:31:01Z</time>
      </trkpt>
      <trkpt lat="43.3922" lon="1.8705">
        <ele>229.4</ele>
        <time>2023-05-27T09:31:02Z</time>
      </trkpt>
      <trkpt lat="43.39222" lon="1.8705">
        <ele>229.4</ele>
        <time>2023-05-27T09:31:03Z</time>
      </trkpt>
      <trkpt lat="43.39225" lon="1.87052">
        <ele>229.4</ele>
        <time>2023-05-27T09:31:04Z</time>
      </trkpt>
      <trkpt lat="43.39228" lon="1.87056">
        <ele>229.4</ele>
        <time>2023-05-27T09:31:05Z</time>
      </trkpt>
      <trkpt lat="43.3923" lon="1.87059">
        <ele>229.4</ele>
        <time>2023-05-27T09:31:06Z</time>
      </trkpt>
      <trkpt lat="43.39233" lon="1.87063">
        <ele>229.4</ele>
        <time>2023-05-27T09:31:07Z</time>
      </trkpt>
      <trkpt lat="43.39235" lon="1.87066">
        <ele>229.4</ele>
        <time>2023-05-27T09:31:08Z</time>
      </trkpt>
      <trkpt lat="43.39236" lon="1.87068">
        <ele>229.2</ele>
        <time>2023-05-27T09:31:09Z</time>
      </trkpt>
      <trkpt lat="43.39236" lon="1.87071">
        <ele>229.2</ele>
        <time>2023-05-27T09:31:10Z</time>
      </trkpt>
      <trkpt lat="43.39236" lon="1.87073">
        <ele>229.2</ele>
        <time>2023-05-27T09:31:11Z</time>
      </trkpt>
      <trkpt lat="43.39236" lon="1.87075">
        <ele>229.2</ele>
        <time>2023-05-27T09:31:12Z</time>
      </trkpt>
      <trkpt lat="43.39236" lon="1.87078">
        <ele>229.4</ele>
        <time>2023-05-27T09:31:13Z</time>
      </trkpt>
      <trkpt lat="43.39236" lon="1.87082">
        <ele>229.2</ele>
        <time>2023-05-27T09:31:14Z</time>
      </trkpt>
      <trkpt lat="43.39237" lon="1.87086">
        <ele>229.2</ele>
        <time>2023-05-27T09:31:15Z</time>
      </trkpt>
      <trkpt lat="43.39238" lon="1.8709">
        <ele>229.2</ele>
        <time>2023-05-27T09:31:16Z</time>
      </trkpt>
      <trkpt lat="43.39238" lon="1.87095">
        <ele>229.4</ele>
        <time>2023-05-27T09:31:17Z</time>
      </trkpt>
      <trkpt lat="43.39239" lon="1.87099">
        <ele>229.4</ele>
        <time>2023-05-27T09:31:18Z</time>
      </trkpt>
      <trkpt lat="43.39239" lon="1.87103">
        <ele>229.2</ele>
        <time>2023-05-27T09:31:19Z</time>
      </trkpt>
      <trkpt lat="43.39239" lon="1.87107">
        <ele>229.4</ele>
        <time>2023-05-27T09:31:20Z</time>
      </trkpt>
      <trkpt lat="43.39239" lon="1.8711">
        <ele>229.4</ele>
        <time>2023-05-27T09:31:21Z</time>
      </trkpt>
      <trkpt lat="43.39239" lon="1.87114">
        <ele>229.4</ele>
        <time>2023-05-27T09:31:22Z</time>
      </trkpt>
      <trkpt lat="43.3924" lon="1.87119">
        <ele>229.4</ele>
        <time>2023-05-27T09:31:23Z</time>
      </trkpt>
      <trkpt lat="43.39241" lon="1.87125">
        <ele>229.4</ele>
        <time>2023-05-27T09:31:24Z</time>
      </trkpt>
      <trkpt lat="43.39242" lon="1.87129">
        <ele>229.4</ele>
        <time>2023-05-27T09:31:25Z</time>
      </trkpt>
      <trkpt lat="43.39242" lon="1.87133">
        <ele>229.4</ele>
        <time>2023-05-27T09:31:26Z</time>
      </trkpt>
      <trkpt lat="43.39243" lon="1.87136">
        <ele>229.4</ele>
        <time>2023-05-27T09:31:27Z</time>
      </trkpt>
      <trkpt lat="43.39244" lon="1.8714">
        <ele>229.2</ele>
        <time>2023-05-27T09:31:28Z</time>
      </trkpt>
      <trkpt lat="43.39245" lon="1.87144">
        <ele>229.2</ele>
        <time>2023-05-27T09:31:29Z</time>
      </trkpt>
      <trkpt lat="43.39247" lon="1.8715">
        <ele>229.4</ele>
        <time>2023-05-27T09:31:30Z</time>
      </trkpt>
      <trkpt lat="43.39249" lon="1.87154">
        <ele>229.4</ele>
        <time>2023-05-27T09:31:31Z</time>
      </trkpt>
      <trkpt lat="43.39251" lon="1.87158">
        <ele>229.4</ele>
        <time>2023-05-27T09:31:32Z</time>
      </trkpt>
      <trkpt lat="43.3925" lon="1.87162">
        <ele>229.4</ele>
        <time>2023-05-27T09:31:33Z</time>
      </trkpt>
      <trkpt lat="43.3925" lon="1.87167">
        <ele>229.4</ele>
        <time>2023-05-27T09:31:34Z</time>
      </trkpt>
      <trkpt lat="43.39252" lon="1.87173">
        <ele>229.4</ele>
        <time>2023-05-27T09:31:35Z</time>
      </trkpt>
      <trkpt lat="43.39254" lon="1.87179">
        <ele>229.2</ele>
        <time>2023-05-27T09:31:36Z</time>
      </trkpt>
      <trkpt lat="43.39256" lon="1.87183">
        <ele>229.2</ele>
        <time>2023-05-27T09:31:37Z</time>
      </trkpt>
      <trkpt lat="43.39258" lon="1.87185">
        <ele>229.2</ele>
        <time>2023-05-27T09:31:38Z</time>
      </trkpt>
      <trkpt lat="43.39261" lon="1.87188">
        <ele>229.2</ele>
        <time>2023-05-27T09:31:39Z</time>
      </trkpt>
      <trkpt lat="43.39263" lon="1.87192">
        <ele>229.2</ele>
        <time>2023-05-27T09:31:40Z</time>
      </trkpt>
      <trkpt lat="43.39264" lon="1.87197">
        <ele>229.2</ele>
        <time>2023-05-27T09:31:41Z</time>
      </trkpt>
      <trkpt lat="43.39267" lon="1.872">
        <ele>229.2</ele>
        <time>2023-05-27T09:31:42Z</time>
      </trkpt>
      <trkpt lat="43.3927" lon="1.87203">
        <ele>229.2</ele>
        <time>2023-05-27T09:31:43Z</time>
      </trkpt>
      <trkpt lat="43.39272" lon="1.87204">
        <ele>229.2</ele>
        <time>2023-05-27T09:31:44Z</time>
      </trkpt>
      <trkpt lat="43.39275" lon="1.87205">
        <ele>229.2</ele>
        <time>2023-05-27T09:31:45Z</time>
      </trkpt>
      <trkpt lat="43.39279" lon="1.87207">
        <ele>229.2</ele>
        <time>2023-05-27T09:31:46Z</time>
      </trkpt>
      <trkpt lat="43.39283" lon="1.87207">
        <ele>229.2</ele>
        <time>2023-05-27T09:31:47Z</time>
      </trkpt>
      <trkpt lat="43.39285" lon="1.87207">
        <ele>229.2</ele>
        <time>2023-05-27T09:31:48Z</time>
      </trkpt>
      <trkpt lat="43.39288" lon="1.87208">
        <ele>229.2</ele>
        <time>2023-05-27T09:31:49Z</time>
      </trkpt>
      <trkpt lat="43.3929" lon="1.87208">
        <ele>229.2</ele>
        <time>2023-05-27T09:31:50Z</time>
      </trkpt>
      <trkpt lat="43.39293" lon="1.87208">
        <ele>229.2</ele>
        <time>2023-05-27T09:31:51Z</time>
      </trkpt>
      <trkpt lat="43.39296" lon="1.87207">
        <ele>229.2</ele>
        <time>2023-05-27T09:31:52Z</time>
      </trkpt>
      <trkpt lat="43.393" lon="1.87206">
        <ele>229.2</ele>
        <time>2023-05-27T09:31:53Z</time>
      </trkpt>
      <trkpt lat="43.39303" lon="1.87204">
        <ele>229.2</ele>
        <time>2023-05-27T09:31:54Z</time>
      </trkpt>
      <trkpt lat="43.39306" lon="1.87202">
        <ele>229.2</ele>
        <time>2023-05-27T09:31:55Z</time>
      </trkpt>
      <trkpt lat="43.39309" lon="1.87199">
        <ele>229.2</ele>
        <time>2023-05-27T09:31:56Z</time>
      </trkpt>
      <trkpt lat="43.39312" lon="1.87195">
        <ele>229.2</ele>
        <time>2023-05-27T09:31:57Z</time>
      </trkpt>
      <trkpt lat="43.39315" lon="1.87193">
        <ele>229.2</ele>
        <time>2023-05-27T09:31:58Z</time>
      </trkpt>
      <trkpt lat="43.39317" lon="1.87191">
        <ele>229.2</ele>
        <time>2023-05-27T09:31:59Z</time>
      </trkpt>
      <trkpt lat="43.39321" lon="1.87187">
        <ele>229.2</ele>
        <time>2023-05-27T09:32:00Z</time>
      </trkpt>
      <trkpt lat="43.39324" lon="1.87186">
        <ele>229.2</ele>
        <time>2023-05-27T09:32:01Z</time>
      </trkpt>
      <trkpt lat="43.39326" lon="1.87186">
        <ele>229.4</ele>
        <time>2023-05-27T09:32:02Z</time>
      </trkpt>
      <trkpt lat="43.39329" lon="1.87183">
        <ele>229.4</ele>
        <time>2023-05-27T09:32:03Z</time>
      </trkpt>
      <trkpt lat="43.39332" lon="1.87181">
        <ele>229.4</ele>
        <time>2023-05-27T09:32:04Z</time>
      </trkpt>
      <trkpt lat="43.39334" lon="1.87179">
        <ele>229.4</ele>
        <time>2023-05-27T09:32:05Z</time>
      </trkpt>
      <trkpt lat="43.39336" lon="1.87179">
        <ele>229.4</ele>
        <time>2023-05-27T09:32:06Z</time>
      </trkpt>
      <trkpt lat="43.39338" lon="1.87179">
        <ele>229.4</ele>
        <time>2023-05-27T09:32:07Z</time>
      </trkpt>
      <trkpt lat="43.39341" lon="1.8718">
        <ele>229.4</ele>
        <time>2023-05-27T09:32:08Z</time>
      </trkpt>
      <trkpt lat="43.39345" lon="1.8718">
        <ele>229.4</ele>
        <time>2023-05-27T09:32:09Z</time>
      </trkpt>
      <trkpt lat="43.39349" lon="1.87181">
        <ele>229.4</ele>
        <time>2023-05-27T09:32:10Z</time>
      </trkpt>
      <trkpt lat="43.39352" lon="1.87183">
        <ele>229.4</ele>
        <time>2023-05-27T09:32:11Z</time>
      </trkpt>
      <trkpt lat="43.39354" lon="1.87185">
        <ele>229.4</ele>
        <time>2023-05-27T09:32:12Z</time>
      </trkpt>
      <trkpt lat="43.39357" lon="1.87188">
        <ele>229.4</ele>
        <time>2023-05-27T09:32:13Z</time>
      </trkpt>
      <trkpt lat="43.39359" lon="1.8719">
        <ele>229.4</ele>
        <time>2023-05-27T09:32:14Z</time>
      </trkpt>
      <trkpt lat="43.3936" lon="1.87193">
        <ele>229.4</ele>
        <time>2023-05-27T09:32:15Z</time>
      </trkpt>
      <trkpt lat="43.39362" lon="1.87196">
        <ele>229.4</ele>
        <time>2023-05-27T09:32:16Z</time>
      </trkpt>
      <trkpt lat="43.39363" lon="1.872">
        <ele>229.2</ele>
        <time>2023-05-27T09:32:17Z</time>
      </trkpt>
      <trkpt lat="43.39364" lon="1.87204">
        <ele>229.2</ele>
        <time>2023-05-27T09:32:18Z</time>
      </trkpt>
      <trkpt lat="43.39365" lon="1.87208">
        <ele>229.2</ele>
        <time>2023-05-27T09:32:19Z</time>
      </trkpt>
      <trkpt lat="43.39366" lon="1.87212">
        <ele>229.2</ele>
        <time>2023-05-27T09:32:20Z</time>
      </trkpt>
      <trkpt lat="43.39366" lon="1.87216">
        <ele>229.2</ele>
        <time>2023-05-27T09:32:21Z</time>
      </trkpt>
      <trkpt lat="43.39367" lon="1.8722">
        <ele>229.2</ele>
        <time>2023-05-27T09:32:22Z</time>
      </trkpt>
      <trkpt lat="43.39367" lon="1.87224">
        <ele>229.2</ele>
        <time>2023-05-27T09:32:23Z</time>
      </trkpt>
      <trkpt lat="43.39367" lon="1.87229">
        <ele>229.2</ele>
        <time>2023-05-27T09:32:24Z</time>
      </trkpt>
      <trkpt lat="43.39367" lon="1.87233">
        <ele>229.2</ele>
        <time>2023-05-27T09:32:25Z</time>
      </trkpt>
      <trkpt lat="43.39368" lon="1.87236">
        <ele>229.2</ele>
        <time>2023-05-27T09:32:26Z</time>
      </trkpt>
      <trkpt lat="43.39369" lon="1.8724">
        <ele>229.2</ele>
        <time>2023-05-27T09:32:27Z</time>
      </trkpt>
      <trkpt lat="43.39369" lon="1.87244">
        <ele>229.2</ele>
        <time>2023-05-27T09:32:28Z</time>
      </trkpt>
      <trkpt lat="43.39369" lon="1.87247">
        <ele>229.2</ele>
        <time>2023-05-27T09:32:29Z</time>
      </trkpt>
      <trkpt lat="43.3937" lon="1.8725">
        <ele>229.2</ele>
        <time>2023-05-27T09:32:30Z</time>
      </trkpt>
      <trkpt lat="43.39369" lon="1.87253">
        <ele>229.2</ele>
        <time>2023-05-27T09:32:31Z</time>
      </trkpt>
      <trkpt lat="43.39369" lon="1.87256">
        <ele>229.2</ele>
        <time>2023-05-27T09:32:32Z</time>
      </trkpt>
      <trkpt lat="43.39367" lon="1.87259">
        <ele>229.2</ele>
        <time>2023-05-27T09:32:33Z</time>
      </trkpt>
      <trkpt lat="43.39365" lon="1.87264">
        <ele>229.2</ele>
        <time>2023-05-27T09:32:34Z</time>
      </trkpt>
      <trkpt lat="43.39365" lon="1.87268">
        <ele>229.2</ele>
        <time>2023-05-27T09:32:35Z</time>
      </trkpt>
      <trkpt lat="43.39365" lon="1.87271">
        <ele>229.2</ele>
        <time>2023-05-27T09:32:36Z</time>
      </trkpt>
      <trkpt lat="43.39365" lon="1.87274">
        <ele>229.2</ele>
        <time>2023-05-27T09:32:37Z</time>
      </trkpt>
      <trkpt lat="43.39364" lon="1.87277">
        <ele>229.4</ele>
        <time>2023-05-27T09:32:38Z</time>
      </trkpt>
      <trkpt lat="43.39362" lon="1.87281">
        <ele>229.4</ele>
        <time>2023-05-27T09:32:39Z</time>
      </trkpt>
      <trkpt lat="43.3936" lon="1.87287">
        <ele>229.4</ele>
        <time>2023-05-27T09:32:40Z</time>
      </trkpt>
      <trkpt lat="43.39357" lon="1.87293">
        <ele>229.4</ele>
        <time>2023-05-27T09:32:41Z</time>
      </trkpt>
      <trkpt lat="43.39356" lon="1.87299">
        <ele>229.4</ele>
        <time>2023-05-27T09:32:42Z</time>
      </trkpt>
      <trkpt lat="43.39355" lon="1.87305">
        <ele>229.4</ele>
        <time>2023-05-27T09:32:43Z</time>
      </trkpt>
      <trkpt lat="43.39353" lon="1.87309">
        <ele>229.4</ele>
        <time>2023-05-27T09:32:44Z</time>
      </trkpt>
      <trkpt lat="43.39351" lon="1.87314">
        <ele>229.4</ele>
        <time>2023-05-27T09:32:45Z</time>
      </trkpt>
      <trkpt lat="43.39349" lon="1.8732">
        <ele>229.4</ele>
        <time>2023-05-27T09:32:46Z</time>
      </trkpt>
      <trkpt lat="43.39348" lon="1.87324">
        <ele>229.4</ele>
        <time>2023-05-27T09:32:47Z</time>
      </trkpt>
      <trkpt lat="43.39347" lon="1.87328">
        <ele>229.4</ele>
        <time>2023-05-27T09:32:48Z</time>
      </trkpt>
      <trkpt lat="43.39346" lon="1.87331">
        <ele>229.4</ele>
        <time>2023-05-27T09:32:49Z</time>
      </trkpt>
      <trkpt lat="43.39345" lon="1.87333">
        <ele>229.4</ele>
        <time>2023-05-27T09:32:50Z</time>
      </trkpt>
      <trkpt lat="43.39344" lon="1.87336">
        <ele>229.4</ele>
        <time>2023-05-27T09:32:51Z</time>
      </trkpt>
      <trkpt lat="43.39342" lon="1.8734">
        <ele>229.4</ele>
        <time>2023-05-27T09:32:52Z</time>
      </trkpt>
      <trkpt lat="43.39339" lon="1.87347">
        <ele>229.4</ele>
        <time>2023-05-27T09:32:53Z</time>
      </trkpt>
      <trkpt lat="43.39337" lon="1.87353">
        <ele>229.4</ele>
        <time>2023-05-27T09:32:54Z</time>
      </trkpt>
      <trkpt lat="43.39336" lon="1.87356">
        <ele>229.4</ele>
        <time>2023-05-27T09:32:55Z</time>
      </trkpt>
      <trkpt lat="43.39335" lon="1.87359">
        <ele>229.6</ele>
        <time>2023-05-27T09:32:56Z</time>
      </trkpt>
      <trkpt lat="43.39334" lon="1.87362">
        <ele>229.6</ele>
        <time>2023-05-27T09:32:57Z</time>
      </trkpt>
      <trkpt lat="43.39335" lon="1.87363">
        <ele>229.6</ele>
        <time>2023-05-27T09:32:58Z</time>
      </trkpt>
      <trkpt lat="43.39334" lon="1.87365">
        <ele>229.6</ele>
        <time>2023-05-27T09:32:59Z</time>
      </trkpt>
      <trkpt lat="43.39333" lon="1.87368">
        <ele>229.6</ele>
        <time>2023-05-27T09:33:00Z</time>
      </trkpt>
      <trkpt lat="43.39332" lon="1.87372">
        <ele>229.6</ele>
        <time>2023-05-27T09:33:01Z</time>
      </trkpt>
      <trkpt lat="43.3933" lon="1.87376">
        <ele>229.6</ele>
        <time>2023-05-27T09:33:02Z</time>
      </trkpt>
      <trkpt lat="43.39328" lon="1.8738">
        <ele>229.6</ele>
        <time>2023-05-27T09:33:03Z</time>
      </trkpt>
      <trkpt lat="43.39327" lon="1.87384">
        <ele>229.6</ele>
        <time>2023-05-27T09:33:04Z</time>
      </trkpt>
      <trkpt lat="43.39325" lon="1.87388">
        <ele>229.6</ele>
        <time>2023-05-27T09:33:05Z</time>
      </trkpt>
      <trkpt lat="43.39324" lon="1.87391">
        <ele>229.6</ele>
        <time>2023-05-27T09:33:06Z</time>
      </trkpt>
      <trkpt lat="43.39324" lon="1.87393">
        <ele>229.6</ele>
        <time>2023-05-27T09:33:07Z</time>
      </trkpt>
      <trkpt lat="43.39323" lon="1.87397">
        <ele>229.6</ele>
        <time>2023-05-27T09:33:08Z</time>
      </trkpt>
      <trkpt lat="43.39322" lon="1.87401">
        <ele>229.6</ele>
        <time>2023-05-27T09:33:09Z</time>
      </trkpt>
      <trkpt lat="43.39322" lon="1.87405">
        <ele>229.6</ele>
        <time>2023-05-27T09:33:10Z</time>
      </trkpt>
      <trkpt lat="43.39321" lon="1.87409">
        <ele>229.6</ele>
        <time>2023-05-27T09:33:11Z</time>
      </trkpt>
      <trkpt lat="43.39321" lon="1.87411">
        <ele>229.6</ele>
        <time>2023-05-27T09:33:12Z</time>
      </trkpt>
      <trkpt lat="43.39321" lon="1.87413">
        <ele>229.6</ele>
        <time>2023-05-27T09:33:13Z</time>
      </trkpt>
      <trkpt lat="43.39321" lon="1.87416">
        <ele>229.6</ele>
        <time>2023-05-27T09:33:14Z</time>
      </trkpt>
      <trkpt lat="43.39321" lon="1.8742">
        <ele>229.6</ele>
        <time>2023-05-27T09:33:15Z</time>
      </trkpt>
      <trkpt lat="43.3932" lon="1.87424">
        <ele>229.6</ele>
        <time>2023-05-27T09:33:16Z</time>
      </trkpt>
      <trkpt lat="43.3932" lon="1.87429">
        <ele>229.6</ele>
        <time>2023-05-27T09:33:17Z</time>
      </trkpt>
      <trkpt lat="43.39319" lon="1.87433">
        <ele>229.6</ele>
        <time>2023-05-27T09:33:18Z</time>
      </trkpt>
      <trkpt lat="43.39319" lon="1.87438">
        <ele>229.6</ele>
        <time>2023-05-27T09:33:19Z</time>
      </trkpt>
      <trkpt lat="43.39318" lon="1.87442">
        <ele>229.6</ele>
        <time>2023-05-27T09:33:20Z</time>
      </trkpt>
      <trkpt lat="43.39319" lon="1.87447">
        <ele>229.6</ele>
        <time>2023-05-27T09:33:21Z</time>
      </trkpt>
      <trkpt lat="43.3932" lon="1.87451">
        <ele>229.6</ele>
        <time>2023-05-27T09:33:22Z</time>
      </trkpt>
      <trkpt lat="43.3932" lon="1.87456">
        <ele>229.6</ele>
        <time>2023-05-27T09:33:23Z</time>
      </trkpt>
      <trkpt lat="43.39321" lon="1.87461">
        <ele>229.6</ele>
        <time>2023-05-27T09:33:24Z</time>
      </trkpt>
      <trkpt lat="43.39323" lon="1.87465">
        <ele>229.4</ele>
        <time>2023-05-27T09:33:25Z</time>
      </trkpt>
      <trkpt lat="43.39324" lon="1.8747">
        <ele>229.4</ele>
        <time>2023-05-27T09:33:26Z</time>
      </trkpt>
      <trkpt lat="43.39323" lon="1.87476">
        <ele>229.4</ele>
        <time>2023-05-27T09:33:27Z</time>
      </trkpt>
      <trkpt lat="43.39324" lon="1.87483">
        <ele>229.4</ele>
        <time>2023-05-27T09:33:28Z</time>
      </trkpt>
      <trkpt lat="43.39324" lon="1.87488">
        <ele>229.4</ele>
        <time>2023-05-27T09:33:29Z</time>
      </trkpt>
      <trkpt lat="43.39324" lon="1.87492">
        <ele>229.4</ele>
        <time>2023-05-27T09:33:30Z</time>
      </trkpt>
      <trkpt lat="43.39324" lon="1.87496">
        <ele>229.4</ele>
        <time>2023-05-27T09:33:31Z</time>
      </trkpt>
      <trkpt lat="43.39322" lon="1.875">
        <ele>229.4</ele>
        <time>2023-05-27T09:33:32Z</time>
      </trkpt>
      <trkpt lat="43.39321" lon="1.87506">
        <ele>229.4</ele>
        <time>2023-05-27T09:33:33Z</time>
      </trkpt>
      <trkpt lat="43.3932" lon="1.87512">
        <ele>229.4</ele>
        <time>2023-05-27T09:33:34Z</time>
      </trkpt>
      <trkpt lat="43.3932" lon="1.87516">
        <ele>229.4</ele>
        <time>2023-05-27T09:33:35Z</time>
      </trkpt>
      <trkpt lat="43.39321" lon="1.8752">
        <ele>229.4</ele>
        <time>2023-05-27T09:33:36Z</time>
      </trkpt>
      <trkpt lat="43.39321" lon="1.87525">
        <ele>229.4</ele>
        <time>2023-05-27T09:33:37Z</time>
      </trkpt>
      <trkpt lat="43.39321" lon="1.8753">
        <ele>229.2</ele>
        <time>2023-05-27T09:33:38Z</time>
      </trkpt>
      <trkpt lat="43.39323" lon="1.87535">
        <ele>229.2</ele>
        <time>2023-05-27T09:33:39Z</time>
      </trkpt>
      <trkpt lat="43.39325" lon="1.87541">
        <ele>229.2</ele>
        <time>2023-05-27T09:33:40Z</time>
      </trkpt>
      <trkpt lat="43.39327" lon="1.87546">
        <ele>229.2</ele>
        <time>2023-05-27T09:33:41Z</time>
      </trkpt>
      <trkpt lat="43.39328" lon="1.87551">
        <ele>229.2</ele>
        <time>2023-05-27T09:33:42Z</time>
      </trkpt>
      <trkpt lat="43.3933" lon="1.87555">
        <ele>229.2</ele>
        <time>2023-05-27T09:33:43Z</time>
      </trkpt>
      <trkpt lat="43.39331" lon="1.87558">
        <ele>229.2</ele>
        <time>2023-05-27T09:33:44Z</time>
      </trkpt>
      <trkpt lat="43.39334" lon="1.8756">
        <ele>229.2</ele>
        <time>2023-05-27T09:33:45Z</time>
      </trkpt>
      <trkpt lat="43.39336" lon="1.87561">
        <ele>229.2</ele>
        <time>2023-05-27T09:33:46Z</time>
      </trkpt>
      <trkpt lat="43.39338" lon="1.87562">
        <ele>229.2</ele>
        <time>2023-05-27T09:33:47Z</time>
      </trkpt>
      <trkpt lat="43.39341" lon="1.87563">
        <ele>229</ele>
        <time>2023-05-27T09:33:48Z</time>
      </trkpt>
      <trkpt lat="43.39344" lon="1.87565">
        <ele>229</ele>
        <time>2023-05-27T09:33:49Z</time>
      </trkpt>
      <trkpt lat="43.39347" lon="1.87566">
        <ele>229</ele>
        <time>2023-05-27T09:33:50Z</time>
      </trkpt>
      <trkpt lat="43.39351" lon="1.87566">
        <ele>229</ele>
        <time>2023-05-27T09:33:51Z</time>
      </trkpt>
      <trkpt lat="43.39354" lon="1.87565">
        <ele>229</ele>
        <time>2023-05-27T09:33:52Z</time>
      </trkpt>
      <trkpt lat="43.39358" lon="1.87563">
        <ele>229</ele>
        <time>2023-05-27T09:33:53Z</time>
      </trkpt>
      <trkpt lat="43.39362" lon="1.87561">
        <ele>229</ele>
        <time>2023-05-27T09:33:54Z</time>
      </trkpt>
      <trkpt lat="43.39365" lon="1.87559">
        <ele>229.2</ele>
        <time>2023-05-27T09:33:55Z</time>
      </trkpt>
      <trkpt lat="43.39368" lon="1.87557">
        <ele>229.2</ele>
        <time>2023-05-27T09:33:56Z</time>
      </trkpt>
      <trkpt lat="43.39371" lon="1.87555">
        <ele>229.2</ele>
        <time>2023-05-27T09:33:57Z</time>
      </trkpt>
      <trkpt lat="43.39374" lon="1.87554">
        <ele>229.2</ele>
        <time>2023-05-27T09:33:58Z</time>
      </trkpt>
      <trkpt lat="43.39376" lon="1.87551">
        <ele>229.2</ele>
        <time>2023-05-27T09:33:59Z</time>
      </trkpt>
      <trkpt lat="43.39379" lon="1.87548">
        <ele>229.2</ele>
        <time>2023-05-27T09:34:00Z</time>
      </trkpt>
      <trkpt lat="43.39382" lon="1.87547">
        <ele>229.2</ele>
        <time>2023-05-27T09:34:01Z</time>
      </trkpt>
      <trkpt lat="43.39385" lon="1.87546">
        <ele>229.2</ele>
        <time>2023-05-27T09:34:02Z</time>
      </trkpt>
      <trkpt lat="43.39388" lon="1.87545">
        <ele>229.2</ele>
        <time>2023-05-27T09:34:03Z</time>
      </trkpt>
      <trkpt lat="43.3939" lon="1.87545">
        <ele>229.2</ele>
        <time>2023-05-27T09:34:04Z</time>
      </trkpt>
      <trkpt lat="43.39392" lon="1.87545">
        <ele>229.2</ele>
        <time>2023-05-27T09:34:05Z</time>
      </trkpt>
      <trkpt lat="43.39395" lon="1.87545">
        <ele>229.2</ele>
        <time>2023-05-27T09:34:06Z</time>
      </trkpt>
      <trkpt lat="43.39398" lon="1.87544">
        <ele>229.2</ele>
        <time>2023-05-27T09:34:07Z</time>
      </trkpt>
      <trkpt lat="43.39401" lon="1.87544">
        <ele>229.2</ele>
        <time>2023-05-27T09:34:08Z</time>
      </trkpt>
      <trkpt lat="43.39404" lon="1.87543">
        <ele>229.4</ele>
        <time>2023-05-27T09:34:09Z</time>
      </trkpt>
      <trkpt lat="43.39407" lon="1.87542">
        <ele>229.4</ele>
        <time>2023-05-27T09:34:10Z</time>
      </trkpt>
      <trkpt lat="43.39409" lon="1.87541">
        <ele>229.4</ele>
        <time>2023-05-27T09:34:11Z</time>
      </trkpt>
      <trkpt lat="43.39412" lon="1.87541">
        <ele>229.6</ele>
        <time>2023-05-27T09:34:12Z</time>
      </trkpt>
      <trkpt lat="43.39415" lon="1.8754">
        <ele>229.6</ele>
        <time>2023-05-27T09:34:13Z</time>
      </trkpt>
      <trkpt lat="43.39417" lon="1.8754">
        <ele>229.6</ele>
        <time>2023-05-27T09:34:14Z</time>
      </trkpt>
      <trkpt lat="43.39419" lon="1.87541">
        <ele>229.6</ele>
        <time>2023-05-27T09:34:15Z</time>
      </trkpt>
      <trkpt lat="43.39421" lon="1.87542">
        <ele>229.8</ele>
        <time>2023-05-27T09:34:16Z</time>
      </trkpt>
      <trkpt lat="43.39423" lon="1.87543">
        <ele>229.8</ele>
        <time>2023-05-27T09:34:17Z</time>
      </trkpt>
      <trkpt lat="43.39426" lon="1.87544">
        <ele>229.8</ele>
        <time>2023-05-27T09:34:18Z</time>
      </trkpt>
      <trkpt lat="43.39429" lon="1.87546">
        <ele>229.8</ele>
        <time>2023-05-27T09:34:19Z</time>
      </trkpt>
      <trkpt lat="43.39433" lon="1.87549">
        <ele>229.8</ele>
        <time>2023-05-27T09:34:20Z</time>
      </trkpt>
      <trkpt lat="43.39437" lon="1.87552">
        <ele>229.6</ele>
        <time>2023-05-27T09:34:21Z</time>
      </trkpt>
      <trkpt lat="43.3944" lon="1.87555">
        <ele>229.6</ele>
        <time>2023-05-27T09:34:22Z</time>
      </trkpt>
      <trkpt lat="43.39443" lon="1.87558">
        <ele>229.6</ele>
        <time>2023-05-27T09:34:23Z</time>
      </trkpt>
      <trkpt lat="43.39446" lon="1.8756">
        <ele>229.6</ele>
        <time>2023-05-27T09:34:24Z</time>
      </trkpt>
      <trkpt lat="43.39448" lon="1.87562">
        <ele>229.6</ele>
        <time>2023-05-27T09:34:25Z</time>
      </trkpt>
      <trkpt lat="43.39451" lon="1.87565">
        <ele>229.6</ele>
        <time>2023-05-27T09:34:26Z</time>
      </trkpt>
      <trkpt lat="43.39454" lon="1.87569">
        <ele>229.6</ele>
        <time>2023-05-27T09:34:27Z</time>
      </trkpt>
      <trkpt lat="43.39457" lon="1.87571">
        <ele>229.6</ele>
        <time>2023-05-27T09:34:28Z</time>
      </trkpt>
      <trkpt lat="43.3946" lon="1.87574">
        <ele>229.6</ele>
        <time>2023-05-27T09:34:29Z</time>
      </trkpt>
      <trkpt lat="43.39463" lon="1.87575">
        <ele>229.6</ele>
        <time>2023-05-27T09:34:30Z</time>
      </trkpt>
      <trkpt lat="43.39466" lon="1.87576">
        <ele>229.6</ele>
        <time>2023-05-27T09:34:31Z</time>
      </trkpt>
      <trkpt lat="43.39469" lon="1.87576">
        <ele>229.6</ele>
        <time>2023-05-27T09:34:32Z</time>
      </trkpt>
      <trkpt lat="43.39472" lon="1.87576">
        <ele>229.6</ele>
        <time>2023-05-27T09:34:33Z</time>
      </trkpt>
      <trkpt lat="43.39475" lon="1.87576">
        <ele>229.6</ele>
        <time>2023-05-27T09:34:34Z</time>
      </trkpt>
      <trkpt lat="43.39478" lon="1.87575">
        <ele>229.6</ele>
        <time>2023-05-27T09:34:35Z</time>
      </trkpt>
      <trkpt lat="43.39482" lon="1.87573">
        <ele>229.6</ele>
        <time>2023-05-27T09:34:36Z</time>
      </trkpt>
      <trkpt lat="43.39486" lon="1.87571">
        <ele>229.6</ele>
        <time>2023-05-27T09:34:37Z</time>
      </trkpt>
      <trkpt lat="43.39489" lon="1.87568">
        <ele>229.6</ele>
        <time>2023-05-27T09:34:38Z</time>
      </trkpt>
      <trkpt lat="43.39492" lon="1.87565">
        <ele>229.6</ele>
        <time>2023-05-27T09:34:39Z</time>
      </trkpt>
      <trkpt lat="43.39495" lon="1.87562">
        <ele>229.6</ele>
        <time>2023-05-27T09:34:40Z</time>
      </trkpt>
      <trkpt lat="43.39498" lon="1.87559">
        <ele>229.6</ele>
        <time>2023-05-27T09:34:41Z</time>
      </trkpt>
      <trkpt lat="43.39502" lon="1.87556">
        <ele>229.6</ele>
        <time>2023-05-27T09:34:42Z</time>
      </trkpt>
      <trkpt lat="43.39505" lon="1.87553">
        <ele>229.6</ele>
        <time>2023-05-27T09:34:43Z</time>
      </trkpt>
      <trkpt lat="43.39508" lon="1.8755">
        <ele>229.6</ele>
        <time>2023-05-27T09:34:44Z</time>
      </trkpt>
      <trkpt lat="43.39511" lon="1.87548">
        <ele>229.8</ele>
        <time>2023-05-27T09:34:45Z</time>
      </trkpt>
      <trkpt lat="43.39513" lon="1.87546">
        <ele>229.8</ele>
        <time>2023-05-27T09:34:46Z</time>
      </trkpt>
      <trkpt lat="43.39516" lon="1.87545">
        <ele>229.8</ele>
        <time>2023-05-27T09:34:47Z</time>
      </trkpt>
      <trkpt lat="43.39518" lon="1.87543">
        <ele>229.8</ele>
        <time>2023-05-27T09:34:48Z</time>
      </trkpt>
      <trkpt lat="43.39521" lon="1.87541">
        <ele>229.8</ele>
        <time>2023-05-27T09:34:49Z</time>
      </trkpt>
      <trkpt lat="43.39524" lon="1.87539">
        <ele>230</ele>
        <time>2023-05-27T09:34:50Z</time>
      </trkpt>
      <trkpt lat="43.39527" lon="1.87537">
        <ele>230</ele>
        <time>2023-05-27T09:34:51Z</time>
      </trkpt>
      <trkpt lat="43.3953" lon="1.87536">
        <ele>230</ele>
        <time>2023-05-27T09:34:52Z</time>
      </trkpt>
      <trkpt lat="43.39533" lon="1.87535">
        <ele>230</ele>
        <time>2023-05-27T09:34:53Z</time>
      </trkpt>
      <trkpt lat="43.39535" lon="1.87534">
        <ele>230</ele>
        <time>2023-05-27T09:34:54Z</time>
      </trkpt>
      <trkpt lat="43.39538" lon="1.87533">
        <ele>229.8</ele>
        <time>2023-05-27T09:34:55Z</time>
      </trkpt>
      <trkpt lat="43.3954" lon="1.87533">
        <ele>229.8</ele>
        <time>2023-05-27T09:34:56Z</time>
      </trkpt>
      <trkpt lat="43.39544" lon="1.87533">
        <ele>229.8</ele>
        <time>2023-05-27T09:34:57Z</time>
      </trkpt>
      <trkpt lat="43.39548" lon="1.87532">
        <ele>229.8</ele>
        <time>2023-05-27T09:34:58Z</time>
      </trkpt>
      <trkpt lat="43.39553" lon="1.87531">
        <ele>229.8</ele>
        <time>2023-05-27T09:34:59Z</time>
      </trkpt>
      <trkpt lat="43.39557" lon="1.87531">
        <ele>229.8</ele>
        <time>2023-05-27T09:35:00Z</time>
      </trkpt>
      <trkpt lat="43.39561" lon="1.87533">
        <ele>229.8</ele>
        <time>2023-05-27T09:35:01Z</time>
      </trkpt>
      <trkpt lat="43.39566" lon="1.87535">
        <ele>229.8</ele>
        <time>2023-05-27T09:35:02Z</time>
      </trkpt>
      <trkpt lat="43.39569" lon="1.87538">
        <ele>229.8</ele>
        <time>2023-05-27T09:35:03Z</time>
      </trkpt>
      <trkpt lat="43.39573" lon="1.87542">
        <ele>229.8</ele>
        <time>2023-05-27T09:35:04Z</time>
      </trkpt>
      <trkpt lat="43.39578" lon="1.87547">
        <ele>229.8</ele>
        <time>2023-05-27T09:35:05Z</time>
      </trkpt>
      <trkpt lat="43.39581" lon="1.87553">
        <ele>229.6</ele>
        <time>2023-05-27T09:35:06Z</time>
      </trkpt>
      <trkpt lat="43.39584" lon="1.87558">
        <ele>229.6</ele>
        <time>2023-05-27T09:35:07Z</time>
      </trkpt>
      <trkpt lat="43.39587" lon="1.87563">
        <ele>229.6</ele>
        <time>2023-05-27T09:35:08Z</time>
      </trkpt>
      <trkpt lat="43.39589" lon="1.87567">
        <ele>229.6</ele>
        <time>2023-05-27T09:35:09Z</time>
      </trkpt>
      <trkpt lat="43.39591" lon="1.87569">
        <ele>229.6</ele>
        <time>2023-05-27T09:35:10Z</time>
      </trkpt>
      <trkpt lat="43.39594" lon="1.87573">
        <ele>229.6</ele>
        <time>2023-05-27T09:35:11Z</time>
      </trkpt>
      <trkpt lat="43.39596" lon="1.87576">
        <ele>229.6</ele>
        <time>2023-05-27T09:35:12Z</time>
      </trkpt>
      <trkpt lat="43.39598" lon="1.87578">
        <ele>229.6</ele>
        <time>2023-05-27T09:35:13Z</time>
      </trkpt>
      <trkpt lat="43.39601" lon="1.87579">
        <ele>229.6</ele>
        <time>2023-05-27T09:35:14Z</time>
      </trkpt>
      <trkpt lat="43.39604" lon="1.87579">
        <ele>229.6</ele>
        <time>2023-05-27T09:35:15Z</time>
      </trkpt>
      <trkpt lat="43.39609" lon="1.87577">
        <ele>229.6</ele>
        <time>2023-05-27T09:35:16Z</time>
      </trkpt>
      <trkpt lat="43.39613" lon="1.87575">
        <ele>229.6</ele>
        <time>2023-05-27T09:35:17Z</time>
      </trkpt>
      <trkpt lat="43.39616" lon="1.87573">
        <ele>229.6</ele>
        <time>2023-05-27T09:35:18Z</time>
      </trkpt>
      <trkpt lat="43.39619" lon="1.8757">
        <ele>229.6</ele>
        <time>2023-05-27T09:35:19Z</time>
      </trkpt>
      <trkpt lat="43.39621" lon="1.87566">
        <ele>229.6</ele>
        <time>2023-05-27T09:35:20Z</time>
      </trkpt>
      <trkpt lat="43.39622" lon="1.87561">
        <ele>229.6</ele>
        <time>2023-05-27T09:35:21Z</time>
      </trkpt>
      <trkpt lat="43.39624" lon="1.87556">
        <ele>229.6</ele>
        <time>2023-05-27T09:35:22Z</time>
      </trkpt>
      <trkpt lat="43.39625" lon="1.8755">
        <ele>229.6</ele>
        <time>2023-05-27T09:35:23Z</time>
      </trkpt>
      <trkpt lat="43.39626" lon="1.87545">
        <ele>229.8</ele>
        <time>2023-05-27T09:35:24Z</time>
      </trkpt>
      <trkpt lat="43.39627" lon="1.87541">
        <ele>229.8</ele>
        <time>2023-05-27T09:35:25Z</time>
      </trkpt>
      <trkpt lat="43.39629" lon="1.87537">
        <ele>229.8</ele>
        <time>2023-05-27T09:35:26Z</time>
      </trkpt>
      <trkpt lat="43.3963" lon="1.87533">
        <ele>229.8</ele>
        <time>2023-05-27T09:35:27Z</time>
      </trkpt>
      <trkpt lat="43.39631" lon="1.87529">
        <ele>229.8</ele>
        <time>2023-05-27T09:35:28Z</time>
      </trkpt>
      <trkpt lat="43.39632" lon="1.87525">
        <ele>230</ele>
        <time>2023-05-27T09:35:29Z</time>
      </trkpt>
      <trkpt lat="43.39634" lon="1.8752">
        <ele>230</ele>
        <time>2023-05-27T09:35:30Z</time>
      </trkpt>
      <trkpt lat="43.39635" lon="1.87516">
        <ele>230</ele>
        <time>2023-05-27T09:35:31Z</time>
      </trkpt>
      <trkpt lat="43.39635" lon="1.87512">
        <ele>230</ele>
        <time>2023-05-27T09:35:32Z</time>
      </trkpt>
      <trkpt lat="43.39636" lon="1.87508">
        <ele>230</ele>
        <time>2023-05-27T09:35:33Z</time>
      </trkpt>
      <trkpt lat="43.39637" lon="1.87504">
        <ele>230.2</ele>
        <time>2023-05-27T09:35:34Z</time>
      </trkpt>
      <trkpt lat="43.39638" lon="1.87499">
        <ele>230.2</ele>
        <time>2023-05-27T09:35:35Z</time>
      </trkpt>
      <trkpt lat="43.3964" lon="1.87495">
        <ele>230.2</ele>
        <time>2023-05-27T09:35:36Z</time>
      </trkpt>
      <trkpt lat="43.39641" lon="1.87491">
        <ele>230.2</ele>
        <time>2023-05-27T09:35:37Z</time>
      </trkpt>
      <trkpt lat="43.39642" lon="1.87487">
        <ele>230.2</ele>
        <time>2023-05-27T09:35:38Z</time>
      </trkpt>
      <trkpt lat="43.39643" lon="1.87483">
        <ele>230.2</ele>
        <time>2023-05-27T09:35:39Z</time>
      </trkpt>
      <trkpt lat="43.39644" lon="1.87479">
        <ele>230.4</ele>
        <time>2023-05-27T09:35:40Z</time>
      </trkpt>
      <trkpt lat="43.39646" lon="1.87475">
        <ele>230.4</ele>
        <time>2023-05-27T09:35:41Z</time>
      </trkpt>
      <trkpt lat="43.39649" lon="1.87471">
        <ele>230.4</ele>
        <time>2023-05-27T09:35:42Z</time>
      </trkpt>
      <trkpt lat="43.39651" lon="1.87467">
        <ele>230.4</ele>
        <time>2023-05-27T09:35:43Z</time>
      </trkpt>
      <trkpt lat="43.39654" lon="1.87464">
        <ele>230.4</ele>
        <time>2023-05-27T09:35:44Z</time>
      </trkpt>
      <trkpt lat="43.39656" lon="1.87461">
        <ele>230.6</ele>
        <time>2023-05-27T09:35:45Z</time>
      </trkpt>
      <trkpt lat="43.3966" lon="1.87457">
        <ele>230.6</ele>
        <time>2023-05-27T09:35:46Z</time>
      </trkpt>
      <trkpt lat="43.39665" lon="1.87452">
        <ele>230.6</ele>
        <time>2023-05-27T09:35:47Z</time>
      </trkpt>
      <trkpt lat="43.39668" lon="1.87448">
        <ele>230.6</ele>
        <time>2023-05-27T09:35:48Z</time>
      </trkpt>
      <trkpt lat="43.39671" lon="1.87444">
        <ele>230.6</ele>
        <time>2023-05-27T09:35:49Z</time>
      </trkpt>
      <trkpt lat="43.39673" lon="1.87441">
        <ele>230.6</ele>
        <time>2023-05-27T09:35:50Z</time>
      </trkpt>
      <trkpt lat="43.39675" lon="1.87437">
        <ele>230.6</ele>
        <time>2023-05-27T09:35:51Z</time>
      </trkpt>
      <trkpt lat="43.39677" lon="1.87434">
        <ele>230.8</ele>
        <time>2023-05-27T09:35:52Z</time>
      </trkpt>
      <trkpt lat="43.39679" lon="1.87431">
        <ele>230.8</ele>
        <time>2023-05-27T09:35:53Z</time>
      </trkpt>
      <trkpt lat="43.3968" lon="1.87427">
        <ele>230.8</ele>
        <time>2023-05-27T09:35:54Z</time>
      </trkpt>
      <trkpt lat="43.39682" lon="1.87424">
        <ele>230.8</ele>
        <time>2023-05-27T09:35:55Z</time>
      </trkpt>
      <trkpt lat="43.39682" lon="1.8742">
        <ele>230.8</ele>
        <time>2023-05-27T09:35:56Z</time>
      </trkpt>
      <trkpt lat="43.39684" lon="1.87416">
        <ele>230.8</ele>
        <time>2023-05-27T09:35:57Z</time>
      </trkpt>
      <trkpt lat="43.39685" lon="1.87413">
        <ele>230.8</ele>
        <time>2023-05-27T09:35:58Z</time>
      </trkpt>
      <trkpt lat="43.39686" lon="1.8741">
        <ele>230.8</ele>
        <time>2023-05-27T09:35:59Z</time>
      </trkpt>
      <trkpt lat="43.39687" lon="1.87406">
        <ele>230.8</ele>
        <time>2023-05-27T09:36:00Z</time>
      </trkpt>
      <trkpt lat="43.3969" lon="1.87402">
        <ele>230.8</ele>
        <time>2023-05-27T09:36:01Z</time>
      </trkpt>
      <trkpt lat="43.39693" lon="1.87397">
        <ele>230.8</ele>
        <time>2023-05-27T09:36:02Z</time>
      </trkpt>
      <trkpt lat="43.39696" lon="1.87391">
        <ele>230.8</ele>
        <time>2023-05-27T09:36:03Z</time>
      </trkpt>
      <trkpt lat="43.397" lon="1.87385">
        <ele>230.8</ele>
        <time>2023-05-27T09:36:04Z</time>
      </trkpt>
      <trkpt lat="43.39703" lon="1.87381">
        <ele>230.6</ele>
        <time>2023-05-27T09:36:05Z</time>
      </trkpt>
      <trkpt lat="43.39707" lon="1.87378">
        <ele>230.6</ele>
        <time>2023-05-27T09:36:06Z</time>
      </trkpt>
      <trkpt lat="43.39711" lon="1.87377">
        <ele>230.6</ele>
        <time>2023-05-27T09:36:07Z</time>
      </trkpt>
      <trkpt lat="43.39714" lon="1.87378">
        <ele>230.8</ele>
        <time>2023-05-27T09:36:08Z</time>
      </trkpt>
      <trkpt lat="43.39717" lon="1.8738">
        <ele>230.8</ele>
        <time>2023-05-27T09:36:09Z</time>
      </trkpt>
      <trkpt lat="43.39721" lon="1.87381">
        <ele>230.8</ele>
        <time>2023-05-27T09:36:10Z</time>
      </trkpt>
      <trkpt lat="43.39724" lon="1.87382">
        <ele>230.8</ele>
        <time>2023-05-27T09:36:11Z</time>
      </trkpt>
      <trkpt lat="43.39726" lon="1.87384">
        <ele>230.8</ele>
        <time>2023-05-27T09:36:12Z</time>
      </trkpt>
      <trkpt lat="43.39729" lon="1.87386">
        <ele>231</ele>
        <time>2023-05-27T09:36:13Z</time>
      </trkpt>
      <trkpt lat="43.39731" lon="1.87388">
        <ele>231</ele>
        <time>2023-05-27T09:36:14Z</time>
      </trkpt>
      <trkpt lat="43.39733" lon="1.8739">
        <ele>231</ele>
        <time>2023-05-27T09:36:15Z</time>
      </trkpt>
      <trkpt lat="43.39735" lon="1.87393">
        <ele>231</ele>
        <time>2023-05-27T09:36:16Z</time>
      </trkpt>
      <trkpt lat="43.39737" lon="1.87395">
        <ele>231.2</ele>
        <time>2023-05-27T09:36:17Z</time>
      </trkpt>
      <trkpt lat="43.39739" lon="1.87397">
        <ele>231.2</ele>
        <time>2023-05-27T09:36:18Z</time>
      </trkpt>
      <trkpt lat="43.39741" lon="1.87399">
        <ele>231.2</ele>
        <time>2023-05-27T09:36:19Z</time>
      </trkpt>
      <trkpt lat="43.39743" lon="1.87402">
        <ele>231.2</ele>
        <time>2023-05-27T09:36:20Z</time>
      </trkpt>
      <trkpt lat="43.39745" lon="1.87404">
        <ele>231.4</ele>
        <time>2023-05-27T09:36:21Z</time>
      </trkpt>
      <trkpt lat="43.39747" lon="1.87407">
        <ele>231.4</ele>
        <time>2023-05-27T09:36:22Z</time>
      </trkpt>
      <trkpt lat="43.39748" lon="1.87409">
        <ele>231.6</ele>
        <time>2023-05-27T09:36:23Z</time>
      </trkpt>
      <trkpt lat="43.3975" lon="1.87412">
        <ele>231.8</ele>
        <time>2023-05-27T09:36:24Z</time>
      </trkpt>
      <trkpt lat="43.39751" lon="1.87414">
        <ele>232</ele>
        <time>2023-05-27T09:36:25Z</time>
      </trkpt>
      <trkpt lat="43.39753" lon="1.87416">
        <ele>232.2</ele>
        <time>2023-05-27T09:36:26Z</time>
      </trkpt>
      <trkpt lat="43.39754" lon="1.87418">
        <ele>232.4</ele>
        <time>2023-05-27T09:36:27Z</time>
      </trkpt>
      <trkpt lat="43.39756" lon="1.8742">
        <ele>232.4</ele>
        <time>2023-05-27T09:36:28Z</time>
      </trkpt>
      <trkpt lat="43.39758" lon="1.87421">
        <ele>232.6</ele>
        <time>2023-05-27T09:36:29Z</time>
      </trkpt>
      <trkpt lat="43.39759" lon="1.87423">
        <ele>232.8</ele>
        <time>2023-05-27T09:36:30Z</time>
      </trkpt>
      <trkpt lat="43.39761" lon="1.87424">
        <ele>232.8</ele>
        <time>2023-05-27T09:36:31Z</time>
      </trkpt>
      <trkpt lat="43.39762" lon="1.87426">
        <ele>233</ele>
        <time>2023-05-27T09:36:32Z</time>
      </trkpt>
      <trkpt lat="43.39764" lon="1.87427">
        <ele>233</ele>
        <time>2023-05-27T09:36:33Z</time>
      </trkpt>
      <trkpt lat="43.39765" lon="1.87429">
        <ele>233.2</ele>
        <time>2023-05-27T09:36:34Z</time>
      </trkpt>
      <trkpt lat="43.39767" lon="1.8743">
        <ele>233.2</ele>
        <time>2023-05-27T09:36:35Z</time>
      </trkpt>
      <trkpt lat="43.39769" lon="1.87432">
        <ele>233.2</ele>
        <time>2023-05-27T09:36:36Z</time>
      </trkpt>
      <trkpt lat="43.39771" lon="1.87433">
        <ele>233.4</ele>
        <time>2023-05-27T09:36:37Z</time>
      </trkpt>
      <trkpt lat="43.39772" lon="1.87434">
        <ele>233.4</ele>
        <time>2023-05-27T09:36:38Z</time>
      </trkpt>
      <trkpt lat="43.39774" lon="1.87435">
        <ele>233.4</ele>
        <time>2023-05-27T09:36:39Z</time>
      </trkpt>
      <trkpt lat="43.39776" lon="1.87437">
        <ele>233.6</ele>
        <time>2023-05-27T09:36:40Z</time>
      </trkpt>
      <trkpt lat="43.39777" lon="1.87438">
        <ele>233.6</ele>
        <time>2023-05-27T09:36:41Z</time>
      </trkpt>
      <trkpt lat="43.39779" lon="1.87438">
        <ele>233.6</ele>
        <time>2023-05-27T09:36:42Z</time>
      </trkpt>
      <trkpt lat="43.3978" lon="1.87439">
        <ele>233.6</ele>
        <time>2023-05-27T09:36:43Z</time>
      </trkpt>
      <trkpt lat="43.3978" lon="1.87439">
        <ele>233.4</ele>
        <time>2023-05-27T09:36:44Z</time>
      </trkpt>
      <trkpt lat="43.39792" lon="1.87444">
        <ele>233.2</ele>
        <time>2023-05-27T09:41:18Z</time>
      </trkpt>
      <trkpt lat="43.39796" lon="1.87445">
        <ele>233.2</ele>
        <time>2023-05-27T09:41:19Z</time>
      </trkpt>
      <trkpt lat="43.398" lon="1.87446">
        <ele>233.2</ele>
        <time>2023-05-27T09:41:20Z</time>
      </trkpt>
      <trkpt lat="43.39804" lon="1.87447">
        <ele>233</ele>
        <time>2023-05-27T09:41:21Z</time>
      </trkpt>
      <trkpt lat="43.39809" lon="1.87449">
        <ele>232.8</ele>
        <time>2023-05-27T09:41:22Z</time>
      </trkpt>
      <trkpt lat="43.39813" lon="1.8745">
        <ele>232.6</ele>
        <time>2023-05-27T09:41:23Z</time>
      </trkpt>
      <trkpt lat="43.39817" lon="1.87452">
        <ele>232.4</ele>
        <time>2023-05-27T09:41:24Z</time>
      </trkpt>
      <trkpt lat="43.39821" lon="1.87454">
        <ele>232.2</ele>
        <time>2023-05-27T09:41:25Z</time>
      </trkpt>
      <trkpt lat="43.39824" lon="1.87456">
        <ele>232.2</ele>
        <time>2023-05-27T09:41:26Z</time>
      </trkpt>
      <trkpt lat="43.39827" lon="1.87459">
        <ele>232</ele>
        <time>2023-05-27T09:41:27Z</time>
      </trkpt>
      <trkpt lat="43.3983" lon="1.87463">
        <ele>232</ele>
        <time>2023-05-27T09:41:28Z</time>
      </trkpt>
      <trkpt lat="43.39832" lon="1.87467">
        <ele>231.8</ele>
        <time>2023-05-27T09:41:29Z</time>
      </trkpt>
      <trkpt lat="43.39835" lon="1.87471">
        <ele>231.6</ele>
        <time>2023-05-27T09:41:30Z</time>
      </trkpt>
      <trkpt lat="43.39838" lon="1.87476">
        <ele>231.4</ele>
        <time>2023-05-27T09:41:31Z</time>
      </trkpt>
      <trkpt lat="43.39841" lon="1.8748">
        <ele>231.4</ele>
        <time>2023-05-27T09:41:32Z</time>
      </trkpt>
      <trkpt lat="43.39844" lon="1.87485">
        <ele>231.4</ele>
        <time>2023-05-27T09:41:33Z</time>
      </trkpt>
      <trkpt lat="43.39846" lon="1.87489">
        <ele>231.4</ele>
        <time>2023-05-27T09:41:34Z</time>
      </trkpt>
      <trkpt lat="43.39849" lon="1.87493">
        <ele>231.4</ele>
        <time>2023-05-27T09:41:35Z</time>
      </trkpt>
      <trkpt lat="43.39851" lon="1.87496">
        <ele>231.4</ele>
        <time>2023-05-27T09:41:36Z</time>
      </trkpt>
      <trkpt lat="43.39855" lon="1.87499">
        <ele>231.2</ele>
        <time>2023-05-27T09:41:37Z</time>
      </trkpt>
      <trkpt lat="43.39857" lon="1.87502">
        <ele>231.2</ele>
        <time>2023-05-27T09:41:38Z</time>
      </trkpt>
      <trkpt lat="43.3986" lon="1.87505">
        <ele>231</ele>
        <time>2023-05-27T09:41:39Z</time>
      </trkpt>
      <trkpt lat="43.39863" lon="1.87508">
        <ele>231</ele>
        <time>2023-05-27T09:41:40Z</time>
      </trkpt>
      <trkpt lat="43.39866" lon="1.8751">
        <ele>231</ele>
        <time>2023-05-27T09:41:41Z</time>
      </trkpt>
      <trkpt lat="43.39869" lon="1.87511">
        <ele>230.8</ele>
        <time>2023-05-27T09:41:42Z</time>
      </trkpt>
      <trkpt lat="43.39872" lon="1.87512">
        <ele>230.8</ele>
        <time>2023-05-27T09:41:43Z</time>
      </trkpt>
      <trkpt lat="43.39875" lon="1.87513">
        <ele>230.8</ele>
        <time>2023-05-27T09:41:44Z</time>
      </trkpt>
      <trkpt lat="43.39877" lon="1.87513">
        <ele>230.8</ele>
        <time>2023-05-27T09:41:45Z</time>
      </trkpt>
      <trkpt lat="43.3988" lon="1.87513">
        <ele>230.6</ele>
        <time>2023-05-27T09:41:46Z</time>
      </trkpt>
      <trkpt lat="43.39883" lon="1.87513">
        <ele>230.6</ele>
        <time>2023-05-27T09:41:47Z</time>
      </trkpt>
      <trkpt lat="43.39886" lon="1.87513">
        <ele>230.6</ele>
        <time>2023-05-27T09:41:48Z</time>
      </trkpt>
      <trkpt lat="43.39888" lon="1.87513">
        <ele>230.6</ele>
        <time>2023-05-27T09:41:49Z</time>
      </trkpt>
      <trkpt lat="43.39891" lon="1.87513">
        <ele>230.6</ele>
        <time>2023-05-27T09:41:50Z</time>
      </trkpt>
      <trkpt lat="43.39894" lon="1.87512">
        <ele>230.6</ele>
        <time>2023-05-27T09:41:51Z</time>
      </trkpt>
      <trkpt lat="43.39897" lon="1.87512">
        <ele>230.6</ele>
        <time>2023-05-27T09:41:52Z</time>
      </trkpt>
      <trkpt lat="43.39901" lon="1.87512">
        <ele>230.6</ele>
        <time>2023-05-27T09:41:53Z</time>
      </trkpt>
      <trkpt lat="43.39904" lon="1.87512">
        <ele>230.4</ele>
        <time>2023-05-27T09:41:54Z</time>
      </trkpt>
      <trkpt lat="43.39907" lon="1.87511">
        <ele>230.6</ele>
        <time>2023-05-27T09:41:55Z</time>
      </trkpt>
      <trkpt lat="43.39911" lon="1.87511">
        <ele>230.6</ele>
        <time>2023-05-27T09:41:56Z</time>
      </trkpt>
      <trkpt lat="43.39914" lon="1.8751">
        <ele>230.6</ele>
        <time>2023-05-27T09:41:57Z</time>
      </trkpt>
      <trkpt lat="43.39917" lon="1.87511">
        <ele>230.6</ele>
        <time>2023-05-27T09:41:58Z</time>
      </trkpt>
      <trkpt lat="43.3992" lon="1.87511">
        <ele>230.6</ele>
        <time>2023-05-27T09:41:59Z</time>
      </trkpt>
      <trkpt lat="43.39922" lon="1.87511">
        <ele>230.6</ele>
        <time>2023-05-27T09:42:00Z</time>
      </trkpt>
      <trkpt lat="43.39925" lon="1.87511">
        <ele>230.6</ele>
        <time>2023-05-27T09:42:01Z</time>
      </trkpt>
      <trkpt lat="43.39928" lon="1.87512">
        <ele>230.6</ele>
        <time>2023-05-27T09:42:02Z</time>
      </trkpt>
      <trkpt lat="43.39931" lon="1.87513">
        <ele>230.6</ele>
        <time>2023-05-27T09:42:03Z</time>
      </trkpt>
      <trkpt lat="43.39934" lon="1.87514">
        <ele>230.6</ele>
        <time>2023-05-27T09:42:04Z</time>
      </trkpt>
      <trkpt lat="43.39937" lon="1.87516">
        <ele>230.4</ele>
        <time>2023-05-27T09:42:05Z</time>
      </trkpt>
      <trkpt lat="43.39941" lon="1.87517">
        <ele>230.4</ele>
        <time>2023-05-27T09:42:06Z</time>
      </trkpt>
      <trkpt lat="43.39944" lon="1.87519">
        <ele>230.6</ele>
        <time>2023-05-27T09:42:07Z</time>
      </trkpt>
      <trkpt lat="43.39947" lon="1.87522">
        <ele>230.6</ele>
        <time>2023-05-27T09:42:08Z</time>
      </trkpt>
      <trkpt lat="43.39949" lon="1.87525">
        <ele>230.6</ele>
        <time>2023-05-27T09:42:09Z</time>
      </trkpt>
      <trkpt lat="43.39952" lon="1.8753">
        <ele>230.8</ele>
        <time>2023-05-27T09:42:10Z</time>
      </trkpt>
      <trkpt lat="43.39956" lon="1.87535">
        <ele>230.8</ele>
        <time>2023-05-27T09:42:11Z</time>
      </trkpt>
      <trkpt lat="43.39959" lon="1.87541">
        <ele>230.8</ele>
        <time>2023-05-27T09:42:12Z</time>
      </trkpt>
      <trkpt lat="43.39961" lon="1.87546">
        <ele>230.8</ele>
        <time>2023-05-27T09:42:13Z</time>
      </trkpt>
      <trkpt lat="43.39963" lon="1.8755">
        <ele>230.8</ele>
        <time>2023-05-27T09:42:14Z</time>
      </trkpt>
      <trkpt lat="43.39964" lon="1.87554">
        <ele>230.8</ele>
        <time>2023-05-27T09:42:15Z</time>
      </trkpt>
      <trkpt lat="43.39965" lon="1.8756">
        <ele>230.6</ele>
        <time>2023-05-27T09:42:16Z</time>
      </trkpt>
      <trkpt lat="43.39967" lon="1.87565">
        <ele>230.6</ele>
        <time>2023-05-27T09:42:17Z</time>
      </trkpt>
      <trkpt lat="43.39967" lon="1.8757">
        <ele>230.6</ele>
        <time>2023-05-27T09:42:18Z</time>
      </trkpt>
      <trkpt lat="43.39967" lon="1.87575">
        <ele>230.6</ele>
        <time>2023-05-27T09:42:19Z</time>
      </trkpt>
      <trkpt lat="43.39968" lon="1.87579">
        <ele>230.6</ele>
        <time>2023-05-27T09:42:20Z</time>
      </trkpt>
      <trkpt lat="43.39967" lon="1.87582">
        <ele>230.6</ele>
        <time>2023-05-27T09:42:21Z</time>
      </trkpt>
      <trkpt lat="43.39968" lon="1.87588">
        <ele>230.6</ele>
        <time>2023-05-27T09:42:22Z</time>
      </trkpt>
      <trkpt lat="43.3997" lon="1.87595">
        <ele>230.6</ele>
        <time>2023-05-27T09:42:23Z</time>
      </trkpt>
      <trkpt lat="43.39971" lon="1.87601">
        <ele>230.6</ele>
        <time>2023-05-27T09:42:24Z</time>
      </trkpt>
      <trkpt lat="43.39973" lon="1.87607">
        <ele>230.6</ele>
        <time>2023-05-27T09:42:25Z</time>
      </trkpt>
      <trkpt lat="43.39974" lon="1.87612">
        <ele>230.6</ele>
        <time>2023-05-27T09:42:26Z</time>
      </trkpt>
      <trkpt lat="43.39975" lon="1.87616">
        <ele>230.6</ele>
        <time>2023-05-27T09:42:27Z</time>
      </trkpt>
      <trkpt lat="43.39976" lon="1.8762">
        <ele>230.6</ele>
        <time>2023-05-27T09:42:28Z</time>
      </trkpt>
      <trkpt lat="43.39976" lon="1.87625">
        <ele>230.4</ele>
        <time>2023-05-27T09:42:29Z</time>
      </trkpt>
      <trkpt lat="43.39977" lon="1.87631">
        <ele>230.4</ele>
        <time>2023-05-27T09:42:30Z</time>
      </trkpt>
      <trkpt lat="43.39977" lon="1.87636">
        <ele>230.4</ele>
        <time>2023-05-27T09:42:31Z</time>
      </trkpt>
      <trkpt lat="43.39977" lon="1.87641">
        <ele>230.4</ele>
        <time>2023-05-27T09:42:32Z</time>
      </trkpt>
      <trkpt lat="43.39979" lon="1.87644">
        <ele>230.4</ele>
        <time>2023-05-27T09:42:33Z</time>
      </trkpt>
      <trkpt lat="43.39981" lon="1.87646">
        <ele>230.4</ele>
        <time>2023-05-27T09:42:34Z</time>
      </trkpt>
      <trkpt lat="43.39984" lon="1.87648">
        <ele>230.6</ele>
        <time>2023-05-27T09:42:35Z</time>
      </trkpt>
      <trkpt lat="43.39987" lon="1.87651">
        <ele>230.4</ele>
        <time>2023-05-27T09:42:36Z</time>
      </trkpt>
      <trkpt lat="43.39989" lon="1.87654">
        <ele>230.6</ele>
        <time>2023-05-27T09:42:37Z</time>
      </trkpt>
      <trkpt lat="43.39991" lon="1.87656">
        <ele>230.6</ele>
        <time>2023-05-27T09:42:38Z</time>
      </trkpt>
      <trkpt lat="43.39993" lon="1.87657">
        <ele>230.4</ele>
        <time>2023-05-27T09:42:39Z</time>
      </trkpt>
      <trkpt lat="43.39996" lon="1.87659">
        <ele>230.4</ele>
        <time>2023-05-27T09:42:40Z</time>
      </trkpt>
      <trkpt lat="43.39998" lon="1.8766">
        <ele>230.4</ele>
        <time>2023-05-27T09:42:41Z</time>
      </trkpt>
      <trkpt lat="43.40001" lon="1.87662">
        <ele>230.6</ele>
        <time>2023-05-27T09:42:42Z</time>
      </trkpt>
      <trkpt lat="43.40004" lon="1.87664">
        <ele>230.6</ele>
        <time>2023-05-27T09:42:43Z</time>
      </trkpt>
      <trkpt lat="43.40007" lon="1.87665">
        <ele>230.6</ele>
        <time>2023-05-27T09:42:44Z</time>
      </trkpt>
      <trkpt lat="43.40009" lon="1.87666">
        <ele>230.6</ele>
        <time>2023-05-27T09:42:45Z</time>
      </trkpt>
      <trkpt lat="43.40011" lon="1.87666">
        <ele>230.6</ele>
        <time>2023-05-27T09:42:46Z</time>
      </trkpt>
      <trkpt lat="43.40013" lon="1.87667">
        <ele>230.8</ele>
        <time>2023-05-27T09:42:47Z</time>
      </trkpt>
      <trkpt lat="43.40016" lon="1.87668">
        <ele>230.8</ele>
        <time>2023-05-27T09:42:48Z</time>
      </trkpt>
      <trkpt lat="43.4002" lon="1.87669">
        <ele>230.8</ele>
        <time>2023-05-27T09:42:49Z</time>
      </trkpt>
      <trkpt lat="43.40023" lon="1.87671">
        <ele>230.8</ele>
        <time>2023-05-27T09:42:50Z</time>
      </trkpt>
      <trkpt lat="43.40025" lon="1.87673">
        <ele>230.8</ele>
        <time>2023-05-27T09:42:51Z</time>
      </trkpt>
      <trkpt lat="43.40028" lon="1.87676">
        <ele>231</ele>
        <time>2023-05-27T09:42:52Z</time>
      </trkpt>
      <trkpt lat="43.4003" lon="1.8768">
        <ele>231</ele>
        <time>2023-05-27T09:42:53Z</time>
      </trkpt>
      <trkpt lat="43.40031" lon="1.87685">
        <ele>231</ele>
        <time>2023-05-27T09:42:54Z</time>
      </trkpt>
      <trkpt lat="43.40033" lon="1.8769">
        <ele>231</ele>
        <time>2023-05-27T09:42:55Z</time>
      </trkpt>
      <trkpt lat="43.40035" lon="1.87695">
        <ele>231</ele>
        <time>2023-05-27T09:42:56Z</time>
      </trkpt>
      <trkpt lat="43.40037" lon="1.87701">
        <ele>231</ele>
        <time>2023-05-27T09:42:57Z</time>
      </trkpt>
      <trkpt lat="43.40039" lon="1.87706">
        <ele>231</ele>
        <time>2023-05-27T09:42:58Z</time>
      </trkpt>
      <trkpt lat="43.40041" lon="1.87711">
        <ele>231</ele>
        <time>2023-05-27T09:42:59Z</time>
      </trkpt>
      <trkpt lat="43.40042" lon="1.87716">
        <ele>231</ele>
        <time>2023-05-27T09:43:00Z</time>
      </trkpt>
      <trkpt lat="43.40043" lon="1.8772">
        <ele>231</ele>
        <time>2023-05-27T09:43:01Z</time>
      </trkpt>
      <trkpt lat="43.40045" lon="1.87725">
        <ele>231</ele>
        <time>2023-05-27T09:43:02Z</time>
      </trkpt>
      <trkpt lat="43.40048" lon="1.87729">
        <ele>231</ele>
        <time>2023-05-27T09:43:03Z</time>
      </trkpt>
      <trkpt lat="43.40049" lon="1.87733">
        <ele>231</ele>
        <time>2023-05-27T09:43:04Z</time>
      </trkpt>
      <trkpt lat="43.40051" lon="1.87736">
        <ele>231</ele>
        <time>2023-05-27T09:43:05Z</time>
      </trkpt>
      <trkpt lat="43.40053" lon="1.8774">
        <ele>230.8</ele>
        <time>2023-05-27T09:43:06Z</time>
      </trkpt>
      <trkpt lat="43.40056" lon="1.87743">
        <ele>230.8</ele>
        <time>2023-05-27T09:43:07Z</time>
      </trkpt>
      <trkpt lat="43.40058" lon="1.87746">
        <ele>230.8</ele>
        <time>2023-05-27T09:43:08Z</time>
      </trkpt>
      <trkpt lat="43.4006" lon="1.87749">
        <ele>231</ele>
        <time>2023-05-27T09:43:09Z</time>
      </trkpt>
      <trkpt lat="43.40063" lon="1.87752">
        <ele>231</ele>
        <time>2023-05-27T09:43:10Z</time>
      </trkpt>
      <trkpt lat="43.40067" lon="1.87756">
        <ele>231</ele>
        <time>2023-05-27T09:43:11Z</time>
      </trkpt>
      <trkpt lat="43.40072" lon="1.8776">
        <ele>231</ele>
        <time>2023-05-27T09:43:12Z</time>
      </trkpt>
      <trkpt lat="43.40075" lon="1.87763">
        <ele>231</ele>
        <time>2023-05-27T09:43:13Z</time>
      </trkpt>
      <trkpt lat="43.40078" lon="1.87766">
        <ele>231</ele>
        <time>2023-05-27T09:43:14Z</time>
      </trkpt>
      <trkpt lat="43.40081" lon="1.87768">
        <ele>231</ele>
        <time>2023-05-27T09:43:15Z</time>
      </trkpt>
      <trkpt lat="43.40085" lon="1.8777">
        <ele>231</ele>
        <time>2023-05-27T09:43:16Z</time>
      </trkpt>
      <trkpt lat="43.40088" lon="1.87772">
        <ele>231</ele>
        <time>2023-05-27T09:43:17Z</time>
      </trkpt>
      <trkpt lat="43.40092" lon="1.87773">
        <ele>231</ele>
        <time>2023-05-27T09:43:18Z</time>
      </trkpt>
      <trkpt lat="43.40095" lon="1.87776">
        <ele>231</ele>
        <time>2023-05-27T09:43:19Z</time>
      </trkpt>
      <trkpt lat="43.40099" lon="1.87777">
        <ele>231</ele>
        <time>2023-05-27T09:43:20Z</time>
      </trkpt>
      <trkpt lat="43.40104" lon="1.87777">
        <ele>231</ele>
        <time>2023-05-27T09:43:21Z</time>
      </trkpt>
      <trkpt lat="43.40108" lon="1.87776">
        <ele>231</ele>
        <time>2023-05-27T09:43:22Z</time>
      </trkpt>
      <trkpt lat="43.40112" lon="1.87776">
        <ele>231</ele>
        <time>2023-05-27T09:43:23Z</time>
      </trkpt>
      <trkpt lat="43.40116" lon="1.87775">
        <ele>231</ele>
        <time>2023-05-27T09:43:24Z</time>
      </trkpt>
      <trkpt lat="43.4012" lon="1.87775">
        <ele>231</ele>
        <time>2023-05-27T09:43:25Z</time>
      </trkpt>
      <trkpt lat="43.40124" lon="1.87772">
        <ele>231</ele>
        <time>2023-05-27T09:43:26Z</time>
      </trkpt>
      <trkpt lat="43.40128" lon="1.8777">
        <ele>231</ele>
        <time>2023-05-27T09:43:27Z</time>
      </trkpt>
      <trkpt lat="43.40132" lon="1.87767">
        <ele>231</ele>
        <time>2023-05-27T09:43:28Z</time>
      </trkpt>
      <trkpt lat="43.40137" lon="1.87766">
        <ele>231</ele>
        <time>2023-05-27T09:43:29Z</time>
      </trkpt>
      <trkpt lat="43.40141" lon="1.87764">
        <ele>231</ele>
        <time>2023-05-27T09:43:30Z</time>
      </trkpt>
      <trkpt lat="43.40144" lon="1.87763">
        <ele>231</ele>
        <time>2023-05-27T09:43:31Z</time>
      </trkpt>
      <trkpt lat="43.40149" lon="1.87761">
        <ele>231.2</ele>
        <time>2023-05-27T09:43:32Z</time>
      </trkpt>
      <trkpt lat="43.40154" lon="1.8776">
        <ele>231.2</ele>
        <time>2023-05-27T09:43:33Z</time>
      </trkpt>
      <trkpt lat="43.40157" lon="1.87759">
        <ele>231.2</ele>
        <time>2023-05-27T09:43:34Z</time>
      </trkpt>
      <trkpt lat="43.40159" lon="1.87759">
        <ele>231.2</ele>
        <time>2023-05-27T09:43:35Z</time>
      </trkpt>
      <trkpt lat="43.40161" lon="1.87759">
        <ele>231.2</ele>
        <time>2023-05-27T09:43:36Z</time>
      </trkpt>
      <trkpt lat="43.40164" lon="1.87758">
        <ele>231.2</ele>
        <time>2023-05-27T09:43:37Z</time>
      </trkpt>
      <trkpt lat="43.40168" lon="1.87758">
        <ele>231.2</ele>
        <time>2023-05-27T09:43:38Z</time>
      </trkpt>
      <trkpt lat="43.40172" lon="1.87758">
        <ele>231.2</ele>
        <time>2023-05-27T09:43:39Z</time>
      </trkpt>
      <trkpt lat="43.40175" lon="1.87757">
        <ele>231.4</ele>
        <time>2023-05-27T09:43:40Z</time>
      </trkpt>
      <trkpt lat="43.40178" lon="1.87757">
        <ele>231.4</ele>
        <time>2023-05-27T09:43:41Z</time>
      </trkpt>
      <trkpt lat="43.40182" lon="1.87757">
        <ele>231.4</ele>
        <time>2023-05-27T09:43:42Z</time>
      </trkpt>
      <trkpt lat="43.40186" lon="1.87757">
        <ele>231.4</ele>
        <time>2023-05-27T09:43:43Z</time>
      </trkpt>
      <trkpt lat="43.4019" lon="1.87757">
        <ele>231.4</ele>
        <time>2023-05-27T09:43:44Z</time>
      </trkpt>
      <trkpt lat="43.40194" lon="1.87757">
        <ele>231.4</ele>
        <time>2023-05-27T09:43:45Z</time>
      </trkpt>
      <trkpt lat="43.40197" lon="1.87757">
        <ele>231.4</ele>
        <time>2023-05-27T09:43:46Z</time>
      </trkpt>
      <trkpt lat="43.402" lon="1.87757">
        <ele>231.4</ele>
        <time>2023-05-27T09:43:47Z</time>
      </trkpt>
      <trkpt lat="43.40203" lon="1.87758">
        <ele>231.4</ele>
        <time>2023-05-27T09:43:48Z</time>
      </trkpt>
      <trkpt lat="43.40206" lon="1.87759">
        <ele>231.4</ele>
        <time>2023-05-27T09:43:49Z</time>
      </trkpt>
      <trkpt lat="43.40209" lon="1.87758">
        <ele>231.4</ele>
        <time>2023-05-27T09:43:50Z</time>
      </trkpt>
      <trkpt lat="43.40213" lon="1.87758">
        <ele>231.4</ele>
        <time>2023-05-27T09:43:51Z</time>
      </trkpt>
      <trkpt lat="43.40216" lon="1.87758">
        <ele>231.4</ele>
        <time>2023-05-27T09:43:52Z</time>
      </trkpt>
      <trkpt lat="43.40219" lon="1.87757">
        <ele>231.6</ele>
        <time>2023-05-27T09:43:53Z</time>
      </trkpt>
      <trkpt lat="43.40222" lon="1.87757">
        <ele>231.6</ele>
        <time>2023-05-27T09:43:54Z</time>
      </trkpt>
      <trkpt lat="43.40224" lon="1.87757">
        <ele>231.8</ele>
        <time>2023-05-27T09:43:55Z</time>
      </trkpt>
      <trkpt lat="43.40227" lon="1.87756">
        <ele>231.8</ele>
        <time>2023-05-27T09:43:56Z</time>
      </trkpt>
      <trkpt lat="43.40229" lon="1.87756">
        <ele>231.8</ele>
        <time>2023-05-27T09:43:57Z</time>
      </trkpt>
      <trkpt lat="43.40232" lon="1.87755">
        <ele>232</ele>
        <time>2023-05-27T09:43:58Z</time>
      </trkpt>
      <trkpt lat="43.40235" lon="1.87755">
        <ele>232</ele>
        <time>2023-05-27T09:43:59Z</time>
      </trkpt>
      <trkpt lat="43.40238" lon="1.87756">
        <ele>232.2</ele>
        <time>2023-05-27T09:44:00Z</time>
      </trkpt>
      <trkpt lat="43.4024" lon="1.87756">
        <ele>232.2</ele>
        <time>2023-05-27T09:44:01Z</time>
      </trkpt>
      <trkpt lat="43.40243" lon="1.87757">
        <ele>232.2</ele>
        <time>2023-05-27T09:44:02Z</time>
      </trkpt>
      <trkpt lat="43.40246" lon="1.87759">
        <ele>232.2</ele>
        <time>2023-05-27T09:44:03Z</time>
      </trkpt>
      <trkpt lat="43.40248" lon="1.87762">
        <ele>232.2</ele>
        <time>2023-05-27T09:44:04Z</time>
      </trkpt>
      <trkpt lat="43.4025" lon="1.87764">
        <ele>232.2</ele>
        <time>2023-05-27T09:44:05Z</time>
      </trkpt>
      <trkpt lat="43.40252" lon="1.87766">
        <ele>232.2</ele>
        <time>2023-05-27T09:44:06Z</time>
      </trkpt>
      <trkpt lat="43.40254" lon="1.87767">
        <ele>232.2</ele>
        <time>2023-05-27T09:44:07Z</time>
      </trkpt>
      <trkpt lat="43.40256" lon="1.8777">
        <ele>232.2</ele>
        <time>2023-05-27T09:44:08Z</time>
      </trkpt>
      <trkpt lat="43.40259" lon="1.87773">
        <ele>232.2</ele>
        <time>2023-05-27T09:44:09Z</time>
      </trkpt>
      <trkpt lat="43.40262" lon="1.87777">
        <ele>232.2</ele>
        <time>2023-05-27T09:44:10Z</time>
      </trkpt>
      <trkpt lat="43.40266" lon="1.87781">
        <ele>232.2</ele>
        <time>2023-05-27T09:44:11Z</time>
      </trkpt>
      <trkpt lat="43.40269" lon="1.87785">
        <ele>232</ele>
        <time>2023-05-27T09:44:12Z</time>
      </trkpt>
      <trkpt lat="43.40272" lon="1.87789">
        <ele>232</ele>
        <time>2023-05-27T09:44:13Z</time>
      </trkpt>
      <trkpt lat="43.40275" lon="1.87792">
        <ele>232</ele>
        <time>2023-05-27T09:44:14Z</time>
      </trkpt>
      <trkpt lat="43.40278" lon="1.87796">
        <ele>232</ele>
        <time>2023-05-27T09:44:15Z</time>
      </trkpt>
      <trkpt lat="43.40281" lon="1.87799">
        <ele>232</ele>
        <time>2023-05-27T09:44:16Z</time>
      </trkpt>
      <trkpt lat="43.40284" lon="1.87802">
        <ele>232</ele>
        <time>2023-05-27T09:44:17Z</time>
      </trkpt>
      <trkpt lat="43.40287" lon="1.87804">
        <ele>232</ele>
        <time>2023-05-27T09:44:18Z</time>
      </trkpt>
      <trkpt lat="43.4029" lon="1.87805">
        <ele>232</ele>
        <time>2023-05-27T09:44:19Z</time>
      </trkpt>
      <trkpt lat="43.40294" lon="1.87806">
        <ele>232</ele>
        <time>2023-05-27T09:44:20Z</time>
      </trkpt>
      <trkpt lat="43.40297" lon="1.87807">
        <ele>232</ele>
        <time>2023-05-27T09:44:21Z</time>
      </trkpt>
      <trkpt lat="43.403" lon="1.87807">
        <ele>232</ele>
        <time>2023-05-27T09:44:22Z</time>
      </trkpt>
      <trkpt lat="43.40304" lon="1.87806">
        <ele>232</ele>
        <time>2023-05-27T09:44:23Z</time>
      </trkpt>
      <trkpt lat="43.40308" lon="1.87806">
        <ele>232</ele>
        <time>2023-05-27T09:44:24Z</time>
      </trkpt>
      <trkpt lat="43.40312" lon="1.87806">
        <ele>232</ele>
        <time>2023-05-27T09:44:25Z</time>
      </trkpt>
      <trkpt lat="43.40316" lon="1.87806">
        <ele>232.2</ele>
        <time>2023-05-27T09:44:26Z</time>
      </trkpt>
      <trkpt lat="43.40321" lon="1.87808">
        <ele>232.2</ele>
        <time>2023-05-27T09:44:27Z</time>
      </trkpt>
      <trkpt lat="43.40323" lon="1.87808">
        <ele>232.2</ele>
        <time>2023-05-27T09:44:28Z</time>
      </trkpt>
      <trkpt lat="43.40326" lon="1.87809">
        <ele>232.2</ele>
        <time>2023-05-27T09:44:29Z</time>
      </trkpt>
      <trkpt lat="43.4033" lon="1.87809">
        <ele>232.4</ele>
        <time>2023-05-27T09:44:30Z</time>
      </trkpt>
      <trkpt lat="43.40332" lon="1.87811">
        <ele>232.4</ele>
        <time>2023-05-27T09:44:31Z</time>
      </trkpt>
      <trkpt lat="43.40334" lon="1.87813">
        <ele>232.4</ele>
        <time>2023-05-27T09:44:32Z</time>
      </trkpt>
      <trkpt lat="43.40335" lon="1.87818">
        <ele>232.4</ele>
        <time>2023-05-27T09:44:33Z</time>
      </trkpt>
      <trkpt lat="43.40337" lon="1.87823">
        <ele>232.4</ele>
        <time>2023-05-27T09:44:34Z</time>
      </trkpt>
      <trkpt lat="43.40338" lon="1.87828">
        <ele>232.4</ele>
        <time>2023-05-27T09:44:35Z</time>
      </trkpt>
      <trkpt lat="43.40339" lon="1.87833">
        <ele>232.4</ele>
        <time>2023-05-27T09:44:36Z</time>
      </trkpt>
      <trkpt lat="43.40339" lon="1.87837">
        <ele>232.4</ele>
        <time>2023-05-27T09:44:37Z</time>
      </trkpt>
      <trkpt lat="43.40338" lon="1.87841">
        <ele>232.2</ele>
        <time>2023-05-27T09:44:38Z</time>
      </trkpt>
      <trkpt lat="43.40338" lon="1.87846">
        <ele>232.2</ele>
        <time>2023-05-27T09:44:39Z</time>
      </trkpt>
      <trkpt lat="43.40337" lon="1.8785">
        <ele>232.2</ele>
        <time>2023-05-27T09:44:40Z</time>
      </trkpt>
      <trkpt lat="43.40336" lon="1.87855">
        <ele>232.2</ele>
        <time>2023-05-27T09:44:41Z</time>
      </trkpt>
      <trkpt lat="43.40335" lon="1.87859">
        <ele>232</ele>
        <time>2023-05-27T09:44:42Z</time>
      </trkpt>
      <trkpt lat="43.40334" lon="1.87864">
        <ele>232</ele>
        <time>2023-05-27T09:44:43Z</time>
      </trkpt>
      <trkpt lat="43.40333" lon="1.87868">
        <ele>232</ele>
        <time>2023-05-27T09:44:44Z</time>
      </trkpt>
      <trkpt lat="43.40331" lon="1.87871">
        <ele>232</ele>
        <time>2023-05-27T09:44:45Z</time>
      </trkpt>
      <trkpt lat="43.4033" lon="1.87875">
        <ele>232</ele>
        <time>2023-05-27T09:44:46Z</time>
      </trkpt>
      <trkpt lat="43.40328" lon="1.8788">
        <ele>232</ele>
        <time>2023-05-27T09:44:47Z</time>
      </trkpt>
      <trkpt lat="43.40326" lon="1.87884">
        <ele>231.8</ele>
        <time>2023-05-27T09:44:48Z</time>
      </trkpt>
      <trkpt lat="43.40323" lon="1.87889">
        <ele>231.8</ele>
        <time>2023-05-27T09:44:49Z</time>
      </trkpt>
      <trkpt lat="43.4032" lon="1.87893">
        <ele>231.6</ele>
        <time>2023-05-27T09:44:50Z</time>
      </trkpt>
      <trkpt lat="43.40318" lon="1.87897">
        <ele>231.6</ele>
        <time>2023-05-27T09:44:51Z</time>
      </trkpt>
      <trkpt lat="43.40315" lon="1.87902">
        <ele>231.6</ele>
        <time>2023-05-27T09:44:52Z</time>
      </trkpt>
      <trkpt lat="43.40314" lon="1.87906">
        <ele>231.6</ele>
        <time>2023-05-27T09:44:53Z</time>
      </trkpt>
      <trkpt lat="43.40312" lon="1.8791">
        <ele>231.6</ele>
        <time>2023-05-27T09:44:54Z</time>
      </trkpt>
      <trkpt lat="43.40311" lon="1.87915">
        <ele>231.6</ele>
        <time>2023-05-27T09:44:55Z</time>
      </trkpt>
      <trkpt lat="43.4031" lon="1.87919">
        <ele>231.6</ele>
        <time>2023-05-27T09:44:56Z</time>
      </trkpt>
      <trkpt lat="43.40309" lon="1.87924">
        <ele>231.6</ele>
        <time>2023-05-27T09:44:57Z</time>
      </trkpt>
      <trkpt lat="43.40308" lon="1.87928">
        <ele>231.6</ele>
        <time>2023-05-27T09:44:58Z</time>
      </trkpt>
      <trkpt lat="43.40306" lon="1.87932">
        <ele>231.6</ele>
        <time>2023-05-27T09:44:59Z</time>
      </trkpt>
      <trkpt lat="43.40304" lon="1.87938">
        <ele>231.6</ele>
        <time>2023-05-27T09:45:00Z</time>
      </trkpt>
      <trkpt lat="43.40301" lon="1.87945">
        <ele>231.6</ele>
        <time>2023-05-27T09:45:01Z</time>
      </trkpt>
      <trkpt lat="43.40299" lon="1.87951">
        <ele>231.8</ele>
        <time>2023-05-27T09:45:02Z</time>
      </trkpt>
      <trkpt lat="43.40296" lon="1.87957">
        <ele>231.8</ele>
        <time>2023-05-27T09:45:03Z</time>
      </trkpt>
      <trkpt lat="43.40293" lon="1.87962">
        <ele>231.6</ele>
        <time>2023-05-27T09:45:04Z</time>
      </trkpt>
      <trkpt lat="43.40291" lon="1.87967">
        <ele>231.6</ele>
        <time>2023-05-27T09:45:05Z</time>
      </trkpt>
      <trkpt lat="43.40289" lon="1.87972">
        <ele>231.6</ele>
        <time>2023-05-27T09:45:06Z</time>
      </trkpt>
      <trkpt lat="43.40287" lon="1.87977">
        <ele>231.6</ele>
        <time>2023-05-27T09:45:07Z</time>
      </trkpt>
      <trkpt lat="43.40284" lon="1.87983">
        <ele>231.6</ele>
        <time>2023-05-27T09:45:08Z</time>
      </trkpt>
      <trkpt lat="43.40283" lon="1.87989">
        <ele>231.6</ele>
        <time>2023-05-27T09:45:09Z</time>
      </trkpt>
      <trkpt lat="43.40281" lon="1.87995">
        <ele>231.6</ele>
        <time>2023-05-27T09:45:10Z</time>
      </trkpt>
      <trkpt lat="43.40279" lon="1.88001">
        <ele>231.4</ele>
        <time>2023-05-27T09:45:11Z</time>
      </trkpt>
      <trkpt lat="43.40277" lon="1.88007">
        <ele>231.4</ele>
        <time>2023-05-27T09:45:12Z</time>
      </trkpt>
      <trkpt lat="43.40275" lon="1.88013">
        <ele>231.4</ele>
        <time>2023-05-27T09:45:13Z</time>
      </trkpt>
      <trkpt lat="43.40273" lon="1.88018">
        <ele>231.4</ele>
        <time>2023-05-27T09:45:14Z</time>
      </trkpt>
      <trkpt lat="43.40272" lon="1.88023">
        <ele>231.4</ele>
        <time>2023-05-27T09:45:15Z</time>
      </trkpt>
      <trkpt lat="43.40271" lon="1.88028">
        <ele>231.4</ele>
        <time>2023-05-27T09:45:16Z</time>
      </trkpt>
      <trkpt lat="43.40271" lon="1.88034">
        <ele>231.2</ele>
        <time>2023-05-27T09:45:17Z</time>
      </trkpt>
      <trkpt lat="43.40272" lon="1.88039">
        <ele>231.2</ele>
        <time>2023-05-27T09:45:18Z</time>
      </trkpt>
      <trkpt lat="43.40273" lon="1.88044">
        <ele>231.2</ele>
        <time>2023-05-27T09:45:19Z</time>
      </trkpt>
      <trkpt lat="43.40274" lon="1.88049">
        <ele>231.2</ele>
        <time>2023-05-27T09:45:20Z</time>
      </trkpt>
      <trkpt lat="43.40276" lon="1.88052">
        <ele>231.2</ele>
        <time>2023-05-27T09:45:21Z</time>
      </trkpt>
      <trkpt lat="43.40277" lon="1.88056">
        <ele>231.2</ele>
        <time>2023-05-27T09:45:22Z</time>
      </trkpt>
      <trkpt lat="43.40279" lon="1.88059">
        <ele>231.2</ele>
        <time>2023-05-27T09:45:23Z</time>
      </trkpt>
      <trkpt lat="43.40281" lon="1.88063">
        <ele>231.2</ele>
        <time>2023-05-27T09:45:24Z</time>
      </trkpt>
      <trkpt lat="43.40283" lon="1.88065">
        <ele>231.2</ele>
        <time>2023-05-27T09:45:25Z</time>
      </trkpt>
      <trkpt lat="43.40284" lon="1.88068">
        <ele>231.2</ele>
        <time>2023-05-27T09:45:26Z</time>
      </trkpt>
      <trkpt lat="43.40286" lon="1.88071">
        <ele>231.2</ele>
        <time>2023-05-27T09:45:27Z</time>
      </trkpt>
      <trkpt lat="43.40288" lon="1.88074">
        <ele>231.2</ele>
        <time>2023-05-27T09:45:28Z</time>
      </trkpt>
      <trkpt lat="43.40291" lon="1.88078">
        <ele>231.2</ele>
        <time>2023-05-27T09:45:29Z</time>
      </trkpt>
      <trkpt lat="43.40293" lon="1.88081">
        <ele>231.4</ele>
        <time>2023-05-27T09:45:30Z</time>
      </trkpt>
      <trkpt lat="43.40296" lon="1.88084">
        <ele>231.4</ele>
        <time>2023-05-27T09:45:31Z</time>
      </trkpt>
      <trkpt lat="43.40298" lon="1.88086">
        <ele>231.4</ele>
        <time>2023-05-27T09:45:32Z</time>
      </trkpt>
      <trkpt lat="43.403" lon="1.88088">
        <ele>231.4</ele>
        <time>2023-05-27T09:45:33Z</time>
      </trkpt>
      <trkpt lat="43.40302" lon="1.88091">
        <ele>231.2</ele>
        <time>2023-05-27T09:45:34Z</time>
      </trkpt>
      <trkpt lat="43.40305" lon="1.88095">
        <ele>231.2</ele>
        <time>2023-05-27T09:45:35Z</time>
      </trkpt>
      <trkpt lat="43.40306" lon="1.88098">
        <ele>231.2</ele>
        <time>2023-05-27T09:45:36Z</time>
      </trkpt>
      <trkpt lat="43.40309" lon="1.88102">
        <ele>231.2</ele>
        <time>2023-05-27T09:45:37Z</time>
      </trkpt>
      <trkpt lat="43.40311" lon="1.88107">
        <ele>231.4</ele>
        <time>2023-05-27T09:45:38Z</time>
      </trkpt>
      <trkpt lat="43.40313" lon="1.88112">
        <ele>231.4</ele>
        <time>2023-05-27T09:45:39Z</time>
      </trkpt>
      <trkpt lat="43.40316" lon="1.88117">
        <ele>231.4</ele>
        <time>2023-05-27T09:45:40Z</time>
      </trkpt>
      <trkpt lat="43.40318" lon="1.88123">
        <ele>231.6</ele>
        <time>2023-05-27T09:45:41Z</time>
      </trkpt>
      <trkpt lat="43.4032" lon="1.88127">
        <ele>231.6</ele>
        <time>2023-05-27T09:45:42Z</time>
      </trkpt>
      <trkpt lat="43.40321" lon="1.88132">
        <ele>231.6</ele>
        <time>2023-05-27T09:45:43Z</time>
      </trkpt>
      <trkpt lat="43.40323" lon="1.88136">
        <ele>231.6</ele>
        <time>2023-05-27T09:45:44Z</time>
      </trkpt>
      <trkpt lat="43.40325" lon="1.88141">
        <ele>231.6</ele>
        <time>2023-05-27T09:45:45Z</time>
      </trkpt>
      <trkpt lat="43.40326" lon="1.88145">
        <ele>231.6</ele>
        <time>2023-05-27T09:45:46Z</time>
      </trkpt>
      <trkpt lat="43.40327" lon="1.8815">
        <ele>231.6</ele>
        <time>2023-05-27T09:45:47Z</time>
      </trkpt>
      <trkpt lat="43.40328" lon="1.88154">
        <ele>231.6</ele>
        <time>2023-05-27T09:45:48Z</time>
      </trkpt>
      <trkpt lat="43.40329" lon="1.88158">
        <ele>231.6</ele>
        <time>2023-05-27T09:45:49Z</time>
      </trkpt>
      <trkpt lat="43.40329" lon="1.88162">
        <ele>231.6</ele>
        <time>2023-05-27T09:45:50Z</time>
      </trkpt>
      <trkpt lat="43.4033" lon="1.88165">
        <ele>231.6</ele>
        <time>2023-05-27T09:45:51Z</time>
      </trkpt>
      <trkpt lat="43.4033" lon="1.88169">
        <ele>231.6</ele>
        <time>2023-05-27T09:45:52Z</time>
      </trkpt>
      <trkpt lat="43.40331" lon="1.88172">
        <ele>231.6</ele>
        <time>2023-05-27T09:45:53Z</time>
      </trkpt>
      <trkpt lat="43.40331" lon="1.88176">
        <ele>231.4</ele>
        <time>2023-05-27T09:45:54Z</time>
      </trkpt>
      <trkpt lat="43.40331" lon="1.88178">
        <ele>231.4</ele>
        <time>2023-05-27T09:45:55Z</time>
      </trkpt>
      <trkpt lat="43.40331" lon="1.8818">
        <ele>231.4</ele>
        <time>2023-05-27T09:45:56Z</time>
      </trkpt>
      <trkpt lat="43.40331" lon="1.88182">
        <ele>231.6</ele>
        <time>2023-05-27T09:45:57Z</time>
      </trkpt>
      <trkpt lat="43.4033" lon="1.88184">
        <ele>231.6</ele>
        <time>2023-05-27T09:45:58Z</time>
      </trkpt>
      <trkpt lat="43.40329" lon="1.88187">
        <ele>231.6</ele>
        <time>2023-05-27T09:45:59Z</time>
      </trkpt>
      <trkpt lat="43.40329" lon="1.8819">
        <ele>231.6</ele>
        <time>2023-05-27T09:46:00Z</time>
      </trkpt>
      <trkpt lat="43.40328" lon="1.88193">
        <ele>231.6</ele>
        <time>2023-05-27T09:46:01Z</time>
      </trkpt>
      <trkpt lat="43.40328" lon="1.88196">
        <ele>231.8</ele>
        <time>2023-05-27T09:46:02Z</time>
      </trkpt>
      <trkpt lat="43.40327" lon="1.88199">
        <ele>231.8</ele>
        <time>2023-05-27T09:46:03Z</time>
      </trkpt>
      <trkpt lat="43.40326" lon="1.88201">
        <ele>231.8</ele>
        <time>2023-05-27T09:46:04Z</time>
      </trkpt>
      <trkpt lat="43.40325" lon="1.88204">
        <ele>231.8</ele>
        <time>2023-05-27T09:46:05Z</time>
      </trkpt>
      <trkpt lat="43.40325" lon="1.88207">
        <ele>231.8</ele>
        <time>2023-05-27T09:46:06Z</time>
      </trkpt>
      <trkpt lat="43.40324" lon="1.88211">
        <ele>231.8</ele>
        <time>2023-05-27T09:46:07Z</time>
      </trkpt>
      <trkpt lat="43.40323" lon="1.88215">
        <ele>231.8</ele>
        <time>2023-05-27T09:46:08Z</time>
      </trkpt>
      <trkpt lat="43.40322" lon="1.8822">
        <ele>231.8</ele>
        <time>2023-05-27T09:46:09Z</time>
      </trkpt>
      <trkpt lat="43.4032" lon="1.88224">
        <ele>231.6</ele>
        <time>2023-05-27T09:46:10Z</time>
      </trkpt>
      <trkpt lat="43.4032" lon="1.88229">
        <ele>231.6</ele>
        <time>2023-05-27T09:46:11Z</time>
      </trkpt>
      <trkpt lat="43.40319" lon="1.88233">
        <ele>231.6</ele>
        <time>2023-05-27T09:46:12Z</time>
      </trkpt>
      <trkpt lat="43.40319" lon="1.88238">
        <ele>231.6</ele>
        <time>2023-05-27T09:46:13Z</time>
      </trkpt>
      <trkpt lat="43.40318" lon="1.88243">
        <ele>231.6</ele>
        <time>2023-05-27T09:46:14Z</time>
      </trkpt>
      <trkpt lat="43.40317" lon="1.88247">
        <ele>231.6</ele>
        <time>2023-05-27T09:46:15Z</time>
      </trkpt>
      <trkpt lat="43.40316" lon="1.88252">
        <ele>231.6</ele>
        <time>2023-05-27T09:46:16Z</time>
      </trkpt>
      <trkpt lat="43.40316" lon="1.88257">
        <ele>231.6</ele>
        <time>2023-05-27T09:46:17Z</time>
      </trkpt>
      <trkpt lat="43.40315" lon="1.88262">
        <ele>231.6</ele>
        <time>2023-05-27T09:46:18Z</time>
      </trkpt>
      <trkpt lat="43.40314" lon="1.88268">
        <ele>231.6</ele>
        <time>2023-05-27T09:46:19Z</time>
      </trkpt>
      <trkpt lat="43.40313" lon="1.88273">
        <ele>231.6</ele>
        <time>2023-05-27T09:46:20Z</time>
      </trkpt>
      <trkpt lat="43.40311" lon="1.88277">
        <ele>231.6</ele>
        <time>2023-05-27T09:46:21Z</time>
      </trkpt>
      <trkpt lat="43.4031" lon="1.88282">
        <ele>231.6</ele>
        <time>2023-05-27T09:46:22Z</time>
      </trkpt>
      <trkpt lat="43.40308" lon="1.88287">
        <ele>231.6</ele>
        <time>2023-05-27T09:46:23Z</time>
      </trkpt>
      <trkpt lat="43.40307" lon="1.88292">
        <ele>231.6</ele>
        <time>2023-05-27T09:46:24Z</time>
      </trkpt>
      <trkpt lat="43.40306" lon="1.88297">
        <ele>231.6</ele>
        <time>2023-05-27T09:46:25Z</time>
      </trkpt>
      <trkpt lat="43.40305" lon="1.88301">
        <ele>231.6</ele>
        <time>2023-05-27T09:46:26Z</time>
      </trkpt>
      <trkpt lat="43.40304" lon="1.88306">
        <ele>231.6</ele>
        <time>2023-05-27T09:46:27Z</time>
      </trkpt>
      <trkpt lat="43.40303" lon="1.88312">
        <ele>231.6</ele>
        <time>2023-05-27T09:46:28Z</time>
      </trkpt>
      <trkpt lat="43.40301" lon="1.88317">
        <ele>231.6</ele>
        <time>2023-05-27T09:46:29Z</time>
      </trkpt>
      <trkpt lat="43.40299" lon="1.88323">
        <ele>231.4</ele>
        <time>2023-05-27T09:46:30Z</time>
      </trkpt>
      <trkpt lat="43.40297" lon="1.88328">
        <ele>231.4</ele>
        <time>2023-05-27T09:46:31Z</time>
      </trkpt>
      <trkpt lat="43.40295" lon="1.88333">
        <ele>231.4</ele>
        <time>2023-05-27T09:46:32Z</time>
      </trkpt>
      <trkpt lat="43.40293" lon="1.88339">
        <ele>231.4</ele>
        <time>2023-05-27T09:46:33Z</time>
      </trkpt>
      <trkpt lat="43.4029" lon="1.88345">
        <ele>231.4</ele>
        <time>2023-05-27T09:46:34Z</time>
      </trkpt>
      <trkpt lat="43.40288" lon="1.88353">
        <ele>231.2</ele>
        <time>2023-05-27T09:46:35Z</time>
      </trkpt>
      <trkpt lat="43.40285" lon="1.88361">
        <ele>231.2</ele>
        <time>2023-05-27T09:46:36Z</time>
      </trkpt>
      <trkpt lat="43.40283" lon="1.88369">
        <ele>231.2</ele>
        <time>2023-05-27T09:46:37Z</time>
      </trkpt>
      <trkpt lat="43.40282" lon="1.88375">
        <ele>231.2</ele>
        <time>2023-05-27T09:46:38Z</time>
      </trkpt>
      <trkpt lat="43.40281" lon="1.8838">
        <ele>231.2</ele>
        <time>2023-05-27T09:46:39Z</time>
      </trkpt>
      <trkpt lat="43.4028" lon="1.88385">
        <ele>231.2</ele>
        <time>2023-05-27T09:46:40Z</time>
      </trkpt>
      <trkpt lat="43.4028" lon="1.88391">
        <ele>231.2</ele>
        <time>2023-05-27T09:46:41Z</time>
      </trkpt>
      <trkpt lat="43.4028" lon="1.88396">
        <ele>231.2</ele>
        <time>2023-05-27T09:46:42Z</time>
      </trkpt>
      <trkpt lat="43.4028" lon="1.884">
        <ele>231.2</ele>
        <time>2023-05-27T09:46:43Z</time>
      </trkpt>
      <trkpt lat="43.40281" lon="1.88403">
        <ele>231.2</ele>
        <time>2023-05-27T09:46:44Z</time>
      </trkpt>
      <trkpt lat="43.40281" lon="1.88406">
        <ele>231</ele>
        <time>2023-05-27T09:46:45Z</time>
      </trkpt>
      <trkpt lat="43.40282" lon="1.88409">
        <ele>231</ele>
        <time>2023-05-27T09:46:46Z</time>
      </trkpt>
      <trkpt lat="43.40282" lon="1.88411">
        <ele>231.2</ele>
        <time>2023-05-27T09:46:47Z</time>
      </trkpt>
      <trkpt lat="43.40283" lon="1.88413">
        <ele>231.2</ele>
        <time>2023-05-27T09:46:48Z</time>
      </trkpt>
      <trkpt lat="43.40283" lon="1.88416">
        <ele>231.2</ele>
        <time>2023-05-27T09:46:49Z</time>
      </trkpt>
      <trkpt lat="43.40283" lon="1.8842">
        <ele>231</ele>
        <time>2023-05-27T09:46:50Z</time>
      </trkpt>
      <trkpt lat="43.40283" lon="1.88423">
        <ele>231</ele>
        <time>2023-05-27T09:46:51Z</time>
      </trkpt>
      <trkpt lat="43.40284" lon="1.88426">
        <ele>231</ele>
        <time>2023-05-27T09:46:52Z</time>
      </trkpt>
      <trkpt lat="43.40285" lon="1.88429">
        <ele>231</ele>
        <time>2023-05-27T09:46:53Z</time>
      </trkpt>
      <trkpt lat="43.40287" lon="1.88432">
        <ele>231</ele>
        <time>2023-05-27T09:46:54Z</time>
      </trkpt>
      <trkpt lat="43.40288" lon="1.88434">
        <ele>231</ele>
        <time>2023-05-27T09:46:55Z</time>
      </trkpt>
      <trkpt lat="43.4029" lon="1.88436">
        <ele>231</ele>
        <time>2023-05-27T09:46:56Z</time>
      </trkpt>
      <trkpt lat="43.40291" lon="1.88437">
        <ele>231</ele>
        <time>2023-05-27T09:46:57Z</time>
      </trkpt>
      <trkpt lat="43.40293" lon="1.88439">
        <ele>231</ele>
        <time>2023-05-27T09:46:58Z</time>
      </trkpt>
      <trkpt lat="43.40295" lon="1.8844">
        <ele>231.2</ele>
        <time>2023-05-27T09:46:59Z</time>
      </trkpt>
      <trkpt lat="43.40297" lon="1.88441">
        <ele>231.2</ele>
        <time>2023-05-27T09:47:00Z</time>
      </trkpt>
      <trkpt lat="43.403" lon="1.88442">
        <ele>231.2</ele>
        <time>2023-05-27T09:47:01Z</time>
      </trkpt>
      <trkpt lat="43.40302" lon="1.88443">
        <ele>231.2</ele>
        <time>2023-05-27T09:47:02Z</time>
      </trkpt>
      <trkpt lat="43.40304" lon="1.88444">
        <ele>231.2</ele>
        <time>2023-05-27T09:47:03Z</time>
      </trkpt>
      <trkpt lat="43.40306" lon="1.88445">
        <ele>231.2</ele>
        <time>2023-05-27T09:47:04Z</time>
      </trkpt>
      <trkpt lat="43.40308" lon="1.88445">
        <ele>231.2</ele>
        <time>2023-05-27T09:47:05Z</time>
      </trkpt>
      <trkpt lat="43.4031" lon="1.88445">
        <ele>231.2</ele>
        <time>2023-05-27T09:47:06Z</time>
      </trkpt>
      <trkpt lat="43.40312" lon="1.88445">
        <ele>231.4</ele>
        <time>2023-05-27T09:47:07Z</time>
      </trkpt>
      <trkpt lat="43.40315" lon="1.88443">
        <ele>231.4</ele>
        <time>2023-05-27T09:47:08Z</time>
      </trkpt>
      <trkpt lat="43.40318" lon="1.88441">
        <ele>231.4</ele>
        <time>2023-05-27T09:47:09Z</time>
      </trkpt>
      <trkpt lat="43.40321" lon="1.88439">
        <ele>231.4</ele>
        <time>2023-05-27T09:47:10Z</time>
      </trkpt>
      <trkpt lat="43.40324" lon="1.88437">
        <ele>231.4</ele>
        <time>2023-05-27T09:47:11Z</time>
      </trkpt>
      <trkpt lat="43.40327" lon="1.88435">
        <ele>231.4</ele>
        <time>2023-05-27T09:47:12Z</time>
      </trkpt>
      <trkpt lat="43.40329" lon="1.88433">
        <ele>231.4</ele>
        <time>2023-05-27T09:47:13Z</time>
      </trkpt>
      <trkpt lat="43.40331" lon="1.88432">
        <ele>231.4</ele>
        <time>2023-05-27T09:47:14Z</time>
      </trkpt>
      <trkpt lat="43.40333" lon="1.88431">
        <ele>231.4</ele>
        <time>2023-05-27T09:47:15Z</time>
      </trkpt>
      <trkpt lat="43.40335" lon="1.88429">
        <ele>231.4</ele>
        <time>2023-05-27T09:47:16Z</time>
      </trkpt>
      <trkpt lat="43.40337" lon="1.88427">
        <ele>231.4</ele>
        <time>2023-05-27T09:47:17Z</time>
      </trkpt>
      <trkpt lat="43.4034" lon="1.88424">
        <ele>231.4</ele>
        <time>2023-05-27T09:47:18Z</time>
      </trkpt>
      <trkpt lat="43.40344" lon="1.8842">
        <ele>231.2</ele>
        <time>2023-05-27T09:47:19Z</time>
      </trkpt>
      <trkpt lat="43.40348" lon="1.88417">
        <ele>231.4</ele>
        <time>2023-05-27T09:47:20Z</time>
      </trkpt>
      <trkpt lat="43.40352" lon="1.88413">
        <ele>231.2</ele>
        <time>2023-05-27T09:47:21Z</time>
      </trkpt>
      <trkpt lat="43.40356" lon="1.88411">
        <ele>231.2</ele>
        <time>2023-05-27T09:47:22Z</time>
      </trkpt>
      <trkpt lat="43.40359" lon="1.88408">
        <ele>231.2</ele>
        <time>2023-05-27T09:47:23Z</time>
      </trkpt>
      <trkpt lat="43.40363" lon="1.88406">
        <ele>231.2</ele>
        <time>2023-05-27T09:47:24Z</time>
      </trkpt>
      <trkpt lat="43.40366" lon="1.88404">
        <ele>231.2</ele>
        <time>2023-05-27T09:47:25Z</time>
      </trkpt>
      <trkpt lat="43.40368" lon="1.88402">
        <ele>231.2</ele>
        <time>2023-05-27T09:47:26Z</time>
      </trkpt>
      <trkpt lat="43.40371" lon="1.88399">
        <ele>231.2</ele>
        <time>2023-05-27T09:47:27Z</time>
      </trkpt>
      <trkpt lat="43.40375" lon="1.88396">
        <ele>231.2</ele>
        <time>2023-05-27T09:47:28Z</time>
      </trkpt>
      <trkpt lat="43.40379" lon="1.88393">
        <ele>231.2</ele>
        <time>2023-05-27T09:47:29Z</time>
      </trkpt>
      <trkpt lat="43.40383" lon="1.8839">
        <ele>231.2</ele>
        <time>2023-05-27T09:47:30Z</time>
      </trkpt>
      <trkpt lat="43.40386" lon="1.88388">
        <ele>231.2</ele>
        <time>2023-05-27T09:47:31Z</time>
      </trkpt>
      <trkpt lat="43.40389" lon="1.88386">
        <ele>231.2</ele>
        <time>2023-05-27T09:47:32Z</time>
      </trkpt>
      <trkpt lat="43.40392" lon="1.88383">
        <ele>231.2</ele>
        <time>2023-05-27T09:47:33Z</time>
      </trkpt>
      <trkpt lat="43.40396" lon="1.88381">
        <ele>231.2</ele>
        <time>2023-05-27T09:47:34Z</time>
      </trkpt>
      <trkpt lat="43.404" lon="1.88379">
        <ele>231.2</ele>
        <time>2023-05-27T09:47:35Z</time>
      </trkpt>
      <trkpt lat="43.40403" lon="1.88376">
        <ele>231.4</ele>
        <time>2023-05-27T09:47:36Z</time>
      </trkpt>
      <trkpt lat="43.40407" lon="1.88375">
        <ele>231.2</ele>
        <time>2023-05-27T09:47:37Z</time>
      </trkpt>
      <trkpt lat="43.4041" lon="1.88373">
        <ele>231.2</ele>
        <time>2023-05-27T09:47:38Z</time>
      </trkpt>
      <trkpt lat="43.40413" lon="1.88371">
        <ele>231.4</ele>
        <time>2023-05-27T09:47:39Z</time>
      </trkpt>
      <trkpt lat="43.40416" lon="1.88368">
        <ele>231.4</ele>
        <time>2023-05-27T09:47:40Z</time>
      </trkpt>
      <trkpt lat="43.40419" lon="1.88366">
        <ele>231.4</ele>
        <time>2023-05-27T09:47:41Z</time>
      </trkpt>
      <trkpt lat="43.40422" lon="1.88364">
        <ele>231.4</ele>
        <time>2023-05-27T09:47:42Z</time>
      </trkpt>
      <trkpt lat="43.40425" lon="1.88362">
        <ele>231.4</ele>
        <time>2023-05-27T09:47:43Z</time>
      </trkpt>
      <trkpt lat="43.40429" lon="1.8836">
        <ele>231.4</ele>
        <time>2023-05-27T09:47:44Z</time>
      </trkpt>
      <trkpt lat="43.40432" lon="1.88358">
        <ele>231.4</ele>
        <time>2023-05-27T09:47:45Z</time>
      </trkpt>
      <trkpt lat="43.40435" lon="1.88356">
        <ele>231.4</ele>
        <time>2023-05-27T09:47:46Z</time>
      </trkpt>
      <trkpt lat="43.40437" lon="1.88354">
        <ele>231.4</ele>
        <time>2023-05-27T09:47:47Z</time>
      </trkpt>
      <trkpt lat="43.4044" lon="1.88352">
        <ele>231.4</ele>
        <time>2023-05-27T09:47:48Z</time>
      </trkpt>
      <trkpt lat="43.40442" lon="1.88351">
        <ele>231.4</ele>
        <time>2023-05-27T09:47:49Z</time>
      </trkpt>
      <trkpt lat="43.40444" lon="1.88349">
        <ele>231.4</ele>
        <time>2023-05-27T09:47:50Z</time>
      </trkpt>
      <trkpt lat="43.40446" lon="1.88348">
        <ele>231.4</ele>
        <time>2023-05-27T09:47:51Z</time>
      </trkpt>
      <trkpt lat="43.40448" lon="1.88347">
        <ele>231.4</ele>
        <time>2023-05-27T09:47:52Z</time>
      </trkpt>
      <trkpt lat="43.4045" lon="1.88346">
        <ele>231.4</ele>
        <time>2023-05-27T09:47:53Z</time>
      </trkpt>
      <trkpt lat="43.40452" lon="1.88346">
        <ele>231.4</ele>
        <time>2023-05-27T09:47:54Z</time>
      </trkpt>
      <trkpt lat="43.40454" lon="1.88345">
        <ele>231.4</ele>
        <time>2023-05-27T09:47:55Z</time>
      </trkpt>
      <trkpt lat="43.40456" lon="1.88345">
        <ele>231.4</ele>
        <time>2023-05-27T09:47:56Z</time>
      </trkpt>
      <trkpt lat="43.40459" lon="1.88346">
        <ele>231.4</ele>
        <time>2023-05-27T09:47:57Z</time>
      </trkpt>
      <trkpt lat="43.40461" lon="1.88346">
        <ele>231.4</ele>
        <time>2023-05-27T09:47:58Z</time>
      </trkpt>
      <trkpt lat="43.40464" lon="1.88346">
        <ele>231.4</ele>
        <time>2023-05-27T09:47:59Z</time>
      </trkpt>
      <trkpt lat="43.40468" lon="1.88346">
        <ele>231.4</ele>
        <time>2023-05-27T09:48:00Z</time>
      </trkpt>
      <trkpt lat="43.40472" lon="1.88347">
        <ele>231.4</ele>
        <time>2023-05-27T09:48:01Z</time>
      </trkpt>
      <trkpt lat="43.40476" lon="1.88348">
        <ele>231.4</ele>
        <time>2023-05-27T09:48:02Z</time>
      </trkpt>
      <trkpt lat="43.4048" lon="1.8835">
        <ele>231.4</ele>
        <time>2023-05-27T09:48:03Z</time>
      </trkpt>
      <trkpt lat="43.40484" lon="1.88352">
        <ele>231.4</ele>
        <time>2023-05-27T09:48:04Z</time>
      </trkpt>
      <trkpt lat="43.40487" lon="1.88354">
        <ele>231.4</ele>
        <time>2023-05-27T09:48:05Z</time>
      </trkpt>
      <trkpt lat="43.4049" lon="1.88356">
        <ele>231.4</ele>
        <time>2023-05-27T09:48:06Z</time>
      </trkpt>
      <trkpt lat="43.40494" lon="1.88357">
        <ele>231.4</ele>
        <time>2023-05-27T09:48:07Z</time>
      </trkpt>
      <trkpt lat="43.40497" lon="1.88358">
        <ele>231.4</ele>
        <time>2023-05-27T09:48:08Z</time>
      </trkpt>
      <trkpt lat="43.405" lon="1.8836">
        <ele>231.4</ele>
        <time>2023-05-27T09:48:09Z</time>
      </trkpt>
      <trkpt lat="43.40503" lon="1.88362">
        <ele>231.4</ele>
        <time>2023-05-27T09:48:10Z</time>
      </trkpt>
      <trkpt lat="43.40507" lon="1.88364">
        <ele>231.4</ele>
        <time>2023-05-27T09:48:11Z</time>
      </trkpt>
      <trkpt lat="43.40512" lon="1.88365">
        <ele>231.4</ele>
        <time>2023-05-27T09:48:12Z</time>
      </trkpt>
      <trkpt lat="43.40515" lon="1.88366">
        <ele>231.4</ele>
        <time>2023-05-27T09:48:13Z</time>
      </trkpt>
      <trkpt lat="43.40519" lon="1.88368">
        <ele>231.4</ele>
        <time>2023-05-27T09:48:14Z</time>
      </trkpt>
      <trkpt lat="43.40523" lon="1.88369">
        <ele>231.6</ele>
        <time>2023-05-27T09:48:15Z</time>
      </trkpt>
      <trkpt lat="43.40526" lon="1.8837">
        <ele>231.6</ele>
        <time>2023-05-27T09:48:16Z</time>
      </trkpt>
      <trkpt lat="43.40529" lon="1.88371">
        <ele>231.6</ele>
        <time>2023-05-27T09:48:17Z</time>
      </trkpt>
      <trkpt lat="43.40532" lon="1.88372">
        <ele>231.6</ele>
        <time>2023-05-27T09:48:18Z</time>
      </trkpt>
      <trkpt lat="43.40535" lon="1.88372">
        <ele>231.6</ele>
        <time>2023-05-27T09:48:19Z</time>
      </trkpt>
      <trkpt lat="43.40538" lon="1.88372">
        <ele>231.8</ele>
        <time>2023-05-27T09:48:20Z</time>
      </trkpt>
      <trkpt lat="43.40542" lon="1.88372">
        <ele>231.8</ele>
        <time>2023-05-27T09:48:21Z</time>
      </trkpt>
      <trkpt lat="43.40545" lon="1.88373">
        <ele>231.8</ele>
        <time>2023-05-27T09:48:22Z</time>
      </trkpt>
      <trkpt lat="43.40548" lon="1.88374">
        <ele>231.8</ele>
        <time>2023-05-27T09:48:23Z</time>
      </trkpt>
      <trkpt lat="43.40552" lon="1.88374">
        <ele>232</ele>
        <time>2023-05-27T09:48:24Z</time>
      </trkpt>
      <trkpt lat="43.40555" lon="1.88375">
        <ele>232</ele>
        <time>2023-05-27T09:48:25Z</time>
      </trkpt>
      <trkpt lat="43.40559" lon="1.88375">
        <ele>232</ele>
        <time>2023-05-27T09:48:26Z</time>
      </trkpt>
      <trkpt lat="43.40562" lon="1.88373">
        <ele>232</ele>
        <time>2023-05-27T09:48:27Z</time>
      </trkpt>
      <trkpt lat="43.40567" lon="1.88371">
        <ele>232</ele>
        <time>2023-05-27T09:48:28Z</time>
      </trkpt>
      <trkpt lat="43.4057" lon="1.88369">
        <ele>232</ele>
        <time>2023-05-27T09:48:29Z</time>
      </trkpt>
      <trkpt lat="43.40575" lon="1.88368">
        <ele>232</ele>
        <time>2023-05-27T09:48:30Z</time>
      </trkpt>
      <trkpt lat="43.4058" lon="1.88366">
        <ele>232</ele>
        <time>2023-05-27T09:48:31Z</time>
      </trkpt>
      <trkpt lat="43.40583" lon="1.88365">
        <ele>232</ele>
        <time>2023-05-27T09:48:32Z</time>
      </trkpt>
      <trkpt lat="43.40587" lon="1.88364">
        <ele>231.8</ele>
        <time>2023-05-27T09:48:33Z</time>
      </trkpt>
      <trkpt lat="43.40591" lon="1.88364">
        <ele>231.8</ele>
        <time>2023-05-27T09:48:34Z</time>
      </trkpt>
      <trkpt lat="43.40594" lon="1.88364">
        <ele>231.8</ele>
        <time>2023-05-27T09:48:35Z</time>
      </trkpt>
      <trkpt lat="43.40597" lon="1.88364">
        <ele>231.8</ele>
        <time>2023-05-27T09:48:36Z</time>
      </trkpt>
      <trkpt lat="43.406" lon="1.88362">
        <ele>231.6</ele>
        <time>2023-05-27T09:48:37Z</time>
      </trkpt>
      <trkpt lat="43.40604" lon="1.8836">
        <ele>231.6</ele>
        <time>2023-05-27T09:48:38Z</time>
      </trkpt>
      <trkpt lat="43.40606" lon="1.88359">
        <ele>231.6</ele>
        <time>2023-05-27T09:48:39Z</time>
      </trkpt>
      <trkpt lat="43.40609" lon="1.88357">
        <ele>231.6</ele>
        <time>2023-05-27T09:48:40Z</time>
      </trkpt>
      <trkpt lat="43.40612" lon="1.88356">
        <ele>231.6</ele>
        <time>2023-05-27T09:48:41Z</time>
      </trkpt>
      <trkpt lat="43.40615" lon="1.88354">
        <ele>231.4</ele>
        <time>2023-05-27T09:48:42Z</time>
      </trkpt>
      <trkpt lat="43.40618" lon="1.88352">
        <ele>231.4</ele>
        <time>2023-05-27T09:48:43Z</time>
      </trkpt>
      <trkpt lat="43.40622" lon="1.88349">
        <ele>231.4</ele>
        <time>2023-05-27T09:48:44Z</time>
      </trkpt>
      <trkpt lat="43.40626" lon="1.88346">
        <ele>231.4</ele>
        <time>2023-05-27T09:48:45Z</time>
      </trkpt>
      <trkpt lat="43.4063" lon="1.88343">
        <ele>231.4</ele>
        <time>2023-05-27T09:48:46Z</time>
      </trkpt>
      <trkpt lat="43.40634" lon="1.8834">
        <ele>231.4</ele>
        <time>2023-05-27T09:48:47Z</time>
      </trkpt>
      <trkpt lat="43.40638" lon="1.88337">
        <ele>231.4</ele>
        <time>2023-05-27T09:48:48Z</time>
      </trkpt>
      <trkpt lat="43.40641" lon="1.88333">
        <ele>231.4</ele>
        <time>2023-05-27T09:48:49Z</time>
      </trkpt>
      <trkpt lat="43.40644" lon="1.8833">
        <ele>231.4</ele>
        <time>2023-05-27T09:48:50Z</time>
      </trkpt>
      <trkpt lat="43.40647" lon="1.88328">
        <ele>231.4</ele>
        <time>2023-05-27T09:48:51Z</time>
      </trkpt>
      <trkpt lat="43.4065" lon="1.88325">
        <ele>231.4</ele>
        <time>2023-05-27T09:48:52Z</time>
      </trkpt>
      <trkpt lat="43.40653" lon="1.88323">
        <ele>231.4</ele>
        <time>2023-05-27T09:48:53Z</time>
      </trkpt>
      <trkpt lat="43.40656" lon="1.88321">
        <ele>231.4</ele>
        <time>2023-05-27T09:48:54Z</time>
      </trkpt>
      <trkpt lat="43.40659" lon="1.88319">
        <ele>231.4</ele>
        <time>2023-05-27T09:48:55Z</time>
      </trkpt>
      <trkpt lat="43.40663" lon="1.88317">
        <ele>231.4</ele>
        <time>2023-05-27T09:48:56Z</time>
      </trkpt>
      <trkpt lat="43.40665" lon="1.88315">
        <ele>231.4</ele>
        <time>2023-05-27T09:48:57Z</time>
      </trkpt>
      <trkpt lat="43.40668" lon="1.88314">
        <ele>231.4</ele>
        <time>2023-05-27T09:48:58Z</time>
      </trkpt>
      <trkpt lat="43.4067" lon="1.88313">
        <ele>231.4</ele>
        <time>2023-05-27T09:48:59Z</time>
      </trkpt>
      <trkpt lat="43.40673" lon="1.8831">
        <ele>231.4</ele>
        <time>2023-05-27T09:49:00Z</time>
      </trkpt>
      <trkpt lat="43.40676" lon="1.88308">
        <ele>231.4</ele>
        <time>2023-05-27T09:49:01Z</time>
      </trkpt>
      <trkpt lat="43.4068" lon="1.88306">
        <ele>231.2</ele>
        <time>2023-05-27T09:49:02Z</time>
      </trkpt>
      <trkpt lat="43.40684" lon="1.88304">
        <ele>231.2</ele>
        <time>2023-05-27T09:49:03Z</time>
      </trkpt>
      <trkpt lat="43.40688" lon="1.88301">
        <ele>231.2</ele>
        <time>2023-05-27T09:49:04Z</time>
      </trkpt>
      <trkpt lat="43.40693" lon="1.883">
        <ele>231.2</ele>
        <time>2023-05-27T09:49:05Z</time>
      </trkpt>
      <trkpt lat="43.40697" lon="1.88299">
        <ele>231</ele>
        <time>2023-05-27T09:49:06Z</time>
      </trkpt>
      <trkpt lat="43.40701" lon="1.88299">
        <ele>231</ele>
        <time>2023-05-27T09:49:07Z</time>
      </trkpt>
      <trkpt lat="43.40705" lon="1.88299">
        <ele>231</ele>
        <time>2023-05-27T09:49:08Z</time>
      </trkpt>
      <trkpt lat="43.40708" lon="1.88298">
        <ele>231</ele>
        <time>2023-05-27T09:49:09Z</time>
      </trkpt>
      <trkpt lat="43.40712" lon="1.88298">
        <ele>231</ele>
        <time>2023-05-27T09:49:10Z</time>
      </trkpt>
      <trkpt lat="43.40716" lon="1.88299">
        <ele>231</ele>
        <time>2023-05-27T09:49:11Z</time>
      </trkpt>
      <trkpt lat="43.40718" lon="1.88299">
        <ele>231.2</ele>
        <time>2023-05-27T09:49:12Z</time>
      </trkpt>
      <trkpt lat="43.40721" lon="1.88301">
        <ele>231.2</ele>
        <time>2023-05-27T09:49:13Z</time>
      </trkpt>
      <trkpt lat="43.40725" lon="1.88303">
        <ele>231.2</ele>
        <time>2023-05-27T09:49:14Z</time>
      </trkpt>
      <trkpt lat="43.40729" lon="1.88306">
        <ele>231.2</ele>
        <time>2023-05-27T09:49:15Z</time>
      </trkpt>
      <trkpt lat="43.40733" lon="1.8831">
        <ele>231.2</ele>
        <time>2023-05-27T09:49:16Z</time>
      </trkpt>
      <trkpt lat="43.40738" lon="1.88312">
        <ele>231.2</ele>
        <time>2023-05-27T09:49:17Z</time>
      </trkpt>
      <trkpt lat="43.40742" lon="1.88314">
        <ele>231.2</ele>
        <time>2023-05-27T09:49:18Z</time>
      </trkpt>
      <trkpt lat="43.40746" lon="1.88315">
        <ele>231.2</ele>
        <time>2023-05-27T09:49:19Z</time>
      </trkpt>
      <trkpt lat="43.40751" lon="1.88316">
        <ele>231.2</ele>
        <time>2023-05-27T09:49:20Z</time>
      </trkpt>
      <trkpt lat="43.40756" lon="1.88318">
        <ele>231.2</ele>
        <time>2023-05-27T09:49:21Z</time>
      </trkpt>
      <trkpt lat="43.4076" lon="1.88321">
        <ele>231.2</ele>
        <time>2023-05-27T09:49:22Z</time>
      </trkpt>
      <trkpt lat="43.40764" lon="1.88322">
        <ele>231.2</ele>
        <time>2023-05-27T09:49:23Z</time>
      </trkpt>
      <trkpt lat="43.40768" lon="1.88323">
        <ele>231.2</ele>
        <time>2023-05-27T09:49:24Z</time>
      </trkpt>
      <trkpt lat="43.40771" lon="1.88324">
        <ele>231.2</ele>
        <time>2023-05-27T09:49:25Z</time>
      </trkpt>
      <trkpt lat="43.40775" lon="1.88325">
        <ele>231.2</ele>
        <time>2023-05-27T09:49:26Z</time>
      </trkpt>
      <trkpt lat="43.40778" lon="1.88325">
        <ele>231.2</ele>
        <time>2023-05-27T09:49:27Z</time>
      </trkpt>
      <trkpt lat="43.40781" lon="1.88324">
        <ele>231.2</ele>
        <time>2023-05-27T09:49:28Z</time>
      </trkpt>
      <trkpt lat="43.40785" lon="1.88324">
        <ele>231.2</ele>
        <time>2023-05-27T09:49:29Z</time>
      </trkpt>
      <trkpt lat="43.40788" lon="1.88322">
        <ele>231.2</ele>
        <time>2023-05-27T09:49:30Z</time>
      </trkpt>
      <trkpt lat="43.40793" lon="1.8832">
        <ele>231.2</ele>
        <time>2023-05-27T09:49:31Z</time>
      </trkpt>
      <trkpt lat="43.40796" lon="1.88318">
        <ele>231</ele>
        <time>2023-05-27T09:49:32Z</time>
      </trkpt>
      <trkpt lat="43.40799" lon="1.88315">
        <ele>231</ele>
        <time>2023-05-27T09:49:33Z</time>
      </trkpt>
      <trkpt lat="43.40801" lon="1.88313">
        <ele>231</ele>
        <time>2023-05-27T09:49:34Z</time>
      </trkpt>
      <trkpt lat="43.40803" lon="1.8831">
        <ele>231</ele>
        <time>2023-05-27T09:49:35Z</time>
      </trkpt>
      <trkpt lat="43.40806" lon="1.88307">
        <ele>231</ele>
        <time>2023-05-27T09:49:36Z</time>
      </trkpt>
      <trkpt lat="43.40808" lon="1.88304">
        <ele>230.8</ele>
        <time>2023-05-27T09:49:37Z</time>
      </trkpt>
      <trkpt lat="43.40811" lon="1.883">
        <ele>230.8</ele>
        <time>2023-05-27T09:49:38Z</time>
      </trkpt>
      <trkpt lat="43.40814" lon="1.88296">
        <ele>230.8</ele>
        <time>2023-05-27T09:49:39Z</time>
      </trkpt>
      <trkpt lat="43.40817" lon="1.88291">
        <ele>230.8</ele>
        <time>2023-05-27T09:49:40Z</time>
      </trkpt>
      <trkpt lat="43.4082" lon="1.88287">
        <ele>230.8</ele>
        <time>2023-05-27T09:49:41Z</time>
      </trkpt>
      <trkpt lat="43.40823" lon="1.88284">
        <ele>230.8</ele>
        <time>2023-05-27T09:49:42Z</time>
      </trkpt>
      <trkpt lat="43.40825" lon="1.88282">
        <ele>231</ele>
        <time>2023-05-27T09:49:43Z</time>
      </trkpt>
      <trkpt lat="43.40827" lon="1.88279">
        <ele>231</ele>
        <time>2023-05-27T09:49:44Z</time>
      </trkpt>
      <trkpt lat="43.40829" lon="1.88276">
        <ele>230.8</ele>
        <time>2023-05-27T09:49:45Z</time>
      </trkpt>
      <trkpt lat="43.40831" lon="1.88272">
        <ele>230.8</ele>
        <time>2023-05-27T09:49:46Z</time>
      </trkpt>
      <trkpt lat="43.40833" lon="1.88267">
        <ele>231</ele>
        <time>2023-05-27T09:49:47Z</time>
      </trkpt>
      <trkpt lat="43.40836" lon="1.88264">
        <ele>231</ele>
        <time>2023-05-27T09:49:48Z</time>
      </trkpt>
      <trkpt lat="43.40839" lon="1.8826">
        <ele>231</ele>
        <time>2023-05-27T09:49:49Z</time>
      </trkpt>
      <trkpt lat="43.40841" lon="1.88255">
        <ele>231</ele>
        <time>2023-05-27T09:49:50Z</time>
      </trkpt>
      <trkpt lat="43.40842" lon="1.88251">
        <ele>231.2</ele>
        <time>2023-05-27T09:49:51Z</time>
      </trkpt>
      <trkpt lat="43.40843" lon="1.88248">
        <ele>231.2</ele>
        <time>2023-05-27T09:49:52Z</time>
      </trkpt>
      <trkpt lat="43.40845" lon="1.88245">
        <ele>231.2</ele>
        <time>2023-05-27T09:49:53Z</time>
      </trkpt>
      <trkpt lat="43.40847" lon="1.88241">
        <ele>231.2</ele>
        <time>2023-05-27T09:49:54Z</time>
      </trkpt>
      <trkpt lat="43.40849" lon="1.88235">
        <ele>231.2</ele>
        <time>2023-05-27T09:49:55Z</time>
      </trkpt>
      <trkpt lat="43.40852" lon="1.8823">
        <ele>231.4</ele>
        <time>2023-05-27T09:49:56Z</time>
      </trkpt>
      <trkpt lat="43.40855" lon="1.88225">
        <ele>231.4</ele>
        <time>2023-05-27T09:49:57Z</time>
      </trkpt>
      <trkpt lat="43.40857" lon="1.8822">
        <ele>231.4</ele>
        <time>2023-05-27T09:49:58Z</time>
      </trkpt>
      <trkpt lat="43.40858" lon="1.88215">
        <ele>231.4</ele>
        <time>2023-05-27T09:49:59Z</time>
      </trkpt>
      <trkpt lat="43.4086" lon="1.8821">
        <ele>231.4</ele>
        <time>2023-05-27T09:50:00Z</time>
      </trkpt>
      <trkpt lat="43.40862" lon="1.88205">
        <ele>231.4</ele>
        <time>2023-05-27T09:50:01Z</time>
      </trkpt>
      <trkpt lat="43.40864" lon="1.882">
        <ele>231.4</ele>
        <time>2023-05-27T09:50:02Z</time>
      </trkpt>
      <trkpt lat="43.40866" lon="1.88195">
        <ele>231.4</ele>
        <time>2023-05-27T09:50:03Z</time>
      </trkpt>
      <trkpt lat="43.40868" lon="1.8819">
        <ele>231.4</ele>
        <time>2023-05-27T09:50:04Z</time>
      </trkpt>
      <trkpt lat="43.40872" lon="1.88185">
        <ele>231.4</ele>
        <time>2023-05-27T09:50:05Z</time>
      </trkpt>
      <trkpt lat="43.40876" lon="1.88182">
        <ele>231.4</ele>
        <time>2023-05-27T09:50:06Z</time>
      </trkpt>
      <trkpt lat="43.4088" lon="1.8818">
        <ele>231.4</ele>
        <time>2023-05-27T09:50:07Z</time>
      </trkpt>
      <trkpt lat="43.40883" lon="1.88178">
        <ele>231.4</ele>
        <time>2023-05-27T09:50:08Z</time>
      </trkpt>
      <trkpt lat="43.40886" lon="1.88177">
        <ele>231.4</ele>
        <time>2023-05-27T09:50:09Z</time>
      </trkpt>
      <trkpt lat="43.40888" lon="1.88176">
        <ele>231.4</ele>
        <time>2023-05-27T09:50:10Z</time>
      </trkpt>
      <trkpt lat="43.40891" lon="1.88175">
        <ele>231.4</ele>
        <time>2023-05-27T09:50:11Z</time>
      </trkpt>
      <trkpt lat="43.40893" lon="1.88175">
        <ele>231.4</ele>
        <time>2023-05-27T09:50:12Z</time>
      </trkpt>
      <trkpt lat="43.40895" lon="1.88175">
        <ele>231.4</ele>
        <time>2023-05-27T09:50:13Z</time>
      </trkpt>
      <trkpt lat="43.40898" lon="1.88174">
        <ele>231.4</ele>
        <time>2023-05-27T09:50:14Z</time>
      </trkpt>
      <trkpt lat="43.409" lon="1.88174">
        <ele>231.4</ele>
        <time>2023-05-27T09:50:15Z</time>
      </trkpt>
      <trkpt lat="43.40902" lon="1.88174">
        <ele>231.4</ele>
        <time>2023-05-27T09:50:16Z</time>
      </trkpt>
      <trkpt lat="43.40905" lon="1.88175">
        <ele>231.2</ele>
        <time>2023-05-27T09:50:17Z</time>
      </trkpt>
      <trkpt lat="43.40907" lon="1.88175">
        <ele>231.2</ele>
        <time>2023-05-27T09:50:18Z</time>
      </trkpt>
      <trkpt lat="43.4091" lon="1.88175">
        <ele>231.2</ele>
        <time>2023-05-27T09:50:19Z</time>
      </trkpt>
      <trkpt lat="43.40912" lon="1.88175">
        <ele>231.2</ele>
        <time>2023-05-27T09:50:20Z</time>
      </trkpt>
      <trkpt lat="43.40914" lon="1.88175">
        <ele>231.2</ele>
        <time>2023-05-27T09:50:21Z</time>
      </trkpt>
      <trkpt lat="43.40917" lon="1.88175">
        <ele>231.2</ele>
        <time>2023-05-27T09:50:22Z</time>
      </trkpt>
      <trkpt lat="43.40919" lon="1.88174">
        <ele>231.2</ele>
        <time>2023-05-27T09:50:23Z</time>
      </trkpt>
      <trkpt lat="43.40922" lon="1.88173">
        <ele>231.2</ele>
        <time>2023-05-27T09:50:24Z</time>
      </trkpt>
      <trkpt lat="43.40924" lon="1.88172">
        <ele>231.2</ele>
        <time>2023-05-27T09:50:25Z</time>
      </trkpt>
      <trkpt lat="43.40927" lon="1.88171">
        <ele>231.2</ele>
        <time>2023-05-27T09:50:26Z</time>
      </trkpt>
      <trkpt lat="43.40929" lon="1.88169">
        <ele>231.2</ele>
        <time>2023-05-27T09:50:27Z</time>
      </trkpt>
      <trkpt lat="43.40932" lon="1.88167">
        <ele>231.2</ele>
        <time>2023-05-27T09:50:28Z</time>
      </trkpt>
      <trkpt lat="43.40934" lon="1.88166">
        <ele>231.2</ele>
        <time>2023-05-27T09:50:29Z</time>
      </trkpt>
      <trkpt lat="43.40937" lon="1.88164">
        <ele>231.2</ele>
        <time>2023-05-27T09:50:30Z</time>
      </trkpt>
      <trkpt lat="43.40939" lon="1.88162">
        <ele>231.2</ele>
        <time>2023-05-27T09:50:31Z</time>
      </trkpt>
      <trkpt lat="43.40941" lon="1.8816">
        <ele>231.2</ele>
        <time>2023-05-27T09:50:32Z</time>
      </trkpt>
      <trkpt lat="43.40944" lon="1.88159">
        <ele>231.2</ele>
        <time>2023-05-27T09:50:33Z</time>
      </trkpt>
      <trkpt lat="43.40946" lon="1.88156">
        <ele>231.2</ele>
        <time>2023-05-27T09:50:34Z</time>
      </trkpt>
      <trkpt lat="43.40948" lon="1.88154">
        <ele>231.2</ele>
        <time>2023-05-27T09:50:35Z</time>
      </trkpt>
      <trkpt lat="43.40951" lon="1.88151">
        <ele>231.2</ele>
        <time>2023-05-27T09:50:36Z</time>
      </trkpt>
      <trkpt lat="43.40952" lon="1.88149">
        <ele>231</ele>
        <time>2023-05-27T09:50:37Z</time>
      </trkpt>
      <trkpt lat="43.40953" lon="1.88148">
        <ele>231</ele>
        <time>2023-05-27T09:50:38Z</time>
      </trkpt>
      <trkpt lat="43.40954" lon="1.88147">
        <ele>231</ele>
        <time>2023-05-27T09:50:39Z</time>
      </trkpt>
      <trkpt lat="43.40956" lon="1.88146">
        <ele>231.2</ele>
        <time>2023-05-27T09:50:40Z</time>
      </trkpt>
      <trkpt lat="43.40958" lon="1.88144">
        <ele>231</ele>
        <time>2023-05-27T09:50:41Z</time>
      </trkpt>
      <trkpt lat="43.4096" lon="1.88142">
        <ele>231</ele>
        <time>2023-05-27T09:50:42Z</time>
      </trkpt>
      <trkpt lat="43.40962" lon="1.88141">
        <ele>231</ele>
        <time>2023-05-27T09:50:43Z</time>
      </trkpt>
      <trkpt lat="43.40964" lon="1.88139">
        <ele>231</ele>
        <time>2023-05-27T09:50:44Z</time>
      </trkpt>
      <trkpt lat="43.40965" lon="1.88137">
        <ele>231</ele>
        <time>2023-05-27T09:50:45Z</time>
      </trkpt>
      <trkpt lat="43.40967" lon="1.88134">
        <ele>231.2</ele>
        <time>2023-05-27T09:50:46Z</time>
      </trkpt>
      <trkpt lat="43.40969" lon="1.88131">
        <ele>231.2</ele>
        <time>2023-05-27T09:50:47Z</time>
      </trkpt>
      <trkpt lat="43.40971" lon="1.88128">
        <ele>231.2</ele>
        <time>2023-05-27T09:50:48Z</time>
      </trkpt>
      <trkpt lat="43.40973" lon="1.88125">
        <ele>231.2</ele>
        <time>2023-05-27T09:50:49Z</time>
      </trkpt>
      <trkpt lat="43.40976" lon="1.88122">
        <ele>231.2</ele>
        <time>2023-05-27T09:50:50Z</time>
      </trkpt>
      <trkpt lat="43.40978" lon="1.8812">
        <ele>231.2</ele>
        <time>2023-05-27T09:50:51Z</time>
      </trkpt>
      <trkpt lat="43.40981" lon="1.88117">
        <ele>231.2</ele>
        <time>2023-05-27T09:50:52Z</time>
      </trkpt>
      <trkpt lat="43.40984" lon="1.88113">
        <ele>231.2</ele>
        <time>2023-05-27T09:50:53Z</time>
      </trkpt>
      <trkpt lat="43.40986" lon="1.8811">
        <ele>231.2</ele>
        <time>2023-05-27T09:50:54Z</time>
      </trkpt>
      <trkpt lat="43.40988" lon="1.88106">
        <ele>231.4</ele>
        <time>2023-05-27T09:50:55Z</time>
      </trkpt>
      <trkpt lat="43.4099" lon="1.88102">
        <ele>231.4</ele>
        <time>2023-05-27T09:50:56Z</time>
      </trkpt>
      <trkpt lat="43.40993" lon="1.88099">
        <ele>231.4</ele>
        <time>2023-05-27T09:50:57Z</time>
      </trkpt>
      <trkpt lat="43.40995" lon="1.88095">
        <ele>231.4</ele>
        <time>2023-05-27T09:50:58Z</time>
      </trkpt>
      <trkpt lat="43.40997" lon="1.88092">
        <ele>231.4</ele>
        <time>2023-05-27T09:50:59Z</time>
      </trkpt>
      <trkpt lat="43.40999" lon="1.88089">
        <ele>231.4</ele>
        <time>2023-05-27T09:51:00Z</time>
      </trkpt>
      <trkpt lat="43.41001" lon="1.88086">
        <ele>231.4</ele>
        <time>2023-05-27T09:51:01Z</time>
      </trkpt>
      <trkpt lat="43.41003" lon="1.88085">
        <ele>231.4</ele>
        <time>2023-05-27T09:51:02Z</time>
      </trkpt>
      <trkpt lat="43.41006" lon="1.88083">
        <ele>231.4</ele>
        <time>2023-05-27T09:51:03Z</time>
      </trkpt>
      <trkpt lat="43.41008" lon="1.8808">
        <ele>231.4</ele>
        <time>2023-05-27T09:51:04Z</time>
      </trkpt>
      <trkpt lat="43.4101" lon="1.88078">
        <ele>231.4</ele>
        <time>2023-05-27T09:51:05Z</time>
      </trkpt>
      <trkpt lat="43.41011" lon="1.88077">
        <ele>231.6</ele>
        <time>2023-05-27T09:51:06Z</time>
      </trkpt>
      <trkpt lat="43.41013" lon="1.88076">
        <ele>231.6</ele>
        <time>2023-05-27T09:51:07Z</time>
      </trkpt>
      <trkpt lat="43.41015" lon="1.88075">
        <ele>231.6</ele>
        <time>2023-05-27T09:51:08Z</time>
      </trkpt>
      <trkpt lat="43.41016" lon="1.88074">
        <ele>231.8</ele>
        <time>2023-05-27T09:51:09Z</time>
      </trkpt>
      <trkpt lat="43.41018" lon="1.88074">
        <ele>231.8</ele>
        <time>2023-05-27T09:51:10Z</time>
      </trkpt>
      <trkpt lat="43.4102" lon="1.88074">
        <ele>231.8</ele>
        <time>2023-05-27T09:51:11Z</time>
      </trkpt>
      <trkpt lat="43.41021" lon="1.88074">
        <ele>231.8</ele>
        <time>2023-05-27T09:51:12Z</time>
      </trkpt>
      <trkpt lat="43.41023" lon="1.88073">
        <ele>232</ele>
        <time>2023-05-27T09:51:13Z</time>
      </trkpt>
      <trkpt lat="43.41026" lon="1.88072">
        <ele>232</ele>
        <time>2023-05-27T09:51:14Z</time>
      </trkpt>
      <trkpt lat="43.41029" lon="1.88071">
        <ele>232</ele>
        <time>2023-05-27T09:51:15Z</time>
      </trkpt>
      <trkpt lat="43.41032" lon="1.8807">
        <ele>232</ele>
        <time>2023-05-27T09:51:16Z</time>
      </trkpt>
      <trkpt lat="43.41035" lon="1.88069">
        <ele>232</ele>
        <time>2023-05-27T09:51:17Z</time>
      </trkpt>
      <trkpt lat="43.41038" lon="1.88068">
        <ele>232</ele>
        <time>2023-05-27T09:51:18Z</time>
      </trkpt>
      <trkpt lat="43.41041" lon="1.88067">
        <ele>232.2</ele>
        <time>2023-05-27T09:51:19Z</time>
      </trkpt>
      <trkpt lat="43.41044" lon="1.88065">
        <ele>232.2</ele>
        <time>2023-05-27T09:51:20Z</time>
      </trkpt>
      <trkpt lat="43.41048" lon="1.88064">
        <ele>232.2</ele>
        <time>2023-05-27T09:51:21Z</time>
      </trkpt>
      <trkpt lat="43.41051" lon="1.88063">
        <ele>232.2</ele>
        <time>2023-05-27T09:51:22Z</time>
      </trkpt>
      <trkpt lat="43.41055" lon="1.88061">
        <ele>232.2</ele>
        <time>2023-05-27T09:51:23Z</time>
      </trkpt>
      <trkpt lat="43.41058" lon="1.88059">
        <ele>232.2</ele>
        <time>2023-05-27T09:51:24Z</time>
      </trkpt>
      <trkpt lat="43.41061" lon="1.88058">
        <ele>232.2</ele>
        <time>2023-05-27T09:51:25Z</time>
      </trkpt>
      <trkpt lat="43.41064" lon="1.88055">
        <ele>232.2</ele>
        <time>2023-05-27T09:51:26Z</time>
      </trkpt>
      <trkpt lat="43.41068" lon="1.88053">
        <ele>232.2</ele>
        <time>2023-05-27T09:51:27Z</time>
      </trkpt>
      <trkpt lat="43.41071" lon="1.88051">
        <ele>232.2</ele>
        <time>2023-05-27T09:51:28Z</time>
      </trkpt>
      <trkpt lat="43.41075" lon="1.88048">
        <ele>232.2</ele>
        <time>2023-05-27T09:51:29Z</time>
      </trkpt>
      <trkpt lat="43.41079" lon="1.88046">
        <ele>232</ele>
        <time>2023-05-27T09:51:30Z</time>
      </trkpt>
      <trkpt lat="43.41083" lon="1.88044">
        <ele>232</ele>
        <time>2023-05-27T09:51:31Z</time>
      </trkpt>
      <trkpt lat="43.41087" lon="1.88041">
        <ele>232</ele>
        <time>2023-05-27T09:51:32Z</time>
      </trkpt>
      <trkpt lat="43.41091" lon="1.88038">
        <ele>232</ele>
        <time>2023-05-27T09:51:33Z</time>
      </trkpt>
      <trkpt lat="43.41094" lon="1.88036">
        <ele>232</ele>
        <time>2023-05-27T09:51:34Z</time>
      </trkpt>
      <trkpt lat="43.41097" lon="1.88035">
        <ele>232</ele>
        <time>2023-05-27T09:51:35Z</time>
      </trkpt>
      <trkpt lat="43.41101" lon="1.88034">
        <ele>231.8</ele>
        <time>2023-05-27T09:51:36Z</time>
      </trkpt>
      <trkpt lat="43.41104" lon="1.88032">
        <ele>231.8</ele>
        <time>2023-05-27T09:51:37Z</time>
      </trkpt>
      <trkpt lat="43.41106" lon="1.8803">
        <ele>231.8</ele>
        <time>2023-05-27T09:51:38Z</time>
      </trkpt>
      <trkpt lat="43.41109" lon="1.88028">
        <ele>231.8</ele>
        <time>2023-05-27T09:51:39Z</time>
      </trkpt>
      <trkpt lat="43.41112" lon="1.88026">
        <ele>231.6</ele>
        <time>2023-05-27T09:51:40Z</time>
      </trkpt>
      <trkpt lat="43.41114" lon="1.88023">
        <ele>231.6</ele>
        <time>2023-05-27T09:51:41Z</time>
      </trkpt>
      <trkpt lat="43.41117" lon="1.88022">
        <ele>231.6</ele>
        <time>2023-05-27T09:51:42Z</time>
      </trkpt>
      <trkpt lat="43.41119" lon="1.8802">
        <ele>231.6</ele>
        <time>2023-05-27T09:51:43Z</time>
      </trkpt>
      <trkpt lat="43.41121" lon="1.88018">
        <ele>231.6</ele>
        <time>2023-05-27T09:51:44Z</time>
      </trkpt>
      <trkpt lat="43.41124" lon="1.88017">
        <ele>231.6</ele>
        <time>2023-05-27T09:51:45Z</time>
      </trkpt>
      <trkpt lat="43.41126" lon="1.88017">
        <ele>231.6</ele>
        <time>2023-05-27T09:51:46Z</time>
      </trkpt>
      <trkpt lat="43.41129" lon="1.88016">
        <ele>231.4</ele>
        <time>2023-05-27T09:51:47Z</time>
      </trkpt>
      <trkpt lat="43.41132" lon="1.88016">
        <ele>231.4</ele>
        <time>2023-05-27T09:51:48Z</time>
      </trkpt>
      <trkpt lat="43.41135" lon="1.88016">
        <ele>231.4</ele>
        <time>2023-05-27T09:51:49Z</time>
      </trkpt>
      <trkpt lat="43.41137" lon="1.88016">
        <ele>231.4</ele>
        <time>2023-05-27T09:51:50Z</time>
      </trkpt>
      <trkpt lat="43.41139" lon="1.88017">
        <ele>231.2</ele>
        <time>2023-05-27T09:51:51Z</time>
      </trkpt>
      <trkpt lat="43.41142" lon="1.88016">
        <ele>231.2</ele>
        <time>2023-05-27T09:51:52Z</time>
      </trkpt>
      <trkpt lat="43.41144" lon="1.88016">
        <ele>231.4</ele>
        <time>2023-05-27T09:51:53Z</time>
      </trkpt>
      <trkpt lat="43.41147" lon="1.88017">
        <ele>231.4</ele>
        <time>2023-05-27T09:51:54Z</time>
      </trkpt>
      <trkpt lat="43.4115" lon="1.88018">
        <ele>231.4</ele>
        <time>2023-05-27T09:51:55Z</time>
      </trkpt>
      <trkpt lat="43.41153" lon="1.88018">
        <ele>231.4</ele>
        <time>2023-05-27T09:51:56Z</time>
      </trkpt>
      <trkpt lat="43.41156" lon="1.88018">
        <ele>231.4</ele>
        <time>2023-05-27T09:51:57Z</time>
      </trkpt>
      <trkpt lat="43.41159" lon="1.88019">
        <ele>231.6</ele>
        <time>2023-05-27T09:51:58Z</time>
      </trkpt>
      <trkpt lat="43.41162" lon="1.88019">
        <ele>231.6</ele>
        <time>2023-05-27T09:51:59Z</time>
      </trkpt>
      <trkpt lat="43.41165" lon="1.88018">
        <ele>231.6</ele>
        <time>2023-05-27T09:52:00Z</time>
      </trkpt>
      <trkpt lat="43.41169" lon="1.88017">
        <ele>231.6</ele>
        <time>2023-05-27T09:52:01Z</time>
      </trkpt>
      <trkpt lat="43.41173" lon="1.88016">
        <ele>231.8</ele>
        <time>2023-05-27T09:52:02Z</time>
      </trkpt>
      <trkpt lat="43.41177" lon="1.88015">
        <ele>231.8</ele>
        <time>2023-05-27T09:52:03Z</time>
      </trkpt>
      <trkpt lat="43.41181" lon="1.88014">
        <ele>231.8</ele>
        <time>2023-05-27T09:52:04Z</time>
      </trkpt>
      <trkpt lat="43.41186" lon="1.88012">
        <ele>231.8</ele>
        <time>2023-05-27T09:52:05Z</time>
      </trkpt>
      <trkpt lat="43.41188" lon="1.88011">
        <ele>231.8</ele>
        <time>2023-05-27T09:52:06Z</time>
      </trkpt>
      <trkpt lat="43.4119" lon="1.88011">
        <ele>231.8</ele>
        <time>2023-05-27T09:52:07Z</time>
      </trkpt>
      <trkpt lat="43.41193" lon="1.88011">
        <ele>231.8</ele>
        <time>2023-05-27T09:52:08Z</time>
      </trkpt>
      <trkpt lat="43.41196" lon="1.88011">
        <ele>231.8</ele>
        <time>2023-05-27T09:52:09Z</time>
      </trkpt>
      <trkpt lat="43.412" lon="1.88011">
        <ele>231.8</ele>
        <time>2023-05-27T09:52:10Z</time>
      </trkpt>
      <trkpt lat="43.41205" lon="1.88012">
        <ele>231.6</ele>
        <time>2023-05-27T09:52:11Z</time>
      </trkpt>
      <trkpt lat="43.41209" lon="1.88015">
        <ele>231.6</ele>
        <time>2023-05-27T09:52:12Z</time>
      </trkpt>
      <trkpt lat="43.41211" lon="1.88019">
        <ele>231.6</ele>
        <time>2023-05-27T09:52:13Z</time>
      </trkpt>
      <trkpt lat="43.41212" lon="1.88024">
        <ele>231.6</ele>
        <time>2023-05-27T09:52:14Z</time>
      </trkpt>
      <trkpt lat="43.41214" lon="1.88029">
        <ele>231.6</ele>
        <time>2023-05-27T09:52:15Z</time>
      </trkpt>
      <trkpt lat="43.41216" lon="1.88034">
        <ele>231.6</ele>
        <time>2023-05-27T09:52:16Z</time>
      </trkpt>
      <trkpt lat="43.41217" lon="1.88039">
        <ele>231.6</ele>
        <time>2023-05-27T09:52:17Z</time>
      </trkpt>
      <trkpt lat="43.41218" lon="1.88043">
        <ele>231.6</ele>
        <time>2023-05-27T09:52:18Z</time>
      </trkpt>
      <trkpt lat="43.41218" lon="1.88048">
        <ele>231.6</ele>
        <time>2023-05-27T09:52:19Z</time>
      </trkpt>
      <trkpt lat="43.41219" lon="1.88053">
        <ele>231.6</ele>
        <time>2023-05-27T09:52:20Z</time>
      </trkpt>
      <trkpt lat="43.4122" lon="1.88058">
        <ele>231.6</ele>
        <time>2023-05-27T09:52:21Z</time>
      </trkpt>
      <trkpt lat="43.41221" lon="1.88062">
        <ele>231.6</ele>
        <time>2023-05-27T09:52:22Z</time>
      </trkpt>
      <trkpt lat="43.41221" lon="1.88067">
        <ele>231.6</ele>
        <time>2023-05-27T09:52:23Z</time>
      </trkpt>
      <trkpt lat="43.41222" lon="1.88072">
        <ele>231.6</ele>
        <time>2023-05-27T09:52:24Z</time>
      </trkpt>
      <trkpt lat="43.41221" lon="1.88077">
        <ele>231.6</ele>
        <time>2023-05-27T09:52:25Z</time>
      </trkpt>
      <trkpt lat="43.41221" lon="1.88081">
        <ele>231.8</ele>
        <time>2023-05-27T09:52:26Z</time>
      </trkpt>
      <trkpt lat="43.41222" lon="1.88087">
        <ele>231.8</ele>
        <time>2023-05-27T09:52:27Z</time>
      </trkpt>
      <trkpt lat="43.41222" lon="1.88091">
        <ele>231.8</ele>
        <time>2023-05-27T09:52:28Z</time>
      </trkpt>
      <trkpt lat="43.41223" lon="1.88094">
        <ele>231.8</ele>
        <time>2023-05-27T09:52:29Z</time>
      </trkpt>
      <trkpt lat="43.41224" lon="1.88097">
        <ele>231.8</ele>
        <time>2023-05-27T09:52:30Z</time>
      </trkpt>
      <trkpt lat="43.41225" lon="1.881">
        <ele>231.8</ele>
        <time>2023-05-27T09:52:31Z</time>
      </trkpt>
      <trkpt lat="43.41226" lon="1.88103">
        <ele>231.8</ele>
        <time>2023-05-27T09:52:32Z</time>
      </trkpt>
      <trkpt lat="43.41228" lon="1.88107">
        <ele>231.8</ele>
        <time>2023-05-27T09:52:33Z</time>
      </trkpt>
      <trkpt lat="43.4123" lon="1.8811">
        <ele>231.8</ele>
        <time>2023-05-27T09:52:34Z</time>
      </trkpt>
      <trkpt lat="43.41232" lon="1.88112">
        <ele>231.8</ele>
        <time>2023-05-27T09:52:35Z</time>
      </trkpt>
      <trkpt lat="43.41234" lon="1.88115">
        <ele>231.8</ele>
        <time>2023-05-27T09:52:36Z</time>
      </trkpt>
      <trkpt lat="43.41236" lon="1.88117">
        <ele>231.8</ele>
        <time>2023-05-27T09:52:37Z</time>
      </trkpt>
      <trkpt lat="43.41239" lon="1.88118">
        <ele>231.8</ele>
        <time>2023-05-27T09:52:38Z</time>
      </trkpt>
      <trkpt lat="43.41242" lon="1.88119">
        <ele>231.8</ele>
        <time>2023-05-27T09:52:39Z</time>
      </trkpt>
      <trkpt lat="43.41245" lon="1.88118">
        <ele>231.8</ele>
        <time>2023-05-27T09:52:40Z</time>
      </trkpt>
      <trkpt lat="43.41248" lon="1.88117">
        <ele>232</ele>
        <time>2023-05-27T09:52:41Z</time>
      </trkpt>
      <trkpt lat="43.41251" lon="1.88117">
        <ele>232</ele>
        <time>2023-05-27T09:52:42Z</time>
      </trkpt>
      <trkpt lat="43.41253" lon="1.88115">
        <ele>232</ele>
        <time>2023-05-27T09:52:43Z</time>
      </trkpt>
      <trkpt lat="43.41256" lon="1.88114">
        <ele>232</ele>
        <time>2023-05-27T09:52:44Z</time>
      </trkpt>
      <trkpt lat="43.41258" lon="1.88112">
        <ele>232</ele>
        <time>2023-05-27T09:52:45Z</time>
      </trkpt>
      <trkpt lat="43.4126" lon="1.88111">
        <ele>232</ele>
        <time>2023-05-27T09:52:46Z</time>
      </trkpt>
      <trkpt lat="43.41263" lon="1.88109">
        <ele>232</ele>
        <time>2023-05-27T09:52:47Z</time>
      </trkpt>
      <trkpt lat="43.41265" lon="1.88107">
        <ele>232</ele>
        <time>2023-05-27T09:52:48Z</time>
      </trkpt>
      <trkpt lat="43.41268" lon="1.88105">
        <ele>232</ele>
        <time>2023-05-27T09:52:49Z</time>
      </trkpt>
      <trkpt lat="43.41271" lon="1.88103">
        <ele>232</ele>
        <time>2023-05-27T09:52:50Z</time>
      </trkpt>
      <trkpt lat="43.41273" lon="1.88102">
        <ele>232</ele>
        <time>2023-05-27T09:52:51Z</time>
      </trkpt>
      <trkpt lat="43.41276" lon="1.88099">
        <ele>232.2</ele>
        <time>2023-05-27T09:52:52Z</time>
      </trkpt>
      <trkpt lat="43.41279" lon="1.88097">
        <ele>232.2</ele>
        <time>2023-05-27T09:52:53Z</time>
      </trkpt>
      <trkpt lat="43.41283" lon="1.88094">
        <ele>232.2</ele>
        <time>2023-05-27T09:52:54Z</time>
      </trkpt>
      <trkpt lat="43.41286" lon="1.88092">
        <ele>232.2</ele>
        <time>2023-05-27T09:52:55Z</time>
      </trkpt>
      <trkpt lat="43.41289" lon="1.8809">
        <ele>232.2</ele>
        <time>2023-05-27T09:52:56Z</time>
      </trkpt>
      <trkpt lat="43.41292" lon="1.88089">
        <ele>232.2</ele>
        <time>2023-05-27T09:52:57Z</time>
      </trkpt>
      <trkpt lat="43.41294" lon="1.88087">
        <ele>232.2</ele>
        <time>2023-05-27T09:52:58Z</time>
      </trkpt>
      <trkpt lat="43.41297" lon="1.88085">
        <ele>232.2</ele>
        <time>2023-05-27T09:52:59Z</time>
      </trkpt>
      <trkpt lat="43.41299" lon="1.88084">
        <ele>232.2</ele>
        <time>2023-05-27T09:53:00Z</time>
      </trkpt>
      <trkpt lat="43.41301" lon="1.88083">
        <ele>232.2</ele>
        <time>2023-05-27T09:53:01Z</time>
      </trkpt>
      <trkpt lat="43.41304" lon="1.88081">
        <ele>232.2</ele>
        <time>2023-05-27T09:53:02Z</time>
      </trkpt>
      <trkpt lat="43.41307" lon="1.8808">
        <ele>232.2</ele>
        <time>2023-05-27T09:53:03Z</time>
      </trkpt>
      <trkpt lat="43.4131" lon="1.88078">
        <ele>232.2</ele>
        <time>2023-05-27T09:53:04Z</time>
      </trkpt>
      <trkpt lat="43.41312" lon="1.88076">
        <ele>232.4</ele>
        <time>2023-05-27T09:53:05Z</time>
      </trkpt>
      <trkpt lat="43.41316" lon="1.88073">
        <ele>232.4</ele>
        <time>2023-05-27T09:53:06Z</time>
      </trkpt>
      <trkpt lat="43.41319" lon="1.88071">
        <ele>232.4</ele>
        <time>2023-05-27T09:53:07Z</time>
      </trkpt>
      <trkpt lat="43.41323" lon="1.88069">
        <ele>232.4</ele>
        <time>2023-05-27T09:53:08Z</time>
      </trkpt>
      <trkpt lat="43.41325" lon="1.88067">
        <ele>232.4</ele>
        <time>2023-05-27T09:53:09Z</time>
      </trkpt>
      <trkpt lat="43.41328" lon="1.88066">
        <ele>232.2</ele>
        <time>2023-05-27T09:53:10Z</time>
      </trkpt>
      <trkpt lat="43.41331" lon="1.88066">
        <ele>232.2</ele>
        <time>2023-05-27T09:53:11Z</time>
      </trkpt>
      <trkpt lat="43.41334" lon="1.88066">
        <ele>232.4</ele>
        <time>2023-05-27T09:53:12Z</time>
      </trkpt>
      <trkpt lat="43.41338" lon="1.88066">
        <ele>232.4</ele>
        <time>2023-05-27T09:53:13Z</time>
      </trkpt>
      <trkpt lat="43.41342" lon="1.88068">
        <ele>232.2</ele>
        <time>2023-05-27T09:53:14Z</time>
      </trkpt>
      <trkpt lat="43.41344" lon="1.88072">
        <ele>232.2</ele>
        <time>2023-05-27T09:53:15Z</time>
      </trkpt>
      <trkpt lat="43.41346" lon="1.88075">
        <ele>232.2</ele>
        <time>2023-05-27T09:53:16Z</time>
      </trkpt>
      <trkpt lat="43.41348" lon="1.8808">
        <ele>232.4</ele>
        <time>2023-05-27T09:53:17Z</time>
      </trkpt>
      <trkpt lat="43.41349" lon="1.88085">
        <ele>232.4</ele>
        <time>2023-05-27T09:53:18Z</time>
      </trkpt>
      <trkpt lat="43.4135" lon="1.88091">
        <ele>232.2</ele>
        <time>2023-05-27T09:53:19Z</time>
      </trkpt>
      <trkpt lat="43.41351" lon="1.88096">
        <ele>232.2</ele>
        <time>2023-05-27T09:53:20Z</time>
      </trkpt>
      <trkpt lat="43.41352" lon="1.88101">
        <ele>232.2</ele>
        <time>2023-05-27T09:53:21Z</time>
      </trkpt>
      <trkpt lat="43.41353" lon="1.88106">
        <ele>232.2</ele>
        <time>2023-05-27T09:53:22Z</time>
      </trkpt>
      <trkpt lat="43.41354" lon="1.8811">
        <ele>232.2</ele>
        <time>2023-05-27T09:53:23Z</time>
      </trkpt>
      <trkpt lat="43.41355" lon="1.88114">
        <ele>232.2</ele>
        <time>2023-05-27T09:53:24Z</time>
      </trkpt>
      <trkpt lat="43.41356" lon="1.88118">
        <ele>232</ele>
        <time>2023-05-27T09:53:25Z</time>
      </trkpt>
      <trkpt lat="43.41357" lon="1.88121">
        <ele>232</ele>
        <time>2023-05-27T09:53:26Z</time>
      </trkpt>
      <trkpt lat="43.41359" lon="1.88124">
        <ele>232</ele>
        <time>2023-05-27T09:53:27Z</time>
      </trkpt>
      <trkpt lat="43.41361" lon="1.88127">
        <ele>232</ele>
        <time>2023-05-27T09:53:28Z</time>
      </trkpt>
      <trkpt lat="43.41363" lon="1.8813">
        <ele>232</ele>
        <time>2023-05-27T09:53:29Z</time>
      </trkpt>
      <trkpt lat="43.41366" lon="1.88132">
        <ele>232</ele>
        <time>2023-05-27T09:53:30Z</time>
      </trkpt>
      <trkpt lat="43.41369" lon="1.88134">
        <ele>232</ele>
        <time>2023-05-27T09:53:31Z</time>
      </trkpt>
      <trkpt lat="43.41372" lon="1.88135">
        <ele>232</ele>
        <time>2023-05-27T09:53:32Z</time>
      </trkpt>
      <trkpt lat="43.41376" lon="1.88136">
        <ele>232</ele>
        <time>2023-05-27T09:53:33Z</time>
      </trkpt>
      <trkpt lat="43.41379" lon="1.88135">
        <ele>232</ele>
        <time>2023-05-27T09:53:34Z</time>
      </trkpt>
      <trkpt lat="43.41382" lon="1.88135">
        <ele>232</ele>
        <time>2023-05-27T09:53:35Z</time>
      </trkpt>
      <trkpt lat="43.41385" lon="1.88134">
        <ele>232</ele>
        <time>2023-05-27T09:53:36Z</time>
      </trkpt>
      <trkpt lat="43.41388" lon="1.88133">
        <ele>232</ele>
        <time>2023-05-27T09:53:37Z</time>
      </trkpt>
      <trkpt lat="43.4139" lon="1.88132">
        <ele>232</ele>
        <time>2023-05-27T09:53:38Z</time>
      </trkpt>
      <trkpt lat="43.41393" lon="1.88131">
        <ele>232</ele>
        <time>2023-05-27T09:53:39Z</time>
      </trkpt>
      <trkpt lat="43.41396" lon="1.88131">
        <ele>231.8</ele>
        <time>2023-05-27T09:53:40Z</time>
      </trkpt>
      <trkpt lat="43.41399" lon="1.88131">
        <ele>231.8</ele>
        <time>2023-05-27T09:53:41Z</time>
      </trkpt>
      <trkpt lat="43.41401" lon="1.8813">
        <ele>231.8</ele>
        <time>2023-05-27T09:53:42Z</time>
      </trkpt>
      <trkpt lat="43.41404" lon="1.8813">
        <ele>231.8</ele>
        <time>2023-05-27T09:53:43Z</time>
      </trkpt>
      <trkpt lat="43.41406" lon="1.88129">
        <ele>231.8</ele>
        <time>2023-05-27T09:53:44Z</time>
      </trkpt>
      <trkpt lat="43.41409" lon="1.88129">
        <ele>232</ele>
        <time>2023-05-27T09:53:45Z</time>
      </trkpt>
      <trkpt lat="43.41412" lon="1.88129">
        <ele>232</ele>
        <time>2023-05-27T09:53:46Z</time>
      </trkpt>
      <trkpt lat="43.41416" lon="1.88128">
        <ele>232</ele>
        <time>2023-05-27T09:53:47Z</time>
      </trkpt>
      <trkpt lat="43.4142" lon="1.88126">
        <ele>232</ele>
        <time>2023-05-27T09:53:48Z</time>
      </trkpt>
      <trkpt lat="43.41423" lon="1.88125">
        <ele>232</ele>
        <time>2023-05-27T09:53:49Z</time>
      </trkpt>
      <trkpt lat="43.41427" lon="1.88123">
        <ele>232</ele>
        <time>2023-05-27T09:53:50Z</time>
      </trkpt>
      <trkpt lat="43.41431" lon="1.88123">
        <ele>232</ele>
        <time>2023-05-27T09:53:51Z</time>
      </trkpt>
      <trkpt lat="43.41434" lon="1.88122">
        <ele>232</ele>
        <time>2023-05-27T09:53:52Z</time>
      </trkpt>
      <trkpt lat="43.41438" lon="1.88122">
        <ele>232</ele>
        <time>2023-05-27T09:53:53Z</time>
      </trkpt>
      <trkpt lat="43.41442" lon="1.88121">
        <ele>232.2</ele>
        <time>2023-05-27T09:53:54Z</time>
      </trkpt>
      <trkpt lat="43.41446" lon="1.8812">
        <ele>232.2</ele>
        <time>2023-05-27T09:53:55Z</time>
      </trkpt>
      <trkpt lat="43.41449" lon="1.88118">
        <ele>232.2</ele>
        <time>2023-05-27T09:53:56Z</time>
      </trkpt>
      <trkpt lat="43.41452" lon="1.88117">
        <ele>232.2</ele>
        <time>2023-05-27T09:53:57Z</time>
      </trkpt>
      <trkpt lat="43.41456" lon="1.88116">
        <ele>232.2</ele>
        <time>2023-05-27T09:53:58Z</time>
      </trkpt>
      <trkpt lat="43.41459" lon="1.88115">
        <ele>232.2</ele>
        <time>2023-05-27T09:53:59Z</time>
      </trkpt>
      <trkpt lat="43.41463" lon="1.88113">
        <ele>232.2</ele>
        <time>2023-05-27T09:54:00Z</time>
      </trkpt>
      <trkpt lat="43.41466" lon="1.88111">
        <ele>232.2</ele>
        <time>2023-05-27T09:54:01Z</time>
      </trkpt>
      <trkpt lat="43.4147" lon="1.8811">
        <ele>232.2</ele>
        <time>2023-05-27T09:54:02Z</time>
      </trkpt>
      <trkpt lat="43.41475" lon="1.88109">
        <ele>232.2</ele>
        <time>2023-05-27T09:54:03Z</time>
      </trkpt>
      <trkpt lat="43.41478" lon="1.88108">
        <ele>232.2</ele>
        <time>2023-05-27T09:54:04Z</time>
      </trkpt>
      <trkpt lat="43.41482" lon="1.88105">
        <ele>232.2</ele>
        <time>2023-05-27T09:54:05Z</time>
      </trkpt>
      <trkpt lat="43.41485" lon="1.88103">
        <ele>232.2</ele>
        <time>2023-05-27T09:54:06Z</time>
      </trkpt>
      <trkpt lat="43.41488" lon="1.88101">
        <ele>232.2</ele>
        <time>2023-05-27T09:54:07Z</time>
      </trkpt>
      <trkpt lat="43.41491" lon="1.88099">
        <ele>232.2</ele>
        <time>2023-05-27T09:54:08Z</time>
      </trkpt>
      <trkpt lat="43.41494" lon="1.88096">
        <ele>232.2</ele>
        <time>2023-05-27T09:54:09Z</time>
      </trkpt>
      <trkpt lat="43.41497" lon="1.88094">
        <ele>232.2</ele>
        <time>2023-05-27T09:54:10Z</time>
      </trkpt>
      <trkpt lat="43.41501" lon="1.88092">
        <ele>232.2</ele>
        <time>2023-05-27T09:54:11Z</time>
      </trkpt>
      <trkpt lat="43.41505" lon="1.8809">
        <ele>232.4</ele>
        <time>2023-05-27T09:54:12Z</time>
      </trkpt>
      <trkpt lat="43.41507" lon="1.88089">
        <ele>232.4</ele>
        <time>2023-05-27T09:54:13Z</time>
      </trkpt>
      <trkpt lat="43.41509" lon="1.88088">
        <ele>232.4</ele>
        <time>2023-05-27T09:54:14Z</time>
      </trkpt>
      <trkpt lat="43.41512" lon="1.88087">
        <ele>232.4</ele>
        <time>2023-05-27T09:54:15Z</time>
      </trkpt>
      <trkpt lat="43.41516" lon="1.88085">
        <ele>232.4</ele>
        <time>2023-05-27T09:54:16Z</time>
      </trkpt>
      <trkpt lat="43.41518" lon="1.88084">
        <ele>232.4</ele>
        <time>2023-05-27T09:54:17Z</time>
      </trkpt>
      <trkpt lat="43.41521" lon="1.88083">
        <ele>232.4</ele>
        <time>2023-05-27T09:54:18Z</time>
      </trkpt>
      <trkpt lat="43.41524" lon="1.88082">
        <ele>232.6</ele>
        <time>2023-05-27T09:54:19Z</time>
      </trkpt>
      <trkpt lat="43.41526" lon="1.8808">
        <ele>232.6</ele>
        <time>2023-05-27T09:54:20Z</time>
      </trkpt>
      <trkpt lat="43.41528" lon="1.88079">
        <ele>232.6</ele>
        <time>2023-05-27T09:54:21Z</time>
      </trkpt>
      <trkpt lat="43.41531" lon="1.88077">
        <ele>232.6</ele>
        <time>2023-05-27T09:54:22Z</time>
      </trkpt>
      <trkpt lat="43.41534" lon="1.88075">
        <ele>232.4</ele>
        <time>2023-05-27T09:54:23Z</time>
      </trkpt>
      <trkpt lat="43.41537" lon="1.88073">
        <ele>232.4</ele>
        <time>2023-05-27T09:54:24Z</time>
      </trkpt>
      <trkpt lat="43.4154" lon="1.88071">
        <ele>232.4</ele>
        <time>2023-05-27T09:54:25Z</time>
      </trkpt>
      <trkpt lat="43.41542" lon="1.88069">
        <ele>232.4</ele>
        <time>2023-05-27T09:54:26Z</time>
      </trkpt>
      <trkpt lat="43.41545" lon="1.88067">
        <ele>232.4</ele>
        <time>2023-05-27T09:54:27Z</time>
      </trkpt>
      <trkpt lat="43.41547" lon="1.88065">
        <ele>232.4</ele>
        <time>2023-05-27T09:54:28Z</time>
      </trkpt>
      <trkpt lat="43.4155" lon="1.88063">
        <ele>232.2</ele>
        <time>2023-05-27T09:54:29Z</time>
      </trkpt>
      <trkpt lat="43.41552" lon="1.88061">
        <ele>232.2</ele>
        <time>2023-05-27T09:54:30Z</time>
      </trkpt>
      <trkpt lat="43.41555" lon="1.8806">
        <ele>232.2</ele>
        <time>2023-05-27T09:54:31Z</time>
      </trkpt>
      <trkpt lat="43.41557" lon="1.88058">
        <ele>232.2</ele>
        <time>2023-05-27T09:54:32Z</time>
      </trkpt>
      <trkpt lat="43.4156" lon="1.88056">
        <ele>232</ele>
        <time>2023-05-27T09:54:33Z</time>
      </trkpt>
      <trkpt lat="43.41562" lon="1.88055">
        <ele>232</ele>
        <time>2023-05-27T09:54:34Z</time>
      </trkpt>
      <trkpt lat="43.41564" lon="1.88054">
        <ele>232</ele>
        <time>2023-05-27T09:54:35Z</time>
      </trkpt>
      <trkpt lat="43.41565" lon="1.88053">
        <ele>232</ele>
        <time>2023-05-27T09:54:36Z</time>
      </trkpt>
      <trkpt lat="43.41566" lon="1.88053">
        <ele>232</ele>
        <time>2023-05-27T09:54:37Z</time>
      </trkpt>
      <trkpt lat="43.41576" lon="1.88046">
        <ele>232</ele>
        <time>2023-05-27T10:02:44Z</time>
      </trkpt>
      <trkpt lat="43.41578" lon="1.88045">
        <ele>232</ele>
        <time>2023-05-27T10:02:45Z</time>
      </trkpt>
      <trkpt lat="43.41581" lon="1.88043">
        <ele>232</ele>
        <time>2023-05-27T10:02:46Z</time>
      </trkpt>
      <trkpt lat="43.41583" lon="1.88041">
        <ele>232</ele>
        <time>2023-05-27T10:02:47Z</time>
      </trkpt>
      <trkpt lat="43.41586" lon="1.8804">
        <ele>232</ele>
        <time>2023-05-27T10:02:48Z</time>
      </trkpt>
      <trkpt lat="43.41589" lon="1.88038">
        <ele>232</ele>
        <time>2023-05-27T10:02:49Z</time>
      </trkpt>
      <trkpt lat="43.41592" lon="1.88036">
        <ele>232</ele>
        <time>2023-05-27T10:02:50Z</time>
      </trkpt>
      <trkpt lat="43.41595" lon="1.88033">
        <ele>231.8</ele>
        <time>2023-05-27T10:02:51Z</time>
      </trkpt>
      <trkpt lat="43.41598" lon="1.88031">
        <ele>231.8</ele>
        <time>2023-05-27T10:02:52Z</time>
      </trkpt>
      <trkpt lat="43.41601" lon="1.88028">
        <ele>231.8</ele>
        <time>2023-05-27T10:02:53Z</time>
      </trkpt>
      <trkpt lat="43.41604" lon="1.88026">
        <ele>231.8</ele>
        <time>2023-05-27T10:02:54Z</time>
      </trkpt>
      <trkpt lat="43.41608" lon="1.88024">
        <ele>231.8</ele>
        <time>2023-05-27T10:02:55Z</time>
      </trkpt>
      <trkpt lat="43.41611" lon="1.88021">
        <ele>231.8</ele>
        <time>2023-05-27T10:02:56Z</time>
      </trkpt>
      <trkpt lat="43.41614" lon="1.8802">
        <ele>231.8</ele>
        <time>2023-05-27T10:02:57Z</time>
      </trkpt>
      <trkpt lat="43.41618" lon="1.88018">
        <ele>231.8</ele>
        <time>2023-05-27T10:02:58Z</time>
      </trkpt>
      <trkpt lat="43.41621" lon="1.88015">
        <ele>231.8</ele>
        <time>2023-05-27T10:02:59Z</time>
      </trkpt>
      <trkpt lat="43.41624" lon="1.88013">
        <ele>232</ele>
        <time>2023-05-27T10:03:00Z</time>
      </trkpt>
      <trkpt lat="43.41626" lon="1.88012">
        <ele>232</ele>
        <time>2023-05-27T10:03:01Z</time>
      </trkpt>
      <trkpt lat="43.41629" lon="1.8801">
        <ele>232</ele>
        <time>2023-05-27T10:03:02Z</time>
      </trkpt>
      <trkpt lat="43.41634" lon="1.88006">
        <ele>232</ele>
        <time>2023-05-27T10:03:03Z</time>
      </trkpt>
      <trkpt lat="43.41636" lon="1.88004">
        <ele>232</ele>
        <time>2023-05-27T10:03:04Z</time>
      </trkpt>
      <trkpt lat="43.4164" lon="1.88002">
        <ele>231.8</ele>
        <time>2023-05-27T10:03:05Z</time>
      </trkpt>
      <trkpt lat="43.41643" lon="1.88">
        <ele>231.8</ele>
        <time>2023-05-27T10:03:06Z</time>
      </trkpt>
      <trkpt lat="43.41646" lon="1.87998">
        <ele>231.8</ele>
        <time>2023-05-27T10:03:07Z</time>
      </trkpt>
      <trkpt lat="43.41649" lon="1.87996">
        <ele>231.8</ele>
        <time>2023-05-27T10:03:08Z</time>
      </trkpt>
      <trkpt lat="43.41652" lon="1.87994">
        <ele>231.8</ele>
        <time>2023-05-27T10:03:09Z</time>
      </trkpt>
      <trkpt lat="43.41655" lon="1.87993">
        <ele>231.8</ele>
        <time>2023-05-27T10:03:10Z</time>
      </trkpt>
      <trkpt lat="43.41658" lon="1.87991">
        <ele>231.8</ele>
        <time>2023-05-27T10:03:11Z</time>
      </trkpt>
      <trkpt lat="43.41661" lon="1.87989">
        <ele>231.8</ele>
        <time>2023-05-27T10:03:12Z</time>
      </trkpt>
      <trkpt lat="43.41664" lon="1.87987">
        <ele>231.8</ele>
        <time>2023-05-27T10:03:13Z</time>
      </trkpt>
      <trkpt lat="43.41667" lon="1.87984">
        <ele>232</ele>
        <time>2023-05-27T10:03:14Z</time>
      </trkpt>
      <trkpt lat="43.41671" lon="1.87982">
        <ele>231.8</ele>
        <time>2023-05-27T10:03:15Z</time>
      </trkpt>
      <trkpt lat="43.41674" lon="1.8798">
        <ele>232</ele>
        <time>2023-05-27T10:03:16Z</time>
      </trkpt>
      <trkpt lat="43.41676" lon="1.87978">
        <ele>232</ele>
        <time>2023-05-27T10:03:17Z</time>
      </trkpt>
      <trkpt lat="43.41679" lon="1.87975">
        <ele>232</ele>
        <time>2023-05-27T10:03:18Z</time>
      </trkpt>
      <trkpt lat="43.41683" lon="1.87973">
        <ele>232</ele>
        <time>2023-05-27T10:03:19Z</time>
      </trkpt>
      <trkpt lat="43.41686" lon="1.8797">
        <ele>232</ele>
        <time>2023-05-27T10:03:20Z</time>
      </trkpt>
      <trkpt lat="43.4169" lon="1.87968">
        <ele>232</ele>
        <time>2023-05-27T10:03:21Z</time>
      </trkpt>
      <trkpt lat="43.41693" lon="1.87965">
        <ele>232.2</ele>
        <time>2023-05-27T10:03:22Z</time>
      </trkpt>
      <trkpt lat="43.41697" lon="1.87963">
        <ele>232.2</ele>
        <time>2023-05-27T10:03:23Z</time>
      </trkpt>
      <trkpt lat="43.417" lon="1.87961">
        <ele>232.2</ele>
        <time>2023-05-27T10:03:24Z</time>
      </trkpt>
      <trkpt lat="43.41702" lon="1.87961">
        <ele>232.2</ele>
        <time>2023-05-27T10:03:25Z</time>
      </trkpt>
      <trkpt lat="43.41704" lon="1.87959">
        <ele>232.2</ele>
        <time>2023-05-27T10:03:26Z</time>
      </trkpt>
      <trkpt lat="43.41708" lon="1.87958">
        <ele>232.2</ele>
        <time>2023-05-27T10:03:27Z</time>
      </trkpt>
      <trkpt lat="43.41711" lon="1.87958">
        <ele>232.2</ele>
        <time>2023-05-27T10:03:28Z</time>
      </trkpt>
      <trkpt lat="43.41714" lon="1.87957">
        <ele>232.4</ele>
        <time>2023-05-27T10:03:29Z</time>
      </trkpt>
      <trkpt lat="43.41717" lon="1.87956">
        <ele>232.4</ele>
        <time>2023-05-27T10:03:30Z</time>
      </trkpt>
      <trkpt lat="43.41721" lon="1.87956">
        <ele>232.4</ele>
        <time>2023-05-27T10:03:31Z</time>
      </trkpt>
      <trkpt lat="43.41724" lon="1.87957">
        <ele>232.4</ele>
        <time>2023-05-27T10:03:32Z</time>
      </trkpt>
      <trkpt lat="43.41728" lon="1.87958">
        <ele>232.6</ele>
        <time>2023-05-27T10:03:33Z</time>
      </trkpt>
      <trkpt lat="43.41733" lon="1.8796">
        <ele>232.6</ele>
        <time>2023-05-27T10:03:34Z</time>
      </trkpt>
      <trkpt lat="43.41738" lon="1.87961">
        <ele>232.4</ele>
        <time>2023-05-27T10:03:35Z</time>
      </trkpt>
      <trkpt lat="43.41742" lon="1.87962">
        <ele>232.6</ele>
        <time>2023-05-27T10:03:36Z</time>
      </trkpt>
      <trkpt lat="43.41745" lon="1.87963">
        <ele>232.6</ele>
        <time>2023-05-27T10:03:37Z</time>
      </trkpt>
      <trkpt lat="43.41747" lon="1.87964">
        <ele>232.6</ele>
        <time>2023-05-27T10:03:38Z</time>
      </trkpt>
      <trkpt lat="43.41749" lon="1.87966">
        <ele>232.8</ele>
        <time>2023-05-27T10:03:39Z</time>
      </trkpt>
      <trkpt lat="43.41753" lon="1.87967">
        <ele>232.8</ele>
        <time>2023-05-27T10:03:40Z</time>
      </trkpt>
      <trkpt lat="43.41756" lon="1.87968">
        <ele>232.8</ele>
        <time>2023-05-27T10:03:41Z</time>
      </trkpt>
      <trkpt lat="43.41758" lon="1.87968">
        <ele>232.8</ele>
        <time>2023-05-27T10:03:42Z</time>
      </trkpt>
      <trkpt lat="43.41761" lon="1.87968">
        <ele>232.8</ele>
        <time>2023-05-27T10:03:43Z</time>
      </trkpt>
      <trkpt lat="43.41765" lon="1.87969">
        <ele>232.8</ele>
        <time>2023-05-27T10:03:44Z</time>
      </trkpt>
      <trkpt lat="43.4177" lon="1.8797">
        <ele>232.8</ele>
        <time>2023-05-27T10:03:45Z</time>
      </trkpt>
      <trkpt lat="43.41773" lon="1.8797">
        <ele>232.8</ele>
        <time>2023-05-27T10:03:46Z</time>
      </trkpt>
      <trkpt lat="43.41777" lon="1.87971">
        <ele>232.8</ele>
        <time>2023-05-27T10:03:47Z</time>
      </trkpt>
      <trkpt lat="43.41782" lon="1.87973">
        <ele>232.8</ele>
        <time>2023-05-27T10:03:48Z</time>
      </trkpt>
      <trkpt lat="43.41785" lon="1.87975">
        <ele>232.8</ele>
        <time>2023-05-27T10:03:49Z</time>
      </trkpt>
      <trkpt lat="43.41788" lon="1.87976">
        <ele>232.8</ele>
        <time>2023-05-27T10:03:50Z</time>
      </trkpt>
      <trkpt lat="43.41791" lon="1.87977">
        <ele>232.8</ele>
        <time>2023-05-27T10:03:51Z</time>
      </trkpt>
      <trkpt lat="43.41795" lon="1.87979">
        <ele>232.8</ele>
        <time>2023-05-27T10:03:52Z</time>
      </trkpt>
      <trkpt lat="43.41798" lon="1.87981">
        <ele>232.8</ele>
        <time>2023-05-27T10:03:53Z</time>
      </trkpt>
      <trkpt lat="43.41801" lon="1.87983">
        <ele>232.8</ele>
        <time>2023-05-27T10:03:54Z</time>
      </trkpt>
      <trkpt lat="43.41804" lon="1.87984">
        <ele>232.8</ele>
        <time>2023-05-27T10:03:55Z</time>
      </trkpt>
      <trkpt lat="43.41807" lon="1.87985">
        <ele>233</ele>
        <time>2023-05-27T10:03:56Z</time>
      </trkpt>
      <trkpt lat="43.41811" lon="1.87986">
        <ele>233</ele>
        <time>2023-05-27T10:03:57Z</time>
      </trkpt>
      <trkpt lat="43.41814" lon="1.87987">
        <ele>233</ele>
        <time>2023-05-27T10:03:58Z</time>
      </trkpt>
      <trkpt lat="43.41816" lon="1.87988">
        <ele>233</ele>
        <time>2023-05-27T10:03:59Z</time>
      </trkpt>
      <trkpt lat="43.41819" lon="1.87989">
        <ele>233</ele>
        <time>2023-05-27T10:04:00Z</time>
      </trkpt>
      <trkpt lat="43.41823" lon="1.8799">
        <ele>233</ele>
        <time>2023-05-27T10:04:01Z</time>
      </trkpt>
      <trkpt lat="43.41826" lon="1.87991">
        <ele>233</ele>
        <time>2023-05-27T10:04:02Z</time>
      </trkpt>
      <trkpt lat="43.41829" lon="1.87991">
        <ele>233</ele>
        <time>2023-05-27T10:04:03Z</time>
      </trkpt>
      <trkpt lat="43.41832" lon="1.87993">
        <ele>233</ele>
        <time>2023-05-27T10:04:04Z</time>
      </trkpt>
      <trkpt lat="43.41835" lon="1.87994">
        <ele>233</ele>
        <time>2023-05-27T10:04:05Z</time>
      </trkpt>
      <trkpt lat="43.41839" lon="1.87996">
        <ele>233</ele>
        <time>2023-05-27T10:04:06Z</time>
      </trkpt>
      <trkpt lat="43.41843" lon="1.87997">
        <ele>233</ele>
        <time>2023-05-27T10:04:07Z</time>
      </trkpt>
      <trkpt lat="43.41846" lon="1.87999">
        <ele>232.8</ele>
        <time>2023-05-27T10:04:08Z</time>
      </trkpt>
      <trkpt lat="43.4185" lon="1.88">
        <ele>232.8</ele>
        <time>2023-05-27T10:04:09Z</time>
      </trkpt>
      <trkpt lat="43.41854" lon="1.88001">
        <ele>232.8</ele>
        <time>2023-05-27T10:04:10Z</time>
      </trkpt>
      <trkpt lat="43.41859" lon="1.88002">
        <ele>232.8</ele>
        <time>2023-05-27T10:04:11Z</time>
      </trkpt>
      <trkpt lat="43.41864" lon="1.88004">
        <ele>232.6</ele>
        <time>2023-05-27T10:04:12Z</time>
      </trkpt>
      <trkpt lat="43.41868" lon="1.88004">
        <ele>232.6</ele>
        <time>2023-05-27T10:04:13Z</time>
      </trkpt>
      <trkpt lat="43.41873" lon="1.88005">
        <ele>232.6</ele>
        <time>2023-05-27T10:04:14Z</time>
      </trkpt>
      <trkpt lat="43.41877" lon="1.88006">
        <ele>232.4</ele>
        <time>2023-05-27T10:04:15Z</time>
      </trkpt>
      <trkpt lat="43.41881" lon="1.88008">
        <ele>232.2</ele>
        <time>2023-05-27T10:04:16Z</time>
      </trkpt>
      <trkpt lat="43.41886" lon="1.88009">
        <ele>232.2</ele>
        <time>2023-05-27T10:04:17Z</time>
      </trkpt>
      <trkpt lat="43.41891" lon="1.88011">
        <ele>232.2</ele>
        <time>2023-05-27T10:04:18Z</time>
      </trkpt>
      <trkpt lat="43.41896" lon="1.88011">
        <ele>232.2</ele>
        <time>2023-05-27T10:04:19Z</time>
      </trkpt>
      <trkpt lat="43.41901" lon="1.88011">
        <ele>232.2</ele>
        <time>2023-05-27T10:04:20Z</time>
      </trkpt>
      <trkpt lat="43.41906" lon="1.88011">
        <ele>232.2</ele>
        <time>2023-05-27T10:04:21Z</time>
      </trkpt>
      <trkpt lat="43.4191" lon="1.88011">
        <ele>232.2</ele>
        <time>2023-05-27T10:04:22Z</time>
      </trkpt>
      <trkpt lat="43.41914" lon="1.8801">
        <ele>232</ele>
        <time>2023-05-27T10:04:23Z</time>
      </trkpt>
      <trkpt lat="43.41918" lon="1.88011">
        <ele>232</ele>
        <time>2023-05-27T10:04:24Z</time>
      </trkpt>
      <trkpt lat="43.41922" lon="1.88012">
        <ele>232</ele>
        <time>2023-05-27T10:04:25Z</time>
      </trkpt>
      <trkpt lat="43.41926" lon="1.88013">
        <ele>232</ele>
        <time>2023-05-27T10:04:26Z</time>
      </trkpt>
      <trkpt lat="43.41932" lon="1.88014">
        <ele>232</ele>
        <time>2023-05-27T10:04:27Z</time>
      </trkpt>
      <trkpt lat="43.41938" lon="1.88015">
        <ele>232</ele>
        <time>2023-05-27T10:04:28Z</time>
      </trkpt>
      <trkpt lat="43.41943" lon="1.88015">
        <ele>232</ele>
        <time>2023-05-27T10:04:29Z</time>
      </trkpt>
      <trkpt lat="43.41947" lon="1.88014">
        <ele>232</ele>
        <time>2023-05-27T10:04:30Z</time>
      </trkpt>
      <trkpt lat="43.41951" lon="1.88014">
        <ele>232</ele>
        <time>2023-05-27T10:04:31Z</time>
      </trkpt>
      <trkpt lat="43.41954" lon="1.88012">
        <ele>232</ele>
        <time>2023-05-27T10:04:32Z</time>
      </trkpt>
      <trkpt lat="43.41958" lon="1.88013">
        <ele>232</ele>
        <time>2023-05-27T10:04:33Z</time>
      </trkpt>
      <trkpt lat="43.41962" lon="1.88012">
        <ele>232</ele>
        <time>2023-05-27T10:04:34Z</time>
      </trkpt>
      <trkpt lat="43.41965" lon="1.88013">
        <ele>232</ele>
        <time>2023-05-27T10:04:35Z</time>
      </trkpt>
      <trkpt lat="43.41968" lon="1.88013">
        <ele>232</ele>
        <time>2023-05-27T10:04:36Z</time>
      </trkpt>
      <trkpt lat="43.41971" lon="1.88012">
        <ele>232</ele>
        <time>2023-05-27T10:04:37Z</time>
      </trkpt>
      <trkpt lat="43.41976" lon="1.88011">
        <ele>232</ele>
        <time>2023-05-27T10:04:38Z</time>
      </trkpt>
      <trkpt lat="43.41979" lon="1.88011">
        <ele>232.2</ele>
        <time>2023-05-27T10:04:39Z</time>
      </trkpt>
      <trkpt lat="43.41982" lon="1.8801">
        <ele>232.2</ele>
        <time>2023-05-27T10:04:40Z</time>
      </trkpt>
      <trkpt lat="43.41985" lon="1.8801">
        <ele>232.2</ele>
        <time>2023-05-27T10:04:41Z</time>
      </trkpt>
      <trkpt lat="43.41988" lon="1.8801">
        <ele>232.2</ele>
        <time>2023-05-27T10:04:42Z</time>
      </trkpt>
      <trkpt lat="43.41991" lon="1.8801">
        <ele>232.2</ele>
        <time>2023-05-27T10:04:43Z</time>
      </trkpt>
      <trkpt lat="43.41994" lon="1.8801">
        <ele>232.2</ele>
        <time>2023-05-27T10:04:44Z</time>
      </trkpt>
      <trkpt lat="43.41998" lon="1.88009">
        <ele>232.2</ele>
        <time>2023-05-27T10:04:45Z</time>
      </trkpt>
      <trkpt lat="43.42001" lon="1.88009">
        <ele>232.4</ele>
        <time>2023-05-27T10:04:46Z</time>
      </trkpt>
      <trkpt lat="43.42005" lon="1.88009">
        <ele>232.4</ele>
        <time>2023-05-27T10:04:47Z</time>
      </trkpt>
      <trkpt lat="43.42009" lon="1.88009">
        <ele>232.4</ele>
        <time>2023-05-27T10:04:48Z</time>
      </trkpt>
      <trkpt lat="43.42012" lon="1.88009">
        <ele>232.2</ele>
        <time>2023-05-27T10:04:49Z</time>
      </trkpt>
      <trkpt lat="43.42016" lon="1.88008">
        <ele>232.2</ele>
        <time>2023-05-27T10:04:50Z</time>
      </trkpt>
      <trkpt lat="43.42019" lon="1.88008">
        <ele>232.2</ele>
        <time>2023-05-27T10:04:51Z</time>
      </trkpt>
      <trkpt lat="43.42023" lon="1.88008">
        <ele>232.2</ele>
        <time>2023-05-27T10:04:52Z</time>
      </trkpt>
      <trkpt lat="43.42027" lon="1.88008">
        <ele>232.2</ele>
        <time>2023-05-27T10:04:53Z</time>
      </trkpt>
      <trkpt lat="43.4203" lon="1.88007">
        <ele>232</ele>
        <time>2023-05-27T10:04:54Z</time>
      </trkpt>
      <trkpt lat="43.42033" lon="1.88008">
        <ele>232</ele>
        <time>2023-05-27T10:04:55Z</time>
      </trkpt>
      <trkpt lat="43.42036" lon="1.88009">
        <ele>232</ele>
        <time>2023-05-27T10:04:56Z</time>
      </trkpt>
      <trkpt lat="43.42039" lon="1.88009">
        <ele>232</ele>
        <time>2023-05-27T10:04:57Z</time>
      </trkpt>
      <trkpt lat="43.42042" lon="1.88011">
        <ele>232</ele>
        <time>2023-05-27T10:04:58Z</time>
      </trkpt>
      <trkpt lat="43.42046" lon="1.88012">
        <ele>231.8</ele>
        <time>2023-05-27T10:04:59Z</time>
      </trkpt>
      <trkpt lat="43.4205" lon="1.88015">
        <ele>231.8</ele>
        <time>2023-05-27T10:05:00Z</time>
      </trkpt>
      <trkpt lat="43.42054" lon="1.88017">
        <ele>231.8</ele>
        <time>2023-05-27T10:05:01Z</time>
      </trkpt>
      <trkpt lat="43.42057" lon="1.88019">
        <ele>231.8</ele>
        <time>2023-05-27T10:05:02Z</time>
      </trkpt>
      <trkpt lat="43.4206" lon="1.88021">
        <ele>231.8</ele>
        <time>2023-05-27T10:05:03Z</time>
      </trkpt>
      <trkpt lat="43.42064" lon="1.88023">
        <ele>231.8</ele>
        <time>2023-05-27T10:05:04Z</time>
      </trkpt>
      <trkpt lat="43.42068" lon="1.88025">
        <ele>231.8</ele>
        <time>2023-05-27T10:05:05Z</time>
      </trkpt>
      <trkpt lat="43.4207" lon="1.88027">
        <ele>231.8</ele>
        <time>2023-05-27T10:05:06Z</time>
      </trkpt>
      <trkpt lat="43.42072" lon="1.88029">
        <ele>231.8</ele>
        <time>2023-05-27T10:05:07Z</time>
      </trkpt>
      <trkpt lat="43.42074" lon="1.88031">
        <ele>231.8</ele>
        <time>2023-05-27T10:05:08Z</time>
      </trkpt>
      <trkpt lat="43.42078" lon="1.88035">
        <ele>231.8</ele>
        <time>2023-05-27T10:05:09Z</time>
      </trkpt>
      <trkpt lat="43.42081" lon="1.88038">
        <ele>231.8</ele>
        <time>2023-05-27T10:05:10Z</time>
      </trkpt>
      <trkpt lat="43.42083" lon="1.88041">
        <ele>231.8</ele>
        <time>2023-05-27T10:05:11Z</time>
      </trkpt>
      <trkpt lat="43.42085" lon="1.88044">
        <ele>231.6</ele>
        <time>2023-05-27T10:05:12Z</time>
      </trkpt>
      <trkpt lat="43.42088" lon="1.88048">
        <ele>231.6</ele>
        <time>2023-05-27T10:05:13Z</time>
      </trkpt>
      <trkpt lat="43.42091" lon="1.88053">
        <ele>231.6</ele>
        <time>2023-05-27T10:05:14Z</time>
      </trkpt>
      <trkpt lat="43.42094" lon="1.88057">
        <ele>231.6</ele>
        <time>2023-05-27T10:05:15Z</time>
      </trkpt>
      <trkpt lat="43.42096" lon="1.88062">
        <ele>231.6</ele>
        <time>2023-05-27T10:05:16Z</time>
      </trkpt>
      <trkpt lat="43.42098" lon="1.88066">
        <ele>231.6</ele>
        <time>2023-05-27T10:05:17Z</time>
      </trkpt>
      <trkpt lat="43.421" lon="1.88071">
        <ele>231.6</ele>
        <time>2023-05-27T10:05:18Z</time>
      </trkpt>
      <trkpt lat="43.42103" lon="1.88077">
        <ele>231.4</ele>
        <time>2023-05-27T10:05:19Z</time>
      </trkpt>
      <trkpt lat="43.42105" lon="1.88081">
        <ele>231.6</ele>
        <time>2023-05-27T10:05:20Z</time>
      </trkpt>
      <trkpt lat="43.42106" lon="1.88084">
        <ele>231.6</ele>
        <time>2023-05-27T10:05:21Z</time>
      </trkpt>
      <trkpt lat="43.42107" lon="1.88087">
        <ele>231.6</ele>
        <time>2023-05-27T10:05:22Z</time>
      </trkpt>
      <trkpt lat="43.4211" lon="1.88092">
        <ele>231.6</ele>
        <time>2023-05-27T10:05:23Z</time>
      </trkpt>
      <trkpt lat="43.42113" lon="1.88096">
        <ele>231.6</ele>
        <time>2023-05-27T10:05:24Z</time>
      </trkpt>
      <trkpt lat="43.42116" lon="1.881">
        <ele>231.8</ele>
        <time>2023-05-27T10:05:25Z</time>
      </trkpt>
      <trkpt lat="43.42118" lon="1.88103">
        <ele>231.8</ele>
        <time>2023-05-27T10:05:26Z</time>
      </trkpt>
      <trkpt lat="43.42122" lon="1.88106">
        <ele>231.8</ele>
        <time>2023-05-27T10:05:27Z</time>
      </trkpt>
      <trkpt lat="43.42125" lon="1.88109">
        <ele>231.8</ele>
        <time>2023-05-27T10:05:28Z</time>
      </trkpt>
      <trkpt lat="43.42128" lon="1.88111">
        <ele>231.8</ele>
        <time>2023-05-27T10:05:29Z</time>
      </trkpt>
      <trkpt lat="43.4213" lon="1.88111">
        <ele>231.8</ele>
        <time>2023-05-27T10:05:30Z</time>
      </trkpt>
      <trkpt lat="43.42133" lon="1.88112">
        <ele>231.8</ele>
        <time>2023-05-27T10:05:31Z</time>
      </trkpt>
      <trkpt lat="43.42137" lon="1.88113">
        <ele>231.8</ele>
        <time>2023-05-27T10:05:32Z</time>
      </trkpt>
      <trkpt lat="43.42141" lon="1.88115">
        <ele>231.8</ele>
        <time>2023-05-27T10:05:33Z</time>
      </trkpt>
      <trkpt lat="43.42145" lon="1.88117">
        <ele>231.8</ele>
        <time>2023-05-27T10:05:34Z</time>
      </trkpt>
      <trkpt lat="43.42148" lon="1.88118">
        <ele>232</ele>
        <time>2023-05-27T10:05:35Z</time>
      </trkpt>
      <trkpt lat="43.42151" lon="1.88118">
        <ele>232</ele>
        <time>2023-05-27T10:05:36Z</time>
      </trkpt>
      <trkpt lat="43.42154" lon="1.88118">
        <ele>232</ele>
        <time>2023-05-27T10:05:37Z</time>
      </trkpt>
      <trkpt lat="43.42157" lon="1.88117">
        <ele>232</ele>
        <time>2023-05-27T10:05:38Z</time>
      </trkpt>
      <trkpt lat="43.4216" lon="1.88117">
        <ele>232</ele>
        <time>2023-05-27T10:05:39Z</time>
      </trkpt>
      <trkpt lat="43.42163" lon="1.88118">
        <ele>232</ele>
        <time>2023-05-27T10:05:40Z</time>
      </trkpt>
      <trkpt lat="43.42166" lon="1.88121">
        <ele>232</ele>
        <time>2023-05-27T10:05:41Z</time>
      </trkpt>
      <trkpt lat="43.42168" lon="1.88124">
        <ele>232</ele>
        <time>2023-05-27T10:05:42Z</time>
      </trkpt>
      <trkpt lat="43.42169" lon="1.88127">
        <ele>232</ele>
        <time>2023-05-27T10:05:43Z</time>
      </trkpt>
      <trkpt lat="43.42169" lon="1.88131">
        <ele>232.2</ele>
        <time>2023-05-27T10:05:44Z</time>
      </trkpt>
      <trkpt lat="43.42169" lon="1.88136">
        <ele>232.2</ele>
        <time>2023-05-27T10:05:45Z</time>
      </trkpt>
      <trkpt lat="43.42168" lon="1.88139">
        <ele>232.2</ele>
        <time>2023-05-27T10:05:46Z</time>
      </trkpt>
      <trkpt lat="43.42167" lon="1.88142">
        <ele>232.4</ele>
        <time>2023-05-27T10:05:47Z</time>
      </trkpt>
      <trkpt lat="43.42167" lon="1.88144">
        <ele>232.4</ele>
        <time>2023-05-27T10:05:48Z</time>
      </trkpt>
      <trkpt lat="43.42167" lon="1.88147">
        <ele>232.4</ele>
        <time>2023-05-27T10:05:49Z</time>
      </trkpt>
      <trkpt lat="43.42166" lon="1.8815">
        <ele>232.4</ele>
        <time>2023-05-27T10:05:50Z</time>
      </trkpt>
      <trkpt lat="43.42166" lon="1.88153">
        <ele>232.4</ele>
        <time>2023-05-27T10:05:51Z</time>
      </trkpt>
      <trkpt lat="43.42167" lon="1.88157">
        <ele>232.4</ele>
        <time>2023-05-27T10:05:52Z</time>
      </trkpt>
      <trkpt lat="43.42167" lon="1.88161">
        <ele>232.6</ele>
        <time>2023-05-27T10:05:53Z</time>
      </trkpt>
      <trkpt lat="43.42167" lon="1.88165">
        <ele>232.6</ele>
        <time>2023-05-27T10:05:54Z</time>
      </trkpt>
      <trkpt lat="43.42167" lon="1.88168">
        <ele>232.6</ele>
        <time>2023-05-27T10:05:55Z</time>
      </trkpt>
      <trkpt lat="43.42167" lon="1.88171">
        <ele>232.6</ele>
        <time>2023-05-27T10:05:56Z</time>
      </trkpt>
      <trkpt lat="43.42168" lon="1.88175">
        <ele>232.8</ele>
        <time>2023-05-27T10:05:57Z</time>
      </trkpt>
      <trkpt lat="43.42168" lon="1.88179">
        <ele>232.8</ele>
        <time>2023-05-27T10:05:58Z</time>
      </trkpt>
      <trkpt lat="43.42168" lon="1.88182">
        <ele>233</ele>
        <time>2023-05-27T10:05:59Z</time>
      </trkpt>
      <trkpt lat="43.42168" lon="1.88186">
        <ele>233</ele>
        <time>2023-05-27T10:06:00Z</time>
      </trkpt>
      <trkpt lat="43.42169" lon="1.88189">
        <ele>233.2</ele>
        <time>2023-05-27T10:06:01Z</time>
      </trkpt>
      <trkpt lat="43.42169" lon="1.88192">
        <ele>233.2</ele>
        <time>2023-05-27T10:06:02Z</time>
      </trkpt>
      <trkpt lat="43.42169" lon="1.88195">
        <ele>233.4</ele>
        <time>2023-05-27T10:06:03Z</time>
      </trkpt>
      <trkpt lat="43.42169" lon="1.88198">
        <ele>233.4</ele>
        <time>2023-05-27T10:06:04Z</time>
      </trkpt>
      <trkpt lat="43.42169" lon="1.882">
        <ele>233.6</ele>
        <time>2023-05-27T10:06:05Z</time>
      </trkpt>
      <trkpt lat="43.4217" lon="1.88202">
        <ele>233.6</ele>
        <time>2023-05-27T10:06:06Z</time>
      </trkpt>
      <trkpt lat="43.4217" lon="1.88206">
        <ele>233.8</ele>
        <time>2023-05-27T10:06:07Z</time>
      </trkpt>
      <trkpt lat="43.4217" lon="1.8821">
        <ele>233.8</ele>
        <time>2023-05-27T10:06:08Z</time>
      </trkpt>
      <trkpt lat="43.42171" lon="1.88212">
        <ele>234</ele>
        <time>2023-05-27T10:06:09Z</time>
      </trkpt>
      <trkpt lat="43.42172" lon="1.88215">
        <ele>234.2</ele>
        <time>2023-05-27T10:06:10Z</time>
      </trkpt>
      <trkpt lat="43.42174" lon="1.88219">
        <ele>234.2</ele>
        <time>2023-05-27T10:06:11Z</time>
      </trkpt>
      <trkpt lat="43.42176" lon="1.88223">
        <ele>234.4</ele>
        <time>2023-05-27T10:06:12Z</time>
      </trkpt>
      <trkpt lat="43.42177" lon="1.88228">
        <ele>234.4</ele>
        <time>2023-05-27T10:06:13Z</time>
      </trkpt>
      <trkpt lat="43.42179" lon="1.88232">
        <ele>234.4</ele>
        <time>2023-05-27T10:06:14Z</time>
      </trkpt>
      <trkpt lat="43.4218" lon="1.88235">
        <ele>234.6</ele>
        <time>2023-05-27T10:06:15Z</time>
      </trkpt>
      <trkpt lat="43.42181" lon="1.88237">
        <ele>234.6</ele>
        <time>2023-05-27T10:06:16Z</time>
      </trkpt>
      <trkpt lat="43.42182" lon="1.88239">
        <ele>234.6</ele>
        <time>2023-05-27T10:06:17Z</time>
      </trkpt>
      <trkpt lat="43.42182" lon="1.88242">
        <ele>234.8</ele>
        <time>2023-05-27T10:06:18Z</time>
      </trkpt>
      <trkpt lat="43.42184" lon="1.88244">
        <ele>234.6</ele>
        <time>2023-05-27T10:06:19Z</time>
      </trkpt>
      <trkpt lat="43.42185" lon="1.88247">
        <ele>234.8</ele>
        <time>2023-05-27T10:06:20Z</time>
      </trkpt>
      <trkpt lat="43.42187" lon="1.8825">
        <ele>234.8</ele>
        <time>2023-05-27T10:06:21Z</time>
      </trkpt>
      <trkpt lat="43.42188" lon="1.88252">
        <ele>234.8</ele>
        <time>2023-05-27T10:06:22Z</time>
      </trkpt>
      <trkpt lat="43.4219" lon="1.88254">
        <ele>234.8</ele>
        <time>2023-05-27T10:06:23Z</time>
      </trkpt>
      <trkpt lat="43.42192" lon="1.88257">
        <ele>234.6</ele>
        <time>2023-05-27T10:06:24Z</time>
      </trkpt>
      <trkpt lat="43.42194" lon="1.88259">
        <ele>234.6</ele>
        <time>2023-05-27T10:06:25Z</time>
      </trkpt>
      <trkpt lat="43.42196" lon="1.88262">
        <ele>234.6</ele>
        <time>2023-05-27T10:06:26Z</time>
      </trkpt>
      <trkpt lat="43.42197" lon="1.88264">
        <ele>234.6</ele>
        <time>2023-05-27T10:06:27Z</time>
      </trkpt>
      <trkpt lat="43.42199" lon="1.88267">
        <ele>234.6</ele>
        <time>2023-05-27T10:06:28Z</time>
      </trkpt>
      <trkpt lat="43.42201" lon="1.88269">
        <ele>234.6</ele>
        <time>2023-05-27T10:06:29Z</time>
      </trkpt>
      <trkpt lat="43.42204" lon="1.88273">
        <ele>234.6</ele>
        <time>2023-05-27T10:06:30Z</time>
      </trkpt>
      <trkpt lat="43.42206" lon="1.88276">
        <ele>234.4</ele>
        <time>2023-05-27T10:06:31Z</time>
      </trkpt>
      <trkpt lat="43.42208" lon="1.8828">
        <ele>234.4</ele>
        <time>2023-05-27T10:06:32Z</time>
      </trkpt>
      <trkpt lat="43.42211" lon="1.88283">
        <ele>234.4</ele>
        <time>2023-05-27T10:06:33Z</time>
      </trkpt>
      <trkpt lat="43.42214" lon="1.88287">
        <ele>234.4</ele>
        <time>2023-05-27T10:06:34Z</time>
      </trkpt>
      <trkpt lat="43.42217" lon="1.88291">
        <ele>234.2</ele>
        <time>2023-05-27T10:06:35Z</time>
      </trkpt>
      <trkpt lat="43.4222" lon="1.88294">
        <ele>234.2</ele>
        <time>2023-05-27T10:06:36Z</time>
      </trkpt>
      <trkpt lat="43.42223" lon="1.88297">
        <ele>234.2</ele>
        <time>2023-05-27T10:06:37Z</time>
      </trkpt>
      <trkpt lat="43.42226" lon="1.88299">
        <ele>234</ele>
        <time>2023-05-27T10:06:38Z</time>
      </trkpt>
      <trkpt lat="43.42229" lon="1.88302">
        <ele>233.8</ele>
        <time>2023-05-27T10:06:39Z</time>
      </trkpt>
      <trkpt lat="43.42233" lon="1.88304">
        <ele>233.6</ele>
        <time>2023-05-27T10:06:40Z</time>
      </trkpt>
      <trkpt lat="43.42237" lon="1.88306">
        <ele>233.6</ele>
        <time>2023-05-27T10:06:41Z</time>
      </trkpt>
      <trkpt lat="43.42241" lon="1.88309">
        <ele>233.4</ele>
        <time>2023-05-27T10:06:42Z</time>
      </trkpt>
      <trkpt lat="43.42245" lon="1.88312">
        <ele>233.4</ele>
        <time>2023-05-27T10:06:43Z</time>
      </trkpt>
      <trkpt lat="43.42249" lon="1.88316">
        <ele>233</ele>
        <time>2023-05-27T10:06:44Z</time>
      </trkpt>
      <trkpt lat="43.42253" lon="1.88319">
        <ele>233.2</ele>
        <time>2023-05-27T10:06:45Z</time>
      </trkpt>
      <trkpt lat="43.42258" lon="1.88321">
        <ele>233</ele>
        <time>2023-05-27T10:06:46Z</time>
      </trkpt>
      <trkpt lat="43.42262" lon="1.88324">
        <ele>232.8</ele>
        <time>2023-05-27T10:06:47Z</time>
      </trkpt>
      <trkpt lat="43.42266" lon="1.88326">
        <ele>232.6</ele>
        <time>2023-05-27T10:06:48Z</time>
      </trkpt>
      <trkpt lat="43.42271" lon="1.88328">
        <ele>232.4</ele>
        <time>2023-05-27T10:06:49Z</time>
      </trkpt>
      <trkpt lat="43.42275" lon="1.88331">
        <ele>232.2</ele>
        <time>2023-05-27T10:06:50Z</time>
      </trkpt>
      <trkpt lat="43.42279" lon="1.88335">
        <ele>232</ele>
        <time>2023-05-27T10:06:51Z</time>
      </trkpt>
      <trkpt lat="43.42284" lon="1.88338">
        <ele>231.8</ele>
        <time>2023-05-27T10:06:52Z</time>
      </trkpt>
      <trkpt lat="43.42289" lon="1.88342">
        <ele>231.8</ele>
        <time>2023-05-27T10:06:53Z</time>
      </trkpt>
      <trkpt lat="43.42293" lon="1.88345">
        <ele>231.6</ele>
        <time>2023-05-27T10:06:54Z</time>
      </trkpt>
      <trkpt lat="43.42297" lon="1.88348">
        <ele>231.4</ele>
        <time>2023-05-27T10:06:55Z</time>
      </trkpt>
      <trkpt lat="43.423" lon="1.88354">
        <ele>231.4</ele>
        <time>2023-05-27T10:06:56Z</time>
      </trkpt>
      <trkpt lat="43.42303" lon="1.88358">
        <ele>231.4</ele>
        <time>2023-05-27T10:06:57Z</time>
      </trkpt>
      <trkpt lat="43.42305" lon="1.88361">
        <ele>231.2</ele>
        <time>2023-05-27T10:06:58Z</time>
      </trkpt>
      <trkpt lat="43.42308" lon="1.88365">
        <ele>231.2</ele>
        <time>2023-05-27T10:06:59Z</time>
      </trkpt>
      <trkpt lat="43.42312" lon="1.8837">
        <ele>231.2</ele>
        <time>2023-05-27T10:07:00Z</time>
      </trkpt>
      <trkpt lat="43.42316" lon="1.88377">
        <ele>231.4</ele>
        <time>2023-05-27T10:07:01Z</time>
      </trkpt>
      <trkpt lat="43.42319" lon="1.88382">
        <ele>231.4</ele>
        <time>2023-05-27T10:07:02Z</time>
      </trkpt>
      <trkpt lat="43.42323" lon="1.88386">
        <ele>231.4</ele>
        <time>2023-05-27T10:07:03Z</time>
      </trkpt>
      <trkpt lat="43.42324" lon="1.8839">
        <ele>231.4</ele>
        <time>2023-05-27T10:07:04Z</time>
      </trkpt>
      <trkpt lat="43.42326" lon="1.88393">
        <ele>231.4</ele>
        <time>2023-05-27T10:07:05Z</time>
      </trkpt>
      <trkpt lat="43.42329" lon="1.88397">
        <ele>231.4</ele>
        <time>2023-05-27T10:07:06Z</time>
      </trkpt>
      <trkpt lat="43.42331" lon="1.884">
        <ele>231.4</ele>
        <time>2023-05-27T10:07:07Z</time>
      </trkpt>
      <trkpt lat="43.42333" lon="1.88403">
        <ele>231.4</ele>
        <time>2023-05-27T10:07:08Z</time>
      </trkpt>
      <trkpt lat="43.42336" lon="1.88407">
        <ele>231.4</ele>
        <time>2023-05-27T10:07:09Z</time>
      </trkpt>
      <trkpt lat="43.42339" lon="1.88411">
        <ele>231.6</ele>
        <time>2023-05-27T10:07:10Z</time>
      </trkpt>
      <trkpt lat="43.42341" lon="1.88414">
        <ele>231.8</ele>
        <time>2023-05-27T10:07:11Z</time>
      </trkpt>
      <trkpt lat="43.42343" lon="1.88417">
        <ele>231.8</ele>
        <time>2023-05-27T10:07:12Z</time>
      </trkpt>
      <trkpt lat="43.42345" lon="1.8842">
        <ele>231.8</ele>
        <time>2023-05-27T10:07:13Z</time>
      </trkpt>
      <trkpt lat="43.42347" lon="1.88423">
        <ele>231.8</ele>
        <time>2023-05-27T10:07:14Z</time>
      </trkpt>
      <trkpt lat="43.4235" lon="1.88426">
        <ele>231.8</ele>
        <time>2023-05-27T10:07:15Z</time>
      </trkpt>
      <trkpt lat="43.42352" lon="1.88429">
        <ele>231.8</ele>
        <time>2023-05-27T10:07:16Z</time>
      </trkpt>
      <trkpt lat="43.42355" lon="1.88432">
        <ele>231.8</ele>
        <time>2023-05-27T10:07:17Z</time>
      </trkpt>
      <trkpt lat="43.42358" lon="1.88435">
        <ele>231.8</ele>
        <time>2023-05-27T10:07:18Z</time>
      </trkpt>
      <trkpt lat="43.42362" lon="1.88438">
        <ele>231.8</ele>
        <time>2023-05-27T10:07:19Z</time>
      </trkpt>
      <trkpt lat="43.42366" lon="1.8844">
        <ele>231.8</ele>
        <time>2023-05-27T10:07:20Z</time>
      </trkpt>
      <trkpt lat="43.42369" lon="1.88441">
        <ele>231.8</ele>
        <time>2023-05-27T10:07:21Z</time>
      </trkpt>
      <trkpt lat="43.42373" lon="1.88443">
        <ele>232</ele>
        <time>2023-05-27T10:07:22Z</time>
      </trkpt>
      <trkpt lat="43.42376" lon="1.88444">
        <ele>232</ele>
        <time>2023-05-27T10:07:23Z</time>
      </trkpt>
      <trkpt lat="43.4238" lon="1.88445">
        <ele>232</ele>
        <time>2023-05-27T10:07:24Z</time>
      </trkpt>
      <trkpt lat="43.42383" lon="1.88448">
        <ele>232</ele>
        <time>2023-05-27T10:07:25Z</time>
      </trkpt>
      <trkpt lat="43.42386" lon="1.8845">
        <ele>231.8</ele>
        <time>2023-05-27T10:07:26Z</time>
      </trkpt>
      <trkpt lat="43.42388" lon="1.88453">
        <ele>231.8</ele>
        <time>2023-05-27T10:07:27Z</time>
      </trkpt>
      <trkpt lat="43.42391" lon="1.88458">
        <ele>231.8</ele>
        <time>2023-05-27T10:07:28Z</time>
      </trkpt>
      <trkpt lat="43.42393" lon="1.88463">
        <ele>231.8</ele>
        <time>2023-05-27T10:07:29Z</time>
      </trkpt>
      <trkpt lat="43.42393" lon="1.88468">
        <ele>231.8</ele>
        <time>2023-05-27T10:07:30Z</time>
      </trkpt>
      <trkpt lat="43.42392" lon="1.88473">
        <ele>231.8</ele>
        <time>2023-05-27T10:07:31Z</time>
      </trkpt>
      <trkpt lat="43.42391" lon="1.88478">
        <ele>231.8</ele>
        <time>2023-05-27T10:07:32Z</time>
      </trkpt>
      <trkpt lat="43.42391" lon="1.88482">
        <ele>231.8</ele>
        <time>2023-05-27T10:07:33Z</time>
      </trkpt>
      <trkpt lat="43.42391" lon="1.88487">
        <ele>231.8</ele>
        <time>2023-05-27T10:07:34Z</time>
      </trkpt>
      <trkpt lat="43.42389" lon="1.88492">
        <ele>231.8</ele>
        <time>2023-05-27T10:07:35Z</time>
      </trkpt>
      <trkpt lat="43.42387" lon="1.88495">
        <ele>231.8</ele>
        <time>2023-05-27T10:07:36Z</time>
      </trkpt>
      <trkpt lat="43.42385" lon="1.885">
        <ele>231.6</ele>
        <time>2023-05-27T10:07:37Z</time>
      </trkpt>
      <trkpt lat="43.42384" lon="1.88505">
        <ele>231.6</ele>
        <time>2023-05-27T10:07:38Z</time>
      </trkpt>
      <trkpt lat="43.42382" lon="1.8851">
        <ele>231.6</ele>
        <time>2023-05-27T10:07:39Z</time>
      </trkpt>
      <trkpt lat="43.42379" lon="1.88516">
        <ele>231.4</ele>
        <time>2023-05-27T10:07:40Z</time>
      </trkpt>
      <trkpt lat="43.42376" lon="1.88522">
        <ele>231.4</ele>
        <time>2023-05-27T10:07:41Z</time>
      </trkpt>
      <trkpt lat="43.42374" lon="1.88528">
        <ele>231.4</ele>
        <time>2023-05-27T10:07:42Z</time>
      </trkpt>
      <trkpt lat="43.42372" lon="1.88533">
        <ele>231.4</ele>
        <time>2023-05-27T10:07:43Z</time>
      </trkpt>
      <trkpt lat="43.4237" lon="1.88538">
        <ele>231.4</ele>
        <time>2023-05-27T10:07:44Z</time>
      </trkpt>
      <trkpt lat="43.42368" lon="1.88544">
        <ele>231.4</ele>
        <time>2023-05-27T10:07:45Z</time>
      </trkpt>
      <trkpt lat="43.42366" lon="1.8855">
        <ele>231.4</ele>
        <time>2023-05-27T10:07:46Z</time>
      </trkpt>
      <trkpt lat="43.42364" lon="1.88556">
        <ele>231.4</ele>
        <time>2023-05-27T10:07:47Z</time>
      </trkpt>
      <trkpt lat="43.42363" lon="1.88561">
        <ele>231.4</ele>
        <time>2023-05-27T10:07:48Z</time>
      </trkpt>
      <trkpt lat="43.42363" lon="1.88565">
        <ele>231.2</ele>
        <time>2023-05-27T10:07:49Z</time>
      </trkpt>
      <trkpt lat="43.42362" lon="1.88569">
        <ele>231.2</ele>
        <time>2023-05-27T10:07:50Z</time>
      </trkpt>
      <trkpt lat="43.42362" lon="1.88574">
        <ele>231.2</ele>
        <time>2023-05-27T10:07:51Z</time>
      </trkpt>
      <trkpt lat="43.42361" lon="1.88579">
        <ele>231.2</ele>
        <time>2023-05-27T10:07:52Z</time>
      </trkpt>
      <trkpt lat="43.42361" lon="1.88583">
        <ele>231.2</ele>
        <time>2023-05-27T10:07:53Z</time>
      </trkpt>
      <trkpt lat="43.42361" lon="1.88588">
        <ele>231.2</ele>
        <time>2023-05-27T10:07:54Z</time>
      </trkpt>
      <trkpt lat="43.42362" lon="1.88592">
        <ele>231.4</ele>
        <time>2023-05-27T10:07:55Z</time>
      </trkpt>
      <trkpt lat="43.42362" lon="1.88597">
        <ele>231.4</ele>
        <time>2023-05-27T10:07:56Z</time>
      </trkpt>
      <trkpt lat="43.42363" lon="1.88601">
        <ele>231.4</ele>
        <time>2023-05-27T10:07:57Z</time>
      </trkpt>
      <trkpt lat="43.42365" lon="1.88606">
        <ele>231.4</ele>
        <time>2023-05-27T10:07:58Z</time>
      </trkpt>
      <trkpt lat="43.42366" lon="1.88609">
        <ele>231.4</ele>
        <time>2023-05-27T10:07:59Z</time>
      </trkpt>
      <trkpt lat="43.42367" lon="1.88613">
        <ele>231.4</ele>
        <time>2023-05-27T10:08:00Z</time>
      </trkpt>
      <trkpt lat="43.4237" lon="1.88617">
        <ele>231.4</ele>
        <time>2023-05-27T10:08:01Z</time>
      </trkpt>
      <trkpt lat="43.42371" lon="1.8862">
        <ele>231.4</ele>
        <time>2023-05-27T10:08:02Z</time>
      </trkpt>
      <trkpt lat="43.42373" lon="1.88624">
        <ele>231.6</ele>
        <time>2023-05-27T10:08:03Z</time>
      </trkpt>
      <trkpt lat="43.42375" lon="1.88627">
        <ele>231.6</ele>
        <time>2023-05-27T10:08:04Z</time>
      </trkpt>
      <trkpt lat="43.42378" lon="1.8863">
        <ele>231.6</ele>
        <time>2023-05-27T10:08:05Z</time>
      </trkpt>
      <trkpt lat="43.4238" lon="1.88633">
        <ele>231.6</ele>
        <time>2023-05-27T10:08:06Z</time>
      </trkpt>
      <trkpt lat="43.42382" lon="1.88638">
        <ele>231.6</ele>
        <time>2023-05-27T10:08:07Z</time>
      </trkpt>
      <trkpt lat="43.42384" lon="1.88641">
        <ele>231.6</ele>
        <time>2023-05-27T10:08:08Z</time>
      </trkpt>
      <trkpt lat="43.42386" lon="1.88645">
        <ele>231.6</ele>
        <time>2023-05-27T10:08:09Z</time>
      </trkpt>
      <trkpt lat="43.42388" lon="1.88648">
        <ele>231.6</ele>
        <time>2023-05-27T10:08:10Z</time>
      </trkpt>
      <trkpt lat="43.42389" lon="1.88653">
        <ele>231.6</ele>
        <time>2023-05-27T10:08:11Z</time>
      </trkpt>
      <trkpt lat="43.4239" lon="1.88657">
        <ele>231.6</ele>
        <time>2023-05-27T10:08:12Z</time>
      </trkpt>
      <trkpt lat="43.42391" lon="1.88663">
        <ele>231.6</ele>
        <time>2023-05-27T10:08:13Z</time>
      </trkpt>
      <trkpt lat="43.42391" lon="1.88668">
        <ele>231.6</ele>
        <time>2023-05-27T10:08:14Z</time>
      </trkpt>
      <trkpt lat="43.42392" lon="1.88673">
        <ele>231.6</ele>
        <time>2023-05-27T10:08:15Z</time>
      </trkpt>
      <trkpt lat="43.42392" lon="1.88678">
        <ele>231.6</ele>
        <time>2023-05-27T10:08:16Z</time>
      </trkpt>
      <trkpt lat="43.42392" lon="1.88684">
        <ele>231.6</ele>
        <time>2023-05-27T10:08:17Z</time>
      </trkpt>
      <trkpt lat="43.42392" lon="1.88689">
        <ele>231.6</ele>
        <time>2023-05-27T10:08:18Z</time>
      </trkpt>
      <trkpt lat="43.42392" lon="1.88694">
        <ele>231.6</ele>
        <time>2023-05-27T10:08:19Z</time>
      </trkpt>
      <trkpt lat="43.42391" lon="1.88698">
        <ele>231.6</ele>
        <time>2023-05-27T10:08:20Z</time>
      </trkpt>
      <trkpt lat="43.4239" lon="1.88703">
        <ele>231.6</ele>
        <time>2023-05-27T10:08:21Z</time>
      </trkpt>
      <trkpt lat="43.42389" lon="1.88707">
        <ele>231.6</ele>
        <time>2023-05-27T10:08:22Z</time>
      </trkpt>
      <trkpt lat="43.42389" lon="1.88713">
        <ele>231.6</ele>
        <time>2023-05-27T10:08:23Z</time>
      </trkpt>
      <trkpt lat="43.42388" lon="1.88719">
        <ele>231.6</ele>
        <time>2023-05-27T10:08:24Z</time>
      </trkpt>
      <trkpt lat="43.42388" lon="1.88725">
        <ele>231.6</ele>
        <time>2023-05-27T10:08:25Z</time>
      </trkpt>
      <trkpt lat="43.42386" lon="1.88731">
        <ele>231.6</ele>
        <time>2023-05-27T10:08:26Z</time>
      </trkpt>
      <trkpt lat="43.42384" lon="1.88737">
        <ele>231.6</ele>
        <time>2023-05-27T10:08:27Z</time>
      </trkpt>
      <trkpt lat="43.42383" lon="1.88743">
        <ele>231.6</ele>
        <time>2023-05-27T10:08:28Z</time>
      </trkpt>
      <trkpt lat="43.42382" lon="1.88749">
        <ele>231.6</ele>
        <time>2023-05-27T10:08:29Z</time>
      </trkpt>
      <trkpt lat="43.42381" lon="1.88755">
        <ele>231.6</ele>
        <time>2023-05-27T10:08:30Z</time>
      </trkpt>
      <trkpt lat="43.42379" lon="1.88761">
        <ele>231.6</ele>
        <time>2023-05-27T10:08:31Z</time>
      </trkpt>
      <trkpt lat="43.42378" lon="1.88767">
        <ele>231.6</ele>
        <time>2023-05-27T10:08:32Z</time>
      </trkpt>
      <trkpt lat="43.42376" lon="1.88772">
        <ele>231.6</ele>
        <time>2023-05-27T10:08:33Z</time>
      </trkpt>
      <trkpt lat="43.42375" lon="1.88777">
        <ele>231.6</ele>
        <time>2023-05-27T10:08:34Z</time>
      </trkpt>
      <trkpt lat="43.42372" lon="1.88781">
        <ele>231.6</ele>
        <time>2023-05-27T10:08:35Z</time>
      </trkpt>
      <trkpt lat="43.4237" lon="1.88783">
        <ele>231.8</ele>
        <time>2023-05-27T10:08:36Z</time>
      </trkpt>
      <trkpt lat="43.42368" lon="1.88787">
        <ele>231.8</ele>
        <time>2023-05-27T10:08:37Z</time>
      </trkpt>
      <trkpt lat="43.42367" lon="1.88791">
        <ele>231.8</ele>
        <time>2023-05-27T10:08:38Z</time>
      </trkpt>
      <trkpt lat="43.42366" lon="1.88796">
        <ele>231.8</ele>
        <time>2023-05-27T10:08:39Z</time>
      </trkpt>
      <trkpt lat="43.42365" lon="1.88801">
        <ele>231.8</ele>
        <time>2023-05-27T10:08:40Z</time>
      </trkpt>
      <trkpt lat="43.42365" lon="1.88807">
        <ele>231.8</ele>
        <time>2023-05-27T10:08:41Z</time>
      </trkpt>
      <trkpt lat="43.42365" lon="1.88811">
        <ele>231.8</ele>
        <time>2023-05-27T10:08:42Z</time>
      </trkpt>
      <trkpt lat="43.42365" lon="1.88816">
        <ele>232</ele>
        <time>2023-05-27T10:08:43Z</time>
      </trkpt>
      <trkpt lat="43.42365" lon="1.88821">
        <ele>232</ele>
        <time>2023-05-27T10:08:44Z</time>
      </trkpt>
      <trkpt lat="43.42365" lon="1.88825">
        <ele>232</ele>
        <time>2023-05-27T10:08:45Z</time>
      </trkpt>
      <trkpt lat="43.42365" lon="1.88829">
        <ele>232</ele>
        <time>2023-05-27T10:08:46Z</time>
      </trkpt>
      <trkpt lat="43.42367" lon="1.88833">
        <ele>232</ele>
        <time>2023-05-27T10:08:47Z</time>
      </trkpt>
      <trkpt lat="43.42368" lon="1.88837">
        <ele>232</ele>
        <time>2023-05-27T10:08:48Z</time>
      </trkpt>
      <trkpt lat="43.4237" lon="1.8884">
        <ele>232</ele>
        <time>2023-05-27T10:08:49Z</time>
      </trkpt>
      <trkpt lat="43.42371" lon="1.88843">
        <ele>232.2</ele>
        <time>2023-05-27T10:08:50Z</time>
      </trkpt>
      <trkpt lat="43.42373" lon="1.88847">
        <ele>232.2</ele>
        <time>2023-05-27T10:08:51Z</time>
      </trkpt>
      <trkpt lat="43.42375" lon="1.8885">
        <ele>232.2</ele>
        <time>2023-05-27T10:08:52Z</time>
      </trkpt>
      <trkpt lat="43.42377" lon="1.88853">
        <ele>232.2</ele>
        <time>2023-05-27T10:08:53Z</time>
      </trkpt>
      <trkpt lat="43.42379" lon="1.88856">
        <ele>232.2</ele>
        <time>2023-05-27T10:08:54Z</time>
      </trkpt>
      <trkpt lat="43.42381" lon="1.88858">
        <ele>232.2</ele>
        <time>2023-05-27T10:08:55Z</time>
      </trkpt>
      <trkpt lat="43.42383" lon="1.88861">
        <ele>232.2</ele>
        <time>2023-05-27T10:08:56Z</time>
      </trkpt>
      <trkpt lat="43.42386" lon="1.88865">
        <ele>232.2</ele>
        <time>2023-05-27T10:08:57Z</time>
      </trkpt>
      <trkpt lat="43.42389" lon="1.88868">
        <ele>232</ele>
        <time>2023-05-27T10:08:58Z</time>
      </trkpt>
      <trkpt lat="43.42392" lon="1.88872">
        <ele>232</ele>
        <time>2023-05-27T10:08:59Z</time>
      </trkpt>
      <trkpt lat="43.42396" lon="1.88875">
        <ele>232</ele>
        <time>2023-05-27T10:09:00Z</time>
      </trkpt>
      <trkpt lat="43.424" lon="1.88878">
        <ele>232</ele>
        <time>2023-05-27T10:09:01Z</time>
      </trkpt>
      <trkpt lat="43.42404" lon="1.88882">
        <ele>232</ele>
        <time>2023-05-27T10:09:02Z</time>
      </trkpt>
      <trkpt lat="43.42407" lon="1.88885">
        <ele>231.8</ele>
        <time>2023-05-27T10:09:03Z</time>
      </trkpt>
      <trkpt lat="43.4241" lon="1.88887">
        <ele>231.8</ele>
        <time>2023-05-27T10:09:04Z</time>
      </trkpt>
      <trkpt lat="43.42414" lon="1.88891">
        <ele>231.8</ele>
        <time>2023-05-27T10:09:05Z</time>
      </trkpt>
      <trkpt lat="43.42418" lon="1.88894">
        <ele>231.8</ele>
        <time>2023-05-27T10:09:06Z</time>
      </trkpt>
      <trkpt lat="43.42421" lon="1.88896">
        <ele>231.8</ele>
        <time>2023-05-27T10:09:07Z</time>
      </trkpt>
      <trkpt lat="43.42424" lon="1.88898">
        <ele>231.8</ele>
        <time>2023-05-27T10:09:08Z</time>
      </trkpt>
      <trkpt lat="43.42427" lon="1.88899">
        <ele>231.8</ele>
        <time>2023-05-27T10:09:09Z</time>
      </trkpt>
      <trkpt lat="43.42431" lon="1.88902">
        <ele>231.8</ele>
        <time>2023-05-27T10:09:10Z</time>
      </trkpt>
      <trkpt lat="43.42434" lon="1.88904">
        <ele>231.8</ele>
        <time>2023-05-27T10:09:11Z</time>
      </trkpt>
      <trkpt lat="43.42437" lon="1.88906">
        <ele>231.8</ele>
        <time>2023-05-27T10:09:12Z</time>
      </trkpt>
      <trkpt lat="43.42441" lon="1.88909">
        <ele>231.8</ele>
        <time>2023-05-27T10:09:13Z</time>
      </trkpt>
      <trkpt lat="43.42445" lon="1.88911">
        <ele>231.8</ele>
        <time>2023-05-27T10:09:14Z</time>
      </trkpt>
      <trkpt lat="43.42448" lon="1.88913">
        <ele>231.8</ele>
        <time>2023-05-27T10:09:15Z</time>
      </trkpt>
      <trkpt lat="43.42451" lon="1.88913">
        <ele>231.8</ele>
        <time>2023-05-27T10:09:16Z</time>
      </trkpt>
      <trkpt lat="43.42455" lon="1.88913">
        <ele>231.8</ele>
        <time>2023-05-27T10:09:17Z</time>
      </trkpt>
      <trkpt lat="43.4246" lon="1.88914">
        <ele>231.8</ele>
        <time>2023-05-27T10:09:18Z</time>
      </trkpt>
      <trkpt lat="43.42464" lon="1.88915">
        <ele>231.8</ele>
        <time>2023-05-27T10:09:19Z</time>
      </trkpt>
      <trkpt lat="43.42469" lon="1.88916">
        <ele>231.8</ele>
        <time>2023-05-27T10:09:20Z</time>
      </trkpt>
      <trkpt lat="43.42472" lon="1.88915">
        <ele>231.8</ele>
        <time>2023-05-27T10:09:21Z</time>
      </trkpt>
      <trkpt lat="43.42477" lon="1.88915">
        <ele>231.8</ele>
        <time>2023-05-27T10:09:22Z</time>
      </trkpt>
      <trkpt lat="43.4248" lon="1.88917">
        <ele>231.8</ele>
        <time>2023-05-27T10:09:23Z</time>
      </trkpt>
      <trkpt lat="43.42484" lon="1.88916">
        <ele>231.8</ele>
        <time>2023-05-27T10:09:24Z</time>
      </trkpt>
      <trkpt lat="43.42488" lon="1.88915">
        <ele>231.8</ele>
        <time>2023-05-27T10:09:25Z</time>
      </trkpt>
      <trkpt lat="43.42491" lon="1.88915">
        <ele>231.8</ele>
        <time>2023-05-27T10:09:26Z</time>
      </trkpt>
      <trkpt lat="43.42494" lon="1.88916">
        <ele>231.8</ele>
        <time>2023-05-27T10:09:27Z</time>
      </trkpt>
      <trkpt lat="43.42497" lon="1.88916">
        <ele>231.8</ele>
        <time>2023-05-27T10:09:28Z</time>
      </trkpt>
      <trkpt lat="43.425" lon="1.88916">
        <ele>231.8</ele>
        <time>2023-05-27T10:09:29Z</time>
      </trkpt>
      <trkpt lat="43.42503" lon="1.88917">
        <ele>231.8</ele>
        <time>2023-05-27T10:09:30Z</time>
      </trkpt>
      <trkpt lat="43.42506" lon="1.88918">
        <ele>231.8</ele>
        <time>2023-05-27T10:09:31Z</time>
      </trkpt>
      <trkpt lat="43.42509" lon="1.88919">
        <ele>231.8</ele>
        <time>2023-05-27T10:09:32Z</time>
      </trkpt>
      <trkpt lat="43.42511" lon="1.88921">
        <ele>231.8</ele>
        <time>2023-05-27T10:09:33Z</time>
      </trkpt>
      <trkpt lat="43.42514" lon="1.88924">
        <ele>231.8</ele>
        <time>2023-05-27T10:09:34Z</time>
      </trkpt>
      <trkpt lat="43.42516" lon="1.88928">
        <ele>231.8</ele>
        <time>2023-05-27T10:09:35Z</time>
      </trkpt>
      <trkpt lat="43.42517" lon="1.88933">
        <ele>231.6</ele>
        <time>2023-05-27T10:09:36Z</time>
      </trkpt>
      <trkpt lat="43.42519" lon="1.88937">
        <ele>231.6</ele>
        <time>2023-05-27T10:09:37Z</time>
      </trkpt>
      <trkpt lat="43.4252" lon="1.88941">
        <ele>231.6</ele>
        <time>2023-05-27T10:09:38Z</time>
      </trkpt>
      <trkpt lat="43.42522" lon="1.88945">
        <ele>231.6</ele>
        <time>2023-05-27T10:09:39Z</time>
      </trkpt>
      <trkpt lat="43.42525" lon="1.88952">
        <ele>231.6</ele>
        <time>2023-05-27T10:09:40Z</time>
      </trkpt>
      <trkpt lat="43.42529" lon="1.88958">
        <ele>231.6</ele>
        <time>2023-05-27T10:09:41Z</time>
      </trkpt>
      <trkpt lat="43.42531" lon="1.88963">
        <ele>231.6</ele>
        <time>2023-05-27T10:09:42Z</time>
      </trkpt>
      <trkpt lat="43.42533" lon="1.88968">
        <ele>231.6</ele>
        <time>2023-05-27T10:09:43Z</time>
      </trkpt>
      <trkpt lat="43.42535" lon="1.88973">
        <ele>231.6</ele>
        <time>2023-05-27T10:09:44Z</time>
      </trkpt>
      <trkpt lat="43.42538" lon="1.88978">
        <ele>231.6</ele>
        <time>2023-05-27T10:09:45Z</time>
      </trkpt>
      <trkpt lat="43.42541" lon="1.88983">
        <ele>231.8</ele>
        <time>2023-05-27T10:09:46Z</time>
      </trkpt>
      <trkpt lat="43.42544" lon="1.88988">
        <ele>231.6</ele>
        <time>2023-05-27T10:09:47Z</time>
      </trkpt>
      <trkpt lat="43.42547" lon="1.88992">
        <ele>231.6</ele>
        <time>2023-05-27T10:09:48Z</time>
      </trkpt>
      <trkpt lat="43.42551" lon="1.88996">
        <ele>231.6</ele>
        <time>2023-05-27T10:09:49Z</time>
      </trkpt>
      <trkpt lat="43.42554" lon="1.89">
        <ele>231.6</ele>
        <time>2023-05-27T10:09:50Z</time>
      </trkpt>
      <trkpt lat="43.42556" lon="1.89003">
        <ele>231.6</ele>
        <time>2023-05-27T10:09:51Z</time>
      </trkpt>
      <trkpt lat="43.42559" lon="1.89007">
        <ele>231.6</ele>
        <time>2023-05-27T10:09:52Z</time>
      </trkpt>
      <trkpt lat="43.42563" lon="1.89012">
        <ele>231.6</ele>
        <time>2023-05-27T10:09:53Z</time>
      </trkpt>
      <trkpt lat="43.42567" lon="1.89016">
        <ele>231.6</ele>
        <time>2023-05-27T10:09:54Z</time>
      </trkpt>
      <trkpt lat="43.4257" lon="1.8902">
        <ele>231.6</ele>
        <time>2023-05-27T10:09:55Z</time>
      </trkpt>
      <trkpt lat="43.42572" lon="1.89024">
        <ele>231.8</ele>
        <time>2023-05-27T10:09:56Z</time>
      </trkpt>
      <trkpt lat="43.42574" lon="1.89027">
        <ele>231.8</ele>
        <time>2023-05-27T10:09:57Z</time>
      </trkpt>
      <trkpt lat="43.42577" lon="1.89031">
        <ele>231.8</ele>
        <time>2023-05-27T10:09:58Z</time>
      </trkpt>
      <trkpt lat="43.42579" lon="1.89035">
        <ele>231.8</ele>
        <time>2023-05-27T10:09:59Z</time>
      </trkpt>
      <trkpt lat="43.42581" lon="1.89038">
        <ele>231.6</ele>
        <time>2023-05-27T10:10:00Z</time>
      </trkpt>
      <trkpt lat="43.42584" lon="1.89041">
        <ele>231.6</ele>
        <time>2023-05-27T10:10:01Z</time>
      </trkpt>
      <trkpt lat="43.42587" lon="1.89046">
        <ele>231.6</ele>
        <time>2023-05-27T10:10:02Z</time>
      </trkpt>
      <trkpt lat="43.42589" lon="1.89053">
        <ele>231.6</ele>
        <time>2023-05-27T10:10:03Z</time>
      </trkpt>
      <trkpt lat="43.42592" lon="1.89058">
        <ele>231.6</ele>
        <time>2023-05-27T10:10:04Z</time>
      </trkpt>
      <trkpt lat="43.42594" lon="1.89064">
        <ele>231.6</ele>
        <time>2023-05-27T10:10:05Z</time>
      </trkpt>
      <trkpt lat="43.42595" lon="1.89069">
        <ele>231.6</ele>
        <time>2023-05-27T10:10:06Z</time>
      </trkpt>
      <trkpt lat="43.42596" lon="1.89074">
        <ele>231.6</ele>
        <time>2023-05-27T10:10:07Z</time>
      </trkpt>
      <trkpt lat="43.42596" lon="1.89079">
        <ele>231.6</ele>
        <time>2023-05-27T10:10:08Z</time>
      </trkpt>
      <trkpt lat="43.42597" lon="1.89084">
        <ele>231.4</ele>
        <time>2023-05-27T10:10:09Z</time>
      </trkpt>
      <trkpt lat="43.42598" lon="1.89088">
        <ele>231.4</ele>
        <time>2023-05-27T10:10:10Z</time>
      </trkpt>
      <trkpt lat="43.426" lon="1.89093">
        <ele>231.4</ele>
        <time>2023-05-27T10:10:11Z</time>
      </trkpt>
      <trkpt lat="43.42603" lon="1.89096">
        <ele>231.4</ele>
        <time>2023-05-27T10:10:12Z</time>
      </trkpt>
      <trkpt lat="43.42606" lon="1.89099">
        <ele>231.4</ele>
        <time>2023-05-27T10:10:13Z</time>
      </trkpt>
      <trkpt lat="43.42608" lon="1.891">
        <ele>231.4</ele>
        <time>2023-05-27T10:10:14Z</time>
      </trkpt>
      <trkpt lat="43.42611" lon="1.89101">
        <ele>231.4</ele>
        <time>2023-05-27T10:10:15Z</time>
      </trkpt>
      <trkpt lat="43.42615" lon="1.89103">
        <ele>231.4</ele>
        <time>2023-05-27T10:10:16Z</time>
      </trkpt>
      <trkpt lat="43.42618" lon="1.89104">
        <ele>231.4</ele>
        <time>2023-05-27T10:10:17Z</time>
      </trkpt>
      <trkpt lat="43.42621" lon="1.89105">
        <ele>231.4</ele>
        <time>2023-05-27T10:10:18Z</time>
      </trkpt>
      <trkpt lat="43.42624" lon="1.89107">
        <ele>231.4</ele>
        <time>2023-05-27T10:10:19Z</time>
      </trkpt>
      <trkpt lat="43.42627" lon="1.89108">
        <ele>231.4</ele>
        <time>2023-05-27T10:10:20Z</time>
      </trkpt>
      <trkpt lat="43.42631" lon="1.89109">
        <ele>231.4</ele>
        <time>2023-05-27T10:10:21Z</time>
      </trkpt>
      <trkpt lat="43.42634" lon="1.89109">
        <ele>231.4</ele>
        <time>2023-05-27T10:10:22Z</time>
      </trkpt>
      <trkpt lat="43.42637" lon="1.89109">
        <ele>231.4</ele>
        <time>2023-05-27T10:10:23Z</time>
      </trkpt>
      <trkpt lat="43.42641" lon="1.89108">
        <ele>231.6</ele>
        <time>2023-05-27T10:10:24Z</time>
      </trkpt>
      <trkpt lat="43.42645" lon="1.89107">
        <ele>231.6</ele>
        <time>2023-05-27T10:10:25Z</time>
      </trkpt>
      <trkpt lat="43.42648" lon="1.89106">
        <ele>231.6</ele>
        <time>2023-05-27T10:10:26Z</time>
      </trkpt>
      <trkpt lat="43.42652" lon="1.89106">
        <ele>231.6</ele>
        <time>2023-05-27T10:10:27Z</time>
      </trkpt>
      <trkpt lat="43.42655" lon="1.89106">
        <ele>231.8</ele>
        <time>2023-05-27T10:10:28Z</time>
      </trkpt>
      <trkpt lat="43.42658" lon="1.89106">
        <ele>231.8</ele>
        <time>2023-05-27T10:10:29Z</time>
      </trkpt>
      <trkpt lat="43.42661" lon="1.89106">
        <ele>232</ele>
        <time>2023-05-27T10:10:30Z</time>
      </trkpt>
      <trkpt lat="43.42664" lon="1.89106">
        <ele>232</ele>
        <time>2023-05-27T10:10:31Z</time>
      </trkpt>
      <trkpt lat="43.42667" lon="1.89107">
        <ele>231.8</ele>
        <time>2023-05-27T10:10:32Z</time>
      </trkpt>
      <trkpt lat="43.4267" lon="1.89109">
        <ele>231.8</ele>
        <time>2023-05-27T10:10:33Z</time>
      </trkpt>
      <trkpt lat="43.42672" lon="1.89111">
        <ele>231.8</ele>
        <time>2023-05-27T10:10:34Z</time>
      </trkpt>
      <trkpt lat="43.42675" lon="1.89114">
        <ele>231.8</ele>
        <time>2023-05-27T10:10:35Z</time>
      </trkpt>
      <trkpt lat="43.42677" lon="1.89117">
        <ele>231.8</ele>
        <time>2023-05-27T10:10:36Z</time>
      </trkpt>
      <trkpt lat="43.42679" lon="1.89121">
        <ele>231.8</ele>
        <time>2023-05-27T10:10:37Z</time>
      </trkpt>
      <trkpt lat="43.42681" lon="1.89125">
        <ele>231.6</ele>
        <time>2023-05-27T10:10:38Z</time>
      </trkpt>
      <trkpt lat="43.42682" lon="1.89128">
        <ele>231.8</ele>
        <time>2023-05-27T10:10:39Z</time>
      </trkpt>
      <trkpt lat="43.42681" lon="1.89131">
        <ele>231.8</ele>
        <time>2023-05-27T10:10:40Z</time>
      </trkpt>
      <trkpt lat="43.42681" lon="1.89134">
        <ele>231.8</ele>
        <time>2023-05-27T10:10:41Z</time>
      </trkpt>
      <trkpt lat="43.4268" lon="1.89138">
        <ele>231.6</ele>
        <time>2023-05-27T10:10:42Z</time>
      </trkpt>
      <trkpt lat="43.4268" lon="1.89143">
        <ele>231.6</ele>
        <time>2023-05-27T10:10:43Z</time>
      </trkpt>
      <trkpt lat="43.4268" lon="1.89149">
        <ele>231.6</ele>
        <time>2023-05-27T10:10:44Z</time>
      </trkpt>
      <trkpt lat="43.42681" lon="1.89156">
        <ele>231.6</ele>
        <time>2023-05-27T10:10:45Z</time>
      </trkpt>
      <trkpt lat="43.42681" lon="1.89162">
        <ele>231.6</ele>
        <time>2023-05-27T10:10:46Z</time>
      </trkpt>
      <trkpt lat="43.4268" lon="1.89167">
        <ele>231.6</ele>
        <time>2023-05-27T10:10:47Z</time>
      </trkpt>
      <trkpt lat="43.4268" lon="1.89174">
        <ele>231.6</ele>
        <time>2023-05-27T10:10:48Z</time>
      </trkpt>
      <trkpt lat="43.42679" lon="1.8918">
        <ele>231.8</ele>
        <time>2023-05-27T10:10:49Z</time>
      </trkpt>
      <trkpt lat="43.42679" lon="1.89185">
        <ele>231.8</ele>
        <time>2023-05-27T10:10:50Z</time>
      </trkpt>
      <trkpt lat="43.42678" lon="1.89188">
        <ele>231.8</ele>
        <time>2023-05-27T10:10:51Z</time>
      </trkpt>
      <trkpt lat="43.42677" lon="1.89192">
        <ele>231.8</ele>
        <time>2023-05-27T10:10:52Z</time>
      </trkpt>
      <trkpt lat="43.42674" lon="1.89196">
        <ele>232</ele>
        <time>2023-05-27T10:10:53Z</time>
      </trkpt>
      <trkpt lat="43.42672" lon="1.892">
        <ele>232</ele>
        <time>2023-05-27T10:10:54Z</time>
      </trkpt>
      <trkpt lat="43.42671" lon="1.89205">
        <ele>232.2</ele>
        <time>2023-05-27T10:10:55Z</time>
      </trkpt>
      <trkpt lat="43.4267" lon="1.8921">
        <ele>232.2</ele>
        <time>2023-05-27T10:10:56Z</time>
      </trkpt>
      <trkpt lat="43.4267" lon="1.89215">
        <ele>232.2</ele>
        <time>2023-05-27T10:10:57Z</time>
      </trkpt>
      <trkpt lat="43.4267" lon="1.8922">
        <ele>232.4</ele>
        <time>2023-05-27T10:10:58Z</time>
      </trkpt>
      <trkpt lat="43.42669" lon="1.89224">
        <ele>232.4</ele>
        <time>2023-05-27T10:10:59Z</time>
      </trkpt>
      <trkpt lat="43.42669" lon="1.89228">
        <ele>232.4</ele>
        <time>2023-05-27T10:11:00Z</time>
      </trkpt>
      <trkpt lat="43.4267" lon="1.89232">
        <ele>232.4</ele>
        <time>2023-05-27T10:11:01Z</time>
      </trkpt>
      <trkpt lat="43.42669" lon="1.89236">
        <ele>232.6</ele>
        <time>2023-05-27T10:11:02Z</time>
      </trkpt>
      <trkpt lat="43.42669" lon="1.8924">
        <ele>232.6</ele>
        <time>2023-05-27T10:11:03Z</time>
      </trkpt>
      <trkpt lat="43.42669" lon="1.89244">
        <ele>232.6</ele>
        <time>2023-05-27T10:11:04Z</time>
      </trkpt>
      <trkpt lat="43.4267" lon="1.89247">
        <ele>232.6</ele>
        <time>2023-05-27T10:11:05Z</time>
      </trkpt>
      <trkpt lat="43.42671" lon="1.8925">
        <ele>232.6</ele>
        <time>2023-05-27T10:11:06Z</time>
      </trkpt>
      <trkpt lat="43.42672" lon="1.89253">
        <ele>232.8</ele>
        <time>2023-05-27T10:11:07Z</time>
      </trkpt>
      <trkpt lat="43.42673" lon="1.89257">
        <ele>232.8</ele>
        <time>2023-05-27T10:11:08Z</time>
      </trkpt>
      <trkpt lat="43.42674" lon="1.89261">
        <ele>232.8</ele>
        <time>2023-05-27T10:11:09Z</time>
      </trkpt>
      <trkpt lat="43.42675" lon="1.89265">
        <ele>232.6</ele>
        <time>2023-05-27T10:11:10Z</time>
      </trkpt>
      <trkpt lat="43.42677" lon="1.89269">
        <ele>232.6</ele>
        <time>2023-05-27T10:11:11Z</time>
      </trkpt>
      <trkpt lat="43.42678" lon="1.89273">
        <ele>232.6</ele>
        <time>2023-05-27T10:11:12Z</time>
      </trkpt>
      <trkpt lat="43.42679" lon="1.89278">
        <ele>232.6</ele>
        <time>2023-05-27T10:11:13Z</time>
      </trkpt>
      <trkpt lat="43.4268" lon="1.89282">
        <ele>232.6</ele>
        <time>2023-05-27T10:11:14Z</time>
      </trkpt>
      <trkpt lat="43.42682" lon="1.89286">
        <ele>232.4</ele>
        <time>2023-05-27T10:11:15Z</time>
      </trkpt>
      <trkpt lat="43.42683" lon="1.89291">
        <ele>232.4</ele>
        <time>2023-05-27T10:11:16Z</time>
      </trkpt>
      <trkpt lat="43.42685" lon="1.89297">
        <ele>232.4</ele>
        <time>2023-05-27T10:11:17Z</time>
      </trkpt>
      <trkpt lat="43.42686" lon="1.89302">
        <ele>232.4</ele>
        <time>2023-05-27T10:11:18Z</time>
      </trkpt>
      <trkpt lat="43.42687" lon="1.89306">
        <ele>232.4</ele>
        <time>2023-05-27T10:11:19Z</time>
      </trkpt>
      <trkpt lat="43.42689" lon="1.8931">
        <ele>232.2</ele>
        <time>2023-05-27T10:11:20Z</time>
      </trkpt>
      <trkpt lat="43.4269" lon="1.89315">
        <ele>232.2</ele>
        <time>2023-05-27T10:11:21Z</time>
      </trkpt>
      <trkpt lat="43.42691" lon="1.89319">
        <ele>232.2</ele>
        <time>2023-05-27T10:11:22Z</time>
      </trkpt>
      <trkpt lat="43.42693" lon="1.89324">
        <ele>232.2</ele>
        <time>2023-05-27T10:11:23Z</time>
      </trkpt>
      <trkpt lat="43.42695" lon="1.89328">
        <ele>232</ele>
        <time>2023-05-27T10:11:24Z</time>
      </trkpt>
      <trkpt lat="43.42697" lon="1.89332">
        <ele>232</ele>
        <time>2023-05-27T10:11:25Z</time>
      </trkpt>
      <trkpt lat="43.427" lon="1.89336">
        <ele>232</ele>
        <time>2023-05-27T10:11:26Z</time>
      </trkpt>
      <trkpt lat="43.42701" lon="1.89339">
        <ele>232</ele>
        <time>2023-05-27T10:11:27Z</time>
      </trkpt>
      <trkpt lat="43.42703" lon="1.89342">
        <ele>232</ele>
        <time>2023-05-27T10:11:28Z</time>
      </trkpt>
      <trkpt lat="43.42705" lon="1.89345">
        <ele>232</ele>
        <time>2023-05-27T10:11:29Z</time>
      </trkpt>
      <trkpt lat="43.42707" lon="1.8935">
        <ele>232</ele>
        <time>2023-05-27T10:11:30Z</time>
      </trkpt>
      <trkpt lat="43.42709" lon="1.89354">
        <ele>232</ele>
        <time>2023-05-27T10:11:31Z</time>
      </trkpt>
      <trkpt lat="43.42712" lon="1.89358">
        <ele>232</ele>
        <time>2023-05-27T10:11:32Z</time>
      </trkpt>
      <trkpt lat="43.42714" lon="1.89363">
        <ele>232</ele>
        <time>2023-05-27T10:11:33Z</time>
      </trkpt>
      <trkpt lat="43.42716" lon="1.89367">
        <ele>232</ele>
        <time>2023-05-27T10:11:34Z</time>
      </trkpt>
      <trkpt lat="43.42717" lon="1.89371">
        <ele>232</ele>
        <time>2023-05-27T10:11:35Z</time>
      </trkpt>
      <trkpt lat="43.42718" lon="1.89375">
        <ele>232</ele>
        <time>2023-05-27T10:11:36Z</time>
      </trkpt>
      <trkpt lat="43.4272" lon="1.89378">
        <ele>232</ele>
        <time>2023-05-27T10:11:37Z</time>
      </trkpt>
      <trkpt lat="43.42722" lon="1.89383">
        <ele>232</ele>
        <time>2023-05-27T10:11:38Z</time>
      </trkpt>
      <trkpt lat="43.42723" lon="1.89387">
        <ele>232</ele>
        <time>2023-05-27T10:11:39Z</time>
      </trkpt>
      <trkpt lat="43.42723" lon="1.89392">
        <ele>231.8</ele>
        <time>2023-05-27T10:11:40Z</time>
      </trkpt>
      <trkpt lat="43.42723" lon="1.89396">
        <ele>231.8</ele>
        <time>2023-05-27T10:11:41Z</time>
      </trkpt>
      <trkpt lat="43.42724" lon="1.89399">
        <ele>231.8</ele>
        <time>2023-05-27T10:11:42Z</time>
      </trkpt>
      <trkpt lat="43.42726" lon="1.89403">
        <ele>231.8</ele>
        <time>2023-05-27T10:11:43Z</time>
      </trkpt>
      <trkpt lat="43.42727" lon="1.89405">
        <ele>231.8</ele>
        <time>2023-05-27T10:11:44Z</time>
      </trkpt>
      <trkpt lat="43.42729" lon="1.89408">
        <ele>231.8</ele>
        <time>2023-05-27T10:11:45Z</time>
      </trkpt>
      <trkpt lat="43.42733" lon="1.89412">
        <ele>231.8</ele>
        <time>2023-05-27T10:11:46Z</time>
      </trkpt>
      <trkpt lat="43.42735" lon="1.89417">
        <ele>231.8</ele>
        <time>2023-05-27T10:11:47Z</time>
      </trkpt>
      <trkpt lat="43.42737" lon="1.89421">
        <ele>231.8</ele>
        <time>2023-05-27T10:11:48Z</time>
      </trkpt>
      <trkpt lat="43.4274" lon="1.89424">
        <ele>231.8</ele>
        <time>2023-05-27T10:11:49Z</time>
      </trkpt>
      <trkpt lat="43.42744" lon="1.89428">
        <ele>231.8</ele>
        <time>2023-05-27T10:11:50Z</time>
      </trkpt>
      <trkpt lat="43.42746" lon="1.8943">
        <ele>231.8</ele>
        <time>2023-05-27T10:11:51Z</time>
      </trkpt>
      <trkpt lat="43.42748" lon="1.89433">
        <ele>231.8</ele>
        <time>2023-05-27T10:11:52Z</time>
      </trkpt>
      <trkpt lat="43.42749" lon="1.89435">
        <ele>231.8</ele>
        <time>2023-05-27T10:11:53Z</time>
      </trkpt>
      <trkpt lat="43.42749" lon="1.89437">
        <ele>231.8</ele>
        <time>2023-05-27T10:11:54Z</time>
      </trkpt>
      <trkpt lat="43.42749" lon="1.89439">
        <ele>232</ele>
        <time>2023-05-27T10:11:55Z</time>
      </trkpt>
      <trkpt lat="43.42749" lon="1.89441">
        <ele>232</ele>
        <time>2023-05-27T10:11:56Z</time>
      </trkpt>
      <trkpt lat="43.42749" lon="1.89443">
        <ele>232</ele>
        <time>2023-05-27T10:11:57Z</time>
      </trkpt>
      <trkpt lat="43.42748" lon="1.89445">
        <ele>232</ele>
        <time>2023-05-27T10:11:58Z</time>
      </trkpt>
      <trkpt lat="43.42747" lon="1.89447">
        <ele>232</ele>
        <time>2023-05-27T10:11:59Z</time>
      </trkpt>
      <trkpt lat="43.42747" lon="1.89449">
        <ele>232</ele>
        <time>2023-05-27T10:12:00Z</time>
      </trkpt>
      <trkpt lat="43.42746" lon="1.89452">
        <ele>232</ele>
        <time>2023-05-27T10:12:01Z</time>
      </trkpt>
      <trkpt lat="43.42745" lon="1.89455">
        <ele>232</ele>
        <time>2023-05-27T10:12:02Z</time>
      </trkpt>
      <trkpt lat="43.42744" lon="1.89458">
        <ele>232.2</ele>
        <time>2023-05-27T10:12:03Z</time>
      </trkpt>
      <trkpt lat="43.42743" lon="1.89461">
        <ele>232.2</ele>
        <time>2023-05-27T10:12:04Z</time>
      </trkpt>
      <trkpt lat="43.42742" lon="1.89464">
        <ele>232.2</ele>
        <time>2023-05-27T10:12:05Z</time>
      </trkpt>
      <trkpt lat="43.42741" lon="1.89467">
        <ele>232.2</ele>
        <time>2023-05-27T10:12:06Z</time>
      </trkpt>
      <trkpt lat="43.4274" lon="1.89471">
        <ele>232.2</ele>
        <time>2023-05-27T10:12:07Z</time>
      </trkpt>
      <trkpt lat="43.42739" lon="1.89474">
        <ele>232.2</ele>
        <time>2023-05-27T10:12:08Z</time>
      </trkpt>
      <trkpt lat="43.42738" lon="1.89477">
        <ele>232.2</ele>
        <time>2023-05-27T10:12:09Z</time>
      </trkpt>
      <trkpt lat="43.42737" lon="1.8948">
        <ele>232.2</ele>
        <time>2023-05-27T10:12:10Z</time>
      </trkpt>
      <trkpt lat="43.42736" lon="1.89484">
        <ele>232.2</ele>
        <time>2023-05-27T10:12:11Z</time>
      </trkpt>
      <trkpt lat="43.42735" lon="1.89488">
        <ele>232.2</ele>
        <time>2023-05-27T10:12:12Z</time>
      </trkpt>
      <trkpt lat="43.42734" lon="1.89492">
        <ele>232.4</ele>
        <time>2023-05-27T10:12:13Z</time>
      </trkpt>
      <trkpt lat="43.42734" lon="1.89496">
        <ele>232.2</ele>
        <time>2023-05-27T10:12:14Z</time>
      </trkpt>
      <trkpt lat="43.42733" lon="1.895">
        <ele>232.2</ele>
        <time>2023-05-27T10:12:15Z</time>
      </trkpt>
      <trkpt lat="43.42732" lon="1.89504">
        <ele>232.2</ele>
        <time>2023-05-27T10:12:16Z</time>
      </trkpt>
      <trkpt lat="43.42731" lon="1.89508">
        <ele>232.2</ele>
        <time>2023-05-27T10:12:17Z</time>
      </trkpt>
      <trkpt lat="43.4273" lon="1.89512">
        <ele>232.2</ele>
        <time>2023-05-27T10:12:18Z</time>
      </trkpt>
      <trkpt lat="43.42729" lon="1.89516">
        <ele>232.2</ele>
        <time>2023-05-27T10:12:19Z</time>
      </trkpt>
      <trkpt lat="43.42729" lon="1.8952">
        <ele>232.2</ele>
        <time>2023-05-27T10:12:20Z</time>
      </trkpt>
      <trkpt lat="43.42728" lon="1.89524">
        <ele>232.2</ele>
        <time>2023-05-27T10:12:21Z</time>
      </trkpt>
      <trkpt lat="43.42727" lon="1.89528">
        <ele>232.2</ele>
        <time>2023-05-27T10:12:22Z</time>
      </trkpt>
      <trkpt lat="43.42726" lon="1.89532">
        <ele>232.2</ele>
        <time>2023-05-27T10:12:23Z</time>
      </trkpt>
      <trkpt lat="43.42725" lon="1.89536">
        <ele>232</ele>
        <time>2023-05-27T10:12:24Z</time>
      </trkpt>
      <trkpt lat="43.42724" lon="1.8954">
        <ele>232</ele>
        <time>2023-05-27T10:12:25Z</time>
      </trkpt>
      <trkpt lat="43.42724" lon="1.89543">
        <ele>232</ele>
        <time>2023-05-27T10:12:26Z</time>
      </trkpt>
      <trkpt lat="43.42723" lon="1.89547">
        <ele>232</ele>
        <time>2023-05-27T10:12:27Z</time>
      </trkpt>
      <trkpt lat="43.42722" lon="1.89551">
        <ele>232</ele>
        <time>2023-05-27T10:12:28Z</time>
      </trkpt>
      <trkpt lat="43.42722" lon="1.89555">
        <ele>232</ele>
        <time>2023-05-27T10:12:29Z</time>
      </trkpt>
      <trkpt lat="43.42721" lon="1.89559">
        <ele>232</ele>
        <time>2023-05-27T10:12:30Z</time>
      </trkpt>
      <trkpt lat="43.4272" lon="1.89562">
        <ele>232.2</ele>
        <time>2023-05-27T10:12:31Z</time>
      </trkpt>
      <trkpt lat="43.4272" lon="1.89566">
        <ele>232.2</ele>
        <time>2023-05-27T10:12:32Z</time>
      </trkpt>
      <trkpt lat="43.42719" lon="1.89569">
        <ele>232.2</ele>
        <time>2023-05-27T10:12:33Z</time>
      </trkpt>
      <trkpt lat="43.42718" lon="1.89573">
        <ele>232.2</ele>
        <time>2023-05-27T10:12:34Z</time>
      </trkpt>
      <trkpt lat="43.42718" lon="1.89577">
        <ele>232</ele>
        <time>2023-05-27T10:12:35Z</time>
      </trkpt>
      <trkpt lat="43.42717" lon="1.89581">
        <ele>232</ele>
        <time>2023-05-27T10:12:36Z</time>
      </trkpt>
      <trkpt lat="43.42716" lon="1.89585">
        <ele>232</ele>
        <time>2023-05-27T10:12:37Z</time>
      </trkpt>
      <trkpt lat="43.42715" lon="1.89589">
        <ele>232</ele>
        <time>2023-05-27T10:12:38Z</time>
      </trkpt>
      <trkpt lat="43.42714" lon="1.89593">
        <ele>232</ele>
        <time>2023-05-27T10:12:39Z</time>
      </trkpt>
      <trkpt lat="43.42714" lon="1.89597">
        <ele>232.2</ele>
        <time>2023-05-27T10:12:40Z</time>
      </trkpt>
      <trkpt lat="43.42713" lon="1.896">
        <ele>232.2</ele>
        <time>2023-05-27T10:12:41Z</time>
      </trkpt>
      <trkpt lat="43.42712" lon="1.89604">
        <ele>232</ele>
        <time>2023-05-27T10:12:42Z</time>
      </trkpt>
      <trkpt lat="43.42711" lon="1.89607">
        <ele>232</ele>
        <time>2023-05-27T10:12:43Z</time>
      </trkpt>
      <trkpt lat="43.42711" lon="1.89611">
        <ele>232</ele>
        <time>2023-05-27T10:12:44Z</time>
      </trkpt>
      <trkpt lat="43.4271" lon="1.89615">
        <ele>232.2</ele>
        <time>2023-05-27T10:12:45Z</time>
      </trkpt>
      <trkpt lat="43.42709" lon="1.89619">
        <ele>232.2</ele>
        <time>2023-05-27T10:12:46Z</time>
      </trkpt>
      <trkpt lat="43.42708" lon="1.89623">
        <ele>232.2</ele>
        <time>2023-05-27T10:12:47Z</time>
      </trkpt>
      <trkpt lat="43.42708" lon="1.89626">
        <ele>232.2</ele>
        <time>2023-05-27T10:12:48Z</time>
      </trkpt>
      <trkpt lat="43.42707" lon="1.8963">
        <ele>232.2</ele>
        <time>2023-05-27T10:12:49Z</time>
      </trkpt>
      <trkpt lat="43.42706" lon="1.89633">
        <ele>232.2</ele>
        <time>2023-05-27T10:12:50Z</time>
      </trkpt>
      <trkpt lat="43.42705" lon="1.89637">
        <ele>232.2</ele>
        <time>2023-05-27T10:12:51Z</time>
      </trkpt>
      <trkpt lat="43.42704" lon="1.8964">
        <ele>232</ele>
        <time>2023-05-27T10:12:52Z</time>
      </trkpt>
      <trkpt lat="43.42704" lon="1.89644">
        <ele>232</ele>
        <time>2023-05-27T10:12:53Z</time>
      </trkpt>
      <trkpt lat="43.42702" lon="1.89648">
        <ele>232</ele>
        <time>2023-05-27T10:12:54Z</time>
      </trkpt>
      <trkpt lat="43.42702" lon="1.89651">
        <ele>232</ele>
        <time>2023-05-27T10:12:55Z</time>
      </trkpt>
      <trkpt lat="43.42701" lon="1.89655">
        <ele>232</ele>
        <time>2023-05-27T10:12:56Z</time>
      </trkpt>
      <trkpt lat="43.427" lon="1.89659">
        <ele>232</ele>
        <time>2023-05-27T10:12:57Z</time>
      </trkpt>
      <trkpt lat="43.42699" lon="1.89662">
        <ele>231.8</ele>
        <time>2023-05-27T10:12:58Z</time>
      </trkpt>
      <trkpt lat="43.42698" lon="1.89665">
        <ele>231.8</ele>
        <time>2023-05-27T10:12:59Z</time>
      </trkpt>
      <trkpt lat="43.42697" lon="1.89668">
        <ele>231.8</ele>
        <time>2023-05-27T10:13:00Z</time>
      </trkpt>
      <trkpt lat="43.42696" lon="1.89672">
        <ele>231.8</ele>
        <time>2023-05-27T10:13:01Z</time>
      </trkpt>
      <trkpt lat="43.42695" lon="1.89676">
        <ele>231.8</ele>
        <time>2023-05-27T10:13:02Z</time>
      </trkpt>
      <trkpt lat="43.42694" lon="1.89679">
        <ele>231.8</ele>
        <time>2023-05-27T10:13:03Z</time>
      </trkpt>
      <trkpt lat="43.42693" lon="1.89682">
        <ele>231.8</ele>
        <time>2023-05-27T10:13:04Z</time>
      </trkpt>
      <trkpt lat="43.42693" lon="1.89685">
        <ele>231.6</ele>
        <time>2023-05-27T10:13:05Z</time>
      </trkpt>
      <trkpt lat="43.42693" lon="1.89687">
        <ele>231.6</ele>
        <time>2023-05-27T10:13:06Z</time>
      </trkpt>
      <trkpt lat="43.42693" lon="1.89689">
        <ele>231.6</ele>
        <time>2023-05-27T10:13:07Z</time>
      </trkpt>
      <trkpt lat="43.42693" lon="1.89691">
        <ele>231.4</ele>
        <time>2023-05-27T10:13:08Z</time>
      </trkpt>
      <trkpt lat="43.42692" lon="1.89693">
        <ele>231.4</ele>
        <time>2023-05-27T10:13:09Z</time>
      </trkpt>
      <trkpt lat="43.42692" lon="1.89695">
        <ele>231.4</ele>
        <time>2023-05-27T10:13:10Z</time>
      </trkpt>
      <trkpt lat="43.42692" lon="1.89699">
        <ele>231.2</ele>
        <time>2023-05-27T10:13:11Z</time>
      </trkpt>
      <trkpt lat="43.42691" lon="1.89702">
        <ele>231</ele>
        <time>2023-05-27T10:13:12Z</time>
      </trkpt>
      <trkpt lat="43.42691" lon="1.89704">
        <ele>230.8</ele>
        <time>2023-05-27T10:13:13Z</time>
      </trkpt>
      <trkpt lat="43.42691" lon="1.89706">
        <ele>230.6</ele>
        <time>2023-05-27T10:13:14Z</time>
      </trkpt>
      <trkpt lat="43.42691" lon="1.89708">
        <ele>230.4</ele>
        <time>2023-05-27T10:13:15Z</time>
      </trkpt>
      <trkpt lat="43.42691" lon="1.89711">
        <ele>230.4</ele>
        <time>2023-05-27T10:13:16Z</time>
      </trkpt>
      <trkpt lat="43.4269" lon="1.89713">
        <ele>230.2</ele>
        <time>2023-05-27T10:13:17Z</time>
      </trkpt>
      <trkpt lat="43.42689" lon="1.89716">
        <ele>230</ele>
        <time>2023-05-27T10:13:18Z</time>
      </trkpt>
      <trkpt lat="43.42689" lon="1.89717">
        <ele>230</ele>
        <time>2023-05-27T10:13:19Z</time>
      </trkpt>
      <trkpt lat="43.42689" lon="1.89717">
        <ele>229.8</ele>
        <time>2023-05-27T10:13:20Z</time>
      </trkpt>
      <trkpt lat="43.42691" lon="1.89729">
        <ele>229.8</ele>
        <time>2023-05-27T10:20:57Z</time>
      </trkpt>
      <trkpt lat="43.42691" lon="1.89729">
        <ele>229.8</ele>
        <time>2023-05-27T10:20:58Z</time>
      </trkpt>
      <trkpt lat="43.42691" lon="1.89729">
        <ele>229.6</ele>
        <time>2023-05-27T10:20:59Z</time>
      </trkpt>
      <trkpt lat="43.42691" lon="1.89729">
        <ele>229.6</ele>
        <time>2023-05-27T10:21:00Z</time>
      </trkpt>
      <trkpt lat="43.42691" lon="1.89729">
        <ele>229.8</ele>
        <time>2023-05-27T10:21:01Z</time>
      </trkpt>
      <trkpt lat="43.42691" lon="1.89729">
        <ele>229.6</ele>
        <time>2023-05-27T10:21:02Z</time>
      </trkpt>
      <trkpt lat="43.42689" lon="1.89734">
        <ele>229.8</ele>
        <time>2023-05-27T10:21:07Z</time>
      </trkpt>
      <trkpt lat="43.42689" lon="1.89736">
        <ele>229.8</ele>
        <time>2023-05-27T10:21:08Z</time>
      </trkpt>
      <trkpt lat="43.42688" lon="1.89738">
        <ele>229.8</ele>
        <time>2023-05-27T10:21:09Z</time>
      </trkpt>
      <trkpt lat="43.42687" lon="1.8974">
        <ele>229.8</ele>
        <time>2023-05-27T10:21:10Z</time>
      </trkpt>
      <trkpt lat="43.42687" lon="1.89742">
        <ele>229.8</ele>
        <time>2023-05-27T10:21:11Z</time>
      </trkpt>
      <trkpt lat="43.42686" lon="1.89744">
        <ele>230</ele>
        <time>2023-05-27T10:21:12Z</time>
      </trkpt>
      <trkpt lat="43.42685" lon="1.89746">
        <ele>230</ele>
        <time>2023-05-27T10:21:13Z</time>
      </trkpt>
      <trkpt lat="43.42684" lon="1.89748">
        <ele>230</ele>
        <time>2023-05-27T10:21:14Z</time>
      </trkpt>
      <trkpt lat="43.42683" lon="1.89749">
        <ele>230</ele>
        <time>2023-05-27T10:21:15Z</time>
      </trkpt>
      <trkpt lat="43.42682" lon="1.89752">
        <ele>230</ele>
        <time>2023-05-27T10:21:16Z</time>
      </trkpt>
      <trkpt lat="43.4268" lon="1.89756">
        <ele>230.2</ele>
        <time>2023-05-27T10:21:17Z</time>
      </trkpt>
      <trkpt lat="43.4268" lon="1.89761">
        <ele>230.2</ele>
        <time>2023-05-27T10:21:18Z</time>
      </trkpt>
      <trkpt lat="43.42679" lon="1.89765">
        <ele>230.2</ele>
        <time>2023-05-27T10:21:19Z</time>
      </trkpt>
      <trkpt lat="43.42679" lon="1.89768">
        <ele>230.2</ele>
        <time>2023-05-27T10:21:20Z</time>
      </trkpt>
      <trkpt lat="43.42678" lon="1.89771">
        <ele>230.2</ele>
        <time>2023-05-27T10:21:21Z</time>
      </trkpt>
      <trkpt lat="43.42678" lon="1.89775">
        <ele>230.2</ele>
        <time>2023-05-27T10:21:22Z</time>
      </trkpt>
      <trkpt lat="43.42678" lon="1.89778">
        <ele>230.4</ele>
        <time>2023-05-27T10:21:23Z</time>
      </trkpt>
      <trkpt lat="43.42677" lon="1.89782">
        <ele>230.4</ele>
        <time>2023-05-27T10:21:24Z</time>
      </trkpt>
      <trkpt lat="43.42676" lon="1.89787">
        <ele>230.4</ele>
        <time>2023-05-27T10:21:25Z</time>
      </trkpt>
      <trkpt lat="43.42675" lon="1.89791">
        <ele>230.4</ele>
        <time>2023-05-27T10:21:26Z</time>
      </trkpt>
      <trkpt lat="43.42675" lon="1.89794">
        <ele>230.4</ele>
        <time>2023-05-27T10:21:27Z</time>
      </trkpt>
      <trkpt lat="43.42674" lon="1.89798">
        <ele>230.4</ele>
        <time>2023-05-27T10:21:28Z</time>
      </trkpt>
      <trkpt lat="43.42673" lon="1.89802">
        <ele>230.4</ele>
        <time>2023-05-27T10:21:29Z</time>
      </trkpt>
      <trkpt lat="43.42673" lon="1.89806">
        <ele>230.4</ele>
        <time>2023-05-27T10:21:30Z</time>
      </trkpt>
      <trkpt lat="43.42673" lon="1.89811">
        <ele>230.4</ele>
        <time>2023-05-27T10:21:31Z</time>
      </trkpt>
      <trkpt lat="43.42673" lon="1.89814">
        <ele>230.4</ele>
        <time>2023-05-27T10:21:32Z</time>
      </trkpt>
      <trkpt lat="43.42673" lon="1.89817">
        <ele>230.4</ele>
        <time>2023-05-27T10:21:33Z</time>
      </trkpt>
      <trkpt lat="43.42672" lon="1.8982">
        <ele>230.4</ele>
        <time>2023-05-27T10:21:34Z</time>
      </trkpt>
      <trkpt lat="43.42672" lon="1.89823">
        <ele>230.2</ele>
        <time>2023-05-27T10:21:35Z</time>
      </trkpt>
      <trkpt lat="43.42672" lon="1.89828">
        <ele>230.2</ele>
        <time>2023-05-27T10:21:36Z</time>
      </trkpt>
      <trkpt lat="43.42671" lon="1.89833">
        <ele>230.2</ele>
        <time>2023-05-27T10:21:37Z</time>
      </trkpt>
      <trkpt lat="43.4267" lon="1.89837">
        <ele>230.2</ele>
        <time>2023-05-27T10:21:38Z</time>
      </trkpt>
      <trkpt lat="43.4267" lon="1.89841">
        <ele>230.2</ele>
        <time>2023-05-27T10:21:39Z</time>
      </trkpt>
      <trkpt lat="43.4267" lon="1.89844">
        <ele>230.4</ele>
        <time>2023-05-27T10:21:40Z</time>
      </trkpt>
      <trkpt lat="43.4267" lon="1.89848">
        <ele>230.6</ele>
        <time>2023-05-27T10:21:41Z</time>
      </trkpt>
      <trkpt lat="43.4267" lon="1.89851">
        <ele>230.8</ele>
        <time>2023-05-27T10:21:42Z</time>
      </trkpt>
      <trkpt lat="43.4267" lon="1.89854">
        <ele>231</ele>
        <time>2023-05-27T10:21:43Z</time>
      </trkpt>
      <trkpt lat="43.42671" lon="1.89857">
        <ele>231.2</ele>
        <time>2023-05-27T10:21:44Z</time>
      </trkpt>
      <trkpt lat="43.42671" lon="1.8986">
        <ele>231.4</ele>
        <time>2023-05-27T10:21:45Z</time>
      </trkpt>
      <trkpt lat="43.42673" lon="1.89862">
        <ele>231.6</ele>
        <time>2023-05-27T10:21:46Z</time>
      </trkpt>
      <trkpt lat="43.42673" lon="1.89864">
        <ele>231.8</ele>
        <time>2023-05-27T10:21:47Z</time>
      </trkpt>
      <trkpt lat="43.42673" lon="1.89865">
        <ele>231.8</ele>
        <time>2023-05-27T10:21:48Z</time>
      </trkpt>
      <trkpt lat="43.42674" lon="1.89866">
        <ele>231.8</ele>
        <time>2023-05-27T10:21:49Z</time>
      </trkpt>
      <trkpt lat="43.42674" lon="1.89868">
        <ele>231.8</ele>
        <time>2023-05-27T10:21:50Z</time>
      </trkpt>
      <trkpt lat="43.42675" lon="1.8987">
        <ele>231.8</ele>
        <time>2023-05-27T10:21:51Z</time>
      </trkpt>
      <trkpt lat="43.42675" lon="1.89873">
        <ele>231.6</ele>
        <time>2023-05-27T10:21:52Z</time>
      </trkpt>
      <trkpt lat="43.42676" lon="1.89876">
        <ele>231.4</ele>
        <time>2023-05-27T10:21:53Z</time>
      </trkpt>
      <trkpt lat="43.42676" lon="1.89879">
        <ele>231.2</ele>
        <time>2023-05-27T10:21:54Z</time>
      </trkpt>
      <trkpt lat="43.42676" lon="1.89884">
        <ele>231.2</ele>
        <time>2023-05-27T10:21:55Z</time>
      </trkpt>
      <trkpt lat="43.42676" lon="1.89888">
        <ele>231</ele>
        <time>2023-05-27T10:21:56Z</time>
      </trkpt>
      <trkpt lat="43.42675" lon="1.89892">
        <ele>231</ele>
        <time>2023-05-27T10:21:57Z</time>
      </trkpt>
      <trkpt lat="43.42675" lon="1.89896">
        <ele>231</ele>
        <time>2023-05-27T10:21:58Z</time>
      </trkpt>
      <trkpt lat="43.42674" lon="1.899">
        <ele>231</ele>
        <time>2023-05-27T10:21:59Z</time>
      </trkpt>
      <trkpt lat="43.42673" lon="1.89905">
        <ele>231</ele>
        <time>2023-05-27T10:22:00Z</time>
      </trkpt>
      <trkpt lat="43.42673" lon="1.89909">
        <ele>230.8</ele>
        <time>2023-05-27T10:22:01Z</time>
      </trkpt>
      <trkpt lat="43.42672" lon="1.89914">
        <ele>230.8</ele>
        <time>2023-05-27T10:22:02Z</time>
      </trkpt>
      <trkpt lat="43.42671" lon="1.8992">
        <ele>230.8</ele>
        <time>2023-05-27T10:22:03Z</time>
      </trkpt>
      <trkpt lat="43.4267" lon="1.89926">
        <ele>230.8</ele>
        <time>2023-05-27T10:22:04Z</time>
      </trkpt>
      <trkpt lat="43.42669" lon="1.89931">
        <ele>230.8</ele>
        <time>2023-05-27T10:22:05Z</time>
      </trkpt>
      <trkpt lat="43.42668" lon="1.89935">
        <ele>230.8</ele>
        <time>2023-05-27T10:22:06Z</time>
      </trkpt>
      <trkpt lat="43.42667" lon="1.89939">
        <ele>230.8</ele>
        <time>2023-05-27T10:22:07Z</time>
      </trkpt>
      <trkpt lat="43.42666" lon="1.89945">
        <ele>230.8</ele>
        <time>2023-05-27T10:22:08Z</time>
      </trkpt>
      <trkpt lat="43.42664" lon="1.89951">
        <ele>230.6</ele>
        <time>2023-05-27T10:22:09Z</time>
      </trkpt>
      <trkpt lat="43.42663" lon="1.89955">
        <ele>230.6</ele>
        <time>2023-05-27T10:22:10Z</time>
      </trkpt>
      <trkpt lat="43.42662" lon="1.8996">
        <ele>230.6</ele>
        <time>2023-05-27T10:22:11Z</time>
      </trkpt>
      <trkpt lat="43.42662" lon="1.89967">
        <ele>230.6</ele>
        <time>2023-05-27T10:22:12Z</time>
      </trkpt>
      <trkpt lat="43.42662" lon="1.89973">
        <ele>230.6</ele>
        <time>2023-05-27T10:22:13Z</time>
      </trkpt>
      <trkpt lat="43.42662" lon="1.8998">
        <ele>230.6</ele>
        <time>2023-05-27T10:22:14Z</time>
      </trkpt>
      <trkpt lat="43.42663" lon="1.89988">
        <ele>230.8</ele>
        <time>2023-05-27T10:22:15Z</time>
      </trkpt>
      <trkpt lat="43.42664" lon="1.89995">
        <ele>230.8</ele>
        <time>2023-05-27T10:22:16Z</time>
      </trkpt>
      <trkpt lat="43.42666" lon="1.90002">
        <ele>230.8</ele>
        <time>2023-05-27T10:22:17Z</time>
      </trkpt>
      <trkpt lat="43.42668" lon="1.90007">
        <ele>230.8</ele>
        <time>2023-05-27T10:22:18Z</time>
      </trkpt>
      <trkpt lat="43.42669" lon="1.90014">
        <ele>230.8</ele>
        <time>2023-05-27T10:22:19Z</time>
      </trkpt>
      <trkpt lat="43.42671" lon="1.9002">
        <ele>230.8</ele>
        <time>2023-05-27T10:22:20Z</time>
      </trkpt>
      <trkpt lat="43.42674" lon="1.90023">
        <ele>230.8</ele>
        <time>2023-05-27T10:22:21Z</time>
      </trkpt>
      <trkpt lat="43.42676" lon="1.90027">
        <ele>231</ele>
        <time>2023-05-27T10:22:22Z</time>
      </trkpt>
      <trkpt lat="43.42678" lon="1.90031">
        <ele>231</ele>
        <time>2023-05-27T10:22:23Z</time>
      </trkpt>
      <trkpt lat="43.42679" lon="1.90036">
        <ele>231</ele>
        <time>2023-05-27T10:22:24Z</time>
      </trkpt>
      <trkpt lat="43.4268" lon="1.9004">
        <ele>231</ele>
        <time>2023-05-27T10:22:25Z</time>
      </trkpt>
      <trkpt lat="43.4268" lon="1.90043">
        <ele>231.2</ele>
        <time>2023-05-27T10:22:26Z</time>
      </trkpt>
      <trkpt lat="43.42681" lon="1.90048">
        <ele>231.2</ele>
        <time>2023-05-27T10:22:27Z</time>
      </trkpt>
      <trkpt lat="43.42682" lon="1.90052">
        <ele>231.2</ele>
        <time>2023-05-27T10:22:28Z</time>
      </trkpt>
      <trkpt lat="43.42682" lon="1.90055">
        <ele>231.4</ele>
        <time>2023-05-27T10:22:29Z</time>
      </trkpt>
      <trkpt lat="43.42682" lon="1.90058">
        <ele>231.4</ele>
        <time>2023-05-27T10:22:30Z</time>
      </trkpt>
      <trkpt lat="43.42681" lon="1.90061">
        <ele>231.4</ele>
        <time>2023-05-27T10:22:31Z</time>
      </trkpt>
      <trkpt lat="43.4268" lon="1.90066">
        <ele>231.4</ele>
        <time>2023-05-27T10:22:32Z</time>
      </trkpt>
      <trkpt lat="43.42678" lon="1.9007">
        <ele>231.2</ele>
        <time>2023-05-27T10:22:33Z</time>
      </trkpt>
      <trkpt lat="43.42676" lon="1.90073">
        <ele>231.2</ele>
        <time>2023-05-27T10:22:34Z</time>
      </trkpt>
      <trkpt lat="43.42673" lon="1.90077">
        <ele>231.2</ele>
        <time>2023-05-27T10:22:35Z</time>
      </trkpt>
      <trkpt lat="43.4267" lon="1.90081">
        <ele>231</ele>
        <time>2023-05-27T10:22:36Z</time>
      </trkpt>
      <trkpt lat="43.42667" lon="1.90087">
        <ele>231</ele>
        <time>2023-05-27T10:22:37Z</time>
      </trkpt>
      <trkpt lat="43.42663" lon="1.90092">
        <ele>231</ele>
        <time>2023-05-27T10:22:38Z</time>
      </trkpt>
      <trkpt lat="43.4266" lon="1.90096">
        <ele>231</ele>
        <time>2023-05-27T10:22:39Z</time>
      </trkpt>
      <trkpt lat="43.42658" lon="1.901">
        <ele>231</ele>
        <time>2023-05-27T10:22:40Z</time>
      </trkpt>
      <trkpt lat="43.42657" lon="1.90102">
        <ele>230.8</ele>
        <time>2023-05-27T10:22:41Z</time>
      </trkpt>
      <trkpt lat="43.42655" lon="1.90106">
        <ele>230.8</ele>
        <time>2023-05-27T10:22:42Z</time>
      </trkpt>
      <trkpt lat="43.42653" lon="1.90111">
        <ele>231</ele>
        <time>2023-05-27T10:22:43Z</time>
      </trkpt>
      <trkpt lat="43.42651" lon="1.90117">
        <ele>231</ele>
        <time>2023-05-27T10:22:44Z</time>
      </trkpt>
      <trkpt lat="43.42649" lon="1.90125">
        <ele>230.8</ele>
        <time>2023-05-27T10:22:45Z</time>
      </trkpt>
      <trkpt lat="43.42646" lon="1.90132">
        <ele>230.8</ele>
        <time>2023-05-27T10:22:46Z</time>
      </trkpt>
      <trkpt lat="43.42643" lon="1.90138">
        <ele>230.8</ele>
        <time>2023-05-27T10:22:47Z</time>
      </trkpt>
      <trkpt lat="43.4264" lon="1.90144">
        <ele>230.8</ele>
        <time>2023-05-27T10:22:48Z</time>
      </trkpt>
      <trkpt lat="43.42636" lon="1.90151">
        <ele>230.8</ele>
        <time>2023-05-27T10:22:49Z</time>
      </trkpt>
      <trkpt lat="43.42633" lon="1.90157">
        <ele>230.8</ele>
        <time>2023-05-27T10:22:50Z</time>
      </trkpt>
      <trkpt lat="43.42631" lon="1.90162">
        <ele>230.8</ele>
        <time>2023-05-27T10:22:51Z</time>
      </trkpt>
      <trkpt lat="43.42628" lon="1.90167">
        <ele>230.8</ele>
        <time>2023-05-27T10:22:52Z</time>
      </trkpt>
      <trkpt lat="43.42625" lon="1.90172">
        <ele>230.8</ele>
        <time>2023-05-27T10:22:53Z</time>
      </trkpt>
      <trkpt lat="43.42622" lon="1.90176">
        <ele>230.8</ele>
        <time>2023-05-27T10:22:54Z</time>
      </trkpt>
      <trkpt lat="43.42618" lon="1.9018">
        <ele>230.8</ele>
        <time>2023-05-27T10:22:55Z</time>
      </trkpt>
      <trkpt lat="43.42616" lon="1.90183">
        <ele>230.8</ele>
        <time>2023-05-27T10:22:56Z</time>
      </trkpt>
      <trkpt lat="43.42614" lon="1.90187">
        <ele>230.8</ele>
        <time>2023-05-27T10:22:57Z</time>
      </trkpt>
      <trkpt lat="43.42612" lon="1.90189">
        <ele>230.8</ele>
        <time>2023-05-27T10:22:58Z</time>
      </trkpt>
      <trkpt lat="43.4261" lon="1.90191">
        <ele>230.8</ele>
        <time>2023-05-27T10:22:59Z</time>
      </trkpt>
      <trkpt lat="43.42607" lon="1.90193">
        <ele>230.8</ele>
        <time>2023-05-27T10:23:00Z</time>
      </trkpt>
      <trkpt lat="43.42605" lon="1.90196">
        <ele>230.8</ele>
        <time>2023-05-27T10:23:01Z</time>
      </trkpt>
      <trkpt lat="43.42601" lon="1.902">
        <ele>230.8</ele>
        <time>2023-05-27T10:23:02Z</time>
      </trkpt>
      <trkpt lat="43.42598" lon="1.90205">
        <ele>230.8</ele>
        <time>2023-05-27T10:23:03Z</time>
      </trkpt>
      <trkpt lat="43.42594" lon="1.90209">
        <ele>230.8</ele>
        <time>2023-05-27T10:23:04Z</time>
      </trkpt>
      <trkpt lat="43.42591" lon="1.90213">
        <ele>230.8</ele>
        <time>2023-05-27T10:23:05Z</time>
      </trkpt>
      <trkpt lat="43.42589" lon="1.90217">
        <ele>231</ele>
        <time>2023-05-27T10:23:06Z</time>
      </trkpt>
      <trkpt lat="43.42586" lon="1.90221">
        <ele>230.8</ele>
        <time>2023-05-27T10:23:07Z</time>
      </trkpt>
      <trkpt lat="43.42583" lon="1.90226">
        <ele>230.8</ele>
        <time>2023-05-27T10:23:08Z</time>
      </trkpt>
      <trkpt lat="43.42582" lon="1.90229">
        <ele>231</ele>
        <time>2023-05-27T10:23:09Z</time>
      </trkpt>
      <trkpt lat="43.42579" lon="1.90232">
        <ele>231</ele>
        <time>2023-05-27T10:23:10Z</time>
      </trkpt>
      <trkpt lat="43.42577" lon="1.90234">
        <ele>231</ele>
        <time>2023-05-27T10:23:11Z</time>
      </trkpt>
      <trkpt lat="43.42575" lon="1.90237">
        <ele>231</ele>
        <time>2023-05-27T10:23:12Z</time>
      </trkpt>
      <trkpt lat="43.42572" lon="1.9024">
        <ele>230.8</ele>
        <time>2023-05-27T10:23:13Z</time>
      </trkpt>
      <trkpt lat="43.4257" lon="1.90243">
        <ele>231</ele>
        <time>2023-05-27T10:23:14Z</time>
      </trkpt>
      <trkpt lat="43.42567" lon="1.90245">
        <ele>230.8</ele>
        <time>2023-05-27T10:23:15Z</time>
      </trkpt>
      <trkpt lat="43.42565" lon="1.90249">
        <ele>230.8</ele>
        <time>2023-05-27T10:23:16Z</time>
      </trkpt>
      <trkpt lat="43.42562" lon="1.90251">
        <ele>231</ele>
        <time>2023-05-27T10:23:17Z</time>
      </trkpt>
      <trkpt lat="43.4256" lon="1.90254">
        <ele>230.8</ele>
        <time>2023-05-27T10:23:18Z</time>
      </trkpt>
      <trkpt lat="43.42557" lon="1.90256">
        <ele>231</ele>
        <time>2023-05-27T10:23:19Z</time>
      </trkpt>
      <trkpt lat="43.42555" lon="1.90258">
        <ele>230.8</ele>
        <time>2023-05-27T10:23:20Z</time>
      </trkpt>
      <trkpt lat="43.42552" lon="1.90261">
        <ele>230.8</ele>
        <time>2023-05-27T10:23:21Z</time>
      </trkpt>
      <trkpt lat="43.42549" lon="1.90264">
        <ele>230.8</ele>
        <time>2023-05-27T10:23:22Z</time>
      </trkpt>
      <trkpt lat="43.42546" lon="1.90266">
        <ele>230.8</ele>
        <time>2023-05-27T10:23:23Z</time>
      </trkpt>
      <trkpt lat="43.42544" lon="1.90268">
        <ele>230.8</ele>
        <time>2023-05-27T10:23:24Z</time>
      </trkpt>
      <trkpt lat="43.42541" lon="1.90271">
        <ele>230.8</ele>
        <time>2023-05-27T10:23:25Z</time>
      </trkpt>
      <trkpt lat="43.42539" lon="1.90273">
        <ele>231</ele>
        <time>2023-05-27T10:23:26Z</time>
      </trkpt>
      <trkpt lat="43.42537" lon="1.90275">
        <ele>231</ele>
        <time>2023-05-27T10:23:27Z</time>
      </trkpt>
      <trkpt lat="43.42535" lon="1.90278">
        <ele>231</ele>
        <time>2023-05-27T10:23:28Z</time>
      </trkpt>
      <trkpt lat="43.42532" lon="1.90281">
        <ele>231</ele>
        <time>2023-05-27T10:23:29Z</time>
      </trkpt>
      <trkpt lat="43.42529" lon="1.90284">
        <ele>231</ele>
        <time>2023-05-27T10:23:30Z</time>
      </trkpt>
      <trkpt lat="43.42525" lon="1.90288">
        <ele>231</ele>
        <time>2023-05-27T10:23:31Z</time>
      </trkpt>
      <trkpt lat="43.42522" lon="1.90292">
        <ele>231</ele>
        <time>2023-05-27T10:23:32Z</time>
      </trkpt>
      <trkpt lat="43.42519" lon="1.90295">
        <ele>231</ele>
        <time>2023-05-27T10:23:33Z</time>
      </trkpt>
      <trkpt lat="43.42515" lon="1.90299">
        <ele>231</ele>
        <time>2023-05-27T10:23:34Z</time>
      </trkpt>
      <trkpt lat="43.42512" lon="1.90302">
        <ele>231</ele>
        <time>2023-05-27T10:23:35Z</time>
      </trkpt>
      <trkpt lat="43.42509" lon="1.90306">
        <ele>231</ele>
        <time>2023-05-27T10:23:36Z</time>
      </trkpt>
      <trkpt lat="43.42506" lon="1.90309">
        <ele>231</ele>
        <time>2023-05-27T10:23:37Z</time>
      </trkpt>
      <trkpt lat="43.42503" lon="1.90311">
        <ele>231</ele>
        <time>2023-05-27T10:23:38Z</time>
      </trkpt>
      <trkpt lat="43.42499" lon="1.90314">
        <ele>231</ele>
        <time>2023-05-27T10:23:39Z</time>
      </trkpt>
      <trkpt lat="43.42496" lon="1.90317">
        <ele>231</ele>
        <time>2023-05-27T10:23:40Z</time>
      </trkpt>
      <trkpt lat="43.42492" lon="1.9032">
        <ele>231</ele>
        <time>2023-05-27T10:23:41Z</time>
      </trkpt>
      <trkpt lat="43.42488" lon="1.90322">
        <ele>231</ele>
        <time>2023-05-27T10:23:42Z</time>
      </trkpt>
      <trkpt lat="43.42485" lon="1.90324">
        <ele>231</ele>
        <time>2023-05-27T10:23:43Z</time>
      </trkpt>
      <trkpt lat="43.42481" lon="1.90327">
        <ele>231</ele>
        <time>2023-05-27T10:23:44Z</time>
      </trkpt>
      <trkpt lat="43.42477" lon="1.9033">
        <ele>231</ele>
        <time>2023-05-27T10:23:45Z</time>
      </trkpt>
      <trkpt lat="43.42474" lon="1.90335">
        <ele>231</ele>
        <time>2023-05-27T10:23:46Z</time>
      </trkpt>
      <trkpt lat="43.42471" lon="1.90339">
        <ele>231</ele>
        <time>2023-05-27T10:23:47Z</time>
      </trkpt>
      <trkpt lat="43.42469" lon="1.90343">
        <ele>231</ele>
        <time>2023-05-27T10:23:48Z</time>
      </trkpt>
      <trkpt lat="43.42468" lon="1.90346">
        <ele>231</ele>
        <time>2023-05-27T10:23:49Z</time>
      </trkpt>
      <trkpt lat="43.42467" lon="1.90349">
        <ele>231.2</ele>
        <time>2023-05-27T10:23:50Z</time>
      </trkpt>
      <trkpt lat="43.42467" lon="1.90354">
        <ele>231.2</ele>
        <time>2023-05-27T10:23:51Z</time>
      </trkpt>
      <trkpt lat="43.42467" lon="1.90359">
        <ele>231.2</ele>
        <time>2023-05-27T10:23:52Z</time>
      </trkpt>
      <trkpt lat="43.42467" lon="1.90364">
        <ele>231.2</ele>
        <time>2023-05-27T10:23:53Z</time>
      </trkpt>
      <trkpt lat="43.42466" lon="1.9037">
        <ele>231.2</ele>
        <time>2023-05-27T10:23:54Z</time>
      </trkpt>
      <trkpt lat="43.42466" lon="1.90375">
        <ele>231.2</ele>
        <time>2023-05-27T10:23:55Z</time>
      </trkpt>
      <trkpt lat="43.42466" lon="1.9038">
        <ele>231.2</ele>
        <time>2023-05-27T10:23:56Z</time>
      </trkpt>
      <trkpt lat="43.42466" lon="1.90384">
        <ele>231.2</ele>
        <time>2023-05-27T10:23:57Z</time>
      </trkpt>
      <trkpt lat="43.42466" lon="1.90389">
        <ele>231.2</ele>
        <time>2023-05-27T10:23:58Z</time>
      </trkpt>
      <trkpt lat="43.42466" lon="1.90394">
        <ele>231.2</ele>
        <time>2023-05-27T10:23:59Z</time>
      </trkpt>
      <trkpt lat="43.42466" lon="1.90399">
        <ele>231.2</ele>
        <time>2023-05-27T10:24:00Z</time>
      </trkpt>
      <trkpt lat="43.42467" lon="1.90404">
        <ele>231.2</ele>
        <time>2023-05-27T10:24:01Z</time>
      </trkpt>
      <trkpt lat="43.42468" lon="1.9041">
        <ele>231.2</ele>
        <time>2023-05-27T10:24:02Z</time>
      </trkpt>
      <trkpt lat="43.42469" lon="1.90417">
        <ele>231.2</ele>
        <time>2023-05-27T10:24:03Z</time>
      </trkpt>
      <trkpt lat="43.4247" lon="1.90422">
        <ele>231.2</ele>
        <time>2023-05-27T10:24:04Z</time>
      </trkpt>
      <trkpt lat="43.42471" lon="1.90427">
        <ele>231.2</ele>
        <time>2023-05-27T10:24:05Z</time>
      </trkpt>
      <trkpt lat="43.42473" lon="1.90432">
        <ele>231.2</ele>
        <time>2023-05-27T10:24:06Z</time>
      </trkpt>
      <trkpt lat="43.42475" lon="1.90437">
        <ele>231.2</ele>
        <time>2023-05-27T10:24:07Z</time>
      </trkpt>
      <trkpt lat="43.42477" lon="1.90443">
        <ele>231.2</ele>
        <time>2023-05-27T10:24:08Z</time>
      </trkpt>
      <trkpt lat="43.42479" lon="1.9045">
        <ele>231.2</ele>
        <time>2023-05-27T10:24:09Z</time>
      </trkpt>
      <trkpt lat="43.42481" lon="1.90456">
        <ele>231.2</ele>
        <time>2023-05-27T10:24:10Z</time>
      </trkpt>
      <trkpt lat="43.42484" lon="1.90462">
        <ele>231.2</ele>
        <time>2023-05-27T10:24:11Z</time>
      </trkpt>
      <trkpt lat="43.42487" lon="1.90468">
        <ele>231</ele>
        <time>2023-05-27T10:24:12Z</time>
      </trkpt>
      <trkpt lat="43.42489" lon="1.90473">
        <ele>231</ele>
        <time>2023-05-27T10:24:13Z</time>
      </trkpt>
      <trkpt lat="43.42492" lon="1.90478">
        <ele>231</ele>
        <time>2023-05-27T10:24:14Z</time>
      </trkpt>
      <trkpt lat="43.42495" lon="1.90483">
        <ele>230.8</ele>
        <time>2023-05-27T10:24:15Z</time>
      </trkpt>
      <trkpt lat="43.42498" lon="1.90488">
        <ele>230.8</ele>
        <time>2023-05-27T10:24:16Z</time>
      </trkpt>
      <trkpt lat="43.42501" lon="1.90492">
        <ele>230.8</ele>
        <time>2023-05-27T10:24:17Z</time>
      </trkpt>
      <trkpt lat="43.42503" lon="1.90497">
        <ele>230.8</ele>
        <time>2023-05-27T10:24:18Z</time>
      </trkpt>
      <trkpt lat="43.42507" lon="1.905">
        <ele>230.8</ele>
        <time>2023-05-27T10:24:19Z</time>
      </trkpt>
      <trkpt lat="43.42509" lon="1.90503">
        <ele>230.8</ele>
        <time>2023-05-27T10:24:20Z</time>
      </trkpt>
      <trkpt lat="43.42512" lon="1.90506">
        <ele>230.8</ele>
        <time>2023-05-27T10:24:21Z</time>
      </trkpt>
      <trkpt lat="43.42515" lon="1.9051">
        <ele>230.8</ele>
        <time>2023-05-27T10:24:22Z</time>
      </trkpt>
      <trkpt lat="43.42517" lon="1.90513">
        <ele>230.8</ele>
        <time>2023-05-27T10:24:23Z</time>
      </trkpt>
      <trkpt lat="43.4252" lon="1.90517">
        <ele>230.8</ele>
        <time>2023-05-27T10:24:24Z</time>
      </trkpt>
      <trkpt lat="43.42523" lon="1.90521">
        <ele>230.8</ele>
        <time>2023-05-27T10:24:25Z</time>
      </trkpt>
      <trkpt lat="43.42526" lon="1.90524">
        <ele>230.8</ele>
        <time>2023-05-27T10:24:26Z</time>
      </trkpt>
      <trkpt lat="43.42528" lon="1.90527">
        <ele>230.8</ele>
        <time>2023-05-27T10:24:27Z</time>
      </trkpt>
      <trkpt lat="43.4253" lon="1.90531">
        <ele>231</ele>
        <time>2023-05-27T10:24:28Z</time>
      </trkpt>
      <trkpt lat="43.42534" lon="1.90536">
        <ele>231</ele>
        <time>2023-05-27T10:24:29Z</time>
      </trkpt>
      <trkpt lat="43.42536" lon="1.90539">
        <ele>231</ele>
        <time>2023-05-27T10:24:30Z</time>
      </trkpt>
      <trkpt lat="43.42538" lon="1.90543">
        <ele>231</ele>
        <time>2023-05-27T10:24:31Z</time>
      </trkpt>
      <trkpt lat="43.4254" lon="1.90547">
        <ele>231</ele>
        <time>2023-05-27T10:24:32Z</time>
      </trkpt>
      <trkpt lat="43.42542" lon="1.90552">
        <ele>231</ele>
        <time>2023-05-27T10:24:33Z</time>
      </trkpt>
      <trkpt lat="43.42544" lon="1.90556">
        <ele>231</ele>
        <time>2023-05-27T10:24:34Z</time>
      </trkpt>
      <trkpt lat="43.42546" lon="1.9056">
        <ele>231.2</ele>
        <time>2023-05-27T10:24:35Z</time>
      </trkpt>
      <trkpt lat="43.42548" lon="1.90565">
        <ele>231.2</ele>
        <time>2023-05-27T10:24:36Z</time>
      </trkpt>
      <trkpt lat="43.4255" lon="1.90571">
        <ele>231.2</ele>
        <time>2023-05-27T10:24:37Z</time>
      </trkpt>
      <trkpt lat="43.42551" lon="1.90578">
        <ele>231.2</ele>
        <time>2023-05-27T10:24:38Z</time>
      </trkpt>
      <trkpt lat="43.42552" lon="1.90583">
        <ele>231.2</ele>
        <time>2023-05-27T10:24:39Z</time>
      </trkpt>
      <trkpt lat="43.42554" lon="1.90589">
        <ele>231</ele>
        <time>2023-05-27T10:24:40Z</time>
      </trkpt>
      <trkpt lat="43.42556" lon="1.90595">
        <ele>231</ele>
        <time>2023-05-27T10:24:41Z</time>
      </trkpt>
      <trkpt lat="43.42558" lon="1.90601">
        <ele>231</ele>
        <time>2023-05-27T10:24:42Z</time>
      </trkpt>
      <trkpt lat="43.4256" lon="1.90607">
        <ele>231</ele>
        <time>2023-05-27T10:24:43Z</time>
      </trkpt>
      <trkpt lat="43.42563" lon="1.90612">
        <ele>231</ele>
        <time>2023-05-27T10:24:44Z</time>
      </trkpt>
      <trkpt lat="43.42566" lon="1.90617">
        <ele>231</ele>
        <time>2023-05-27T10:24:45Z</time>
      </trkpt>
      <trkpt lat="43.4257" lon="1.90623">
        <ele>230.8</ele>
        <time>2023-05-27T10:24:46Z</time>
      </trkpt>
      <trkpt lat="43.42573" lon="1.90627">
        <ele>231</ele>
        <time>2023-05-27T10:24:47Z</time>
      </trkpt>
      <trkpt lat="43.42575" lon="1.90632">
        <ele>231</ele>
        <time>2023-05-27T10:24:48Z</time>
      </trkpt>
      <trkpt lat="43.42578" lon="1.90637">
        <ele>231</ele>
        <time>2023-05-27T10:24:49Z</time>
      </trkpt>
      <trkpt lat="43.42581" lon="1.90641">
        <ele>231</ele>
        <time>2023-05-27T10:24:50Z</time>
      </trkpt>
      <trkpt lat="43.42584" lon="1.90646">
        <ele>231.2</ele>
        <time>2023-05-27T10:24:51Z</time>
      </trkpt>
      <trkpt lat="43.42587" lon="1.9065">
        <ele>231.2</ele>
        <time>2023-05-27T10:24:52Z</time>
      </trkpt>
      <trkpt lat="43.42588" lon="1.90653">
        <ele>231.2</ele>
        <time>2023-05-27T10:24:53Z</time>
      </trkpt>
      <trkpt lat="43.4259" lon="1.90658">
        <ele>231.2</ele>
        <time>2023-05-27T10:24:54Z</time>
      </trkpt>
      <trkpt lat="43.42592" lon="1.90663">
        <ele>231.2</ele>
        <time>2023-05-27T10:24:55Z</time>
      </trkpt>
      <trkpt lat="43.42594" lon="1.90667">
        <ele>231.2</ele>
        <time>2023-05-27T10:24:56Z</time>
      </trkpt>
      <trkpt lat="43.42596" lon="1.90672">
        <ele>231.2</ele>
        <time>2023-05-27T10:24:57Z</time>
      </trkpt>
      <trkpt lat="43.42597" lon="1.90677">
        <ele>231.2</ele>
        <time>2023-05-27T10:24:58Z</time>
      </trkpt>
      <trkpt lat="43.42599" lon="1.90683">
        <ele>231</ele>
        <time>2023-05-27T10:24:59Z</time>
      </trkpt>
      <trkpt lat="43.426" lon="1.90689">
        <ele>231</ele>
        <time>2023-05-27T10:25:00Z</time>
      </trkpt>
      <trkpt lat="43.42601" lon="1.90694">
        <ele>231</ele>
        <time>2023-05-27T10:25:01Z</time>
      </trkpt>
      <trkpt lat="43.42602" lon="1.907">
        <ele>231</ele>
        <time>2023-05-27T10:25:02Z</time>
      </trkpt>
      <trkpt lat="43.42603" lon="1.90706">
        <ele>231</ele>
        <time>2023-05-27T10:25:03Z</time>
      </trkpt>
      <trkpt lat="43.42604" lon="1.90711">
        <ele>231</ele>
        <time>2023-05-27T10:25:04Z</time>
      </trkpt>
      <trkpt lat="43.42605" lon="1.90717">
        <ele>231</ele>
        <time>2023-05-27T10:25:05Z</time>
      </trkpt>
      <trkpt lat="43.42605" lon="1.90722">
        <ele>231</ele>
        <time>2023-05-27T10:25:06Z</time>
      </trkpt>
      <trkpt lat="43.42606" lon="1.90726">
        <ele>231</ele>
        <time>2023-05-27T10:25:07Z</time>
      </trkpt>
      <trkpt lat="43.42607" lon="1.9073">
        <ele>231</ele>
        <time>2023-05-27T10:25:08Z</time>
      </trkpt>
      <trkpt lat="43.42607" lon="1.90734">
        <ele>231</ele>
        <time>2023-05-27T10:25:09Z</time>
      </trkpt>
      <trkpt lat="43.42607" lon="1.90739">
        <ele>231</ele>
        <time>2023-05-27T10:25:10Z</time>
      </trkpt>
      <trkpt lat="43.42606" lon="1.90744">
        <ele>231</ele>
        <time>2023-05-27T10:25:11Z</time>
      </trkpt>
      <trkpt lat="43.42606" lon="1.9075">
        <ele>231</ele>
        <time>2023-05-27T10:25:12Z</time>
      </trkpt>
      <trkpt lat="43.42606" lon="1.90757">
        <ele>231.2</ele>
        <time>2023-05-27T10:25:13Z</time>
      </trkpt>
      <trkpt lat="43.42605" lon="1.90762">
        <ele>231.2</ele>
        <time>2023-05-27T10:25:14Z</time>
      </trkpt>
      <trkpt lat="43.42604" lon="1.90768">
        <ele>231.2</ele>
        <time>2023-05-27T10:25:15Z</time>
      </trkpt>
      <trkpt lat="43.42604" lon="1.90772">
        <ele>231.2</ele>
        <time>2023-05-27T10:25:16Z</time>
      </trkpt>
      <trkpt lat="43.42604" lon="1.90776">
        <ele>231.2</ele>
        <time>2023-05-27T10:25:17Z</time>
      </trkpt>
      <trkpt lat="43.42604" lon="1.90781">
        <ele>231.2</ele>
        <time>2023-05-27T10:25:18Z</time>
      </trkpt>
      <trkpt lat="43.42605" lon="1.90787">
        <ele>231.2</ele>
        <time>2023-05-27T10:25:19Z</time>
      </trkpt>
      <trkpt lat="43.42605" lon="1.90793">
        <ele>231.2</ele>
        <time>2023-05-27T10:25:20Z</time>
      </trkpt>
      <trkpt lat="43.42605" lon="1.908">
        <ele>231.2</ele>
        <time>2023-05-27T10:25:21Z</time>
      </trkpt>
      <trkpt lat="43.42606" lon="1.90805">
        <ele>231.2</ele>
        <time>2023-05-27T10:25:22Z</time>
      </trkpt>
      <trkpt lat="43.42607" lon="1.90812">
        <ele>231.2</ele>
        <time>2023-05-27T10:25:23Z</time>
      </trkpt>
      <trkpt lat="43.42608" lon="1.90817">
        <ele>231.2</ele>
        <time>2023-05-27T10:25:24Z</time>
      </trkpt>
      <trkpt lat="43.42607" lon="1.90823">
        <ele>231.2</ele>
        <time>2023-05-27T10:25:25Z</time>
      </trkpt>
      <trkpt lat="43.42608" lon="1.90828">
        <ele>231.2</ele>
        <time>2023-05-27T10:25:26Z</time>
      </trkpt>
      <trkpt lat="43.42608" lon="1.90834">
        <ele>231</ele>
        <time>2023-05-27T10:25:27Z</time>
      </trkpt>
      <trkpt lat="43.42609" lon="1.90841">
        <ele>231</ele>
        <time>2023-05-27T10:25:28Z</time>
      </trkpt>
      <trkpt lat="43.4261" lon="1.90848">
        <ele>231</ele>
        <time>2023-05-27T10:25:29Z</time>
      </trkpt>
      <trkpt lat="43.42613" lon="1.90853">
        <ele>231</ele>
        <time>2023-05-27T10:25:30Z</time>
      </trkpt>
      <trkpt lat="43.42616" lon="1.90859">
        <ele>231</ele>
        <time>2023-05-27T10:25:31Z</time>
      </trkpt>
      <trkpt lat="43.4262" lon="1.90864">
        <ele>231</ele>
        <time>2023-05-27T10:25:32Z</time>
      </trkpt>
      <trkpt lat="43.42623" lon="1.90869">
        <ele>231</ele>
        <time>2023-05-27T10:25:33Z</time>
      </trkpt>
      <trkpt lat="43.42626" lon="1.90872">
        <ele>231</ele>
        <time>2023-05-27T10:25:34Z</time>
      </trkpt>
      <trkpt lat="43.4263" lon="1.90875">
        <ele>231</ele>
        <time>2023-05-27T10:25:35Z</time>
      </trkpt>
      <trkpt lat="43.42633" lon="1.90877">
        <ele>231</ele>
        <time>2023-05-27T10:25:36Z</time>
      </trkpt>
      <trkpt lat="43.42637" lon="1.90879">
        <ele>231</ele>
        <time>2023-05-27T10:25:37Z</time>
      </trkpt>
      <trkpt lat="43.4264" lon="1.90881">
        <ele>231</ele>
        <time>2023-05-27T10:25:38Z</time>
      </trkpt>
      <trkpt lat="43.42644" lon="1.90882">
        <ele>231</ele>
        <time>2023-05-27T10:25:39Z</time>
      </trkpt>
      <trkpt lat="43.42648" lon="1.90883">
        <ele>231</ele>
        <time>2023-05-27T10:25:40Z</time>
      </trkpt>
      <trkpt lat="43.42652" lon="1.90883">
        <ele>231</ele>
        <time>2023-05-27T10:25:41Z</time>
      </trkpt>
      <trkpt lat="43.42656" lon="1.90883">
        <ele>231.2</ele>
        <time>2023-05-27T10:25:42Z</time>
      </trkpt>
      <trkpt lat="43.4266" lon="1.90883">
        <ele>231.2</ele>
        <time>2023-05-27T10:25:43Z</time>
      </trkpt>
      <trkpt lat="43.42664" lon="1.90882">
        <ele>231.2</ele>
        <time>2023-05-27T10:25:44Z</time>
      </trkpt>
      <trkpt lat="43.42668" lon="1.90881">
        <ele>231.2</ele>
        <time>2023-05-27T10:25:45Z</time>
      </trkpt>
      <trkpt lat="43.42671" lon="1.90881">
        <ele>231.4</ele>
        <time>2023-05-27T10:25:46Z</time>
      </trkpt>
      <trkpt lat="43.42675" lon="1.9088">
        <ele>231.4</ele>
        <time>2023-05-27T10:25:47Z</time>
      </trkpt>
      <trkpt lat="43.42678" lon="1.9088">
        <ele>231.6</ele>
        <time>2023-05-27T10:25:48Z</time>
      </trkpt>
      <trkpt lat="43.42682" lon="1.9088">
        <ele>231.6</ele>
        <time>2023-05-27T10:25:49Z</time>
      </trkpt>
      <trkpt lat="43.42686" lon="1.9088">
        <ele>231.6</ele>
        <time>2023-05-27T10:25:50Z</time>
      </trkpt>
      <trkpt lat="43.4269" lon="1.9088">
        <ele>231.6</ele>
        <time>2023-05-27T10:25:51Z</time>
      </trkpt>
      <trkpt lat="43.42694" lon="1.9088">
        <ele>231.6</ele>
        <time>2023-05-27T10:25:52Z</time>
      </trkpt>
      <trkpt lat="43.42698" lon="1.90881">
        <ele>231.6</ele>
        <time>2023-05-27T10:25:53Z</time>
      </trkpt>
      <trkpt lat="43.42702" lon="1.90882">
        <ele>231.6</ele>
        <time>2023-05-27T10:25:54Z</time>
      </trkpt>
      <trkpt lat="43.42706" lon="1.90882">
        <ele>231.6</ele>
        <time>2023-05-27T10:25:55Z</time>
      </trkpt>
      <trkpt lat="43.4271" lon="1.90883">
        <ele>231.6</ele>
        <time>2023-05-27T10:25:56Z</time>
      </trkpt>
      <trkpt lat="43.42714" lon="1.90883">
        <ele>231.6</ele>
        <time>2023-05-27T10:25:57Z</time>
      </trkpt>
      <trkpt lat="43.42719" lon="1.90883">
        <ele>231.6</ele>
        <time>2023-05-27T10:25:58Z</time>
      </trkpt>
      <trkpt lat="43.42723" lon="1.90883">
        <ele>231.6</ele>
        <time>2023-05-27T10:25:59Z</time>
      </trkpt>
      <trkpt lat="43.42727" lon="1.90884">
        <ele>231.6</ele>
        <time>2023-05-27T10:26:00Z</time>
      </trkpt>
      <trkpt lat="43.4273" lon="1.90884">
        <ele>231.6</ele>
        <time>2023-05-27T10:26:01Z</time>
      </trkpt>
      <trkpt lat="43.42734" lon="1.90884">
        <ele>231.8</ele>
        <time>2023-05-27T10:26:02Z</time>
      </trkpt>
      <trkpt lat="43.42737" lon="1.90884">
        <ele>231.8</ele>
        <time>2023-05-27T10:26:03Z</time>
      </trkpt>
      <trkpt lat="43.4274" lon="1.90885">
        <ele>231.8</ele>
        <time>2023-05-27T10:26:04Z</time>
      </trkpt>
      <trkpt lat="43.42744" lon="1.90885">
        <ele>231.8</ele>
        <time>2023-05-27T10:26:05Z</time>
      </trkpt>
      <trkpt lat="43.42747" lon="1.90886">
        <ele>231.8</ele>
        <time>2023-05-27T10:26:06Z</time>
      </trkpt>
      <trkpt lat="43.42751" lon="1.90886">
        <ele>231.8</ele>
        <time>2023-05-27T10:26:07Z</time>
      </trkpt>
      <trkpt lat="43.42755" lon="1.90887">
        <ele>232</ele>
        <time>2023-05-27T10:26:08Z</time>
      </trkpt>
      <trkpt lat="43.42757" lon="1.90888">
        <ele>232</ele>
        <time>2023-05-27T10:26:09Z</time>
      </trkpt>
      <trkpt lat="43.4276" lon="1.90889">
        <ele>232</ele>
        <time>2023-05-27T10:26:10Z</time>
      </trkpt>
      <trkpt lat="43.42763" lon="1.90891">
        <ele>232</ele>
        <time>2023-05-27T10:26:11Z</time>
      </trkpt>
      <trkpt lat="43.42766" lon="1.90894">
        <ele>232</ele>
        <time>2023-05-27T10:26:12Z</time>
      </trkpt>
      <trkpt lat="43.4277" lon="1.90898">
        <ele>232</ele>
        <time>2023-05-27T10:26:13Z</time>
      </trkpt>
      <trkpt lat="43.42774" lon="1.90902">
        <ele>232</ele>
        <time>2023-05-27T10:26:14Z</time>
      </trkpt>
      <trkpt lat="43.42779" lon="1.90907">
        <ele>232</ele>
        <time>2023-05-27T10:26:15Z</time>
      </trkpt>
      <trkpt lat="43.42782" lon="1.90911">
        <ele>232</ele>
        <time>2023-05-27T10:26:16Z</time>
      </trkpt>
      <trkpt lat="43.42786" lon="1.90915">
        <ele>232</ele>
        <time>2023-05-27T10:26:17Z</time>
      </trkpt>
      <trkpt lat="43.42789" lon="1.90919">
        <ele>232</ele>
        <time>2023-05-27T10:26:18Z</time>
      </trkpt>
      <trkpt lat="43.42793" lon="1.90925">
        <ele>232</ele>
        <time>2023-05-27T10:26:19Z</time>
      </trkpt>
      <trkpt lat="43.42795" lon="1.90931">
        <ele>232</ele>
        <time>2023-05-27T10:26:20Z</time>
      </trkpt>
      <trkpt lat="43.42796" lon="1.90937">
        <ele>232</ele>
        <time>2023-05-27T10:26:21Z</time>
      </trkpt>
      <trkpt lat="43.42797" lon="1.90941">
        <ele>232</ele>
        <time>2023-05-27T10:26:22Z</time>
      </trkpt>
      <trkpt lat="43.42798" lon="1.90945">
        <ele>232</ele>
        <time>2023-05-27T10:26:23Z</time>
      </trkpt>
      <trkpt lat="43.42798" lon="1.90951">
        <ele>232</ele>
        <time>2023-05-27T10:26:24Z</time>
      </trkpt>
      <trkpt lat="43.42796" lon="1.90956">
        <ele>232</ele>
        <time>2023-05-27T10:26:25Z</time>
      </trkpt>
      <trkpt lat="43.42795" lon="1.90962">
        <ele>232</ele>
        <time>2023-05-27T10:26:26Z</time>
      </trkpt>
      <trkpt lat="43.42793" lon="1.90967">
        <ele>232</ele>
        <time>2023-05-27T10:26:27Z</time>
      </trkpt>
      <trkpt lat="43.42792" lon="1.90973">
        <ele>232</ele>
        <time>2023-05-27T10:26:28Z</time>
      </trkpt>
      <trkpt lat="43.42792" lon="1.90979">
        <ele>231.8</ele>
        <time>2023-05-27T10:26:29Z</time>
      </trkpt>
      <trkpt lat="43.42792" lon="1.90983">
        <ele>231.8</ele>
        <time>2023-05-27T10:26:30Z</time>
      </trkpt>
      <trkpt lat="43.42792" lon="1.9099">
        <ele>231.8</ele>
        <time>2023-05-27T10:26:31Z</time>
      </trkpt>
      <trkpt lat="43.42794" lon="1.90995">
        <ele>231.6</ele>
        <time>2023-05-27T10:26:32Z</time>
      </trkpt>
      <trkpt lat="43.42796" lon="1.91001">
        <ele>231.6</ele>
        <time>2023-05-27T10:26:33Z</time>
      </trkpt>
      <trkpt lat="43.42799" lon="1.91005">
        <ele>231.6</ele>
        <time>2023-05-27T10:26:34Z</time>
      </trkpt>
      <trkpt lat="43.42802" lon="1.91009">
        <ele>231.6</ele>
        <time>2023-05-27T10:26:35Z</time>
      </trkpt>
      <trkpt lat="43.42805" lon="1.91012">
        <ele>231.6</ele>
        <time>2023-05-27T10:26:36Z</time>
      </trkpt>
      <trkpt lat="43.42809" lon="1.91015">
        <ele>231.6</ele>
        <time>2023-05-27T10:26:37Z</time>
      </trkpt>
      <trkpt lat="43.42813" lon="1.91018">
        <ele>231.6</ele>
        <time>2023-05-27T10:26:38Z</time>
      </trkpt>
      <trkpt lat="43.42817" lon="1.91021">
        <ele>231.6</ele>
        <time>2023-05-27T10:26:39Z</time>
      </trkpt>
      <trkpt lat="43.4282" lon="1.91023">
        <ele>231.6</ele>
        <time>2023-05-27T10:26:40Z</time>
      </trkpt>
      <trkpt lat="43.42823" lon="1.91026">
        <ele>231.6</ele>
        <time>2023-05-27T10:26:41Z</time>
      </trkpt>
      <trkpt lat="43.42826" lon="1.91029">
        <ele>231.6</ele>
        <time>2023-05-27T10:26:42Z</time>
      </trkpt>
      <trkpt lat="43.42829" lon="1.91033">
        <ele>231.6</ele>
        <time>2023-05-27T10:26:43Z</time>
      </trkpt>
      <trkpt lat="43.42832" lon="1.91038">
        <ele>231.6</ele>
        <time>2023-05-27T10:26:44Z</time>
      </trkpt>
      <trkpt lat="43.42834" lon="1.91041">
        <ele>231.8</ele>
        <time>2023-05-27T10:26:45Z</time>
      </trkpt>
      <trkpt lat="43.42837" lon="1.91045">
        <ele>231.8</ele>
        <time>2023-05-27T10:26:46Z</time>
      </trkpt>
      <trkpt lat="43.42839" lon="1.9105">
        <ele>231.8</ele>
        <time>2023-05-27T10:26:47Z</time>
      </trkpt>
      <trkpt lat="43.42841" lon="1.91053">
        <ele>231.8</ele>
        <time>2023-05-27T10:26:48Z</time>
      </trkpt>
      <trkpt lat="43.42843" lon="1.91057">
        <ele>231.8</ele>
        <time>2023-05-27T10:26:49Z</time>
      </trkpt>
      <trkpt lat="43.42845" lon="1.91062">
        <ele>231.8</ele>
        <time>2023-05-27T10:26:50Z</time>
      </trkpt>
      <trkpt lat="43.42847" lon="1.91066">
        <ele>231.8</ele>
        <time>2023-05-27T10:26:51Z</time>
      </trkpt>
      <trkpt lat="43.42849" lon="1.91071">
        <ele>231.8</ele>
        <time>2023-05-27T10:26:52Z</time>
      </trkpt>
      <trkpt lat="43.42851" lon="1.91075">
        <ele>231.8</ele>
        <time>2023-05-27T10:26:53Z</time>
      </trkpt>
      <trkpt lat="43.42852" lon="1.9108">
        <ele>231.8</ele>
        <time>2023-05-27T10:26:54Z</time>
      </trkpt>
      <trkpt lat="43.42855" lon="1.91085">
        <ele>231.8</ele>
        <time>2023-05-27T10:26:55Z</time>
      </trkpt>
      <trkpt lat="43.42857" lon="1.9109">
        <ele>231.8</ele>
        <time>2023-05-27T10:26:56Z</time>
      </trkpt>
      <trkpt lat="43.42859" lon="1.91094">
        <ele>231.8</ele>
        <time>2023-05-27T10:26:57Z</time>
      </trkpt>
      <trkpt lat="43.42861" lon="1.91099">
        <ele>231.8</ele>
        <time>2023-05-27T10:26:58Z</time>
      </trkpt>
      <trkpt lat="43.42863" lon="1.91105">
        <ele>231.8</ele>
        <time>2023-05-27T10:26:59Z</time>
      </trkpt>
      <trkpt lat="43.42865" lon="1.9111">
        <ele>231.8</ele>
        <time>2023-05-27T10:27:00Z</time>
      </trkpt>
      <trkpt lat="43.42867" lon="1.91116">
        <ele>231.6</ele>
        <time>2023-05-27T10:27:01Z</time>
      </trkpt>
      <trkpt lat="43.42869" lon="1.9112">
        <ele>231.6</ele>
        <time>2023-05-27T10:27:02Z</time>
      </trkpt>
      <trkpt lat="43.42871" lon="1.91126">
        <ele>231.6</ele>
        <time>2023-05-27T10:27:03Z</time>
      </trkpt>
      <trkpt lat="43.42873" lon="1.91131">
        <ele>231.6</ele>
        <time>2023-05-27T10:27:04Z</time>
      </trkpt>
      <trkpt lat="43.42875" lon="1.91135">
        <ele>231.6</ele>
        <time>2023-05-27T10:27:05Z</time>
      </trkpt>
      <trkpt lat="43.42877" lon="1.9114">
        <ele>231.6</ele>
        <time>2023-05-27T10:27:06Z</time>
      </trkpt>
      <trkpt lat="43.42879" lon="1.91145">
        <ele>231.6</ele>
        <time>2023-05-27T10:27:07Z</time>
      </trkpt>
      <trkpt lat="43.42881" lon="1.9115">
        <ele>231.6</ele>
        <time>2023-05-27T10:27:08Z</time>
      </trkpt>
      <trkpt lat="43.42883" lon="1.91155">
        <ele>231.6</ele>
        <time>2023-05-27T10:27:09Z</time>
      </trkpt>
      <trkpt lat="43.42885" lon="1.91161">
        <ele>231.4</ele>
        <time>2023-05-27T10:27:10Z</time>
      </trkpt>
      <trkpt lat="43.42886" lon="1.91166">
        <ele>231.4</ele>
        <time>2023-05-27T10:27:11Z</time>
      </trkpt>
      <trkpt lat="43.42888" lon="1.91172">
        <ele>231.4</ele>
        <time>2023-05-27T10:27:12Z</time>
      </trkpt>
      <trkpt lat="43.4289" lon="1.91178">
        <ele>231.4</ele>
        <time>2023-05-27T10:27:13Z</time>
      </trkpt>
      <trkpt lat="43.42891" lon="1.91182">
        <ele>231.4</ele>
        <time>2023-05-27T10:27:14Z</time>
      </trkpt>
      <trkpt lat="43.42893" lon="1.91187">
        <ele>231.4</ele>
        <time>2023-05-27T10:27:15Z</time>
      </trkpt>
      <trkpt lat="43.42895" lon="1.91193">
        <ele>231.4</ele>
        <time>2023-05-27T10:27:16Z</time>
      </trkpt>
      <trkpt lat="43.42897" lon="1.91198">
        <ele>231.4</ele>
        <time>2023-05-27T10:27:17Z</time>
      </trkpt>
      <trkpt lat="43.42899" lon="1.91203">
        <ele>231.4</ele>
        <time>2023-05-27T10:27:18Z</time>
      </trkpt>
      <trkpt lat="43.42901" lon="1.91208">
        <ele>231.4</ele>
        <time>2023-05-27T10:27:19Z</time>
      </trkpt>
      <trkpt lat="43.42903" lon="1.91212">
        <ele>231.4</ele>
        <time>2023-05-27T10:27:20Z</time>
      </trkpt>
      <trkpt lat="43.42905" lon="1.91215">
        <ele>231.4</ele>
        <time>2023-05-27T10:27:21Z</time>
      </trkpt>
      <trkpt lat="43.42909" lon="1.91219">
        <ele>231.4</ele>
        <time>2023-05-27T10:27:22Z</time>
      </trkpt>
      <trkpt lat="43.42911" lon="1.91222">
        <ele>231.4</ele>
        <time>2023-05-27T10:27:23Z</time>
      </trkpt>
      <trkpt lat="43.42914" lon="1.91226">
        <ele>231.4</ele>
        <time>2023-05-27T10:27:24Z</time>
      </trkpt>
      <trkpt lat="43.42917" lon="1.9123">
        <ele>231.4</ele>
        <time>2023-05-27T10:27:25Z</time>
      </trkpt>
      <trkpt lat="43.42921" lon="1.91234">
        <ele>231.4</ele>
        <time>2023-05-27T10:27:26Z</time>
      </trkpt>
      <trkpt lat="43.42924" lon="1.91237">
        <ele>231.4</ele>
        <time>2023-05-27T10:27:27Z</time>
      </trkpt>
      <trkpt lat="43.42928" lon="1.9124">
        <ele>231.4</ele>
        <time>2023-05-27T10:27:28Z</time>
      </trkpt>
      <trkpt lat="43.42931" lon="1.91243">
        <ele>231.4</ele>
        <time>2023-05-27T10:27:29Z</time>
      </trkpt>
      <trkpt lat="43.42934" lon="1.91246">
        <ele>231.4</ele>
        <time>2023-05-27T10:27:30Z</time>
      </trkpt>
      <trkpt lat="43.42938" lon="1.9125">
        <ele>231.2</ele>
        <time>2023-05-27T10:27:31Z</time>
      </trkpt>
      <trkpt lat="43.42941" lon="1.91252">
        <ele>231.2</ele>
        <time>2023-05-27T10:27:32Z</time>
      </trkpt>
      <trkpt lat="43.42945" lon="1.91255">
        <ele>231.2</ele>
        <time>2023-05-27T10:27:33Z</time>
      </trkpt>
      <trkpt lat="43.42948" lon="1.91258">
        <ele>231.2</ele>
        <time>2023-05-27T10:27:34Z</time>
      </trkpt>
      <trkpt lat="43.42951" lon="1.9126">
        <ele>231.2</ele>
        <time>2023-05-27T10:27:35Z</time>
      </trkpt>
      <trkpt lat="43.42953" lon="1.91262">
        <ele>231.2</ele>
        <time>2023-05-27T10:27:36Z</time>
      </trkpt>
      <trkpt lat="43.42956" lon="1.91264">
        <ele>231.4</ele>
        <time>2023-05-27T10:27:37Z</time>
      </trkpt>
      <trkpt lat="43.42958" lon="1.91267">
        <ele>231.4</ele>
        <time>2023-05-27T10:27:38Z</time>
      </trkpt>
      <trkpt lat="43.42962" lon="1.9127">
        <ele>231.4</ele>
        <time>2023-05-27T10:27:39Z</time>
      </trkpt>
      <trkpt lat="43.42966" lon="1.91273">
        <ele>231.4</ele>
        <time>2023-05-27T10:27:40Z</time>
      </trkpt>
      <trkpt lat="43.42968" lon="1.91276">
        <ele>231.4</ele>
        <time>2023-05-27T10:27:41Z</time>
      </trkpt>
      <trkpt lat="43.42971" lon="1.91279">
        <ele>231.4</ele>
        <time>2023-05-27T10:27:42Z</time>
      </trkpt>
      <trkpt lat="43.42974" lon="1.91281">
        <ele>231.4</ele>
        <time>2023-05-27T10:27:43Z</time>
      </trkpt>
      <trkpt lat="43.42977" lon="1.91283">
        <ele>231.6</ele>
        <time>2023-05-27T10:27:44Z</time>
      </trkpt>
      <trkpt lat="43.4298" lon="1.91285">
        <ele>231.6</ele>
        <time>2023-05-27T10:27:45Z</time>
      </trkpt>
      <trkpt lat="43.42982" lon="1.91287">
        <ele>231.6</ele>
        <time>2023-05-27T10:27:46Z</time>
      </trkpt>
      <trkpt lat="43.42984" lon="1.91288">
        <ele>231.8</ele>
        <time>2023-05-27T10:27:47Z</time>
      </trkpt>
      <trkpt lat="43.42987" lon="1.91291">
        <ele>231.8</ele>
        <time>2023-05-27T10:27:48Z</time>
      </trkpt>
      <trkpt lat="43.42988" lon="1.91293">
        <ele>232</ele>
        <time>2023-05-27T10:27:49Z</time>
      </trkpt>
      <trkpt lat="43.4299" lon="1.91295">
        <ele>232</ele>
        <time>2023-05-27T10:27:50Z</time>
      </trkpt>
      <trkpt lat="43.42993" lon="1.91298">
        <ele>232</ele>
        <time>2023-05-27T10:27:51Z</time>
      </trkpt>
      <trkpt lat="43.42996" lon="1.91302">
        <ele>232</ele>
        <time>2023-05-27T10:27:52Z</time>
      </trkpt>
      <trkpt lat="43.42998" lon="1.91307">
        <ele>232</ele>
        <time>2023-05-27T10:27:53Z</time>
      </trkpt>
      <trkpt lat="43.43" lon="1.91313">
        <ele>232</ele>
        <time>2023-05-27T10:27:54Z</time>
      </trkpt>
      <trkpt lat="43.43" lon="1.91318">
        <ele>232</ele>
        <time>2023-05-27T10:27:55Z</time>
      </trkpt>
      <trkpt lat="43.43001" lon="1.91322">
        <ele>232</ele>
        <time>2023-05-27T10:27:56Z</time>
      </trkpt>
      <trkpt lat="43.43001" lon="1.91326">
        <ele>232</ele>
        <time>2023-05-27T10:27:57Z</time>
      </trkpt>
      <trkpt lat="43.43001" lon="1.91332">
        <ele>231.8</ele>
        <time>2023-05-27T10:27:58Z</time>
      </trkpt>
      <trkpt lat="43.43001" lon="1.91338">
        <ele>231.8</ele>
        <time>2023-05-27T10:27:59Z</time>
      </trkpt>
      <trkpt lat="43.43002" lon="1.91344">
        <ele>231.6</ele>
        <time>2023-05-27T10:28:00Z</time>
      </trkpt>
      <trkpt lat="43.43003" lon="1.9135">
        <ele>231.6</ele>
        <time>2023-05-27T10:28:01Z</time>
      </trkpt>
      <trkpt lat="43.43003" lon="1.91356">
        <ele>231.4</ele>
        <time>2023-05-27T10:28:02Z</time>
      </trkpt>
      <trkpt lat="43.43003" lon="1.91362">
        <ele>231.4</ele>
        <time>2023-05-27T10:28:03Z</time>
      </trkpt>
      <trkpt lat="43.43002" lon="1.91369">
        <ele>231.4</ele>
        <time>2023-05-27T10:28:04Z</time>
      </trkpt>
      <trkpt lat="43.43002" lon="1.91375">
        <ele>231.4</ele>
        <time>2023-05-27T10:28:05Z</time>
      </trkpt>
      <trkpt lat="43.43003" lon="1.91381">
        <ele>231.4</ele>
        <time>2023-05-27T10:28:06Z</time>
      </trkpt>
      <trkpt lat="43.43003" lon="1.91386">
        <ele>231.6</ele>
        <time>2023-05-27T10:28:07Z</time>
      </trkpt>
      <trkpt lat="43.43002" lon="1.91392">
        <ele>231.6</ele>
        <time>2023-05-27T10:28:08Z</time>
      </trkpt>
      <trkpt lat="43.43002" lon="1.914">
        <ele>231.6</ele>
        <time>2023-05-27T10:28:09Z</time>
      </trkpt>
      <trkpt lat="43.43004" lon="1.91407">
        <ele>231.6</ele>
        <time>2023-05-27T10:28:10Z</time>
      </trkpt>
      <trkpt lat="43.43006" lon="1.91414">
        <ele>231.6</ele>
        <time>2023-05-27T10:28:11Z</time>
      </trkpt>
      <trkpt lat="43.43008" lon="1.9142">
        <ele>231.6</ele>
        <time>2023-05-27T10:28:12Z</time>
      </trkpt>
      <trkpt lat="43.4301" lon="1.91425">
        <ele>231.6</ele>
        <time>2023-05-27T10:28:13Z</time>
      </trkpt>
      <trkpt lat="43.43013" lon="1.91429">
        <ele>231.6</ele>
        <time>2023-05-27T10:28:14Z</time>
      </trkpt>
      <trkpt lat="43.43016" lon="1.91433">
        <ele>231.6</ele>
        <time>2023-05-27T10:28:15Z</time>
      </trkpt>
      <trkpt lat="43.43019" lon="1.91435">
        <ele>231.6</ele>
        <time>2023-05-27T10:28:16Z</time>
      </trkpt>
      <trkpt lat="43.43022" lon="1.91437">
        <ele>231.6</ele>
        <time>2023-05-27T10:28:17Z</time>
      </trkpt>
      <trkpt lat="43.43025" lon="1.91438">
        <ele>231.6</ele>
        <time>2023-05-27T10:28:18Z</time>
      </trkpt>
      <trkpt lat="43.43028" lon="1.91439">
        <ele>231.6</ele>
        <time>2023-05-27T10:28:19Z</time>
      </trkpt>
      <trkpt lat="43.43032" lon="1.91439">
        <ele>231.6</ele>
        <time>2023-05-27T10:28:20Z</time>
      </trkpt>
      <trkpt lat="43.43036" lon="1.91439">
        <ele>231.6</ele>
        <time>2023-05-27T10:28:21Z</time>
      </trkpt>
      <trkpt lat="43.4304" lon="1.91438">
        <ele>231.6</ele>
        <time>2023-05-27T10:28:22Z</time>
      </trkpt>
      <trkpt lat="43.43044" lon="1.91437">
        <ele>231.6</ele>
        <time>2023-05-27T10:28:23Z</time>
      </trkpt>
      <trkpt lat="43.43047" lon="1.91435">
        <ele>231.6</ele>
        <time>2023-05-27T10:28:24Z</time>
      </trkpt>
      <trkpt lat="43.43051" lon="1.91434">
        <ele>231.6</ele>
        <time>2023-05-27T10:28:25Z</time>
      </trkpt>
      <trkpt lat="43.43053" lon="1.91432">
        <ele>231.6</ele>
        <time>2023-05-27T10:28:26Z</time>
      </trkpt>
      <trkpt lat="43.43056" lon="1.91431">
        <ele>231.6</ele>
        <time>2023-05-27T10:28:27Z</time>
      </trkpt>
      <trkpt lat="43.43059" lon="1.91429">
        <ele>231.6</ele>
        <time>2023-05-27T10:28:28Z</time>
      </trkpt>
      <trkpt lat="43.43062" lon="1.91426">
        <ele>231.6</ele>
        <time>2023-05-27T10:28:29Z</time>
      </trkpt>
      <trkpt lat="43.43065" lon="1.91424">
        <ele>231.6</ele>
        <time>2023-05-27T10:28:30Z</time>
      </trkpt>
      <trkpt lat="43.43068" lon="1.91421">
        <ele>231.6</ele>
        <time>2023-05-27T10:28:31Z</time>
      </trkpt>
      <trkpt lat="43.4307" lon="1.91419">
        <ele>231.8</ele>
        <time>2023-05-27T10:28:32Z</time>
      </trkpt>
      <trkpt lat="43.43073" lon="1.91416">
        <ele>231.8</ele>
        <time>2023-05-27T10:28:33Z</time>
      </trkpt>
      <trkpt lat="43.43077" lon="1.91414">
        <ele>231.8</ele>
        <time>2023-05-27T10:28:34Z</time>
      </trkpt>
      <trkpt lat="43.43079" lon="1.91411">
        <ele>231.8</ele>
        <time>2023-05-27T10:28:35Z</time>
      </trkpt>
      <trkpt lat="43.43082" lon="1.91408">
        <ele>231.8</ele>
        <time>2023-05-27T10:28:36Z</time>
      </trkpt>
      <trkpt lat="43.43085" lon="1.91404">
        <ele>231.8</ele>
        <time>2023-05-27T10:28:37Z</time>
      </trkpt>
      <trkpt lat="43.43088" lon="1.91401">
        <ele>231.8</ele>
        <time>2023-05-27T10:28:38Z</time>
      </trkpt>
      <trkpt lat="43.4309" lon="1.91398">
        <ele>231.8</ele>
        <time>2023-05-27T10:28:39Z</time>
      </trkpt>
      <trkpt lat="43.43092" lon="1.91395">
        <ele>231.8</ele>
        <time>2023-05-27T10:28:40Z</time>
      </trkpt>
      <trkpt lat="43.43095" lon="1.91392">
        <ele>231.8</ele>
        <time>2023-05-27T10:28:41Z</time>
      </trkpt>
      <trkpt lat="43.43099" lon="1.91389">
        <ele>231.8</ele>
        <time>2023-05-27T10:28:42Z</time>
      </trkpt>
      <trkpt lat="43.43102" lon="1.91386">
        <ele>231.8</ele>
        <time>2023-05-27T10:28:43Z</time>
      </trkpt>
      <trkpt lat="43.43106" lon="1.91383">
        <ele>231.8</ele>
        <time>2023-05-27T10:28:44Z</time>
      </trkpt>
      <trkpt lat="43.43109" lon="1.9138">
        <ele>232</ele>
        <time>2023-05-27T10:28:45Z</time>
      </trkpt>
      <trkpt lat="43.43113" lon="1.91377">
        <ele>232</ele>
        <time>2023-05-27T10:28:46Z</time>
      </trkpt>
      <trkpt lat="43.43116" lon="1.91375">
        <ele>231.8</ele>
        <time>2023-05-27T10:28:47Z</time>
      </trkpt>
      <trkpt lat="43.43119" lon="1.91373">
        <ele>231.8</ele>
        <time>2023-05-27T10:28:48Z</time>
      </trkpt>
      <trkpt lat="43.43122" lon="1.91372">
        <ele>231.8</ele>
        <time>2023-05-27T10:28:49Z</time>
      </trkpt>
      <trkpt lat="43.43125" lon="1.91372">
        <ele>231.8</ele>
        <time>2023-05-27T10:28:50Z</time>
      </trkpt>
      <trkpt lat="43.43128" lon="1.91372">
        <ele>231.8</ele>
        <time>2023-05-27T10:28:51Z</time>
      </trkpt>
      <trkpt lat="43.43132" lon="1.91372">
        <ele>232</ele>
        <time>2023-05-27T10:28:52Z</time>
      </trkpt>
      <trkpt lat="43.43136" lon="1.91373">
        <ele>232</ele>
        <time>2023-05-27T10:28:53Z</time>
      </trkpt>
      <trkpt lat="43.43141" lon="1.91374">
        <ele>232</ele>
        <time>2023-05-27T10:28:54Z</time>
      </trkpt>
      <trkpt lat="43.43145" lon="1.91375">
        <ele>232</ele>
        <time>2023-05-27T10:28:55Z</time>
      </trkpt>
      <trkpt lat="43.43149" lon="1.91375">
        <ele>232</ele>
        <time>2023-05-27T10:28:56Z</time>
      </trkpt>
      <trkpt lat="43.43152" lon="1.91377">
        <ele>232</ele>
        <time>2023-05-27T10:28:57Z</time>
      </trkpt>
      <trkpt lat="43.43156" lon="1.91379">
        <ele>232</ele>
        <time>2023-05-27T10:28:58Z</time>
      </trkpt>
      <trkpt lat="43.4316" lon="1.9138">
        <ele>232</ele>
        <time>2023-05-27T10:28:59Z</time>
      </trkpt>
      <trkpt lat="43.43164" lon="1.9138">
        <ele>232</ele>
        <time>2023-05-27T10:29:00Z</time>
      </trkpt>
      <trkpt lat="43.43167" lon="1.91379">
        <ele>232</ele>
        <time>2023-05-27T10:29:01Z</time>
      </trkpt>
      <trkpt lat="43.4317" lon="1.9138">
        <ele>232</ele>
        <time>2023-05-27T10:29:02Z</time>
      </trkpt>
      <trkpt lat="43.43173" lon="1.9138">
        <ele>232</ele>
        <time>2023-05-27T10:29:03Z</time>
      </trkpt>
      <trkpt lat="43.43175" lon="1.91379">
        <ele>232</ele>
        <time>2023-05-27T10:29:04Z</time>
      </trkpt>
      <trkpt lat="43.43177" lon="1.91378">
        <ele>232</ele>
        <time>2023-05-27T10:29:05Z</time>
      </trkpt>
      <trkpt lat="43.43179" lon="1.91375">
        <ele>232</ele>
        <time>2023-05-27T10:29:06Z</time>
      </trkpt>
      <trkpt lat="43.4318" lon="1.91372">
        <ele>232</ele>
        <time>2023-05-27T10:29:07Z</time>
      </trkpt>
      <trkpt lat="43.43181" lon="1.9137">
        <ele>232.2</ele>
        <time>2023-05-27T10:29:08Z</time>
      </trkpt>
      <trkpt lat="43.43182" lon="1.91369">
        <ele>232.2</ele>
        <time>2023-05-27T10:29:09Z</time>
      </trkpt>
      <trkpt lat="43.43183" lon="1.91367">
        <ele>232.2</ele>
        <time>2023-05-27T10:29:10Z</time>
      </trkpt>
      <trkpt lat="43.43184" lon="1.91366">
        <ele>232.2</ele>
        <time>2023-05-27T10:29:11Z</time>
      </trkpt>
      <trkpt lat="43.43185" lon="1.91363">
        <ele>232</ele>
        <time>2023-05-27T10:29:12Z</time>
      </trkpt>
      <trkpt lat="43.43187" lon="1.91361">
        <ele>231.8</ele>
        <time>2023-05-27T10:29:13Z</time>
      </trkpt>
      <trkpt lat="43.43189" lon="1.9136">
        <ele>231.8</ele>
        <time>2023-05-27T10:29:14Z</time>
      </trkpt>
      <trkpt lat="43.43191" lon="1.91361">
        <ele>231.6</ele>
        <time>2023-05-27T10:29:15Z</time>
      </trkpt>
      <trkpt lat="43.43193" lon="1.91363">
        <ele>231.6</ele>
        <time>2023-05-27T10:29:16Z</time>
      </trkpt>
      <trkpt lat="43.43194" lon="1.91365">
        <ele>231.6</ele>
        <time>2023-05-27T10:29:17Z</time>
      </trkpt>
      <trkpt lat="43.43196" lon="1.91368">
        <ele>231.6</ele>
        <time>2023-05-27T10:29:18Z</time>
      </trkpt>
      <trkpt lat="43.43198" lon="1.91371">
        <ele>231.6</ele>
        <time>2023-05-27T10:29:19Z</time>
      </trkpt>
      <trkpt lat="43.432" lon="1.91374">
        <ele>231.4</ele>
        <time>2023-05-27T10:29:20Z</time>
      </trkpt>
      <trkpt lat="43.43203" lon="1.91378">
        <ele>231.4</ele>
        <time>2023-05-27T10:29:21Z</time>
      </trkpt>
      <trkpt lat="43.43205" lon="1.91381">
        <ele>231.4</ele>
        <time>2023-05-27T10:29:22Z</time>
      </trkpt>
      <trkpt lat="43.43208" lon="1.91384">
        <ele>231.6</ele>
        <time>2023-05-27T10:29:23Z</time>
      </trkpt>
      <trkpt lat="43.4321" lon="1.91387">
        <ele>231.6</ele>
        <time>2023-05-27T10:29:24Z</time>
      </trkpt>
      <trkpt lat="43.43212" lon="1.9139">
        <ele>231.6</ele>
        <time>2023-05-27T10:29:25Z</time>
      </trkpt>
      <trkpt lat="43.43214" lon="1.91394">
        <ele>231.6</ele>
        <time>2023-05-27T10:29:26Z</time>
      </trkpt>
      <trkpt lat="43.43216" lon="1.91398">
        <ele>231.6</ele>
        <time>2023-05-27T10:29:27Z</time>
      </trkpt>
      <trkpt lat="43.43218" lon="1.91402">
        <ele>231.6</ele>
        <time>2023-05-27T10:29:28Z</time>
      </trkpt>
      <trkpt lat="43.4322" lon="1.91407">
        <ele>231.4</ele>
        <time>2023-05-27T10:29:29Z</time>
      </trkpt>
      <trkpt lat="43.43221" lon="1.91411">
        <ele>231.4</ele>
        <time>2023-05-27T10:29:30Z</time>
      </trkpt>
      <trkpt lat="43.43222" lon="1.91416">
        <ele>231.4</ele>
        <time>2023-05-27T10:29:31Z</time>
      </trkpt>
      <trkpt lat="43.43223" lon="1.91421">
        <ele>231.4</ele>
        <time>2023-05-27T10:29:32Z</time>
      </trkpt>
      <trkpt lat="43.43224" lon="1.91427">
        <ele>231.4</ele>
        <time>2023-05-27T10:29:33Z</time>
      </trkpt>
      <trkpt lat="43.43225" lon="1.9143">
        <ele>231.4</ele>
        <time>2023-05-27T10:29:34Z</time>
      </trkpt>
      <trkpt lat="43.43225" lon="1.91434">
        <ele>231.4</ele>
        <time>2023-05-27T10:29:35Z</time>
      </trkpt>
      <trkpt lat="43.43225" lon="1.91438">
        <ele>231.4</ele>
        <time>2023-05-27T10:29:36Z</time>
      </trkpt>
      <trkpt lat="43.43224" lon="1.91442">
        <ele>231.4</ele>
        <time>2023-05-27T10:29:37Z</time>
      </trkpt>
      <trkpt lat="43.43223" lon="1.91446">
        <ele>231.4</ele>
        <time>2023-05-27T10:29:38Z</time>
      </trkpt>
      <trkpt lat="43.43223" lon="1.9145">
        <ele>231.4</ele>
        <time>2023-05-27T10:29:39Z</time>
      </trkpt>
      <trkpt lat="43.43221" lon="1.91454">
        <ele>231.4</ele>
        <time>2023-05-27T10:29:40Z</time>
      </trkpt>
      <trkpt lat="43.43219" lon="1.91458">
        <ele>231.4</ele>
        <time>2023-05-27T10:29:41Z</time>
      </trkpt>
      <trkpt lat="43.43218" lon="1.91463">
        <ele>231.4</ele>
        <time>2023-05-27T10:29:42Z</time>
      </trkpt>
      <trkpt lat="43.43216" lon="1.91467">
        <ele>231.4</ele>
        <time>2023-05-27T10:29:43Z</time>
      </trkpt>
      <trkpt lat="43.43214" lon="1.91472">
        <ele>231.4</ele>
        <time>2023-05-27T10:29:44Z</time>
      </trkpt>
      <trkpt lat="43.43213" lon="1.91475">
        <ele>231.6</ele>
        <time>2023-05-27T10:29:45Z</time>
      </trkpt>
      <trkpt lat="43.43211" lon="1.91479">
        <ele>231.6</ele>
        <time>2023-05-27T10:29:46Z</time>
      </trkpt>
      <trkpt lat="43.43209" lon="1.91483">
        <ele>231.6</ele>
        <time>2023-05-27T10:29:47Z</time>
      </trkpt>
      <trkpt lat="43.4321" lon="1.91487">
        <ele>231.6</ele>
        <time>2023-05-27T10:29:48Z</time>
      </trkpt>
      <trkpt lat="43.43211" lon="1.91492">
        <ele>231.4</ele>
        <time>2023-05-27T10:29:49Z</time>
      </trkpt>
      <trkpt lat="43.43212" lon="1.91499">
        <ele>231.4</ele>
        <time>2023-05-27T10:29:50Z</time>
      </trkpt>
      <trkpt lat="43.43213" lon="1.91504">
        <ele>231.6</ele>
        <time>2023-05-27T10:29:51Z</time>
      </trkpt>
      <trkpt lat="43.43214" lon="1.91509">
        <ele>231.6</ele>
        <time>2023-05-27T10:29:52Z</time>
      </trkpt>
      <trkpt lat="43.43217" lon="1.91514">
        <ele>231.6</ele>
        <time>2023-05-27T10:29:53Z</time>
      </trkpt>
      <trkpt lat="43.43219" lon="1.91519">
        <ele>231.6</ele>
        <time>2023-05-27T10:29:54Z</time>
      </trkpt>
      <trkpt lat="43.43221" lon="1.91525">
        <ele>231.6</ele>
        <time>2023-05-27T10:29:55Z</time>
      </trkpt>
      <trkpt lat="43.43223" lon="1.9153">
        <ele>231.6</ele>
        <time>2023-05-27T10:29:56Z</time>
      </trkpt>
      <trkpt lat="43.43225" lon="1.91535">
        <ele>231.6</ele>
        <time>2023-05-27T10:29:57Z</time>
      </trkpt>
      <trkpt lat="43.43227" lon="1.9154">
        <ele>231.6</ele>
        <time>2023-05-27T10:29:58Z</time>
      </trkpt>
      <trkpt lat="43.43229" lon="1.91546">
        <ele>231.6</ele>
        <time>2023-05-27T10:29:59Z</time>
      </trkpt>
      <trkpt lat="43.4323" lon="1.91552">
        <ele>231.6</ele>
        <time>2023-05-27T10:30:00Z</time>
      </trkpt>
      <trkpt lat="43.43232" lon="1.91558">
        <ele>231.6</ele>
        <time>2023-05-27T10:30:01Z</time>
      </trkpt>
      <trkpt lat="43.43232" lon="1.91563">
        <ele>231.4</ele>
        <time>2023-05-27T10:30:02Z</time>
      </trkpt>
      <trkpt lat="43.43233" lon="1.91569">
        <ele>231.4</ele>
        <time>2023-05-27T10:30:03Z</time>
      </trkpt>
      <trkpt lat="43.43233" lon="1.91574">
        <ele>231.4</ele>
        <time>2023-05-27T10:30:04Z</time>
      </trkpt>
      <trkpt lat="43.43233" lon="1.9158">
        <ele>231.4</ele>
        <time>2023-05-27T10:30:05Z</time>
      </trkpt>
      <trkpt lat="43.43233" lon="1.91587">
        <ele>231.4</ele>
        <time>2023-05-27T10:30:06Z</time>
      </trkpt>
      <trkpt lat="43.43232" lon="1.91593">
        <ele>231.4</ele>
        <time>2023-05-27T10:30:07Z</time>
      </trkpt>
      <trkpt lat="43.43231" lon="1.91598">
        <ele>231.2</ele>
        <time>2023-05-27T10:30:08Z</time>
      </trkpt>
      <trkpt lat="43.43229" lon="1.91602">
        <ele>231.2</ele>
        <time>2023-05-27T10:30:09Z</time>
      </trkpt>
      <trkpt lat="43.43228" lon="1.91606">
        <ele>231.2</ele>
        <time>2023-05-27T10:30:10Z</time>
      </trkpt>
      <trkpt lat="43.43226" lon="1.91611">
        <ele>231.2</ele>
        <time>2023-05-27T10:30:11Z</time>
      </trkpt>
      <trkpt lat="43.43224" lon="1.91617">
        <ele>231.2</ele>
        <time>2023-05-27T10:30:12Z</time>
      </trkpt>
      <trkpt lat="43.43221" lon="1.91622">
        <ele>231</ele>
        <time>2023-05-27T10:30:13Z</time>
      </trkpt>
      <trkpt lat="43.43218" lon="1.91627">
        <ele>231</ele>
        <time>2023-05-27T10:30:14Z</time>
      </trkpt>
      <trkpt lat="43.43215" lon="1.91631">
        <ele>231</ele>
        <time>2023-05-27T10:30:15Z</time>
      </trkpt>
      <trkpt lat="43.43213" lon="1.91637">
        <ele>231</ele>
        <time>2023-05-27T10:30:16Z</time>
      </trkpt>
      <trkpt lat="43.43214" lon="1.91644">
        <ele>231.2</ele>
        <time>2023-05-27T10:30:17Z</time>
      </trkpt>
      <trkpt lat="43.43214" lon="1.9165">
        <ele>231.2</ele>
        <time>2023-05-27T10:30:18Z</time>
      </trkpt>
      <trkpt lat="43.43214" lon="1.91656">
        <ele>231.2</ele>
        <time>2023-05-27T10:30:19Z</time>
      </trkpt>
      <trkpt lat="43.43214" lon="1.91661">
        <ele>231.2</ele>
        <time>2023-05-27T10:30:20Z</time>
      </trkpt>
      <trkpt lat="43.43215" lon="1.91666">
        <ele>231.2</ele>
        <time>2023-05-27T10:30:21Z</time>
      </trkpt>
      <trkpt lat="43.43213" lon="1.9167">
        <ele>231.4</ele>
        <time>2023-05-27T10:30:22Z</time>
      </trkpt>
      <trkpt lat="43.43211" lon="1.91672">
        <ele>231.4</ele>
        <time>2023-05-27T10:30:23Z</time>
      </trkpt>
      <trkpt lat="43.43208" lon="1.91676">
        <ele>231.4</ele>
        <time>2023-05-27T10:30:24Z</time>
      </trkpt>
      <trkpt lat="43.43205" lon="1.91681">
        <ele>231.6</ele>
        <time>2023-05-27T10:30:25Z</time>
      </trkpt>
      <trkpt lat="43.43204" lon="1.91687">
        <ele>231.6</ele>
        <time>2023-05-27T10:30:26Z</time>
      </trkpt>
      <trkpt lat="43.43204" lon="1.91692">
        <ele>231.6</ele>
        <time>2023-05-27T10:30:27Z</time>
      </trkpt>
      <trkpt lat="43.43203" lon="1.91697">
        <ele>231.6</ele>
        <time>2023-05-27T10:30:28Z</time>
      </trkpt>
      <trkpt lat="43.43202" lon="1.91702">
        <ele>231.6</ele>
        <time>2023-05-27T10:30:29Z</time>
      </trkpt>
      <trkpt lat="43.43201" lon="1.91706">
        <ele>231.8</ele>
        <time>2023-05-27T10:30:30Z</time>
      </trkpt>
      <trkpt lat="43.43201" lon="1.91711">
        <ele>231.8</ele>
        <time>2023-05-27T10:30:31Z</time>
      </trkpt>
      <trkpt lat="43.43203" lon="1.91718">
        <ele>231.8</ele>
        <time>2023-05-27T10:30:32Z</time>
      </trkpt>
      <trkpt lat="43.43206" lon="1.91727">
        <ele>231.8</ele>
        <time>2023-05-27T10:30:33Z</time>
      </trkpt>
      <trkpt lat="43.43209" lon="1.91734">
        <ele>231.6</ele>
        <time>2023-05-27T10:30:34Z</time>
      </trkpt>
      <trkpt lat="43.43212" lon="1.91739">
        <ele>231.6</ele>
        <time>2023-05-27T10:30:35Z</time>
      </trkpt>
      <trkpt lat="43.43216" lon="1.91744">
        <ele>231.6</ele>
        <time>2023-05-27T10:30:36Z</time>
      </trkpt>
      <trkpt lat="43.43219" lon="1.91748">
        <ele>231.6</ele>
        <time>2023-05-27T10:30:37Z</time>
      </trkpt>
      <trkpt lat="43.43223" lon="1.91751">
        <ele>231.6</ele>
        <time>2023-05-27T10:30:38Z</time>
      </trkpt>
      <trkpt lat="43.43228" lon="1.91754">
        <ele>231.6</ele>
        <time>2023-05-27T10:30:39Z</time>
      </trkpt>
      <trkpt lat="43.43232" lon="1.91756">
        <ele>231.8</ele>
        <time>2023-05-27T10:30:40Z</time>
      </trkpt>
      <trkpt lat="43.43236" lon="1.91759">
        <ele>231.8</ele>
        <time>2023-05-27T10:30:41Z</time>
      </trkpt>
      <trkpt lat="43.43239" lon="1.91763">
        <ele>231.8</ele>
        <time>2023-05-27T10:30:42Z</time>
      </trkpt>
      <trkpt lat="43.43241" lon="1.91767">
        <ele>231.8</ele>
        <time>2023-05-27T10:30:43Z</time>
      </trkpt>
      <trkpt lat="43.43243" lon="1.91772">
        <ele>231.8</ele>
        <time>2023-05-27T10:30:44Z</time>
      </trkpt>
      <trkpt lat="43.43244" lon="1.91777">
        <ele>231.8</ele>
        <time>2023-05-27T10:30:45Z</time>
      </trkpt>
      <trkpt lat="43.43245" lon="1.91782">
        <ele>231.8</ele>
        <time>2023-05-27T10:30:46Z</time>
      </trkpt>
      <trkpt lat="43.43245" lon="1.91788">
        <ele>231.8</ele>
        <time>2023-05-27T10:30:47Z</time>
      </trkpt>
      <trkpt lat="43.43244" lon="1.91794">
        <ele>231.8</ele>
        <time>2023-05-27T10:30:48Z</time>
      </trkpt>
      <trkpt lat="43.43242" lon="1.91798">
        <ele>232</ele>
        <time>2023-05-27T10:30:49Z</time>
      </trkpt>
      <trkpt lat="43.43241" lon="1.91803">
        <ele>232</ele>
        <time>2023-05-27T10:30:50Z</time>
      </trkpt>
      <trkpt lat="43.43239" lon="1.91808">
        <ele>232</ele>
        <time>2023-05-27T10:30:51Z</time>
      </trkpt>
      <trkpt lat="43.43237" lon="1.91813">
        <ele>232</ele>
        <time>2023-05-27T10:30:52Z</time>
      </trkpt>
      <trkpt lat="43.43234" lon="1.91818">
        <ele>232</ele>
        <time>2023-05-27T10:30:53Z</time>
      </trkpt>
      <trkpt lat="43.43231" lon="1.91821">
        <ele>232</ele>
        <time>2023-05-27T10:30:54Z</time>
      </trkpt>
      <trkpt lat="43.43228" lon="1.91825">
        <ele>232</ele>
        <time>2023-05-27T10:30:55Z</time>
      </trkpt>
      <trkpt lat="43.43225" lon="1.91828">
        <ele>232</ele>
        <time>2023-05-27T10:30:56Z</time>
      </trkpt>
      <trkpt lat="43.43223" lon="1.91831">
        <ele>232</ele>
        <time>2023-05-27T10:30:57Z</time>
      </trkpt>
      <trkpt lat="43.43221" lon="1.91834">
        <ele>232</ele>
        <time>2023-05-27T10:30:58Z</time>
      </trkpt>
      <trkpt lat="43.43219" lon="1.91837">
        <ele>232</ele>
        <time>2023-05-27T10:30:59Z</time>
      </trkpt>
      <trkpt lat="43.43216" lon="1.91841">
        <ele>232</ele>
        <time>2023-05-27T10:31:00Z</time>
      </trkpt>
      <trkpt lat="43.43213" lon="1.91845">
        <ele>232</ele>
        <time>2023-05-27T10:31:01Z</time>
      </trkpt>
      <trkpt lat="43.4321" lon="1.91849">
        <ele>232</ele>
        <time>2023-05-27T10:31:02Z</time>
      </trkpt>
      <trkpt lat="43.43208" lon="1.91852">
        <ele>232</ele>
        <time>2023-05-27T10:31:03Z</time>
      </trkpt>
      <trkpt lat="43.43206" lon="1.91856">
        <ele>232</ele>
        <time>2023-05-27T10:31:04Z</time>
      </trkpt>
      <trkpt lat="43.43204" lon="1.9186">
        <ele>232</ele>
        <time>2023-05-27T10:31:05Z</time>
      </trkpt>
      <trkpt lat="43.43201" lon="1.91865">
        <ele>231.8</ele>
        <time>2023-05-27T10:31:06Z</time>
      </trkpt>
      <trkpt lat="43.43197" lon="1.91869">
        <ele>231.8</ele>
        <time>2023-05-27T10:31:07Z</time>
      </trkpt>
      <trkpt lat="43.43195" lon="1.91873">
        <ele>231.8</ele>
        <time>2023-05-27T10:31:08Z</time>
      </trkpt>
      <trkpt lat="43.43193" lon="1.91877">
        <ele>231.8</ele>
        <time>2023-05-27T10:31:09Z</time>
      </trkpt>
      <trkpt lat="43.43191" lon="1.9188">
        <ele>231.8</ele>
        <time>2023-05-27T10:31:10Z</time>
      </trkpt>
      <trkpt lat="43.43188" lon="1.91884">
        <ele>231.8</ele>
        <time>2023-05-27T10:31:11Z</time>
      </trkpt>
      <trkpt lat="43.43186" lon="1.91888">
        <ele>231.8</ele>
        <time>2023-05-27T10:31:12Z</time>
      </trkpt>
      <trkpt lat="43.43184" lon="1.91893">
        <ele>231.8</ele>
        <time>2023-05-27T10:31:13Z</time>
      </trkpt>
      <trkpt lat="43.43181" lon="1.91898">
        <ele>231.8</ele>
        <time>2023-05-27T10:31:14Z</time>
      </trkpt>
      <trkpt lat="43.43178" lon="1.91903">
        <ele>231.8</ele>
        <time>2023-05-27T10:31:15Z</time>
      </trkpt>
      <trkpt lat="43.43175" lon="1.91907">
        <ele>231.8</ele>
        <time>2023-05-27T10:31:16Z</time>
      </trkpt>
      <trkpt lat="43.43173" lon="1.91911">
        <ele>231.8</ele>
        <time>2023-05-27T10:31:17Z</time>
      </trkpt>
      <trkpt lat="43.43172" lon="1.91916">
        <ele>231.8</ele>
        <time>2023-05-27T10:31:18Z</time>
      </trkpt>
      <trkpt lat="43.43172" lon="1.91921">
        <ele>232</ele>
        <time>2023-05-27T10:31:19Z</time>
      </trkpt>
      <trkpt lat="43.43171" lon="1.91924">
        <ele>232</ele>
        <time>2023-05-27T10:31:20Z</time>
      </trkpt>
      <trkpt lat="43.4317" lon="1.91927">
        <ele>232.2</ele>
        <time>2023-05-27T10:31:21Z</time>
      </trkpt>
      <trkpt lat="43.43169" lon="1.91929">
        <ele>232.2</ele>
        <time>2023-05-27T10:31:22Z</time>
      </trkpt>
      <trkpt lat="43.43168" lon="1.91932">
        <ele>232.2</ele>
        <time>2023-05-27T10:31:23Z</time>
      </trkpt>
      <trkpt lat="43.43167" lon="1.91934">
        <ele>232.2</ele>
        <time>2023-05-27T10:31:24Z</time>
      </trkpt>
      <trkpt lat="43.43166" lon="1.91937">
        <ele>232.2</ele>
        <time>2023-05-27T10:31:25Z</time>
      </trkpt>
      <trkpt lat="43.43165" lon="1.9194">
        <ele>232.2</ele>
        <time>2023-05-27T10:31:26Z</time>
      </trkpt>
      <trkpt lat="43.43163" lon="1.91942">
        <ele>232.2</ele>
        <time>2023-05-27T10:31:27Z</time>
      </trkpt>
      <trkpt lat="43.4316" lon="1.91944">
        <ele>232.2</ele>
        <time>2023-05-27T10:31:28Z</time>
      </trkpt>
      <trkpt lat="43.43158" lon="1.91946">
        <ele>232.2</ele>
        <time>2023-05-27T10:31:29Z</time>
      </trkpt>
      <trkpt lat="43.43154" lon="1.91948">
        <ele>232.2</ele>
        <time>2023-05-27T10:31:30Z</time>
      </trkpt>
      <trkpt lat="43.4315" lon="1.9195">
        <ele>232</ele>
        <time>2023-05-27T10:31:31Z</time>
      </trkpt>
      <trkpt lat="43.43147" lon="1.91954">
        <ele>232</ele>
        <time>2023-05-27T10:31:32Z</time>
      </trkpt>
      <trkpt lat="43.43145" lon="1.91958">
        <ele>232</ele>
        <time>2023-05-27T10:31:33Z</time>
      </trkpt>
      <trkpt lat="43.43142" lon="1.91961">
        <ele>231.8</ele>
        <time>2023-05-27T10:31:34Z</time>
      </trkpt>
      <trkpt lat="43.4314" lon="1.91965">
        <ele>231.8</ele>
        <time>2023-05-27T10:31:35Z</time>
      </trkpt>
      <trkpt lat="43.43137" lon="1.91968">
        <ele>231.8</ele>
        <time>2023-05-27T10:31:36Z</time>
      </trkpt>
      <trkpt lat="43.43135" lon="1.91971">
        <ele>231.8</ele>
        <time>2023-05-27T10:31:37Z</time>
      </trkpt>
      <trkpt lat="43.43133" lon="1.91975">
        <ele>231.8</ele>
        <time>2023-05-27T10:31:38Z</time>
      </trkpt>
      <trkpt lat="43.43132" lon="1.91979">
        <ele>231.8</ele>
        <time>2023-05-27T10:31:39Z</time>
      </trkpt>
      <trkpt lat="43.4313" lon="1.91983">
        <ele>231.8</ele>
        <time>2023-05-27T10:31:40Z</time>
      </trkpt>
      <trkpt lat="43.43129" lon="1.91986">
        <ele>231.8</ele>
        <time>2023-05-27T10:31:41Z</time>
      </trkpt>
      <trkpt lat="43.43127" lon="1.9199">
        <ele>231.8</ele>
        <time>2023-05-27T10:31:42Z</time>
      </trkpt>
      <trkpt lat="43.43126" lon="1.91993">
        <ele>231.8</ele>
        <time>2023-05-27T10:31:43Z</time>
      </trkpt>
      <trkpt lat="43.43125" lon="1.91996">
        <ele>231.8</ele>
        <time>2023-05-27T10:31:44Z</time>
      </trkpt>
      <trkpt lat="43.43124" lon="1.91999">
        <ele>232</ele>
        <time>2023-05-27T10:31:45Z</time>
      </trkpt>
      <trkpt lat="43.43123" lon="1.92001">
        <ele>232</ele>
        <time>2023-05-27T10:31:46Z</time>
      </trkpt>
      <trkpt lat="43.43121" lon="1.92006">
        <ele>232</ele>
        <time>2023-05-27T10:31:47Z</time>
      </trkpt>
      <trkpt lat="43.43118" lon="1.92011">
        <ele>232</ele>
        <time>2023-05-27T10:31:48Z</time>
      </trkpt>
      <trkpt lat="43.43117" lon="1.92015">
        <ele>232.2</ele>
        <time>2023-05-27T10:31:49Z</time>
      </trkpt>
      <trkpt lat="43.43116" lon="1.92019">
        <ele>232.2</ele>
        <time>2023-05-27T10:31:50Z</time>
      </trkpt>
      <trkpt lat="43.43115" lon="1.92023">
        <ele>232.2</ele>
        <time>2023-05-27T10:31:51Z</time>
      </trkpt>
      <trkpt lat="43.43113" lon="1.92028">
        <ele>232.2</ele>
        <time>2023-05-27T10:31:52Z</time>
      </trkpt>
      <trkpt lat="43.43112" lon="1.92033">
        <ele>232.2</ele>
        <time>2023-05-27T10:31:53Z</time>
      </trkpt>
      <trkpt lat="43.4311" lon="1.92039">
        <ele>232</ele>
        <time>2023-05-27T10:31:54Z</time>
      </trkpt>
      <trkpt lat="43.43109" lon="1.92045">
        <ele>232</ele>
        <time>2023-05-27T10:31:55Z</time>
      </trkpt>
      <trkpt lat="43.43108" lon="1.92051">
        <ele>232.2</ele>
        <time>2023-05-27T10:31:56Z</time>
      </trkpt>
      <trkpt lat="43.43106" lon="1.92058">
        <ele>232</ele>
        <time>2023-05-27T10:31:57Z</time>
      </trkpt>
      <trkpt lat="43.43106" lon="1.92064">
        <ele>232</ele>
        <time>2023-05-27T10:31:58Z</time>
      </trkpt>
      <trkpt lat="43.43106" lon="1.9207">
        <ele>232</ele>
        <time>2023-05-27T10:31:59Z</time>
      </trkpt>
      <trkpt lat="43.43104" lon="1.92077">
        <ele>232</ele>
        <time>2023-05-27T10:32:00Z</time>
      </trkpt>
      <trkpt lat="43.43102" lon="1.92083">
        <ele>232</ele>
        <time>2023-05-27T10:32:01Z</time>
      </trkpt>
      <trkpt lat="43.431" lon="1.92088">
        <ele>232</ele>
        <time>2023-05-27T10:32:02Z</time>
      </trkpt>
      <trkpt lat="43.43096" lon="1.92096">
        <ele>232</ele>
        <time>2023-05-27T10:32:03Z</time>
      </trkpt>
      <trkpt lat="43.43094" lon="1.921">
        <ele>231.8</ele>
        <time>2023-05-27T10:32:04Z</time>
      </trkpt>
      <trkpt lat="43.43092" lon="1.92105">
        <ele>231.8</ele>
        <time>2023-05-27T10:32:05Z</time>
      </trkpt>
      <trkpt lat="43.4309" lon="1.9211">
        <ele>231.8</ele>
        <time>2023-05-27T10:32:06Z</time>
      </trkpt>
      <trkpt lat="43.43087" lon="1.92115">
        <ele>232</ele>
        <time>2023-05-27T10:32:07Z</time>
      </trkpt>
      <trkpt lat="43.43084" lon="1.92119">
        <ele>232</ele>
        <time>2023-05-27T10:32:08Z</time>
      </trkpt>
      <trkpt lat="43.43082" lon="1.92122">
        <ele>232</ele>
        <time>2023-05-27T10:32:09Z</time>
      </trkpt>
      <trkpt lat="43.4308" lon="1.92124">
        <ele>232</ele>
        <time>2023-05-27T10:32:10Z</time>
      </trkpt>
      <trkpt lat="43.43078" lon="1.92128">
        <ele>232</ele>
        <time>2023-05-27T10:32:11Z</time>
      </trkpt>
      <trkpt lat="43.43075" lon="1.92131">
        <ele>232.2</ele>
        <time>2023-05-27T10:32:12Z</time>
      </trkpt>
      <trkpt lat="43.43072" lon="1.92134">
        <ele>232.2</ele>
        <time>2023-05-27T10:32:13Z</time>
      </trkpt>
      <trkpt lat="43.43068" lon="1.92138">
        <ele>232.2</ele>
        <time>2023-05-27T10:32:14Z</time>
      </trkpt>
      <trkpt lat="43.43066" lon="1.92141">
        <ele>232.2</ele>
        <time>2023-05-27T10:32:15Z</time>
      </trkpt>
      <trkpt lat="43.43064" lon="1.92143">
        <ele>232.2</ele>
        <time>2023-05-27T10:32:16Z</time>
      </trkpt>
      <trkpt lat="43.43062" lon="1.92145">
        <ele>232.2</ele>
        <time>2023-05-27T10:32:17Z</time>
      </trkpt>
      <trkpt lat="43.4306" lon="1.92147">
        <ele>232.4</ele>
        <time>2023-05-27T10:32:18Z</time>
      </trkpt>
      <trkpt lat="43.43058" lon="1.92149">
        <ele>232.4</ele>
        <time>2023-05-27T10:32:19Z</time>
      </trkpt>
      <trkpt lat="43.43056" lon="1.92152">
        <ele>232.4</ele>
        <time>2023-05-27T10:32:20Z</time>
      </trkpt>
      <trkpt lat="43.43054" lon="1.92155">
        <ele>232.4</ele>
        <time>2023-05-27T10:32:21Z</time>
      </trkpt>
      <trkpt lat="43.43052" lon="1.92158">
        <ele>232.4</ele>
        <time>2023-05-27T10:32:22Z</time>
      </trkpt>
      <trkpt lat="43.43051" lon="1.9216">
        <ele>232.4</ele>
        <time>2023-05-27T10:32:23Z</time>
      </trkpt>
      <trkpt lat="43.4305" lon="1.92163">
        <ele>232.4</ele>
        <time>2023-05-27T10:32:24Z</time>
      </trkpt>
      <trkpt lat="43.43048" lon="1.92166">
        <ele>232.4</ele>
        <time>2023-05-27T10:32:25Z</time>
      </trkpt>
      <trkpt lat="43.43044" lon="1.92169">
        <ele>232.4</ele>
        <time>2023-05-27T10:32:26Z</time>
      </trkpt>
      <trkpt lat="43.43041" lon="1.92173">
        <ele>232.4</ele>
        <time>2023-05-27T10:32:27Z</time>
      </trkpt>
      <trkpt lat="43.43038" lon="1.92177">
        <ele>232.4</ele>
        <time>2023-05-27T10:32:28Z</time>
      </trkpt>
      <trkpt lat="43.43036" lon="1.9218">
        <ele>232.4</ele>
        <time>2023-05-27T10:32:29Z</time>
      </trkpt>
      <trkpt lat="43.43033" lon="1.92183">
        <ele>232.4</ele>
        <time>2023-05-27T10:32:30Z</time>
      </trkpt>
      <trkpt lat="43.43031" lon="1.92186">
        <ele>232.4</ele>
        <time>2023-05-27T10:32:31Z</time>
      </trkpt>
      <trkpt lat="43.43029" lon="1.92188">
        <ele>232.4</ele>
        <time>2023-05-27T10:32:32Z</time>
      </trkpt>
      <trkpt lat="43.43026" lon="1.92191">
        <ele>232.4</ele>
        <time>2023-05-27T10:32:33Z</time>
      </trkpt>
      <trkpt lat="43.43022" lon="1.92196">
        <ele>232.4</ele>
        <time>2023-05-27T10:32:34Z</time>
      </trkpt>
      <trkpt lat="43.43018" lon="1.922">
        <ele>232.6</ele>
        <time>2023-05-27T10:32:35Z</time>
      </trkpt>
      <trkpt lat="43.43016" lon="1.92204">
        <ele>232.6</ele>
        <time>2023-05-27T10:32:36Z</time>
      </trkpt>
      <trkpt lat="43.43013" lon="1.92207">
        <ele>232.6</ele>
        <time>2023-05-27T10:32:37Z</time>
      </trkpt>
      <trkpt lat="43.4301" lon="1.92211">
        <ele>232.6</ele>
        <time>2023-05-27T10:32:38Z</time>
      </trkpt>
      <trkpt lat="43.43007" lon="1.92215">
        <ele>232.6</ele>
        <time>2023-05-27T10:32:39Z</time>
      </trkpt>
      <trkpt lat="43.43004" lon="1.92218">
        <ele>232.6</ele>
        <time>2023-05-27T10:32:40Z</time>
      </trkpt>
      <trkpt lat="43.43001" lon="1.92223">
        <ele>232.8</ele>
        <time>2023-05-27T10:32:41Z</time>
      </trkpt>
      <trkpt lat="43.42999" lon="1.92227">
        <ele>232.8</ele>
        <time>2023-05-27T10:32:42Z</time>
      </trkpt>
      <trkpt lat="43.42996" lon="1.92231">
        <ele>232.8</ele>
        <time>2023-05-27T10:32:43Z</time>
      </trkpt>
      <trkpt lat="43.42993" lon="1.92235">
        <ele>232.8</ele>
        <time>2023-05-27T10:32:44Z</time>
      </trkpt>
      <trkpt lat="43.42989" lon="1.9224">
        <ele>232.8</ele>
        <time>2023-05-27T10:32:45Z</time>
      </trkpt>
      <trkpt lat="43.42985" lon="1.92246">
        <ele>232.8</ele>
        <time>2023-05-27T10:32:46Z</time>
      </trkpt>
      <trkpt lat="43.42982" lon="1.92251">
        <ele>232.8</ele>
        <time>2023-05-27T10:32:47Z</time>
      </trkpt>
      <trkpt lat="43.42979" lon="1.92255">
        <ele>232.8</ele>
        <time>2023-05-27T10:32:48Z</time>
      </trkpt>
      <trkpt lat="43.42977" lon="1.92258">
        <ele>232.8</ele>
        <time>2023-05-27T10:32:49Z</time>
      </trkpt>
      <trkpt lat="43.42973" lon="1.92264">
        <ele>232.8</ele>
        <time>2023-05-27T10:32:50Z</time>
      </trkpt>
      <trkpt lat="43.42967" lon="1.9227">
        <ele>232.8</ele>
        <time>2023-05-27T10:32:51Z</time>
      </trkpt>
      <trkpt lat="43.42963" lon="1.92277">
        <ele>232.8</ele>
        <time>2023-05-27T10:32:52Z</time>
      </trkpt>
      <trkpt lat="43.42962" lon="1.92283">
        <ele>232.8</ele>
        <time>2023-05-27T10:32:53Z</time>
      </trkpt>
      <trkpt lat="43.42962" lon="1.92289">
        <ele>232.8</ele>
        <time>2023-05-27T10:32:54Z</time>
      </trkpt>
      <trkpt lat="43.42962" lon="1.92293">
        <ele>232.8</ele>
        <time>2023-05-27T10:32:55Z</time>
      </trkpt>
      <trkpt lat="43.42964" lon="1.92297">
        <ele>232.8</ele>
        <time>2023-05-27T10:32:56Z</time>
      </trkpt>
      <trkpt lat="43.42965" lon="1.92301">
        <ele>232.8</ele>
        <time>2023-05-27T10:32:57Z</time>
      </trkpt>
      <trkpt lat="43.42965" lon="1.92305">
        <ele>232.8</ele>
        <time>2023-05-27T10:32:58Z</time>
      </trkpt>
      <trkpt lat="43.42964" lon="1.92308">
        <ele>232.8</ele>
        <time>2023-05-27T10:32:59Z</time>
      </trkpt>
      <trkpt lat="43.42961" lon="1.92312">
        <ele>232.8</ele>
        <time>2023-05-27T10:33:00Z</time>
      </trkpt>
      <trkpt lat="43.42958" lon="1.92316">
        <ele>232.8</ele>
        <time>2023-05-27T10:33:01Z</time>
      </trkpt>
      <trkpt lat="43.42954" lon="1.92324">
        <ele>232.8</ele>
        <time>2023-05-27T10:33:02Z</time>
      </trkpt>
      <trkpt lat="43.42949" lon="1.92333">
        <ele>233</ele>
        <time>2023-05-27T10:33:03Z</time>
      </trkpt>
      <trkpt lat="43.42946" lon="1.9234">
        <ele>233</ele>
        <time>2023-05-27T10:33:04Z</time>
      </trkpt>
      <trkpt lat="43.42941" lon="1.92347">
        <ele>233</ele>
        <time>2023-05-27T10:33:05Z</time>
      </trkpt>
      <trkpt lat="43.42938" lon="1.92351">
        <ele>233</ele>
        <time>2023-05-27T10:33:06Z</time>
      </trkpt>
      <trkpt lat="43.42935" lon="1.92355">
        <ele>233</ele>
        <time>2023-05-27T10:33:07Z</time>
      </trkpt>
      <trkpt lat="43.42932" lon="1.92358">
        <ele>233</ele>
        <time>2023-05-27T10:33:08Z</time>
      </trkpt>
      <trkpt lat="43.4293" lon="1.92362">
        <ele>233</ele>
        <time>2023-05-27T10:33:09Z</time>
      </trkpt>
      <trkpt lat="43.4293" lon="1.92368">
        <ele>233</ele>
        <time>2023-05-27T10:33:10Z</time>
      </trkpt>
      <trkpt lat="43.42929" lon="1.92374">
        <ele>233</ele>
        <time>2023-05-27T10:33:11Z</time>
      </trkpt>
      <trkpt lat="43.42927" lon="1.92381">
        <ele>233</ele>
        <time>2023-05-27T10:33:12Z</time>
      </trkpt>
      <trkpt lat="43.42924" lon="1.92387">
        <ele>233</ele>
        <time>2023-05-27T10:33:13Z</time>
      </trkpt>
      <trkpt lat="43.42926" lon="1.92392">
        <ele>232.8</ele>
        <time>2023-05-27T10:33:14Z</time>
      </trkpt>
      <trkpt lat="43.42928" lon="1.92398">
        <ele>232.8</ele>
        <time>2023-05-27T10:33:15Z</time>
      </trkpt>
      <trkpt lat="43.42927" lon="1.92404">
        <ele>232.8</ele>
        <time>2023-05-27T10:33:16Z</time>
      </trkpt>
      <trkpt lat="43.42927" lon="1.92408">
        <ele>232.8</ele>
        <time>2023-05-27T10:33:17Z</time>
      </trkpt>
      <trkpt lat="43.42926" lon="1.92411">
        <ele>232.8</ele>
        <time>2023-05-27T10:33:18Z</time>
      </trkpt>
      <trkpt lat="43.42926" lon="1.92414">
        <ele>232.8</ele>
        <time>2023-05-27T10:33:19Z</time>
      </trkpt>
      <trkpt lat="43.42924" lon="1.92418">
        <ele>232.8</ele>
        <time>2023-05-27T10:33:20Z</time>
      </trkpt>
      <trkpt lat="43.42923" lon="1.92422">
        <ele>232.8</ele>
        <time>2023-05-27T10:33:21Z</time>
      </trkpt>
      <trkpt lat="43.42922" lon="1.92426">
        <ele>232.8</ele>
        <time>2023-05-27T10:33:22Z</time>
      </trkpt>
      <trkpt lat="43.4292" lon="1.9243">
        <ele>233</ele>
        <time>2023-05-27T10:33:23Z</time>
      </trkpt>
      <trkpt lat="43.42918" lon="1.92435">
        <ele>233</ele>
        <time>2023-05-27T10:33:24Z</time>
      </trkpt>
      <trkpt lat="43.42916" lon="1.92442">
        <ele>233</ele>
        <time>2023-05-27T10:33:25Z</time>
      </trkpt>
      <trkpt lat="43.42914" lon="1.92447">
        <ele>233</ele>
        <time>2023-05-27T10:33:26Z</time>
      </trkpt>
      <trkpt lat="43.42913" lon="1.9245">
        <ele>233</ele>
        <time>2023-05-27T10:33:27Z</time>
      </trkpt>
      <trkpt lat="43.42911" lon="1.92454">
        <ele>233.2</ele>
        <time>2023-05-27T10:33:28Z</time>
      </trkpt>
      <trkpt lat="43.4291" lon="1.92458">
        <ele>233.2</ele>
        <time>2023-05-27T10:33:29Z</time>
      </trkpt>
      <trkpt lat="43.4291" lon="1.9246">
        <ele>233.2</ele>
        <time>2023-05-27T10:33:30Z</time>
      </trkpt>
      <trkpt lat="43.4291" lon="1.92464">
        <ele>233.2</ele>
        <time>2023-05-27T10:33:31Z</time>
      </trkpt>
      <trkpt lat="43.42908" lon="1.92469">
        <ele>233.4</ele>
        <time>2023-05-27T10:33:32Z</time>
      </trkpt>
      <trkpt lat="43.42908" lon="1.92473">
        <ele>233.4</ele>
        <time>2023-05-27T10:33:33Z</time>
      </trkpt>
      <trkpt lat="43.42908" lon="1.92476">
        <ele>233.4</ele>
        <time>2023-05-27T10:33:34Z</time>
      </trkpt>
      <trkpt lat="43.42906" lon="1.9248">
        <ele>233.4</ele>
        <time>2023-05-27T10:33:35Z</time>
      </trkpt>
      <trkpt lat="43.42904" lon="1.92484">
        <ele>233.4</ele>
        <time>2023-05-27T10:33:36Z</time>
      </trkpt>
      <trkpt lat="43.42903" lon="1.92489">
        <ele>233.4</ele>
        <time>2023-05-27T10:33:37Z</time>
      </trkpt>
      <trkpt lat="43.42901" lon="1.92492">
        <ele>233.4</ele>
        <time>2023-05-27T10:33:38Z</time>
      </trkpt>
      <trkpt lat="43.42899" lon="1.92498">
        <ele>233.6</ele>
        <time>2023-05-27T10:33:39Z</time>
      </trkpt>
      <trkpt lat="43.42897" lon="1.92504">
        <ele>233.6</ele>
        <time>2023-05-27T10:33:40Z</time>
      </trkpt>
      <trkpt lat="43.42896" lon="1.92509">
        <ele>233.6</ele>
        <time>2023-05-27T10:33:41Z</time>
      </trkpt>
      <trkpt lat="43.42894" lon="1.92513">
        <ele>233.6</ele>
        <time>2023-05-27T10:33:42Z</time>
      </trkpt>
      <trkpt lat="43.42895" lon="1.92515">
        <ele>233.6</ele>
        <time>2023-05-27T10:33:43Z</time>
      </trkpt>
      <trkpt lat="43.42894" lon="1.92518">
        <ele>233.6</ele>
        <time>2023-05-27T10:33:44Z</time>
      </trkpt>
      <trkpt lat="43.42894" lon="1.92521">
        <ele>233.6</ele>
        <time>2023-05-27T10:33:45Z</time>
      </trkpt>
      <trkpt lat="43.42894" lon="1.92524">
        <ele>233.6</ele>
        <time>2023-05-27T10:33:46Z</time>
      </trkpt>
      <trkpt lat="43.42892" lon="1.92529">
        <ele>233.6</ele>
        <time>2023-05-27T10:33:47Z</time>
      </trkpt>
      <trkpt lat="43.42889" lon="1.92535">
        <ele>233.6</ele>
        <time>2023-05-27T10:33:48Z</time>
      </trkpt>
      <trkpt lat="43.42887" lon="1.92542">
        <ele>233.6</ele>
        <time>2023-05-27T10:33:49Z</time>
      </trkpt>
      <trkpt lat="43.42885" lon="1.92548">
        <ele>233.6</ele>
        <time>2023-05-27T10:33:50Z</time>
      </trkpt>
      <trkpt lat="43.42883" lon="1.92554">
        <ele>233.6</ele>
        <time>2023-05-27T10:33:51Z</time>
      </trkpt>
      <trkpt lat="43.4288" lon="1.92558">
        <ele>233.6</ele>
        <time>2023-05-27T10:33:52Z</time>
      </trkpt>
      <trkpt lat="43.42877" lon="1.92563">
        <ele>233.6</ele>
        <time>2023-05-27T10:33:53Z</time>
      </trkpt>
      <trkpt lat="43.42875" lon="1.92566">
        <ele>233.6</ele>
        <time>2023-05-27T10:33:54Z</time>
      </trkpt>
      <trkpt lat="43.42874" lon="1.92573">
        <ele>233.6</ele>
        <time>2023-05-27T10:33:55Z</time>
      </trkpt>
      <trkpt lat="43.42874" lon="1.92578">
        <ele>233.6</ele>
        <time>2023-05-27T10:33:56Z</time>
      </trkpt>
      <trkpt lat="43.42875" lon="1.92582">
        <ele>233.6</ele>
        <time>2023-05-27T10:33:57Z</time>
      </trkpt>
      <trkpt lat="43.42873" lon="1.92586">
        <ele>233.6</ele>
        <time>2023-05-27T10:33:58Z</time>
      </trkpt>
      <trkpt lat="43.42872" lon="1.9259">
        <ele>233.8</ele>
        <time>2023-05-27T10:33:59Z</time>
      </trkpt>
      <trkpt lat="43.42873" lon="1.92593">
        <ele>233.8</ele>
        <time>2023-05-27T10:34:00Z</time>
      </trkpt>
      <trkpt lat="43.42873" lon="1.92596">
        <ele>233.8</ele>
        <time>2023-05-27T10:34:01Z</time>
      </trkpt>
      <trkpt lat="43.42872" lon="1.926">
        <ele>234</ele>
        <time>2023-05-27T10:34:02Z</time>
      </trkpt>
      <trkpt lat="43.4287" lon="1.92606">
        <ele>234</ele>
        <time>2023-05-27T10:34:03Z</time>
      </trkpt>
      <trkpt lat="43.42867" lon="1.92612">
        <ele>234</ele>
        <time>2023-05-27T10:34:04Z</time>
      </trkpt>
      <trkpt lat="43.42866" lon="1.92615">
        <ele>234</ele>
        <time>2023-05-27T10:34:05Z</time>
      </trkpt>
      <trkpt lat="43.42866" lon="1.92618">
        <ele>234.2</ele>
        <time>2023-05-27T10:34:06Z</time>
      </trkpt>
      <trkpt lat="43.42866" lon="1.92623">
        <ele>234.2</ele>
        <time>2023-05-27T10:34:07Z</time>
      </trkpt>
      <trkpt lat="43.42866" lon="1.92627">
        <ele>234.2</ele>
        <time>2023-05-27T10:34:08Z</time>
      </trkpt>
      <trkpt lat="43.42864" lon="1.92632">
        <ele>234.2</ele>
        <time>2023-05-27T10:34:09Z</time>
      </trkpt>
      <trkpt lat="43.42862" lon="1.92636">
        <ele>234.2</ele>
        <time>2023-05-27T10:34:10Z</time>
      </trkpt>
      <trkpt lat="43.42861" lon="1.9264">
        <ele>234.2</ele>
        <time>2023-05-27T10:34:11Z</time>
      </trkpt>
      <trkpt lat="43.42862" lon="1.92645">
        <ele>234.2</ele>
        <time>2023-05-27T10:34:12Z</time>
      </trkpt>
      <trkpt lat="43.42863" lon="1.9265">
        <ele>234.2</ele>
        <time>2023-05-27T10:34:13Z</time>
      </trkpt>
      <trkpt lat="43.42863" lon="1.92655">
        <ele>234.2</ele>
        <time>2023-05-27T10:34:14Z</time>
      </trkpt>
      <trkpt lat="43.42864" lon="1.9266">
        <ele>234.2</ele>
        <time>2023-05-27T10:34:15Z</time>
      </trkpt>
      <trkpt lat="43.42864" lon="1.92666">
        <ele>234.4</ele>
        <time>2023-05-27T10:34:16Z</time>
      </trkpt>
      <trkpt lat="43.42862" lon="1.9267">
        <ele>234.4</ele>
        <time>2023-05-27T10:34:17Z</time>
      </trkpt>
      <trkpt lat="43.42861" lon="1.92674">
        <ele>234.4</ele>
        <time>2023-05-27T10:34:18Z</time>
      </trkpt>
      <trkpt lat="43.42861" lon="1.92678">
        <ele>234.4</ele>
        <time>2023-05-27T10:34:19Z</time>
      </trkpt>
      <trkpt lat="43.42859" lon="1.92684">
        <ele>234.4</ele>
        <time>2023-05-27T10:34:20Z</time>
      </trkpt>
      <trkpt lat="43.4286" lon="1.92689">
        <ele>234.4</ele>
        <time>2023-05-27T10:34:21Z</time>
      </trkpt>
      <trkpt lat="43.42861" lon="1.92696">
        <ele>234.4</ele>
        <time>2023-05-27T10:34:22Z</time>
      </trkpt>
      <trkpt lat="43.42861" lon="1.92703">
        <ele>234.4</ele>
        <time>2023-05-27T10:34:23Z</time>
      </trkpt>
      <trkpt lat="43.42862" lon="1.92709">
        <ele>234.4</ele>
        <time>2023-05-27T10:34:24Z</time>
      </trkpt>
      <trkpt lat="43.42863" lon="1.92715">
        <ele>234.4</ele>
        <time>2023-05-27T10:34:25Z</time>
      </trkpt>
      <trkpt lat="43.42863" lon="1.92719">
        <ele>234.4</ele>
        <time>2023-05-27T10:34:26Z</time>
      </trkpt>
      <trkpt lat="43.42864" lon="1.92724">
        <ele>234.4</ele>
        <time>2023-05-27T10:34:27Z</time>
      </trkpt>
      <trkpt lat="43.42867" lon="1.92727">
        <ele>234.4</ele>
        <time>2023-05-27T10:34:28Z</time>
      </trkpt>
      <trkpt lat="43.42869" lon="1.92731">
        <ele>234.4</ele>
        <time>2023-05-27T10:34:29Z</time>
      </trkpt>
      <trkpt lat="43.42871" lon="1.92736">
        <ele>234.2</ele>
        <time>2023-05-27T10:34:30Z</time>
      </trkpt>
      <trkpt lat="43.42873" lon="1.92739">
        <ele>234.2</ele>
        <time>2023-05-27T10:34:31Z</time>
      </trkpt>
      <trkpt lat="43.42875" lon="1.92744">
        <ele>234.2</ele>
        <time>2023-05-27T10:34:32Z</time>
      </trkpt>
      <trkpt lat="43.42878" lon="1.92746">
        <ele>234.2</ele>
        <time>2023-05-27T10:34:33Z</time>
      </trkpt>
      <trkpt lat="43.42881" lon="1.92748">
        <ele>234.2</ele>
        <time>2023-05-27T10:34:34Z</time>
      </trkpt>
      <trkpt lat="43.42884" lon="1.9275">
        <ele>234.2</ele>
        <time>2023-05-27T10:34:35Z</time>
      </trkpt>
      <trkpt lat="43.42887" lon="1.92751">
        <ele>234.2</ele>
        <time>2023-05-27T10:34:36Z</time>
      </trkpt>
      <trkpt lat="43.4289" lon="1.92751">
        <ele>234.2</ele>
        <time>2023-05-27T10:34:37Z</time>
      </trkpt>
      <trkpt lat="43.42894" lon="1.92751">
        <ele>234.2</ele>
        <time>2023-05-27T10:34:38Z</time>
      </trkpt>
      <trkpt lat="43.42896" lon="1.92749">
        <ele>234.4</ele>
        <time>2023-05-27T10:34:39Z</time>
      </trkpt>
      <trkpt lat="43.42899" lon="1.92746">
        <ele>234.2</ele>
        <time>2023-05-27T10:34:40Z</time>
      </trkpt>
      <trkpt lat="43.42903" lon="1.92743">
        <ele>234.2</ele>
        <time>2023-05-27T10:34:41Z</time>
      </trkpt>
      <trkpt lat="43.42906" lon="1.9274">
        <ele>234.2</ele>
        <time>2023-05-27T10:34:42Z</time>
      </trkpt>
      <trkpt lat="43.42908" lon="1.92737">
        <ele>234.2</ele>
        <time>2023-05-27T10:34:43Z</time>
      </trkpt>
      <trkpt lat="43.42911" lon="1.92734">
        <ele>234.2</ele>
        <time>2023-05-27T10:34:44Z</time>
      </trkpt>
      <trkpt lat="43.42914" lon="1.92731">
        <ele>234.2</ele>
        <time>2023-05-27T10:34:45Z</time>
      </trkpt>
      <trkpt lat="43.42917" lon="1.92728">
        <ele>234.2</ele>
        <time>2023-05-27T10:34:46Z</time>
      </trkpt>
      <trkpt lat="43.4292" lon="1.92725">
        <ele>234.2</ele>
        <time>2023-05-27T10:34:47Z</time>
      </trkpt>
      <trkpt lat="43.42922" lon="1.92721">
        <ele>234</ele>
        <time>2023-05-27T10:34:48Z</time>
      </trkpt>
      <trkpt lat="43.42925" lon="1.92718">
        <ele>234</ele>
        <time>2023-05-27T10:34:49Z</time>
      </trkpt>
      <trkpt lat="43.42927" lon="1.92715">
        <ele>234</ele>
        <time>2023-05-27T10:34:50Z</time>
      </trkpt>
      <trkpt lat="43.42929" lon="1.92712">
        <ele>234.2</ele>
        <time>2023-05-27T10:34:51Z</time>
      </trkpt>
      <trkpt lat="43.42931" lon="1.92709">
        <ele>234.2</ele>
        <time>2023-05-27T10:34:52Z</time>
      </trkpt>
      <trkpt lat="43.42932" lon="1.92707">
        <ele>234.2</ele>
        <time>2023-05-27T10:34:53Z</time>
      </trkpt>
      <trkpt lat="43.42934" lon="1.92705">
        <ele>234</ele>
        <time>2023-05-27T10:34:54Z</time>
      </trkpt>
      <trkpt lat="43.42938" lon="1.92701">
        <ele>234</ele>
        <time>2023-05-27T10:34:55Z</time>
      </trkpt>
      <trkpt lat="43.42941" lon="1.92696">
        <ele>234</ele>
        <time>2023-05-27T10:34:56Z</time>
      </trkpt>
      <trkpt lat="43.42944" lon="1.92692">
        <ele>234</ele>
        <time>2023-05-27T10:34:57Z</time>
      </trkpt>
      <trkpt lat="43.42946" lon="1.9269">
        <ele>234</ele>
        <time>2023-05-27T10:34:58Z</time>
      </trkpt>
      <trkpt lat="43.42949" lon="1.92687">
        <ele>234</ele>
        <time>2023-05-27T10:34:59Z</time>
      </trkpt>
      <trkpt lat="43.42951" lon="1.92684">
        <ele>234</ele>
        <time>2023-05-27T10:35:00Z</time>
      </trkpt>
      <trkpt lat="43.42953" lon="1.92682">
        <ele>234</ele>
        <time>2023-05-27T10:35:01Z</time>
      </trkpt>
      <trkpt lat="43.42956" lon="1.92679">
        <ele>234</ele>
        <time>2023-05-27T10:35:02Z</time>
      </trkpt>
      <trkpt lat="43.4296" lon="1.92675">
        <ele>234</ele>
        <time>2023-05-27T10:35:03Z</time>
      </trkpt>
      <trkpt lat="43.42964" lon="1.92672">
        <ele>234</ele>
        <time>2023-05-27T10:35:04Z</time>
      </trkpt>
      <trkpt lat="43.42966" lon="1.9267">
        <ele>234</ele>
        <time>2023-05-27T10:35:05Z</time>
      </trkpt>
      <trkpt lat="43.4297" lon="1.92666">
        <ele>234</ele>
        <time>2023-05-27T10:35:06Z</time>
      </trkpt>
      <trkpt lat="43.42974" lon="1.92662">
        <ele>234</ele>
        <time>2023-05-27T10:35:07Z</time>
      </trkpt>
      <trkpt lat="43.42977" lon="1.92658">
        <ele>234</ele>
        <time>2023-05-27T10:35:08Z</time>
      </trkpt>
      <trkpt lat="43.4298" lon="1.92656">
        <ele>234</ele>
        <time>2023-05-27T10:35:09Z</time>
      </trkpt>
      <trkpt lat="43.42984" lon="1.92654">
        <ele>234</ele>
        <time>2023-05-27T10:35:10Z</time>
      </trkpt>
      <trkpt lat="43.42987" lon="1.92651">
        <ele>234</ele>
        <time>2023-05-27T10:35:11Z</time>
      </trkpt>
      <trkpt lat="43.42991" lon="1.92649">
        <ele>234</ele>
        <time>2023-05-27T10:35:12Z</time>
      </trkpt>
      <trkpt lat="43.42995" lon="1.92645">
        <ele>234</ele>
        <time>2023-05-27T10:35:13Z</time>
      </trkpt>
      <trkpt lat="43.42997" lon="1.92642">
        <ele>234</ele>
        <time>2023-05-27T10:35:14Z</time>
      </trkpt>
      <trkpt lat="43.43" lon="1.92641">
        <ele>233.8</ele>
        <time>2023-05-27T10:35:15Z</time>
      </trkpt>
      <trkpt lat="43.43002" lon="1.9264">
        <ele>233.8</ele>
        <time>2023-05-27T10:35:16Z</time>
      </trkpt>
      <trkpt lat="43.43005" lon="1.92638">
        <ele>233.8</ele>
        <time>2023-05-27T10:35:17Z</time>
      </trkpt>
      <trkpt lat="43.43007" lon="1.92636">
        <ele>233.8</ele>
        <time>2023-05-27T10:35:18Z</time>
      </trkpt>
      <trkpt lat="43.4301" lon="1.92636">
        <ele>233.8</ele>
        <time>2023-05-27T10:35:19Z</time>
      </trkpt>
      <trkpt lat="43.43013" lon="1.92633">
        <ele>233.8</ele>
        <time>2023-05-27T10:35:20Z</time>
      </trkpt>
      <trkpt lat="43.43017" lon="1.92633">
        <ele>233.8</ele>
        <time>2023-05-27T10:35:21Z</time>
      </trkpt>
      <trkpt lat="43.4302" lon="1.92632">
        <ele>233.8</ele>
        <time>2023-05-27T10:35:22Z</time>
      </trkpt>
      <trkpt lat="43.43024" lon="1.92632">
        <ele>233.8</ele>
        <time>2023-05-27T10:35:23Z</time>
      </trkpt>
      <trkpt lat="43.43027" lon="1.92632">
        <ele>233.8</ele>
        <time>2023-05-27T10:35:24Z</time>
      </trkpt>
      <trkpt lat="43.43031" lon="1.92633">
        <ele>233.8</ele>
        <time>2023-05-27T10:35:25Z</time>
      </trkpt>
      <trkpt lat="43.43035" lon="1.92632">
        <ele>233.6</ele>
        <time>2023-05-27T10:35:26Z</time>
      </trkpt>
      <trkpt lat="43.43039" lon="1.92632">
        <ele>233.6</ele>
        <time>2023-05-27T10:35:27Z</time>
      </trkpt>
      <trkpt lat="43.43042" lon="1.92633">
        <ele>233.6</ele>
        <time>2023-05-27T10:35:28Z</time>
      </trkpt>
      <trkpt lat="43.43046" lon="1.92635">
        <ele>233.6</ele>
        <time>2023-05-27T10:35:29Z</time>
      </trkpt>
      <trkpt lat="43.43048" lon="1.92639">
        <ele>233.6</ele>
        <time>2023-05-27T10:35:30Z</time>
      </trkpt>
      <trkpt lat="43.43051" lon="1.92641">
        <ele>233.8</ele>
        <time>2023-05-27T10:35:31Z</time>
      </trkpt>
      <trkpt lat="43.43054" lon="1.92643">
        <ele>233.8</ele>
        <time>2023-05-27T10:35:32Z</time>
      </trkpt>
      <trkpt lat="43.43056" lon="1.92647">
        <ele>233.8</ele>
        <time>2023-05-27T10:35:33Z</time>
      </trkpt>
      <trkpt lat="43.43057" lon="1.9265">
        <ele>233.8</ele>
        <time>2023-05-27T10:35:34Z</time>
      </trkpt>
      <trkpt lat="43.43059" lon="1.92655">
        <ele>233.8</ele>
        <time>2023-05-27T10:35:35Z</time>
      </trkpt>
      <trkpt lat="43.4306" lon="1.92659">
        <ele>233.8</ele>
        <time>2023-05-27T10:35:36Z</time>
      </trkpt>
      <trkpt lat="43.4306" lon="1.92663">
        <ele>233.8</ele>
        <time>2023-05-27T10:35:37Z</time>
      </trkpt>
      <trkpt lat="43.43059" lon="1.92667">
        <ele>233.8</ele>
        <time>2023-05-27T10:35:38Z</time>
      </trkpt>
      <trkpt lat="43.43057" lon="1.9267">
        <ele>233.8</ele>
        <time>2023-05-27T10:35:39Z</time>
      </trkpt>
      <trkpt lat="43.43056" lon="1.92673">
        <ele>234</ele>
        <time>2023-05-27T10:35:40Z</time>
      </trkpt>
      <trkpt lat="43.43054" lon="1.92675">
        <ele>234</ele>
        <time>2023-05-27T10:35:41Z</time>
      </trkpt>
      <trkpt lat="43.43053" lon="1.92677">
        <ele>234</ele>
        <time>2023-05-27T10:35:42Z</time>
      </trkpt>
      <trkpt lat="43.43053" lon="1.92679">
        <ele>234</ele>
        <time>2023-05-27T10:35:43Z</time>
      </trkpt>
      <trkpt lat="43.43052" lon="1.92681">
        <ele>234.2</ele>
        <time>2023-05-27T10:35:44Z</time>
      </trkpt>
      <trkpt lat="43.43052" lon="1.92683">
        <ele>234.2</ele>
        <time>2023-05-27T10:35:45Z</time>
      </trkpt>
      <trkpt lat="43.43052" lon="1.92686">
        <ele>234.2</ele>
        <time>2023-05-27T10:35:46Z</time>
      </trkpt>
      <trkpt lat="43.43052" lon="1.92688">
        <ele>234.2</ele>
        <time>2023-05-27T10:35:47Z</time>
      </trkpt>
      <trkpt lat="43.43052" lon="1.92691">
        <ele>234.2</ele>
        <time>2023-05-27T10:35:48Z</time>
      </trkpt>
      <trkpt lat="43.43051" lon="1.92694">
        <ele>234.2</ele>
        <time>2023-05-27T10:35:49Z</time>
      </trkpt>
      <trkpt lat="43.43051" lon="1.92698">
        <ele>234.2</ele>
        <time>2023-05-27T10:35:50Z</time>
      </trkpt>
      <trkpt lat="43.43052" lon="1.92702">
        <ele>234.4</ele>
        <time>2023-05-27T10:35:51Z</time>
      </trkpt>
      <trkpt lat="43.43051" lon="1.92705">
        <ele>234.4</ele>
        <time>2023-05-27T10:35:52Z</time>
      </trkpt>
      <trkpt lat="43.43051" lon="1.92708">
        <ele>234.4</ele>
        <time>2023-05-27T10:35:53Z</time>
      </trkpt>
      <trkpt lat="43.43052" lon="1.92711">
        <ele>234.4</ele>
        <time>2023-05-27T10:35:54Z</time>
      </trkpt>
      <trkpt lat="43.43053" lon="1.92715">
        <ele>234.4</ele>
        <time>2023-05-27T10:35:55Z</time>
      </trkpt>
      <trkpt lat="43.43054" lon="1.92719">
        <ele>234.6</ele>
        <time>2023-05-27T10:35:56Z</time>
      </trkpt>
      <trkpt lat="43.43054" lon="1.92723">
        <ele>234.6</ele>
        <time>2023-05-27T10:35:57Z</time>
      </trkpt>
      <trkpt lat="43.43054" lon="1.92725">
        <ele>234.6</ele>
        <time>2023-05-27T10:35:58Z</time>
      </trkpt>
      <trkpt lat="43.43055" lon="1.92729">
        <ele>234.6</ele>
        <time>2023-05-27T10:35:59Z</time>
      </trkpt>
      <trkpt lat="43.43055" lon="1.92732">
        <ele>234.8</ele>
        <time>2023-05-27T10:36:00Z</time>
      </trkpt>
      <trkpt lat="43.43056" lon="1.92736">
        <ele>234.8</ele>
        <time>2023-05-27T10:36:01Z</time>
      </trkpt>
      <trkpt lat="43.43057" lon="1.92742">
        <ele>234.8</ele>
        <time>2023-05-27T10:36:02Z</time>
      </trkpt>
      <trkpt lat="43.43058" lon="1.92747">
        <ele>234.8</ele>
        <time>2023-05-27T10:36:03Z</time>
      </trkpt>
      <trkpt lat="43.4306" lon="1.92752">
        <ele>235</ele>
        <time>2023-05-27T10:36:04Z</time>
      </trkpt>
      <trkpt lat="43.4306" lon="1.92757">
        <ele>235</ele>
        <time>2023-05-27T10:36:05Z</time>
      </trkpt>
      <trkpt lat="43.43061" lon="1.92761">
        <ele>235</ele>
        <time>2023-05-27T10:36:06Z</time>
      </trkpt>
      <trkpt lat="43.43061" lon="1.92763">
        <ele>235.2</ele>
        <time>2023-05-27T10:36:07Z</time>
      </trkpt>
      <trkpt lat="43.43061" lon="1.92767">
        <ele>235.2</ele>
        <time>2023-05-27T10:36:08Z</time>
      </trkpt>
      <trkpt lat="43.43061" lon="1.92772">
        <ele>235.2</ele>
        <time>2023-05-27T10:36:09Z</time>
      </trkpt>
      <trkpt lat="43.43061" lon="1.92778">
        <ele>235.2</ele>
        <time>2023-05-27T10:36:10Z</time>
      </trkpt>
      <trkpt lat="43.4306" lon="1.92783">
        <ele>235.4</ele>
        <time>2023-05-27T10:36:11Z</time>
      </trkpt>
      <trkpt lat="43.43059" lon="1.92787">
        <ele>235.4</ele>
        <time>2023-05-27T10:36:12Z</time>
      </trkpt>
      <trkpt lat="43.43058" lon="1.92791">
        <ele>235.4</ele>
        <time>2023-05-27T10:36:13Z</time>
      </trkpt>
      <trkpt lat="43.43057" lon="1.92795">
        <ele>235.4</ele>
        <time>2023-05-27T10:36:14Z</time>
      </trkpt>
      <trkpt lat="43.43057" lon="1.92799">
        <ele>235.4</ele>
        <time>2023-05-27T10:36:15Z</time>
      </trkpt>
      <trkpt lat="43.43055" lon="1.92804">
        <ele>235.4</ele>
        <time>2023-05-27T10:36:16Z</time>
      </trkpt>
      <trkpt lat="43.43054" lon="1.9281">
        <ele>235.4</ele>
        <time>2023-05-27T10:36:17Z</time>
      </trkpt>
      <trkpt lat="43.43053" lon="1.92815">
        <ele>235.4</ele>
        <time>2023-05-27T10:36:18Z</time>
      </trkpt>
      <trkpt lat="43.43052" lon="1.92819">
        <ele>235.4</ele>
        <time>2023-05-27T10:36:19Z</time>
      </trkpt>
      <trkpt lat="43.43051" lon="1.92824">
        <ele>235.4</ele>
        <time>2023-05-27T10:36:20Z</time>
      </trkpt>
      <trkpt lat="43.43051" lon="1.9283">
        <ele>235.4</ele>
        <time>2023-05-27T10:36:21Z</time>
      </trkpt>
      <trkpt lat="43.43049" lon="1.92835">
        <ele>235.4</ele>
        <time>2023-05-27T10:36:22Z</time>
      </trkpt>
      <trkpt lat="43.43047" lon="1.92838">
        <ele>235.4</ele>
        <time>2023-05-27T10:36:23Z</time>
      </trkpt>
      <trkpt lat="43.43046" lon="1.92842">
        <ele>235.2</ele>
        <time>2023-05-27T10:36:24Z</time>
      </trkpt>
      <trkpt lat="43.43046" lon="1.92846">
        <ele>235.2</ele>
        <time>2023-05-27T10:36:25Z</time>
      </trkpt>
      <trkpt lat="43.43043" lon="1.9285">
        <ele>235.2</ele>
        <time>2023-05-27T10:36:26Z</time>
      </trkpt>
      <trkpt lat="43.4304" lon="1.92856">
        <ele>235.2</ele>
        <time>2023-05-27T10:36:27Z</time>
      </trkpt>
      <trkpt lat="43.43038" lon="1.92861">
        <ele>235.2</ele>
        <time>2023-05-27T10:36:28Z</time>
      </trkpt>
      <trkpt lat="43.43035" lon="1.92866">
        <ele>235.2</ele>
        <time>2023-05-27T10:36:29Z</time>
      </trkpt>
      <trkpt lat="43.43032" lon="1.92869">
        <ele>235.2</ele>
        <time>2023-05-27T10:36:30Z</time>
      </trkpt>
      <trkpt lat="43.43028" lon="1.92874">
        <ele>235.2</ele>
        <time>2023-05-27T10:36:31Z</time>
      </trkpt>
      <trkpt lat="43.43026" lon="1.92877">
        <ele>235.2</ele>
        <time>2023-05-27T10:36:32Z</time>
      </trkpt>
      <trkpt lat="43.43023" lon="1.9288">
        <ele>235</ele>
        <time>2023-05-27T10:36:33Z</time>
      </trkpt>
      <trkpt lat="43.43021" lon="1.92885">
        <ele>235</ele>
        <time>2023-05-27T10:36:34Z</time>
      </trkpt>
      <trkpt lat="43.43018" lon="1.9289">
        <ele>235</ele>
        <time>2023-05-27T10:36:35Z</time>
      </trkpt>
      <trkpt lat="43.43015" lon="1.92894">
        <ele>235</ele>
        <time>2023-05-27T10:36:36Z</time>
      </trkpt>
      <trkpt lat="43.43012" lon="1.92896">
        <ele>235</ele>
        <time>2023-05-27T10:36:37Z</time>
      </trkpt>
      <trkpt lat="43.43009" lon="1.92899">
        <ele>235</ele>
        <time>2023-05-27T10:36:38Z</time>
      </trkpt>
      <trkpt lat="43.43006" lon="1.92903">
        <ele>235</ele>
        <time>2023-05-27T10:36:39Z</time>
      </trkpt>
      <trkpt lat="43.43004" lon="1.92908">
        <ele>235</ele>
        <time>2023-05-27T10:36:40Z</time>
      </trkpt>
      <trkpt lat="43.43003" lon="1.92913">
        <ele>235</ele>
        <time>2023-05-27T10:36:41Z</time>
      </trkpt>
      <trkpt lat="43.43001" lon="1.92918">
        <ele>235</ele>
        <time>2023-05-27T10:36:42Z</time>
      </trkpt>
      <trkpt lat="43.42997" lon="1.92923">
        <ele>234.8</ele>
        <time>2023-05-27T10:36:43Z</time>
      </trkpt>
      <trkpt lat="43.42993" lon="1.92928">
        <ele>234.8</ele>
        <time>2023-05-27T10:36:44Z</time>
      </trkpt>
      <trkpt lat="43.4299" lon="1.92932">
        <ele>234.8</ele>
        <time>2023-05-27T10:36:45Z</time>
      </trkpt>
      <trkpt lat="43.42987" lon="1.92937">
        <ele>234.8</ele>
        <time>2023-05-27T10:36:46Z</time>
      </trkpt>
      <trkpt lat="43.42983" lon="1.92941">
        <ele>234.6</ele>
        <time>2023-05-27T10:36:47Z</time>
      </trkpt>
      <trkpt lat="43.42979" lon="1.92946">
        <ele>234.6</ele>
        <time>2023-05-27T10:36:48Z</time>
      </trkpt>
      <trkpt lat="43.42975" lon="1.92952">
        <ele>234.6</ele>
        <time>2023-05-27T10:36:49Z</time>
      </trkpt>
      <trkpt lat="43.42972" lon="1.92957">
        <ele>234.6</ele>
        <time>2023-05-27T10:36:50Z</time>
      </trkpt>
      <trkpt lat="43.42969" lon="1.92961">
        <ele>234.4</ele>
        <time>2023-05-27T10:36:51Z</time>
      </trkpt>
      <trkpt lat="43.42967" lon="1.92966">
        <ele>234.4</ele>
        <time>2023-05-27T10:36:52Z</time>
      </trkpt>
      <trkpt lat="43.42965" lon="1.9297">
        <ele>234.4</ele>
        <time>2023-05-27T10:36:53Z</time>
      </trkpt>
      <trkpt lat="43.42962" lon="1.92975">
        <ele>234.4</ele>
        <time>2023-05-27T10:36:54Z</time>
      </trkpt>
      <trkpt lat="43.4296" lon="1.9298">
        <ele>234.2</ele>
        <time>2023-05-27T10:36:55Z</time>
      </trkpt>
      <trkpt lat="43.42958" lon="1.92984">
        <ele>234.2</ele>
        <time>2023-05-27T10:36:56Z</time>
      </trkpt>
      <trkpt lat="43.42955" lon="1.92988">
        <ele>234.2</ele>
        <time>2023-05-27T10:36:57Z</time>
      </trkpt>
      <trkpt lat="43.42952" lon="1.92992">
        <ele>234.2</ele>
        <time>2023-05-27T10:36:58Z</time>
      </trkpt>
      <trkpt lat="43.42949" lon="1.92996">
        <ele>234.2</ele>
        <time>2023-05-27T10:36:59Z</time>
      </trkpt>
      <trkpt lat="43.42948" lon="1.93">
        <ele>234.2</ele>
        <time>2023-05-27T10:37:00Z</time>
      </trkpt>
      <trkpt lat="43.42946" lon="1.93004">
        <ele>234.2</ele>
        <time>2023-05-27T10:37:01Z</time>
      </trkpt>
      <trkpt lat="43.42944" lon="1.93008">
        <ele>234.2</ele>
        <time>2023-05-27T10:37:02Z</time>
      </trkpt>
      <trkpt lat="43.42941" lon="1.93012">
        <ele>234.2</ele>
        <time>2023-05-27T10:37:03Z</time>
      </trkpt>
      <trkpt lat="43.42939" lon="1.93016">
        <ele>234.2</ele>
        <time>2023-05-27T10:37:04Z</time>
      </trkpt>
      <trkpt lat="43.42936" lon="1.93019">
        <ele>234.4</ele>
        <time>2023-05-27T10:37:05Z</time>
      </trkpt>
      <trkpt lat="43.42934" lon="1.93023">
        <ele>234.4</ele>
        <time>2023-05-27T10:37:06Z</time>
      </trkpt>
      <trkpt lat="43.42932" lon="1.93027">
        <ele>234.4</ele>
        <time>2023-05-27T10:37:07Z</time>
      </trkpt>
      <trkpt lat="43.4293" lon="1.9303">
        <ele>234.4</ele>
        <time>2023-05-27T10:37:08Z</time>
      </trkpt>
      <trkpt lat="43.42928" lon="1.93034">
        <ele>234.4</ele>
        <time>2023-05-27T10:37:09Z</time>
      </trkpt>
      <trkpt lat="43.42925" lon="1.93038">
        <ele>234.4</ele>
        <time>2023-05-27T10:37:10Z</time>
      </trkpt>
      <trkpt lat="43.42923" lon="1.93042">
        <ele>234.4</ele>
        <time>2023-05-27T10:37:11Z</time>
      </trkpt>
      <trkpt lat="43.4292" lon="1.93046">
        <ele>234.4</ele>
        <time>2023-05-27T10:37:12Z</time>
      </trkpt>
      <trkpt lat="43.42917" lon="1.9305">
        <ele>234.4</ele>
        <time>2023-05-27T10:37:13Z</time>
      </trkpt>
      <trkpt lat="43.42915" lon="1.93054">
        <ele>234.4</ele>
        <time>2023-05-27T10:37:14Z</time>
      </trkpt>
      <trkpt lat="43.42912" lon="1.93058">
        <ele>234.4</ele>
        <time>2023-05-27T10:37:15Z</time>
      </trkpt>
      <trkpt lat="43.4291" lon="1.93062">
        <ele>234.4</ele>
        <time>2023-05-27T10:37:16Z</time>
      </trkpt>
      <trkpt lat="43.42907" lon="1.93067">
        <ele>234.6</ele>
        <time>2023-05-27T10:37:17Z</time>
      </trkpt>
      <trkpt lat="43.42905" lon="1.93071">
        <ele>234.6</ele>
        <time>2023-05-27T10:37:18Z</time>
      </trkpt>
      <trkpt lat="43.42903" lon="1.93075">
        <ele>234.6</ele>
        <time>2023-05-27T10:37:19Z</time>
      </trkpt>
      <trkpt lat="43.42901" lon="1.93079">
        <ele>234.6</ele>
        <time>2023-05-27T10:37:20Z</time>
      </trkpt>
      <trkpt lat="43.42899" lon="1.93084">
        <ele>234.6</ele>
        <time>2023-05-27T10:37:21Z</time>
      </trkpt>
      <trkpt lat="43.42898" lon="1.93089">
        <ele>234.6</ele>
        <time>2023-05-27T10:37:22Z</time>
      </trkpt>
      <trkpt lat="43.42896" lon="1.93093">
        <ele>234.6</ele>
        <time>2023-05-27T10:37:23Z</time>
      </trkpt>
      <trkpt lat="43.42894" lon="1.93098">
        <ele>234.6</ele>
        <time>2023-05-27T10:37:24Z</time>
      </trkpt>
      <trkpt lat="43.42893" lon="1.93103">
        <ele>234.6</ele>
        <time>2023-05-27T10:37:25Z</time>
      </trkpt>
      <trkpt lat="43.42891" lon="1.93107">
        <ele>234.8</ele>
        <time>2023-05-27T10:37:26Z</time>
      </trkpt>
      <trkpt lat="43.42889" lon="1.93111">
        <ele>234.8</ele>
        <time>2023-05-27T10:37:27Z</time>
      </trkpt>
      <trkpt lat="43.42887" lon="1.93116">
        <ele>234.8</ele>
        <time>2023-05-27T10:37:28Z</time>
      </trkpt>
      <trkpt lat="43.42886" lon="1.93121">
        <ele>234.8</ele>
        <time>2023-05-27T10:37:29Z</time>
      </trkpt>
      <trkpt lat="43.42885" lon="1.93125">
        <ele>234.8</ele>
        <time>2023-05-27T10:37:30Z</time>
      </trkpt>
      <trkpt lat="43.42884" lon="1.9313">
        <ele>234.8</ele>
        <time>2023-05-27T10:37:31Z</time>
      </trkpt>
      <trkpt lat="43.42883" lon="1.93135">
        <ele>234.8</ele>
        <time>2023-05-27T10:37:32Z</time>
      </trkpt>
      <trkpt lat="43.42882" lon="1.9314">
        <ele>234.8</ele>
        <time>2023-05-27T10:37:33Z</time>
      </trkpt>
      <trkpt lat="43.42881" lon="1.93145">
        <ele>234.8</ele>
        <time>2023-05-27T10:37:34Z</time>
      </trkpt>
      <trkpt lat="43.42881" lon="1.9315">
        <ele>234.8</ele>
        <time>2023-05-27T10:37:35Z</time>
      </trkpt>
      <trkpt lat="43.42882" lon="1.93154">
        <ele>234.8</ele>
        <time>2023-05-27T10:37:36Z</time>
      </trkpt>
      <trkpt lat="43.42882" lon="1.93159">
        <ele>234.8</ele>
        <time>2023-05-27T10:37:37Z</time>
      </trkpt>
      <trkpt lat="43.42884" lon="1.93164">
        <ele>234.8</ele>
        <time>2023-05-27T10:37:38Z</time>
      </trkpt>
      <trkpt lat="43.42884" lon="1.93169">
        <ele>234.8</ele>
        <time>2023-05-27T10:37:39Z</time>
      </trkpt>
      <trkpt lat="43.42884" lon="1.93175">
        <ele>234.8</ele>
        <time>2023-05-27T10:37:40Z</time>
      </trkpt>
      <trkpt lat="43.42883" lon="1.93179">
        <ele>234.8</ele>
        <time>2023-05-27T10:37:41Z</time>
      </trkpt>
      <trkpt lat="43.42883" lon="1.93185">
        <ele>234.8</ele>
        <time>2023-05-27T10:37:42Z</time>
      </trkpt>
      <trkpt lat="43.42882" lon="1.9319">
        <ele>234.8</ele>
        <time>2023-05-27T10:37:43Z</time>
      </trkpt>
      <trkpt lat="43.42881" lon="1.93196">
        <ele>234.8</ele>
        <time>2023-05-27T10:37:44Z</time>
      </trkpt>
      <trkpt lat="43.42879" lon="1.93202">
        <ele>234.8</ele>
        <time>2023-05-27T10:37:45Z</time>
      </trkpt>
      <trkpt lat="43.42878" lon="1.93207">
        <ele>234.8</ele>
        <time>2023-05-27T10:37:46Z</time>
      </trkpt>
      <trkpt lat="43.42878" lon="1.93212">
        <ele>234.8</ele>
        <time>2023-05-27T10:37:47Z</time>
      </trkpt>
      <trkpt lat="43.42878" lon="1.93216">
        <ele>234.8</ele>
        <time>2023-05-27T10:37:48Z</time>
      </trkpt>
      <trkpt lat="43.42876" lon="1.9322">
        <ele>234.8</ele>
        <time>2023-05-27T10:37:49Z</time>
      </trkpt>
      <trkpt lat="43.42874" lon="1.93225">
        <ele>234.8</ele>
        <time>2023-05-27T10:37:50Z</time>
      </trkpt>
      <trkpt lat="43.42871" lon="1.93229">
        <ele>234.8</ele>
        <time>2023-05-27T10:37:51Z</time>
      </trkpt>
      <trkpt lat="43.42868" lon="1.93233">
        <ele>235</ele>
        <time>2023-05-27T10:37:52Z</time>
      </trkpt>
      <trkpt lat="43.42865" lon="1.93239">
        <ele>235</ele>
        <time>2023-05-27T10:37:53Z</time>
      </trkpt>
      <trkpt lat="43.42863" lon="1.93243">
        <ele>235.2</ele>
        <time>2023-05-27T10:37:54Z</time>
      </trkpt>
      <trkpt lat="43.42862" lon="1.93247">
        <ele>235.2</ele>
        <time>2023-05-27T10:37:55Z</time>
      </trkpt>
      <trkpt lat="43.42861" lon="1.93251">
        <ele>235.2</ele>
        <time>2023-05-27T10:37:56Z</time>
      </trkpt>
      <trkpt lat="43.42862" lon="1.93254">
        <ele>235.4</ele>
        <time>2023-05-27T10:37:57Z</time>
      </trkpt>
      <trkpt lat="43.42861" lon="1.93257">
        <ele>235.4</ele>
        <time>2023-05-27T10:37:58Z</time>
      </trkpt>
      <trkpt lat="43.4286" lon="1.93262">
        <ele>235.4</ele>
        <time>2023-05-27T10:37:59Z</time>
      </trkpt>
      <trkpt lat="43.42861" lon="1.93267">
        <ele>235.4</ele>
        <time>2023-05-27T10:38:00Z</time>
      </trkpt>
      <trkpt lat="43.42863" lon="1.93271">
        <ele>235.2</ele>
        <time>2023-05-27T10:38:01Z</time>
      </trkpt>
      <trkpt lat="43.42864" lon="1.93275">
        <ele>235.2</ele>
        <time>2023-05-27T10:38:02Z</time>
      </trkpt>
      <trkpt lat="43.42866" lon="1.93279">
        <ele>235.2</ele>
        <time>2023-05-27T10:38:03Z</time>
      </trkpt>
      <trkpt lat="43.42868" lon="1.93284">
        <ele>235.2</ele>
        <time>2023-05-27T10:38:04Z</time>
      </trkpt>
      <trkpt lat="43.4287" lon="1.93288">
        <ele>235.2</ele>
        <time>2023-05-27T10:38:05Z</time>
      </trkpt>
      <trkpt lat="43.42872" lon="1.93293">
        <ele>235.2</ele>
        <time>2023-05-27T10:38:06Z</time>
      </trkpt>
      <trkpt lat="43.42873" lon="1.93298">
        <ele>235.2</ele>
        <time>2023-05-27T10:38:07Z</time>
      </trkpt>
      <trkpt lat="43.42875" lon="1.93303">
        <ele>235</ele>
        <time>2023-05-27T10:38:08Z</time>
      </trkpt>
      <trkpt lat="43.42876" lon="1.93308">
        <ele>235</ele>
        <time>2023-05-27T10:38:09Z</time>
      </trkpt>
      <trkpt lat="43.42878" lon="1.93313">
        <ele>235</ele>
        <time>2023-05-27T10:38:10Z</time>
      </trkpt>
      <trkpt lat="43.4288" lon="1.93318">
        <ele>235</ele>
        <time>2023-05-27T10:38:11Z</time>
      </trkpt>
      <trkpt lat="43.42881" lon="1.93323">
        <ele>235</ele>
        <time>2023-05-27T10:38:12Z</time>
      </trkpt>
      <trkpt lat="43.42883" lon="1.93327">
        <ele>235</ele>
        <time>2023-05-27T10:38:13Z</time>
      </trkpt>
      <trkpt lat="43.42884" lon="1.93331">
        <ele>235</ele>
        <time>2023-05-27T10:38:14Z</time>
      </trkpt>
      <trkpt lat="43.42885" lon="1.93336">
        <ele>235</ele>
        <time>2023-05-27T10:38:15Z</time>
      </trkpt>
      <trkpt lat="43.42887" lon="1.93341">
        <ele>235</ele>
        <time>2023-05-27T10:38:16Z</time>
      </trkpt>
      <trkpt lat="43.42888" lon="1.93346">
        <ele>235</ele>
        <time>2023-05-27T10:38:17Z</time>
      </trkpt>
      <trkpt lat="43.42888" lon="1.9335">
        <ele>235</ele>
        <time>2023-05-27T10:38:18Z</time>
      </trkpt>
      <trkpt lat="43.4289" lon="1.93355">
        <ele>235</ele>
        <time>2023-05-27T10:38:19Z</time>
      </trkpt>
      <trkpt lat="43.4289" lon="1.93362">
        <ele>235</ele>
        <time>2023-05-27T10:38:20Z</time>
      </trkpt>
      <trkpt lat="43.42891" lon="1.93368">
        <ele>235</ele>
        <time>2023-05-27T10:38:21Z</time>
      </trkpt>
      <trkpt lat="43.42891" lon="1.93373">
        <ele>235</ele>
        <time>2023-05-27T10:38:22Z</time>
      </trkpt>
      <trkpt lat="43.42893" lon="1.93379">
        <ele>235</ele>
        <time>2023-05-27T10:38:23Z</time>
      </trkpt>
      <trkpt lat="43.42894" lon="1.93384">
        <ele>234.8</ele>
        <time>2023-05-27T10:38:24Z</time>
      </trkpt>
      <trkpt lat="43.42894" lon="1.93388">
        <ele>234.8</ele>
        <time>2023-05-27T10:38:25Z</time>
      </trkpt>
      <trkpt lat="43.42894" lon="1.93394">
        <ele>234.8</ele>
        <time>2023-05-27T10:38:26Z</time>
      </trkpt>
      <trkpt lat="43.42894" lon="1.934">
        <ele>234.8</ele>
        <time>2023-05-27T10:38:27Z</time>
      </trkpt>
      <trkpt lat="43.42895" lon="1.93406">
        <ele>234.8</ele>
        <time>2023-05-27T10:38:28Z</time>
      </trkpt>
      <trkpt lat="43.42896" lon="1.93412">
        <ele>234.8</ele>
        <time>2023-05-27T10:38:29Z</time>
      </trkpt>
      <trkpt lat="43.42897" lon="1.93417">
        <ele>234.8</ele>
        <time>2023-05-27T10:38:30Z</time>
      </trkpt>
      <trkpt lat="43.42898" lon="1.93422">
        <ele>234.8</ele>
        <time>2023-05-27T10:38:31Z</time>
      </trkpt>
      <trkpt lat="43.42899" lon="1.93427">
        <ele>234.8</ele>
        <time>2023-05-27T10:38:32Z</time>
      </trkpt>
      <trkpt lat="43.429" lon="1.93432">
        <ele>234.8</ele>
        <time>2023-05-27T10:38:33Z</time>
      </trkpt>
      <trkpt lat="43.42901" lon="1.93436">
        <ele>234.8</ele>
        <time>2023-05-27T10:38:34Z</time>
      </trkpt>
      <trkpt lat="43.429" lon="1.93441">
        <ele>234.8</ele>
        <time>2023-05-27T10:38:35Z</time>
      </trkpt>
      <trkpt lat="43.42898" lon="1.93446">
        <ele>234.8</ele>
        <time>2023-05-27T10:38:36Z</time>
      </trkpt>
      <trkpt lat="43.42896" lon="1.93451">
        <ele>234.8</ele>
        <time>2023-05-27T10:38:37Z</time>
      </trkpt>
      <trkpt lat="43.42895" lon="1.93456">
        <ele>235</ele>
        <time>2023-05-27T10:38:38Z</time>
      </trkpt>
      <trkpt lat="43.42894" lon="1.93462">
        <ele>235</ele>
        <time>2023-05-27T10:38:39Z</time>
      </trkpt>
      <trkpt lat="43.42892" lon="1.93467">
        <ele>235</ele>
        <time>2023-05-27T10:38:40Z</time>
      </trkpt>
      <trkpt lat="43.42889" lon="1.93471">
        <ele>235</ele>
        <time>2023-05-27T10:38:41Z</time>
      </trkpt>
      <trkpt lat="43.42887" lon="1.93476">
        <ele>235</ele>
        <time>2023-05-27T10:38:42Z</time>
      </trkpt>
      <trkpt lat="43.42884" lon="1.9348">
        <ele>235</ele>
        <time>2023-05-27T10:38:43Z</time>
      </trkpt>
      <trkpt lat="43.42882" lon="1.93486">
        <ele>235.2</ele>
        <time>2023-05-27T10:38:44Z</time>
      </trkpt>
      <trkpt lat="43.4288" lon="1.93492">
        <ele>235.2</ele>
        <time>2023-05-27T10:38:45Z</time>
      </trkpt>
      <trkpt lat="43.42879" lon="1.93497">
        <ele>235.2</ele>
        <time>2023-05-27T10:38:46Z</time>
      </trkpt>
      <trkpt lat="43.42879" lon="1.93501">
        <ele>235.2</ele>
        <time>2023-05-27T10:38:47Z</time>
      </trkpt>
      <trkpt lat="43.42879" lon="1.93505">
        <ele>235.2</ele>
        <time>2023-05-27T10:38:48Z</time>
      </trkpt>
      <trkpt lat="43.42877" lon="1.93509">
        <ele>235.2</ele>
        <time>2023-05-27T10:38:49Z</time>
      </trkpt>
      <trkpt lat="43.42876" lon="1.93513">
        <ele>235.2</ele>
        <time>2023-05-27T10:38:50Z</time>
      </trkpt>
      <trkpt lat="43.42874" lon="1.93517">
        <ele>235.2</ele>
        <time>2023-05-27T10:38:51Z</time>
      </trkpt>
      <trkpt lat="43.42873" lon="1.93522">
        <ele>235.2</ele>
        <time>2023-05-27T10:38:52Z</time>
      </trkpt>
      <trkpt lat="43.42872" lon="1.93526">
        <ele>235.2</ele>
        <time>2023-05-27T10:38:53Z</time>
      </trkpt>
      <trkpt lat="43.42871" lon="1.93529">
        <ele>235.2</ele>
        <time>2023-05-27T10:38:54Z</time>
      </trkpt>
      <trkpt lat="43.4287" lon="1.93533">
        <ele>235.2</ele>
        <time>2023-05-27T10:38:55Z</time>
      </trkpt>
      <trkpt lat="43.42869" lon="1.93536">
        <ele>235.2</ele>
        <time>2023-05-27T10:38:56Z</time>
      </trkpt>
      <trkpt lat="43.42867" lon="1.9354">
        <ele>235.2</ele>
        <time>2023-05-27T10:38:57Z</time>
      </trkpt>
      <trkpt lat="43.42867" lon="1.93544">
        <ele>235.2</ele>
        <time>2023-05-27T10:38:58Z</time>
      </trkpt>
      <trkpt lat="43.42866" lon="1.93549">
        <ele>235.2</ele>
        <time>2023-05-27T10:38:59Z</time>
      </trkpt>
      <trkpt lat="43.42865" lon="1.93554">
        <ele>235.2</ele>
        <time>2023-05-27T10:39:00Z</time>
      </trkpt>
      <trkpt lat="43.42866" lon="1.93558">
        <ele>235.2</ele>
        <time>2023-05-27T10:39:01Z</time>
      </trkpt>
      <trkpt lat="43.42866" lon="1.93562">
        <ele>235.2</ele>
        <time>2023-05-27T10:39:02Z</time>
      </trkpt>
      <trkpt lat="43.42867" lon="1.93567">
        <ele>235.2</ele>
        <time>2023-05-27T10:39:03Z</time>
      </trkpt>
      <trkpt lat="43.42868" lon="1.93572">
        <ele>235.2</ele>
        <time>2023-05-27T10:39:04Z</time>
      </trkpt>
      <trkpt lat="43.42869" lon="1.93577">
        <ele>235.2</ele>
        <time>2023-05-27T10:39:05Z</time>
      </trkpt>
      <trkpt lat="43.4287" lon="1.93582">
        <ele>235.2</ele>
        <time>2023-05-27T10:39:06Z</time>
      </trkpt>
      <trkpt lat="43.42871" lon="1.93588">
        <ele>235.2</ele>
        <time>2023-05-27T10:39:07Z</time>
      </trkpt>
      <trkpt lat="43.42872" lon="1.93594">
        <ele>235.2</ele>
        <time>2023-05-27T10:39:08Z</time>
      </trkpt>
      <trkpt lat="43.42874" lon="1.93599">
        <ele>235.2</ele>
        <time>2023-05-27T10:39:09Z</time>
      </trkpt>
      <trkpt lat="43.42876" lon="1.93604">
        <ele>235.4</ele>
        <time>2023-05-27T10:39:10Z</time>
      </trkpt>
      <trkpt lat="43.42878" lon="1.93609">
        <ele>235.4</ele>
        <time>2023-05-27T10:39:11Z</time>
      </trkpt>
      <trkpt lat="43.42881" lon="1.93614">
        <ele>235.4</ele>
        <time>2023-05-27T10:39:12Z</time>
      </trkpt>
      <trkpt lat="43.42883" lon="1.93618">
        <ele>235.4</ele>
        <time>2023-05-27T10:39:13Z</time>
      </trkpt>
      <trkpt lat="43.42885" lon="1.93623">
        <ele>235.4</ele>
        <time>2023-05-27T10:39:14Z</time>
      </trkpt>
      <trkpt lat="43.42888" lon="1.93626">
        <ele>235.4</ele>
        <time>2023-05-27T10:39:15Z</time>
      </trkpt>
      <trkpt lat="43.4289" lon="1.93631">
        <ele>235.4</ele>
        <time>2023-05-27T10:39:16Z</time>
      </trkpt>
      <trkpt lat="43.42892" lon="1.93635">
        <ele>235.4</ele>
        <time>2023-05-27T10:39:17Z</time>
      </trkpt>
      <trkpt lat="43.42894" lon="1.93639">
        <ele>235.4</ele>
        <time>2023-05-27T10:39:18Z</time>
      </trkpt>
      <trkpt lat="43.42896" lon="1.93643">
        <ele>235.4</ele>
        <time>2023-05-27T10:39:19Z</time>
      </trkpt>
      <trkpt lat="43.42898" lon="1.93647">
        <ele>235.4</ele>
        <time>2023-05-27T10:39:20Z</time>
      </trkpt>
      <trkpt lat="43.429" lon="1.93652">
        <ele>235.6</ele>
        <time>2023-05-27T10:39:21Z</time>
      </trkpt>
      <trkpt lat="43.42902" lon="1.93655">
        <ele>235.6</ele>
        <time>2023-05-27T10:39:22Z</time>
      </trkpt>
      <trkpt lat="43.42905" lon="1.93659">
        <ele>235.6</ele>
        <time>2023-05-27T10:39:23Z</time>
      </trkpt>
      <trkpt lat="43.42907" lon="1.93662">
        <ele>235.6</ele>
        <time>2023-05-27T10:39:24Z</time>
      </trkpt>
      <trkpt lat="43.4291" lon="1.93666">
        <ele>235.6</ele>
        <time>2023-05-27T10:39:25Z</time>
      </trkpt>
      <trkpt lat="43.42912" lon="1.9367">
        <ele>235.6</ele>
        <time>2023-05-27T10:39:26Z</time>
      </trkpt>
      <trkpt lat="43.42914" lon="1.93673">
        <ele>235.6</ele>
        <time>2023-05-27T10:39:27Z</time>
      </trkpt>
      <trkpt lat="43.42916" lon="1.93677">
        <ele>235.6</ele>
        <time>2023-05-27T10:39:28Z</time>
      </trkpt>
      <trkpt lat="43.42919" lon="1.93681">
        <ele>235.8</ele>
        <time>2023-05-27T10:39:29Z</time>
      </trkpt>
      <trkpt lat="43.42921" lon="1.93684">
        <ele>235.8</ele>
        <time>2023-05-27T10:39:30Z</time>
      </trkpt>
      <trkpt lat="43.42923" lon="1.93688">
        <ele>235.8</ele>
        <time>2023-05-27T10:39:31Z</time>
      </trkpt>
      <trkpt lat="43.42925" lon="1.93691">
        <ele>235.6</ele>
        <time>2023-05-27T10:39:32Z</time>
      </trkpt>
      <trkpt lat="43.42927" lon="1.93694">
        <ele>235.6</ele>
        <time>2023-05-27T10:39:33Z</time>
      </trkpt>
      <trkpt lat="43.42929" lon="1.93697">
        <ele>235.6</ele>
        <time>2023-05-27T10:39:34Z</time>
      </trkpt>
      <trkpt lat="43.4293" lon="1.93701">
        <ele>235.6</ele>
        <time>2023-05-27T10:39:35Z</time>
      </trkpt>
      <trkpt lat="43.42932" lon="1.93704">
        <ele>235.6</ele>
        <time>2023-05-27T10:39:36Z</time>
      </trkpt>
      <trkpt lat="43.42934" lon="1.93708">
        <ele>235.6</ele>
        <time>2023-05-27T10:39:37Z</time>
      </trkpt>
      <trkpt lat="43.42935" lon="1.93711">
        <ele>235.6</ele>
        <time>2023-05-27T10:39:38Z</time>
      </trkpt>
      <trkpt lat="43.42937" lon="1.93715">
        <ele>235.6</ele>
        <time>2023-05-27T10:39:39Z</time>
      </trkpt>
      <trkpt lat="43.42939" lon="1.93718">
        <ele>235.6</ele>
        <time>2023-05-27T10:39:40Z</time>
      </trkpt>
      <trkpt lat="43.42941" lon="1.93721">
        <ele>235.6</ele>
        <time>2023-05-27T10:39:41Z</time>
      </trkpt>
      <trkpt lat="43.42943" lon="1.93725">
        <ele>235.8</ele>
        <time>2023-05-27T10:39:42Z</time>
      </trkpt>
      <trkpt lat="43.42945" lon="1.93729">
        <ele>235.8</ele>
        <time>2023-05-27T10:39:43Z</time>
      </trkpt>
      <trkpt lat="43.42946" lon="1.93732">
        <ele>235.8</ele>
        <time>2023-05-27T10:39:44Z</time>
      </trkpt>
      <trkpt lat="43.42948" lon="1.93736">
        <ele>235.8</ele>
        <time>2023-05-27T10:39:45Z</time>
      </trkpt>
      <trkpt lat="43.4295" lon="1.9374">
        <ele>235.8</ele>
        <time>2023-05-27T10:39:46Z</time>
      </trkpt>
      <trkpt lat="43.42951" lon="1.93744">
        <ele>235.8</ele>
        <time>2023-05-27T10:39:47Z</time>
      </trkpt>
      <trkpt lat="43.42953" lon="1.93749">
        <ele>235.8</ele>
        <time>2023-05-27T10:39:48Z</time>
      </trkpt>
      <trkpt lat="43.42954" lon="1.93753">
        <ele>235.8</ele>
        <time>2023-05-27T10:39:49Z</time>
      </trkpt>
      <trkpt lat="43.42955" lon="1.93758">
        <ele>235.8</ele>
        <time>2023-05-27T10:39:50Z</time>
      </trkpt>
      <trkpt lat="43.42957" lon="1.93762">
        <ele>235.8</ele>
        <time>2023-05-27T10:39:51Z</time>
      </trkpt>
      <trkpt lat="43.42958" lon="1.93766">
        <ele>235.8</ele>
        <time>2023-05-27T10:39:52Z</time>
      </trkpt>
      <trkpt lat="43.4296" lon="1.9377">
        <ele>235.8</ele>
        <time>2023-05-27T10:39:53Z</time>
      </trkpt>
      <trkpt lat="43.42961" lon="1.93775">
        <ele>235.8</ele>
        <time>2023-05-27T10:39:54Z</time>
      </trkpt>
      <trkpt lat="43.42962" lon="1.9378">
        <ele>235.8</ele>
        <time>2023-05-27T10:39:55Z</time>
      </trkpt>
      <trkpt lat="43.42963" lon="1.93785">
        <ele>235.8</ele>
        <time>2023-05-27T10:39:56Z</time>
      </trkpt>
      <trkpt lat="43.42964" lon="1.9379">
        <ele>235.8</ele>
        <time>2023-05-27T10:39:57Z</time>
      </trkpt>
      <trkpt lat="43.42965" lon="1.93794">
        <ele>235.8</ele>
        <time>2023-05-27T10:39:58Z</time>
      </trkpt>
      <trkpt lat="43.42966" lon="1.93799">
        <ele>235.8</ele>
        <time>2023-05-27T10:39:59Z</time>
      </trkpt>
      <trkpt lat="43.42967" lon="1.93805">
        <ele>235.8</ele>
        <time>2023-05-27T10:40:00Z</time>
      </trkpt>
      <trkpt lat="43.42968" lon="1.9381">
        <ele>235.8</ele>
        <time>2023-05-27T10:40:01Z</time>
      </trkpt>
      <trkpt lat="43.42969" lon="1.93815">
        <ele>235.8</ele>
        <time>2023-05-27T10:40:02Z</time>
      </trkpt>
      <trkpt lat="43.4297" lon="1.93819">
        <ele>235.8</ele>
        <time>2023-05-27T10:40:03Z</time>
      </trkpt>
      <trkpt lat="43.42971" lon="1.93824">
        <ele>235.8</ele>
        <time>2023-05-27T10:40:04Z</time>
      </trkpt>
      <trkpt lat="43.42972" lon="1.9383">
        <ele>235.8</ele>
        <time>2023-05-27T10:40:05Z</time>
      </trkpt>
      <trkpt lat="43.42973" lon="1.93835">
        <ele>235.8</ele>
        <time>2023-05-27T10:40:06Z</time>
      </trkpt>
      <trkpt lat="43.42974" lon="1.93839">
        <ele>235.8</ele>
        <time>2023-05-27T10:40:07Z</time>
      </trkpt>
      <trkpt lat="43.42976" lon="1.93843">
        <ele>235.8</ele>
        <time>2023-05-27T10:40:08Z</time>
      </trkpt>
      <trkpt lat="43.42978" lon="1.93848">
        <ele>235.8</ele>
        <time>2023-05-27T10:40:09Z</time>
      </trkpt>
      <trkpt lat="43.42979" lon="1.93854">
        <ele>235.8</ele>
        <time>2023-05-27T10:40:10Z</time>
      </trkpt>
      <trkpt lat="43.4298" lon="1.93858">
        <ele>235.8</ele>
        <time>2023-05-27T10:40:11Z</time>
      </trkpt>
      <trkpt lat="43.42982" lon="1.93863">
        <ele>235.8</ele>
        <time>2023-05-27T10:40:12Z</time>
      </trkpt>
      <trkpt lat="43.42983" lon="1.93867">
        <ele>235.8</ele>
        <time>2023-05-27T10:40:13Z</time>
      </trkpt>
      <trkpt lat="43.42984" lon="1.93871">
        <ele>235.8</ele>
        <time>2023-05-27T10:40:14Z</time>
      </trkpt>
      <trkpt lat="43.42986" lon="1.93876">
        <ele>235.8</ele>
        <time>2023-05-27T10:40:15Z</time>
      </trkpt>
      <trkpt lat="43.42987" lon="1.93881">
        <ele>235.8</ele>
        <time>2023-05-27T10:40:16Z</time>
      </trkpt>
      <trkpt lat="43.42988" lon="1.93886">
        <ele>235.8</ele>
        <time>2023-05-27T10:40:17Z</time>
      </trkpt>
      <trkpt lat="43.42989" lon="1.93891">
        <ele>235.8</ele>
        <time>2023-05-27T10:40:18Z</time>
      </trkpt>
      <trkpt lat="43.4299" lon="1.93896">
        <ele>235.8</ele>
        <time>2023-05-27T10:40:19Z</time>
      </trkpt>
      <trkpt lat="43.42991" lon="1.93901">
        <ele>235.8</ele>
        <time>2023-05-27T10:40:20Z</time>
      </trkpt>
      <trkpt lat="43.42992" lon="1.93905">
        <ele>235.8</ele>
        <time>2023-05-27T10:40:21Z</time>
      </trkpt>
      <trkpt lat="43.42992" lon="1.9391">
        <ele>235.8</ele>
        <time>2023-05-27T10:40:22Z</time>
      </trkpt>
      <trkpt lat="43.42993" lon="1.93915">
        <ele>235.8</ele>
        <time>2023-05-27T10:40:23Z</time>
      </trkpt>
      <trkpt lat="43.42994" lon="1.9392">
        <ele>235.6</ele>
        <time>2023-05-27T10:40:24Z</time>
      </trkpt>
      <trkpt lat="43.42996" lon="1.93925">
        <ele>235.6</ele>
        <time>2023-05-27T10:40:25Z</time>
      </trkpt>
      <trkpt lat="43.42997" lon="1.9393">
        <ele>235.6</ele>
        <time>2023-05-27T10:40:26Z</time>
      </trkpt>
      <trkpt lat="43.42998" lon="1.93934">
        <ele>235.6</ele>
        <time>2023-05-27T10:40:27Z</time>
      </trkpt>
      <trkpt lat="43.42999" lon="1.93939">
        <ele>235.6</ele>
        <time>2023-05-27T10:40:28Z</time>
      </trkpt>
      <trkpt lat="43.43" lon="1.93943">
        <ele>235.6</ele>
        <time>2023-05-27T10:40:29Z</time>
      </trkpt>
      <trkpt lat="43.43" lon="1.93949">
        <ele>235.6</ele>
        <time>2023-05-27T10:40:30Z</time>
      </trkpt>
      <trkpt lat="43.43001" lon="1.93954">
        <ele>235.6</ele>
        <time>2023-05-27T10:40:31Z</time>
      </trkpt>
      <trkpt lat="43.43002" lon="1.93958">
        <ele>235.6</ele>
        <time>2023-05-27T10:40:32Z</time>
      </trkpt>
      <trkpt lat="43.43002" lon="1.93963">
        <ele>235.6</ele>
        <time>2023-05-27T10:40:33Z</time>
      </trkpt>
      <trkpt lat="43.43003" lon="1.93969">
        <ele>235.6</ele>
        <time>2023-05-27T10:40:34Z</time>
      </trkpt>
      <trkpt lat="43.43004" lon="1.93975">
        <ele>235.6</ele>
        <time>2023-05-27T10:40:35Z</time>
      </trkpt>
      <trkpt lat="43.43004" lon="1.93981">
        <ele>235.6</ele>
        <time>2023-05-27T10:40:36Z</time>
      </trkpt>
      <trkpt lat="43.43005" lon="1.93988">
        <ele>235.6</ele>
        <time>2023-05-27T10:40:37Z</time>
      </trkpt>
      <trkpt lat="43.43005" lon="1.93994">
        <ele>235.6</ele>
        <time>2023-05-27T10:40:38Z</time>
      </trkpt>
      <trkpt lat="43.43006" lon="1.94">
        <ele>235.6</ele>
        <time>2023-05-27T10:40:39Z</time>
      </trkpt>
      <trkpt lat="43.43006" lon="1.94005">
        <ele>235.6</ele>
        <time>2023-05-27T10:40:40Z</time>
      </trkpt>
      <trkpt lat="43.43007" lon="1.94009">
        <ele>235.6</ele>
        <time>2023-05-27T10:40:41Z</time>
      </trkpt>
      <trkpt lat="43.43008" lon="1.94015">
        <ele>235.8</ele>
        <time>2023-05-27T10:40:42Z</time>
      </trkpt>
      <trkpt lat="43.43009" lon="1.94019">
        <ele>235.8</ele>
        <time>2023-05-27T10:40:43Z</time>
      </trkpt>
      <trkpt lat="43.43011" lon="1.94024">
        <ele>235.8</ele>
        <time>2023-05-27T10:40:44Z</time>
      </trkpt>
      <trkpt lat="43.43013" lon="1.94028">
        <ele>235.8</ele>
        <time>2023-05-27T10:40:45Z</time>
      </trkpt>
      <trkpt lat="43.43016" lon="1.94033">
        <ele>235.8</ele>
        <time>2023-05-27T10:40:46Z</time>
      </trkpt>
      <trkpt lat="43.43019" lon="1.94036">
        <ele>236</ele>
        <time>2023-05-27T10:40:47Z</time>
      </trkpt>
      <trkpt lat="43.43022" lon="1.94039">
        <ele>236</ele>
        <time>2023-05-27T10:40:48Z</time>
      </trkpt>
      <trkpt lat="43.43026" lon="1.94041">
        <ele>236</ele>
        <time>2023-05-27T10:40:49Z</time>
      </trkpt>
      <trkpt lat="43.43029" lon="1.94043">
        <ele>236</ele>
        <time>2023-05-27T10:40:50Z</time>
      </trkpt>
      <trkpt lat="43.43031" lon="1.94045">
        <ele>236</ele>
        <time>2023-05-27T10:40:51Z</time>
      </trkpt>
      <trkpt lat="43.43034" lon="1.94047">
        <ele>236</ele>
        <time>2023-05-27T10:40:52Z</time>
      </trkpt>
      <trkpt lat="43.43037" lon="1.94048">
        <ele>236</ele>
        <time>2023-05-27T10:40:53Z</time>
      </trkpt>
      <trkpt lat="43.43041" lon="1.94049">
        <ele>236</ele>
        <time>2023-05-27T10:40:54Z</time>
      </trkpt>
      <trkpt lat="43.43044" lon="1.94051">
        <ele>236</ele>
        <time>2023-05-27T10:40:55Z</time>
      </trkpt>
      <trkpt lat="43.43048" lon="1.94053">
        <ele>236</ele>
        <time>2023-05-27T10:40:56Z</time>
      </trkpt>
      <trkpt lat="43.43051" lon="1.94055">
        <ele>236</ele>
        <time>2023-05-27T10:40:57Z</time>
      </trkpt>
      <trkpt lat="43.43054" lon="1.94057">
        <ele>236</ele>
        <time>2023-05-27T10:40:58Z</time>
      </trkpt>
      <trkpt lat="43.43058" lon="1.9406">
        <ele>236</ele>
        <time>2023-05-27T10:40:59Z</time>
      </trkpt>
      <trkpt lat="43.4306" lon="1.94063">
        <ele>236</ele>
        <time>2023-05-27T10:41:00Z</time>
      </trkpt>
      <trkpt lat="43.43063" lon="1.94066">
        <ele>236</ele>
        <time>2023-05-27T10:41:01Z</time>
      </trkpt>
      <trkpt lat="43.43066" lon="1.94069">
        <ele>236</ele>
        <time>2023-05-27T10:41:02Z</time>
      </trkpt>
      <trkpt lat="43.43068" lon="1.94072">
        <ele>236</ele>
        <time>2023-05-27T10:41:03Z</time>
      </trkpt>
      <trkpt lat="43.4307" lon="1.94076">
        <ele>236</ele>
        <time>2023-05-27T10:41:04Z</time>
      </trkpt>
      <trkpt lat="43.43072" lon="1.9408">
        <ele>236</ele>
        <time>2023-05-27T10:41:05Z</time>
      </trkpt>
      <trkpt lat="43.43073" lon="1.94085">
        <ele>236</ele>
        <time>2023-05-27T10:41:06Z</time>
      </trkpt>
      <trkpt lat="43.43074" lon="1.9409">
        <ele>235.8</ele>
        <time>2023-05-27T10:41:07Z</time>
      </trkpt>
      <trkpt lat="43.43075" lon="1.94095">
        <ele>235.8</ele>
        <time>2023-05-27T10:41:08Z</time>
      </trkpt>
      <trkpt lat="43.43075" lon="1.941">
        <ele>236</ele>
        <time>2023-05-27T10:41:09Z</time>
      </trkpt>
      <trkpt lat="43.43075" lon="1.94105">
        <ele>236</ele>
        <time>2023-05-27T10:41:10Z</time>
      </trkpt>
      <trkpt lat="43.43076" lon="1.9411">
        <ele>236</ele>
        <time>2023-05-27T10:41:11Z</time>
      </trkpt>
      <trkpt lat="43.43076" lon="1.94115">
        <ele>236</ele>
        <time>2023-05-27T10:41:12Z</time>
      </trkpt>
      <trkpt lat="43.43076" lon="1.94119">
        <ele>236</ele>
        <time>2023-05-27T10:41:13Z</time>
      </trkpt>
      <trkpt lat="43.43076" lon="1.94123">
        <ele>236</ele>
        <time>2023-05-27T10:41:14Z</time>
      </trkpt>
      <trkpt lat="43.43077" lon="1.94128">
        <ele>235.8</ele>
        <time>2023-05-27T10:41:15Z</time>
      </trkpt>
      <trkpt lat="43.43077" lon="1.94133">
        <ele>235.8</ele>
        <time>2023-05-27T10:41:16Z</time>
      </trkpt>
      <trkpt lat="43.43077" lon="1.94138">
        <ele>235.8</ele>
        <time>2023-05-27T10:41:17Z</time>
      </trkpt>
      <trkpt lat="43.43077" lon="1.94143">
        <ele>235.8</ele>
        <time>2023-05-27T10:41:18Z</time>
      </trkpt>
      <trkpt lat="43.43077" lon="1.94148">
        <ele>235.8</ele>
        <time>2023-05-27T10:41:19Z</time>
      </trkpt>
      <trkpt lat="43.43078" lon="1.94153">
        <ele>235.8</ele>
        <time>2023-05-27T10:41:20Z</time>
      </trkpt>
      <trkpt lat="43.43079" lon="1.94158">
        <ele>235.8</ele>
        <time>2023-05-27T10:41:21Z</time>
      </trkpt>
      <trkpt lat="43.43079" lon="1.94161">
        <ele>235.8</ele>
        <time>2023-05-27T10:41:22Z</time>
      </trkpt>
      <trkpt lat="43.43079" lon="1.94166">
        <ele>235.8</ele>
        <time>2023-05-27T10:41:23Z</time>
      </trkpt>
      <trkpt lat="43.43079" lon="1.94171">
        <ele>235.8</ele>
        <time>2023-05-27T10:41:24Z</time>
      </trkpt>
      <trkpt lat="43.43079" lon="1.94176">
        <ele>235.8</ele>
        <time>2023-05-27T10:41:25Z</time>
      </trkpt>
      <trkpt lat="43.43078" lon="1.94181">
        <ele>235.8</ele>
        <time>2023-05-27T10:41:26Z</time>
      </trkpt>
      <trkpt lat="43.43079" lon="1.94187">
        <ele>235.8</ele>
        <time>2023-05-27T10:41:27Z</time>
      </trkpt>
      <trkpt lat="43.43079" lon="1.94193">
        <ele>235.8</ele>
        <time>2023-05-27T10:41:28Z</time>
      </trkpt>
      <trkpt lat="43.43079" lon="1.94199">
        <ele>235.8</ele>
        <time>2023-05-27T10:41:29Z</time>
      </trkpt>
      <trkpt lat="43.43079" lon="1.94205">
        <ele>235.8</ele>
        <time>2023-05-27T10:41:30Z</time>
      </trkpt>
      <trkpt lat="43.43079" lon="1.94211">
        <ele>236</ele>
        <time>2023-05-27T10:41:31Z</time>
      </trkpt>
      <trkpt lat="43.4308" lon="1.94217">
        <ele>236</ele>
        <time>2023-05-27T10:41:32Z</time>
      </trkpt>
      <trkpt lat="43.4308" lon="1.94223">
        <ele>236</ele>
        <time>2023-05-27T10:41:33Z</time>
      </trkpt>
      <trkpt lat="43.43079" lon="1.94229">
        <ele>236</ele>
        <time>2023-05-27T10:41:34Z</time>
      </trkpt>
      <trkpt lat="43.43079" lon="1.94234">
        <ele>236</ele>
        <time>2023-05-27T10:41:35Z</time>
      </trkpt>
      <trkpt lat="43.43078" lon="1.94239">
        <ele>236</ele>
        <time>2023-05-27T10:41:36Z</time>
      </trkpt>
      <trkpt lat="43.43078" lon="1.94245">
        <ele>236</ele>
        <time>2023-05-27T10:41:37Z</time>
      </trkpt>
      <trkpt lat="43.43078" lon="1.94249">
        <ele>236</ele>
        <time>2023-05-27T10:41:38Z</time>
      </trkpt>
      <trkpt lat="43.43079" lon="1.94254">
        <ele>236</ele>
        <time>2023-05-27T10:41:39Z</time>
      </trkpt>
      <trkpt lat="43.43079" lon="1.94259">
        <ele>236</ele>
        <time>2023-05-27T10:41:40Z</time>
      </trkpt>
      <trkpt lat="43.43079" lon="1.94264">
        <ele>236</ele>
        <time>2023-05-27T10:41:41Z</time>
      </trkpt>
      <trkpt lat="43.43079" lon="1.94268">
        <ele>236.2</ele>
        <time>2023-05-27T10:41:42Z</time>
      </trkpt>
      <trkpt lat="43.43078" lon="1.94273">
        <ele>236.2</ele>
        <time>2023-05-27T10:41:43Z</time>
      </trkpt>
      <trkpt lat="43.43078" lon="1.94278">
        <ele>236.2</ele>
        <time>2023-05-27T10:41:44Z</time>
      </trkpt>
      <trkpt lat="43.43077" lon="1.94283">
        <ele>236.2</ele>
        <time>2023-05-27T10:41:45Z</time>
      </trkpt>
      <trkpt lat="43.43077" lon="1.94287">
        <ele>236.2</ele>
        <time>2023-05-27T10:41:46Z</time>
      </trkpt>
      <trkpt lat="43.43075" lon="1.94293">
        <ele>236.2</ele>
        <time>2023-05-27T10:41:47Z</time>
      </trkpt>
      <trkpt lat="43.43075" lon="1.94299">
        <ele>236</ele>
        <time>2023-05-27T10:41:48Z</time>
      </trkpt>
      <trkpt lat="43.43073" lon="1.94304">
        <ele>236</ele>
        <time>2023-05-27T10:41:49Z</time>
      </trkpt>
      <trkpt lat="43.43071" lon="1.94309">
        <ele>236</ele>
        <time>2023-05-27T10:41:50Z</time>
      </trkpt>
      <trkpt lat="43.4307" lon="1.94315">
        <ele>236.2</ele>
        <time>2023-05-27T10:41:51Z</time>
      </trkpt>
      <trkpt lat="43.43069" lon="1.9432">
        <ele>236.2</ele>
        <time>2023-05-27T10:41:52Z</time>
      </trkpt>
      <trkpt lat="43.43069" lon="1.94325">
        <ele>236.2</ele>
        <time>2023-05-27T10:41:53Z</time>
      </trkpt>
      <trkpt lat="43.43069" lon="1.9433">
        <ele>236.2</ele>
        <time>2023-05-27T10:41:54Z</time>
      </trkpt>
      <trkpt lat="43.43068" lon="1.94334">
        <ele>236.2</ele>
        <time>2023-05-27T10:41:55Z</time>
      </trkpt>
      <trkpt lat="43.43066" lon="1.94339">
        <ele>236.2</ele>
        <time>2023-05-27T10:41:56Z</time>
      </trkpt>
      <trkpt lat="43.43065" lon="1.94344">
        <ele>236.2</ele>
        <time>2023-05-27T10:41:57Z</time>
      </trkpt>
      <trkpt lat="43.43063" lon="1.94349">
        <ele>236.2</ele>
        <time>2023-05-27T10:41:58Z</time>
      </trkpt>
      <trkpt lat="43.43061" lon="1.94355">
        <ele>236.2</ele>
        <time>2023-05-27T10:41:59Z</time>
      </trkpt>
      <trkpt lat="43.43061" lon="1.94361">
        <ele>236.2</ele>
        <time>2023-05-27T10:42:00Z</time>
      </trkpt>
      <trkpt lat="43.43061" lon="1.94366">
        <ele>236.4</ele>
        <time>2023-05-27T10:42:01Z</time>
      </trkpt>
      <trkpt lat="43.4306" lon="1.94372">
        <ele>236.4</ele>
        <time>2023-05-27T10:42:02Z</time>
      </trkpt>
      <trkpt lat="43.4306" lon="1.94376">
        <ele>236.4</ele>
        <time>2023-05-27T10:42:03Z</time>
      </trkpt>
      <trkpt lat="43.43059" lon="1.94381">
        <ele>236.4</ele>
        <time>2023-05-27T10:42:04Z</time>
      </trkpt>
      <trkpt lat="43.43059" lon="1.94387">
        <ele>236.4</ele>
        <time>2023-05-27T10:42:05Z</time>
      </trkpt>
      <trkpt lat="43.43057" lon="1.94393">
        <ele>236.4</ele>
        <time>2023-05-27T10:42:06Z</time>
      </trkpt>
      <trkpt lat="43.43056" lon="1.94397">
        <ele>236.4</ele>
        <time>2023-05-27T10:42:07Z</time>
      </trkpt>
      <trkpt lat="43.43056" lon="1.94401">
        <ele>236.4</ele>
        <time>2023-05-27T10:42:08Z</time>
      </trkpt>
      <trkpt lat="43.43055" lon="1.94406">
        <ele>236.6</ele>
        <time>2023-05-27T10:42:09Z</time>
      </trkpt>
      <trkpt lat="43.43055" lon="1.9441">
        <ele>236.6</ele>
        <time>2023-05-27T10:42:10Z</time>
      </trkpt>
      <trkpt lat="43.43056" lon="1.94414">
        <ele>236.6</ele>
        <time>2023-05-27T10:42:11Z</time>
      </trkpt>
      <trkpt lat="43.43058" lon="1.94418">
        <ele>236.6</ele>
        <time>2023-05-27T10:42:12Z</time>
      </trkpt>
      <trkpt lat="43.43058" lon="1.94423">
        <ele>236.6</ele>
        <time>2023-05-27T10:42:13Z</time>
      </trkpt>
      <trkpt lat="43.43056" lon="1.94428">
        <ele>236.6</ele>
        <time>2023-05-27T10:42:14Z</time>
      </trkpt>
      <trkpt lat="43.43056" lon="1.94432">
        <ele>236.6</ele>
        <time>2023-05-27T10:42:15Z</time>
      </trkpt>
      <trkpt lat="43.43054" lon="1.94436">
        <ele>236.6</ele>
        <time>2023-05-27T10:42:16Z</time>
      </trkpt>
      <trkpt lat="43.43052" lon="1.94441">
        <ele>236.6</ele>
        <time>2023-05-27T10:42:17Z</time>
      </trkpt>
      <trkpt lat="43.4305" lon="1.94447">
        <ele>236.6</ele>
        <time>2023-05-27T10:42:18Z</time>
      </trkpt>
      <trkpt lat="43.4305" lon="1.94453">
        <ele>236.6</ele>
        <time>2023-05-27T10:42:19Z</time>
      </trkpt>
      <trkpt lat="43.43051" lon="1.94459">
        <ele>236.6</ele>
        <time>2023-05-27T10:42:20Z</time>
      </trkpt>
      <trkpt lat="43.4305" lon="1.94465">
        <ele>236.6</ele>
        <time>2023-05-27T10:42:21Z</time>
      </trkpt>
      <trkpt lat="43.4305" lon="1.94469">
        <ele>236.6</ele>
        <time>2023-05-27T10:42:22Z</time>
      </trkpt>
      <trkpt lat="43.4305" lon="1.94474">
        <ele>236.6</ele>
        <time>2023-05-27T10:42:23Z</time>
      </trkpt>
      <trkpt lat="43.43049" lon="1.94478">
        <ele>236.6</ele>
        <time>2023-05-27T10:42:24Z</time>
      </trkpt>
      <trkpt lat="43.43049" lon="1.94482">
        <ele>236.6</ele>
        <time>2023-05-27T10:42:25Z</time>
      </trkpt>
      <trkpt lat="43.43048" lon="1.94486">
        <ele>236.6</ele>
        <time>2023-05-27T10:42:26Z</time>
      </trkpt>
      <trkpt lat="43.43048" lon="1.9449">
        <ele>236.6</ele>
        <time>2023-05-27T10:42:27Z</time>
      </trkpt>
      <trkpt lat="43.43047" lon="1.94494">
        <ele>236.6</ele>
        <time>2023-05-27T10:42:28Z</time>
      </trkpt>
      <trkpt lat="43.43046" lon="1.94498">
        <ele>236.6</ele>
        <time>2023-05-27T10:42:29Z</time>
      </trkpt>
      <trkpt lat="43.43046" lon="1.94503">
        <ele>236.6</ele>
        <time>2023-05-27T10:42:30Z</time>
      </trkpt>
      <trkpt lat="43.43045" lon="1.94507">
        <ele>236.6</ele>
        <time>2023-05-27T10:42:31Z</time>
      </trkpt>
      <trkpt lat="43.43045" lon="1.94511">
        <ele>236.6</ele>
        <time>2023-05-27T10:42:32Z</time>
      </trkpt>
      <trkpt lat="43.43043" lon="1.94516">
        <ele>236.6</ele>
        <time>2023-05-27T10:42:33Z</time>
      </trkpt>
      <trkpt lat="43.43043" lon="1.9452">
        <ele>236.6</ele>
        <time>2023-05-27T10:42:34Z</time>
      </trkpt>
      <trkpt lat="43.43043" lon="1.94523">
        <ele>236.6</ele>
        <time>2023-05-27T10:42:35Z</time>
      </trkpt>
      <trkpt lat="43.43043" lon="1.94528">
        <ele>236.6</ele>
        <time>2023-05-27T10:42:36Z</time>
      </trkpt>
      <trkpt lat="43.43043" lon="1.94531">
        <ele>236.8</ele>
        <time>2023-05-27T10:42:37Z</time>
      </trkpt>
      <trkpt lat="43.43044" lon="1.94535">
        <ele>236.8</ele>
        <time>2023-05-27T10:42:38Z</time>
      </trkpt>
      <trkpt lat="43.43044" lon="1.94538">
        <ele>236.8</ele>
        <time>2023-05-27T10:42:39Z</time>
      </trkpt>
      <trkpt lat="43.43043" lon="1.9454">
        <ele>236.8</ele>
        <time>2023-05-27T10:42:40Z</time>
      </trkpt>
      <trkpt lat="43.43043" lon="1.94543">
        <ele>236.8</ele>
        <time>2023-05-27T10:42:41Z</time>
      </trkpt>
      <trkpt lat="43.43042" lon="1.94545">
        <ele>236.8</ele>
        <time>2023-05-27T10:42:42Z</time>
      </trkpt>
      <trkpt lat="43.43041" lon="1.94547">
        <ele>236.8</ele>
        <time>2023-05-27T10:42:43Z</time>
      </trkpt>
      <trkpt lat="43.4304" lon="1.94549">
        <ele>236.8</ele>
        <time>2023-05-27T10:42:44Z</time>
      </trkpt>
      <trkpt lat="43.43039" lon="1.9455">
        <ele>236.8</ele>
        <time>2023-05-27T10:42:45Z</time>
      </trkpt>
      <trkpt lat="43.43039" lon="1.94551">
        <ele>236.8</ele>
        <time>2023-05-27T10:42:46Z</time>
      </trkpt>
      <trkpt lat="43.43039" lon="1.94551">
        <ele>236.6</ele>
        <time>2023-05-27T10:42:47Z</time>
      </trkpt>
      <trkpt lat="43.43039" lon="1.94551">
        <ele>236.6</ele>
        <time>2023-05-27T10:42:48Z</time>
      </trkpt>
      <trkpt lat="43.43039" lon="1.94551">
        <ele>236.6</ele>
        <time>2023-05-27T10:42:49Z</time>
      </trkpt>
      <trkpt lat="43.43039" lon="1.94551">
        <ele>236.6</ele>
        <time>2023-05-27T10:42:50Z</time>
      </trkpt>
      <trkpt lat="43.43033" lon="1.94566">
        <ele>236.6</ele>
        <time>2023-05-27T10:48:14Z</time>
      </trkpt>
      <trkpt lat="43.43031" lon="1.9457">
        <ele>236.6</ele>
        <time>2023-05-27T10:48:15Z</time>
      </trkpt>
      <trkpt lat="43.43028" lon="1.94574">
        <ele>236.6</ele>
        <time>2023-05-27T10:48:16Z</time>
      </trkpt>
      <trkpt lat="43.43026" lon="1.94577">
        <ele>236.6</ele>
        <time>2023-05-27T10:48:17Z</time>
      </trkpt>
      <trkpt lat="43.43024" lon="1.94581">
        <ele>236.6</ele>
        <time>2023-05-27T10:48:18Z</time>
      </trkpt>
      <trkpt lat="43.43021" lon="1.94587">
        <ele>236.6</ele>
        <time>2023-05-27T10:48:19Z</time>
      </trkpt>
      <trkpt lat="43.43018" lon="1.94592">
        <ele>236.4</ele>
        <time>2023-05-27T10:48:20Z</time>
      </trkpt>
      <trkpt lat="43.43015" lon="1.94597">
        <ele>236.4</ele>
        <time>2023-05-27T10:48:21Z</time>
      </trkpt>
      <trkpt lat="43.43013" lon="1.94601">
        <ele>236.4</ele>
        <time>2023-05-27T10:48:22Z</time>
      </trkpt>
      <trkpt lat="43.43011" lon="1.94606">
        <ele>236.4</ele>
        <time>2023-05-27T10:48:23Z</time>
      </trkpt>
      <trkpt lat="43.43009" lon="1.94611">
        <ele>236.4</ele>
        <time>2023-05-27T10:48:24Z</time>
      </trkpt>
      <trkpt lat="43.43006" lon="1.94616">
        <ele>236.4</ele>
        <time>2023-05-27T10:48:25Z</time>
      </trkpt>
      <trkpt lat="43.43004" lon="1.94621">
        <ele>236.4</ele>
        <time>2023-05-27T10:48:26Z</time>
      </trkpt>
      <trkpt lat="43.43001" lon="1.94626">
        <ele>236.4</ele>
        <time>2023-05-27T10:48:27Z</time>
      </trkpt>
      <trkpt lat="43.42999" lon="1.94631">
        <ele>236.4</ele>
        <time>2023-05-27T10:48:28Z</time>
      </trkpt>
      <trkpt lat="43.42997" lon="1.94635">
        <ele>236.4</ele>
        <time>2023-05-27T10:48:29Z</time>
      </trkpt>
      <trkpt lat="43.42994" lon="1.9464">
        <ele>236.4</ele>
        <time>2023-05-27T10:48:30Z</time>
      </trkpt>
      <trkpt lat="43.42992" lon="1.94644">
        <ele>236.4</ele>
        <time>2023-05-27T10:48:31Z</time>
      </trkpt>
      <trkpt lat="43.4299" lon="1.94648">
        <ele>236.4</ele>
        <time>2023-05-27T10:48:32Z</time>
      </trkpt>
      <trkpt lat="43.42988" lon="1.94652">
        <ele>236.4</ele>
        <time>2023-05-27T10:48:33Z</time>
      </trkpt>
      <trkpt lat="43.42987" lon="1.94657">
        <ele>236.6</ele>
        <time>2023-05-27T10:48:34Z</time>
      </trkpt>
      <trkpt lat="43.42986" lon="1.94661">
        <ele>236.6</ele>
        <time>2023-05-27T10:48:35Z</time>
      </trkpt>
      <trkpt lat="43.42984" lon="1.94666">
        <ele>236.6</ele>
        <time>2023-05-27T10:48:36Z</time>
      </trkpt>
      <trkpt lat="43.42982" lon="1.94671">
        <ele>236.6</ele>
        <time>2023-05-27T10:48:37Z</time>
      </trkpt>
      <trkpt lat="43.42979" lon="1.94675">
        <ele>236.6</ele>
        <time>2023-05-27T10:48:38Z</time>
      </trkpt>
      <trkpt lat="43.42977" lon="1.94679">
        <ele>236.6</ele>
        <time>2023-05-27T10:48:39Z</time>
      </trkpt>
      <trkpt lat="43.42974" lon="1.94682">
        <ele>236.6</ele>
        <time>2023-05-27T10:48:40Z</time>
      </trkpt>
      <trkpt lat="43.42972" lon="1.94685">
        <ele>236.6</ele>
        <time>2023-05-27T10:48:41Z</time>
      </trkpt>
      <trkpt lat="43.42969" lon="1.94687">
        <ele>236.6</ele>
        <time>2023-05-27T10:48:42Z</time>
      </trkpt>
      <trkpt lat="43.42966" lon="1.94691">
        <ele>236.6</ele>
        <time>2023-05-27T10:48:43Z</time>
      </trkpt>
      <trkpt lat="43.42964" lon="1.94693">
        <ele>236.8</ele>
        <time>2023-05-27T10:48:44Z</time>
      </trkpt>
      <trkpt lat="43.42961" lon="1.94696">
        <ele>236.8</ele>
        <time>2023-05-27T10:48:45Z</time>
      </trkpt>
      <trkpt lat="43.42958" lon="1.94698">
        <ele>236.8</ele>
        <time>2023-05-27T10:48:46Z</time>
      </trkpt>
      <trkpt lat="43.42955" lon="1.947">
        <ele>236.8</ele>
        <time>2023-05-27T10:48:47Z</time>
      </trkpt>
      <trkpt lat="43.42952" lon="1.94702">
        <ele>236.8</ele>
        <time>2023-05-27T10:48:48Z</time>
      </trkpt>
      <trkpt lat="43.42949" lon="1.94704">
        <ele>236.8</ele>
        <time>2023-05-27T10:48:49Z</time>
      </trkpt>
      <trkpt lat="43.42946" lon="1.94707">
        <ele>236.8</ele>
        <time>2023-05-27T10:48:50Z</time>
      </trkpt>
      <trkpt lat="43.42942" lon="1.94709">
        <ele>236.8</ele>
        <time>2023-05-27T10:48:51Z</time>
      </trkpt>
      <trkpt lat="43.42939" lon="1.94711">
        <ele>236.8</ele>
        <time>2023-05-27T10:48:52Z</time>
      </trkpt>
      <trkpt lat="43.42936" lon="1.94714">
        <ele>236.8</ele>
        <time>2023-05-27T10:48:53Z</time>
      </trkpt>
      <trkpt lat="43.42933" lon="1.94716">
        <ele>237</ele>
        <time>2023-05-27T10:48:54Z</time>
      </trkpt>
      <trkpt lat="43.42931" lon="1.94718">
        <ele>237</ele>
        <time>2023-05-27T10:48:55Z</time>
      </trkpt>
      <trkpt lat="43.42928" lon="1.9472">
        <ele>237</ele>
        <time>2023-05-27T10:48:56Z</time>
      </trkpt>
      <trkpt lat="43.42925" lon="1.94723">
        <ele>237</ele>
        <time>2023-05-27T10:48:57Z</time>
      </trkpt>
      <trkpt lat="43.42922" lon="1.94725">
        <ele>237</ele>
        <time>2023-05-27T10:48:58Z</time>
      </trkpt>
      <trkpt lat="43.42919" lon="1.94726">
        <ele>237</ele>
        <time>2023-05-27T10:48:59Z</time>
      </trkpt>
      <trkpt lat="43.42916" lon="1.94728">
        <ele>237</ele>
        <time>2023-05-27T10:49:00Z</time>
      </trkpt>
      <trkpt lat="43.42913" lon="1.9473">
        <ele>237</ele>
        <time>2023-05-27T10:49:01Z</time>
      </trkpt>
      <trkpt lat="43.42911" lon="1.94732">
        <ele>237</ele>
        <time>2023-05-27T10:49:02Z</time>
      </trkpt>
      <trkpt lat="43.42906" lon="1.94734">
        <ele>237</ele>
        <time>2023-05-27T10:49:03Z</time>
      </trkpt>
      <trkpt lat="43.42903" lon="1.94735">
        <ele>237</ele>
        <time>2023-05-27T10:49:04Z</time>
      </trkpt>
      <trkpt lat="43.42899" lon="1.94737">
        <ele>237</ele>
        <time>2023-05-27T10:49:05Z</time>
      </trkpt>
      <trkpt lat="43.42896" lon="1.94738">
        <ele>237</ele>
        <time>2023-05-27T10:49:06Z</time>
      </trkpt>
      <trkpt lat="43.42893" lon="1.9474">
        <ele>237</ele>
        <time>2023-05-27T10:49:07Z</time>
      </trkpt>
      <trkpt lat="43.4289" lon="1.94742">
        <ele>237</ele>
        <time>2023-05-27T10:49:08Z</time>
      </trkpt>
      <trkpt lat="43.42887" lon="1.94743">
        <ele>237.2</ele>
        <time>2023-05-27T10:49:09Z</time>
      </trkpt>
      <trkpt lat="43.42884" lon="1.94745">
        <ele>237.2</ele>
        <time>2023-05-27T10:49:10Z</time>
      </trkpt>
      <trkpt lat="43.4288" lon="1.94747">
        <ele>237.2</ele>
        <time>2023-05-27T10:49:11Z</time>
      </trkpt>
      <trkpt lat="43.42877" lon="1.94749">
        <ele>237.2</ele>
        <time>2023-05-27T10:49:12Z</time>
      </trkpt>
      <trkpt lat="43.42873" lon="1.94751">
        <ele>237.2</ele>
        <time>2023-05-27T10:49:13Z</time>
      </trkpt>
      <trkpt lat="43.42869" lon="1.94754">
        <ele>237.2</ele>
        <time>2023-05-27T10:49:14Z</time>
      </trkpt>
      <trkpt lat="43.42866" lon="1.94756">
        <ele>237.2</ele>
        <time>2023-05-27T10:49:15Z</time>
      </trkpt>
      <trkpt lat="43.42863" lon="1.94759">
        <ele>237.2</ele>
        <time>2023-05-27T10:49:16Z</time>
      </trkpt>
      <trkpt lat="43.42859" lon="1.94763">
        <ele>237.2</ele>
        <time>2023-05-27T10:49:17Z</time>
      </trkpt>
      <trkpt lat="43.42856" lon="1.94767">
        <ele>237.4</ele>
        <time>2023-05-27T10:49:18Z</time>
      </trkpt>
      <trkpt lat="43.42853" lon="1.94771">
        <ele>237.4</ele>
        <time>2023-05-27T10:49:19Z</time>
      </trkpt>
      <trkpt lat="43.4285" lon="1.94776">
        <ele>237.4</ele>
        <time>2023-05-27T10:49:20Z</time>
      </trkpt>
      <trkpt lat="43.42847" lon="1.9478">
        <ele>237.4</ele>
        <time>2023-05-27T10:49:21Z</time>
      </trkpt>
      <trkpt lat="43.42844" lon="1.94785">
        <ele>237.4</ele>
        <time>2023-05-27T10:49:22Z</time>
      </trkpt>
      <trkpt lat="43.42842" lon="1.9479">
        <ele>237.4</ele>
        <time>2023-05-27T10:49:23Z</time>
      </trkpt>
      <trkpt lat="43.42841" lon="1.94794">
        <ele>237.4</ele>
        <time>2023-05-27T10:49:24Z</time>
      </trkpt>
      <trkpt lat="43.42839" lon="1.94797">
        <ele>237.4</ele>
        <time>2023-05-27T10:49:25Z</time>
      </trkpt>
      <trkpt lat="43.42838" lon="1.94802">
        <ele>237.4</ele>
        <time>2023-05-27T10:49:26Z</time>
      </trkpt>
      <trkpt lat="43.42837" lon="1.94806">
        <ele>237.6</ele>
        <time>2023-05-27T10:49:27Z</time>
      </trkpt>
      <trkpt lat="43.42836" lon="1.9481">
        <ele>237.6</ele>
        <time>2023-05-27T10:49:28Z</time>
      </trkpt>
      <trkpt lat="43.42835" lon="1.94816">
        <ele>237.6</ele>
        <time>2023-05-27T10:49:29Z</time>
      </trkpt>
      <trkpt lat="43.42833" lon="1.94821">
        <ele>237.6</ele>
        <time>2023-05-27T10:49:30Z</time>
      </trkpt>
      <trkpt lat="43.42832" lon="1.94825">
        <ele>237.6</ele>
        <time>2023-05-27T10:49:31Z</time>
      </trkpt>
      <trkpt lat="43.42831" lon="1.94829">
        <ele>237.6</ele>
        <time>2023-05-27T10:49:32Z</time>
      </trkpt>
      <trkpt lat="43.4283" lon="1.94833">
        <ele>237.6</ele>
        <time>2023-05-27T10:49:33Z</time>
      </trkpt>
      <trkpt lat="43.42829" lon="1.94837">
        <ele>237.6</ele>
        <time>2023-05-27T10:49:34Z</time>
      </trkpt>
      <trkpt lat="43.42829" lon="1.94843">
        <ele>237.8</ele>
        <time>2023-05-27T10:49:35Z</time>
      </trkpt>
      <trkpt lat="43.42828" lon="1.94847">
        <ele>237.8</ele>
        <time>2023-05-27T10:49:36Z</time>
      </trkpt>
      <trkpt lat="43.42828" lon="1.94852">
        <ele>237.8</ele>
        <time>2023-05-27T10:49:37Z</time>
      </trkpt>
      <trkpt lat="43.42827" lon="1.94857">
        <ele>237.8</ele>
        <time>2023-05-27T10:49:38Z</time>
      </trkpt>
      <trkpt lat="43.42826" lon="1.94862">
        <ele>237.8</ele>
        <time>2023-05-27T10:49:39Z</time>
      </trkpt>
      <trkpt lat="43.42825" lon="1.94866">
        <ele>237.8</ele>
        <time>2023-05-27T10:49:40Z</time>
      </trkpt>
      <trkpt lat="43.42825" lon="1.94871">
        <ele>237.8</ele>
        <time>2023-05-27T10:49:41Z</time>
      </trkpt>
      <trkpt lat="43.42825" lon="1.94875">
        <ele>237.8</ele>
        <time>2023-05-27T10:49:42Z</time>
      </trkpt>
      <trkpt lat="43.42825" lon="1.9488">
        <ele>237.8</ele>
        <time>2023-05-27T10:49:43Z</time>
      </trkpt>
      <trkpt lat="43.42825" lon="1.94885">
        <ele>237.8</ele>
        <time>2023-05-27T10:49:44Z</time>
      </trkpt>
      <trkpt lat="43.42825" lon="1.94889">
        <ele>237.8</ele>
        <time>2023-05-27T10:49:45Z</time>
      </trkpt>
      <trkpt lat="43.42824" lon="1.94895">
        <ele>237.8</ele>
        <time>2023-05-27T10:49:46Z</time>
      </trkpt>
      <trkpt lat="43.42824" lon="1.949">
        <ele>237.8</ele>
        <time>2023-05-27T10:49:47Z</time>
      </trkpt>
      <trkpt lat="43.42824" lon="1.94905">
        <ele>237.8</ele>
        <time>2023-05-27T10:49:48Z</time>
      </trkpt>
      <trkpt lat="43.42825" lon="1.9491">
        <ele>237.8</ele>
        <time>2023-05-27T10:49:49Z</time>
      </trkpt>
      <trkpt lat="43.42825" lon="1.94914">
        <ele>237.8</ele>
        <time>2023-05-27T10:49:50Z</time>
      </trkpt>
      <trkpt lat="43.42825" lon="1.94919">
        <ele>237.8</ele>
        <time>2023-05-27T10:49:51Z</time>
      </trkpt>
      <trkpt lat="43.42826" lon="1.94924">
        <ele>237.8</ele>
        <time>2023-05-27T10:49:52Z</time>
      </trkpt>
      <trkpt lat="43.42826" lon="1.94929">
        <ele>237.8</ele>
        <time>2023-05-27T10:49:53Z</time>
      </trkpt>
      <trkpt lat="43.42827" lon="1.94935">
        <ele>238</ele>
        <time>2023-05-27T10:49:54Z</time>
      </trkpt>
      <trkpt lat="43.42828" lon="1.94942">
        <ele>238</ele>
        <time>2023-05-27T10:49:55Z</time>
      </trkpt>
      <trkpt lat="43.42829" lon="1.94948">
        <ele>238</ele>
        <time>2023-05-27T10:49:56Z</time>
      </trkpt>
      <trkpt lat="43.4283" lon="1.94952">
        <ele>238</ele>
        <time>2023-05-27T10:49:57Z</time>
      </trkpt>
      <trkpt lat="43.4283" lon="1.94957">
        <ele>238</ele>
        <time>2023-05-27T10:49:58Z</time>
      </trkpt>
      <trkpt lat="43.42831" lon="1.94961">
        <ele>238</ele>
        <time>2023-05-27T10:49:59Z</time>
      </trkpt>
      <trkpt lat="43.42832" lon="1.94966">
        <ele>238</ele>
        <time>2023-05-27T10:50:00Z</time>
      </trkpt>
      <trkpt lat="43.42834" lon="1.94971">
        <ele>238.2</ele>
        <time>2023-05-27T10:50:01Z</time>
      </trkpt>
      <trkpt lat="43.42835" lon="1.94976">
        <ele>238.2</ele>
        <time>2023-05-27T10:50:02Z</time>
      </trkpt>
      <trkpt lat="43.42836" lon="1.94984">
        <ele>238.2</ele>
        <time>2023-05-27T10:50:03Z</time>
      </trkpt>
      <trkpt lat="43.42837" lon="1.9499">
        <ele>238.2</ele>
        <time>2023-05-27T10:50:04Z</time>
      </trkpt>
      <trkpt lat="43.42839" lon="1.94996">
        <ele>238.2</ele>
        <time>2023-05-27T10:50:05Z</time>
      </trkpt>
      <trkpt lat="43.42839" lon="1.95002">
        <ele>238.2</ele>
        <time>2023-05-27T10:50:06Z</time>
      </trkpt>
      <trkpt lat="43.4284" lon="1.95006">
        <ele>238.2</ele>
        <time>2023-05-27T10:50:07Z</time>
      </trkpt>
      <trkpt lat="43.42841" lon="1.95011">
        <ele>238.2</ele>
        <time>2023-05-27T10:50:08Z</time>
      </trkpt>
      <trkpt lat="43.42842" lon="1.95016">
        <ele>238.2</ele>
        <time>2023-05-27T10:50:09Z</time>
      </trkpt>
      <trkpt lat="43.42844" lon="1.95021">
        <ele>238.2</ele>
        <time>2023-05-27T10:50:10Z</time>
      </trkpt>
      <trkpt lat="43.42844" lon="1.95026">
        <ele>238.2</ele>
        <time>2023-05-27T10:50:11Z</time>
      </trkpt>
      <trkpt lat="43.42844" lon="1.95031">
        <ele>238.2</ele>
        <time>2023-05-27T10:50:12Z</time>
      </trkpt>
      <trkpt lat="43.42844" lon="1.95036">
        <ele>238.2</ele>
        <time>2023-05-27T10:50:13Z</time>
      </trkpt>
      <trkpt lat="43.42845" lon="1.95039">
        <ele>238.2</ele>
        <time>2023-05-27T10:50:14Z</time>
      </trkpt>
      <trkpt lat="43.42846" lon="1.95043">
        <ele>238.2</ele>
        <time>2023-05-27T10:50:15Z</time>
      </trkpt>
      <trkpt lat="43.42846" lon="1.95047">
        <ele>238.2</ele>
        <time>2023-05-27T10:50:16Z</time>
      </trkpt>
      <trkpt lat="43.42847" lon="1.95051">
        <ele>238.2</ele>
        <time>2023-05-27T10:50:17Z</time>
      </trkpt>
      <trkpt lat="43.42848" lon="1.95056">
        <ele>238.2</ele>
        <time>2023-05-27T10:50:18Z</time>
      </trkpt>
      <trkpt lat="43.4285" lon="1.9506">
        <ele>238.2</ele>
        <time>2023-05-27T10:50:19Z</time>
      </trkpt>
      <trkpt lat="43.42851" lon="1.95064">
        <ele>238.2</ele>
        <time>2023-05-27T10:50:20Z</time>
      </trkpt>
      <trkpt lat="43.42853" lon="1.95069">
        <ele>238.2</ele>
        <time>2023-05-27T10:50:21Z</time>
      </trkpt>
      <trkpt lat="43.42854" lon="1.95074">
        <ele>238.4</ele>
        <time>2023-05-27T10:50:22Z</time>
      </trkpt>
      <trkpt lat="43.42855" lon="1.95079">
        <ele>238.4</ele>
        <time>2023-05-27T10:50:23Z</time>
      </trkpt>
      <trkpt lat="43.42856" lon="1.95084">
        <ele>238.4</ele>
        <time>2023-05-27T10:50:24Z</time>
      </trkpt>
      <trkpt lat="43.42857" lon="1.95089">
        <ele>238.4</ele>
        <time>2023-05-27T10:50:25Z</time>
      </trkpt>
      <trkpt lat="43.42858" lon="1.95095">
        <ele>238.4</ele>
        <time>2023-05-27T10:50:26Z</time>
      </trkpt>
      <trkpt lat="43.4286" lon="1.95099">
        <ele>238.4</ele>
        <time>2023-05-27T10:50:27Z</time>
      </trkpt>
      <trkpt lat="43.42861" lon="1.95103">
        <ele>238.4</ele>
        <time>2023-05-27T10:50:28Z</time>
      </trkpt>
      <trkpt lat="43.42862" lon="1.95108">
        <ele>238.4</ele>
        <time>2023-05-27T10:50:29Z</time>
      </trkpt>
      <trkpt lat="43.42863" lon="1.95112">
        <ele>238.4</ele>
        <time>2023-05-27T10:50:30Z</time>
      </trkpt>
      <trkpt lat="43.42864" lon="1.95116">
        <ele>238.6</ele>
        <time>2023-05-27T10:50:31Z</time>
      </trkpt>
      <trkpt lat="43.42864" lon="1.95121">
        <ele>238.6</ele>
        <time>2023-05-27T10:50:32Z</time>
      </trkpt>
      <trkpt lat="43.42865" lon="1.95125">
        <ele>238.6</ele>
        <time>2023-05-27T10:50:33Z</time>
      </trkpt>
      <trkpt lat="43.42866" lon="1.9513">
        <ele>238.6</ele>
        <time>2023-05-27T10:50:34Z</time>
      </trkpt>
      <trkpt lat="43.42868" lon="1.95136">
        <ele>238.6</ele>
        <time>2023-05-27T10:50:35Z</time>
      </trkpt>
      <trkpt lat="43.42868" lon="1.95142">
        <ele>238.6</ele>
        <time>2023-05-27T10:50:36Z</time>
      </trkpt>
      <trkpt lat="43.42868" lon="1.95147">
        <ele>238.6</ele>
        <time>2023-05-27T10:50:37Z</time>
      </trkpt>
      <trkpt lat="43.42868" lon="1.95154">
        <ele>238.6</ele>
        <time>2023-05-27T10:50:38Z</time>
      </trkpt>
      <trkpt lat="43.42869" lon="1.9516">
        <ele>238.6</ele>
        <time>2023-05-27T10:50:39Z</time>
      </trkpt>
      <trkpt lat="43.42871" lon="1.95165">
        <ele>238.6</ele>
        <time>2023-05-27T10:50:40Z</time>
      </trkpt>
      <trkpt lat="43.42873" lon="1.9517">
        <ele>238.6</ele>
        <time>2023-05-27T10:50:41Z</time>
      </trkpt>
      <trkpt lat="43.42874" lon="1.95175">
        <ele>238.6</ele>
        <time>2023-05-27T10:50:42Z</time>
      </trkpt>
      <trkpt lat="43.42876" lon="1.95181">
        <ele>238.6</ele>
        <time>2023-05-27T10:50:43Z</time>
      </trkpt>
      <trkpt lat="43.42877" lon="1.95186">
        <ele>238.6</ele>
        <time>2023-05-27T10:50:44Z</time>
      </trkpt>
      <trkpt lat="43.42878" lon="1.95192">
        <ele>238.6</ele>
        <time>2023-05-27T10:50:45Z</time>
      </trkpt>
      <trkpt lat="43.42879" lon="1.95196">
        <ele>238.6</ele>
        <time>2023-05-27T10:50:46Z</time>
      </trkpt>
      <trkpt lat="43.42881" lon="1.952">
        <ele>238.6</ele>
        <time>2023-05-27T10:50:47Z</time>
      </trkpt>
      <trkpt lat="43.42884" lon="1.95204">
        <ele>238.6</ele>
        <time>2023-05-27T10:50:48Z</time>
      </trkpt>
      <trkpt lat="43.42887" lon="1.95209">
        <ele>238.6</ele>
        <time>2023-05-27T10:50:49Z</time>
      </trkpt>
      <trkpt lat="43.42889" lon="1.95213">
        <ele>238.6</ele>
        <time>2023-05-27T10:50:50Z</time>
      </trkpt>
      <trkpt lat="43.42892" lon="1.95218">
        <ele>238.6</ele>
        <time>2023-05-27T10:50:51Z</time>
      </trkpt>
      <trkpt lat="43.42896" lon="1.95222">
        <ele>238.8</ele>
        <time>2023-05-27T10:50:52Z</time>
      </trkpt>
      <trkpt lat="43.42898" lon="1.95226">
        <ele>238.8</ele>
        <time>2023-05-27T10:50:53Z</time>
      </trkpt>
      <trkpt lat="43.429" lon="1.95229">
        <ele>238.8</ele>
        <time>2023-05-27T10:50:54Z</time>
      </trkpt>
      <trkpt lat="43.42903" lon="1.95234">
        <ele>238.8</ele>
        <time>2023-05-27T10:50:55Z</time>
      </trkpt>
      <trkpt lat="43.42904" lon="1.95239">
        <ele>238.6</ele>
        <time>2023-05-27T10:50:56Z</time>
      </trkpt>
      <trkpt lat="43.42907" lon="1.95244">
        <ele>238.6</ele>
        <time>2023-05-27T10:50:57Z</time>
      </trkpt>
      <trkpt lat="43.42909" lon="1.95247">
        <ele>238.6</ele>
        <time>2023-05-27T10:50:58Z</time>
      </trkpt>
      <trkpt lat="43.42911" lon="1.9525">
        <ele>238.6</ele>
        <time>2023-05-27T10:50:59Z</time>
      </trkpt>
      <trkpt lat="43.42913" lon="1.95252">
        <ele>238.6</ele>
        <time>2023-05-27T10:51:00Z</time>
      </trkpt>
      <trkpt lat="43.42916" lon="1.95255">
        <ele>238.6</ele>
        <time>2023-05-27T10:51:01Z</time>
      </trkpt>
      <trkpt lat="43.42917" lon="1.95258">
        <ele>238.6</ele>
        <time>2023-05-27T10:51:02Z</time>
      </trkpt>
      <trkpt lat="43.42919" lon="1.95261">
        <ele>238.6</ele>
        <time>2023-05-27T10:51:03Z</time>
      </trkpt>
      <trkpt lat="43.42921" lon="1.95265">
        <ele>238.6</ele>
        <time>2023-05-27T10:51:04Z</time>
      </trkpt>
      <trkpt lat="43.42923" lon="1.95268">
        <ele>238.6</ele>
        <time>2023-05-27T10:51:05Z</time>
      </trkpt>
      <trkpt lat="43.42926" lon="1.95271">
        <ele>238.8</ele>
        <time>2023-05-27T10:51:06Z</time>
      </trkpt>
      <trkpt lat="43.42928" lon="1.95275">
        <ele>238.8</ele>
        <time>2023-05-27T10:51:07Z</time>
      </trkpt>
      <trkpt lat="43.42931" lon="1.95279">
        <ele>238.8</ele>
        <time>2023-05-27T10:51:08Z</time>
      </trkpt>
      <trkpt lat="43.42933" lon="1.95282">
        <ele>238.8</ele>
        <time>2023-05-27T10:51:09Z</time>
      </trkpt>
      <trkpt lat="43.42935" lon="1.95285">
        <ele>238.8</ele>
        <time>2023-05-27T10:51:10Z</time>
      </trkpt>
      <trkpt lat="43.42937" lon="1.95289">
        <ele>238.8</ele>
        <time>2023-05-27T10:51:11Z</time>
      </trkpt>
      <trkpt lat="43.4294" lon="1.95293">
        <ele>238.8</ele>
        <time>2023-05-27T10:51:12Z</time>
      </trkpt>
      <trkpt lat="43.42942" lon="1.95296">
        <ele>238.8</ele>
        <time>2023-05-27T10:51:13Z</time>
      </trkpt>
      <trkpt lat="43.42945" lon="1.953">
        <ele>238.8</ele>
        <time>2023-05-27T10:51:14Z</time>
      </trkpt>
      <trkpt lat="43.42947" lon="1.95303">
        <ele>238.8</ele>
        <time>2023-05-27T10:51:15Z</time>
      </trkpt>
      <trkpt lat="43.4295" lon="1.95307">
        <ele>238.8</ele>
        <time>2023-05-27T10:51:16Z</time>
      </trkpt>
      <trkpt lat="43.42952" lon="1.9531">
        <ele>238.8</ele>
        <time>2023-05-27T10:51:17Z</time>
      </trkpt>
      <trkpt lat="43.42954" lon="1.95314">
        <ele>238.8</ele>
        <time>2023-05-27T10:51:18Z</time>
      </trkpt>
      <trkpt lat="43.42956" lon="1.95318">
        <ele>238.8</ele>
        <time>2023-05-27T10:51:19Z</time>
      </trkpt>
      <trkpt lat="43.42959" lon="1.95321">
        <ele>238.8</ele>
        <time>2023-05-27T10:51:20Z</time>
      </trkpt>
      <trkpt lat="43.42963" lon="1.95326">
        <ele>238.8</ele>
        <time>2023-05-27T10:51:21Z</time>
      </trkpt>
      <trkpt lat="43.42965" lon="1.9533">
        <ele>239</ele>
        <time>2023-05-27T10:51:22Z</time>
      </trkpt>
      <trkpt lat="43.42967" lon="1.95334">
        <ele>239</ele>
        <time>2023-05-27T10:51:23Z</time>
      </trkpt>
      <trkpt lat="43.42969" lon="1.95338">
        <ele>239</ele>
        <time>2023-05-27T10:51:24Z</time>
      </trkpt>
      <trkpt lat="43.4297" lon="1.9534">
        <ele>239</ele>
        <time>2023-05-27T10:51:25Z</time>
      </trkpt>
      <trkpt lat="43.42972" lon="1.95343">
        <ele>239</ele>
        <time>2023-05-27T10:51:26Z</time>
      </trkpt>
      <trkpt lat="43.42975" lon="1.95346">
        <ele>239</ele>
        <time>2023-05-27T10:51:27Z</time>
      </trkpt>
      <trkpt lat="43.42978" lon="1.95349">
        <ele>239</ele>
        <time>2023-05-27T10:51:28Z</time>
      </trkpt>
      <trkpt lat="43.4298" lon="1.95354">
        <ele>239</ele>
        <time>2023-05-27T10:51:29Z</time>
      </trkpt>
      <trkpt lat="43.42982" lon="1.95357">
        <ele>239</ele>
        <time>2023-05-27T10:51:30Z</time>
      </trkpt>
      <trkpt lat="43.42984" lon="1.95361">
        <ele>239</ele>
        <time>2023-05-27T10:51:31Z</time>
      </trkpt>
      <trkpt lat="43.42984" lon="1.95363">
        <ele>239.2</ele>
        <time>2023-05-27T10:51:32Z</time>
      </trkpt>
      <trkpt lat="43.42985" lon="1.95365">
        <ele>239.2</ele>
        <time>2023-05-27T10:51:33Z</time>
      </trkpt>
      <trkpt lat="43.42985" lon="1.95368">
        <ele>239.2</ele>
        <time>2023-05-27T10:51:34Z</time>
      </trkpt>
      <trkpt lat="43.42987" lon="1.95371">
        <ele>239.2</ele>
        <time>2023-05-27T10:51:35Z</time>
      </trkpt>
      <trkpt lat="43.42988" lon="1.95375">
        <ele>239</ele>
        <time>2023-05-27T10:51:36Z</time>
      </trkpt>
      <trkpt lat="43.42989" lon="1.9538">
        <ele>239</ele>
        <time>2023-05-27T10:51:37Z</time>
      </trkpt>
      <trkpt lat="43.4299" lon="1.95384">
        <ele>239</ele>
        <time>2023-05-27T10:51:38Z</time>
      </trkpt>
      <trkpt lat="43.42992" lon="1.95389">
        <ele>239</ele>
        <time>2023-05-27T10:51:39Z</time>
      </trkpt>
      <trkpt lat="43.42994" lon="1.95394">
        <ele>239</ele>
        <time>2023-05-27T10:51:40Z</time>
      </trkpt>
      <trkpt lat="43.42996" lon="1.95399">
        <ele>239</ele>
        <time>2023-05-27T10:51:41Z</time>
      </trkpt>
      <trkpt lat="43.42997" lon="1.95404">
        <ele>239</ele>
        <time>2023-05-27T10:51:42Z</time>
      </trkpt>
      <trkpt lat="43.42999" lon="1.95409">
        <ele>239</ele>
        <time>2023-05-27T10:51:43Z</time>
      </trkpt>
      <trkpt lat="43.43" lon="1.95414">
        <ele>239</ele>
        <time>2023-05-27T10:51:44Z</time>
      </trkpt>
      <trkpt lat="43.43001" lon="1.95419">
        <ele>239</ele>
        <time>2023-05-27T10:51:45Z</time>
      </trkpt>
      <trkpt lat="43.43002" lon="1.95423">
        <ele>239.2</ele>
        <time>2023-05-27T10:51:46Z</time>
      </trkpt>
      <trkpt lat="43.43002" lon="1.95429">
        <ele>239.2</ele>
        <time>2023-05-27T10:51:47Z</time>
      </trkpt>
      <trkpt lat="43.43003" lon="1.95433">
        <ele>239.2</ele>
        <time>2023-05-27T10:51:48Z</time>
      </trkpt>
      <trkpt lat="43.43002" lon="1.95437">
        <ele>239.2</ele>
        <time>2023-05-27T10:51:49Z</time>
      </trkpt>
      <trkpt lat="43.43001" lon="1.95441">
        <ele>239.2</ele>
        <time>2023-05-27T10:51:50Z</time>
      </trkpt>
      <trkpt lat="43.43" lon="1.95445">
        <ele>239.2</ele>
        <time>2023-05-27T10:51:51Z</time>
      </trkpt>
      <trkpt lat="43.43" lon="1.95449">
        <ele>239.2</ele>
        <time>2023-05-27T10:51:52Z</time>
      </trkpt>
      <trkpt lat="43.42999" lon="1.95453">
        <ele>239.2</ele>
        <time>2023-05-27T10:51:53Z</time>
      </trkpt>
      <trkpt lat="43.42999" lon="1.95457">
        <ele>239.2</ele>
        <time>2023-05-27T10:51:54Z</time>
      </trkpt>
      <trkpt lat="43.43" lon="1.95461">
        <ele>239.2</ele>
        <time>2023-05-27T10:51:55Z</time>
      </trkpt>
      <trkpt lat="43.43" lon="1.95465">
        <ele>239.2</ele>
        <time>2023-05-27T10:51:56Z</time>
      </trkpt>
      <trkpt lat="43.43" lon="1.9547">
        <ele>239.2</ele>
        <time>2023-05-27T10:51:57Z</time>
      </trkpt>
      <trkpt lat="43.43" lon="1.95475">
        <ele>239</ele>
        <time>2023-05-27T10:51:58Z</time>
      </trkpt>
      <trkpt lat="43.43" lon="1.9548">
        <ele>239</ele>
        <time>2023-05-27T10:51:59Z</time>
      </trkpt>
      <trkpt lat="43.42999" lon="1.95485">
        <ele>239</ele>
        <time>2023-05-27T10:52:00Z</time>
      </trkpt>
      <trkpt lat="43.42997" lon="1.95489">
        <ele>238.8</ele>
        <time>2023-05-27T10:52:01Z</time>
      </trkpt>
      <trkpt lat="43.42996" lon="1.95493">
        <ele>238.8</ele>
        <time>2023-05-27T10:52:02Z</time>
      </trkpt>
      <trkpt lat="43.42996" lon="1.95497">
        <ele>238.8</ele>
        <time>2023-05-27T10:52:03Z</time>
      </trkpt>
      <trkpt lat="43.42996" lon="1.95502">
        <ele>238.6</ele>
        <time>2023-05-27T10:52:04Z</time>
      </trkpt>
      <trkpt lat="43.42997" lon="1.95508">
        <ele>238.6</ele>
        <time>2023-05-27T10:52:05Z</time>
      </trkpt>
      <trkpt lat="43.43" lon="1.95513">
        <ele>238.4</ele>
        <time>2023-05-27T10:52:06Z</time>
      </trkpt>
      <trkpt lat="43.43003" lon="1.95518">
        <ele>238.4</ele>
        <time>2023-05-27T10:52:07Z</time>
      </trkpt>
      <trkpt lat="43.43007" lon="1.95523">
        <ele>238.4</ele>
        <time>2023-05-27T10:52:08Z</time>
      </trkpt>
      <trkpt lat="43.4301" lon="1.95526">
        <ele>238.4</ele>
        <time>2023-05-27T10:52:09Z</time>
      </trkpt>
      <trkpt lat="43.43013" lon="1.95529">
        <ele>238.4</ele>
        <time>2023-05-27T10:52:10Z</time>
      </trkpt>
      <trkpt lat="43.43017" lon="1.95533">
        <ele>238.4</ele>
        <time>2023-05-27T10:52:11Z</time>
      </trkpt>
      <trkpt lat="43.4302" lon="1.95537">
        <ele>238.4</ele>
        <time>2023-05-27T10:52:12Z</time>
      </trkpt>
      <trkpt lat="43.43024" lon="1.95542">
        <ele>238.4</ele>
        <time>2023-05-27T10:52:13Z</time>
      </trkpt>
      <trkpt lat="43.43027" lon="1.95545">
        <ele>238.4</ele>
        <time>2023-05-27T10:52:14Z</time>
      </trkpt>
      <trkpt lat="43.4303" lon="1.95549">
        <ele>238.4</ele>
        <time>2023-05-27T10:52:15Z</time>
      </trkpt>
      <trkpt lat="43.43032" lon="1.95552">
        <ele>238.4</ele>
        <time>2023-05-27T10:52:16Z</time>
      </trkpt>
      <trkpt lat="43.43035" lon="1.95555">
        <ele>238.4</ele>
        <time>2023-05-27T10:52:17Z</time>
      </trkpt>
      <trkpt lat="43.43037" lon="1.95558">
        <ele>238.4</ele>
        <time>2023-05-27T10:52:18Z</time>
      </trkpt>
      <trkpt lat="43.43039" lon="1.9556">
        <ele>238.4</ele>
        <time>2023-05-27T10:52:19Z</time>
      </trkpt>
      <trkpt lat="43.43041" lon="1.95563">
        <ele>238.4</ele>
        <time>2023-05-27T10:52:20Z</time>
      </trkpt>
      <trkpt lat="43.43044" lon="1.95566">
        <ele>238.4</ele>
        <time>2023-05-27T10:52:21Z</time>
      </trkpt>
      <trkpt lat="43.43048" lon="1.95569">
        <ele>238.4</ele>
        <time>2023-05-27T10:52:22Z</time>
      </trkpt>
      <trkpt lat="43.43053" lon="1.95571">
        <ele>238.4</ele>
        <time>2023-05-27T10:52:23Z</time>
      </trkpt>
      <trkpt lat="43.43057" lon="1.95572">
        <ele>238.4</ele>
        <time>2023-05-27T10:52:24Z</time>
      </trkpt>
      <trkpt lat="43.43063" lon="1.95573">
        <ele>238.2</ele>
        <time>2023-05-27T10:52:25Z</time>
      </trkpt>
      <trkpt lat="43.43067" lon="1.95573">
        <ele>238.2</ele>
        <time>2023-05-27T10:52:26Z</time>
      </trkpt>
      <trkpt lat="43.43071" lon="1.95573">
        <ele>238.2</ele>
        <time>2023-05-27T10:52:27Z</time>
      </trkpt>
      <trkpt lat="43.43077" lon="1.95571">
        <ele>238</ele>
        <time>2023-05-27T10:52:28Z</time>
      </trkpt>
      <trkpt lat="43.43081" lon="1.95569">
        <ele>238</ele>
        <time>2023-05-27T10:52:29Z</time>
      </trkpt>
      <trkpt lat="43.43085" lon="1.95567">
        <ele>238</ele>
        <time>2023-05-27T10:52:30Z</time>
      </trkpt>
      <trkpt lat="43.43089" lon="1.95563">
        <ele>238</ele>
        <time>2023-05-27T10:52:31Z</time>
      </trkpt>
      <trkpt lat="43.43093" lon="1.95561">
        <ele>237.8</ele>
        <time>2023-05-27T10:52:32Z</time>
      </trkpt>
      <trkpt lat="43.43099" lon="1.95561">
        <ele>237.8</ele>
        <time>2023-05-27T10:52:33Z</time>
      </trkpt>
      <trkpt lat="43.43103" lon="1.95559">
        <ele>237.8</ele>
        <time>2023-05-27T10:52:34Z</time>
      </trkpt>
      <trkpt lat="43.43107" lon="1.95556">
        <ele>237.8</ele>
        <time>2023-05-27T10:52:35Z</time>
      </trkpt>
      <trkpt lat="43.43112" lon="1.95553">
        <ele>237.8</ele>
        <time>2023-05-27T10:52:36Z</time>
      </trkpt>
      <trkpt lat="43.43117" lon="1.95551">
        <ele>237.6</ele>
        <time>2023-05-27T10:52:37Z</time>
      </trkpt>
      <trkpt lat="43.43121" lon="1.9555">
        <ele>237.6</ele>
        <time>2023-05-27T10:52:38Z</time>
      </trkpt>
      <trkpt lat="43.43125" lon="1.95547">
        <ele>237.6</ele>
        <time>2023-05-27T10:52:39Z</time>
      </trkpt>
      <trkpt lat="43.43129" lon="1.95543">
        <ele>237.6</ele>
        <time>2023-05-27T10:52:40Z</time>
      </trkpt>
      <trkpt lat="43.43133" lon="1.95541">
        <ele>237.6</ele>
        <time>2023-05-27T10:52:41Z</time>
      </trkpt>
      <trkpt lat="43.43137" lon="1.9554">
        <ele>237.6</ele>
        <time>2023-05-27T10:52:42Z</time>
      </trkpt>
      <trkpt lat="43.43141" lon="1.95538">
        <ele>237.6</ele>
        <time>2023-05-27T10:52:43Z</time>
      </trkpt>
      <trkpt lat="43.43144" lon="1.95534">
        <ele>237.6</ele>
        <time>2023-05-27T10:52:44Z</time>
      </trkpt>
      <trkpt lat="43.43148" lon="1.95533">
        <ele>237.6</ele>
        <time>2023-05-27T10:52:45Z</time>
      </trkpt>
      <trkpt lat="43.43151" lon="1.9553">
        <ele>237.6</ele>
        <time>2023-05-27T10:52:46Z</time>
      </trkpt>
      <trkpt lat="43.43155" lon="1.95526">
        <ele>237.6</ele>
        <time>2023-05-27T10:52:47Z</time>
      </trkpt>
      <trkpt lat="43.43158" lon="1.95524">
        <ele>237.6</ele>
        <time>2023-05-27T10:52:48Z</time>
      </trkpt>
      <trkpt lat="43.43162" lon="1.95523">
        <ele>237.6</ele>
        <time>2023-05-27T10:52:49Z</time>
      </trkpt>
      <trkpt lat="43.43165" lon="1.95521">
        <ele>237.6</ele>
        <time>2023-05-27T10:52:50Z</time>
      </trkpt>
      <trkpt lat="43.43169" lon="1.95519">
        <ele>237.6</ele>
        <time>2023-05-27T10:52:51Z</time>
      </trkpt>
      <trkpt lat="43.43172" lon="1.95517">
        <ele>237.6</ele>
        <time>2023-05-27T10:52:52Z</time>
      </trkpt>
      <trkpt lat="43.43176" lon="1.95516">
        <ele>237.6</ele>
        <time>2023-05-27T10:52:53Z</time>
      </trkpt>
      <trkpt lat="43.43179" lon="1.95514">
        <ele>237.6</ele>
        <time>2023-05-27T10:52:54Z</time>
      </trkpt>
      <trkpt lat="43.43183" lon="1.95512">
        <ele>237.6</ele>
        <time>2023-05-27T10:52:55Z</time>
      </trkpt>
      <trkpt lat="43.43187" lon="1.9551">
        <ele>237.4</ele>
        <time>2023-05-27T10:52:56Z</time>
      </trkpt>
      <trkpt lat="43.43192" lon="1.95508">
        <ele>237.4</ele>
        <time>2023-05-27T10:52:57Z</time>
      </trkpt>
      <trkpt lat="43.43195" lon="1.95506">
        <ele>237.4</ele>
        <time>2023-05-27T10:52:58Z</time>
      </trkpt>
      <trkpt lat="43.43199" lon="1.95504">
        <ele>237.6</ele>
        <time>2023-05-27T10:52:59Z</time>
      </trkpt>
      <trkpt lat="43.43203" lon="1.95503">
        <ele>237.6</ele>
        <time>2023-05-27T10:53:00Z</time>
      </trkpt>
      <trkpt lat="43.43207" lon="1.95502">
        <ele>237.6</ele>
        <time>2023-05-27T10:53:01Z</time>
      </trkpt>
      <trkpt lat="43.4321" lon="1.95502">
        <ele>237.6</ele>
        <time>2023-05-27T10:53:02Z</time>
      </trkpt>
      <trkpt lat="43.43213" lon="1.95502">
        <ele>237.6</ele>
        <time>2023-05-27T10:53:03Z</time>
      </trkpt>
      <trkpt lat="43.43215" lon="1.95502">
        <ele>237.6</ele>
        <time>2023-05-27T10:53:04Z</time>
      </trkpt>
      <trkpt lat="43.43218" lon="1.95504">
        <ele>237.8</ele>
        <time>2023-05-27T10:53:05Z</time>
      </trkpt>
      <trkpt lat="43.4322" lon="1.95505">
        <ele>237.8</ele>
        <time>2023-05-27T10:53:06Z</time>
      </trkpt>
      <trkpt lat="43.43222" lon="1.95506">
        <ele>237.8</ele>
        <time>2023-05-27T10:53:07Z</time>
      </trkpt>
      <trkpt lat="43.43225" lon="1.95507">
        <ele>238</ele>
        <time>2023-05-27T10:53:08Z</time>
      </trkpt>
      <trkpt lat="43.43228" lon="1.95507">
        <ele>238</ele>
        <time>2023-05-27T10:53:09Z</time>
      </trkpt>
      <trkpt lat="43.43231" lon="1.95509">
        <ele>238</ele>
        <time>2023-05-27T10:53:10Z</time>
      </trkpt>
      <trkpt lat="43.43236" lon="1.9551">
        <ele>238</ele>
        <time>2023-05-27T10:53:11Z</time>
      </trkpt>
      <trkpt lat="43.43239" lon="1.95512">
        <ele>238</ele>
        <time>2023-05-27T10:53:12Z</time>
      </trkpt>
      <trkpt lat="43.43243" lon="1.95513">
        <ele>238</ele>
        <time>2023-05-27T10:53:13Z</time>
      </trkpt>
      <trkpt lat="43.43247" lon="1.95514">
        <ele>238</ele>
        <time>2023-05-27T10:53:14Z</time>
      </trkpt>
      <trkpt lat="43.43251" lon="1.95515">
        <ele>238</ele>
        <time>2023-05-27T10:53:15Z</time>
      </trkpt>
      <trkpt lat="43.43256" lon="1.95516">
        <ele>238</ele>
        <time>2023-05-27T10:53:16Z</time>
      </trkpt>
      <trkpt lat="43.43259" lon="1.95516">
        <ele>238</ele>
        <time>2023-05-27T10:53:17Z</time>
      </trkpt>
      <trkpt lat="43.43264" lon="1.95517">
        <ele>238</ele>
        <time>2023-05-27T10:53:18Z</time>
      </trkpt>
      <trkpt lat="43.43268" lon="1.95517">
        <ele>238</ele>
        <time>2023-05-27T10:53:19Z</time>
      </trkpt>
      <trkpt lat="43.43271" lon="1.95517">
        <ele>238</ele>
        <time>2023-05-27T10:53:20Z</time>
      </trkpt>
      <trkpt lat="43.43276" lon="1.95518">
        <ele>238</ele>
        <time>2023-05-27T10:53:21Z</time>
      </trkpt>
      <trkpt lat="43.4328" lon="1.95517">
        <ele>238</ele>
        <time>2023-05-27T10:53:22Z</time>
      </trkpt>
      <trkpt lat="43.43284" lon="1.95517">
        <ele>238</ele>
        <time>2023-05-27T10:53:23Z</time>
      </trkpt>
      <trkpt lat="43.43288" lon="1.95517">
        <ele>238</ele>
        <time>2023-05-27T10:53:24Z</time>
      </trkpt>
      <trkpt lat="43.43291" lon="1.95517">
        <ele>238</ele>
        <time>2023-05-27T10:53:25Z</time>
      </trkpt>
      <trkpt lat="43.43295" lon="1.95517">
        <ele>238</ele>
        <time>2023-05-27T10:53:26Z</time>
      </trkpt>
      <trkpt lat="43.43299" lon="1.95516">
        <ele>238</ele>
        <time>2023-05-27T10:53:27Z</time>
      </trkpt>
      <trkpt lat="43.43302" lon="1.95516">
        <ele>238</ele>
        <time>2023-05-27T10:53:28Z</time>
      </trkpt>
      <trkpt lat="43.43306" lon="1.95515">
        <ele>238</ele>
        <time>2023-05-27T10:53:29Z</time>
      </trkpt>
      <trkpt lat="43.43308" lon="1.95515">
        <ele>238.2</ele>
        <time>2023-05-27T10:53:30Z</time>
      </trkpt>
      <trkpt lat="43.43312" lon="1.95514">
        <ele>238.2</ele>
        <time>2023-05-27T10:53:31Z</time>
      </trkpt>
      <trkpt lat="43.43315" lon="1.95514">
        <ele>238.2</ele>
        <time>2023-05-27T10:53:32Z</time>
      </trkpt>
      <trkpt lat="43.43319" lon="1.95514">
        <ele>238.2</ele>
        <time>2023-05-27T10:53:33Z</time>
      </trkpt>
      <trkpt lat="43.43321" lon="1.95513">
        <ele>238.2</ele>
        <time>2023-05-27T10:53:34Z</time>
      </trkpt>
      <trkpt lat="43.43325" lon="1.95513">
        <ele>238.2</ele>
        <time>2023-05-27T10:53:35Z</time>
      </trkpt>
      <trkpt lat="43.43329" lon="1.95513">
        <ele>238.2</ele>
        <time>2023-05-27T10:53:36Z</time>
      </trkpt>
      <trkpt lat="43.43332" lon="1.95514">
        <ele>238.2</ele>
        <time>2023-05-27T10:53:37Z</time>
      </trkpt>
      <trkpt lat="43.43336" lon="1.95514">
        <ele>238.2</ele>
        <time>2023-05-27T10:53:38Z</time>
      </trkpt>
      <trkpt lat="43.4334" lon="1.95514">
        <ele>238.2</ele>
        <time>2023-05-27T10:53:39Z</time>
      </trkpt>
      <trkpt lat="43.43343" lon="1.95515">
        <ele>238.2</ele>
        <time>2023-05-27T10:53:40Z</time>
      </trkpt>
      <trkpt lat="43.43346" lon="1.95515">
        <ele>238.2</ele>
        <time>2023-05-27T10:53:41Z</time>
      </trkpt>
      <trkpt lat="43.4335" lon="1.95515">
        <ele>238.2</ele>
        <time>2023-05-27T10:53:42Z</time>
      </trkpt>
      <trkpt lat="43.43353" lon="1.95515">
        <ele>238.2</ele>
        <time>2023-05-27T10:53:43Z</time>
      </trkpt>
      <trkpt lat="43.43358" lon="1.95516">
        <ele>238.2</ele>
        <time>2023-05-27T10:53:44Z</time>
      </trkpt>
      <trkpt lat="43.43362" lon="1.95516">
        <ele>238.4</ele>
        <time>2023-05-27T10:53:45Z</time>
      </trkpt>
      <trkpt lat="43.43366" lon="1.95517">
        <ele>238.4</ele>
        <time>2023-05-27T10:53:46Z</time>
      </trkpt>
      <trkpt lat="43.43371" lon="1.95518">
        <ele>238.4</ele>
        <time>2023-05-27T10:53:47Z</time>
      </trkpt>
      <trkpt lat="43.43376" lon="1.95519">
        <ele>238.4</ele>
        <time>2023-05-27T10:53:48Z</time>
      </trkpt>
      <trkpt lat="43.4338" lon="1.9552">
        <ele>238.4</ele>
        <time>2023-05-27T10:53:49Z</time>
      </trkpt>
      <trkpt lat="43.43384" lon="1.95521">
        <ele>238.4</ele>
        <time>2023-05-27T10:53:50Z</time>
      </trkpt>
      <trkpt lat="43.43389" lon="1.95521">
        <ele>238.4</ele>
        <time>2023-05-27T10:53:51Z</time>
      </trkpt>
      <trkpt lat="43.43393" lon="1.95522">
        <ele>238.4</ele>
        <time>2023-05-27T10:53:52Z</time>
      </trkpt>
      <trkpt lat="43.43398" lon="1.95524">
        <ele>238.4</ele>
        <time>2023-05-27T10:53:53Z</time>
      </trkpt>
      <trkpt lat="43.43402" lon="1.95525">
        <ele>238.4</ele>
        <time>2023-05-27T10:53:54Z</time>
      </trkpt>
      <trkpt lat="43.43406" lon="1.95526">
        <ele>238.4</ele>
        <time>2023-05-27T10:53:55Z</time>
      </trkpt>
      <trkpt lat="43.43409" lon="1.95526">
        <ele>238.4</ele>
        <time>2023-05-27T10:53:56Z</time>
      </trkpt>
      <trkpt lat="43.43413" lon="1.95527">
        <ele>238.4</ele>
        <time>2023-05-27T10:53:57Z</time>
      </trkpt>
      <trkpt lat="43.43417" lon="1.95528">
        <ele>238.4</ele>
        <time>2023-05-27T10:53:58Z</time>
      </trkpt>
      <trkpt lat="43.4342" lon="1.9553">
        <ele>238.4</ele>
        <time>2023-05-27T10:53:59Z</time>
      </trkpt>
      <trkpt lat="43.43423" lon="1.95533">
        <ele>238.4</ele>
        <time>2023-05-27T10:54:00Z</time>
      </trkpt>
      <trkpt lat="43.43427" lon="1.95536">
        <ele>238.4</ele>
        <time>2023-05-27T10:54:01Z</time>
      </trkpt>
      <trkpt lat="43.43431" lon="1.95539">
        <ele>238.4</ele>
        <time>2023-05-27T10:54:02Z</time>
      </trkpt>
      <trkpt lat="43.43435" lon="1.95542">
        <ele>238.4</ele>
        <time>2023-05-27T10:54:03Z</time>
      </trkpt>
      <trkpt lat="43.43438" lon="1.95544">
        <ele>238.4</ele>
        <time>2023-05-27T10:54:04Z</time>
      </trkpt>
      <trkpt lat="43.43442" lon="1.95547">
        <ele>238.4</ele>
        <time>2023-05-27T10:54:05Z</time>
      </trkpt>
      <trkpt lat="43.43445" lon="1.95551">
        <ele>238.4</ele>
        <time>2023-05-27T10:54:06Z</time>
      </trkpt>
      <trkpt lat="43.43449" lon="1.95555">
        <ele>238.4</ele>
        <time>2023-05-27T10:54:07Z</time>
      </trkpt>
      <trkpt lat="43.43452" lon="1.95558">
        <ele>238.4</ele>
        <time>2023-05-27T10:54:08Z</time>
      </trkpt>
      <trkpt lat="43.43454" lon="1.95561">
        <ele>238.4</ele>
        <time>2023-05-27T10:54:09Z</time>
      </trkpt>
      <trkpt lat="43.43457" lon="1.95563">
        <ele>238.4</ele>
        <time>2023-05-27T10:54:10Z</time>
      </trkpt>
      <trkpt lat="43.4346" lon="1.95565">
        <ele>238.4</ele>
        <time>2023-05-27T10:54:11Z</time>
      </trkpt>
      <trkpt lat="43.43462" lon="1.95567">
        <ele>238.4</ele>
        <time>2023-05-27T10:54:12Z</time>
      </trkpt>
      <trkpt lat="43.43465" lon="1.95568">
        <ele>238.4</ele>
        <time>2023-05-27T10:54:13Z</time>
      </trkpt>
      <trkpt lat="43.43468" lon="1.95569">
        <ele>238.4</ele>
        <time>2023-05-27T10:54:14Z</time>
      </trkpt>
      <trkpt lat="43.43472" lon="1.9557">
        <ele>238.4</ele>
        <time>2023-05-27T10:54:15Z</time>
      </trkpt>
      <trkpt lat="43.43475" lon="1.95571">
        <ele>238.6</ele>
        <time>2023-05-27T10:54:16Z</time>
      </trkpt>
      <trkpt lat="43.43477" lon="1.95571">
        <ele>238.6</ele>
        <time>2023-05-27T10:54:17Z</time>
      </trkpt>
      <trkpt lat="43.4348" lon="1.95571">
        <ele>238.6</ele>
        <time>2023-05-27T10:54:18Z</time>
      </trkpt>
      <trkpt lat="43.43484" lon="1.95571">
        <ele>238.6</ele>
        <time>2023-05-27T10:54:19Z</time>
      </trkpt>
      <trkpt lat="43.43487" lon="1.9557">
        <ele>238.6</ele>
        <time>2023-05-27T10:54:20Z</time>
      </trkpt>
      <trkpt lat="43.4349" lon="1.95569">
        <ele>238.6</ele>
        <time>2023-05-27T10:54:21Z</time>
      </trkpt>
      <trkpt lat="43.43492" lon="1.95568">
        <ele>238.6</ele>
        <time>2023-05-27T10:54:22Z</time>
      </trkpt>
      <trkpt lat="43.43495" lon="1.95567">
        <ele>238.6</ele>
        <time>2023-05-27T10:54:23Z</time>
      </trkpt>
      <trkpt lat="43.43497" lon="1.95565">
        <ele>238.6</ele>
        <time>2023-05-27T10:54:24Z</time>
      </trkpt>
      <trkpt lat="43.435" lon="1.95564">
        <ele>238.6</ele>
        <time>2023-05-27T10:54:25Z</time>
      </trkpt>
      <trkpt lat="43.43502" lon="1.95562">
        <ele>238.6</ele>
        <time>2023-05-27T10:54:26Z</time>
      </trkpt>
      <trkpt lat="43.43505" lon="1.95558">
        <ele>238.6</ele>
        <time>2023-05-27T10:54:27Z</time>
      </trkpt>
      <trkpt lat="43.43507" lon="1.95556">
        <ele>238.4</ele>
        <time>2023-05-27T10:54:28Z</time>
      </trkpt>
      <trkpt lat="43.4351" lon="1.95553">
        <ele>238.4</ele>
        <time>2023-05-27T10:54:29Z</time>
      </trkpt>
      <trkpt lat="43.43514" lon="1.9555">
        <ele>238.4</ele>
        <time>2023-05-27T10:54:30Z</time>
      </trkpt>
      <trkpt lat="43.43517" lon="1.95548">
        <ele>238.4</ele>
        <time>2023-05-27T10:54:31Z</time>
      </trkpt>
      <trkpt lat="43.4352" lon="1.95545">
        <ele>238.4</ele>
        <time>2023-05-27T10:54:32Z</time>
      </trkpt>
      <trkpt lat="43.43524" lon="1.95541">
        <ele>238.4</ele>
        <time>2023-05-27T10:54:33Z</time>
      </trkpt>
      <trkpt lat="43.43528" lon="1.95538">
        <ele>238.4</ele>
        <time>2023-05-27T10:54:34Z</time>
      </trkpt>
      <trkpt lat="43.43532" lon="1.95537">
        <ele>238.4</ele>
        <time>2023-05-27T10:54:35Z</time>
      </trkpt>
      <trkpt lat="43.43534" lon="1.95536">
        <ele>238.6</ele>
        <time>2023-05-27T10:54:36Z</time>
      </trkpt>
      <trkpt lat="43.43539" lon="1.95534">
        <ele>238.6</ele>
        <time>2023-05-27T10:54:37Z</time>
      </trkpt>
      <trkpt lat="43.43542" lon="1.95533">
        <ele>238.6</ele>
        <time>2023-05-27T10:54:38Z</time>
      </trkpt>
      <trkpt lat="43.43545" lon="1.95531">
        <ele>238.6</ele>
        <time>2023-05-27T10:54:39Z</time>
      </trkpt>
      <trkpt lat="43.43549" lon="1.95529">
        <ele>238.6</ele>
        <time>2023-05-27T10:54:40Z</time>
      </trkpt>
      <trkpt lat="43.43552" lon="1.95527">
        <ele>238.8</ele>
        <time>2023-05-27T10:54:41Z</time>
      </trkpt>
      <trkpt lat="43.43554" lon="1.95524">
        <ele>238.8</ele>
        <time>2023-05-27T10:54:42Z</time>
      </trkpt>
      <trkpt lat="43.43557" lon="1.95523">
        <ele>238.8</ele>
        <time>2023-05-27T10:54:43Z</time>
      </trkpt>
      <trkpt lat="43.4356" lon="1.95522">
        <ele>239</ele>
        <time>2023-05-27T10:54:44Z</time>
      </trkpt>
      <trkpt lat="43.43563" lon="1.95522">
        <ele>239</ele>
        <time>2023-05-27T10:54:45Z</time>
      </trkpt>
      <trkpt lat="43.43566" lon="1.95523">
        <ele>239</ele>
        <time>2023-05-27T10:54:46Z</time>
      </trkpt>
      <trkpt lat="43.43571" lon="1.95523">
        <ele>239</ele>
        <time>2023-05-27T10:54:47Z</time>
      </trkpt>
      <trkpt lat="43.43574" lon="1.95522">
        <ele>239</ele>
        <time>2023-05-27T10:54:48Z</time>
      </trkpt>
      <trkpt lat="43.43577" lon="1.95521">
        <ele>239</ele>
        <time>2023-05-27T10:54:49Z</time>
      </trkpt>
      <trkpt lat="43.43581" lon="1.9552">
        <ele>239</ele>
        <time>2023-05-27T10:54:50Z</time>
      </trkpt>
      <trkpt lat="43.43585" lon="1.95519">
        <ele>239</ele>
        <time>2023-05-27T10:54:51Z</time>
      </trkpt>
      <trkpt lat="43.4359" lon="1.95518">
        <ele>239</ele>
        <time>2023-05-27T10:54:52Z</time>
      </trkpt>
      <trkpt lat="43.43592" lon="1.95517">
        <ele>239</ele>
        <time>2023-05-27T10:54:53Z</time>
      </trkpt>
      <trkpt lat="43.43597" lon="1.95515">
        <ele>239</ele>
        <time>2023-05-27T10:54:54Z</time>
      </trkpt>
      <trkpt lat="43.436" lon="1.95515">
        <ele>239</ele>
        <time>2023-05-27T10:54:55Z</time>
      </trkpt>
      <trkpt lat="43.43605" lon="1.95514">
        <ele>239</ele>
        <time>2023-05-27T10:54:56Z</time>
      </trkpt>
      <trkpt lat="43.43608" lon="1.95513">
        <ele>239</ele>
        <time>2023-05-27T10:54:57Z</time>
      </trkpt>
      <trkpt lat="43.43611" lon="1.95513">
        <ele>239</ele>
        <time>2023-05-27T10:54:58Z</time>
      </trkpt>
      <trkpt lat="43.43614" lon="1.95513">
        <ele>239</ele>
        <time>2023-05-27T10:54:59Z</time>
      </trkpt>
      <trkpt lat="43.43617" lon="1.95511">
        <ele>239</ele>
        <time>2023-05-27T10:55:00Z</time>
      </trkpt>
      <trkpt lat="43.43621" lon="1.9551">
        <ele>239</ele>
        <time>2023-05-27T10:55:01Z</time>
      </trkpt>
      <trkpt lat="43.43624" lon="1.95508">
        <ele>239</ele>
        <time>2023-05-27T10:55:02Z</time>
      </trkpt>
      <trkpt lat="43.43628" lon="1.95506">
        <ele>239</ele>
        <time>2023-05-27T10:55:03Z</time>
      </trkpt>
      <trkpt lat="43.43632" lon="1.95506">
        <ele>239</ele>
        <time>2023-05-27T10:55:04Z</time>
      </trkpt>
      <trkpt lat="43.43636" lon="1.95506">
        <ele>239</ele>
        <time>2023-05-27T10:55:05Z</time>
      </trkpt>
      <trkpt lat="43.4364" lon="1.95506">
        <ele>239</ele>
        <time>2023-05-27T10:55:06Z</time>
      </trkpt>
      <trkpt lat="43.43644" lon="1.95505">
        <ele>239</ele>
        <time>2023-05-27T10:55:07Z</time>
      </trkpt>
      <trkpt lat="43.43649" lon="1.95504">
        <ele>239</ele>
        <time>2023-05-27T10:55:08Z</time>
      </trkpt>
      <trkpt lat="43.43653" lon="1.95503">
        <ele>239</ele>
        <time>2023-05-27T10:55:09Z</time>
      </trkpt>
      <trkpt lat="43.43657" lon="1.95503">
        <ele>239</ele>
        <time>2023-05-27T10:55:10Z</time>
      </trkpt>
      <trkpt lat="43.43661" lon="1.95503">
        <ele>239</ele>
        <time>2023-05-27T10:55:11Z</time>
      </trkpt>
      <trkpt lat="43.43664" lon="1.95503">
        <ele>239</ele>
        <time>2023-05-27T10:55:12Z</time>
      </trkpt>
      <trkpt lat="43.43666" lon="1.95502">
        <ele>239</ele>
        <time>2023-05-27T10:55:13Z</time>
      </trkpt>
      <trkpt lat="43.4367" lon="1.95501">
        <ele>239</ele>
        <time>2023-05-27T10:55:14Z</time>
      </trkpt>
      <trkpt lat="43.43674" lon="1.95501">
        <ele>239</ele>
        <time>2023-05-27T10:55:15Z</time>
      </trkpt>
      <trkpt lat="43.43677" lon="1.955">
        <ele>239</ele>
        <time>2023-05-27T10:55:16Z</time>
      </trkpt>
      <trkpt lat="43.43681" lon="1.95499">
        <ele>239</ele>
        <time>2023-05-27T10:55:17Z</time>
      </trkpt>
      <trkpt lat="43.43685" lon="1.95497">
        <ele>239</ele>
        <time>2023-05-27T10:55:18Z</time>
      </trkpt>
      <trkpt lat="43.43688" lon="1.95497">
        <ele>239</ele>
        <time>2023-05-27T10:55:19Z</time>
      </trkpt>
      <trkpt lat="43.43693" lon="1.95497">
        <ele>239</ele>
        <time>2023-05-27T10:55:20Z</time>
      </trkpt>
      <trkpt lat="43.43698" lon="1.95495">
        <ele>239</ele>
        <time>2023-05-27T10:55:21Z</time>
      </trkpt>
      <trkpt lat="43.43702" lon="1.95493">
        <ele>238.8</ele>
        <time>2023-05-27T10:55:22Z</time>
      </trkpt>
      <trkpt lat="43.43706" lon="1.95491">
        <ele>238.8</ele>
        <time>2023-05-27T10:55:23Z</time>
      </trkpt>
      <trkpt lat="43.43711" lon="1.95488">
        <ele>238.8</ele>
        <time>2023-05-27T10:55:24Z</time>
      </trkpt>
      <trkpt lat="43.43714" lon="1.95485">
        <ele>238.8</ele>
        <time>2023-05-27T10:55:25Z</time>
      </trkpt>
      <trkpt lat="43.43717" lon="1.95482">
        <ele>238.8</ele>
        <time>2023-05-27T10:55:26Z</time>
      </trkpt>
      <trkpt lat="43.43721" lon="1.95479">
        <ele>238.6</ele>
        <time>2023-05-27T10:55:27Z</time>
      </trkpt>
      <trkpt lat="43.43724" lon="1.95476">
        <ele>238.6</ele>
        <time>2023-05-27T10:55:28Z</time>
      </trkpt>
      <trkpt lat="43.43729" lon="1.95472">
        <ele>238.6</ele>
        <time>2023-05-27T10:55:29Z</time>
      </trkpt>
      <trkpt lat="43.43733" lon="1.95468">
        <ele>238.6</ele>
        <time>2023-05-27T10:55:30Z</time>
      </trkpt>
      <trkpt lat="43.43737" lon="1.95465">
        <ele>238.6</ele>
        <time>2023-05-27T10:55:31Z</time>
      </trkpt>
      <trkpt lat="43.43739" lon="1.95464">
        <ele>238.6</ele>
        <time>2023-05-27T10:55:32Z</time>
      </trkpt>
      <trkpt lat="43.43743" lon="1.95461">
        <ele>238.6</ele>
        <time>2023-05-27T10:55:33Z</time>
      </trkpt>
      <trkpt lat="43.43747" lon="1.95457">
        <ele>238.6</ele>
        <time>2023-05-27T10:55:34Z</time>
      </trkpt>
      <trkpt lat="43.43751" lon="1.95453">
        <ele>238.6</ele>
        <time>2023-05-27T10:55:35Z</time>
      </trkpt>
      <trkpt lat="43.43755" lon="1.95448">
        <ele>238.6</ele>
        <time>2023-05-27T10:55:36Z</time>
      </trkpt>
      <trkpt lat="43.43758" lon="1.95446">
        <ele>238.6</ele>
        <time>2023-05-27T10:55:37Z</time>
      </trkpt>
      <trkpt lat="43.43762" lon="1.95443">
        <ele>238.6</ele>
        <time>2023-05-27T10:55:38Z</time>
      </trkpt>
      <trkpt lat="43.43765" lon="1.95441">
        <ele>238.6</ele>
        <time>2023-05-27T10:55:39Z</time>
      </trkpt>
      <trkpt lat="43.43767" lon="1.95439">
        <ele>238.6</ele>
        <time>2023-05-27T10:55:40Z</time>
      </trkpt>
      <trkpt lat="43.4377" lon="1.95435">
        <ele>238.6</ele>
        <time>2023-05-27T10:55:41Z</time>
      </trkpt>
      <trkpt lat="43.43775" lon="1.9543">
        <ele>238.6</ele>
        <time>2023-05-27T10:55:42Z</time>
      </trkpt>
      <trkpt lat="43.43777" lon="1.95427">
        <ele>238.6</ele>
        <time>2023-05-27T10:55:43Z</time>
      </trkpt>
      <trkpt lat="43.4378" lon="1.95425">
        <ele>238.6</ele>
        <time>2023-05-27T10:55:44Z</time>
      </trkpt>
      <trkpt lat="43.43782" lon="1.95423">
        <ele>238.6</ele>
        <time>2023-05-27T10:55:45Z</time>
      </trkpt>
      <trkpt lat="43.43785" lon="1.95421">
        <ele>238.8</ele>
        <time>2023-05-27T10:55:46Z</time>
      </trkpt>
      <trkpt lat="43.43788" lon="1.95419">
        <ele>238.8</ele>
        <time>2023-05-27T10:55:47Z</time>
      </trkpt>
      <trkpt lat="43.43791" lon="1.95416">
        <ele>238.8</ele>
        <time>2023-05-27T10:55:48Z</time>
      </trkpt>
      <trkpt lat="43.43794" lon="1.95413">
        <ele>238.8</ele>
        <time>2023-05-27T10:55:49Z</time>
      </trkpt>
      <trkpt lat="43.43796" lon="1.95411">
        <ele>238.8</ele>
        <time>2023-05-27T10:55:50Z</time>
      </trkpt>
      <trkpt lat="43.43799" lon="1.95407">
        <ele>238.8</ele>
        <time>2023-05-27T10:55:51Z</time>
      </trkpt>
      <trkpt lat="43.43804" lon="1.95404">
        <ele>238.8</ele>
        <time>2023-05-27T10:55:52Z</time>
      </trkpt>
      <trkpt lat="43.43807" lon="1.95401">
        <ele>238.8</ele>
        <time>2023-05-27T10:55:53Z</time>
      </trkpt>
      <trkpt lat="43.4381" lon="1.95399">
        <ele>239</ele>
        <time>2023-05-27T10:55:54Z</time>
      </trkpt>
      <trkpt lat="43.43814" lon="1.95397">
        <ele>239</ele>
        <time>2023-05-27T10:55:55Z</time>
      </trkpt>
      <trkpt lat="43.43817" lon="1.95394">
        <ele>239</ele>
        <time>2023-05-27T10:55:56Z</time>
      </trkpt>
      <trkpt lat="43.43821" lon="1.9539">
        <ele>239</ele>
        <time>2023-05-27T10:55:57Z</time>
      </trkpt>
      <trkpt lat="43.43824" lon="1.95387">
        <ele>239</ele>
        <time>2023-05-27T10:55:58Z</time>
      </trkpt>
      <trkpt lat="43.43827" lon="1.95384">
        <ele>239</ele>
        <time>2023-05-27T10:55:59Z</time>
      </trkpt>
      <trkpt lat="43.43831" lon="1.9538">
        <ele>239</ele>
        <time>2023-05-27T10:56:00Z</time>
      </trkpt>
      <trkpt lat="43.43835" lon="1.95377">
        <ele>239</ele>
        <time>2023-05-27T10:56:01Z</time>
      </trkpt>
      <trkpt lat="43.43838" lon="1.95373">
        <ele>239</ele>
        <time>2023-05-27T10:56:02Z</time>
      </trkpt>
      <trkpt lat="43.43842" lon="1.95369">
        <ele>239</ele>
        <time>2023-05-27T10:56:03Z</time>
      </trkpt>
      <trkpt lat="43.43846" lon="1.95365">
        <ele>239</ele>
        <time>2023-05-27T10:56:04Z</time>
      </trkpt>
      <trkpt lat="43.43849" lon="1.95361">
        <ele>239</ele>
        <time>2023-05-27T10:56:05Z</time>
      </trkpt>
      <trkpt lat="43.43852" lon="1.95359">
        <ele>239</ele>
        <time>2023-05-27T10:56:06Z</time>
      </trkpt>
      <trkpt lat="43.43855" lon="1.95358">
        <ele>239</ele>
        <time>2023-05-27T10:56:07Z</time>
      </trkpt>
      <trkpt lat="43.43858" lon="1.95356">
        <ele>239</ele>
        <time>2023-05-27T10:56:08Z</time>
      </trkpt>
      <trkpt lat="43.43861" lon="1.95354">
        <ele>239</ele>
        <time>2023-05-27T10:56:09Z</time>
      </trkpt>
      <trkpt lat="43.43864" lon="1.95352">
        <ele>239</ele>
        <time>2023-05-27T10:56:10Z</time>
      </trkpt>
      <trkpt lat="43.43865" lon="1.95351">
        <ele>239</ele>
        <time>2023-05-27T10:56:11Z</time>
      </trkpt>
      <trkpt lat="43.43869" lon="1.95348">
        <ele>239</ele>
        <time>2023-05-27T10:56:12Z</time>
      </trkpt>
      <trkpt lat="43.43873" lon="1.95345">
        <ele>239</ele>
        <time>2023-05-27T10:56:13Z</time>
      </trkpt>
      <trkpt lat="43.43876" lon="1.95342">
        <ele>239</ele>
        <time>2023-05-27T10:56:14Z</time>
      </trkpt>
      <trkpt lat="43.43879" lon="1.95342">
        <ele>239</ele>
        <time>2023-05-27T10:56:15Z</time>
      </trkpt>
      <trkpt lat="43.43883" lon="1.95342">
        <ele>239</ele>
        <time>2023-05-27T10:56:16Z</time>
      </trkpt>
      <trkpt lat="43.43887" lon="1.95342">
        <ele>239</ele>
        <time>2023-05-27T10:56:17Z</time>
      </trkpt>
      <trkpt lat="43.43891" lon="1.9534">
        <ele>239</ele>
        <time>2023-05-27T10:56:18Z</time>
      </trkpt>
      <trkpt lat="43.43896" lon="1.95339">
        <ele>239</ele>
        <time>2023-05-27T10:56:19Z</time>
      </trkpt>
      <trkpt lat="43.43899" lon="1.95338">
        <ele>239</ele>
        <time>2023-05-27T10:56:20Z</time>
      </trkpt>
      <trkpt lat="43.43902" lon="1.95337">
        <ele>239.2</ele>
        <time>2023-05-27T10:56:21Z</time>
      </trkpt>
      <trkpt lat="43.43907" lon="1.95338">
        <ele>239.2</ele>
        <time>2023-05-27T10:56:22Z</time>
      </trkpt>
      <trkpt lat="43.4391" lon="1.95339">
        <ele>239.2</ele>
        <time>2023-05-27T10:56:23Z</time>
      </trkpt>
      <trkpt lat="43.43913" lon="1.95342">
        <ele>239.2</ele>
        <time>2023-05-27T10:56:24Z</time>
      </trkpt>
      <trkpt lat="43.43916" lon="1.95344">
        <ele>239.4</ele>
        <time>2023-05-27T10:56:25Z</time>
      </trkpt>
      <trkpt lat="43.43918" lon="1.95346">
        <ele>239.4</ele>
        <time>2023-05-27T10:56:26Z</time>
      </trkpt>
      <trkpt lat="43.43921" lon="1.9535">
        <ele>239.4</ele>
        <time>2023-05-27T10:56:27Z</time>
      </trkpt>
      <trkpt lat="43.43923" lon="1.95354">
        <ele>239.4</ele>
        <time>2023-05-27T10:56:28Z</time>
      </trkpt>
      <trkpt lat="43.43924" lon="1.95359">
        <ele>239.4</ele>
        <time>2023-05-27T10:56:29Z</time>
      </trkpt>
      <trkpt lat="43.43925" lon="1.95364">
        <ele>239.4</ele>
        <time>2023-05-27T10:56:30Z</time>
      </trkpt>
      <trkpt lat="43.43924" lon="1.95367">
        <ele>239.4</ele>
        <time>2023-05-27T10:56:31Z</time>
      </trkpt>
      <trkpt lat="43.43923" lon="1.9537">
        <ele>239.4</ele>
        <time>2023-05-27T10:56:32Z</time>
      </trkpt>
      <trkpt lat="43.43922" lon="1.95374">
        <ele>239.4</ele>
        <time>2023-05-27T10:56:33Z</time>
      </trkpt>
      <trkpt lat="43.4392" lon="1.95378">
        <ele>239.4</ele>
        <time>2023-05-27T10:56:34Z</time>
      </trkpt>
      <trkpt lat="43.43919" lon="1.95382">
        <ele>239.4</ele>
        <time>2023-05-27T10:56:35Z</time>
      </trkpt>
      <trkpt lat="43.4392" lon="1.95388">
        <ele>239.4</ele>
        <time>2023-05-27T10:56:36Z</time>
      </trkpt>
      <trkpt lat="43.4392" lon="1.95393">
        <ele>239.4</ele>
        <time>2023-05-27T10:56:37Z</time>
      </trkpt>
      <trkpt lat="43.43919" lon="1.95397">
        <ele>239.4</ele>
        <time>2023-05-27T10:56:38Z</time>
      </trkpt>
      <trkpt lat="43.4392" lon="1.95402">
        <ele>239.4</ele>
        <time>2023-05-27T10:56:39Z</time>
      </trkpt>
      <trkpt lat="43.43919" lon="1.95408">
        <ele>239.2</ele>
        <time>2023-05-27T10:56:40Z</time>
      </trkpt>
      <trkpt lat="43.43918" lon="1.95414">
        <ele>239.2</ele>
        <time>2023-05-27T10:56:41Z</time>
      </trkpt>
      <trkpt lat="43.43917" lon="1.95419">
        <ele>239.2</ele>
        <time>2023-05-27T10:56:42Z</time>
      </trkpt>
      <trkpt lat="43.43916" lon="1.95425">
        <ele>239.2</ele>
        <time>2023-05-27T10:56:43Z</time>
      </trkpt>
      <trkpt lat="43.43917" lon="1.9543">
        <ele>239.2</ele>
        <time>2023-05-27T10:56:44Z</time>
      </trkpt>
      <trkpt lat="43.43918" lon="1.95437">
        <ele>239.2</ele>
        <time>2023-05-27T10:56:45Z</time>
      </trkpt>
      <trkpt lat="43.43918" lon="1.95441">
        <ele>239.2</ele>
        <time>2023-05-27T10:56:46Z</time>
      </trkpt>
      <trkpt lat="43.43918" lon="1.95444">
        <ele>239.4</ele>
        <time>2023-05-27T10:56:47Z</time>
      </trkpt>
      <trkpt lat="43.43918" lon="1.95449">
        <ele>239.4</ele>
        <time>2023-05-27T10:56:48Z</time>
      </trkpt>
      <trkpt lat="43.43919" lon="1.95454">
        <ele>239.4</ele>
        <time>2023-05-27T10:56:49Z</time>
      </trkpt>
      <trkpt lat="43.43919" lon="1.95459">
        <ele>239.4</ele>
        <time>2023-05-27T10:56:50Z</time>
      </trkpt>
      <trkpt lat="43.4392" lon="1.95465">
        <ele>239.4</ele>
        <time>2023-05-27T10:56:51Z</time>
      </trkpt>
      <trkpt lat="43.43923" lon="1.95472">
        <ele>239.6</ele>
        <time>2023-05-27T10:56:52Z</time>
      </trkpt>
      <trkpt lat="43.43926" lon="1.95477">
        <ele>239.6</ele>
        <time>2023-05-27T10:56:53Z</time>
      </trkpt>
      <trkpt lat="43.43928" lon="1.95482">
        <ele>239.6</ele>
        <time>2023-05-27T10:56:54Z</time>
      </trkpt>
      <trkpt lat="43.43931" lon="1.95487">
        <ele>239.6</ele>
        <time>2023-05-27T10:56:55Z</time>
      </trkpt>
      <trkpt lat="43.43934" lon="1.95493">
        <ele>239.6</ele>
        <time>2023-05-27T10:56:56Z</time>
      </trkpt>
      <trkpt lat="43.43938" lon="1.95498">
        <ele>239.6</ele>
        <time>2023-05-27T10:56:57Z</time>
      </trkpt>
      <trkpt lat="43.43942" lon="1.95501">
        <ele>239.6</ele>
        <time>2023-05-27T10:56:58Z</time>
      </trkpt>
      <trkpt lat="43.43945" lon="1.95505">
        <ele>239.6</ele>
        <time>2023-05-27T10:56:59Z</time>
      </trkpt>
      <trkpt lat="43.43948" lon="1.95507">
        <ele>239.6</ele>
        <time>2023-05-27T10:57:00Z</time>
      </trkpt>
      <trkpt lat="43.43951" lon="1.95511">
        <ele>239.6</ele>
        <time>2023-05-27T10:57:01Z</time>
      </trkpt>
      <trkpt lat="43.43954" lon="1.95515">
        <ele>239.6</ele>
        <time>2023-05-27T10:57:02Z</time>
      </trkpt>
      <trkpt lat="43.43958" lon="1.95519">
        <ele>239.6</ele>
        <time>2023-05-27T10:57:03Z</time>
      </trkpt>
      <trkpt lat="43.4396" lon="1.95522">
        <ele>239.6</ele>
        <time>2023-05-27T10:57:04Z</time>
      </trkpt>
      <trkpt lat="43.43963" lon="1.95526">
        <ele>239.6</ele>
        <time>2023-05-27T10:57:05Z</time>
      </trkpt>
      <trkpt lat="43.43965" lon="1.9553">
        <ele>239.6</ele>
        <time>2023-05-27T10:57:06Z</time>
      </trkpt>
      <trkpt lat="43.43967" lon="1.95535">
        <ele>239.6</ele>
        <time>2023-05-27T10:57:07Z</time>
      </trkpt>
      <trkpt lat="43.43969" lon="1.9554">
        <ele>239.6</ele>
        <time>2023-05-27T10:57:08Z</time>
      </trkpt>
      <trkpt lat="43.43971" lon="1.95544">
        <ele>239.6</ele>
        <time>2023-05-27T10:57:09Z</time>
      </trkpt>
      <trkpt lat="43.43972" lon="1.95548">
        <ele>239.6</ele>
        <time>2023-05-27T10:57:10Z</time>
      </trkpt>
      <trkpt lat="43.43973" lon="1.95552">
        <ele>239.6</ele>
        <time>2023-05-27T10:57:11Z</time>
      </trkpt>
      <trkpt lat="43.43973" lon="1.95557">
        <ele>239.6</ele>
        <time>2023-05-27T10:57:12Z</time>
      </trkpt>
      <trkpt lat="43.43973" lon="1.95561">
        <ele>239.6</ele>
        <time>2023-05-27T10:57:13Z</time>
      </trkpt>
      <trkpt lat="43.43974" lon="1.95567">
        <ele>239.6</ele>
        <time>2023-05-27T10:57:14Z</time>
      </trkpt>
      <trkpt lat="43.43974" lon="1.95573">
        <ele>239.6</ele>
        <time>2023-05-27T10:57:15Z</time>
      </trkpt>
      <trkpt lat="43.43973" lon="1.95578">
        <ele>239.6</ele>
        <time>2023-05-27T10:57:16Z</time>
      </trkpt>
      <trkpt lat="43.43973" lon="1.95583">
        <ele>239.6</ele>
        <time>2023-05-27T10:57:17Z</time>
      </trkpt>
      <trkpt lat="43.43972" lon="1.95587">
        <ele>239.6</ele>
        <time>2023-05-27T10:57:18Z</time>
      </trkpt>
      <trkpt lat="43.4397" lon="1.95591">
        <ele>239.6</ele>
        <time>2023-05-27T10:57:19Z</time>
      </trkpt>
      <trkpt lat="43.43968" lon="1.95595">
        <ele>239.6</ele>
        <time>2023-05-27T10:57:20Z</time>
      </trkpt>
      <trkpt lat="43.43966" lon="1.95599">
        <ele>239.6</ele>
        <time>2023-05-27T10:57:21Z</time>
      </trkpt>
      <trkpt lat="43.43965" lon="1.95605">
        <ele>239.6</ele>
        <time>2023-05-27T10:57:22Z</time>
      </trkpt>
      <trkpt lat="43.43964" lon="1.9561">
        <ele>239.6</ele>
        <time>2023-05-27T10:57:23Z</time>
      </trkpt>
      <trkpt lat="43.43963" lon="1.95616">
        <ele>239.6</ele>
        <time>2023-05-27T10:57:24Z</time>
      </trkpt>
      <trkpt lat="43.43961" lon="1.95622">
        <ele>239.6</ele>
        <time>2023-05-27T10:57:25Z</time>
      </trkpt>
      <trkpt lat="43.43958" lon="1.95627">
        <ele>239.6</ele>
        <time>2023-05-27T10:57:26Z</time>
      </trkpt>
      <trkpt lat="43.43956" lon="1.95632">
        <ele>239.6</ele>
        <time>2023-05-27T10:57:27Z</time>
      </trkpt>
      <trkpt lat="43.43955" lon="1.95637">
        <ele>239.6</ele>
        <time>2023-05-27T10:57:28Z</time>
      </trkpt>
      <trkpt lat="43.43953" lon="1.95642">
        <ele>239.6</ele>
        <time>2023-05-27T10:57:29Z</time>
      </trkpt>
      <trkpt lat="43.43951" lon="1.95646">
        <ele>239.6</ele>
        <time>2023-05-27T10:57:30Z</time>
      </trkpt>
      <trkpt lat="43.43948" lon="1.95651">
        <ele>239.6</ele>
        <time>2023-05-27T10:57:31Z</time>
      </trkpt>
      <trkpt lat="43.43947" lon="1.95656">
        <ele>239.6</ele>
        <time>2023-05-27T10:57:32Z</time>
      </trkpt>
      <trkpt lat="43.43944" lon="1.95662">
        <ele>239.6</ele>
        <time>2023-05-27T10:57:33Z</time>
      </trkpt>
      <trkpt lat="43.43942" lon="1.95668">
        <ele>239.6</ele>
        <time>2023-05-27T10:57:34Z</time>
      </trkpt>
      <trkpt lat="43.43941" lon="1.95673">
        <ele>239.6</ele>
        <time>2023-05-27T10:57:35Z</time>
      </trkpt>
      <trkpt lat="43.4394" lon="1.95678">
        <ele>239.6</ele>
        <time>2023-05-27T10:57:36Z</time>
      </trkpt>
      <trkpt lat="43.43939" lon="1.95682">
        <ele>239.6</ele>
        <time>2023-05-27T10:57:37Z</time>
      </trkpt>
      <trkpt lat="43.43938" lon="1.95687">
        <ele>239.6</ele>
        <time>2023-05-27T10:57:38Z</time>
      </trkpt>
      <trkpt lat="43.43936" lon="1.95691">
        <ele>239.6</ele>
        <time>2023-05-27T10:57:39Z</time>
      </trkpt>
      <trkpt lat="43.43933" lon="1.95697">
        <ele>239.6</ele>
        <time>2023-05-27T10:57:40Z</time>
      </trkpt>
      <trkpt lat="43.4393" lon="1.95703">
        <ele>239.6</ele>
        <time>2023-05-27T10:57:41Z</time>
      </trkpt>
      <trkpt lat="43.43928" lon="1.9571">
        <ele>239.8</ele>
        <time>2023-05-27T10:57:42Z</time>
      </trkpt>
      <trkpt lat="43.43927" lon="1.95715">
        <ele>239.8</ele>
        <time>2023-05-27T10:57:43Z</time>
      </trkpt>
      <trkpt lat="43.43927" lon="1.95722">
        <ele>239.8</ele>
        <time>2023-05-27T10:57:44Z</time>
      </trkpt>
      <trkpt lat="43.43925" lon="1.95727">
        <ele>239.8</ele>
        <time>2023-05-27T10:57:45Z</time>
      </trkpt>
      <trkpt lat="43.43923" lon="1.95734">
        <ele>240</ele>
        <time>2023-05-27T10:57:46Z</time>
      </trkpt>
      <trkpt lat="43.43921" lon="1.95739">
        <ele>240</ele>
        <time>2023-05-27T10:57:47Z</time>
      </trkpt>
      <trkpt lat="43.4392" lon="1.95744">
        <ele>240</ele>
        <time>2023-05-27T10:57:48Z</time>
      </trkpt>
      <trkpt lat="43.43919" lon="1.95751">
        <ele>240</ele>
        <time>2023-05-27T10:57:49Z</time>
      </trkpt>
      <trkpt lat="43.43919" lon="1.95755">
        <ele>240</ele>
        <time>2023-05-27T10:57:50Z</time>
      </trkpt>
      <trkpt lat="43.4392" lon="1.95761">
        <ele>240.2</ele>
        <time>2023-05-27T10:57:51Z</time>
      </trkpt>
      <trkpt lat="43.43922" lon="1.95766">
        <ele>240.2</ele>
        <time>2023-05-27T10:57:52Z</time>
      </trkpt>
      <trkpt lat="43.43925" lon="1.95769">
        <ele>240.2</ele>
        <time>2023-05-27T10:57:53Z</time>
      </trkpt>
      <trkpt lat="43.43928" lon="1.95771">
        <ele>240.2</ele>
        <time>2023-05-27T10:57:54Z</time>
      </trkpt>
      <trkpt lat="43.4393" lon="1.95773">
        <ele>240.2</ele>
        <time>2023-05-27T10:57:55Z</time>
      </trkpt>
      <trkpt lat="43.43933" lon="1.95775">
        <ele>240.2</ele>
        <time>2023-05-27T10:57:56Z</time>
      </trkpt>
      <trkpt lat="43.43936" lon="1.95776">
        <ele>240.2</ele>
        <time>2023-05-27T10:57:57Z</time>
      </trkpt>
      <trkpt lat="43.43939" lon="1.95776">
        <ele>240.4</ele>
        <time>2023-05-27T10:57:58Z</time>
      </trkpt>
      <trkpt lat="43.43942" lon="1.95775">
        <ele>240.4</ele>
        <time>2023-05-27T10:57:59Z</time>
      </trkpt>
      <trkpt lat="43.43944" lon="1.95774">
        <ele>240.4</ele>
        <time>2023-05-27T10:58:00Z</time>
      </trkpt>
      <trkpt lat="43.43945" lon="1.95772">
        <ele>240.4</ele>
        <time>2023-05-27T10:58:01Z</time>
      </trkpt>
      <trkpt lat="43.43948" lon="1.95771">
        <ele>240.4</ele>
        <time>2023-05-27T10:58:02Z</time>
      </trkpt>
      <trkpt lat="43.43951" lon="1.95768">
        <ele>240.4</ele>
        <time>2023-05-27T10:58:03Z</time>
      </trkpt>
      <trkpt lat="43.43954" lon="1.95766">
        <ele>240.4</ele>
        <time>2023-05-27T10:58:04Z</time>
      </trkpt>
      <trkpt lat="43.43957" lon="1.95764">
        <ele>240.4</ele>
        <time>2023-05-27T10:58:05Z</time>
      </trkpt>
      <trkpt lat="43.4396" lon="1.95762">
        <ele>240.4</ele>
        <time>2023-05-27T10:58:06Z</time>
      </trkpt>
      <trkpt lat="43.43963" lon="1.95758">
        <ele>240.4</ele>
        <time>2023-05-27T10:58:07Z</time>
      </trkpt>
      <trkpt lat="43.43966" lon="1.95755">
        <ele>240.4</ele>
        <time>2023-05-27T10:58:08Z</time>
      </trkpt>
      <trkpt lat="43.43969" lon="1.95752">
        <ele>240.4</ele>
        <time>2023-05-27T10:58:09Z</time>
      </trkpt>
      <trkpt lat="43.43972" lon="1.95749">
        <ele>240.2</ele>
        <time>2023-05-27T10:58:10Z</time>
      </trkpt>
      <trkpt lat="43.43975" lon="1.95746">
        <ele>240.2</ele>
        <time>2023-05-27T10:58:11Z</time>
      </trkpt>
      <trkpt lat="43.43979" lon="1.95742">
        <ele>240.2</ele>
        <time>2023-05-27T10:58:12Z</time>
      </trkpt>
      <trkpt lat="43.43982" lon="1.95738">
        <ele>240.2</ele>
        <time>2023-05-27T10:58:13Z</time>
      </trkpt>
      <trkpt lat="43.43985" lon="1.95735">
        <ele>240.2</ele>
        <time>2023-05-27T10:58:14Z</time>
      </trkpt>
      <trkpt lat="43.43989" lon="1.95732">
        <ele>240.2</ele>
        <time>2023-05-27T10:58:15Z</time>
      </trkpt>
      <trkpt lat="43.43993" lon="1.95729">
        <ele>240.2</ele>
        <time>2023-05-27T10:58:16Z</time>
      </trkpt>
      <trkpt lat="43.43997" lon="1.95726">
        <ele>240.2</ele>
        <time>2023-05-27T10:58:17Z</time>
      </trkpt>
      <trkpt lat="43.44001" lon="1.95722">
        <ele>240.2</ele>
        <time>2023-05-27T10:58:18Z</time>
      </trkpt>
      <trkpt lat="43.44005" lon="1.95719">
        <ele>240.2</ele>
        <time>2023-05-27T10:58:19Z</time>
      </trkpt>
      <trkpt lat="43.44009" lon="1.95716">
        <ele>240.2</ele>
        <time>2023-05-27T10:58:20Z</time>
      </trkpt>
      <trkpt lat="43.44012" lon="1.95713">
        <ele>240.2</ele>
        <time>2023-05-27T10:58:21Z</time>
      </trkpt>
      <trkpt lat="43.44015" lon="1.95711">
        <ele>240.4</ele>
        <time>2023-05-27T10:58:22Z</time>
      </trkpt>
      <trkpt lat="43.44017" lon="1.95709">
        <ele>240.4</ele>
        <time>2023-05-27T10:58:23Z</time>
      </trkpt>
      <trkpt lat="43.44021" lon="1.95704">
        <ele>240.4</ele>
        <time>2023-05-27T10:58:24Z</time>
      </trkpt>
      <trkpt lat="43.44025" lon="1.95698">
        <ele>240.4</ele>
        <time>2023-05-27T10:58:25Z</time>
      </trkpt>
      <trkpt lat="43.4403" lon="1.95692">
        <ele>240.4</ele>
        <time>2023-05-27T10:58:26Z</time>
      </trkpt>
      <trkpt lat="43.44035" lon="1.95686">
        <ele>240.4</ele>
        <time>2023-05-27T10:58:27Z</time>
      </trkpt>
      <trkpt lat="43.4404" lon="1.9568">
        <ele>240.4</ele>
        <time>2023-05-27T10:58:28Z</time>
      </trkpt>
      <trkpt lat="43.44043" lon="1.95676">
        <ele>240.4</ele>
        <time>2023-05-27T10:58:29Z</time>
      </trkpt>
      <trkpt lat="43.44047" lon="1.95672">
        <ele>240.4</ele>
        <time>2023-05-27T10:58:30Z</time>
      </trkpt>
      <trkpt lat="43.44049" lon="1.95671">
        <ele>240.4</ele>
        <time>2023-05-27T10:58:31Z</time>
      </trkpt>
      <trkpt lat="43.44051" lon="1.95669">
        <ele>240.4</ele>
        <time>2023-05-27T10:58:32Z</time>
      </trkpt>
      <trkpt lat="43.44054" lon="1.95663">
        <ele>240.4</ele>
        <time>2023-05-27T10:58:33Z</time>
      </trkpt>
      <trkpt lat="43.44059" lon="1.95658">
        <ele>240.4</ele>
        <time>2023-05-27T10:58:34Z</time>
      </trkpt>
      <trkpt lat="43.44063" lon="1.95653">
        <ele>240.4</ele>
        <time>2023-05-27T10:58:35Z</time>
      </trkpt>
      <trkpt lat="43.44066" lon="1.95648">
        <ele>240.4</ele>
        <time>2023-05-27T10:58:36Z</time>
      </trkpt>
      <trkpt lat="43.4407" lon="1.95644">
        <ele>240.4</ele>
        <time>2023-05-27T10:58:37Z</time>
      </trkpt>
      <trkpt lat="43.44073" lon="1.95639">
        <ele>240.4</ele>
        <time>2023-05-27T10:58:38Z</time>
      </trkpt>
      <trkpt lat="43.44076" lon="1.95635">
        <ele>240.4</ele>
        <time>2023-05-27T10:58:39Z</time>
      </trkpt>
      <trkpt lat="43.44078" lon="1.95631">
        <ele>240.4</ele>
        <time>2023-05-27T10:58:40Z</time>
      </trkpt>
      <trkpt lat="43.4408" lon="1.95627">
        <ele>240.4</ele>
        <time>2023-05-27T10:58:41Z</time>
      </trkpt>
      <trkpt lat="43.44083" lon="1.95622">
        <ele>240.4</ele>
        <time>2023-05-27T10:58:42Z</time>
      </trkpt>
      <trkpt lat="43.44086" lon="1.95619">
        <ele>240.4</ele>
        <time>2023-05-27T10:58:43Z</time>
      </trkpt>
      <trkpt lat="43.44088" lon="1.95615">
        <ele>240.4</ele>
        <time>2023-05-27T10:58:44Z</time>
      </trkpt>
      <trkpt lat="43.4409" lon="1.95612">
        <ele>240.4</ele>
        <time>2023-05-27T10:58:45Z</time>
      </trkpt>
      <trkpt lat="43.44092" lon="1.95609">
        <ele>240.4</ele>
        <time>2023-05-27T10:58:46Z</time>
      </trkpt>
      <trkpt lat="43.44093" lon="1.95606">
        <ele>240.4</ele>
        <time>2023-05-27T10:58:47Z</time>
      </trkpt>
      <trkpt lat="43.44095" lon="1.95603">
        <ele>240.4</ele>
        <time>2023-05-27T10:58:48Z</time>
      </trkpt>
      <trkpt lat="43.44097" lon="1.956">
        <ele>240.6</ele>
        <time>2023-05-27T10:58:49Z</time>
      </trkpt>
      <trkpt lat="43.441" lon="1.95596">
        <ele>240.6</ele>
        <time>2023-05-27T10:58:50Z</time>
      </trkpt>
      <trkpt lat="43.44103" lon="1.95592">
        <ele>240.6</ele>
        <time>2023-05-27T10:58:51Z</time>
      </trkpt>
      <trkpt lat="43.44106" lon="1.95588">
        <ele>240.6</ele>
        <time>2023-05-27T10:58:52Z</time>
      </trkpt>
      <trkpt lat="43.44109" lon="1.95583">
        <ele>240.6</ele>
        <time>2023-05-27T10:58:53Z</time>
      </trkpt>
      <trkpt lat="43.44111" lon="1.95579">
        <ele>240.6</ele>
        <time>2023-05-27T10:58:54Z</time>
      </trkpt>
      <trkpt lat="43.44114" lon="1.95576">
        <ele>240.6</ele>
        <time>2023-05-27T10:58:55Z</time>
      </trkpt>
      <trkpt lat="43.44116" lon="1.95573">
        <ele>240.6</ele>
        <time>2023-05-27T10:58:56Z</time>
      </trkpt>
      <trkpt lat="43.44119" lon="1.9557">
        <ele>240.6</ele>
        <time>2023-05-27T10:58:57Z</time>
      </trkpt>
      <trkpt lat="43.44121" lon="1.95567">
        <ele>240.6</ele>
        <time>2023-05-27T10:58:58Z</time>
      </trkpt>
      <trkpt lat="43.44124" lon="1.95565">
        <ele>240.6</ele>
        <time>2023-05-27T10:58:59Z</time>
      </trkpt>
      <trkpt lat="43.44127" lon="1.95562">
        <ele>240.6</ele>
        <time>2023-05-27T10:59:00Z</time>
      </trkpt>
      <trkpt lat="43.44129" lon="1.9556">
        <ele>240.6</ele>
        <time>2023-05-27T10:59:01Z</time>
      </trkpt>
      <trkpt lat="43.44132" lon="1.95558">
        <ele>240.6</ele>
        <time>2023-05-27T10:59:02Z</time>
      </trkpt>
      <trkpt lat="43.44135" lon="1.95555">
        <ele>240.6</ele>
        <time>2023-05-27T10:59:03Z</time>
      </trkpt>
      <trkpt lat="43.44138" lon="1.95551">
        <ele>240.6</ele>
        <time>2023-05-27T10:59:04Z</time>
      </trkpt>
      <trkpt lat="43.44141" lon="1.95547">
        <ele>240.6</ele>
        <time>2023-05-27T10:59:05Z</time>
      </trkpt>
      <trkpt lat="43.44144" lon="1.95543">
        <ele>240.6</ele>
        <time>2023-05-27T10:59:06Z</time>
      </trkpt>
      <trkpt lat="43.44148" lon="1.9554">
        <ele>240.6</ele>
        <time>2023-05-27T10:59:07Z</time>
      </trkpt>
      <trkpt lat="43.44152" lon="1.95535">
        <ele>240.6</ele>
        <time>2023-05-27T10:59:08Z</time>
      </trkpt>
      <trkpt lat="43.44156" lon="1.95532">
        <ele>240.6</ele>
        <time>2023-05-27T10:59:09Z</time>
      </trkpt>
      <trkpt lat="43.44158" lon="1.9553">
        <ele>240.8</ele>
        <time>2023-05-27T10:59:10Z</time>
      </trkpt>
      <trkpt lat="43.44162" lon="1.95527">
        <ele>240.8</ele>
        <time>2023-05-27T10:59:11Z</time>
      </trkpt>
      <trkpt lat="43.44166" lon="1.95523">
        <ele>240.8</ele>
        <time>2023-05-27T10:59:12Z</time>
      </trkpt>
      <trkpt lat="43.4417" lon="1.95519">
        <ele>240.8</ele>
        <time>2023-05-27T10:59:13Z</time>
      </trkpt>
      <trkpt lat="43.44174" lon="1.95515">
        <ele>240.8</ele>
        <time>2023-05-27T10:59:14Z</time>
      </trkpt>
      <trkpt lat="43.44176" lon="1.95512">
        <ele>240.8</ele>
        <time>2023-05-27T10:59:15Z</time>
      </trkpt>
      <trkpt lat="43.4418" lon="1.95509">
        <ele>241</ele>
        <time>2023-05-27T10:59:16Z</time>
      </trkpt>
      <trkpt lat="43.44184" lon="1.95506">
        <ele>241</ele>
        <time>2023-05-27T10:59:17Z</time>
      </trkpt>
      <trkpt lat="43.44187" lon="1.95505">
        <ele>241</ele>
        <time>2023-05-27T10:59:18Z</time>
      </trkpt>
      <trkpt lat="43.4419" lon="1.95502">
        <ele>241</ele>
        <time>2023-05-27T10:59:19Z</time>
      </trkpt>
      <trkpt lat="43.44194" lon="1.95498">
        <ele>241.2</ele>
        <time>2023-05-27T10:59:20Z</time>
      </trkpt>
      <trkpt lat="43.44197" lon="1.95496">
        <ele>241.2</ele>
        <time>2023-05-27T10:59:21Z</time>
      </trkpt>
      <trkpt lat="43.44202" lon="1.95492">
        <ele>241.2</ele>
        <time>2023-05-27T10:59:22Z</time>
      </trkpt>
      <trkpt lat="43.44204" lon="1.95488">
        <ele>241.4</ele>
        <time>2023-05-27T10:59:23Z</time>
      </trkpt>
      <trkpt lat="43.44206" lon="1.95485">
        <ele>241.4</ele>
        <time>2023-05-27T10:59:24Z</time>
      </trkpt>
      <trkpt lat="43.44208" lon="1.95482">
        <ele>241.4</ele>
        <time>2023-05-27T10:59:25Z</time>
      </trkpt>
      <trkpt lat="43.44211" lon="1.95479">
        <ele>241.4</ele>
        <time>2023-05-27T10:59:26Z</time>
      </trkpt>
      <trkpt lat="43.44214" lon="1.95476">
        <ele>241.4</ele>
        <time>2023-05-27T10:59:27Z</time>
      </trkpt>
      <trkpt lat="43.44217" lon="1.95473">
        <ele>241.4</ele>
        <time>2023-05-27T10:59:28Z</time>
      </trkpt>
      <trkpt lat="43.44219" lon="1.95469">
        <ele>241.4</ele>
        <time>2023-05-27T10:59:29Z</time>
      </trkpt>
      <trkpt lat="43.44223" lon="1.95464">
        <ele>241.4</ele>
        <time>2023-05-27T10:59:30Z</time>
      </trkpt>
      <trkpt lat="43.44226" lon="1.9546">
        <ele>241.4</ele>
        <time>2023-05-27T10:59:31Z</time>
      </trkpt>
      <trkpt lat="43.44229" lon="1.95456">
        <ele>241.4</ele>
        <time>2023-05-27T10:59:32Z</time>
      </trkpt>
      <trkpt lat="43.44233" lon="1.95451">
        <ele>241.4</ele>
        <time>2023-05-27T10:59:33Z</time>
      </trkpt>
      <trkpt lat="43.44236" lon="1.95444">
        <ele>241.4</ele>
        <time>2023-05-27T10:59:34Z</time>
      </trkpt>
      <trkpt lat="43.44239" lon="1.95438">
        <ele>241.4</ele>
        <time>2023-05-27T10:59:35Z</time>
      </trkpt>
      <trkpt lat="43.44241" lon="1.95433">
        <ele>241.4</ele>
        <time>2023-05-27T10:59:36Z</time>
      </trkpt>
      <trkpt lat="43.44243" lon="1.95428">
        <ele>241.4</ele>
        <time>2023-05-27T10:59:37Z</time>
      </trkpt>
      <trkpt lat="43.44245" lon="1.95424">
        <ele>241.6</ele>
        <time>2023-05-27T10:59:38Z</time>
      </trkpt>
      <trkpt lat="43.44246" lon="1.95421">
        <ele>241.6</ele>
        <time>2023-05-27T10:59:39Z</time>
      </trkpt>
      <trkpt lat="43.44247" lon="1.95415">
        <ele>241.6</ele>
        <time>2023-05-27T10:59:40Z</time>
      </trkpt>
      <trkpt lat="43.44248" lon="1.95411">
        <ele>241.6</ele>
        <time>2023-05-27T10:59:41Z</time>
      </trkpt>
      <trkpt lat="43.4425" lon="1.95407">
        <ele>241.6</ele>
        <time>2023-05-27T10:59:42Z</time>
      </trkpt>
      <trkpt lat="43.44251" lon="1.95402">
        <ele>241.6</ele>
        <time>2023-05-27T10:59:43Z</time>
      </trkpt>
      <trkpt lat="43.44253" lon="1.95398">
        <ele>241.6</ele>
        <time>2023-05-27T10:59:44Z</time>
      </trkpt>
      <trkpt lat="43.44254" lon="1.95393">
        <ele>241.6</ele>
        <time>2023-05-27T10:59:45Z</time>
      </trkpt>
      <trkpt lat="43.44256" lon="1.95388">
        <ele>241.6</ele>
        <time>2023-05-27T10:59:46Z</time>
      </trkpt>
      <trkpt lat="43.44256" lon="1.95383">
        <ele>241.6</ele>
        <time>2023-05-27T10:59:47Z</time>
      </trkpt>
      <trkpt lat="43.44256" lon="1.95379">
        <ele>241.6</ele>
        <time>2023-05-27T10:59:48Z</time>
      </trkpt>
      <trkpt lat="43.44256" lon="1.95375">
        <ele>241.6</ele>
        <time>2023-05-27T10:59:49Z</time>
      </trkpt>
      <trkpt lat="43.44256" lon="1.95371">
        <ele>241.6</ele>
        <time>2023-05-27T10:59:50Z</time>
      </trkpt>
      <trkpt lat="43.44256" lon="1.95367">
        <ele>241.6</ele>
        <time>2023-05-27T10:59:51Z</time>
      </trkpt>
      <trkpt lat="43.44257" lon="1.95362">
        <ele>241.6</ele>
        <time>2023-05-27T10:59:52Z</time>
      </trkpt>
      <trkpt lat="43.44257" lon="1.95357">
        <ele>241.6</ele>
        <time>2023-05-27T10:59:53Z</time>
      </trkpt>
      <trkpt lat="43.44256" lon="1.95352">
        <ele>241.6</ele>
        <time>2023-05-27T10:59:54Z</time>
      </trkpt>
      <trkpt lat="43.44256" lon="1.95347">
        <ele>241.6</ele>
        <time>2023-05-27T10:59:55Z</time>
      </trkpt>
      <trkpt lat="43.44256" lon="1.95341">
        <ele>241.6</ele>
        <time>2023-05-27T10:59:56Z</time>
      </trkpt>
      <trkpt lat="43.44256" lon="1.95336">
        <ele>241.6</ele>
        <time>2023-05-27T10:59:57Z</time>
      </trkpt>
      <trkpt lat="43.44256" lon="1.95331">
        <ele>241.6</ele>
        <time>2023-05-27T10:59:58Z</time>
      </trkpt>
      <trkpt lat="43.44257" lon="1.95325">
        <ele>241.6</ele>
        <time>2023-05-27T10:59:59Z</time>
      </trkpt>
      <trkpt lat="43.44258" lon="1.95319">
        <ele>241.8</ele>
        <time>2023-05-27T11:00:00Z</time>
      </trkpt>
      <trkpt lat="43.44259" lon="1.95314">
        <ele>241.8</ele>
        <time>2023-05-27T11:00:01Z</time>
      </trkpt>
      <trkpt lat="43.4426" lon="1.95308">
        <ele>241.8</ele>
        <time>2023-05-27T11:00:02Z</time>
      </trkpt>
      <trkpt lat="43.44262" lon="1.95302">
        <ele>241.8</ele>
        <time>2023-05-27T11:00:03Z</time>
      </trkpt>
      <trkpt lat="43.44264" lon="1.95297">
        <ele>241.8</ele>
        <time>2023-05-27T11:00:04Z</time>
      </trkpt>
      <trkpt lat="43.44267" lon="1.95293">
        <ele>241.8</ele>
        <time>2023-05-27T11:00:05Z</time>
      </trkpt>
      <trkpt lat="43.4427" lon="1.95289">
        <ele>241.8</ele>
        <time>2023-05-27T11:00:06Z</time>
      </trkpt>
      <trkpt lat="43.44273" lon="1.95286">
        <ele>241.8</ele>
        <time>2023-05-27T11:00:07Z</time>
      </trkpt>
      <trkpt lat="43.44276" lon="1.95284">
        <ele>241.8</ele>
        <time>2023-05-27T11:00:08Z</time>
      </trkpt>
      <trkpt lat="43.4428" lon="1.95282">
        <ele>241.8</ele>
        <time>2023-05-27T11:00:09Z</time>
      </trkpt>
      <trkpt lat="43.44283" lon="1.95281">
        <ele>241.8</ele>
        <time>2023-05-27T11:00:10Z</time>
      </trkpt>
      <trkpt lat="43.44286" lon="1.95281">
        <ele>241.8</ele>
        <time>2023-05-27T11:00:11Z</time>
      </trkpt>
      <trkpt lat="43.44289" lon="1.95281">
        <ele>241.8</ele>
        <time>2023-05-27T11:00:12Z</time>
      </trkpt>
      <trkpt lat="43.44292" lon="1.95281">
        <ele>241.8</ele>
        <time>2023-05-27T11:00:13Z</time>
      </trkpt>
      <trkpt lat="43.44294" lon="1.95282">
        <ele>241.8</ele>
        <time>2023-05-27T11:00:14Z</time>
      </trkpt>
      <trkpt lat="43.44297" lon="1.95283">
        <ele>241.8</ele>
        <time>2023-05-27T11:00:15Z</time>
      </trkpt>
      <trkpt lat="43.443" lon="1.95284">
        <ele>241.8</ele>
        <time>2023-05-27T11:00:16Z</time>
      </trkpt>
      <trkpt lat="43.44302" lon="1.95285">
        <ele>241.8</ele>
        <time>2023-05-27T11:00:17Z</time>
      </trkpt>
      <trkpt lat="43.44305" lon="1.95287">
        <ele>241.8</ele>
        <time>2023-05-27T11:00:18Z</time>
      </trkpt>
      <trkpt lat="43.44308" lon="1.95288">
        <ele>241.8</ele>
        <time>2023-05-27T11:00:19Z</time>
      </trkpt>
      <trkpt lat="43.44311" lon="1.95288">
        <ele>241.8</ele>
        <time>2023-05-27T11:00:20Z</time>
      </trkpt>
      <trkpt lat="43.44313" lon="1.95289">
        <ele>241.8</ele>
        <time>2023-05-27T11:00:21Z</time>
      </trkpt>
      <trkpt lat="43.44316" lon="1.95291">
        <ele>241.8</ele>
        <time>2023-05-27T11:00:22Z</time>
      </trkpt>
      <trkpt lat="43.4432" lon="1.95292">
        <ele>241.8</ele>
        <time>2023-05-27T11:00:23Z</time>
      </trkpt>
      <trkpt lat="43.44323" lon="1.95293">
        <ele>241.8</ele>
        <time>2023-05-27T11:00:24Z</time>
      </trkpt>
      <trkpt lat="43.44327" lon="1.95294">
        <ele>241.8</ele>
        <time>2023-05-27T11:00:25Z</time>
      </trkpt>
      <trkpt lat="43.4433" lon="1.95295">
        <ele>241.8</ele>
        <time>2023-05-27T11:00:26Z</time>
      </trkpt>
      <trkpt lat="43.44334" lon="1.95295">
        <ele>241.8</ele>
        <time>2023-05-27T11:00:27Z</time>
      </trkpt>
      <trkpt lat="43.44338" lon="1.95296">
        <ele>241.8</ele>
        <time>2023-05-27T11:00:28Z</time>
      </trkpt>
      <trkpt lat="43.44343" lon="1.95297">
        <ele>241.8</ele>
        <time>2023-05-27T11:00:29Z</time>
      </trkpt>
      <trkpt lat="43.44345" lon="1.95299">
        <ele>241.8</ele>
        <time>2023-05-27T11:00:30Z</time>
      </trkpt>
      <trkpt lat="43.44349" lon="1.953">
        <ele>241.8</ele>
        <time>2023-05-27T11:00:31Z</time>
      </trkpt>
      <trkpt lat="43.44353" lon="1.95302">
        <ele>242</ele>
        <time>2023-05-27T11:00:32Z</time>
      </trkpt>
      <trkpt lat="43.44356" lon="1.95304">
        <ele>242</ele>
        <time>2023-05-27T11:00:33Z</time>
      </trkpt>
      <trkpt lat="43.44359" lon="1.95305">
        <ele>242</ele>
        <time>2023-05-27T11:00:34Z</time>
      </trkpt>
      <trkpt lat="43.44364" lon="1.95307">
        <ele>242</ele>
        <time>2023-05-27T11:00:35Z</time>
      </trkpt>
      <trkpt lat="43.44368" lon="1.95309">
        <ele>242</ele>
        <time>2023-05-27T11:00:36Z</time>
      </trkpt>
      <trkpt lat="43.44373" lon="1.95311">
        <ele>242</ele>
        <time>2023-05-27T11:00:37Z</time>
      </trkpt>
      <trkpt lat="43.44377" lon="1.95311">
        <ele>242</ele>
        <time>2023-05-27T11:00:38Z</time>
      </trkpt>
      <trkpt lat="43.44381" lon="1.95312">
        <ele>242</ele>
        <time>2023-05-27T11:00:39Z</time>
      </trkpt>
      <trkpt lat="43.44384" lon="1.95314">
        <ele>242</ele>
        <time>2023-05-27T11:00:40Z</time>
      </trkpt>
      <trkpt lat="43.44388" lon="1.95318">
        <ele>242</ele>
        <time>2023-05-27T11:00:41Z</time>
      </trkpt>
      <trkpt lat="43.44394" lon="1.95322">
        <ele>242</ele>
        <time>2023-05-27T11:00:42Z</time>
      </trkpt>
      <trkpt lat="43.44398" lon="1.95325">
        <ele>242.2</ele>
        <time>2023-05-27T11:00:43Z</time>
      </trkpt>
      <trkpt lat="43.44402" lon="1.95328">
        <ele>242.2</ele>
        <time>2023-05-27T11:00:44Z</time>
      </trkpt>
      <trkpt lat="43.44407" lon="1.9533">
        <ele>242.2</ele>
        <time>2023-05-27T11:00:45Z</time>
      </trkpt>
      <trkpt lat="43.4441" lon="1.95329">
        <ele>242.2</ele>
        <time>2023-05-27T11:00:46Z</time>
      </trkpt>
      <trkpt lat="43.44413" lon="1.95329">
        <ele>242.2</ele>
        <time>2023-05-27T11:00:47Z</time>
      </trkpt>
      <trkpt lat="43.44416" lon="1.95328">
        <ele>242.2</ele>
        <time>2023-05-27T11:00:48Z</time>
      </trkpt>
      <trkpt lat="43.4442" lon="1.95326">
        <ele>242.2</ele>
        <time>2023-05-27T11:00:49Z</time>
      </trkpt>
      <trkpt lat="43.44423" lon="1.95323">
        <ele>242.2</ele>
        <time>2023-05-27T11:00:50Z</time>
      </trkpt>
      <trkpt lat="43.44427" lon="1.95319">
        <ele>242.2</ele>
        <time>2023-05-27T11:00:51Z</time>
      </trkpt>
      <trkpt lat="43.44431" lon="1.95317">
        <ele>242.2</ele>
        <time>2023-05-27T11:00:52Z</time>
      </trkpt>
      <trkpt lat="43.44434" lon="1.95313">
        <ele>242.2</ele>
        <time>2023-05-27T11:00:53Z</time>
      </trkpt>
      <trkpt lat="43.44439" lon="1.95313">
        <ele>242.2</ele>
        <time>2023-05-27T11:00:54Z</time>
      </trkpt>
      <trkpt lat="43.44442" lon="1.95312">
        <ele>242.2</ele>
        <time>2023-05-27T11:00:55Z</time>
      </trkpt>
      <trkpt lat="43.44445" lon="1.95312">
        <ele>242.2</ele>
        <time>2023-05-27T11:00:56Z</time>
      </trkpt>
      <trkpt lat="43.44448" lon="1.95312">
        <ele>242.2</ele>
        <time>2023-05-27T11:00:57Z</time>
      </trkpt>
      <trkpt lat="43.44451" lon="1.95311">
        <ele>242.4</ele>
        <time>2023-05-27T11:00:58Z</time>
      </trkpt>
      <trkpt lat="43.44456" lon="1.95308">
        <ele>242.4</ele>
        <time>2023-05-27T11:00:59Z</time>
      </trkpt>
      <trkpt lat="43.44459" lon="1.95307">
        <ele>242.4</ele>
        <time>2023-05-27T11:01:00Z</time>
      </trkpt>
      <trkpt lat="43.44461" lon="1.95307">
        <ele>242.4</ele>
        <time>2023-05-27T11:01:01Z</time>
      </trkpt>
      <trkpt lat="43.44464" lon="1.95307">
        <ele>242.6</ele>
        <time>2023-05-27T11:01:02Z</time>
      </trkpt>
      <trkpt lat="43.44467" lon="1.95309">
        <ele>242.6</ele>
        <time>2023-05-27T11:01:03Z</time>
      </trkpt>
      <trkpt lat="43.44471" lon="1.95311">
        <ele>242.6</ele>
        <time>2023-05-27T11:01:04Z</time>
      </trkpt>
      <trkpt lat="43.44474" lon="1.95313">
        <ele>242.8</ele>
        <time>2023-05-27T11:01:05Z</time>
      </trkpt>
      <trkpt lat="43.44476" lon="1.95315">
        <ele>242.8</ele>
        <time>2023-05-27T11:01:06Z</time>
      </trkpt>
      <trkpt lat="43.44479" lon="1.95317">
        <ele>242.8</ele>
        <time>2023-05-27T11:01:07Z</time>
      </trkpt>
      <trkpt lat="43.44482" lon="1.9532">
        <ele>242.8</ele>
        <time>2023-05-27T11:01:08Z</time>
      </trkpt>
      <trkpt lat="43.44485" lon="1.95322">
        <ele>242.8</ele>
        <time>2023-05-27T11:01:09Z</time>
      </trkpt>
      <trkpt lat="43.44487" lon="1.95324">
        <ele>242.8</ele>
        <time>2023-05-27T11:01:10Z</time>
      </trkpt>
      <trkpt lat="43.44491" lon="1.9533">
        <ele>242.8</ele>
        <time>2023-05-27T11:01:11Z</time>
      </trkpt>
      <trkpt lat="43.44494" lon="1.95335">
        <ele>242.8</ele>
        <time>2023-05-27T11:01:12Z</time>
      </trkpt>
      <trkpt lat="43.44496" lon="1.95341">
        <ele>242.6</ele>
        <time>2023-05-27T11:01:13Z</time>
      </trkpt>
      <trkpt lat="43.44496" lon="1.95347">
        <ele>242.6</ele>
        <time>2023-05-27T11:01:14Z</time>
      </trkpt>
      <trkpt lat="43.44494" lon="1.9535">
        <ele>242.6</ele>
        <time>2023-05-27T11:01:15Z</time>
      </trkpt>
      <trkpt lat="43.44493" lon="1.95354">
        <ele>242.4</ele>
        <time>2023-05-27T11:01:16Z</time>
      </trkpt>
      <trkpt lat="43.44492" lon="1.95358">
        <ele>242.4</ele>
        <time>2023-05-27T11:01:17Z</time>
      </trkpt>
      <trkpt lat="43.4449" lon="1.95361">
        <ele>242.4</ele>
        <time>2023-05-27T11:01:18Z</time>
      </trkpt>
      <trkpt lat="43.44489" lon="1.95366">
        <ele>242.4</ele>
        <time>2023-05-27T11:01:19Z</time>
      </trkpt>
      <trkpt lat="43.44486" lon="1.95371">
        <ele>242.4</ele>
        <time>2023-05-27T11:01:20Z</time>
      </trkpt>
      <trkpt lat="43.44484" lon="1.95378">
        <ele>242.4</ele>
        <time>2023-05-27T11:01:21Z</time>
      </trkpt>
      <trkpt lat="43.44483" lon="1.95383">
        <ele>242.2</ele>
        <time>2023-05-27T11:01:22Z</time>
      </trkpt>
      <trkpt lat="43.44481" lon="1.95387">
        <ele>242.2</ele>
        <time>2023-05-27T11:01:23Z</time>
      </trkpt>
      <trkpt lat="43.44479" lon="1.95392">
        <ele>242.4</ele>
        <time>2023-05-27T11:01:24Z</time>
      </trkpt>
      <trkpt lat="43.44478" lon="1.95398">
        <ele>242.4</ele>
        <time>2023-05-27T11:01:25Z</time>
      </trkpt>
      <trkpt lat="43.44476" lon="1.95403">
        <ele>242.4</ele>
        <time>2023-05-27T11:01:26Z</time>
      </trkpt>
      <trkpt lat="43.44474" lon="1.95407">
        <ele>242.4</ele>
        <time>2023-05-27T11:01:27Z</time>
      </trkpt>
      <trkpt lat="43.44471" lon="1.95413">
        <ele>242.4</ele>
        <time>2023-05-27T11:01:28Z</time>
      </trkpt>
      <trkpt lat="43.44468" lon="1.95419">
        <ele>242.4</ele>
        <time>2023-05-27T11:01:29Z</time>
      </trkpt>
      <trkpt lat="43.44467" lon="1.95423">
        <ele>242.4</ele>
        <time>2023-05-27T11:01:30Z</time>
      </trkpt>
      <trkpt lat="43.44466" lon="1.95428">
        <ele>242.4</ele>
        <time>2023-05-27T11:01:31Z</time>
      </trkpt>
      <trkpt lat="43.44465" lon="1.95433">
        <ele>242.4</ele>
        <time>2023-05-27T11:01:32Z</time>
      </trkpt>
      <trkpt lat="43.44463" lon="1.95437">
        <ele>242.4</ele>
        <time>2023-05-27T11:01:33Z</time>
      </trkpt>
      <trkpt lat="43.44462" lon="1.95441">
        <ele>242.4</ele>
        <time>2023-05-27T11:01:34Z</time>
      </trkpt>
      <trkpt lat="43.4446" lon="1.95445">
        <ele>242.4</ele>
        <time>2023-05-27T11:01:35Z</time>
      </trkpt>
      <trkpt lat="43.44457" lon="1.95449">
        <ele>242.4</ele>
        <time>2023-05-27T11:01:36Z</time>
      </trkpt>
      <trkpt lat="43.44453" lon="1.95454">
        <ele>242.4</ele>
        <time>2023-05-27T11:01:37Z</time>
      </trkpt>
      <trkpt lat="43.44449" lon="1.95461">
        <ele>242.4</ele>
        <time>2023-05-27T11:01:38Z</time>
      </trkpt>
      <trkpt lat="43.44445" lon="1.95466">
        <ele>242.4</ele>
        <time>2023-05-27T11:01:39Z</time>
      </trkpt>
      <trkpt lat="43.44442" lon="1.95471">
        <ele>242.4</ele>
        <time>2023-05-27T11:01:40Z</time>
      </trkpt>
      <trkpt lat="43.44441" lon="1.95474">
        <ele>242.4</ele>
        <time>2023-05-27T11:01:41Z</time>
      </trkpt>
      <trkpt lat="43.44439" lon="1.95481">
        <ele>242.6</ele>
        <time>2023-05-27T11:01:42Z</time>
      </trkpt>
      <trkpt lat="43.44436" lon="1.95486">
        <ele>242.6</ele>
        <time>2023-05-27T11:01:43Z</time>
      </trkpt>
      <trkpt lat="43.44434" lon="1.95489">
        <ele>242.6</ele>
        <time>2023-05-27T11:01:44Z</time>
      </trkpt>
      <trkpt lat="43.4443" lon="1.95492">
        <ele>242.6</ele>
        <time>2023-05-27T11:01:45Z</time>
      </trkpt>
      <trkpt lat="43.44428" lon="1.95497">
        <ele>242.6</ele>
        <time>2023-05-27T11:01:46Z</time>
      </trkpt>
      <trkpt lat="43.44425" lon="1.95502">
        <ele>242.6</ele>
        <time>2023-05-27T11:01:47Z</time>
      </trkpt>
      <trkpt lat="43.44423" lon="1.95506">
        <ele>242.6</ele>
        <time>2023-05-27T11:01:48Z</time>
      </trkpt>
      <trkpt lat="43.44421" lon="1.9551">
        <ele>242.6</ele>
        <time>2023-05-27T11:01:49Z</time>
      </trkpt>
      <trkpt lat="43.44418" lon="1.95516">
        <ele>242.6</ele>
        <time>2023-05-27T11:01:50Z</time>
      </trkpt>
      <trkpt lat="43.44416" lon="1.9552">
        <ele>242.6</ele>
        <time>2023-05-27T11:01:51Z</time>
      </trkpt>
      <trkpt lat="43.44414" lon="1.95527">
        <ele>242.6</ele>
        <time>2023-05-27T11:01:52Z</time>
      </trkpt>
      <trkpt lat="43.44414" lon="1.9553">
        <ele>242.6</ele>
        <time>2023-05-27T11:01:53Z</time>
      </trkpt>
      <trkpt lat="43.44413" lon="1.95534">
        <ele>242.8</ele>
        <time>2023-05-27T11:01:54Z</time>
      </trkpt>
      <trkpt lat="43.44409" lon="1.95542">
        <ele>242.8</ele>
        <time>2023-05-27T11:01:55Z</time>
      </trkpt>
      <trkpt lat="43.44405" lon="1.95549">
        <ele>242.8</ele>
        <time>2023-05-27T11:01:56Z</time>
      </trkpt>
      <trkpt lat="43.44401" lon="1.95552">
        <ele>242.8</ele>
        <time>2023-05-27T11:01:57Z</time>
      </trkpt>
      <trkpt lat="43.44398" lon="1.95556">
        <ele>242.8</ele>
        <time>2023-05-27T11:01:58Z</time>
      </trkpt>
      <trkpt lat="43.44395" lon="1.95558">
        <ele>242.8</ele>
        <time>2023-05-27T11:01:59Z</time>
      </trkpt>
      <trkpt lat="43.44392" lon="1.95562">
        <ele>243</ele>
        <time>2023-05-27T11:02:00Z</time>
      </trkpt>
      <trkpt lat="43.44389" lon="1.95565">
        <ele>243</ele>
        <time>2023-05-27T11:02:01Z</time>
      </trkpt>
      <trkpt lat="43.44386" lon="1.95568">
        <ele>243</ele>
        <time>2023-05-27T11:02:02Z</time>
      </trkpt>
      <trkpt lat="43.44384" lon="1.95572">
        <ele>243</ele>
        <time>2023-05-27T11:02:03Z</time>
      </trkpt>
      <trkpt lat="43.44382" lon="1.95575">
        <ele>243</ele>
        <time>2023-05-27T11:02:04Z</time>
      </trkpt>
      <trkpt lat="43.4438" lon="1.95577">
        <ele>243</ele>
        <time>2023-05-27T11:02:05Z</time>
      </trkpt>
      <trkpt lat="43.44379" lon="1.95579">
        <ele>243</ele>
        <time>2023-05-27T11:02:06Z</time>
      </trkpt>
      <trkpt lat="43.44378" lon="1.95582">
        <ele>243</ele>
        <time>2023-05-27T11:02:07Z</time>
      </trkpt>
      <trkpt lat="43.44376" lon="1.95585">
        <ele>243</ele>
        <time>2023-05-27T11:02:08Z</time>
      </trkpt>
      <trkpt lat="43.44374" lon="1.95588">
        <ele>243</ele>
        <time>2023-05-27T11:02:09Z</time>
      </trkpt>
      <trkpt lat="43.44372" lon="1.9559">
        <ele>243</ele>
        <time>2023-05-27T11:02:10Z</time>
      </trkpt>
      <trkpt lat="43.44371" lon="1.95592">
        <ele>243</ele>
        <time>2023-05-27T11:02:11Z</time>
      </trkpt>
      <trkpt lat="43.44368" lon="1.95597">
        <ele>243</ele>
        <time>2023-05-27T11:02:12Z</time>
      </trkpt>
      <trkpt lat="43.44364" lon="1.95601">
        <ele>243</ele>
        <time>2023-05-27T11:02:13Z</time>
      </trkpt>
      <trkpt lat="43.44361" lon="1.95604">
        <ele>243.2</ele>
        <time>2023-05-27T11:02:14Z</time>
      </trkpt>
      <trkpt lat="43.44359" lon="1.95609">
        <ele>243.2</ele>
        <time>2023-05-27T11:02:15Z</time>
      </trkpt>
      <trkpt lat="43.44357" lon="1.95614">
        <ele>243.2</ele>
        <time>2023-05-27T11:02:16Z</time>
      </trkpt>
      <trkpt lat="43.44354" lon="1.95619">
        <ele>243.2</ele>
        <time>2023-05-27T11:02:17Z</time>
      </trkpt>
      <trkpt lat="43.44352" lon="1.95624">
        <ele>243.2</ele>
        <time>2023-05-27T11:02:18Z</time>
      </trkpt>
      <trkpt lat="43.44351" lon="1.95628">
        <ele>243.2</ele>
        <time>2023-05-27T11:02:19Z</time>
      </trkpt>
      <trkpt lat="43.4435" lon="1.95633">
        <ele>243.2</ele>
        <time>2023-05-27T11:02:20Z</time>
      </trkpt>
      <trkpt lat="43.44349" lon="1.95639">
        <ele>243.2</ele>
        <time>2023-05-27T11:02:21Z</time>
      </trkpt>
      <trkpt lat="43.44348" lon="1.95645">
        <ele>243.2</ele>
        <time>2023-05-27T11:02:22Z</time>
      </trkpt>
      <trkpt lat="43.44348" lon="1.95649">
        <ele>243.2</ele>
        <time>2023-05-27T11:02:23Z</time>
      </trkpt>
      <trkpt lat="43.44348" lon="1.95656">
        <ele>243.2</ele>
        <time>2023-05-27T11:02:24Z</time>
      </trkpt>
      <trkpt lat="43.44348" lon="1.95663">
        <ele>243</ele>
        <time>2023-05-27T11:02:25Z</time>
      </trkpt>
      <trkpt lat="43.44349" lon="1.95669">
        <ele>243</ele>
        <time>2023-05-27T11:02:26Z</time>
      </trkpt>
      <trkpt lat="43.4435" lon="1.95676">
        <ele>243</ele>
        <time>2023-05-27T11:02:27Z</time>
      </trkpt>
      <trkpt lat="43.44351" lon="1.95682">
        <ele>243</ele>
        <time>2023-05-27T11:02:28Z</time>
      </trkpt>
      <trkpt lat="43.44351" lon="1.95687">
        <ele>243</ele>
        <time>2023-05-27T11:02:29Z</time>
      </trkpt>
      <trkpt lat="43.44352" lon="1.95693">
        <ele>243</ele>
        <time>2023-05-27T11:02:30Z</time>
      </trkpt>
      <trkpt lat="43.44353" lon="1.957">
        <ele>243</ele>
        <time>2023-05-27T11:02:31Z</time>
      </trkpt>
      <trkpt lat="43.44353" lon="1.95707">
        <ele>243</ele>
        <time>2023-05-27T11:02:32Z</time>
      </trkpt>
      <trkpt lat="43.44354" lon="1.95713">
        <ele>243</ele>
        <time>2023-05-27T11:02:33Z</time>
      </trkpt>
      <trkpt lat="43.44354" lon="1.95721">
        <ele>243</ele>
        <time>2023-05-27T11:02:34Z</time>
      </trkpt>
      <trkpt lat="43.44355" lon="1.95727">
        <ele>243</ele>
        <time>2023-05-27T11:02:35Z</time>
      </trkpt>
      <trkpt lat="43.44356" lon="1.95736">
        <ele>243</ele>
        <time>2023-05-27T11:02:36Z</time>
      </trkpt>
      <trkpt lat="43.44356" lon="1.95742">
        <ele>243</ele>
        <time>2023-05-27T11:02:37Z</time>
      </trkpt>
      <trkpt lat="43.44357" lon="1.95748">
        <ele>243</ele>
        <time>2023-05-27T11:02:38Z</time>
      </trkpt>
      <trkpt lat="43.44357" lon="1.95756">
        <ele>243</ele>
        <time>2023-05-27T11:02:39Z</time>
      </trkpt>
      <trkpt lat="43.44357" lon="1.95762">
        <ele>243</ele>
        <time>2023-05-27T11:02:40Z</time>
      </trkpt>
      <trkpt lat="43.44358" lon="1.95767">
        <ele>243</ele>
        <time>2023-05-27T11:02:41Z</time>
      </trkpt>
      <trkpt lat="43.44358" lon="1.95773">
        <ele>243</ele>
        <time>2023-05-27T11:02:42Z</time>
      </trkpt>
      <trkpt lat="43.44359" lon="1.95779">
        <ele>243</ele>
        <time>2023-05-27T11:02:43Z</time>
      </trkpt>
      <trkpt lat="43.44359" lon="1.95784">
        <ele>243.2</ele>
        <time>2023-05-27T11:02:44Z</time>
      </trkpt>
      <trkpt lat="43.4436" lon="1.95789">
        <ele>243.2</ele>
        <time>2023-05-27T11:02:45Z</time>
      </trkpt>
      <trkpt lat="43.44361" lon="1.95794">
        <ele>243.2</ele>
        <time>2023-05-27T11:02:46Z</time>
      </trkpt>
      <trkpt lat="43.44362" lon="1.958">
        <ele>243.2</ele>
        <time>2023-05-27T11:02:47Z</time>
      </trkpt>
      <trkpt lat="43.44363" lon="1.95806">
        <ele>243.2</ele>
        <time>2023-05-27T11:02:48Z</time>
      </trkpt>
      <trkpt lat="43.44363" lon="1.95812">
        <ele>243.2</ele>
        <time>2023-05-27T11:02:49Z</time>
      </trkpt>
      <trkpt lat="43.44363" lon="1.95816">
        <ele>243.2</ele>
        <time>2023-05-27T11:02:50Z</time>
      </trkpt>
      <trkpt lat="43.44364" lon="1.9582">
        <ele>243.2</ele>
        <time>2023-05-27T11:02:51Z</time>
      </trkpt>
      <trkpt lat="43.44365" lon="1.95826">
        <ele>243.2</ele>
        <time>2023-05-27T11:02:52Z</time>
      </trkpt>
      <trkpt lat="43.44366" lon="1.9583">
        <ele>243.2</ele>
        <time>2023-05-27T11:02:53Z</time>
      </trkpt>
      <trkpt lat="43.44366" lon="1.95836">
        <ele>243.2</ele>
        <time>2023-05-27T11:02:54Z</time>
      </trkpt>
      <trkpt lat="43.44367" lon="1.95839">
        <ele>243.4</ele>
        <time>2023-05-27T11:02:55Z</time>
      </trkpt>
      <trkpt lat="43.44367" lon="1.95844">
        <ele>243.4</ele>
        <time>2023-05-27T11:02:56Z</time>
      </trkpt>
      <trkpt lat="43.44368" lon="1.9585">
        <ele>243.4</ele>
        <time>2023-05-27T11:02:57Z</time>
      </trkpt>
      <trkpt lat="43.44369" lon="1.95855">
        <ele>243.4</ele>
        <time>2023-05-27T11:02:58Z</time>
      </trkpt>
      <trkpt lat="43.4437" lon="1.9586">
        <ele>243.4</ele>
        <time>2023-05-27T11:02:59Z</time>
      </trkpt>
      <trkpt lat="43.44371" lon="1.95864">
        <ele>243.4</ele>
        <time>2023-05-27T11:03:00Z</time>
      </trkpt>
      <trkpt lat="43.44371" lon="1.95868">
        <ele>243.4</ele>
        <time>2023-05-27T11:03:01Z</time>
      </trkpt>
      <trkpt lat="43.44371" lon="1.95873">
        <ele>243.4</ele>
        <time>2023-05-27T11:03:02Z</time>
      </trkpt>
      <trkpt lat="43.44372" lon="1.9588">
        <ele>243.4</ele>
        <time>2023-05-27T11:03:03Z</time>
      </trkpt>
      <trkpt lat="43.44373" lon="1.95884">
        <ele>243.4</ele>
        <time>2023-05-27T11:03:04Z</time>
      </trkpt>
      <trkpt lat="43.44376" lon="1.9589">
        <ele>243.4</ele>
        <time>2023-05-27T11:03:05Z</time>
      </trkpt>
      <trkpt lat="43.44378" lon="1.95894">
        <ele>243.4</ele>
        <time>2023-05-27T11:03:06Z</time>
      </trkpt>
      <trkpt lat="43.4438" lon="1.95899">
        <ele>243.2</ele>
        <time>2023-05-27T11:03:07Z</time>
      </trkpt>
      <trkpt lat="43.44382" lon="1.95903">
        <ele>243.2</ele>
        <time>2023-05-27T11:03:08Z</time>
      </trkpt>
      <trkpt lat="43.44384" lon="1.95907">
        <ele>243.4</ele>
        <time>2023-05-27T11:03:09Z</time>
      </trkpt>
      <trkpt lat="43.44387" lon="1.95911">
        <ele>243.4</ele>
        <time>2023-05-27T11:03:10Z</time>
      </trkpt>
      <trkpt lat="43.4439" lon="1.95916">
        <ele>243.4</ele>
        <time>2023-05-27T11:03:11Z</time>
      </trkpt>
      <trkpt lat="43.44393" lon="1.95922">
        <ele>243.4</ele>
        <time>2023-05-27T11:03:12Z</time>
      </trkpt>
      <trkpt lat="43.44395" lon="1.95927">
        <ele>243.4</ele>
        <time>2023-05-27T11:03:13Z</time>
      </trkpt>
      <trkpt lat="43.44397" lon="1.95931">
        <ele>243.4</ele>
        <time>2023-05-27T11:03:14Z</time>
      </trkpt>
      <trkpt lat="43.44399" lon="1.95937">
        <ele>243.4</ele>
        <time>2023-05-27T11:03:15Z</time>
      </trkpt>
      <trkpt lat="43.44401" lon="1.95942">
        <ele>243.4</ele>
        <time>2023-05-27T11:03:16Z</time>
      </trkpt>
      <trkpt lat="43.44403" lon="1.95947">
        <ele>243.4</ele>
        <time>2023-05-27T11:03:17Z</time>
      </trkpt>
      <trkpt lat="43.44406" lon="1.95953">
        <ele>243.4</ele>
        <time>2023-05-27T11:03:18Z</time>
      </trkpt>
      <trkpt lat="43.4441" lon="1.95959">
        <ele>243.4</ele>
        <time>2023-05-27T11:03:19Z</time>
      </trkpt>
      <trkpt lat="43.44413" lon="1.95964">
        <ele>243.4</ele>
        <time>2023-05-27T11:03:20Z</time>
      </trkpt>
      <trkpt lat="43.44416" lon="1.95969">
        <ele>243.4</ele>
        <time>2023-05-27T11:03:21Z</time>
      </trkpt>
      <trkpt lat="43.44418" lon="1.95972">
        <ele>243.4</ele>
        <time>2023-05-27T11:03:22Z</time>
      </trkpt>
      <trkpt lat="43.4442" lon="1.95976">
        <ele>243.4</ele>
        <time>2023-05-27T11:03:23Z</time>
      </trkpt>
      <trkpt lat="43.44424" lon="1.95981">
        <ele>243.4</ele>
        <time>2023-05-27T11:03:24Z</time>
      </trkpt>
      <trkpt lat="43.44428" lon="1.95986">
        <ele>243.4</ele>
        <time>2023-05-27T11:03:25Z</time>
      </trkpt>
      <trkpt lat="43.4443" lon="1.9599">
        <ele>243.4</ele>
        <time>2023-05-27T11:03:26Z</time>
      </trkpt>
      <trkpt lat="43.44433" lon="1.95993">
        <ele>243.4</ele>
        <time>2023-05-27T11:03:27Z</time>
      </trkpt>
      <trkpt lat="43.44437" lon="1.95997">
        <ele>243.4</ele>
        <time>2023-05-27T11:03:28Z</time>
      </trkpt>
      <trkpt lat="43.44439" lon="1.96">
        <ele>243.4</ele>
        <time>2023-05-27T11:03:29Z</time>
      </trkpt>
      <trkpt lat="43.44443" lon="1.96004">
        <ele>243.4</ele>
        <time>2023-05-27T11:03:30Z</time>
      </trkpt>
      <trkpt lat="43.44447" lon="1.96008">
        <ele>243.4</ele>
        <time>2023-05-27T11:03:31Z</time>
      </trkpt>
      <trkpt lat="43.44451" lon="1.96012">
        <ele>243.4</ele>
        <time>2023-05-27T11:03:32Z</time>
      </trkpt>
      <trkpt lat="43.44456" lon="1.96017">
        <ele>243.4</ele>
        <time>2023-05-27T11:03:33Z</time>
      </trkpt>
      <trkpt lat="43.4446" lon="1.96019">
        <ele>243.4</ele>
        <time>2023-05-27T11:03:34Z</time>
      </trkpt>
      <trkpt lat="43.44463" lon="1.96023">
        <ele>243.4</ele>
        <time>2023-05-27T11:03:35Z</time>
      </trkpt>
      <trkpt lat="43.44467" lon="1.96029">
        <ele>243.4</ele>
        <time>2023-05-27T11:03:36Z</time>
      </trkpt>
      <trkpt lat="43.4447" lon="1.96035">
        <ele>243.4</ele>
        <time>2023-05-27T11:03:37Z</time>
      </trkpt>
      <trkpt lat="43.44472" lon="1.96038">
        <ele>243.4</ele>
        <time>2023-05-27T11:03:38Z</time>
      </trkpt>
      <trkpt lat="43.44472" lon="1.96041">
        <ele>243.4</ele>
        <time>2023-05-27T11:03:39Z</time>
      </trkpt>
      <trkpt lat="43.44473" lon="1.96043">
        <ele>243.4</ele>
        <time>2023-05-27T11:03:40Z</time>
      </trkpt>
      <trkpt lat="43.44474" lon="1.96046">
        <ele>243.4</ele>
        <time>2023-05-27T11:03:41Z</time>
      </trkpt>
      <trkpt lat="43.44474" lon="1.9605">
        <ele>243.6</ele>
        <time>2023-05-27T11:03:42Z</time>
      </trkpt>
      <trkpt lat="43.44475" lon="1.96053">
        <ele>243.6</ele>
        <time>2023-05-27T11:03:43Z</time>
      </trkpt>
      <trkpt lat="43.44476" lon="1.96057">
        <ele>243.6</ele>
        <time>2023-05-27T11:03:44Z</time>
      </trkpt>
      <trkpt lat="43.44477" lon="1.96061">
        <ele>243.6</ele>
        <time>2023-05-27T11:03:45Z</time>
      </trkpt>
      <trkpt lat="43.44478" lon="1.96066">
        <ele>243.6</ele>
        <time>2023-05-27T11:03:46Z</time>
      </trkpt>
      <trkpt lat="43.4448" lon="1.96072">
        <ele>243.6</ele>
        <time>2023-05-27T11:03:47Z</time>
      </trkpt>
      <trkpt lat="43.44481" lon="1.96077">
        <ele>243.6</ele>
        <time>2023-05-27T11:03:48Z</time>
      </trkpt>
      <trkpt lat="43.44482" lon="1.96081">
        <ele>243.6</ele>
        <time>2023-05-27T11:03:49Z</time>
      </trkpt>
      <trkpt lat="43.44482" lon="1.96086">
        <ele>243.6</ele>
        <time>2023-05-27T11:03:50Z</time>
      </trkpt>
      <trkpt lat="43.44483" lon="1.96092">
        <ele>243.4</ele>
        <time>2023-05-27T11:03:51Z</time>
      </trkpt>
      <trkpt lat="43.44484" lon="1.96098">
        <ele>243.4</ele>
        <time>2023-05-27T11:03:52Z</time>
      </trkpt>
      <trkpt lat="43.44483" lon="1.96104">
        <ele>243.4</ele>
        <time>2023-05-27T11:03:53Z</time>
      </trkpt>
      <trkpt lat="43.44482" lon="1.96109">
        <ele>243.4</ele>
        <time>2023-05-27T11:03:54Z</time>
      </trkpt>
      <trkpt lat="43.44482" lon="1.96115">
        <ele>243.4</ele>
        <time>2023-05-27T11:03:55Z</time>
      </trkpt>
      <trkpt lat="43.4448" lon="1.9612">
        <ele>243.6</ele>
        <time>2023-05-27T11:03:56Z</time>
      </trkpt>
      <trkpt lat="43.44479" lon="1.96126">
        <ele>243.6</ele>
        <time>2023-05-27T11:03:57Z</time>
      </trkpt>
      <trkpt lat="43.44478" lon="1.96131">
        <ele>243.6</ele>
        <time>2023-05-27T11:03:58Z</time>
      </trkpt>
      <trkpt lat="43.44476" lon="1.96137">
        <ele>243.6</ele>
        <time>2023-05-27T11:03:59Z</time>
      </trkpt>
      <trkpt lat="43.44474" lon="1.96143">
        <ele>243.6</ele>
        <time>2023-05-27T11:04:00Z</time>
      </trkpt>
      <trkpt lat="43.44473" lon="1.96145">
        <ele>243.8</ele>
        <time>2023-05-27T11:04:01Z</time>
      </trkpt>
      <trkpt lat="43.44473" lon="1.96147">
        <ele>243.8</ele>
        <time>2023-05-27T11:04:02Z</time>
      </trkpt>
      <trkpt lat="43.44471" lon="1.96154">
        <ele>243.8</ele>
        <time>2023-05-27T11:04:03Z</time>
      </trkpt>
      <trkpt lat="43.44469" lon="1.96162">
        <ele>243.8</ele>
        <time>2023-05-27T11:04:04Z</time>
      </trkpt>
      <trkpt lat="43.44469" lon="1.96169">
        <ele>244</ele>
        <time>2023-05-27T11:04:05Z</time>
      </trkpt>
      <trkpt lat="43.44469" lon="1.96173">
        <ele>244</ele>
        <time>2023-05-27T11:04:06Z</time>
      </trkpt>
      <trkpt lat="43.44469" lon="1.96176">
        <ele>244</ele>
        <time>2023-05-27T11:04:07Z</time>
      </trkpt>
      <trkpt lat="43.44468" lon="1.96181">
        <ele>244</ele>
        <time>2023-05-27T11:04:08Z</time>
      </trkpt>
      <trkpt lat="43.44467" lon="1.96185">
        <ele>244</ele>
        <time>2023-05-27T11:04:09Z</time>
      </trkpt>
      <trkpt lat="43.44466" lon="1.96191">
        <ele>244</ele>
        <time>2023-05-27T11:04:10Z</time>
      </trkpt>
      <trkpt lat="43.44465" lon="1.96199">
        <ele>243.8</ele>
        <time>2023-05-27T11:04:11Z</time>
      </trkpt>
      <trkpt lat="43.44463" lon="1.96205">
        <ele>243.8</ele>
        <time>2023-05-27T11:04:12Z</time>
      </trkpt>
      <trkpt lat="43.44462" lon="1.96211">
        <ele>243.8</ele>
        <time>2023-05-27T11:04:13Z</time>
      </trkpt>
      <trkpt lat="43.44461" lon="1.96217">
        <ele>243.8</ele>
        <time>2023-05-27T11:04:14Z</time>
      </trkpt>
      <trkpt lat="43.4446" lon="1.96224">
        <ele>243.8</ele>
        <time>2023-05-27T11:04:15Z</time>
      </trkpt>
      <trkpt lat="43.44457" lon="1.96228">
        <ele>243.8</ele>
        <time>2023-05-27T11:04:16Z</time>
      </trkpt>
      <trkpt lat="43.44456" lon="1.96232">
        <ele>243.8</ele>
        <time>2023-05-27T11:04:17Z</time>
      </trkpt>
      <trkpt lat="43.44455" lon="1.96238">
        <ele>243.8</ele>
        <time>2023-05-27T11:04:18Z</time>
      </trkpt>
      <trkpt lat="43.44453" lon="1.96245">
        <ele>243.8</ele>
        <time>2023-05-27T11:04:19Z</time>
      </trkpt>
      <trkpt lat="43.44449" lon="1.96251">
        <ele>243.8</ele>
        <time>2023-05-27T11:04:20Z</time>
      </trkpt>
      <trkpt lat="43.44447" lon="1.96256">
        <ele>243.8</ele>
        <time>2023-05-27T11:04:21Z</time>
      </trkpt>
      <trkpt lat="43.44444" lon="1.96261">
        <ele>243.8</ele>
        <time>2023-05-27T11:04:22Z</time>
      </trkpt>
      <trkpt lat="43.44442" lon="1.96266">
        <ele>243.8</ele>
        <time>2023-05-27T11:04:23Z</time>
      </trkpt>
      <trkpt lat="43.44439" lon="1.9627">
        <ele>244</ele>
        <time>2023-05-27T11:04:24Z</time>
      </trkpt>
      <trkpt lat="43.44437" lon="1.96272">
        <ele>244</ele>
        <time>2023-05-27T11:04:25Z</time>
      </trkpt>
      <trkpt lat="43.44434" lon="1.96275">
        <ele>244</ele>
        <time>2023-05-27T11:04:26Z</time>
      </trkpt>
      <trkpt lat="43.44431" lon="1.96278">
        <ele>244</ele>
        <time>2023-05-27T11:04:27Z</time>
      </trkpt>
      <trkpt lat="43.44429" lon="1.96281">
        <ele>244</ele>
        <time>2023-05-27T11:04:28Z</time>
      </trkpt>
      <trkpt lat="43.44427" lon="1.96284">
        <ele>243.8</ele>
        <time>2023-05-27T11:04:29Z</time>
      </trkpt>
      <trkpt lat="43.44425" lon="1.96289">
        <ele>243.8</ele>
        <time>2023-05-27T11:04:30Z</time>
      </trkpt>
      <trkpt lat="43.44422" lon="1.96293">
        <ele>244</ele>
        <time>2023-05-27T11:04:31Z</time>
      </trkpt>
      <trkpt lat="43.4442" lon="1.96296">
        <ele>244</ele>
        <time>2023-05-27T11:04:32Z</time>
      </trkpt>
      <trkpt lat="43.44418" lon="1.96299">
        <ele>244</ele>
        <time>2023-05-27T11:04:33Z</time>
      </trkpt>
      <trkpt lat="43.44416" lon="1.96302">
        <ele>244</ele>
        <time>2023-05-27T11:04:34Z</time>
      </trkpt>
      <trkpt lat="43.44414" lon="1.96305">
        <ele>244</ele>
        <time>2023-05-27T11:04:35Z</time>
      </trkpt>
      <trkpt lat="43.44412" lon="1.96308">
        <ele>244</ele>
        <time>2023-05-27T11:04:36Z</time>
      </trkpt>
      <trkpt lat="43.44409" lon="1.96313">
        <ele>244.2</ele>
        <time>2023-05-27T11:04:37Z</time>
      </trkpt>
      <trkpt lat="43.44407" lon="1.96318">
        <ele>244.2</ele>
        <time>2023-05-27T11:04:38Z</time>
      </trkpt>
      <trkpt lat="43.44405" lon="1.96323">
        <ele>244.2</ele>
        <time>2023-05-27T11:04:39Z</time>
      </trkpt>
      <trkpt lat="43.44404" lon="1.96328">
        <ele>244.2</ele>
        <time>2023-05-27T11:04:40Z</time>
      </trkpt>
      <trkpt lat="43.44403" lon="1.96335">
        <ele>244.2</ele>
        <time>2023-05-27T11:04:41Z</time>
      </trkpt>
      <trkpt lat="43.44402" lon="1.96341">
        <ele>244.2</ele>
        <time>2023-05-27T11:04:42Z</time>
      </trkpt>
      <trkpt lat="43.44401" lon="1.96347">
        <ele>244.2</ele>
        <time>2023-05-27T11:04:43Z</time>
      </trkpt>
      <trkpt lat="43.444" lon="1.96353">
        <ele>244.2</ele>
        <time>2023-05-27T11:04:44Z</time>
      </trkpt>
      <trkpt lat="43.444" lon="1.96359">
        <ele>244.4</ele>
        <time>2023-05-27T11:04:45Z</time>
      </trkpt>
      <trkpt lat="43.44399" lon="1.96365">
        <ele>244.4</ele>
        <time>2023-05-27T11:04:46Z</time>
      </trkpt>
      <trkpt lat="43.44396" lon="1.96371">
        <ele>244.4</ele>
        <time>2023-05-27T11:04:47Z</time>
      </trkpt>
      <trkpt lat="43.44396" lon="1.96374">
        <ele>244.4</ele>
        <time>2023-05-27T11:04:48Z</time>
      </trkpt>
      <trkpt lat="43.44396" lon="1.96379">
        <ele>244.4</ele>
        <time>2023-05-27T11:04:49Z</time>
      </trkpt>
      <trkpt lat="43.44395" lon="1.96383">
        <ele>244.4</ele>
        <time>2023-05-27T11:04:50Z</time>
      </trkpt>
      <trkpt lat="43.44394" lon="1.96387">
        <ele>244.4</ele>
        <time>2023-05-27T11:04:51Z</time>
      </trkpt>
      <trkpt lat="43.44394" lon="1.96391">
        <ele>244.4</ele>
        <time>2023-05-27T11:04:52Z</time>
      </trkpt>
      <trkpt lat="43.44393" lon="1.96396">
        <ele>244.4</ele>
        <time>2023-05-27T11:04:53Z</time>
      </trkpt>
      <trkpt lat="43.44394" lon="1.96401">
        <ele>244.4</ele>
        <time>2023-05-27T11:04:54Z</time>
      </trkpt>
      <trkpt lat="43.44396" lon="1.96407">
        <ele>244.6</ele>
        <time>2023-05-27T11:04:55Z</time>
      </trkpt>
      <trkpt lat="43.44399" lon="1.96415">
        <ele>244.6</ele>
        <time>2023-05-27T11:04:56Z</time>
      </trkpt>
      <trkpt lat="43.444" lon="1.9642">
        <ele>244.4</ele>
        <time>2023-05-27T11:04:57Z</time>
      </trkpt>
      <trkpt lat="43.44401" lon="1.96426">
        <ele>244.6</ele>
        <time>2023-05-27T11:04:58Z</time>
      </trkpt>
      <trkpt lat="43.44403" lon="1.96432">
        <ele>244.6</ele>
        <time>2023-05-27T11:04:59Z</time>
      </trkpt>
      <trkpt lat="43.44405" lon="1.96436">
        <ele>244.6</ele>
        <time>2023-05-27T11:05:00Z</time>
      </trkpt>
      <trkpt lat="43.44407" lon="1.96439">
        <ele>244.6</ele>
        <time>2023-05-27T11:05:01Z</time>
      </trkpt>
      <trkpt lat="43.4441" lon="1.96442">
        <ele>244.6</ele>
        <time>2023-05-27T11:05:02Z</time>
      </trkpt>
      <trkpt lat="43.44414" lon="1.96444">
        <ele>244.6</ele>
        <time>2023-05-27T11:05:03Z</time>
      </trkpt>
      <trkpt lat="43.44418" lon="1.96446">
        <ele>244.6</ele>
        <time>2023-05-27T11:05:04Z</time>
      </trkpt>
      <trkpt lat="43.44422" lon="1.96447">
        <ele>244.4</ele>
        <time>2023-05-27T11:05:05Z</time>
      </trkpt>
      <trkpt lat="43.44425" lon="1.96447">
        <ele>244.4</ele>
        <time>2023-05-27T11:05:06Z</time>
      </trkpt>
      <trkpt lat="43.4443" lon="1.96448">
        <ele>244.4</ele>
        <time>2023-05-27T11:05:07Z</time>
      </trkpt>
      <trkpt lat="43.44433" lon="1.96448">
        <ele>244.4</ele>
        <time>2023-05-27T11:05:08Z</time>
      </trkpt>
      <trkpt lat="43.44436" lon="1.96448">
        <ele>244.4</ele>
        <time>2023-05-27T11:05:09Z</time>
      </trkpt>
      <trkpt lat="43.44439" lon="1.96448">
        <ele>244.4</ele>
        <time>2023-05-27T11:05:10Z</time>
      </trkpt>
      <trkpt lat="43.44443" lon="1.96447">
        <ele>244.4</ele>
        <time>2023-05-27T11:05:11Z</time>
      </trkpt>
      <trkpt lat="43.44446" lon="1.96447">
        <ele>244.4</ele>
        <time>2023-05-27T11:05:12Z</time>
      </trkpt>
      <trkpt lat="43.4445" lon="1.96447">
        <ele>244.4</ele>
        <time>2023-05-27T11:05:13Z</time>
      </trkpt>
      <trkpt lat="43.44453" lon="1.96447">
        <ele>244.4</ele>
        <time>2023-05-27T11:05:14Z</time>
      </trkpt>
      <trkpt lat="43.44457" lon="1.96447">
        <ele>244.2</ele>
        <time>2023-05-27T11:05:15Z</time>
      </trkpt>
      <trkpt lat="43.44461" lon="1.96447">
        <ele>244.2</ele>
        <time>2023-05-27T11:05:16Z</time>
      </trkpt>
      <trkpt lat="43.44464" lon="1.96446">
        <ele>244.2</ele>
        <time>2023-05-27T11:05:17Z</time>
      </trkpt>
      <trkpt lat="43.44467" lon="1.96445">
        <ele>244.2</ele>
        <time>2023-05-27T11:05:18Z</time>
      </trkpt>
      <trkpt lat="43.4447" lon="1.96443">
        <ele>244.2</ele>
        <time>2023-05-27T11:05:19Z</time>
      </trkpt>
      <trkpt lat="43.44474" lon="1.96442">
        <ele>244.2</ele>
        <time>2023-05-27T11:05:20Z</time>
      </trkpt>
      <trkpt lat="43.44478" lon="1.96441">
        <ele>244.2</ele>
        <time>2023-05-27T11:05:21Z</time>
      </trkpt>
      <trkpt lat="43.44482" lon="1.9644">
        <ele>244.2</ele>
        <time>2023-05-27T11:05:22Z</time>
      </trkpt>
      <trkpt lat="43.44486" lon="1.9644">
        <ele>244.4</ele>
        <time>2023-05-27T11:05:23Z</time>
      </trkpt>
      <trkpt lat="43.44491" lon="1.96441">
        <ele>244.4</ele>
        <time>2023-05-27T11:05:24Z</time>
      </trkpt>
      <trkpt lat="43.44495" lon="1.96443">
        <ele>244.4</ele>
        <time>2023-05-27T11:05:25Z</time>
      </trkpt>
      <trkpt lat="43.44498" lon="1.96446">
        <ele>244.4</ele>
        <time>2023-05-27T11:05:26Z</time>
      </trkpt>
      <trkpt lat="43.44501" lon="1.96448">
        <ele>244.4</ele>
        <time>2023-05-27T11:05:27Z</time>
      </trkpt>
      <trkpt lat="43.44503" lon="1.96451">
        <ele>244.4</ele>
        <time>2023-05-27T11:05:28Z</time>
      </trkpt>
      <trkpt lat="43.44505" lon="1.96455">
        <ele>244.4</ele>
        <time>2023-05-27T11:05:29Z</time>
      </trkpt>
      <trkpt lat="43.44509" lon="1.96459">
        <ele>244.2</ele>
        <time>2023-05-27T11:05:30Z</time>
      </trkpt>
      <trkpt lat="43.44512" lon="1.96464">
        <ele>244.2</ele>
        <time>2023-05-27T11:05:31Z</time>
      </trkpt>
      <trkpt lat="43.44515" lon="1.96468">
        <ele>244.2</ele>
        <time>2023-05-27T11:05:32Z</time>
      </trkpt>
      <trkpt lat="43.44518" lon="1.96474">
        <ele>244.2</ele>
        <time>2023-05-27T11:05:33Z</time>
      </trkpt>
      <trkpt lat="43.44521" lon="1.96478">
        <ele>244.2</ele>
        <time>2023-05-27T11:05:34Z</time>
      </trkpt>
      <trkpt lat="43.44523" lon="1.96483">
        <ele>244.2</ele>
        <time>2023-05-27T11:05:35Z</time>
      </trkpt>
      <trkpt lat="43.44525" lon="1.96487">
        <ele>244.2</ele>
        <time>2023-05-27T11:05:36Z</time>
      </trkpt>
      <trkpt lat="43.44527" lon="1.96491">
        <ele>244.2</ele>
        <time>2023-05-27T11:05:37Z</time>
      </trkpt>
      <trkpt lat="43.4453" lon="1.96496">
        <ele>244.2</ele>
        <time>2023-05-27T11:05:38Z</time>
      </trkpt>
      <trkpt lat="43.44533" lon="1.96502">
        <ele>244.2</ele>
        <time>2023-05-27T11:05:39Z</time>
      </trkpt>
      <trkpt lat="43.44535" lon="1.96507">
        <ele>244.2</ele>
        <time>2023-05-27T11:05:40Z</time>
      </trkpt>
      <trkpt lat="43.44537" lon="1.9651">
        <ele>244.2</ele>
        <time>2023-05-27T11:05:41Z</time>
      </trkpt>
      <trkpt lat="43.44539" lon="1.96515">
        <ele>244.2</ele>
        <time>2023-05-27T11:05:42Z</time>
      </trkpt>
      <trkpt lat="43.4454" lon="1.96519">
        <ele>244.2</ele>
        <time>2023-05-27T11:05:43Z</time>
      </trkpt>
      <trkpt lat="43.4454" lon="1.96523">
        <ele>244</ele>
        <time>2023-05-27T11:05:44Z</time>
      </trkpt>
      <trkpt lat="43.44541" lon="1.96527">
        <ele>244</ele>
        <time>2023-05-27T11:05:45Z</time>
      </trkpt>
      <trkpt lat="43.44541" lon="1.96532">
        <ele>244</ele>
        <time>2023-05-27T11:05:46Z</time>
      </trkpt>
      <trkpt lat="43.44541" lon="1.96536">
        <ele>244</ele>
        <time>2023-05-27T11:05:47Z</time>
      </trkpt>
      <trkpt lat="43.44541" lon="1.96541">
        <ele>244.2</ele>
        <time>2023-05-27T11:05:48Z</time>
      </trkpt>
      <trkpt lat="43.44541" lon="1.96545">
        <ele>244.2</ele>
        <time>2023-05-27T11:05:49Z</time>
      </trkpt>
      <trkpt lat="43.44541" lon="1.96549">
        <ele>244.2</ele>
        <time>2023-05-27T11:05:50Z</time>
      </trkpt>
      <trkpt lat="43.44541" lon="1.96554">
        <ele>244.2</ele>
        <time>2023-05-27T11:05:51Z</time>
      </trkpt>
      <trkpt lat="43.44541" lon="1.96558">
        <ele>244.2</ele>
        <time>2023-05-27T11:05:52Z</time>
      </trkpt>
      <trkpt lat="43.44541" lon="1.96561">
        <ele>244.4</ele>
        <time>2023-05-27T11:05:53Z</time>
      </trkpt>
      <trkpt lat="43.4454" lon="1.96565">
        <ele>244.4</ele>
        <time>2023-05-27T11:05:54Z</time>
      </trkpt>
      <trkpt lat="43.4454" lon="1.96569">
        <ele>244.4</ele>
        <time>2023-05-27T11:05:55Z</time>
      </trkpt>
      <trkpt lat="43.44541" lon="1.96574">
        <ele>244.4</ele>
        <time>2023-05-27T11:05:56Z</time>
      </trkpt>
      <trkpt lat="43.44542" lon="1.96579">
        <ele>244.6</ele>
        <time>2023-05-27T11:05:57Z</time>
      </trkpt>
      <trkpt lat="43.44544" lon="1.96583">
        <ele>244.6</ele>
        <time>2023-05-27T11:05:58Z</time>
      </trkpt>
      <trkpt lat="43.44546" lon="1.96589">
        <ele>244.4</ele>
        <time>2023-05-27T11:05:59Z</time>
      </trkpt>
      <trkpt lat="43.44547" lon="1.96595">
        <ele>244.4</ele>
        <time>2023-05-27T11:06:00Z</time>
      </trkpt>
      <trkpt lat="43.44548" lon="1.96602">
        <ele>244.4</ele>
        <time>2023-05-27T11:06:01Z</time>
      </trkpt>
      <trkpt lat="43.44549" lon="1.96608">
        <ele>244.4</ele>
        <time>2023-05-27T11:06:02Z</time>
      </trkpt>
      <trkpt lat="43.44551" lon="1.96615">
        <ele>244.4</ele>
        <time>2023-05-27T11:06:03Z</time>
      </trkpt>
      <trkpt lat="43.44552" lon="1.96622">
        <ele>244.4</ele>
        <time>2023-05-27T11:06:04Z</time>
      </trkpt>
      <trkpt lat="43.44552" lon="1.96627">
        <ele>244.4</ele>
        <time>2023-05-27T11:06:05Z</time>
      </trkpt>
      <trkpt lat="43.44551" lon="1.96634">
        <ele>244.4</ele>
        <time>2023-05-27T11:06:06Z</time>
      </trkpt>
      <trkpt lat="43.4455" lon="1.96638">
        <ele>244.6</ele>
        <time>2023-05-27T11:06:07Z</time>
      </trkpt>
      <trkpt lat="43.44549" lon="1.96643">
        <ele>244.6</ele>
        <time>2023-05-27T11:06:08Z</time>
      </trkpt>
      <trkpt lat="43.44548" lon="1.96648">
        <ele>244.6</ele>
        <time>2023-05-27T11:06:09Z</time>
      </trkpt>
      <trkpt lat="43.44548" lon="1.96652">
        <ele>244.8</ele>
        <time>2023-05-27T11:06:10Z</time>
      </trkpt>
      <trkpt lat="43.44546" lon="1.96657">
        <ele>244.8</ele>
        <time>2023-05-27T11:06:11Z</time>
      </trkpt>
      <trkpt lat="43.44545" lon="1.96662">
        <ele>244.8</ele>
        <time>2023-05-27T11:06:12Z</time>
      </trkpt>
      <trkpt lat="43.44542" lon="1.96667">
        <ele>244.8</ele>
        <time>2023-05-27T11:06:13Z</time>
      </trkpt>
      <trkpt lat="43.4454" lon="1.96671">
        <ele>244.8</ele>
        <time>2023-05-27T11:06:14Z</time>
      </trkpt>
      <trkpt lat="43.44538" lon="1.96677">
        <ele>244.6</ele>
        <time>2023-05-27T11:06:15Z</time>
      </trkpt>
      <trkpt lat="43.44536" lon="1.96682">
        <ele>244.6</ele>
        <time>2023-05-27T11:06:16Z</time>
      </trkpt>
      <trkpt lat="43.44535" lon="1.96687">
        <ele>244.6</ele>
        <time>2023-05-27T11:06:17Z</time>
      </trkpt>
      <trkpt lat="43.44535" lon="1.96693">
        <ele>244.6</ele>
        <time>2023-05-27T11:06:18Z</time>
      </trkpt>
      <trkpt lat="43.44534" lon="1.96696">
        <ele>244.6</ele>
        <time>2023-05-27T11:06:19Z</time>
      </trkpt>
      <trkpt lat="43.44533" lon="1.96701">
        <ele>244.6</ele>
        <time>2023-05-27T11:06:20Z</time>
      </trkpt>
      <trkpt lat="43.44532" lon="1.96705">
        <ele>244.6</ele>
        <time>2023-05-27T11:06:21Z</time>
      </trkpt>
      <trkpt lat="43.4453" lon="1.9671">
        <ele>244.6</ele>
        <time>2023-05-27T11:06:22Z</time>
      </trkpt>
      <trkpt lat="43.44528" lon="1.96715">
        <ele>244.6</ele>
        <time>2023-05-27T11:06:23Z</time>
      </trkpt>
      <trkpt lat="43.44526" lon="1.96721">
        <ele>244.6</ele>
        <time>2023-05-27T11:06:24Z</time>
      </trkpt>
      <trkpt lat="43.44525" lon="1.96726">
        <ele>244.8</ele>
        <time>2023-05-27T11:06:25Z</time>
      </trkpt>
      <trkpt lat="43.44522" lon="1.96734">
        <ele>244.6</ele>
        <time>2023-05-27T11:06:26Z</time>
      </trkpt>
      <trkpt lat="43.44519" lon="1.96742">
        <ele>244.6</ele>
        <time>2023-05-27T11:06:27Z</time>
      </trkpt>
      <trkpt lat="43.44518" lon="1.96749">
        <ele>244.8</ele>
        <time>2023-05-27T11:06:28Z</time>
      </trkpt>
      <trkpt lat="43.44516" lon="1.96754">
        <ele>244.8</ele>
        <time>2023-05-27T11:06:29Z</time>
      </trkpt>
      <trkpt lat="43.44514" lon="1.96757">
        <ele>244.8</ele>
        <time>2023-05-27T11:06:30Z</time>
      </trkpt>
      <trkpt lat="43.44513" lon="1.96761">
        <ele>244.8</ele>
        <time>2023-05-27T11:06:31Z</time>
      </trkpt>
      <trkpt lat="43.44511" lon="1.96767">
        <ele>244.8</ele>
        <time>2023-05-27T11:06:32Z</time>
      </trkpt>
      <trkpt lat="43.4451" lon="1.96774">
        <ele>244.8</ele>
        <time>2023-05-27T11:06:33Z</time>
      </trkpt>
      <trkpt lat="43.44508" lon="1.9678">
        <ele>244.8</ele>
        <time>2023-05-27T11:06:34Z</time>
      </trkpt>
      <trkpt lat="43.44506" lon="1.96786">
        <ele>244.8</ele>
        <time>2023-05-27T11:06:35Z</time>
      </trkpt>
      <trkpt lat="43.44504" lon="1.96789">
        <ele>244.8</ele>
        <time>2023-05-27T11:06:36Z</time>
      </trkpt>
      <trkpt lat="43.44502" lon="1.96792">
        <ele>244.8</ele>
        <time>2023-05-27T11:06:37Z</time>
      </trkpt>
      <trkpt lat="43.445" lon="1.96796">
        <ele>244.8</ele>
        <time>2023-05-27T11:06:38Z</time>
      </trkpt>
      <trkpt lat="43.44498" lon="1.968">
        <ele>244.8</ele>
        <time>2023-05-27T11:06:39Z</time>
      </trkpt>
      <trkpt lat="43.44496" lon="1.96805">
        <ele>244.8</ele>
        <time>2023-05-27T11:06:40Z</time>
      </trkpt>
      <trkpt lat="43.44495" lon="1.96809">
        <ele>244.8</ele>
        <time>2023-05-27T11:06:41Z</time>
      </trkpt>
      <trkpt lat="43.44493" lon="1.96812">
        <ele>245</ele>
        <time>2023-05-27T11:06:42Z</time>
      </trkpt>
      <trkpt lat="43.4449" lon="1.96814">
        <ele>245</ele>
        <time>2023-05-27T11:06:43Z</time>
      </trkpt>
      <trkpt lat="43.44488" lon="1.96817">
        <ele>245.2</ele>
        <time>2023-05-27T11:06:44Z</time>
      </trkpt>
      <trkpt lat="43.44486" lon="1.96821">
        <ele>245.2</ele>
        <time>2023-05-27T11:06:45Z</time>
      </trkpt>
      <trkpt lat="43.44485" lon="1.96823">
        <ele>245.2</ele>
        <time>2023-05-27T11:06:46Z</time>
      </trkpt>
      <trkpt lat="43.44484" lon="1.96826">
        <ele>245.2</ele>
        <time>2023-05-27T11:06:47Z</time>
      </trkpt>
      <trkpt lat="43.44482" lon="1.96829">
        <ele>245.2</ele>
        <time>2023-05-27T11:06:48Z</time>
      </trkpt>
      <trkpt lat="43.44482" lon="1.96834">
        <ele>245.2</ele>
        <time>2023-05-27T11:06:49Z</time>
      </trkpt>
      <trkpt lat="43.44482" lon="1.9684">
        <ele>245.2</ele>
        <time>2023-05-27T11:06:50Z</time>
      </trkpt>
      <trkpt lat="43.44484" lon="1.96846">
        <ele>245.2</ele>
        <time>2023-05-27T11:06:51Z</time>
      </trkpt>
      <trkpt lat="43.44486" lon="1.9685">
        <ele>245.2</ele>
        <time>2023-05-27T11:06:52Z</time>
      </trkpt>
      <trkpt lat="43.44488" lon="1.96857">
        <ele>245.2</ele>
        <time>2023-05-27T11:06:53Z</time>
      </trkpt>
      <trkpt lat="43.44491" lon="1.96863">
        <ele>245</ele>
        <time>2023-05-27T11:06:54Z</time>
      </trkpt>
      <trkpt lat="43.44493" lon="1.96867">
        <ele>245</ele>
        <time>2023-05-27T11:06:55Z</time>
      </trkpt>
      <trkpt lat="43.44494" lon="1.96872">
        <ele>245</ele>
        <time>2023-05-27T11:06:56Z</time>
      </trkpt>
      <trkpt lat="43.44496" lon="1.96878">
        <ele>245</ele>
        <time>2023-05-27T11:06:57Z</time>
      </trkpt>
      <trkpt lat="43.44498" lon="1.96883">
        <ele>245</ele>
        <time>2023-05-27T11:06:58Z</time>
      </trkpt>
      <trkpt lat="43.44501" lon="1.96889">
        <ele>245</ele>
        <time>2023-05-27T11:06:59Z</time>
      </trkpt>
      <trkpt lat="43.44503" lon="1.96893">
        <ele>245</ele>
        <time>2023-05-27T11:07:00Z</time>
      </trkpt>
      <trkpt lat="43.44504" lon="1.96899">
        <ele>245</ele>
        <time>2023-05-27T11:07:01Z</time>
      </trkpt>
      <trkpt lat="43.44507" lon="1.96905">
        <ele>245</ele>
        <time>2023-05-27T11:07:02Z</time>
      </trkpt>
      <trkpt lat="43.44509" lon="1.96911">
        <ele>245</ele>
        <time>2023-05-27T11:07:03Z</time>
      </trkpt>
      <trkpt lat="43.44511" lon="1.96916">
        <ele>245</ele>
        <time>2023-05-27T11:07:04Z</time>
      </trkpt>
      <trkpt lat="43.44513" lon="1.9692">
        <ele>245</ele>
        <time>2023-05-27T11:07:05Z</time>
      </trkpt>
      <trkpt lat="43.44516" lon="1.96926">
        <ele>245</ele>
        <time>2023-05-27T11:07:06Z</time>
      </trkpt>
      <trkpt lat="43.44517" lon="1.9693">
        <ele>245</ele>
        <time>2023-05-27T11:07:07Z</time>
      </trkpt>
      <trkpt lat="43.44518" lon="1.96937">
        <ele>245</ele>
        <time>2023-05-27T11:07:08Z</time>
      </trkpt>
      <trkpt lat="43.4452" lon="1.96941">
        <ele>245.2</ele>
        <time>2023-05-27T11:07:09Z</time>
      </trkpt>
      <trkpt lat="43.44522" lon="1.96946">
        <ele>245.2</ele>
        <time>2023-05-27T11:07:10Z</time>
      </trkpt>
      <trkpt lat="43.44525" lon="1.96953">
        <ele>245.2</ele>
        <time>2023-05-27T11:07:11Z</time>
      </trkpt>
      <trkpt lat="43.44528" lon="1.96959">
        <ele>245.2</ele>
        <time>2023-05-27T11:07:12Z</time>
      </trkpt>
      <trkpt lat="43.4453" lon="1.96964">
        <ele>245.2</ele>
        <time>2023-05-27T11:07:13Z</time>
      </trkpt>
      <trkpt lat="43.44532" lon="1.96968">
        <ele>245.2</ele>
        <time>2023-05-27T11:07:14Z</time>
      </trkpt>
      <trkpt lat="43.44534" lon="1.96972">
        <ele>245.2</ele>
        <time>2023-05-27T11:07:15Z</time>
      </trkpt>
      <trkpt lat="43.44537" lon="1.96978">
        <ele>245.2</ele>
        <time>2023-05-27T11:07:16Z</time>
      </trkpt>
      <trkpt lat="43.44539" lon="1.96984">
        <ele>245.2</ele>
        <time>2023-05-27T11:07:17Z</time>
      </trkpt>
      <trkpt lat="43.44542" lon="1.96989">
        <ele>245.4</ele>
        <time>2023-05-27T11:07:18Z</time>
      </trkpt>
      <trkpt lat="43.44545" lon="1.96996">
        <ele>245.4</ele>
        <time>2023-05-27T11:07:19Z</time>
      </trkpt>
      <trkpt lat="43.44547" lon="1.97">
        <ele>245.4</ele>
        <time>2023-05-27T11:07:20Z</time>
      </trkpt>
      <trkpt lat="43.44548" lon="1.97003">
        <ele>245.4</ele>
        <time>2023-05-27T11:07:21Z</time>
      </trkpt>
      <trkpt lat="43.4455" lon="1.97008">
        <ele>245.4</ele>
        <time>2023-05-27T11:07:22Z</time>
      </trkpt>
      <trkpt lat="43.44552" lon="1.97014">
        <ele>245.4</ele>
        <time>2023-05-27T11:07:23Z</time>
      </trkpt>
      <trkpt lat="43.44554" lon="1.97019">
        <ele>245.4</ele>
        <time>2023-05-27T11:07:24Z</time>
      </trkpt>
      <trkpt lat="43.44556" lon="1.97024">
        <ele>245.4</ele>
        <time>2023-05-27T11:07:25Z</time>
      </trkpt>
      <trkpt lat="43.44559" lon="1.9703">
        <ele>245.4</ele>
        <time>2023-05-27T11:07:26Z</time>
      </trkpt>
      <trkpt lat="43.44561" lon="1.97035">
        <ele>245.4</ele>
        <time>2023-05-27T11:07:27Z</time>
      </trkpt>
      <trkpt lat="43.44564" lon="1.9704">
        <ele>245.2</ele>
        <time>2023-05-27T11:07:28Z</time>
      </trkpt>
      <trkpt lat="43.44566" lon="1.97046">
        <ele>245.2</ele>
        <time>2023-05-27T11:07:29Z</time>
      </trkpt>
      <trkpt lat="43.44567" lon="1.9705">
        <ele>245</ele>
        <time>2023-05-27T11:07:30Z</time>
      </trkpt>
      <trkpt lat="43.44568" lon="1.97055">
        <ele>245</ele>
        <time>2023-05-27T11:07:31Z</time>
      </trkpt>
      <trkpt lat="43.44569" lon="1.97061">
        <ele>245</ele>
        <time>2023-05-27T11:07:32Z</time>
      </trkpt>
      <trkpt lat="43.44569" lon="1.97067">
        <ele>245</ele>
        <time>2023-05-27T11:07:33Z</time>
      </trkpt>
      <trkpt lat="43.4457" lon="1.97073">
        <ele>245</ele>
        <time>2023-05-27T11:07:34Z</time>
      </trkpt>
      <trkpt lat="43.4457" lon="1.97078">
        <ele>244.8</ele>
        <time>2023-05-27T11:07:35Z</time>
      </trkpt>
      <trkpt lat="43.4457" lon="1.97083">
        <ele>244.8</ele>
        <time>2023-05-27T11:07:36Z</time>
      </trkpt>
      <trkpt lat="43.44569" lon="1.9709">
        <ele>244.8</ele>
        <time>2023-05-27T11:07:37Z</time>
      </trkpt>
      <trkpt lat="43.44569" lon="1.97095">
        <ele>244.8</ele>
        <time>2023-05-27T11:07:38Z</time>
      </trkpt>
      <trkpt lat="43.44568" lon="1.971">
        <ele>244.8</ele>
        <time>2023-05-27T11:07:39Z</time>
      </trkpt>
      <trkpt lat="43.44567" lon="1.97105">
        <ele>244.8</ele>
        <time>2023-05-27T11:07:40Z</time>
      </trkpt>
      <trkpt lat="43.44567" lon="1.9711">
        <ele>244.8</ele>
        <time>2023-05-27T11:07:41Z</time>
      </trkpt>
      <trkpt lat="43.44565" lon="1.97115">
        <ele>244.8</ele>
        <time>2023-05-27T11:07:42Z</time>
      </trkpt>
      <trkpt lat="43.44565" lon="1.9712">
        <ele>244.8</ele>
        <time>2023-05-27T11:07:43Z</time>
      </trkpt>
      <trkpt lat="43.44564" lon="1.97126">
        <ele>244.8</ele>
        <time>2023-05-27T11:07:44Z</time>
      </trkpt>
      <trkpt lat="43.44565" lon="1.97132">
        <ele>245</ele>
        <time>2023-05-27T11:07:45Z</time>
      </trkpt>
      <trkpt lat="43.44565" lon="1.97138">
        <ele>245</ele>
        <time>2023-05-27T11:07:46Z</time>
      </trkpt>
      <trkpt lat="43.44567" lon="1.97144">
        <ele>245</ele>
        <time>2023-05-27T11:07:47Z</time>
      </trkpt>
      <trkpt lat="43.44568" lon="1.97149">
        <ele>245</ele>
        <time>2023-05-27T11:07:48Z</time>
      </trkpt>
      <trkpt lat="43.44568" lon="1.97153">
        <ele>245.2</ele>
        <time>2023-05-27T11:07:49Z</time>
      </trkpt>
      <trkpt lat="43.44569" lon="1.97158">
        <ele>245.2</ele>
        <time>2023-05-27T11:07:50Z</time>
      </trkpt>
      <trkpt lat="43.44571" lon="1.97163">
        <ele>245.2</ele>
        <time>2023-05-27T11:07:51Z</time>
      </trkpt>
      <trkpt lat="43.44573" lon="1.97169">
        <ele>245.2</ele>
        <time>2023-05-27T11:07:52Z</time>
      </trkpt>
      <trkpt lat="43.44576" lon="1.97174">
        <ele>245.2</ele>
        <time>2023-05-27T11:07:53Z</time>
      </trkpt>
      <trkpt lat="43.44579" lon="1.9718">
        <ele>245.4</ele>
        <time>2023-05-27T11:07:54Z</time>
      </trkpt>
      <trkpt lat="43.44583" lon="1.97185">
        <ele>245.4</ele>
        <time>2023-05-27T11:07:55Z</time>
      </trkpt>
      <trkpt lat="43.44586" lon="1.97191">
        <ele>245.4</ele>
        <time>2023-05-27T11:07:56Z</time>
      </trkpt>
      <trkpt lat="43.44589" lon="1.97196">
        <ele>245.4</ele>
        <time>2023-05-27T11:07:57Z</time>
      </trkpt>
      <trkpt lat="43.44592" lon="1.972">
        <ele>245.4</ele>
        <time>2023-05-27T11:07:58Z</time>
      </trkpt>
      <trkpt lat="43.44596" lon="1.97204">
        <ele>245.4</ele>
        <time>2023-05-27T11:07:59Z</time>
      </trkpt>
      <trkpt lat="43.44599" lon="1.97209">
        <ele>245.4</ele>
        <time>2023-05-27T11:08:00Z</time>
      </trkpt>
      <trkpt lat="43.44602" lon="1.97212">
        <ele>245.6</ele>
        <time>2023-05-27T11:08:01Z</time>
      </trkpt>
      <trkpt lat="43.44605" lon="1.97214">
        <ele>245.6</ele>
        <time>2023-05-27T11:08:02Z</time>
      </trkpt>
      <trkpt lat="43.44609" lon="1.97218">
        <ele>245.6</ele>
        <time>2023-05-27T11:08:03Z</time>
      </trkpt>
      <trkpt lat="43.44612" lon="1.97221">
        <ele>245.4</ele>
        <time>2023-05-27T11:08:04Z</time>
      </trkpt>
      <trkpt lat="43.44615" lon="1.97224">
        <ele>245.4</ele>
        <time>2023-05-27T11:08:05Z</time>
      </trkpt>
      <trkpt lat="43.44619" lon="1.97229">
        <ele>245.4</ele>
        <time>2023-05-27T11:08:06Z</time>
      </trkpt>
      <trkpt lat="43.44622" lon="1.97234">
        <ele>245.4</ele>
        <time>2023-05-27T11:08:07Z</time>
      </trkpt>
      <trkpt lat="43.44626" lon="1.97239">
        <ele>245.4</ele>
        <time>2023-05-27T11:08:08Z</time>
      </trkpt>
      <trkpt lat="43.44628" lon="1.97244">
        <ele>245.4</ele>
        <time>2023-05-27T11:08:09Z</time>
      </trkpt>
      <trkpt lat="43.4463" lon="1.97249">
        <ele>245.4</ele>
        <time>2023-05-27T11:08:10Z</time>
      </trkpt>
      <trkpt lat="43.4463" lon="1.97254">
        <ele>245.4</ele>
        <time>2023-05-27T11:08:11Z</time>
      </trkpt>
      <trkpt lat="43.4463" lon="1.9726">
        <ele>245.4</ele>
        <time>2023-05-27T11:08:12Z</time>
      </trkpt>
      <trkpt lat="43.4463" lon="1.97266">
        <ele>245.4</ele>
        <time>2023-05-27T11:08:13Z</time>
      </trkpt>
      <trkpt lat="43.4463" lon="1.97271">
        <ele>245.4</ele>
        <time>2023-05-27T11:08:14Z</time>
      </trkpt>
      <trkpt lat="43.44629" lon="1.97276">
        <ele>245.4</ele>
        <time>2023-05-27T11:08:15Z</time>
      </trkpt>
      <trkpt lat="43.44628" lon="1.97279">
        <ele>245.4</ele>
        <time>2023-05-27T11:08:16Z</time>
      </trkpt>
      <trkpt lat="43.44626" lon="1.97284">
        <ele>245.6</ele>
        <time>2023-05-27T11:08:17Z</time>
      </trkpt>
      <trkpt lat="43.44625" lon="1.9729">
        <ele>245.6</ele>
        <time>2023-05-27T11:08:18Z</time>
      </trkpt>
      <trkpt lat="43.44623" lon="1.97296">
        <ele>245.6</ele>
        <time>2023-05-27T11:08:19Z</time>
      </trkpt>
      <trkpt lat="43.44622" lon="1.97301">
        <ele>245.6</ele>
        <time>2023-05-27T11:08:20Z</time>
      </trkpt>
      <trkpt lat="43.4462" lon="1.97308">
        <ele>245.6</ele>
        <time>2023-05-27T11:08:21Z</time>
      </trkpt>
      <trkpt lat="43.44619" lon="1.97314">
        <ele>245.6</ele>
        <time>2023-05-27T11:08:22Z</time>
      </trkpt>
      <trkpt lat="43.44617" lon="1.97319">
        <ele>245.6</ele>
        <time>2023-05-27T11:08:23Z</time>
      </trkpt>
      <trkpt lat="43.44616" lon="1.97324">
        <ele>245.6</ele>
        <time>2023-05-27T11:08:24Z</time>
      </trkpt>
      <trkpt lat="43.44615" lon="1.97329">
        <ele>245.6</ele>
        <time>2023-05-27T11:08:25Z</time>
      </trkpt>
      <trkpt lat="43.44613" lon="1.97334">
        <ele>245.6</ele>
        <time>2023-05-27T11:08:26Z</time>
      </trkpt>
      <trkpt lat="43.44611" lon="1.9734">
        <ele>245.6</ele>
        <time>2023-05-27T11:08:27Z</time>
      </trkpt>
      <trkpt lat="43.44608" lon="1.97343">
        <ele>245.6</ele>
        <time>2023-05-27T11:08:28Z</time>
      </trkpt>
      <trkpt lat="43.44606" lon="1.97348">
        <ele>245.6</ele>
        <time>2023-05-27T11:08:29Z</time>
      </trkpt>
      <trkpt lat="43.44603" lon="1.97352">
        <ele>245.6</ele>
        <time>2023-05-27T11:08:30Z</time>
      </trkpt>
      <trkpt lat="43.446" lon="1.97356">
        <ele>245.4</ele>
        <time>2023-05-27T11:08:31Z</time>
      </trkpt>
      <trkpt lat="43.44598" lon="1.9736">
        <ele>245.4</ele>
        <time>2023-05-27T11:08:32Z</time>
      </trkpt>
      <trkpt lat="43.44596" lon="1.97363">
        <ele>245.4</ele>
        <time>2023-05-27T11:08:33Z</time>
      </trkpt>
      <trkpt lat="43.44592" lon="1.97369">
        <ele>245.4</ele>
        <time>2023-05-27T11:08:34Z</time>
      </trkpt>
      <trkpt lat="43.44588" lon="1.97375">
        <ele>245.4</ele>
        <time>2023-05-27T11:08:35Z</time>
      </trkpt>
      <trkpt lat="43.44586" lon="1.97379">
        <ele>245.4</ele>
        <time>2023-05-27T11:08:36Z</time>
      </trkpt>
      <trkpt lat="43.44583" lon="1.97383">
        <ele>245.4</ele>
        <time>2023-05-27T11:08:37Z</time>
      </trkpt>
      <trkpt lat="43.44581" lon="1.97387">
        <ele>245.4</ele>
        <time>2023-05-27T11:08:38Z</time>
      </trkpt>
      <trkpt lat="43.44579" lon="1.97391">
        <ele>245.4</ele>
        <time>2023-05-27T11:08:39Z</time>
      </trkpt>
      <trkpt lat="43.44577" lon="1.97396">
        <ele>245.4</ele>
        <time>2023-05-27T11:08:40Z</time>
      </trkpt>
      <trkpt lat="43.44575" lon="1.97401">
        <ele>245.4</ele>
        <time>2023-05-27T11:08:41Z</time>
      </trkpt>
      <trkpt lat="43.44573" lon="1.97405">
        <ele>245.4</ele>
        <time>2023-05-27T11:08:42Z</time>
      </trkpt>
      <trkpt lat="43.44571" lon="1.97411">
        <ele>245.2</ele>
        <time>2023-05-27T11:08:43Z</time>
      </trkpt>
      <trkpt lat="43.4457" lon="1.97415">
        <ele>245.2</ele>
        <time>2023-05-27T11:08:44Z</time>
      </trkpt>
      <trkpt lat="43.44569" lon="1.97419">
        <ele>245.2</ele>
        <time>2023-05-27T11:08:45Z</time>
      </trkpt>
      <trkpt lat="43.44567" lon="1.97424">
        <ele>245.2</ele>
        <time>2023-05-27T11:08:46Z</time>
      </trkpt>
      <trkpt lat="43.44562" lon="1.9743">
        <ele>245.2</ele>
        <time>2023-05-27T11:08:47Z</time>
      </trkpt>
      <trkpt lat="43.4456" lon="1.97434">
        <ele>245.2</ele>
        <time>2023-05-27T11:08:48Z</time>
      </trkpt>
      <trkpt lat="43.44559" lon="1.97441">
        <ele>245.2</ele>
        <time>2023-05-27T11:08:49Z</time>
      </trkpt>
      <trkpt lat="43.44558" lon="1.97448">
        <ele>245.2</ele>
        <time>2023-05-27T11:08:50Z</time>
      </trkpt>
      <trkpt lat="43.44556" lon="1.97456">
        <ele>245.2</ele>
        <time>2023-05-27T11:08:51Z</time>
      </trkpt>
      <trkpt lat="43.44554" lon="1.97464">
        <ele>245.2</ele>
        <time>2023-05-27T11:08:52Z</time>
      </trkpt>
      <trkpt lat="43.4455" lon="1.97472">
        <ele>245.2</ele>
        <time>2023-05-27T11:08:53Z</time>
      </trkpt>
      <trkpt lat="43.44547" lon="1.97479">
        <ele>245.2</ele>
        <time>2023-05-27T11:08:54Z</time>
      </trkpt>
      <trkpt lat="43.44544" lon="1.97484">
        <ele>245.2</ele>
        <time>2023-05-27T11:08:55Z</time>
      </trkpt>
      <trkpt lat="43.44542" lon="1.97488">
        <ele>245.2</ele>
        <time>2023-05-27T11:08:56Z</time>
      </trkpt>
      <trkpt lat="43.4454" lon="1.97492">
        <ele>245.4</ele>
        <time>2023-05-27T11:08:57Z</time>
      </trkpt>
      <trkpt lat="43.44539" lon="1.97495">
        <ele>245.4</ele>
        <time>2023-05-27T11:08:58Z</time>
      </trkpt>
      <trkpt lat="43.44541" lon="1.97501">
        <ele>245.4</ele>
        <time>2023-05-27T11:08:59Z</time>
      </trkpt>
      <trkpt lat="43.44542" lon="1.97505">
        <ele>245.4</ele>
        <time>2023-05-27T11:09:00Z</time>
      </trkpt>
      <trkpt lat="43.44544" lon="1.97511">
        <ele>245.4</ele>
        <time>2023-05-27T11:09:01Z</time>
      </trkpt>
      <trkpt lat="43.44546" lon="1.97515">
        <ele>245.4</ele>
        <time>2023-05-27T11:09:02Z</time>
      </trkpt>
      <trkpt lat="43.44547" lon="1.97519">
        <ele>245.4</ele>
        <time>2023-05-27T11:09:03Z</time>
      </trkpt>
      <trkpt lat="43.44549" lon="1.97523">
        <ele>245.4</ele>
        <time>2023-05-27T11:09:04Z</time>
      </trkpt>
      <trkpt lat="43.4455" lon="1.97527">
        <ele>245.4</ele>
        <time>2023-05-27T11:09:05Z</time>
      </trkpt>
      <trkpt lat="43.44551" lon="1.97531">
        <ele>245.4</ele>
        <time>2023-05-27T11:09:06Z</time>
      </trkpt>
      <trkpt lat="43.44553" lon="1.97536">
        <ele>245.4</ele>
        <time>2023-05-27T11:09:07Z</time>
      </trkpt>
      <trkpt lat="43.44555" lon="1.9754">
        <ele>245.4</ele>
        <time>2023-05-27T11:09:08Z</time>
      </trkpt>
      <trkpt lat="43.44556" lon="1.97545">
        <ele>245.4</ele>
        <time>2023-05-27T11:09:09Z</time>
      </trkpt>
      <trkpt lat="43.44558" lon="1.97551">
        <ele>245.4</ele>
        <time>2023-05-27T11:09:10Z</time>
      </trkpt>
      <trkpt lat="43.44561" lon="1.97556">
        <ele>245.4</ele>
        <time>2023-05-27T11:09:11Z</time>
      </trkpt>
      <trkpt lat="43.44564" lon="1.97561">
        <ele>245.4</ele>
        <time>2023-05-27T11:09:12Z</time>
      </trkpt>
      <trkpt lat="43.44566" lon="1.97566">
        <ele>245.4</ele>
        <time>2023-05-27T11:09:13Z</time>
      </trkpt>
      <trkpt lat="43.4457" lon="1.97571">
        <ele>245.4</ele>
        <time>2023-05-27T11:09:14Z</time>
      </trkpt>
      <trkpt lat="43.44574" lon="1.97576">
        <ele>245.4</ele>
        <time>2023-05-27T11:09:15Z</time>
      </trkpt>
      <trkpt lat="43.44578" lon="1.97581">
        <ele>245.4</ele>
        <time>2023-05-27T11:09:16Z</time>
      </trkpt>
      <trkpt lat="43.44581" lon="1.97584">
        <ele>245.4</ele>
        <time>2023-05-27T11:09:17Z</time>
      </trkpt>
      <trkpt lat="43.44585" lon="1.97587">
        <ele>245.4</ele>
        <time>2023-05-27T11:09:18Z</time>
      </trkpt>
      <trkpt lat="43.44589" lon="1.9759">
        <ele>245.4</ele>
        <time>2023-05-27T11:09:19Z</time>
      </trkpt>
      <trkpt lat="43.44593" lon="1.97594">
        <ele>245.2</ele>
        <time>2023-05-27T11:09:20Z</time>
      </trkpt>
      <trkpt lat="43.44597" lon="1.97597">
        <ele>245.2</ele>
        <time>2023-05-27T11:09:21Z</time>
      </trkpt>
      <trkpt lat="43.44601" lon="1.97602">
        <ele>245.2</ele>
        <time>2023-05-27T11:09:22Z</time>
      </trkpt>
      <trkpt lat="43.44605" lon="1.97608">
        <ele>245.2</ele>
        <time>2023-05-27T11:09:23Z</time>
      </trkpt>
      <trkpt lat="43.44608" lon="1.97614">
        <ele>245.2</ele>
        <time>2023-05-27T11:09:24Z</time>
      </trkpt>
      <trkpt lat="43.44612" lon="1.9762">
        <ele>245.2</ele>
        <time>2023-05-27T11:09:25Z</time>
      </trkpt>
      <trkpt lat="43.44614" lon="1.97625">
        <ele>245.2</ele>
        <time>2023-05-27T11:09:26Z</time>
      </trkpt>
      <trkpt lat="43.44615" lon="1.97632">
        <ele>245.2</ele>
        <time>2023-05-27T11:09:27Z</time>
      </trkpt>
      <trkpt lat="43.44617" lon="1.97637">
        <ele>245.2</ele>
        <time>2023-05-27T11:09:28Z</time>
      </trkpt>
      <trkpt lat="43.44618" lon="1.97643">
        <ele>245.4</ele>
        <time>2023-05-27T11:09:29Z</time>
      </trkpt>
      <trkpt lat="43.4462" lon="1.97649">
        <ele>245.4</ele>
        <time>2023-05-27T11:09:30Z</time>
      </trkpt>
      <trkpt lat="43.44621" lon="1.97654">
        <ele>245.4</ele>
        <time>2023-05-27T11:09:31Z</time>
      </trkpt>
      <trkpt lat="43.44622" lon="1.97659">
        <ele>245.4</ele>
        <time>2023-05-27T11:09:32Z</time>
      </trkpt>
      <trkpt lat="43.44623" lon="1.97665">
        <ele>245.6</ele>
        <time>2023-05-27T11:09:33Z</time>
      </trkpt>
      <trkpt lat="43.44623" lon="1.97669">
        <ele>245.6</ele>
        <time>2023-05-27T11:09:34Z</time>
      </trkpt>
      <trkpt lat="43.44623" lon="1.97673">
        <ele>245.6</ele>
        <time>2023-05-27T11:09:35Z</time>
      </trkpt>
      <trkpt lat="43.44624" lon="1.97677">
        <ele>245.6</ele>
        <time>2023-05-27T11:09:36Z</time>
      </trkpt>
      <trkpt lat="43.44625" lon="1.97681">
        <ele>245.6</ele>
        <time>2023-05-27T11:09:37Z</time>
      </trkpt>
      <trkpt lat="43.44626" lon="1.97685">
        <ele>245.6</ele>
        <time>2023-05-27T11:09:38Z</time>
      </trkpt>
      <trkpt lat="43.44627" lon="1.97689">
        <ele>245.6</ele>
        <time>2023-05-27T11:09:39Z</time>
      </trkpt>
      <trkpt lat="43.44629" lon="1.97692">
        <ele>245.6</ele>
        <time>2023-05-27T11:09:40Z</time>
      </trkpt>
      <trkpt lat="43.44631" lon="1.97697">
        <ele>245.6</ele>
        <time>2023-05-27T11:09:41Z</time>
      </trkpt>
      <trkpt lat="43.44633" lon="1.97701">
        <ele>245.4</ele>
        <time>2023-05-27T11:09:42Z</time>
      </trkpt>
      <trkpt lat="43.44635" lon="1.97705">
        <ele>245.4</ele>
        <time>2023-05-27T11:09:43Z</time>
      </trkpt>
      <trkpt lat="43.44638" lon="1.9771">
        <ele>245.4</ele>
        <time>2023-05-27T11:09:44Z</time>
      </trkpt>
      <trkpt lat="43.44641" lon="1.97715">
        <ele>245.4</ele>
        <time>2023-05-27T11:09:45Z</time>
      </trkpt>
      <trkpt lat="43.44643" lon="1.97718">
        <ele>245.4</ele>
        <time>2023-05-27T11:09:46Z</time>
      </trkpt>
      <trkpt lat="43.44646" lon="1.97723">
        <ele>245.4</ele>
        <time>2023-05-27T11:09:47Z</time>
      </trkpt>
      <trkpt lat="43.44648" lon="1.97727">
        <ele>245.4</ele>
        <time>2023-05-27T11:09:48Z</time>
      </trkpt>
      <trkpt lat="43.4465" lon="1.97731">
        <ele>245.4</ele>
        <time>2023-05-27T11:09:49Z</time>
      </trkpt>
      <trkpt lat="43.44653" lon="1.97736">
        <ele>245.4</ele>
        <time>2023-05-27T11:09:50Z</time>
      </trkpt>
      <trkpt lat="43.44655" lon="1.9774">
        <ele>245.4</ele>
        <time>2023-05-27T11:09:51Z</time>
      </trkpt>
      <trkpt lat="43.44658" lon="1.97745">
        <ele>245.4</ele>
        <time>2023-05-27T11:09:52Z</time>
      </trkpt>
      <trkpt lat="43.44659" lon="1.97749">
        <ele>245.4</ele>
        <time>2023-05-27T11:09:53Z</time>
      </trkpt>
      <trkpt lat="43.44661" lon="1.97754">
        <ele>245.4</ele>
        <time>2023-05-27T11:09:54Z</time>
      </trkpt>
      <trkpt lat="43.44662" lon="1.97757">
        <ele>245.4</ele>
        <time>2023-05-27T11:09:55Z</time>
      </trkpt>
      <trkpt lat="43.44663" lon="1.97761">
        <ele>245.4</ele>
        <time>2023-05-27T11:09:56Z</time>
      </trkpt>
      <trkpt lat="43.44664" lon="1.97765">
        <ele>245.4</ele>
        <time>2023-05-27T11:09:57Z</time>
      </trkpt>
      <trkpt lat="43.44665" lon="1.9777">
        <ele>245.4</ele>
        <time>2023-05-27T11:09:58Z</time>
      </trkpt>
      <trkpt lat="43.44667" lon="1.97777">
        <ele>245.4</ele>
        <time>2023-05-27T11:09:59Z</time>
      </trkpt>
      <trkpt lat="43.44669" lon="1.97782">
        <ele>245.4</ele>
        <time>2023-05-27T11:10:00Z</time>
      </trkpt>
      <trkpt lat="43.44671" lon="1.97788">
        <ele>245.4</ele>
        <time>2023-05-27T11:10:01Z</time>
      </trkpt>
      <trkpt lat="43.44673" lon="1.97794">
        <ele>245.4</ele>
        <time>2023-05-27T11:10:02Z</time>
      </trkpt>
      <trkpt lat="43.44675" lon="1.97801">
        <ele>245.4</ele>
        <time>2023-05-27T11:10:03Z</time>
      </trkpt>
      <trkpt lat="43.44678" lon="1.97808">
        <ele>245.4</ele>
        <time>2023-05-27T11:10:04Z</time>
      </trkpt>
      <trkpt lat="43.4468" lon="1.97813">
        <ele>245.4</ele>
        <time>2023-05-27T11:10:05Z</time>
      </trkpt>
      <trkpt lat="43.44681" lon="1.97818">
        <ele>245.4</ele>
        <time>2023-05-27T11:10:06Z</time>
      </trkpt>
      <trkpt lat="43.44683" lon="1.97823">
        <ele>245.2</ele>
        <time>2023-05-27T11:10:07Z</time>
      </trkpt>
      <trkpt lat="43.44684" lon="1.97828">
        <ele>245.2</ele>
        <time>2023-05-27T11:10:08Z</time>
      </trkpt>
      <trkpt lat="43.44686" lon="1.97832">
        <ele>245.2</ele>
        <time>2023-05-27T11:10:09Z</time>
      </trkpt>
      <trkpt lat="43.44687" lon="1.97837">
        <ele>245.2</ele>
        <time>2023-05-27T11:10:10Z</time>
      </trkpt>
      <trkpt lat="43.44688" lon="1.97842">
        <ele>245.2</ele>
        <time>2023-05-27T11:10:11Z</time>
      </trkpt>
      <trkpt lat="43.44689" lon="1.97846">
        <ele>245.2</ele>
        <time>2023-05-27T11:10:12Z</time>
      </trkpt>
      <trkpt lat="43.44691" lon="1.97854">
        <ele>245.2</ele>
        <time>2023-05-27T11:10:13Z</time>
      </trkpt>
      <trkpt lat="43.44692" lon="1.97861">
        <ele>245.2</ele>
        <time>2023-05-27T11:10:14Z</time>
      </trkpt>
      <trkpt lat="43.44694" lon="1.97868">
        <ele>245.2</ele>
        <time>2023-05-27T11:10:15Z</time>
      </trkpt>
      <trkpt lat="43.44695" lon="1.97875">
        <ele>245.2</ele>
        <time>2023-05-27T11:10:16Z</time>
      </trkpt>
      <trkpt lat="43.44696" lon="1.97882">
        <ele>245.2</ele>
        <time>2023-05-27T11:10:17Z</time>
      </trkpt>
      <trkpt lat="43.44697" lon="1.97887">
        <ele>245.2</ele>
        <time>2023-05-27T11:10:18Z</time>
      </trkpt>
      <trkpt lat="43.44698" lon="1.97893">
        <ele>245.2</ele>
        <time>2023-05-27T11:10:19Z</time>
      </trkpt>
      <trkpt lat="43.447" lon="1.979">
        <ele>245.2</ele>
        <time>2023-05-27T11:10:20Z</time>
      </trkpt>
      <trkpt lat="43.44702" lon="1.97906">
        <ele>245.2</ele>
        <time>2023-05-27T11:10:21Z</time>
      </trkpt>
      <trkpt lat="43.44705" lon="1.9791">
        <ele>245.2</ele>
        <time>2023-05-27T11:10:22Z</time>
      </trkpt>
      <trkpt lat="43.44708" lon="1.97917">
        <ele>245.2</ele>
        <time>2023-05-27T11:10:23Z</time>
      </trkpt>
      <trkpt lat="43.44711" lon="1.97921">
        <ele>245.2</ele>
        <time>2023-05-27T11:10:24Z</time>
      </trkpt>
      <trkpt lat="43.44714" lon="1.97925">
        <ele>245.2</ele>
        <time>2023-05-27T11:10:25Z</time>
      </trkpt>
      <trkpt lat="43.44717" lon="1.97931">
        <ele>245.2</ele>
        <time>2023-05-27T11:10:26Z</time>
      </trkpt>
      <trkpt lat="43.4472" lon="1.97935">
        <ele>245.2</ele>
        <time>2023-05-27T11:10:27Z</time>
      </trkpt>
      <trkpt lat="43.44722" lon="1.97939">
        <ele>245.2</ele>
        <time>2023-05-27T11:10:28Z</time>
      </trkpt>
      <trkpt lat="43.44725" lon="1.97942">
        <ele>245.2</ele>
        <time>2023-05-27T11:10:29Z</time>
      </trkpt>
      <trkpt lat="43.44727" lon="1.97946">
        <ele>245.2</ele>
        <time>2023-05-27T11:10:30Z</time>
      </trkpt>
      <trkpt lat="43.44729" lon="1.9795">
        <ele>245.2</ele>
        <time>2023-05-27T11:10:31Z</time>
      </trkpt>
      <trkpt lat="43.44731" lon="1.97953">
        <ele>245.2</ele>
        <time>2023-05-27T11:10:32Z</time>
      </trkpt>
      <trkpt lat="43.44735" lon="1.97956">
        <ele>245.2</ele>
        <time>2023-05-27T11:10:33Z</time>
      </trkpt>
      <trkpt lat="43.44738" lon="1.9796">
        <ele>245.2</ele>
        <time>2023-05-27T11:10:34Z</time>
      </trkpt>
      <trkpt lat="43.44741" lon="1.97963">
        <ele>245.2</ele>
        <time>2023-05-27T11:10:35Z</time>
      </trkpt>
      <trkpt lat="43.44744" lon="1.97966">
        <ele>245</ele>
        <time>2023-05-27T11:10:36Z</time>
      </trkpt>
      <trkpt lat="43.44748" lon="1.97969">
        <ele>245</ele>
        <time>2023-05-27T11:10:37Z</time>
      </trkpt>
      <trkpt lat="43.44752" lon="1.97971">
        <ele>245</ele>
        <time>2023-05-27T11:10:38Z</time>
      </trkpt>
      <trkpt lat="43.44756" lon="1.97975">
        <ele>245</ele>
        <time>2023-05-27T11:10:39Z</time>
      </trkpt>
      <trkpt lat="43.44759" lon="1.97978">
        <ele>245</ele>
        <time>2023-05-27T11:10:40Z</time>
      </trkpt>
      <trkpt lat="43.44762" lon="1.97981">
        <ele>245</ele>
        <time>2023-05-27T11:10:41Z</time>
      </trkpt>
      <trkpt lat="43.44765" lon="1.97985">
        <ele>245</ele>
        <time>2023-05-27T11:10:42Z</time>
      </trkpt>
      <trkpt lat="43.4477" lon="1.97989">
        <ele>245</ele>
        <time>2023-05-27T11:10:43Z</time>
      </trkpt>
      <trkpt lat="43.44774" lon="1.97993">
        <ele>245.2</ele>
        <time>2023-05-27T11:10:44Z</time>
      </trkpt>
      <trkpt lat="43.44778" lon="1.97996">
        <ele>245.2</ele>
        <time>2023-05-27T11:10:45Z</time>
      </trkpt>
      <trkpt lat="43.44782" lon="1.98001">
        <ele>245.2</ele>
        <time>2023-05-27T11:10:46Z</time>
      </trkpt>
      <trkpt lat="43.44787" lon="1.98006">
        <ele>245.2</ele>
        <time>2023-05-27T11:10:47Z</time>
      </trkpt>
      <trkpt lat="43.4479" lon="1.98009">
        <ele>245.2</ele>
        <time>2023-05-27T11:10:48Z</time>
      </trkpt>
      <trkpt lat="43.44794" lon="1.98014">
        <ele>245.2</ele>
        <time>2023-05-27T11:10:49Z</time>
      </trkpt>
      <trkpt lat="43.44798" lon="1.98017">
        <ele>245.2</ele>
        <time>2023-05-27T11:10:50Z</time>
      </trkpt>
      <trkpt lat="43.44802" lon="1.9802">
        <ele>245.2</ele>
        <time>2023-05-27T11:10:51Z</time>
      </trkpt>
      <trkpt lat="43.44807" lon="1.98023">
        <ele>245.4</ele>
        <time>2023-05-27T11:10:52Z</time>
      </trkpt>
      <trkpt lat="43.4481" lon="1.98025">
        <ele>245.4</ele>
        <time>2023-05-27T11:10:53Z</time>
      </trkpt>
      <trkpt lat="43.44815" lon="1.98027">
        <ele>245.4</ele>
        <time>2023-05-27T11:10:54Z</time>
      </trkpt>
      <trkpt lat="43.44818" lon="1.98028">
        <ele>245.4</ele>
        <time>2023-05-27T11:10:55Z</time>
      </trkpt>
      <trkpt lat="43.44821" lon="1.98028">
        <ele>245.4</ele>
        <time>2023-05-27T11:10:56Z</time>
      </trkpt>
      <trkpt lat="43.44825" lon="1.9803">
        <ele>245.4</ele>
        <time>2023-05-27T11:10:57Z</time>
      </trkpt>
      <trkpt lat="43.44831" lon="1.98032">
        <ele>245.4</ele>
        <time>2023-05-27T11:10:58Z</time>
      </trkpt>
      <trkpt lat="43.44834" lon="1.98034">
        <ele>245.4</ele>
        <time>2023-05-27T11:10:59Z</time>
      </trkpt>
      <trkpt lat="43.44836" lon="1.98034">
        <ele>245.4</ele>
        <time>2023-05-27T11:11:00Z</time>
      </trkpt>
      <trkpt lat="43.4484" lon="1.98035">
        <ele>245.4</ele>
        <time>2023-05-27T11:11:01Z</time>
      </trkpt>
      <trkpt lat="43.44843" lon="1.98037">
        <ele>245.4</ele>
        <time>2023-05-27T11:11:02Z</time>
      </trkpt>
      <trkpt lat="43.44847" lon="1.98041">
        <ele>245.4</ele>
        <time>2023-05-27T11:11:03Z</time>
      </trkpt>
      <trkpt lat="43.44851" lon="1.98045">
        <ele>245.4</ele>
        <time>2023-05-27T11:11:04Z</time>
      </trkpt>
      <trkpt lat="43.44855" lon="1.98051">
        <ele>245.4</ele>
        <time>2023-05-27T11:11:05Z</time>
      </trkpt>
      <trkpt lat="43.44858" lon="1.98055">
        <ele>245.4</ele>
        <time>2023-05-27T11:11:06Z</time>
      </trkpt>
      <trkpt lat="43.44861" lon="1.9806">
        <ele>245.4</ele>
        <time>2023-05-27T11:11:07Z</time>
      </trkpt>
      <trkpt lat="43.44863" lon="1.98064">
        <ele>245.4</ele>
        <time>2023-05-27T11:11:08Z</time>
      </trkpt>
      <trkpt lat="43.44865" lon="1.98069">
        <ele>245.4</ele>
        <time>2023-05-27T11:11:09Z</time>
      </trkpt>
      <trkpt lat="43.44867" lon="1.98076">
        <ele>245.4</ele>
        <time>2023-05-27T11:11:10Z</time>
      </trkpt>
      <trkpt lat="43.44868" lon="1.98083">
        <ele>245.4</ele>
        <time>2023-05-27T11:11:11Z</time>
      </trkpt>
      <trkpt lat="43.44868" lon="1.98088">
        <ele>245.4</ele>
        <time>2023-05-27T11:11:12Z</time>
      </trkpt>
      <trkpt lat="43.44868" lon="1.98094">
        <ele>245.4</ele>
        <time>2023-05-27T11:11:13Z</time>
      </trkpt>
      <trkpt lat="43.44867" lon="1.981">
        <ele>245.4</ele>
        <time>2023-05-27T11:11:14Z</time>
      </trkpt>
      <trkpt lat="43.44866" lon="1.98106">
        <ele>245.4</ele>
        <time>2023-05-27T11:11:15Z</time>
      </trkpt>
      <trkpt lat="43.44864" lon="1.98113">
        <ele>245.4</ele>
        <time>2023-05-27T11:11:16Z</time>
      </trkpt>
      <trkpt lat="43.44861" lon="1.98118">
        <ele>245.4</ele>
        <time>2023-05-27T11:11:17Z</time>
      </trkpt>
      <trkpt lat="43.44857" lon="1.98123">
        <ele>245.4</ele>
        <time>2023-05-27T11:11:18Z</time>
      </trkpt>
      <trkpt lat="43.44854" lon="1.9813">
        <ele>245.4</ele>
        <time>2023-05-27T11:11:19Z</time>
      </trkpt>
      <trkpt lat="43.44852" lon="1.98136">
        <ele>245.4</ele>
        <time>2023-05-27T11:11:20Z</time>
      </trkpt>
      <trkpt lat="43.44851" lon="1.98143">
        <ele>245.4</ele>
        <time>2023-05-27T11:11:21Z</time>
      </trkpt>
      <trkpt lat="43.44849" lon="1.98149">
        <ele>245.4</ele>
        <time>2023-05-27T11:11:22Z</time>
      </trkpt>
      <trkpt lat="43.44846" lon="1.98155">
        <ele>245.4</ele>
        <time>2023-05-27T11:11:23Z</time>
      </trkpt>
      <trkpt lat="43.44843" lon="1.98159">
        <ele>245.4</ele>
        <time>2023-05-27T11:11:24Z</time>
      </trkpt>
      <trkpt lat="43.4484" lon="1.98164">
        <ele>245.4</ele>
        <time>2023-05-27T11:11:25Z</time>
      </trkpt>
      <trkpt lat="43.44839" lon="1.98167">
        <ele>245.4</ele>
        <time>2023-05-27T11:11:26Z</time>
      </trkpt>
      <trkpt lat="43.44837" lon="1.9817">
        <ele>245.4</ele>
        <time>2023-05-27T11:11:27Z</time>
      </trkpt>
      <trkpt lat="43.44835" lon="1.98173">
        <ele>245.4</ele>
        <time>2023-05-27T11:11:28Z</time>
      </trkpt>
      <trkpt lat="43.44832" lon="1.98176">
        <ele>245.4</ele>
        <time>2023-05-27T11:11:29Z</time>
      </trkpt>
      <trkpt lat="43.4483" lon="1.98179">
        <ele>245.6</ele>
        <time>2023-05-27T11:11:30Z</time>
      </trkpt>
      <trkpt lat="43.44828" lon="1.98181">
        <ele>245.6</ele>
        <time>2023-05-27T11:11:31Z</time>
      </trkpt>
      <trkpt lat="43.44827" lon="1.98184">
        <ele>245.6</ele>
        <time>2023-05-27T11:11:32Z</time>
      </trkpt>
      <trkpt lat="43.44826" lon="1.98188">
        <ele>245.6</ele>
        <time>2023-05-27T11:11:33Z</time>
      </trkpt>
      <trkpt lat="43.44824" lon="1.98193">
        <ele>245.8</ele>
        <time>2023-05-27T11:11:34Z</time>
      </trkpt>
      <trkpt lat="43.44823" lon="1.98196">
        <ele>245.8</ele>
        <time>2023-05-27T11:11:35Z</time>
      </trkpt>
      <trkpt lat="43.44822" lon="1.98201">
        <ele>245.8</ele>
        <time>2023-05-27T11:11:36Z</time>
      </trkpt>
      <trkpt lat="43.44823" lon="1.98207">
        <ele>245.8</ele>
        <time>2023-05-27T11:11:37Z</time>
      </trkpt>
      <trkpt lat="43.44824" lon="1.9821">
        <ele>245.8</ele>
        <time>2023-05-27T11:11:38Z</time>
      </trkpt>
      <trkpt lat="43.44825" lon="1.98215">
        <ele>245.8</ele>
        <time>2023-05-27T11:11:39Z</time>
      </trkpt>
      <trkpt lat="43.44825" lon="1.98221">
        <ele>245.8</ele>
        <time>2023-05-27T11:11:40Z</time>
      </trkpt>
      <trkpt lat="43.44827" lon="1.98228">
        <ele>245.8</ele>
        <time>2023-05-27T11:11:41Z</time>
      </trkpt>
      <trkpt lat="43.44828" lon="1.98236">
        <ele>245.8</ele>
        <time>2023-05-27T11:11:42Z</time>
      </trkpt>
      <trkpt lat="43.44829" lon="1.98241">
        <ele>245.8</ele>
        <time>2023-05-27T11:11:43Z</time>
      </trkpt>
      <trkpt lat="43.4483" lon="1.98248">
        <ele>245.6</ele>
        <time>2023-05-27T11:11:44Z</time>
      </trkpt>
      <trkpt lat="43.4483" lon="1.98254">
        <ele>245.6</ele>
        <time>2023-05-27T11:11:45Z</time>
      </trkpt>
      <trkpt lat="43.4483" lon="1.98261">
        <ele>245.6</ele>
        <time>2023-05-27T11:11:46Z</time>
      </trkpt>
      <trkpt lat="43.44829" lon="1.98266">
        <ele>245.6</ele>
        <time>2023-05-27T11:11:47Z</time>
      </trkpt>
      <trkpt lat="43.44828" lon="1.98271">
        <ele>245.6</ele>
        <time>2023-05-27T11:11:48Z</time>
      </trkpt>
      <trkpt lat="43.44828" lon="1.98276">
        <ele>245.6</ele>
        <time>2023-05-27T11:11:49Z</time>
      </trkpt>
      <trkpt lat="43.44826" lon="1.98282">
        <ele>245.6</ele>
        <time>2023-05-27T11:11:50Z</time>
      </trkpt>
      <trkpt lat="43.44826" lon="1.98286">
        <ele>245.6</ele>
        <time>2023-05-27T11:11:51Z</time>
      </trkpt>
      <trkpt lat="43.44824" lon="1.98292">
        <ele>245.6</ele>
        <time>2023-05-27T11:11:52Z</time>
      </trkpt>
      <trkpt lat="43.44823" lon="1.98296">
        <ele>245.8</ele>
        <time>2023-05-27T11:11:53Z</time>
      </trkpt>
      <trkpt lat="43.44821" lon="1.98302">
        <ele>245.8</ele>
        <time>2023-05-27T11:11:54Z</time>
      </trkpt>
      <trkpt lat="43.44821" lon="1.98308">
        <ele>245.8</ele>
        <time>2023-05-27T11:11:55Z</time>
      </trkpt>
      <trkpt lat="43.44821" lon="1.98314">
        <ele>245.8</ele>
        <time>2023-05-27T11:11:56Z</time>
      </trkpt>
      <trkpt lat="43.4482" lon="1.98321">
        <ele>246</ele>
        <time>2023-05-27T11:11:57Z</time>
      </trkpt>
      <trkpt lat="43.4482" lon="1.98328">
        <ele>246</ele>
        <time>2023-05-27T11:11:58Z</time>
      </trkpt>
      <trkpt lat="43.44821" lon="1.98336">
        <ele>246</ele>
        <time>2023-05-27T11:11:59Z</time>
      </trkpt>
      <trkpt lat="43.44822" lon="1.98343">
        <ele>246</ele>
        <time>2023-05-27T11:12:00Z</time>
      </trkpt>
      <trkpt lat="43.44822" lon="1.98349">
        <ele>246</ele>
        <time>2023-05-27T11:12:01Z</time>
      </trkpt>
      <trkpt lat="43.44822" lon="1.98353">
        <ele>246</ele>
        <time>2023-05-27T11:12:02Z</time>
      </trkpt>
      <trkpt lat="43.44823" lon="1.9836">
        <ele>246.2</ele>
        <time>2023-05-27T11:12:03Z</time>
      </trkpt>
      <trkpt lat="43.44823" lon="1.98366">
        <ele>246.2</ele>
        <time>2023-05-27T11:12:04Z</time>
      </trkpt>
      <trkpt lat="43.44823" lon="1.98372">
        <ele>246.2</ele>
        <time>2023-05-27T11:12:05Z</time>
      </trkpt>
      <trkpt lat="43.44824" lon="1.98377">
        <ele>246.2</ele>
        <time>2023-05-27T11:12:06Z</time>
      </trkpt>
      <trkpt lat="43.44826" lon="1.98382">
        <ele>246.2</ele>
        <time>2023-05-27T11:12:07Z</time>
      </trkpt>
      <trkpt lat="43.44829" lon="1.98387">
        <ele>246.2</ele>
        <time>2023-05-27T11:12:08Z</time>
      </trkpt>
      <trkpt lat="43.44831" lon="1.98389">
        <ele>246.2</ele>
        <time>2023-05-27T11:12:09Z</time>
      </trkpt>
      <trkpt lat="43.44835" lon="1.9839">
        <ele>246.2</ele>
        <time>2023-05-27T11:12:10Z</time>
      </trkpt>
      <trkpt lat="43.44839" lon="1.9839">
        <ele>246.2</ele>
        <time>2023-05-27T11:12:11Z</time>
      </trkpt>
      <trkpt lat="43.44843" lon="1.9839">
        <ele>246.2</ele>
        <time>2023-05-27T11:12:12Z</time>
      </trkpt>
      <trkpt lat="43.44847" lon="1.98387">
        <ele>246.2</ele>
        <time>2023-05-27T11:12:13Z</time>
      </trkpt>
      <trkpt lat="43.44851" lon="1.98383">
        <ele>246.2</ele>
        <time>2023-05-27T11:12:14Z</time>
      </trkpt>
      <trkpt lat="43.44855" lon="1.98379">
        <ele>246.2</ele>
        <time>2023-05-27T11:12:15Z</time>
      </trkpt>
      <trkpt lat="43.44858" lon="1.98377">
        <ele>246.2</ele>
        <time>2023-05-27T11:12:16Z</time>
      </trkpt>
      <trkpt lat="43.44862" lon="1.98376">
        <ele>246</ele>
        <time>2023-05-27T11:12:17Z</time>
      </trkpt>
      <trkpt lat="43.44866" lon="1.98376">
        <ele>246</ele>
        <time>2023-05-27T11:12:18Z</time>
      </trkpt>
      <trkpt lat="43.44871" lon="1.98376">
        <ele>246</ele>
        <time>2023-05-27T11:12:19Z</time>
      </trkpt>
      <trkpt lat="43.44875" lon="1.98377">
        <ele>246</ele>
        <time>2023-05-27T11:12:20Z</time>
      </trkpt>
      <trkpt lat="43.44881" lon="1.9838">
        <ele>246</ele>
        <time>2023-05-27T11:12:21Z</time>
      </trkpt>
      <trkpt lat="43.44885" lon="1.98384">
        <ele>246</ele>
        <time>2023-05-27T11:12:22Z</time>
      </trkpt>
      <trkpt lat="43.44888" lon="1.98386">
        <ele>246</ele>
        <time>2023-05-27T11:12:23Z</time>
      </trkpt>
      <trkpt lat="43.44891" lon="1.98389">
        <ele>245.8</ele>
        <time>2023-05-27T11:12:24Z</time>
      </trkpt>
      <trkpt lat="43.44894" lon="1.98392">
        <ele>245.8</ele>
        <time>2023-05-27T11:12:25Z</time>
      </trkpt>
      <trkpt lat="43.44897" lon="1.98396">
        <ele>245.8</ele>
        <time>2023-05-27T11:12:26Z</time>
      </trkpt>
      <trkpt lat="43.44898" lon="1.984">
        <ele>245.8</ele>
        <time>2023-05-27T11:12:27Z</time>
      </trkpt>
      <trkpt lat="43.44899" lon="1.98406">
        <ele>245.8</ele>
        <time>2023-05-27T11:12:28Z</time>
      </trkpt>
      <trkpt lat="43.449" lon="1.98413">
        <ele>245.8</ele>
        <time>2023-05-27T11:12:29Z</time>
      </trkpt>
      <trkpt lat="43.44901" lon="1.98418">
        <ele>245.8</ele>
        <time>2023-05-27T11:12:30Z</time>
      </trkpt>
      <trkpt lat="43.44902" lon="1.98423">
        <ele>245.8</ele>
        <time>2023-05-27T11:12:31Z</time>
      </trkpt>
      <trkpt lat="43.44903" lon="1.98428">
        <ele>245.8</ele>
        <time>2023-05-27T11:12:32Z</time>
      </trkpt>
      <trkpt lat="43.44904" lon="1.98433">
        <ele>245.8</ele>
        <time>2023-05-27T11:12:33Z</time>
      </trkpt>
      <trkpt lat="43.44906" lon="1.98438">
        <ele>245.8</ele>
        <time>2023-05-27T11:12:34Z</time>
      </trkpt>
      <trkpt lat="43.44907" lon="1.98443">
        <ele>245.8</ele>
        <time>2023-05-27T11:12:35Z</time>
      </trkpt>
      <trkpt lat="43.44908" lon="1.98449">
        <ele>245.8</ele>
        <time>2023-05-27T11:12:36Z</time>
      </trkpt>
      <trkpt lat="43.44909" lon="1.98457">
        <ele>246</ele>
        <time>2023-05-27T11:12:37Z</time>
      </trkpt>
      <trkpt lat="43.4491" lon="1.98462">
        <ele>246</ele>
        <time>2023-05-27T11:12:38Z</time>
      </trkpt>
      <trkpt lat="43.44911" lon="1.98467">
        <ele>246</ele>
        <time>2023-05-27T11:12:39Z</time>
      </trkpt>
      <trkpt lat="43.44912" lon="1.98474">
        <ele>246</ele>
        <time>2023-05-27T11:12:40Z</time>
      </trkpt>
      <trkpt lat="43.44913" lon="1.9848">
        <ele>246</ele>
        <time>2023-05-27T11:12:41Z</time>
      </trkpt>
      <trkpt lat="43.44915" lon="1.98486">
        <ele>246</ele>
        <time>2023-05-27T11:12:42Z</time>
      </trkpt>
      <trkpt lat="43.44916" lon="1.98492">
        <ele>246</ele>
        <time>2023-05-27T11:12:43Z</time>
      </trkpt>
      <trkpt lat="43.44917" lon="1.98499">
        <ele>246</ele>
        <time>2023-05-27T11:12:44Z</time>
      </trkpt>
      <trkpt lat="43.44919" lon="1.98505">
        <ele>246</ele>
        <time>2023-05-27T11:12:45Z</time>
      </trkpt>
      <trkpt lat="43.44919" lon="1.98511">
        <ele>246</ele>
        <time>2023-05-27T11:12:46Z</time>
      </trkpt>
      <trkpt lat="43.4492" lon="1.98517">
        <ele>245.8</ele>
        <time>2023-05-27T11:12:47Z</time>
      </trkpt>
      <trkpt lat="43.44921" lon="1.98523">
        <ele>246</ele>
        <time>2023-05-27T11:12:48Z</time>
      </trkpt>
      <trkpt lat="43.44922" lon="1.9853">
        <ele>245.8</ele>
        <time>2023-05-27T11:12:49Z</time>
      </trkpt>
      <trkpt lat="43.44922" lon="1.98536">
        <ele>245.8</ele>
        <time>2023-05-27T11:12:50Z</time>
      </trkpt>
      <trkpt lat="43.44923" lon="1.98543">
        <ele>245.8</ele>
        <time>2023-05-27T11:12:51Z</time>
      </trkpt>
      <trkpt lat="43.44924" lon="1.9855">
        <ele>246</ele>
        <time>2023-05-27T11:12:52Z</time>
      </trkpt>
      <trkpt lat="43.44924" lon="1.98556">
        <ele>246</ele>
        <time>2023-05-27T11:12:53Z</time>
      </trkpt>
      <trkpt lat="43.44925" lon="1.98562">
        <ele>246</ele>
        <time>2023-05-27T11:12:54Z</time>
      </trkpt>
      <trkpt lat="43.44926" lon="1.9857">
        <ele>246</ele>
        <time>2023-05-27T11:12:55Z</time>
      </trkpt>
      <trkpt lat="43.44927" lon="1.98575">
        <ele>246</ele>
        <time>2023-05-27T11:12:56Z</time>
      </trkpt>
      <trkpt lat="43.44928" lon="1.9858">
        <ele>246</ele>
        <time>2023-05-27T11:12:57Z</time>
      </trkpt>
      <trkpt lat="43.44928" lon="1.98585">
        <ele>246</ele>
        <time>2023-05-27T11:12:58Z</time>
      </trkpt>
      <trkpt lat="43.44928" lon="1.9859">
        <ele>246</ele>
        <time>2023-05-27T11:12:59Z</time>
      </trkpt>
      <trkpt lat="43.44927" lon="1.98594">
        <ele>246</ele>
        <time>2023-05-27T11:13:00Z</time>
      </trkpt>
      <trkpt lat="43.44927" lon="1.98598">
        <ele>246</ele>
        <time>2023-05-27T11:13:01Z</time>
      </trkpt>
      <trkpt lat="43.44928" lon="1.98602">
        <ele>246.2</ele>
        <time>2023-05-27T11:13:02Z</time>
      </trkpt>
      <trkpt lat="43.44928" lon="1.98606">
        <ele>246.2</ele>
        <time>2023-05-27T11:13:03Z</time>
      </trkpt>
      <trkpt lat="43.4493" lon="1.98611">
        <ele>246.2</ele>
        <time>2023-05-27T11:13:04Z</time>
      </trkpt>
      <trkpt lat="43.44931" lon="1.98616">
        <ele>246.2</ele>
        <time>2023-05-27T11:13:05Z</time>
      </trkpt>
      <trkpt lat="43.44932" lon="1.98623">
        <ele>246.2</ele>
        <time>2023-05-27T11:13:06Z</time>
      </trkpt>
      <trkpt lat="43.44933" lon="1.98628">
        <ele>246.2</ele>
        <time>2023-05-27T11:13:07Z</time>
      </trkpt>
      <trkpt lat="43.44933" lon="1.98633">
        <ele>246.2</ele>
        <time>2023-05-27T11:13:08Z</time>
      </trkpt>
      <trkpt lat="43.44934" lon="1.98639">
        <ele>246.2</ele>
        <time>2023-05-27T11:13:09Z</time>
      </trkpt>
      <trkpt lat="43.44935" lon="1.98644">
        <ele>246.2</ele>
        <time>2023-05-27T11:13:10Z</time>
      </trkpt>
      <trkpt lat="43.44935" lon="1.98649">
        <ele>246.4</ele>
        <time>2023-05-27T11:13:11Z</time>
      </trkpt>
      <trkpt lat="43.44935" lon="1.98655">
        <ele>246.4</ele>
        <time>2023-05-27T11:13:12Z</time>
      </trkpt>
      <trkpt lat="43.44935" lon="1.9866">
        <ele>246.4</ele>
        <time>2023-05-27T11:13:13Z</time>
      </trkpt>
      <trkpt lat="43.44935" lon="1.98666">
        <ele>246.4</ele>
        <time>2023-05-27T11:13:14Z</time>
      </trkpt>
      <trkpt lat="43.44936" lon="1.98673">
        <ele>246.4</ele>
        <time>2023-05-27T11:13:15Z</time>
      </trkpt>
      <trkpt lat="43.44936" lon="1.98679">
        <ele>246.4</ele>
        <time>2023-05-27T11:13:16Z</time>
      </trkpt>
      <trkpt lat="43.44936" lon="1.98685">
        <ele>246.4</ele>
        <time>2023-05-27T11:13:17Z</time>
      </trkpt>
      <trkpt lat="43.44936" lon="1.98691">
        <ele>246.4</ele>
        <time>2023-05-27T11:13:18Z</time>
      </trkpt>
      <trkpt lat="43.44936" lon="1.98695">
        <ele>246.4</ele>
        <time>2023-05-27T11:13:19Z</time>
      </trkpt>
      <trkpt lat="43.44937" lon="1.98701">
        <ele>246.4</ele>
        <time>2023-05-27T11:13:20Z</time>
      </trkpt>
      <trkpt lat="43.44936" lon="1.98706">
        <ele>246.6</ele>
        <time>2023-05-27T11:13:21Z</time>
      </trkpt>
      <trkpt lat="43.44936" lon="1.98712">
        <ele>246.6</ele>
        <time>2023-05-27T11:13:22Z</time>
      </trkpt>
      <trkpt lat="43.44937" lon="1.98717">
        <ele>246.6</ele>
        <time>2023-05-27T11:13:23Z</time>
      </trkpt>
      <trkpt lat="43.44939" lon="1.98723">
        <ele>246.6</ele>
        <time>2023-05-27T11:13:24Z</time>
      </trkpt>
      <trkpt lat="43.44942" lon="1.9873">
        <ele>246.6</ele>
        <time>2023-05-27T11:13:25Z</time>
      </trkpt>
      <trkpt lat="43.44945" lon="1.98736">
        <ele>246.6</ele>
        <time>2023-05-27T11:13:26Z</time>
      </trkpt>
      <trkpt lat="43.44947" lon="1.98742">
        <ele>246.6</ele>
        <time>2023-05-27T11:13:27Z</time>
      </trkpt>
      <trkpt lat="43.44949" lon="1.98746">
        <ele>246.6</ele>
        <time>2023-05-27T11:13:28Z</time>
      </trkpt>
      <trkpt lat="43.44952" lon="1.98751">
        <ele>246.6</ele>
        <time>2023-05-27T11:13:29Z</time>
      </trkpt>
      <trkpt lat="43.44955" lon="1.98756">
        <ele>246.6</ele>
        <time>2023-05-27T11:13:30Z</time>
      </trkpt>
      <trkpt lat="43.44958" lon="1.98762">
        <ele>246.6</ele>
        <time>2023-05-27T11:13:31Z</time>
      </trkpt>
      <trkpt lat="43.4496" lon="1.98766">
        <ele>246.6</ele>
        <time>2023-05-27T11:13:32Z</time>
      </trkpt>
      <trkpt lat="43.44961" lon="1.98769">
        <ele>246.6</ele>
        <time>2023-05-27T11:13:33Z</time>
      </trkpt>
      <trkpt lat="43.44964" lon="1.98773">
        <ele>246.6</ele>
        <time>2023-05-27T11:13:34Z</time>
      </trkpt>
      <trkpt lat="43.44966" lon="1.98778">
        <ele>246.6</ele>
        <time>2023-05-27T11:13:35Z</time>
      </trkpt>
      <trkpt lat="43.44968" lon="1.98785">
        <ele>246.6</ele>
        <time>2023-05-27T11:13:36Z</time>
      </trkpt>
      <trkpt lat="43.4497" lon="1.98792">
        <ele>246.6</ele>
        <time>2023-05-27T11:13:37Z</time>
      </trkpt>
      <trkpt lat="43.44973" lon="1.98799">
        <ele>246.6</ele>
        <time>2023-05-27T11:13:38Z</time>
      </trkpt>
      <trkpt lat="43.44978" lon="1.98806">
        <ele>246.6</ele>
        <time>2023-05-27T11:13:39Z</time>
      </trkpt>
      <trkpt lat="43.44981" lon="1.9881">
        <ele>246.6</ele>
        <time>2023-05-27T11:13:40Z</time>
      </trkpt>
      <trkpt lat="43.44983" lon="1.98815">
        <ele>246.6</ele>
        <time>2023-05-27T11:13:41Z</time>
      </trkpt>
      <trkpt lat="43.44985" lon="1.98819">
        <ele>246.6</ele>
        <time>2023-05-27T11:13:42Z</time>
      </trkpt>
      <trkpt lat="43.44986" lon="1.98821">
        <ele>246.6</ele>
        <time>2023-05-27T11:13:43Z</time>
      </trkpt>
      <trkpt lat="43.44987" lon="1.98824">
        <ele>246.6</ele>
        <time>2023-05-27T11:13:44Z</time>
      </trkpt>
      <trkpt lat="43.44989" lon="1.98828">
        <ele>246.6</ele>
        <time>2023-05-27T11:13:45Z</time>
      </trkpt>
      <trkpt lat="43.44992" lon="1.9883">
        <ele>246.6</ele>
        <time>2023-05-27T11:13:46Z</time>
      </trkpt>
      <trkpt lat="43.44995" lon="1.98835">
        <ele>246.6</ele>
        <time>2023-05-27T11:13:47Z</time>
      </trkpt>
      <trkpt lat="43.44997" lon="1.98837">
        <ele>246.4</ele>
        <time>2023-05-27T11:13:48Z</time>
      </trkpt>
      <trkpt lat="43.44999" lon="1.98841">
        <ele>246.4</ele>
        <time>2023-05-27T11:13:49Z</time>
      </trkpt>
      <trkpt lat="43.45001" lon="1.98844">
        <ele>246.4</ele>
        <time>2023-05-27T11:13:50Z</time>
      </trkpt>
      <trkpt lat="43.45003" lon="1.98847">
        <ele>246.4</ele>
        <time>2023-05-27T11:13:51Z</time>
      </trkpt>
      <trkpt lat="43.45005" lon="1.98851">
        <ele>246.4</ele>
        <time>2023-05-27T11:13:52Z</time>
      </trkpt>
      <trkpt lat="43.45008" lon="1.98856">
        <ele>246.4</ele>
        <time>2023-05-27T11:13:53Z</time>
      </trkpt>
      <trkpt lat="43.4501" lon="1.98862">
        <ele>246.4</ele>
        <time>2023-05-27T11:13:54Z</time>
      </trkpt>
      <trkpt lat="43.45011" lon="1.98867">
        <ele>246.4</ele>
        <time>2023-05-27T11:13:55Z</time>
      </trkpt>
      <trkpt lat="43.45012" lon="1.98871">
        <ele>246.6</ele>
        <time>2023-05-27T11:13:56Z</time>
      </trkpt>
      <trkpt lat="43.45014" lon="1.98875">
        <ele>246.4</ele>
        <time>2023-05-27T11:13:57Z</time>
      </trkpt>
      <trkpt lat="43.45015" lon="1.9888">
        <ele>246.4</ele>
        <time>2023-05-27T11:13:58Z</time>
      </trkpt>
      <trkpt lat="43.45017" lon="1.98885">
        <ele>246.6</ele>
        <time>2023-05-27T11:13:59Z</time>
      </trkpt>
      <trkpt lat="43.45017" lon="1.9889">
        <ele>246.6</ele>
        <time>2023-05-27T11:14:00Z</time>
      </trkpt>
      <trkpt lat="43.45018" lon="1.98893">
        <ele>246.6</ele>
        <time>2023-05-27T11:14:01Z</time>
      </trkpt>
      <trkpt lat="43.45019" lon="1.98898">
        <ele>246.6</ele>
        <time>2023-05-27T11:14:02Z</time>
      </trkpt>
      <trkpt lat="43.4502" lon="1.98903">
        <ele>246.6</ele>
        <time>2023-05-27T11:14:03Z</time>
      </trkpt>
      <trkpt lat="43.45021" lon="1.98909">
        <ele>246.6</ele>
        <time>2023-05-27T11:14:04Z</time>
      </trkpt>
      <trkpt lat="43.45022" lon="1.98914">
        <ele>246.6</ele>
        <time>2023-05-27T11:14:05Z</time>
      </trkpt>
      <trkpt lat="43.45024" lon="1.98921">
        <ele>246.6</ele>
        <time>2023-05-27T11:14:06Z</time>
      </trkpt>
      <trkpt lat="43.45025" lon="1.98928">
        <ele>246.6</ele>
        <time>2023-05-27T11:14:07Z</time>
      </trkpt>
      <trkpt lat="43.45026" lon="1.98935">
        <ele>246.6</ele>
        <time>2023-05-27T11:14:08Z</time>
      </trkpt>
      <trkpt lat="43.45027" lon="1.98941">
        <ele>246.6</ele>
        <time>2023-05-27T11:14:09Z</time>
      </trkpt>
      <trkpt lat="43.45027" lon="1.98948">
        <ele>246.6</ele>
        <time>2023-05-27T11:14:10Z</time>
      </trkpt>
      <trkpt lat="43.45027" lon="1.98954">
        <ele>246.6</ele>
        <time>2023-05-27T11:14:11Z</time>
      </trkpt>
      <trkpt lat="43.45028" lon="1.9896">
        <ele>246.6</ele>
        <time>2023-05-27T11:14:12Z</time>
      </trkpt>
      <trkpt lat="43.45029" lon="1.98966">
        <ele>246.6</ele>
        <time>2023-05-27T11:14:13Z</time>
      </trkpt>
      <trkpt lat="43.4503" lon="1.98972">
        <ele>246.6</ele>
        <time>2023-05-27T11:14:14Z</time>
      </trkpt>
      <trkpt lat="43.4503" lon="1.98978">
        <ele>246.6</ele>
        <time>2023-05-27T11:14:15Z</time>
      </trkpt>
      <trkpt lat="43.4503" lon="1.98985">
        <ele>246.8</ele>
        <time>2023-05-27T11:14:16Z</time>
      </trkpt>
      <trkpt lat="43.45031" lon="1.98991">
        <ele>246.8</ele>
        <time>2023-05-27T11:14:17Z</time>
      </trkpt>
      <trkpt lat="43.45031" lon="1.98996">
        <ele>246.8</ele>
        <time>2023-05-27T11:14:18Z</time>
      </trkpt>
      <trkpt lat="43.45031" lon="1.99002">
        <ele>246.8</ele>
        <time>2023-05-27T11:14:19Z</time>
      </trkpt>
      <trkpt lat="43.45031" lon="1.99007">
        <ele>246.8</ele>
        <time>2023-05-27T11:14:20Z</time>
      </trkpt>
      <trkpt lat="43.45031" lon="1.99012">
        <ele>246.8</ele>
        <time>2023-05-27T11:14:21Z</time>
      </trkpt>
      <trkpt lat="43.45031" lon="1.99017">
        <ele>246.8</ele>
        <time>2023-05-27T11:14:22Z</time>
      </trkpt>
      <trkpt lat="43.45031" lon="1.99023">
        <ele>246.8</ele>
        <time>2023-05-27T11:14:23Z</time>
      </trkpt>
      <trkpt lat="43.45032" lon="1.99028">
        <ele>246.8</ele>
        <time>2023-05-27T11:14:24Z</time>
      </trkpt>
      <trkpt lat="43.45032" lon="1.99033">
        <ele>246.8</ele>
        <time>2023-05-27T11:14:25Z</time>
      </trkpt>
      <trkpt lat="43.45032" lon="1.99038">
        <ele>246.8</ele>
        <time>2023-05-27T11:14:26Z</time>
      </trkpt>
      <trkpt lat="43.45032" lon="1.99042">
        <ele>246.8</ele>
        <time>2023-05-27T11:14:27Z</time>
      </trkpt>
      <trkpt lat="43.45032" lon="1.99046">
        <ele>246.8</ele>
        <time>2023-05-27T11:14:28Z</time>
      </trkpt>
      <trkpt lat="43.45031" lon="1.99051">
        <ele>246.8</ele>
        <time>2023-05-27T11:14:29Z</time>
      </trkpt>
      <trkpt lat="43.45031" lon="1.99057">
        <ele>246.8</ele>
        <time>2023-05-27T11:14:30Z</time>
      </trkpt>
      <trkpt lat="43.45031" lon="1.99062">
        <ele>246.8</ele>
        <time>2023-05-27T11:14:31Z</time>
      </trkpt>
      <trkpt lat="43.45031" lon="1.99067">
        <ele>246.8</ele>
        <time>2023-05-27T11:14:32Z</time>
      </trkpt>
      <trkpt lat="43.4503" lon="1.99072">
        <ele>246.8</ele>
        <time>2023-05-27T11:14:33Z</time>
      </trkpt>
      <trkpt lat="43.4503" lon="1.99078">
        <ele>246.8</ele>
        <time>2023-05-27T11:14:34Z</time>
      </trkpt>
      <trkpt lat="43.4503" lon="1.99084">
        <ele>246.8</ele>
        <time>2023-05-27T11:14:35Z</time>
      </trkpt>
      <trkpt lat="43.45031" lon="1.9909">
        <ele>246.6</ele>
        <time>2023-05-27T11:14:36Z</time>
      </trkpt>
      <trkpt lat="43.45031" lon="1.99096">
        <ele>246.6</ele>
        <time>2023-05-27T11:14:37Z</time>
      </trkpt>
      <trkpt lat="43.45031" lon="1.99102">
        <ele>246.8</ele>
        <time>2023-05-27T11:14:38Z</time>
      </trkpt>
      <trkpt lat="43.45031" lon="1.99108">
        <ele>246.8</ele>
        <time>2023-05-27T11:14:39Z</time>
      </trkpt>
      <trkpt lat="43.45031" lon="1.99114">
        <ele>246.6</ele>
        <time>2023-05-27T11:14:40Z</time>
      </trkpt>
      <trkpt lat="43.4503" lon="1.99119">
        <ele>246.6</ele>
        <time>2023-05-27T11:14:41Z</time>
      </trkpt>
      <trkpt lat="43.4503" lon="1.99124">
        <ele>246.6</ele>
        <time>2023-05-27T11:14:42Z</time>
      </trkpt>
      <trkpt lat="43.4503" lon="1.99131">
        <ele>246.6</ele>
        <time>2023-05-27T11:14:43Z</time>
      </trkpt>
      <trkpt lat="43.4503" lon="1.99138">
        <ele>246.6</ele>
        <time>2023-05-27T11:14:44Z</time>
      </trkpt>
      <trkpt lat="43.4503" lon="1.99145">
        <ele>246.6</ele>
        <time>2023-05-27T11:14:45Z</time>
      </trkpt>
      <trkpt lat="43.45029" lon="1.99151">
        <ele>246.6</ele>
        <time>2023-05-27T11:14:46Z</time>
      </trkpt>
      <trkpt lat="43.45029" lon="1.99157">
        <ele>246.6</ele>
        <time>2023-05-27T11:14:47Z</time>
      </trkpt>
      <trkpt lat="43.45029" lon="1.99162">
        <ele>246.6</ele>
        <time>2023-05-27T11:14:48Z</time>
      </trkpt>
      <trkpt lat="43.45028" lon="1.99168">
        <ele>246.6</ele>
        <time>2023-05-27T11:14:49Z</time>
      </trkpt>
      <trkpt lat="43.45028" lon="1.99174">
        <ele>246.6</ele>
        <time>2023-05-27T11:14:50Z</time>
      </trkpt>
      <trkpt lat="43.45028" lon="1.99179">
        <ele>246.6</ele>
        <time>2023-05-27T11:14:51Z</time>
      </trkpt>
      <trkpt lat="43.45027" lon="1.99184">
        <ele>246.6</ele>
        <time>2023-05-27T11:14:52Z</time>
      </trkpt>
      <trkpt lat="43.45027" lon="1.9919">
        <ele>246.6</ele>
        <time>2023-05-27T11:14:53Z</time>
      </trkpt>
      <trkpt lat="43.45028" lon="1.99197">
        <ele>246.6</ele>
        <time>2023-05-27T11:14:54Z</time>
      </trkpt>
      <trkpt lat="43.45028" lon="1.99204">
        <ele>246.8</ele>
        <time>2023-05-27T11:14:55Z</time>
      </trkpt>
      <trkpt lat="43.45028" lon="1.99212">
        <ele>246.8</ele>
        <time>2023-05-27T11:14:56Z</time>
      </trkpt>
      <trkpt lat="43.45028" lon="1.99219">
        <ele>246.8</ele>
        <time>2023-05-27T11:14:57Z</time>
      </trkpt>
      <trkpt lat="43.45029" lon="1.99226">
        <ele>246.8</ele>
        <time>2023-05-27T11:14:58Z</time>
      </trkpt>
      <trkpt lat="43.45029" lon="1.99231">
        <ele>246.8</ele>
        <time>2023-05-27T11:14:59Z</time>
      </trkpt>
      <trkpt lat="43.45029" lon="1.99236">
        <ele>246.8</ele>
        <time>2023-05-27T11:15:00Z</time>
      </trkpt>
      <trkpt lat="43.45029" lon="1.99243">
        <ele>247</ele>
        <time>2023-05-27T11:15:01Z</time>
      </trkpt>
      <trkpt lat="43.4503" lon="1.99248">
        <ele>246.8</ele>
        <time>2023-05-27T11:15:02Z</time>
      </trkpt>
      <trkpt lat="43.45031" lon="1.99253">
        <ele>246.8</ele>
        <time>2023-05-27T11:15:03Z</time>
      </trkpt>
      <trkpt lat="43.45032" lon="1.99258">
        <ele>247</ele>
        <time>2023-05-27T11:15:04Z</time>
      </trkpt>
      <trkpt lat="43.45033" lon="1.99264">
        <ele>247</ele>
        <time>2023-05-27T11:15:05Z</time>
      </trkpt>
      <trkpt lat="43.45035" lon="1.9927">
        <ele>247</ele>
        <time>2023-05-27T11:15:06Z</time>
      </trkpt>
      <trkpt lat="43.45037" lon="1.99275">
        <ele>247</ele>
        <time>2023-05-27T11:15:07Z</time>
      </trkpt>
      <trkpt lat="43.4504" lon="1.99282">
        <ele>247</ele>
        <time>2023-05-27T11:15:08Z</time>
      </trkpt>
      <trkpt lat="43.45042" lon="1.99287">
        <ele>246.8</ele>
        <time>2023-05-27T11:15:09Z</time>
      </trkpt>
      <trkpt lat="43.45044" lon="1.99293">
        <ele>246.8</ele>
        <time>2023-05-27T11:15:10Z</time>
      </trkpt>
      <trkpt lat="43.45046" lon="1.99298">
        <ele>246.8</ele>
        <time>2023-05-27T11:15:11Z</time>
      </trkpt>
      <trkpt lat="43.45047" lon="1.99302">
        <ele>246.8</ele>
        <time>2023-05-27T11:15:12Z</time>
      </trkpt>
      <trkpt lat="43.45049" lon="1.99307">
        <ele>246.8</ele>
        <time>2023-05-27T11:15:13Z</time>
      </trkpt>
      <trkpt lat="43.4505" lon="1.99313">
        <ele>246.8</ele>
        <time>2023-05-27T11:15:14Z</time>
      </trkpt>
      <trkpt lat="43.45051" lon="1.99317">
        <ele>247</ele>
        <time>2023-05-27T11:15:15Z</time>
      </trkpt>
      <trkpt lat="43.45053" lon="1.99322">
        <ele>247</ele>
        <time>2023-05-27T11:15:16Z</time>
      </trkpt>
      <trkpt lat="43.45055" lon="1.99327">
        <ele>247</ele>
        <time>2023-05-27T11:15:17Z</time>
      </trkpt>
      <trkpt lat="43.45056" lon="1.99332">
        <ele>247</ele>
        <time>2023-05-27T11:15:18Z</time>
      </trkpt>
      <trkpt lat="43.45058" lon="1.99338">
        <ele>247</ele>
        <time>2023-05-27T11:15:19Z</time>
      </trkpt>
      <trkpt lat="43.4506" lon="1.99343">
        <ele>247</ele>
        <time>2023-05-27T11:15:20Z</time>
      </trkpt>
      <trkpt lat="43.45061" lon="1.99348">
        <ele>247</ele>
        <time>2023-05-27T11:15:21Z</time>
      </trkpt>
      <trkpt lat="43.45063" lon="1.99353">
        <ele>247</ele>
        <time>2023-05-27T11:15:22Z</time>
      </trkpt>
      <trkpt lat="43.45064" lon="1.99358">
        <ele>247</ele>
        <time>2023-05-27T11:15:23Z</time>
      </trkpt>
      <trkpt lat="43.45065" lon="1.99363">
        <ele>247</ele>
        <time>2023-05-27T11:15:24Z</time>
      </trkpt>
      <trkpt lat="43.45066" lon="1.99367">
        <ele>247</ele>
        <time>2023-05-27T11:15:25Z</time>
      </trkpt>
      <trkpt lat="43.45067" lon="1.99372">
        <ele>247</ele>
        <time>2023-05-27T11:15:26Z</time>
      </trkpt>
      <trkpt lat="43.45069" lon="1.99377">
        <ele>247</ele>
        <time>2023-05-27T11:15:27Z</time>
      </trkpt>
      <trkpt lat="43.4507" lon="1.99384">
        <ele>246.8</ele>
        <time>2023-05-27T11:15:28Z</time>
      </trkpt>
      <trkpt lat="43.45072" lon="1.99389">
        <ele>247</ele>
        <time>2023-05-27T11:15:29Z</time>
      </trkpt>
      <trkpt lat="43.45074" lon="1.99395">
        <ele>247</ele>
        <time>2023-05-27T11:15:30Z</time>
      </trkpt>
      <trkpt lat="43.45076" lon="1.99403">
        <ele>247</ele>
        <time>2023-05-27T11:15:31Z</time>
      </trkpt>
      <trkpt lat="43.45078" lon="1.99409">
        <ele>247</ele>
        <time>2023-05-27T11:15:32Z</time>
      </trkpt>
      <trkpt lat="43.45078" lon="1.99413">
        <ele>247</ele>
        <time>2023-05-27T11:15:33Z</time>
      </trkpt>
      <trkpt lat="43.45079" lon="1.99418">
        <ele>247</ele>
        <time>2023-05-27T11:15:34Z</time>
      </trkpt>
      <trkpt lat="43.4508" lon="1.99424">
        <ele>247</ele>
        <time>2023-05-27T11:15:35Z</time>
      </trkpt>
      <trkpt lat="43.45082" lon="1.9943">
        <ele>246.8</ele>
        <time>2023-05-27T11:15:36Z</time>
      </trkpt>
      <trkpt lat="43.45084" lon="1.99436">
        <ele>246.8</ele>
        <time>2023-05-27T11:15:37Z</time>
      </trkpt>
      <trkpt lat="43.45085" lon="1.99441">
        <ele>246.8</ele>
        <time>2023-05-27T11:15:38Z</time>
      </trkpt>
      <trkpt lat="43.45087" lon="1.99446">
        <ele>246.8</ele>
        <time>2023-05-27T11:15:39Z</time>
      </trkpt>
      <trkpt lat="43.45088" lon="1.9945">
        <ele>247</ele>
        <time>2023-05-27T11:15:40Z</time>
      </trkpt>
      <trkpt lat="43.4509" lon="1.99454">
        <ele>247</ele>
        <time>2023-05-27T11:15:41Z</time>
      </trkpt>
      <trkpt lat="43.45091" lon="1.99459">
        <ele>247</ele>
        <time>2023-05-27T11:15:42Z</time>
      </trkpt>
      <trkpt lat="43.45094" lon="1.99465">
        <ele>247</ele>
        <time>2023-05-27T11:15:43Z</time>
      </trkpt>
      <trkpt lat="43.45096" lon="1.9947">
        <ele>247</ele>
        <time>2023-05-27T11:15:44Z</time>
      </trkpt>
      <trkpt lat="43.45097" lon="1.99477">
        <ele>246.8</ele>
        <time>2023-05-27T11:15:45Z</time>
      </trkpt>
      <trkpt lat="43.45098" lon="1.99483">
        <ele>246.8</ele>
        <time>2023-05-27T11:15:46Z</time>
      </trkpt>
      <trkpt lat="43.45099" lon="1.99489">
        <ele>246.8</ele>
        <time>2023-05-27T11:15:47Z</time>
      </trkpt>
      <trkpt lat="43.45099" lon="1.99494">
        <ele>247</ele>
        <time>2023-05-27T11:15:48Z</time>
      </trkpt>
      <trkpt lat="43.45099" lon="1.99499">
        <ele>247</ele>
        <time>2023-05-27T11:15:49Z</time>
      </trkpt>
      <trkpt lat="43.45099" lon="1.99504">
        <ele>247</ele>
        <time>2023-05-27T11:15:50Z</time>
      </trkpt>
      <trkpt lat="43.45099" lon="1.9951">
        <ele>247</ele>
        <time>2023-05-27T11:15:51Z</time>
      </trkpt>
      <trkpt lat="43.45099" lon="1.99515">
        <ele>247</ele>
        <time>2023-05-27T11:15:52Z</time>
      </trkpt>
      <trkpt lat="43.451" lon="1.99522">
        <ele>247.2</ele>
        <time>2023-05-27T11:15:53Z</time>
      </trkpt>
      <trkpt lat="43.45102" lon="1.99526">
        <ele>247.2</ele>
        <time>2023-05-27T11:15:54Z</time>
      </trkpt>
      <trkpt lat="43.45102" lon="1.99532">
        <ele>247.2</ele>
        <time>2023-05-27T11:15:55Z</time>
      </trkpt>
      <trkpt lat="43.45105" lon="1.99537">
        <ele>247.2</ele>
        <time>2023-05-27T11:15:56Z</time>
      </trkpt>
      <trkpt lat="43.45108" lon="1.99544">
        <ele>247.2</ele>
        <time>2023-05-27T11:15:57Z</time>
      </trkpt>
      <trkpt lat="43.45111" lon="1.9955">
        <ele>247.2</ele>
        <time>2023-05-27T11:15:58Z</time>
      </trkpt>
      <trkpt lat="43.45114" lon="1.99555">
        <ele>247.4</ele>
        <time>2023-05-27T11:15:59Z</time>
      </trkpt>
      <trkpt lat="43.45116" lon="1.99559">
        <ele>247.4</ele>
        <time>2023-05-27T11:16:00Z</time>
      </trkpt>
      <trkpt lat="43.45121" lon="1.99563">
        <ele>247.4</ele>
        <time>2023-05-27T11:16:01Z</time>
      </trkpt>
      <trkpt lat="43.45126" lon="1.99567">
        <ele>247.4</ele>
        <time>2023-05-27T11:16:02Z</time>
      </trkpt>
      <trkpt lat="43.4513" lon="1.99571">
        <ele>247.4</ele>
        <time>2023-05-27T11:16:03Z</time>
      </trkpt>
      <trkpt lat="43.45134" lon="1.99574">
        <ele>247.2</ele>
        <time>2023-05-27T11:16:04Z</time>
      </trkpt>
      <trkpt lat="43.45137" lon="1.99577">
        <ele>247.2</ele>
        <time>2023-05-27T11:16:05Z</time>
      </trkpt>
      <trkpt lat="43.4514" lon="1.99581">
        <ele>247.2</ele>
        <time>2023-05-27T11:16:06Z</time>
      </trkpt>
      <trkpt lat="43.45143" lon="1.99584">
        <ele>247</ele>
        <time>2023-05-27T11:16:07Z</time>
      </trkpt>
      <trkpt lat="43.45146" lon="1.99589">
        <ele>247</ele>
        <time>2023-05-27T11:16:08Z</time>
      </trkpt>
      <trkpt lat="43.4515" lon="1.99594">
        <ele>247</ele>
        <time>2023-05-27T11:16:09Z</time>
      </trkpt>
      <trkpt lat="43.45154" lon="1.99599">
        <ele>247</ele>
        <time>2023-05-27T11:16:10Z</time>
      </trkpt>
      <trkpt lat="43.45157" lon="1.99605">
        <ele>247</ele>
        <time>2023-05-27T11:16:11Z</time>
      </trkpt>
      <trkpt lat="43.45158" lon="1.99609">
        <ele>247</ele>
        <time>2023-05-27T11:16:12Z</time>
      </trkpt>
      <trkpt lat="43.45158" lon="1.99614">
        <ele>247</ele>
        <time>2023-05-27T11:16:13Z</time>
      </trkpt>
      <trkpt lat="43.45158" lon="1.99619">
        <ele>247</ele>
        <time>2023-05-27T11:16:14Z</time>
      </trkpt>
      <trkpt lat="43.45159" lon="1.99626">
        <ele>247</ele>
        <time>2023-05-27T11:16:15Z</time>
      </trkpt>
      <trkpt lat="43.4516" lon="1.99632">
        <ele>247</ele>
        <time>2023-05-27T11:16:16Z</time>
      </trkpt>
      <trkpt lat="43.45161" lon="1.99637">
        <ele>247</ele>
        <time>2023-05-27T11:16:17Z</time>
      </trkpt>
      <trkpt lat="43.45161" lon="1.99642">
        <ele>247</ele>
        <time>2023-05-27T11:16:18Z</time>
      </trkpt>
      <trkpt lat="43.45162" lon="1.99647">
        <ele>247</ele>
        <time>2023-05-27T11:16:19Z</time>
      </trkpt>
      <trkpt lat="43.45163" lon="1.99652">
        <ele>247.2</ele>
        <time>2023-05-27T11:16:20Z</time>
      </trkpt>
      <trkpt lat="43.45165" lon="1.99658">
        <ele>247.2</ele>
        <time>2023-05-27T11:16:21Z</time>
      </trkpt>
      <trkpt lat="43.45166" lon="1.99664">
        <ele>247.2</ele>
        <time>2023-05-27T11:16:22Z</time>
      </trkpt>
      <trkpt lat="43.45167" lon="1.99669">
        <ele>247.2</ele>
        <time>2023-05-27T11:16:23Z</time>
      </trkpt>
      <trkpt lat="43.45168" lon="1.99675">
        <ele>247.2</ele>
        <time>2023-05-27T11:16:24Z</time>
      </trkpt>
      <trkpt lat="43.45169" lon="1.9968">
        <ele>247.2</ele>
        <time>2023-05-27T11:16:25Z</time>
      </trkpt>
      <trkpt lat="43.45169" lon="1.99686">
        <ele>247.2</ele>
        <time>2023-05-27T11:16:26Z</time>
      </trkpt>
      <trkpt lat="43.45168" lon="1.99692">
        <ele>247.2</ele>
        <time>2023-05-27T11:16:27Z</time>
      </trkpt>
      <trkpt lat="43.45169" lon="1.99697">
        <ele>247.2</ele>
        <time>2023-05-27T11:16:28Z</time>
      </trkpt>
      <trkpt lat="43.45169" lon="1.99703">
        <ele>247.2</ele>
        <time>2023-05-27T11:16:29Z</time>
      </trkpt>
      <trkpt lat="43.45169" lon="1.99708">
        <ele>247.2</ele>
        <time>2023-05-27T11:16:30Z</time>
      </trkpt>
      <trkpt lat="43.45168" lon="1.99714">
        <ele>247.4</ele>
        <time>2023-05-27T11:16:31Z</time>
      </trkpt>
      <trkpt lat="43.45167" lon="1.99718">
        <ele>247.2</ele>
        <time>2023-05-27T11:16:32Z</time>
      </trkpt>
      <trkpt lat="43.45166" lon="1.99723">
        <ele>247.2</ele>
        <time>2023-05-27T11:16:33Z</time>
      </trkpt>
      <trkpt lat="43.45166" lon="1.99727">
        <ele>247.2</ele>
        <time>2023-05-27T11:16:34Z</time>
      </trkpt>
      <trkpt lat="43.45166" lon="1.99731">
        <ele>247</ele>
        <time>2023-05-27T11:16:35Z</time>
      </trkpt>
      <trkpt lat="43.45165" lon="1.99733">
        <ele>247</ele>
        <time>2023-05-27T11:16:36Z</time>
      </trkpt>
      <trkpt lat="43.45164" lon="1.99736">
        <ele>246.8</ele>
        <time>2023-05-27T11:16:37Z</time>
      </trkpt>
      <trkpt lat="43.45162" lon="1.99739">
        <ele>246.8</ele>
        <time>2023-05-27T11:16:38Z</time>
      </trkpt>
      <trkpt lat="43.4516" lon="1.99742">
        <ele>246.6</ele>
        <time>2023-05-27T11:16:39Z</time>
      </trkpt>
      <trkpt lat="43.45158" lon="1.99747">
        <ele>246.6</ele>
        <time>2023-05-27T11:16:40Z</time>
      </trkpt>
      <trkpt lat="43.45158" lon="1.9975">
        <ele>246.6</ele>
        <time>2023-05-27T11:16:41Z</time>
      </trkpt>
      <trkpt lat="43.45157" lon="1.99753">
        <ele>246.6</ele>
        <time>2023-05-27T11:16:42Z</time>
      </trkpt>
      <trkpt lat="43.45156" lon="1.99756">
        <ele>246.6</ele>
        <time>2023-05-27T11:16:43Z</time>
      </trkpt>
      <trkpt lat="43.45154" lon="1.99758">
        <ele>246.6</ele>
        <time>2023-05-27T11:16:44Z</time>
      </trkpt>
      <trkpt lat="43.45153" lon="1.99761">
        <ele>246.6</ele>
        <time>2023-05-27T11:16:45Z</time>
      </trkpt>
      <trkpt lat="43.45153" lon="1.99764">
        <ele>246.6</ele>
        <time>2023-05-27T11:16:46Z</time>
      </trkpt>
      <trkpt lat="43.45153" lon="1.99767">
        <ele>246.6</ele>
        <time>2023-05-27T11:16:47Z</time>
      </trkpt>
      <trkpt lat="43.45152" lon="1.9977">
        <ele>246.8</ele>
        <time>2023-05-27T11:16:48Z</time>
      </trkpt>
      <trkpt lat="43.45151" lon="1.99773">
        <ele>246.8</ele>
        <time>2023-05-27T11:16:49Z</time>
      </trkpt>
      <trkpt lat="43.45151" lon="1.99775">
        <ele>246.8</ele>
        <time>2023-05-27T11:16:50Z</time>
      </trkpt>
      <trkpt lat="43.4515" lon="1.99778">
        <ele>247</ele>
        <time>2023-05-27T11:16:51Z</time>
      </trkpt>
      <trkpt lat="43.4515" lon="1.9978">
        <ele>247</ele>
        <time>2023-05-27T11:16:52Z</time>
      </trkpt>
      <trkpt lat="43.45148" lon="1.99783">
        <ele>247</ele>
        <time>2023-05-27T11:16:53Z</time>
      </trkpt>
      <trkpt lat="43.45147" lon="1.99787">
        <ele>247</ele>
        <time>2023-05-27T11:16:54Z</time>
      </trkpt>
      <trkpt lat="43.45146" lon="1.9979">
        <ele>247</ele>
        <time>2023-05-27T11:16:55Z</time>
      </trkpt>
      <trkpt lat="43.45145" lon="1.99794">
        <ele>247.2</ele>
        <time>2023-05-27T11:16:56Z</time>
      </trkpt>
      <trkpt lat="43.45143" lon="1.99798">
        <ele>247.2</ele>
        <time>2023-05-27T11:16:57Z</time>
      </trkpt>
      <trkpt lat="43.45142" lon="1.99801">
        <ele>247.2</ele>
        <time>2023-05-27T11:16:58Z</time>
      </trkpt>
      <trkpt lat="43.45141" lon="1.99804">
        <ele>247.2</ele>
        <time>2023-05-27T11:16:59Z</time>
      </trkpt>
      <trkpt lat="43.4514" lon="1.99808">
        <ele>247.2</ele>
        <time>2023-05-27T11:17:00Z</time>
      </trkpt>
      <trkpt lat="43.45138" lon="1.99812">
        <ele>247.2</ele>
        <time>2023-05-27T11:17:01Z</time>
      </trkpt>
      <trkpt lat="43.45138" lon="1.99815">
        <ele>247.2</ele>
        <time>2023-05-27T11:17:02Z</time>
      </trkpt>
      <trkpt lat="43.45137" lon="1.99819">
        <ele>247.2</ele>
        <time>2023-05-27T11:17:03Z</time>
      </trkpt>
      <trkpt lat="43.45136" lon="1.99823">
        <ele>247.2</ele>
        <time>2023-05-27T11:17:04Z</time>
      </trkpt>
      <trkpt lat="43.45135" lon="1.99827">
        <ele>247.4</ele>
        <time>2023-05-27T11:17:05Z</time>
      </trkpt>
      <trkpt lat="43.45134" lon="1.99832">
        <ele>247.4</ele>
        <time>2023-05-27T11:17:06Z</time>
      </trkpt>
      <trkpt lat="43.45134" lon="1.99835">
        <ele>247.4</ele>
        <time>2023-05-27T11:17:07Z</time>
      </trkpt>
      <trkpt lat="43.45133" lon="1.9984">
        <ele>247.4</ele>
        <time>2023-05-27T11:17:08Z</time>
      </trkpt>
      <trkpt lat="43.45132" lon="1.99846">
        <ele>247.4</ele>
        <time>2023-05-27T11:17:09Z</time>
      </trkpt>
      <trkpt lat="43.45132" lon="1.99852">
        <ele>247.4</ele>
        <time>2023-05-27T11:17:10Z</time>
      </trkpt>
      <trkpt lat="43.45132" lon="1.99858">
        <ele>247.4</ele>
        <time>2023-05-27T11:17:11Z</time>
      </trkpt>
      <trkpt lat="43.45132" lon="1.99861">
        <ele>247.4</ele>
        <time>2023-05-27T11:17:12Z</time>
      </trkpt>
      <trkpt lat="43.45132" lon="1.99865">
        <ele>247.4</ele>
        <time>2023-05-27T11:17:13Z</time>
      </trkpt>
      <trkpt lat="43.45132" lon="1.99869">
        <ele>247.4</ele>
        <time>2023-05-27T11:17:14Z</time>
      </trkpt>
      <trkpt lat="43.45133" lon="1.99873">
        <ele>247.4</ele>
        <time>2023-05-27T11:17:15Z</time>
      </trkpt>
      <trkpt lat="43.45134" lon="1.99878">
        <ele>247.4</ele>
        <time>2023-05-27T11:17:16Z</time>
      </trkpt>
      <trkpt lat="43.45136" lon="1.99883">
        <ele>247.4</ele>
        <time>2023-05-27T11:17:17Z</time>
      </trkpt>
      <trkpt lat="43.45137" lon="1.99887">
        <ele>247.4</ele>
        <time>2023-05-27T11:17:18Z</time>
      </trkpt>
      <trkpt lat="43.45137" lon="1.99895">
        <ele>247.4</ele>
        <time>2023-05-27T11:17:19Z</time>
      </trkpt>
      <trkpt lat="43.45137" lon="1.99901">
        <ele>247.6</ele>
        <time>2023-05-27T11:17:20Z</time>
      </trkpt>
      <trkpt lat="43.45137" lon="1.99905">
        <ele>247.6</ele>
        <time>2023-05-27T11:17:21Z</time>
      </trkpt>
      <trkpt lat="43.45137" lon="1.99912">
        <ele>247.6</ele>
        <time>2023-05-27T11:17:22Z</time>
      </trkpt>
      <trkpt lat="43.45135" lon="1.99917">
        <ele>247.6</ele>
        <time>2023-05-27T11:17:23Z</time>
      </trkpt>
      <trkpt lat="43.45134" lon="1.99921">
        <ele>247.4</ele>
        <time>2023-05-27T11:17:24Z</time>
      </trkpt>
      <trkpt lat="43.45134" lon="1.99925">
        <ele>247.4</ele>
        <time>2023-05-27T11:17:25Z</time>
      </trkpt>
      <trkpt lat="43.45133" lon="1.99928">
        <ele>247.4</ele>
        <time>2023-05-27T11:17:26Z</time>
      </trkpt>
      <trkpt lat="43.45132" lon="1.9993">
        <ele>247.4</ele>
        <time>2023-05-27T11:17:27Z</time>
      </trkpt>
      <trkpt lat="43.45131" lon="1.99932">
        <ele>247.4</ele>
        <time>2023-05-27T11:17:28Z</time>
      </trkpt>
      <trkpt lat="43.4513" lon="1.99934">
        <ele>247.4</ele>
        <time>2023-05-27T11:17:29Z</time>
      </trkpt>
      <trkpt lat="43.4513" lon="1.99936">
        <ele>247.4</ele>
        <time>2023-05-27T11:17:30Z</time>
      </trkpt>
      <trkpt lat="43.45129" lon="1.99938">
        <ele>247.4</ele>
        <time>2023-05-27T11:17:31Z</time>
      </trkpt>
      <trkpt lat="43.45129" lon="1.9994">
        <ele>247.4</ele>
        <time>2023-05-27T11:17:32Z</time>
      </trkpt>
      <trkpt lat="43.45129" lon="1.99941">
        <ele>247.4</ele>
        <time>2023-05-27T11:17:33Z</time>
      </trkpt>
      <trkpt lat="43.45129" lon="1.99943">
        <ele>247.4</ele>
        <time>2023-05-27T11:17:34Z</time>
      </trkpt>
      <trkpt lat="43.45128" lon="1.99945">
        <ele>247.4</ele>
        <time>2023-05-27T11:17:35Z</time>
      </trkpt>
      <trkpt lat="43.45127" lon="1.99947">
        <ele>247.4</ele>
        <time>2023-05-27T11:17:36Z</time>
      </trkpt>
      <trkpt lat="43.45126" lon="1.99948">
        <ele>247.4</ele>
        <time>2023-05-27T11:17:37Z</time>
      </trkpt>
      <trkpt lat="43.45126" lon="1.99948">
        <ele>247.4</ele>
        <time>2023-05-27T11:17:38Z</time>
      </trkpt>
      <trkpt lat="43.45126" lon="1.99948">
        <ele>247.4</ele>
        <time>2023-05-27T11:17:39Z</time>
      </trkpt>
      <trkpt lat="43.45126" lon="1.99948">
        <ele>247.4</ele>
        <time>2023-05-27T11:17:40Z</time>
      </trkpt>
      <trkpt lat="43.45126" lon="1.99948">
        <ele>247.4</ele>
        <time>2023-05-27T11:17:41Z</time>
      </trkpt>
      <trkpt lat="43.45126" lon="1.99948">
        <ele>247.4</ele>
        <time>2023-05-27T11:17:42Z</time>
      </trkpt>
      <trkpt lat="43.45126" lon="1.99948">
        <ele>247.4</ele>
        <time>2023-05-27T11:17:43Z</time>
      </trkpt>
      <trkpt lat="43.45126" lon="1.99953">
        <ele>247.6</ele>
        <time>2023-05-27T11:18:51Z</time>
      </trkpt>
      <trkpt lat="43.45126" lon="1.99954">
        <ele>247.6</ele>
        <time>2023-05-27T11:18:52Z</time>
      </trkpt>
      <trkpt lat="43.45127" lon="1.99956">
        <ele>247.6</ele>
        <time>2023-05-27T11:18:53Z</time>
      </trkpt>
      <trkpt lat="43.45127" lon="1.99958">
        <ele>247.6</ele>
        <time>2023-05-27T11:18:54Z</time>
      </trkpt>
      <trkpt lat="43.45128" lon="1.99961">
        <ele>247.4</ele>
        <time>2023-05-27T11:18:55Z</time>
      </trkpt>
      <trkpt lat="43.45129" lon="1.99964">
        <ele>247.4</ele>
        <time>2023-05-27T11:18:56Z</time>
      </trkpt>
      <trkpt lat="43.45131" lon="1.99968">
        <ele>247.4</ele>
        <time>2023-05-27T11:18:57Z</time>
      </trkpt>
      <trkpt lat="43.45133" lon="1.99973">
        <ele>247.4</ele>
        <time>2023-05-27T11:18:58Z</time>
      </trkpt>
      <trkpt lat="43.45134" lon="1.99978">
        <ele>247.4</ele>
        <time>2023-05-27T11:18:59Z</time>
      </trkpt>
      <trkpt lat="43.45136" lon="1.99983">
        <ele>247.4</ele>
        <time>2023-05-27T11:19:00Z</time>
      </trkpt>
      <trkpt lat="43.45138" lon="1.99989">
        <ele>247.4</ele>
        <time>2023-05-27T11:19:01Z</time>
      </trkpt>
      <trkpt lat="43.4514" lon="1.99994">
        <ele>247.4</ele>
        <time>2023-05-27T11:19:02Z</time>
      </trkpt>
      <trkpt lat="43.45141" lon="2">
        <ele>247.4</ele>
        <time>2023-05-27T11:19:03Z</time>
      </trkpt>
      <trkpt lat="43.45141" lon="2.00005">
        <ele>247.2</ele>
        <time>2023-05-27T11:19:04Z</time>
      </trkpt>
      <trkpt lat="43.45142" lon="2.00011">
        <ele>247.2</ele>
        <time>2023-05-27T11:19:05Z</time>
      </trkpt>
      <trkpt lat="43.45144" lon="2.00017">
        <ele>247.2</ele>
        <time>2023-05-27T11:19:06Z</time>
      </trkpt>
      <trkpt lat="43.45144" lon="2.00022">
        <ele>247.2</ele>
        <time>2023-05-27T11:19:07Z</time>
      </trkpt>
      <trkpt lat="43.45145" lon="2.00028">
        <ele>247.2</ele>
        <time>2023-05-27T11:19:08Z</time>
      </trkpt>
      <trkpt lat="43.45145" lon="2.00034">
        <ele>247.2</ele>
        <time>2023-05-27T11:19:09Z</time>
      </trkpt>
      <trkpt lat="43.45146" lon="2.0004">
        <ele>247.2</ele>
        <time>2023-05-27T11:19:10Z</time>
      </trkpt>
      <trkpt lat="43.45147" lon="2.00046">
        <ele>247.2</ele>
        <time>2023-05-27T11:19:11Z</time>
      </trkpt>
      <trkpt lat="43.45146" lon="2.00051">
        <ele>247.2</ele>
        <time>2023-05-27T11:19:12Z</time>
      </trkpt>
      <trkpt lat="43.45146" lon="2.00056">
        <ele>247.2</ele>
        <time>2023-05-27T11:19:13Z</time>
      </trkpt>
      <trkpt lat="43.45146" lon="2.0006">
        <ele>247.2</ele>
        <time>2023-05-27T11:19:14Z</time>
      </trkpt>
      <trkpt lat="43.45146" lon="2.00066">
        <ele>247.2</ele>
        <time>2023-05-27T11:19:15Z</time>
      </trkpt>
      <trkpt lat="43.45146" lon="2.00071">
        <ele>247.2</ele>
        <time>2023-05-27T11:19:16Z</time>
      </trkpt>
      <trkpt lat="43.45146" lon="2.00076">
        <ele>247.2</ele>
        <time>2023-05-27T11:19:17Z</time>
      </trkpt>
      <trkpt lat="43.45145" lon="2.00081">
        <ele>247.2</ele>
        <time>2023-05-27T11:19:18Z</time>
      </trkpt>
      <trkpt lat="43.45145" lon="2.00088">
        <ele>247.2</ele>
        <time>2023-05-27T11:19:19Z</time>
      </trkpt>
      <trkpt lat="43.45146" lon="2.00094">
        <ele>247.2</ele>
        <time>2023-05-27T11:19:20Z</time>
      </trkpt>
      <trkpt lat="43.45146" lon="2.00098">
        <ele>247.2</ele>
        <time>2023-05-27T11:19:21Z</time>
      </trkpt>
      <trkpt lat="43.45146" lon="2.00103">
        <ele>247.2</ele>
        <time>2023-05-27T11:19:22Z</time>
      </trkpt>
      <trkpt lat="43.45147" lon="2.00108">
        <ele>247.4</ele>
        <time>2023-05-27T11:19:23Z</time>
      </trkpt>
      <trkpt lat="43.45147" lon="2.00113">
        <ele>247.4</ele>
        <time>2023-05-27T11:19:24Z</time>
      </trkpt>
      <trkpt lat="43.45146" lon="2.00116">
        <ele>247.4</ele>
        <time>2023-05-27T11:19:25Z</time>
      </trkpt>
      <trkpt lat="43.45145" lon="2.0012">
        <ele>247.4</ele>
        <time>2023-05-27T11:19:26Z</time>
      </trkpt>
      <trkpt lat="43.45143" lon="2.00125">
        <ele>247.4</ele>
        <time>2023-05-27T11:19:27Z</time>
      </trkpt>
      <trkpt lat="43.45142" lon="2.0013">
        <ele>247.4</ele>
        <time>2023-05-27T11:19:28Z</time>
      </trkpt>
      <trkpt lat="43.45141" lon="2.00134">
        <ele>247.6</ele>
        <time>2023-05-27T11:19:29Z</time>
      </trkpt>
      <trkpt lat="43.45141" lon="2.00138">
        <ele>247.6</ele>
        <time>2023-05-27T11:19:30Z</time>
      </trkpt>
      <trkpt lat="43.4514" lon="2.00142">
        <ele>247.6</ele>
        <time>2023-05-27T11:19:31Z</time>
      </trkpt>
      <trkpt lat="43.45139" lon="2.00147">
        <ele>247.6</ele>
        <time>2023-05-27T11:19:32Z</time>
      </trkpt>
      <trkpt lat="43.45139" lon="2.00153">
        <ele>247.6</ele>
        <time>2023-05-27T11:19:33Z</time>
      </trkpt>
      <trkpt lat="43.45139" lon="2.00157">
        <ele>247.6</ele>
        <time>2023-05-27T11:19:34Z</time>
      </trkpt>
      <trkpt lat="43.4514" lon="2.00162">
        <ele>247.6</ele>
        <time>2023-05-27T11:19:35Z</time>
      </trkpt>
      <trkpt lat="43.4514" lon="2.00167">
        <ele>247.6</ele>
        <time>2023-05-27T11:19:36Z</time>
      </trkpt>
      <trkpt lat="43.45141" lon="2.00173">
        <ele>247.6</ele>
        <time>2023-05-27T11:19:37Z</time>
      </trkpt>
      <trkpt lat="43.45141" lon="2.00179">
        <ele>247.6</ele>
        <time>2023-05-27T11:19:38Z</time>
      </trkpt>
      <trkpt lat="43.45141" lon="2.00183">
        <ele>247.6</ele>
        <time>2023-05-27T11:19:39Z</time>
      </trkpt>
      <trkpt lat="43.4514" lon="2.00188">
        <ele>247.6</ele>
        <time>2023-05-27T11:19:40Z</time>
      </trkpt>
      <trkpt lat="43.45141" lon="2.00194">
        <ele>247.6</ele>
        <time>2023-05-27T11:19:41Z</time>
      </trkpt>
      <trkpt lat="43.45141" lon="2.002">
        <ele>247.6</ele>
        <time>2023-05-27T11:19:42Z</time>
      </trkpt>
      <trkpt lat="43.45141" lon="2.00206">
        <ele>247.6</ele>
        <time>2023-05-27T11:19:43Z</time>
      </trkpt>
      <trkpt lat="43.45141" lon="2.0021">
        <ele>247.6</ele>
        <time>2023-05-27T11:19:44Z</time>
      </trkpt>
      <trkpt lat="43.45142" lon="2.00216">
        <ele>247.6</ele>
        <time>2023-05-27T11:19:45Z</time>
      </trkpt>
      <trkpt lat="43.45141" lon="2.00222">
        <ele>247.6</ele>
        <time>2023-05-27T11:19:46Z</time>
      </trkpt>
      <trkpt lat="43.45141" lon="2.00227">
        <ele>247.8</ele>
        <time>2023-05-27T11:19:47Z</time>
      </trkpt>
      <trkpt lat="43.45143" lon="2.00234">
        <ele>247.8</ele>
        <time>2023-05-27T11:19:48Z</time>
      </trkpt>
      <trkpt lat="43.45145" lon="2.00238">
        <ele>247.8</ele>
        <time>2023-05-27T11:19:49Z</time>
      </trkpt>
      <trkpt lat="43.45147" lon="2.00244">
        <ele>247.8</ele>
        <time>2023-05-27T11:19:50Z</time>
      </trkpt>
      <trkpt lat="43.45149" lon="2.0025">
        <ele>247.8</ele>
        <time>2023-05-27T11:19:51Z</time>
      </trkpt>
      <trkpt lat="43.45151" lon="2.00257">
        <ele>247.8</ele>
        <time>2023-05-27T11:19:52Z</time>
      </trkpt>
      <trkpt lat="43.45151" lon="2.00263">
        <ele>247.8</ele>
        <time>2023-05-27T11:19:53Z</time>
      </trkpt>
      <trkpt lat="43.45151" lon="2.00272">
        <ele>247.8</ele>
        <time>2023-05-27T11:19:54Z</time>
      </trkpt>
      <trkpt lat="43.45151" lon="2.00278">
        <ele>247.8</ele>
        <time>2023-05-27T11:19:55Z</time>
      </trkpt>
      <trkpt lat="43.45151" lon="2.00283">
        <ele>247.8</ele>
        <time>2023-05-27T11:19:56Z</time>
      </trkpt>
      <trkpt lat="43.4515" lon="2.00289">
        <ele>247.8</ele>
        <time>2023-05-27T11:19:57Z</time>
      </trkpt>
      <trkpt lat="43.45148" lon="2.00293">
        <ele>247.8</ele>
        <time>2023-05-27T11:19:58Z</time>
      </trkpt>
      <trkpt lat="43.45147" lon="2.00298">
        <ele>247.8</ele>
        <time>2023-05-27T11:19:59Z</time>
      </trkpt>
      <trkpt lat="43.45147" lon="2.00303">
        <ele>247.8</ele>
        <time>2023-05-27T11:20:00Z</time>
      </trkpt>
      <trkpt lat="43.45147" lon="2.00306">
        <ele>248</ele>
        <time>2023-05-27T11:20:01Z</time>
      </trkpt>
      <trkpt lat="43.45147" lon="2.0031">
        <ele>248</ele>
        <time>2023-05-27T11:20:02Z</time>
      </trkpt>
      <trkpt lat="43.45149" lon="2.00314">
        <ele>248</ele>
        <time>2023-05-27T11:20:03Z</time>
      </trkpt>
      <trkpt lat="43.45152" lon="2.00319">
        <ele>248</ele>
        <time>2023-05-27T11:20:04Z</time>
      </trkpt>
      <trkpt lat="43.45154" lon="2.00324">
        <ele>248</ele>
        <time>2023-05-27T11:20:05Z</time>
      </trkpt>
      <trkpt lat="43.45156" lon="2.00327">
        <ele>248</ele>
        <time>2023-05-27T11:20:06Z</time>
      </trkpt>
      <trkpt lat="43.45159" lon="2.00332">
        <ele>248</ele>
        <time>2023-05-27T11:20:07Z</time>
      </trkpt>
      <trkpt lat="43.45162" lon="2.00336">
        <ele>248</ele>
        <time>2023-05-27T11:20:08Z</time>
      </trkpt>
      <trkpt lat="43.45164" lon="2.00339">
        <ele>248</ele>
        <time>2023-05-27T11:20:09Z</time>
      </trkpt>
      <trkpt lat="43.45167" lon="2.00342">
        <ele>248</ele>
        <time>2023-05-27T11:20:10Z</time>
      </trkpt>
      <trkpt lat="43.45171" lon="2.00346">
        <ele>248</ele>
        <time>2023-05-27T11:20:11Z</time>
      </trkpt>
      <trkpt lat="43.45173" lon="2.00348">
        <ele>248</ele>
        <time>2023-05-27T11:20:12Z</time>
      </trkpt>
      <trkpt lat="43.45176" lon="2.00352">
        <ele>247.8</ele>
        <time>2023-05-27T11:20:13Z</time>
      </trkpt>
      <trkpt lat="43.45178" lon="2.00355">
        <ele>247.8</ele>
        <time>2023-05-27T11:20:14Z</time>
      </trkpt>
      <trkpt lat="43.45179" lon="2.0036">
        <ele>247.8</ele>
        <time>2023-05-27T11:20:15Z</time>
      </trkpt>
      <trkpt lat="43.4518" lon="2.00366">
        <ele>247.8</ele>
        <time>2023-05-27T11:20:16Z</time>
      </trkpt>
      <trkpt lat="43.45181" lon="2.0037">
        <ele>247.8</ele>
        <time>2023-05-27T11:20:17Z</time>
      </trkpt>
      <trkpt lat="43.45181" lon="2.00375">
        <ele>247.8</ele>
        <time>2023-05-27T11:20:18Z</time>
      </trkpt>
      <trkpt lat="43.45182" lon="2.0038">
        <ele>247.8</ele>
        <time>2023-05-27T11:20:19Z</time>
      </trkpt>
      <trkpt lat="43.45182" lon="2.00386">
        <ele>247.8</ele>
        <time>2023-05-27T11:20:20Z</time>
      </trkpt>
      <trkpt lat="43.45182" lon="2.00392">
        <ele>247.8</ele>
        <time>2023-05-27T11:20:21Z</time>
      </trkpt>
      <trkpt lat="43.45181" lon="2.00398">
        <ele>247.8</ele>
        <time>2023-05-27T11:20:22Z</time>
      </trkpt>
      <trkpt lat="43.4518" lon="2.00403">
        <ele>247.8</ele>
        <time>2023-05-27T11:20:23Z</time>
      </trkpt>
      <trkpt lat="43.45179" lon="2.00408">
        <ele>247.8</ele>
        <time>2023-05-27T11:20:24Z</time>
      </trkpt>
      <trkpt lat="43.45179" lon="2.00415">
        <ele>247.8</ele>
        <time>2023-05-27T11:20:25Z</time>
      </trkpt>
      <trkpt lat="43.45179" lon="2.00421">
        <ele>247.8</ele>
        <time>2023-05-27T11:20:26Z</time>
      </trkpt>
      <trkpt lat="43.45178" lon="2.00427">
        <ele>247.8</ele>
        <time>2023-05-27T11:20:27Z</time>
      </trkpt>
      <trkpt lat="43.45177" lon="2.0043">
        <ele>247.8</ele>
        <time>2023-05-27T11:20:28Z</time>
      </trkpt>
      <trkpt lat="43.45177" lon="2.00435">
        <ele>247.8</ele>
        <time>2023-05-27T11:20:29Z</time>
      </trkpt>
      <trkpt lat="43.45175" lon="2.00441">
        <ele>247.8</ele>
        <time>2023-05-27T11:20:30Z</time>
      </trkpt>
      <trkpt lat="43.45174" lon="2.00446">
        <ele>247.8</ele>
        <time>2023-05-27T11:20:31Z</time>
      </trkpt>
      <trkpt lat="43.45173" lon="2.00451">
        <ele>247.8</ele>
        <time>2023-05-27T11:20:32Z</time>
      </trkpt>
      <trkpt lat="43.45173" lon="2.00456">
        <ele>247.8</ele>
        <time>2023-05-27T11:20:33Z</time>
      </trkpt>
      <trkpt lat="43.45173" lon="2.00461">
        <ele>247.8</ele>
        <time>2023-05-27T11:20:34Z</time>
      </trkpt>
      <trkpt lat="43.45174" lon="2.00466">
        <ele>247.8</ele>
        <time>2023-05-27T11:20:35Z</time>
      </trkpt>
      <trkpt lat="43.45174" lon="2.00471">
        <ele>247.8</ele>
        <time>2023-05-27T11:20:36Z</time>
      </trkpt>
      <trkpt lat="43.45175" lon="2.00475">
        <ele>247.8</ele>
        <time>2023-05-27T11:20:37Z</time>
      </trkpt>
      <trkpt lat="43.45176" lon="2.0048">
        <ele>247.8</ele>
        <time>2023-05-27T11:20:38Z</time>
      </trkpt>
      <trkpt lat="43.45176" lon="2.00483">
        <ele>247.8</ele>
        <time>2023-05-27T11:20:39Z</time>
      </trkpt>
      <trkpt lat="43.45177" lon="2.00485">
        <ele>247.8</ele>
        <time>2023-05-27T11:20:40Z</time>
      </trkpt>
      <trkpt lat="43.45178" lon="2.00487">
        <ele>247.8</ele>
        <time>2023-05-27T11:20:41Z</time>
      </trkpt>
      <trkpt lat="43.45179" lon="2.00489">
        <ele>247.8</ele>
        <time>2023-05-27T11:20:42Z</time>
      </trkpt>
      <trkpt lat="43.4518" lon="2.00489">
        <ele>247.8</ele>
        <time>2023-05-27T11:20:43Z</time>
      </trkpt>
      <trkpt lat="43.45184" lon="2.0049">
        <ele>247.8</ele>
        <time>2023-05-27T11:20:44Z</time>
      </trkpt>
      <trkpt lat="43.45187" lon="2.0049">
        <ele>247.8</ele>
        <time>2023-05-27T11:20:45Z</time>
      </trkpt>
      <trkpt lat="43.45189" lon="2.00489">
        <ele>247.8</ele>
        <time>2023-05-27T11:20:46Z</time>
      </trkpt>
      <trkpt lat="43.45193" lon="2.00488">
        <ele>247.6</ele>
        <time>2023-05-27T11:20:47Z</time>
      </trkpt>
      <trkpt lat="43.45198" lon="2.00486">
        <ele>247.4</ele>
        <time>2023-05-27T11:20:48Z</time>
      </trkpt>
      <trkpt lat="43.45203" lon="2.00485">
        <ele>247.4</ele>
        <time>2023-05-27T11:20:49Z</time>
      </trkpt>
      <trkpt lat="43.45208" lon="2.00483">
        <ele>247.2</ele>
        <time>2023-05-27T11:20:50Z</time>
      </trkpt>
      <trkpt lat="43.45215" lon="2.0048">
        <ele>247</ele>
        <time>2023-05-27T11:20:51Z</time>
      </trkpt>
      <trkpt lat="43.4522" lon="2.00478">
        <ele>246.8</ele>
        <time>2023-05-27T11:20:52Z</time>
      </trkpt>
      <trkpt lat="43.45227" lon="2.00474">
        <ele>246.8</ele>
        <time>2023-05-27T11:20:53Z</time>
      </trkpt>
      <trkpt lat="43.45232" lon="2.00471">
        <ele>246.6</ele>
        <time>2023-05-27T11:20:54Z</time>
      </trkpt>
      <trkpt lat="43.45238" lon="2.00469">
        <ele>246.4</ele>
        <time>2023-05-27T11:20:55Z</time>
      </trkpt>
      <trkpt lat="43.45245" lon="2.00465">
        <ele>245.8</ele>
        <time>2023-05-27T11:20:56Z</time>
      </trkpt>
      <trkpt lat="43.45252" lon="2.00461">
        <ele>245.4</ele>
        <time>2023-05-27T11:20:57Z</time>
      </trkpt>
      <trkpt lat="43.45259" lon="2.00458">
        <ele>245.2</ele>
        <time>2023-05-27T11:20:58Z</time>
      </trkpt>
      <trkpt lat="43.45265" lon="2.00454">
        <ele>245</ele>
        <time>2023-05-27T11:20:59Z</time>
      </trkpt>
      <trkpt lat="43.45271" lon="2.00451">
        <ele>244.8</ele>
        <time>2023-05-27T11:21:00Z</time>
      </trkpt>
      <trkpt lat="43.45277" lon="2.00448">
        <ele>244.8</ele>
        <time>2023-05-27T11:21:01Z</time>
      </trkpt>
      <trkpt lat="43.45285" lon="2.00445">
        <ele>244.6</ele>
        <time>2023-05-27T11:21:02Z</time>
      </trkpt>
      <trkpt lat="43.45292" lon="2.00441">
        <ele>244.4</ele>
        <time>2023-05-27T11:21:03Z</time>
      </trkpt>
      <trkpt lat="43.45299" lon="2.00438">
        <ele>244.2</ele>
        <time>2023-05-27T11:21:04Z</time>
      </trkpt>
      <trkpt lat="43.45306" lon="2.00433">
        <ele>244</ele>
        <time>2023-05-27T11:21:05Z</time>
      </trkpt>
      <trkpt lat="43.45313" lon="2.0043">
        <ele>243.6</ele>
        <time>2023-05-27T11:21:06Z</time>
      </trkpt>
      <trkpt lat="43.4532" lon="2.00426">
        <ele>243</ele>
        <time>2023-05-27T11:21:07Z</time>
      </trkpt>
      <trkpt lat="43.45326" lon="2.00423">
        <ele>242.8</ele>
        <time>2023-05-27T11:21:08Z</time>
      </trkpt>
      <trkpt lat="43.45333" lon="2.00419">
        <ele>242.6</ele>
        <time>2023-05-27T11:21:09Z</time>
      </trkpt>
      <trkpt lat="43.4534" lon="2.00415">
        <ele>242.2</ele>
        <time>2023-05-27T11:21:10Z</time>
      </trkpt>
      <trkpt lat="43.45348" lon="2.0041">
        <ele>242</ele>
        <time>2023-05-27T11:21:11Z</time>
      </trkpt>
      <trkpt lat="43.45355" lon="2.00406">
        <ele>241.8</ele>
        <time>2023-05-27T11:21:12Z</time>
      </trkpt>
      <trkpt lat="43.45361" lon="2.00403">
        <ele>241.8</ele>
        <time>2023-05-27T11:21:13Z</time>
      </trkpt>
      <trkpt lat="43.4537" lon="2.00398">
        <ele>241.6</ele>
        <time>2023-05-27T11:21:14Z</time>
      </trkpt>
      <trkpt lat="43.45377" lon="2.00394">
        <ele>241.4</ele>
        <time>2023-05-27T11:21:15Z</time>
      </trkpt>
      <trkpt lat="43.45383" lon="2.00391">
        <ele>241.2</ele>
        <time>2023-05-27T11:21:16Z</time>
      </trkpt>
      <trkpt lat="43.45392" lon="2.00386">
        <ele>241</ele>
        <time>2023-05-27T11:21:17Z</time>
      </trkpt>
      <trkpt lat="43.45399" lon="2.00382">
        <ele>240.8</ele>
        <time>2023-05-27T11:21:18Z</time>
      </trkpt>
      <trkpt lat="43.45405" lon="2.00379">
        <ele>240.4</ele>
        <time>2023-05-27T11:21:19Z</time>
      </trkpt>
      <trkpt lat="43.45414" lon="2.00375">
        <ele>240.2</ele>
        <time>2023-05-27T11:21:20Z</time>
      </trkpt>
      <trkpt lat="43.4542" lon="2.00371">
        <ele>240</ele>
        <time>2023-05-27T11:21:21Z</time>
      </trkpt>
      <trkpt lat="43.45428" lon="2.00367">
        <ele>239.8</ele>
        <time>2023-05-27T11:21:22Z</time>
      </trkpt>
      <trkpt lat="43.45435" lon="2.00363">
        <ele>239.8</ele>
        <time>2023-05-27T11:21:23Z</time>
      </trkpt>
      <trkpt lat="43.45442" lon="2.00359">
        <ele>239.6</ele>
        <time>2023-05-27T11:21:24Z</time>
      </trkpt>
      <trkpt lat="43.4545" lon="2.00355">
        <ele>239.4</ele>
        <time>2023-05-27T11:21:25Z</time>
      </trkpt>
      <trkpt lat="43.45458" lon="2.00351">
        <ele>239.2</ele>
        <time>2023-05-27T11:21:26Z</time>
      </trkpt>
      <trkpt lat="43.45465" lon="2.00347">
        <ele>238.4</ele>
        <time>2023-05-27T11:21:27Z</time>
      </trkpt>
      <trkpt lat="43.45473" lon="2.00343">
        <ele>237.8</ele>
        <time>2023-05-27T11:21:28Z</time>
      </trkpt>
      <trkpt lat="43.4548" lon="2.00339">
        <ele>237.8</ele>
        <time>2023-05-27T11:21:29Z</time>
      </trkpt>
      <trkpt lat="43.45486" lon="2.00335">
        <ele>237.2</ele>
        <time>2023-05-27T11:21:30Z</time>
      </trkpt>
      <trkpt lat="43.45493" lon="2.00331">
        <ele>236.6</ele>
        <time>2023-05-27T11:21:31Z</time>
      </trkpt>
      <trkpt lat="43.45502" lon="2.00326">
        <ele>236.4</ele>
        <time>2023-05-27T11:21:32Z</time>
      </trkpt>
      <trkpt lat="43.45508" lon="2.00323">
        <ele>236.2</ele>
        <time>2023-05-27T11:21:33Z</time>
      </trkpt>
      <trkpt lat="43.45516" lon="2.00319">
        <ele>235.8</ele>
        <time>2023-05-27T11:21:34Z</time>
      </trkpt>
      <trkpt lat="43.45522" lon="2.00316">
        <ele>235.8</ele>
        <time>2023-05-27T11:21:35Z</time>
      </trkpt>
      <trkpt lat="43.45529" lon="2.00312">
        <ele>235.6</ele>
        <time>2023-05-27T11:21:36Z</time>
      </trkpt>
      <trkpt lat="43.45537" lon="2.00307">
        <ele>235.6</ele>
        <time>2023-05-27T11:21:37Z</time>
      </trkpt>
      <trkpt lat="43.45544" lon="2.00303">
        <ele>235.8</ele>
        <time>2023-05-27T11:21:38Z</time>
      </trkpt>
      <trkpt lat="43.45549" lon="2.003">
        <ele>235.8</ele>
        <time>2023-05-27T11:21:39Z</time>
      </trkpt>
      <trkpt lat="43.45556" lon="2.00295">
        <ele>235.2</ele>
        <time>2023-05-27T11:21:40Z</time>
      </trkpt>
      <trkpt lat="43.45562" lon="2.00292">
        <ele>234.8</ele>
        <time>2023-05-27T11:21:41Z</time>
      </trkpt>
      <trkpt lat="43.45569" lon="2.00289">
        <ele>234.8</ele>
        <time>2023-05-27T11:21:42Z</time>
      </trkpt>
      <trkpt lat="43.45574" lon="2.00287">
        <ele>234.8</ele>
        <time>2023-05-27T11:21:43Z</time>
      </trkpt>
      <trkpt lat="43.45581" lon="2.00283">
        <ele>234.8</ele>
        <time>2023-05-27T11:21:44Z</time>
      </trkpt>
      <trkpt lat="43.45587" lon="2.0028">
        <ele>234.8</ele>
        <time>2023-05-27T11:21:45Z</time>
      </trkpt>
      <trkpt lat="43.45595" lon="2.00276">
        <ele>234.8</ele>
        <time>2023-05-27T11:21:46Z</time>
      </trkpt>
      <trkpt lat="43.45601" lon="2.00273">
        <ele>234.8</ele>
        <time>2023-05-27T11:21:47Z</time>
      </trkpt>
      <trkpt lat="43.45606" lon="2.0027">
        <ele>234.6</ele>
        <time>2023-05-27T11:21:48Z</time>
      </trkpt>
      <trkpt lat="43.45614" lon="2.00266">
        <ele>234.4</ele>
        <time>2023-05-27T11:21:49Z</time>
      </trkpt>
      <trkpt lat="43.4562" lon="2.00263">
        <ele>234.2</ele>
        <time>2023-05-27T11:21:50Z</time>
      </trkpt>
      <trkpt lat="43.45625" lon="2.0026">
        <ele>234</ele>
        <time>2023-05-27T11:21:51Z</time>
      </trkpt>
      <trkpt lat="43.4563" lon="2.00258">
        <ele>233.8</ele>
        <time>2023-05-27T11:21:52Z</time>
      </trkpt>
      <trkpt lat="43.45634" lon="2.00258">
        <ele>233.6</ele>
        <time>2023-05-27T11:21:53Z</time>
      </trkpt>
      <trkpt lat="43.45637" lon="2.0026">
        <ele>233.4</ele>
        <time>2023-05-27T11:21:54Z</time>
      </trkpt>
      <trkpt lat="43.45642" lon="2.00262">
        <ele>233.4</ele>
        <time>2023-05-27T11:21:55Z</time>
      </trkpt>
      <trkpt lat="43.45646" lon="2.00262">
        <ele>233.2</ele>
        <time>2023-05-27T11:21:56Z</time>
      </trkpt>
      <trkpt lat="43.45649" lon="2.0026">
        <ele>233.2</ele>
        <time>2023-05-27T11:21:57Z</time>
      </trkpt>
      <trkpt lat="43.45652" lon="2.00258">
        <ele>233</ele>
        <time>2023-05-27T11:21:58Z</time>
      </trkpt>
      <trkpt lat="43.45654" lon="2.00257">
        <ele>233</ele>
        <time>2023-05-27T11:21:59Z</time>
      </trkpt>
      <trkpt lat="43.45656" lon="2.00257">
        <ele>232.8</ele>
        <time>2023-05-27T11:22:00Z</time>
      </trkpt>
      <trkpt lat="43.45657" lon="2.00256">
        <ele>232.8</ele>
        <time>2023-05-27T11:22:01Z</time>
      </trkpt>
      <trkpt lat="43.45658" lon="2.00256">
        <ele>232.8</ele>
        <time>2023-05-27T11:22:02Z</time>
      </trkpt>
      <trkpt lat="43.45655" lon="2.00265">
        <ele>232.6</ele>
        <time>2023-05-27T11:26:41Z</time>
      </trkpt>
      <trkpt lat="43.45655" lon="2.00266">
        <ele>232.6</ele>
        <time>2023-05-27T11:26:42Z</time>
      </trkpt>
      <trkpt lat="43.45655" lon="2.00266">
        <ele>232.6</ele>
        <time>2023-05-27T11:26:43Z</time>
      </trkpt>
      <trkpt lat="43.45655" lon="2.00266">
        <ele>232.6</ele>
        <time>2023-05-27T11:26:44Z</time>
      </trkpt>
      <trkpt lat="43.45655" lon="2.00266">
        <ele>232.6</ele>
        <time>2023-05-27T11:26:45Z</time>
      </trkpt>
      <trkpt lat="43.45655" lon="2.00267">
        <ele>232.6</ele>
        <time>2023-05-27T11:26:46Z</time>
      </trkpt>
      <trkpt lat="43.45655" lon="2.00267">
        <ele>232.6</ele>
        <time>2023-05-27T11:26:47Z</time>
      </trkpt>
      <trkpt lat="43.45655" lon="2.0027">
        <ele>232.6</ele>
        <time>2023-05-27T11:27:05Z</time>
      </trkpt>
      <trkpt lat="43.45656" lon="2.0027">
        <ele>232.6</ele>
        <time>2023-05-27T11:27:06Z</time>
      </trkpt>
      <trkpt lat="43.45656" lon="2.0027">
        <ele>232.6</ele>
        <time>2023-05-27T11:27:07Z</time>
      </trkpt>
      <trkpt lat="43.45656" lon="2.0027">
        <ele>232.6</ele>
        <time>2023-05-27T11:27:08Z</time>
      </trkpt>
      <trkpt lat="43.45657" lon="2.00271">
        <ele>232.6</ele>
        <time>2023-05-27T11:27:09Z</time>
      </trkpt>
      <trkpt lat="43.45657" lon="2.00271">
        <ele>232.6</ele>
        <time>2023-05-27T11:27:10Z</time>
      </trkpt>
      <trkpt lat="43.45657" lon="2.00271">
        <ele>232.6</ele>
        <time>2023-05-27T11:27:11Z</time>
      </trkpt>
      <trkpt lat="43.45658" lon="2.0027">
        <ele>232.6</ele>
        <time>2023-05-27T11:27:12Z</time>
      </trkpt>
      <trkpt lat="43.45658" lon="2.0027">
        <ele>232.6</ele>
        <time>2023-05-27T11:27:13Z</time>
      </trkpt>
      <trkpt lat="43.45658" lon="2.0027">
        <ele>232.6</ele>
        <time>2023-05-27T11:27:14Z</time>
      </trkpt>
      <trkpt lat="43.45658" lon="2.0027">
        <ele>232.6</ele>
        <time>2023-05-27T11:27:15Z</time>
      </trkpt>
      <trkpt lat="43.45658" lon="2.00271">
        <ele>232.6</ele>
        <time>2023-05-27T11:27:16Z</time>
      </trkpt>
      <trkpt lat="43.45658" lon="2.00271">
        <ele>232.6</ele>
        <time>2023-05-27T11:27:17Z</time>
      </trkpt>
      <trkpt lat="43.45658" lon="2.00271">
        <ele>232.6</ele>
        <time>2023-05-27T11:27:18Z</time>
      </trkpt>
      <trkpt lat="43.45658" lon="2.00271">
        <ele>232.6</ele>
        <time>2023-05-27T11:27:19Z</time>
      </trkpt>
      <trkpt lat="43.45658" lon="2.00271">
        <ele>232.6</ele>
        <time>2023-05-27T11:27:20Z</time>
      </trkpt>
      <trkpt lat="43.45658" lon="2.00271">
        <ele>232.6</ele>
        <time>2023-05-27T11:27:21Z</time>
      </trkpt>
      <trkpt lat="43.45658" lon="2.00271">
        <ele>232.6</ele>
        <time>2023-05-27T11:27:22Z</time>
      </trkpt>
      <trkpt lat="43.45658" lon="2.00271">
        <ele>232.6</ele>
        <time>2023-05-27T11:27:23Z</time>
      </trkpt>
      <trkpt lat="43.45658" lon="2.0027">
        <ele>232.6</ele>
        <time>2023-05-27T11:27:24Z</time>
      </trkpt>
      <trkpt lat="43.45663" lon="2.0027">
        <ele>232.6</ele>
        <time>2023-05-27T11:27:36Z</time>
      </trkpt>
      <trkpt lat="43.45663" lon="2.0027">
        <ele>232.6</ele>
        <time>2023-05-27T11:27:37Z</time>
      </trkpt>
      <trkpt lat="43.45663" lon="2.0027">
        <ele>232.6</ele>
        <time>2023-05-27T11:27:38Z</time>
      </trkpt>
      <trkpt lat="43.45663" lon="2.0027">
        <ele>232.6</ele>
        <time>2023-05-27T11:27:39Z</time>
      </trkpt>
      <trkpt lat="43.45663" lon="2.00269">
        <ele>232.6</ele>
        <time>2023-05-27T11:27:40Z</time>
      </trkpt>
      <trkpt lat="43.45664" lon="2.00269">
        <ele>232.8</ele>
        <time>2023-05-27T11:27:41Z</time>
      </trkpt>
      <trkpt lat="43.45664" lon="2.00269">
        <ele>232.8</ele>
        <time>2023-05-27T11:27:42Z</time>
      </trkpt>
      <trkpt lat="43.45664" lon="2.00269">
        <ele>232.8</ele>
        <time>2023-05-27T11:27:43Z</time>
      </trkpt>
      <trkpt lat="43.45664" lon="2.00269">
        <ele>232.8</ele>
        <time>2023-05-27T11:27:44Z</time>
      </trkpt>
      <trkpt lat="43.45664" lon="2.00269">
        <ele>232.8</ele>
        <time>2023-05-27T11:27:45Z</time>
      </trkpt>
      <trkpt lat="43.45664" lon="2.00269">
        <ele>232.8</ele>
        <time>2023-05-27T11:27:46Z</time>
      </trkpt>
      <trkpt lat="43.45663" lon="2.00271">
        <ele>232.8</ele>
        <time>2023-05-27T11:28:18Z</time>
      </trkpt>
      <trkpt lat="43.45663" lon="2.00272">
        <ele>232.8</ele>
        <time>2023-05-27T11:28:19Z</time>
      </trkpt>
      <trkpt lat="43.45664" lon="2.00272">
        <ele>232.8</ele>
        <time>2023-05-27T11:28:20Z</time>
      </trkpt>
      <trkpt lat="43.45664" lon="2.00272">
        <ele>232.8</ele>
        <time>2023-05-27T11:28:21Z</time>
      </trkpt>
      <trkpt lat="43.45664" lon="2.00273">
        <ele>232.8</ele>
        <time>2023-05-27T11:28:22Z</time>
      </trkpt>
      <trkpt lat="43.45665" lon="2.00272">
        <ele>232.8</ele>
        <time>2023-05-27T11:28:23Z</time>
      </trkpt>
      <trkpt lat="43.45665" lon="2.00273">
        <ele>232.8</ele>
        <time>2023-05-27T11:28:24Z</time>
      </trkpt>
      <trkpt lat="43.45665" lon="2.00273">
        <ele>232.8</ele>
        <time>2023-05-27T11:28:25Z</time>
      </trkpt>
      <trkpt lat="43.45665" lon="2.00273">
        <ele>232.8</ele>
        <time>2023-05-27T11:28:26Z</time>
      </trkpt>
      <trkpt lat="43.45663" lon="2.00274">
        <ele>232.8</ele>
        <time>2023-05-27T11:28:27Z</time>
      </trkpt>
      <trkpt lat="43.45663" lon="2.00273">
        <ele>232.8</ele>
        <time>2023-05-27T11:28:28Z</time>
      </trkpt>
      <trkpt lat="43.45666" lon="2.00272">
        <ele>232.8</ele>
        <time>2023-05-27T11:28:29Z</time>
      </trkpt>
      <trkpt lat="43.45669" lon="2.00274">
        <ele>232.8</ele>
        <time>2023-05-27T11:28:30Z</time>
      </trkpt>
      <trkpt lat="43.45671" lon="2.00274">
        <ele>232.8</ele>
        <time>2023-05-27T11:28:31Z</time>
      </trkpt>
      <trkpt lat="43.45672" lon="2.00275">
        <ele>232.6</ele>
        <time>2023-05-27T11:28:32Z</time>
      </trkpt>
      <trkpt lat="43.45673" lon="2.00275">
        <ele>232.6</ele>
        <time>2023-05-27T11:28:33Z</time>
      </trkpt>
      <trkpt lat="43.45671" lon="2.00275">
        <ele>232.4</ele>
        <time>2023-05-27T11:28:34Z</time>
      </trkpt>
      <trkpt lat="43.45672" lon="2.00275">
        <ele>232.4</ele>
        <time>2023-05-27T11:28:35Z</time>
      </trkpt>
      <trkpt lat="43.45672" lon="2.00275">
        <ele>232.4</ele>
        <time>2023-05-27T11:28:36Z</time>
      </trkpt>
      <trkpt lat="43.45672" lon="2.00275">
        <ele>232.4</ele>
        <time>2023-05-27T11:28:37Z</time>
      </trkpt>
      <trkpt lat="43.45672" lon="2.00275">
        <ele>232.4</ele>
        <time>2023-05-27T11:28:38Z</time>
      </trkpt>
      <trkpt lat="43.45671" lon="2.00275">
        <ele>232.4</ele>
        <time>2023-05-27T11:28:39Z</time>
      </trkpt>
      <trkpt lat="43.4567" lon="2.00274">
        <ele>232.4</ele>
        <time>2023-05-27T11:28:40Z</time>
      </trkpt>
      <trkpt lat="43.4567" lon="2.00275">
        <ele>232.4</ele>
        <time>2023-05-27T11:28:41Z</time>
      </trkpt>
      <trkpt lat="43.45669" lon="2.00276">
        <ele>232.4</ele>
        <time>2023-05-27T11:28:42Z</time>
      </trkpt>
      <trkpt lat="43.4567" lon="2.00277">
        <ele>232.4</ele>
        <time>2023-05-27T11:28:43Z</time>
      </trkpt>
      <trkpt lat="43.45669" lon="2.00276">
        <ele>232.4</ele>
        <time>2023-05-27T11:28:44Z</time>
      </trkpt>
      <trkpt lat="43.45668" lon="2.00276">
        <ele>232.4</ele>
        <time>2023-05-27T11:28:45Z</time>
      </trkpt>
      <trkpt lat="43.45668" lon="2.00276">
        <ele>232.4</ele>
        <time>2023-05-27T11:28:46Z</time>
      </trkpt>
      <trkpt lat="43.45668" lon="2.00277">
        <ele>232.4</ele>
        <time>2023-05-27T11:28:47Z</time>
      </trkpt>
      <trkpt lat="43.45667" lon="2.00278">
        <ele>232.4</ele>
        <time>2023-05-27T11:28:48Z</time>
      </trkpt>
      <trkpt lat="43.45668" lon="2.00279">
        <ele>232.4</ele>
        <time>2023-05-27T11:28:49Z</time>
      </trkpt>
      <trkpt lat="43.45667" lon="2.00279">
        <ele>232.4</ele>
        <time>2023-05-27T11:28:50Z</time>
      </trkpt>
      <trkpt lat="43.45671" lon="2.00277">
        <ele>232.2</ele>
        <time>2023-05-27T11:28:55Z</time>
      </trkpt>
      <trkpt lat="43.45671" lon="2.00276">
        <ele>232.2</ele>
        <time>2023-05-27T11:28:56Z</time>
      </trkpt>
      <trkpt lat="43.45672" lon="2.00275">
        <ele>232.2</ele>
        <time>2023-05-27T11:28:57Z</time>
      </trkpt>
      <trkpt lat="43.45672" lon="2.00274">
        <ele>232.2</ele>
        <time>2023-05-27T11:28:58Z</time>
      </trkpt>
      <trkpt lat="43.45672" lon="2.00273">
        <ele>232.4</ele>
        <time>2023-05-27T11:28:59Z</time>
      </trkpt>
      <trkpt lat="43.45672" lon="2.00273">
        <ele>232.4</ele>
        <time>2023-05-27T11:29:00Z</time>
      </trkpt>
      <trkpt lat="43.45671" lon="2.00273">
        <ele>232.4</ele>
        <time>2023-05-27T11:29:01Z</time>
      </trkpt>
      <trkpt lat="43.45671" lon="2.00273">
        <ele>232.4</ele>
        <time>2023-05-27T11:29:02Z</time>
      </trkpt>
      <trkpt lat="43.45671" lon="2.00273">
        <ele>232.4</ele>
        <time>2023-05-27T11:29:03Z</time>
      </trkpt>
      <trkpt lat="43.45668" lon="2.00273">
        <ele>232.4</ele>
        <time>2023-05-27T11:29:04Z</time>
      </trkpt>
      <trkpt lat="43.45668" lon="2.00273">
        <ele>232.4</ele>
        <time>2023-05-27T11:29:05Z</time>
      </trkpt>
      <trkpt lat="43.45667" lon="2.00271">
        <ele>232.2</ele>
        <time>2023-05-27T11:29:06Z</time>
      </trkpt>
      <trkpt lat="43.45667" lon="2.00269">
        <ele>232.2</ele>
        <time>2023-05-27T11:29:09Z</time>
      </trkpt>
      <trkpt lat="43.45667" lon="2.00269">
        <ele>232.2</ele>
        <time>2023-05-27T11:29:10Z</time>
      </trkpt>
      <trkpt lat="43.45667" lon="2.00269">
        <ele>232.2</ele>
        <time>2023-05-27T11:29:11Z</time>
      </trkpt>
      <trkpt lat="43.45667" lon="2.00269">
        <ele>232.2</ele>
        <time>2023-05-27T11:29:12Z</time>
      </trkpt>
      <trkpt lat="43.45667" lon="2.00268">
        <ele>232.2</ele>
        <time>2023-05-27T11:29:13Z</time>
      </trkpt>
      <trkpt lat="43.45667" lon="2.00268">
        <ele>232.2</ele>
        <time>2023-05-27T11:29:14Z</time>
      </trkpt>
      <trkpt lat="43.45667" lon="2.00268">
        <ele>232.2</ele>
        <time>2023-05-27T11:29:15Z</time>
      </trkpt>
      <trkpt lat="43.45667" lon="2.00268">
        <ele>232.4</ele>
        <time>2023-05-27T11:29:16Z</time>
      </trkpt>
      <trkpt lat="43.45662" lon="2.00269">
        <ele>232.6</ele>
        <time>2023-05-27T11:29:32Z</time>
      </trkpt>
      <trkpt lat="43.45661" lon="2.00268">
        <ele>232.6</ele>
        <time>2023-05-27T11:29:33Z</time>
      </trkpt>
      <trkpt lat="43.45661" lon="2.00268">
        <ele>232.6</ele>
        <time>2023-05-27T11:29:34Z</time>
      </trkpt>
      <trkpt lat="43.45661" lon="2.00268">
        <ele>232.6</ele>
        <time>2023-05-27T11:29:35Z</time>
      </trkpt>
      <trkpt lat="43.45661" lon="2.00268">
        <ele>232.4</ele>
        <time>2023-05-27T11:29:36Z</time>
      </trkpt>
      <trkpt lat="43.4566" lon="2.00267">
        <ele>232.4</ele>
        <time>2023-05-27T11:29:37Z</time>
      </trkpt>
      <trkpt lat="43.45661" lon="2.00267">
        <ele>232.4</ele>
        <time>2023-05-27T11:29:38Z</time>
      </trkpt>
      <trkpt lat="43.45661" lon="2.00267">
        <ele>232.4</ele>
        <time>2023-05-27T11:29:39Z</time>
      </trkpt>
      <trkpt lat="43.45661" lon="2.00267">
        <ele>232.4</ele>
        <time>2023-05-27T11:29:40Z</time>
      </trkpt>
      <trkpt lat="43.45662" lon="2.00266">
        <ele>232.4</ele>
        <time>2023-05-27T11:29:41Z</time>
      </trkpt>
      <trkpt lat="43.45663" lon="2.00266">
        <ele>232.4</ele>
        <time>2023-05-27T11:29:42Z</time>
      </trkpt>
      <trkpt lat="43.45664" lon="2.00265">
        <ele>232.6</ele>
        <time>2023-05-27T11:29:43Z</time>
      </trkpt>
      <trkpt lat="43.45663" lon="2.00262">
        <ele>232.6</ele>
        <time>2023-05-27T11:29:44Z</time>
      </trkpt>
      <trkpt lat="43.45661" lon="2.0026">
        <ele>232.6</ele>
        <time>2023-05-27T11:29:45Z</time>
      </trkpt>
      <trkpt lat="43.4566" lon="2.00258">
        <ele>232.6</ele>
        <time>2023-05-27T11:29:46Z</time>
      </trkpt>
      <trkpt lat="43.45658" lon="2.00255">
        <ele>232.8</ele>
        <time>2023-05-27T11:29:47Z</time>
      </trkpt>
      <trkpt lat="43.45656" lon="2.00255">
        <ele>232.8</ele>
        <time>2023-05-27T11:29:48Z</time>
      </trkpt>
      <trkpt lat="43.45655" lon="2.00254">
        <ele>232.8</ele>
        <time>2023-05-27T11:29:49Z</time>
      </trkpt>
      <trkpt lat="43.45654" lon="2.00253">
        <ele>232.8</ele>
        <time>2023-05-27T11:29:50Z</time>
      </trkpt>
      <trkpt lat="43.4565" lon="2.00248">
        <ele>232.8</ele>
        <time>2023-05-27T11:29:51Z</time>
      </trkpt>
      <trkpt lat="43.45648" lon="2.00246">
        <ele>232.8</ele>
        <time>2023-05-27T11:29:52Z</time>
      </trkpt>
      <trkpt lat="43.45647" lon="2.00249">
        <ele>232.8</ele>
        <time>2023-05-27T11:29:53Z</time>
      </trkpt>
      <trkpt lat="43.45647" lon="2.00249">
        <ele>233</ele>
        <time>2023-05-27T11:29:54Z</time>
      </trkpt>
      <trkpt lat="43.45647" lon="2.00253">
        <ele>233</ele>
        <time>2023-05-27T11:29:55Z</time>
      </trkpt>
      <trkpt lat="43.45647" lon="2.00253">
        <ele>233</ele>
        <time>2023-05-27T11:29:56Z</time>
      </trkpt>
      <trkpt lat="43.45647" lon="2.00253">
        <ele>233</ele>
        <time>2023-05-27T11:29:57Z</time>
      </trkpt>
      <trkpt lat="43.45647" lon="2.00255">
        <ele>233</ele>
        <time>2023-05-27T11:29:58Z</time>
      </trkpt>
      <trkpt lat="43.45647" lon="2.00256">
        <ele>233</ele>
        <time>2023-05-27T11:29:59Z</time>
      </trkpt>
      <trkpt lat="43.45647" lon="2.00256">
        <ele>233</ele>
        <time>2023-05-27T11:30:00Z</time>
      </trkpt>
      <trkpt lat="43.45647" lon="2.00256">
        <ele>233</ele>
        <time>2023-05-27T11:30:01Z</time>
      </trkpt>
      <trkpt lat="43.45647" lon="2.00256">
        <ele>233</ele>
        <time>2023-05-27T11:30:02Z</time>
      </trkpt>
      <trkpt lat="43.45648" lon="2.00257">
        <ele>233</ele>
        <time>2023-05-27T11:30:03Z</time>
      </trkpt>
      <trkpt lat="43.45648" lon="2.00257">
        <ele>233</ele>
        <time>2023-05-27T11:30:04Z</time>
      </trkpt>
      <trkpt lat="43.45648" lon="2.00257">
        <ele>233</ele>
        <time>2023-05-27T11:30:05Z</time>
      </trkpt>
      <trkpt lat="43.45648" lon="2.00257">
        <ele>233</ele>
        <time>2023-05-27T11:30:06Z</time>
      </trkpt>
      <trkpt lat="43.45652" lon="2.0026">
        <ele>233</ele>
        <time>2023-05-27T11:30:08Z</time>
      </trkpt>
      <trkpt lat="43.45652" lon="2.0026">
        <ele>233</ele>
        <time>2023-05-27T11:30:09Z</time>
      </trkpt>
      <trkpt lat="43.45652" lon="2.00259">
        <ele>233</ele>
        <time>2023-05-27T11:30:10Z</time>
      </trkpt>
      <trkpt lat="43.45653" lon="2.00259">
        <ele>233</ele>
        <time>2023-05-27T11:30:11Z</time>
      </trkpt>
      <trkpt lat="43.45655" lon="2.0026">
        <ele>233</ele>
        <time>2023-05-27T11:30:12Z</time>
      </trkpt>
      <trkpt lat="43.45655" lon="2.00259">
        <ele>233</ele>
        <time>2023-05-27T11:30:13Z</time>
      </trkpt>
      <trkpt lat="43.45655" lon="2.00261">
        <ele>233</ele>
        <time>2023-05-27T11:30:14Z</time>
      </trkpt>
      <trkpt lat="43.45655" lon="2.00261">
        <ele>233</ele>
        <time>2023-05-27T11:30:15Z</time>
      </trkpt>
      <trkpt lat="43.45655" lon="2.00261">
        <ele>233</ele>
        <time>2023-05-27T11:30:16Z</time>
      </trkpt>
      <trkpt lat="43.45655" lon="2.00261">
        <ele>233</ele>
        <time>2023-05-27T11:30:17Z</time>
      </trkpt>
      <trkpt lat="43.45655" lon="2.00261">
        <ele>233</ele>
        <time>2023-05-27T11:30:18Z</time>
      </trkpt>
      <trkpt lat="43.45655" lon="2.00261">
        <ele>233</ele>
        <time>2023-05-27T11:30:19Z</time>
      </trkpt>
      <trkpt lat="43.45655" lon="2.00261">
        <ele>233</ele>
        <time>2023-05-27T11:30:20Z</time>
      </trkpt>
      <trkpt lat="43.45655" lon="2.00261">
        <ele>233</ele>
        <time>2023-05-27T11:30:21Z</time>
      </trkpt>
      <trkpt lat="43.45657" lon="2.00261">
        <ele>233</ele>
        <time>2023-05-27T11:30:26Z</time>
      </trkpt>
      <trkpt lat="43.45658" lon="2.00261">
        <ele>233</ele>
        <time>2023-05-27T11:30:27Z</time>
      </trkpt>
      <trkpt lat="43.45659" lon="2.00262">
        <ele>233</ele>
        <time>2023-05-27T11:30:28Z</time>
      </trkpt>
      <trkpt lat="43.4566" lon="2.00261">
        <ele>233</ele>
        <time>2023-05-27T11:30:29Z</time>
      </trkpt>
      <trkpt lat="43.4566" lon="2.00261">
        <ele>233</ele>
        <time>2023-05-27T11:30:30Z</time>
      </trkpt>
      <trkpt lat="43.4566" lon="2.00262">
        <ele>233</ele>
        <time>2023-05-27T11:30:31Z</time>
      </trkpt>
      <trkpt lat="43.45661" lon="2.00263">
        <ele>233</ele>
        <time>2023-05-27T11:30:32Z</time>
      </trkpt>
      <trkpt lat="43.45661" lon="2.00263">
        <ele>233</ele>
        <time>2023-05-27T11:30:33Z</time>
      </trkpt>
      <trkpt lat="43.45661" lon="2.00263">
        <ele>233</ele>
        <time>2023-05-27T11:30:34Z</time>
      </trkpt>
      <trkpt lat="43.4566" lon="2.00262">
        <ele>233</ele>
        <time>2023-05-27T11:30:35Z</time>
      </trkpt>
      <trkpt lat="43.4566" lon="2.00262">
        <ele>233</ele>
        <time>2023-05-27T11:30:36Z</time>
      </trkpt>
      <trkpt lat="43.4566" lon="2.00262">
        <ele>233</ele>
        <time>2023-05-27T11:30:37Z</time>
      </trkpt>
      <trkpt lat="43.4566" lon="2.00262">
        <ele>233</ele>
        <time>2023-05-27T11:30:38Z</time>
      </trkpt>
      <trkpt lat="43.4566" lon="2.00262">
        <ele>233</ele>
        <time>2023-05-27T11:30:39Z</time>
      </trkpt>
      <trkpt lat="43.45661" lon="2.00263">
        <ele>233</ele>
        <time>2023-05-27T11:30:40Z</time>
      </trkpt>
      <trkpt lat="43.45662" lon="2.00265">
        <ele>233</ele>
        <time>2023-05-27T11:30:41Z</time>
      </trkpt>
      <trkpt lat="43.45666" lon="2.00268">
        <ele>233</ele>
        <time>2023-05-27T11:30:42Z</time>
      </trkpt>
      <trkpt lat="43.45667" lon="2.00268">
        <ele>233</ele>
        <time>2023-05-27T11:30:43Z</time>
      </trkpt>
      <trkpt lat="43.45668" lon="2.00269">
        <ele>233.2</ele>
        <time>2023-05-27T11:30:44Z</time>
      </trkpt>
      <trkpt lat="43.45669" lon="2.00271">
        <ele>233.2</ele>
        <time>2023-05-27T11:30:45Z</time>
      </trkpt>
      <trkpt lat="43.4567" lon="2.00274">
        <ele>233.2</ele>
        <time>2023-05-27T11:30:46Z</time>
      </trkpt>
      <trkpt lat="43.45671" lon="2.00277">
        <ele>233.2</ele>
        <time>2023-05-27T11:30:47Z</time>
      </trkpt>
      <trkpt lat="43.45672" lon="2.00278">
        <ele>233.2</ele>
        <time>2023-05-27T11:30:48Z</time>
      </trkpt>
      <trkpt lat="43.45671" lon="2.00277">
        <ele>233.2</ele>
        <time>2023-05-27T11:30:49Z</time>
      </trkpt>
      <trkpt lat="43.45669" lon="2.00273">
        <ele>233.2</ele>
        <time>2023-05-27T11:30:50Z</time>
      </trkpt>
      <trkpt lat="43.45667" lon="2.00269">
        <ele>233.2</ele>
        <time>2023-05-27T11:30:51Z</time>
      </trkpt>
      <trkpt lat="43.45665" lon="2.00265">
        <ele>233.2</ele>
        <time>2023-05-27T11:30:52Z</time>
      </trkpt>
      <trkpt lat="43.45664" lon="2.00263">
        <ele>233.2</ele>
        <time>2023-05-27T11:30:53Z</time>
      </trkpt>
      <trkpt lat="43.45663" lon="2.00264">
        <ele>233.2</ele>
        <time>2023-05-27T11:30:54Z</time>
      </trkpt>
      <trkpt lat="43.45663" lon="2.00266">
        <ele>233.2</ele>
        <time>2023-05-27T11:30:55Z</time>
      </trkpt>
      <trkpt lat="43.45663" lon="2.00267">
        <ele>233.2</ele>
        <time>2023-05-27T11:30:56Z</time>
      </trkpt>
      <trkpt lat="43.45663" lon="2.00268">
        <ele>233.2</ele>
        <time>2023-05-27T11:30:57Z</time>
      </trkpt>
      <trkpt lat="43.45664" lon="2.00269">
        <ele>233.2</ele>
        <time>2023-05-27T11:30:58Z</time>
      </trkpt>
      <trkpt lat="43.45664" lon="2.00271">
        <ele>233.2</ele>
        <time>2023-05-27T11:30:59Z</time>
      </trkpt>
      <trkpt lat="43.45664" lon="2.00271">
        <ele>233.2</ele>
        <time>2023-05-27T11:31:00Z</time>
      </trkpt>
      <trkpt lat="43.45663" lon="2.00271">
        <ele>233.2</ele>
        <time>2023-05-27T11:31:01Z</time>
      </trkpt>
      <trkpt lat="43.45663" lon="2.0027">
        <ele>233.2</ele>
        <time>2023-05-27T11:31:02Z</time>
      </trkpt>
      <trkpt lat="43.45663" lon="2.0027">
        <ele>233.2</ele>
        <time>2023-05-27T11:31:03Z</time>
      </trkpt>
      <trkpt lat="43.45663" lon="2.0027">
        <ele>233.2</ele>
        <time>2023-05-27T11:31:04Z</time>
      </trkpt>
      <trkpt lat="43.45664" lon="2.00271">
        <ele>233.2</ele>
        <time>2023-05-27T11:31:05Z</time>
      </trkpt>
      <trkpt lat="43.45665" lon="2.00273">
        <ele>233.2</ele>
        <time>2023-05-27T11:31:06Z</time>
      </trkpt>
      <trkpt lat="43.45665" lon="2.00274">
        <ele>233.2</ele>
        <time>2023-05-27T11:31:07Z</time>
      </trkpt>
      <trkpt lat="43.45665" lon="2.00274">
        <ele>233.2</ele>
        <time>2023-05-27T11:31:08Z</time>
      </trkpt>
      <trkpt lat="43.45665" lon="2.00275">
        <ele>233.2</ele>
        <time>2023-05-27T11:31:09Z</time>
      </trkpt>
      <trkpt lat="43.45664" lon="2.00273">
        <ele>233.2</ele>
        <time>2023-05-27T11:31:10Z</time>
      </trkpt>
      <trkpt lat="43.45664" lon="2.00273">
        <ele>233.2</ele>
        <time>2023-05-27T11:31:11Z</time>
      </trkpt>
      <trkpt lat="43.45665" lon="2.00273">
        <ele>233.2</ele>
        <time>2023-05-27T11:31:12Z</time>
      </trkpt>
      <trkpt lat="43.45665" lon="2.00273">
        <ele>233.2</ele>
        <time>2023-05-27T11:31:13Z</time>
      </trkpt>
      <trkpt lat="43.45664" lon="2.00272">
        <ele>233.2</ele>
        <time>2023-05-27T11:31:14Z</time>
      </trkpt>
      <trkpt lat="43.45663" lon="2.00271">
        <ele>233.2</ele>
        <time>2023-05-27T11:31:15Z</time>
      </trkpt>
      <trkpt lat="43.45663" lon="2.00271">
        <ele>233.2</ele>
        <time>2023-05-27T11:31:16Z</time>
      </trkpt>
      <trkpt lat="43.45663" lon="2.00268">
        <ele>233.2</ele>
        <time>2023-05-27T11:31:17Z</time>
      </trkpt>
      <trkpt lat="43.45663" lon="2.00271">
        <ele>233.2</ele>
        <time>2023-05-27T11:31:18Z</time>
      </trkpt>
      <trkpt lat="43.45663" lon="2.00271">
        <ele>233.2</ele>
        <time>2023-05-27T11:31:19Z</time>
      </trkpt>
      <trkpt lat="43.45663" lon="2.00271">
        <ele>233.2</ele>
        <time>2023-05-27T11:31:20Z</time>
      </trkpt>
      <trkpt lat="43.45663" lon="2.00271">
        <ele>233.2</ele>
        <time>2023-05-27T11:31:21Z</time>
      </trkpt>
      <trkpt lat="43.45663" lon="2.00271">
        <ele>233.2</ele>
        <time>2023-05-27T11:31:22Z</time>
      </trkpt>
      <trkpt lat="43.45663" lon="2.00271">
        <ele>233.2</ele>
        <time>2023-05-27T11:31:23Z</time>
      </trkpt>
      <trkpt lat="43.45663" lon="2.00271">
        <ele>233.2</ele>
        <time>2023-05-27T11:31:24Z</time>
      </trkpt>
      <trkpt lat="43.45663" lon="2.00271">
        <ele>233.2</ele>
        <time>2023-05-27T11:31:25Z</time>
      </trkpt>
      <trkpt lat="43.45663" lon="2.00271">
        <ele>233.2</ele>
        <time>2023-05-27T11:31:26Z</time>
      </trkpt>
      <trkpt lat="43.45664" lon="2.00271">
        <ele>233.2</ele>
        <time>2023-05-27T11:31:27Z</time>
      </trkpt>
      <trkpt lat="43.45664" lon="2.00271">
        <ele>233.2</ele>
        <time>2023-05-27T11:31:28Z</time>
      </trkpt>
      <trkpt lat="43.45666" lon="2.00271">
        <ele>233.2</ele>
        <time>2023-05-27T11:31:50Z</time>
      </trkpt>
      <trkpt lat="43.45662" lon="2.00275">
        <ele>233.2</ele>
        <time>2023-05-27T11:31:51Z</time>
      </trkpt>
      <trkpt lat="43.45658" lon="2.00279">
        <ele>233.2</ele>
        <time>2023-05-27T11:31:52Z</time>
      </trkpt>
      <trkpt lat="43.4567" lon="2.0028">
        <ele>233.2</ele>
        <time>2023-05-27T11:31:53Z</time>
      </trkpt>
      <trkpt lat="43.45667" lon="2.00276">
        <ele>233.2</ele>
        <time>2023-05-27T11:31:54Z</time>
      </trkpt>
      <trkpt lat="43.45658" lon="2.00273">
        <ele>233.2</ele>
        <time>2023-05-27T11:31:55Z</time>
      </trkpt>
      <trkpt lat="43.45648" lon="2.00275">
        <ele>233</ele>
        <time>2023-05-27T11:31:56Z</time>
      </trkpt>
      <trkpt lat="43.45644" lon="2.00279">
        <ele>233</ele>
        <time>2023-05-27T11:31:57Z</time>
      </trkpt>
      <trkpt lat="43.4564" lon="2.00284">
        <ele>233</ele>
        <time>2023-05-27T11:31:58Z</time>
      </trkpt>
      <trkpt lat="43.45641" lon="2.00282">
        <ele>233</ele>
        <time>2023-05-27T11:31:59Z</time>
      </trkpt>
      <trkpt lat="43.45641" lon="2.0028">
        <ele>233</ele>
        <time>2023-05-27T11:32:00Z</time>
      </trkpt>
      <trkpt lat="43.45641" lon="2.00278">
        <ele>233</ele>
        <time>2023-05-27T11:32:01Z</time>
      </trkpt>
      <trkpt lat="43.45642" lon="2.00276">
        <ele>233</ele>
        <time>2023-05-27T11:32:02Z</time>
      </trkpt>
      <trkpt lat="43.45649" lon="2.00265">
        <ele>232.8</ele>
        <time>2023-05-27T11:33:28Z</time>
      </trkpt>
      <trkpt lat="43.45647" lon="2.00269">
        <ele>232.8</ele>
        <time>2023-05-27T11:33:29Z</time>
      </trkpt>
      <trkpt lat="43.45648" lon="2.00268">
        <ele>232.8</ele>
        <time>2023-05-27T11:33:30Z</time>
      </trkpt>
      <trkpt lat="43.45648" lon="2.00269">
        <ele>232.8</ele>
        <time>2023-05-27T11:33:31Z</time>
      </trkpt>
      <trkpt lat="43.45647" lon="2.00269">
        <ele>232.8</ele>
        <time>2023-05-27T11:33:32Z</time>
      </trkpt>
      <trkpt lat="43.45648" lon="2.00269">
        <ele>232.8</ele>
        <time>2023-05-27T11:33:33Z</time>
      </trkpt>
      <trkpt lat="43.45648" lon="2.00266">
        <ele>232.8</ele>
        <time>2023-05-27T11:33:34Z</time>
      </trkpt>
      <trkpt lat="43.45649" lon="2.00265">
        <ele>232.8</ele>
        <time>2023-05-27T11:33:35Z</time>
      </trkpt>
      <trkpt lat="43.45647" lon="2.00266">
        <ele>232.8</ele>
        <time>2023-05-27T11:33:36Z</time>
      </trkpt>
      <trkpt lat="43.45646" lon="2.00266">
        <ele>232.8</ele>
        <time>2023-05-27T11:33:37Z</time>
      </trkpt>
      <trkpt lat="43.45676" lon="2.00273">
        <ele>232.8</ele>
        <time>2023-05-27T11:34:06Z</time>
      </trkpt>
      <trkpt lat="43.45687" lon="2.00299">
        <ele>232.8</ele>
        <time>2023-05-27T11:34:07Z</time>
      </trkpt>
      <trkpt lat="43.45688" lon="2.00304">
        <ele>232.8</ele>
        <time>2023-05-27T11:34:08Z</time>
      </trkpt>
      <trkpt lat="43.45687" lon="2.00306">
        <ele>232.8</ele>
        <time>2023-05-27T11:34:09Z</time>
      </trkpt>
      <trkpt lat="43.45686" lon="2.00309">
        <ele>232.8</ele>
        <time>2023-05-27T11:34:10Z</time>
      </trkpt>
      <trkpt lat="43.45687" lon="2.00309">
        <ele>232.8</ele>
        <time>2023-05-27T11:34:11Z</time>
      </trkpt>
      <trkpt lat="43.45686" lon="2.00308">
        <ele>232.8</ele>
        <time>2023-05-27T11:34:12Z</time>
      </trkpt>
      <trkpt lat="43.45686" lon="2.00307">
        <ele>232.8</ele>
        <time>2023-05-27T11:34:13Z</time>
      </trkpt>
      <trkpt lat="43.45686" lon="2.00306">
        <ele>232.8</ele>
        <time>2023-05-27T11:34:14Z</time>
      </trkpt>
      <trkpt lat="43.45663" lon="2.00265">
        <ele>232.6</ele>
        <time>2023-05-27T11:42:30Z</time>
      </trkpt>
      <trkpt lat="43.45664" lon="2.00264">
        <ele>232.6</ele>
        <time>2023-05-27T11:42:31Z</time>
      </trkpt>
      <trkpt lat="43.45665" lon="2.00262">
        <ele>232.6</ele>
        <time>2023-05-27T11:42:32Z</time>
      </trkpt>
      <trkpt lat="43.45665" lon="2.00262">
        <ele>232.6</ele>
        <time>2023-05-27T11:42:33Z</time>
      </trkpt>
      <trkpt lat="43.45631" lon="2.00344">
        <ele>233</ele>
        <time>2023-05-27T11:47:12Z</time>
      </trkpt>
      <trkpt lat="43.45676" lon="2.0026">
        <ele>232.2</ele>
        <time>2023-05-27T11:48:23Z</time>
      </trkpt>
      <trkpt lat="43.45672" lon="2.00261">
        <ele>232.2</ele>
        <time>2023-05-27T11:48:24Z</time>
      </trkpt>
      <trkpt lat="43.4567" lon="2.00262">
        <ele>232.2</ele>
        <time>2023-05-27T11:48:25Z</time>
      </trkpt>
      <trkpt lat="43.45668" lon="2.00263">
        <ele>232.2</ele>
        <time>2023-05-27T11:48:26Z</time>
      </trkpt>
      <trkpt lat="43.45665" lon="2.00264">
        <ele>232.2</ele>
        <time>2023-05-27T11:48:27Z</time>
      </trkpt>
      <trkpt lat="43.45663" lon="2.00265">
        <ele>232.2</ele>
        <time>2023-05-27T11:48:28Z</time>
      </trkpt>
      <trkpt lat="43.45662" lon="2.00263">
        <ele>232.2</ele>
        <time>2023-05-27T11:48:29Z</time>
      </trkpt>
      <trkpt lat="43.45663" lon="2.00262">
        <ele>232.2</ele>
        <time>2023-05-27T11:48:30Z</time>
      </trkpt>
      <trkpt lat="43.45663" lon="2.00261">
        <ele>232.2</ele>
        <time>2023-05-27T11:48:31Z</time>
      </trkpt>
      <trkpt lat="43.45662" lon="2.0026">
        <ele>232.4</ele>
        <time>2023-05-27T11:48:32Z</time>
      </trkpt>
      <trkpt lat="43.45663" lon="2.00258">
        <ele>232.4</ele>
        <time>2023-05-27T11:48:33Z</time>
      </trkpt>
      <trkpt lat="43.45663" lon="2.00257">
        <ele>232.4</ele>
        <time>2023-05-27T11:48:34Z</time>
      </trkpt>
      <trkpt lat="43.45665" lon="2.00255">
        <ele>232.4</ele>
        <time>2023-05-27T11:48:35Z</time>
      </trkpt>
      <trkpt lat="43.45668" lon="2.00255">
        <ele>232.4</ele>
        <time>2023-05-27T11:48:36Z</time>
      </trkpt>
      <trkpt lat="43.4567" lon="2.00255">
        <ele>232.4</ele>
        <time>2023-05-27T11:48:37Z</time>
      </trkpt>
      <trkpt lat="43.45671" lon="2.00255">
        <ele>232.4</ele>
        <time>2023-05-27T11:48:38Z</time>
      </trkpt>
      <trkpt lat="43.45671" lon="2.00256">
        <ele>232.4</ele>
        <time>2023-05-27T11:48:39Z</time>
      </trkpt>
      <trkpt lat="43.4567" lon="2.00257">
        <ele>232.4</ele>
        <time>2023-05-27T11:48:40Z</time>
      </trkpt>
      <trkpt lat="43.45669" lon="2.00258">
        <ele>232.4</ele>
        <time>2023-05-27T11:48:41Z</time>
      </trkpt>
      <trkpt lat="43.45667" lon="2.00259">
        <ele>232.6</ele>
        <time>2023-05-27T11:48:42Z</time>
      </trkpt>
      <trkpt lat="43.45664" lon="2.0026">
        <ele>232.6</ele>
        <time>2023-05-27T11:48:43Z</time>
      </trkpt>
      <trkpt lat="43.4566" lon="2.00261">
        <ele>232.6</ele>
        <time>2023-05-27T11:48:44Z</time>
      </trkpt>
      <trkpt lat="43.45657" lon="2.00262">
        <ele>232.6</ele>
        <time>2023-05-27T11:48:45Z</time>
      </trkpt>
      <trkpt lat="43.45654" lon="2.00263">
        <ele>232.6</ele>
        <time>2023-05-27T11:48:46Z</time>
      </trkpt>
      <trkpt lat="43.45651" lon="2.00263">
        <ele>232.6</ele>
        <time>2023-05-27T11:48:47Z</time>
      </trkpt>
      <trkpt lat="43.45649" lon="2.00264">
        <ele>232.6</ele>
        <time>2023-05-27T11:48:48Z</time>
      </trkpt>
      <trkpt lat="43.45647" lon="2.00266">
        <ele>232.6</ele>
        <time>2023-05-27T11:48:49Z</time>
      </trkpt>
      <trkpt lat="43.45646" lon="2.00266">
        <ele>232.8</ele>
        <time>2023-05-27T11:48:50Z</time>
      </trkpt>
      <trkpt lat="43.45648" lon="2.00266">
        <ele>232.8</ele>
        <time>2023-05-27T11:48:51Z</time>
      </trkpt>
      <trkpt lat="43.4565" lon="2.00265">
        <ele>232.8</ele>
        <time>2023-05-27T11:48:52Z</time>
      </trkpt>
      <trkpt lat="43.45652" lon="2.00264">
        <ele>232.8</ele>
        <time>2023-05-27T11:48:53Z</time>
      </trkpt>
      <trkpt lat="43.45654" lon="2.00264">
        <ele>232.8</ele>
        <time>2023-05-27T11:48:54Z</time>
      </trkpt>
      <trkpt lat="43.45656" lon="2.00263">
        <ele>232.8</ele>
        <time>2023-05-27T11:48:55Z</time>
      </trkpt>
      <trkpt lat="43.45659" lon="2.00263">
        <ele>232.8</ele>
        <time>2023-05-27T11:48:56Z</time>
      </trkpt>
      <trkpt lat="43.4566" lon="2.00262">
        <ele>232.8</ele>
        <time>2023-05-27T11:48:57Z</time>
      </trkpt>
      <trkpt lat="43.4566" lon="2.00261">
        <ele>232.8</ele>
        <time>2023-05-27T11:48:58Z</time>
      </trkpt>
      <trkpt lat="43.4566" lon="2.0026">
        <ele>232.8</ele>
        <time>2023-05-27T11:48:59Z</time>
      </trkpt>
      <trkpt lat="43.4566" lon="2.0026">
        <ele>232.8</ele>
        <time>2023-05-27T11:49:00Z</time>
      </trkpt>
      <trkpt lat="43.4566" lon="2.00259">
        <ele>232.8</ele>
        <time>2023-05-27T11:49:01Z</time>
      </trkpt>
      <trkpt lat="43.4566" lon="2.00258">
        <ele>233</ele>
        <time>2023-05-27T11:49:02Z</time>
      </trkpt>
      <trkpt lat="43.4566" lon="2.00257">
        <ele>233</ele>
        <time>2023-05-27T11:49:03Z</time>
      </trkpt>
      <trkpt lat="43.45661" lon="2.00256">
        <ele>233</ele>
        <time>2023-05-27T11:49:04Z</time>
      </trkpt>
      <trkpt lat="43.45646" lon="2.00257">
        <ele>233</ele>
        <time>2023-05-27T11:49:54Z</time>
      </trkpt>
      <trkpt lat="43.45648" lon="2.00257">
        <ele>233</ele>
        <time>2023-05-27T11:49:55Z</time>
      </trkpt>
      <trkpt lat="43.45648" lon="2.00257">
        <ele>233</ele>
        <time>2023-05-27T11:49:56Z</time>
      </trkpt>
      <trkpt lat="43.45648" lon="2.00257">
        <ele>233</ele>
        <time>2023-05-27T11:49:57Z</time>
      </trkpt>
      <trkpt lat="43.4565" lon="2.0026">
        <ele>233</ele>
        <time>2023-05-27T11:49:58Z</time>
      </trkpt>
      <trkpt lat="43.45653" lon="2.00265">
        <ele>233</ele>
        <time>2023-05-27T11:49:59Z</time>
      </trkpt>
      <trkpt lat="43.45663" lon="2.00276">
        <ele>233</ele>
        <time>2023-05-27T11:51:12Z</time>
      </trkpt>
      <trkpt lat="43.45649" lon="2.0027">
        <ele>233.4</ele>
        <time>2023-05-27T12:04:12Z</time>
      </trkpt>
      <trkpt lat="43.45648" lon="2.00269">
        <ele>233.4</ele>
        <time>2023-05-27T12:04:13Z</time>
      </trkpt>
      <trkpt lat="43.45647" lon="2.00268">
        <ele>233.4</ele>
        <time>2023-05-27T12:04:14Z</time>
      </trkpt>
      <trkpt lat="43.45647" lon="2.00268">
        <ele>233.4</ele>
        <time>2023-05-27T12:04:15Z</time>
      </trkpt>
      <trkpt lat="43.45647" lon="2.00269">
        <ele>233.4</ele>
        <time>2023-05-27T12:04:16Z</time>
      </trkpt>
      <trkpt lat="43.45648" lon="2.00269">
        <ele>233.4</ele>
        <time>2023-05-27T12:04:17Z</time>
      </trkpt>
      <trkpt lat="43.45649" lon="2.00269">
        <ele>233.4</ele>
        <time>2023-05-27T12:04:18Z</time>
      </trkpt>
      <trkpt lat="43.45649" lon="2.00269">
        <ele>233.4</ele>
        <time>2023-05-27T12:04:19Z</time>
      </trkpt>
      <trkpt lat="43.4565" lon="2.00269">
        <ele>233.4</ele>
        <time>2023-05-27T12:04:20Z</time>
      </trkpt>
      <trkpt lat="43.45652" lon="2.00269">
        <ele>233.4</ele>
        <time>2023-05-27T12:04:21Z</time>
      </trkpt>
      <trkpt lat="43.45653" lon="2.0027">
        <ele>233.4</ele>
        <time>2023-05-27T12:04:22Z</time>
      </trkpt>
      <trkpt lat="43.45655" lon="2.00271">
        <ele>233.4</ele>
        <time>2023-05-27T12:04:23Z</time>
      </trkpt>
      <trkpt lat="43.45656" lon="2.00271">
        <ele>233.4</ele>
        <time>2023-05-27T12:04:24Z</time>
      </trkpt>
      <trkpt lat="43.45656" lon="2.0027">
        <ele>233.4</ele>
        <time>2023-05-27T12:04:25Z</time>
      </trkpt>
      <trkpt lat="43.45655" lon="2.0027">
        <ele>233.4</ele>
        <time>2023-05-27T12:04:26Z</time>
      </trkpt>
      <trkpt lat="43.45656" lon="2.00272">
        <ele>233.4</ele>
        <time>2023-05-27T12:04:27Z</time>
      </trkpt>
      <trkpt lat="43.45657" lon="2.00275">
        <ele>233.4</ele>
        <time>2023-05-27T12:04:28Z</time>
      </trkpt>
      <trkpt lat="43.45656" lon="2.00275">
        <ele>233.4</ele>
        <time>2023-05-27T12:04:29Z</time>
      </trkpt>
      <trkpt lat="43.45655" lon="2.00275">
        <ele>233.2</ele>
        <time>2023-05-27T12:04:30Z</time>
      </trkpt>
      <trkpt lat="43.45654" lon="2.00274">
        <ele>233.2</ele>
        <time>2023-05-27T12:04:31Z</time>
      </trkpt>
      <trkpt lat="43.45652" lon="2.00274">
        <ele>233.2</ele>
        <time>2023-05-27T12:04:32Z</time>
      </trkpt>
      <trkpt lat="43.45652" lon="2.00274">
        <ele>233.2</ele>
        <time>2023-05-27T12:04:33Z</time>
      </trkpt>
      <trkpt lat="43.45651" lon="2.00273">
        <ele>233.2</ele>
        <time>2023-05-27T12:04:34Z</time>
      </trkpt>
      <trkpt lat="43.45651" lon="2.00272">
        <ele>233</ele>
        <time>2023-05-27T12:04:35Z</time>
      </trkpt>
      <trkpt lat="43.45652" lon="2.00272">
        <ele>233</ele>
        <time>2023-05-27T12:04:36Z</time>
      </trkpt>
      <trkpt lat="43.45653" lon="2.0027">
        <ele>233</ele>
        <time>2023-05-27T12:04:37Z</time>
      </trkpt>
      <trkpt lat="43.45653" lon="2.00266">
        <ele>233</ele>
        <time>2023-05-27T12:04:38Z</time>
      </trkpt>
      <trkpt lat="43.45652" lon="2.00266">
        <ele>233</ele>
        <time>2023-05-27T12:04:39Z</time>
      </trkpt>
      <trkpt lat="43.45653" lon="2.00266">
        <ele>233</ele>
        <time>2023-05-27T12:04:40Z</time>
      </trkpt>
      <trkpt lat="43.45652" lon="2.00265">
        <ele>233</ele>
        <time>2023-05-27T12:04:41Z</time>
      </trkpt>
      <trkpt lat="43.45652" lon="2.00265">
        <ele>233</ele>
        <time>2023-05-27T12:04:42Z</time>
      </trkpt>
      <trkpt lat="43.45655" lon="2.00265">
        <ele>233</ele>
        <time>2023-05-27T12:04:43Z</time>
      </trkpt>
      <trkpt lat="43.45656" lon="2.00265">
        <ele>233</ele>
        <time>2023-05-27T12:04:44Z</time>
      </trkpt>
      <trkpt lat="43.45656" lon="2.00266">
        <ele>233</ele>
        <time>2023-05-27T12:04:45Z</time>
      </trkpt>
      <trkpt lat="43.45657" lon="2.00266">
        <ele>233</ele>
        <time>2023-05-27T12:04:46Z</time>
      </trkpt>
      <trkpt lat="43.45656" lon="2.00266">
        <ele>233</ele>
        <time>2023-05-27T12:04:47Z</time>
      </trkpt>
      <trkpt lat="43.45655" lon="2.00266">
        <ele>232.8</ele>
        <time>2023-05-27T12:04:48Z</time>
      </trkpt>
      <trkpt lat="43.45653" lon="2.00266">
        <ele>232.8</ele>
        <time>2023-05-27T12:04:49Z</time>
      </trkpt>
      <trkpt lat="43.45655" lon="2.00266">
        <ele>232.8</ele>
        <time>2023-05-27T12:04:50Z</time>
      </trkpt>
      <trkpt lat="43.45656" lon="2.00266">
        <ele>232.8</ele>
        <time>2023-05-27T12:04:51Z</time>
      </trkpt>
      <trkpt lat="43.45656" lon="2.00265">
        <ele>232.8</ele>
        <time>2023-05-27T12:04:52Z</time>
      </trkpt>
      <trkpt lat="43.45655" lon="2.00265">
        <ele>232.8</ele>
        <time>2023-05-27T12:04:53Z</time>
      </trkpt>
      <trkpt lat="43.45653" lon="2.00266">
        <ele>232.8</ele>
        <time>2023-05-27T12:04:56Z</time>
      </trkpt>
      <trkpt lat="43.45653" lon="2.00266">
        <ele>232.8</ele>
        <time>2023-05-27T12:04:57Z</time>
      </trkpt>
      <trkpt lat="43.45652" lon="2.00266">
        <ele>232.8</ele>
        <time>2023-05-27T12:04:58Z</time>
      </trkpt>
      <trkpt lat="43.45652" lon="2.00266">
        <ele>232.8</ele>
        <time>2023-05-27T12:04:59Z</time>
      </trkpt>
      <trkpt lat="43.45652" lon="2.00266">
        <ele>232.8</ele>
        <time>2023-05-27T12:05:00Z</time>
      </trkpt>
      <trkpt lat="43.45652" lon="2.00266">
        <ele>232.8</ele>
        <time>2023-05-27T12:05:01Z</time>
      </trkpt>
      <trkpt lat="43.45652" lon="2.00266">
        <ele>232.8</ele>
        <time>2023-05-27T12:05:02Z</time>
      </trkpt>
      <trkpt lat="43.45652" lon="2.00268">
        <ele>232.8</ele>
        <time>2023-05-27T12:05:03Z</time>
      </trkpt>
      <trkpt lat="43.4565" lon="2.00269">
        <ele>232.8</ele>
        <time>2023-05-27T12:05:04Z</time>
      </trkpt>
      <trkpt lat="43.4565" lon="2.0027">
        <ele>232.8</ele>
        <time>2023-05-27T12:05:05Z</time>
      </trkpt>
      <trkpt lat="43.4565" lon="2.0027">
        <ele>232.8</ele>
        <time>2023-05-27T12:05:06Z</time>
      </trkpt>
      <trkpt lat="43.4565" lon="2.0027">
        <ele>232.8</ele>
        <time>2023-05-27T12:05:07Z</time>
      </trkpt>
      <trkpt lat="43.4565" lon="2.0027">
        <ele>232.8</ele>
        <time>2023-05-27T12:05:08Z</time>
      </trkpt>
      <trkpt lat="43.4565" lon="2.0027">
        <ele>233</ele>
        <time>2023-05-27T12:05:09Z</time>
      </trkpt>
      <trkpt lat="43.4565" lon="2.0027">
        <ele>233</ele>
        <time>2023-05-27T12:05:10Z</time>
      </trkpt>
      <trkpt lat="43.4565" lon="2.0027">
        <ele>233</ele>
        <time>2023-05-27T12:05:11Z</time>
      </trkpt>
      <trkpt lat="43.45655" lon="2.00267">
        <ele>233.2</ele>
        <time>2023-05-27T12:05:51Z</time>
      </trkpt>
      <trkpt lat="43.45653" lon="2.00268">
        <ele>233.2</ele>
        <time>2023-05-27T12:05:52Z</time>
      </trkpt>
      <trkpt lat="43.45652" lon="2.00268">
        <ele>233.2</ele>
        <time>2023-05-27T12:05:53Z</time>
      </trkpt>
      <trkpt lat="43.45653" lon="2.00268">
        <ele>233.2</ele>
        <time>2023-05-27T12:05:54Z</time>
      </trkpt>
      <trkpt lat="43.45654" lon="2.00269">
        <ele>233.2</ele>
        <time>2023-05-27T12:05:55Z</time>
      </trkpt>
      <trkpt lat="43.45654" lon="2.00269">
        <ele>233.2</ele>
        <time>2023-05-27T12:05:56Z</time>
      </trkpt>
      <trkpt lat="43.45653" lon="2.00268">
        <ele>233.2</ele>
        <time>2023-05-27T12:05:57Z</time>
      </trkpt>
      <trkpt lat="43.45654" lon="2.00269">
        <ele>233.2</ele>
        <time>2023-05-27T12:05:58Z</time>
      </trkpt>
      <trkpt lat="43.45654" lon="2.00269">
        <ele>233.2</ele>
        <time>2023-05-27T12:05:59Z</time>
      </trkpt>
      <trkpt lat="43.45651" lon="2.00269">
        <ele>233.2</ele>
        <time>2023-05-27T12:06:00Z</time>
      </trkpt>
      <trkpt lat="43.45647" lon="2.00271">
        <ele>233</ele>
        <time>2023-05-27T12:06:14Z</time>
      </trkpt>
      <trkpt lat="43.45644" lon="2.00269">
        <ele>233</ele>
        <time>2023-05-27T12:06:15Z</time>
      </trkpt>
      <trkpt lat="43.45645" lon="2.00268">
        <ele>233</ele>
        <time>2023-05-27T12:06:16Z</time>
      </trkpt>
      <trkpt lat="43.45644" lon="2.00267">
        <ele>233</ele>
        <time>2023-05-27T12:06:17Z</time>
      </trkpt>
      <trkpt lat="43.45642" lon="2.00264">
        <ele>233</ele>
        <time>2023-05-27T12:06:18Z</time>
      </trkpt>
      <trkpt lat="43.45638" lon="2.00261">
        <ele>233.2</ele>
        <time>2023-05-27T12:06:19Z</time>
      </trkpt>
      <trkpt lat="43.45635" lon="2.00258">
        <ele>233.2</ele>
        <time>2023-05-27T12:06:20Z</time>
      </trkpt>
      <trkpt lat="43.45633" lon="2.00256">
        <ele>233.2</ele>
        <time>2023-05-27T12:06:21Z</time>
      </trkpt>
      <trkpt lat="43.45632" lon="2.00255">
        <ele>233.2</ele>
        <time>2023-05-27T12:06:22Z</time>
      </trkpt>
      <trkpt lat="43.4563" lon="2.00254">
        <ele>233.2</ele>
        <time>2023-05-27T12:06:23Z</time>
      </trkpt>
      <trkpt lat="43.45631" lon="2.00255">
        <ele>233.4</ele>
        <time>2023-05-27T12:06:24Z</time>
      </trkpt>
      <trkpt lat="43.45631" lon="2.00254">
        <ele>233.4</ele>
        <time>2023-05-27T12:06:25Z</time>
      </trkpt>
      <trkpt lat="43.45633" lon="2.00255">
        <ele>233.4</ele>
        <time>2023-05-27T12:06:26Z</time>
      </trkpt>
      <trkpt lat="43.45633" lon="2.00255">
        <ele>233.6</ele>
        <time>2023-05-27T12:06:27Z</time>
      </trkpt>
      <trkpt lat="43.45633" lon="2.00255">
        <ele>233.6</ele>
        <time>2023-05-27T12:06:28Z</time>
      </trkpt>
      <trkpt lat="43.45634" lon="2.00256">
        <ele>233.8</ele>
        <time>2023-05-27T12:06:29Z</time>
      </trkpt>
      <trkpt lat="43.45635" lon="2.00257">
        <ele>234</ele>
        <time>2023-05-27T12:06:30Z</time>
      </trkpt>
      <trkpt lat="43.45635" lon="2.00257">
        <ele>234.2</ele>
        <time>2023-05-27T12:06:31Z</time>
      </trkpt>
      <trkpt lat="43.45635" lon="2.00257">
        <ele>234.2</ele>
        <time>2023-05-27T12:06:32Z</time>
      </trkpt>
      <trkpt lat="43.45635" lon="2.00257">
        <ele>234.4</ele>
        <time>2023-05-27T12:06:33Z</time>
      </trkpt>
      <trkpt lat="43.45634" lon="2.00257">
        <ele>234.6</ele>
        <time>2023-05-27T12:06:34Z</time>
      </trkpt>
      <trkpt lat="43.45634" lon="2.00257">
        <ele>234.8</ele>
        <time>2023-05-27T12:06:35Z</time>
      </trkpt>
      <trkpt lat="43.45634" lon="2.00257">
        <ele>235</ele>
        <time>2023-05-27T12:06:36Z</time>
      </trkpt>
      <trkpt lat="43.45635" lon="2.00257">
        <ele>235.2</ele>
        <time>2023-05-27T12:06:37Z</time>
      </trkpt>
      <trkpt lat="43.45635" lon="2.00257">
        <ele>235.4</ele>
        <time>2023-05-27T12:06:38Z</time>
      </trkpt>
      <trkpt lat="43.45634" lon="2.00257">
        <ele>235.6</ele>
        <time>2023-05-27T12:06:39Z</time>
      </trkpt>
      <trkpt lat="43.45634" lon="2.00256">
        <ele>235.8</ele>
        <time>2023-05-27T12:06:40Z</time>
      </trkpt>
      <trkpt lat="43.45635" lon="2.00254">
        <ele>236.4</ele>
        <time>2023-05-27T12:06:44Z</time>
      </trkpt>
      <trkpt lat="43.45636" lon="2.00254">
        <ele>236.4</ele>
        <time>2023-05-27T12:06:45Z</time>
      </trkpt>
      <trkpt lat="43.45637" lon="2.00254">
        <ele>236.4</ele>
        <time>2023-05-27T12:06:46Z</time>
      </trkpt>
      <trkpt lat="43.45638" lon="2.00254">
        <ele>236.6</ele>
        <time>2023-05-27T12:06:47Z</time>
      </trkpt>
      <trkpt lat="43.45638" lon="2.00253">
        <ele>236.6</ele>
        <time>2023-05-27T12:06:48Z</time>
      </trkpt>
      <trkpt lat="43.45639" lon="2.00253">
        <ele>236.8</ele>
        <time>2023-05-27T12:06:49Z</time>
      </trkpt>
      <trkpt lat="43.4564" lon="2.00253">
        <ele>237</ele>
        <time>2023-05-27T12:06:50Z</time>
      </trkpt>
      <trkpt lat="43.45642" lon="2.00253">
        <ele>237.2</ele>
        <time>2023-05-27T12:06:51Z</time>
      </trkpt>
      <trkpt lat="43.45642" lon="2.00254">
        <ele>237.4</ele>
        <time>2023-05-27T12:06:52Z</time>
      </trkpt>
      <trkpt lat="43.45643" lon="2.00256">
        <ele>237.4</ele>
        <time>2023-05-27T12:06:53Z</time>
      </trkpt>
      <trkpt lat="43.45644" lon="2.00257">
        <ele>237.4</ele>
        <time>2023-05-27T12:06:54Z</time>
      </trkpt>
      <trkpt lat="43.45645" lon="2.00258">
        <ele>237.6</ele>
        <time>2023-05-27T12:06:55Z</time>
      </trkpt>
      <trkpt lat="43.45645" lon="2.00259">
        <ele>237.6</ele>
        <time>2023-05-27T12:06:56Z</time>
      </trkpt>
      <trkpt lat="43.45647" lon="2.0026">
        <ele>237.6</ele>
        <time>2023-05-27T12:06:57Z</time>
      </trkpt>
      <trkpt lat="43.45648" lon="2.00261">
        <ele>237.6</ele>
        <time>2023-05-27T12:06:58Z</time>
      </trkpt>
      <trkpt lat="43.45649" lon="2.00261">
        <ele>237.6</ele>
        <time>2023-05-27T12:06:59Z</time>
      </trkpt>
      <trkpt lat="43.4565" lon="2.00261">
        <ele>237.6</ele>
        <time>2023-05-27T12:07:00Z</time>
      </trkpt>
      <trkpt lat="43.4565" lon="2.00261">
        <ele>237.8</ele>
        <time>2023-05-27T12:07:01Z</time>
      </trkpt>
      <trkpt lat="43.4565" lon="2.00261">
        <ele>237.8</ele>
        <time>2023-05-27T12:07:02Z</time>
      </trkpt>
      <trkpt lat="43.4565" lon="2.00261">
        <ele>237.8</ele>
        <time>2023-05-27T12:07:03Z</time>
      </trkpt>
      <trkpt lat="43.4565" lon="2.0026">
        <ele>237.8</ele>
        <time>2023-05-27T12:07:04Z</time>
      </trkpt>
      <trkpt lat="43.4565" lon="2.0026">
        <ele>237.8</ele>
        <time>2023-05-27T12:07:05Z</time>
      </trkpt>
      <trkpt lat="43.45649" lon="2.0026">
        <ele>237.8</ele>
        <time>2023-05-27T12:07:06Z</time>
      </trkpt>
      <trkpt lat="43.45645" lon="2.00258">
        <ele>237.8</ele>
        <time>2023-05-27T12:07:09Z</time>
      </trkpt>
      <trkpt lat="43.45644" lon="2.00257">
        <ele>237.8</ele>
        <time>2023-05-27T12:07:10Z</time>
      </trkpt>
      <trkpt lat="43.45643" lon="2.00257">
        <ele>237.8</ele>
        <time>2023-05-27T12:07:11Z</time>
      </trkpt>
      <trkpt lat="43.45644" lon="2.00257">
        <ele>237.8</ele>
        <time>2023-05-27T12:07:12Z</time>
      </trkpt>
      <trkpt lat="43.45644" lon="2.00258">
        <ele>237.8</ele>
        <time>2023-05-27T12:07:13Z</time>
      </trkpt>
      <trkpt lat="43.45646" lon="2.0026">
        <ele>237.8</ele>
        <time>2023-05-27T12:07:14Z</time>
      </trkpt>
      <trkpt lat="43.45648" lon="2.00263">
        <ele>237.8</ele>
        <time>2023-05-27T12:07:15Z</time>
      </trkpt>
      <trkpt lat="43.45648" lon="2.00265">
        <ele>237.8</ele>
        <time>2023-05-27T12:07:16Z</time>
      </trkpt>
      <trkpt lat="43.45648" lon="2.00267">
        <ele>237.8</ele>
        <time>2023-05-27T12:07:17Z</time>
      </trkpt>
      <trkpt lat="43.45649" lon="2.00269">
        <ele>237.8</ele>
        <time>2023-05-27T12:07:18Z</time>
      </trkpt>
      <trkpt lat="43.45649" lon="2.0027">
        <ele>237.8</ele>
        <time>2023-05-27T12:07:19Z</time>
      </trkpt>
      <trkpt lat="43.45649" lon="2.0027">
        <ele>237.8</ele>
        <time>2023-05-27T12:07:20Z</time>
      </trkpt>
      <trkpt lat="43.45648" lon="2.0027">
        <ele>237.8</ele>
        <time>2023-05-27T12:07:21Z</time>
      </trkpt>
      <trkpt lat="43.45648" lon="2.0027">
        <ele>237.8</ele>
        <time>2023-05-27T12:07:22Z</time>
      </trkpt>
      <trkpt lat="43.45649" lon="2.00272">
        <ele>237.8</ele>
        <time>2023-05-27T12:07:45Z</time>
      </trkpt>
      <trkpt lat="43.45649" lon="2.00273">
        <ele>237.8</ele>
        <time>2023-05-27T12:07:46Z</time>
      </trkpt>
      <trkpt lat="43.45649" lon="2.00274">
        <ele>237.8</ele>
        <time>2023-05-27T12:07:47Z</time>
      </trkpt>
      <trkpt lat="43.45649" lon="2.00276">
        <ele>237.8</ele>
        <time>2023-05-27T12:07:48Z</time>
      </trkpt>
      <trkpt lat="43.45648" lon="2.00277">
        <ele>237.8</ele>
        <time>2023-05-27T12:07:49Z</time>
      </trkpt>
      <trkpt lat="43.45647" lon="2.00277">
        <ele>237.8</ele>
        <time>2023-05-27T12:07:50Z</time>
      </trkpt>
      <trkpt lat="43.45647" lon="2.00277">
        <ele>237.8</ele>
        <time>2023-05-27T12:07:51Z</time>
      </trkpt>
      <trkpt lat="43.45647" lon="2.00276">
        <ele>237.8</ele>
        <time>2023-05-27T12:07:52Z</time>
      </trkpt>
      <trkpt lat="43.45647" lon="2.00275">
        <ele>237.8</ele>
        <time>2023-05-27T12:07:53Z</time>
      </trkpt>
      <trkpt lat="43.45647" lon="2.00275">
        <ele>237.8</ele>
        <time>2023-05-27T12:07:54Z</time>
      </trkpt>
      <trkpt lat="43.45647" lon="2.00274">
        <ele>237.8</ele>
        <time>2023-05-27T12:07:55Z</time>
      </trkpt>
      <trkpt lat="43.45647" lon="2.00273">
        <ele>237.8</ele>
        <time>2023-05-27T12:07:56Z</time>
      </trkpt>
      <trkpt lat="43.45647" lon="2.00273">
        <ele>237.8</ele>
        <time>2023-05-27T12:07:57Z</time>
      </trkpt>
      <trkpt lat="43.45646" lon="2.00274">
        <ele>237.8</ele>
        <time>2023-05-27T12:07:58Z</time>
      </trkpt>
      <trkpt lat="43.45646" lon="2.00274">
        <ele>237.8</ele>
        <time>2023-05-27T12:07:59Z</time>
      </trkpt>
      <trkpt lat="43.45646" lon="2.00274">
        <ele>237.8</ele>
        <time>2023-05-27T12:08:00Z</time>
      </trkpt>
      <trkpt lat="43.45646" lon="2.00274">
        <ele>237.8</ele>
        <time>2023-05-27T12:08:01Z</time>
      </trkpt>
      <trkpt lat="43.45647" lon="2.00274">
        <ele>237.8</ele>
        <time>2023-05-27T12:08:02Z</time>
      </trkpt>
      <trkpt lat="43.45646" lon="2.00274">
        <ele>237.8</ele>
        <time>2023-05-27T12:08:03Z</time>
      </trkpt>
      <trkpt lat="43.45646" lon="2.00274">
        <ele>237.8</ele>
        <time>2023-05-27T12:08:04Z</time>
      </trkpt>
      <trkpt lat="43.45651" lon="2.00262">
        <ele>237.8</ele>
        <time>2023-05-27T12:08:48Z</time>
      </trkpt>
      <trkpt lat="43.4565" lon="2.00263">
        <ele>237.8</ele>
        <time>2023-05-27T12:08:49Z</time>
      </trkpt>
      <trkpt lat="43.4565" lon="2.00263">
        <ele>237.8</ele>
        <time>2023-05-27T12:08:50Z</time>
      </trkpt>
      <trkpt lat="43.4565" lon="2.00262">
        <ele>237.8</ele>
        <time>2023-05-27T12:08:51Z</time>
      </trkpt>
      <trkpt lat="43.45651" lon="2.00262">
        <ele>237.8</ele>
        <time>2023-05-27T12:08:52Z</time>
      </trkpt>
      <trkpt lat="43.45651" lon="2.00264">
        <ele>237.8</ele>
        <time>2023-05-27T12:08:53Z</time>
      </trkpt>
      <trkpt lat="43.45652" lon="2.00264">
        <ele>237.8</ele>
        <time>2023-05-27T12:08:54Z</time>
      </trkpt>
      <trkpt lat="43.4566" lon="2.00262">
        <ele>237.8</ele>
        <time>2023-05-27T12:09:18Z</time>
      </trkpt>
      <trkpt lat="43.45659" lon="2.00262">
        <ele>237.8</ele>
        <time>2023-05-27T12:09:19Z</time>
      </trkpt>
      <trkpt lat="43.45659" lon="2.00259">
        <ele>237.8</ele>
        <time>2023-05-27T12:09:20Z</time>
      </trkpt>
      <trkpt lat="43.45659" lon="2.00258">
        <ele>237.8</ele>
        <time>2023-05-27T12:09:21Z</time>
      </trkpt>
      <trkpt lat="43.4566" lon="2.00258">
        <ele>237.8</ele>
        <time>2023-05-27T12:09:22Z</time>
      </trkpt>
      <trkpt lat="43.45659" lon="2.00257">
        <ele>237.8</ele>
        <time>2023-05-27T12:09:23Z</time>
      </trkpt>
      <trkpt lat="43.45659" lon="2.00257">
        <ele>237.8</ele>
        <time>2023-05-27T12:09:24Z</time>
      </trkpt>
      <trkpt lat="43.4566" lon="2.00257">
        <ele>237.8</ele>
        <time>2023-05-27T12:09:25Z</time>
      </trkpt>
      <trkpt lat="43.4566" lon="2.00256">
        <ele>237.8</ele>
        <time>2023-05-27T12:09:26Z</time>
      </trkpt>
      <trkpt lat="43.45661" lon="2.00254">
        <ele>237.8</ele>
        <time>2023-05-27T12:09:27Z</time>
      </trkpt>
      <trkpt lat="43.45661" lon="2.00254">
        <ele>237.8</ele>
        <time>2023-05-27T12:09:28Z</time>
      </trkpt>
      <trkpt lat="43.45661" lon="2.00255">
        <ele>237.8</ele>
        <time>2023-05-27T12:09:29Z</time>
      </trkpt>
      <trkpt lat="43.45661" lon="2.00253">
        <ele>237.8</ele>
        <time>2023-05-27T12:09:30Z</time>
      </trkpt>
      <trkpt lat="43.45662" lon="2.00253">
        <ele>237.8</ele>
        <time>2023-05-27T12:09:31Z</time>
      </trkpt>
      <trkpt lat="43.45662" lon="2.00252">
        <ele>237.8</ele>
        <time>2023-05-27T12:09:32Z</time>
      </trkpt>
      <trkpt lat="43.45661" lon="2.0025">
        <ele>237.8</ele>
        <time>2023-05-27T12:09:33Z</time>
      </trkpt>
      <trkpt lat="43.4566" lon="2.00249">
        <ele>237.8</ele>
        <time>2023-05-27T12:09:34Z</time>
      </trkpt>
      <trkpt lat="43.45659" lon="2.00246">
        <ele>237.8</ele>
        <time>2023-05-27T12:09:35Z</time>
      </trkpt>
      <trkpt lat="43.45659" lon="2.00246">
        <ele>237.8</ele>
        <time>2023-05-27T12:09:36Z</time>
      </trkpt>
      <trkpt lat="43.45657" lon="2.00247">
        <ele>237.8</ele>
        <time>2023-05-27T12:09:37Z</time>
      </trkpt>
      <trkpt lat="43.45656" lon="2.00247">
        <ele>238</ele>
        <time>2023-05-27T12:09:38Z</time>
      </trkpt>
      <trkpt lat="43.45656" lon="2.00247">
        <ele>238</ele>
        <time>2023-05-27T12:09:39Z</time>
      </trkpt>
      <trkpt lat="43.45657" lon="2.00245">
        <ele>238</ele>
        <time>2023-05-27T12:09:40Z</time>
      </trkpt>
      <trkpt lat="43.45659" lon="2.00246">
        <ele>238</ele>
        <time>2023-05-27T12:09:41Z</time>
      </trkpt>
      <trkpt lat="43.4566" lon="2.00247">
        <ele>238</ele>
        <time>2023-05-27T12:09:42Z</time>
      </trkpt>
      <trkpt lat="43.4566" lon="2.00248">
        <ele>238</ele>
        <time>2023-05-27T12:09:43Z</time>
      </trkpt>
      <trkpt lat="43.4566" lon="2.00246">
        <ele>238</ele>
        <time>2023-05-27T12:09:44Z</time>
      </trkpt>
      <trkpt lat="43.4566" lon="2.00245">
        <ele>238</ele>
        <time>2023-05-27T12:09:45Z</time>
      </trkpt>
      <trkpt lat="43.45661" lon="2.00243">
        <ele>238</ele>
        <time>2023-05-27T12:09:46Z</time>
      </trkpt>
      <trkpt lat="43.4566" lon="2.00245">
        <ele>238</ele>
        <time>2023-05-27T12:09:47Z</time>
      </trkpt>
      <trkpt lat="43.4566" lon="2.00245">
        <ele>238</ele>
        <time>2023-05-27T12:09:48Z</time>
      </trkpt>
      <trkpt lat="43.45661" lon="2.00242">
        <ele>238</ele>
        <time>2023-05-27T12:09:49Z</time>
      </trkpt>
      <trkpt lat="43.45661" lon="2.00239">
        <ele>238</ele>
        <time>2023-05-27T12:09:50Z</time>
      </trkpt>
      <trkpt lat="43.45661" lon="2.00237">
        <ele>238</ele>
        <time>2023-05-27T12:09:51Z</time>
      </trkpt>
      <trkpt lat="43.45661" lon="2.00236">
        <ele>238</ele>
        <time>2023-05-27T12:09:52Z</time>
      </trkpt>
      <trkpt lat="43.45662" lon="2.00236">
        <ele>238</ele>
        <time>2023-05-27T12:09:53Z</time>
      </trkpt>
      <trkpt lat="43.45662" lon="2.00236">
        <ele>238</ele>
        <time>2023-05-27T12:09:54Z</time>
      </trkpt>
      <trkpt lat="43.45661" lon="2.00239">
        <ele>238</ele>
        <time>2023-05-27T12:09:55Z</time>
      </trkpt>
      <trkpt lat="43.45661" lon="2.00241">
        <ele>238</ele>
        <time>2023-05-27T12:09:56Z</time>
      </trkpt>
      <trkpt lat="43.4566" lon="2.00242">
        <ele>238</ele>
        <time>2023-05-27T12:09:57Z</time>
      </trkpt>
      <trkpt lat="43.45659" lon="2.00244">
        <ele>238</ele>
        <time>2023-05-27T12:09:58Z</time>
      </trkpt>
      <trkpt lat="43.45661" lon="2.00247">
        <ele>238</ele>
        <time>2023-05-27T12:09:59Z</time>
      </trkpt>
      <trkpt lat="43.45662" lon="2.00247">
        <ele>238</ele>
        <time>2023-05-27T12:10:00Z</time>
      </trkpt>
      <trkpt lat="43.45662" lon="2.00248">
        <ele>238</ele>
        <time>2023-05-27T12:10:01Z</time>
      </trkpt>
      <trkpt lat="43.45663" lon="2.0025">
        <ele>238</ele>
        <time>2023-05-27T12:10:02Z</time>
      </trkpt>
      <trkpt lat="43.45663" lon="2.00251">
        <ele>238</ele>
        <time>2023-05-27T12:10:03Z</time>
      </trkpt>
      <trkpt lat="43.45663" lon="2.00251">
        <ele>238</ele>
        <time>2023-05-27T12:10:04Z</time>
      </trkpt>
      <trkpt lat="43.45663" lon="2.0025">
        <ele>238</ele>
        <time>2023-05-27T12:10:05Z</time>
      </trkpt>
      <trkpt lat="43.45662" lon="2.0025">
        <ele>238</ele>
        <time>2023-05-27T12:10:06Z</time>
      </trkpt>
      <trkpt lat="43.45661" lon="2.0025">
        <ele>238</ele>
        <time>2023-05-27T12:10:07Z</time>
      </trkpt>
      <trkpt lat="43.45661" lon="2.0025">
        <ele>238</ele>
        <time>2023-05-27T12:10:08Z</time>
      </trkpt>
      <trkpt lat="43.4566" lon="2.00249">
        <ele>238</ele>
        <time>2023-05-27T12:10:09Z</time>
      </trkpt>
      <trkpt lat="43.4566" lon="2.0025">
        <ele>238</ele>
        <time>2023-05-27T12:10:10Z</time>
      </trkpt>
      <trkpt lat="43.45659" lon="2.00251">
        <ele>238</ele>
        <time>2023-05-27T12:10:11Z</time>
      </trkpt>
      <trkpt lat="43.45659" lon="2.0025">
        <ele>238</ele>
        <time>2023-05-27T12:10:12Z</time>
      </trkpt>
      <trkpt lat="43.45659" lon="2.00248">
        <ele>238</ele>
        <time>2023-05-27T12:10:13Z</time>
      </trkpt>
      <trkpt lat="43.45659" lon="2.00246">
        <ele>238</ele>
        <time>2023-05-27T12:10:14Z</time>
      </trkpt>
      <trkpt lat="43.45658" lon="2.00249">
        <ele>238</ele>
        <time>2023-05-27T12:10:15Z</time>
      </trkpt>
      <trkpt lat="43.45657" lon="2.00251">
        <ele>238</ele>
        <time>2023-05-27T12:10:16Z</time>
      </trkpt>
      <trkpt lat="43.45656" lon="2.00253">
        <ele>238</ele>
        <time>2023-05-27T12:10:17Z</time>
      </trkpt>
      <trkpt lat="43.45655" lon="2.00255">
        <ele>238</ele>
        <time>2023-05-27T12:10:18Z</time>
      </trkpt>
      <trkpt lat="43.45653" lon="2.00258">
        <ele>238</ele>
        <time>2023-05-27T12:10:19Z</time>
      </trkpt>
      <trkpt lat="43.45652" lon="2.00261">
        <ele>238</ele>
        <time>2023-05-27T12:10:20Z</time>
      </trkpt>
      <trkpt lat="43.45651" lon="2.00262">
        <ele>238</ele>
        <time>2023-05-27T12:10:21Z</time>
      </trkpt>
      <trkpt lat="43.45648" lon="2.00265">
        <ele>238</ele>
        <time>2023-05-27T12:10:22Z</time>
      </trkpt>
      <trkpt lat="43.45646" lon="2.00268">
        <ele>238</ele>
        <time>2023-05-27T12:10:23Z</time>
      </trkpt>
      <trkpt lat="43.45645" lon="2.00269">
        <ele>238</ele>
        <time>2023-05-27T12:10:24Z</time>
      </trkpt>
      <trkpt lat="43.45644" lon="2.00271">
        <ele>238</ele>
        <time>2023-05-27T12:10:25Z</time>
      </trkpt>
      <trkpt lat="43.45644" lon="2.00272">
        <ele>238</ele>
        <time>2023-05-27T12:10:26Z</time>
      </trkpt>
      <trkpt lat="43.45642" lon="2.00261">
        <ele>238</ele>
        <time>2023-05-27T12:10:27Z</time>
      </trkpt>
      <trkpt lat="43.4564" lon="2.00257">
        <ele>238</ele>
        <time>2023-05-27T12:10:28Z</time>
      </trkpt>
      <trkpt lat="43.45639" lon="2.00256">
        <ele>238</ele>
        <time>2023-05-27T12:10:29Z</time>
      </trkpt>
      <trkpt lat="43.45639" lon="2.00258">
        <ele>238</ele>
        <time>2023-05-27T12:10:30Z</time>
      </trkpt>
      <trkpt lat="43.4564" lon="2.00257">
        <ele>238</ele>
        <time>2023-05-27T12:10:31Z</time>
      </trkpt>
      <trkpt lat="43.45642" lon="2.00257">
        <ele>238</ele>
        <time>2023-05-27T12:10:32Z</time>
      </trkpt>
      <trkpt lat="43.45643" lon="2.00257">
        <ele>238</ele>
        <time>2023-05-27T12:10:33Z</time>
      </trkpt>
      <trkpt lat="43.45646" lon="2.00258">
        <ele>238</ele>
        <time>2023-05-27T12:10:34Z</time>
      </trkpt>
      <trkpt lat="43.45647" lon="2.00258">
        <ele>238</ele>
        <time>2023-05-27T12:10:35Z</time>
      </trkpt>
      <trkpt lat="43.45647" lon="2.00257">
        <ele>238</ele>
        <time>2023-05-27T12:10:36Z</time>
      </trkpt>
      <trkpt lat="43.45647" lon="2.00258">
        <ele>238</ele>
        <time>2023-05-27T12:10:37Z</time>
      </trkpt>
      <trkpt lat="43.45646" lon="2.00258">
        <ele>238</ele>
        <time>2023-05-27T12:10:38Z</time>
      </trkpt>
      <trkpt lat="43.45646" lon="2.00262">
        <ele>238</ele>
        <time>2023-05-27T12:10:39Z</time>
      </trkpt>
      <trkpt lat="43.45646" lon="2.00261">
        <ele>238</ele>
        <time>2023-05-27T12:10:40Z</time>
      </trkpt>
      <trkpt lat="43.45647" lon="2.00261">
        <ele>238</ele>
        <time>2023-05-27T12:10:41Z</time>
      </trkpt>
      <trkpt lat="43.45648" lon="2.00262">
        <ele>238</ele>
        <time>2023-05-27T12:10:42Z</time>
      </trkpt>
      <trkpt lat="43.45648" lon="2.0026">
        <ele>238</ele>
        <time>2023-05-27T12:10:43Z</time>
      </trkpt>
      <trkpt lat="43.45647" lon="2.00263">
        <ele>238</ele>
        <time>2023-05-27T12:10:44Z</time>
      </trkpt>
      <trkpt lat="43.45647" lon="2.00248">
        <ele>238</ele>
        <time>2023-05-27T12:10:58Z</time>
      </trkpt>
      <trkpt lat="43.45648" lon="2.0024">
        <ele>238</ele>
        <time>2023-05-27T12:10:59Z</time>
      </trkpt>
      <trkpt lat="43.45649" lon="2.00235">
        <ele>238</ele>
        <time>2023-05-27T12:11:00Z</time>
      </trkpt>
      <trkpt lat="43.45648" lon="2.00233">
        <ele>238</ele>
        <time>2023-05-27T12:11:01Z</time>
      </trkpt>
      <trkpt lat="43.45647" lon="2.00232">
        <ele>238</ele>
        <time>2023-05-27T12:11:02Z</time>
      </trkpt>
      <trkpt lat="43.45646" lon="2.00232">
        <ele>238</ele>
        <time>2023-05-27T12:11:03Z</time>
      </trkpt>
      <trkpt lat="43.45647" lon="2.00235">
        <ele>238</ele>
        <time>2023-05-27T12:11:04Z</time>
      </trkpt>
      <trkpt lat="43.45647" lon="2.00237">
        <ele>238</ele>
        <time>2023-05-27T12:11:05Z</time>
      </trkpt>
      <trkpt lat="43.45647" lon="2.00238">
        <ele>238</ele>
        <time>2023-05-27T12:11:06Z</time>
      </trkpt>
      <trkpt lat="43.45648" lon="2.0024">
        <ele>238</ele>
        <time>2023-05-27T12:11:07Z</time>
      </trkpt>
      <trkpt lat="43.45649" lon="2.00243">
        <ele>238</ele>
        <time>2023-05-27T12:11:08Z</time>
      </trkpt>
      <trkpt lat="43.4565" lon="2.00244">
        <ele>238</ele>
        <time>2023-05-27T12:11:09Z</time>
      </trkpt>
      <trkpt lat="43.4565" lon="2.00245">
        <ele>238</ele>
        <time>2023-05-27T12:11:10Z</time>
      </trkpt>
      <trkpt lat="43.4565" lon="2.00246">
        <ele>238</ele>
        <time>2023-05-27T12:11:11Z</time>
      </trkpt>
      <trkpt lat="43.4565" lon="2.00246">
        <ele>238</ele>
        <time>2023-05-27T12:11:12Z</time>
      </trkpt>
      <trkpt lat="43.45649" lon="2.00247">
        <ele>238</ele>
        <time>2023-05-27T12:11:16Z</time>
      </trkpt>
      <trkpt lat="43.45648" lon="2.00247">
        <ele>238</ele>
        <time>2023-05-27T12:11:17Z</time>
      </trkpt>
      <trkpt lat="43.45646" lon="2.00249">
        <ele>238</ele>
        <time>2023-05-27T12:11:18Z</time>
      </trkpt>
      <trkpt lat="43.45644" lon="2.00251">
        <ele>238</ele>
        <time>2023-05-27T12:11:19Z</time>
      </trkpt>
      <trkpt lat="43.45642" lon="2.00253">
        <ele>238</ele>
        <time>2023-05-27T12:11:20Z</time>
      </trkpt>
      <trkpt lat="43.45641" lon="2.00254">
        <ele>238</ele>
        <time>2023-05-27T12:11:21Z</time>
      </trkpt>
      <trkpt lat="43.45642" lon="2.00259">
        <ele>238</ele>
        <time>2023-05-27T12:11:22Z</time>
      </trkpt>
      <trkpt lat="43.45643" lon="2.00261">
        <ele>238</ele>
        <time>2023-05-27T12:11:23Z</time>
      </trkpt>
      <trkpt lat="43.45644" lon="2.00261">
        <ele>238</ele>
        <time>2023-05-27T12:11:24Z</time>
      </trkpt>
      <trkpt lat="43.45644" lon="2.00259">
        <ele>238</ele>
        <time>2023-05-27T12:11:25Z</time>
      </trkpt>
      <trkpt lat="43.45644" lon="2.00256">
        <ele>238</ele>
        <time>2023-05-27T12:11:26Z</time>
      </trkpt>
      <trkpt lat="43.45644" lon="2.00256">
        <ele>238</ele>
        <time>2023-05-27T12:11:27Z</time>
      </trkpt>
      <trkpt lat="43.45644" lon="2.00256">
        <ele>238</ele>
        <time>2023-05-27T12:11:28Z</time>
      </trkpt>
      <trkpt lat="43.45644" lon="2.00258">
        <ele>238</ele>
        <time>2023-05-27T12:11:29Z</time>
      </trkpt>
      <trkpt lat="43.45645" lon="2.0026">
        <ele>238</ele>
        <time>2023-05-27T12:11:30Z</time>
      </trkpt>
      <trkpt lat="43.45644" lon="2.0026">
        <ele>238</ele>
        <time>2023-05-27T12:11:31Z</time>
      </trkpt>
      <trkpt lat="43.45644" lon="2.0026">
        <ele>238</ele>
        <time>2023-05-27T12:11:32Z</time>
      </trkpt>
      <trkpt lat="43.45645" lon="2.0026">
        <ele>238</ele>
        <time>2023-05-27T12:11:33Z</time>
      </trkpt>
      <trkpt lat="43.45647" lon="2.00261">
        <ele>238</ele>
        <time>2023-05-27T12:11:34Z</time>
      </trkpt>
      <trkpt lat="43.45647" lon="2.00261">
        <ele>237.8</ele>
        <time>2023-05-27T12:11:35Z</time>
      </trkpt>
      <trkpt lat="43.45648" lon="2.00262">
        <ele>237.8</ele>
        <time>2023-05-27T12:11:36Z</time>
      </trkpt>
      <trkpt lat="43.45649" lon="2.00263">
        <ele>238</ele>
        <time>2023-05-27T12:11:37Z</time>
      </trkpt>
      <trkpt lat="43.45649" lon="2.00264">
        <ele>238</ele>
        <time>2023-05-27T12:11:38Z</time>
      </trkpt>
      <trkpt lat="43.45648" lon="2.00265">
        <ele>238</ele>
        <time>2023-05-27T12:11:39Z</time>
      </trkpt>
      <trkpt lat="43.45647" lon="2.00265">
        <ele>238</ele>
        <time>2023-05-27T12:11:40Z</time>
      </trkpt>
      <trkpt lat="43.45648" lon="2.00266">
        <ele>238</ele>
        <time>2023-05-27T12:11:41Z</time>
      </trkpt>
      <trkpt lat="43.45649" lon="2.00266">
        <ele>238</ele>
        <time>2023-05-27T12:11:42Z</time>
      </trkpt>
      <trkpt lat="43.45648" lon="2.00266">
        <ele>238</ele>
        <time>2023-05-27T12:11:43Z</time>
      </trkpt>
      <trkpt lat="43.45645" lon="2.00266">
        <ele>237.8</ele>
        <time>2023-05-27T12:11:44Z</time>
      </trkpt>
      <trkpt lat="43.45647" lon="2.00266">
        <ele>237.8</ele>
        <time>2023-05-27T12:11:45Z</time>
      </trkpt>
      <trkpt lat="43.45648" lon="2.00266">
        <ele>237.8</ele>
        <time>2023-05-27T12:11:46Z</time>
      </trkpt>
      <trkpt lat="43.45648" lon="2.00265">
        <ele>238</ele>
        <time>2023-05-27T12:11:47Z</time>
      </trkpt>
      <trkpt lat="43.45649" lon="2.00265">
        <ele>238</ele>
        <time>2023-05-27T12:11:48Z</time>
      </trkpt>
      <trkpt lat="43.45649" lon="2.00265">
        <ele>238</ele>
        <time>2023-05-27T12:11:49Z</time>
      </trkpt>
      <trkpt lat="43.45652" lon="2.00263">
        <ele>238</ele>
        <time>2023-05-27T12:11:50Z</time>
      </trkpt>
      <trkpt lat="43.45652" lon="2.00261">
        <ele>238</ele>
        <time>2023-05-27T12:11:51Z</time>
      </trkpt>
      <trkpt lat="43.45656" lon="2.0026">
        <ele>238</ele>
        <time>2023-05-27T12:11:52Z</time>
      </trkpt>
      <trkpt lat="43.45656" lon="2.00259">
        <ele>238</ele>
        <time>2023-05-27T12:11:53Z</time>
      </trkpt>
      <trkpt lat="43.45657" lon="2.00258">
        <ele>238</ele>
        <time>2023-05-27T12:11:54Z</time>
      </trkpt>
      <trkpt lat="43.45657" lon="2.00257">
        <ele>238</ele>
        <time>2023-05-27T12:11:55Z</time>
      </trkpt>
      <trkpt lat="43.45656" lon="2.00257">
        <ele>238</ele>
        <time>2023-05-27T12:11:56Z</time>
      </trkpt>
      <trkpt lat="43.45656" lon="2.00257">
        <ele>238</ele>
        <time>2023-05-27T12:11:57Z</time>
      </trkpt>
      <trkpt lat="43.45654" lon="2.00257">
        <ele>238</ele>
        <time>2023-05-27T12:11:58Z</time>
      </trkpt>
      <trkpt lat="43.45652" lon="2.00257">
        <ele>238</ele>
        <time>2023-05-27T12:11:59Z</time>
      </trkpt>
      <trkpt lat="43.45652" lon="2.00257">
        <ele>238</ele>
        <time>2023-05-27T12:12:00Z</time>
      </trkpt>
      <trkpt lat="43.45651" lon="2.00257">
        <ele>238</ele>
        <time>2023-05-27T12:12:01Z</time>
      </trkpt>
      <trkpt lat="43.4565" lon="2.00256">
        <ele>238</ele>
        <time>2023-05-27T12:12:02Z</time>
      </trkpt>
      <trkpt lat="43.4565" lon="2.00257">
        <ele>238</ele>
        <time>2023-05-27T12:12:03Z</time>
      </trkpt>
      <trkpt lat="43.45651" lon="2.00257">
        <ele>238</ele>
        <time>2023-05-27T12:12:04Z</time>
      </trkpt>
      <trkpt lat="43.45652" lon="2.00257">
        <ele>238</ele>
        <time>2023-05-27T12:12:05Z</time>
      </trkpt>
      <trkpt lat="43.45652" lon="2.00256">
        <ele>238</ele>
        <time>2023-05-27T12:12:06Z</time>
      </trkpt>
      <trkpt lat="43.45652" lon="2.00255">
        <ele>238</ele>
        <time>2023-05-27T12:12:07Z</time>
      </trkpt>
      <trkpt lat="43.45652" lon="2.00255">
        <ele>238</ele>
        <time>2023-05-27T12:12:08Z</time>
      </trkpt>
      <trkpt lat="43.4565" lon="2.00256">
        <ele>238</ele>
        <time>2023-05-27T12:12:09Z</time>
      </trkpt>
      <trkpt lat="43.45648" lon="2.00256">
        <ele>238</ele>
        <time>2023-05-27T12:12:10Z</time>
      </trkpt>
      <trkpt lat="43.45647" lon="2.00256">
        <ele>237.8</ele>
        <time>2023-05-27T12:12:11Z</time>
      </trkpt>
      <trkpt lat="43.45646" lon="2.00256">
        <ele>237.8</ele>
        <time>2023-05-27T12:12:12Z</time>
      </trkpt>
      <trkpt lat="43.45645" lon="2.00257">
        <ele>237.8</ele>
        <time>2023-05-27T12:12:13Z</time>
      </trkpt>
      <trkpt lat="43.45645" lon="2.00257">
        <ele>237.8</ele>
        <time>2023-05-27T12:12:14Z</time>
      </trkpt>
      <trkpt lat="43.45647" lon="2.00258">
        <ele>237.8</ele>
        <time>2023-05-27T12:12:15Z</time>
      </trkpt>
      <trkpt lat="43.45648" lon="2.00258">
        <ele>237.8</ele>
        <time>2023-05-27T12:12:16Z</time>
      </trkpt>
      <trkpt lat="43.4565" lon="2.00258">
        <ele>237.8</ele>
        <time>2023-05-27T12:12:17Z</time>
      </trkpt>
      <trkpt lat="43.45652" lon="2.00258">
        <ele>237.8</ele>
        <time>2023-05-27T12:12:18Z</time>
      </trkpt>
      <trkpt lat="43.45652" lon="2.00257">
        <ele>237.8</ele>
        <time>2023-05-27T12:12:19Z</time>
      </trkpt>
      <trkpt lat="43.45652" lon="2.00256">
        <ele>237.8</ele>
        <time>2023-05-27T12:12:20Z</time>
      </trkpt>
      <trkpt lat="43.45653" lon="2.00255">
        <ele>237.8</ele>
        <time>2023-05-27T12:12:21Z</time>
      </trkpt>
      <trkpt lat="43.45656" lon="2.00254">
        <ele>237.8</ele>
        <time>2023-05-27T12:12:22Z</time>
      </trkpt>
      <trkpt lat="43.45659" lon="2.00253">
        <ele>237.8</ele>
        <time>2023-05-27T12:12:23Z</time>
      </trkpt>
      <trkpt lat="43.45661" lon="2.00252">
        <ele>237.8</ele>
        <time>2023-05-27T12:12:24Z</time>
      </trkpt>
      <trkpt lat="43.45663" lon="2.00251">
        <ele>237.8</ele>
        <time>2023-05-27T12:12:25Z</time>
      </trkpt>
      <trkpt lat="43.45664" lon="2.00251">
        <ele>237.8</ele>
        <time>2023-05-27T12:12:26Z</time>
      </trkpt>
      <trkpt lat="43.45665" lon="2.00251">
        <ele>237.8</ele>
        <time>2023-05-27T12:12:27Z</time>
      </trkpt>
      <trkpt lat="43.45665" lon="2.00253">
        <ele>237.8</ele>
        <time>2023-05-27T12:12:28Z</time>
      </trkpt>
      <trkpt lat="43.45664" lon="2.00256">
        <ele>237.8</ele>
        <time>2023-05-27T12:12:29Z</time>
      </trkpt>
      <trkpt lat="43.45662" lon="2.0026">
        <ele>237.8</ele>
        <time>2023-05-27T12:12:30Z</time>
      </trkpt>
      <trkpt lat="43.45661" lon="2.00263">
        <ele>237.8</ele>
        <time>2023-05-27T12:12:31Z</time>
      </trkpt>
      <trkpt lat="43.4566" lon="2.00266">
        <ele>237.8</ele>
        <time>2023-05-27T12:12:32Z</time>
      </trkpt>
      <trkpt lat="43.4566" lon="2.00268">
        <ele>237.8</ele>
        <time>2023-05-27T12:12:33Z</time>
      </trkpt>
      <trkpt lat="43.4566" lon="2.00269">
        <ele>237.8</ele>
        <time>2023-05-27T12:12:34Z</time>
      </trkpt>
      <trkpt lat="43.4566" lon="2.00271">
        <ele>237.8</ele>
        <time>2023-05-27T12:12:35Z</time>
      </trkpt>
      <trkpt lat="43.45659" lon="2.00271">
        <ele>237.8</ele>
        <time>2023-05-27T12:12:36Z</time>
      </trkpt>
      <trkpt lat="43.4566" lon="2.00271">
        <ele>237.8</ele>
        <time>2023-05-27T12:12:37Z</time>
      </trkpt>
      <trkpt lat="43.4566" lon="2.0027">
        <ele>237.8</ele>
        <time>2023-05-27T12:12:38Z</time>
      </trkpt>
      <trkpt lat="43.4566" lon="2.0027">
        <ele>237.8</ele>
        <time>2023-05-27T12:12:39Z</time>
      </trkpt>
      <trkpt lat="43.45661" lon="2.00269">
        <ele>237.8</ele>
        <time>2023-05-27T12:12:40Z</time>
      </trkpt>
      <trkpt lat="43.4566" lon="2.0027">
        <ele>237.8</ele>
        <time>2023-05-27T12:12:41Z</time>
      </trkpt>
      <trkpt lat="43.45659" lon="2.00272">
        <ele>237.8</ele>
        <time>2023-05-27T12:12:42Z</time>
      </trkpt>
      <trkpt lat="43.45658" lon="2.00273">
        <ele>237.8</ele>
        <time>2023-05-27T12:12:43Z</time>
      </trkpt>
      <trkpt lat="43.45659" lon="2.00273">
        <ele>237.8</ele>
        <time>2023-05-27T12:12:44Z</time>
      </trkpt>
      <trkpt lat="43.4566" lon="2.00273">
        <ele>237.8</ele>
        <time>2023-05-27T12:12:45Z</time>
      </trkpt>
      <trkpt lat="43.45661" lon="2.00272">
        <ele>237.8</ele>
        <time>2023-05-27T12:12:46Z</time>
      </trkpt>
      <trkpt lat="43.4566" lon="2.00272">
        <ele>237.8</ele>
        <time>2023-05-27T12:12:47Z</time>
      </trkpt>
      <trkpt lat="43.4566" lon="2.00271">
        <ele>237.8</ele>
        <time>2023-05-27T12:12:48Z</time>
      </trkpt>
      <trkpt lat="43.4566" lon="2.00271">
        <ele>237.8</ele>
        <time>2023-05-27T12:12:49Z</time>
      </trkpt>
      <trkpt lat="43.45658" lon="2.0027">
        <ele>237.8</ele>
        <time>2023-05-27T12:12:50Z</time>
      </trkpt>
      <trkpt lat="43.45658" lon="2.00268">
        <ele>238</ele>
        <time>2023-05-27T12:12:51Z</time>
      </trkpt>
      <trkpt lat="43.45655" lon="2.0027">
        <ele>238</ele>
        <time>2023-05-27T12:12:52Z</time>
      </trkpt>
      <trkpt lat="43.45658" lon="2.00267">
        <ele>238</ele>
        <time>2023-05-27T12:12:53Z</time>
      </trkpt>
      <trkpt lat="43.4566" lon="2.00264">
        <ele>238</ele>
        <time>2023-05-27T12:12:54Z</time>
      </trkpt>
      <trkpt lat="43.45662" lon="2.00262">
        <ele>238</ele>
        <time>2023-05-27T12:12:55Z</time>
      </trkpt>
      <trkpt lat="43.45664" lon="2.00262">
        <ele>238</ele>
        <time>2023-05-27T12:12:56Z</time>
      </trkpt>
      <trkpt lat="43.45664" lon="2.00262">
        <ele>238</ele>
        <time>2023-05-27T12:12:57Z</time>
      </trkpt>
      <trkpt lat="43.45662" lon="2.00263">
        <ele>238</ele>
        <time>2023-05-27T12:12:58Z</time>
      </trkpt>
      <trkpt lat="43.45658" lon="2.00266">
        <ele>238</ele>
        <time>2023-05-27T12:12:59Z</time>
      </trkpt>
      <trkpt lat="43.4566" lon="2.00262">
        <ele>237.8</ele>
        <time>2023-05-27T12:13:00Z</time>
      </trkpt>
      <trkpt lat="43.45655" lon="2.00264">
        <ele>237.8</ele>
        <time>2023-05-27T12:13:01Z</time>
      </trkpt>
      <trkpt lat="43.45653" lon="2.00265">
        <ele>237.8</ele>
        <time>2023-05-27T12:13:02Z</time>
      </trkpt>
      <trkpt lat="43.45658" lon="2.00264">
        <ele>237.8</ele>
        <time>2023-05-27T12:13:03Z</time>
      </trkpt>
      <trkpt lat="43.45662" lon="2.00262">
        <ele>237.8</ele>
        <time>2023-05-27T12:13:04Z</time>
      </trkpt>
      <trkpt lat="43.45663" lon="2.00262">
        <ele>237.8</ele>
        <time>2023-05-27T12:13:05Z</time>
      </trkpt>
      <trkpt lat="43.45666" lon="2.00262">
        <ele>237.8</ele>
        <time>2023-05-27T12:13:06Z</time>
      </trkpt>
      <trkpt lat="43.45667" lon="2.00263">
        <ele>237.8</ele>
        <time>2023-05-27T12:13:07Z</time>
      </trkpt>
      <trkpt lat="43.4567" lon="2.00264">
        <ele>237.8</ele>
        <time>2023-05-27T12:13:08Z</time>
      </trkpt>
      <trkpt lat="43.4567" lon="2.00264">
        <ele>237.8</ele>
        <time>2023-05-27T12:13:09Z</time>
      </trkpt>
      <trkpt lat="43.4567" lon="2.00264">
        <ele>237.8</ele>
        <time>2023-05-27T12:13:10Z</time>
      </trkpt>
      <trkpt lat="43.45667" lon="2.00265">
        <ele>237.8</ele>
        <time>2023-05-27T12:13:11Z</time>
      </trkpt>
      <trkpt lat="43.45661" lon="2.00267">
        <ele>237.8</ele>
        <time>2023-05-27T12:13:12Z</time>
      </trkpt>
      <trkpt lat="43.45653" lon="2.0027">
        <ele>237.8</ele>
        <time>2023-05-27T12:13:13Z</time>
      </trkpt>
      <trkpt lat="43.45648" lon="2.00274">
        <ele>237.8</ele>
        <time>2023-05-27T12:13:14Z</time>
      </trkpt>
      <trkpt lat="43.45646" lon="2.0028">
        <ele>237.8</ele>
        <time>2023-05-27T12:13:15Z</time>
      </trkpt>
      <trkpt lat="43.45645" lon="2.00281">
        <ele>237.6</ele>
        <time>2023-05-27T12:13:16Z</time>
      </trkpt>
      <trkpt lat="43.45645" lon="2.00281">
        <ele>237.6</ele>
        <time>2023-05-27T12:13:17Z</time>
      </trkpt>
      <trkpt lat="43.45644" lon="2.00279">
        <ele>237.6</ele>
        <time>2023-05-27T12:13:18Z</time>
      </trkpt>
      <trkpt lat="43.45643" lon="2.00278">
        <ele>237.6</ele>
        <time>2023-05-27T12:13:19Z</time>
      </trkpt>
      <trkpt lat="43.45641" lon="2.00275">
        <ele>237.6</ele>
        <time>2023-05-27T12:13:20Z</time>
      </trkpt>
      <trkpt lat="43.45639" lon="2.00275">
        <ele>237.6</ele>
        <time>2023-05-27T12:13:21Z</time>
      </trkpt>
      <trkpt lat="43.45636" lon="2.00275">
        <ele>237.8</ele>
        <time>2023-05-27T12:13:22Z</time>
      </trkpt>
      <trkpt lat="43.45634" lon="2.00274">
        <ele>237.8</ele>
        <time>2023-05-27T12:13:23Z</time>
      </trkpt>
      <trkpt lat="43.45632" lon="2.00271">
        <ele>237.8</ele>
        <time>2023-05-27T12:13:24Z</time>
      </trkpt>
      <trkpt lat="43.45633" lon="2.00269">
        <ele>237.8</ele>
        <time>2023-05-27T12:13:25Z</time>
      </trkpt>
      <trkpt lat="43.45635" lon="2.00267">
        <ele>237.8</ele>
        <time>2023-05-27T12:13:26Z</time>
      </trkpt>
      <trkpt lat="43.45636" lon="2.00265">
        <ele>237.8</ele>
        <time>2023-05-27T12:13:27Z</time>
      </trkpt>
      <trkpt lat="43.45636" lon="2.00266">
        <ele>237.8</ele>
        <time>2023-05-27T12:13:28Z</time>
      </trkpt>
      <trkpt lat="43.45637" lon="2.00266">
        <ele>237.8</ele>
        <time>2023-05-27T12:13:29Z</time>
      </trkpt>
      <trkpt lat="43.45636" lon="2.00266">
        <ele>237.8</ele>
        <time>2023-05-27T12:13:30Z</time>
      </trkpt>
      <trkpt lat="43.45636" lon="2.00265">
        <ele>237.8</ele>
        <time>2023-05-27T12:13:31Z</time>
      </trkpt>
      <trkpt lat="43.45639" lon="2.00257">
        <ele>237.8</ele>
        <time>2023-05-27T12:13:32Z</time>
      </trkpt>
      <trkpt lat="43.45642" lon="2.00255">
        <ele>237.8</ele>
        <time>2023-05-27T12:13:33Z</time>
      </trkpt>
      <trkpt lat="43.45645" lon="2.00254">
        <ele>237.8</ele>
        <time>2023-05-27T12:13:34Z</time>
      </trkpt>
      <trkpt lat="43.45649" lon="2.00253">
        <ele>237.8</ele>
        <time>2023-05-27T12:13:35Z</time>
      </trkpt>
      <trkpt lat="43.45651" lon="2.00252">
        <ele>237.8</ele>
        <time>2023-05-27T12:13:36Z</time>
      </trkpt>
      <trkpt lat="43.45656" lon="2.00249">
        <ele>237.8</ele>
        <time>2023-05-27T12:13:37Z</time>
      </trkpt>
      <trkpt lat="43.45663" lon="2.00242">
        <ele>237.8</ele>
        <time>2023-05-27T12:13:38Z</time>
      </trkpt>
      <trkpt lat="43.45667" lon="2.00237">
        <ele>237.8</ele>
        <time>2023-05-27T12:13:39Z</time>
      </trkpt>
      <trkpt lat="43.4567" lon="2.00232">
        <ele>237.8</ele>
        <time>2023-05-27T12:13:40Z</time>
      </trkpt>
      <trkpt lat="43.45673" lon="2.00228">
        <ele>237.8</ele>
        <time>2023-05-27T12:13:41Z</time>
      </trkpt>
      <trkpt lat="43.45674" lon="2.00226">
        <ele>237.8</ele>
        <time>2023-05-27T12:13:42Z</time>
      </trkpt>
      <trkpt lat="43.45675" lon="2.00228">
        <ele>237.8</ele>
        <time>2023-05-27T12:13:43Z</time>
      </trkpt>
      <trkpt lat="43.45677" lon="2.00228">
        <ele>237.8</ele>
        <time>2023-05-27T12:13:44Z</time>
      </trkpt>
      <trkpt lat="43.45678" lon="2.00227">
        <ele>237.8</ele>
        <time>2023-05-27T12:13:45Z</time>
      </trkpt>
      <trkpt lat="43.45674" lon="2.00231">
        <ele>237.8</ele>
        <time>2023-05-27T12:13:46Z</time>
      </trkpt>
      <trkpt lat="43.45673" lon="2.00233">
        <ele>237.8</ele>
        <time>2023-05-27T12:13:47Z</time>
      </trkpt>
      <trkpt lat="43.45672" lon="2.00234">
        <ele>237.8</ele>
        <time>2023-05-27T12:13:48Z</time>
      </trkpt>
      <trkpt lat="43.45672" lon="2.00235">
        <ele>237.8</ele>
        <time>2023-05-27T12:13:49Z</time>
      </trkpt>
      <trkpt lat="43.45671" lon="2.00237">
        <ele>237.8</ele>
        <time>2023-05-27T12:13:50Z</time>
      </trkpt>
      <trkpt lat="43.45674" lon="2.00234">
        <ele>237.8</ele>
        <time>2023-05-27T12:13:51Z</time>
      </trkpt>
      <trkpt lat="43.45678" lon="2.00233">
        <ele>237.8</ele>
        <time>2023-05-27T12:13:52Z</time>
      </trkpt>
      <trkpt lat="43.45681" lon="2.0023">
        <ele>237.8</ele>
        <time>2023-05-27T12:13:53Z</time>
      </trkpt>
      <trkpt lat="43.45667" lon="2.00237">
        <ele>237.8</ele>
        <time>2023-05-27T12:13:54Z</time>
      </trkpt>
      <trkpt lat="43.45665" lon="2.00237">
        <ele>237.8</ele>
        <time>2023-05-27T12:13:55Z</time>
      </trkpt>
      <trkpt lat="43.45665" lon="2.00237">
        <ele>237.8</ele>
        <time>2023-05-27T12:13:56Z</time>
      </trkpt>
      <trkpt lat="43.45664" lon="2.00237">
        <ele>237.8</ele>
        <time>2023-05-27T12:13:57Z</time>
      </trkpt>
      <trkpt lat="43.45663" lon="2.00238">
        <ele>237.8</ele>
        <time>2023-05-27T12:13:58Z</time>
      </trkpt>
      <trkpt lat="43.45663" lon="2.00239">
        <ele>237.8</ele>
        <time>2023-05-27T12:13:59Z</time>
      </trkpt>
      <trkpt lat="43.45663" lon="2.00239">
        <ele>237.8</ele>
        <time>2023-05-27T12:14:00Z</time>
      </trkpt>
      <trkpt lat="43.45663" lon="2.00242">
        <ele>237.8</ele>
        <time>2023-05-27T12:14:01Z</time>
      </trkpt>
      <trkpt lat="43.45663" lon="2.00247">
        <ele>237.8</ele>
        <time>2023-05-27T12:14:02Z</time>
      </trkpt>
      <trkpt lat="43.45662" lon="2.00247">
        <ele>237.8</ele>
        <time>2023-05-27T12:14:03Z</time>
      </trkpt>
      <trkpt lat="43.45662" lon="2.00246">
        <ele>237.8</ele>
        <time>2023-05-27T12:14:04Z</time>
      </trkpt>
      <trkpt lat="43.45662" lon="2.00246">
        <ele>237.8</ele>
        <time>2023-05-27T12:14:05Z</time>
      </trkpt>
      <trkpt lat="43.45663" lon="2.00246">
        <ele>237.8</ele>
        <time>2023-05-27T12:14:06Z</time>
      </trkpt>
      <trkpt lat="43.45664" lon="2.00246">
        <ele>237.8</ele>
        <time>2023-05-27T12:14:07Z</time>
      </trkpt>
      <trkpt lat="43.45664" lon="2.00246">
        <ele>237.8</ele>
        <time>2023-05-27T12:14:08Z</time>
      </trkpt>
      <trkpt lat="43.45668" lon="2.00242">
        <ele>237.8</ele>
        <time>2023-05-27T12:14:16Z</time>
      </trkpt>
      <trkpt lat="43.45668" lon="2.00245">
        <ele>237.8</ele>
        <time>2023-05-27T12:14:17Z</time>
      </trkpt>
      <trkpt lat="43.45669" lon="2.00241">
        <ele>237.8</ele>
        <time>2023-05-27T12:14:18Z</time>
      </trkpt>
      <trkpt lat="43.45669" lon="2.00241">
        <ele>237.8</ele>
        <time>2023-05-27T12:14:19Z</time>
      </trkpt>
      <trkpt lat="43.45668" lon="2.00243">
        <ele>237.8</ele>
        <time>2023-05-27T12:14:20Z</time>
      </trkpt>
      <trkpt lat="43.45668" lon="2.00243">
        <ele>237.8</ele>
        <time>2023-05-27T12:14:21Z</time>
      </trkpt>
      <trkpt lat="43.45668" lon="2.00243">
        <ele>237.8</ele>
        <time>2023-05-27T12:14:22Z</time>
      </trkpt>
      <trkpt lat="43.45668" lon="2.00249">
        <ele>237.8</ele>
        <time>2023-05-27T12:14:23Z</time>
      </trkpt>
      <trkpt lat="43.45667" lon="2.0025">
        <ele>237.8</ele>
        <time>2023-05-27T12:14:24Z</time>
      </trkpt>
      <trkpt lat="43.45667" lon="2.00251">
        <ele>237.8</ele>
        <time>2023-05-27T12:14:25Z</time>
      </trkpt>
      <trkpt lat="43.45666" lon="2.00251">
        <ele>237.8</ele>
        <time>2023-05-27T12:14:26Z</time>
      </trkpt>
      <trkpt lat="43.45665" lon="2.00253">
        <ele>237.8</ele>
        <time>2023-05-27T12:14:27Z</time>
      </trkpt>
      <trkpt lat="43.45666" lon="2.00252">
        <ele>237.8</ele>
        <time>2023-05-27T12:14:43Z</time>
      </trkpt>
      <trkpt lat="43.45668" lon="2.00254">
        <ele>237.8</ele>
        <time>2023-05-27T12:14:44Z</time>
      </trkpt>
      <trkpt lat="43.45669" lon="2.00254">
        <ele>237.8</ele>
        <time>2023-05-27T12:14:45Z</time>
      </trkpt>
      <trkpt lat="43.45669" lon="2.00254">
        <ele>237.8</ele>
        <time>2023-05-27T12:14:46Z</time>
      </trkpt>
      <trkpt lat="43.4567" lon="2.00254">
        <ele>237.8</ele>
        <time>2023-05-27T12:14:47Z</time>
      </trkpt>
      <trkpt lat="43.45669" lon="2.00256">
        <ele>237.8</ele>
        <time>2023-05-27T12:14:48Z</time>
      </trkpt>
      <trkpt lat="43.45668" lon="2.00257">
        <ele>237.8</ele>
        <time>2023-05-27T12:14:49Z</time>
      </trkpt>
      <trkpt lat="43.45667" lon="2.0026">
        <ele>237.8</ele>
        <time>2023-05-27T12:14:50Z</time>
      </trkpt>
      <trkpt lat="43.45666" lon="2.00262">
        <ele>237.8</ele>
        <time>2023-05-27T12:14:51Z</time>
      </trkpt>
      <trkpt lat="43.45665" lon="2.00266">
        <ele>237.8</ele>
        <time>2023-05-27T12:14:52Z</time>
      </trkpt>
      <trkpt lat="43.4565" lon="2.00267">
        <ele>237.8</ele>
        <time>2023-05-27T12:15:44Z</time>
      </trkpt>
      <trkpt lat="43.45649" lon="2.00266">
        <ele>237.8</ele>
        <time>2023-05-27T12:15:45Z</time>
      </trkpt>
      <trkpt lat="43.45649" lon="2.00266">
        <ele>237.8</ele>
        <time>2023-05-27T12:15:46Z</time>
      </trkpt>
      <trkpt lat="43.45648" lon="2.00266">
        <ele>237.8</ele>
        <time>2023-05-27T12:15:47Z</time>
      </trkpt>
      <trkpt lat="43.45648" lon="2.00267">
        <ele>237.8</ele>
        <time>2023-05-27T12:15:48Z</time>
      </trkpt>
      <trkpt lat="43.45648" lon="2.00267">
        <ele>237.8</ele>
        <time>2023-05-27T12:15:49Z</time>
      </trkpt>
      <trkpt lat="43.45648" lon="2.00268">
        <ele>238</ele>
        <time>2023-05-27T12:15:50Z</time>
      </trkpt>
      <trkpt lat="43.45649" lon="2.00268">
        <ele>238</ele>
        <time>2023-05-27T12:15:51Z</time>
      </trkpt>
      <trkpt lat="43.45649" lon="2.00269">
        <ele>238</ele>
        <time>2023-05-27T12:15:53Z</time>
      </trkpt>
      <trkpt lat="43.4565" lon="2.00267">
        <ele>238</ele>
        <time>2023-05-27T12:15:54Z</time>
      </trkpt>
      <trkpt lat="43.45649" lon="2.00265">
        <ele>238</ele>
        <time>2023-05-27T12:15:55Z</time>
      </trkpt>
      <trkpt lat="43.4565" lon="2.00262">
        <ele>238</ele>
        <time>2023-05-27T12:15:56Z</time>
      </trkpt>
      <trkpt lat="43.4565" lon="2.00261">
        <ele>238</ele>
        <time>2023-05-27T12:15:57Z</time>
      </trkpt>
      <trkpt lat="43.45652" lon="2.00257">
        <ele>238</ele>
        <time>2023-05-27T12:15:58Z</time>
      </trkpt>
      <trkpt lat="43.45653" lon="2.00254">
        <ele>238</ele>
        <time>2023-05-27T12:15:59Z</time>
      </trkpt>
      <trkpt lat="43.45654" lon="2.00256">
        <ele>238</ele>
        <time>2023-05-27T12:16:00Z</time>
      </trkpt>
      <trkpt lat="43.45654" lon="2.00258">
        <ele>238</ele>
        <time>2023-05-27T12:16:01Z</time>
      </trkpt>
      <trkpt lat="43.45656" lon="2.00258">
        <ele>238</ele>
        <time>2023-05-27T12:16:02Z</time>
      </trkpt>
      <trkpt lat="43.45655" lon="2.00259">
        <ele>238</ele>
        <time>2023-05-27T12:16:03Z</time>
      </trkpt>
      <trkpt lat="43.45655" lon="2.00259">
        <ele>238</ele>
        <time>2023-05-27T12:16:04Z</time>
      </trkpt>
      <trkpt lat="43.45654" lon="2.0026">
        <ele>238</ele>
        <time>2023-05-27T12:16:05Z</time>
      </trkpt>
      <trkpt lat="43.45654" lon="2.00261">
        <ele>238</ele>
        <time>2023-05-27T12:16:06Z</time>
      </trkpt>
      <trkpt lat="43.45652" lon="2.00264">
        <ele>238</ele>
        <time>2023-05-27T12:16:07Z</time>
      </trkpt>
      <trkpt lat="43.45652" lon="2.00265">
        <ele>238</ele>
        <time>2023-05-27T12:16:08Z</time>
      </trkpt>
      <trkpt lat="43.45652" lon="2.00266">
        <ele>238</ele>
        <time>2023-05-27T12:16:09Z</time>
      </trkpt>
      <trkpt lat="43.45652" lon="2.00268">
        <ele>238</ele>
        <time>2023-05-27T12:16:10Z</time>
      </trkpt>
      <trkpt lat="43.45651" lon="2.00274">
        <ele>238</ele>
        <time>2023-05-27T12:16:12Z</time>
      </trkpt>
      <trkpt lat="43.45649" lon="2.00276">
        <ele>238</ele>
        <time>2023-05-27T12:16:13Z</time>
      </trkpt>
      <trkpt lat="43.45648" lon="2.00275">
        <ele>238</ele>
        <time>2023-05-27T12:16:14Z</time>
      </trkpt>
      <trkpt lat="43.45647" lon="2.00271">
        <ele>238</ele>
        <time>2023-05-27T12:16:15Z</time>
      </trkpt>
      <trkpt lat="43.45645" lon="2.0027">
        <ele>238</ele>
        <time>2023-05-27T12:16:16Z</time>
      </trkpt>
      <trkpt lat="43.45644" lon="2.0027">
        <ele>238</ele>
        <time>2023-05-27T12:16:17Z</time>
      </trkpt>
      <trkpt lat="43.45643" lon="2.0027">
        <ele>238.2</ele>
        <time>2023-05-27T12:16:18Z</time>
      </trkpt>
      <trkpt lat="43.4564" lon="2.00272">
        <ele>238.2</ele>
        <time>2023-05-27T12:16:19Z</time>
      </trkpt>
      <trkpt lat="43.45638" lon="2.00275">
        <ele>238.2</ele>
        <time>2023-05-27T12:16:20Z</time>
      </trkpt>
      <trkpt lat="43.45636" lon="2.00278">
        <ele>238.2</ele>
        <time>2023-05-27T12:16:21Z</time>
      </trkpt>
      <trkpt lat="43.45633" lon="2.00279">
        <ele>238.2</ele>
        <time>2023-05-27T12:16:22Z</time>
      </trkpt>
      <trkpt lat="43.45644" lon="2.00254">
        <ele>238.2</ele>
        <time>2023-05-27T12:17:32Z</time>
      </trkpt>
      <trkpt lat="43.45645" lon="2.00253">
        <ele>238.2</ele>
        <time>2023-05-27T12:17:33Z</time>
      </trkpt>
      <trkpt lat="43.45652" lon="2.00245">
        <ele>238.2</ele>
        <time>2023-05-27T12:17:34Z</time>
      </trkpt>
      <trkpt lat="43.45654" lon="2.00241">
        <ele>238.2</ele>
        <time>2023-05-27T12:17:35Z</time>
      </trkpt>
      <trkpt lat="43.45655" lon="2.00239">
        <ele>238.2</ele>
        <time>2023-05-27T12:17:36Z</time>
      </trkpt>
      <trkpt lat="43.45656" lon="2.00237">
        <ele>238.2</ele>
        <time>2023-05-27T12:17:37Z</time>
      </trkpt>
      <trkpt lat="43.45657" lon="2.00235">
        <ele>238.2</ele>
        <time>2023-05-27T12:17:38Z</time>
      </trkpt>
      <trkpt lat="43.45661" lon="2.00233">
        <ele>238.2</ele>
        <time>2023-05-27T12:17:39Z</time>
      </trkpt>
      <trkpt lat="43.45664" lon="2.00233">
        <ele>238.2</ele>
        <time>2023-05-27T12:17:40Z</time>
      </trkpt>
      <trkpt lat="43.45665" lon="2.00233">
        <ele>238.2</ele>
        <time>2023-05-27T12:17:41Z</time>
      </trkpt>
      <trkpt lat="43.45667" lon="2.00233">
        <ele>238.2</ele>
        <time>2023-05-27T12:17:42Z</time>
      </trkpt>
      <trkpt lat="43.45632" lon="2.00249">
        <ele>238.2</ele>
        <time>2023-05-27T12:18:34Z</time>
      </trkpt>
      <trkpt lat="43.4563" lon="2.00248">
        <ele>238.2</ele>
        <time>2023-05-27T12:18:35Z</time>
      </trkpt>
      <trkpt lat="43.45631" lon="2.00246">
        <ele>238.2</ele>
        <time>2023-05-27T12:18:36Z</time>
      </trkpt>
      <trkpt lat="43.45631" lon="2.00246">
        <ele>238.2</ele>
        <time>2023-05-27T12:18:37Z</time>
      </trkpt>
      <trkpt lat="43.4563" lon="2.00246">
        <ele>238.2</ele>
        <time>2023-05-27T12:18:38Z</time>
      </trkpt>
      <trkpt lat="43.4563" lon="2.00246">
        <ele>238.2</ele>
        <time>2023-05-27T12:18:39Z</time>
      </trkpt>
      <trkpt lat="43.4563" lon="2.00246">
        <ele>238.2</ele>
        <time>2023-05-27T12:18:40Z</time>
      </trkpt>
      <trkpt lat="43.45629" lon="2.00246">
        <ele>238.2</ele>
        <time>2023-05-27T12:18:41Z</time>
      </trkpt>
      <trkpt lat="43.45631" lon="2.00246">
        <ele>238.2</ele>
        <time>2023-05-27T12:18:42Z</time>
      </trkpt>
      <trkpt lat="43.45631" lon="2.00245">
        <ele>238.2</ele>
        <time>2023-05-27T12:18:43Z</time>
      </trkpt>
      <trkpt lat="43.45631" lon="2.00244">
        <ele>238.2</ele>
        <time>2023-05-27T12:18:44Z</time>
      </trkpt>
      <trkpt lat="43.45631" lon="2.00242">
        <ele>238.2</ele>
        <time>2023-05-27T12:18:45Z</time>
      </trkpt>
      <trkpt lat="43.45625" lon="2.00305">
        <ele>238.4</ele>
        <time>2023-05-27T12:20:11Z</time>
      </trkpt>
      <trkpt lat="43.45628" lon="2.00301">
        <ele>238.4</ele>
        <time>2023-05-27T12:20:12Z</time>
      </trkpt>
      <trkpt lat="43.45618" lon="2.00308">
        <ele>238.4</ele>
        <time>2023-05-27T12:20:13Z</time>
      </trkpt>
      <trkpt lat="43.45616" lon="2.00307">
        <ele>238.4</ele>
        <time>2023-05-27T12:20:14Z</time>
      </trkpt>
      <trkpt lat="43.45623" lon="2.0029">
        <ele>238.4</ele>
        <time>2023-05-27T12:20:15Z</time>
      </trkpt>
      <trkpt lat="43.4562" lon="2.00293">
        <ele>238.4</ele>
        <time>2023-05-27T12:20:16Z</time>
      </trkpt>
      <trkpt lat="43.45613" lon="2.00302">
        <ele>238.4</ele>
        <time>2023-05-27T12:20:17Z</time>
      </trkpt>
      <trkpt lat="43.45615" lon="2.00301">
        <ele>238.4</ele>
        <time>2023-05-27T12:20:18Z</time>
      </trkpt>
      <trkpt lat="43.45617" lon="2.00301">
        <ele>238.6</ele>
        <time>2023-05-27T12:20:19Z</time>
      </trkpt>
      <trkpt lat="43.45628" lon="2.00292">
        <ele>238.6</ele>
        <time>2023-05-27T12:20:20Z</time>
      </trkpt>
      <trkpt lat="43.4565" lon="2.00286">
        <ele>238.6</ele>
        <time>2023-05-27T12:20:21Z</time>
      </trkpt>
      <trkpt lat="43.45659" lon="2.00278">
        <ele>238.6</ele>
        <time>2023-05-27T12:20:22Z</time>
      </trkpt>
      <trkpt lat="43.4566" lon="2.00276">
        <ele>238.6</ele>
        <time>2023-05-27T12:20:23Z</time>
      </trkpt>
      <trkpt lat="43.45659" lon="2.00275">
        <ele>238.6</ele>
        <time>2023-05-27T12:20:24Z</time>
      </trkpt>
      <trkpt lat="43.4566" lon="2.00275">
        <ele>238.6</ele>
        <time>2023-05-27T12:20:25Z</time>
      </trkpt>
      <trkpt lat="43.45662" lon="2.00276">
        <ele>238.4</ele>
        <time>2023-05-27T12:20:26Z</time>
      </trkpt>
      <trkpt lat="43.45664" lon="2.00276">
        <ele>238.4</ele>
        <time>2023-05-27T12:20:27Z</time>
      </trkpt>
      <trkpt lat="43.45667" lon="2.00277">
        <ele>238.4</ele>
        <time>2023-05-27T12:20:28Z</time>
      </trkpt>
      <trkpt lat="43.45669" lon="2.00277">
        <ele>238.4</ele>
        <time>2023-05-27T12:20:29Z</time>
      </trkpt>
      <trkpt lat="43.4567" lon="2.00277">
        <ele>238.4</ele>
        <time>2023-05-27T12:20:30Z</time>
      </trkpt>
      <trkpt lat="43.45674" lon="2.00277">
        <ele>238.4</ele>
        <time>2023-05-27T12:20:31Z</time>
      </trkpt>
      <trkpt lat="43.45675" lon="2.00277">
        <ele>238.4</ele>
        <time>2023-05-27T12:20:32Z</time>
      </trkpt>
      <trkpt lat="43.45674" lon="2.00277">
        <ele>238.4</ele>
        <time>2023-05-27T12:20:33Z</time>
      </trkpt>
      <trkpt lat="43.45674" lon="2.00277">
        <ele>238.4</ele>
        <time>2023-05-27T12:20:34Z</time>
      </trkpt>
      <trkpt lat="43.45673" lon="2.00276">
        <ele>238.4</ele>
        <time>2023-05-27T12:20:35Z</time>
      </trkpt>
      <trkpt lat="43.45672" lon="2.00276">
        <ele>238.4</ele>
        <time>2023-05-27T12:20:36Z</time>
      </trkpt>
      <trkpt lat="43.45673" lon="2.00275">
        <ele>238.4</ele>
        <time>2023-05-27T12:20:37Z</time>
      </trkpt>
      <trkpt lat="43.45674" lon="2.00274">
        <ele>238.4</ele>
        <time>2023-05-27T12:20:38Z</time>
      </trkpt>
      <trkpt lat="43.45671" lon="2.00274">
        <ele>238.6</ele>
        <time>2023-05-27T12:20:39Z</time>
      </trkpt>
      <trkpt lat="43.45669" lon="2.00274">
        <ele>238.6</ele>
        <time>2023-05-27T12:20:40Z</time>
      </trkpt>
      <trkpt lat="43.45666" lon="2.00273">
        <ele>238.6</ele>
        <time>2023-05-27T12:20:41Z</time>
      </trkpt>
      <trkpt lat="43.45665" lon="2.00272">
        <ele>238.6</ele>
        <time>2023-05-27T12:20:42Z</time>
      </trkpt>
      <trkpt lat="43.45664" lon="2.00271">
        <ele>238.6</ele>
        <time>2023-05-27T12:20:43Z</time>
      </trkpt>
      <trkpt lat="43.45663" lon="2.0027">
        <ele>238.6</ele>
        <time>2023-05-27T12:20:44Z</time>
      </trkpt>
      <trkpt lat="43.45661" lon="2.00271">
        <ele>238.6</ele>
        <time>2023-05-27T12:20:45Z</time>
      </trkpt>
      <trkpt lat="43.45659" lon="2.00272">
        <ele>238.6</ele>
        <time>2023-05-27T12:20:46Z</time>
      </trkpt>
      <trkpt lat="43.45656" lon="2.00272">
        <ele>238.4</ele>
        <time>2023-05-27T12:20:47Z</time>
      </trkpt>
      <trkpt lat="43.45652" lon="2.00272">
        <ele>238.4</ele>
        <time>2023-05-27T12:20:48Z</time>
      </trkpt>
      <trkpt lat="43.45651" lon="2.00272">
        <ele>238.4</ele>
        <time>2023-05-27T12:20:49Z</time>
      </trkpt>
      <trkpt lat="43.45651" lon="2.00272">
        <ele>238.4</ele>
        <time>2023-05-27T12:20:50Z</time>
      </trkpt>
      <trkpt lat="43.4565" lon="2.00273">
        <ele>238.4</ele>
        <time>2023-05-27T12:20:51Z</time>
      </trkpt>
      <trkpt lat="43.4565" lon="2.00273">
        <ele>238.6</ele>
        <time>2023-05-27T12:20:52Z</time>
      </trkpt>
      <trkpt lat="43.45651" lon="2.00274">
        <ele>238.6</ele>
        <time>2023-05-27T12:20:53Z</time>
      </trkpt>
      <trkpt lat="43.45651" lon="2.00275">
        <ele>238.6</ele>
        <time>2023-05-27T12:20:54Z</time>
      </trkpt>
      <trkpt lat="43.4565" lon="2.00276">
        <ele>238.6</ele>
        <time>2023-05-27T12:20:55Z</time>
      </trkpt>
      <trkpt lat="43.4565" lon="2.00277">
        <ele>238.6</ele>
        <time>2023-05-27T12:20:56Z</time>
      </trkpt>
      <trkpt lat="43.45651" lon="2.00278">
        <ele>238.6</ele>
        <time>2023-05-27T12:20:57Z</time>
      </trkpt>
      <trkpt lat="43.45652" lon="2.0028">
        <ele>238.6</ele>
        <time>2023-05-27T12:20:58Z</time>
      </trkpt>
      <trkpt lat="43.45653" lon="2.00282">
        <ele>238.6</ele>
        <time>2023-05-27T12:20:59Z</time>
      </trkpt>
      <trkpt lat="43.45652" lon="2.00288">
        <ele>238.6</ele>
        <time>2023-05-27T12:21:00Z</time>
      </trkpt>
      <trkpt lat="43.45652" lon="2.00289">
        <ele>238.6</ele>
        <time>2023-05-27T12:21:01Z</time>
      </trkpt>
      <trkpt lat="43.45653" lon="2.00289">
        <ele>238.6</ele>
        <time>2023-05-27T12:21:02Z</time>
      </trkpt>
      <trkpt lat="43.45654" lon="2.00289">
        <ele>238.6</ele>
        <time>2023-05-27T12:21:03Z</time>
      </trkpt>
      <trkpt lat="43.45653" lon="2.00288">
        <ele>238.6</ele>
        <time>2023-05-27T12:21:04Z</time>
      </trkpt>
      <trkpt lat="43.45652" lon="2.00288">
        <ele>238.6</ele>
        <time>2023-05-27T12:21:05Z</time>
      </trkpt>
      <trkpt lat="43.45652" lon="2.00289">
        <ele>238.6</ele>
        <time>2023-05-27T12:21:06Z</time>
      </trkpt>
      <trkpt lat="43.45651" lon="2.0029">
        <ele>238.6</ele>
        <time>2023-05-27T12:21:07Z</time>
      </trkpt>
      <trkpt lat="43.4565" lon="2.00291">
        <ele>238.6</ele>
        <time>2023-05-27T12:21:08Z</time>
      </trkpt>
      <trkpt lat="43.45649" lon="2.0029">
        <ele>238.6</ele>
        <time>2023-05-27T12:21:09Z</time>
      </trkpt>
      <trkpt lat="43.45648" lon="2.00289">
        <ele>238.6</ele>
        <time>2023-05-27T12:21:10Z</time>
      </trkpt>
      <trkpt lat="43.45648" lon="2.00286">
        <ele>238.6</ele>
        <time>2023-05-27T12:21:11Z</time>
      </trkpt>
      <trkpt lat="43.45647" lon="2.00283">
        <ele>238.6</ele>
        <time>2023-05-27T12:21:12Z</time>
      </trkpt>
      <trkpt lat="43.45646" lon="2.00282">
        <ele>238.6</ele>
        <time>2023-05-27T12:21:13Z</time>
      </trkpt>
      <trkpt lat="43.45645" lon="2.00281">
        <ele>238.6</ele>
        <time>2023-05-27T12:21:14Z</time>
      </trkpt>
      <trkpt lat="43.45644" lon="2.0028">
        <ele>238.6</ele>
        <time>2023-05-27T12:21:15Z</time>
      </trkpt>
      <trkpt lat="43.45644" lon="2.00279">
        <ele>238.6</ele>
        <time>2023-05-27T12:21:16Z</time>
      </trkpt>
      <trkpt lat="43.45644" lon="2.0028">
        <ele>238.6</ele>
        <time>2023-05-27T12:21:17Z</time>
      </trkpt>
      <trkpt lat="43.45644" lon="2.00282">
        <ele>238.6</ele>
        <time>2023-05-27T12:21:18Z</time>
      </trkpt>
      <trkpt lat="43.45644" lon="2.00284">
        <ele>238.6</ele>
        <time>2023-05-27T12:21:19Z</time>
      </trkpt>
      <trkpt lat="43.45644" lon="2.00287">
        <ele>238.6</ele>
        <time>2023-05-27T12:21:20Z</time>
      </trkpt>
      <trkpt lat="43.45644" lon="2.00289">
        <ele>238.6</ele>
        <time>2023-05-27T12:21:21Z</time>
      </trkpt>
      <trkpt lat="43.45644" lon="2.0029">
        <ele>238.6</ele>
        <time>2023-05-27T12:21:22Z</time>
      </trkpt>
      <trkpt lat="43.45643" lon="2.00288">
        <ele>238.6</ele>
        <time>2023-05-27T12:21:23Z</time>
      </trkpt>
      <trkpt lat="43.45641" lon="2.00284">
        <ele>238.6</ele>
        <time>2023-05-27T12:21:24Z</time>
      </trkpt>
      <trkpt lat="43.45639" lon="2.00279">
        <ele>238.6</ele>
        <time>2023-05-27T12:21:25Z</time>
      </trkpt>
      <trkpt lat="43.4564" lon="2.00278">
        <ele>238.6</ele>
        <time>2023-05-27T12:21:26Z</time>
      </trkpt>
      <trkpt lat="43.4564" lon="2.00276">
        <ele>238.6</ele>
        <time>2023-05-27T12:21:27Z</time>
      </trkpt>
      <trkpt lat="43.4564" lon="2.00273">
        <ele>238.8</ele>
        <time>2023-05-27T12:21:28Z</time>
      </trkpt>
      <trkpt lat="43.4564" lon="2.00271">
        <ele>238.6</ele>
        <time>2023-05-27T12:21:29Z</time>
      </trkpt>
      <trkpt lat="43.45639" lon="2.00269">
        <ele>238.6</ele>
        <time>2023-05-27T12:21:30Z</time>
      </trkpt>
      <trkpt lat="43.45639" lon="2.00267">
        <ele>238.6</ele>
        <time>2023-05-27T12:21:31Z</time>
      </trkpt>
      <trkpt lat="43.45639" lon="2.00264">
        <ele>238.6</ele>
        <time>2023-05-27T12:21:32Z</time>
      </trkpt>
      <trkpt lat="43.45639" lon="2.00262">
        <ele>238.6</ele>
        <time>2023-05-27T12:21:33Z</time>
      </trkpt>
      <trkpt lat="43.45639" lon="2.0026">
        <ele>238.6</ele>
        <time>2023-05-27T12:21:34Z</time>
      </trkpt>
      <trkpt lat="43.45638" lon="2.00258">
        <ele>238.6</ele>
        <time>2023-05-27T12:21:35Z</time>
      </trkpt>
      <trkpt lat="43.45638" lon="2.00256">
        <ele>238.6</ele>
        <time>2023-05-27T12:21:36Z</time>
      </trkpt>
      <trkpt lat="43.45638" lon="2.00253">
        <ele>238.6</ele>
        <time>2023-05-27T12:21:37Z</time>
      </trkpt>
      <trkpt lat="43.45651" lon="2.00253">
        <ele>238.6</ele>
        <time>2023-05-27T12:22:27Z</time>
      </trkpt>
      <trkpt lat="43.45654" lon="2.00249">
        <ele>238.6</ele>
        <time>2023-05-27T12:22:28Z</time>
      </trkpt>
      <trkpt lat="43.45657" lon="2.00245">
        <ele>238.6</ele>
        <time>2023-05-27T12:22:29Z</time>
      </trkpt>
      <trkpt lat="43.45658" lon="2.00243">
        <ele>238.6</ele>
        <time>2023-05-27T12:22:30Z</time>
      </trkpt>
      <trkpt lat="43.4566" lon="2.00239">
        <ele>238.6</ele>
        <time>2023-05-27T12:22:31Z</time>
      </trkpt>
      <trkpt lat="43.45662" lon="2.00236">
        <ele>238.6</ele>
        <time>2023-05-27T12:22:32Z</time>
      </trkpt>
      <trkpt lat="43.45664" lon="2.00235">
        <ele>238.6</ele>
        <time>2023-05-27T12:22:33Z</time>
      </trkpt>
      <trkpt lat="43.45664" lon="2.00235">
        <ele>238.6</ele>
        <time>2023-05-27T12:22:34Z</time>
      </trkpt>
      <trkpt lat="43.45664" lon="2.00235">
        <ele>238.6</ele>
        <time>2023-05-27T12:22:35Z</time>
      </trkpt>
      <trkpt lat="43.45665" lon="2.00234">
        <ele>238.6</ele>
        <time>2023-05-27T12:22:36Z</time>
      </trkpt>
      <trkpt lat="43.45666" lon="2.00233">
        <ele>238.6</ele>
        <time>2023-05-27T12:22:37Z</time>
      </trkpt>
      <trkpt lat="43.45666" lon="2.00232">
        <ele>238.6</ele>
        <time>2023-05-27T12:22:38Z</time>
      </trkpt>
      <trkpt lat="43.45667" lon="2.00231">
        <ele>238.6</ele>
        <time>2023-05-27T12:22:39Z</time>
      </trkpt>
      <trkpt lat="43.45668" lon="2.00231">
        <ele>238.6</ele>
        <time>2023-05-27T12:22:40Z</time>
      </trkpt>
      <trkpt lat="43.45669" lon="2.0023">
        <ele>238.6</ele>
        <time>2023-05-27T12:22:41Z</time>
      </trkpt>
      <trkpt lat="43.45673" lon="2.00225">
        <ele>238.6</ele>
        <time>2023-05-27T12:22:42Z</time>
      </trkpt>
      <trkpt lat="43.45677" lon="2.0022">
        <ele>238.6</ele>
        <time>2023-05-27T12:22:43Z</time>
      </trkpt>
      <trkpt lat="43.45676" lon="2.00221">
        <ele>238.6</ele>
        <time>2023-05-27T12:22:44Z</time>
      </trkpt>
      <trkpt lat="43.45675" lon="2.00222">
        <ele>238.6</ele>
        <time>2023-05-27T12:22:45Z</time>
      </trkpt>
      <trkpt lat="43.45676" lon="2.0022">
        <ele>238.6</ele>
        <time>2023-05-27T12:22:46Z</time>
      </trkpt>
      <trkpt lat="43.45677" lon="2.00218">
        <ele>238.8</ele>
        <time>2023-05-27T12:22:47Z</time>
      </trkpt>
      <trkpt lat="43.45679" lon="2.00216">
        <ele>238.8</ele>
        <time>2023-05-27T12:22:48Z</time>
      </trkpt>
      <trkpt lat="43.4568" lon="2.00213">
        <ele>238.8</ele>
        <time>2023-05-27T12:22:49Z</time>
      </trkpt>
      <trkpt lat="43.45684" lon="2.0021">
        <ele>238.8</ele>
        <time>2023-05-27T12:22:50Z</time>
      </trkpt>
      <trkpt lat="43.45662" lon="2.00236">
        <ele>238.8</ele>
        <time>2023-05-27T12:22:51Z</time>
      </trkpt>
      <trkpt lat="43.45637" lon="2.00266">
        <ele>238.8</ele>
        <time>2023-05-27T12:22:52Z</time>
      </trkpt>
      <trkpt lat="43.45635" lon="2.00271">
        <ele>238.8</ele>
        <time>2023-05-27T12:22:53Z</time>
      </trkpt>
      <trkpt lat="43.45637" lon="2.00273">
        <ele>239</ele>
        <time>2023-05-27T12:22:54Z</time>
      </trkpt>
      <trkpt lat="43.45637" lon="2.00273">
        <ele>239</ele>
        <time>2023-05-27T12:22:55Z</time>
      </trkpt>
      <trkpt lat="43.45637" lon="2.00273">
        <ele>239</ele>
        <time>2023-05-27T12:22:56Z</time>
      </trkpt>
      <trkpt lat="43.45639" lon="2.00273">
        <ele>239.2</ele>
        <time>2023-05-27T12:22:57Z</time>
      </trkpt>
      <trkpt lat="43.45641" lon="2.00274">
        <ele>239.2</ele>
        <time>2023-05-27T12:22:58Z</time>
      </trkpt>
      <trkpt lat="43.45645" lon="2.00275">
        <ele>239.2</ele>
        <time>2023-05-27T12:22:59Z</time>
      </trkpt>
      <trkpt lat="43.45645" lon="2.00275">
        <ele>239.2</ele>
        <time>2023-05-27T12:23:00Z</time>
      </trkpt>
      <trkpt lat="43.45644" lon="2.00273">
        <ele>239.2</ele>
        <time>2023-05-27T12:23:01Z</time>
      </trkpt>
      <trkpt lat="43.45642" lon="2.00272">
        <ele>239.2</ele>
        <time>2023-05-27T12:23:02Z</time>
      </trkpt>
      <trkpt lat="43.45642" lon="2.00272">
        <ele>239.2</ele>
        <time>2023-05-27T12:23:03Z</time>
      </trkpt>
      <trkpt lat="43.45643" lon="2.00272">
        <ele>239.2</ele>
        <time>2023-05-27T12:23:04Z</time>
      </trkpt>
      <trkpt lat="43.45643" lon="2.00272">
        <ele>239.2</ele>
        <time>2023-05-27T12:23:05Z</time>
      </trkpt>
      <trkpt lat="43.45643" lon="2.00268">
        <ele>238.8</ele>
        <time>2023-05-27T12:24:23Z</time>
      </trkpt>
      <trkpt lat="43.45647" lon="2.00269">
        <ele>238.8</ele>
        <time>2023-05-27T12:24:24Z</time>
      </trkpt>
      <trkpt lat="43.45649" lon="2.0027">
        <ele>238.8</ele>
        <time>2023-05-27T12:24:25Z</time>
      </trkpt>
      <trkpt lat="43.45652" lon="2.00271">
        <ele>238.8</ele>
        <time>2023-05-27T12:24:26Z</time>
      </trkpt>
      <trkpt lat="43.45654" lon="2.00272">
        <ele>238.8</ele>
        <time>2023-05-27T12:24:27Z</time>
      </trkpt>
      <trkpt lat="43.45656" lon="2.00273">
        <ele>238.8</ele>
        <time>2023-05-27T12:24:28Z</time>
      </trkpt>
      <trkpt lat="43.45655" lon="2.00273">
        <ele>238.8</ele>
        <time>2023-05-27T12:24:29Z</time>
      </trkpt>
      <trkpt lat="43.45655" lon="2.00273">
        <ele>238.8</ele>
        <time>2023-05-27T12:24:30Z</time>
      </trkpt>
      <trkpt lat="43.45654" lon="2.00273">
        <ele>238.8</ele>
        <time>2023-05-27T12:24:31Z</time>
      </trkpt>
      <trkpt lat="43.45653" lon="2.00272">
        <ele>238.8</ele>
        <time>2023-05-27T12:24:32Z</time>
      </trkpt>
      <trkpt lat="43.45653" lon="2.00272">
        <ele>238.8</ele>
        <time>2023-05-27T12:24:33Z</time>
      </trkpt>
      <trkpt lat="43.45653" lon="2.00272">
        <ele>238.8</ele>
        <time>2023-05-27T12:24:34Z</time>
      </trkpt>
      <trkpt lat="43.45653" lon="2.00271">
        <ele>238.8</ele>
        <time>2023-05-27T12:24:35Z</time>
      </trkpt>
      <trkpt lat="43.45651" lon="2.0027">
        <ele>238.8</ele>
        <time>2023-05-27T12:24:36Z</time>
      </trkpt>
      <trkpt lat="43.4565" lon="2.00269">
        <ele>238.8</ele>
        <time>2023-05-27T12:24:37Z</time>
      </trkpt>
      <trkpt lat="43.45647" lon="2.00267">
        <ele>238.8</ele>
        <time>2023-05-27T12:24:38Z</time>
      </trkpt>
      <trkpt lat="43.45646" lon="2.00267">
        <ele>238.8</ele>
        <time>2023-05-27T12:24:39Z</time>
      </trkpt>
      <trkpt lat="43.45646" lon="2.00266">
        <ele>238.8</ele>
        <time>2023-05-27T12:24:40Z</time>
      </trkpt>
      <trkpt lat="43.45646" lon="2.00266">
        <ele>238.8</ele>
        <time>2023-05-27T12:24:41Z</time>
      </trkpt>
      <trkpt lat="43.45647" lon="2.00267">
        <ele>238.8</ele>
        <time>2023-05-27T12:24:42Z</time>
      </trkpt>
      <trkpt lat="43.45646" lon="2.00267">
        <ele>238.8</ele>
        <time>2023-05-27T12:24:43Z</time>
      </trkpt>
      <trkpt lat="43.45647" lon="2.00268">
        <ele>238.8</ele>
        <time>2023-05-27T12:24:44Z</time>
      </trkpt>
      <trkpt lat="43.45647" lon="2.00269">
        <ele>238.8</ele>
        <time>2023-05-27T12:24:45Z</time>
      </trkpt>
      <trkpt lat="43.45645" lon="2.00265">
        <ele>238.8</ele>
        <time>2023-05-27T12:24:46Z</time>
      </trkpt>
      <trkpt lat="43.45644" lon="2.00264">
        <ele>238.8</ele>
        <time>2023-05-27T12:24:47Z</time>
      </trkpt>
      <trkpt lat="43.45644" lon="2.00264">
        <ele>238.8</ele>
        <time>2023-05-27T12:24:48Z</time>
      </trkpt>
      <trkpt lat="43.45639" lon="2.0026">
        <ele>238.8</ele>
        <time>2023-05-27T12:24:49Z</time>
      </trkpt>
      <trkpt lat="43.45637" lon="2.00259">
        <ele>238.8</ele>
        <time>2023-05-27T12:24:50Z</time>
      </trkpt>
      <trkpt lat="43.45638" lon="2.00259">
        <ele>238.8</ele>
        <time>2023-05-27T12:24:51Z</time>
      </trkpt>
      <trkpt lat="43.45641" lon="2.00261">
        <ele>238.8</ele>
        <time>2023-05-27T12:24:52Z</time>
      </trkpt>
      <trkpt lat="43.45644" lon="2.00264">
        <ele>238.8</ele>
        <time>2023-05-27T12:24:53Z</time>
      </trkpt>
      <trkpt lat="43.45651" lon="2.00269">
        <ele>238.8</ele>
        <time>2023-05-27T12:24:54Z</time>
      </trkpt>
      <trkpt lat="43.45655" lon="2.00273">
        <ele>238.8</ele>
        <time>2023-05-27T12:24:55Z</time>
      </trkpt>
      <trkpt lat="43.45657" lon="2.00275">
        <ele>238.8</ele>
        <time>2023-05-27T12:24:56Z</time>
      </trkpt>
      <trkpt lat="43.45659" lon="2.00278">
        <ele>238.8</ele>
        <time>2023-05-27T12:24:57Z</time>
      </trkpt>
      <trkpt lat="43.4566" lon="2.0028">
        <ele>238.8</ele>
        <time>2023-05-27T12:24:58Z</time>
      </trkpt>
      <trkpt lat="43.45661" lon="2.00283">
        <ele>238.8</ele>
        <time>2023-05-27T12:24:59Z</time>
      </trkpt>
      <trkpt lat="43.45663" lon="2.00285">
        <ele>238.8</ele>
        <time>2023-05-27T12:25:00Z</time>
      </trkpt>
      <trkpt lat="43.45664" lon="2.00288">
        <ele>238.8</ele>
        <time>2023-05-27T12:25:01Z</time>
      </trkpt>
      <trkpt lat="43.45667" lon="2.0029">
        <ele>238.8</ele>
        <time>2023-05-27T12:25:02Z</time>
      </trkpt>
      <trkpt lat="43.45668" lon="2.00293">
        <ele>238.8</ele>
        <time>2023-05-27T12:25:03Z</time>
      </trkpt>
      <trkpt lat="43.45668" lon="2.00294">
        <ele>238.8</ele>
        <time>2023-05-27T12:25:04Z</time>
      </trkpt>
      <trkpt lat="43.45668" lon="2.00294">
        <ele>238.8</ele>
        <time>2023-05-27T12:25:05Z</time>
      </trkpt>
      <trkpt lat="43.45669" lon="2.00294">
        <ele>238.8</ele>
        <time>2023-05-27T12:25:06Z</time>
      </trkpt>
      <trkpt lat="43.45671" lon="2.00295">
        <ele>238.8</ele>
        <time>2023-05-27T12:25:07Z</time>
      </trkpt>
      <trkpt lat="43.45672" lon="2.00296">
        <ele>238.8</ele>
        <time>2023-05-27T12:25:08Z</time>
      </trkpt>
      <trkpt lat="43.45672" lon="2.00297">
        <ele>238.8</ele>
        <time>2023-05-27T12:25:09Z</time>
      </trkpt>
      <trkpt lat="43.45672" lon="2.00297">
        <ele>238.8</ele>
        <time>2023-05-27T12:25:10Z</time>
      </trkpt>
      <trkpt lat="43.45672" lon="2.00297">
        <ele>238.8</ele>
        <time>2023-05-27T12:25:11Z</time>
      </trkpt>
      <trkpt lat="43.45672" lon="2.00297">
        <ele>238.8</ele>
        <time>2023-05-27T12:25:12Z</time>
      </trkpt>
      <trkpt lat="43.45672" lon="2.00297">
        <ele>239</ele>
        <time>2023-05-27T12:25:13Z</time>
      </trkpt>
      <trkpt lat="43.45667" lon="2.00284">
        <ele>239</ele>
        <time>2023-05-27T12:25:46Z</time>
      </trkpt>
      <trkpt lat="43.45668" lon="2.00283">
        <ele>239</ele>
        <time>2023-05-27T12:25:47Z</time>
      </trkpt>
      <trkpt lat="43.45668" lon="2.00283">
        <ele>239</ele>
        <time>2023-05-27T12:25:48Z</time>
      </trkpt>
      <trkpt lat="43.45668" lon="2.00282">
        <ele>239</ele>
        <time>2023-05-27T12:25:49Z</time>
      </trkpt>
      <trkpt lat="43.45668" lon="2.00282">
        <ele>239</ele>
        <time>2023-05-27T12:25:50Z</time>
      </trkpt>
      <trkpt lat="43.45669" lon="2.00282">
        <ele>239</ele>
        <time>2023-05-27T12:25:51Z</time>
      </trkpt>
      <trkpt lat="43.45669" lon="2.00281">
        <ele>239</ele>
        <time>2023-05-27T12:25:52Z</time>
      </trkpt>
      <trkpt lat="43.45662" lon="2.00276">
        <ele>239</ele>
        <time>2023-05-27T12:29:06Z</time>
      </trkpt>
      <trkpt lat="43.45661" lon="2.00276">
        <ele>239</ele>
        <time>2023-05-27T12:29:07Z</time>
      </trkpt>
      <trkpt lat="43.45661" lon="2.00276">
        <ele>239</ele>
        <time>2023-05-27T12:29:08Z</time>
      </trkpt>
      <trkpt lat="43.4566" lon="2.00276">
        <ele>239</ele>
        <time>2023-05-27T12:29:09Z</time>
      </trkpt>
      <trkpt lat="43.45661" lon="2.00277">
        <ele>239</ele>
        <time>2023-05-27T12:29:10Z</time>
      </trkpt>
      <trkpt lat="43.45662" lon="2.00277">
        <ele>239</ele>
        <time>2023-05-27T12:29:11Z</time>
      </trkpt>
      <trkpt lat="43.45663" lon="2.00277">
        <ele>239</ele>
        <time>2023-05-27T12:29:12Z</time>
      </trkpt>
      <trkpt lat="43.45664" lon="2.00276">
        <ele>239</ele>
        <time>2023-05-27T12:29:13Z</time>
      </trkpt>
      <trkpt lat="43.45664" lon="2.00276">
        <ele>239</ele>
        <time>2023-05-27T12:29:14Z</time>
      </trkpt>
      <trkpt lat="43.45663" lon="2.00276">
        <ele>239</ele>
        <time>2023-05-27T12:29:15Z</time>
      </trkpt>
      <trkpt lat="43.45664" lon="2.00276">
        <ele>239</ele>
        <time>2023-05-27T12:29:16Z</time>
      </trkpt>
      <trkpt lat="43.45665" lon="2.00276">
        <ele>239</ele>
        <time>2023-05-27T12:29:17Z</time>
      </trkpt>
      <trkpt lat="43.45666" lon="2.00276">
        <ele>239</ele>
        <time>2023-05-27T12:29:18Z</time>
      </trkpt>
      <trkpt lat="43.45668" lon="2.00276">
        <ele>239</ele>
        <time>2023-05-27T12:29:20Z</time>
      </trkpt>
      <trkpt lat="43.45669" lon="2.00277">
        <ele>239</ele>
        <time>2023-05-27T12:29:21Z</time>
      </trkpt>
      <trkpt lat="43.45669" lon="2.00277">
        <ele>239</ele>
        <time>2023-05-27T12:29:22Z</time>
      </trkpt>
      <trkpt lat="43.4567" lon="2.00277">
        <ele>239</ele>
        <time>2023-05-27T12:29:23Z</time>
      </trkpt>
      <trkpt lat="43.45671" lon="2.00277">
        <ele>239</ele>
        <time>2023-05-27T12:29:24Z</time>
      </trkpt>
      <trkpt lat="43.4567" lon="2.00277">
        <ele>239</ele>
        <time>2023-05-27T12:29:25Z</time>
      </trkpt>
      <trkpt lat="43.45671" lon="2.00277">
        <ele>239</ele>
        <time>2023-05-27T12:29:26Z</time>
      </trkpt>
      <trkpt lat="43.45674" lon="2.00277">
        <ele>239</ele>
        <time>2023-05-27T12:29:27Z</time>
      </trkpt>
      <trkpt lat="43.45676" lon="2.00276">
        <ele>239</ele>
        <time>2023-05-27T12:29:28Z</time>
      </trkpt>
      <trkpt lat="43.45677" lon="2.00276">
        <ele>239</ele>
        <time>2023-05-27T12:29:29Z</time>
      </trkpt>
      <trkpt lat="43.45678" lon="2.00276">
        <ele>239.2</ele>
        <time>2023-05-27T12:29:30Z</time>
      </trkpt>
      <trkpt lat="43.45678" lon="2.00275">
        <ele>239.2</ele>
        <time>2023-05-27T12:29:31Z</time>
      </trkpt>
      <trkpt lat="43.45678" lon="2.00275">
        <ele>239.2</ele>
        <time>2023-05-27T12:29:32Z</time>
      </trkpt>
      <trkpt lat="43.45679" lon="2.00275">
        <ele>239.2</ele>
        <time>2023-05-27T12:29:33Z</time>
      </trkpt>
      <trkpt lat="43.45679" lon="2.00275">
        <ele>239.2</ele>
        <time>2023-05-27T12:29:34Z</time>
      </trkpt>
      <trkpt lat="43.4568" lon="2.00275">
        <ele>239.2</ele>
        <time>2023-05-27T12:29:35Z</time>
      </trkpt>
      <trkpt lat="43.45681" lon="2.00275">
        <ele>239.2</ele>
        <time>2023-05-27T12:29:36Z</time>
      </trkpt>
      <trkpt lat="43.45681" lon="2.00275">
        <ele>239.2</ele>
        <time>2023-05-27T12:29:37Z</time>
      </trkpt>
      <trkpt lat="43.45681" lon="2.00275">
        <ele>239.2</ele>
        <time>2023-05-27T12:29:38Z</time>
      </trkpt>
      <trkpt lat="43.45681" lon="2.00276">
        <ele>239.2</ele>
        <time>2023-05-27T12:29:39Z</time>
      </trkpt>
      <trkpt lat="43.45681" lon="2.00276">
        <ele>239.2</ele>
        <time>2023-05-27T12:29:40Z</time>
      </trkpt>
      <trkpt lat="43.45681" lon="2.00275">
        <ele>239.2</ele>
        <time>2023-05-27T12:29:41Z</time>
      </trkpt>
      <trkpt lat="43.45681" lon="2.00275">
        <ele>239.2</ele>
        <time>2023-05-27T12:29:42Z</time>
      </trkpt>
      <trkpt lat="43.45682" lon="2.00275">
        <ele>239.2</ele>
        <time>2023-05-27T12:29:43Z</time>
      </trkpt>
      <trkpt lat="43.4568" lon="2.00275">
        <ele>239.2</ele>
        <time>2023-05-27T12:29:44Z</time>
      </trkpt>
      <trkpt lat="43.45678" lon="2.00276">
        <ele>239.2</ele>
        <time>2023-05-27T12:29:45Z</time>
      </trkpt>
      <trkpt lat="43.45677" lon="2.00276">
        <ele>239.2</ele>
        <time>2023-05-27T12:29:46Z</time>
      </trkpt>
      <trkpt lat="43.45677" lon="2.00276">
        <ele>239.2</ele>
        <time>2023-05-27T12:29:47Z</time>
      </trkpt>
      <trkpt lat="43.45677" lon="2.00275">
        <ele>239.2</ele>
        <time>2023-05-27T12:29:48Z</time>
      </trkpt>
      <trkpt lat="43.45677" lon="2.00275">
        <ele>239.2</ele>
        <time>2023-05-27T12:29:49Z</time>
      </trkpt>
      <trkpt lat="43.45676" lon="2.00275">
        <ele>239.2</ele>
        <time>2023-05-27T12:29:50Z</time>
      </trkpt>
      <trkpt lat="43.45675" lon="2.00275">
        <ele>239.2</ele>
        <time>2023-05-27T12:29:51Z</time>
      </trkpt>
      <trkpt lat="43.45674" lon="2.00276">
        <ele>239.2</ele>
        <time>2023-05-27T12:29:52Z</time>
      </trkpt>
      <trkpt lat="43.45671" lon="2.00276">
        <ele>239.2</ele>
        <time>2023-05-27T12:29:53Z</time>
      </trkpt>
      <trkpt lat="43.45668" lon="2.00276">
        <ele>239.2</ele>
        <time>2023-05-27T12:29:54Z</time>
      </trkpt>
      <trkpt lat="43.45666" lon="2.00276">
        <ele>239.2</ele>
        <time>2023-05-27T12:29:55Z</time>
      </trkpt>
      <trkpt lat="43.45665" lon="2.00276">
        <ele>239.2</ele>
        <time>2023-05-27T12:29:56Z</time>
      </trkpt>
      <trkpt lat="43.45665" lon="2.00276">
        <ele>239.2</ele>
        <time>2023-05-27T12:29:57Z</time>
      </trkpt>
      <trkpt lat="43.45665" lon="2.00276">
        <ele>239.2</ele>
        <time>2023-05-27T12:29:58Z</time>
      </trkpt>
      <trkpt lat="43.45665" lon="2.00277">
        <ele>239.2</ele>
        <time>2023-05-27T12:29:59Z</time>
      </trkpt>
      <trkpt lat="43.45665" lon="2.00277">
        <ele>239.2</ele>
        <time>2023-05-27T12:30:00Z</time>
      </trkpt>
      <trkpt lat="43.45664" lon="2.00277">
        <ele>239.2</ele>
        <time>2023-05-27T12:30:01Z</time>
      </trkpt>
      <trkpt lat="43.45665" lon="2.00277">
        <ele>239.2</ele>
        <time>2023-05-27T12:30:02Z</time>
      </trkpt>
      <trkpt lat="43.45665" lon="2.00277">
        <ele>239.2</ele>
        <time>2023-05-27T12:30:03Z</time>
      </trkpt>
      <trkpt lat="43.45665" lon="2.00277">
        <ele>239.2</ele>
        <time>2023-05-27T12:30:04Z</time>
      </trkpt>
      <trkpt lat="43.45665" lon="2.00277">
        <ele>239.2</ele>
        <time>2023-05-27T12:30:05Z</time>
      </trkpt>
      <trkpt lat="43.45665" lon="2.00277">
        <ele>239.2</ele>
        <time>2023-05-27T12:30:06Z</time>
      </trkpt>
      <trkpt lat="43.45665" lon="2.00278">
        <ele>239.2</ele>
        <time>2023-05-27T12:30:07Z</time>
      </trkpt>
      <trkpt lat="43.45665" lon="2.00278">
        <ele>239.4</ele>
        <time>2023-05-27T12:30:08Z</time>
      </trkpt>
      <trkpt lat="43.45666" lon="2.00278">
        <ele>239.4</ele>
        <time>2023-05-27T12:30:09Z</time>
      </trkpt>
      <trkpt lat="43.45666" lon="2.00278">
        <ele>239.4</ele>
        <time>2023-05-27T12:30:10Z</time>
      </trkpt>
      <trkpt lat="43.45666" lon="2.00278">
        <ele>239.4</ele>
        <time>2023-05-27T12:30:11Z</time>
      </trkpt>
      <trkpt lat="43.45667" lon="2.00278">
        <ele>239.4</ele>
        <time>2023-05-27T12:30:12Z</time>
      </trkpt>
      <trkpt lat="43.45668" lon="2.00278">
        <ele>239.4</ele>
        <time>2023-05-27T12:30:13Z</time>
      </trkpt>
      <trkpt lat="43.45668" lon="2.00278">
        <ele>239.4</ele>
        <time>2023-05-27T12:30:14Z</time>
      </trkpt>
      <trkpt lat="43.45668" lon="2.00278">
        <ele>239.4</ele>
        <time>2023-05-27T12:30:15Z</time>
      </trkpt>
      <trkpt lat="43.45667" lon="2.00278">
        <ele>239.4</ele>
        <time>2023-05-27T12:30:16Z</time>
      </trkpt>
      <trkpt lat="43.45667" lon="2.00279">
        <ele>239.4</ele>
        <time>2023-05-27T12:30:17Z</time>
      </trkpt>
      <trkpt lat="43.45666" lon="2.00279">
        <ele>239.4</ele>
        <time>2023-05-27T12:30:18Z</time>
      </trkpt>
      <trkpt lat="43.45666" lon="2.00278">
        <ele>239.4</ele>
        <time>2023-05-27T12:30:19Z</time>
      </trkpt>
      <trkpt lat="43.45666" lon="2.00278">
        <ele>239.4</ele>
        <time>2023-05-27T12:30:20Z</time>
      </trkpt>
      <trkpt lat="43.45657" lon="2.00274">
        <ele>239.4</ele>
        <time>2023-05-27T12:30:27Z</time>
      </trkpt>
      <trkpt lat="43.45654" lon="2.00274">
        <ele>239.4</ele>
        <time>2023-05-27T12:30:28Z</time>
      </trkpt>
      <trkpt lat="43.45653" lon="2.00274">
        <ele>239.4</ele>
        <time>2023-05-27T12:30:29Z</time>
      </trkpt>
      <trkpt lat="43.45653" lon="2.00274">
        <ele>239.4</ele>
        <time>2023-05-27T12:30:30Z</time>
      </trkpt>
      <trkpt lat="43.45653" lon="2.00274">
        <ele>239.4</ele>
        <time>2023-05-27T12:30:31Z</time>
      </trkpt>
      <trkpt lat="43.45653" lon="2.00275">
        <ele>239.4</ele>
        <time>2023-05-27T12:30:32Z</time>
      </trkpt>
      <trkpt lat="43.45653" lon="2.00275">
        <ele>239.4</ele>
        <time>2023-05-27T12:30:33Z</time>
      </trkpt>
      <trkpt lat="43.45653" lon="2.00276">
        <ele>239.4</ele>
        <time>2023-05-27T12:30:34Z</time>
      </trkpt>
      <trkpt lat="43.45656" lon="2.00271">
        <ele>239.4</ele>
        <time>2023-05-27T12:32:03Z</time>
      </trkpt>
      <trkpt lat="43.45655" lon="2.00272">
        <ele>239.4</ele>
        <time>2023-05-27T12:32:04Z</time>
      </trkpt>
      <trkpt lat="43.45655" lon="2.00272">
        <ele>239.4</ele>
        <time>2023-05-27T12:32:05Z</time>
      </trkpt>
      <trkpt lat="43.45655" lon="2.00272">
        <ele>239.4</ele>
        <time>2023-05-27T12:32:06Z</time>
      </trkpt>
      <trkpt lat="43.45656" lon="2.00272">
        <ele>239.4</ele>
        <time>2023-05-27T12:32:07Z</time>
      </trkpt>
      <trkpt lat="43.45656" lon="2.00272">
        <ele>239.4</ele>
        <time>2023-05-27T12:32:08Z</time>
      </trkpt>
      <trkpt lat="43.45656" lon="2.00272">
        <ele>239.4</ele>
        <time>2023-05-27T12:32:09Z</time>
      </trkpt>
      <trkpt lat="43.45655" lon="2.00273">
        <ele>239.4</ele>
        <time>2023-05-27T12:32:10Z</time>
      </trkpt>
      <trkpt lat="43.45655" lon="2.00274">
        <ele>239.4</ele>
        <time>2023-05-27T12:32:11Z</time>
      </trkpt>
      <trkpt lat="43.45656" lon="2.00274">
        <ele>239.4</ele>
        <time>2023-05-27T12:32:12Z</time>
      </trkpt>
      <trkpt lat="43.45657" lon="2.00273">
        <ele>239.4</ele>
        <time>2023-05-27T12:32:13Z</time>
      </trkpt>
      <trkpt lat="43.45658" lon="2.00273">
        <ele>239.4</ele>
        <time>2023-05-27T12:32:14Z</time>
      </trkpt>
      <trkpt lat="43.45658" lon="2.00273">
        <ele>239.4</ele>
        <time>2023-05-27T12:32:15Z</time>
      </trkpt>
      <trkpt lat="43.45659" lon="2.00273">
        <ele>239.4</ele>
        <time>2023-05-27T12:32:16Z</time>
      </trkpt>
      <trkpt lat="43.45659" lon="2.00273">
        <ele>239.4</ele>
        <time>2023-05-27T12:32:17Z</time>
      </trkpt>
      <trkpt lat="43.45659" lon="2.00273">
        <ele>239.4</ele>
        <time>2023-05-27T12:32:18Z</time>
      </trkpt>
      <trkpt lat="43.4566" lon="2.00273">
        <ele>239.4</ele>
        <time>2023-05-27T12:32:19Z</time>
      </trkpt>
      <trkpt lat="43.45661" lon="2.00272">
        <ele>239.4</ele>
        <time>2023-05-27T12:32:20Z</time>
      </trkpt>
      <trkpt lat="43.45661" lon="2.00272">
        <ele>239.4</ele>
        <time>2023-05-27T12:32:21Z</time>
      </trkpt>
      <trkpt lat="43.45662" lon="2.00272">
        <ele>239.4</ele>
        <time>2023-05-27T12:32:22Z</time>
      </trkpt>
      <trkpt lat="43.45661" lon="2.00272">
        <ele>239.4</ele>
        <time>2023-05-27T12:32:23Z</time>
      </trkpt>
      <trkpt lat="43.45661" lon="2.00272">
        <ele>239.4</ele>
        <time>2023-05-27T12:32:24Z</time>
      </trkpt>
      <trkpt lat="43.45661" lon="2.00272">
        <ele>239.4</ele>
        <time>2023-05-27T12:32:25Z</time>
      </trkpt>
      <trkpt lat="43.4566" lon="2.00272">
        <ele>239.4</ele>
        <time>2023-05-27T12:32:26Z</time>
      </trkpt>
      <trkpt lat="43.4566" lon="2.00273">
        <ele>239.6</ele>
        <time>2023-05-27T12:32:27Z</time>
      </trkpt>
      <trkpt lat="43.4566" lon="2.00273">
        <ele>239.6</ele>
        <time>2023-05-27T12:32:28Z</time>
      </trkpt>
      <trkpt lat="43.45659" lon="2.00271">
        <ele>239.6</ele>
        <time>2023-05-27T12:33:28Z</time>
      </trkpt>
      <trkpt lat="43.45659" lon="2.00272">
        <ele>239.6</ele>
        <time>2023-05-27T12:33:29Z</time>
      </trkpt>
      <trkpt lat="43.45659" lon="2.00272">
        <ele>239.6</ele>
        <time>2023-05-27T12:33:30Z</time>
      </trkpt>
      <trkpt lat="43.45659" lon="2.00273">
        <ele>239.6</ele>
        <time>2023-05-27T12:33:31Z</time>
      </trkpt>
      <trkpt lat="43.45659" lon="2.00273">
        <ele>239.6</ele>
        <time>2023-05-27T12:33:32Z</time>
      </trkpt>
      <trkpt lat="43.45659" lon="2.00274">
        <ele>239.6</ele>
        <time>2023-05-27T12:33:33Z</time>
      </trkpt>
      <trkpt lat="43.45661" lon="2.00274">
        <ele>239.6</ele>
        <time>2023-05-27T12:33:59Z</time>
      </trkpt>
      <trkpt lat="43.45661" lon="2.00274">
        <ele>239.6</ele>
        <time>2023-05-27T12:34:00Z</time>
      </trkpt>
      <trkpt lat="43.45661" lon="2.00273">
        <ele>239.6</ele>
        <time>2023-05-27T12:34:01Z</time>
      </trkpt>
      <trkpt lat="43.45661" lon="2.00273">
        <ele>239.6</ele>
        <time>2023-05-27T12:34:02Z</time>
      </trkpt>
      <trkpt lat="43.45661" lon="2.00273">
        <ele>239.6</ele>
        <time>2023-05-27T12:34:03Z</time>
      </trkpt>
      <trkpt lat="43.45661" lon="2.00273">
        <ele>239.8</ele>
        <time>2023-05-27T12:34:04Z</time>
      </trkpt>
      <trkpt lat="43.45661" lon="2.00273">
        <ele>239.8</ele>
        <time>2023-05-27T12:34:05Z</time>
      </trkpt>
      <trkpt lat="43.45661" lon="2.00273">
        <ele>239.8</ele>
        <time>2023-05-27T12:34:10Z</time>
      </trkpt>
      <trkpt lat="43.45663" lon="2.00273">
        <ele>239.8</ele>
        <time>2023-05-27T12:34:11Z</time>
      </trkpt>
      <trkpt lat="43.45663" lon="2.00273">
        <ele>239.8</ele>
        <time>2023-05-27T12:34:12Z</time>
      </trkpt>
      <trkpt lat="43.45663" lon="2.00274">
        <ele>239.8</ele>
        <time>2023-05-27T12:34:13Z</time>
      </trkpt>
      <trkpt lat="43.45663" lon="2.00274">
        <ele>239.8</ele>
        <time>2023-05-27T12:34:14Z</time>
      </trkpt>
      <trkpt lat="43.45661" lon="2.00274">
        <ele>239.8</ele>
        <time>2023-05-27T12:34:15Z</time>
      </trkpt>
      <trkpt lat="43.45661" lon="2.00273">
        <ele>239.8</ele>
        <time>2023-05-27T12:34:16Z</time>
      </trkpt>
      <trkpt lat="43.45661" lon="2.00273">
        <ele>239.8</ele>
        <time>2023-05-27T12:34:17Z</time>
      </trkpt>
      <trkpt lat="43.45661" lon="2.00272">
        <ele>239.8</ele>
        <time>2023-05-27T12:34:18Z</time>
      </trkpt>
      <trkpt lat="43.45661" lon="2.00272">
        <ele>239.8</ele>
        <time>2023-05-27T12:34:19Z</time>
      </trkpt>
      <trkpt lat="43.45661" lon="2.00272">
        <ele>239.8</ele>
        <time>2023-05-27T12:34:20Z</time>
      </trkpt>
      <trkpt lat="43.45662" lon="2.00272">
        <ele>239.8</ele>
        <time>2023-05-27T12:34:21Z</time>
      </trkpt>
      <trkpt lat="43.45662" lon="2.00272">
        <ele>239.8</ele>
        <time>2023-05-27T12:34:22Z</time>
      </trkpt>
      <trkpt lat="43.4566" lon="2.00271">
        <ele>239.8</ele>
        <time>2023-05-27T12:34:23Z</time>
      </trkpt>
      <trkpt lat="43.45659" lon="2.00271">
        <ele>239.8</ele>
        <time>2023-05-27T12:34:24Z</time>
      </trkpt>
      <trkpt lat="43.45659" lon="2.00272">
        <ele>239.8</ele>
        <time>2023-05-27T12:34:25Z</time>
      </trkpt>
      <trkpt lat="43.4566" lon="2.00271">
        <ele>239.8</ele>
        <time>2023-05-27T12:34:26Z</time>
      </trkpt>
      <trkpt lat="43.4566" lon="2.00271">
        <ele>239.8</ele>
        <time>2023-05-27T12:34:27Z</time>
      </trkpt>
      <trkpt lat="43.45659" lon="2.00271">
        <ele>239.8</ele>
        <time>2023-05-27T12:34:28Z</time>
      </trkpt>
      <trkpt lat="43.45659" lon="2.00271">
        <ele>239.8</ele>
        <time>2023-05-27T12:34:29Z</time>
      </trkpt>
      <trkpt lat="43.45659" lon="2.00272">
        <ele>239.8</ele>
        <time>2023-05-27T12:34:30Z</time>
      </trkpt>
      <trkpt lat="43.45659" lon="2.00272">
        <ele>239.8</ele>
        <time>2023-05-27T12:34:31Z</time>
      </trkpt>
      <trkpt lat="43.45662" lon="2.00275">
        <ele>239.8</ele>
        <time>2023-05-27T12:34:34Z</time>
      </trkpt>
      <trkpt lat="43.45664" lon="2.00276">
        <ele>239.8</ele>
        <time>2023-05-27T12:34:35Z</time>
      </trkpt>
      <trkpt lat="43.45664" lon="2.00276">
        <ele>239.8</ele>
        <time>2023-05-27T12:34:36Z</time>
      </trkpt>
      <trkpt lat="43.45665" lon="2.00276">
        <ele>239.8</ele>
        <time>2023-05-27T12:34:37Z</time>
      </trkpt>
      <trkpt lat="43.45665" lon="2.00276">
        <ele>239.8</ele>
        <time>2023-05-27T12:34:38Z</time>
      </trkpt>
      <trkpt lat="43.45665" lon="2.00276">
        <ele>239.8</ele>
        <time>2023-05-27T12:34:39Z</time>
      </trkpt>
      <trkpt lat="43.45664" lon="2.00275">
        <ele>239.8</ele>
        <time>2023-05-27T12:34:40Z</time>
      </trkpt>
      <trkpt lat="43.45664" lon="2.00275">
        <ele>239.8</ele>
        <time>2023-05-27T12:34:43Z</time>
      </trkpt>
      <trkpt lat="43.45664" lon="2.00275">
        <ele>239.8</ele>
        <time>2023-05-27T12:34:44Z</time>
      </trkpt>
      <trkpt lat="43.45665" lon="2.00275">
        <ele>239.8</ele>
        <time>2023-05-27T12:34:45Z</time>
      </trkpt>
      <trkpt lat="43.45665" lon="2.00275">
        <ele>239.8</ele>
        <time>2023-05-27T12:34:46Z</time>
      </trkpt>
      <trkpt lat="43.45665" lon="2.00275">
        <ele>239.8</ele>
        <time>2023-05-27T12:34:47Z</time>
      </trkpt>
      <trkpt lat="43.45665" lon="2.00275">
        <ele>239.8</ele>
        <time>2023-05-27T12:34:48Z</time>
      </trkpt>
      <trkpt lat="43.45665" lon="2.00275">
        <ele>239.8</ele>
        <time>2023-05-27T12:34:49Z</time>
      </trkpt>
      <trkpt lat="43.45645" lon="2.00257">
        <ele>239.8</ele>
        <time>2023-05-27T12:35:22Z</time>
      </trkpt>
      <trkpt lat="43.45644" lon="2.00257">
        <ele>239.8</ele>
        <time>2023-05-27T12:35:23Z</time>
      </trkpt>
      <trkpt lat="43.45644" lon="2.00255">
        <ele>239.8</ele>
        <time>2023-05-27T12:35:24Z</time>
      </trkpt>
      <trkpt lat="43.45643" lon="2.00255">
        <ele>239.8</ele>
        <time>2023-05-27T12:35:25Z</time>
      </trkpt>
      <trkpt lat="43.45644" lon="2.00256">
        <ele>239.8</ele>
        <time>2023-05-27T12:35:26Z</time>
      </trkpt>
      <trkpt lat="43.45644" lon="2.00256">
        <ele>239.8</ele>
        <time>2023-05-27T12:35:27Z</time>
      </trkpt>
      <trkpt lat="43.45644" lon="2.00257">
        <ele>239.8</ele>
        <time>2023-05-27T12:35:28Z</time>
      </trkpt>
      <trkpt lat="43.45645" lon="2.00257">
        <ele>239.8</ele>
        <time>2023-05-27T12:35:29Z</time>
      </trkpt>
      <trkpt lat="43.45645" lon="2.00257">
        <ele>239.8</ele>
        <time>2023-05-27T12:35:30Z</time>
      </trkpt>
      <trkpt lat="43.45645" lon="2.00258">
        <ele>239.8</ele>
        <time>2023-05-27T12:35:31Z</time>
      </trkpt>
      <trkpt lat="43.45645" lon="2.00258">
        <ele>239.8</ele>
        <time>2023-05-27T12:35:32Z</time>
      </trkpt>
      <trkpt lat="43.45645" lon="2.00258">
        <ele>239.8</ele>
        <time>2023-05-27T12:35:33Z</time>
      </trkpt>
      <trkpt lat="43.45645" lon="2.00258">
        <ele>239.8</ele>
        <time>2023-05-27T12:35:34Z</time>
      </trkpt>
      <trkpt lat="43.45645" lon="2.00258">
        <ele>239.8</ele>
        <time>2023-05-27T12:35:35Z</time>
      </trkpt>
      <trkpt lat="43.45648" lon="2.00258">
        <ele>239.8</ele>
        <time>2023-05-27T12:35:55Z</time>
      </trkpt>
      <trkpt lat="43.45647" lon="2.00258">
        <ele>239.8</ele>
        <time>2023-05-27T12:35:56Z</time>
      </trkpt>
      <trkpt lat="43.45647" lon="2.00257">
        <ele>239.8</ele>
        <time>2023-05-27T12:35:57Z</time>
      </trkpt>
      <trkpt lat="43.45647" lon="2.00257">
        <ele>239.8</ele>
        <time>2023-05-27T12:35:58Z</time>
      </trkpt>
      <trkpt lat="43.45647" lon="2.00257">
        <ele>239.8</ele>
        <time>2023-05-27T12:35:59Z</time>
      </trkpt>
      <trkpt lat="43.45647" lon="2.00257">
        <ele>239.8</ele>
        <time>2023-05-27T12:36:00Z</time>
      </trkpt>
      <trkpt lat="43.45647" lon="2.00257">
        <ele>239.8</ele>
        <time>2023-05-27T12:36:01Z</time>
      </trkpt>
      <trkpt lat="43.45647" lon="2.00258">
        <ele>239.8</ele>
        <time>2023-05-27T12:36:06Z</time>
      </trkpt>
      <trkpt lat="43.45648" lon="2.00257">
        <ele>239.8</ele>
        <time>2023-05-27T12:36:07Z</time>
      </trkpt>
      <trkpt lat="43.45649" lon="2.00257">
        <ele>239.8</ele>
        <time>2023-05-27T12:36:08Z</time>
      </trkpt>
      <trkpt lat="43.45649" lon="2.00258">
        <ele>239.8</ele>
        <time>2023-05-27T12:36:09Z</time>
      </trkpt>
      <trkpt lat="43.45647" lon="2.00259">
        <ele>239.8</ele>
        <time>2023-05-27T12:36:10Z</time>
      </trkpt>
      <trkpt lat="43.45647" lon="2.00259">
        <ele>239.8</ele>
        <time>2023-05-27T12:36:11Z</time>
      </trkpt>
      <trkpt lat="43.45647" lon="2.00258">
        <ele>239.8</ele>
        <time>2023-05-27T12:36:12Z</time>
      </trkpt>
      <trkpt lat="43.45647" lon="2.00258">
        <ele>239.8</ele>
        <time>2023-05-27T12:36:13Z</time>
      </trkpt>
      <trkpt lat="43.45648" lon="2.00258">
        <ele>239.8</ele>
        <time>2023-05-27T12:36:14Z</time>
      </trkpt>
      <trkpt lat="43.45648" lon="2.00259">
        <ele>239.8</ele>
        <time>2023-05-27T12:36:15Z</time>
      </trkpt>
      <trkpt lat="43.45648" lon="2.00259">
        <ele>240</ele>
        <time>2023-05-27T12:36:16Z</time>
      </trkpt>
      <trkpt lat="43.45647" lon="2.00267">
        <ele>240</ele>
        <time>2023-05-27T12:37:08Z</time>
      </trkpt>
      <trkpt lat="43.45646" lon="2.00267">
        <ele>240</ele>
        <time>2023-05-27T12:37:09Z</time>
      </trkpt>
      <trkpt lat="43.45647" lon="2.00267">
        <ele>239.8</ele>
        <time>2023-05-27T12:37:10Z</time>
      </trkpt>
      <trkpt lat="43.45647" lon="2.00267">
        <ele>239.8</ele>
        <time>2023-05-27T12:37:11Z</time>
      </trkpt>
      <trkpt lat="43.45647" lon="2.00266">
        <ele>239.8</ele>
        <time>2023-05-27T12:37:12Z</time>
      </trkpt>
      <trkpt lat="43.45647" lon="2.00266">
        <ele>239.8</ele>
        <time>2023-05-27T12:37:13Z</time>
      </trkpt>
      <trkpt lat="43.45647" lon="2.00267">
        <ele>239.8</ele>
        <time>2023-05-27T12:37:14Z</time>
      </trkpt>
      <trkpt lat="43.45647" lon="2.00267">
        <ele>239.8</ele>
        <time>2023-05-27T12:37:15Z</time>
      </trkpt>
      <trkpt lat="43.45655" lon="2.00272">
        <ele>239.8</ele>
        <time>2023-05-27T12:39:20Z</time>
      </trkpt>
      <trkpt lat="43.45653" lon="2.00271">
        <ele>239.8</ele>
        <time>2023-05-27T12:39:21Z</time>
      </trkpt>
      <trkpt lat="43.45653" lon="2.0027">
        <ele>239.8</ele>
        <time>2023-05-27T12:39:22Z</time>
      </trkpt>
      <trkpt lat="43.45652" lon="2.00268">
        <ele>239.8</ele>
        <time>2023-05-27T12:39:23Z</time>
      </trkpt>
      <trkpt lat="43.45655" lon="2.00267">
        <ele>239.8</ele>
        <time>2023-05-27T12:39:24Z</time>
      </trkpt>
      <trkpt lat="43.45658" lon="2.00266">
        <ele>239.8</ele>
        <time>2023-05-27T12:39:25Z</time>
      </trkpt>
      <trkpt lat="43.4566" lon="2.00264">
        <ele>239.8</ele>
        <time>2023-05-27T12:39:26Z</time>
      </trkpt>
      <trkpt lat="43.45661" lon="2.00264">
        <ele>239.8</ele>
        <time>2023-05-27T12:39:27Z</time>
      </trkpt>
      <trkpt lat="43.45662" lon="2.00264">
        <ele>239.8</ele>
        <time>2023-05-27T12:39:28Z</time>
      </trkpt>
      <trkpt lat="43.45662" lon="2.00264">
        <ele>239.8</ele>
        <time>2023-05-27T12:39:29Z</time>
      </trkpt>
      <trkpt lat="43.45661" lon="2.00264">
        <ele>239.8</ele>
        <time>2023-05-27T12:39:30Z</time>
      </trkpt>
      <trkpt lat="43.4566" lon="2.00264">
        <ele>239.8</ele>
        <time>2023-05-27T12:39:31Z</time>
      </trkpt>
      <trkpt lat="43.45661" lon="2.00265">
        <ele>239.8</ele>
        <time>2023-05-27T12:39:32Z</time>
      </trkpt>
      <trkpt lat="43.45662" lon="2.00265">
        <ele>239.8</ele>
        <time>2023-05-27T12:39:33Z</time>
      </trkpt>
      <trkpt lat="43.45663" lon="2.00265">
        <ele>239.8</ele>
        <time>2023-05-27T12:39:34Z</time>
      </trkpt>
      <trkpt lat="43.45663" lon="2.00265">
        <ele>239.8</ele>
        <time>2023-05-27T12:39:35Z</time>
      </trkpt>
      <trkpt lat="43.45662" lon="2.00265">
        <ele>239.8</ele>
        <time>2023-05-27T12:39:36Z</time>
      </trkpt>
      <trkpt lat="43.45663" lon="2.00265">
        <ele>239.8</ele>
        <time>2023-05-27T12:39:37Z</time>
      </trkpt>
      <trkpt lat="43.45663" lon="2.00265">
        <ele>239.8</ele>
        <time>2023-05-27T12:39:38Z</time>
      </trkpt>
      <trkpt lat="43.45663" lon="2.00265">
        <ele>239.8</ele>
        <time>2023-05-27T12:39:39Z</time>
      </trkpt>
      <trkpt lat="43.45663" lon="2.00263">
        <ele>239.8</ele>
        <time>2023-05-27T12:39:45Z</time>
      </trkpt>
      <trkpt lat="43.45664" lon="2.00263">
        <ele>239.8</ele>
        <time>2023-05-27T12:39:46Z</time>
      </trkpt>
      <trkpt lat="43.45664" lon="2.00264">
        <ele>239.8</ele>
        <time>2023-05-27T12:39:47Z</time>
      </trkpt>
      <trkpt lat="43.45664" lon="2.00264">
        <ele>239.8</ele>
        <time>2023-05-27T12:39:48Z</time>
      </trkpt>
      <trkpt lat="43.45664" lon="2.00264">
        <ele>239.8</ele>
        <time>2023-05-27T12:39:49Z</time>
      </trkpt>
      <trkpt lat="43.45664" lon="2.00264">
        <ele>239.8</ele>
        <time>2023-05-27T12:39:50Z</time>
      </trkpt>
      <trkpt lat="43.45664" lon="2.00265">
        <ele>239.8</ele>
        <time>2023-05-27T12:39:51Z</time>
      </trkpt>
      <trkpt lat="43.45665" lon="2.00265">
        <ele>239.8</ele>
        <time>2023-05-27T12:39:52Z</time>
      </trkpt>
      <trkpt lat="43.45664" lon="2.00265">
        <ele>239.8</ele>
        <time>2023-05-27T12:39:53Z</time>
      </trkpt>
      <trkpt lat="43.45664" lon="2.00264">
        <ele>239.8</ele>
        <time>2023-05-27T12:39:54Z</time>
      </trkpt>
      <trkpt lat="43.45664" lon="2.00263">
        <ele>239.8</ele>
        <time>2023-05-27T12:39:55Z</time>
      </trkpt>
      <trkpt lat="43.45663" lon="2.00264">
        <ele>239.8</ele>
        <time>2023-05-27T12:39:56Z</time>
      </trkpt>
      <trkpt lat="43.45661" lon="2.00265">
        <ele>239.8</ele>
        <time>2023-05-27T12:39:57Z</time>
      </trkpt>
      <trkpt lat="43.4566" lon="2.00266">
        <ele>239.8</ele>
        <time>2023-05-27T12:39:58Z</time>
      </trkpt>
      <trkpt lat="43.4566" lon="2.00266">
        <ele>239.8</ele>
        <time>2023-05-27T12:39:59Z</time>
      </trkpt>
      <trkpt lat="43.4566" lon="2.00266">
        <ele>239.8</ele>
        <time>2023-05-27T12:40:00Z</time>
      </trkpt>
      <trkpt lat="43.4566" lon="2.00266">
        <ele>239.8</ele>
        <time>2023-05-27T12:40:01Z</time>
      </trkpt>
      <trkpt lat="43.4566" lon="2.00266">
        <ele>239.8</ele>
        <time>2023-05-27T12:40:02Z</time>
      </trkpt>
      <trkpt lat="43.4566" lon="2.00266">
        <ele>239.8</ele>
        <time>2023-05-27T12:40:04Z</time>
      </trkpt>
      <trkpt lat="43.45661" lon="2.00265">
        <ele>239.8</ele>
        <time>2023-05-27T12:40:05Z</time>
      </trkpt>
      <trkpt lat="43.4566" lon="2.00263">
        <ele>239.8</ele>
        <time>2023-05-27T12:40:06Z</time>
      </trkpt>
      <trkpt lat="43.45661" lon="2.00262">
        <ele>239.8</ele>
        <time>2023-05-27T12:40:07Z</time>
      </trkpt>
      <trkpt lat="43.4566" lon="2.00262">
        <ele>240</ele>
        <time>2023-05-27T12:40:08Z</time>
      </trkpt>
      <trkpt lat="43.4566" lon="2.00263">
        <ele>240</ele>
        <time>2023-05-27T12:40:09Z</time>
      </trkpt>
      <trkpt lat="43.4566" lon="2.00263">
        <ele>240</ele>
        <time>2023-05-27T12:40:10Z</time>
      </trkpt>
      <trkpt lat="43.4566" lon="2.00263">
        <ele>240</ele>
        <time>2023-05-27T12:40:11Z</time>
      </trkpt>
      <trkpt lat="43.45659" lon="2.00264">
        <ele>240</ele>
        <time>2023-05-27T12:40:12Z</time>
      </trkpt>
      <trkpt lat="43.45653" lon="2.00265">
        <ele>239.8</ele>
        <time>2023-05-27T12:40:36Z</time>
      </trkpt>
      <trkpt lat="43.45654" lon="2.00265">
        <ele>239.8</ele>
        <time>2023-05-27T12:40:37Z</time>
      </trkpt>
      <trkpt lat="43.45654" lon="2.00265">
        <ele>239.8</ele>
        <time>2023-05-27T12:40:38Z</time>
      </trkpt>
      <trkpt lat="43.45653" lon="2.00266">
        <ele>239.8</ele>
        <time>2023-05-27T12:40:39Z</time>
      </trkpt>
      <trkpt lat="43.45653" lon="2.00266">
        <ele>239.8</ele>
        <time>2023-05-27T12:40:40Z</time>
      </trkpt>
      <trkpt lat="43.45652" lon="2.00266">
        <ele>239.8</ele>
        <time>2023-05-27T12:40:41Z</time>
      </trkpt>
      <trkpt lat="43.45651" lon="2.00264">
        <ele>239.8</ele>
        <time>2023-05-27T12:40:42Z</time>
      </trkpt>
      <trkpt lat="43.4565" lon="2.00264">
        <ele>239.8</ele>
        <time>2023-05-27T12:40:43Z</time>
      </trkpt>
      <trkpt lat="43.4565" lon="2.00263">
        <ele>239.8</ele>
        <time>2023-05-27T12:40:44Z</time>
      </trkpt>
      <trkpt lat="43.4565" lon="2.00263">
        <ele>239.8</ele>
        <time>2023-05-27T12:40:45Z</time>
      </trkpt>
      <trkpt lat="43.45651" lon="2.00264">
        <ele>239.8</ele>
        <time>2023-05-27T12:40:46Z</time>
      </trkpt>
      <trkpt lat="43.45651" lon="2.00264">
        <ele>239.8</ele>
        <time>2023-05-27T12:40:47Z</time>
      </trkpt>
      <trkpt lat="43.45654" lon="2.00266">
        <ele>239.8</ele>
        <time>2023-05-27T12:40:48Z</time>
      </trkpt>
      <trkpt lat="43.45655" lon="2.00267">
        <ele>239.8</ele>
        <time>2023-05-27T12:40:49Z</time>
      </trkpt>
      <trkpt lat="43.45654" lon="2.00268">
        <ele>239.8</ele>
        <time>2023-05-27T12:40:50Z</time>
      </trkpt>
      <trkpt lat="43.45653" lon="2.00268">
        <ele>239.8</ele>
        <time>2023-05-27T12:40:51Z</time>
      </trkpt>
      <trkpt lat="43.45654" lon="2.00268">
        <ele>239.8</ele>
        <time>2023-05-27T12:40:52Z</time>
      </trkpt>
      <trkpt lat="43.45655" lon="2.00268">
        <ele>239.8</ele>
        <time>2023-05-27T12:40:53Z</time>
      </trkpt>
      <trkpt lat="43.45654" lon="2.00268">
        <ele>239.8</ele>
        <time>2023-05-27T12:40:54Z</time>
      </trkpt>
      <trkpt lat="43.45653" lon="2.00268">
        <ele>239.8</ele>
        <time>2023-05-27T12:40:55Z</time>
      </trkpt>
      <trkpt lat="43.45652" lon="2.00268">
        <ele>239.8</ele>
        <time>2023-05-27T12:40:56Z</time>
      </trkpt>
      <trkpt lat="43.45653" lon="2.00268">
        <ele>239.8</ele>
        <time>2023-05-27T12:40:57Z</time>
      </trkpt>
      <trkpt lat="43.45654" lon="2.00269">
        <ele>239.8</ele>
        <time>2023-05-27T12:40:58Z</time>
      </trkpt>
      <trkpt lat="43.45656" lon="2.0027">
        <ele>239.8</ele>
        <time>2023-05-27T12:40:59Z</time>
      </trkpt>
      <trkpt lat="43.45656" lon="2.0027">
        <ele>239.8</ele>
        <time>2023-05-27T12:41:00Z</time>
      </trkpt>
      <trkpt lat="43.45656" lon="2.0027">
        <ele>239.8</ele>
        <time>2023-05-27T12:41:01Z</time>
      </trkpt>
      <trkpt lat="43.45656" lon="2.0027">
        <ele>239.8</ele>
        <time>2023-05-27T12:41:02Z</time>
      </trkpt>
      <trkpt lat="43.45656" lon="2.0027">
        <ele>239.8</ele>
        <time>2023-05-27T12:41:03Z</time>
      </trkpt>
      <trkpt lat="43.45656" lon="2.0027">
        <ele>239.8</ele>
        <time>2023-05-27T12:41:04Z</time>
      </trkpt>
      <trkpt lat="43.45656" lon="2.00271">
        <ele>239.8</ele>
        <time>2023-05-27T12:41:05Z</time>
      </trkpt>
      <trkpt lat="43.45656" lon="2.00271">
        <ele>239.8</ele>
        <time>2023-05-27T12:41:06Z</time>
      </trkpt>
      <trkpt lat="43.45657" lon="2.00271">
        <ele>239.8</ele>
        <time>2023-05-27T12:41:07Z</time>
      </trkpt>
      <trkpt lat="43.45657" lon="2.00272">
        <ele>239.8</ele>
        <time>2023-05-27T12:41:08Z</time>
      </trkpt>
      <trkpt lat="43.45657" lon="2.00272">
        <ele>239.8</ele>
        <time>2023-05-27T12:41:09Z</time>
      </trkpt>
      <trkpt lat="43.45657" lon="2.00273">
        <ele>239.8</ele>
        <time>2023-05-27T12:41:10Z</time>
      </trkpt>
      <trkpt lat="43.45657" lon="2.00274">
        <ele>239.8</ele>
        <time>2023-05-27T12:41:11Z</time>
      </trkpt>
      <trkpt lat="43.45657" lon="2.00275">
        <ele>239.8</ele>
        <time>2023-05-27T12:41:12Z</time>
      </trkpt>
      <trkpt lat="43.45657" lon="2.00277">
        <ele>239.8</ele>
        <time>2023-05-27T12:41:13Z</time>
      </trkpt>
      <trkpt lat="43.45658" lon="2.00277">
        <ele>239.8</ele>
        <time>2023-05-27T12:41:14Z</time>
      </trkpt>
      <trkpt lat="43.45658" lon="2.00277">
        <ele>239.8</ele>
        <time>2023-05-27T12:41:15Z</time>
      </trkpt>
      <trkpt lat="43.45658" lon="2.00278">
        <ele>239.8</ele>
        <time>2023-05-27T12:41:16Z</time>
      </trkpt>
      <trkpt lat="43.45658" lon="2.00278">
        <ele>239.8</ele>
        <time>2023-05-27T12:41:17Z</time>
      </trkpt>
      <trkpt lat="43.45658" lon="2.00278">
        <ele>239.8</ele>
        <time>2023-05-27T12:41:18Z</time>
      </trkpt>
      <trkpt lat="43.45658" lon="2.00278">
        <ele>239.8</ele>
        <time>2023-05-27T12:41:19Z</time>
      </trkpt>
      <trkpt lat="43.45657" lon="2.00277">
        <ele>239.8</ele>
        <time>2023-05-27T12:41:20Z</time>
      </trkpt>
      <trkpt lat="43.45657" lon="2.00277">
        <ele>239.8</ele>
        <time>2023-05-27T12:41:21Z</time>
      </trkpt>
      <trkpt lat="43.45654" lon="2.00277">
        <ele>239.8</ele>
        <time>2023-05-27T12:41:24Z</time>
      </trkpt>
      <trkpt lat="43.45654" lon="2.00277">
        <ele>239.8</ele>
        <time>2023-05-27T12:41:25Z</time>
      </trkpt>
      <trkpt lat="43.45655" lon="2.00277">
        <ele>239.8</ele>
        <time>2023-05-27T12:41:26Z</time>
      </trkpt>
      <trkpt lat="43.45655" lon="2.00277">
        <ele>239.8</ele>
        <time>2023-05-27T12:41:27Z</time>
      </trkpt>
      <trkpt lat="43.45655" lon="2.00277">
        <ele>239.8</ele>
        <time>2023-05-27T12:41:28Z</time>
      </trkpt>
      <trkpt lat="43.45655" lon="2.00278">
        <ele>239.8</ele>
        <time>2023-05-27T12:41:29Z</time>
      </trkpt>
      <trkpt lat="43.45656" lon="2.00278">
        <ele>239.8</ele>
        <time>2023-05-27T12:41:30Z</time>
      </trkpt>
      <trkpt lat="43.45656" lon="2.00279">
        <ele>239.8</ele>
        <time>2023-05-27T12:41:31Z</time>
      </trkpt>
      <trkpt lat="43.4566" lon="2.0028">
        <ele>239.8</ele>
        <time>2023-05-27T12:41:39Z</time>
      </trkpt>
      <trkpt lat="43.45661" lon="2.00279">
        <ele>239.8</ele>
        <time>2023-05-27T12:41:40Z</time>
      </trkpt>
      <trkpt lat="43.45661" lon="2.00279">
        <ele>239.8</ele>
        <time>2023-05-27T12:41:41Z</time>
      </trkpt>
      <trkpt lat="43.45662" lon="2.00279">
        <ele>239.8</ele>
        <time>2023-05-27T12:41:42Z</time>
      </trkpt>
      <trkpt lat="43.45662" lon="2.00278">
        <ele>239.8</ele>
        <time>2023-05-27T12:41:43Z</time>
      </trkpt>
      <trkpt lat="43.45662" lon="2.00278">
        <ele>239.8</ele>
        <time>2023-05-27T12:41:44Z</time>
      </trkpt>
      <trkpt lat="43.45662" lon="2.00277">
        <ele>239.8</ele>
        <time>2023-05-27T12:41:45Z</time>
      </trkpt>
      <trkpt lat="43.45663" lon="2.00278">
        <ele>239.8</ele>
        <time>2023-05-27T12:41:46Z</time>
      </trkpt>
      <trkpt lat="43.45662" lon="2.00277">
        <ele>239.8</ele>
        <time>2023-05-27T12:41:47Z</time>
      </trkpt>
      <trkpt lat="43.45662" lon="2.00277">
        <ele>239.8</ele>
        <time>2023-05-27T12:41:48Z</time>
      </trkpt>
      <trkpt lat="43.45662" lon="2.00277">
        <ele>239.8</ele>
        <time>2023-05-27T12:41:49Z</time>
      </trkpt>
      <trkpt lat="43.45662" lon="2.00277">
        <ele>239.8</ele>
        <time>2023-05-27T12:41:50Z</time>
      </trkpt>
      <trkpt lat="43.45659" lon="2.00278">
        <ele>240</ele>
        <time>2023-05-27T12:42:23Z</time>
      </trkpt>
      <trkpt lat="43.45659" lon="2.00277">
        <ele>240</ele>
        <time>2023-05-27T12:42:24Z</time>
      </trkpt>
      <trkpt lat="43.45659" lon="2.00276">
        <ele>240</ele>
        <time>2023-05-27T12:42:25Z</time>
      </trkpt>
      <trkpt lat="43.45659" lon="2.00274">
        <ele>239.8</ele>
        <time>2023-05-27T12:42:26Z</time>
      </trkpt>
      <trkpt lat="43.45658" lon="2.00272">
        <ele>239.8</ele>
        <time>2023-05-27T12:42:27Z</time>
      </trkpt>
      <trkpt lat="43.45658" lon="2.00272">
        <ele>239.8</ele>
        <time>2023-05-27T12:42:28Z</time>
      </trkpt>
      <trkpt lat="43.45658" lon="2.00272">
        <ele>239.8</ele>
        <time>2023-05-27T12:42:29Z</time>
      </trkpt>
      <trkpt lat="43.4566" lon="2.00273">
        <ele>240</ele>
        <time>2023-05-27T12:42:30Z</time>
      </trkpt>
      <trkpt lat="43.45662" lon="2.00274">
        <ele>240</ele>
        <time>2023-05-27T12:42:31Z</time>
      </trkpt>
      <trkpt lat="43.45663" lon="2.00274">
        <ele>240</ele>
        <time>2023-05-27T12:42:32Z</time>
      </trkpt>
      <trkpt lat="43.45663" lon="2.00275">
        <ele>240</ele>
        <time>2023-05-27T12:42:33Z</time>
      </trkpt>
      <trkpt lat="43.45664" lon="2.00275">
        <ele>240</ele>
        <time>2023-05-27T12:42:34Z</time>
      </trkpt>
      <trkpt lat="43.45665" lon="2.00275">
        <ele>240</ele>
        <time>2023-05-27T12:42:35Z</time>
      </trkpt>
      <trkpt lat="43.45666" lon="2.00276">
        <ele>240</ele>
        <time>2023-05-27T12:42:36Z</time>
      </trkpt>
      <trkpt lat="43.45666" lon="2.00276">
        <ele>240</ele>
        <time>2023-05-27T12:42:37Z</time>
      </trkpt>
      <trkpt lat="43.45666" lon="2.00277">
        <ele>240</ele>
        <time>2023-05-27T12:42:38Z</time>
      </trkpt>
      <trkpt lat="43.45666" lon="2.00277">
        <ele>240</ele>
        <time>2023-05-27T12:42:39Z</time>
      </trkpt>
      <trkpt lat="43.45666" lon="2.00277">
        <ele>240</ele>
        <time>2023-05-27T12:42:40Z</time>
      </trkpt>
      <trkpt lat="43.45666" lon="2.00277">
        <ele>240</ele>
        <time>2023-05-27T12:42:41Z</time>
      </trkpt>
      <trkpt lat="43.45666" lon="2.00276">
        <ele>240</ele>
        <time>2023-05-27T12:42:42Z</time>
      </trkpt>
      <trkpt lat="43.45665" lon="2.0028">
        <ele>240</ele>
        <time>2023-05-27T12:42:46Z</time>
      </trkpt>
      <trkpt lat="43.45665" lon="2.00281">
        <ele>240</ele>
        <time>2023-05-27T12:42:47Z</time>
      </trkpt>
      <trkpt lat="43.45665" lon="2.00281">
        <ele>240</ele>
        <time>2023-05-27T12:42:48Z</time>
      </trkpt>
      <trkpt lat="43.45665" lon="2.00281">
        <ele>239.8</ele>
        <time>2023-05-27T12:42:49Z</time>
      </trkpt>
      <trkpt lat="43.45665" lon="2.00281">
        <ele>239.8</ele>
        <time>2023-05-27T12:42:50Z</time>
      </trkpt>
      <trkpt lat="43.45665" lon="2.00281">
        <ele>239.8</ele>
        <time>2023-05-27T12:42:51Z</time>
      </trkpt>
      <trkpt lat="43.45665" lon="2.00281">
        <ele>240</ele>
        <time>2023-05-27T12:42:52Z</time>
      </trkpt>
      <trkpt lat="43.45666" lon="2.00282">
        <ele>240</ele>
        <time>2023-05-27T12:42:53Z</time>
      </trkpt>
      <trkpt lat="43.45666" lon="2.00284">
        <ele>240</ele>
        <time>2023-05-27T12:42:54Z</time>
      </trkpt>
      <trkpt lat="43.45666" lon="2.00285">
        <ele>240</ele>
        <time>2023-05-27T12:42:55Z</time>
      </trkpt>
      <trkpt lat="43.45667" lon="2.00286">
        <ele>240</ele>
        <time>2023-05-27T12:42:56Z</time>
      </trkpt>
      <trkpt lat="43.45667" lon="2.00287">
        <ele>240</ele>
        <time>2023-05-27T12:42:57Z</time>
      </trkpt>
      <trkpt lat="43.45667" lon="2.00287">
        <ele>240</ele>
        <time>2023-05-27T12:42:58Z</time>
      </trkpt>
      <trkpt lat="43.45667" lon="2.00287">
        <ele>240</ele>
        <time>2023-05-27T12:42:59Z</time>
      </trkpt>
      <trkpt lat="43.45667" lon="2.00288">
        <ele>240</ele>
        <time>2023-05-27T12:43:00Z</time>
      </trkpt>
      <trkpt lat="43.45667" lon="2.0029">
        <ele>240</ele>
        <time>2023-05-27T12:43:01Z</time>
      </trkpt>
      <trkpt lat="43.45667" lon="2.00291">
        <ele>240</ele>
        <time>2023-05-27T12:43:02Z</time>
      </trkpt>
      <trkpt lat="43.45668" lon="2.00293">
        <ele>240</ele>
        <time>2023-05-27T12:43:03Z</time>
      </trkpt>
      <trkpt lat="43.45668" lon="2.00293">
        <ele>240</ele>
        <time>2023-05-27T12:43:04Z</time>
      </trkpt>
      <trkpt lat="43.45668" lon="2.00292">
        <ele>240</ele>
        <time>2023-05-27T12:43:05Z</time>
      </trkpt>
      <trkpt lat="43.45668" lon="2.00292">
        <ele>240</ele>
        <time>2023-05-27T12:43:06Z</time>
      </trkpt>
      <trkpt lat="43.45669" lon="2.00291">
        <ele>240</ele>
        <time>2023-05-27T12:43:07Z</time>
      </trkpt>
      <trkpt lat="43.45669" lon="2.00291">
        <ele>240</ele>
        <time>2023-05-27T12:43:08Z</time>
      </trkpt>
      <trkpt lat="43.45669" lon="2.00291">
        <ele>240</ele>
        <time>2023-05-27T12:43:09Z</time>
      </trkpt>
      <trkpt lat="43.4567" lon="2.00291">
        <ele>240</ele>
        <time>2023-05-27T12:43:10Z</time>
      </trkpt>
      <trkpt lat="43.4567" lon="2.00292">
        <ele>240</ele>
        <time>2023-05-27T12:43:11Z</time>
      </trkpt>
      <trkpt lat="43.45669" lon="2.00291">
        <ele>240</ele>
        <time>2023-05-27T12:43:12Z</time>
      </trkpt>
      <trkpt lat="43.45653" lon="2.00281">
        <ele>240</ele>
        <time>2023-05-27T12:44:51Z</time>
      </trkpt>
      <trkpt lat="43.45653" lon="2.0028">
        <ele>240</ele>
        <time>2023-05-27T12:44:52Z</time>
      </trkpt>
      <trkpt lat="43.45653" lon="2.0028">
        <ele>240</ele>
        <time>2023-05-27T12:44:53Z</time>
      </trkpt>
      <trkpt lat="43.45653" lon="2.0028">
        <ele>240</ele>
        <time>2023-05-27T12:44:54Z</time>
      </trkpt>
      <trkpt lat="43.45652" lon="2.00279">
        <ele>240</ele>
        <time>2023-05-27T12:44:55Z</time>
      </trkpt>
      <trkpt lat="43.45653" lon="2.00279">
        <ele>240</ele>
        <time>2023-05-27T12:44:56Z</time>
      </trkpt>
      <trkpt lat="43.45653" lon="2.00279">
        <ele>240</ele>
        <time>2023-05-27T12:44:57Z</time>
      </trkpt>
      <trkpt lat="43.4565" lon="2.00272">
        <ele>240</ele>
        <time>2023-05-27T12:46:11Z</time>
      </trkpt>
      <trkpt lat="43.45647" lon="2.00273">
        <ele>240</ele>
        <time>2023-05-27T12:46:12Z</time>
      </trkpt>
      <trkpt lat="43.45644" lon="2.00273">
        <ele>240</ele>
        <time>2023-05-27T12:46:13Z</time>
      </trkpt>
      <trkpt lat="43.45644" lon="2.00273">
        <ele>240</ele>
        <time>2023-05-27T12:46:14Z</time>
      </trkpt>
      <trkpt lat="43.45645" lon="2.00272">
        <ele>240</ele>
        <time>2023-05-27T12:46:15Z</time>
      </trkpt>
      <trkpt lat="43.45645" lon="2.00271">
        <ele>240</ele>
        <time>2023-05-27T12:46:16Z</time>
      </trkpt>
      <trkpt lat="43.45646" lon="2.00271">
        <ele>240</ele>
        <time>2023-05-27T12:46:17Z</time>
      </trkpt>
      <trkpt lat="43.45646" lon="2.00269">
        <ele>240</ele>
        <time>2023-05-27T12:46:18Z</time>
      </trkpt>
      <trkpt lat="43.45646" lon="2.00269">
        <ele>240</ele>
        <time>2023-05-27T12:46:19Z</time>
      </trkpt>
      <trkpt lat="43.45646" lon="2.0027">
        <ele>240</ele>
        <time>2023-05-27T12:46:20Z</time>
      </trkpt>
      <trkpt lat="43.45646" lon="2.00271">
        <ele>240</ele>
        <time>2023-05-27T12:46:21Z</time>
      </trkpt>
      <trkpt lat="43.45647" lon="2.00271">
        <ele>240</ele>
        <time>2023-05-27T12:46:22Z</time>
      </trkpt>
      <trkpt lat="43.45648" lon="2.0027">
        <ele>240</ele>
        <time>2023-05-27T12:46:23Z</time>
      </trkpt>
      <trkpt lat="43.45648" lon="2.00269">
        <ele>240</ele>
        <time>2023-05-27T12:46:24Z</time>
      </trkpt>
      <trkpt lat="43.45649" lon="2.00268">
        <ele>240</ele>
        <time>2023-05-27T12:46:25Z</time>
      </trkpt>
      <trkpt lat="43.45651" lon="2.00264">
        <ele>240</ele>
        <time>2023-05-27T12:46:26Z</time>
      </trkpt>
      <trkpt lat="43.45651" lon="2.00261">
        <ele>240</ele>
        <time>2023-05-27T12:46:27Z</time>
      </trkpt>
      <trkpt lat="43.4565" lon="2.00262">
        <ele>240</ele>
        <time>2023-05-27T12:46:28Z</time>
      </trkpt>
      <trkpt lat="43.4565" lon="2.00263">
        <ele>240</ele>
        <time>2023-05-27T12:46:29Z</time>
      </trkpt>
      <trkpt lat="43.45649" lon="2.00264">
        <ele>240</ele>
        <time>2023-05-27T12:46:30Z</time>
      </trkpt>
      <trkpt lat="43.45648" lon="2.00265">
        <ele>240</ele>
        <time>2023-05-27T12:46:31Z</time>
      </trkpt>
      <trkpt lat="43.45648" lon="2.00266">
        <ele>240</ele>
        <time>2023-05-27T12:46:32Z</time>
      </trkpt>
      <trkpt lat="43.45648" lon="2.00266">
        <ele>240</ele>
        <time>2023-05-27T12:46:33Z</time>
      </trkpt>
      <trkpt lat="43.45649" lon="2.00267">
        <ele>240</ele>
        <time>2023-05-27T12:46:34Z</time>
      </trkpt>
      <trkpt lat="43.45649" lon="2.00267">
        <ele>240</ele>
        <time>2023-05-27T12:46:35Z</time>
      </trkpt>
      <trkpt lat="43.45649" lon="2.00266">
        <ele>240</ele>
        <time>2023-05-27T12:46:36Z</time>
      </trkpt>
      <trkpt lat="43.45649" lon="2.00266">
        <ele>240.2</ele>
        <time>2023-05-27T12:46:37Z</time>
      </trkpt>
      <trkpt lat="43.45649" lon="2.00266">
        <ele>240.2</ele>
        <time>2023-05-27T12:46:38Z</time>
      </trkpt>
      <trkpt lat="43.45648" lon="2.00266">
        <ele>240.2</ele>
        <time>2023-05-27T12:46:39Z</time>
      </trkpt>
      <trkpt lat="43.45649" lon="2.00266">
        <ele>240.2</ele>
        <time>2023-05-27T12:46:40Z</time>
      </trkpt>
      <trkpt lat="43.45649" lon="2.00266">
        <ele>240.2</ele>
        <time>2023-05-27T12:46:41Z</time>
      </trkpt>
      <trkpt lat="43.45648" lon="2.00266">
        <ele>240.2</ele>
        <time>2023-05-27T12:46:42Z</time>
      </trkpt>
      <trkpt lat="43.45648" lon="2.00269">
        <ele>240.2</ele>
        <time>2023-05-27T12:47:19Z</time>
      </trkpt>
      <trkpt lat="43.4565" lon="2.00268">
        <ele>240.2</ele>
        <time>2023-05-27T12:47:20Z</time>
      </trkpt>
      <trkpt lat="43.45651" lon="2.00267">
        <ele>240.2</ele>
        <time>2023-05-27T12:47:21Z</time>
      </trkpt>
      <trkpt lat="43.45651" lon="2.00266">
        <ele>240.2</ele>
        <time>2023-05-27T12:47:22Z</time>
      </trkpt>
      <trkpt lat="43.45652" lon="2.00265">
        <ele>240.2</ele>
        <time>2023-05-27T12:47:23Z</time>
      </trkpt>
      <trkpt lat="43.45651" lon="2.00265">
        <ele>240.2</ele>
        <time>2023-05-27T12:47:24Z</time>
      </trkpt>
      <trkpt lat="43.4565" lon="2.00265">
        <ele>240.2</ele>
        <time>2023-05-27T12:47:25Z</time>
      </trkpt>
      <trkpt lat="43.4565" lon="2.00264">
        <ele>240.2</ele>
        <time>2023-05-27T12:47:26Z</time>
      </trkpt>
      <trkpt lat="43.45649" lon="2.00263">
        <ele>240.2</ele>
        <time>2023-05-27T12:47:27Z</time>
      </trkpt>
      <trkpt lat="43.4565" lon="2.00263">
        <ele>240.2</ele>
        <time>2023-05-27T12:47:30Z</time>
      </trkpt>
      <trkpt lat="43.45649" lon="2.00262">
        <ele>240.2</ele>
        <time>2023-05-27T12:47:31Z</time>
      </trkpt>
      <trkpt lat="43.45649" lon="2.00262">
        <ele>240.2</ele>
        <time>2023-05-27T12:47:32Z</time>
      </trkpt>
      <trkpt lat="43.45648" lon="2.00262">
        <ele>240.2</ele>
        <time>2023-05-27T12:47:33Z</time>
      </trkpt>
      <trkpt lat="43.45647" lon="2.00261">
        <ele>240.2</ele>
        <time>2023-05-27T12:47:34Z</time>
      </trkpt>
      <trkpt lat="43.45647" lon="2.00261">
        <ele>240.2</ele>
        <time>2023-05-27T12:47:35Z</time>
      </trkpt>
      <trkpt lat="43.45648" lon="2.00261">
        <ele>240.2</ele>
        <time>2023-05-27T12:47:36Z</time>
      </trkpt>
      <trkpt lat="43.45649" lon="2.0026">
        <ele>240.2</ele>
        <time>2023-05-27T12:47:37Z</time>
      </trkpt>
      <trkpt lat="43.45651" lon="2.0026">
        <ele>240.2</ele>
        <time>2023-05-27T12:47:38Z</time>
      </trkpt>
      <trkpt lat="43.45652" lon="2.00259">
        <ele>240.2</ele>
        <time>2023-05-27T12:47:39Z</time>
      </trkpt>
      <trkpt lat="43.45652" lon="2.00259">
        <ele>240.2</ele>
        <time>2023-05-27T12:47:40Z</time>
      </trkpt>
      <trkpt lat="43.45653" lon="2.00258">
        <ele>240.2</ele>
        <time>2023-05-27T12:47:41Z</time>
      </trkpt>
      <trkpt lat="43.45653" lon="2.00258">
        <ele>240.2</ele>
        <time>2023-05-27T12:47:42Z</time>
      </trkpt>
      <trkpt lat="43.45654" lon="2.00258">
        <ele>240.2</ele>
        <time>2023-05-27T12:47:43Z</time>
      </trkpt>
      <trkpt lat="43.45654" lon="2.00258">
        <ele>240.2</ele>
        <time>2023-05-27T12:47:44Z</time>
      </trkpt>
      <trkpt lat="43.45654" lon="2.00258">
        <ele>240.2</ele>
        <time>2023-05-27T12:47:45Z</time>
      </trkpt>
      <trkpt lat="43.45654" lon="2.00258">
        <ele>240.2</ele>
        <time>2023-05-27T12:47:46Z</time>
      </trkpt>
      <trkpt lat="43.45655" lon="2.00258">
        <ele>240.2</ele>
        <time>2023-05-27T12:47:47Z</time>
      </trkpt>
      <trkpt lat="43.45656" lon="2.00258">
        <ele>240.2</ele>
        <time>2023-05-27T12:47:48Z</time>
      </trkpt>
      <trkpt lat="43.45656" lon="2.00259">
        <ele>240.2</ele>
        <time>2023-05-27T12:47:49Z</time>
      </trkpt>
      <trkpt lat="43.45656" lon="2.0026">
        <ele>240.2</ele>
        <time>2023-05-27T12:47:50Z</time>
      </trkpt>
      <trkpt lat="43.45656" lon="2.00261">
        <ele>240.2</ele>
        <time>2023-05-27T12:47:51Z</time>
      </trkpt>
      <trkpt lat="43.45655" lon="2.00261">
        <ele>240.2</ele>
        <time>2023-05-27T12:47:52Z</time>
      </trkpt>
      <trkpt lat="43.45655" lon="2.00262">
        <ele>240.2</ele>
        <time>2023-05-27T12:47:53Z</time>
      </trkpt>
      <trkpt lat="43.45655" lon="2.00262">
        <ele>240.2</ele>
        <time>2023-05-27T12:47:54Z</time>
      </trkpt>
      <trkpt lat="43.45656" lon="2.00262">
        <ele>240.2</ele>
        <time>2023-05-27T12:47:55Z</time>
      </trkpt>
      <trkpt lat="43.45655" lon="2.00263">
        <ele>240.2</ele>
        <time>2023-05-27T12:47:56Z</time>
      </trkpt>
      <trkpt lat="43.45654" lon="2.00263">
        <ele>240.2</ele>
        <time>2023-05-27T12:47:57Z</time>
      </trkpt>
      <trkpt lat="43.45654" lon="2.00263">
        <ele>240.2</ele>
        <time>2023-05-27T12:47:58Z</time>
      </trkpt>
      <trkpt lat="43.45654" lon="2.00264">
        <ele>240.2</ele>
        <time>2023-05-27T12:47:59Z</time>
      </trkpt>
      <trkpt lat="43.45654" lon="2.00265">
        <ele>240.2</ele>
        <time>2023-05-27T12:48:00Z</time>
      </trkpt>
      <trkpt lat="43.45654" lon="2.00266">
        <ele>240.2</ele>
        <time>2023-05-27T12:48:01Z</time>
      </trkpt>
      <trkpt lat="43.45654" lon="2.00266">
        <ele>240.2</ele>
        <time>2023-05-27T12:48:02Z</time>
      </trkpt>
      <trkpt lat="43.45654" lon="2.00266">
        <ele>240.2</ele>
        <time>2023-05-27T12:48:03Z</time>
      </trkpt>
      <trkpt lat="43.45654" lon="2.00266">
        <ele>240.2</ele>
        <time>2023-05-27T12:48:04Z</time>
      </trkpt>
      <trkpt lat="43.45654" lon="2.00266">
        <ele>240.2</ele>
        <time>2023-05-27T12:48:05Z</time>
      </trkpt>
      <trkpt lat="43.45639" lon="2.00286">
        <ele>240.2</ele>
        <time>2023-05-27T12:51:41Z</time>
      </trkpt>
      <trkpt lat="43.45639" lon="2.00287">
        <ele>240.2</ele>
        <time>2023-05-27T12:51:42Z</time>
      </trkpt>
      <trkpt lat="43.45639" lon="2.00287">
        <ele>240.2</ele>
        <time>2023-05-27T12:51:43Z</time>
      </trkpt>
      <trkpt lat="43.45639" lon="2.00287">
        <ele>240.2</ele>
        <time>2023-05-27T12:51:44Z</time>
      </trkpt>
      <trkpt lat="43.45639" lon="2.00288">
        <ele>240.2</ele>
        <time>2023-05-27T12:51:45Z</time>
      </trkpt>
      <trkpt lat="43.4564" lon="2.00287">
        <ele>240.2</ele>
        <time>2023-05-27T12:51:46Z</time>
      </trkpt>
      <trkpt lat="43.45639" lon="2.00288">
        <ele>240.2</ele>
        <time>2023-05-27T12:51:55Z</time>
      </trkpt>
      <trkpt lat="43.45639" lon="2.00288">
        <ele>240.2</ele>
        <time>2023-05-27T12:51:56Z</time>
      </trkpt>
      <trkpt lat="43.45639" lon="2.00288">
        <ele>240.2</ele>
        <time>2023-05-27T12:51:57Z</time>
      </trkpt>
      <trkpt lat="43.45639" lon="2.00287">
        <ele>240.2</ele>
        <time>2023-05-27T12:51:58Z</time>
      </trkpt>
      <trkpt lat="43.45639" lon="2.00287">
        <ele>240.2</ele>
        <time>2023-05-27T12:51:59Z</time>
      </trkpt>
      <trkpt lat="43.45639" lon="2.00287">
        <ele>240.2</ele>
        <time>2023-05-27T12:52:00Z</time>
      </trkpt>
      <trkpt lat="43.45635" lon="2.00275">
        <ele>240.2</ele>
        <time>2023-05-27T12:53:14Z</time>
      </trkpt>
      <trkpt lat="43.45634" lon="2.00277">
        <ele>240.2</ele>
        <time>2023-05-27T12:53:15Z</time>
      </trkpt>
      <trkpt lat="43.45635" lon="2.00277">
        <ele>240.2</ele>
        <time>2023-05-27T12:53:16Z</time>
      </trkpt>
      <trkpt lat="43.45633" lon="2.00277">
        <ele>240.2</ele>
        <time>2023-05-27T12:53:17Z</time>
      </trkpt>
      <trkpt lat="43.45632" lon="2.00277">
        <ele>240.2</ele>
        <time>2023-05-27T12:53:18Z</time>
      </trkpt>
      <trkpt lat="43.45632" lon="2.00277">
        <ele>240.2</ele>
        <time>2023-05-27T12:53:19Z</time>
      </trkpt>
      <trkpt lat="43.45632" lon="2.00276">
        <ele>240.2</ele>
        <time>2023-05-27T12:53:20Z</time>
      </trkpt>
      <trkpt lat="43.45632" lon="2.00276">
        <ele>240.2</ele>
        <time>2023-05-27T12:53:21Z</time>
      </trkpt>
      <trkpt lat="43.45632" lon="2.00276">
        <ele>240.2</ele>
        <time>2023-05-27T12:53:22Z</time>
      </trkpt>
      <trkpt lat="43.45635" lon="2.00275">
        <ele>240</ele>
        <time>2023-05-27T12:53:28Z</time>
      </trkpt>
      <trkpt lat="43.45634" lon="2.00272">
        <ele>240</ele>
        <time>2023-05-27T12:53:29Z</time>
      </trkpt>
      <trkpt lat="43.45634" lon="2.00268">
        <ele>240</ele>
        <time>2023-05-27T12:53:30Z</time>
      </trkpt>
      <trkpt lat="43.45633" lon="2.00269">
        <ele>240</ele>
        <time>2023-05-27T12:53:31Z</time>
      </trkpt>
      <trkpt lat="43.45631" lon="2.00268">
        <ele>240</ele>
        <time>2023-05-27T12:53:32Z</time>
      </trkpt>
      <trkpt lat="43.45631" lon="2.00268">
        <ele>240</ele>
        <time>2023-05-27T12:53:33Z</time>
      </trkpt>
      <trkpt lat="43.45631" lon="2.00268">
        <ele>240</ele>
        <time>2023-05-27T12:53:34Z</time>
      </trkpt>
      <trkpt lat="43.45631" lon="2.00269">
        <ele>240</ele>
        <time>2023-05-27T12:53:35Z</time>
      </trkpt>
      <trkpt lat="43.45631" lon="2.00269">
        <ele>240</ele>
        <time>2023-05-27T12:53:36Z</time>
      </trkpt>
      <trkpt lat="43.45631" lon="2.00269">
        <ele>240</ele>
        <time>2023-05-27T12:53:37Z</time>
      </trkpt>
      <trkpt lat="43.45633" lon="2.0027">
        <ele>240</ele>
        <time>2023-05-27T12:53:38Z</time>
      </trkpt>
      <trkpt lat="43.45653" lon="2.00277">
        <ele>240</ele>
        <time>2023-05-27T12:54:16Z</time>
      </trkpt>
      <trkpt lat="43.45653" lon="2.00277">
        <ele>240</ele>
        <time>2023-05-27T12:54:17Z</time>
      </trkpt>
      <trkpt lat="43.45653" lon="2.00277">
        <ele>240</ele>
        <time>2023-05-27T12:54:18Z</time>
      </trkpt>
      <trkpt lat="43.45653" lon="2.00278">
        <ele>240</ele>
        <time>2023-05-27T12:54:19Z</time>
      </trkpt>
      <trkpt lat="43.45652" lon="2.00279">
        <ele>240</ele>
        <time>2023-05-27T12:54:20Z</time>
      </trkpt>
      <trkpt lat="43.45652" lon="2.0028">
        <ele>240</ele>
        <time>2023-05-27T12:54:21Z</time>
      </trkpt>
      <trkpt lat="43.45651" lon="2.00281">
        <ele>240</ele>
        <time>2023-05-27T12:54:22Z</time>
      </trkpt>
      <trkpt lat="43.45653" lon="2.00283">
        <ele>240</ele>
        <time>2023-05-27T12:54:26Z</time>
      </trkpt>
      <trkpt lat="43.45655" lon="2.00283">
        <ele>240</ele>
        <time>2023-05-27T12:54:27Z</time>
      </trkpt>
      <trkpt lat="43.45656" lon="2.00283">
        <ele>240</ele>
        <time>2023-05-27T12:54:28Z</time>
      </trkpt>
      <trkpt lat="43.45656" lon="2.00283">
        <ele>240</ele>
        <time>2023-05-27T12:54:29Z</time>
      </trkpt>
      <trkpt lat="43.45656" lon="2.00284">
        <ele>240</ele>
        <time>2023-05-27T12:54:30Z</time>
      </trkpt>
      <trkpt lat="43.45655" lon="2.00284">
        <ele>240</ele>
        <time>2023-05-27T12:54:31Z</time>
      </trkpt>
      <trkpt lat="43.45655" lon="2.00284">
        <ele>240</ele>
        <time>2023-05-27T12:54:32Z</time>
      </trkpt>
      <trkpt lat="43.45655" lon="2.00284">
        <ele>240</ele>
        <time>2023-05-27T12:54:33Z</time>
      </trkpt>
      <trkpt lat="43.45655" lon="2.00284">
        <ele>240</ele>
        <time>2023-05-27T12:54:34Z</time>
      </trkpt>
      <trkpt lat="43.45655" lon="2.00284">
        <ele>240</ele>
        <time>2023-05-27T12:54:35Z</time>
      </trkpt>
      <trkpt lat="43.45655" lon="2.00284">
        <ele>240</ele>
        <time>2023-05-27T12:54:36Z</time>
      </trkpt>
      <trkpt lat="43.45655" lon="2.00283">
        <ele>240</ele>
        <time>2023-05-27T12:54:44Z</time>
      </trkpt>
      <trkpt lat="43.45652" lon="2.00283">
        <ele>240</ele>
        <time>2023-05-27T12:54:45Z</time>
      </trkpt>
      <trkpt lat="43.45652" lon="2.00284">
        <ele>240</ele>
        <time>2023-05-27T12:54:46Z</time>
      </trkpt>
      <trkpt lat="43.45652" lon="2.00285">
        <ele>240</ele>
        <time>2023-05-27T12:54:47Z</time>
      </trkpt>
      <trkpt lat="43.45652" lon="2.00286">
        <ele>240</ele>
        <time>2023-05-27T12:54:48Z</time>
      </trkpt>
      <trkpt lat="43.45651" lon="2.00287">
        <ele>240</ele>
        <time>2023-05-27T12:54:49Z</time>
      </trkpt>
      <trkpt lat="43.45651" lon="2.00287">
        <ele>240</ele>
        <time>2023-05-27T12:54:50Z</time>
      </trkpt>
      <trkpt lat="43.45651" lon="2.00287">
        <ele>240</ele>
        <time>2023-05-27T12:54:51Z</time>
      </trkpt>
      <trkpt lat="43.4565" lon="2.00287">
        <ele>240</ele>
        <time>2023-05-27T12:54:52Z</time>
      </trkpt>
      <trkpt lat="43.45649" lon="2.00287">
        <ele>240</ele>
        <time>2023-05-27T12:54:53Z</time>
      </trkpt>
      <trkpt lat="43.45649" lon="2.00286">
        <ele>240</ele>
        <time>2023-05-27T12:54:54Z</time>
      </trkpt>
      <trkpt lat="43.45649" lon="2.00286">
        <ele>240</ele>
        <time>2023-05-27T12:54:55Z</time>
      </trkpt>
      <trkpt lat="43.45649" lon="2.00286">
        <ele>240.2</ele>
        <time>2023-05-27T12:54:56Z</time>
      </trkpt>
      <trkpt lat="43.45649" lon="2.00285">
        <ele>240.2</ele>
        <time>2023-05-27T12:54:57Z</time>
      </trkpt>
      <trkpt lat="43.45649" lon="2.00283">
        <ele>240.2</ele>
        <time>2023-05-27T12:54:58Z</time>
      </trkpt>
      <trkpt lat="43.45649" lon="2.00282">
        <ele>240.2</ele>
        <time>2023-05-27T12:54:59Z</time>
      </trkpt>
      <trkpt lat="43.4565" lon="2.0028">
        <ele>240.2</ele>
        <time>2023-05-27T12:55:00Z</time>
      </trkpt>
      <trkpt lat="43.4565" lon="2.0028">
        <ele>240.4</ele>
        <time>2023-05-27T12:55:01Z</time>
      </trkpt>
      <trkpt lat="43.45651" lon="2.0028">
        <ele>240.4</ele>
        <time>2023-05-27T12:55:02Z</time>
      </trkpt>
      <trkpt lat="43.45651" lon="2.0028">
        <ele>240.4</ele>
        <time>2023-05-27T12:55:03Z</time>
      </trkpt>
      <trkpt lat="43.45652" lon="2.0028">
        <ele>240.6</ele>
        <time>2023-05-27T12:55:04Z</time>
      </trkpt>
      <trkpt lat="43.45652" lon="2.0028">
        <ele>240.6</ele>
        <time>2023-05-27T12:55:05Z</time>
      </trkpt>
      <trkpt lat="43.45654" lon="2.0028">
        <ele>240.6</ele>
        <time>2023-05-27T12:55:06Z</time>
      </trkpt>
      <trkpt lat="43.45654" lon="2.00281">
        <ele>240.6</ele>
        <time>2023-05-27T12:55:07Z</time>
      </trkpt>
      <trkpt lat="43.45654" lon="2.00281">
        <ele>240.6</ele>
        <time>2023-05-27T12:55:08Z</time>
      </trkpt>
      <trkpt lat="43.45655" lon="2.00281">
        <ele>240.6</ele>
        <time>2023-05-27T12:55:09Z</time>
      </trkpt>
      <trkpt lat="43.45655" lon="2.0028">
        <ele>240.6</ele>
        <time>2023-05-27T12:55:10Z</time>
      </trkpt>
      <trkpt lat="43.45655" lon="2.00279">
        <ele>240.6</ele>
        <time>2023-05-27T12:55:11Z</time>
      </trkpt>
      <trkpt lat="43.45655" lon="2.00278">
        <ele>240.8</ele>
        <time>2023-05-27T12:55:12Z</time>
      </trkpt>
      <trkpt lat="43.45656" lon="2.00277">
        <ele>240.8</ele>
        <time>2023-05-27T12:55:13Z</time>
      </trkpt>
      <trkpt lat="43.45656" lon="2.00277">
        <ele>240.6</ele>
        <time>2023-05-27T12:55:14Z</time>
      </trkpt>
      <trkpt lat="43.45656" lon="2.00278">
        <ele>240.6</ele>
        <time>2023-05-27T12:55:16Z</time>
      </trkpt>
      <trkpt lat="43.45656" lon="2.00278">
        <ele>240.8</ele>
        <time>2023-05-27T12:55:17Z</time>
      </trkpt>
      <trkpt lat="43.45656" lon="2.00278">
        <ele>240.8</ele>
        <time>2023-05-27T12:55:18Z</time>
      </trkpt>
      <trkpt lat="43.45657" lon="2.00278">
        <ele>240.8</ele>
        <time>2023-05-27T12:55:19Z</time>
      </trkpt>
      <trkpt lat="43.45657" lon="2.00278">
        <ele>240.8</ele>
        <time>2023-05-27T12:55:20Z</time>
      </trkpt>
      <trkpt lat="43.45657" lon="2.00278">
        <ele>240.8</ele>
        <time>2023-05-27T12:55:21Z</time>
      </trkpt>
      <trkpt lat="43.45657" lon="2.00278">
        <ele>240.8</ele>
        <time>2023-05-27T12:55:22Z</time>
      </trkpt>
      <trkpt lat="43.45657" lon="2.00277">
        <ele>240.8</ele>
        <time>2023-05-27T12:55:23Z</time>
      </trkpt>
      <trkpt lat="43.45657" lon="2.00276">
        <ele>240.8</ele>
        <time>2023-05-27T12:55:24Z</time>
      </trkpt>
      <trkpt lat="43.45654" lon="2.00273">
        <ele>240.8</ele>
        <time>2023-05-27T12:55:27Z</time>
      </trkpt>
      <trkpt lat="43.45653" lon="2.00273">
        <ele>240.8</ele>
        <time>2023-05-27T12:55:28Z</time>
      </trkpt>
      <trkpt lat="43.45652" lon="2.00273">
        <ele>240.8</ele>
        <time>2023-05-27T12:55:29Z</time>
      </trkpt>
      <trkpt lat="43.45652" lon="2.00274">
        <ele>240.8</ele>
        <time>2023-05-27T12:55:30Z</time>
      </trkpt>
      <trkpt lat="43.45652" lon="2.00274">
        <ele>240.8</ele>
        <time>2023-05-27T12:55:31Z</time>
      </trkpt>
      <trkpt lat="43.45652" lon="2.00276">
        <ele>240.8</ele>
        <time>2023-05-27T12:55:32Z</time>
      </trkpt>
      <trkpt lat="43.45652" lon="2.00278">
        <ele>240.8</ele>
        <time>2023-05-27T12:55:33Z</time>
      </trkpt>
      <trkpt lat="43.45651" lon="2.00278">
        <ele>240.8</ele>
        <time>2023-05-27T12:55:34Z</time>
      </trkpt>
      <trkpt lat="43.45652" lon="2.00278">
        <ele>240.8</ele>
        <time>2023-05-27T12:55:35Z</time>
      </trkpt>
      <trkpt lat="43.45653" lon="2.00278">
        <ele>240.8</ele>
        <time>2023-05-27T12:55:36Z</time>
      </trkpt>
      <trkpt lat="43.45653" lon="2.00276">
        <ele>240.8</ele>
        <time>2023-05-27T12:55:37Z</time>
      </trkpt>
      <trkpt lat="43.45653" lon="2.00275">
        <ele>240.8</ele>
        <time>2023-05-27T12:55:38Z</time>
      </trkpt>
      <trkpt lat="43.45652" lon="2.00274">
        <ele>240.8</ele>
        <time>2023-05-27T12:55:39Z</time>
      </trkpt>
      <trkpt lat="43.45652" lon="2.00274">
        <ele>240.8</ele>
        <time>2023-05-27T12:55:40Z</time>
      </trkpt>
      <trkpt lat="43.45652" lon="2.00273">
        <ele>240.8</ele>
        <time>2023-05-27T12:55:41Z</time>
      </trkpt>
      <trkpt lat="43.45651" lon="2.00273">
        <ele>240.8</ele>
        <time>2023-05-27T12:55:42Z</time>
      </trkpt>
      <trkpt lat="43.4565" lon="2.00273">
        <ele>240.8</ele>
        <time>2023-05-27T12:55:43Z</time>
      </trkpt>
      <trkpt lat="43.4565" lon="2.00272">
        <ele>240.8</ele>
        <time>2023-05-27T12:55:44Z</time>
      </trkpt>
      <trkpt lat="43.45651" lon="2.00272">
        <ele>240.8</ele>
        <time>2023-05-27T12:55:45Z</time>
      </trkpt>
      <trkpt lat="43.45653" lon="2.00272">
        <ele>240.8</ele>
        <time>2023-05-27T12:55:46Z</time>
      </trkpt>
      <trkpt lat="43.45655" lon="2.00271">
        <ele>240.8</ele>
        <time>2023-05-27T12:55:47Z</time>
      </trkpt>
      <trkpt lat="43.45657" lon="2.00271">
        <ele>240.8</ele>
        <time>2023-05-27T12:55:48Z</time>
      </trkpt>
      <trkpt lat="43.45661" lon="2.00271">
        <ele>240.8</ele>
        <time>2023-05-27T12:55:49Z</time>
      </trkpt>
      <trkpt lat="43.45662" lon="2.0027">
        <ele>240.8</ele>
        <time>2023-05-27T12:55:50Z</time>
      </trkpt>
      <trkpt lat="43.45663" lon="2.0027">
        <ele>240.8</ele>
        <time>2023-05-27T12:55:51Z</time>
      </trkpt>
      <trkpt lat="43.45663" lon="2.0027">
        <ele>240.8</ele>
        <time>2023-05-27T12:55:52Z</time>
      </trkpt>
      <trkpt lat="43.45663" lon="2.0027">
        <ele>240.8</ele>
        <time>2023-05-27T12:55:53Z</time>
      </trkpt>
      <trkpt lat="43.45663" lon="2.0027">
        <ele>240.8</ele>
        <time>2023-05-27T12:55:54Z</time>
      </trkpt>
      <trkpt lat="43.45663" lon="2.00271">
        <ele>240.8</ele>
        <time>2023-05-27T12:55:55Z</time>
      </trkpt>
      <trkpt lat="43.45662" lon="2.00271">
        <ele>240.8</ele>
        <time>2023-05-27T12:55:56Z</time>
      </trkpt>
      <trkpt lat="43.45661" lon="2.00271">
        <ele>240.8</ele>
        <time>2023-05-27T12:55:57Z</time>
      </trkpt>
      <trkpt lat="43.4566" lon="2.0027">
        <ele>240.6</ele>
        <time>2023-05-27T12:55:58Z</time>
      </trkpt>
      <trkpt lat="43.4566" lon="2.0027">
        <ele>240.6</ele>
        <time>2023-05-27T12:55:59Z</time>
      </trkpt>
      <trkpt lat="43.4566" lon="2.0027">
        <ele>240.6</ele>
        <time>2023-05-27T12:56:00Z</time>
      </trkpt>
      <trkpt lat="43.45659" lon="2.00271">
        <ele>240.6</ele>
        <time>2023-05-27T12:56:01Z</time>
      </trkpt>
      <trkpt lat="43.45659" lon="2.00272">
        <ele>240.6</ele>
        <time>2023-05-27T12:56:02Z</time>
      </trkpt>
      <trkpt lat="43.45658" lon="2.00272">
        <ele>240.6</ele>
        <time>2023-05-27T12:56:03Z</time>
      </trkpt>
      <trkpt lat="43.45658" lon="2.00271">
        <ele>240.6</ele>
        <time>2023-05-27T12:56:04Z</time>
      </trkpt>
      <trkpt lat="43.45658" lon="2.0027">
        <ele>240.6</ele>
        <time>2023-05-27T12:56:05Z</time>
      </trkpt>
      <trkpt lat="43.45658" lon="2.0027">
        <ele>240.4</ele>
        <time>2023-05-27T12:56:06Z</time>
      </trkpt>
      <trkpt lat="43.45657" lon="2.00271">
        <ele>240.4</ele>
        <time>2023-05-27T12:56:07Z</time>
      </trkpt>
      <trkpt lat="43.45657" lon="2.00272">
        <ele>240.4</ele>
        <time>2023-05-27T12:56:08Z</time>
      </trkpt>
      <trkpt lat="43.45657" lon="2.00272">
        <ele>240.4</ele>
        <time>2023-05-27T12:56:09Z</time>
      </trkpt>
      <trkpt lat="43.45657" lon="2.00273">
        <ele>240.4</ele>
        <time>2023-05-27T12:56:10Z</time>
      </trkpt>
      <trkpt lat="43.45657" lon="2.00273">
        <ele>240.4</ele>
        <time>2023-05-27T12:56:11Z</time>
      </trkpt>
      <trkpt lat="43.45657" lon="2.00274">
        <ele>240.4</ele>
        <time>2023-05-27T12:56:12Z</time>
      </trkpt>
      <trkpt lat="43.45656" lon="2.00275">
        <ele>240.4</ele>
        <time>2023-05-27T12:56:13Z</time>
      </trkpt>
      <trkpt lat="43.45656" lon="2.00276">
        <ele>240.4</ele>
        <time>2023-05-27T12:56:14Z</time>
      </trkpt>
      <trkpt lat="43.45655" lon="2.00277">
        <ele>240.4</ele>
        <time>2023-05-27T12:56:15Z</time>
      </trkpt>
      <trkpt lat="43.45655" lon="2.00277">
        <ele>240.4</ele>
        <time>2023-05-27T12:56:16Z</time>
      </trkpt>
      <trkpt lat="43.45655" lon="2.00278">
        <ele>240.4</ele>
        <time>2023-05-27T12:56:17Z</time>
      </trkpt>
      <trkpt lat="43.45655" lon="2.00278">
        <ele>240.4</ele>
        <time>2023-05-27T12:56:18Z</time>
      </trkpt>
      <trkpt lat="43.45656" lon="2.00278">
        <ele>240.6</ele>
        <time>2023-05-27T12:56:19Z</time>
      </trkpt>
      <trkpt lat="43.45657" lon="2.00278">
        <ele>240.6</ele>
        <time>2023-05-27T12:56:20Z</time>
      </trkpt>
      <trkpt lat="43.45657" lon="2.00277">
        <ele>240.6</ele>
        <time>2023-05-27T12:56:21Z</time>
      </trkpt>
      <trkpt lat="43.45658" lon="2.00277">
        <ele>240.6</ele>
        <time>2023-05-27T12:56:22Z</time>
      </trkpt>
      <trkpt lat="43.45658" lon="2.00278">
        <ele>240.6</ele>
        <time>2023-05-27T12:56:23Z</time>
      </trkpt>
      <trkpt lat="43.45658" lon="2.00279">
        <ele>240.4</ele>
        <time>2023-05-27T12:56:24Z</time>
      </trkpt>
      <trkpt lat="43.45659" lon="2.00279">
        <ele>240.6</ele>
        <time>2023-05-27T12:56:25Z</time>
      </trkpt>
      <trkpt lat="43.45659" lon="2.00279">
        <ele>240.6</ele>
        <time>2023-05-27T12:56:26Z</time>
      </trkpt>
      <trkpt lat="43.4566" lon="2.00279">
        <ele>240.4</ele>
        <time>2023-05-27T12:56:27Z</time>
      </trkpt>
      <trkpt lat="43.4566" lon="2.00278">
        <ele>240.4</ele>
        <time>2023-05-27T12:56:28Z</time>
      </trkpt>
      <trkpt lat="43.4566" lon="2.00277">
        <ele>240.4</ele>
        <time>2023-05-27T12:56:29Z</time>
      </trkpt>
      <trkpt lat="43.4566" lon="2.00275">
        <ele>240.4</ele>
        <time>2023-05-27T12:56:30Z</time>
      </trkpt>
      <trkpt lat="43.45662" lon="2.00269">
        <ele>240.6</ele>
        <time>2023-05-27T12:56:31Z</time>
      </trkpt>
      <trkpt lat="43.45664" lon="2.00265">
        <ele>240.6</ele>
        <time>2023-05-27T12:56:32Z</time>
      </trkpt>
      <trkpt lat="43.45666" lon="2.00266">
        <ele>240.6</ele>
        <time>2023-05-27T12:56:33Z</time>
      </trkpt>
      <trkpt lat="43.45666" lon="2.0027">
        <ele>240.6</ele>
        <time>2023-05-27T12:56:34Z</time>
      </trkpt>
      <trkpt lat="43.45666" lon="2.00271">
        <ele>240.6</ele>
        <time>2023-05-27T12:56:35Z</time>
      </trkpt>
      <trkpt lat="43.45666" lon="2.00272">
        <ele>240.6</ele>
        <time>2023-05-27T12:56:36Z</time>
      </trkpt>
      <trkpt lat="43.45665" lon="2.00273">
        <ele>240.6</ele>
        <time>2023-05-27T12:56:37Z</time>
      </trkpt>
      <trkpt lat="43.45664" lon="2.00273">
        <ele>240.6</ele>
        <time>2023-05-27T12:56:38Z</time>
      </trkpt>
      <trkpt lat="43.45664" lon="2.00272">
        <ele>240.6</ele>
        <time>2023-05-27T12:56:39Z</time>
      </trkpt>
      <trkpt lat="43.45664" lon="2.0027">
        <ele>240.6</ele>
        <time>2023-05-27T12:56:40Z</time>
      </trkpt>
      <trkpt lat="43.45663" lon="2.00269">
        <ele>240.6</ele>
        <time>2023-05-27T12:56:41Z</time>
      </trkpt>
      <trkpt lat="43.45663" lon="2.00268">
        <ele>240.6</ele>
        <time>2023-05-27T12:56:42Z</time>
      </trkpt>
      <trkpt lat="43.45663" lon="2.00267">
        <ele>240.6</ele>
        <time>2023-05-27T12:56:43Z</time>
      </trkpt>
      <trkpt lat="43.45664" lon="2.00268">
        <ele>240.6</ele>
        <time>2023-05-27T12:56:44Z</time>
      </trkpt>
      <trkpt lat="43.45664" lon="2.00269">
        <ele>240.6</ele>
        <time>2023-05-27T12:56:45Z</time>
      </trkpt>
      <trkpt lat="43.45665" lon="2.0027">
        <ele>240.6</ele>
        <time>2023-05-27T12:56:46Z</time>
      </trkpt>
      <trkpt lat="43.45663" lon="2.0027">
        <ele>240.6</ele>
        <time>2023-05-27T12:56:47Z</time>
      </trkpt>
      <trkpt lat="43.45662" lon="2.00272">
        <ele>240.6</ele>
        <time>2023-05-27T12:56:48Z</time>
      </trkpt>
      <trkpt lat="43.45662" lon="2.00272">
        <ele>240.6</ele>
        <time>2023-05-27T12:56:49Z</time>
      </trkpt>
      <trkpt lat="43.45661" lon="2.00274">
        <ele>240.6</ele>
        <time>2023-05-27T12:56:50Z</time>
      </trkpt>
      <trkpt lat="43.45661" lon="2.00274">
        <ele>240.6</ele>
        <time>2023-05-27T12:56:51Z</time>
      </trkpt>
      <trkpt lat="43.4566" lon="2.00274">
        <ele>240.6</ele>
        <time>2023-05-27T12:56:52Z</time>
      </trkpt>
      <trkpt lat="43.4566" lon="2.00275">
        <ele>240.6</ele>
        <time>2023-05-27T12:56:53Z</time>
      </trkpt>
      <trkpt lat="43.4566" lon="2.00275">
        <ele>240.6</ele>
        <time>2023-05-27T12:56:54Z</time>
      </trkpt>
      <trkpt lat="43.45658" lon="2.00274">
        <ele>240.4</ele>
        <time>2023-05-27T12:56:55Z</time>
      </trkpt>
      <trkpt lat="43.45658" lon="2.00274">
        <ele>240.4</ele>
        <time>2023-05-27T12:56:56Z</time>
      </trkpt>
      <trkpt lat="43.45658" lon="2.00273">
        <ele>240.4</ele>
        <time>2023-05-27T12:56:57Z</time>
      </trkpt>
      <trkpt lat="43.4566" lon="2.00275">
        <ele>240.4</ele>
        <time>2023-05-27T12:56:58Z</time>
      </trkpt>
      <trkpt lat="43.45661" lon="2.00275">
        <ele>240.4</ele>
        <time>2023-05-27T12:56:59Z</time>
      </trkpt>
      <trkpt lat="43.45662" lon="2.00277">
        <ele>240.4</ele>
        <time>2023-05-27T12:57:00Z</time>
      </trkpt>
      <trkpt lat="43.45662" lon="2.0028">
        <ele>240.4</ele>
        <time>2023-05-27T12:57:01Z</time>
      </trkpt>
      <trkpt lat="43.45661" lon="2.00283">
        <ele>240.4</ele>
        <time>2023-05-27T12:57:02Z</time>
      </trkpt>
      <trkpt lat="43.45661" lon="2.00285">
        <ele>240.4</ele>
        <time>2023-05-27T12:57:03Z</time>
      </trkpt>
      <trkpt lat="43.45662" lon="2.00288">
        <ele>240.4</ele>
        <time>2023-05-27T12:57:04Z</time>
      </trkpt>
      <trkpt lat="43.45663" lon="2.00291">
        <ele>240.4</ele>
        <time>2023-05-27T12:57:05Z</time>
      </trkpt>
      <trkpt lat="43.45664" lon="2.00293">
        <ele>240.4</ele>
        <time>2023-05-27T12:57:06Z</time>
      </trkpt>
      <trkpt lat="43.45665" lon="2.00294">
        <ele>240.4</ele>
        <time>2023-05-27T12:57:07Z</time>
      </trkpt>
      <trkpt lat="43.45667" lon="2.00294">
        <ele>240.4</ele>
        <time>2023-05-27T12:57:08Z</time>
      </trkpt>
      <trkpt lat="43.45666" lon="2.00294">
        <ele>240.4</ele>
        <time>2023-05-27T12:57:09Z</time>
      </trkpt>
      <trkpt lat="43.45664" lon="2.00293">
        <ele>240.4</ele>
        <time>2023-05-27T12:57:10Z</time>
      </trkpt>
      <trkpt lat="43.45663" lon="2.00292">
        <ele>240.4</ele>
        <time>2023-05-27T12:57:11Z</time>
      </trkpt>
      <trkpt lat="43.45662" lon="2.00292">
        <ele>240.4</ele>
        <time>2023-05-27T12:57:12Z</time>
      </trkpt>
      <trkpt lat="43.45662" lon="2.00292">
        <ele>240.4</ele>
        <time>2023-05-27T12:57:13Z</time>
      </trkpt>
      <trkpt lat="43.45661" lon="2.00291">
        <ele>240.4</ele>
        <time>2023-05-27T12:57:14Z</time>
      </trkpt>
      <trkpt lat="43.4566" lon="2.0029">
        <ele>240.4</ele>
        <time>2023-05-27T12:57:15Z</time>
      </trkpt>
      <trkpt lat="43.45659" lon="2.00287">
        <ele>240.4</ele>
        <time>2023-05-27T12:57:16Z</time>
      </trkpt>
      <trkpt lat="43.45659" lon="2.00285">
        <ele>240.4</ele>
        <time>2023-05-27T12:57:17Z</time>
      </trkpt>
      <trkpt lat="43.45659" lon="2.00285">
        <ele>240.4</ele>
        <time>2023-05-27T12:57:18Z</time>
      </trkpt>
      <trkpt lat="43.4566" lon="2.00283">
        <ele>240.4</ele>
        <time>2023-05-27T12:57:19Z</time>
      </trkpt>
      <trkpt lat="43.45659" lon="2.00279">
        <ele>240.4</ele>
        <time>2023-05-27T12:57:20Z</time>
      </trkpt>
      <trkpt lat="43.45659" lon="2.00275">
        <ele>240.4</ele>
        <time>2023-05-27T12:57:21Z</time>
      </trkpt>
      <trkpt lat="43.45659" lon="2.00273">
        <ele>240.4</ele>
        <time>2023-05-27T12:57:22Z</time>
      </trkpt>
      <trkpt lat="43.4566" lon="2.00273">
        <ele>240.4</ele>
        <time>2023-05-27T12:57:23Z</time>
      </trkpt>
      <trkpt lat="43.45661" lon="2.00272">
        <ele>240.4</ele>
        <time>2023-05-27T12:57:24Z</time>
      </trkpt>
      <trkpt lat="43.45662" lon="2.00272">
        <ele>240.4</ele>
        <time>2023-05-27T12:57:25Z</time>
      </trkpt>
      <trkpt lat="43.45664" lon="2.00272">
        <ele>240.4</ele>
        <time>2023-05-27T12:57:26Z</time>
      </trkpt>
      <trkpt lat="43.45667" lon="2.00272">
        <ele>240.4</ele>
        <time>2023-05-27T12:57:27Z</time>
      </trkpt>
      <trkpt lat="43.45668" lon="2.00271">
        <ele>240.4</ele>
        <time>2023-05-27T12:57:28Z</time>
      </trkpt>
      <trkpt lat="43.45667" lon="2.00269">
        <ele>240.4</ele>
        <time>2023-05-27T12:57:29Z</time>
      </trkpt>
      <trkpt lat="43.45668" lon="2.00268">
        <ele>240.2</ele>
        <time>2023-05-27T12:57:30Z</time>
      </trkpt>
      <trkpt lat="43.4567" lon="2.00267">
        <ele>240.2</ele>
        <time>2023-05-27T12:57:31Z</time>
      </trkpt>
      <trkpt lat="43.45672" lon="2.00266">
        <ele>240.2</ele>
        <time>2023-05-27T12:57:32Z</time>
      </trkpt>
      <trkpt lat="43.45675" lon="2.00266">
        <ele>240.2</ele>
        <time>2023-05-27T12:57:33Z</time>
      </trkpt>
      <trkpt lat="43.45679" lon="2.00269">
        <ele>240.2</ele>
        <time>2023-05-27T12:57:34Z</time>
      </trkpt>
      <trkpt lat="43.45684" lon="2.00273">
        <ele>240.2</ele>
        <time>2023-05-27T12:57:35Z</time>
      </trkpt>
      <trkpt lat="43.4569" lon="2.00277">
        <ele>240.2</ele>
        <time>2023-05-27T12:57:36Z</time>
      </trkpt>
      <trkpt lat="43.45694" lon="2.0028">
        <ele>240.2</ele>
        <time>2023-05-27T12:57:37Z</time>
      </trkpt>
      <trkpt lat="43.45696" lon="2.00286">
        <ele>240.2</ele>
        <time>2023-05-27T12:57:38Z</time>
      </trkpt>
      <trkpt lat="43.45697" lon="2.00289">
        <ele>240.2</ele>
        <time>2023-05-27T12:57:39Z</time>
      </trkpt>
      <trkpt lat="43.45696" lon="2.00291">
        <ele>240.2</ele>
        <time>2023-05-27T12:57:40Z</time>
      </trkpt>
      <trkpt lat="43.45691" lon="2.00293">
        <ele>240.2</ele>
        <time>2023-05-27T12:57:41Z</time>
      </trkpt>
      <trkpt lat="43.45688" lon="2.00292">
        <ele>240.2</ele>
        <time>2023-05-27T12:57:42Z</time>
      </trkpt>
      <trkpt lat="43.45687" lon="2.00291">
        <ele>240.2</ele>
        <time>2023-05-27T12:57:43Z</time>
      </trkpt>
      <trkpt lat="43.45684" lon="2.00289">
        <ele>240.2</ele>
        <time>2023-05-27T12:57:44Z</time>
      </trkpt>
      <trkpt lat="43.45681" lon="2.00286">
        <ele>240.2</ele>
        <time>2023-05-27T12:57:45Z</time>
      </trkpt>
      <trkpt lat="43.45677" lon="2.00282">
        <ele>240.2</ele>
        <time>2023-05-27T12:57:46Z</time>
      </trkpt>
      <trkpt lat="43.4567" lon="2.0028">
        <ele>240.2</ele>
        <time>2023-05-27T12:57:47Z</time>
      </trkpt>
      <trkpt lat="43.45663" lon="2.00279">
        <ele>240.2</ele>
        <time>2023-05-27T12:57:48Z</time>
      </trkpt>
      <trkpt lat="43.45658" lon="2.00281">
        <ele>240.2</ele>
        <time>2023-05-27T12:57:49Z</time>
      </trkpt>
      <trkpt lat="43.45655" lon="2.00283">
        <ele>240.2</ele>
        <time>2023-05-27T12:57:50Z</time>
      </trkpt>
      <trkpt lat="43.45655" lon="2.00286">
        <ele>240</ele>
        <time>2023-05-27T12:57:51Z</time>
      </trkpt>
      <trkpt lat="43.45657" lon="2.00288">
        <ele>240</ele>
        <time>2023-05-27T12:57:52Z</time>
      </trkpt>
      <trkpt lat="43.45659" lon="2.0029">
        <ele>240</ele>
        <time>2023-05-27T12:57:53Z</time>
      </trkpt>
      <trkpt lat="43.4566" lon="2.00291">
        <ele>240.2</ele>
        <time>2023-05-27T12:57:54Z</time>
      </trkpt>
      <trkpt lat="43.45661" lon="2.00292">
        <ele>240.4</ele>
        <time>2023-05-27T12:57:55Z</time>
      </trkpt>
      <trkpt lat="43.45661" lon="2.00292">
        <ele>240.4</ele>
        <time>2023-05-27T12:57:56Z</time>
      </trkpt>
      <trkpt lat="43.45661" lon="2.0029">
        <ele>240.6</ele>
        <time>2023-05-27T12:57:57Z</time>
      </trkpt>
      <trkpt lat="43.45662" lon="2.00286">
        <ele>240.6</ele>
        <time>2023-05-27T12:57:58Z</time>
      </trkpt>
      <trkpt lat="43.45664" lon="2.00281">
        <ele>240.8</ele>
        <time>2023-05-27T12:57:59Z</time>
      </trkpt>
      <trkpt lat="43.45665" lon="2.00277">
        <ele>240.8</ele>
        <time>2023-05-27T12:58:00Z</time>
      </trkpt>
      <trkpt lat="43.45667" lon="2.00272">
        <ele>240.8</ele>
        <time>2023-05-27T12:58:01Z</time>
      </trkpt>
      <trkpt lat="43.45668" lon="2.00267">
        <ele>240.8</ele>
        <time>2023-05-27T12:58:02Z</time>
      </trkpt>
      <trkpt lat="43.45669" lon="2.00263">
        <ele>240.8</ele>
        <time>2023-05-27T12:58:03Z</time>
      </trkpt>
      <trkpt lat="43.45671" lon="2.00258">
        <ele>240.8</ele>
        <time>2023-05-27T12:58:04Z</time>
      </trkpt>
      <trkpt lat="43.45672" lon="2.00254">
        <ele>240.8</ele>
        <time>2023-05-27T12:58:05Z</time>
      </trkpt>
      <trkpt lat="43.45674" lon="2.00249">
        <ele>240.8</ele>
        <time>2023-05-27T12:58:06Z</time>
      </trkpt>
      <trkpt lat="43.45675" lon="2.00244">
        <ele>240.8</ele>
        <time>2023-05-27T12:58:07Z</time>
      </trkpt>
      <trkpt lat="43.45677" lon="2.0024">
        <ele>240.8</ele>
        <time>2023-05-27T12:58:08Z</time>
      </trkpt>
      <trkpt lat="43.45678" lon="2.00235">
        <ele>241</ele>
        <time>2023-05-27T12:58:09Z</time>
      </trkpt>
      <trkpt lat="43.4568" lon="2.0023">
        <ele>241</ele>
        <time>2023-05-27T12:58:10Z</time>
      </trkpt>
      <trkpt lat="43.45681" lon="2.00226">
        <ele>241</ele>
        <time>2023-05-27T12:58:11Z</time>
      </trkpt>
      <trkpt lat="43.45682" lon="2.00221">
        <ele>241</ele>
        <time>2023-05-27T12:58:12Z</time>
      </trkpt>
      <trkpt lat="43.45684" lon="2.00217">
        <ele>241</ele>
        <time>2023-05-27T12:58:13Z</time>
      </trkpt>
      <trkpt lat="43.45685" lon="2.00212">
        <ele>241</ele>
        <time>2023-05-27T12:58:14Z</time>
      </trkpt>
      <trkpt lat="43.45687" lon="2.00207">
        <ele>241</ele>
        <time>2023-05-27T12:58:15Z</time>
      </trkpt>
      <trkpt lat="43.45597" lon="2.0041">
        <ele>241</ele>
        <time>2023-05-27T12:58:58Z</time>
      </trkpt>
      <trkpt lat="43.45594" lon="2.00426">
        <ele>241</ele>
        <time>2023-05-27T12:58:59Z</time>
      </trkpt>
      <trkpt lat="43.45609" lon="2.00402">
        <ele>241</ele>
        <time>2023-05-27T12:59:00Z</time>
      </trkpt>
      <trkpt lat="43.45626" lon="2.00369">
        <ele>241</ele>
        <time>2023-05-27T12:59:01Z</time>
      </trkpt>
      <trkpt lat="43.45633" lon="2.00332">
        <ele>241</ele>
        <time>2023-05-27T12:59:02Z</time>
      </trkpt>
      <trkpt lat="43.45651" lon="2.00291">
        <ele>241</ele>
        <time>2023-05-27T12:59:03Z</time>
      </trkpt>
      <trkpt lat="43.4566" lon="2.00275">
        <ele>241</ele>
        <time>2023-05-27T12:59:04Z</time>
      </trkpt>
      <trkpt lat="43.45661" lon="2.00274">
        <ele>241</ele>
        <time>2023-05-27T12:59:05Z</time>
      </trkpt>
      <trkpt lat="43.45661" lon="2.00275">
        <ele>241</ele>
        <time>2023-05-27T12:59:06Z</time>
      </trkpt>
      <trkpt lat="43.45661" lon="2.00276">
        <ele>241</ele>
        <time>2023-05-27T12:59:07Z</time>
      </trkpt>
      <trkpt lat="43.4566" lon="2.00276">
        <ele>240.8</ele>
        <time>2023-05-27T12:59:08Z</time>
      </trkpt>
      <trkpt lat="43.45662" lon="2.00274">
        <ele>240.6</ele>
        <time>2023-05-27T12:59:09Z</time>
      </trkpt>
      <trkpt lat="43.45663" lon="2.00272">
        <ele>240.6</ele>
        <time>2023-05-27T12:59:10Z</time>
      </trkpt>
      <trkpt lat="43.45665" lon="2.00269">
        <ele>240.4</ele>
        <time>2023-05-27T12:59:11Z</time>
      </trkpt>
      <trkpt lat="43.45666" lon="2.00267">
        <ele>240.4</ele>
        <time>2023-05-27T12:59:12Z</time>
      </trkpt>
      <trkpt lat="43.45668" lon="2.00264">
        <ele>240.2</ele>
        <time>2023-05-27T12:59:13Z</time>
      </trkpt>
      <trkpt lat="43.45669" lon="2.00261">
        <ele>240.2</ele>
        <time>2023-05-27T12:59:14Z</time>
      </trkpt>
      <trkpt lat="43.45671" lon="2.00259">
        <ele>240.2</ele>
        <time>2023-05-27T12:59:15Z</time>
      </trkpt>
      <trkpt lat="43.45672" lon="2.00256">
        <ele>240.2</ele>
        <time>2023-05-27T12:59:16Z</time>
      </trkpt>
      <trkpt lat="43.45674" lon="2.00254">
        <ele>240.2</ele>
        <time>2023-05-27T12:59:17Z</time>
      </trkpt>
      <trkpt lat="43.45675" lon="2.00251">
        <ele>240.2</ele>
        <time>2023-05-27T12:59:18Z</time>
      </trkpt>
      <trkpt lat="43.45677" lon="2.00248">
        <ele>240.2</ele>
        <time>2023-05-27T12:59:19Z</time>
      </trkpt>
      <trkpt lat="43.45688" lon="2.00221">
        <ele>240</ele>
        <time>2023-05-27T12:59:30Z</time>
      </trkpt>
      <trkpt lat="43.45684" lon="2.0023">
        <ele>240</ele>
        <time>2023-05-27T12:59:31Z</time>
      </trkpt>
      <trkpt lat="43.45682" lon="2.00236">
        <ele>240</ele>
        <time>2023-05-27T12:59:32Z</time>
      </trkpt>
      <trkpt lat="43.4568" lon="2.00244">
        <ele>240</ele>
        <time>2023-05-27T12:59:33Z</time>
      </trkpt>
      <trkpt lat="43.45678" lon="2.00248">
        <ele>240</ele>
        <time>2023-05-27T12:59:34Z</time>
      </trkpt>
      <trkpt lat="43.45678" lon="2.00249">
        <ele>240</ele>
        <time>2023-05-27T12:59:35Z</time>
      </trkpt>
      <trkpt lat="43.45676" lon="2.00252">
        <ele>240</ele>
        <time>2023-05-27T12:59:36Z</time>
      </trkpt>
      <trkpt lat="43.45676" lon="2.00251">
        <ele>240</ele>
        <time>2023-05-27T12:59:37Z</time>
      </trkpt>
      <trkpt lat="43.45677" lon="2.00247">
        <ele>240</ele>
        <time>2023-05-27T12:59:38Z</time>
      </trkpt>
      <trkpt lat="43.45678" lon="2.00241">
        <ele>240</ele>
        <time>2023-05-27T12:59:39Z</time>
      </trkpt>
      <trkpt lat="43.45675" lon="2.00248">
        <ele>240</ele>
        <time>2023-05-27T12:59:40Z</time>
      </trkpt>
      <trkpt lat="43.45672" lon="2.00253">
        <ele>240</ele>
        <time>2023-05-27T12:59:41Z</time>
      </trkpt>
      <trkpt lat="43.45671" lon="2.00256">
        <ele>240</ele>
        <time>2023-05-27T12:59:42Z</time>
      </trkpt>
      <trkpt lat="43.4567" lon="2.00259">
        <ele>240</ele>
        <time>2023-05-27T12:59:43Z</time>
      </trkpt>
      <trkpt lat="43.45669" lon="2.00262">
        <ele>240</ele>
        <time>2023-05-27T12:59:44Z</time>
      </trkpt>
      <trkpt lat="43.45668" lon="2.00265">
        <ele>240</ele>
        <time>2023-05-27T12:59:45Z</time>
      </trkpt>
      <trkpt lat="43.45666" lon="2.0027">
        <ele>240</ele>
        <time>2023-05-27T12:59:46Z</time>
      </trkpt>
      <trkpt lat="43.45665" lon="2.00272">
        <ele>240</ele>
        <time>2023-05-27T12:59:47Z</time>
      </trkpt>
      <trkpt lat="43.45666" lon="2.0027">
        <ele>240</ele>
        <time>2023-05-27T12:59:48Z</time>
      </trkpt>
      <trkpt lat="43.45667" lon="2.00269">
        <ele>240</ele>
        <time>2023-05-27T12:59:49Z</time>
      </trkpt>
      <trkpt lat="43.4567" lon="2.00262">
        <ele>240</ele>
        <time>2023-05-27T12:59:50Z</time>
      </trkpt>
      <trkpt lat="43.4567" lon="2.00262">
        <ele>240</ele>
        <time>2023-05-27T12:59:51Z</time>
      </trkpt>
      <trkpt lat="43.45669" lon="2.00263">
        <ele>239.8</ele>
        <time>2023-05-27T12:59:52Z</time>
      </trkpt>
      <trkpt lat="43.45668" lon="2.00265">
        <ele>239.8</ele>
        <time>2023-05-27T12:59:53Z</time>
      </trkpt>
      <trkpt lat="43.45667" lon="2.00268">
        <ele>239.8</ele>
        <time>2023-05-27T12:59:54Z</time>
      </trkpt>
      <trkpt lat="43.45666" lon="2.0027">
        <ele>239.8</ele>
        <time>2023-05-27T12:59:55Z</time>
      </trkpt>
      <trkpt lat="43.45668" lon="2.00267">
        <ele>239.8</ele>
        <time>2023-05-27T12:59:56Z</time>
      </trkpt>
      <trkpt lat="43.4567" lon="2.00262">
        <ele>239.8</ele>
        <time>2023-05-27T12:59:57Z</time>
      </trkpt>
      <trkpt lat="43.45673" lon="2.00258">
        <ele>239.8</ele>
        <time>2023-05-27T12:59:58Z</time>
      </trkpt>
      <trkpt lat="43.45675" lon="2.00253">
        <ele>239.8</ele>
        <time>2023-05-27T12:59:59Z</time>
      </trkpt>
      <trkpt lat="43.45676" lon="2.0025">
        <ele>239.8</ele>
        <time>2023-05-27T13:00:00Z</time>
      </trkpt>
      <trkpt lat="43.45677" lon="2.00248">
        <ele>239.8</ele>
        <time>2023-05-27T13:00:01Z</time>
      </trkpt>
      <trkpt lat="43.45677" lon="2.00246">
        <ele>239.8</ele>
        <time>2023-05-27T13:00:02Z</time>
      </trkpt>
      <trkpt lat="43.45678" lon="2.00246">
        <ele>239.8</ele>
        <time>2023-05-27T13:00:03Z</time>
      </trkpt>
      <trkpt lat="43.45678" lon="2.00248">
        <ele>239.8</ele>
        <time>2023-05-27T13:00:04Z</time>
      </trkpt>
      <trkpt lat="43.45678" lon="2.00248">
        <ele>239.8</ele>
        <time>2023-05-27T13:00:05Z</time>
      </trkpt>
      <trkpt lat="43.45678" lon="2.00249">
        <ele>239.8</ele>
        <time>2023-05-27T13:00:06Z</time>
      </trkpt>
      <trkpt lat="43.45678" lon="2.0025">
        <ele>239.8</ele>
        <time>2023-05-27T13:00:07Z</time>
      </trkpt>
      <trkpt lat="43.45678" lon="2.00251">
        <ele>239.8</ele>
        <time>2023-05-27T13:00:08Z</time>
      </trkpt>
      <trkpt lat="43.45678" lon="2.00249">
        <ele>239.8</ele>
        <time>2023-05-27T13:00:09Z</time>
      </trkpt>
      <trkpt lat="43.4568" lon="2.00247">
        <ele>239.8</ele>
        <time>2023-05-27T13:00:10Z</time>
      </trkpt>
      <trkpt lat="43.45682" lon="2.00241">
        <ele>239.8</ele>
        <time>2023-05-27T13:00:11Z</time>
      </trkpt>
      <trkpt lat="43.45683" lon="2.0024">
        <ele>239.8</ele>
        <time>2023-05-27T13:00:12Z</time>
      </trkpt>
      <trkpt lat="43.45683" lon="2.0024">
        <ele>239.8</ele>
        <time>2023-05-27T13:00:13Z</time>
      </trkpt>
      <trkpt lat="43.45683" lon="2.00241">
        <ele>239.8</ele>
        <time>2023-05-27T13:00:14Z</time>
      </trkpt>
      <trkpt lat="43.45673" lon="2.00256">
        <ele>239.8</ele>
        <time>2023-05-27T13:00:30Z</time>
      </trkpt>
      <trkpt lat="43.45675" lon="2.0025">
        <ele>239.8</ele>
        <time>2023-05-27T13:00:31Z</time>
      </trkpt>
      <trkpt lat="43.45677" lon="2.00246">
        <ele>239.8</ele>
        <time>2023-05-27T13:00:32Z</time>
      </trkpt>
      <trkpt lat="43.45678" lon="2.00243">
        <ele>239.8</ele>
        <time>2023-05-27T13:00:33Z</time>
      </trkpt>
      <trkpt lat="43.45679" lon="2.00241">
        <ele>239.8</ele>
        <time>2023-05-27T13:00:34Z</time>
      </trkpt>
      <trkpt lat="43.45679" lon="2.00239">
        <ele>239.8</ele>
        <time>2023-05-27T13:00:35Z</time>
      </trkpt>
      <trkpt lat="43.4568" lon="2.00238">
        <ele>239.8</ele>
        <time>2023-05-27T13:00:36Z</time>
      </trkpt>
      <trkpt lat="43.4568" lon="2.00236">
        <ele>239.8</ele>
        <time>2023-05-27T13:00:37Z</time>
      </trkpt>
      <trkpt lat="43.45681" lon="2.00235">
        <ele>239.8</ele>
        <time>2023-05-27T13:00:38Z</time>
      </trkpt>
      <trkpt lat="43.45682" lon="2.00232">
        <ele>239.8</ele>
        <time>2023-05-27T13:00:39Z</time>
      </trkpt>
      <trkpt lat="43.45683" lon="2.0023">
        <ele>239.6</ele>
        <time>2023-05-27T13:00:40Z</time>
      </trkpt>
      <trkpt lat="43.45685" lon="2.00225">
        <ele>239.8</ele>
        <time>2023-05-27T13:00:41Z</time>
      </trkpt>
      <trkpt lat="43.45687" lon="2.00222">
        <ele>239.8</ele>
        <time>2023-05-27T13:00:42Z</time>
      </trkpt>
      <trkpt lat="43.45687" lon="2.00222">
        <ele>239.8</ele>
        <time>2023-05-27T13:00:43Z</time>
      </trkpt>
      <trkpt lat="43.45684" lon="2.00228">
        <ele>239.6</ele>
        <time>2023-05-27T13:00:44Z</time>
      </trkpt>
      <trkpt lat="43.45666" lon="2.00284">
        <ele>239.6</ele>
        <time>2023-05-27T13:01:57Z</time>
      </trkpt>
      <trkpt lat="43.45667" lon="2.00284">
        <ele>239.6</ele>
        <time>2023-05-27T13:01:58Z</time>
      </trkpt>
      <trkpt lat="43.45667" lon="2.00284">
        <ele>239.8</ele>
        <time>2023-05-27T13:01:59Z</time>
      </trkpt>
      <trkpt lat="43.45666" lon="2.00284">
        <ele>239.8</ele>
        <time>2023-05-27T13:02:00Z</time>
      </trkpt>
      <trkpt lat="43.45665" lon="2.00284">
        <ele>239.8</ele>
        <time>2023-05-27T13:02:01Z</time>
      </trkpt>
      <trkpt lat="43.45664" lon="2.00284">
        <ele>240</ele>
        <time>2023-05-27T13:02:02Z</time>
      </trkpt>
      <trkpt lat="43.45664" lon="2.00284">
        <ele>240</ele>
        <time>2023-05-27T13:02:03Z</time>
      </trkpt>
      <trkpt lat="43.45653" lon="2.00278">
        <ele>240.4</ele>
        <time>2023-05-27T13:02:14Z</time>
      </trkpt>
      <trkpt lat="43.45651" lon="2.00275">
        <ele>240.4</ele>
        <time>2023-05-27T13:02:15Z</time>
      </trkpt>
      <trkpt lat="43.45655" lon="2.00274">
        <ele>240.4</ele>
        <time>2023-05-27T13:02:16Z</time>
      </trkpt>
      <trkpt lat="43.45658" lon="2.00273">
        <ele>240.4</ele>
        <time>2023-05-27T13:02:17Z</time>
      </trkpt>
      <trkpt lat="43.4566" lon="2.00271">
        <ele>240.4</ele>
        <time>2023-05-27T13:02:18Z</time>
      </trkpt>
      <trkpt lat="43.45663" lon="2.00268">
        <ele>240.4</ele>
        <time>2023-05-27T13:02:19Z</time>
      </trkpt>
      <trkpt lat="43.45666" lon="2.00266">
        <ele>240.4</ele>
        <time>2023-05-27T13:02:20Z</time>
      </trkpt>
      <trkpt lat="43.45667" lon="2.00266">
        <ele>240.4</ele>
        <time>2023-05-27T13:02:21Z</time>
      </trkpt>
      <trkpt lat="43.45667" lon="2.00266">
        <ele>240.4</ele>
        <time>2023-05-27T13:02:22Z</time>
      </trkpt>
      <trkpt lat="43.45667" lon="2.00266">
        <ele>240.4</ele>
        <time>2023-05-27T13:02:23Z</time>
      </trkpt>
      <trkpt lat="43.45666" lon="2.00266">
        <ele>240.4</ele>
        <time>2023-05-27T13:02:24Z</time>
      </trkpt>
      <trkpt lat="43.45666" lon="2.00267">
        <ele>240.4</ele>
        <time>2023-05-27T13:02:25Z</time>
      </trkpt>
      <trkpt lat="43.45665" lon="2.00267">
        <ele>240.4</ele>
        <time>2023-05-27T13:02:26Z</time>
      </trkpt>
      <trkpt lat="43.45671" lon="2.0027">
        <ele>240.4</ele>
        <time>2023-05-27T13:02:38Z</time>
      </trkpt>
      <trkpt lat="43.4567" lon="2.0027">
        <ele>240.4</ele>
        <time>2023-05-27T13:02:39Z</time>
      </trkpt>
      <trkpt lat="43.45671" lon="2.00269">
        <ele>240.4</ele>
        <time>2023-05-27T13:02:40Z</time>
      </trkpt>
      <trkpt lat="43.45672" lon="2.00269">
        <ele>240.4</ele>
        <time>2023-05-27T13:02:41Z</time>
      </trkpt>
      <trkpt lat="43.4567" lon="2.00269">
        <ele>240.4</ele>
        <time>2023-05-27T13:02:42Z</time>
      </trkpt>
      <trkpt lat="43.45669" lon="2.0027">
        <ele>240.4</ele>
        <time>2023-05-27T13:02:43Z</time>
      </trkpt>
      <trkpt lat="43.45668" lon="2.00271">
        <ele>240.4</ele>
        <time>2023-05-27T13:02:44Z</time>
      </trkpt>
      <trkpt lat="43.45667" lon="2.00272">
        <ele>240.4</ele>
        <time>2023-05-27T13:02:45Z</time>
      </trkpt>
      <trkpt lat="43.45667" lon="2.00272">
        <ele>240.4</ele>
        <time>2023-05-27T13:02:46Z</time>
      </trkpt>
      <trkpt lat="43.45667" lon="2.00271">
        <ele>240.4</ele>
        <time>2023-05-27T13:02:47Z</time>
      </trkpt>
      <trkpt lat="43.45668" lon="2.0027">
        <ele>240.4</ele>
        <time>2023-05-27T13:02:48Z</time>
      </trkpt>
      <trkpt lat="43.45669" lon="2.00269">
        <ele>240.4</ele>
        <time>2023-05-27T13:02:49Z</time>
      </trkpt>
      <trkpt lat="43.45669" lon="2.00269">
        <ele>240.4</ele>
        <time>2023-05-27T13:02:50Z</time>
      </trkpt>
      <trkpt lat="43.45669" lon="2.00269">
        <ele>240.2</ele>
        <time>2023-05-27T13:02:51Z</time>
      </trkpt>
      <trkpt lat="43.45669" lon="2.0027">
        <ele>240.2</ele>
        <time>2023-05-27T13:02:52Z</time>
      </trkpt>
      <trkpt lat="43.45669" lon="2.0027">
        <ele>240.2</ele>
        <time>2023-05-27T13:02:53Z</time>
      </trkpt>
      <trkpt lat="43.45669" lon="2.0027">
        <ele>240.2</ele>
        <time>2023-05-27T13:02:54Z</time>
      </trkpt>
      <trkpt lat="43.45669" lon="2.0027">
        <ele>240.2</ele>
        <time>2023-05-27T13:02:55Z</time>
      </trkpt>
      <trkpt lat="43.45673" lon="2.00264">
        <ele>240.4</ele>
        <time>2023-05-27T13:03:36Z</time>
      </trkpt>
      <trkpt lat="43.45674" lon="2.00263">
        <ele>240.4</ele>
        <time>2023-05-27T13:03:37Z</time>
      </trkpt>
      <trkpt lat="43.45673" lon="2.00263">
        <ele>240.4</ele>
        <time>2023-05-27T13:03:38Z</time>
      </trkpt>
      <trkpt lat="43.45672" lon="2.00262">
        <ele>240.4</ele>
        <time>2023-05-27T13:03:39Z</time>
      </trkpt>
      <trkpt lat="43.45669" lon="2.00263">
        <ele>240.4</ele>
        <time>2023-05-27T13:03:40Z</time>
      </trkpt>
      <trkpt lat="43.45667" lon="2.00263">
        <ele>240.4</ele>
        <time>2023-05-27T13:03:41Z</time>
      </trkpt>
      <trkpt lat="43.45667" lon="2.00263">
        <ele>240.4</ele>
        <time>2023-05-27T13:03:42Z</time>
      </trkpt>
      <trkpt lat="43.45667" lon="2.00263">
        <ele>240.4</ele>
        <time>2023-05-27T13:03:43Z</time>
      </trkpt>
      <trkpt lat="43.45667" lon="2.00263">
        <ele>240.4</ele>
        <time>2023-05-27T13:03:44Z</time>
      </trkpt>
      <trkpt lat="43.45668" lon="2.00263">
        <ele>240.4</ele>
        <time>2023-05-27T13:03:45Z</time>
      </trkpt>
      <trkpt lat="43.45668" lon="2.00263">
        <ele>240.4</ele>
        <time>2023-05-27T13:03:46Z</time>
      </trkpt>
      <trkpt lat="43.45668" lon="2.00263">
        <ele>240.4</ele>
        <time>2023-05-27T13:03:47Z</time>
      </trkpt>
      <trkpt lat="43.45688" lon="2.00271">
        <ele>240.4</ele>
        <time>2023-05-27T13:15:13Z</time>
      </trkpt>
      <trkpt lat="43.4569" lon="2.00273">
        <ele>240.4</ele>
        <time>2023-05-27T13:15:14Z</time>
      </trkpt>
      <trkpt lat="43.45691" lon="2.00274">
        <ele>240.2</ele>
        <time>2023-05-27T13:15:15Z</time>
      </trkpt>
      <trkpt lat="43.45693" lon="2.00277">
        <ele>240</ele>
        <time>2023-05-27T13:15:16Z</time>
      </trkpt>
      <trkpt lat="43.45695" lon="2.00279">
        <ele>240</ele>
        <time>2023-05-27T13:15:17Z</time>
      </trkpt>
      <trkpt lat="43.45697" lon="2.00281">
        <ele>239.8</ele>
        <time>2023-05-27T13:15:18Z</time>
      </trkpt>
      <trkpt lat="43.45699" lon="2.00282">
        <ele>239.8</ele>
        <time>2023-05-27T13:15:19Z</time>
      </trkpt>
      <trkpt lat="43.45701" lon="2.00283">
        <ele>239.6</ele>
        <time>2023-05-27T13:15:20Z</time>
      </trkpt>
      <trkpt lat="43.45704" lon="2.00285">
        <ele>239.6</ele>
        <time>2023-05-27T13:15:21Z</time>
      </trkpt>
      <trkpt lat="43.45705" lon="2.00285">
        <ele>239.6</ele>
        <time>2023-05-27T13:15:22Z</time>
      </trkpt>
      <trkpt lat="43.45708" lon="2.00286">
        <ele>239.6</ele>
        <time>2023-05-27T13:15:23Z</time>
      </trkpt>
      <trkpt lat="43.4571" lon="2.00288">
        <ele>239.6</ele>
        <time>2023-05-27T13:15:24Z</time>
      </trkpt>
      <trkpt lat="43.45712" lon="2.00289">
        <ele>239.6</ele>
        <time>2023-05-27T13:15:25Z</time>
      </trkpt>
      <trkpt lat="43.45714" lon="2.00289">
        <ele>239.6</ele>
        <time>2023-05-27T13:15:26Z</time>
      </trkpt>
      <trkpt lat="43.45716" lon="2.0029">
        <ele>239.6</ele>
        <time>2023-05-27T13:15:27Z</time>
      </trkpt>
      <trkpt lat="43.45717" lon="2.00291">
        <ele>239.6</ele>
        <time>2023-05-27T13:15:28Z</time>
      </trkpt>
      <trkpt lat="43.45719" lon="2.00292">
        <ele>239.6</ele>
        <time>2023-05-27T13:15:29Z</time>
      </trkpt>
      <trkpt lat="43.4572" lon="2.00293">
        <ele>239.6</ele>
        <time>2023-05-27T13:15:30Z</time>
      </trkpt>
      <trkpt lat="43.45721" lon="2.00294">
        <ele>239.6</ele>
        <time>2023-05-27T13:15:31Z</time>
      </trkpt>
      <trkpt lat="43.45723" lon="2.00296">
        <ele>239.6</ele>
        <time>2023-05-27T13:15:32Z</time>
      </trkpt>
      <trkpt lat="43.45725" lon="2.00297">
        <ele>239.6</ele>
        <time>2023-05-27T13:15:33Z</time>
      </trkpt>
      <trkpt lat="43.45727" lon="2.00298">
        <ele>239.6</ele>
        <time>2023-05-27T13:15:34Z</time>
      </trkpt>
      <trkpt lat="43.45729" lon="2.003">
        <ele>239.6</ele>
        <time>2023-05-27T13:15:35Z</time>
      </trkpt>
      <trkpt lat="43.45731" lon="2.00302">
        <ele>239.6</ele>
        <time>2023-05-27T13:15:36Z</time>
      </trkpt>
      <trkpt lat="43.45733" lon="2.00304">
        <ele>239.6</ele>
        <time>2023-05-27T13:15:37Z</time>
      </trkpt>
      <trkpt lat="43.45735" lon="2.00305">
        <ele>239.6</ele>
        <time>2023-05-27T13:15:38Z</time>
      </trkpt>
      <trkpt lat="43.45737" lon="2.00307">
        <ele>239.4</ele>
        <time>2023-05-27T13:15:39Z</time>
      </trkpt>
      <trkpt lat="43.45739" lon="2.00308">
        <ele>239.4</ele>
        <time>2023-05-27T13:15:40Z</time>
      </trkpt>
      <trkpt lat="43.45742" lon="2.0031">
        <ele>239.4</ele>
        <time>2023-05-27T13:15:41Z</time>
      </trkpt>
      <trkpt lat="43.45745" lon="2.00313">
        <ele>239.4</ele>
        <time>2023-05-27T13:15:42Z</time>
      </trkpt>
      <trkpt lat="43.45748" lon="2.00315">
        <ele>239.4</ele>
        <time>2023-05-27T13:15:43Z</time>
      </trkpt>
      <trkpt lat="43.4575" lon="2.00316">
        <ele>239.4</ele>
        <time>2023-05-27T13:15:44Z</time>
      </trkpt>
      <trkpt lat="43.45754" lon="2.00318">
        <ele>239.4</ele>
        <time>2023-05-27T13:15:45Z</time>
      </trkpt>
      <trkpt lat="43.45757" lon="2.0032">
        <ele>239.4</ele>
        <time>2023-05-27T13:15:46Z</time>
      </trkpt>
      <trkpt lat="43.45759" lon="2.00322">
        <ele>239.4</ele>
        <time>2023-05-27T13:15:47Z</time>
      </trkpt>
      <trkpt lat="43.45762" lon="2.00324">
        <ele>239.4</ele>
        <time>2023-05-27T13:15:48Z</time>
      </trkpt>
      <trkpt lat="43.45765" lon="2.00326">
        <ele>239.4</ele>
        <time>2023-05-27T13:15:49Z</time>
      </trkpt>
      <trkpt lat="43.45768" lon="2.00328">
        <ele>239.6</ele>
        <time>2023-05-27T13:15:50Z</time>
      </trkpt>
      <trkpt lat="43.4577" lon="2.00329">
        <ele>239.6</ele>
        <time>2023-05-27T13:15:51Z</time>
      </trkpt>
      <trkpt lat="43.45772" lon="2.00331">
        <ele>239.6</ele>
        <time>2023-05-27T13:15:52Z</time>
      </trkpt>
      <trkpt lat="43.45774" lon="2.00333">
        <ele>239.6</ele>
        <time>2023-05-27T13:15:53Z</time>
      </trkpt>
      <trkpt lat="43.45777" lon="2.00337">
        <ele>239.6</ele>
        <time>2023-05-27T13:15:54Z</time>
      </trkpt>
      <trkpt lat="43.45779" lon="2.0034">
        <ele>239.6</ele>
        <time>2023-05-27T13:15:55Z</time>
      </trkpt>
      <trkpt lat="43.45782" lon="2.00341">
        <ele>239.6</ele>
        <time>2023-05-27T13:15:56Z</time>
      </trkpt>
      <trkpt lat="43.45785" lon="2.00342">
        <ele>239.8</ele>
        <time>2023-05-27T13:15:57Z</time>
      </trkpt>
      <trkpt lat="43.45786" lon="2.00343">
        <ele>239.8</ele>
        <time>2023-05-27T13:15:58Z</time>
      </trkpt>
      <trkpt lat="43.45787" lon="2.00345">
        <ele>239.8</ele>
        <time>2023-05-27T13:15:59Z</time>
      </trkpt>
      <trkpt lat="43.45789" lon="2.00346">
        <ele>239.8</ele>
        <time>2023-05-27T13:16:00Z</time>
      </trkpt>
      <trkpt lat="43.45791" lon="2.00346">
        <ele>239.8</ele>
        <time>2023-05-27T13:16:01Z</time>
      </trkpt>
      <trkpt lat="43.45793" lon="2.00346">
        <ele>239.8</ele>
        <time>2023-05-27T13:16:02Z</time>
      </trkpt>
      <trkpt lat="43.45795" lon="2.00348">
        <ele>239.8</ele>
        <time>2023-05-27T13:16:03Z</time>
      </trkpt>
      <trkpt lat="43.45797" lon="2.0035">
        <ele>239.8</ele>
        <time>2023-05-27T13:16:04Z</time>
      </trkpt>
      <trkpt lat="43.45798" lon="2.00351">
        <ele>239.8</ele>
        <time>2023-05-27T13:16:05Z</time>
      </trkpt>
      <trkpt lat="43.458" lon="2.00353">
        <ele>239.8</ele>
        <time>2023-05-27T13:16:06Z</time>
      </trkpt>
      <trkpt lat="43.45801" lon="2.00355">
        <ele>239.8</ele>
        <time>2023-05-27T13:16:07Z</time>
      </trkpt>
      <trkpt lat="43.45803" lon="2.00358">
        <ele>239.8</ele>
        <time>2023-05-27T13:16:08Z</time>
      </trkpt>
      <trkpt lat="43.45806" lon="2.0036">
        <ele>240</ele>
        <time>2023-05-27T13:16:09Z</time>
      </trkpt>
      <trkpt lat="43.4581" lon="2.00362">
        <ele>240</ele>
        <time>2023-05-27T13:16:10Z</time>
      </trkpt>
      <trkpt lat="43.45812" lon="2.00363">
        <ele>240</ele>
        <time>2023-05-27T13:16:11Z</time>
      </trkpt>
      <trkpt lat="43.45815" lon="2.00365">
        <ele>240</ele>
        <time>2023-05-27T13:16:12Z</time>
      </trkpt>
      <trkpt lat="43.45818" lon="2.00367">
        <ele>240</ele>
        <time>2023-05-27T13:16:13Z</time>
      </trkpt>
      <trkpt lat="43.45821" lon="2.00368">
        <ele>240</ele>
        <time>2023-05-27T13:16:14Z</time>
      </trkpt>
      <trkpt lat="43.45824" lon="2.00371">
        <ele>240</ele>
        <time>2023-05-27T13:16:15Z</time>
      </trkpt>
      <trkpt lat="43.45827" lon="2.00373">
        <ele>240</ele>
        <time>2023-05-27T13:16:16Z</time>
      </trkpt>
      <trkpt lat="43.45829" lon="2.00375">
        <ele>240</ele>
        <time>2023-05-27T13:16:17Z</time>
      </trkpt>
      <trkpt lat="43.45831" lon="2.00377">
        <ele>240</ele>
        <time>2023-05-27T13:16:18Z</time>
      </trkpt>
      <trkpt lat="43.45832" lon="2.00379">
        <ele>240.2</ele>
        <time>2023-05-27T13:16:19Z</time>
      </trkpt>
      <trkpt lat="43.45835" lon="2.00381">
        <ele>240.2</ele>
        <time>2023-05-27T13:16:20Z</time>
      </trkpt>
      <trkpt lat="43.45839" lon="2.00383">
        <ele>240.2</ele>
        <time>2023-05-27T13:16:21Z</time>
      </trkpt>
      <trkpt lat="43.45841" lon="2.00385">
        <ele>240.2</ele>
        <time>2023-05-27T13:16:22Z</time>
      </trkpt>
      <trkpt lat="43.45844" lon="2.00386">
        <ele>240.2</ele>
        <time>2023-05-27T13:16:23Z</time>
      </trkpt>
      <trkpt lat="43.45847" lon="2.00388">
        <ele>240.2</ele>
        <time>2023-05-27T13:16:24Z</time>
      </trkpt>
      <trkpt lat="43.45849" lon="2.00389">
        <ele>240.2</ele>
        <time>2023-05-27T13:16:25Z</time>
      </trkpt>
      <trkpt lat="43.4585" lon="2.00392">
        <ele>240.2</ele>
        <time>2023-05-27T13:16:26Z</time>
      </trkpt>
      <trkpt lat="43.45849" lon="2.00394">
        <ele>240.2</ele>
        <time>2023-05-27T13:16:27Z</time>
      </trkpt>
      <trkpt lat="43.45847" lon="2.00398">
        <ele>240.2</ele>
        <time>2023-05-27T13:16:28Z</time>
      </trkpt>
      <trkpt lat="43.45846" lon="2.00403">
        <ele>240.2</ele>
        <time>2023-05-27T13:16:29Z</time>
      </trkpt>
      <trkpt lat="43.45844" lon="2.00407">
        <ele>240.2</ele>
        <time>2023-05-27T13:16:30Z</time>
      </trkpt>
      <trkpt lat="43.45843" lon="2.0041">
        <ele>240.2</ele>
        <time>2023-05-27T13:16:31Z</time>
      </trkpt>
      <trkpt lat="43.45842" lon="2.00413">
        <ele>240.2</ele>
        <time>2023-05-27T13:16:32Z</time>
      </trkpt>
      <trkpt lat="43.45841" lon="2.00416">
        <ele>240.2</ele>
        <time>2023-05-27T13:16:33Z</time>
      </trkpt>
      <trkpt lat="43.45841" lon="2.00419">
        <ele>240.2</ele>
        <time>2023-05-27T13:16:34Z</time>
      </trkpt>
      <trkpt lat="43.4584" lon="2.00422">
        <ele>240.2</ele>
        <time>2023-05-27T13:16:35Z</time>
      </trkpt>
      <trkpt lat="43.45839" lon="2.00425">
        <ele>240.2</ele>
        <time>2023-05-27T13:16:36Z</time>
      </trkpt>
      <trkpt lat="43.45838" lon="2.00428">
        <ele>240.2</ele>
        <time>2023-05-27T13:16:37Z</time>
      </trkpt>
      <trkpt lat="43.45837" lon="2.00432">
        <ele>240.4</ele>
        <time>2023-05-27T13:16:38Z</time>
      </trkpt>
      <trkpt lat="43.45835" lon="2.00435">
        <ele>240.4</ele>
        <time>2023-05-27T13:16:39Z</time>
      </trkpt>
      <trkpt lat="43.45834" lon="2.00439">
        <ele>240.4</ele>
        <time>2023-05-27T13:16:40Z</time>
      </trkpt>
      <trkpt lat="43.45833" lon="2.00442">
        <ele>240.4</ele>
        <time>2023-05-27T13:16:41Z</time>
      </trkpt>
      <trkpt lat="43.45832" lon="2.00446">
        <ele>240.4</ele>
        <time>2023-05-27T13:16:42Z</time>
      </trkpt>
      <trkpt lat="43.45831" lon="2.00449">
        <ele>240.4</ele>
        <time>2023-05-27T13:16:43Z</time>
      </trkpt>
      <trkpt lat="43.4583" lon="2.00453">
        <ele>240.4</ele>
        <time>2023-05-27T13:16:44Z</time>
      </trkpt>
      <trkpt lat="43.45828" lon="2.00456">
        <ele>240.4</ele>
        <time>2023-05-27T13:16:45Z</time>
      </trkpt>
      <trkpt lat="43.45827" lon="2.00459">
        <ele>240.6</ele>
        <time>2023-05-27T13:16:46Z</time>
      </trkpt>
      <trkpt lat="43.45826" lon="2.00462">
        <ele>240.6</ele>
        <time>2023-05-27T13:16:47Z</time>
      </trkpt>
      <trkpt lat="43.45825" lon="2.00465">
        <ele>240.6</ele>
        <time>2023-05-27T13:16:48Z</time>
      </trkpt>
      <trkpt lat="43.45823" lon="2.00467">
        <ele>240.6</ele>
        <time>2023-05-27T13:16:49Z</time>
      </trkpt>
      <trkpt lat="43.45822" lon="2.0047">
        <ele>240.6</ele>
        <time>2023-05-27T13:16:50Z</time>
      </trkpt>
      <trkpt lat="43.4582" lon="2.00472">
        <ele>240.6</ele>
        <time>2023-05-27T13:16:51Z</time>
      </trkpt>
      <trkpt lat="43.45817" lon="2.00473">
        <ele>240.6</ele>
        <time>2023-05-27T13:16:52Z</time>
      </trkpt>
      <trkpt lat="43.45816" lon="2.00474">
        <ele>240.6</ele>
        <time>2023-05-27T13:16:53Z</time>
      </trkpt>
      <trkpt lat="43.45815" lon="2.00475">
        <ele>240.6</ele>
        <time>2023-05-27T13:16:54Z</time>
      </trkpt>
      <trkpt lat="43.45813" lon="2.00477">
        <ele>240.6</ele>
        <time>2023-05-27T13:16:55Z</time>
      </trkpt>
      <trkpt lat="43.45811" lon="2.00479">
        <ele>240.6</ele>
        <time>2023-05-27T13:16:56Z</time>
      </trkpt>
      <trkpt lat="43.45808" lon="2.00481">
        <ele>240.8</ele>
        <time>2023-05-27T13:16:57Z</time>
      </trkpt>
      <trkpt lat="43.45805" lon="2.00483">
        <ele>240.8</ele>
        <time>2023-05-27T13:16:58Z</time>
      </trkpt>
      <trkpt lat="43.45802" lon="2.00486">
        <ele>240.8</ele>
        <time>2023-05-27T13:16:59Z</time>
      </trkpt>
      <trkpt lat="43.458" lon="2.00489">
        <ele>240.8</ele>
        <time>2023-05-27T13:17:00Z</time>
      </trkpt>
      <trkpt lat="43.45798" lon="2.00493">
        <ele>240.8</ele>
        <time>2023-05-27T13:17:01Z</time>
      </trkpt>
      <trkpt lat="43.45797" lon="2.00497">
        <ele>240.8</ele>
        <time>2023-05-27T13:17:02Z</time>
      </trkpt>
      <trkpt lat="43.45795" lon="2.005">
        <ele>241</ele>
        <time>2023-05-27T13:17:03Z</time>
      </trkpt>
      <trkpt lat="43.45792" lon="2.00504">
        <ele>241</ele>
        <time>2023-05-27T13:17:04Z</time>
      </trkpt>
      <trkpt lat="43.4579" lon="2.00507">
        <ele>241</ele>
        <time>2023-05-27T13:17:05Z</time>
      </trkpt>
      <trkpt lat="43.45787" lon="2.0051">
        <ele>241</ele>
        <time>2023-05-27T13:17:06Z</time>
      </trkpt>
      <trkpt lat="43.45786" lon="2.00514">
        <ele>241.2</ele>
        <time>2023-05-27T13:17:07Z</time>
      </trkpt>
      <trkpt lat="43.45784" lon="2.00518">
        <ele>241.2</ele>
        <time>2023-05-27T13:17:08Z</time>
      </trkpt>
      <trkpt lat="43.45783" lon="2.00522">
        <ele>241.2</ele>
        <time>2023-05-27T13:17:09Z</time>
      </trkpt>
      <trkpt lat="43.45782" lon="2.00525">
        <ele>241.2</ele>
        <time>2023-05-27T13:17:10Z</time>
      </trkpt>
      <trkpt lat="43.45781" lon="2.0053">
        <ele>241.2</ele>
        <time>2023-05-27T13:17:11Z</time>
      </trkpt>
      <trkpt lat="43.45781" lon="2.00535">
        <ele>241.4</ele>
        <time>2023-05-27T13:17:12Z</time>
      </trkpt>
      <trkpt lat="43.45779" lon="2.0054">
        <ele>241.4</ele>
        <time>2023-05-27T13:17:13Z</time>
      </trkpt>
      <trkpt lat="43.45778" lon="2.00544">
        <ele>241.4</ele>
        <time>2023-05-27T13:17:14Z</time>
      </trkpt>
      <trkpt lat="43.45777" lon="2.00549">
        <ele>241.4</ele>
        <time>2023-05-27T13:17:15Z</time>
      </trkpt>
      <trkpt lat="43.45775" lon="2.00553">
        <ele>241.6</ele>
        <time>2023-05-27T13:17:16Z</time>
      </trkpt>
      <trkpt lat="43.45774" lon="2.00557">
        <ele>241.6</ele>
        <time>2023-05-27T13:17:17Z</time>
      </trkpt>
      <trkpt lat="43.45773" lon="2.00561">
        <ele>241.6</ele>
        <time>2023-05-27T13:17:18Z</time>
      </trkpt>
      <trkpt lat="43.45771" lon="2.00564">
        <ele>241.6</ele>
        <time>2023-05-27T13:17:19Z</time>
      </trkpt>
      <trkpt lat="43.45768" lon="2.00568">
        <ele>241.6</ele>
        <time>2023-05-27T13:17:20Z</time>
      </trkpt>
      <trkpt lat="43.45767" lon="2.00571">
        <ele>241.8</ele>
        <time>2023-05-27T13:17:21Z</time>
      </trkpt>
      <trkpt lat="43.45765" lon="2.00575">
        <ele>241.8</ele>
        <time>2023-05-27T13:17:22Z</time>
      </trkpt>
      <trkpt lat="43.45764" lon="2.00579">
        <ele>241.8</ele>
        <time>2023-05-27T13:17:23Z</time>
      </trkpt>
      <trkpt lat="43.45763" lon="2.00583">
        <ele>242</ele>
        <time>2023-05-27T13:17:24Z</time>
      </trkpt>
      <trkpt lat="43.45762" lon="2.00587">
        <ele>242</ele>
        <time>2023-05-27T13:17:25Z</time>
      </trkpt>
      <trkpt lat="43.45761" lon="2.0059">
        <ele>242</ele>
        <time>2023-05-27T13:17:26Z</time>
      </trkpt>
      <trkpt lat="43.4576" lon="2.00594">
        <ele>242.2</ele>
        <time>2023-05-27T13:17:27Z</time>
      </trkpt>
      <trkpt lat="43.45759" lon="2.00598">
        <ele>242.2</ele>
        <time>2023-05-27T13:17:28Z</time>
      </trkpt>
      <trkpt lat="43.45758" lon="2.00601">
        <ele>242.4</ele>
        <time>2023-05-27T13:17:29Z</time>
      </trkpt>
      <trkpt lat="43.45757" lon="2.00605">
        <ele>242.4</ele>
        <time>2023-05-27T13:17:30Z</time>
      </trkpt>
      <trkpt lat="43.45756" lon="2.00608">
        <ele>242.4</ele>
        <time>2023-05-27T13:17:31Z</time>
      </trkpt>
      <trkpt lat="43.45755" lon="2.00611">
        <ele>242.4</ele>
        <time>2023-05-27T13:17:32Z</time>
      </trkpt>
      <trkpt lat="43.45754" lon="2.00615">
        <ele>242.6</ele>
        <time>2023-05-27T13:17:33Z</time>
      </trkpt>
      <trkpt lat="43.45753" lon="2.00619">
        <ele>242.6</ele>
        <time>2023-05-27T13:17:34Z</time>
      </trkpt>
      <trkpt lat="43.45751" lon="2.00622">
        <ele>242.6</ele>
        <time>2023-05-27T13:17:35Z</time>
      </trkpt>
      <trkpt lat="43.4575" lon="2.00624">
        <ele>242.6</ele>
        <time>2023-05-27T13:17:36Z</time>
      </trkpt>
      <trkpt lat="43.45749" lon="2.00627">
        <ele>242.8</ele>
        <time>2023-05-27T13:17:37Z</time>
      </trkpt>
      <trkpt lat="43.45748" lon="2.00629">
        <ele>242.8</ele>
        <time>2023-05-27T13:17:38Z</time>
      </trkpt>
      <trkpt lat="43.45748" lon="2.00631">
        <ele>242.8</ele>
        <time>2023-05-27T13:17:39Z</time>
      </trkpt>
      <trkpt lat="43.45747" lon="2.00634">
        <ele>242.8</ele>
        <time>2023-05-27T13:17:40Z</time>
      </trkpt>
      <trkpt lat="43.45746" lon="2.00637">
        <ele>242.8</ele>
        <time>2023-05-27T13:17:41Z</time>
      </trkpt>
      <trkpt lat="43.45746" lon="2.00639">
        <ele>243</ele>
        <time>2023-05-27T13:17:42Z</time>
      </trkpt>
      <trkpt lat="43.45745" lon="2.00642">
        <ele>243</ele>
        <time>2023-05-27T13:17:43Z</time>
      </trkpt>
      <trkpt lat="43.45746" lon="2.00646">
        <ele>243</ele>
        <time>2023-05-27T13:17:44Z</time>
      </trkpt>
      <trkpt lat="43.45746" lon="2.00649">
        <ele>243</ele>
        <time>2023-05-27T13:17:45Z</time>
      </trkpt>
      <trkpt lat="43.45745" lon="2.00652">
        <ele>243</ele>
        <time>2023-05-27T13:17:46Z</time>
      </trkpt>
      <trkpt lat="43.45744" lon="2.00655">
        <ele>243</ele>
        <time>2023-05-27T13:17:47Z</time>
      </trkpt>
      <trkpt lat="43.45742" lon="2.00658">
        <ele>243.2</ele>
        <time>2023-05-27T13:17:48Z</time>
      </trkpt>
      <trkpt lat="43.45741" lon="2.00661">
        <ele>243.2</ele>
        <time>2023-05-27T13:17:49Z</time>
      </trkpt>
      <trkpt lat="43.4574" lon="2.00664">
        <ele>243.2</ele>
        <time>2023-05-27T13:17:50Z</time>
      </trkpt>
      <trkpt lat="43.45738" lon="2.00668">
        <ele>243.2</ele>
        <time>2023-05-27T13:17:51Z</time>
      </trkpt>
      <trkpt lat="43.45737" lon="2.00672">
        <ele>243.2</ele>
        <time>2023-05-27T13:17:52Z</time>
      </trkpt>
      <trkpt lat="43.45735" lon="2.00676">
        <ele>243.2</ele>
        <time>2023-05-27T13:17:53Z</time>
      </trkpt>
      <trkpt lat="43.45735" lon="2.0068">
        <ele>243.2</ele>
        <time>2023-05-27T13:17:54Z</time>
      </trkpt>
      <trkpt lat="43.45733" lon="2.00685">
        <ele>243.2</ele>
        <time>2023-05-27T13:17:55Z</time>
      </trkpt>
      <trkpt lat="43.45732" lon="2.0069">
        <ele>243.2</ele>
        <time>2023-05-27T13:17:56Z</time>
      </trkpt>
      <trkpt lat="43.4573" lon="2.00694">
        <ele>243.2</ele>
        <time>2023-05-27T13:17:57Z</time>
      </trkpt>
      <trkpt lat="43.45729" lon="2.00698">
        <ele>243</ele>
        <time>2023-05-27T13:17:58Z</time>
      </trkpt>
      <trkpt lat="43.45727" lon="2.00703">
        <ele>243</ele>
        <time>2023-05-27T13:17:59Z</time>
      </trkpt>
      <trkpt lat="43.45725" lon="2.00708">
        <ele>243</ele>
        <time>2023-05-27T13:18:00Z</time>
      </trkpt>
      <trkpt lat="43.45723" lon="2.00713">
        <ele>243</ele>
        <time>2023-05-27T13:18:01Z</time>
      </trkpt>
      <trkpt lat="43.45722" lon="2.00717">
        <ele>242.8</ele>
        <time>2023-05-27T13:18:02Z</time>
      </trkpt>
      <trkpt lat="43.4572" lon="2.00721">
        <ele>242.8</ele>
        <time>2023-05-27T13:18:03Z</time>
      </trkpt>
      <trkpt lat="43.45719" lon="2.00726">
        <ele>242.6</ele>
        <time>2023-05-27T13:18:04Z</time>
      </trkpt>
      <trkpt lat="43.45717" lon="2.00731">
        <ele>242.6</ele>
        <time>2023-05-27T13:18:05Z</time>
      </trkpt>
      <trkpt lat="43.45716" lon="2.00735">
        <ele>242.6</ele>
        <time>2023-05-27T13:18:06Z</time>
      </trkpt>
      <trkpt lat="43.45714" lon="2.0074">
        <ele>242.6</ele>
        <time>2023-05-27T13:18:07Z</time>
      </trkpt>
      <trkpt lat="43.45713" lon="2.00744">
        <ele>242.4</ele>
        <time>2023-05-27T13:18:08Z</time>
      </trkpt>
      <trkpt lat="43.45711" lon="2.00749">
        <ele>242.4</ele>
        <time>2023-05-27T13:18:09Z</time>
      </trkpt>
      <trkpt lat="43.4571" lon="2.00753">
        <ele>242.4</ele>
        <time>2023-05-27T13:18:10Z</time>
      </trkpt>
      <trkpt lat="43.45708" lon="2.00757">
        <ele>242.4</ele>
        <time>2023-05-27T13:18:11Z</time>
      </trkpt>
      <trkpt lat="43.45706" lon="2.00762">
        <ele>242.2</ele>
        <time>2023-05-27T13:18:12Z</time>
      </trkpt>
      <trkpt lat="43.45705" lon="2.00766">
        <ele>242.2</ele>
        <time>2023-05-27T13:18:13Z</time>
      </trkpt>
      <trkpt lat="43.45703" lon="2.00771">
        <ele>242.2</ele>
        <time>2023-05-27T13:18:14Z</time>
      </trkpt>
      <trkpt lat="43.45701" lon="2.00775">
        <ele>242</ele>
        <time>2023-05-27T13:18:15Z</time>
      </trkpt>
      <trkpt lat="43.457" lon="2.00779">
        <ele>242</ele>
        <time>2023-05-27T13:18:16Z</time>
      </trkpt>
      <trkpt lat="43.45698" lon="2.00784">
        <ele>241.8</ele>
        <time>2023-05-27T13:18:17Z</time>
      </trkpt>
      <trkpt lat="43.45696" lon="2.00789">
        <ele>241.8</ele>
        <time>2023-05-27T13:18:18Z</time>
      </trkpt>
      <trkpt lat="43.45695" lon="2.00794">
        <ele>241.8</ele>
        <time>2023-05-27T13:18:19Z</time>
      </trkpt>
      <trkpt lat="43.45693" lon="2.00799">
        <ele>241.8</ele>
        <time>2023-05-27T13:18:20Z</time>
      </trkpt>
      <trkpt lat="43.45691" lon="2.00803">
        <ele>241.8</ele>
        <time>2023-05-27T13:18:21Z</time>
      </trkpt>
      <trkpt lat="43.4569" lon="2.00808">
        <ele>241.6</ele>
        <time>2023-05-27T13:18:22Z</time>
      </trkpt>
      <trkpt lat="43.45688" lon="2.00813">
        <ele>241.6</ele>
        <time>2023-05-27T13:18:23Z</time>
      </trkpt>
      <trkpt lat="43.45686" lon="2.00817">
        <ele>241.6</ele>
        <time>2023-05-27T13:18:24Z</time>
      </trkpt>
      <trkpt lat="43.45685" lon="2.00822">
        <ele>241.6</ele>
        <time>2023-05-27T13:18:25Z</time>
      </trkpt>
      <trkpt lat="43.45683" lon="2.00827">
        <ele>241.4</ele>
        <time>2023-05-27T13:18:26Z</time>
      </trkpt>
      <trkpt lat="43.45681" lon="2.00832">
        <ele>241.4</ele>
        <time>2023-05-27T13:18:27Z</time>
      </trkpt>
      <trkpt lat="43.4568" lon="2.00837">
        <ele>241.4</ele>
        <time>2023-05-27T13:18:28Z</time>
      </trkpt>
      <trkpt lat="43.45678" lon="2.00841">
        <ele>241.4</ele>
        <time>2023-05-27T13:18:29Z</time>
      </trkpt>
      <trkpt lat="43.45676" lon="2.00846">
        <ele>241.4</ele>
        <time>2023-05-27T13:18:30Z</time>
      </trkpt>
      <trkpt lat="43.45675" lon="2.0085">
        <ele>241.2</ele>
        <time>2023-05-27T13:18:31Z</time>
      </trkpt>
      <trkpt lat="43.45673" lon="2.00855">
        <ele>241.2</ele>
        <time>2023-05-27T13:18:32Z</time>
      </trkpt>
      <trkpt lat="43.45671" lon="2.0086">
        <ele>241.2</ele>
        <time>2023-05-27T13:18:33Z</time>
      </trkpt>
      <trkpt lat="43.45669" lon="2.00865">
        <ele>241</ele>
        <time>2023-05-27T13:18:34Z</time>
      </trkpt>
      <trkpt lat="43.45667" lon="2.00869">
        <ele>241</ele>
        <time>2023-05-27T13:18:35Z</time>
      </trkpt>
      <trkpt lat="43.45666" lon="2.00874">
        <ele>241</ele>
        <time>2023-05-27T13:18:36Z</time>
      </trkpt>
      <trkpt lat="43.45665" lon="2.00878">
        <ele>241</ele>
        <time>2023-05-27T13:18:37Z</time>
      </trkpt>
      <trkpt lat="43.45663" lon="2.00882">
        <ele>240.8</ele>
        <time>2023-05-27T13:18:38Z</time>
      </trkpt>
      <trkpt lat="43.45661" lon="2.00887">
        <ele>240.8</ele>
        <time>2023-05-27T13:18:39Z</time>
      </trkpt>
      <trkpt lat="43.45659" lon="2.00892">
        <ele>240.8</ele>
        <time>2023-05-27T13:18:40Z</time>
      </trkpt>
      <trkpt lat="43.45657" lon="2.00896">
        <ele>240.8</ele>
        <time>2023-05-27T13:18:41Z</time>
      </trkpt>
      <trkpt lat="43.45655" lon="2.00901">
        <ele>240.8</ele>
        <time>2023-05-27T13:18:42Z</time>
      </trkpt>
      <trkpt lat="43.45653" lon="2.00905">
        <ele>240.8</ele>
        <time>2023-05-27T13:18:43Z</time>
      </trkpt>
      <trkpt lat="43.45652" lon="2.0091">
        <ele>240.6</ele>
        <time>2023-05-27T13:18:44Z</time>
      </trkpt>
      <trkpt lat="43.4565" lon="2.00915">
        <ele>240.6</ele>
        <time>2023-05-27T13:18:45Z</time>
      </trkpt>
      <trkpt lat="43.45648" lon="2.00919">
        <ele>240.6</ele>
        <time>2023-05-27T13:18:46Z</time>
      </trkpt>
      <trkpt lat="43.45646" lon="2.00924">
        <ele>240.6</ele>
        <time>2023-05-27T13:18:47Z</time>
      </trkpt>
      <trkpt lat="43.45645" lon="2.00929">
        <ele>240.8</ele>
        <time>2023-05-27T13:18:48Z</time>
      </trkpt>
      <trkpt lat="43.45642" lon="2.00934">
        <ele>240.8</ele>
        <time>2023-05-27T13:18:49Z</time>
      </trkpt>
      <trkpt lat="43.45641" lon="2.00939">
        <ele>240.8</ele>
        <time>2023-05-27T13:18:50Z</time>
      </trkpt>
      <trkpt lat="43.45639" lon="2.00943">
        <ele>240.8</ele>
        <time>2023-05-27T13:18:51Z</time>
      </trkpt>
      <trkpt lat="43.45637" lon="2.00948">
        <ele>240.8</ele>
        <time>2023-05-27T13:18:52Z</time>
      </trkpt>
      <trkpt lat="43.45636" lon="2.00952">
        <ele>240.8</ele>
        <time>2023-05-27T13:18:53Z</time>
      </trkpt>
      <trkpt lat="43.45634" lon="2.00957">
        <ele>241</ele>
        <time>2023-05-27T13:18:54Z</time>
      </trkpt>
      <trkpt lat="43.45633" lon="2.00961">
        <ele>241</ele>
        <time>2023-05-27T13:18:55Z</time>
      </trkpt>
      <trkpt lat="43.45632" lon="2.00966">
        <ele>241.2</ele>
        <time>2023-05-27T13:18:56Z</time>
      </trkpt>
      <trkpt lat="43.4563" lon="2.0097">
        <ele>241.2</ele>
        <time>2023-05-27T13:18:57Z</time>
      </trkpt>
      <trkpt lat="43.45628" lon="2.00974">
        <ele>241.2</ele>
        <time>2023-05-27T13:18:58Z</time>
      </trkpt>
      <trkpt lat="43.45626" lon="2.00978">
        <ele>241.4</ele>
        <time>2023-05-27T13:18:59Z</time>
      </trkpt>
      <trkpt lat="43.45625" lon="2.00982">
        <ele>241.4</ele>
        <time>2023-05-27T13:19:00Z</time>
      </trkpt>
      <trkpt lat="43.45623" lon="2.00987">
        <ele>241.4</ele>
        <time>2023-05-27T13:19:01Z</time>
      </trkpt>
      <trkpt lat="43.45622" lon="2.00991">
        <ele>241.6</ele>
        <time>2023-05-27T13:19:02Z</time>
      </trkpt>
      <trkpt lat="43.4562" lon="2.00995">
        <ele>241.6</ele>
        <time>2023-05-27T13:19:03Z</time>
      </trkpt>
      <trkpt lat="43.45619" lon="2.00999">
        <ele>241.6</ele>
        <time>2023-05-27T13:19:04Z</time>
      </trkpt>
      <trkpt lat="43.45618" lon="2.01004">
        <ele>241.6</ele>
        <time>2023-05-27T13:19:05Z</time>
      </trkpt>
      <trkpt lat="43.45616" lon="2.01008">
        <ele>241.8</ele>
        <time>2023-05-27T13:19:06Z</time>
      </trkpt>
      <trkpt lat="43.45616" lon="2.01012">
        <ele>241.8</ele>
        <time>2023-05-27T13:19:07Z</time>
      </trkpt>
      <trkpt lat="43.45614" lon="2.01016">
        <ele>242</ele>
        <time>2023-05-27T13:19:08Z</time>
      </trkpt>
      <trkpt lat="43.45613" lon="2.0102">
        <ele>242</ele>
        <time>2023-05-27T13:19:09Z</time>
      </trkpt>
      <trkpt lat="43.45612" lon="2.01024">
        <ele>242.2</ele>
        <time>2023-05-27T13:19:10Z</time>
      </trkpt>
      <trkpt lat="43.4561" lon="2.01028">
        <ele>242.2</ele>
        <time>2023-05-27T13:19:11Z</time>
      </trkpt>
      <trkpt lat="43.45609" lon="2.01032">
        <ele>242.2</ele>
        <time>2023-05-27T13:19:12Z</time>
      </trkpt>
      <trkpt lat="43.45607" lon="2.01036">
        <ele>242.2</ele>
        <time>2023-05-27T13:19:13Z</time>
      </trkpt>
      <trkpt lat="43.45606" lon="2.0104">
        <ele>242.4</ele>
        <time>2023-05-27T13:19:14Z</time>
      </trkpt>
      <trkpt lat="43.45605" lon="2.01043">
        <ele>242.4</ele>
        <time>2023-05-27T13:19:15Z</time>
      </trkpt>
      <trkpt lat="43.45604" lon="2.01047">
        <ele>242.4</ele>
        <time>2023-05-27T13:19:16Z</time>
      </trkpt>
      <trkpt lat="43.45602" lon="2.01051">
        <ele>242.6</ele>
        <time>2023-05-27T13:19:17Z</time>
      </trkpt>
      <trkpt lat="43.45601" lon="2.01055">
        <ele>242.6</ele>
        <time>2023-05-27T13:19:18Z</time>
      </trkpt>
      <trkpt lat="43.45599" lon="2.01058">
        <ele>242.6</ele>
        <time>2023-05-27T13:19:19Z</time>
      </trkpt>
      <trkpt lat="43.45597" lon="2.01062">
        <ele>242.8</ele>
        <time>2023-05-27T13:19:20Z</time>
      </trkpt>
      <trkpt lat="43.45596" lon="2.01065">
        <ele>242.8</ele>
        <time>2023-05-27T13:19:21Z</time>
      </trkpt>
      <trkpt lat="43.45595" lon="2.0107">
        <ele>242.8</ele>
        <time>2023-05-27T13:19:22Z</time>
      </trkpt>
      <trkpt lat="43.45593" lon="2.01074">
        <ele>242.8</ele>
        <time>2023-05-27T13:19:23Z</time>
      </trkpt>
      <trkpt lat="43.45592" lon="2.01079">
        <ele>242.8</ele>
        <time>2023-05-27T13:19:24Z</time>
      </trkpt>
      <trkpt lat="43.4559" lon="2.01083">
        <ele>242.8</ele>
        <time>2023-05-27T13:19:25Z</time>
      </trkpt>
      <trkpt lat="43.45589" lon="2.01087">
        <ele>242.8</ele>
        <time>2023-05-27T13:19:26Z</time>
      </trkpt>
      <trkpt lat="43.45587" lon="2.01091">
        <ele>242.8</ele>
        <time>2023-05-27T13:19:27Z</time>
      </trkpt>
      <trkpt lat="43.45585" lon="2.01095">
        <ele>243</ele>
        <time>2023-05-27T13:19:28Z</time>
      </trkpt>
      <trkpt lat="43.45583" lon="2.01099">
        <ele>243</ele>
        <time>2023-05-27T13:19:29Z</time>
      </trkpt>
      <trkpt lat="43.45581" lon="2.01104">
        <ele>243</ele>
        <time>2023-05-27T13:19:30Z</time>
      </trkpt>
      <trkpt lat="43.4558" lon="2.01108">
        <ele>243</ele>
        <time>2023-05-27T13:19:31Z</time>
      </trkpt>
      <trkpt lat="43.45578" lon="2.01113">
        <ele>243</ele>
        <time>2023-05-27T13:19:32Z</time>
      </trkpt>
      <trkpt lat="43.45577" lon="2.01117">
        <ele>243</ele>
        <time>2023-05-27T13:19:33Z</time>
      </trkpt>
      <trkpt lat="43.45575" lon="2.01121">
        <ele>243.2</ele>
        <time>2023-05-27T13:19:34Z</time>
      </trkpt>
      <trkpt lat="43.45574" lon="2.01126">
        <ele>243.2</ele>
        <time>2023-05-27T13:19:35Z</time>
      </trkpt>
      <trkpt lat="43.45572" lon="2.0113">
        <ele>243.2</ele>
        <time>2023-05-27T13:19:36Z</time>
      </trkpt>
      <trkpt lat="43.45571" lon="2.01134">
        <ele>243.2</ele>
        <time>2023-05-27T13:19:37Z</time>
      </trkpt>
      <trkpt lat="43.4557" lon="2.01139">
        <ele>243.2</ele>
        <time>2023-05-27T13:19:38Z</time>
      </trkpt>
      <trkpt lat="43.45568" lon="2.01143">
        <ele>243.2</ele>
        <time>2023-05-27T13:19:39Z</time>
      </trkpt>
      <trkpt lat="43.45567" lon="2.01147">
        <ele>243.4</ele>
        <time>2023-05-27T13:19:40Z</time>
      </trkpt>
      <trkpt lat="43.45565" lon="2.01151">
        <ele>243.4</ele>
        <time>2023-05-27T13:19:41Z</time>
      </trkpt>
      <trkpt lat="43.45564" lon="2.01155">
        <ele>243.4</ele>
        <time>2023-05-27T13:19:42Z</time>
      </trkpt>
      <trkpt lat="43.45562" lon="2.01159">
        <ele>243.4</ele>
        <time>2023-05-27T13:19:43Z</time>
      </trkpt>
      <trkpt lat="43.45561" lon="2.01163">
        <ele>243.6</ele>
        <time>2023-05-27T13:19:44Z</time>
      </trkpt>
      <trkpt lat="43.45559" lon="2.01167">
        <ele>243.6</ele>
        <time>2023-05-27T13:19:45Z</time>
      </trkpt>
      <trkpt lat="43.45558" lon="2.01171">
        <ele>243.6</ele>
        <time>2023-05-27T13:19:46Z</time>
      </trkpt>
      <trkpt lat="43.45557" lon="2.01175">
        <ele>243.6</ele>
        <time>2023-05-27T13:19:47Z</time>
      </trkpt>
      <trkpt lat="43.45556" lon="2.01179">
        <ele>243.6</ele>
        <time>2023-05-27T13:19:48Z</time>
      </trkpt>
      <trkpt lat="43.45555" lon="2.01183">
        <ele>243.6</ele>
        <time>2023-05-27T13:19:49Z</time>
      </trkpt>
      <trkpt lat="43.45554" lon="2.01188">
        <ele>243.8</ele>
        <time>2023-05-27T13:19:50Z</time>
      </trkpt>
      <trkpt lat="43.45552" lon="2.01193">
        <ele>243.8</ele>
        <time>2023-05-27T13:19:51Z</time>
      </trkpt>
      <trkpt lat="43.45551" lon="2.01197">
        <ele>243.8</ele>
        <time>2023-05-27T13:19:52Z</time>
      </trkpt>
      <trkpt lat="43.45549" lon="2.01201">
        <ele>244</ele>
        <time>2023-05-27T13:19:53Z</time>
      </trkpt>
      <trkpt lat="43.45548" lon="2.01205">
        <ele>244</ele>
        <time>2023-05-27T13:19:54Z</time>
      </trkpt>
      <trkpt lat="43.45547" lon="2.01209">
        <ele>244</ele>
        <time>2023-05-27T13:19:55Z</time>
      </trkpt>
      <trkpt lat="43.45545" lon="2.01213">
        <ele>244</ele>
        <time>2023-05-27T13:19:56Z</time>
      </trkpt>
      <trkpt lat="43.45543" lon="2.01217">
        <ele>244</ele>
        <time>2023-05-27T13:19:57Z</time>
      </trkpt>
      <trkpt lat="43.45542" lon="2.01222">
        <ele>244</ele>
        <time>2023-05-27T13:19:58Z</time>
      </trkpt>
      <trkpt lat="43.45541" lon="2.01226">
        <ele>244</ele>
        <time>2023-05-27T13:19:59Z</time>
      </trkpt>
      <trkpt lat="43.45539" lon="2.0123">
        <ele>244.2</ele>
        <time>2023-05-27T13:20:00Z</time>
      </trkpt>
      <trkpt lat="43.45538" lon="2.01234">
        <ele>244.2</ele>
        <time>2023-05-27T13:20:01Z</time>
      </trkpt>
      <trkpt lat="43.45536" lon="2.01239">
        <ele>244.2</ele>
        <time>2023-05-27T13:20:02Z</time>
      </trkpt>
      <trkpt lat="43.45535" lon="2.01243">
        <ele>244.4</ele>
        <time>2023-05-27T13:20:03Z</time>
      </trkpt>
      <trkpt lat="43.45533" lon="2.01247">
        <ele>244.4</ele>
        <time>2023-05-27T13:20:04Z</time>
      </trkpt>
      <trkpt lat="43.45532" lon="2.01251">
        <ele>244.4</ele>
        <time>2023-05-27T13:20:05Z</time>
      </trkpt>
      <trkpt lat="43.4553" lon="2.01255">
        <ele>244.4</ele>
        <time>2023-05-27T13:20:06Z</time>
      </trkpt>
      <trkpt lat="43.45529" lon="2.01259">
        <ele>244.4</ele>
        <time>2023-05-27T13:20:07Z</time>
      </trkpt>
      <trkpt lat="43.45527" lon="2.01264">
        <ele>244.4</ele>
        <time>2023-05-27T13:20:08Z</time>
      </trkpt>
      <trkpt lat="43.45526" lon="2.01268">
        <ele>244.4</ele>
        <time>2023-05-27T13:20:09Z</time>
      </trkpt>
      <trkpt lat="43.45524" lon="2.01272">
        <ele>244.4</ele>
        <time>2023-05-27T13:20:10Z</time>
      </trkpt>
      <trkpt lat="43.45523" lon="2.01277">
        <ele>244.6</ele>
        <time>2023-05-27T13:20:11Z</time>
      </trkpt>
      <trkpt lat="43.45521" lon="2.01281">
        <ele>244.6</ele>
        <time>2023-05-27T13:20:12Z</time>
      </trkpt>
      <trkpt lat="43.4552" lon="2.01286">
        <ele>244.6</ele>
        <time>2023-05-27T13:20:13Z</time>
      </trkpt>
      <trkpt lat="43.45518" lon="2.0129">
        <ele>244.6</ele>
        <time>2023-05-27T13:20:14Z</time>
      </trkpt>
      <trkpt lat="43.45517" lon="2.01294">
        <ele>244.8</ele>
        <time>2023-05-27T13:20:15Z</time>
      </trkpt>
      <trkpt lat="43.45515" lon="2.01298">
        <ele>244.8</ele>
        <time>2023-05-27T13:20:16Z</time>
      </trkpt>
      <trkpt lat="43.45514" lon="2.01302">
        <ele>244.8</ele>
        <time>2023-05-27T13:20:17Z</time>
      </trkpt>
      <trkpt lat="43.45513" lon="2.01306">
        <ele>244.8</ele>
        <time>2023-05-27T13:20:18Z</time>
      </trkpt>
      <trkpt lat="43.45512" lon="2.0131">
        <ele>245</ele>
        <time>2023-05-27T13:20:19Z</time>
      </trkpt>
      <trkpt lat="43.45511" lon="2.01314">
        <ele>245</ele>
        <time>2023-05-27T13:20:20Z</time>
      </trkpt>
      <trkpt lat="43.4551" lon="2.01318">
        <ele>245</ele>
        <time>2023-05-27T13:20:21Z</time>
      </trkpt>
      <trkpt lat="43.45508" lon="2.01322">
        <ele>245.2</ele>
        <time>2023-05-27T13:20:22Z</time>
      </trkpt>
      <trkpt lat="43.45506" lon="2.01326">
        <ele>245.2</ele>
        <time>2023-05-27T13:20:23Z</time>
      </trkpt>
      <trkpt lat="43.45505" lon="2.01329">
        <ele>245.2</ele>
        <time>2023-05-27T13:20:24Z</time>
      </trkpt>
      <trkpt lat="43.45503" lon="2.01333">
        <ele>245.4</ele>
        <time>2023-05-27T13:20:25Z</time>
      </trkpt>
      <trkpt lat="43.45502" lon="2.01337">
        <ele>245.4</ele>
        <time>2023-05-27T13:20:26Z</time>
      </trkpt>
      <trkpt lat="43.45501" lon="2.01341">
        <ele>245.4</ele>
        <time>2023-05-27T13:20:27Z</time>
      </trkpt>
      <trkpt lat="43.45499" lon="2.01345">
        <ele>245.6</ele>
        <time>2023-05-27T13:20:28Z</time>
      </trkpt>
      <trkpt lat="43.45498" lon="2.01349">
        <ele>245.6</ele>
        <time>2023-05-27T13:20:29Z</time>
      </trkpt>
      <trkpt lat="43.45496" lon="2.01353">
        <ele>245.8</ele>
        <time>2023-05-27T13:20:30Z</time>
      </trkpt>
      <trkpt lat="43.45495" lon="2.01357">
        <ele>245.8</ele>
        <time>2023-05-27T13:20:31Z</time>
      </trkpt>
      <trkpt lat="43.45494" lon="2.01361">
        <ele>246</ele>
        <time>2023-05-27T13:20:32Z</time>
      </trkpt>
      <trkpt lat="43.45493" lon="2.01365">
        <ele>246</ele>
        <time>2023-05-27T13:20:33Z</time>
      </trkpt>
      <trkpt lat="43.45491" lon="2.01369">
        <ele>246</ele>
        <time>2023-05-27T13:20:34Z</time>
      </trkpt>
      <trkpt lat="43.4549" lon="2.01373">
        <ele>246.2</ele>
        <time>2023-05-27T13:20:35Z</time>
      </trkpt>
      <trkpt lat="43.4549" lon="2.01377">
        <ele>246.2</ele>
        <time>2023-05-27T13:20:36Z</time>
      </trkpt>
      <trkpt lat="43.45489" lon="2.01381">
        <ele>246.4</ele>
        <time>2023-05-27T13:20:37Z</time>
      </trkpt>
      <trkpt lat="43.45487" lon="2.01384">
        <ele>246.4</ele>
        <time>2023-05-27T13:20:38Z</time>
      </trkpt>
      <trkpt lat="43.45486" lon="2.01388">
        <ele>246.6</ele>
        <time>2023-05-27T13:20:39Z</time>
      </trkpt>
      <trkpt lat="43.45484" lon="2.01391">
        <ele>246.6</ele>
        <time>2023-05-27T13:20:40Z</time>
      </trkpt>
      <trkpt lat="43.45483" lon="2.01395">
        <ele>246.8</ele>
        <time>2023-05-27T13:20:41Z</time>
      </trkpt>
      <trkpt lat="43.45482" lon="2.01398">
        <ele>246.8</ele>
        <time>2023-05-27T13:20:42Z</time>
      </trkpt>
      <trkpt lat="43.45481" lon="2.01401">
        <ele>247</ele>
        <time>2023-05-27T13:20:43Z</time>
      </trkpt>
      <trkpt lat="43.4548" lon="2.01404">
        <ele>247</ele>
        <time>2023-05-27T13:20:44Z</time>
      </trkpt>
      <trkpt lat="43.45479" lon="2.01407">
        <ele>247.2</ele>
        <time>2023-05-27T13:20:45Z</time>
      </trkpt>
      <trkpt lat="43.45477" lon="2.0141">
        <ele>247.2</ele>
        <time>2023-05-27T13:20:46Z</time>
      </trkpt>
      <trkpt lat="43.45476" lon="2.01412">
        <ele>247.4</ele>
        <time>2023-05-27T13:20:47Z</time>
      </trkpt>
      <trkpt lat="43.45474" lon="2.01415">
        <ele>247.4</ele>
        <time>2023-05-27T13:20:48Z</time>
      </trkpt>
      <trkpt lat="43.45474" lon="2.01418">
        <ele>247.6</ele>
        <time>2023-05-27T13:20:49Z</time>
      </trkpt>
      <trkpt lat="43.45474" lon="2.01421">
        <ele>247.6</ele>
        <time>2023-05-27T13:20:50Z</time>
      </trkpt>
      <trkpt lat="43.45475" lon="2.01422">
        <ele>247.8</ele>
        <time>2023-05-27T13:20:51Z</time>
      </trkpt>
      <trkpt lat="43.45476" lon="2.01425">
        <ele>247.8</ele>
        <time>2023-05-27T13:20:52Z</time>
      </trkpt>
      <trkpt lat="43.45478" lon="2.01427">
        <ele>247.8</ele>
        <time>2023-05-27T13:20:53Z</time>
      </trkpt>
      <trkpt lat="43.45479" lon="2.01429">
        <ele>247.8</ele>
        <time>2023-05-27T13:20:54Z</time>
      </trkpt>
      <trkpt lat="43.45481" lon="2.01431">
        <ele>248</ele>
        <time>2023-05-27T13:20:55Z</time>
      </trkpt>
      <trkpt lat="43.45483" lon="2.01432">
        <ele>248</ele>
        <time>2023-05-27T13:20:56Z</time>
      </trkpt>
      <trkpt lat="43.45484" lon="2.01434">
        <ele>248</ele>
        <time>2023-05-27T13:20:57Z</time>
      </trkpt>
      <trkpt lat="43.45486" lon="2.01436">
        <ele>248</ele>
        <time>2023-05-27T13:20:58Z</time>
      </trkpt>
      <trkpt lat="43.45487" lon="2.01438">
        <ele>248</ele>
        <time>2023-05-27T13:20:59Z</time>
      </trkpt>
      <trkpt lat="43.45489" lon="2.0144">
        <ele>248</ele>
        <time>2023-05-27T13:21:00Z</time>
      </trkpt>
      <trkpt lat="43.45491" lon="2.01442">
        <ele>248.2</ele>
        <time>2023-05-27T13:21:01Z</time>
      </trkpt>
      <trkpt lat="43.45492" lon="2.01445">
        <ele>248.2</ele>
        <time>2023-05-27T13:21:02Z</time>
      </trkpt>
      <trkpt lat="43.45493" lon="2.01448">
        <ele>248.2</ele>
        <time>2023-05-27T13:21:03Z</time>
      </trkpt>
      <trkpt lat="43.45493" lon="2.01451">
        <ele>248.2</ele>
        <time>2023-05-27T13:21:04Z</time>
      </trkpt>
      <trkpt lat="43.45492" lon="2.01455">
        <ele>248.2</ele>
        <time>2023-05-27T13:21:05Z</time>
      </trkpt>
      <trkpt lat="43.45491" lon="2.01457">
        <ele>248.4</ele>
        <time>2023-05-27T13:21:06Z</time>
      </trkpt>
      <trkpt lat="43.45489" lon="2.0146">
        <ele>248.4</ele>
        <time>2023-05-27T13:21:07Z</time>
      </trkpt>
      <trkpt lat="43.45487" lon="2.01462">
        <ele>248.6</ele>
        <time>2023-05-27T13:21:08Z</time>
      </trkpt>
      <trkpt lat="43.45486" lon="2.01465">
        <ele>248.6</ele>
        <time>2023-05-27T13:21:09Z</time>
      </trkpt>
      <trkpt lat="43.45485" lon="2.01468">
        <ele>248.6</ele>
        <time>2023-05-27T13:21:10Z</time>
      </trkpt>
      <trkpt lat="43.45483" lon="2.01471">
        <ele>248.6</ele>
        <time>2023-05-27T13:21:11Z</time>
      </trkpt>
      <trkpt lat="43.45482" lon="2.01475">
        <ele>248.8</ele>
        <time>2023-05-27T13:21:12Z</time>
      </trkpt>
      <trkpt lat="43.4548" lon="2.01478">
        <ele>248.8</ele>
        <time>2023-05-27T13:21:13Z</time>
      </trkpt>
      <trkpt lat="43.45478" lon="2.01481">
        <ele>248.8</ele>
        <time>2023-05-27T13:21:14Z</time>
      </trkpt>
      <trkpt lat="43.45476" lon="2.01484">
        <ele>248.8</ele>
        <time>2023-05-27T13:21:15Z</time>
      </trkpt>
      <trkpt lat="43.45474" lon="2.01487">
        <ele>248.8</ele>
        <time>2023-05-27T13:21:16Z</time>
      </trkpt>
      <trkpt lat="43.45472" lon="2.0149">
        <ele>248.8</ele>
        <time>2023-05-27T13:21:17Z</time>
      </trkpt>
      <trkpt lat="43.45469" lon="2.01493">
        <ele>249</ele>
        <time>2023-05-27T13:21:18Z</time>
      </trkpt>
      <trkpt lat="43.45468" lon="2.01496">
        <ele>249</ele>
        <time>2023-05-27T13:21:19Z</time>
      </trkpt>
      <trkpt lat="43.45466" lon="2.015">
        <ele>249</ele>
        <time>2023-05-27T13:21:20Z</time>
      </trkpt>
      <trkpt lat="43.45464" lon="2.01503">
        <ele>249</ele>
        <time>2023-05-27T13:21:21Z</time>
      </trkpt>
      <trkpt lat="43.45462" lon="2.01506">
        <ele>249</ele>
        <time>2023-05-27T13:21:22Z</time>
      </trkpt>
      <trkpt lat="43.4546" lon="2.0151">
        <ele>249</ele>
        <time>2023-05-27T13:21:23Z</time>
      </trkpt>
      <trkpt lat="43.45458" lon="2.01513">
        <ele>249</ele>
        <time>2023-05-27T13:21:24Z</time>
      </trkpt>
      <trkpt lat="43.45456" lon="2.01517">
        <ele>249</ele>
        <time>2023-05-27T13:21:25Z</time>
      </trkpt>
      <trkpt lat="43.45454" lon="2.01521">
        <ele>249</ele>
        <time>2023-05-27T13:21:26Z</time>
      </trkpt>
      <trkpt lat="43.45452" lon="2.01524">
        <ele>249</ele>
        <time>2023-05-27T13:21:27Z</time>
      </trkpt>
      <trkpt lat="43.4545" lon="2.01527">
        <ele>249</ele>
        <time>2023-05-27T13:21:28Z</time>
      </trkpt>
      <trkpt lat="43.45448" lon="2.01531">
        <ele>249</ele>
        <time>2023-05-27T13:21:29Z</time>
      </trkpt>
      <trkpt lat="43.45446" lon="2.01534">
        <ele>249</ele>
        <time>2023-05-27T13:21:30Z</time>
      </trkpt>
      <trkpt lat="43.45443" lon="2.01538">
        <ele>249.2</ele>
        <time>2023-05-27T13:21:31Z</time>
      </trkpt>
      <trkpt lat="43.4544" lon="2.01541">
        <ele>249.2</ele>
        <time>2023-05-27T13:21:32Z</time>
      </trkpt>
      <trkpt lat="43.45438" lon="2.01545">
        <ele>249.2</ele>
        <time>2023-05-27T13:21:33Z</time>
      </trkpt>
      <trkpt lat="43.45436" lon="2.01548">
        <ele>249.2</ele>
        <time>2023-05-27T13:21:34Z</time>
      </trkpt>
      <trkpt lat="43.45433" lon="2.01552">
        <ele>249.2</ele>
        <time>2023-05-27T13:21:35Z</time>
      </trkpt>
      <trkpt lat="43.45431" lon="2.01555">
        <ele>249.2</ele>
        <time>2023-05-27T13:21:36Z</time>
      </trkpt>
      <trkpt lat="43.45429" lon="2.01559">
        <ele>249.4</ele>
        <time>2023-05-27T13:21:37Z</time>
      </trkpt>
      <trkpt lat="43.45427" lon="2.01562">
        <ele>249.4</ele>
        <time>2023-05-27T13:21:38Z</time>
      </trkpt>
      <trkpt lat="43.45425" lon="2.01566">
        <ele>249.4</ele>
        <time>2023-05-27T13:21:39Z</time>
      </trkpt>
      <trkpt lat="43.45423" lon="2.01569">
        <ele>249.4</ele>
        <time>2023-05-27T13:21:40Z</time>
      </trkpt>
      <trkpt lat="43.45421" lon="2.01573">
        <ele>249.6</ele>
        <time>2023-05-27T13:21:41Z</time>
      </trkpt>
      <trkpt lat="43.45419" lon="2.01576">
        <ele>249.6</ele>
        <time>2023-05-27T13:21:42Z</time>
      </trkpt>
      <trkpt lat="43.45417" lon="2.01579">
        <ele>249.6</ele>
        <time>2023-05-27T13:21:43Z</time>
      </trkpt>
      <trkpt lat="43.45415" lon="2.01583">
        <ele>249.8</ele>
        <time>2023-05-27T13:21:44Z</time>
      </trkpt>
      <trkpt lat="43.45413" lon="2.01586">
        <ele>249.8</ele>
        <time>2023-05-27T13:21:45Z</time>
      </trkpt>
      <trkpt lat="43.45412" lon="2.01588">
        <ele>249.8</ele>
        <time>2023-05-27T13:21:46Z</time>
      </trkpt>
      <trkpt lat="43.45411" lon="2.01591">
        <ele>250</ele>
        <time>2023-05-27T13:21:47Z</time>
      </trkpt>
      <trkpt lat="43.45409" lon="2.01595">
        <ele>250</ele>
        <time>2023-05-27T13:21:48Z</time>
      </trkpt>
      <trkpt lat="43.45407" lon="2.01598">
        <ele>250.2</ele>
        <time>2023-05-27T13:21:49Z</time>
      </trkpt>
      <trkpt lat="43.45406" lon="2.01601">
        <ele>250.2</ele>
        <time>2023-05-27T13:21:50Z</time>
      </trkpt>
      <trkpt lat="43.45405" lon="2.01604">
        <ele>250.2</ele>
        <time>2023-05-27T13:21:51Z</time>
      </trkpt>
      <trkpt lat="43.45403" lon="2.01607">
        <ele>250.4</ele>
        <time>2023-05-27T13:21:52Z</time>
      </trkpt>
      <trkpt lat="43.45402" lon="2.01611">
        <ele>250.4</ele>
        <time>2023-05-27T13:21:53Z</time>
      </trkpt>
      <trkpt lat="43.454" lon="2.01614">
        <ele>250.4</ele>
        <time>2023-05-27T13:21:54Z</time>
      </trkpt>
      <trkpt lat="43.45399" lon="2.01617">
        <ele>250.6</ele>
        <time>2023-05-27T13:21:55Z</time>
      </trkpt>
      <trkpt lat="43.45398" lon="2.01619">
        <ele>250.6</ele>
        <time>2023-05-27T13:21:56Z</time>
      </trkpt>
      <trkpt lat="43.45396" lon="2.01621">
        <ele>250.6</ele>
        <time>2023-05-27T13:21:57Z</time>
      </trkpt>
      <trkpt lat="43.45395" lon="2.01624">
        <ele>250.8</ele>
        <time>2023-05-27T13:21:58Z</time>
      </trkpt>
      <trkpt lat="43.45394" lon="2.01626">
        <ele>250.8</ele>
        <time>2023-05-27T13:21:59Z</time>
      </trkpt>
      <trkpt lat="43.45393" lon="2.01628">
        <ele>251</ele>
        <time>2023-05-27T13:22:00Z</time>
      </trkpt>
      <trkpt lat="43.45391" lon="2.0163">
        <ele>251</ele>
        <time>2023-05-27T13:22:01Z</time>
      </trkpt>
      <trkpt lat="43.4539" lon="2.01633">
        <ele>251.2</ele>
        <time>2023-05-27T13:22:02Z</time>
      </trkpt>
      <trkpt lat="43.45388" lon="2.01636">
        <ele>251.2</ele>
        <time>2023-05-27T13:22:03Z</time>
      </trkpt>
      <trkpt lat="43.45386" lon="2.01639">
        <ele>251.4</ele>
        <time>2023-05-27T13:22:04Z</time>
      </trkpt>
      <trkpt lat="43.45384" lon="2.01643">
        <ele>251.4</ele>
        <time>2023-05-27T13:22:05Z</time>
      </trkpt>
      <trkpt lat="43.45383" lon="2.01647">
        <ele>251.4</ele>
        <time>2023-05-27T13:22:06Z</time>
      </trkpt>
      <trkpt lat="43.45381" lon="2.01652">
        <ele>251.6</ele>
        <time>2023-05-27T13:22:07Z</time>
      </trkpt>
      <trkpt lat="43.45379" lon="2.01656">
        <ele>251.6</ele>
        <time>2023-05-27T13:22:08Z</time>
      </trkpt>
      <trkpt lat="43.45377" lon="2.01659">
        <ele>251.8</ele>
        <time>2023-05-27T13:22:09Z</time>
      </trkpt>
      <trkpt lat="43.45375" lon="2.01663">
        <ele>251.8</ele>
        <time>2023-05-27T13:22:10Z</time>
      </trkpt>
      <trkpt lat="43.45373" lon="2.01667">
        <ele>252</ele>
        <time>2023-05-27T13:22:11Z</time>
      </trkpt>
      <trkpt lat="43.45372" lon="2.0167">
        <ele>252</ele>
        <time>2023-05-27T13:22:12Z</time>
      </trkpt>
      <trkpt lat="43.4537" lon="2.01673">
        <ele>252</ele>
        <time>2023-05-27T13:22:13Z</time>
      </trkpt>
      <trkpt lat="43.45369" lon="2.01677">
        <ele>252.2</ele>
        <time>2023-05-27T13:22:14Z</time>
      </trkpt>
      <trkpt lat="43.45368" lon="2.01681">
        <ele>252.2</ele>
        <time>2023-05-27T13:22:15Z</time>
      </trkpt>
      <trkpt lat="43.45366" lon="2.01685">
        <ele>252.2</ele>
        <time>2023-05-27T13:22:16Z</time>
      </trkpt>
      <trkpt lat="43.45364" lon="2.0169">
        <ele>252.2</ele>
        <time>2023-05-27T13:22:17Z</time>
      </trkpt>
      <trkpt lat="43.45363" lon="2.01694">
        <ele>252.2</ele>
        <time>2023-05-27T13:22:18Z</time>
      </trkpt>
      <trkpt lat="43.45361" lon="2.01698">
        <ele>252.2</ele>
        <time>2023-05-27T13:22:19Z</time>
      </trkpt>
      <trkpt lat="43.45359" lon="2.01702">
        <ele>252.2</ele>
        <time>2023-05-27T13:22:20Z</time>
      </trkpt>
      <trkpt lat="43.45357" lon="2.01706">
        <ele>252.2</ele>
        <time>2023-05-27T13:22:21Z</time>
      </trkpt>
      <trkpt lat="43.45356" lon="2.01711">
        <ele>252.2</ele>
        <time>2023-05-27T13:22:22Z</time>
      </trkpt>
      <trkpt lat="43.45355" lon="2.01715">
        <ele>252.2</ele>
        <time>2023-05-27T13:22:23Z</time>
      </trkpt>
      <trkpt lat="43.45354" lon="2.01719">
        <ele>252.2</ele>
        <time>2023-05-27T13:22:24Z</time>
      </trkpt>
      <trkpt lat="43.45354" lon="2.01724">
        <ele>252.2</ele>
        <time>2023-05-27T13:22:25Z</time>
      </trkpt>
      <trkpt lat="43.45353" lon="2.01729">
        <ele>252.2</ele>
        <time>2023-05-27T13:22:26Z</time>
      </trkpt>
      <trkpt lat="43.45352" lon="2.01734">
        <ele>252.2</ele>
        <time>2023-05-27T13:22:27Z</time>
      </trkpt>
      <trkpt lat="43.45351" lon="2.01739">
        <ele>252.2</ele>
        <time>2023-05-27T13:22:28Z</time>
      </trkpt>
      <trkpt lat="43.4535" lon="2.01743">
        <ele>252.2</ele>
        <time>2023-05-27T13:22:29Z</time>
      </trkpt>
      <trkpt lat="43.4535" lon="2.01748">
        <ele>252.4</ele>
        <time>2023-05-27T13:22:30Z</time>
      </trkpt>
      <trkpt lat="43.45349" lon="2.01752">
        <ele>252.4</ele>
        <time>2023-05-27T13:22:31Z</time>
      </trkpt>
      <trkpt lat="43.45348" lon="2.01757">
        <ele>252.4</ele>
        <time>2023-05-27T13:22:32Z</time>
      </trkpt>
      <trkpt lat="43.45346" lon="2.01761">
        <ele>252.4</ele>
        <time>2023-05-27T13:22:33Z</time>
      </trkpt>
      <trkpt lat="43.45345" lon="2.01766">
        <ele>252.4</ele>
        <time>2023-05-27T13:22:34Z</time>
      </trkpt>
      <trkpt lat="43.45344" lon="2.01771">
        <ele>252.4</ele>
        <time>2023-05-27T13:22:35Z</time>
      </trkpt>
      <trkpt lat="43.45344" lon="2.01776">
        <ele>252.4</ele>
        <time>2023-05-27T13:22:36Z</time>
      </trkpt>
      <trkpt lat="43.45343" lon="2.01781">
        <ele>252.4</ele>
        <time>2023-05-27T13:22:37Z</time>
      </trkpt>
      <trkpt lat="43.45342" lon="2.01786">
        <ele>252.4</ele>
        <time>2023-05-27T13:22:38Z</time>
      </trkpt>
      <trkpt lat="43.45342" lon="2.01791">
        <ele>252.4</ele>
        <time>2023-05-27T13:22:39Z</time>
      </trkpt>
      <trkpt lat="43.45342" lon="2.01795">
        <ele>252.2</ele>
        <time>2023-05-27T13:22:40Z</time>
      </trkpt>
      <trkpt lat="43.45342" lon="2.018">
        <ele>252.2</ele>
        <time>2023-05-27T13:22:41Z</time>
      </trkpt>
      <trkpt lat="43.45341" lon="2.01804">
        <ele>252.2</ele>
        <time>2023-05-27T13:22:42Z</time>
      </trkpt>
      <trkpt lat="43.45341" lon="2.01807">
        <ele>252.2</ele>
        <time>2023-05-27T13:22:43Z</time>
      </trkpt>
      <trkpt lat="43.45342" lon="2.0181">
        <ele>252.2</ele>
        <time>2023-05-27T13:22:44Z</time>
      </trkpt>
      <trkpt lat="43.45342" lon="2.01813">
        <ele>252.2</ele>
        <time>2023-05-27T13:22:45Z</time>
      </trkpt>
      <trkpt lat="43.45343" lon="2.01816">
        <ele>252.2</ele>
        <time>2023-05-27T13:22:46Z</time>
      </trkpt>
      <trkpt lat="43.45343" lon="2.01819">
        <ele>252.2</ele>
        <time>2023-05-27T13:22:47Z</time>
      </trkpt>
      <trkpt lat="43.45343" lon="2.01823">
        <ele>252.2</ele>
        <time>2023-05-27T13:22:48Z</time>
      </trkpt>
      <trkpt lat="43.45343" lon="2.01826">
        <ele>252.2</ele>
        <time>2023-05-27T13:22:49Z</time>
      </trkpt>
      <trkpt lat="43.45343" lon="2.01829">
        <ele>252.4</ele>
        <time>2023-05-27T13:22:50Z</time>
      </trkpt>
      <trkpt lat="43.45343" lon="2.01835">
        <ele>252.4</ele>
        <time>2023-05-27T13:22:51Z</time>
      </trkpt>
      <trkpt lat="43.45342" lon="2.01841">
        <ele>252.4</ele>
        <time>2023-05-27T13:22:52Z</time>
      </trkpt>
      <trkpt lat="43.45342" lon="2.01847">
        <ele>252.2</ele>
        <time>2023-05-27T13:22:53Z</time>
      </trkpt>
      <trkpt lat="43.45343" lon="2.01853">
        <ele>252.2</ele>
        <time>2023-05-27T13:22:54Z</time>
      </trkpt>
      <trkpt lat="43.45343" lon="2.0186">
        <ele>252.2</ele>
        <time>2023-05-27T13:22:55Z</time>
      </trkpt>
      <trkpt lat="43.45344" lon="2.01866">
        <ele>252.2</ele>
        <time>2023-05-27T13:22:56Z</time>
      </trkpt>
      <trkpt lat="43.45344" lon="2.01873">
        <ele>252.2</ele>
        <time>2023-05-27T13:22:57Z</time>
      </trkpt>
      <trkpt lat="43.45344" lon="2.01879">
        <ele>252.2</ele>
        <time>2023-05-27T13:22:58Z</time>
      </trkpt>
      <trkpt lat="43.45345" lon="2.01886">
        <ele>252.2</ele>
        <time>2023-05-27T13:22:59Z</time>
      </trkpt>
      <trkpt lat="43.45346" lon="2.01892">
        <ele>252.2</ele>
        <time>2023-05-27T13:23:00Z</time>
      </trkpt>
      <trkpt lat="43.45346" lon="2.01898">
        <ele>252.2</ele>
        <time>2023-05-27T13:23:01Z</time>
      </trkpt>
      <trkpt lat="43.45346" lon="2.01905">
        <ele>252.2</ele>
        <time>2023-05-27T13:23:02Z</time>
      </trkpt>
      <trkpt lat="43.45346" lon="2.01911">
        <ele>252.2</ele>
        <time>2023-05-27T13:23:03Z</time>
      </trkpt>
      <trkpt lat="43.45346" lon="2.01916">
        <ele>252.2</ele>
        <time>2023-05-27T13:23:04Z</time>
      </trkpt>
      <trkpt lat="43.45347" lon="2.01921">
        <ele>252.2</ele>
        <time>2023-05-27T13:23:05Z</time>
      </trkpt>
      <trkpt lat="43.45348" lon="2.01926">
        <ele>252.2</ele>
        <time>2023-05-27T13:23:06Z</time>
      </trkpt>
      <trkpt lat="43.45348" lon="2.0193">
        <ele>252.2</ele>
        <time>2023-05-27T13:23:07Z</time>
      </trkpt>
      <trkpt lat="43.45347" lon="2.01934">
        <ele>252.2</ele>
        <time>2023-05-27T13:23:08Z</time>
      </trkpt>
      <trkpt lat="43.45347" lon="2.01939">
        <ele>252.2</ele>
        <time>2023-05-27T13:23:09Z</time>
      </trkpt>
      <trkpt lat="43.45346" lon="2.01943">
        <ele>252.2</ele>
        <time>2023-05-27T13:23:10Z</time>
      </trkpt>
      <trkpt lat="43.45347" lon="2.01947">
        <ele>252.2</ele>
        <time>2023-05-27T13:23:11Z</time>
      </trkpt>
      <trkpt lat="43.45347" lon="2.01952">
        <ele>252.2</ele>
        <time>2023-05-27T13:23:12Z</time>
      </trkpt>
      <trkpt lat="43.45347" lon="2.01956">
        <ele>252.2</ele>
        <time>2023-05-27T13:23:13Z</time>
      </trkpt>
      <trkpt lat="43.45348" lon="2.01961">
        <ele>252.2</ele>
        <time>2023-05-27T13:23:14Z</time>
      </trkpt>
      <trkpt lat="43.45348" lon="2.01965">
        <ele>252.2</ele>
        <time>2023-05-27T13:23:15Z</time>
      </trkpt>
      <trkpt lat="43.45349" lon="2.0197">
        <ele>252.2</ele>
        <time>2023-05-27T13:23:16Z</time>
      </trkpt>
      <trkpt lat="43.4535" lon="2.01974">
        <ele>252.2</ele>
        <time>2023-05-27T13:23:17Z</time>
      </trkpt>
      <trkpt lat="43.45351" lon="2.01979">
        <ele>252.2</ele>
        <time>2023-05-27T13:23:18Z</time>
      </trkpt>
      <trkpt lat="43.45352" lon="2.01984">
        <ele>252.2</ele>
        <time>2023-05-27T13:23:19Z</time>
      </trkpt>
      <trkpt lat="43.45353" lon="2.01989">
        <ele>252.2</ele>
        <time>2023-05-27T13:23:20Z</time>
      </trkpt>
      <trkpt lat="43.45354" lon="2.01994">
        <ele>252.2</ele>
        <time>2023-05-27T13:23:21Z</time>
      </trkpt>
      <trkpt lat="43.45355" lon="2.01999">
        <ele>252.2</ele>
        <time>2023-05-27T13:23:22Z</time>
      </trkpt>
      <trkpt lat="43.45355" lon="2.02004">
        <ele>252.2</ele>
        <time>2023-05-27T13:23:23Z</time>
      </trkpt>
      <trkpt lat="43.45355" lon="2.02008">
        <ele>252.2</ele>
        <time>2023-05-27T13:23:24Z</time>
      </trkpt>
      <trkpt lat="43.45355" lon="2.02012">
        <ele>252.2</ele>
        <time>2023-05-27T13:23:25Z</time>
      </trkpt>
      <trkpt lat="43.45355" lon="2.02016">
        <ele>252.2</ele>
        <time>2023-05-27T13:23:26Z</time>
      </trkpt>
      <trkpt lat="43.45354" lon="2.0202">
        <ele>252.2</ele>
        <time>2023-05-27T13:23:27Z</time>
      </trkpt>
      <trkpt lat="43.45354" lon="2.02024">
        <ele>252.2</ele>
        <time>2023-05-27T13:23:28Z</time>
      </trkpt>
      <trkpt lat="43.45353" lon="2.02028">
        <ele>252.2</ele>
        <time>2023-05-27T13:23:29Z</time>
      </trkpt>
      <trkpt lat="43.45353" lon="2.02033">
        <ele>252.4</ele>
        <time>2023-05-27T13:23:30Z</time>
      </trkpt>
      <trkpt lat="43.45353" lon="2.02039">
        <ele>252.4</ele>
        <time>2023-05-27T13:23:31Z</time>
      </trkpt>
      <trkpt lat="43.45353" lon="2.02044">
        <ele>252.4</ele>
        <time>2023-05-27T13:23:32Z</time>
      </trkpt>
      <trkpt lat="43.45353" lon="2.0205">
        <ele>252.4</ele>
        <time>2023-05-27T13:23:33Z</time>
      </trkpt>
      <trkpt lat="43.45352" lon="2.02055">
        <ele>252.4</ele>
        <time>2023-05-27T13:23:34Z</time>
      </trkpt>
      <trkpt lat="43.45352" lon="2.02061">
        <ele>252.4</ele>
        <time>2023-05-27T13:23:35Z</time>
      </trkpt>
      <trkpt lat="43.45352" lon="2.02067">
        <ele>252.4</ele>
        <time>2023-05-27T13:23:36Z</time>
      </trkpt>
      <trkpt lat="43.45352" lon="2.02073">
        <ele>252.4</ele>
        <time>2023-05-27T13:23:37Z</time>
      </trkpt>
      <trkpt lat="43.45351" lon="2.02079">
        <ele>252.4</ele>
        <time>2023-05-27T13:23:38Z</time>
      </trkpt>
      <trkpt lat="43.45351" lon="2.02086">
        <ele>252.4</ele>
        <time>2023-05-27T13:23:39Z</time>
      </trkpt>
      <trkpt lat="43.4535" lon="2.02091">
        <ele>252.4</ele>
        <time>2023-05-27T13:23:40Z</time>
      </trkpt>
      <trkpt lat="43.4535" lon="2.02096">
        <ele>252.4</ele>
        <time>2023-05-27T13:23:41Z</time>
      </trkpt>
      <trkpt lat="43.45349" lon="2.02102">
        <ele>252.4</ele>
        <time>2023-05-27T13:23:42Z</time>
      </trkpt>
      <trkpt lat="43.45348" lon="2.02108">
        <ele>252.4</ele>
        <time>2023-05-27T13:23:43Z</time>
      </trkpt>
      <trkpt lat="43.45348" lon="2.02116">
        <ele>252.4</ele>
        <time>2023-05-27T13:23:44Z</time>
      </trkpt>
      <trkpt lat="43.45347" lon="2.02124">
        <ele>252.6</ele>
        <time>2023-05-27T13:23:45Z</time>
      </trkpt>
      <trkpt lat="43.45346" lon="2.02131">
        <ele>252.6</ele>
        <time>2023-05-27T13:23:46Z</time>
      </trkpt>
      <trkpt lat="43.45346" lon="2.02137">
        <ele>252.6</ele>
        <time>2023-05-27T13:23:47Z</time>
      </trkpt>
      <trkpt lat="43.45345" lon="2.02143">
        <ele>252.6</ele>
        <time>2023-05-27T13:23:48Z</time>
      </trkpt>
      <trkpt lat="43.45345" lon="2.02148">
        <ele>252.6</ele>
        <time>2023-05-27T13:23:49Z</time>
      </trkpt>
      <trkpt lat="43.45344" lon="2.02155">
        <ele>252.6</ele>
        <time>2023-05-27T13:23:50Z</time>
      </trkpt>
      <trkpt lat="43.45344" lon="2.02162">
        <ele>252.6</ele>
        <time>2023-05-27T13:23:51Z</time>
      </trkpt>
      <trkpt lat="43.45344" lon="2.02169">
        <ele>252.8</ele>
        <time>2023-05-27T13:23:52Z</time>
      </trkpt>
      <trkpt lat="43.45343" lon="2.02175">
        <ele>252.8</ele>
        <time>2023-05-27T13:23:53Z</time>
      </trkpt>
      <trkpt lat="43.45342" lon="2.0218">
        <ele>252.8</ele>
        <time>2023-05-27T13:23:54Z</time>
      </trkpt>
      <trkpt lat="43.45342" lon="2.02185">
        <ele>252.8</ele>
        <time>2023-05-27T13:23:55Z</time>
      </trkpt>
      <trkpt lat="43.45342" lon="2.02191">
        <ele>252.8</ele>
        <time>2023-05-27T13:23:56Z</time>
      </trkpt>
      <trkpt lat="43.45341" lon="2.022">
        <ele>252.8</ele>
        <time>2023-05-27T13:23:57Z</time>
      </trkpt>
      <trkpt lat="43.45341" lon="2.02207">
        <ele>253</ele>
        <time>2023-05-27T13:23:58Z</time>
      </trkpt>
      <trkpt lat="43.4534" lon="2.02213">
        <ele>253</ele>
        <time>2023-05-27T13:23:59Z</time>
      </trkpt>
      <trkpt lat="43.45339" lon="2.02218">
        <ele>253</ele>
        <time>2023-05-27T13:24:00Z</time>
      </trkpt>
      <trkpt lat="43.45338" lon="2.02224">
        <ele>253</ele>
        <time>2023-05-27T13:24:01Z</time>
      </trkpt>
      <trkpt lat="43.45338" lon="2.0223">
        <ele>253</ele>
        <time>2023-05-27T13:24:02Z</time>
      </trkpt>
      <trkpt lat="43.45338" lon="2.02235">
        <ele>253.2</ele>
        <time>2023-05-27T13:24:03Z</time>
      </trkpt>
      <trkpt lat="43.45338" lon="2.02241">
        <ele>253.2</ele>
        <time>2023-05-27T13:24:04Z</time>
      </trkpt>
      <trkpt lat="43.45338" lon="2.02248">
        <ele>253.2</ele>
        <time>2023-05-27T13:24:05Z</time>
      </trkpt>
      <trkpt lat="43.45336" lon="2.02254">
        <ele>253.2</ele>
        <time>2023-05-27T13:24:06Z</time>
      </trkpt>
      <trkpt lat="43.45336" lon="2.0226">
        <ele>253.2</ele>
        <time>2023-05-27T13:24:07Z</time>
      </trkpt>
      <trkpt lat="43.45335" lon="2.02267">
        <ele>253.2</ele>
        <time>2023-05-27T13:24:08Z</time>
      </trkpt>
      <trkpt lat="43.45334" lon="2.02273">
        <ele>253.2</ele>
        <time>2023-05-27T13:24:09Z</time>
      </trkpt>
      <trkpt lat="43.45334" lon="2.02279">
        <ele>253.2</ele>
        <time>2023-05-27T13:24:10Z</time>
      </trkpt>
      <trkpt lat="43.45333" lon="2.02285">
        <ele>253.2</ele>
        <time>2023-05-27T13:24:11Z</time>
      </trkpt>
      <trkpt lat="43.45333" lon="2.02291">
        <ele>253.2</ele>
        <time>2023-05-27T13:24:12Z</time>
      </trkpt>
      <trkpt lat="43.45333" lon="2.02296">
        <ele>253</ele>
        <time>2023-05-27T13:24:13Z</time>
      </trkpt>
      <trkpt lat="43.45333" lon="2.02302">
        <ele>253</ele>
        <time>2023-05-27T13:24:14Z</time>
      </trkpt>
      <trkpt lat="43.45333" lon="2.02307">
        <ele>253</ele>
        <time>2023-05-27T13:24:15Z</time>
      </trkpt>
      <trkpt lat="43.45332" lon="2.02313">
        <ele>253</ele>
        <time>2023-05-27T13:24:16Z</time>
      </trkpt>
      <trkpt lat="43.45332" lon="2.0232">
        <ele>252.8</ele>
        <time>2023-05-27T13:24:17Z</time>
      </trkpt>
      <trkpt lat="43.45332" lon="2.02326">
        <ele>252.8</ele>
        <time>2023-05-27T13:24:18Z</time>
      </trkpt>
      <trkpt lat="43.45333" lon="2.02333">
        <ele>252.8</ele>
        <time>2023-05-27T13:24:19Z</time>
      </trkpt>
      <trkpt lat="43.45333" lon="2.0234">
        <ele>252.8</ele>
        <time>2023-05-27T13:24:20Z</time>
      </trkpt>
      <trkpt lat="43.45332" lon="2.02346">
        <ele>252.8</ele>
        <time>2023-05-27T13:24:21Z</time>
      </trkpt>
      <trkpt lat="43.45332" lon="2.02352">
        <ele>252.8</ele>
        <time>2023-05-27T13:24:22Z</time>
      </trkpt>
      <trkpt lat="43.45332" lon="2.02358">
        <ele>252.8</ele>
        <time>2023-05-27T13:24:23Z</time>
      </trkpt>
      <trkpt lat="43.45331" lon="2.02364">
        <ele>252.8</ele>
        <time>2023-05-27T13:24:24Z</time>
      </trkpt>
      <trkpt lat="43.45332" lon="2.0237">
        <ele>253</ele>
        <time>2023-05-27T13:24:25Z</time>
      </trkpt>
      <trkpt lat="43.45332" lon="2.02376">
        <ele>253</ele>
        <time>2023-05-27T13:24:26Z</time>
      </trkpt>
      <trkpt lat="43.45332" lon="2.02383">
        <ele>253</ele>
        <time>2023-05-27T13:24:27Z</time>
      </trkpt>
      <trkpt lat="43.45333" lon="2.0239">
        <ele>253</ele>
        <time>2023-05-27T13:24:28Z</time>
      </trkpt>
      <trkpt lat="43.45333" lon="2.02396">
        <ele>253</ele>
        <time>2023-05-27T13:24:29Z</time>
      </trkpt>
      <trkpt lat="43.45333" lon="2.02402">
        <ele>253</ele>
        <time>2023-05-27T13:24:30Z</time>
      </trkpt>
      <trkpt lat="43.45332" lon="2.02408">
        <ele>253</ele>
        <time>2023-05-27T13:24:31Z</time>
      </trkpt>
      <trkpt lat="43.4533" lon="2.02415">
        <ele>253</ele>
        <time>2023-05-27T13:24:32Z</time>
      </trkpt>
      <trkpt lat="43.4533" lon="2.02423">
        <ele>253</ele>
        <time>2023-05-27T13:24:33Z</time>
      </trkpt>
      <trkpt lat="43.4533" lon="2.02429">
        <ele>253</ele>
        <time>2023-05-27T13:24:34Z</time>
      </trkpt>
      <trkpt lat="43.4533" lon="2.02436">
        <ele>253</ele>
        <time>2023-05-27T13:24:35Z</time>
      </trkpt>
      <trkpt lat="43.4533" lon="2.02443">
        <ele>253</ele>
        <time>2023-05-27T13:24:36Z</time>
      </trkpt>
      <trkpt lat="43.4533" lon="2.02448">
        <ele>253</ele>
        <time>2023-05-27T13:24:37Z</time>
      </trkpt>
      <trkpt lat="43.45329" lon="2.02454">
        <ele>253</ele>
        <time>2023-05-27T13:24:38Z</time>
      </trkpt>
      <trkpt lat="43.45327" lon="2.0246">
        <ele>252.8</ele>
        <time>2023-05-27T13:24:39Z</time>
      </trkpt>
      <trkpt lat="43.45323" lon="2.02464">
        <ele>252.8</ele>
        <time>2023-05-27T13:24:40Z</time>
      </trkpt>
      <trkpt lat="43.4532" lon="2.02467">
        <ele>252.8</ele>
        <time>2023-05-27T13:24:41Z</time>
      </trkpt>
      <trkpt lat="43.45316" lon="2.0247">
        <ele>252.8</ele>
        <time>2023-05-27T13:24:42Z</time>
      </trkpt>
      <trkpt lat="43.45313" lon="2.02472">
        <ele>252.8</ele>
        <time>2023-05-27T13:24:43Z</time>
      </trkpt>
      <trkpt lat="43.45309" lon="2.02475">
        <ele>252.8</ele>
        <time>2023-05-27T13:24:44Z</time>
      </trkpt>
      <trkpt lat="43.45306" lon="2.02478">
        <ele>252.8</ele>
        <time>2023-05-27T13:24:45Z</time>
      </trkpt>
      <trkpt lat="43.45302" lon="2.02481">
        <ele>252.8</ele>
        <time>2023-05-27T13:24:46Z</time>
      </trkpt>
      <trkpt lat="43.45299" lon="2.02484">
        <ele>253</ele>
        <time>2023-05-27T13:24:47Z</time>
      </trkpt>
      <trkpt lat="43.45296" lon="2.02487">
        <ele>253</ele>
        <time>2023-05-27T13:24:48Z</time>
      </trkpt>
      <trkpt lat="43.45292" lon="2.0249">
        <ele>253</ele>
        <time>2023-05-27T13:24:49Z</time>
      </trkpt>
      <trkpt lat="43.45289" lon="2.02493">
        <ele>253</ele>
        <time>2023-05-27T13:24:50Z</time>
      </trkpt>
      <trkpt lat="43.45286" lon="2.02496">
        <ele>253</ele>
        <time>2023-05-27T13:24:51Z</time>
      </trkpt>
      <trkpt lat="43.45282" lon="2.02499">
        <ele>253.2</ele>
        <time>2023-05-27T13:24:52Z</time>
      </trkpt>
      <trkpt lat="43.45279" lon="2.02502">
        <ele>253.2</ele>
        <time>2023-05-27T13:24:53Z</time>
      </trkpt>
      <trkpt lat="43.45276" lon="2.02505">
        <ele>253.2</ele>
        <time>2023-05-27T13:24:54Z</time>
      </trkpt>
      <trkpt lat="43.45273" lon="2.02508">
        <ele>253.4</ele>
        <time>2023-05-27T13:24:55Z</time>
      </trkpt>
      <trkpt lat="43.4527" lon="2.02511">
        <ele>253.4</ele>
        <time>2023-05-27T13:24:56Z</time>
      </trkpt>
      <trkpt lat="43.45267" lon="2.02514">
        <ele>253.4</ele>
        <time>2023-05-27T13:24:57Z</time>
      </trkpt>
      <trkpt lat="43.45263" lon="2.02516">
        <ele>253.6</ele>
        <time>2023-05-27T13:24:58Z</time>
      </trkpt>
      <trkpt lat="43.45261" lon="2.02519">
        <ele>253.6</ele>
        <time>2023-05-27T13:24:59Z</time>
      </trkpt>
      <trkpt lat="43.45258" lon="2.02522">
        <ele>253.6</ele>
        <time>2023-05-27T13:25:00Z</time>
      </trkpt>
      <trkpt lat="43.45255" lon="2.02525">
        <ele>253.8</ele>
        <time>2023-05-27T13:25:01Z</time>
      </trkpt>
      <trkpt lat="43.45251" lon="2.02528">
        <ele>253.8</ele>
        <time>2023-05-27T13:25:02Z</time>
      </trkpt>
      <trkpt lat="43.45248" lon="2.0253">
        <ele>253.8</ele>
        <time>2023-05-27T13:25:03Z</time>
      </trkpt>
      <trkpt lat="43.45246" lon="2.02533">
        <ele>253.8</ele>
        <time>2023-05-27T13:25:04Z</time>
      </trkpt>
      <trkpt lat="43.45243" lon="2.02536">
        <ele>253.8</ele>
        <time>2023-05-27T13:25:05Z</time>
      </trkpt>
      <trkpt lat="43.4524" lon="2.02539">
        <ele>254</ele>
        <time>2023-05-27T13:25:06Z</time>
      </trkpt>
      <trkpt lat="43.45237" lon="2.02542">
        <ele>254</ele>
        <time>2023-05-27T13:25:07Z</time>
      </trkpt>
      <trkpt lat="43.45235" lon="2.02544">
        <ele>254</ele>
        <time>2023-05-27T13:25:08Z</time>
      </trkpt>
      <trkpt lat="43.45232" lon="2.02547">
        <ele>254</ele>
        <time>2023-05-27T13:25:09Z</time>
      </trkpt>
      <trkpt lat="43.45229" lon="2.0255">
        <ele>254.2</ele>
        <time>2023-05-27T13:25:10Z</time>
      </trkpt>
      <trkpt lat="43.45226" lon="2.02552">
        <ele>254.2</ele>
        <time>2023-05-27T13:25:11Z</time>
      </trkpt>
      <trkpt lat="43.45223" lon="2.02555">
        <ele>254.2</ele>
        <time>2023-05-27T13:25:12Z</time>
      </trkpt>
      <trkpt lat="43.45221" lon="2.02557">
        <ele>254.2</ele>
        <time>2023-05-27T13:25:13Z</time>
      </trkpt>
      <trkpt lat="43.45218" lon="2.0256">
        <ele>254.4</ele>
        <time>2023-05-27T13:25:14Z</time>
      </trkpt>
      <trkpt lat="43.45215" lon="2.02563">
        <ele>254.4</ele>
        <time>2023-05-27T13:25:15Z</time>
      </trkpt>
      <trkpt lat="43.45212" lon="2.02566">
        <ele>254.4</ele>
        <time>2023-05-27T13:25:16Z</time>
      </trkpt>
      <trkpt lat="43.4521" lon="2.02569">
        <ele>254.6</ele>
        <time>2023-05-27T13:25:17Z</time>
      </trkpt>
      <trkpt lat="43.45207" lon="2.02572">
        <ele>254.6</ele>
        <time>2023-05-27T13:25:18Z</time>
      </trkpt>
      <trkpt lat="43.45205" lon="2.02575">
        <ele>254.6</ele>
        <time>2023-05-27T13:25:19Z</time>
      </trkpt>
      <trkpt lat="43.45202" lon="2.02578">
        <ele>254.8</ele>
        <time>2023-05-27T13:25:20Z</time>
      </trkpt>
      <trkpt lat="43.452" lon="2.02581">
        <ele>254.8</ele>
        <time>2023-05-27T13:25:21Z</time>
      </trkpt>
      <trkpt lat="43.45198" lon="2.02583">
        <ele>255</ele>
        <time>2023-05-27T13:25:22Z</time>
      </trkpt>
      <trkpt lat="43.45195" lon="2.02586">
        <ele>255</ele>
        <time>2023-05-27T13:25:23Z</time>
      </trkpt>
      <trkpt lat="43.45193" lon="2.02589">
        <ele>255</ele>
        <time>2023-05-27T13:25:24Z</time>
      </trkpt>
      <trkpt lat="43.4519" lon="2.02592">
        <ele>255.2</ele>
        <time>2023-05-27T13:25:25Z</time>
      </trkpt>
      <trkpt lat="43.45188" lon="2.02594">
        <ele>255.2</ele>
        <time>2023-05-27T13:25:26Z</time>
      </trkpt>
      <trkpt lat="43.45185" lon="2.02598">
        <ele>255.4</ele>
        <time>2023-05-27T13:25:27Z</time>
      </trkpt>
      <trkpt lat="43.45182" lon="2.02601">
        <ele>255.4</ele>
        <time>2023-05-27T13:25:28Z</time>
      </trkpt>
      <trkpt lat="43.4518" lon="2.02604">
        <ele>255.4</ele>
        <time>2023-05-27T13:25:29Z</time>
      </trkpt>
      <trkpt lat="43.45178" lon="2.02607">
        <ele>255.6</ele>
        <time>2023-05-27T13:25:30Z</time>
      </trkpt>
      <trkpt lat="43.45176" lon="2.0261">
        <ele>255.6</ele>
        <time>2023-05-27T13:25:31Z</time>
      </trkpt>
      <trkpt lat="43.45173" lon="2.02613">
        <ele>255.8</ele>
        <time>2023-05-27T13:25:32Z</time>
      </trkpt>
      <trkpt lat="43.4517" lon="2.02616">
        <ele>255.8</ele>
        <time>2023-05-27T13:25:33Z</time>
      </trkpt>
      <trkpt lat="43.45169" lon="2.02618">
        <ele>256</ele>
        <time>2023-05-27T13:25:34Z</time>
      </trkpt>
      <trkpt lat="43.45166" lon="2.02621">
        <ele>256</ele>
        <time>2023-05-27T13:25:35Z</time>
      </trkpt>
      <trkpt lat="43.45164" lon="2.02625">
        <ele>256.2</ele>
        <time>2023-05-27T13:25:36Z</time>
      </trkpt>
      <trkpt lat="43.45162" lon="2.02628">
        <ele>256.2</ele>
        <time>2023-05-27T13:25:37Z</time>
      </trkpt>
      <trkpt lat="43.4516" lon="2.02631">
        <ele>256.2</ele>
        <time>2023-05-27T13:25:38Z</time>
      </trkpt>
      <trkpt lat="43.45159" lon="2.02634">
        <ele>256.4</ele>
        <time>2023-05-27T13:25:39Z</time>
      </trkpt>
      <trkpt lat="43.45156" lon="2.02637">
        <ele>256.4</ele>
        <time>2023-05-27T13:25:40Z</time>
      </trkpt>
      <trkpt lat="43.45154" lon="2.0264">
        <ele>256.4</ele>
        <time>2023-05-27T13:25:41Z</time>
      </trkpt>
      <trkpt lat="43.45152" lon="2.02643">
        <ele>256.4</ele>
        <time>2023-05-27T13:25:42Z</time>
      </trkpt>
      <trkpt lat="43.4515" lon="2.02646">
        <ele>256.6</ele>
        <time>2023-05-27T13:25:43Z</time>
      </trkpt>
      <trkpt lat="43.45148" lon="2.02649">
        <ele>256.6</ele>
        <time>2023-05-27T13:25:44Z</time>
      </trkpt>
      <trkpt lat="43.45147" lon="2.02653">
        <ele>256.8</ele>
        <time>2023-05-27T13:25:45Z</time>
      </trkpt>
      <trkpt lat="43.45145" lon="2.02656">
        <ele>256.8</ele>
        <time>2023-05-27T13:25:46Z</time>
      </trkpt>
      <trkpt lat="43.45143" lon="2.02659">
        <ele>256.8</ele>
        <time>2023-05-27T13:25:47Z</time>
      </trkpt>
      <trkpt lat="43.45142" lon="2.02663">
        <ele>257</ele>
        <time>2023-05-27T13:25:48Z</time>
      </trkpt>
      <trkpt lat="43.45141" lon="2.02666">
        <ele>257</ele>
        <time>2023-05-27T13:25:49Z</time>
      </trkpt>
      <trkpt lat="43.4514" lon="2.02669">
        <ele>257.2</ele>
        <time>2023-05-27T13:25:50Z</time>
      </trkpt>
      <trkpt lat="43.45139" lon="2.02672">
        <ele>257.2</ele>
        <time>2023-05-27T13:25:51Z</time>
      </trkpt>
      <trkpt lat="43.45138" lon="2.02676">
        <ele>257.4</ele>
        <time>2023-05-27T13:25:52Z</time>
      </trkpt>
      <trkpt lat="43.45136" lon="2.0268">
        <ele>257.4</ele>
        <time>2023-05-27T13:25:53Z</time>
      </trkpt>
      <trkpt lat="43.45135" lon="2.02683">
        <ele>257.4</ele>
        <time>2023-05-27T13:25:54Z</time>
      </trkpt>
      <trkpt lat="43.45135" lon="2.02687">
        <ele>257.6</ele>
        <time>2023-05-27T13:25:55Z</time>
      </trkpt>
      <trkpt lat="43.45134" lon="2.0269">
        <ele>257.6</ele>
        <time>2023-05-27T13:25:56Z</time>
      </trkpt>
      <trkpt lat="43.45133" lon="2.02694">
        <ele>257.8</ele>
        <time>2023-05-27T13:25:57Z</time>
      </trkpt>
      <trkpt lat="43.45132" lon="2.02697">
        <ele>257.8</ele>
        <time>2023-05-27T13:25:58Z</time>
      </trkpt>
      <trkpt lat="43.45131" lon="2.027">
        <ele>257.8</ele>
        <time>2023-05-27T13:25:59Z</time>
      </trkpt>
      <trkpt lat="43.45129" lon="2.02703">
        <ele>257.8</ele>
        <time>2023-05-27T13:26:00Z</time>
      </trkpt>
      <trkpt lat="43.45128" lon="2.02706">
        <ele>258</ele>
        <time>2023-05-27T13:26:01Z</time>
      </trkpt>
      <trkpt lat="43.45128" lon="2.0271">
        <ele>258</ele>
        <time>2023-05-27T13:26:02Z</time>
      </trkpt>
      <trkpt lat="43.45128" lon="2.02714">
        <ele>258</ele>
        <time>2023-05-27T13:26:03Z</time>
      </trkpt>
      <trkpt lat="43.45127" lon="2.02717">
        <ele>258</ele>
        <time>2023-05-27T13:26:04Z</time>
      </trkpt>
      <trkpt lat="43.45127" lon="2.02721">
        <ele>258.2</ele>
        <time>2023-05-27T13:26:05Z</time>
      </trkpt>
      <trkpt lat="43.45126" lon="2.02724">
        <ele>258.2</ele>
        <time>2023-05-27T13:26:06Z</time>
      </trkpt>
      <trkpt lat="43.45125" lon="2.02728">
        <ele>258.2</ele>
        <time>2023-05-27T13:26:07Z</time>
      </trkpt>
      <trkpt lat="43.45124" lon="2.02732">
        <ele>258.2</ele>
        <time>2023-05-27T13:26:08Z</time>
      </trkpt>
      <trkpt lat="43.45123" lon="2.02735">
        <ele>258.2</ele>
        <time>2023-05-27T13:26:09Z</time>
      </trkpt>
      <trkpt lat="43.45122" lon="2.02739">
        <ele>258.2</ele>
        <time>2023-05-27T13:26:10Z</time>
      </trkpt>
      <trkpt lat="43.45122" lon="2.02742">
        <ele>258.4</ele>
        <time>2023-05-27T13:26:11Z</time>
      </trkpt>
      <trkpt lat="43.4512" lon="2.02745">
        <ele>258.4</ele>
        <time>2023-05-27T13:26:12Z</time>
      </trkpt>
      <trkpt lat="43.45119" lon="2.02748">
        <ele>258.4</ele>
        <time>2023-05-27T13:26:13Z</time>
      </trkpt>
      <trkpt lat="43.45118" lon="2.02752">
        <ele>258.4</ele>
        <time>2023-05-27T13:26:14Z</time>
      </trkpt>
      <trkpt lat="43.45118" lon="2.02756">
        <ele>258.4</ele>
        <time>2023-05-27T13:26:15Z</time>
      </trkpt>
      <trkpt lat="43.45117" lon="2.02759">
        <ele>258.4</ele>
        <time>2023-05-27T13:26:16Z</time>
      </trkpt>
      <trkpt lat="43.45116" lon="2.02763">
        <ele>258.6</ele>
        <time>2023-05-27T13:26:17Z</time>
      </trkpt>
      <trkpt lat="43.45115" lon="2.02766">
        <ele>258.6</ele>
        <time>2023-05-27T13:26:18Z</time>
      </trkpt>
      <trkpt lat="43.45113" lon="2.02771">
        <ele>258.6</ele>
        <time>2023-05-27T13:26:19Z</time>
      </trkpt>
      <trkpt lat="43.45112" lon="2.02775">
        <ele>258.6</ele>
        <time>2023-05-27T13:26:20Z</time>
      </trkpt>
      <trkpt lat="43.45111" lon="2.02779">
        <ele>258.6</ele>
        <time>2023-05-27T13:26:21Z</time>
      </trkpt>
      <trkpt lat="43.4511" lon="2.02783">
        <ele>258.6</ele>
        <time>2023-05-27T13:26:22Z</time>
      </trkpt>
      <trkpt lat="43.45108" lon="2.02786">
        <ele>258.8</ele>
        <time>2023-05-27T13:26:23Z</time>
      </trkpt>
      <trkpt lat="43.45107" lon="2.02789">
        <ele>258.8</ele>
        <time>2023-05-27T13:26:24Z</time>
      </trkpt>
      <trkpt lat="43.45106" lon="2.02793">
        <ele>258.8</ele>
        <time>2023-05-27T13:26:25Z</time>
      </trkpt>
      <trkpt lat="43.45105" lon="2.02797">
        <ele>258.8</ele>
        <time>2023-05-27T13:26:26Z</time>
      </trkpt>
      <trkpt lat="43.45103" lon="2.02801">
        <ele>258.8</ele>
        <time>2023-05-27T13:26:27Z</time>
      </trkpt>
      <trkpt lat="43.45102" lon="2.02806">
        <ele>259</ele>
        <time>2023-05-27T13:26:28Z</time>
      </trkpt>
      <trkpt lat="43.45101" lon="2.0281">
        <ele>259</ele>
        <time>2023-05-27T13:26:29Z</time>
      </trkpt>
      <trkpt lat="43.45099" lon="2.02814">
        <ele>259</ele>
        <time>2023-05-27T13:26:30Z</time>
      </trkpt>
      <trkpt lat="43.45098" lon="2.02819">
        <ele>259</ele>
        <time>2023-05-27T13:26:31Z</time>
      </trkpt>
      <trkpt lat="43.45097" lon="2.02823">
        <ele>259</ele>
        <time>2023-05-27T13:26:32Z</time>
      </trkpt>
      <trkpt lat="43.45095" lon="2.02828">
        <ele>259</ele>
        <time>2023-05-27T13:26:33Z</time>
      </trkpt>
      <trkpt lat="43.45095" lon="2.02833">
        <ele>259</ele>
        <time>2023-05-27T13:26:34Z</time>
      </trkpt>
      <trkpt lat="43.45093" lon="2.02837">
        <ele>259</ele>
        <time>2023-05-27T13:26:35Z</time>
      </trkpt>
      <trkpt lat="43.45092" lon="2.02842">
        <ele>259</ele>
        <time>2023-05-27T13:26:36Z</time>
      </trkpt>
      <trkpt lat="43.45091" lon="2.02847">
        <ele>259</ele>
        <time>2023-05-27T13:26:37Z</time>
      </trkpt>
      <trkpt lat="43.45089" lon="2.02851">
        <ele>259.2</ele>
        <time>2023-05-27T13:26:38Z</time>
      </trkpt>
      <trkpt lat="43.45088" lon="2.02856">
        <ele>259.2</ele>
        <time>2023-05-27T13:26:39Z</time>
      </trkpt>
      <trkpt lat="43.45086" lon="2.02861">
        <ele>259.2</ele>
        <time>2023-05-27T13:26:40Z</time>
      </trkpt>
      <trkpt lat="43.45085" lon="2.02866">
        <ele>259.2</ele>
        <time>2023-05-27T13:26:41Z</time>
      </trkpt>
      <trkpt lat="43.45084" lon="2.02871">
        <ele>259.2</ele>
        <time>2023-05-27T13:26:42Z</time>
      </trkpt>
      <trkpt lat="43.45083" lon="2.02875">
        <ele>259.2</ele>
        <time>2023-05-27T13:26:43Z</time>
      </trkpt>
      <trkpt lat="43.45082" lon="2.0288">
        <ele>259.2</ele>
        <time>2023-05-27T13:26:44Z</time>
      </trkpt>
      <trkpt lat="43.45081" lon="2.02885">
        <ele>259.2</ele>
        <time>2023-05-27T13:26:45Z</time>
      </trkpt>
      <trkpt lat="43.45079" lon="2.0289">
        <ele>259.2</ele>
        <time>2023-05-27T13:26:46Z</time>
      </trkpt>
      <trkpt lat="43.45078" lon="2.02894">
        <ele>259.2</ele>
        <time>2023-05-27T13:26:47Z</time>
      </trkpt>
      <trkpt lat="43.45077" lon="2.02899">
        <ele>259.2</ele>
        <time>2023-05-27T13:26:48Z</time>
      </trkpt>
      <trkpt lat="43.45076" lon="2.02903">
        <ele>259.2</ele>
        <time>2023-05-27T13:26:49Z</time>
      </trkpt>
      <trkpt lat="43.45074" lon="2.02908">
        <ele>259.2</ele>
        <time>2023-05-27T13:26:50Z</time>
      </trkpt>
      <trkpt lat="43.45073" lon="2.02912">
        <ele>259.2</ele>
        <time>2023-05-27T13:26:51Z</time>
      </trkpt>
      <trkpt lat="43.45072" lon="2.02917">
        <ele>259.2</ele>
        <time>2023-05-27T13:26:52Z</time>
      </trkpt>
      <trkpt lat="43.45071" lon="2.02922">
        <ele>259.2</ele>
        <time>2023-05-27T13:26:53Z</time>
      </trkpt>
      <trkpt lat="43.4507" lon="2.02927">
        <ele>259.2</ele>
        <time>2023-05-27T13:26:54Z</time>
      </trkpt>
      <trkpt lat="43.45069" lon="2.02933">
        <ele>259.4</ele>
        <time>2023-05-27T13:26:55Z</time>
      </trkpt>
      <trkpt lat="43.45068" lon="2.02937">
        <ele>259.4</ele>
        <time>2023-05-27T13:26:56Z</time>
      </trkpt>
      <trkpt lat="43.45067" lon="2.02942">
        <ele>259.4</ele>
        <time>2023-05-27T13:26:57Z</time>
      </trkpt>
      <trkpt lat="43.45066" lon="2.02947">
        <ele>259.4</ele>
        <time>2023-05-27T13:26:58Z</time>
      </trkpt>
      <trkpt lat="43.45065" lon="2.02953">
        <ele>259.4</ele>
        <time>2023-05-27T13:26:59Z</time>
      </trkpt>
      <trkpt lat="43.45064" lon="2.02958">
        <ele>259.4</ele>
        <time>2023-05-27T13:27:00Z</time>
      </trkpt>
      <trkpt lat="43.45064" lon="2.02963">
        <ele>259.4</ele>
        <time>2023-05-27T13:27:01Z</time>
      </trkpt>
      <trkpt lat="43.45063" lon="2.02968">
        <ele>259.6</ele>
        <time>2023-05-27T13:27:02Z</time>
      </trkpt>
      <trkpt lat="43.45062" lon="2.02973">
        <ele>259.6</ele>
        <time>2023-05-27T13:27:03Z</time>
      </trkpt>
      <trkpt lat="43.45062" lon="2.02978">
        <ele>259.6</ele>
        <time>2023-05-27T13:27:04Z</time>
      </trkpt>
      <trkpt lat="43.45061" lon="2.02983">
        <ele>259.8</ele>
        <time>2023-05-27T13:27:05Z</time>
      </trkpt>
      <trkpt lat="43.45061" lon="2.02988">
        <ele>259.8</ele>
        <time>2023-05-27T13:27:06Z</time>
      </trkpt>
      <trkpt lat="43.4506" lon="2.02993">
        <ele>259.8</ele>
        <time>2023-05-27T13:27:07Z</time>
      </trkpt>
      <trkpt lat="43.4506" lon="2.02998">
        <ele>259.8</ele>
        <time>2023-05-27T13:27:08Z</time>
      </trkpt>
      <trkpt lat="43.45059" lon="2.03003">
        <ele>259.8</ele>
        <time>2023-05-27T13:27:09Z</time>
      </trkpt>
      <trkpt lat="43.45059" lon="2.03008">
        <ele>260</ele>
        <time>2023-05-27T13:27:10Z</time>
      </trkpt>
      <trkpt lat="43.45058" lon="2.03013">
        <ele>260</ele>
        <time>2023-05-27T13:27:11Z</time>
      </trkpt>
      <trkpt lat="43.45057" lon="2.03018">
        <ele>260</ele>
        <time>2023-05-27T13:27:12Z</time>
      </trkpt>
      <trkpt lat="43.45057" lon="2.03023">
        <ele>260</ele>
        <time>2023-05-27T13:27:13Z</time>
      </trkpt>
      <trkpt lat="43.45056" lon="2.03027">
        <ele>260.2</ele>
        <time>2023-05-27T13:27:14Z</time>
      </trkpt>
      <trkpt lat="43.45056" lon="2.03032">
        <ele>260.2</ele>
        <time>2023-05-27T13:27:15Z</time>
      </trkpt>
      <trkpt lat="43.45055" lon="2.03037">
        <ele>260.2</ele>
        <time>2023-05-27T13:27:16Z</time>
      </trkpt>
      <trkpt lat="43.45054" lon="2.03041">
        <ele>260.2</ele>
        <time>2023-05-27T13:27:17Z</time>
      </trkpt>
      <trkpt lat="43.45054" lon="2.03046">
        <ele>260.2</ele>
        <time>2023-05-27T13:27:18Z</time>
      </trkpt>
      <trkpt lat="43.45053" lon="2.0305">
        <ele>260.2</ele>
        <time>2023-05-27T13:27:19Z</time>
      </trkpt>
      <trkpt lat="43.45053" lon="2.03055">
        <ele>260.2</ele>
        <time>2023-05-27T13:27:20Z</time>
      </trkpt>
      <trkpt lat="43.45052" lon="2.0306">
        <ele>260.2</ele>
        <time>2023-05-27T13:27:21Z</time>
      </trkpt>
      <trkpt lat="43.45052" lon="2.03065">
        <ele>260.4</ele>
        <time>2023-05-27T13:27:22Z</time>
      </trkpt>
      <trkpt lat="43.45051" lon="2.0307">
        <ele>260.4</ele>
        <time>2023-05-27T13:27:23Z</time>
      </trkpt>
      <trkpt lat="43.45051" lon="2.03074">
        <ele>260.4</ele>
        <time>2023-05-27T13:27:24Z</time>
      </trkpt>
      <trkpt lat="43.4505" lon="2.03079">
        <ele>260.6</ele>
        <time>2023-05-27T13:27:25Z</time>
      </trkpt>
      <trkpt lat="43.4505" lon="2.03083">
        <ele>260.6</ele>
        <time>2023-05-27T13:27:26Z</time>
      </trkpt>
      <trkpt lat="43.45049" lon="2.03088">
        <ele>260.6</ele>
        <time>2023-05-27T13:27:27Z</time>
      </trkpt>
      <trkpt lat="43.45049" lon="2.03092">
        <ele>260.8</ele>
        <time>2023-05-27T13:27:28Z</time>
      </trkpt>
      <trkpt lat="43.45048" lon="2.03097">
        <ele>260.8</ele>
        <time>2023-05-27T13:27:29Z</time>
      </trkpt>
      <trkpt lat="43.45047" lon="2.03101">
        <ele>260.8</ele>
        <time>2023-05-27T13:27:30Z</time>
      </trkpt>
      <trkpt lat="43.45045" lon="2.03105">
        <ele>261</ele>
        <time>2023-05-27T13:27:31Z</time>
      </trkpt>
      <trkpt lat="43.45045" lon="2.0311">
        <ele>261</ele>
        <time>2023-05-27T13:27:32Z</time>
      </trkpt>
      <trkpt lat="43.45043" lon="2.03114">
        <ele>261</ele>
        <time>2023-05-27T13:27:33Z</time>
      </trkpt>
      <trkpt lat="43.45042" lon="2.03118">
        <ele>261</ele>
        <time>2023-05-27T13:27:34Z</time>
      </trkpt>
      <trkpt lat="43.4504" lon="2.03122">
        <ele>261</ele>
        <time>2023-05-27T13:27:35Z</time>
      </trkpt>
      <trkpt lat="43.45039" lon="2.03126">
        <ele>261</ele>
        <time>2023-05-27T13:27:36Z</time>
      </trkpt>
      <trkpt lat="43.45038" lon="2.03131">
        <ele>261.2</ele>
        <time>2023-05-27T13:27:37Z</time>
      </trkpt>
      <trkpt lat="43.45036" lon="2.03134">
        <ele>261.2</ele>
        <time>2023-05-27T13:27:38Z</time>
      </trkpt>
      <trkpt lat="43.45034" lon="2.03138">
        <ele>261.2</ele>
        <time>2023-05-27T13:27:39Z</time>
      </trkpt>
      <trkpt lat="43.45033" lon="2.03142">
        <ele>261.2</ele>
        <time>2023-05-27T13:27:40Z</time>
      </trkpt>
      <trkpt lat="43.45032" lon="2.03145">
        <ele>261.4</ele>
        <time>2023-05-27T13:27:41Z</time>
      </trkpt>
      <trkpt lat="43.45031" lon="2.03149">
        <ele>261.4</ele>
        <time>2023-05-27T13:27:42Z</time>
      </trkpt>
      <trkpt lat="43.45029" lon="2.03154">
        <ele>261.4</ele>
        <time>2023-05-27T13:27:43Z</time>
      </trkpt>
      <trkpt lat="43.45028" lon="2.03158">
        <ele>261.4</ele>
        <time>2023-05-27T13:27:44Z</time>
      </trkpt>
      <trkpt lat="43.45027" lon="2.03162">
        <ele>261.4</ele>
        <time>2023-05-27T13:27:45Z</time>
      </trkpt>
      <trkpt lat="43.45026" lon="2.03166">
        <ele>261.6</ele>
        <time>2023-05-27T13:27:46Z</time>
      </trkpt>
      <trkpt lat="43.45024" lon="2.0317">
        <ele>261.6</ele>
        <time>2023-05-27T13:27:47Z</time>
      </trkpt>
      <trkpt lat="43.45023" lon="2.03173">
        <ele>261.6</ele>
        <time>2023-05-27T13:27:48Z</time>
      </trkpt>
      <trkpt lat="43.45022" lon="2.03177">
        <ele>261.8</ele>
        <time>2023-05-27T13:27:49Z</time>
      </trkpt>
      <trkpt lat="43.45021" lon="2.03181">
        <ele>261.8</ele>
        <time>2023-05-27T13:27:50Z</time>
      </trkpt>
      <trkpt lat="43.4502" lon="2.03185">
        <ele>261.8</ele>
        <time>2023-05-27T13:27:51Z</time>
      </trkpt>
      <trkpt lat="43.45018" lon="2.03189">
        <ele>262</ele>
        <time>2023-05-27T13:27:52Z</time>
      </trkpt>
      <trkpt lat="43.45017" lon="2.03193">
        <ele>262</ele>
        <time>2023-05-27T13:27:53Z</time>
      </trkpt>
      <trkpt lat="43.45016" lon="2.03197">
        <ele>262</ele>
        <time>2023-05-27T13:27:54Z</time>
      </trkpt>
      <trkpt lat="43.45015" lon="2.03201">
        <ele>262.2</ele>
        <time>2023-05-27T13:27:55Z</time>
      </trkpt>
      <trkpt lat="43.45014" lon="2.03205">
        <ele>262.2</ele>
        <time>2023-05-27T13:27:56Z</time>
      </trkpt>
      <trkpt lat="43.45013" lon="2.03209">
        <ele>262.2</ele>
        <time>2023-05-27T13:27:57Z</time>
      </trkpt>
      <trkpt lat="43.45012" lon="2.03212">
        <ele>262.4</ele>
        <time>2023-05-27T13:27:58Z</time>
      </trkpt>
      <trkpt lat="43.45011" lon="2.03216">
        <ele>262.4</ele>
        <time>2023-05-27T13:27:59Z</time>
      </trkpt>
      <trkpt lat="43.45009" lon="2.0322">
        <ele>262.4</ele>
        <time>2023-05-27T13:28:00Z</time>
      </trkpt>
      <trkpt lat="43.45008" lon="2.03223">
        <ele>262.6</ele>
        <time>2023-05-27T13:28:01Z</time>
      </trkpt>
      <trkpt lat="43.45007" lon="2.03227">
        <ele>262.6</ele>
        <time>2023-05-27T13:28:02Z</time>
      </trkpt>
      <trkpt lat="43.45006" lon="2.03231">
        <ele>262.6</ele>
        <time>2023-05-27T13:28:03Z</time>
      </trkpt>
      <trkpt lat="43.45005" lon="2.03235">
        <ele>262.8</ele>
        <time>2023-05-27T13:28:04Z</time>
      </trkpt>
      <trkpt lat="43.45004" lon="2.03239">
        <ele>262.8</ele>
        <time>2023-05-27T13:28:05Z</time>
      </trkpt>
      <trkpt lat="43.45003" lon="2.03243">
        <ele>263</ele>
        <time>2023-05-27T13:28:06Z</time>
      </trkpt>
      <trkpt lat="43.45002" lon="2.03246">
        <ele>263.2</ele>
        <time>2023-05-27T13:28:07Z</time>
      </trkpt>
      <trkpt lat="43.45001" lon="2.0325">
        <ele>263.2</ele>
        <time>2023-05-27T13:28:08Z</time>
      </trkpt>
      <trkpt lat="43.45" lon="2.03253">
        <ele>263.4</ele>
        <time>2023-05-27T13:28:09Z</time>
      </trkpt>
      <trkpt lat="43.44998" lon="2.03256">
        <ele>263.4</ele>
        <time>2023-05-27T13:28:10Z</time>
      </trkpt>
      <trkpt lat="43.44996" lon="2.0326">
        <ele>263.6</ele>
        <time>2023-05-27T13:28:11Z</time>
      </trkpt>
      <trkpt lat="43.44995" lon="2.03263">
        <ele>263.8</ele>
        <time>2023-05-27T13:28:12Z</time>
      </trkpt>
      <trkpt lat="43.44994" lon="2.03266">
        <ele>263.8</ele>
        <time>2023-05-27T13:28:13Z</time>
      </trkpt>
      <trkpt lat="43.44993" lon="2.03269">
        <ele>263.8</ele>
        <time>2023-05-27T13:28:14Z</time>
      </trkpt>
      <trkpt lat="43.44992" lon="2.03272">
        <ele>264</ele>
        <time>2023-05-27T13:28:15Z</time>
      </trkpt>
      <trkpt lat="43.44991" lon="2.03275">
        <ele>264.2</ele>
        <time>2023-05-27T13:28:16Z</time>
      </trkpt>
      <trkpt lat="43.4499" lon="2.03278">
        <ele>264.2</ele>
        <time>2023-05-27T13:28:17Z</time>
      </trkpt>
      <trkpt lat="43.44989" lon="2.03281">
        <ele>264.4</ele>
        <time>2023-05-27T13:28:18Z</time>
      </trkpt>
      <trkpt lat="43.44988" lon="2.03284">
        <ele>264.4</ele>
        <time>2023-05-27T13:28:19Z</time>
      </trkpt>
      <trkpt lat="43.44987" lon="2.03287">
        <ele>264.6</ele>
        <time>2023-05-27T13:28:20Z</time>
      </trkpt>
      <trkpt lat="43.44986" lon="2.0329">
        <ele>264.6</ele>
        <time>2023-05-27T13:28:21Z</time>
      </trkpt>
      <trkpt lat="43.44985" lon="2.03293">
        <ele>264.8</ele>
        <time>2023-05-27T13:28:22Z</time>
      </trkpt>
      <trkpt lat="43.44985" lon="2.03297">
        <ele>264.8</ele>
        <time>2023-05-27T13:28:23Z</time>
      </trkpt>
      <trkpt lat="43.44984" lon="2.033">
        <ele>264.8</ele>
        <time>2023-05-27T13:28:24Z</time>
      </trkpt>
      <trkpt lat="43.44983" lon="2.03304">
        <ele>265</ele>
        <time>2023-05-27T13:28:25Z</time>
      </trkpt>
      <trkpt lat="43.44982" lon="2.03307">
        <ele>265</ele>
        <time>2023-05-27T13:28:26Z</time>
      </trkpt>
      <trkpt lat="43.44982" lon="2.03311">
        <ele>265</ele>
        <time>2023-05-27T13:28:27Z</time>
      </trkpt>
      <trkpt lat="43.44981" lon="2.03314">
        <ele>265.2</ele>
        <time>2023-05-27T13:28:28Z</time>
      </trkpt>
      <trkpt lat="43.4498" lon="2.03317">
        <ele>265.2</ele>
        <time>2023-05-27T13:28:29Z</time>
      </trkpt>
      <trkpt lat="43.44979" lon="2.03321">
        <ele>265.2</ele>
        <time>2023-05-27T13:28:30Z</time>
      </trkpt>
      <trkpt lat="43.44978" lon="2.03324">
        <ele>265.4</ele>
        <time>2023-05-27T13:28:31Z</time>
      </trkpt>
      <trkpt lat="43.44977" lon="2.03328">
        <ele>265.4</ele>
        <time>2023-05-27T13:28:32Z</time>
      </trkpt>
      <trkpt lat="43.44977" lon="2.03331">
        <ele>265.4</ele>
        <time>2023-05-27T13:28:33Z</time>
      </trkpt>
      <trkpt lat="43.44976" lon="2.03335">
        <ele>265.4</ele>
        <time>2023-05-27T13:28:34Z</time>
      </trkpt>
      <trkpt lat="43.44975" lon="2.03338">
        <ele>265.4</ele>
        <time>2023-05-27T13:28:35Z</time>
      </trkpt>
      <trkpt lat="43.44975" lon="2.03342">
        <ele>265.6</ele>
        <time>2023-05-27T13:28:36Z</time>
      </trkpt>
      <trkpt lat="43.44974" lon="2.03345">
        <ele>265.6</ele>
        <time>2023-05-27T13:28:37Z</time>
      </trkpt>
      <trkpt lat="43.44973" lon="2.03349">
        <ele>265.6</ele>
        <time>2023-05-27T13:28:38Z</time>
      </trkpt>
      <trkpt lat="43.44972" lon="2.03353">
        <ele>265.6</ele>
        <time>2023-05-27T13:28:39Z</time>
      </trkpt>
      <trkpt lat="43.44971" lon="2.03356">
        <ele>265.6</ele>
        <time>2023-05-27T13:28:40Z</time>
      </trkpt>
      <trkpt lat="43.44971" lon="2.0336">
        <ele>265.6</ele>
        <time>2023-05-27T13:28:41Z</time>
      </trkpt>
      <trkpt lat="43.4497" lon="2.03364">
        <ele>265.6</ele>
        <time>2023-05-27T13:28:42Z</time>
      </trkpt>
      <trkpt lat="43.44969" lon="2.03369">
        <ele>265.6</ele>
        <time>2023-05-27T13:28:43Z</time>
      </trkpt>
      <trkpt lat="43.44968" lon="2.03373">
        <ele>265.6</ele>
        <time>2023-05-27T13:28:44Z</time>
      </trkpt>
      <trkpt lat="43.44966" lon="2.03378">
        <ele>265.6</ele>
        <time>2023-05-27T13:28:45Z</time>
      </trkpt>
      <trkpt lat="43.44965" lon="2.03382">
        <ele>265.4</ele>
        <time>2023-05-27T13:28:46Z</time>
      </trkpt>
      <trkpt lat="43.44964" lon="2.03387">
        <ele>265.4</ele>
        <time>2023-05-27T13:28:47Z</time>
      </trkpt>
      <trkpt lat="43.44964" lon="2.03392">
        <ele>265.4</ele>
        <time>2023-05-27T13:28:48Z</time>
      </trkpt>
      <trkpt lat="43.44963" lon="2.03397">
        <ele>265.4</ele>
        <time>2023-05-27T13:28:49Z</time>
      </trkpt>
      <trkpt lat="43.44962" lon="2.03403">
        <ele>265.4</ele>
        <time>2023-05-27T13:28:50Z</time>
      </trkpt>
      <trkpt lat="43.4496" lon="2.03408">
        <ele>265.4</ele>
        <time>2023-05-27T13:28:51Z</time>
      </trkpt>
      <trkpt lat="43.44959" lon="2.03412">
        <ele>265.2</ele>
        <time>2023-05-27T13:28:52Z</time>
      </trkpt>
      <trkpt lat="43.44957" lon="2.03417">
        <ele>265.2</ele>
        <time>2023-05-27T13:28:53Z</time>
      </trkpt>
      <trkpt lat="43.44956" lon="2.03421">
        <ele>265.2</ele>
        <time>2023-05-27T13:28:54Z</time>
      </trkpt>
      <trkpt lat="43.44954" lon="2.03426">
        <ele>265.2</ele>
        <time>2023-05-27T13:28:55Z</time>
      </trkpt>
      <trkpt lat="43.44953" lon="2.03431">
        <ele>265.2</ele>
        <time>2023-05-27T13:28:56Z</time>
      </trkpt>
      <trkpt lat="43.44951" lon="2.03435">
        <ele>265.2</ele>
        <time>2023-05-27T13:28:57Z</time>
      </trkpt>
      <trkpt lat="43.4495" lon="2.03439">
        <ele>265</ele>
        <time>2023-05-27T13:28:58Z</time>
      </trkpt>
      <trkpt lat="43.44948" lon="2.03443">
        <ele>265</ele>
        <time>2023-05-27T13:28:59Z</time>
      </trkpt>
      <trkpt lat="43.44946" lon="2.03448">
        <ele>264.8</ele>
        <time>2023-05-27T13:29:00Z</time>
      </trkpt>
      <trkpt lat="43.44945" lon="2.03454">
        <ele>264.6</ele>
        <time>2023-05-27T13:29:01Z</time>
      </trkpt>
      <trkpt lat="43.44945" lon="2.0346">
        <ele>264.6</ele>
        <time>2023-05-27T13:29:02Z</time>
      </trkpt>
      <trkpt lat="43.44945" lon="2.03467">
        <ele>264.4</ele>
        <time>2023-05-27T13:29:03Z</time>
      </trkpt>
      <trkpt lat="43.44946" lon="2.03474">
        <ele>264.2</ele>
        <time>2023-05-27T13:29:04Z</time>
      </trkpt>
      <trkpt lat="43.44947" lon="2.0348">
        <ele>264.2</ele>
        <time>2023-05-27T13:29:05Z</time>
      </trkpt>
      <trkpt lat="43.44948" lon="2.03487">
        <ele>264</ele>
        <time>2023-05-27T13:29:06Z</time>
      </trkpt>
      <trkpt lat="43.44949" lon="2.03492">
        <ele>263.8</ele>
        <time>2023-05-27T13:29:07Z</time>
      </trkpt>
      <trkpt lat="43.44949" lon="2.03499">
        <ele>263.8</ele>
        <time>2023-05-27T13:29:08Z</time>
      </trkpt>
      <trkpt lat="43.4495" lon="2.03506">
        <ele>263.6</ele>
        <time>2023-05-27T13:29:09Z</time>
      </trkpt>
      <trkpt lat="43.44952" lon="2.03512">
        <ele>263.4</ele>
        <time>2023-05-27T13:29:10Z</time>
      </trkpt>
      <trkpt lat="43.44954" lon="2.03518">
        <ele>263.4</ele>
        <time>2023-05-27T13:29:11Z</time>
      </trkpt>
      <trkpt lat="43.44955" lon="2.03525">
        <ele>263.2</ele>
        <time>2023-05-27T13:29:12Z</time>
      </trkpt>
      <trkpt lat="43.44957" lon="2.03531">
        <ele>263</ele>
        <time>2023-05-27T13:29:13Z</time>
      </trkpt>
      <trkpt lat="43.44959" lon="2.03538">
        <ele>263</ele>
        <time>2023-05-27T13:29:14Z</time>
      </trkpt>
      <trkpt lat="43.44961" lon="2.03544">
        <ele>263</ele>
        <time>2023-05-27T13:29:15Z</time>
      </trkpt>
      <trkpt lat="43.44962" lon="2.0355">
        <ele>262.8</ele>
        <time>2023-05-27T13:29:16Z</time>
      </trkpt>
      <trkpt lat="43.44963" lon="2.03556">
        <ele>262.8</ele>
        <time>2023-05-27T13:29:17Z</time>
      </trkpt>
      <trkpt lat="43.44964" lon="2.03562">
        <ele>262.8</ele>
        <time>2023-05-27T13:29:18Z</time>
      </trkpt>
      <trkpt lat="43.44965" lon="2.03567">
        <ele>262.8</ele>
        <time>2023-05-27T13:29:19Z</time>
      </trkpt>
      <trkpt lat="43.44966" lon="2.03573">
        <ele>262.8</ele>
        <time>2023-05-27T13:29:20Z</time>
      </trkpt>
      <trkpt lat="43.44966" lon="2.03578">
        <ele>262.8</ele>
        <time>2023-05-27T13:29:21Z</time>
      </trkpt>
      <trkpt lat="43.44967" lon="2.03582">
        <ele>262.8</ele>
        <time>2023-05-27T13:29:22Z</time>
      </trkpt>
      <trkpt lat="43.44968" lon="2.03587">
        <ele>262.8</ele>
        <time>2023-05-27T13:29:23Z</time>
      </trkpt>
      <trkpt lat="43.44969" lon="2.03591">
        <ele>262.8</ele>
        <time>2023-05-27T13:29:24Z</time>
      </trkpt>
      <trkpt lat="43.44969" lon="2.03596">
        <ele>262.8</ele>
        <time>2023-05-27T13:29:25Z</time>
      </trkpt>
      <trkpt lat="43.4497" lon="2.03601">
        <ele>262.8</ele>
        <time>2023-05-27T13:29:26Z</time>
      </trkpt>
      <trkpt lat="43.4497" lon="2.03605">
        <ele>262.8</ele>
        <time>2023-05-27T13:29:27Z</time>
      </trkpt>
      <trkpt lat="43.44971" lon="2.0361">
        <ele>262.8</ele>
        <time>2023-05-27T13:29:28Z</time>
      </trkpt>
      <trkpt lat="43.44971" lon="2.03614">
        <ele>262.8</ele>
        <time>2023-05-27T13:29:29Z</time>
      </trkpt>
      <trkpt lat="43.44972" lon="2.03619">
        <ele>262.8</ele>
        <time>2023-05-27T13:29:30Z</time>
      </trkpt>
      <trkpt lat="43.44972" lon="2.03624">
        <ele>262.8</ele>
        <time>2023-05-27T13:29:31Z</time>
      </trkpt>
      <trkpt lat="43.44972" lon="2.03629">
        <ele>262.8</ele>
        <time>2023-05-27T13:29:32Z</time>
      </trkpt>
      <trkpt lat="43.44973" lon="2.03635">
        <ele>262.8</ele>
        <time>2023-05-27T13:29:33Z</time>
      </trkpt>
      <trkpt lat="43.44973" lon="2.0364">
        <ele>262.8</ele>
        <time>2023-05-27T13:29:34Z</time>
      </trkpt>
      <trkpt lat="43.44974" lon="2.03645">
        <ele>262.8</ele>
        <time>2023-05-27T13:29:35Z</time>
      </trkpt>
      <trkpt lat="43.44974" lon="2.0365">
        <ele>262.8</ele>
        <time>2023-05-27T13:29:36Z</time>
      </trkpt>
      <trkpt lat="43.44975" lon="2.03656">
        <ele>262.8</ele>
        <time>2023-05-27T13:29:37Z</time>
      </trkpt>
      <trkpt lat="43.44976" lon="2.03662">
        <ele>262.8</ele>
        <time>2023-05-27T13:29:38Z</time>
      </trkpt>
      <trkpt lat="43.44976" lon="2.03668">
        <ele>262.8</ele>
        <time>2023-05-27T13:29:39Z</time>
      </trkpt>
      <trkpt lat="43.44976" lon="2.03674">
        <ele>262.8</ele>
        <time>2023-05-27T13:29:40Z</time>
      </trkpt>
      <trkpt lat="43.44977" lon="2.03679">
        <ele>262.8</ele>
        <time>2023-05-27T13:29:41Z</time>
      </trkpt>
      <trkpt lat="43.44978" lon="2.03685">
        <ele>262.6</ele>
        <time>2023-05-27T13:29:42Z</time>
      </trkpt>
      <trkpt lat="43.44978" lon="2.03692">
        <ele>262.6</ele>
        <time>2023-05-27T13:29:43Z</time>
      </trkpt>
      <trkpt lat="43.44979" lon="2.03698">
        <ele>262.6</ele>
        <time>2023-05-27T13:29:44Z</time>
      </trkpt>
      <trkpt lat="43.4498" lon="2.03704">
        <ele>262.6</ele>
        <time>2023-05-27T13:29:45Z</time>
      </trkpt>
      <trkpt lat="43.4498" lon="2.03711">
        <ele>262.8</ele>
        <time>2023-05-27T13:29:46Z</time>
      </trkpt>
      <trkpt lat="43.44981" lon="2.03717">
        <ele>262.6</ele>
        <time>2023-05-27T13:29:47Z</time>
      </trkpt>
      <trkpt lat="43.44982" lon="2.03723">
        <ele>262.6</ele>
        <time>2023-05-27T13:29:48Z</time>
      </trkpt>
      <trkpt lat="43.44982" lon="2.03729">
        <ele>262.6</ele>
        <time>2023-05-27T13:29:49Z</time>
      </trkpt>
      <trkpt lat="43.44982" lon="2.03735">
        <ele>262.6</ele>
        <time>2023-05-27T13:29:50Z</time>
      </trkpt>
      <trkpt lat="43.44983" lon="2.03741">
        <ele>262.6</ele>
        <time>2023-05-27T13:29:51Z</time>
      </trkpt>
      <trkpt lat="43.44983" lon="2.03747">
        <ele>262.6</ele>
        <time>2023-05-27T13:29:52Z</time>
      </trkpt>
      <trkpt lat="43.44984" lon="2.03753">
        <ele>262.6</ele>
        <time>2023-05-27T13:29:53Z</time>
      </trkpt>
      <trkpt lat="43.44985" lon="2.0376">
        <ele>262.6</ele>
        <time>2023-05-27T13:29:54Z</time>
      </trkpt>
      <trkpt lat="43.44985" lon="2.03765">
        <ele>262.8</ele>
        <time>2023-05-27T13:29:55Z</time>
      </trkpt>
      <trkpt lat="43.44985" lon="2.03771">
        <ele>262.8</ele>
        <time>2023-05-27T13:29:56Z</time>
      </trkpt>
      <trkpt lat="43.44986" lon="2.03778">
        <ele>262.8</ele>
        <time>2023-05-27T13:29:57Z</time>
      </trkpt>
      <trkpt lat="43.44986" lon="2.03784">
        <ele>262.8</ele>
        <time>2023-05-27T13:29:58Z</time>
      </trkpt>
      <trkpt lat="43.44987" lon="2.0379">
        <ele>262.8</ele>
        <time>2023-05-27T13:29:59Z</time>
      </trkpt>
      <trkpt lat="43.44988" lon="2.03795">
        <ele>262.8</ele>
        <time>2023-05-27T13:30:00Z</time>
      </trkpt>
      <trkpt lat="43.44989" lon="2.03801">
        <ele>262.6</ele>
        <time>2023-05-27T13:30:01Z</time>
      </trkpt>
      <trkpt lat="43.44989" lon="2.03807">
        <ele>262.6</ele>
        <time>2023-05-27T13:30:02Z</time>
      </trkpt>
      <trkpt lat="43.4499" lon="2.03813">
        <ele>262.6</ele>
        <time>2023-05-27T13:30:03Z</time>
      </trkpt>
      <trkpt lat="43.44991" lon="2.03819">
        <ele>262.6</ele>
        <time>2023-05-27T13:30:04Z</time>
      </trkpt>
      <trkpt lat="43.44991" lon="2.03825">
        <ele>262.6</ele>
        <time>2023-05-27T13:30:05Z</time>
      </trkpt>
      <trkpt lat="43.44992" lon="2.03831">
        <ele>262.4</ele>
        <time>2023-05-27T13:30:06Z</time>
      </trkpt>
      <trkpt lat="43.44993" lon="2.03838">
        <ele>262.4</ele>
        <time>2023-05-27T13:30:07Z</time>
      </trkpt>
      <trkpt lat="43.44993" lon="2.03844">
        <ele>262.4</ele>
        <time>2023-05-27T13:30:08Z</time>
      </trkpt>
      <trkpt lat="43.44994" lon="2.0385">
        <ele>262.2</ele>
        <time>2023-05-27T13:30:09Z</time>
      </trkpt>
      <trkpt lat="43.44995" lon="2.03857">
        <ele>262.2</ele>
        <time>2023-05-27T13:30:10Z</time>
      </trkpt>
      <trkpt lat="43.44995" lon="2.03863">
        <ele>262.2</ele>
        <time>2023-05-27T13:30:11Z</time>
      </trkpt>
      <trkpt lat="43.44996" lon="2.03869">
        <ele>262.2</ele>
        <time>2023-05-27T13:30:12Z</time>
      </trkpt>
      <trkpt lat="43.44996" lon="2.03876">
        <ele>262.2</ele>
        <time>2023-05-27T13:30:13Z</time>
      </trkpt>
      <trkpt lat="43.44997" lon="2.03882">
        <ele>262.2</ele>
        <time>2023-05-27T13:30:14Z</time>
      </trkpt>
      <trkpt lat="43.44998" lon="2.03889">
        <ele>262.2</ele>
        <time>2023-05-27T13:30:15Z</time>
      </trkpt>
      <trkpt lat="43.44999" lon="2.03895">
        <ele>262.2</ele>
        <time>2023-05-27T13:30:16Z</time>
      </trkpt>
      <trkpt lat="43.44999" lon="2.03901">
        <ele>262.2</ele>
        <time>2023-05-27T13:30:17Z</time>
      </trkpt>
      <trkpt lat="43.45" lon="2.03908">
        <ele>262</ele>
        <time>2023-05-27T13:30:18Z</time>
      </trkpt>
      <trkpt lat="43.45001" lon="2.03914">
        <ele>262</ele>
        <time>2023-05-27T13:30:19Z</time>
      </trkpt>
      <trkpt lat="43.45002" lon="2.03919">
        <ele>262</ele>
        <time>2023-05-27T13:30:20Z</time>
      </trkpt>
      <trkpt lat="43.45002" lon="2.03925">
        <ele>262</ele>
        <time>2023-05-27T13:30:21Z</time>
      </trkpt>
      <trkpt lat="43.45003" lon="2.0393">
        <ele>262</ele>
        <time>2023-05-27T13:30:22Z</time>
      </trkpt>
      <trkpt lat="43.45004" lon="2.03937">
        <ele>262</ele>
        <time>2023-05-27T13:30:23Z</time>
      </trkpt>
      <trkpt lat="43.45004" lon="2.03943">
        <ele>262</ele>
        <time>2023-05-27T13:30:24Z</time>
      </trkpt>
      <trkpt lat="43.45005" lon="2.03948">
        <ele>262</ele>
        <time>2023-05-27T13:30:25Z</time>
      </trkpt>
      <trkpt lat="43.45005" lon="2.03954">
        <ele>262.2</ele>
        <time>2023-05-27T13:30:26Z</time>
      </trkpt>
      <trkpt lat="43.45006" lon="2.0396">
        <ele>262.2</ele>
        <time>2023-05-27T13:30:27Z</time>
      </trkpt>
      <trkpt lat="43.45006" lon="2.03965">
        <ele>262.2</ele>
        <time>2023-05-27T13:30:28Z</time>
      </trkpt>
      <trkpt lat="43.45007" lon="2.03971">
        <ele>262.2</ele>
        <time>2023-05-27T13:30:29Z</time>
      </trkpt>
      <trkpt lat="43.45008" lon="2.03977">
        <ele>262.2</ele>
        <time>2023-05-27T13:30:30Z</time>
      </trkpt>
      <trkpt lat="43.45009" lon="2.03982">
        <ele>262.2</ele>
        <time>2023-05-27T13:30:31Z</time>
      </trkpt>
      <trkpt lat="43.45009" lon="2.03988">
        <ele>262.4</ele>
        <time>2023-05-27T13:30:32Z</time>
      </trkpt>
      <trkpt lat="43.4501" lon="2.03993">
        <ele>262.4</ele>
        <time>2023-05-27T13:30:33Z</time>
      </trkpt>
      <trkpt lat="43.4501" lon="2.03999">
        <ele>262.4</ele>
        <time>2023-05-27T13:30:34Z</time>
      </trkpt>
      <trkpt lat="43.45011" lon="2.04004">
        <ele>262.4</ele>
        <time>2023-05-27T13:30:35Z</time>
      </trkpt>
      <trkpt lat="43.45011" lon="2.0401">
        <ele>262.4</ele>
        <time>2023-05-27T13:30:36Z</time>
      </trkpt>
      <trkpt lat="43.45012" lon="2.04015">
        <ele>262.6</ele>
        <time>2023-05-27T13:30:37Z</time>
      </trkpt>
      <trkpt lat="43.45013" lon="2.04021">
        <ele>262.6</ele>
        <time>2023-05-27T13:30:38Z</time>
      </trkpt>
      <trkpt lat="43.45013" lon="2.04026">
        <ele>262.6</ele>
        <time>2023-05-27T13:30:39Z</time>
      </trkpt>
      <trkpt lat="43.45014" lon="2.04032">
        <ele>262.6</ele>
        <time>2023-05-27T13:30:40Z</time>
      </trkpt>
      <trkpt lat="43.45014" lon="2.04037">
        <ele>262.6</ele>
        <time>2023-05-27T13:30:41Z</time>
      </trkpt>
      <trkpt lat="43.45014" lon="2.04043">
        <ele>262.8</ele>
        <time>2023-05-27T13:30:42Z</time>
      </trkpt>
      <trkpt lat="43.45015" lon="2.04047">
        <ele>262.8</ele>
        <time>2023-05-27T13:30:43Z</time>
      </trkpt>
      <trkpt lat="43.45016" lon="2.04053">
        <ele>262.8</ele>
        <time>2023-05-27T13:30:44Z</time>
      </trkpt>
      <trkpt lat="43.45016" lon="2.04059">
        <ele>262.8</ele>
        <time>2023-05-27T13:30:45Z</time>
      </trkpt>
      <trkpt lat="43.45017" lon="2.04064">
        <ele>262.8</ele>
        <time>2023-05-27T13:30:46Z</time>
      </trkpt>
      <trkpt lat="43.45018" lon="2.04069">
        <ele>262.8</ele>
        <time>2023-05-27T13:30:47Z</time>
      </trkpt>
      <trkpt lat="43.45018" lon="2.04075">
        <ele>263</ele>
        <time>2023-05-27T13:30:48Z</time>
      </trkpt>
      <trkpt lat="43.45019" lon="2.0408">
        <ele>263</ele>
        <time>2023-05-27T13:30:49Z</time>
      </trkpt>
      <trkpt lat="43.45019" lon="2.04085">
        <ele>263</ele>
        <time>2023-05-27T13:30:50Z</time>
      </trkpt>
      <trkpt lat="43.4502" lon="2.04091">
        <ele>263</ele>
        <time>2023-05-27T13:30:51Z</time>
      </trkpt>
      <trkpt lat="43.4502" lon="2.04095">
        <ele>263</ele>
        <time>2023-05-27T13:30:52Z</time>
      </trkpt>
      <trkpt lat="43.45021" lon="2.041">
        <ele>263</ele>
        <time>2023-05-27T13:30:53Z</time>
      </trkpt>
      <trkpt lat="43.45022" lon="2.04105">
        <ele>263.2</ele>
        <time>2023-05-27T13:30:54Z</time>
      </trkpt>
      <trkpt lat="43.45023" lon="2.04111">
        <ele>263.2</ele>
        <time>2023-05-27T13:30:55Z</time>
      </trkpt>
      <trkpt lat="43.45023" lon="2.04117">
        <ele>263.2</ele>
        <time>2023-05-27T13:30:56Z</time>
      </trkpt>
      <trkpt lat="43.45024" lon="2.04122">
        <ele>263.2</ele>
        <time>2023-05-27T13:30:57Z</time>
      </trkpt>
      <trkpt lat="43.45024" lon="2.04128">
        <ele>263.2</ele>
        <time>2023-05-27T13:30:58Z</time>
      </trkpt>
      <trkpt lat="43.45025" lon="2.04133">
        <ele>263.2</ele>
        <time>2023-05-27T13:30:59Z</time>
      </trkpt>
      <trkpt lat="43.45025" lon="2.04138">
        <ele>263.4</ele>
        <time>2023-05-27T13:31:00Z</time>
      </trkpt>
      <trkpt lat="43.45026" lon="2.04143">
        <ele>263.4</ele>
        <time>2023-05-27T13:31:01Z</time>
      </trkpt>
      <trkpt lat="43.45026" lon="2.04148">
        <ele>263.4</ele>
        <time>2023-05-27T13:31:02Z</time>
      </trkpt>
      <trkpt lat="43.45027" lon="2.04154">
        <ele>263.4</ele>
        <time>2023-05-27T13:31:03Z</time>
      </trkpt>
      <trkpt lat="43.45028" lon="2.04159">
        <ele>263.4</ele>
        <time>2023-05-27T13:31:04Z</time>
      </trkpt>
      <trkpt lat="43.45028" lon="2.04164">
        <ele>263.4</ele>
        <time>2023-05-27T13:31:05Z</time>
      </trkpt>
      <trkpt lat="43.45029" lon="2.0417">
        <ele>263.4</ele>
        <time>2023-05-27T13:31:06Z</time>
      </trkpt>
      <trkpt lat="43.4503" lon="2.04175">
        <ele>263.6</ele>
        <time>2023-05-27T13:31:07Z</time>
      </trkpt>
      <trkpt lat="43.4503" lon="2.0418">
        <ele>263.6</ele>
        <time>2023-05-27T13:31:08Z</time>
      </trkpt>
      <trkpt lat="43.4503" lon="2.04185">
        <ele>263.6</ele>
        <time>2023-05-27T13:31:09Z</time>
      </trkpt>
      <trkpt lat="43.45031" lon="2.0419">
        <ele>263.6</ele>
        <time>2023-05-27T13:31:10Z</time>
      </trkpt>
      <trkpt lat="43.45032" lon="2.04196">
        <ele>263.6</ele>
        <time>2023-05-27T13:31:11Z</time>
      </trkpt>
      <trkpt lat="43.45032" lon="2.04201">
        <ele>263.6</ele>
        <time>2023-05-27T13:31:12Z</time>
      </trkpt>
      <trkpt lat="43.45033" lon="2.04206">
        <ele>263.8</ele>
        <time>2023-05-27T13:31:13Z</time>
      </trkpt>
      <trkpt lat="43.45033" lon="2.04211">
        <ele>263.8</ele>
        <time>2023-05-27T13:31:14Z</time>
      </trkpt>
      <trkpt lat="43.45034" lon="2.04216">
        <ele>263.8</ele>
        <time>2023-05-27T13:31:15Z</time>
      </trkpt>
      <trkpt lat="43.45035" lon="2.04222">
        <ele>263.8</ele>
        <time>2023-05-27T13:31:16Z</time>
      </trkpt>
      <trkpt lat="43.45035" lon="2.04227">
        <ele>263.8</ele>
        <time>2023-05-27T13:31:17Z</time>
      </trkpt>
      <trkpt lat="43.45036" lon="2.04232">
        <ele>263.8</ele>
        <time>2023-05-27T13:31:18Z</time>
      </trkpt>
      <trkpt lat="43.45036" lon="2.04238">
        <ele>263.8</ele>
        <time>2023-05-27T13:31:19Z</time>
      </trkpt>
      <trkpt lat="43.45037" lon="2.04243">
        <ele>263.8</ele>
        <time>2023-05-27T13:31:20Z</time>
      </trkpt>
      <trkpt lat="43.45038" lon="2.04248">
        <ele>263.8</ele>
        <time>2023-05-27T13:31:21Z</time>
      </trkpt>
      <trkpt lat="43.45038" lon="2.04253">
        <ele>264</ele>
        <time>2023-05-27T13:31:22Z</time>
      </trkpt>
      <trkpt lat="43.45039" lon="2.04258">
        <ele>264</ele>
        <time>2023-05-27T13:31:23Z</time>
      </trkpt>
      <trkpt lat="43.45039" lon="2.04264">
        <ele>264</ele>
        <time>2023-05-27T13:31:24Z</time>
      </trkpt>
      <trkpt lat="43.4504" lon="2.04269">
        <ele>264</ele>
        <time>2023-05-27T13:31:25Z</time>
      </trkpt>
      <trkpt lat="43.4504" lon="2.04274">
        <ele>264</ele>
        <time>2023-05-27T13:31:26Z</time>
      </trkpt>
      <trkpt lat="43.45041" lon="2.04279">
        <ele>264</ele>
        <time>2023-05-27T13:31:27Z</time>
      </trkpt>
      <trkpt lat="43.45041" lon="2.04285">
        <ele>264</ele>
        <time>2023-05-27T13:31:28Z</time>
      </trkpt>
      <trkpt lat="43.45042" lon="2.0429">
        <ele>264.2</ele>
        <time>2023-05-27T13:31:29Z</time>
      </trkpt>
      <trkpt lat="43.45043" lon="2.04296">
        <ele>264.2</ele>
        <time>2023-05-27T13:31:30Z</time>
      </trkpt>
      <trkpt lat="43.45044" lon="2.04301">
        <ele>264.2</ele>
        <time>2023-05-27T13:31:31Z</time>
      </trkpt>
      <trkpt lat="43.45044" lon="2.04306">
        <ele>264.2</ele>
        <time>2023-05-27T13:31:32Z</time>
      </trkpt>
      <trkpt lat="43.45045" lon="2.04311">
        <ele>264.4</ele>
        <time>2023-05-27T13:31:33Z</time>
      </trkpt>
      <trkpt lat="43.45045" lon="2.04316">
        <ele>264.4</ele>
        <time>2023-05-27T13:31:34Z</time>
      </trkpt>
      <trkpt lat="43.45046" lon="2.04321">
        <ele>264.4</ele>
        <time>2023-05-27T13:31:35Z</time>
      </trkpt>
      <trkpt lat="43.45046" lon="2.04326">
        <ele>264.4</ele>
        <time>2023-05-27T13:31:36Z</time>
      </trkpt>
      <trkpt lat="43.45047" lon="2.04331">
        <ele>264.6</ele>
        <time>2023-05-27T13:31:37Z</time>
      </trkpt>
      <trkpt lat="43.45048" lon="2.04337">
        <ele>264.6</ele>
        <time>2023-05-27T13:31:38Z</time>
      </trkpt>
      <trkpt lat="43.45048" lon="2.04342">
        <ele>264.6</ele>
        <time>2023-05-27T13:31:39Z</time>
      </trkpt>
      <trkpt lat="43.45049" lon="2.04347">
        <ele>264.6</ele>
        <time>2023-05-27T13:31:40Z</time>
      </trkpt>
      <trkpt lat="43.45049" lon="2.04352">
        <ele>264.6</ele>
        <time>2023-05-27T13:31:41Z</time>
      </trkpt>
      <trkpt lat="43.4505" lon="2.04358">
        <ele>264.6</ele>
        <time>2023-05-27T13:31:42Z</time>
      </trkpt>
      <trkpt lat="43.4505" lon="2.04363">
        <ele>264.6</ele>
        <time>2023-05-27T13:31:43Z</time>
      </trkpt>
      <trkpt lat="43.4505" lon="2.04368">
        <ele>264.6</ele>
        <time>2023-05-27T13:31:44Z</time>
      </trkpt>
      <trkpt lat="43.45051" lon="2.04372">
        <ele>264.8</ele>
        <time>2023-05-27T13:31:45Z</time>
      </trkpt>
      <trkpt lat="43.45051" lon="2.04377">
        <ele>264.8</ele>
        <time>2023-05-27T13:31:46Z</time>
      </trkpt>
      <trkpt lat="43.45052" lon="2.04382">
        <ele>264.8</ele>
        <time>2023-05-27T13:31:47Z</time>
      </trkpt>
      <trkpt lat="43.45053" lon="2.04387">
        <ele>264.8</ele>
        <time>2023-05-27T13:31:48Z</time>
      </trkpt>
      <trkpt lat="43.45053" lon="2.04392">
        <ele>264.8</ele>
        <time>2023-05-27T13:31:49Z</time>
      </trkpt>
      <trkpt lat="43.45054" lon="2.04397">
        <ele>264.8</ele>
        <time>2023-05-27T13:31:50Z</time>
      </trkpt>
      <trkpt lat="43.45055" lon="2.04401">
        <ele>264.8</ele>
        <time>2023-05-27T13:31:51Z</time>
      </trkpt>
      <trkpt lat="43.45056" lon="2.04406">
        <ele>264.8</ele>
        <time>2023-05-27T13:31:52Z</time>
      </trkpt>
      <trkpt lat="43.45056" lon="2.0441">
        <ele>265</ele>
        <time>2023-05-27T13:31:53Z</time>
      </trkpt>
      <trkpt lat="43.45057" lon="2.04415">
        <ele>265</ele>
        <time>2023-05-27T13:31:54Z</time>
      </trkpt>
      <trkpt lat="43.45058" lon="2.04421">
        <ele>265</ele>
        <time>2023-05-27T13:31:55Z</time>
      </trkpt>
      <trkpt lat="43.45058" lon="2.04426">
        <ele>265</ele>
        <time>2023-05-27T13:31:56Z</time>
      </trkpt>
      <trkpt lat="43.45059" lon="2.04431">
        <ele>265.2</ele>
        <time>2023-05-27T13:31:57Z</time>
      </trkpt>
      <trkpt lat="43.45059" lon="2.04435">
        <ele>265.2</ele>
        <time>2023-05-27T13:31:58Z</time>
      </trkpt>
      <trkpt lat="43.4506" lon="2.0444">
        <ele>265.2</ele>
        <time>2023-05-27T13:31:59Z</time>
      </trkpt>
      <trkpt lat="43.4506" lon="2.04446">
        <ele>265.2</ele>
        <time>2023-05-27T13:32:00Z</time>
      </trkpt>
      <trkpt lat="43.45061" lon="2.04451">
        <ele>265.2</ele>
        <time>2023-05-27T13:32:01Z</time>
      </trkpt>
      <trkpt lat="43.45061" lon="2.04455">
        <ele>265.2</ele>
        <time>2023-05-27T13:32:02Z</time>
      </trkpt>
      <trkpt lat="43.45062" lon="2.04461">
        <ele>265.4</ele>
        <time>2023-05-27T13:32:03Z</time>
      </trkpt>
      <trkpt lat="43.45062" lon="2.04466">
        <ele>265.4</ele>
        <time>2023-05-27T13:32:04Z</time>
      </trkpt>
      <trkpt lat="43.45063" lon="2.04471">
        <ele>265.4</ele>
        <time>2023-05-27T13:32:05Z</time>
      </trkpt>
      <trkpt lat="43.45064" lon="2.04476">
        <ele>265.4</ele>
        <time>2023-05-27T13:32:06Z</time>
      </trkpt>
      <trkpt lat="43.45064" lon="2.04481">
        <ele>265.4</ele>
        <time>2023-05-27T13:32:07Z</time>
      </trkpt>
      <trkpt lat="43.45065" lon="2.04486">
        <ele>265.6</ele>
        <time>2023-05-27T13:32:08Z</time>
      </trkpt>
      <trkpt lat="43.45065" lon="2.04491">
        <ele>265.6</ele>
        <time>2023-05-27T13:32:09Z</time>
      </trkpt>
      <trkpt lat="43.45066" lon="2.04496">
        <ele>265.6</ele>
        <time>2023-05-27T13:32:10Z</time>
      </trkpt>
      <trkpt lat="43.45066" lon="2.045">
        <ele>265.8</ele>
        <time>2023-05-27T13:32:11Z</time>
      </trkpt>
      <trkpt lat="43.45067" lon="2.04506">
        <ele>265.8</ele>
        <time>2023-05-27T13:32:12Z</time>
      </trkpt>
      <trkpt lat="43.45068" lon="2.04511">
        <ele>265.8</ele>
        <time>2023-05-27T13:32:13Z</time>
      </trkpt>
      <trkpt lat="43.45068" lon="2.04515">
        <ele>265.8</ele>
        <time>2023-05-27T13:32:14Z</time>
      </trkpt>
      <trkpt lat="43.45069" lon="2.0452">
        <ele>265.8</ele>
        <time>2023-05-27T13:32:15Z</time>
      </trkpt>
      <trkpt lat="43.4507" lon="2.04525">
        <ele>265.8</ele>
        <time>2023-05-27T13:32:16Z</time>
      </trkpt>
      <trkpt lat="43.4507" lon="2.0453">
        <ele>265.8</ele>
        <time>2023-05-27T13:32:17Z</time>
      </trkpt>
      <trkpt lat="43.45071" lon="2.04535">
        <ele>265.8</ele>
        <time>2023-05-27T13:32:18Z</time>
      </trkpt>
      <trkpt lat="43.45072" lon="2.04539">
        <ele>265.8</ele>
        <time>2023-05-27T13:32:19Z</time>
      </trkpt>
      <trkpt lat="43.45073" lon="2.04543">
        <ele>265.8</ele>
        <time>2023-05-27T13:32:20Z</time>
      </trkpt>
      <trkpt lat="43.45073" lon="2.04549">
        <ele>265.8</ele>
        <time>2023-05-27T13:32:21Z</time>
      </trkpt>
      <trkpt lat="43.45074" lon="2.04554">
        <ele>265.8</ele>
        <time>2023-05-27T13:32:22Z</time>
      </trkpt>
      <trkpt lat="43.45076" lon="2.04559">
        <ele>265.8</ele>
        <time>2023-05-27T13:32:23Z</time>
      </trkpt>
      <trkpt lat="43.45076" lon="2.04564">
        <ele>265.6</ele>
        <time>2023-05-27T13:32:24Z</time>
      </trkpt>
      <trkpt lat="43.45077" lon="2.04569">
        <ele>265.6</ele>
        <time>2023-05-27T13:32:25Z</time>
      </trkpt>
      <trkpt lat="43.45077" lon="2.04574">
        <ele>265.6</ele>
        <time>2023-05-27T13:32:26Z</time>
      </trkpt>
      <trkpt lat="43.45078" lon="2.0458">
        <ele>265.6</ele>
        <time>2023-05-27T13:32:27Z</time>
      </trkpt>
      <trkpt lat="43.45078" lon="2.04584">
        <ele>265.6</ele>
        <time>2023-05-27T13:32:28Z</time>
      </trkpt>
      <trkpt lat="43.45079" lon="2.0459">
        <ele>265.6</ele>
        <time>2023-05-27T13:32:29Z</time>
      </trkpt>
      <trkpt lat="43.4508" lon="2.04596">
        <ele>265.6</ele>
        <time>2023-05-27T13:32:30Z</time>
      </trkpt>
      <trkpt lat="43.45081" lon="2.04601">
        <ele>265.4</ele>
        <time>2023-05-27T13:32:31Z</time>
      </trkpt>
      <trkpt lat="43.45081" lon="2.04606">
        <ele>265.4</ele>
        <time>2023-05-27T13:32:32Z</time>
      </trkpt>
      <trkpt lat="43.45082" lon="2.04612">
        <ele>265.4</ele>
        <time>2023-05-27T13:32:33Z</time>
      </trkpt>
      <trkpt lat="43.45082" lon="2.04617">
        <ele>265.2</ele>
        <time>2023-05-27T13:32:34Z</time>
      </trkpt>
      <trkpt lat="43.45084" lon="2.04622">
        <ele>265.2</ele>
        <time>2023-05-27T13:32:35Z</time>
      </trkpt>
      <trkpt lat="43.45084" lon="2.04626">
        <ele>265</ele>
        <time>2023-05-27T13:32:36Z</time>
      </trkpt>
      <trkpt lat="43.45084" lon="2.0463">
        <ele>264.8</ele>
        <time>2023-05-27T13:32:37Z</time>
      </trkpt>
      <trkpt lat="43.45085" lon="2.04633">
        <ele>264.8</ele>
        <time>2023-05-27T13:32:38Z</time>
      </trkpt>
      <trkpt lat="43.45087" lon="2.04636">
        <ele>264.8</ele>
        <time>2023-05-27T13:32:39Z</time>
      </trkpt>
      <trkpt lat="43.4509" lon="2.04638">
        <ele>264.6</ele>
        <time>2023-05-27T13:32:40Z</time>
      </trkpt>
      <trkpt lat="43.45092" lon="2.0464">
        <ele>264.6</ele>
        <time>2023-05-27T13:32:41Z</time>
      </trkpt>
      <trkpt lat="43.45096" lon="2.04642">
        <ele>264.6</ele>
        <time>2023-05-27T13:32:42Z</time>
      </trkpt>
      <trkpt lat="43.45099" lon="2.04645">
        <ele>264.6</ele>
        <time>2023-05-27T13:32:43Z</time>
      </trkpt>
      <trkpt lat="43.45102" lon="2.04647">
        <ele>264.4</ele>
        <time>2023-05-27T13:32:44Z</time>
      </trkpt>
      <trkpt lat="43.45104" lon="2.04651">
        <ele>264.6</ele>
        <time>2023-05-27T13:32:45Z</time>
      </trkpt>
      <trkpt lat="43.45105" lon="2.04655">
        <ele>264.6</ele>
        <time>2023-05-27T13:32:46Z</time>
      </trkpt>
      <trkpt lat="43.45105" lon="2.0466">
        <ele>264.6</ele>
        <time>2023-05-27T13:32:47Z</time>
      </trkpt>
      <trkpt lat="43.45106" lon="2.04664">
        <ele>264.8</ele>
        <time>2023-05-27T13:32:48Z</time>
      </trkpt>
      <trkpt lat="43.45106" lon="2.04668">
        <ele>264.8</ele>
        <time>2023-05-27T13:32:49Z</time>
      </trkpt>
      <trkpt lat="43.45106" lon="2.04672">
        <ele>264.8</ele>
        <time>2023-05-27T13:32:50Z</time>
      </trkpt>
      <trkpt lat="43.45106" lon="2.04676">
        <ele>265</ele>
        <time>2023-05-27T13:32:51Z</time>
      </trkpt>
      <trkpt lat="43.45107" lon="2.0468">
        <ele>265</ele>
        <time>2023-05-27T13:32:52Z</time>
      </trkpt>
      <trkpt lat="43.45107" lon="2.04684">
        <ele>265</ele>
        <time>2023-05-27T13:32:53Z</time>
      </trkpt>
      <trkpt lat="43.45108" lon="2.04687">
        <ele>265.2</ele>
        <time>2023-05-27T13:32:54Z</time>
      </trkpt>
      <trkpt lat="43.45108" lon="2.04691">
        <ele>265.2</ele>
        <time>2023-05-27T13:32:55Z</time>
      </trkpt>
      <trkpt lat="43.45108" lon="2.04695">
        <ele>265.2</ele>
        <time>2023-05-27T13:32:56Z</time>
      </trkpt>
      <trkpt lat="43.45108" lon="2.04699">
        <ele>265.4</ele>
        <time>2023-05-27T13:32:57Z</time>
      </trkpt>
      <trkpt lat="43.45109" lon="2.04703">
        <ele>265.4</ele>
        <time>2023-05-27T13:32:58Z</time>
      </trkpt>
      <trkpt lat="43.45111" lon="2.04706">
        <ele>265.6</ele>
        <time>2023-05-27T13:32:59Z</time>
      </trkpt>
      <trkpt lat="43.45112" lon="2.04709">
        <ele>265.6</ele>
        <time>2023-05-27T13:33:00Z</time>
      </trkpt>
      <trkpt lat="43.45114" lon="2.04712">
        <ele>265.6</ele>
        <time>2023-05-27T13:33:01Z</time>
      </trkpt>
      <trkpt lat="43.45116" lon="2.04715">
        <ele>265.8</ele>
        <time>2023-05-27T13:33:02Z</time>
      </trkpt>
      <trkpt lat="43.45117" lon="2.04718">
        <ele>265.8</ele>
        <time>2023-05-27T13:33:03Z</time>
      </trkpt>
      <trkpt lat="43.4512" lon="2.0472">
        <ele>265.8</ele>
        <time>2023-05-27T13:33:04Z</time>
      </trkpt>
      <trkpt lat="43.45122" lon="2.04723">
        <ele>265.8</ele>
        <time>2023-05-27T13:33:05Z</time>
      </trkpt>
      <trkpt lat="43.45125" lon="2.04725">
        <ele>265.8</ele>
        <time>2023-05-27T13:33:06Z</time>
      </trkpt>
      <trkpt lat="43.45128" lon="2.04728">
        <ele>265.8</ele>
        <time>2023-05-27T13:33:07Z</time>
      </trkpt>
      <trkpt lat="43.45132" lon="2.04732">
        <ele>265.6</ele>
        <time>2023-05-27T13:33:08Z</time>
      </trkpt>
      <trkpt lat="43.45135" lon="2.04735">
        <ele>265.6</ele>
        <time>2023-05-27T13:33:09Z</time>
      </trkpt>
      <trkpt lat="43.45139" lon="2.04739">
        <ele>265.4</ele>
        <time>2023-05-27T13:33:10Z</time>
      </trkpt>
      <trkpt lat="43.45142" lon="2.04744">
        <ele>265.4</ele>
        <time>2023-05-27T13:33:11Z</time>
      </trkpt>
      <trkpt lat="43.45146" lon="2.04748">
        <ele>265.2</ele>
        <time>2023-05-27T13:33:12Z</time>
      </trkpt>
      <trkpt lat="43.45149" lon="2.04753">
        <ele>265.2</ele>
        <time>2023-05-27T13:33:13Z</time>
      </trkpt>
      <trkpt lat="43.45153" lon="2.04758">
        <ele>265</ele>
        <time>2023-05-27T13:33:14Z</time>
      </trkpt>
      <trkpt lat="43.45157" lon="2.04763">
        <ele>265</ele>
        <time>2023-05-27T13:33:15Z</time>
      </trkpt>
      <trkpt lat="43.4516" lon="2.04768">
        <ele>264.8</ele>
        <time>2023-05-27T13:33:16Z</time>
      </trkpt>
      <trkpt lat="43.45162" lon="2.04772">
        <ele>264.8</ele>
        <time>2023-05-27T13:33:17Z</time>
      </trkpt>
      <trkpt lat="43.45166" lon="2.04778">
        <ele>264.6</ele>
        <time>2023-05-27T13:33:18Z</time>
      </trkpt>
      <trkpt lat="43.45169" lon="2.04783">
        <ele>264.4</ele>
        <time>2023-05-27T13:33:19Z</time>
      </trkpt>
      <trkpt lat="43.45172" lon="2.04789">
        <ele>264.4</ele>
        <time>2023-05-27T13:33:20Z</time>
      </trkpt>
      <trkpt lat="43.45175" lon="2.04795">
        <ele>264.2</ele>
        <time>2023-05-27T13:33:21Z</time>
      </trkpt>
      <trkpt lat="43.45178" lon="2.04801">
        <ele>264.2</ele>
        <time>2023-05-27T13:33:22Z</time>
      </trkpt>
      <trkpt lat="43.45181" lon="2.04807">
        <ele>264.2</ele>
        <time>2023-05-27T13:33:23Z</time>
      </trkpt>
      <trkpt lat="43.45183" lon="2.04813">
        <ele>264.2</ele>
        <time>2023-05-27T13:33:24Z</time>
      </trkpt>
      <trkpt lat="43.45186" lon="2.04818">
        <ele>264.2</ele>
        <time>2023-05-27T13:33:25Z</time>
      </trkpt>
      <trkpt lat="43.45188" lon="2.04824">
        <ele>264</ele>
        <time>2023-05-27T13:33:26Z</time>
      </trkpt>
      <trkpt lat="43.4519" lon="2.0483">
        <ele>264.2</ele>
        <time>2023-05-27T13:33:27Z</time>
      </trkpt>
      <trkpt lat="43.45192" lon="2.04836">
        <ele>264.2</ele>
        <time>2023-05-27T13:33:28Z</time>
      </trkpt>
      <trkpt lat="43.45193" lon="2.04842">
        <ele>264</ele>
        <time>2023-05-27T13:33:29Z</time>
      </trkpt>
      <trkpt lat="43.45195" lon="2.04848">
        <ele>264</ele>
        <time>2023-05-27T13:33:30Z</time>
      </trkpt>
      <trkpt lat="43.45196" lon="2.04853">
        <ele>264</ele>
        <time>2023-05-27T13:33:31Z</time>
      </trkpt>
      <trkpt lat="43.45196" lon="2.04859">
        <ele>264</ele>
        <time>2023-05-27T13:33:32Z</time>
      </trkpt>
      <trkpt lat="43.45197" lon="2.04865">
        <ele>264</ele>
        <time>2023-05-27T13:33:33Z</time>
      </trkpt>
      <trkpt lat="43.45198" lon="2.0487">
        <ele>264</ele>
        <time>2023-05-27T13:33:34Z</time>
      </trkpt>
      <trkpt lat="43.45198" lon="2.04876">
        <ele>264</ele>
        <time>2023-05-27T13:33:35Z</time>
      </trkpt>
      <trkpt lat="43.45199" lon="2.04882">
        <ele>264</ele>
        <time>2023-05-27T13:33:36Z</time>
      </trkpt>
      <trkpt lat="43.45199" lon="2.04888">
        <ele>264</ele>
        <time>2023-05-27T13:33:37Z</time>
      </trkpt>
      <trkpt lat="43.45199" lon="2.04893">
        <ele>264.2</ele>
        <time>2023-05-27T13:33:38Z</time>
      </trkpt>
      <trkpt lat="43.45199" lon="2.04898">
        <ele>264.2</ele>
        <time>2023-05-27T13:33:39Z</time>
      </trkpt>
      <trkpt lat="43.45199" lon="2.04904">
        <ele>264.2</ele>
        <time>2023-05-27T13:33:40Z</time>
      </trkpt>
      <trkpt lat="43.45199" lon="2.0491">
        <ele>264.2</ele>
        <time>2023-05-27T13:33:41Z</time>
      </trkpt>
      <trkpt lat="43.45199" lon="2.04915">
        <ele>264.2</ele>
        <time>2023-05-27T13:33:42Z</time>
      </trkpt>
      <trkpt lat="43.45198" lon="2.0492">
        <ele>264.2</ele>
        <time>2023-05-27T13:33:43Z</time>
      </trkpt>
      <trkpt lat="43.45198" lon="2.04926">
        <ele>264.2</ele>
        <time>2023-05-27T13:33:44Z</time>
      </trkpt>
      <trkpt lat="43.45197" lon="2.04932">
        <ele>264.4</ele>
        <time>2023-05-27T13:33:45Z</time>
      </trkpt>
      <trkpt lat="43.45196" lon="2.04936">
        <ele>264.4</ele>
        <time>2023-05-27T13:33:46Z</time>
      </trkpt>
      <trkpt lat="43.45195" lon="2.04941">
        <ele>264.4</ele>
        <time>2023-05-27T13:33:47Z</time>
      </trkpt>
      <trkpt lat="43.45194" lon="2.04947">
        <ele>264.4</ele>
        <time>2023-05-27T13:33:48Z</time>
      </trkpt>
      <trkpt lat="43.45194" lon="2.04952">
        <ele>264.6</ele>
        <time>2023-05-27T13:33:49Z</time>
      </trkpt>
      <trkpt lat="43.45193" lon="2.04957">
        <ele>264.6</ele>
        <time>2023-05-27T13:33:50Z</time>
      </trkpt>
      <trkpt lat="43.45192" lon="2.04961">
        <ele>264.6</ele>
        <time>2023-05-27T13:33:51Z</time>
      </trkpt>
      <trkpt lat="43.45191" lon="2.04965">
        <ele>264.6</ele>
        <time>2023-05-27T13:33:52Z</time>
      </trkpt>
      <trkpt lat="43.4519" lon="2.0497">
        <ele>264.6</ele>
        <time>2023-05-27T13:33:53Z</time>
      </trkpt>
      <trkpt lat="43.4519" lon="2.04975">
        <ele>264.6</ele>
        <time>2023-05-27T13:33:54Z</time>
      </trkpt>
      <trkpt lat="43.45189" lon="2.04979">
        <ele>264.8</ele>
        <time>2023-05-27T13:33:55Z</time>
      </trkpt>
      <trkpt lat="43.45187" lon="2.04984">
        <ele>264.8</ele>
        <time>2023-05-27T13:33:56Z</time>
      </trkpt>
      <trkpt lat="43.45186" lon="2.04988">
        <ele>264.8</ele>
        <time>2023-05-27T13:33:57Z</time>
      </trkpt>
      <trkpt lat="43.45186" lon="2.04993">
        <ele>265</ele>
        <time>2023-05-27T13:33:58Z</time>
      </trkpt>
      <trkpt lat="43.45185" lon="2.04998">
        <ele>265</ele>
        <time>2023-05-27T13:33:59Z</time>
      </trkpt>
      <trkpt lat="43.45185" lon="2.05002">
        <ele>265</ele>
        <time>2023-05-27T13:34:00Z</time>
      </trkpt>
      <trkpt lat="43.45184" lon="2.05007">
        <ele>265</ele>
        <time>2023-05-27T13:34:01Z</time>
      </trkpt>
      <trkpt lat="43.45183" lon="2.05012">
        <ele>265.2</ele>
        <time>2023-05-27T13:34:02Z</time>
      </trkpt>
      <trkpt lat="43.45183" lon="2.05017">
        <ele>265.2</ele>
        <time>2023-05-27T13:34:03Z</time>
      </trkpt>
      <trkpt lat="43.45182" lon="2.05021">
        <ele>265.2</ele>
        <time>2023-05-27T13:34:04Z</time>
      </trkpt>
      <trkpt lat="43.45181" lon="2.05026">
        <ele>265.4</ele>
        <time>2023-05-27T13:34:05Z</time>
      </trkpt>
      <trkpt lat="43.45181" lon="2.0503">
        <ele>265.4</ele>
        <time>2023-05-27T13:34:06Z</time>
      </trkpt>
      <trkpt lat="43.4518" lon="2.05036">
        <ele>265.4</ele>
        <time>2023-05-27T13:34:07Z</time>
      </trkpt>
      <trkpt lat="43.45179" lon="2.05041">
        <ele>265.6</ele>
        <time>2023-05-27T13:34:08Z</time>
      </trkpt>
      <trkpt lat="43.45178" lon="2.05045">
        <ele>265.6</ele>
        <time>2023-05-27T13:34:09Z</time>
      </trkpt>
      <trkpt lat="43.45178" lon="2.0505">
        <ele>265.6</ele>
        <time>2023-05-27T13:34:10Z</time>
      </trkpt>
      <trkpt lat="43.45179" lon="2.05055">
        <ele>265.6</ele>
        <time>2023-05-27T13:34:11Z</time>
      </trkpt>
      <trkpt lat="43.45181" lon="2.05059">
        <ele>265.6</ele>
        <time>2023-05-27T13:34:12Z</time>
      </trkpt>
      <trkpt lat="43.45183" lon="2.05062">
        <ele>265.6</ele>
        <time>2023-05-27T13:34:13Z</time>
      </trkpt>
      <trkpt lat="43.45185" lon="2.05064">
        <ele>265.8</ele>
        <time>2023-05-27T13:34:14Z</time>
      </trkpt>
      <trkpt lat="43.45188" lon="2.05067">
        <ele>265.8</ele>
        <time>2023-05-27T13:34:15Z</time>
      </trkpt>
      <trkpt lat="43.45191" lon="2.0507">
        <ele>265.8</ele>
        <time>2023-05-27T13:34:16Z</time>
      </trkpt>
      <trkpt lat="43.45194" lon="2.05073">
        <ele>265.8</ele>
        <time>2023-05-27T13:34:17Z</time>
      </trkpt>
      <trkpt lat="43.45196" lon="2.05075">
        <ele>265.8</ele>
        <time>2023-05-27T13:34:18Z</time>
      </trkpt>
      <trkpt lat="43.45199" lon="2.05079">
        <ele>265.8</ele>
        <time>2023-05-27T13:34:19Z</time>
      </trkpt>
      <trkpt lat="43.45202" lon="2.05082">
        <ele>265.8</ele>
        <time>2023-05-27T13:34:20Z</time>
      </trkpt>
      <trkpt lat="43.45205" lon="2.05085">
        <ele>265.8</ele>
        <time>2023-05-27T13:34:21Z</time>
      </trkpt>
      <trkpt lat="43.45208" lon="2.05088">
        <ele>265.8</ele>
        <time>2023-05-27T13:34:22Z</time>
      </trkpt>
      <trkpt lat="43.4521" lon="2.0509">
        <ele>265.8</ele>
        <time>2023-05-27T13:34:23Z</time>
      </trkpt>
      <trkpt lat="43.45213" lon="2.05093">
        <ele>265.8</ele>
        <time>2023-05-27T13:34:24Z</time>
      </trkpt>
      <trkpt lat="43.45216" lon="2.05096">
        <ele>265.8</ele>
        <time>2023-05-27T13:34:25Z</time>
      </trkpt>
      <trkpt lat="43.45218" lon="2.05099">
        <ele>265.8</ele>
        <time>2023-05-27T13:34:26Z</time>
      </trkpt>
      <trkpt lat="43.45221" lon="2.05101">
        <ele>265.8</ele>
        <time>2023-05-27T13:34:27Z</time>
      </trkpt>
      <trkpt lat="43.45224" lon="2.05104">
        <ele>265.8</ele>
        <time>2023-05-27T13:34:28Z</time>
      </trkpt>
      <trkpt lat="43.45228" lon="2.05107">
        <ele>265.8</ele>
        <time>2023-05-27T13:34:29Z</time>
      </trkpt>
      <trkpt lat="43.4523" lon="2.05109">
        <ele>265.8</ele>
        <time>2023-05-27T13:34:30Z</time>
      </trkpt>
      <trkpt lat="43.45233" lon="2.05112">
        <ele>265.8</ele>
        <time>2023-05-27T13:34:31Z</time>
      </trkpt>
      <trkpt lat="43.45236" lon="2.05116">
        <ele>266</ele>
        <time>2023-05-27T13:34:32Z</time>
      </trkpt>
      <trkpt lat="43.45239" lon="2.05119">
        <ele>266</ele>
        <time>2023-05-27T13:34:33Z</time>
      </trkpt>
      <trkpt lat="43.45242" lon="2.05122">
        <ele>266</ele>
        <time>2023-05-27T13:34:34Z</time>
      </trkpt>
      <trkpt lat="43.45244" lon="2.05125">
        <ele>266</ele>
        <time>2023-05-27T13:34:35Z</time>
      </trkpt>
      <trkpt lat="43.45247" lon="2.05128">
        <ele>266</ele>
        <time>2023-05-27T13:34:36Z</time>
      </trkpt>
      <trkpt lat="43.4525" lon="2.05131">
        <ele>266</ele>
        <time>2023-05-27T13:34:37Z</time>
      </trkpt>
      <trkpt lat="43.45253" lon="2.05134">
        <ele>266</ele>
        <time>2023-05-27T13:34:38Z</time>
      </trkpt>
      <trkpt lat="43.45256" lon="2.05137">
        <ele>266</ele>
        <time>2023-05-27T13:34:39Z</time>
      </trkpt>
      <trkpt lat="43.45258" lon="2.0514">
        <ele>266</ele>
        <time>2023-05-27T13:34:40Z</time>
      </trkpt>
      <trkpt lat="43.45261" lon="2.05143">
        <ele>266</ele>
        <time>2023-05-27T13:34:41Z</time>
      </trkpt>
      <trkpt lat="43.45264" lon="2.05146">
        <ele>266</ele>
        <time>2023-05-27T13:34:42Z</time>
      </trkpt>
      <trkpt lat="43.45266" lon="2.05149">
        <ele>266</ele>
        <time>2023-05-27T13:34:43Z</time>
      </trkpt>
      <trkpt lat="43.45268" lon="2.05152">
        <ele>266</ele>
        <time>2023-05-27T13:34:44Z</time>
      </trkpt>
      <trkpt lat="43.45271" lon="2.05156">
        <ele>266</ele>
        <time>2023-05-27T13:34:45Z</time>
      </trkpt>
      <trkpt lat="43.45273" lon="2.05159">
        <ele>266</ele>
        <time>2023-05-27T13:34:46Z</time>
      </trkpt>
      <trkpt lat="43.45276" lon="2.05163">
        <ele>266</ele>
        <time>2023-05-27T13:34:47Z</time>
      </trkpt>
      <trkpt lat="43.45278" lon="2.05167">
        <ele>266</ele>
        <time>2023-05-27T13:34:48Z</time>
      </trkpt>
      <trkpt lat="43.4528" lon="2.05171">
        <ele>266</ele>
        <time>2023-05-27T13:34:49Z</time>
      </trkpt>
      <trkpt lat="43.45282" lon="2.05174">
        <ele>266</ele>
        <time>2023-05-27T13:34:50Z</time>
      </trkpt>
      <trkpt lat="43.45284" lon="2.05178">
        <ele>266</ele>
        <time>2023-05-27T13:34:51Z</time>
      </trkpt>
      <trkpt lat="43.45286" lon="2.05181">
        <ele>266</ele>
        <time>2023-05-27T13:34:52Z</time>
      </trkpt>
      <trkpt lat="43.45287" lon="2.05185">
        <ele>266</ele>
        <time>2023-05-27T13:34:53Z</time>
      </trkpt>
      <trkpt lat="43.4529" lon="2.05189">
        <ele>266.2</ele>
        <time>2023-05-27T13:34:54Z</time>
      </trkpt>
      <trkpt lat="43.45292" lon="2.05193">
        <ele>266.2</ele>
        <time>2023-05-27T13:34:55Z</time>
      </trkpt>
      <trkpt lat="43.45294" lon="2.05196">
        <ele>266.2</ele>
        <time>2023-05-27T13:34:56Z</time>
      </trkpt>
      <trkpt lat="43.45295" lon="2.052">
        <ele>266.2</ele>
        <time>2023-05-27T13:34:57Z</time>
      </trkpt>
      <trkpt lat="43.45297" lon="2.05203">
        <ele>266.4</ele>
        <time>2023-05-27T13:34:58Z</time>
      </trkpt>
      <trkpt lat="43.45299" lon="2.05207">
        <ele>266.4</ele>
        <time>2023-05-27T13:34:59Z</time>
      </trkpt>
      <trkpt lat="43.45301" lon="2.05211">
        <ele>266.4</ele>
        <time>2023-05-27T13:35:00Z</time>
      </trkpt>
      <trkpt lat="43.45302" lon="2.05214">
        <ele>266.4</ele>
        <time>2023-05-27T13:35:01Z</time>
      </trkpt>
      <trkpt lat="43.45304" lon="2.05217">
        <ele>266.6</ele>
        <time>2023-05-27T13:35:02Z</time>
      </trkpt>
      <trkpt lat="43.45306" lon="2.05221">
        <ele>266.6</ele>
        <time>2023-05-27T13:35:03Z</time>
      </trkpt>
      <trkpt lat="43.45309" lon="2.05225">
        <ele>266.6</ele>
        <time>2023-05-27T13:35:04Z</time>
      </trkpt>
      <trkpt lat="43.45311" lon="2.05228">
        <ele>266.6</ele>
        <time>2023-05-27T13:35:05Z</time>
      </trkpt>
      <trkpt lat="43.45313" lon="2.05232">
        <ele>266.6</ele>
        <time>2023-05-27T13:35:06Z</time>
      </trkpt>
      <trkpt lat="43.45315" lon="2.05235">
        <ele>266.6</ele>
        <time>2023-05-27T13:35:07Z</time>
      </trkpt>
      <trkpt lat="43.45317" lon="2.05238">
        <ele>266.8</ele>
        <time>2023-05-27T13:35:08Z</time>
      </trkpt>
      <trkpt lat="43.4532" lon="2.05242">
        <ele>266.8</ele>
        <time>2023-05-27T13:35:09Z</time>
      </trkpt>
      <trkpt lat="43.45322" lon="2.05245">
        <ele>266.8</ele>
        <time>2023-05-27T13:35:10Z</time>
      </trkpt>
      <trkpt lat="43.45324" lon="2.05248">
        <ele>266.8</ele>
        <time>2023-05-27T13:35:11Z</time>
      </trkpt>
      <trkpt lat="43.45326" lon="2.05251">
        <ele>266.8</ele>
        <time>2023-05-27T13:35:12Z</time>
      </trkpt>
      <trkpt lat="43.45329" lon="2.05254">
        <ele>267</ele>
        <time>2023-05-27T13:35:13Z</time>
      </trkpt>
      <trkpt lat="43.45332" lon="2.05257">
        <ele>267</ele>
        <time>2023-05-27T13:35:14Z</time>
      </trkpt>
      <trkpt lat="43.45334" lon="2.0526">
        <ele>267</ele>
        <time>2023-05-27T13:35:15Z</time>
      </trkpt>
      <trkpt lat="43.45337" lon="2.05263">
        <ele>267</ele>
        <time>2023-05-27T13:35:16Z</time>
      </trkpt>
      <trkpt lat="43.4534" lon="2.05265">
        <ele>267</ele>
        <time>2023-05-27T13:35:17Z</time>
      </trkpt>
      <trkpt lat="43.45343" lon="2.05268">
        <ele>267</ele>
        <time>2023-05-27T13:35:18Z</time>
      </trkpt>
      <trkpt lat="43.45346" lon="2.0527">
        <ele>267</ele>
        <time>2023-05-27T13:35:19Z</time>
      </trkpt>
      <trkpt lat="43.45349" lon="2.05272">
        <ele>267.2</ele>
        <time>2023-05-27T13:35:20Z</time>
      </trkpt>
      <trkpt lat="43.45352" lon="2.05274">
        <ele>267.2</ele>
        <time>2023-05-27T13:35:21Z</time>
      </trkpt>
      <trkpt lat="43.45355" lon="2.05276">
        <ele>267.2</ele>
        <time>2023-05-27T13:35:22Z</time>
      </trkpt>
      <trkpt lat="43.45358" lon="2.05278">
        <ele>267.2</ele>
        <time>2023-05-27T13:35:23Z</time>
      </trkpt>
      <trkpt lat="43.45361" lon="2.05279">
        <ele>267.2</ele>
        <time>2023-05-27T13:35:24Z</time>
      </trkpt>
      <trkpt lat="43.45364" lon="2.05281">
        <ele>267.4</ele>
        <time>2023-05-27T13:35:25Z</time>
      </trkpt>
      <trkpt lat="43.45367" lon="2.05282">
        <ele>267.4</ele>
        <time>2023-05-27T13:35:26Z</time>
      </trkpt>
      <trkpt lat="43.4537" lon="2.05284">
        <ele>267.6</ele>
        <time>2023-05-27T13:35:27Z</time>
      </trkpt>
      <trkpt lat="43.45372" lon="2.05285">
        <ele>267.6</ele>
        <time>2023-05-27T13:35:28Z</time>
      </trkpt>
      <trkpt lat="43.45375" lon="2.05286">
        <ele>267.8</ele>
        <time>2023-05-27T13:35:29Z</time>
      </trkpt>
      <trkpt lat="43.45378" lon="2.05288">
        <ele>267.8</ele>
        <time>2023-05-27T13:35:30Z</time>
      </trkpt>
      <trkpt lat="43.4538" lon="2.05289">
        <ele>267.8</ele>
        <time>2023-05-27T13:35:31Z</time>
      </trkpt>
      <trkpt lat="43.45382" lon="2.05291">
        <ele>268</ele>
        <time>2023-05-27T13:35:32Z</time>
      </trkpt>
      <trkpt lat="43.45384" lon="2.05292">
        <ele>268</ele>
        <time>2023-05-27T13:35:33Z</time>
      </trkpt>
      <trkpt lat="43.45386" lon="2.05293">
        <ele>268.2</ele>
        <time>2023-05-27T13:35:34Z</time>
      </trkpt>
      <trkpt lat="43.45388" lon="2.05295">
        <ele>268.2</ele>
        <time>2023-05-27T13:35:35Z</time>
      </trkpt>
      <trkpt lat="43.4539" lon="2.05297">
        <ele>268.4</ele>
        <time>2023-05-27T13:35:36Z</time>
      </trkpt>
      <trkpt lat="43.45392" lon="2.05298">
        <ele>268.4</ele>
        <time>2023-05-27T13:35:37Z</time>
      </trkpt>
      <trkpt lat="43.45394" lon="2.05299">
        <ele>268.6</ele>
        <time>2023-05-27T13:35:38Z</time>
      </trkpt>
      <trkpt lat="43.45396" lon="2.053">
        <ele>268.6</ele>
        <time>2023-05-27T13:35:39Z</time>
      </trkpt>
      <trkpt lat="43.45398" lon="2.05301">
        <ele>268.8</ele>
        <time>2023-05-27T13:35:40Z</time>
      </trkpt>
      <trkpt lat="43.454" lon="2.05302">
        <ele>268.8</ele>
        <time>2023-05-27T13:35:41Z</time>
      </trkpt>
      <trkpt lat="43.45402" lon="2.05303">
        <ele>269</ele>
        <time>2023-05-27T13:35:42Z</time>
      </trkpt>
      <trkpt lat="43.45403" lon="2.05304">
        <ele>269</ele>
        <time>2023-05-27T13:35:43Z</time>
      </trkpt>
      <trkpt lat="43.45405" lon="2.05304">
        <ele>269</ele>
        <time>2023-05-27T13:35:44Z</time>
      </trkpt>
      <trkpt lat="43.45406" lon="2.05305">
        <ele>269</ele>
        <time>2023-05-27T13:35:45Z</time>
      </trkpt>
      <trkpt lat="43.45407" lon="2.05305">
        <ele>269.2</ele>
        <time>2023-05-27T13:35:46Z</time>
      </trkpt>
      <trkpt lat="43.45409" lon="2.05306">
        <ele>269.2</ele>
        <time>2023-05-27T13:35:53Z</time>
      </trkpt>
      <trkpt lat="43.45411" lon="2.05306">
        <ele>269.2</ele>
        <time>2023-05-27T13:35:54Z</time>
      </trkpt>
      <trkpt lat="43.45412" lon="2.05308">
        <ele>269.2</ele>
        <time>2023-05-27T13:35:55Z</time>
      </trkpt>
      <trkpt lat="43.45413" lon="2.05309">
        <ele>269.2</ele>
        <time>2023-05-27T13:35:56Z</time>
      </trkpt>
      <trkpt lat="43.45415" lon="2.05311">
        <ele>269.2</ele>
        <time>2023-05-27T13:35:57Z</time>
      </trkpt>
      <trkpt lat="43.45416" lon="2.05313">
        <ele>269.2</ele>
        <time>2023-05-27T13:35:58Z</time>
      </trkpt>
      <trkpt lat="43.45418" lon="2.05315">
        <ele>269</ele>
        <time>2023-05-27T13:35:59Z</time>
      </trkpt>
      <trkpt lat="43.4542" lon="2.05318">
        <ele>269</ele>
        <time>2023-05-27T13:36:00Z</time>
      </trkpt>
      <trkpt lat="43.45422" lon="2.05321">
        <ele>269</ele>
        <time>2023-05-27T13:36:01Z</time>
      </trkpt>
      <trkpt lat="43.45425" lon="2.05325">
        <ele>268.8</ele>
        <time>2023-05-27T13:36:02Z</time>
      </trkpt>
      <trkpt lat="43.45428" lon="2.05329">
        <ele>268.8</ele>
        <time>2023-05-27T13:36:03Z</time>
      </trkpt>
      <trkpt lat="43.4543" lon="2.05333">
        <ele>268.6</ele>
        <time>2023-05-27T13:36:04Z</time>
      </trkpt>
      <trkpt lat="43.45433" lon="2.05337">
        <ele>268.6</ele>
        <time>2023-05-27T13:36:05Z</time>
      </trkpt>
      <trkpt lat="43.45436" lon="2.05342">
        <ele>268.6</ele>
        <time>2023-05-27T13:36:06Z</time>
      </trkpt>
      <trkpt lat="43.45439" lon="2.05346">
        <ele>268.4</ele>
        <time>2023-05-27T13:36:07Z</time>
      </trkpt>
      <trkpt lat="43.45441" lon="2.05349">
        <ele>268.4</ele>
        <time>2023-05-27T13:36:08Z</time>
      </trkpt>
      <trkpt lat="43.45443" lon="2.05354">
        <ele>268.4</ele>
        <time>2023-05-27T13:36:09Z</time>
      </trkpt>
      <trkpt lat="43.45446" lon="2.05358">
        <ele>268.4</ele>
        <time>2023-05-27T13:36:10Z</time>
      </trkpt>
      <trkpt lat="43.45449" lon="2.05362">
        <ele>268.4</ele>
        <time>2023-05-27T13:36:11Z</time>
      </trkpt>
      <trkpt lat="43.45452" lon="2.05366">
        <ele>268.2</ele>
        <time>2023-05-27T13:36:12Z</time>
      </trkpt>
      <trkpt lat="43.45454" lon="2.0537">
        <ele>268.2</ele>
        <time>2023-05-27T13:36:13Z</time>
      </trkpt>
      <trkpt lat="43.45457" lon="2.05374">
        <ele>268.2</ele>
        <time>2023-05-27T13:36:14Z</time>
      </trkpt>
      <trkpt lat="43.45459" lon="2.05378">
        <ele>268.2</ele>
        <time>2023-05-27T13:36:15Z</time>
      </trkpt>
      <trkpt lat="43.45461" lon="2.05381">
        <ele>268.2</ele>
        <time>2023-05-27T13:36:16Z</time>
      </trkpt>
      <trkpt lat="43.45464" lon="2.05385">
        <ele>268.2</ele>
        <time>2023-05-27T13:36:17Z</time>
      </trkpt>
      <trkpt lat="43.45467" lon="2.05388">
        <ele>268.2</ele>
        <time>2023-05-27T13:36:18Z</time>
      </trkpt>
      <trkpt lat="43.4547" lon="2.05391">
        <ele>268.2</ele>
        <time>2023-05-27T13:36:19Z</time>
      </trkpt>
      <trkpt lat="43.45472" lon="2.05395">
        <ele>268.2</ele>
        <time>2023-05-27T13:36:20Z</time>
      </trkpt>
      <trkpt lat="43.45475" lon="2.05398">
        <ele>268.2</ele>
        <time>2023-05-27T13:36:21Z</time>
      </trkpt>
      <trkpt lat="43.45477" lon="2.05401">
        <ele>268.2</ele>
        <time>2023-05-27T13:36:22Z</time>
      </trkpt>
      <trkpt lat="43.4548" lon="2.05405">
        <ele>268.2</ele>
        <time>2023-05-27T13:36:23Z</time>
      </trkpt>
      <trkpt lat="43.45483" lon="2.05408">
        <ele>268.2</ele>
        <time>2023-05-27T13:36:24Z</time>
      </trkpt>
      <trkpt lat="43.45486" lon="2.05411">
        <ele>268.2</ele>
        <time>2023-05-27T13:36:25Z</time>
      </trkpt>
      <trkpt lat="43.45488" lon="2.05414">
        <ele>268.2</ele>
        <time>2023-05-27T13:36:26Z</time>
      </trkpt>
      <trkpt lat="43.4549" lon="2.05417">
        <ele>268.2</ele>
        <time>2023-05-27T13:36:27Z</time>
      </trkpt>
      <trkpt lat="43.45493" lon="2.0542">
        <ele>268.2</ele>
        <time>2023-05-27T13:36:28Z</time>
      </trkpt>
      <trkpt lat="43.45495" lon="2.05423">
        <ele>268.2</ele>
        <time>2023-05-27T13:36:29Z</time>
      </trkpt>
      <trkpt lat="43.45497" lon="2.05426">
        <ele>268.4</ele>
        <time>2023-05-27T13:36:30Z</time>
      </trkpt>
      <trkpt lat="43.455" lon="2.05429">
        <ele>268.4</ele>
        <time>2023-05-27T13:36:31Z</time>
      </trkpt>
      <trkpt lat="43.45503" lon="2.05432">
        <ele>268.4</ele>
        <time>2023-05-27T13:36:32Z</time>
      </trkpt>
      <trkpt lat="43.45506" lon="2.05435">
        <ele>268.4</ele>
        <time>2023-05-27T13:36:33Z</time>
      </trkpt>
      <trkpt lat="43.45508" lon="2.05438">
        <ele>268.4</ele>
        <time>2023-05-27T13:36:34Z</time>
      </trkpt>
      <trkpt lat="43.45511" lon="2.05441">
        <ele>268.4</ele>
        <time>2023-05-27T13:36:35Z</time>
      </trkpt>
      <trkpt lat="43.45514" lon="2.05443">
        <ele>268.2</ele>
        <time>2023-05-27T13:36:36Z</time>
      </trkpt>
      <trkpt lat="43.45517" lon="2.05446">
        <ele>268.2</ele>
        <time>2023-05-27T13:36:37Z</time>
      </trkpt>
      <trkpt lat="43.4552" lon="2.05449">
        <ele>268.2</ele>
        <time>2023-05-27T13:36:38Z</time>
      </trkpt>
      <trkpt lat="43.45523" lon="2.05451">
        <ele>268.2</ele>
        <time>2023-05-27T13:36:39Z</time>
      </trkpt>
      <trkpt lat="43.45526" lon="2.05454">
        <ele>268.2</ele>
        <time>2023-05-27T13:36:40Z</time>
      </trkpt>
      <trkpt lat="43.4553" lon="2.05457">
        <ele>268.2</ele>
        <time>2023-05-27T13:36:41Z</time>
      </trkpt>
      <trkpt lat="43.45534" lon="2.0546">
        <ele>268</ele>
        <time>2023-05-27T13:36:42Z</time>
      </trkpt>
      <trkpt lat="43.45538" lon="2.05463">
        <ele>268</ele>
        <time>2023-05-27T13:36:43Z</time>
      </trkpt>
      <trkpt lat="43.45541" lon="2.05465">
        <ele>268</ele>
        <time>2023-05-27T13:36:44Z</time>
      </trkpt>
      <trkpt lat="43.45544" lon="2.05467">
        <ele>268</ele>
        <time>2023-05-27T13:36:45Z</time>
      </trkpt>
      <trkpt lat="43.45549" lon="2.05469">
        <ele>268</ele>
        <time>2023-05-27T13:36:46Z</time>
      </trkpt>
      <trkpt lat="43.45552" lon="2.05471">
        <ele>268</ele>
        <time>2023-05-27T13:36:47Z</time>
      </trkpt>
      <trkpt lat="43.45555" lon="2.05473">
        <ele>268</ele>
        <time>2023-05-27T13:36:48Z</time>
      </trkpt>
      <trkpt lat="43.45559" lon="2.05475">
        <ele>268</ele>
        <time>2023-05-27T13:36:49Z</time>
      </trkpt>
      <trkpt lat="43.45563" lon="2.05476">
        <ele>268</ele>
        <time>2023-05-27T13:36:50Z</time>
      </trkpt>
      <trkpt lat="43.45566" lon="2.05478">
        <ele>268</ele>
        <time>2023-05-27T13:36:51Z</time>
      </trkpt>
      <trkpt lat="43.4557" lon="2.0548">
        <ele>268.2</ele>
        <time>2023-05-27T13:36:52Z</time>
      </trkpt>
      <trkpt lat="43.45573" lon="2.05481">
        <ele>268.2</ele>
        <time>2023-05-27T13:36:53Z</time>
      </trkpt>
      <trkpt lat="43.45577" lon="2.05483">
        <ele>268.2</ele>
        <time>2023-05-27T13:36:54Z</time>
      </trkpt>
      <trkpt lat="43.4558" lon="2.05485">
        <ele>268.2</ele>
        <time>2023-05-27T13:36:55Z</time>
      </trkpt>
      <trkpt lat="43.45583" lon="2.05486">
        <ele>268.2</ele>
        <time>2023-05-27T13:36:56Z</time>
      </trkpt>
      <trkpt lat="43.45585" lon="2.05487">
        <ele>268.2</ele>
        <time>2023-05-27T13:36:57Z</time>
      </trkpt>
      <trkpt lat="43.45589" lon="2.05487">
        <ele>268.2</ele>
        <time>2023-05-27T13:36:58Z</time>
      </trkpt>
      <trkpt lat="43.45592" lon="2.05488">
        <ele>268.2</ele>
        <time>2023-05-27T13:36:59Z</time>
      </trkpt>
      <trkpt lat="43.45595" lon="2.05489">
        <ele>268.2</ele>
        <time>2023-05-27T13:37:00Z</time>
      </trkpt>
      <trkpt lat="43.45599" lon="2.05489">
        <ele>268.4</ele>
        <time>2023-05-27T13:37:01Z</time>
      </trkpt>
      <trkpt lat="43.45602" lon="2.0549">
        <ele>268.4</ele>
        <time>2023-05-27T13:37:02Z</time>
      </trkpt>
      <trkpt lat="43.45605" lon="2.0549">
        <ele>268.4</ele>
        <time>2023-05-27T13:37:03Z</time>
      </trkpt>
      <trkpt lat="43.45608" lon="2.0549">
        <ele>268.4</ele>
        <time>2023-05-27T13:37:04Z</time>
      </trkpt>
      <trkpt lat="43.45612" lon="2.0549">
        <ele>268.4</ele>
        <time>2023-05-27T13:37:05Z</time>
      </trkpt>
      <trkpt lat="43.45615" lon="2.0549">
        <ele>268.4</ele>
        <time>2023-05-27T13:37:06Z</time>
      </trkpt>
      <trkpt lat="43.45618" lon="2.05489">
        <ele>268.4</ele>
        <time>2023-05-27T13:37:07Z</time>
      </trkpt>
      <trkpt lat="43.45622" lon="2.05488">
        <ele>268.2</ele>
        <time>2023-05-27T13:37:08Z</time>
      </trkpt>
      <trkpt lat="43.45625" lon="2.05488">
        <ele>268.2</ele>
        <time>2023-05-27T13:37:09Z</time>
      </trkpt>
      <trkpt lat="43.45629" lon="2.05488">
        <ele>268.2</ele>
        <time>2023-05-27T13:37:10Z</time>
      </trkpt>
      <trkpt lat="43.45632" lon="2.05488">
        <ele>268.2</ele>
        <time>2023-05-27T13:37:11Z</time>
      </trkpt>
      <trkpt lat="43.45636" lon="2.05488">
        <ele>268.2</ele>
        <time>2023-05-27T13:37:12Z</time>
      </trkpt>
      <trkpt lat="43.45639" lon="2.05489">
        <ele>268.2</ele>
        <time>2023-05-27T13:37:13Z</time>
      </trkpt>
      <trkpt lat="43.45643" lon="2.05489">
        <ele>268.2</ele>
        <time>2023-05-27T13:37:14Z</time>
      </trkpt>
      <trkpt lat="43.45647" lon="2.05489">
        <ele>268</ele>
        <time>2023-05-27T13:37:15Z</time>
      </trkpt>
      <trkpt lat="43.45651" lon="2.05489">
        <ele>268</ele>
        <time>2023-05-27T13:37:16Z</time>
      </trkpt>
      <trkpt lat="43.45655" lon="2.05489">
        <ele>268</ele>
        <time>2023-05-27T13:37:17Z</time>
      </trkpt>
      <trkpt lat="43.45659" lon="2.05489">
        <ele>267.8</ele>
        <time>2023-05-27T13:37:18Z</time>
      </trkpt>
      <trkpt lat="43.45663" lon="2.0549">
        <ele>267.8</ele>
        <time>2023-05-27T13:37:19Z</time>
      </trkpt>
      <trkpt lat="43.45666" lon="2.0549">
        <ele>267.6</ele>
        <time>2023-05-27T13:37:20Z</time>
      </trkpt>
      <trkpt lat="43.4567" lon="2.05491">
        <ele>267.6</ele>
        <time>2023-05-27T13:37:21Z</time>
      </trkpt>
      <trkpt lat="43.45674" lon="2.05491">
        <ele>267.6</ele>
        <time>2023-05-27T13:37:22Z</time>
      </trkpt>
      <trkpt lat="43.45677" lon="2.05492">
        <ele>267.6</ele>
        <time>2023-05-27T13:37:23Z</time>
      </trkpt>
      <trkpt lat="43.45682" lon="2.05494">
        <ele>267.6</ele>
        <time>2023-05-27T13:37:24Z</time>
      </trkpt>
      <trkpt lat="43.45686" lon="2.05496">
        <ele>267.4</ele>
        <time>2023-05-27T13:37:25Z</time>
      </trkpt>
      <trkpt lat="43.45689" lon="2.05498">
        <ele>267.4</ele>
        <time>2023-05-27T13:37:26Z</time>
      </trkpt>
      <trkpt lat="43.45693" lon="2.055">
        <ele>267.4</ele>
        <time>2023-05-27T13:37:27Z</time>
      </trkpt>
      <trkpt lat="43.45697" lon="2.05503">
        <ele>267.4</ele>
        <time>2023-05-27T13:37:28Z</time>
      </trkpt>
      <trkpt lat="43.457" lon="2.05505">
        <ele>267.4</ele>
        <time>2023-05-27T13:37:29Z</time>
      </trkpt>
      <trkpt lat="43.45703" lon="2.05508">
        <ele>267.4</ele>
        <time>2023-05-27T13:37:30Z</time>
      </trkpt>
      <trkpt lat="43.45706" lon="2.05511">
        <ele>267.4</ele>
        <time>2023-05-27T13:37:31Z</time>
      </trkpt>
      <trkpt lat="43.45708" lon="2.05514">
        <ele>267.4</ele>
        <time>2023-05-27T13:37:32Z</time>
      </trkpt>
      <trkpt lat="43.45711" lon="2.05518">
        <ele>267.4</ele>
        <time>2023-05-27T13:37:33Z</time>
      </trkpt>
      <trkpt lat="43.45713" lon="2.05522">
        <ele>267.4</ele>
        <time>2023-05-27T13:37:34Z</time>
      </trkpt>
      <trkpt lat="43.45715" lon="2.05525">
        <ele>267.4</ele>
        <time>2023-05-27T13:37:35Z</time>
      </trkpt>
      <trkpt lat="43.45717" lon="2.05529">
        <ele>267.4</ele>
        <time>2023-05-27T13:37:36Z</time>
      </trkpt>
      <trkpt lat="43.45719" lon="2.05533">
        <ele>267.4</ele>
        <time>2023-05-27T13:37:37Z</time>
      </trkpt>
      <trkpt lat="43.45721" lon="2.05536">
        <ele>267.6</ele>
        <time>2023-05-27T13:37:38Z</time>
      </trkpt>
      <trkpt lat="43.45723" lon="2.05539">
        <ele>267.6</ele>
        <time>2023-05-27T13:37:39Z</time>
      </trkpt>
      <trkpt lat="43.45725" lon="2.05543">
        <ele>267.6</ele>
        <time>2023-05-27T13:37:40Z</time>
      </trkpt>
      <trkpt lat="43.45727" lon="2.05546">
        <ele>267.6</ele>
        <time>2023-05-27T13:37:41Z</time>
      </trkpt>
      <trkpt lat="43.45729" lon="2.0555">
        <ele>267.6</ele>
        <time>2023-05-27T13:37:42Z</time>
      </trkpt>
      <trkpt lat="43.45731" lon="2.05553">
        <ele>267.8</ele>
        <time>2023-05-27T13:37:43Z</time>
      </trkpt>
      <trkpt lat="43.45733" lon="2.05556">
        <ele>267.8</ele>
        <time>2023-05-27T13:37:44Z</time>
      </trkpt>
      <trkpt lat="43.45735" lon="2.05559">
        <ele>267.8</ele>
        <time>2023-05-27T13:37:45Z</time>
      </trkpt>
      <trkpt lat="43.45736" lon="2.05563">
        <ele>267.8</ele>
        <time>2023-05-27T13:37:46Z</time>
      </trkpt>
      <trkpt lat="43.45738" lon="2.05567">
        <ele>267.8</ele>
        <time>2023-05-27T13:37:47Z</time>
      </trkpt>
      <trkpt lat="43.4574" lon="2.05571">
        <ele>267.8</ele>
        <time>2023-05-27T13:37:48Z</time>
      </trkpt>
      <trkpt lat="43.45742" lon="2.05573">
        <ele>267.8</ele>
        <time>2023-05-27T13:37:49Z</time>
      </trkpt>
      <trkpt lat="43.45744" lon="2.05577">
        <ele>267.8</ele>
        <time>2023-05-27T13:37:50Z</time>
      </trkpt>
      <trkpt lat="43.45746" lon="2.0558">
        <ele>268</ele>
        <time>2023-05-27T13:37:51Z</time>
      </trkpt>
      <trkpt lat="43.45749" lon="2.05583">
        <ele>268</ele>
        <time>2023-05-27T13:37:52Z</time>
      </trkpt>
      <trkpt lat="43.45751" lon="2.05586">
        <ele>268</ele>
        <time>2023-05-27T13:37:53Z</time>
      </trkpt>
      <trkpt lat="43.45753" lon="2.05589">
        <ele>268</ele>
        <time>2023-05-27T13:37:54Z</time>
      </trkpt>
      <trkpt lat="43.45755" lon="2.05592">
        <ele>268</ele>
        <time>2023-05-27T13:37:55Z</time>
      </trkpt>
      <trkpt lat="43.45757" lon="2.05596">
        <ele>268</ele>
        <time>2023-05-27T13:37:56Z</time>
      </trkpt>
      <trkpt lat="43.4576" lon="2.05599">
        <ele>268</ele>
        <time>2023-05-27T13:37:57Z</time>
      </trkpt>
      <trkpt lat="43.45762" lon="2.05601">
        <ele>268</ele>
        <time>2023-05-27T13:37:58Z</time>
      </trkpt>
      <trkpt lat="43.45766" lon="2.05604">
        <ele>268</ele>
        <time>2023-05-27T13:37:59Z</time>
      </trkpt>
      <trkpt lat="43.45769" lon="2.05608">
        <ele>268</ele>
        <time>2023-05-27T13:38:00Z</time>
      </trkpt>
      <trkpt lat="43.45772" lon="2.0561">
        <ele>268</ele>
        <time>2023-05-27T13:38:01Z</time>
      </trkpt>
      <trkpt lat="43.45776" lon="2.05613">
        <ele>268</ele>
        <time>2023-05-27T13:38:02Z</time>
      </trkpt>
      <trkpt lat="43.45779" lon="2.05616">
        <ele>268</ele>
        <time>2023-05-27T13:38:03Z</time>
      </trkpt>
      <trkpt lat="43.45783" lon="2.05619">
        <ele>267.8</ele>
        <time>2023-05-27T13:38:04Z</time>
      </trkpt>
      <trkpt lat="43.45786" lon="2.05623">
        <ele>267.8</ele>
        <time>2023-05-27T13:38:05Z</time>
      </trkpt>
      <trkpt lat="43.45789" lon="2.05626">
        <ele>267.8</ele>
        <time>2023-05-27T13:38:06Z</time>
      </trkpt>
      <trkpt lat="43.45792" lon="2.05629">
        <ele>267.6</ele>
        <time>2023-05-27T13:38:07Z</time>
      </trkpt>
      <trkpt lat="43.45796" lon="2.05633">
        <ele>267.6</ele>
        <time>2023-05-27T13:38:08Z</time>
      </trkpt>
      <trkpt lat="43.45799" lon="2.05637">
        <ele>267.6</ele>
        <time>2023-05-27T13:38:09Z</time>
      </trkpt>
      <trkpt lat="43.45803" lon="2.0564">
        <ele>267.6</ele>
        <time>2023-05-27T13:38:10Z</time>
      </trkpt>
      <trkpt lat="43.45806" lon="2.05644">
        <ele>267.4</ele>
        <time>2023-05-27T13:38:11Z</time>
      </trkpt>
      <trkpt lat="43.45809" lon="2.05648">
        <ele>267.4</ele>
        <time>2023-05-27T13:38:12Z</time>
      </trkpt>
      <trkpt lat="43.45812" lon="2.05652">
        <ele>267.4</ele>
        <time>2023-05-27T13:38:13Z</time>
      </trkpt>
      <trkpt lat="43.45816" lon="2.05656">
        <ele>267.4</ele>
        <time>2023-05-27T13:38:14Z</time>
      </trkpt>
      <trkpt lat="43.45819" lon="2.0566">
        <ele>267.4</ele>
        <time>2023-05-27T13:38:15Z</time>
      </trkpt>
      <trkpt lat="43.45821" lon="2.05664">
        <ele>267.4</ele>
        <time>2023-05-27T13:38:16Z</time>
      </trkpt>
      <trkpt lat="43.45824" lon="2.05669">
        <ele>267.4</ele>
        <time>2023-05-27T13:38:17Z</time>
      </trkpt>
      <trkpt lat="43.45827" lon="2.05673">
        <ele>267.4</ele>
        <time>2023-05-27T13:38:18Z</time>
      </trkpt>
      <trkpt lat="43.45829" lon="2.05677">
        <ele>267.4</ele>
        <time>2023-05-27T13:38:19Z</time>
      </trkpt>
      <trkpt lat="43.45832" lon="2.05681">
        <ele>267.4</ele>
        <time>2023-05-27T13:38:20Z</time>
      </trkpt>
      <trkpt lat="43.45834" lon="2.05685">
        <ele>267.4</ele>
        <time>2023-05-27T13:38:21Z</time>
      </trkpt>
      <trkpt lat="43.45837" lon="2.05689">
        <ele>267.6</ele>
        <time>2023-05-27T13:38:22Z</time>
      </trkpt>
      <trkpt lat="43.45839" lon="2.05693">
        <ele>267.6</ele>
        <time>2023-05-27T13:38:23Z</time>
      </trkpt>
      <trkpt lat="43.45841" lon="2.05697">
        <ele>267.6</ele>
        <time>2023-05-27T13:38:24Z</time>
      </trkpt>
      <trkpt lat="43.45844" lon="2.05701">
        <ele>267.6</ele>
        <time>2023-05-27T13:38:25Z</time>
      </trkpt>
      <trkpt lat="43.45846" lon="2.05705">
        <ele>267.6</ele>
        <time>2023-05-27T13:38:26Z</time>
      </trkpt>
      <trkpt lat="43.45849" lon="2.05709">
        <ele>267.6</ele>
        <time>2023-05-27T13:38:27Z</time>
      </trkpt>
      <trkpt lat="43.45851" lon="2.05714">
        <ele>267.8</ele>
        <time>2023-05-27T13:38:28Z</time>
      </trkpt>
      <trkpt lat="43.45853" lon="2.05718">
        <ele>267.8</ele>
        <time>2023-05-27T13:38:29Z</time>
      </trkpt>
      <trkpt lat="43.45855" lon="2.05722">
        <ele>267.8</ele>
        <time>2023-05-27T13:38:30Z</time>
      </trkpt>
      <trkpt lat="43.45857" lon="2.05726">
        <ele>267.8</ele>
        <time>2023-05-27T13:38:31Z</time>
      </trkpt>
      <trkpt lat="43.45859" lon="2.0573">
        <ele>267.8</ele>
        <time>2023-05-27T13:38:32Z</time>
      </trkpt>
      <trkpt lat="43.45861" lon="2.05733">
        <ele>268</ele>
        <time>2023-05-27T13:38:33Z</time>
      </trkpt>
      <trkpt lat="43.45864" lon="2.05738">
        <ele>268</ele>
        <time>2023-05-27T13:38:34Z</time>
      </trkpt>
      <trkpt lat="43.45866" lon="2.05741">
        <ele>268</ele>
        <time>2023-05-27T13:38:35Z</time>
      </trkpt>
      <trkpt lat="43.45868" lon="2.05745">
        <ele>268</ele>
        <time>2023-05-27T13:38:36Z</time>
      </trkpt>
      <trkpt lat="43.4587" lon="2.05749">
        <ele>268.2</ele>
        <time>2023-05-27T13:38:37Z</time>
      </trkpt>
      <trkpt lat="43.45872" lon="2.05753">
        <ele>268.2</ele>
        <time>2023-05-27T13:38:38Z</time>
      </trkpt>
      <trkpt lat="43.45874" lon="2.05757">
        <ele>268.2</ele>
        <time>2023-05-27T13:38:39Z</time>
      </trkpt>
      <trkpt lat="43.45876" lon="2.05761">
        <ele>268.2</ele>
        <time>2023-05-27T13:38:40Z</time>
      </trkpt>
      <trkpt lat="43.45878" lon="2.05765">
        <ele>268.4</ele>
        <time>2023-05-27T13:38:41Z</time>
      </trkpt>
      <trkpt lat="43.4588" lon="2.05768">
        <ele>268.4</ele>
        <time>2023-05-27T13:38:42Z</time>
      </trkpt>
      <trkpt lat="43.45881" lon="2.05772">
        <ele>268.6</ele>
        <time>2023-05-27T13:38:43Z</time>
      </trkpt>
      <trkpt lat="43.45883" lon="2.05775">
        <ele>268.6</ele>
        <time>2023-05-27T13:38:44Z</time>
      </trkpt>
      <trkpt lat="43.45885" lon="2.05779">
        <ele>268.6</ele>
        <time>2023-05-27T13:38:45Z</time>
      </trkpt>
      <trkpt lat="43.45887" lon="2.05782">
        <ele>268.6</ele>
        <time>2023-05-27T13:38:46Z</time>
      </trkpt>
      <trkpt lat="43.45888" lon="2.05786">
        <ele>268.6</ele>
        <time>2023-05-27T13:38:47Z</time>
      </trkpt>
      <trkpt lat="43.4589" lon="2.0579">
        <ele>268.6</ele>
        <time>2023-05-27T13:38:48Z</time>
      </trkpt>
      <trkpt lat="43.45892" lon="2.05794">
        <ele>268.6</ele>
        <time>2023-05-27T13:38:49Z</time>
      </trkpt>
      <trkpt lat="43.45894" lon="2.05797">
        <ele>268.6</ele>
        <time>2023-05-27T13:38:50Z</time>
      </trkpt>
      <trkpt lat="43.45897" lon="2.058">
        <ele>268.6</ele>
        <time>2023-05-27T13:38:51Z</time>
      </trkpt>
      <trkpt lat="43.459" lon="2.05804">
        <ele>268.6</ele>
        <time>2023-05-27T13:38:52Z</time>
      </trkpt>
      <trkpt lat="43.45903" lon="2.05808">
        <ele>268.4</ele>
        <time>2023-05-27T13:38:53Z</time>
      </trkpt>
      <trkpt lat="43.45906" lon="2.05811">
        <ele>268.4</ele>
        <time>2023-05-27T13:38:54Z</time>
      </trkpt>
      <trkpt lat="43.45909" lon="2.05815">
        <ele>268.4</ele>
        <time>2023-05-27T13:38:55Z</time>
      </trkpt>
      <trkpt lat="43.45911" lon="2.05818">
        <ele>268.4</ele>
        <time>2023-05-27T13:38:56Z</time>
      </trkpt>
      <trkpt lat="43.45914" lon="2.05822">
        <ele>268.2</ele>
        <time>2023-05-27T13:38:57Z</time>
      </trkpt>
      <trkpt lat="43.45916" lon="2.05826">
        <ele>268.2</ele>
        <time>2023-05-27T13:38:58Z</time>
      </trkpt>
      <trkpt lat="43.45919" lon="2.0583">
        <ele>268.4</ele>
        <time>2023-05-27T13:38:59Z</time>
      </trkpt>
      <trkpt lat="43.45921" lon="2.05833">
        <ele>268.4</ele>
        <time>2023-05-27T13:39:00Z</time>
      </trkpt>
      <trkpt lat="43.45924" lon="2.05837">
        <ele>268.4</ele>
        <time>2023-05-27T13:39:01Z</time>
      </trkpt>
      <trkpt lat="43.45926" lon="2.05841">
        <ele>268.4</ele>
        <time>2023-05-27T13:39:02Z</time>
      </trkpt>
      <trkpt lat="43.45928" lon="2.05845">
        <ele>268.4</ele>
        <time>2023-05-27T13:39:03Z</time>
      </trkpt>
      <trkpt lat="43.45931" lon="2.05848">
        <ele>268.4</ele>
        <time>2023-05-27T13:39:04Z</time>
      </trkpt>
      <trkpt lat="43.45933" lon="2.05852">
        <ele>268.2</ele>
        <time>2023-05-27T13:39:05Z</time>
      </trkpt>
      <trkpt lat="43.45935" lon="2.05856">
        <ele>268.2</ele>
        <time>2023-05-27T13:39:06Z</time>
      </trkpt>
      <trkpt lat="43.45938" lon="2.0586">
        <ele>268.2</ele>
        <time>2023-05-27T13:39:07Z</time>
      </trkpt>
      <trkpt lat="43.4594" lon="2.05863">
        <ele>268.2</ele>
        <time>2023-05-27T13:39:08Z</time>
      </trkpt>
      <trkpt lat="43.45942" lon="2.05867">
        <ele>268.2</ele>
        <time>2023-05-27T13:39:09Z</time>
      </trkpt>
      <trkpt lat="43.45945" lon="2.05871">
        <ele>268</ele>
        <time>2023-05-27T13:39:10Z</time>
      </trkpt>
      <trkpt lat="43.45947" lon="2.05874">
        <ele>268</ele>
        <time>2023-05-27T13:39:11Z</time>
      </trkpt>
      <trkpt lat="43.45949" lon="2.05878">
        <ele>268</ele>
        <time>2023-05-27T13:39:12Z</time>
      </trkpt>
      <trkpt lat="43.45951" lon="2.05882">
        <ele>268</ele>
        <time>2023-05-27T13:39:13Z</time>
      </trkpt>
      <trkpt lat="43.45954" lon="2.05885">
        <ele>268</ele>
        <time>2023-05-27T13:39:14Z</time>
      </trkpt>
      <trkpt lat="43.45956" lon="2.05889">
        <ele>268</ele>
        <time>2023-05-27T13:39:15Z</time>
      </trkpt>
      <trkpt lat="43.45958" lon="2.05891">
        <ele>268</ele>
        <time>2023-05-27T13:39:16Z</time>
      </trkpt>
      <trkpt lat="43.45961" lon="2.05895">
        <ele>268</ele>
        <time>2023-05-27T13:39:17Z</time>
      </trkpt>
      <trkpt lat="43.45964" lon="2.05899">
        <ele>268</ele>
        <time>2023-05-27T13:39:18Z</time>
      </trkpt>
      <trkpt lat="43.45966" lon="2.05902">
        <ele>268</ele>
        <time>2023-05-27T13:39:19Z</time>
      </trkpt>
      <trkpt lat="43.45969" lon="2.05906">
        <ele>268</ele>
        <time>2023-05-27T13:39:20Z</time>
      </trkpt>
      <trkpt lat="43.45971" lon="2.05909">
        <ele>267.8</ele>
        <time>2023-05-27T13:39:21Z</time>
      </trkpt>
      <trkpt lat="43.45974" lon="2.05913">
        <ele>267.8</ele>
        <time>2023-05-27T13:39:22Z</time>
      </trkpt>
      <trkpt lat="43.45977" lon="2.05916">
        <ele>267.8</ele>
        <time>2023-05-27T13:39:23Z</time>
      </trkpt>
      <trkpt lat="43.45979" lon="2.05919">
        <ele>267.8</ele>
        <time>2023-05-27T13:39:24Z</time>
      </trkpt>
      <trkpt lat="43.45982" lon="2.05922">
        <ele>268</ele>
        <time>2023-05-27T13:39:25Z</time>
      </trkpt>
      <trkpt lat="43.45985" lon="2.05926">
        <ele>268</ele>
        <time>2023-05-27T13:39:26Z</time>
      </trkpt>
      <trkpt lat="43.45987" lon="2.05929">
        <ele>268</ele>
        <time>2023-05-27T13:39:27Z</time>
      </trkpt>
      <trkpt lat="43.4599" lon="2.05932">
        <ele>267.8</ele>
        <time>2023-05-27T13:39:28Z</time>
      </trkpt>
      <trkpt lat="43.45993" lon="2.05935">
        <ele>267.8</ele>
        <time>2023-05-27T13:39:29Z</time>
      </trkpt>
      <trkpt lat="43.45995" lon="2.05939">
        <ele>267.8</ele>
        <time>2023-05-27T13:39:30Z</time>
      </trkpt>
      <trkpt lat="43.45997" lon="2.05942">
        <ele>267.8</ele>
        <time>2023-05-27T13:39:31Z</time>
      </trkpt>
      <trkpt lat="43.46" lon="2.05945">
        <ele>267.8</ele>
        <time>2023-05-27T13:39:32Z</time>
      </trkpt>
      <trkpt lat="43.46003" lon="2.05949">
        <ele>267.8</ele>
        <time>2023-05-27T13:39:33Z</time>
      </trkpt>
      <trkpt lat="43.46005" lon="2.05952">
        <ele>267.6</ele>
        <time>2023-05-27T13:39:34Z</time>
      </trkpt>
      <trkpt lat="43.46008" lon="2.05956">
        <ele>267.6</ele>
        <time>2023-05-27T13:39:35Z</time>
      </trkpt>
      <trkpt lat="43.46011" lon="2.05959">
        <ele>267.6</ele>
        <time>2023-05-27T13:39:36Z</time>
      </trkpt>
      <trkpt lat="43.46015" lon="2.05963">
        <ele>267.6</ele>
        <time>2023-05-27T13:39:37Z</time>
      </trkpt>
      <trkpt lat="43.46018" lon="2.05967">
        <ele>267.6</ele>
        <time>2023-05-27T13:39:38Z</time>
      </trkpt>
      <trkpt lat="43.4602" lon="2.0597">
        <ele>267.4</ele>
        <time>2023-05-27T13:39:39Z</time>
      </trkpt>
      <trkpt lat="43.46023" lon="2.05974">
        <ele>267.4</ele>
        <time>2023-05-27T13:39:40Z</time>
      </trkpt>
      <trkpt lat="43.46026" lon="2.05978">
        <ele>267.4</ele>
        <time>2023-05-27T13:39:41Z</time>
      </trkpt>
      <trkpt lat="43.46029" lon="2.05981">
        <ele>267.4</ele>
        <time>2023-05-27T13:39:42Z</time>
      </trkpt>
      <trkpt lat="43.46032" lon="2.05985">
        <ele>267.4</ele>
        <time>2023-05-27T13:39:43Z</time>
      </trkpt>
      <trkpt lat="43.46035" lon="2.05988">
        <ele>267.4</ele>
        <time>2023-05-27T13:39:44Z</time>
      </trkpt>
      <trkpt lat="43.46037" lon="2.05992">
        <ele>267.4</ele>
        <time>2023-05-27T13:39:45Z</time>
      </trkpt>
      <trkpt lat="43.4604" lon="2.05996">
        <ele>267.4</ele>
        <time>2023-05-27T13:39:46Z</time>
      </trkpt>
      <trkpt lat="43.46042" lon="2.06">
        <ele>267.4</ele>
        <time>2023-05-27T13:39:47Z</time>
      </trkpt>
      <trkpt lat="43.46045" lon="2.06003">
        <ele>267.4</ele>
        <time>2023-05-27T13:39:48Z</time>
      </trkpt>
      <trkpt lat="43.46047" lon="2.06008">
        <ele>267.2</ele>
        <time>2023-05-27T13:39:49Z</time>
      </trkpt>
      <trkpt lat="43.4605" lon="2.06012">
        <ele>267.2</ele>
        <time>2023-05-27T13:39:50Z</time>
      </trkpt>
      <trkpt lat="43.46052" lon="2.06016">
        <ele>267.2</ele>
        <time>2023-05-27T13:39:51Z</time>
      </trkpt>
      <trkpt lat="43.46055" lon="2.0602">
        <ele>267</ele>
        <time>2023-05-27T13:39:52Z</time>
      </trkpt>
      <trkpt lat="43.46057" lon="2.06025">
        <ele>267</ele>
        <time>2023-05-27T13:39:53Z</time>
      </trkpt>
      <trkpt lat="43.46059" lon="2.0603">
        <ele>267</ele>
        <time>2023-05-27T13:39:54Z</time>
      </trkpt>
      <trkpt lat="43.4606" lon="2.06034">
        <ele>267</ele>
        <time>2023-05-27T13:39:55Z</time>
      </trkpt>
      <trkpt lat="43.46062" lon="2.06039">
        <ele>267</ele>
        <time>2023-05-27T13:39:56Z</time>
      </trkpt>
      <trkpt lat="43.46063" lon="2.06044">
        <ele>267</ele>
        <time>2023-05-27T13:39:57Z</time>
      </trkpt>
      <trkpt lat="43.46064" lon="2.06049">
        <ele>266.8</ele>
        <time>2023-05-27T13:39:58Z</time>
      </trkpt>
      <trkpt lat="43.46065" lon="2.06054">
        <ele>266.8</ele>
        <time>2023-05-27T13:39:59Z</time>
      </trkpt>
      <trkpt lat="43.46066" lon="2.06058">
        <ele>266.8</ele>
        <time>2023-05-27T13:40:00Z</time>
      </trkpt>
      <trkpt lat="43.46068" lon="2.06062">
        <ele>266.8</ele>
        <time>2023-05-27T13:40:01Z</time>
      </trkpt>
      <trkpt lat="43.46069" lon="2.06067">
        <ele>266.8</ele>
        <time>2023-05-27T13:40:02Z</time>
      </trkpt>
      <trkpt lat="43.46071" lon="2.06072">
        <ele>266.8</ele>
        <time>2023-05-27T13:40:03Z</time>
      </trkpt>
      <trkpt lat="43.46072" lon="2.06077">
        <ele>266.6</ele>
        <time>2023-05-27T13:40:04Z</time>
      </trkpt>
      <trkpt lat="43.46074" lon="2.06082">
        <ele>266.6</ele>
        <time>2023-05-27T13:40:05Z</time>
      </trkpt>
      <trkpt lat="43.46075" lon="2.06088">
        <ele>266.6</ele>
        <time>2023-05-27T13:40:06Z</time>
      </trkpt>
      <trkpt lat="43.46077" lon="2.06093">
        <ele>266.6</ele>
        <time>2023-05-27T13:40:07Z</time>
      </trkpt>
      <trkpt lat="43.46079" lon="2.06098">
        <ele>266.6</ele>
        <time>2023-05-27T13:40:08Z</time>
      </trkpt>
      <trkpt lat="43.46082" lon="2.06103">
        <ele>266.6</ele>
        <time>2023-05-27T13:40:09Z</time>
      </trkpt>
      <trkpt lat="43.46084" lon="2.06108">
        <ele>266.4</ele>
        <time>2023-05-27T13:40:10Z</time>
      </trkpt>
      <trkpt lat="43.46087" lon="2.06113">
        <ele>266.4</ele>
        <time>2023-05-27T13:40:11Z</time>
      </trkpt>
      <trkpt lat="43.4609" lon="2.06117">
        <ele>266.4</ele>
        <time>2023-05-27T13:40:12Z</time>
      </trkpt>
      <trkpt lat="43.46093" lon="2.0612">
        <ele>266.4</ele>
        <time>2023-05-27T13:40:13Z</time>
      </trkpt>
      <trkpt lat="43.46096" lon="2.06124">
        <ele>266.2</ele>
        <time>2023-05-27T13:40:14Z</time>
      </trkpt>
      <trkpt lat="43.46099" lon="2.06127">
        <ele>266.2</ele>
        <time>2023-05-27T13:40:15Z</time>
      </trkpt>
      <trkpt lat="43.46101" lon="2.06132">
        <ele>266</ele>
        <time>2023-05-27T13:40:16Z</time>
      </trkpt>
      <trkpt lat="43.46104" lon="2.06136">
        <ele>266</ele>
        <time>2023-05-27T13:40:17Z</time>
      </trkpt>
      <trkpt lat="43.46107" lon="2.0614">
        <ele>266</ele>
        <time>2023-05-27T13:40:18Z</time>
      </trkpt>
      <trkpt lat="43.46111" lon="2.06144">
        <ele>265.8</ele>
        <time>2023-05-27T13:40:19Z</time>
      </trkpt>
      <trkpt lat="43.46113" lon="2.06148">
        <ele>265.8</ele>
        <time>2023-05-27T13:40:20Z</time>
      </trkpt>
      <trkpt lat="43.46116" lon="2.06152">
        <ele>265.8</ele>
        <time>2023-05-27T13:40:21Z</time>
      </trkpt>
      <trkpt lat="43.46119" lon="2.06156">
        <ele>265.8</ele>
        <time>2023-05-27T13:40:22Z</time>
      </trkpt>
      <trkpt lat="43.46122" lon="2.0616">
        <ele>265.8</ele>
        <time>2023-05-27T13:40:23Z</time>
      </trkpt>
      <trkpt lat="43.46125" lon="2.06164">
        <ele>265.8</ele>
        <time>2023-05-27T13:40:24Z</time>
      </trkpt>
      <trkpt lat="43.46127" lon="2.06168">
        <ele>265.8</ele>
        <time>2023-05-27T13:40:25Z</time>
      </trkpt>
      <trkpt lat="43.4613" lon="2.06172">
        <ele>265.8</ele>
        <time>2023-05-27T13:40:26Z</time>
      </trkpt>
      <trkpt lat="43.46133" lon="2.06176">
        <ele>265.6</ele>
        <time>2023-05-27T13:40:27Z</time>
      </trkpt>
      <trkpt lat="43.46135" lon="2.0618">
        <ele>265.6</ele>
        <time>2023-05-27T13:40:28Z</time>
      </trkpt>
      <trkpt lat="43.46138" lon="2.06184">
        <ele>265.6</ele>
        <time>2023-05-27T13:40:29Z</time>
      </trkpt>
      <trkpt lat="43.4614" lon="2.06187">
        <ele>265.6</ele>
        <time>2023-05-27T13:40:30Z</time>
      </trkpt>
      <trkpt lat="43.46143" lon="2.06191">
        <ele>265.6</ele>
        <time>2023-05-27T13:40:31Z</time>
      </trkpt>
      <trkpt lat="43.46146" lon="2.06196">
        <ele>265.4</ele>
        <time>2023-05-27T13:40:32Z</time>
      </trkpt>
      <trkpt lat="43.46149" lon="2.062">
        <ele>265.4</ele>
        <time>2023-05-27T13:40:33Z</time>
      </trkpt>
      <trkpt lat="43.46152" lon="2.06204">
        <ele>265.4</ele>
        <time>2023-05-27T13:40:34Z</time>
      </trkpt>
      <trkpt lat="43.46155" lon="2.06207">
        <ele>265.4</ele>
        <time>2023-05-27T13:40:35Z</time>
      </trkpt>
      <trkpt lat="43.46159" lon="2.0621">
        <ele>265.2</ele>
        <time>2023-05-27T13:40:36Z</time>
      </trkpt>
      <trkpt lat="43.46163" lon="2.06213">
        <ele>265.2</ele>
        <time>2023-05-27T13:40:37Z</time>
      </trkpt>
      <trkpt lat="43.46167" lon="2.06215">
        <ele>265</ele>
        <time>2023-05-27T13:40:38Z</time>
      </trkpt>
      <trkpt lat="43.4617" lon="2.06217">
        <ele>265</ele>
        <time>2023-05-27T13:40:39Z</time>
      </trkpt>
      <trkpt lat="43.46174" lon="2.06219">
        <ele>265</ele>
        <time>2023-05-27T13:40:40Z</time>
      </trkpt>
      <trkpt lat="43.46178" lon="2.06221">
        <ele>264.8</ele>
        <time>2023-05-27T13:40:41Z</time>
      </trkpt>
      <trkpt lat="43.46182" lon="2.06222">
        <ele>264.8</ele>
        <time>2023-05-27T13:40:42Z</time>
      </trkpt>
      <trkpt lat="43.46186" lon="2.06223">
        <ele>264.8</ele>
        <time>2023-05-27T13:40:43Z</time>
      </trkpt>
      <trkpt lat="43.4619" lon="2.06224">
        <ele>264.8</ele>
        <time>2023-05-27T13:40:44Z</time>
      </trkpt>
      <trkpt lat="43.46194" lon="2.06225">
        <ele>264.8</ele>
        <time>2023-05-27T13:40:45Z</time>
      </trkpt>
      <trkpt lat="43.46198" lon="2.06227">
        <ele>264.6</ele>
        <time>2023-05-27T13:40:46Z</time>
      </trkpt>
      <trkpt lat="43.46202" lon="2.06228">
        <ele>264.6</ele>
        <time>2023-05-27T13:40:47Z</time>
      </trkpt>
      <trkpt lat="43.46205" lon="2.0623">
        <ele>264.6</ele>
        <time>2023-05-27T13:40:48Z</time>
      </trkpt>
      <trkpt lat="43.46209" lon="2.06232">
        <ele>264.8</ele>
        <time>2023-05-27T13:40:49Z</time>
      </trkpt>
      <trkpt lat="43.46212" lon="2.06234">
        <ele>264.8</ele>
        <time>2023-05-27T13:40:50Z</time>
      </trkpt>
      <trkpt lat="43.46215" lon="2.06236">
        <ele>264.8</ele>
        <time>2023-05-27T13:40:51Z</time>
      </trkpt>
      <trkpt lat="43.46218" lon="2.06239">
        <ele>264.8</ele>
        <time>2023-05-27T13:40:52Z</time>
      </trkpt>
      <trkpt lat="43.46221" lon="2.06241">
        <ele>264.8</ele>
        <time>2023-05-27T13:40:53Z</time>
      </trkpt>
      <trkpt lat="43.46223" lon="2.06244">
        <ele>264.8</ele>
        <time>2023-05-27T13:40:54Z</time>
      </trkpt>
      <trkpt lat="43.46226" lon="2.06247">
        <ele>264.8</ele>
        <time>2023-05-27T13:40:55Z</time>
      </trkpt>
      <trkpt lat="43.46228" lon="2.06249">
        <ele>264.8</ele>
        <time>2023-05-27T13:40:56Z</time>
      </trkpt>
      <trkpt lat="43.4623" lon="2.06251">
        <ele>264.8</ele>
        <time>2023-05-27T13:40:57Z</time>
      </trkpt>
      <trkpt lat="43.46231" lon="2.06254">
        <ele>264.8</ele>
        <time>2023-05-27T13:40:58Z</time>
      </trkpt>
      <trkpt lat="43.46233" lon="2.06256">
        <ele>264.8</ele>
        <time>2023-05-27T13:40:59Z</time>
      </trkpt>
      <trkpt lat="43.46235" lon="2.06258">
        <ele>265</ele>
        <time>2023-05-27T13:41:00Z</time>
      </trkpt>
      <trkpt lat="43.46238" lon="2.06261">
        <ele>265</ele>
        <time>2023-05-27T13:41:01Z</time>
      </trkpt>
      <trkpt lat="43.4624" lon="2.06263">
        <ele>265</ele>
        <time>2023-05-27T13:41:02Z</time>
      </trkpt>
      <trkpt lat="43.46242" lon="2.06265">
        <ele>265</ele>
        <time>2023-05-27T13:41:03Z</time>
      </trkpt>
      <trkpt lat="43.46244" lon="2.06268">
        <ele>265.2</ele>
        <time>2023-05-27T13:41:04Z</time>
      </trkpt>
      <trkpt lat="43.46246" lon="2.0627">
        <ele>265.2</ele>
        <time>2023-05-27T13:41:05Z</time>
      </trkpt>
      <trkpt lat="43.46247" lon="2.06271">
        <ele>265.2</ele>
        <time>2023-05-27T13:41:06Z</time>
      </trkpt>
      <trkpt lat="43.46248" lon="2.06273">
        <ele>265.4</ele>
        <time>2023-05-27T13:41:07Z</time>
      </trkpt>
      <trkpt lat="43.4625" lon="2.06275">
        <ele>265.4</ele>
        <time>2023-05-27T13:41:08Z</time>
      </trkpt>
      <trkpt lat="43.46252" lon="2.06277">
        <ele>265.6</ele>
        <time>2023-05-27T13:41:09Z</time>
      </trkpt>
      <trkpt lat="43.46254" lon="2.06279">
        <ele>265.6</ele>
        <time>2023-05-27T13:41:10Z</time>
      </trkpt>
      <trkpt lat="43.46255" lon="2.0628">
        <ele>265.8</ele>
        <time>2023-05-27T13:41:11Z</time>
      </trkpt>
      <trkpt lat="43.46257" lon="2.06282">
        <ele>265.8</ele>
        <time>2023-05-27T13:41:12Z</time>
      </trkpt>
      <trkpt lat="43.46258" lon="2.06283">
        <ele>266</ele>
        <time>2023-05-27T13:41:13Z</time>
      </trkpt>
      <trkpt lat="43.4626" lon="2.06284">
        <ele>266</ele>
        <time>2023-05-27T13:41:14Z</time>
      </trkpt>
      <trkpt lat="43.46261" lon="2.06285">
        <ele>266.2</ele>
        <time>2023-05-27T13:41:15Z</time>
      </trkpt>
      <trkpt lat="43.46263" lon="2.06287">
        <ele>266.2</ele>
        <time>2023-05-27T13:41:16Z</time>
      </trkpt>
      <trkpt lat="43.46264" lon="2.06289">
        <ele>266.4</ele>
        <time>2023-05-27T13:41:17Z</time>
      </trkpt>
      <trkpt lat="43.46265" lon="2.0629">
        <ele>266.6</ele>
        <time>2023-05-27T13:41:18Z</time>
      </trkpt>
      <trkpt lat="43.46266" lon="2.06292">
        <ele>266.6</ele>
        <time>2023-05-27T13:41:19Z</time>
      </trkpt>
      <trkpt lat="43.46268" lon="2.06293">
        <ele>266.8</ele>
        <time>2023-05-27T13:41:20Z</time>
      </trkpt>
      <trkpt lat="43.46269" lon="2.06295">
        <ele>266.8</ele>
        <time>2023-05-27T13:41:21Z</time>
      </trkpt>
      <trkpt lat="43.4627" lon="2.06296">
        <ele>267</ele>
        <time>2023-05-27T13:41:22Z</time>
      </trkpt>
      <trkpt lat="43.46271" lon="2.06297">
        <ele>267.2</ele>
        <time>2023-05-27T13:41:23Z</time>
      </trkpt>
      <trkpt lat="43.46272" lon="2.06298">
        <ele>267.2</ele>
        <time>2023-05-27T13:41:24Z</time>
      </trkpt>
      <trkpt lat="43.46273" lon="2.063">
        <ele>267.4</ele>
        <time>2023-05-27T13:41:25Z</time>
      </trkpt>
      <trkpt lat="43.46274" lon="2.06302">
        <ele>267.4</ele>
        <time>2023-05-27T13:41:26Z</time>
      </trkpt>
      <trkpt lat="43.46275" lon="2.06303">
        <ele>267.6</ele>
        <time>2023-05-27T13:41:27Z</time>
      </trkpt>
      <trkpt lat="43.46277" lon="2.06304">
        <ele>267.6</ele>
        <time>2023-05-27T13:41:28Z</time>
      </trkpt>
      <trkpt lat="43.46278" lon="2.06305">
        <ele>267.8</ele>
        <time>2023-05-27T13:41:29Z</time>
      </trkpt>
      <trkpt lat="43.4628" lon="2.06306">
        <ele>268</ele>
        <time>2023-05-27T13:41:30Z</time>
      </trkpt>
      <trkpt lat="43.46281" lon="2.06307">
        <ele>268.2</ele>
        <time>2023-05-27T13:41:31Z</time>
      </trkpt>
      <trkpt lat="43.46282" lon="2.06308">
        <ele>268.2</ele>
        <time>2023-05-27T13:41:32Z</time>
      </trkpt>
      <trkpt lat="43.46283" lon="2.0631">
        <ele>268.4</ele>
        <time>2023-05-27T13:41:33Z</time>
      </trkpt>
      <trkpt lat="43.46283" lon="2.06311">
        <ele>268.4</ele>
        <time>2023-05-27T13:41:34Z</time>
      </trkpt>
      <trkpt lat="43.46285" lon="2.06315">
        <ele>269</ele>
        <time>2023-05-27T13:41:43Z</time>
      </trkpt>
      <trkpt lat="43.46286" lon="2.06316">
        <ele>269</ele>
        <time>2023-05-27T13:41:44Z</time>
      </trkpt>
      <trkpt lat="43.46286" lon="2.06317">
        <ele>269</ele>
        <time>2023-05-27T13:41:45Z</time>
      </trkpt>
      <trkpt lat="43.46287" lon="2.06318">
        <ele>269</ele>
        <time>2023-05-27T13:41:46Z</time>
      </trkpt>
      <trkpt lat="43.46287" lon="2.06319">
        <ele>269.2</ele>
        <time>2023-05-27T13:41:47Z</time>
      </trkpt>
      <trkpt lat="43.46288" lon="2.06321">
        <ele>269.2</ele>
        <time>2023-05-27T13:41:48Z</time>
      </trkpt>
      <trkpt lat="43.46288" lon="2.06322">
        <ele>269.4</ele>
        <time>2023-05-27T13:41:49Z</time>
      </trkpt>
      <trkpt lat="43.46289" lon="2.06323">
        <ele>269.4</ele>
        <time>2023-05-27T13:41:50Z</time>
      </trkpt>
      <trkpt lat="43.46289" lon="2.06325">
        <ele>269.4</ele>
        <time>2023-05-27T13:41:51Z</time>
      </trkpt>
      <trkpt lat="43.4629" lon="2.06326">
        <ele>269.6</ele>
        <time>2023-05-27T13:41:52Z</time>
      </trkpt>
      <trkpt lat="43.4629" lon="2.06328">
        <ele>269.8</ele>
        <time>2023-05-27T13:41:53Z</time>
      </trkpt>
      <trkpt lat="43.4629" lon="2.06329">
        <ele>269.8</ele>
        <time>2023-05-27T13:41:54Z</time>
      </trkpt>
      <trkpt lat="43.4629" lon="2.06331">
        <ele>270</ele>
        <time>2023-05-27T13:41:55Z</time>
      </trkpt>
      <trkpt lat="43.46291" lon="2.06332">
        <ele>270.2</ele>
        <time>2023-05-27T13:41:56Z</time>
      </trkpt>
      <trkpt lat="43.46291" lon="2.06333">
        <ele>270.2</ele>
        <time>2023-05-27T13:41:57Z</time>
      </trkpt>
      <trkpt lat="43.46291" lon="2.06334">
        <ele>270.4</ele>
        <time>2023-05-27T13:41:58Z</time>
      </trkpt>
      <trkpt lat="43.46291" lon="2.06335">
        <ele>270.6</ele>
        <time>2023-05-27T13:41:59Z</time>
      </trkpt>
      <trkpt lat="43.46291" lon="2.06336">
        <ele>270.6</ele>
        <time>2023-05-27T13:42:00Z</time>
      </trkpt>
      <trkpt lat="43.46292" lon="2.06338">
        <ele>270.8</ele>
        <time>2023-05-27T13:42:01Z</time>
      </trkpt>
      <trkpt lat="43.46292" lon="2.06339">
        <ele>270.8</ele>
        <time>2023-05-27T13:42:02Z</time>
      </trkpt>
      <trkpt lat="43.46292" lon="2.0634">
        <ele>271</ele>
        <time>2023-05-27T13:42:03Z</time>
      </trkpt>
      <trkpt lat="43.46292" lon="2.06341">
        <ele>271.2</ele>
        <time>2023-05-27T13:42:04Z</time>
      </trkpt>
      <trkpt lat="43.46292" lon="2.06342">
        <ele>271.4</ele>
        <time>2023-05-27T13:42:05Z</time>
      </trkpt>
      <trkpt lat="43.46292" lon="2.06343">
        <ele>271.4</ele>
        <time>2023-05-27T13:42:06Z</time>
      </trkpt>
      <trkpt lat="43.46292" lon="2.06344">
        <ele>271.6</ele>
        <time>2023-05-27T13:42:07Z</time>
      </trkpt>
      <trkpt lat="43.46292" lon="2.06345">
        <ele>271.6</ele>
        <time>2023-05-27T13:42:08Z</time>
      </trkpt>
      <trkpt lat="43.46292" lon="2.06346">
        <ele>271.8</ele>
        <time>2023-05-27T13:42:09Z</time>
      </trkpt>
      <trkpt lat="43.46292" lon="2.06347">
        <ele>272</ele>
        <time>2023-05-27T13:42:10Z</time>
      </trkpt>
      <trkpt lat="43.46292" lon="2.06348">
        <ele>272.2</ele>
        <time>2023-05-27T13:42:11Z</time>
      </trkpt>
      <trkpt lat="43.46292" lon="2.06349">
        <ele>272.2</ele>
        <time>2023-05-27T13:42:12Z</time>
      </trkpt>
      <trkpt lat="43.46292" lon="2.06351">
        <ele>272.4</ele>
        <time>2023-05-27T13:42:13Z</time>
      </trkpt>
      <trkpt lat="43.46292" lon="2.06352">
        <ele>272.6</ele>
        <time>2023-05-27T13:42:14Z</time>
      </trkpt>
      <trkpt lat="43.46292" lon="2.06353">
        <ele>272.8</ele>
        <time>2023-05-27T13:42:15Z</time>
      </trkpt>
      <trkpt lat="43.46292" lon="2.06353">
        <ele>272.8</ele>
        <time>2023-05-27T13:42:16Z</time>
      </trkpt>
      <trkpt lat="43.46292" lon="2.06354">
        <ele>273</ele>
        <time>2023-05-27T13:42:17Z</time>
      </trkpt>
      <trkpt lat="43.46291" lon="2.06355">
        <ele>273.2</ele>
        <time>2023-05-27T13:42:18Z</time>
      </trkpt>
      <trkpt lat="43.46291" lon="2.06357">
        <ele>273.2</ele>
        <time>2023-05-27T13:42:19Z</time>
      </trkpt>
      <trkpt lat="43.46291" lon="2.06358">
        <ele>273.4</ele>
        <time>2023-05-27T13:42:20Z</time>
      </trkpt>
      <trkpt lat="43.46291" lon="2.06359">
        <ele>273.4</ele>
        <time>2023-05-27T13:42:21Z</time>
      </trkpt>
      <trkpt lat="43.4629" lon="2.0636">
        <ele>273.6</ele>
        <time>2023-05-27T13:42:22Z</time>
      </trkpt>
      <trkpt lat="43.4629" lon="2.06361">
        <ele>273.8</ele>
        <time>2023-05-27T13:42:23Z</time>
      </trkpt>
      <trkpt lat="43.4629" lon="2.06362">
        <ele>273.8</ele>
        <time>2023-05-27T13:42:24Z</time>
      </trkpt>
      <trkpt lat="43.46289" lon="2.06363">
        <ele>274</ele>
        <time>2023-05-27T13:42:25Z</time>
      </trkpt>
      <trkpt lat="43.46289" lon="2.06364">
        <ele>274</ele>
        <time>2023-05-27T13:42:26Z</time>
      </trkpt>
      <trkpt lat="43.46289" lon="2.06365">
        <ele>274.2</ele>
        <time>2023-05-27T13:42:27Z</time>
      </trkpt>
      <trkpt lat="43.46288" lon="2.06366">
        <ele>274.4</ele>
        <time>2023-05-27T13:42:28Z</time>
      </trkpt>
      <trkpt lat="43.46288" lon="2.06368">
        <ele>274.4</ele>
        <time>2023-05-27T13:42:29Z</time>
      </trkpt>
      <trkpt lat="43.46288" lon="2.06369">
        <ele>274.6</ele>
        <time>2023-05-27T13:42:30Z</time>
      </trkpt>
      <trkpt lat="43.46287" lon="2.0637">
        <ele>274.8</ele>
        <time>2023-05-27T13:42:31Z</time>
      </trkpt>
      <trkpt lat="43.46287" lon="2.06371">
        <ele>274.8</ele>
        <time>2023-05-27T13:42:32Z</time>
      </trkpt>
      <trkpt lat="43.46287" lon="2.06372">
        <ele>275</ele>
        <time>2023-05-27T13:42:33Z</time>
      </trkpt>
      <trkpt lat="43.46286" lon="2.06373">
        <ele>275.2</ele>
        <time>2023-05-27T13:42:34Z</time>
      </trkpt>
      <trkpt lat="43.46286" lon="2.06375">
        <ele>275.2</ele>
        <time>2023-05-27T13:42:35Z</time>
      </trkpt>
      <trkpt lat="43.46285" lon="2.06376">
        <ele>275.4</ele>
        <time>2023-05-27T13:42:36Z</time>
      </trkpt>
      <trkpt lat="43.46285" lon="2.06377">
        <ele>275.4</ele>
        <time>2023-05-27T13:42:37Z</time>
      </trkpt>
      <trkpt lat="43.46284" lon="2.06378">
        <ele>275.6</ele>
        <time>2023-05-27T13:42:38Z</time>
      </trkpt>
      <trkpt lat="43.46284" lon="2.06379">
        <ele>275.6</ele>
        <time>2023-05-27T13:42:39Z</time>
      </trkpt>
      <trkpt lat="43.46283" lon="2.0638">
        <ele>275.8</ele>
        <time>2023-05-27T13:42:40Z</time>
      </trkpt>
      <trkpt lat="43.46283" lon="2.06381">
        <ele>275.8</ele>
        <time>2023-05-27T13:42:41Z</time>
      </trkpt>
      <trkpt lat="43.46282" lon="2.06382">
        <ele>276</ele>
        <time>2023-05-27T13:42:42Z</time>
      </trkpt>
      <trkpt lat="43.46282" lon="2.06383">
        <ele>276</ele>
        <time>2023-05-27T13:42:43Z</time>
      </trkpt>
      <trkpt lat="43.46281" lon="2.06384">
        <ele>276.2</ele>
        <time>2023-05-27T13:42:44Z</time>
      </trkpt>
      <trkpt lat="43.46281" lon="2.06384">
        <ele>276.2</ele>
        <time>2023-05-27T13:42:45Z</time>
      </trkpt>
      <trkpt lat="43.46283" lon="2.06392">
        <ele>276.6</ele>
        <time>2023-05-27T13:45:09Z</time>
      </trkpt>
      <trkpt lat="43.46284" lon="2.06393">
        <ele>276.6</ele>
        <time>2023-05-27T13:45:10Z</time>
      </trkpt>
      <trkpt lat="43.46284" lon="2.06394">
        <ele>276.6</ele>
        <time>2023-05-27T13:45:11Z</time>
      </trkpt>
      <trkpt lat="43.46285" lon="2.06396">
        <ele>276.6</ele>
        <time>2023-05-27T13:45:12Z</time>
      </trkpt>
      <trkpt lat="43.46286" lon="2.06397">
        <ele>276.6</ele>
        <time>2023-05-27T13:45:13Z</time>
      </trkpt>
      <trkpt lat="43.46286" lon="2.06398">
        <ele>276.8</ele>
        <time>2023-05-27T13:45:14Z</time>
      </trkpt>
      <trkpt lat="43.46287" lon="2.06399">
        <ele>276.8</ele>
        <time>2023-05-27T13:45:15Z</time>
      </trkpt>
      <trkpt lat="43.46288" lon="2.064">
        <ele>276.8</ele>
        <time>2023-05-27T13:45:16Z</time>
      </trkpt>
      <trkpt lat="43.46288" lon="2.06402">
        <ele>277</ele>
        <time>2023-05-27T13:45:17Z</time>
      </trkpt>
      <trkpt lat="43.46289" lon="2.06403">
        <ele>277</ele>
        <time>2023-05-27T13:45:18Z</time>
      </trkpt>
      <trkpt lat="43.4629" lon="2.06404">
        <ele>277.2</ele>
        <time>2023-05-27T13:45:19Z</time>
      </trkpt>
      <trkpt lat="43.46291" lon="2.06405">
        <ele>277.2</ele>
        <time>2023-05-27T13:45:20Z</time>
      </trkpt>
      <trkpt lat="43.46291" lon="2.06406">
        <ele>277.4</ele>
        <time>2023-05-27T13:45:21Z</time>
      </trkpt>
      <trkpt lat="43.46292" lon="2.06407">
        <ele>277.4</ele>
        <time>2023-05-27T13:45:22Z</time>
      </trkpt>
      <trkpt lat="43.46293" lon="2.06408">
        <ele>277.6</ele>
        <time>2023-05-27T13:45:23Z</time>
      </trkpt>
      <trkpt lat="43.46294" lon="2.06409">
        <ele>277.6</ele>
        <time>2023-05-27T13:45:24Z</time>
      </trkpt>
      <trkpt lat="43.46295" lon="2.0641">
        <ele>277.8</ele>
        <time>2023-05-27T13:45:25Z</time>
      </trkpt>
      <trkpt lat="43.46296" lon="2.06412">
        <ele>277.8</ele>
        <time>2023-05-27T13:45:26Z</time>
      </trkpt>
      <trkpt lat="43.46296" lon="2.06413">
        <ele>277.8</ele>
        <time>2023-05-27T13:45:27Z</time>
      </trkpt>
      <trkpt lat="43.46297" lon="2.06414">
        <ele>277.8</ele>
        <time>2023-05-27T13:45:28Z</time>
      </trkpt>
      <trkpt lat="43.46298" lon="2.06416">
        <ele>277.8</ele>
        <time>2023-05-27T13:45:29Z</time>
      </trkpt>
      <trkpt lat="43.46299" lon="2.06417">
        <ele>278</ele>
        <time>2023-05-27T13:45:30Z</time>
      </trkpt>
      <trkpt lat="43.46299" lon="2.06418">
        <ele>278</ele>
        <time>2023-05-27T13:45:31Z</time>
      </trkpt>
      <trkpt lat="43.463" lon="2.0642">
        <ele>278</ele>
        <time>2023-05-27T13:45:32Z</time>
      </trkpt>
      <trkpt lat="43.46301" lon="2.06421">
        <ele>278</ele>
        <time>2023-05-27T13:45:33Z</time>
      </trkpt>
      <trkpt lat="43.46301" lon="2.06423">
        <ele>278</ele>
        <time>2023-05-27T13:45:34Z</time>
      </trkpt>
      <trkpt lat="43.46303" lon="2.06424">
        <ele>278</ele>
        <time>2023-05-27T13:45:35Z</time>
      </trkpt>
      <trkpt lat="43.46304" lon="2.06425">
        <ele>278</ele>
        <time>2023-05-27T13:45:36Z</time>
      </trkpt>
      <trkpt lat="43.46304" lon="2.06426">
        <ele>278</ele>
        <time>2023-05-27T13:45:37Z</time>
      </trkpt>
      <trkpt lat="43.46306" lon="2.06427">
        <ele>278</ele>
        <time>2023-05-27T13:45:38Z</time>
      </trkpt>
      <trkpt lat="43.46307" lon="2.06428">
        <ele>278</ele>
        <time>2023-05-27T13:45:39Z</time>
      </trkpt>
      <trkpt lat="43.46308" lon="2.0643">
        <ele>278</ele>
        <time>2023-05-27T13:45:40Z</time>
      </trkpt>
      <trkpt lat="43.46309" lon="2.06431">
        <ele>278</ele>
        <time>2023-05-27T13:45:41Z</time>
      </trkpt>
      <trkpt lat="43.4631" lon="2.06432">
        <ele>278</ele>
        <time>2023-05-27T13:45:42Z</time>
      </trkpt>
      <trkpt lat="43.46311" lon="2.06433">
        <ele>278</ele>
        <time>2023-05-27T13:45:43Z</time>
      </trkpt>
      <trkpt lat="43.46312" lon="2.06434">
        <ele>278</ele>
        <time>2023-05-27T13:45:44Z</time>
      </trkpt>
      <trkpt lat="43.46312" lon="2.06435">
        <ele>278</ele>
        <time>2023-05-27T13:45:45Z</time>
      </trkpt>
      <trkpt lat="43.46313" lon="2.06436">
        <ele>278</ele>
        <time>2023-05-27T13:45:46Z</time>
      </trkpt>
      <trkpt lat="43.46314" lon="2.06438">
        <ele>278</ele>
        <time>2023-05-27T13:45:47Z</time>
      </trkpt>
      <trkpt lat="43.46315" lon="2.06439">
        <ele>278</ele>
        <time>2023-05-27T13:45:48Z</time>
      </trkpt>
      <trkpt lat="43.46316" lon="2.0644">
        <ele>278</ele>
        <time>2023-05-27T13:45:49Z</time>
      </trkpt>
      <trkpt lat="43.46317" lon="2.06441">
        <ele>277.8</ele>
        <time>2023-05-27T13:45:50Z</time>
      </trkpt>
      <trkpt lat="43.46317" lon="2.06442">
        <ele>277.8</ele>
        <time>2023-05-27T13:45:51Z</time>
      </trkpt>
      <trkpt lat="43.46318" lon="2.06443">
        <ele>277.8</ele>
        <time>2023-05-27T13:45:52Z</time>
      </trkpt>
      <trkpt lat="43.46319" lon="2.06444">
        <ele>277.8</ele>
        <time>2023-05-27T13:45:53Z</time>
      </trkpt>
      <trkpt lat="43.4632" lon="2.06445">
        <ele>277.6</ele>
        <time>2023-05-27T13:45:54Z</time>
      </trkpt>
      <trkpt lat="43.4632" lon="2.06446">
        <ele>277.6</ele>
        <time>2023-05-27T13:45:55Z</time>
      </trkpt>
      <trkpt lat="43.46321" lon="2.06447">
        <ele>277.6</ele>
        <time>2023-05-27T13:45:56Z</time>
      </trkpt>
      <trkpt lat="43.46323" lon="2.06448">
        <ele>277.6</ele>
        <time>2023-05-27T13:45:57Z</time>
      </trkpt>
      <trkpt lat="43.46323" lon="2.06449">
        <ele>277.4</ele>
        <time>2023-05-27T13:45:58Z</time>
      </trkpt>
      <trkpt lat="43.46324" lon="2.0645">
        <ele>277.4</ele>
        <time>2023-05-27T13:45:59Z</time>
      </trkpt>
      <trkpt lat="43.46325" lon="2.06451">
        <ele>277.4</ele>
        <time>2023-05-27T13:46:00Z</time>
      </trkpt>
      <trkpt lat="43.46325" lon="2.06451">
        <ele>277.4</ele>
        <time>2023-05-27T13:46:01Z</time>
      </trkpt>
      <trkpt lat="43.46326" lon="2.06452">
        <ele>277.2</ele>
        <time>2023-05-27T13:46:02Z</time>
      </trkpt>
      <trkpt lat="43.46326" lon="2.06452">
        <ele>277.2</ele>
        <time>2023-05-27T13:46:03Z</time>
      </trkpt>
      <trkpt lat="43.46326" lon="2.06452">
        <ele>277.2</ele>
        <time>2023-05-27T13:46:04Z</time>
      </trkpt>
      <trkpt lat="43.46326" lon="2.06452">
        <ele>277.2</ele>
        <time>2023-05-27T13:46:05Z</time>
      </trkpt>
      <trkpt lat="43.46326" lon="2.06452">
        <ele>277.2</ele>
        <time>2023-05-27T13:46:06Z</time>
      </trkpt>
      <trkpt lat="43.46327" lon="2.06454">
        <ele>277.2</ele>
        <time>2023-05-27T13:47:21Z</time>
      </trkpt>
      <trkpt lat="43.46329" lon="2.06455">
        <ele>277.2</ele>
        <time>2023-05-27T13:47:22Z</time>
      </trkpt>
      <trkpt lat="43.4633" lon="2.06457">
        <ele>277</ele>
        <time>2023-05-27T13:47:23Z</time>
      </trkpt>
      <trkpt lat="43.46332" lon="2.06459">
        <ele>277</ele>
        <time>2023-05-27T13:47:24Z</time>
      </trkpt>
      <trkpt lat="43.46334" lon="2.06462">
        <ele>277</ele>
        <time>2023-05-27T13:47:25Z</time>
      </trkpt>
      <trkpt lat="43.46337" lon="2.06465">
        <ele>276.8</ele>
        <time>2023-05-27T13:47:26Z</time>
      </trkpt>
      <trkpt lat="43.46339" lon="2.06469">
        <ele>276.6</ele>
        <time>2023-05-27T13:47:27Z</time>
      </trkpt>
      <trkpt lat="43.46343" lon="2.06473">
        <ele>276.4</ele>
        <time>2023-05-27T13:47:28Z</time>
      </trkpt>
      <trkpt lat="43.46347" lon="2.06476">
        <ele>276.2</ele>
        <time>2023-05-27T13:47:29Z</time>
      </trkpt>
      <trkpt lat="43.46352" lon="2.06481">
        <ele>275.8</ele>
        <time>2023-05-27T13:47:30Z</time>
      </trkpt>
      <trkpt lat="43.46357" lon="2.06485">
        <ele>275.6</ele>
        <time>2023-05-27T13:47:31Z</time>
      </trkpt>
      <trkpt lat="43.46363" lon="2.06491">
        <ele>275.2</ele>
        <time>2023-05-27T13:47:32Z</time>
      </trkpt>
      <trkpt lat="43.46369" lon="2.06497">
        <ele>274.6</ele>
        <time>2023-05-27T13:47:33Z</time>
      </trkpt>
      <trkpt lat="43.46376" lon="2.06505">
        <ele>274</ele>
        <time>2023-05-27T13:47:34Z</time>
      </trkpt>
      <trkpt lat="43.46383" lon="2.06513">
        <ele>273.6</ele>
        <time>2023-05-27T13:47:35Z</time>
      </trkpt>
      <trkpt lat="43.46389" lon="2.0652">
        <ele>273</ele>
        <time>2023-05-27T13:47:36Z</time>
      </trkpt>
      <trkpt lat="43.46396" lon="2.06527">
        <ele>272.6</ele>
        <time>2023-05-27T13:47:37Z</time>
      </trkpt>
      <trkpt lat="43.46403" lon="2.06534">
        <ele>272.2</ele>
        <time>2023-05-27T13:47:38Z</time>
      </trkpt>
      <trkpt lat="43.4641" lon="2.06542">
        <ele>271.6</ele>
        <time>2023-05-27T13:47:39Z</time>
      </trkpt>
      <trkpt lat="43.46418" lon="2.06551">
        <ele>271</ele>
        <time>2023-05-27T13:47:40Z</time>
      </trkpt>
      <trkpt lat="43.46424" lon="2.06559">
        <ele>270.4</ele>
        <time>2023-05-27T13:47:41Z</time>
      </trkpt>
      <trkpt lat="43.4643" lon="2.06567">
        <ele>269.8</ele>
        <time>2023-05-27T13:47:42Z</time>
      </trkpt>
      <trkpt lat="43.46437" lon="2.06575">
        <ele>269.4</ele>
        <time>2023-05-27T13:47:43Z</time>
      </trkpt>
      <trkpt lat="43.46444" lon="2.06583">
        <ele>269</ele>
        <time>2023-05-27T13:47:44Z</time>
      </trkpt>
      <trkpt lat="43.4645" lon="2.06591">
        <ele>268.6</ele>
        <time>2023-05-27T13:47:45Z</time>
      </trkpt>
      <trkpt lat="43.46457" lon="2.06599">
        <ele>268.2</ele>
        <time>2023-05-27T13:47:46Z</time>
      </trkpt>
      <trkpt lat="43.46463" lon="2.06606">
        <ele>267.8</ele>
        <time>2023-05-27T13:47:47Z</time>
      </trkpt>
      <trkpt lat="43.4647" lon="2.06614">
        <ele>267.6</ele>
        <time>2023-05-27T13:47:48Z</time>
      </trkpt>
      <trkpt lat="43.46475" lon="2.06621">
        <ele>267.4</ele>
        <time>2023-05-27T13:47:49Z</time>
      </trkpt>
      <trkpt lat="43.46481" lon="2.06628">
        <ele>267.2</ele>
        <time>2023-05-27T13:47:50Z</time>
      </trkpt>
      <trkpt lat="43.46486" lon="2.06634">
        <ele>267</ele>
        <time>2023-05-27T13:47:51Z</time>
      </trkpt>
      <trkpt lat="43.46491" lon="2.0664">
        <ele>266.8</ele>
        <time>2023-05-27T13:47:52Z</time>
      </trkpt>
      <trkpt lat="43.46496" lon="2.06646">
        <ele>266.8</ele>
        <time>2023-05-27T13:47:53Z</time>
      </trkpt>
      <trkpt lat="43.46501" lon="2.06652">
        <ele>266.8</ele>
        <time>2023-05-27T13:47:54Z</time>
      </trkpt>
      <trkpt lat="43.46506" lon="2.06657">
        <ele>266.8</ele>
        <time>2023-05-27T13:47:55Z</time>
      </trkpt>
      <trkpt lat="43.4651" lon="2.06662">
        <ele>266.8</ele>
        <time>2023-05-27T13:47:56Z</time>
      </trkpt>
      <trkpt lat="43.46515" lon="2.06666">
        <ele>266.8</ele>
        <time>2023-05-27T13:47:57Z</time>
      </trkpt>
      <trkpt lat="43.46519" lon="2.06671">
        <ele>266.8</ele>
        <time>2023-05-27T13:47:58Z</time>
      </trkpt>
      <trkpt lat="43.46522" lon="2.06674">
        <ele>266.8</ele>
        <time>2023-05-27T13:47:59Z</time>
      </trkpt>
      <trkpt lat="43.46525" lon="2.06677">
        <ele>267</ele>
        <time>2023-05-27T13:48:00Z</time>
      </trkpt>
      <trkpt lat="43.46529" lon="2.0668">
        <ele>267</ele>
        <time>2023-05-27T13:48:01Z</time>
      </trkpt>
      <trkpt lat="43.46532" lon="2.06682">
        <ele>267</ele>
        <time>2023-05-27T13:48:02Z</time>
      </trkpt>
      <trkpt lat="43.46535" lon="2.06685">
        <ele>267.2</ele>
        <time>2023-05-27T13:48:03Z</time>
      </trkpt>
      <trkpt lat="43.46538" lon="2.06688">
        <ele>267.2</ele>
        <time>2023-05-27T13:48:04Z</time>
      </trkpt>
      <trkpt lat="43.4654" lon="2.0669">
        <ele>267.4</ele>
        <time>2023-05-27T13:48:05Z</time>
      </trkpt>
      <trkpt lat="43.46543" lon="2.06693">
        <ele>267.4</ele>
        <time>2023-05-27T13:48:06Z</time>
      </trkpt>
      <trkpt lat="43.46546" lon="2.06696">
        <ele>267.6</ele>
        <time>2023-05-27T13:48:07Z</time>
      </trkpt>
      <trkpt lat="43.46548" lon="2.06698">
        <ele>267.6</ele>
        <time>2023-05-27T13:48:08Z</time>
      </trkpt>
      <trkpt lat="43.46551" lon="2.067">
        <ele>267.8</ele>
        <time>2023-05-27T13:48:09Z</time>
      </trkpt>
      <trkpt lat="43.46553" lon="2.06702">
        <ele>268</ele>
        <time>2023-05-27T13:48:10Z</time>
      </trkpt>
      <trkpt lat="43.46555" lon="2.06704">
        <ele>268</ele>
        <time>2023-05-27T13:48:11Z</time>
      </trkpt>
      <trkpt lat="43.46557" lon="2.06705">
        <ele>268.2</ele>
        <time>2023-05-27T13:48:12Z</time>
      </trkpt>
      <trkpt lat="43.46559" lon="2.06707">
        <ele>268.4</ele>
        <time>2023-05-27T13:48:13Z</time>
      </trkpt>
      <trkpt lat="43.46561" lon="2.06709">
        <ele>268.4</ele>
        <time>2023-05-27T13:48:14Z</time>
      </trkpt>
      <trkpt lat="43.46563" lon="2.06711">
        <ele>268.6</ele>
        <time>2023-05-27T13:48:15Z</time>
      </trkpt>
      <trkpt lat="43.46565" lon="2.06712">
        <ele>268.6</ele>
        <time>2023-05-27T13:48:16Z</time>
      </trkpt>
      <trkpt lat="43.46567" lon="2.06714">
        <ele>268.8</ele>
        <time>2023-05-27T13:48:17Z</time>
      </trkpt>
      <trkpt lat="43.46569" lon="2.06716">
        <ele>268.8</ele>
        <time>2023-05-27T13:48:18Z</time>
      </trkpt>
      <trkpt lat="43.46572" lon="2.06719">
        <ele>268.8</ele>
        <time>2023-05-27T13:48:19Z</time>
      </trkpt>
      <trkpt lat="43.46574" lon="2.06721">
        <ele>268.8</ele>
        <time>2023-05-27T13:48:20Z</time>
      </trkpt>
      <trkpt lat="43.46576" lon="2.06724">
        <ele>268.8</ele>
        <time>2023-05-27T13:48:21Z</time>
      </trkpt>
      <trkpt lat="43.46579" lon="2.06727">
        <ele>268.8</ele>
        <time>2023-05-27T13:48:22Z</time>
      </trkpt>
      <trkpt lat="43.46582" lon="2.06729">
        <ele>268.8</ele>
        <time>2023-05-27T13:48:23Z</time>
      </trkpt>
      <trkpt lat="43.46585" lon="2.06733">
        <ele>268.8</ele>
        <time>2023-05-27T13:48:24Z</time>
      </trkpt>
      <trkpt lat="43.46588" lon="2.06736">
        <ele>268.8</ele>
        <time>2023-05-27T13:48:25Z</time>
      </trkpt>
      <trkpt lat="43.4659" lon="2.06738">
        <ele>268.6</ele>
        <time>2023-05-27T13:48:26Z</time>
      </trkpt>
      <trkpt lat="43.46593" lon="2.06741">
        <ele>268.6</ele>
        <time>2023-05-27T13:48:27Z</time>
      </trkpt>
      <trkpt lat="43.46596" lon="2.06744">
        <ele>268.6</ele>
        <time>2023-05-27T13:48:28Z</time>
      </trkpt>
      <trkpt lat="43.46599" lon="2.06747">
        <ele>268.6</ele>
        <time>2023-05-27T13:48:29Z</time>
      </trkpt>
      <trkpt lat="43.46602" lon="2.0675">
        <ele>268.6</ele>
        <time>2023-05-27T13:48:30Z</time>
      </trkpt>
      <trkpt lat="43.46605" lon="2.06752">
        <ele>268.4</ele>
        <time>2023-05-27T13:48:31Z</time>
      </trkpt>
      <trkpt lat="43.46607" lon="2.06755">
        <ele>268.4</ele>
        <time>2023-05-27T13:48:32Z</time>
      </trkpt>
      <trkpt lat="43.4661" lon="2.06758">
        <ele>268.4</ele>
        <time>2023-05-27T13:48:33Z</time>
      </trkpt>
      <trkpt lat="43.46614" lon="2.06762">
        <ele>268.2</ele>
        <time>2023-05-27T13:48:34Z</time>
      </trkpt>
      <trkpt lat="43.46617" lon="2.06764">
        <ele>268.2</ele>
        <time>2023-05-27T13:48:35Z</time>
      </trkpt>
      <trkpt lat="43.4662" lon="2.06767">
        <ele>268.2</ele>
        <time>2023-05-27T13:48:36Z</time>
      </trkpt>
      <trkpt lat="43.46623" lon="2.0677">
        <ele>268.4</ele>
        <time>2023-05-27T13:48:37Z</time>
      </trkpt>
      <trkpt lat="43.46626" lon="2.06772">
        <ele>268.4</ele>
        <time>2023-05-27T13:48:38Z</time>
      </trkpt>
      <trkpt lat="43.46629" lon="2.06775">
        <ele>268.2</ele>
        <time>2023-05-27T13:48:39Z</time>
      </trkpt>
      <trkpt lat="43.46632" lon="2.06777">
        <ele>268.4</ele>
        <time>2023-05-27T13:48:40Z</time>
      </trkpt>
      <trkpt lat="43.46634" lon="2.06779">
        <ele>268.4</ele>
        <time>2023-05-27T13:48:41Z</time>
      </trkpt>
      <trkpt lat="43.46637" lon="2.06781">
        <ele>268.4</ele>
        <time>2023-05-27T13:48:42Z</time>
      </trkpt>
      <trkpt lat="43.4664" lon="2.06783">
        <ele>268.4</ele>
        <time>2023-05-27T13:48:43Z</time>
      </trkpt>
      <trkpt lat="43.46643" lon="2.06784">
        <ele>268.4</ele>
        <time>2023-05-27T13:48:44Z</time>
      </trkpt>
      <trkpt lat="43.46646" lon="2.06785">
        <ele>268.6</ele>
        <time>2023-05-27T13:48:45Z</time>
      </trkpt>
      <trkpt lat="43.46649" lon="2.06786">
        <ele>268.6</ele>
        <time>2023-05-27T13:48:46Z</time>
      </trkpt>
      <trkpt lat="43.46652" lon="2.06787">
        <ele>268.6</ele>
        <time>2023-05-27T13:48:47Z</time>
      </trkpt>
      <trkpt lat="43.46655" lon="2.06787">
        <ele>268.8</ele>
        <time>2023-05-27T13:48:48Z</time>
      </trkpt>
      <trkpt lat="43.46657" lon="2.06787">
        <ele>268.8</ele>
        <time>2023-05-27T13:48:49Z</time>
      </trkpt>
      <trkpt lat="43.4666" lon="2.06787">
        <ele>268.8</ele>
        <time>2023-05-27T13:48:50Z</time>
      </trkpt>
      <trkpt lat="43.46663" lon="2.06786">
        <ele>268.8</ele>
        <time>2023-05-27T13:48:51Z</time>
      </trkpt>
      <trkpt lat="43.46665" lon="2.06786">
        <ele>268.8</ele>
        <time>2023-05-27T13:48:52Z</time>
      </trkpt>
      <trkpt lat="43.46667" lon="2.06785">
        <ele>269</ele>
        <time>2023-05-27T13:48:53Z</time>
      </trkpt>
      <trkpt lat="43.4667" lon="2.06784">
        <ele>269</ele>
        <time>2023-05-27T13:48:54Z</time>
      </trkpt>
      <trkpt lat="43.46672" lon="2.06782">
        <ele>269</ele>
        <time>2023-05-27T13:48:55Z</time>
      </trkpt>
      <trkpt lat="43.46674" lon="2.06781">
        <ele>269</ele>
        <time>2023-05-27T13:48:56Z</time>
      </trkpt>
      <trkpt lat="43.46676" lon="2.0678">
        <ele>269</ele>
        <time>2023-05-27T13:48:57Z</time>
      </trkpt>
      <trkpt lat="43.46678" lon="2.06779">
        <ele>269.2</ele>
        <time>2023-05-27T13:48:58Z</time>
      </trkpt>
      <trkpt lat="43.4668" lon="2.06778">
        <ele>269.2</ele>
        <time>2023-05-27T13:48:59Z</time>
      </trkpt>
      <trkpt lat="43.46682" lon="2.06777">
        <ele>269.2</ele>
        <time>2023-05-27T13:49:00Z</time>
      </trkpt>
      <trkpt lat="43.46684" lon="2.06775">
        <ele>269.4</ele>
        <time>2023-05-27T13:49:01Z</time>
      </trkpt>
      <trkpt lat="43.46685" lon="2.06774">
        <ele>269.4</ele>
        <time>2023-05-27T13:49:02Z</time>
      </trkpt>
      <trkpt lat="43.46686" lon="2.06773">
        <ele>269.4</ele>
        <time>2023-05-27T13:49:03Z</time>
      </trkpt>
      <trkpt lat="43.46688" lon="2.06772">
        <ele>269.6</ele>
        <time>2023-05-27T13:49:04Z</time>
      </trkpt>
      <trkpt lat="43.46689" lon="2.06771">
        <ele>269.6</ele>
        <time>2023-05-27T13:49:05Z</time>
      </trkpt>
      <trkpt lat="43.46691" lon="2.0677">
        <ele>269.8</ele>
        <time>2023-05-27T13:49:06Z</time>
      </trkpt>
      <trkpt lat="43.46692" lon="2.06769">
        <ele>270</ele>
        <time>2023-05-27T13:49:07Z</time>
      </trkpt>
      <trkpt lat="43.46694" lon="2.06769">
        <ele>270</ele>
        <time>2023-05-27T13:49:08Z</time>
      </trkpt>
      <trkpt lat="43.46696" lon="2.06768">
        <ele>270.2</ele>
        <time>2023-05-27T13:49:09Z</time>
      </trkpt>
      <trkpt lat="43.46698" lon="2.06767">
        <ele>270.2</ele>
        <time>2023-05-27T13:49:10Z</time>
      </trkpt>
      <trkpt lat="43.46699" lon="2.06767">
        <ele>270.4</ele>
        <time>2023-05-27T13:49:11Z</time>
      </trkpt>
      <trkpt lat="43.46701" lon="2.06766">
        <ele>270.4</ele>
        <time>2023-05-27T13:49:12Z</time>
      </trkpt>
      <trkpt lat="43.46703" lon="2.06765">
        <ele>270.6</ele>
        <time>2023-05-27T13:49:13Z</time>
      </trkpt>
      <trkpt lat="43.46705" lon="2.06764">
        <ele>270.6</ele>
        <time>2023-05-27T13:49:14Z</time>
      </trkpt>
      <trkpt lat="43.46706" lon="2.06763">
        <ele>270.8</ele>
        <time>2023-05-27T13:49:15Z</time>
      </trkpt>
      <trkpt lat="43.46708" lon="2.06762">
        <ele>270.8</ele>
        <time>2023-05-27T13:49:16Z</time>
      </trkpt>
      <trkpt lat="43.4671" lon="2.06761">
        <ele>271</ele>
        <time>2023-05-27T13:49:17Z</time>
      </trkpt>
      <trkpt lat="43.46711" lon="2.0676">
        <ele>271</ele>
        <time>2023-05-27T13:49:18Z</time>
      </trkpt>
      <trkpt lat="43.46713" lon="2.06759">
        <ele>271.2</ele>
        <time>2023-05-27T13:49:19Z</time>
      </trkpt>
      <trkpt lat="43.46715" lon="2.06758">
        <ele>271.2</ele>
        <time>2023-05-27T13:49:20Z</time>
      </trkpt>
      <trkpt lat="43.46717" lon="2.06757">
        <ele>271.4</ele>
        <time>2023-05-27T13:49:21Z</time>
      </trkpt>
      <trkpt lat="43.46718" lon="2.06757">
        <ele>271.4</ele>
        <time>2023-05-27T13:49:22Z</time>
      </trkpt>
      <trkpt lat="43.4672" lon="2.06756">
        <ele>271.4</ele>
        <time>2023-05-27T13:49:23Z</time>
      </trkpt>
      <trkpt lat="43.46722" lon="2.06756">
        <ele>271.6</ele>
        <time>2023-05-27T13:49:24Z</time>
      </trkpt>
      <trkpt lat="43.46724" lon="2.06755">
        <ele>271.6</ele>
        <time>2023-05-27T13:49:25Z</time>
      </trkpt>
      <trkpt lat="43.46726" lon="2.06754">
        <ele>271.6</ele>
        <time>2023-05-27T13:49:26Z</time>
      </trkpt>
      <trkpt lat="43.46728" lon="2.06753">
        <ele>271.8</ele>
        <time>2023-05-27T13:49:27Z</time>
      </trkpt>
      <trkpt lat="43.4673" lon="2.06753">
        <ele>271.8</ele>
        <time>2023-05-27T13:49:28Z</time>
      </trkpt>
      <trkpt lat="43.46732" lon="2.06752">
        <ele>271.8</ele>
        <time>2023-05-27T13:49:29Z</time>
      </trkpt>
      <trkpt lat="43.46734" lon="2.06751">
        <ele>272</ele>
        <time>2023-05-27T13:49:30Z</time>
      </trkpt>
      <trkpt lat="43.46736" lon="2.06751">
        <ele>272</ele>
        <time>2023-05-27T13:49:31Z</time>
      </trkpt>
      <trkpt lat="43.46738" lon="2.0675">
        <ele>272</ele>
        <time>2023-05-27T13:49:32Z</time>
      </trkpt>
      <trkpt lat="43.4674" lon="2.0675">
        <ele>272</ele>
        <time>2023-05-27T13:49:33Z</time>
      </trkpt>
      <trkpt lat="43.46742" lon="2.06749">
        <ele>272</ele>
        <time>2023-05-27T13:49:34Z</time>
      </trkpt>
      <trkpt lat="43.46744" lon="2.06749">
        <ele>272.2</ele>
        <time>2023-05-27T13:49:35Z</time>
      </trkpt>
      <trkpt lat="43.46746" lon="2.06748">
        <ele>272.2</ele>
        <time>2023-05-27T13:49:36Z</time>
      </trkpt>
      <trkpt lat="43.46749" lon="2.06748">
        <ele>272.2</ele>
        <time>2023-05-27T13:49:37Z</time>
      </trkpt>
      <trkpt lat="43.46751" lon="2.06747">
        <ele>272.2</ele>
        <time>2023-05-27T13:49:38Z</time>
      </trkpt>
      <trkpt lat="43.46754" lon="2.06747">
        <ele>272.2</ele>
        <time>2023-05-27T13:49:39Z</time>
      </trkpt>
      <trkpt lat="43.46756" lon="2.06746">
        <ele>272.2</ele>
        <time>2023-05-27T13:49:40Z</time>
      </trkpt>
      <trkpt lat="43.46758" lon="2.06745">
        <ele>272.2</ele>
        <time>2023-05-27T13:49:41Z</time>
      </trkpt>
      <trkpt lat="43.4676" lon="2.06745">
        <ele>272.2</ele>
        <time>2023-05-27T13:49:42Z</time>
      </trkpt>
      <trkpt lat="43.46763" lon="2.06744">
        <ele>272.2</ele>
        <time>2023-05-27T13:49:43Z</time>
      </trkpt>
      <trkpt lat="43.46766" lon="2.06744">
        <ele>272.2</ele>
        <time>2023-05-27T13:49:44Z</time>
      </trkpt>
      <trkpt lat="43.46769" lon="2.06743">
        <ele>272.2</ele>
        <time>2023-05-27T13:49:45Z</time>
      </trkpt>
      <trkpt lat="43.46772" lon="2.06743">
        <ele>272.2</ele>
        <time>2023-05-27T13:49:46Z</time>
      </trkpt>
      <trkpt lat="43.46775" lon="2.06742">
        <ele>272.2</ele>
        <time>2023-05-27T13:49:47Z</time>
      </trkpt>
      <trkpt lat="43.46778" lon="2.06741">
        <ele>272.2</ele>
        <time>2023-05-27T13:49:48Z</time>
      </trkpt>
      <trkpt lat="43.46781" lon="2.06741">
        <ele>272.2</ele>
        <time>2023-05-27T13:49:49Z</time>
      </trkpt>
      <trkpt lat="43.46784" lon="2.0674">
        <ele>272.2</ele>
        <time>2023-05-27T13:49:50Z</time>
      </trkpt>
      <trkpt lat="43.46787" lon="2.0674">
        <ele>272.2</ele>
        <time>2023-05-27T13:49:51Z</time>
      </trkpt>
      <trkpt lat="43.4679" lon="2.06739">
        <ele>272.2</ele>
        <time>2023-05-27T13:49:52Z</time>
      </trkpt>
      <trkpt lat="43.46793" lon="2.06737">
        <ele>272.2</ele>
        <time>2023-05-27T13:49:53Z</time>
      </trkpt>
      <trkpt lat="43.46796" lon="2.06736">
        <ele>272.2</ele>
        <time>2023-05-27T13:49:54Z</time>
      </trkpt>
      <trkpt lat="43.46799" lon="2.06735">
        <ele>272.2</ele>
        <time>2023-05-27T13:49:55Z</time>
      </trkpt>
      <trkpt lat="43.46803" lon="2.06734">
        <ele>272</ele>
        <time>2023-05-27T13:49:56Z</time>
      </trkpt>
      <trkpt lat="43.46806" lon="2.06733">
        <ele>272</ele>
        <time>2023-05-27T13:49:57Z</time>
      </trkpt>
      <trkpt lat="43.46809" lon="2.06732">
        <ele>272</ele>
        <time>2023-05-27T13:49:58Z</time>
      </trkpt>
      <trkpt lat="43.46812" lon="2.0673">
        <ele>272</ele>
        <time>2023-05-27T13:49:59Z</time>
      </trkpt>
      <trkpt lat="43.46816" lon="2.06729">
        <ele>272</ele>
        <time>2023-05-27T13:50:00Z</time>
      </trkpt>
      <trkpt lat="43.46819" lon="2.06727">
        <ele>272</ele>
        <time>2023-05-27T13:50:01Z</time>
      </trkpt>
      <trkpt lat="43.46822" lon="2.06726">
        <ele>272</ele>
        <time>2023-05-27T13:50:02Z</time>
      </trkpt>
      <trkpt lat="43.46825" lon="2.06725">
        <ele>271.8</ele>
        <time>2023-05-27T13:50:03Z</time>
      </trkpt>
      <trkpt lat="43.46828" lon="2.06723">
        <ele>271.8</ele>
        <time>2023-05-27T13:50:04Z</time>
      </trkpt>
      <trkpt lat="43.46832" lon="2.06722">
        <ele>271.8</ele>
        <time>2023-05-27T13:50:05Z</time>
      </trkpt>
      <trkpt lat="43.46835" lon="2.0672">
        <ele>271.8</ele>
        <time>2023-05-27T13:50:06Z</time>
      </trkpt>
      <trkpt lat="43.46838" lon="2.06719">
        <ele>271.8</ele>
        <time>2023-05-27T13:50:07Z</time>
      </trkpt>
      <trkpt lat="43.46841" lon="2.06717">
        <ele>271.8</ele>
        <time>2023-05-27T13:50:08Z</time>
      </trkpt>
      <trkpt lat="43.46844" lon="2.06715">
        <ele>271.8</ele>
        <time>2023-05-27T13:50:09Z</time>
      </trkpt>
      <trkpt lat="43.46847" lon="2.06713">
        <ele>271.8</ele>
        <time>2023-05-27T13:50:10Z</time>
      </trkpt>
      <trkpt lat="43.4685" lon="2.06711">
        <ele>271.8</ele>
        <time>2023-05-27T13:50:11Z</time>
      </trkpt>
      <trkpt lat="43.46853" lon="2.06709">
        <ele>271.8</ele>
        <time>2023-05-27T13:50:12Z</time>
      </trkpt>
      <trkpt lat="43.46856" lon="2.06708">
        <ele>271.8</ele>
        <time>2023-05-27T13:50:13Z</time>
      </trkpt>
      <trkpt lat="43.4686" lon="2.06706">
        <ele>271.8</ele>
        <time>2023-05-27T13:50:14Z</time>
      </trkpt>
      <trkpt lat="43.46863" lon="2.06704">
        <ele>271.8</ele>
        <time>2023-05-27T13:50:15Z</time>
      </trkpt>
      <trkpt lat="43.46865" lon="2.06702">
        <ele>271.8</ele>
        <time>2023-05-27T13:50:16Z</time>
      </trkpt>
      <trkpt lat="43.46869" lon="2.067">
        <ele>271.8</ele>
        <time>2023-05-27T13:50:17Z</time>
      </trkpt>
      <trkpt lat="43.46872" lon="2.06698">
        <ele>271.8</ele>
        <time>2023-05-27T13:50:18Z</time>
      </trkpt>
      <trkpt lat="43.46875" lon="2.06696">
        <ele>271.8</ele>
        <time>2023-05-27T13:50:19Z</time>
      </trkpt>
      <trkpt lat="43.46878" lon="2.06695">
        <ele>271.8</ele>
        <time>2023-05-27T13:50:20Z</time>
      </trkpt>
      <trkpt lat="43.46881" lon="2.06693">
        <ele>271.8</ele>
        <time>2023-05-27T13:50:21Z</time>
      </trkpt>
      <trkpt lat="43.46885" lon="2.06691">
        <ele>271.8</ele>
        <time>2023-05-27T13:50:22Z</time>
      </trkpt>
      <trkpt lat="43.46888" lon="2.06689">
        <ele>271.8</ele>
        <time>2023-05-27T13:50:23Z</time>
      </trkpt>
      <trkpt lat="43.46892" lon="2.06686">
        <ele>271.6</ele>
        <time>2023-05-27T13:50:24Z</time>
      </trkpt>
      <trkpt lat="43.46894" lon="2.06685">
        <ele>271.6</ele>
        <time>2023-05-27T13:50:25Z</time>
      </trkpt>
      <trkpt lat="43.46897" lon="2.06682">
        <ele>271.6</ele>
        <time>2023-05-27T13:50:26Z</time>
      </trkpt>
      <trkpt lat="43.46901" lon="2.0668">
        <ele>271.6</ele>
        <time>2023-05-27T13:50:27Z</time>
      </trkpt>
      <trkpt lat="43.46904" lon="2.06678">
        <ele>271.6</ele>
        <time>2023-05-27T13:50:28Z</time>
      </trkpt>
      <trkpt lat="43.46908" lon="2.06676">
        <ele>271.6</ele>
        <time>2023-05-27T13:50:29Z</time>
      </trkpt>
      <trkpt lat="43.46911" lon="2.06674">
        <ele>271.4</ele>
        <time>2023-05-27T13:50:30Z</time>
      </trkpt>
      <trkpt lat="43.46914" lon="2.06672">
        <ele>271.4</ele>
        <time>2023-05-27T13:50:31Z</time>
      </trkpt>
      <trkpt lat="43.46919" lon="2.0667">
        <ele>271.4</ele>
        <time>2023-05-27T13:50:32Z</time>
      </trkpt>
      <trkpt lat="43.46922" lon="2.06668">
        <ele>271.4</ele>
        <time>2023-05-27T13:50:33Z</time>
      </trkpt>
      <trkpt lat="43.46926" lon="2.06666">
        <ele>271.2</ele>
        <time>2023-05-27T13:50:34Z</time>
      </trkpt>
      <trkpt lat="43.46929" lon="2.06663">
        <ele>271.2</ele>
        <time>2023-05-27T13:50:35Z</time>
      </trkpt>
      <trkpt lat="43.46933" lon="2.06661">
        <ele>271.2</ele>
        <time>2023-05-27T13:50:36Z</time>
      </trkpt>
      <trkpt lat="43.46937" lon="2.06658">
        <ele>271.2</ele>
        <time>2023-05-27T13:50:37Z</time>
      </trkpt>
      <trkpt lat="43.46941" lon="2.06656">
        <ele>271.2</ele>
        <time>2023-05-27T13:50:38Z</time>
      </trkpt>
      <trkpt lat="43.46944" lon="2.06653">
        <ele>271</ele>
        <time>2023-05-27T13:50:39Z</time>
      </trkpt>
      <trkpt lat="43.46948" lon="2.06651">
        <ele>271</ele>
        <time>2023-05-27T13:50:40Z</time>
      </trkpt>
      <trkpt lat="43.46952" lon="2.06649">
        <ele>271</ele>
        <time>2023-05-27T13:50:41Z</time>
      </trkpt>
      <trkpt lat="43.46956" lon="2.06646">
        <ele>271</ele>
        <time>2023-05-27T13:50:42Z</time>
      </trkpt>
      <trkpt lat="43.46959" lon="2.06644">
        <ele>271</ele>
        <time>2023-05-27T13:50:43Z</time>
      </trkpt>
      <trkpt lat="43.46963" lon="2.06641">
        <ele>270.8</ele>
        <time>2023-05-27T13:50:44Z</time>
      </trkpt>
      <trkpt lat="43.46967" lon="2.06639">
        <ele>270.8</ele>
        <time>2023-05-27T13:50:45Z</time>
      </trkpt>
      <trkpt lat="43.46971" lon="2.06636">
        <ele>270.8</ele>
        <time>2023-05-27T13:50:46Z</time>
      </trkpt>
      <trkpt lat="43.46975" lon="2.06634">
        <ele>270.8</ele>
        <time>2023-05-27T13:50:47Z</time>
      </trkpt>
      <trkpt lat="43.46978" lon="2.06632">
        <ele>270.6</ele>
        <time>2023-05-27T13:50:48Z</time>
      </trkpt>
      <trkpt lat="43.46983" lon="2.06629">
        <ele>270.6</ele>
        <time>2023-05-27T13:50:49Z</time>
      </trkpt>
      <trkpt lat="43.46987" lon="2.06627">
        <ele>270.6</ele>
        <time>2023-05-27T13:50:50Z</time>
      </trkpt>
      <trkpt lat="43.46991" lon="2.06625">
        <ele>270.6</ele>
        <time>2023-05-27T13:50:51Z</time>
      </trkpt>
      <trkpt lat="43.46995" lon="2.06624">
        <ele>270.4</ele>
        <time>2023-05-27T13:50:52Z</time>
      </trkpt>
      <trkpt lat="43.46999" lon="2.06623">
        <ele>270.4</ele>
        <time>2023-05-27T13:50:53Z</time>
      </trkpt>
      <trkpt lat="43.47003" lon="2.06623">
        <ele>270.4</ele>
        <time>2023-05-27T13:50:54Z</time>
      </trkpt>
      <trkpt lat="43.47008" lon="2.06623">
        <ele>270.4</ele>
        <time>2023-05-27T13:50:55Z</time>
      </trkpt>
      <trkpt lat="43.47012" lon="2.06625">
        <ele>270.2</ele>
        <time>2023-05-27T13:50:56Z</time>
      </trkpt>
      <trkpt lat="43.47016" lon="2.06626">
        <ele>270.2</ele>
        <time>2023-05-27T13:50:57Z</time>
      </trkpt>
      <trkpt lat="43.47021" lon="2.06629">
        <ele>270.2</ele>
        <time>2023-05-27T13:50:58Z</time>
      </trkpt>
      <trkpt lat="43.47025" lon="2.06632">
        <ele>270.2</ele>
        <time>2023-05-27T13:50:59Z</time>
      </trkpt>
      <trkpt lat="43.47028" lon="2.06634">
        <ele>270.2</ele>
        <time>2023-05-27T13:51:00Z</time>
      </trkpt>
      <trkpt lat="43.47032" lon="2.06638">
        <ele>270</ele>
        <time>2023-05-27T13:51:01Z</time>
      </trkpt>
      <trkpt lat="43.47035" lon="2.06641">
        <ele>270</ele>
        <time>2023-05-27T13:51:02Z</time>
      </trkpt>
      <trkpt lat="43.47039" lon="2.06645">
        <ele>270</ele>
        <time>2023-05-27T13:51:03Z</time>
      </trkpt>
      <trkpt lat="43.47043" lon="2.06648">
        <ele>270</ele>
        <time>2023-05-27T13:51:04Z</time>
      </trkpt>
      <trkpt lat="43.47047" lon="2.06652">
        <ele>269.8</ele>
        <time>2023-05-27T13:51:05Z</time>
      </trkpt>
      <trkpt lat="43.4705" lon="2.06654">
        <ele>269.8</ele>
        <time>2023-05-27T13:51:06Z</time>
      </trkpt>
      <trkpt lat="43.47054" lon="2.06657">
        <ele>269.8</ele>
        <time>2023-05-27T13:51:07Z</time>
      </trkpt>
      <trkpt lat="43.47059" lon="2.0666">
        <ele>269.8</ele>
        <time>2023-05-27T13:51:08Z</time>
      </trkpt>
      <trkpt lat="43.47063" lon="2.06662">
        <ele>269.8</ele>
        <time>2023-05-27T13:51:09Z</time>
      </trkpt>
      <trkpt lat="43.47067" lon="2.06663">
        <ele>269.6</ele>
        <time>2023-05-27T13:51:10Z</time>
      </trkpt>
      <trkpt lat="43.47071" lon="2.06665">
        <ele>269.6</ele>
        <time>2023-05-27T13:51:11Z</time>
      </trkpt>
      <trkpt lat="43.47075" lon="2.06666">
        <ele>269.6</ele>
        <time>2023-05-27T13:51:12Z</time>
      </trkpt>
      <trkpt lat="43.4708" lon="2.06666">
        <ele>269.6</ele>
        <time>2023-05-27T13:51:13Z</time>
      </trkpt>
      <trkpt lat="43.47084" lon="2.06667">
        <ele>269.4</ele>
        <time>2023-05-27T13:51:14Z</time>
      </trkpt>
      <trkpt lat="43.4709" lon="2.06667">
        <ele>269.4</ele>
        <time>2023-05-27T13:51:15Z</time>
      </trkpt>
      <trkpt lat="43.47094" lon="2.06667">
        <ele>269.4</ele>
        <time>2023-05-27T13:51:16Z</time>
      </trkpt>
      <trkpt lat="43.471" lon="2.06667">
        <ele>269.2</ele>
        <time>2023-05-27T13:51:17Z</time>
      </trkpt>
      <trkpt lat="43.47105" lon="2.06667">
        <ele>269.2</ele>
        <time>2023-05-27T13:51:18Z</time>
      </trkpt>
      <trkpt lat="43.4711" lon="2.06667">
        <ele>269</ele>
        <time>2023-05-27T13:51:19Z</time>
      </trkpt>
      <trkpt lat="43.47116" lon="2.06667">
        <ele>269</ele>
        <time>2023-05-27T13:51:20Z</time>
      </trkpt>
      <trkpt lat="43.47121" lon="2.06667">
        <ele>269</ele>
        <time>2023-05-27T13:51:21Z</time>
      </trkpt>
      <trkpt lat="43.47126" lon="2.06667">
        <ele>268.8</ele>
        <time>2023-05-27T13:51:22Z</time>
      </trkpt>
      <trkpt lat="43.47131" lon="2.06667">
        <ele>268.8</ele>
        <time>2023-05-27T13:51:23Z</time>
      </trkpt>
      <trkpt lat="43.47136" lon="2.06666">
        <ele>268.8</ele>
        <time>2023-05-27T13:51:24Z</time>
      </trkpt>
      <trkpt lat="43.47141" lon="2.06666">
        <ele>268.6</ele>
        <time>2023-05-27T13:51:25Z</time>
      </trkpt>
      <trkpt lat="43.47148" lon="2.06666">
        <ele>268.6</ele>
        <time>2023-05-27T13:51:26Z</time>
      </trkpt>
      <trkpt lat="43.47153" lon="2.06666">
        <ele>268.4</ele>
        <time>2023-05-27T13:51:27Z</time>
      </trkpt>
      <trkpt lat="43.47157" lon="2.06666">
        <ele>268.4</ele>
        <time>2023-05-27T13:51:28Z</time>
      </trkpt>
      <trkpt lat="43.47163" lon="2.06666">
        <ele>268.2</ele>
        <time>2023-05-27T13:51:29Z</time>
      </trkpt>
      <trkpt lat="43.47169" lon="2.06667">
        <ele>268.2</ele>
        <time>2023-05-27T13:51:30Z</time>
      </trkpt>
      <trkpt lat="43.47173" lon="2.06667">
        <ele>268</ele>
        <time>2023-05-27T13:51:31Z</time>
      </trkpt>
      <trkpt lat="43.47178" lon="2.06667">
        <ele>268</ele>
        <time>2023-05-27T13:51:32Z</time>
      </trkpt>
      <trkpt lat="43.47183" lon="2.06667">
        <ele>268</ele>
        <time>2023-05-27T13:51:33Z</time>
      </trkpt>
      <trkpt lat="43.47188" lon="2.06666">
        <ele>268</ele>
        <time>2023-05-27T13:51:34Z</time>
      </trkpt>
      <trkpt lat="43.47194" lon="2.06666">
        <ele>267.8</ele>
        <time>2023-05-27T13:51:35Z</time>
      </trkpt>
      <trkpt lat="43.47198" lon="2.06665">
        <ele>267.8</ele>
        <time>2023-05-27T13:51:36Z</time>
      </trkpt>
      <trkpt lat="43.47204" lon="2.06664">
        <ele>267.6</ele>
        <time>2023-05-27T13:51:37Z</time>
      </trkpt>
      <trkpt lat="43.47209" lon="2.06663">
        <ele>267.6</ele>
        <time>2023-05-27T13:51:38Z</time>
      </trkpt>
      <trkpt lat="43.47213" lon="2.06662">
        <ele>267.6</ele>
        <time>2023-05-27T13:51:39Z</time>
      </trkpt>
      <trkpt lat="43.47218" lon="2.06661">
        <ele>267.4</ele>
        <time>2023-05-27T13:51:40Z</time>
      </trkpt>
      <trkpt lat="43.47223" lon="2.0666">
        <ele>267.4</ele>
        <time>2023-05-27T13:51:41Z</time>
      </trkpt>
      <trkpt lat="43.47228" lon="2.06659">
        <ele>267.4</ele>
        <time>2023-05-27T13:51:42Z</time>
      </trkpt>
      <trkpt lat="43.47233" lon="2.06657">
        <ele>267.4</ele>
        <time>2023-05-27T13:51:43Z</time>
      </trkpt>
      <trkpt lat="43.47237" lon="2.06655">
        <ele>267.2</ele>
        <time>2023-05-27T13:51:44Z</time>
      </trkpt>
      <trkpt lat="43.47242" lon="2.06653">
        <ele>267.2</ele>
        <time>2023-05-27T13:51:45Z</time>
      </trkpt>
      <trkpt lat="43.47247" lon="2.06651">
        <ele>267.2</ele>
        <time>2023-05-27T13:51:46Z</time>
      </trkpt>
      <trkpt lat="43.47251" lon="2.06649">
        <ele>267</ele>
        <time>2023-05-27T13:51:47Z</time>
      </trkpt>
      <trkpt lat="43.47257" lon="2.06647">
        <ele>267</ele>
        <time>2023-05-27T13:51:48Z</time>
      </trkpt>
      <trkpt lat="43.47261" lon="2.06645">
        <ele>267</ele>
        <time>2023-05-27T13:51:49Z</time>
      </trkpt>
      <trkpt lat="43.47266" lon="2.06643">
        <ele>266.8</ele>
        <time>2023-05-27T13:51:50Z</time>
      </trkpt>
      <trkpt lat="43.47271" lon="2.0664">
        <ele>266.8</ele>
        <time>2023-05-27T13:51:51Z</time>
      </trkpt>
      <trkpt lat="43.47276" lon="2.06638">
        <ele>266.8</ele>
        <time>2023-05-27T13:51:52Z</time>
      </trkpt>
      <trkpt lat="43.4728" lon="2.06636">
        <ele>266.8</ele>
        <time>2023-05-27T13:51:53Z</time>
      </trkpt>
      <trkpt lat="43.47285" lon="2.06634">
        <ele>266.6</ele>
        <time>2023-05-27T13:51:54Z</time>
      </trkpt>
      <trkpt lat="43.4729" lon="2.06631">
        <ele>266.6</ele>
        <time>2023-05-27T13:51:55Z</time>
      </trkpt>
      <trkpt lat="43.47296" lon="2.06629">
        <ele>266.4</ele>
        <time>2023-05-27T13:51:56Z</time>
      </trkpt>
      <trkpt lat="43.47301" lon="2.06626">
        <ele>266.4</ele>
        <time>2023-05-27T13:51:57Z</time>
      </trkpt>
      <trkpt lat="43.47306" lon="2.06624">
        <ele>266.4</ele>
        <time>2023-05-27T13:51:58Z</time>
      </trkpt>
      <trkpt lat="43.47311" lon="2.06622">
        <ele>266.2</ele>
        <time>2023-05-27T13:51:59Z</time>
      </trkpt>
      <trkpt lat="43.47317" lon="2.06619">
        <ele>266.2</ele>
        <time>2023-05-27T13:52:00Z</time>
      </trkpt>
      <trkpt lat="43.47321" lon="2.06617">
        <ele>266.2</ele>
        <time>2023-05-27T13:52:01Z</time>
      </trkpt>
      <trkpt lat="43.47326" lon="2.06615">
        <ele>266</ele>
        <time>2023-05-27T13:52:02Z</time>
      </trkpt>
      <trkpt lat="43.47331" lon="2.06613">
        <ele>265.8</ele>
        <time>2023-05-27T13:52:03Z</time>
      </trkpt>
      <trkpt lat="43.47336" lon="2.06611">
        <ele>265.8</ele>
        <time>2023-05-27T13:52:04Z</time>
      </trkpt>
      <trkpt lat="43.47342" lon="2.06608">
        <ele>265.6</ele>
        <time>2023-05-27T13:52:05Z</time>
      </trkpt>
      <trkpt lat="43.47346" lon="2.06605">
        <ele>265.4</ele>
        <time>2023-05-27T13:52:06Z</time>
      </trkpt>
      <trkpt lat="43.47352" lon="2.06602">
        <ele>265.2</ele>
        <time>2023-05-27T13:52:07Z</time>
      </trkpt>
      <trkpt lat="43.47359" lon="2.06599">
        <ele>265.2</ele>
        <time>2023-05-27T13:52:08Z</time>
      </trkpt>
      <trkpt lat="43.47365" lon="2.06595">
        <ele>265</ele>
        <time>2023-05-27T13:52:09Z</time>
      </trkpt>
      <trkpt lat="43.4737" lon="2.06592">
        <ele>264.8</ele>
        <time>2023-05-27T13:52:10Z</time>
      </trkpt>
      <trkpt lat="43.47375" lon="2.06589">
        <ele>264.6</ele>
        <time>2023-05-27T13:52:11Z</time>
      </trkpt>
      <trkpt lat="43.47382" lon="2.06585">
        <ele>264.4</ele>
        <time>2023-05-27T13:52:12Z</time>
      </trkpt>
      <trkpt lat="43.47388" lon="2.06581">
        <ele>264.2</ele>
        <time>2023-05-27T13:52:13Z</time>
      </trkpt>
      <trkpt lat="43.47395" lon="2.06578">
        <ele>264</ele>
        <time>2023-05-27T13:52:14Z</time>
      </trkpt>
      <trkpt lat="43.47401" lon="2.06574">
        <ele>263.8</ele>
        <time>2023-05-27T13:52:15Z</time>
      </trkpt>
      <trkpt lat="43.47406" lon="2.06571">
        <ele>263.6</ele>
        <time>2023-05-27T13:52:16Z</time>
      </trkpt>
      <trkpt lat="43.47414" lon="2.06567">
        <ele>263.2</ele>
        <time>2023-05-27T13:52:17Z</time>
      </trkpt>
      <trkpt lat="43.47421" lon="2.06564">
        <ele>263</ele>
        <time>2023-05-27T13:52:18Z</time>
      </trkpt>
      <trkpt lat="43.47427" lon="2.06561">
        <ele>262.6</ele>
        <time>2023-05-27T13:52:19Z</time>
      </trkpt>
      <trkpt lat="43.47434" lon="2.06559">
        <ele>262.4</ele>
        <time>2023-05-27T13:52:20Z</time>
      </trkpt>
      <trkpt lat="43.47442" lon="2.06556">
        <ele>262</ele>
        <time>2023-05-27T13:52:21Z</time>
      </trkpt>
      <trkpt lat="43.4745" lon="2.06554">
        <ele>261.8</ele>
        <time>2023-05-27T13:52:22Z</time>
      </trkpt>
      <trkpt lat="43.47459" lon="2.06552">
        <ele>261.4</ele>
        <time>2023-05-27T13:52:23Z</time>
      </trkpt>
      <trkpt lat="43.47467" lon="2.0655">
        <ele>261</ele>
        <time>2023-05-27T13:52:24Z</time>
      </trkpt>
      <trkpt lat="43.47475" lon="2.06549">
        <ele>260.6</ele>
        <time>2023-05-27T13:52:25Z</time>
      </trkpt>
      <trkpt lat="43.47484" lon="2.06547">
        <ele>260.4</ele>
        <time>2023-05-27T13:52:26Z</time>
      </trkpt>
      <trkpt lat="43.47492" lon="2.06547">
        <ele>260</ele>
        <time>2023-05-27T13:52:27Z</time>
      </trkpt>
      <trkpt lat="43.47499" lon="2.06546">
        <ele>259.6</ele>
        <time>2023-05-27T13:52:28Z</time>
      </trkpt>
      <trkpt lat="43.47508" lon="2.06545">
        <ele>259</ele>
        <time>2023-05-27T13:52:29Z</time>
      </trkpt>
      <trkpt lat="43.47517" lon="2.06544">
        <ele>258.6</ele>
        <time>2023-05-27T13:52:30Z</time>
      </trkpt>
      <trkpt lat="43.47526" lon="2.06542">
        <ele>258</ele>
        <time>2023-05-27T13:52:31Z</time>
      </trkpt>
      <trkpt lat="43.47536" lon="2.0654">
        <ele>257.6</ele>
        <time>2023-05-27T13:52:32Z</time>
      </trkpt>
      <trkpt lat="43.47546" lon="2.06538">
        <ele>257</ele>
        <time>2023-05-27T13:52:33Z</time>
      </trkpt>
      <trkpt lat="43.47557" lon="2.06536">
        <ele>256.4</ele>
        <time>2023-05-27T13:52:34Z</time>
      </trkpt>
      <trkpt lat="43.47568" lon="2.06534">
        <ele>255.8</ele>
        <time>2023-05-27T13:52:35Z</time>
      </trkpt>
      <trkpt lat="43.47581" lon="2.06532">
        <ele>255.2</ele>
        <time>2023-05-27T13:52:36Z</time>
      </trkpt>
      <trkpt lat="43.47594" lon="2.0653">
        <ele>254.4</ele>
        <time>2023-05-27T13:52:37Z</time>
      </trkpt>
      <trkpt lat="43.47605" lon="2.06529">
        <ele>253.6</ele>
        <time>2023-05-27T13:52:38Z</time>
      </trkpt>
      <trkpt lat="43.47617" lon="2.06527">
        <ele>252.6</ele>
        <time>2023-05-27T13:52:39Z</time>
      </trkpt>
      <trkpt lat="43.47629" lon="2.06526">
        <ele>251.6</ele>
        <time>2023-05-27T13:52:40Z</time>
      </trkpt>
      <trkpt lat="43.47638" lon="2.06525">
        <ele>250.4</ele>
        <time>2023-05-27T13:52:41Z</time>
      </trkpt>
      <trkpt lat="43.47648" lon="2.06524">
        <ele>249.4</ele>
        <time>2023-05-27T13:52:42Z</time>
      </trkpt>
      <trkpt lat="43.47659" lon="2.06522">
        <ele>248.4</ele>
        <time>2023-05-27T13:52:43Z</time>
      </trkpt>
      <trkpt lat="43.4767" lon="2.06521">
        <ele>247.6</ele>
        <time>2023-05-27T13:52:44Z</time>
      </trkpt>
      <trkpt lat="43.47681" lon="2.06519">
        <ele>246.8</ele>
        <time>2023-05-27T13:52:45Z</time>
      </trkpt>
      <trkpt lat="43.47691" lon="2.06516">
        <ele>246.2</ele>
        <time>2023-05-27T13:52:46Z</time>
      </trkpt>
      <trkpt lat="43.477" lon="2.06514">
        <ele>245.8</ele>
        <time>2023-05-27T13:52:47Z</time>
      </trkpt>
      <trkpt lat="43.47711" lon="2.0651">
        <ele>245.2</ele>
        <time>2023-05-27T13:52:48Z</time>
      </trkpt>
      <trkpt lat="43.47719" lon="2.06507">
        <ele>245</ele>
        <time>2023-05-27T13:52:49Z</time>
      </trkpt>
      <trkpt lat="43.47728" lon="2.06503">
        <ele>244.6</ele>
        <time>2023-05-27T13:52:50Z</time>
      </trkpt>
      <trkpt lat="43.47736" lon="2.065">
        <ele>244.4</ele>
        <time>2023-05-27T13:52:51Z</time>
      </trkpt>
      <trkpt lat="43.47746" lon="2.06496">
        <ele>244.2</ele>
        <time>2023-05-27T13:52:52Z</time>
      </trkpt>
      <trkpt lat="43.47754" lon="2.06493">
        <ele>244</ele>
        <time>2023-05-27T13:52:53Z</time>
      </trkpt>
      <trkpt lat="43.47763" lon="2.06489">
        <ele>243.8</ele>
        <time>2023-05-27T13:52:54Z</time>
      </trkpt>
      <trkpt lat="43.4777" lon="2.06486">
        <ele>243.6</ele>
        <time>2023-05-27T13:52:55Z</time>
      </trkpt>
      <trkpt lat="43.47778" lon="2.06484">
        <ele>243.6</ele>
        <time>2023-05-27T13:52:56Z</time>
      </trkpt>
      <trkpt lat="43.47786" lon="2.0648">
        <ele>243.4</ele>
        <time>2023-05-27T13:52:57Z</time>
      </trkpt>
      <trkpt lat="43.47794" lon="2.06477">
        <ele>243.4</ele>
        <time>2023-05-27T13:52:58Z</time>
      </trkpt>
      <trkpt lat="43.47801" lon="2.06474">
        <ele>243.2</ele>
        <time>2023-05-27T13:52:59Z</time>
      </trkpt>
      <trkpt lat="43.47807" lon="2.06472">
        <ele>243.2</ele>
        <time>2023-05-27T13:53:00Z</time>
      </trkpt>
      <trkpt lat="43.47812" lon="2.06471">
        <ele>243.2</ele>
        <time>2023-05-27T13:53:01Z</time>
      </trkpt>
      <trkpt lat="43.47817" lon="2.06469">
        <ele>243.2</ele>
        <time>2023-05-27T13:53:02Z</time>
      </trkpt>
      <trkpt lat="43.47823" lon="2.06467">
        <ele>243</ele>
        <time>2023-05-27T13:53:03Z</time>
      </trkpt>
      <trkpt lat="43.47828" lon="2.06465">
        <ele>243.2</ele>
        <time>2023-05-27T13:53:04Z</time>
      </trkpt>
      <trkpt lat="43.47833" lon="2.06463">
        <ele>243.2</ele>
        <time>2023-05-27T13:53:05Z</time>
      </trkpt>
      <trkpt lat="43.47838" lon="2.06461">
        <ele>243.4</ele>
        <time>2023-05-27T13:53:06Z</time>
      </trkpt>
      <trkpt lat="43.47841" lon="2.0646">
        <ele>243.6</ele>
        <time>2023-05-27T13:53:07Z</time>
      </trkpt>
      <trkpt lat="43.47844" lon="2.06459">
        <ele>243.8</ele>
        <time>2023-05-27T13:53:08Z</time>
      </trkpt>
      <trkpt lat="43.47847" lon="2.06457">
        <ele>243.8</ele>
        <time>2023-05-27T13:53:09Z</time>
      </trkpt>
      <trkpt lat="43.4785" lon="2.06456">
        <ele>244</ele>
        <time>2023-05-27T13:53:10Z</time>
      </trkpt>
      <trkpt lat="43.47853" lon="2.06455">
        <ele>244.2</ele>
        <time>2023-05-27T13:53:11Z</time>
      </trkpt>
      <trkpt lat="43.47856" lon="2.06454">
        <ele>244.2</ele>
        <time>2023-05-27T13:53:12Z</time>
      </trkpt>
      <trkpt lat="43.47858" lon="2.06453">
        <ele>244.4</ele>
        <time>2023-05-27T13:53:13Z</time>
      </trkpt>
      <trkpt lat="43.47861" lon="2.06452">
        <ele>244.6</ele>
        <time>2023-05-27T13:53:14Z</time>
      </trkpt>
      <trkpt lat="43.47863" lon="2.06451">
        <ele>244.8</ele>
        <time>2023-05-27T13:53:15Z</time>
      </trkpt>
      <trkpt lat="43.47865" lon="2.0645">
        <ele>244.8</ele>
        <time>2023-05-27T13:53:16Z</time>
      </trkpt>
      <trkpt lat="43.47867" lon="2.06449">
        <ele>245</ele>
        <time>2023-05-27T13:53:17Z</time>
      </trkpt>
      <trkpt lat="43.47868" lon="2.06449">
        <ele>245.2</ele>
        <time>2023-05-27T13:53:18Z</time>
      </trkpt>
      <trkpt lat="43.4787" lon="2.06449">
        <ele>245.4</ele>
        <time>2023-05-27T13:53:19Z</time>
      </trkpt>
      <trkpt lat="43.47872" lon="2.06448">
        <ele>245.4</ele>
        <time>2023-05-27T13:53:20Z</time>
      </trkpt>
      <trkpt lat="43.47873" lon="2.06447">
        <ele>245.6</ele>
        <time>2023-05-27T13:53:21Z</time>
      </trkpt>
      <trkpt lat="43.47875" lon="2.06446">
        <ele>245.8</ele>
        <time>2023-05-27T13:53:22Z</time>
      </trkpt>
      <trkpt lat="43.47876" lon="2.06445">
        <ele>245.8</ele>
        <time>2023-05-27T13:53:23Z</time>
      </trkpt>
      <trkpt lat="43.47878" lon="2.06444">
        <ele>246</ele>
        <time>2023-05-27T13:53:24Z</time>
      </trkpt>
      <trkpt lat="43.47879" lon="2.06444">
        <ele>246.2</ele>
        <time>2023-05-27T13:53:25Z</time>
      </trkpt>
      <trkpt lat="43.4788" lon="2.06444">
        <ele>246.2</ele>
        <time>2023-05-27T13:53:26Z</time>
      </trkpt>
      <trkpt lat="43.47882" lon="2.06443">
        <ele>246.4</ele>
        <time>2023-05-27T13:53:27Z</time>
      </trkpt>
      <trkpt lat="43.47883" lon="2.06443">
        <ele>246.6</ele>
        <time>2023-05-27T13:53:28Z</time>
      </trkpt>
      <trkpt lat="43.47884" lon="2.06442">
        <ele>246.8</ele>
        <time>2023-05-27T13:53:29Z</time>
      </trkpt>
      <trkpt lat="43.47886" lon="2.06442">
        <ele>246.8</ele>
        <time>2023-05-27T13:53:30Z</time>
      </trkpt>
      <trkpt lat="43.47887" lon="2.06441">
        <ele>247</ele>
        <time>2023-05-27T13:53:31Z</time>
      </trkpt>
      <trkpt lat="43.47889" lon="2.06441">
        <ele>247.2</ele>
        <time>2023-05-27T13:53:32Z</time>
      </trkpt>
      <trkpt lat="43.4789" lon="2.0644">
        <ele>247.2</ele>
        <time>2023-05-27T13:53:33Z</time>
      </trkpt>
      <trkpt lat="43.47892" lon="2.06439">
        <ele>247.4</ele>
        <time>2023-05-27T13:53:34Z</time>
      </trkpt>
      <trkpt lat="43.47893" lon="2.06439">
        <ele>247.6</ele>
        <time>2023-05-27T13:53:35Z</time>
      </trkpt>
      <trkpt lat="43.47895" lon="2.06438">
        <ele>247.8</ele>
        <time>2023-05-27T13:53:36Z</time>
      </trkpt>
      <trkpt lat="43.47897" lon="2.06438">
        <ele>247.8</ele>
        <time>2023-05-27T13:53:37Z</time>
      </trkpt>
      <trkpt lat="43.47898" lon="2.06437">
        <ele>248</ele>
        <time>2023-05-27T13:53:38Z</time>
      </trkpt>
      <trkpt lat="43.47899" lon="2.06437">
        <ele>248</ele>
        <time>2023-05-27T13:53:39Z</time>
      </trkpt>
      <trkpt lat="43.47899" lon="2.06437">
        <ele>248</ele>
        <time>2023-05-27T13:53:40Z</time>
      </trkpt>
      <trkpt lat="43.47899" lon="2.06437">
        <ele>248.2</ele>
        <time>2023-05-27T13:53:41Z</time>
      </trkpt>
      <trkpt lat="43.47899" lon="2.06437">
        <ele>248.2</ele>
        <time>2023-05-27T13:53:42Z</time>
      </trkpt>
      <trkpt lat="43.47899" lon="2.06436">
        <ele>248.2</ele>
        <time>2023-05-27T13:53:43Z</time>
      </trkpt>
      <trkpt lat="43.479" lon="2.06436">
        <ele>248.4</ele>
        <time>2023-05-27T13:53:44Z</time>
      </trkpt>
      <trkpt lat="43.47901" lon="2.06436">
        <ele>248.4</ele>
        <time>2023-05-27T13:53:45Z</time>
      </trkpt>
      <trkpt lat="43.47902" lon="2.06435">
        <ele>248.6</ele>
        <time>2023-05-27T13:53:46Z</time>
      </trkpt>
      <trkpt lat="43.47903" lon="2.06435">
        <ele>248.6</ele>
        <time>2023-05-27T13:53:47Z</time>
      </trkpt>
      <trkpt lat="43.47904" lon="2.06434">
        <ele>248.6</ele>
        <time>2023-05-27T13:53:48Z</time>
      </trkpt>
      <trkpt lat="43.47905" lon="2.06434">
        <ele>248.8</ele>
        <time>2023-05-27T13:53:49Z</time>
      </trkpt>
      <trkpt lat="43.47906" lon="2.06433">
        <ele>248.8</ele>
        <time>2023-05-27T13:53:50Z</time>
      </trkpt>
      <trkpt lat="43.47907" lon="2.06432">
        <ele>249</ele>
        <time>2023-05-27T13:53:51Z</time>
      </trkpt>
      <trkpt lat="43.47908" lon="2.06432">
        <ele>249</ele>
        <time>2023-05-27T13:53:52Z</time>
      </trkpt>
      <trkpt lat="43.47909" lon="2.06432">
        <ele>249.2</ele>
        <time>2023-05-27T13:53:53Z</time>
      </trkpt>
      <trkpt lat="43.47911" lon="2.06432">
        <ele>249.2</ele>
        <time>2023-05-27T13:53:54Z</time>
      </trkpt>
      <trkpt lat="43.47912" lon="2.06431">
        <ele>249.4</ele>
        <time>2023-05-27T13:53:55Z</time>
      </trkpt>
      <trkpt lat="43.47913" lon="2.06431">
        <ele>249.4</ele>
        <time>2023-05-27T13:53:56Z</time>
      </trkpt>
      <trkpt lat="43.47913" lon="2.06431">
        <ele>249.6</ele>
        <time>2023-05-27T13:53:57Z</time>
      </trkpt>
      <trkpt lat="43.47914" lon="2.0643">
        <ele>249.8</ele>
        <time>2023-05-27T13:53:58Z</time>
      </trkpt>
      <trkpt lat="43.47915" lon="2.0643">
        <ele>249.8</ele>
        <time>2023-05-27T13:53:59Z</time>
      </trkpt>
      <trkpt lat="43.47916" lon="2.06429">
        <ele>250</ele>
        <time>2023-05-27T13:54:00Z</time>
      </trkpt>
      <trkpt lat="43.47917" lon="2.06429">
        <ele>250</ele>
        <time>2023-05-27T13:54:01Z</time>
      </trkpt>
      <trkpt lat="43.47918" lon="2.06429">
        <ele>250.2</ele>
        <time>2023-05-27T13:54:02Z</time>
      </trkpt>
      <trkpt lat="43.47919" lon="2.06429">
        <ele>250.2</ele>
        <time>2023-05-27T13:54:03Z</time>
      </trkpt>
      <trkpt lat="43.4792" lon="2.06428">
        <ele>250.4</ele>
        <time>2023-05-27T13:54:04Z</time>
      </trkpt>
      <trkpt lat="43.47921" lon="2.06427">
        <ele>250.4</ele>
        <time>2023-05-27T13:54:05Z</time>
      </trkpt>
      <trkpt lat="43.47922" lon="2.06427">
        <ele>250.6</ele>
        <time>2023-05-27T13:54:06Z</time>
      </trkpt>
      <trkpt lat="43.47923" lon="2.06427">
        <ele>250.8</ele>
        <time>2023-05-27T13:54:07Z</time>
      </trkpt>
      <trkpt lat="43.47924" lon="2.06426">
        <ele>250.8</ele>
        <time>2023-05-27T13:54:08Z</time>
      </trkpt>
      <trkpt lat="43.47925" lon="2.06426">
        <ele>251</ele>
        <time>2023-05-27T13:54:09Z</time>
      </trkpt>
      <trkpt lat="43.47926" lon="2.06425">
        <ele>251</ele>
        <time>2023-05-27T13:54:10Z</time>
      </trkpt>
      <trkpt lat="43.47926" lon="2.06425">
        <ele>251.2</ele>
        <time>2023-05-27T13:54:11Z</time>
      </trkpt>
      <trkpt lat="43.47927" lon="2.06424">
        <ele>251.2</ele>
        <time>2023-05-27T13:54:12Z</time>
      </trkpt>
      <trkpt lat="43.47928" lon="2.06424">
        <ele>251.4</ele>
        <time>2023-05-27T13:54:13Z</time>
      </trkpt>
      <trkpt lat="43.47929" lon="2.06424">
        <ele>251.6</ele>
        <time>2023-05-27T13:54:14Z</time>
      </trkpt>
      <trkpt lat="43.4793" lon="2.06423">
        <ele>251.6</ele>
        <time>2023-05-27T13:54:15Z</time>
      </trkpt>
      <trkpt lat="43.47931" lon="2.06423">
        <ele>251.8</ele>
        <time>2023-05-27T13:54:16Z</time>
      </trkpt>
      <trkpt lat="43.47932" lon="2.06422">
        <ele>251.8</ele>
        <time>2023-05-27T13:54:17Z</time>
      </trkpt>
      <trkpt lat="43.47933" lon="2.06422">
        <ele>252</ele>
        <time>2023-05-27T13:54:18Z</time>
      </trkpt>
      <trkpt lat="43.47934" lon="2.06422">
        <ele>252</ele>
        <time>2023-05-27T13:54:19Z</time>
      </trkpt>
      <trkpt lat="43.47935" lon="2.06421">
        <ele>252.2</ele>
        <time>2023-05-27T13:54:20Z</time>
      </trkpt>
      <trkpt lat="43.47936" lon="2.06421">
        <ele>252.2</ele>
        <time>2023-05-27T13:54:21Z</time>
      </trkpt>
      <trkpt lat="43.47937" lon="2.06421">
        <ele>252.4</ele>
        <time>2023-05-27T13:54:22Z</time>
      </trkpt>
      <trkpt lat="43.47938" lon="2.06421">
        <ele>252.4</ele>
        <time>2023-05-27T13:54:23Z</time>
      </trkpt>
      <trkpt lat="43.47939" lon="2.06421">
        <ele>252.4</ele>
        <time>2023-05-27T13:54:24Z</time>
      </trkpt>
      <trkpt lat="43.47939" lon="2.0642">
        <ele>252.6</ele>
        <time>2023-05-27T13:54:25Z</time>
      </trkpt>
      <trkpt lat="43.47941" lon="2.0642">
        <ele>252.6</ele>
        <time>2023-05-27T13:54:26Z</time>
      </trkpt>
      <trkpt lat="43.47942" lon="2.06419">
        <ele>252.8</ele>
        <time>2023-05-27T13:54:27Z</time>
      </trkpt>
      <trkpt lat="43.47942" lon="2.06419">
        <ele>252.8</ele>
        <time>2023-05-27T13:54:28Z</time>
      </trkpt>
      <trkpt lat="43.47943" lon="2.06419">
        <ele>253</ele>
        <time>2023-05-27T13:54:29Z</time>
      </trkpt>
      <trkpt lat="43.47944" lon="2.06419">
        <ele>253</ele>
        <time>2023-05-27T13:54:30Z</time>
      </trkpt>
      <trkpt lat="43.47945" lon="2.06418">
        <ele>253.2</ele>
        <time>2023-05-27T13:54:31Z</time>
      </trkpt>
      <trkpt lat="43.47946" lon="2.06418">
        <ele>253.2</ele>
        <time>2023-05-27T13:54:32Z</time>
      </trkpt>
      <trkpt lat="43.47947" lon="2.06418">
        <ele>253.4</ele>
        <time>2023-05-27T13:54:33Z</time>
      </trkpt>
      <trkpt lat="43.47948" lon="2.06418">
        <ele>253.4</ele>
        <time>2023-05-27T13:54:34Z</time>
      </trkpt>
      <trkpt lat="43.47949" lon="2.06417">
        <ele>253.6</ele>
        <time>2023-05-27T13:54:35Z</time>
      </trkpt>
      <trkpt lat="43.4795" lon="2.06417">
        <ele>253.6</ele>
        <time>2023-05-27T13:54:36Z</time>
      </trkpt>
      <trkpt lat="43.47951" lon="2.06416">
        <ele>253.8</ele>
        <time>2023-05-27T13:54:37Z</time>
      </trkpt>
      <trkpt lat="43.47952" lon="2.06416">
        <ele>253.8</ele>
        <time>2023-05-27T13:54:38Z</time>
      </trkpt>
      <trkpt lat="43.47953" lon="2.06415">
        <ele>254</ele>
        <time>2023-05-27T13:54:39Z</time>
      </trkpt>
      <trkpt lat="43.47954" lon="2.06415">
        <ele>254</ele>
        <time>2023-05-27T13:54:40Z</time>
      </trkpt>
      <trkpt lat="43.47955" lon="2.06415">
        <ele>254.2</ele>
        <time>2023-05-27T13:54:41Z</time>
      </trkpt>
      <trkpt lat="43.47956" lon="2.06414">
        <ele>254.2</ele>
        <time>2023-05-27T13:54:42Z</time>
      </trkpt>
      <trkpt lat="43.47957" lon="2.06414">
        <ele>254.4</ele>
        <time>2023-05-27T13:54:43Z</time>
      </trkpt>
      <trkpt lat="43.47958" lon="2.06414">
        <ele>254.4</ele>
        <time>2023-05-27T13:54:44Z</time>
      </trkpt>
      <trkpt lat="43.47959" lon="2.06414">
        <ele>254.6</ele>
        <time>2023-05-27T13:54:45Z</time>
      </trkpt>
      <trkpt lat="43.4796" lon="2.06413">
        <ele>254.6</ele>
        <time>2023-05-27T13:54:46Z</time>
      </trkpt>
      <trkpt lat="43.47961" lon="2.06413">
        <ele>254.8</ele>
        <time>2023-05-27T13:54:47Z</time>
      </trkpt>
      <trkpt lat="43.47963" lon="2.06413">
        <ele>254.8</ele>
        <time>2023-05-27T13:54:48Z</time>
      </trkpt>
      <trkpt lat="43.47963" lon="2.06412">
        <ele>255</ele>
        <time>2023-05-27T13:54:49Z</time>
      </trkpt>
      <trkpt lat="43.47964" lon="2.06412">
        <ele>255</ele>
        <time>2023-05-27T13:54:50Z</time>
      </trkpt>
      <trkpt lat="43.47966" lon="2.06412">
        <ele>255.2</ele>
        <time>2023-05-27T13:54:51Z</time>
      </trkpt>
      <trkpt lat="43.47967" lon="2.06412">
        <ele>255.2</ele>
        <time>2023-05-27T13:54:52Z</time>
      </trkpt>
      <trkpt lat="43.47968" lon="2.06412">
        <ele>255.4</ele>
        <time>2023-05-27T13:54:53Z</time>
      </trkpt>
      <trkpt lat="43.47969" lon="2.06412">
        <ele>255.4</ele>
        <time>2023-05-27T13:54:54Z</time>
      </trkpt>
      <trkpt lat="43.4797" lon="2.06411">
        <ele>255.6</ele>
        <time>2023-05-27T13:54:55Z</time>
      </trkpt>
      <trkpt lat="43.47971" lon="2.06411">
        <ele>255.6</ele>
        <time>2023-05-27T13:54:56Z</time>
      </trkpt>
      <trkpt lat="43.47972" lon="2.06411">
        <ele>255.6</ele>
        <time>2023-05-27T13:54:57Z</time>
      </trkpt>
      <trkpt lat="43.47973" lon="2.06411">
        <ele>255.8</ele>
        <time>2023-05-27T13:54:58Z</time>
      </trkpt>
      <trkpt lat="43.47974" lon="2.0641">
        <ele>255.8</ele>
        <time>2023-05-27T13:54:59Z</time>
      </trkpt>
      <trkpt lat="43.47975" lon="2.0641">
        <ele>256</ele>
        <time>2023-05-27T13:55:00Z</time>
      </trkpt>
      <trkpt lat="43.47976" lon="2.0641">
        <ele>256</ele>
        <time>2023-05-27T13:55:01Z</time>
      </trkpt>
      <trkpt lat="43.47977" lon="2.0641">
        <ele>256.2</ele>
        <time>2023-05-27T13:55:02Z</time>
      </trkpt>
      <trkpt lat="43.47979" lon="2.06409">
        <ele>256.2</ele>
        <time>2023-05-27T13:55:03Z</time>
      </trkpt>
      <trkpt lat="43.4798" lon="2.06409">
        <ele>256.4</ele>
        <time>2023-05-27T13:55:04Z</time>
      </trkpt>
      <trkpt lat="43.47981" lon="2.06409">
        <ele>256.4</ele>
        <time>2023-05-27T13:55:05Z</time>
      </trkpt>
      <trkpt lat="43.47982" lon="2.06409">
        <ele>256.6</ele>
        <time>2023-05-27T13:55:06Z</time>
      </trkpt>
      <trkpt lat="43.47983" lon="2.06409">
        <ele>256.6</ele>
        <time>2023-05-27T13:55:07Z</time>
      </trkpt>
      <trkpt lat="43.47984" lon="2.06408">
        <ele>256.8</ele>
        <time>2023-05-27T13:55:08Z</time>
      </trkpt>
      <trkpt lat="43.47985" lon="2.06408">
        <ele>256.8</ele>
        <time>2023-05-27T13:55:09Z</time>
      </trkpt>
      <trkpt lat="43.47986" lon="2.06408">
        <ele>257</ele>
        <time>2023-05-27T13:55:10Z</time>
      </trkpt>
      <trkpt lat="43.47987" lon="2.06407">
        <ele>257</ele>
        <time>2023-05-27T13:55:11Z</time>
      </trkpt>
      <trkpt lat="43.47988" lon="2.06407">
        <ele>257.2</ele>
        <time>2023-05-27T13:55:12Z</time>
      </trkpt>
      <trkpt lat="43.47989" lon="2.06406">
        <ele>257.2</ele>
        <time>2023-05-27T13:55:13Z</time>
      </trkpt>
      <trkpt lat="43.47989" lon="2.06406">
        <ele>257.4</ele>
        <time>2023-05-27T13:55:14Z</time>
      </trkpt>
      <trkpt lat="43.47991" lon="2.06405">
        <ele>257.4</ele>
        <time>2023-05-27T13:55:15Z</time>
      </trkpt>
      <trkpt lat="43.47992" lon="2.06405">
        <ele>257.6</ele>
        <time>2023-05-27T13:55:16Z</time>
      </trkpt>
      <trkpt lat="43.47992" lon="2.06404">
        <ele>257.8</ele>
        <time>2023-05-27T13:55:17Z</time>
      </trkpt>
      <trkpt lat="43.47993" lon="2.06404">
        <ele>257.8</ele>
        <time>2023-05-27T13:55:18Z</time>
      </trkpt>
      <trkpt lat="43.47995" lon="2.06404">
        <ele>258</ele>
        <time>2023-05-27T13:55:19Z</time>
      </trkpt>
      <trkpt lat="43.47995" lon="2.06403">
        <ele>258</ele>
        <time>2023-05-27T13:55:20Z</time>
      </trkpt>
      <trkpt lat="43.47996" lon="2.06403">
        <ele>258.2</ele>
        <time>2023-05-27T13:55:21Z</time>
      </trkpt>
      <trkpt lat="43.47997" lon="2.06402">
        <ele>258.2</ele>
        <time>2023-05-27T13:55:22Z</time>
      </trkpt>
      <trkpt lat="43.47998" lon="2.06401">
        <ele>258.4</ele>
        <time>2023-05-27T13:55:23Z</time>
      </trkpt>
      <trkpt lat="43.48" lon="2.064">
        <ele>258.4</ele>
        <time>2023-05-27T13:55:24Z</time>
      </trkpt>
      <trkpt lat="43.48" lon="2.064">
        <ele>258.6</ele>
        <time>2023-05-27T13:55:25Z</time>
      </trkpt>
      <trkpt lat="43.48001" lon="2.06399">
        <ele>258.6</ele>
        <time>2023-05-27T13:55:26Z</time>
      </trkpt>
      <trkpt lat="43.48003" lon="2.06398">
        <ele>258.8</ele>
        <time>2023-05-27T13:55:27Z</time>
      </trkpt>
      <trkpt lat="43.48004" lon="2.06397">
        <ele>258.8</ele>
        <time>2023-05-27T13:55:28Z</time>
      </trkpt>
      <trkpt lat="43.48005" lon="2.06396">
        <ele>258.8</ele>
        <time>2023-05-27T13:55:29Z</time>
      </trkpt>
      <trkpt lat="43.48006" lon="2.06395">
        <ele>259</ele>
        <time>2023-05-27T13:55:30Z</time>
      </trkpt>
      <trkpt lat="43.48007" lon="2.06394">
        <ele>259</ele>
        <time>2023-05-27T13:55:31Z</time>
      </trkpt>
      <trkpt lat="43.48008" lon="2.06393">
        <ele>259</ele>
        <time>2023-05-27T13:55:32Z</time>
      </trkpt>
      <trkpt lat="43.48008" lon="2.06391">
        <ele>259.2</ele>
        <time>2023-05-27T13:55:33Z</time>
      </trkpt>
      <trkpt lat="43.48009" lon="2.0639">
        <ele>259.2</ele>
        <time>2023-05-27T13:55:34Z</time>
      </trkpt>
      <trkpt lat="43.4801" lon="2.06389">
        <ele>259.2</ele>
        <time>2023-05-27T13:55:35Z</time>
      </trkpt>
      <trkpt lat="43.48011" lon="2.06387">
        <ele>259.2</ele>
        <time>2023-05-27T13:55:36Z</time>
      </trkpt>
      <trkpt lat="43.48011" lon="2.06386">
        <ele>259.2</ele>
        <time>2023-05-27T13:55:37Z</time>
      </trkpt>
      <trkpt lat="43.48012" lon="2.06385">
        <ele>259.4</ele>
        <time>2023-05-27T13:55:38Z</time>
      </trkpt>
      <trkpt lat="43.48013" lon="2.06383">
        <ele>259.4</ele>
        <time>2023-05-27T13:55:39Z</time>
      </trkpt>
      <trkpt lat="43.48014" lon="2.06382">
        <ele>259.4</ele>
        <time>2023-05-27T13:55:40Z</time>
      </trkpt>
      <trkpt lat="43.48014" lon="2.06381">
        <ele>259.4</ele>
        <time>2023-05-27T13:55:41Z</time>
      </trkpt>
      <trkpt lat="43.48015" lon="2.0638">
        <ele>259.4</ele>
        <time>2023-05-27T13:55:42Z</time>
      </trkpt>
      <trkpt lat="43.48016" lon="2.06379">
        <ele>259.4</ele>
        <time>2023-05-27T13:55:43Z</time>
      </trkpt>
      <trkpt lat="43.48016" lon="2.06378">
        <ele>259.4</ele>
        <time>2023-05-27T13:55:44Z</time>
      </trkpt>
      <trkpt lat="43.48017" lon="2.06377">
        <ele>259.4</ele>
        <time>2023-05-27T13:55:45Z</time>
      </trkpt>
      <trkpt lat="43.48017" lon="2.06376">
        <ele>259.4</ele>
        <time>2023-05-27T13:55:46Z</time>
      </trkpt>
      <trkpt lat="43.48018" lon="2.06376">
        <ele>259.4</ele>
        <time>2023-05-27T13:55:47Z</time>
      </trkpt>
      <trkpt lat="43.48019" lon="2.06374">
        <ele>259.4</ele>
        <time>2023-05-27T13:57:42Z</time>
      </trkpt>
      <trkpt lat="43.4802" lon="2.06372">
        <ele>259.4</ele>
        <time>2023-05-27T13:57:43Z</time>
      </trkpt>
      <trkpt lat="43.48021" lon="2.06371">
        <ele>259.2</ele>
        <time>2023-05-27T13:57:44Z</time>
      </trkpt>
      <trkpt lat="43.48022" lon="2.06369">
        <ele>259.2</ele>
        <time>2023-05-27T13:57:45Z</time>
      </trkpt>
      <trkpt lat="43.48023" lon="2.06368">
        <ele>259.4</ele>
        <time>2023-05-27T13:57:46Z</time>
      </trkpt>
      <trkpt lat="43.48025" lon="2.06366">
        <ele>259.4</ele>
        <time>2023-05-27T13:57:47Z</time>
      </trkpt>
      <trkpt lat="43.48026" lon="2.06364">
        <ele>259.4</ele>
        <time>2023-05-27T13:57:48Z</time>
      </trkpt>
      <trkpt lat="43.48027" lon="2.06362">
        <ele>259.4</ele>
        <time>2023-05-27T13:57:49Z</time>
      </trkpt>
      <trkpt lat="43.48029" lon="2.0636">
        <ele>259.4</ele>
        <time>2023-05-27T13:57:50Z</time>
      </trkpt>
      <trkpt lat="43.4803" lon="2.06358">
        <ele>259.4</ele>
        <time>2023-05-27T13:57:51Z</time>
      </trkpt>
      <trkpt lat="43.48031" lon="2.06356">
        <ele>259.2</ele>
        <time>2023-05-27T13:57:52Z</time>
      </trkpt>
      <trkpt lat="43.48033" lon="2.06353">
        <ele>259.2</ele>
        <time>2023-05-27T13:57:53Z</time>
      </trkpt>
      <trkpt lat="43.48034" lon="2.06351">
        <ele>259.2</ele>
        <time>2023-05-27T13:57:54Z</time>
      </trkpt>
      <trkpt lat="43.48036" lon="2.06348">
        <ele>259.2</ele>
        <time>2023-05-27T13:57:55Z</time>
      </trkpt>
      <trkpt lat="43.48038" lon="2.06345">
        <ele>259.2</ele>
        <time>2023-05-27T13:57:56Z</time>
      </trkpt>
      <trkpt lat="43.4804" lon="2.06342">
        <ele>259.2</ele>
        <time>2023-05-27T13:57:57Z</time>
      </trkpt>
      <trkpt lat="43.48042" lon="2.06339">
        <ele>259.2</ele>
        <time>2023-05-27T13:57:58Z</time>
      </trkpt>
      <trkpt lat="43.48043" lon="2.06336">
        <ele>259.2</ele>
        <time>2023-05-27T13:57:59Z</time>
      </trkpt>
      <trkpt lat="43.48045" lon="2.06332">
        <ele>259</ele>
        <time>2023-05-27T13:58:00Z</time>
      </trkpt>
      <trkpt lat="43.48047" lon="2.06329">
        <ele>259</ele>
        <time>2023-05-27T13:58:01Z</time>
      </trkpt>
      <trkpt lat="43.48049" lon="2.06325">
        <ele>259</ele>
        <time>2023-05-27T13:58:02Z</time>
      </trkpt>
      <trkpt lat="43.48051" lon="2.06322">
        <ele>259</ele>
        <time>2023-05-27T13:58:03Z</time>
      </trkpt>
      <trkpt lat="43.48053" lon="2.06318">
        <ele>258.8</ele>
        <time>2023-05-27T13:58:04Z</time>
      </trkpt>
      <trkpt lat="43.48056" lon="2.06315">
        <ele>258.8</ele>
        <time>2023-05-27T13:58:05Z</time>
      </trkpt>
      <trkpt lat="43.48058" lon="2.06311">
        <ele>258.8</ele>
        <time>2023-05-27T13:58:06Z</time>
      </trkpt>
      <trkpt lat="43.4806" lon="2.06308">
        <ele>258.8</ele>
        <time>2023-05-27T13:58:07Z</time>
      </trkpt>
      <trkpt lat="43.48062" lon="2.06304">
        <ele>258.6</ele>
        <time>2023-05-27T13:58:08Z</time>
      </trkpt>
      <trkpt lat="43.48064" lon="2.063">
        <ele>258.6</ele>
        <time>2023-05-27T13:58:09Z</time>
      </trkpt>
      <trkpt lat="43.48066" lon="2.06297">
        <ele>258.6</ele>
        <time>2023-05-27T13:58:10Z</time>
      </trkpt>
      <trkpt lat="43.48068" lon="2.06293">
        <ele>258.6</ele>
        <time>2023-05-27T13:58:11Z</time>
      </trkpt>
      <trkpt lat="43.48071" lon="2.06289">
        <ele>258.4</ele>
        <time>2023-05-27T13:58:12Z</time>
      </trkpt>
      <trkpt lat="43.48073" lon="2.06285">
        <ele>258.4</ele>
        <time>2023-05-27T13:58:13Z</time>
      </trkpt>
      <trkpt lat="43.48076" lon="2.06281">
        <ele>258.4</ele>
        <time>2023-05-27T13:58:14Z</time>
      </trkpt>
      <trkpt lat="43.48078" lon="2.06277">
        <ele>258.2</ele>
        <time>2023-05-27T13:58:15Z</time>
      </trkpt>
      <trkpt lat="43.4808" lon="2.06273">
        <ele>258.2</ele>
        <time>2023-05-27T13:58:16Z</time>
      </trkpt>
      <trkpt lat="43.48083" lon="2.06269">
        <ele>258.2</ele>
        <time>2023-05-27T13:58:17Z</time>
      </trkpt>
      <trkpt lat="43.48085" lon="2.06265">
        <ele>258.2</ele>
        <time>2023-05-27T13:58:18Z</time>
      </trkpt>
      <trkpt lat="43.48087" lon="2.06261">
        <ele>258.2</ele>
        <time>2023-05-27T13:58:19Z</time>
      </trkpt>
      <trkpt lat="43.4809" lon="2.06257">
        <ele>258</ele>
        <time>2023-05-27T13:58:20Z</time>
      </trkpt>
      <trkpt lat="43.48092" lon="2.06253">
        <ele>258</ele>
        <time>2023-05-27T13:58:21Z</time>
      </trkpt>
      <trkpt lat="43.48095" lon="2.06248">
        <ele>257.8</ele>
        <time>2023-05-27T13:58:22Z</time>
      </trkpt>
      <trkpt lat="43.48098" lon="2.06244">
        <ele>257.8</ele>
        <time>2023-05-27T13:58:23Z</time>
      </trkpt>
      <trkpt lat="43.481" lon="2.0624">
        <ele>257.6</ele>
        <time>2023-05-27T13:58:24Z</time>
      </trkpt>
      <trkpt lat="43.48103" lon="2.06235">
        <ele>257.6</ele>
        <time>2023-05-27T13:58:25Z</time>
      </trkpt>
      <trkpt lat="43.48105" lon="2.06231">
        <ele>257.4</ele>
        <time>2023-05-27T13:58:26Z</time>
      </trkpt>
      <trkpt lat="43.48108" lon="2.06227">
        <ele>257.4</ele>
        <time>2023-05-27T13:58:27Z</time>
      </trkpt>
      <trkpt lat="43.48111" lon="2.06223">
        <ele>257.2</ele>
        <time>2023-05-27T13:58:28Z</time>
      </trkpt>
      <trkpt lat="43.48114" lon="2.06219">
        <ele>257.2</ele>
        <time>2023-05-27T13:58:29Z</time>
      </trkpt>
      <trkpt lat="43.48117" lon="2.06215">
        <ele>257.2</ele>
        <time>2023-05-27T13:58:30Z</time>
      </trkpt>
      <trkpt lat="43.4812" lon="2.06211">
        <ele>257</ele>
        <time>2023-05-27T13:58:31Z</time>
      </trkpt>
      <trkpt lat="43.48123" lon="2.06207">
        <ele>257</ele>
        <time>2023-05-27T13:58:32Z</time>
      </trkpt>
      <trkpt lat="43.48126" lon="2.06202">
        <ele>257</ele>
        <time>2023-05-27T13:58:33Z</time>
      </trkpt>
      <trkpt lat="43.48129" lon="2.06198">
        <ele>257</ele>
        <time>2023-05-27T13:58:34Z</time>
      </trkpt>
      <trkpt lat="43.48132" lon="2.06194">
        <ele>257</ele>
        <time>2023-05-27T13:58:35Z</time>
      </trkpt>
      <trkpt lat="43.48136" lon="2.06189">
        <ele>257</ele>
        <time>2023-05-27T13:58:36Z</time>
      </trkpt>
      <trkpt lat="43.48139" lon="2.06185">
        <ele>257</ele>
        <time>2023-05-27T13:58:37Z</time>
      </trkpt>
      <trkpt lat="43.48142" lon="2.06181">
        <ele>256.8</ele>
        <time>2023-05-27T13:58:38Z</time>
      </trkpt>
      <trkpt lat="43.48146" lon="2.06176">
        <ele>256.8</ele>
        <time>2023-05-27T13:58:39Z</time>
      </trkpt>
      <trkpt lat="43.48149" lon="2.06172">
        <ele>256.8</ele>
        <time>2023-05-27T13:58:40Z</time>
      </trkpt>
      <trkpt lat="43.48153" lon="2.06167">
        <ele>256.8</ele>
        <time>2023-05-27T13:58:41Z</time>
      </trkpt>
      <trkpt lat="43.48156" lon="2.06163">
        <ele>256.8</ele>
        <time>2023-05-27T13:58:42Z</time>
      </trkpt>
      <trkpt lat="43.4816" lon="2.06158">
        <ele>256.6</ele>
        <time>2023-05-27T13:58:43Z</time>
      </trkpt>
      <trkpt lat="43.48163" lon="2.06153">
        <ele>256.6</ele>
        <time>2023-05-27T13:58:44Z</time>
      </trkpt>
      <trkpt lat="43.48167" lon="2.06149">
        <ele>256.4</ele>
        <time>2023-05-27T13:58:45Z</time>
      </trkpt>
      <trkpt lat="43.48171" lon="2.06144">
        <ele>256.4</ele>
        <time>2023-05-27T13:58:46Z</time>
      </trkpt>
      <trkpt lat="43.48175" lon="2.06139">
        <ele>256.4</ele>
        <time>2023-05-27T13:58:47Z</time>
      </trkpt>
      <trkpt lat="43.48178" lon="2.06135">
        <ele>256.4</ele>
        <time>2023-05-27T13:58:48Z</time>
      </trkpt>
      <trkpt lat="43.48182" lon="2.0613">
        <ele>256.4</ele>
        <time>2023-05-27T13:58:49Z</time>
      </trkpt>
      <trkpt lat="43.48186" lon="2.06126">
        <ele>256.2</ele>
        <time>2023-05-27T13:58:50Z</time>
      </trkpt>
      <trkpt lat="43.4819" lon="2.06121">
        <ele>256.2</ele>
        <time>2023-05-27T13:58:51Z</time>
      </trkpt>
      <trkpt lat="43.48194" lon="2.06116">
        <ele>256</ele>
        <time>2023-05-27T13:58:52Z</time>
      </trkpt>
      <trkpt lat="43.48198" lon="2.06112">
        <ele>256</ele>
        <time>2023-05-27T13:58:53Z</time>
      </trkpt>
      <trkpt lat="43.48201" lon="2.06108">
        <ele>256</ele>
        <time>2023-05-27T13:58:54Z</time>
      </trkpt>
      <trkpt lat="43.48205" lon="2.06103">
        <ele>255.8</ele>
        <time>2023-05-27T13:58:55Z</time>
      </trkpt>
      <trkpt lat="43.48209" lon="2.06099">
        <ele>255.8</ele>
        <time>2023-05-27T13:58:56Z</time>
      </trkpt>
      <trkpt lat="43.48213" lon="2.06094">
        <ele>255.8</ele>
        <time>2023-05-27T13:58:57Z</time>
      </trkpt>
      <trkpt lat="43.48217" lon="2.0609">
        <ele>255.8</ele>
        <time>2023-05-27T13:58:58Z</time>
      </trkpt>
      <trkpt lat="43.48221" lon="2.06085">
        <ele>255.8</ele>
        <time>2023-05-27T13:58:59Z</time>
      </trkpt>
      <trkpt lat="43.48225" lon="2.06081">
        <ele>255.6</ele>
        <time>2023-05-27T13:59:00Z</time>
      </trkpt>
      <trkpt lat="43.48228" lon="2.06076">
        <ele>255.6</ele>
        <time>2023-05-27T13:59:01Z</time>
      </trkpt>
      <trkpt lat="43.48232" lon="2.06072">
        <ele>255.6</ele>
        <time>2023-05-27T13:59:02Z</time>
      </trkpt>
      <trkpt lat="43.48236" lon="2.06068">
        <ele>255.6</ele>
        <time>2023-05-27T13:59:03Z</time>
      </trkpt>
      <trkpt lat="43.4824" lon="2.06064">
        <ele>255.6</ele>
        <time>2023-05-27T13:59:04Z</time>
      </trkpt>
      <trkpt lat="43.48244" lon="2.0606">
        <ele>255.4</ele>
        <time>2023-05-27T13:59:05Z</time>
      </trkpt>
      <trkpt lat="43.48248" lon="2.06055">
        <ele>255.4</ele>
        <time>2023-05-27T13:59:06Z</time>
      </trkpt>
      <trkpt lat="43.48252" lon="2.06051">
        <ele>255.4</ele>
        <time>2023-05-27T13:59:07Z</time>
      </trkpt>
      <trkpt lat="43.48256" lon="2.06047">
        <ele>255.4</ele>
        <time>2023-05-27T13:59:08Z</time>
      </trkpt>
      <trkpt lat="43.4826" lon="2.06043">
        <ele>255.4</ele>
        <time>2023-05-27T13:59:09Z</time>
      </trkpt>
      <trkpt lat="43.48264" lon="2.06039">
        <ele>255.4</ele>
        <time>2023-05-27T13:59:10Z</time>
      </trkpt>
      <trkpt lat="43.48267" lon="2.06035">
        <ele>255.4</ele>
        <time>2023-05-27T13:59:11Z</time>
      </trkpt>
      <trkpt lat="43.48271" lon="2.0603">
        <ele>255.4</ele>
        <time>2023-05-27T13:59:12Z</time>
      </trkpt>
      <trkpt lat="43.48275" lon="2.06026">
        <ele>255.2</ele>
        <time>2023-05-27T13:59:13Z</time>
      </trkpt>
      <trkpt lat="43.48278" lon="2.06022">
        <ele>255.2</ele>
        <time>2023-05-27T13:59:14Z</time>
      </trkpt>
      <trkpt lat="43.48282" lon="2.06018">
        <ele>255.2</ele>
        <time>2023-05-27T13:59:15Z</time>
      </trkpt>
      <trkpt lat="43.48285" lon="2.06014">
        <ele>255.2</ele>
        <time>2023-05-27T13:59:16Z</time>
      </trkpt>
      <trkpt lat="43.48289" lon="2.0601">
        <ele>255</ele>
        <time>2023-05-27T13:59:17Z</time>
      </trkpt>
      <trkpt lat="43.48293" lon="2.06006">
        <ele>255</ele>
        <time>2023-05-27T13:59:18Z</time>
      </trkpt>
      <trkpt lat="43.48297" lon="2.06003">
        <ele>254.8</ele>
        <time>2023-05-27T13:59:19Z</time>
      </trkpt>
      <trkpt lat="43.48301" lon="2.06">
        <ele>254.6</ele>
        <time>2023-05-27T13:59:20Z</time>
      </trkpt>
      <trkpt lat="43.48305" lon="2.05996">
        <ele>254.6</ele>
        <time>2023-05-27T13:59:21Z</time>
      </trkpt>
      <trkpt lat="43.48308" lon="2.05992">
        <ele>254.4</ele>
        <time>2023-05-27T13:59:22Z</time>
      </trkpt>
      <trkpt lat="43.48312" lon="2.05988">
        <ele>254.4</ele>
        <time>2023-05-27T13:59:23Z</time>
      </trkpt>
      <trkpt lat="43.48316" lon="2.05985">
        <ele>254.4</ele>
        <time>2023-05-27T13:59:24Z</time>
      </trkpt>
      <trkpt lat="43.48319" lon="2.05981">
        <ele>254.2</ele>
        <time>2023-05-27T13:59:25Z</time>
      </trkpt>
      <trkpt lat="43.48323" lon="2.05977">
        <ele>254.2</ele>
        <time>2023-05-27T13:59:26Z</time>
      </trkpt>
      <trkpt lat="43.48327" lon="2.05973">
        <ele>254.2</ele>
        <time>2023-05-27T13:59:27Z</time>
      </trkpt>
      <trkpt lat="43.4833" lon="2.05969">
        <ele>254.2</ele>
        <time>2023-05-27T13:59:28Z</time>
      </trkpt>
      <trkpt lat="43.48334" lon="2.05965">
        <ele>254.2</ele>
        <time>2023-05-27T13:59:29Z</time>
      </trkpt>
      <trkpt lat="43.48338" lon="2.05961">
        <ele>254</ele>
        <time>2023-05-27T13:59:30Z</time>
      </trkpt>
      <trkpt lat="43.48342" lon="2.05957">
        <ele>254</ele>
        <time>2023-05-27T13:59:31Z</time>
      </trkpt>
      <trkpt lat="43.48346" lon="2.05953">
        <ele>254</ele>
        <time>2023-05-27T13:59:32Z</time>
      </trkpt>
      <trkpt lat="43.4835" lon="2.05949">
        <ele>254</ele>
        <time>2023-05-27T13:59:33Z</time>
      </trkpt>
      <trkpt lat="43.48354" lon="2.05945">
        <ele>253.8</ele>
        <time>2023-05-27T13:59:34Z</time>
      </trkpt>
      <trkpt lat="43.48358" lon="2.05941">
        <ele>253.8</ele>
        <time>2023-05-27T13:59:35Z</time>
      </trkpt>
      <trkpt lat="43.48361" lon="2.05937">
        <ele>253.8</ele>
        <time>2023-05-27T13:59:36Z</time>
      </trkpt>
      <trkpt lat="43.48365" lon="2.05933">
        <ele>253.8</ele>
        <time>2023-05-27T13:59:37Z</time>
      </trkpt>
      <trkpt lat="43.48369" lon="2.05929">
        <ele>253.8</ele>
        <time>2023-05-27T13:59:38Z</time>
      </trkpt>
      <trkpt lat="43.48373" lon="2.05925">
        <ele>253.8</ele>
        <time>2023-05-27T13:59:39Z</time>
      </trkpt>
      <trkpt lat="43.48376" lon="2.05921">
        <ele>253.8</ele>
        <time>2023-05-27T13:59:40Z</time>
      </trkpt>
      <trkpt lat="43.4838" lon="2.05917">
        <ele>253.8</ele>
        <time>2023-05-27T13:59:41Z</time>
      </trkpt>
      <trkpt lat="43.48384" lon="2.05913">
        <ele>253.6</ele>
        <time>2023-05-27T13:59:42Z</time>
      </trkpt>
      <trkpt lat="43.48388" lon="2.0591">
        <ele>253.6</ele>
        <time>2023-05-27T13:59:43Z</time>
      </trkpt>
      <trkpt lat="43.48392" lon="2.05906">
        <ele>253.6</ele>
        <time>2023-05-27T13:59:44Z</time>
      </trkpt>
      <trkpt lat="43.48396" lon="2.05902">
        <ele>253.6</ele>
        <time>2023-05-27T13:59:45Z</time>
      </trkpt>
      <trkpt lat="43.48399" lon="2.05898">
        <ele>253.4</ele>
        <time>2023-05-27T13:59:46Z</time>
      </trkpt>
      <trkpt lat="43.48403" lon="2.05894">
        <ele>253.4</ele>
        <time>2023-05-27T13:59:47Z</time>
      </trkpt>
      <trkpt lat="43.48407" lon="2.0589">
        <ele>253.4</ele>
        <time>2023-05-27T13:59:48Z</time>
      </trkpt>
      <trkpt lat="43.4841" lon="2.05886">
        <ele>253.2</ele>
        <time>2023-05-27T13:59:49Z</time>
      </trkpt>
      <trkpt lat="43.48414" lon="2.05882">
        <ele>253.2</ele>
        <time>2023-05-27T13:59:50Z</time>
      </trkpt>
      <trkpt lat="43.48418" lon="2.05878">
        <ele>253.2</ele>
        <time>2023-05-27T13:59:51Z</time>
      </trkpt>
      <trkpt lat="43.48421" lon="2.05875">
        <ele>253.2</ele>
        <time>2023-05-27T13:59:52Z</time>
      </trkpt>
      <trkpt lat="43.48425" lon="2.05871">
        <ele>253.2</ele>
        <time>2023-05-27T13:59:53Z</time>
      </trkpt>
      <trkpt lat="43.48428" lon="2.05868">
        <ele>253.2</ele>
        <time>2023-05-27T13:59:54Z</time>
      </trkpt>
      <trkpt lat="43.48431" lon="2.05864">
        <ele>253.2</ele>
        <time>2023-05-27T13:59:55Z</time>
      </trkpt>
      <trkpt lat="43.48434" lon="2.05861">
        <ele>253.2</ele>
        <time>2023-05-27T13:59:56Z</time>
      </trkpt>
      <trkpt lat="43.48437" lon="2.05857">
        <ele>253.2</ele>
        <time>2023-05-27T13:59:57Z</time>
      </trkpt>
      <trkpt lat="43.4844" lon="2.05854">
        <ele>253.2</ele>
        <time>2023-05-27T13:59:58Z</time>
      </trkpt>
      <trkpt lat="43.48443" lon="2.0585">
        <ele>253.2</ele>
        <time>2023-05-27T13:59:59Z</time>
      </trkpt>
      <trkpt lat="43.48446" lon="2.05847">
        <ele>253.2</ele>
        <time>2023-05-27T14:00:00Z</time>
      </trkpt>
      <trkpt lat="43.48449" lon="2.05843">
        <ele>253.4</ele>
        <time>2023-05-27T14:00:01Z</time>
      </trkpt>
      <trkpt lat="43.48452" lon="2.0584">
        <ele>253.4</ele>
        <time>2023-05-27T14:00:02Z</time>
      </trkpt>
      <trkpt lat="43.48455" lon="2.05837">
        <ele>253.4</ele>
        <time>2023-05-27T14:00:03Z</time>
      </trkpt>
      <trkpt lat="43.48458" lon="2.05833">
        <ele>253.4</ele>
        <time>2023-05-27T14:00:04Z</time>
      </trkpt>
      <trkpt lat="43.48461" lon="2.0583">
        <ele>253.4</ele>
        <time>2023-05-27T14:00:05Z</time>
      </trkpt>
      <trkpt lat="43.48465" lon="2.05827">
        <ele>253.4</ele>
        <time>2023-05-27T14:00:06Z</time>
      </trkpt>
      <trkpt lat="43.48468" lon="2.05823">
        <ele>253.4</ele>
        <time>2023-05-27T14:00:07Z</time>
      </trkpt>
      <trkpt lat="43.48471" lon="2.05819">
        <ele>253.4</ele>
        <time>2023-05-27T14:00:08Z</time>
      </trkpt>
      <trkpt lat="43.48474" lon="2.05816">
        <ele>253.4</ele>
        <time>2023-05-27T14:00:09Z</time>
      </trkpt>
      <trkpt lat="43.48477" lon="2.05813">
        <ele>253.4</ele>
        <time>2023-05-27T14:00:10Z</time>
      </trkpt>
      <trkpt lat="43.4848" lon="2.05809">
        <ele>253.4</ele>
        <time>2023-05-27T14:00:11Z</time>
      </trkpt>
      <trkpt lat="43.48484" lon="2.05806">
        <ele>253.4</ele>
        <time>2023-05-27T14:00:12Z</time>
      </trkpt>
      <trkpt lat="43.48487" lon="2.05802">
        <ele>253.4</ele>
        <time>2023-05-27T14:00:13Z</time>
      </trkpt>
      <trkpt lat="43.4849" lon="2.05799">
        <ele>253.4</ele>
        <time>2023-05-27T14:00:14Z</time>
      </trkpt>
      <trkpt lat="43.48494" lon="2.05795">
        <ele>253.4</ele>
        <time>2023-05-27T14:00:15Z</time>
      </trkpt>
      <trkpt lat="43.48497" lon="2.05792">
        <ele>253.4</ele>
        <time>2023-05-27T14:00:16Z</time>
      </trkpt>
      <trkpt lat="43.485" lon="2.05788">
        <ele>253.4</ele>
        <time>2023-05-27T14:00:17Z</time>
      </trkpt>
      <trkpt lat="43.48504" lon="2.05785">
        <ele>253.4</ele>
        <time>2023-05-27T14:00:18Z</time>
      </trkpt>
      <trkpt lat="43.48507" lon="2.05782">
        <ele>253.4</ele>
        <time>2023-05-27T14:00:19Z</time>
      </trkpt>
      <trkpt lat="43.48511" lon="2.05779">
        <ele>253.2</ele>
        <time>2023-05-27T14:00:20Z</time>
      </trkpt>
      <trkpt lat="43.48514" lon="2.05776">
        <ele>253.2</ele>
        <time>2023-05-27T14:00:21Z</time>
      </trkpt>
      <trkpt lat="43.48518" lon="2.05773">
        <ele>253.2</ele>
        <time>2023-05-27T14:00:22Z</time>
      </trkpt>
      <trkpt lat="43.48522" lon="2.0577">
        <ele>253.2</ele>
        <time>2023-05-27T14:00:23Z</time>
      </trkpt>
      <trkpt lat="43.48525" lon="2.05767">
        <ele>253.2</ele>
        <time>2023-05-27T14:00:24Z</time>
      </trkpt>
      <trkpt lat="43.48528" lon="2.05764">
        <ele>253.2</ele>
        <time>2023-05-27T14:00:25Z</time>
      </trkpt>
      <trkpt lat="43.48532" lon="2.05761">
        <ele>253</ele>
        <time>2023-05-27T14:00:26Z</time>
      </trkpt>
      <trkpt lat="43.48536" lon="2.05759">
        <ele>253</ele>
        <time>2023-05-27T14:00:27Z</time>
      </trkpt>
      <trkpt lat="43.48539" lon="2.05756">
        <ele>253</ele>
        <time>2023-05-27T14:00:28Z</time>
      </trkpt>
      <trkpt lat="43.48543" lon="2.05753">
        <ele>253</ele>
        <time>2023-05-27T14:00:29Z</time>
      </trkpt>
      <trkpt lat="43.48548" lon="2.0575">
        <ele>252.8</ele>
        <time>2023-05-27T14:00:30Z</time>
      </trkpt>
      <trkpt lat="43.48552" lon="2.05747">
        <ele>252.8</ele>
        <time>2023-05-27T14:00:31Z</time>
      </trkpt>
      <trkpt lat="43.48556" lon="2.05745">
        <ele>252.8</ele>
        <time>2023-05-27T14:00:32Z</time>
      </trkpt>
      <trkpt lat="43.48559" lon="2.05742">
        <ele>252.8</ele>
        <time>2023-05-27T14:00:33Z</time>
      </trkpt>
      <trkpt lat="43.48563" lon="2.05739">
        <ele>252.8</ele>
        <time>2023-05-27T14:00:34Z</time>
      </trkpt>
      <trkpt lat="43.48567" lon="2.05736">
        <ele>252.6</ele>
        <time>2023-05-27T14:00:35Z</time>
      </trkpt>
      <trkpt lat="43.48571" lon="2.05733">
        <ele>252.6</ele>
        <time>2023-05-27T14:00:36Z</time>
      </trkpt>
      <trkpt lat="43.48575" lon="2.0573">
        <ele>252.6</ele>
        <time>2023-05-27T14:00:37Z</time>
      </trkpt>
      <trkpt lat="43.48579" lon="2.05727">
        <ele>252.4</ele>
        <time>2023-05-27T14:00:38Z</time>
      </trkpt>
      <trkpt lat="43.48584" lon="2.05724">
        <ele>252.2</ele>
        <time>2023-05-27T14:00:39Z</time>
      </trkpt>
      <trkpt lat="43.48588" lon="2.0572">
        <ele>252.2</ele>
        <time>2023-05-27T14:00:40Z</time>
      </trkpt>
      <trkpt lat="43.48593" lon="2.05717">
        <ele>252</ele>
        <time>2023-05-27T14:00:41Z</time>
      </trkpt>
      <trkpt lat="43.48598" lon="2.05713">
        <ele>251.8</ele>
        <time>2023-05-27T14:00:42Z</time>
      </trkpt>
      <trkpt lat="43.48603" lon="2.0571">
        <ele>251.6</ele>
        <time>2023-05-27T14:00:43Z</time>
      </trkpt>
      <trkpt lat="43.48609" lon="2.05707">
        <ele>251.4</ele>
        <time>2023-05-27T14:00:44Z</time>
      </trkpt>
      <trkpt lat="43.48614" lon="2.05704">
        <ele>251.2</ele>
        <time>2023-05-27T14:00:45Z</time>
      </trkpt>
      <trkpt lat="43.4862" lon="2.05701">
        <ele>251</ele>
        <time>2023-05-27T14:00:46Z</time>
      </trkpt>
      <trkpt lat="43.48625" lon="2.05698">
        <ele>250.8</ele>
        <time>2023-05-27T14:00:47Z</time>
      </trkpt>
      <trkpt lat="43.48631" lon="2.05695">
        <ele>250.6</ele>
        <time>2023-05-27T14:00:48Z</time>
      </trkpt>
      <trkpt lat="43.48637" lon="2.05692">
        <ele>250.4</ele>
        <time>2023-05-27T14:00:49Z</time>
      </trkpt>
      <trkpt lat="43.48643" lon="2.0569">
        <ele>250</ele>
        <time>2023-05-27T14:00:50Z</time>
      </trkpt>
      <trkpt lat="43.4865" lon="2.05687">
        <ele>249.8</ele>
        <time>2023-05-27T14:00:51Z</time>
      </trkpt>
      <trkpt lat="43.48656" lon="2.05684">
        <ele>249.6</ele>
        <time>2023-05-27T14:00:52Z</time>
      </trkpt>
      <trkpt lat="43.48663" lon="2.05681">
        <ele>249.2</ele>
        <time>2023-05-27T14:00:53Z</time>
      </trkpt>
      <trkpt lat="43.4867" lon="2.0568">
        <ele>249</ele>
        <time>2023-05-27T14:00:54Z</time>
      </trkpt>
      <trkpt lat="43.48677" lon="2.05679">
        <ele>248.6</ele>
        <time>2023-05-27T14:00:55Z</time>
      </trkpt>
      <trkpt lat="43.48685" lon="2.05681">
        <ele>248.4</ele>
        <time>2023-05-27T14:00:56Z</time>
      </trkpt>
      <trkpt lat="43.48692" lon="2.05683">
        <ele>248.2</ele>
        <time>2023-05-27T14:00:57Z</time>
      </trkpt>
      <trkpt lat="43.48699" lon="2.05685">
        <ele>248</ele>
        <time>2023-05-27T14:00:58Z</time>
      </trkpt>
      <trkpt lat="43.48705" lon="2.05686">
        <ele>247.8</ele>
        <time>2023-05-27T14:00:59Z</time>
      </trkpt>
      <trkpt lat="43.48712" lon="2.05685">
        <ele>247.6</ele>
        <time>2023-05-27T14:01:00Z</time>
      </trkpt>
      <trkpt lat="43.48719" lon="2.05681">
        <ele>247.4</ele>
        <time>2023-05-27T14:01:01Z</time>
      </trkpt>
      <trkpt lat="43.48725" lon="2.05677">
        <ele>247.2</ele>
        <time>2023-05-27T14:01:02Z</time>
      </trkpt>
      <trkpt lat="43.48731" lon="2.05672">
        <ele>247</ele>
        <time>2023-05-27T14:01:03Z</time>
      </trkpt>
      <trkpt lat="43.48737" lon="2.05669">
        <ele>246.6</ele>
        <time>2023-05-27T14:01:04Z</time>
      </trkpt>
      <trkpt lat="43.48744" lon="2.05668">
        <ele>246.4</ele>
        <time>2023-05-27T14:01:05Z</time>
      </trkpt>
      <trkpt lat="43.48751" lon="2.0567">
        <ele>246</ele>
        <time>2023-05-27T14:01:06Z</time>
      </trkpt>
      <trkpt lat="43.48758" lon="2.05674">
        <ele>245.8</ele>
        <time>2023-05-27T14:01:07Z</time>
      </trkpt>
      <trkpt lat="43.48765" lon="2.05677">
        <ele>245.4</ele>
        <time>2023-05-27T14:01:08Z</time>
      </trkpt>
      <trkpt lat="43.48772" lon="2.05678">
        <ele>245.2</ele>
        <time>2023-05-27T14:01:09Z</time>
      </trkpt>
      <trkpt lat="43.48779" lon="2.05676">
        <ele>244.8</ele>
        <time>2023-05-27T14:01:10Z</time>
      </trkpt>
      <trkpt lat="43.48786" lon="2.05671">
        <ele>244.6</ele>
        <time>2023-05-27T14:01:11Z</time>
      </trkpt>
      <trkpt lat="43.48791" lon="2.05664">
        <ele>244.4</ele>
        <time>2023-05-27T14:01:12Z</time>
      </trkpt>
      <trkpt lat="43.48796" lon="2.05656">
        <ele>244</ele>
        <time>2023-05-27T14:01:13Z</time>
      </trkpt>
      <trkpt lat="43.48801" lon="2.05648">
        <ele>244</ele>
        <time>2023-05-27T14:01:14Z</time>
      </trkpt>
      <trkpt lat="43.48805" lon="2.0564">
        <ele>243.8</ele>
        <time>2023-05-27T14:01:15Z</time>
      </trkpt>
      <trkpt lat="43.4881" lon="2.05633">
        <ele>243.6</ele>
        <time>2023-05-27T14:01:16Z</time>
      </trkpt>
      <trkpt lat="43.48814" lon="2.05625">
        <ele>243.4</ele>
        <time>2023-05-27T14:01:17Z</time>
      </trkpt>
      <trkpt lat="43.48819" lon="2.05618">
        <ele>243.2</ele>
        <time>2023-05-27T14:01:18Z</time>
      </trkpt>
      <trkpt lat="43.48823" lon="2.0561">
        <ele>243</ele>
        <time>2023-05-27T14:01:19Z</time>
      </trkpt>
      <trkpt lat="43.48827" lon="2.05603">
        <ele>242.8</ele>
        <time>2023-05-27T14:01:20Z</time>
      </trkpt>
      <trkpt lat="43.48832" lon="2.05597">
        <ele>242.6</ele>
        <time>2023-05-27T14:01:21Z</time>
      </trkpt>
      <trkpt lat="43.48836" lon="2.0559">
        <ele>242.4</ele>
        <time>2023-05-27T14:01:22Z</time>
      </trkpt>
      <trkpt lat="43.4884" lon="2.05583">
        <ele>242.2</ele>
        <time>2023-05-27T14:01:23Z</time>
      </trkpt>
      <trkpt lat="43.48843" lon="2.05577">
        <ele>242.2</ele>
        <time>2023-05-27T14:01:24Z</time>
      </trkpt>
      <trkpt lat="43.48847" lon="2.0557">
        <ele>242</ele>
        <time>2023-05-27T14:01:25Z</time>
      </trkpt>
      <trkpt lat="43.4885" lon="2.05564">
        <ele>241.8</ele>
        <time>2023-05-27T14:01:26Z</time>
      </trkpt>
      <trkpt lat="43.48855" lon="2.05559">
        <ele>241.6</ele>
        <time>2023-05-27T14:01:27Z</time>
      </trkpt>
      <trkpt lat="43.4886" lon="2.05556">
        <ele>241.6</ele>
        <time>2023-05-27T14:01:28Z</time>
      </trkpt>
      <trkpt lat="43.48866" lon="2.05554">
        <ele>241.4</ele>
        <time>2023-05-27T14:01:29Z</time>
      </trkpt>
      <trkpt lat="43.48871" lon="2.05555">
        <ele>241.4</ele>
        <time>2023-05-27T14:01:30Z</time>
      </trkpt>
      <trkpt lat="43.48877" lon="2.05557">
        <ele>241.4</ele>
        <time>2023-05-27T14:01:31Z</time>
      </trkpt>
      <trkpt lat="43.48882" lon="2.05559">
        <ele>241.4</ele>
        <time>2023-05-27T14:01:32Z</time>
      </trkpt>
      <trkpt lat="43.48887" lon="2.05562">
        <ele>241.4</ele>
        <time>2023-05-27T14:01:33Z</time>
      </trkpt>
      <trkpt lat="43.48892" lon="2.05565">
        <ele>241.4</ele>
        <time>2023-05-27T14:01:34Z</time>
      </trkpt>
      <trkpt lat="43.48897" lon="2.05567">
        <ele>241.4</ele>
        <time>2023-05-27T14:01:35Z</time>
      </trkpt>
      <trkpt lat="43.48901" lon="2.0557">
        <ele>241.4</ele>
        <time>2023-05-27T14:01:36Z</time>
      </trkpt>
      <trkpt lat="43.48906" lon="2.05572">
        <ele>241.6</ele>
        <time>2023-05-27T14:01:37Z</time>
      </trkpt>
      <trkpt lat="43.4891" lon="2.05574">
        <ele>241.8</ele>
        <time>2023-05-27T14:01:38Z</time>
      </trkpt>
      <trkpt lat="43.48914" lon="2.05576">
        <ele>241.8</ele>
        <time>2023-05-27T14:01:39Z</time>
      </trkpt>
      <trkpt lat="43.48918" lon="2.05578">
        <ele>242</ele>
        <time>2023-05-27T14:01:40Z</time>
      </trkpt>
      <trkpt lat="43.48921" lon="2.05579">
        <ele>242.2</ele>
        <time>2023-05-27T14:01:41Z</time>
      </trkpt>
      <trkpt lat="43.48924" lon="2.0558">
        <ele>242.4</ele>
        <time>2023-05-27T14:01:42Z</time>
      </trkpt>
      <trkpt lat="43.48927" lon="2.05581">
        <ele>242.6</ele>
        <time>2023-05-27T14:01:43Z</time>
      </trkpt>
      <trkpt lat="43.48929" lon="2.05582">
        <ele>242.8</ele>
        <time>2023-05-27T14:01:44Z</time>
      </trkpt>
      <trkpt lat="43.48931" lon="2.05583">
        <ele>243</ele>
        <time>2023-05-27T14:01:45Z</time>
      </trkpt>
      <trkpt lat="43.48933" lon="2.05583">
        <ele>243.2</ele>
        <time>2023-05-27T14:01:46Z</time>
      </trkpt>
      <trkpt lat="43.48936" lon="2.05583">
        <ele>243.4</ele>
        <time>2023-05-27T14:01:47Z</time>
      </trkpt>
      <trkpt lat="43.48938" lon="2.05582">
        <ele>243.6</ele>
        <time>2023-05-27T14:01:48Z</time>
      </trkpt>
      <trkpt lat="43.4894" lon="2.05582">
        <ele>243.8</ele>
        <time>2023-05-27T14:01:49Z</time>
      </trkpt>
      <trkpt lat="43.48942" lon="2.05581">
        <ele>244</ele>
        <time>2023-05-27T14:01:50Z</time>
      </trkpt>
      <trkpt lat="43.48944" lon="2.0558">
        <ele>244.2</ele>
        <time>2023-05-27T14:01:51Z</time>
      </trkpt>
      <trkpt lat="43.48946" lon="2.05578">
        <ele>244.4</ele>
        <time>2023-05-27T14:01:52Z</time>
      </trkpt>
      <trkpt lat="43.48948" lon="2.05576">
        <ele>244.6</ele>
        <time>2023-05-27T14:01:53Z</time>
      </trkpt>
      <trkpt lat="43.4895" lon="2.05575">
        <ele>244.6</ele>
        <time>2023-05-27T14:01:54Z</time>
      </trkpt>
      <trkpt lat="43.48952" lon="2.05573">
        <ele>244.8</ele>
        <time>2023-05-27T14:01:55Z</time>
      </trkpt>
      <trkpt lat="43.48954" lon="2.05571">
        <ele>244.8</ele>
        <time>2023-05-27T14:01:56Z</time>
      </trkpt>
      <trkpt lat="43.48956" lon="2.05569">
        <ele>244.8</ele>
        <time>2023-05-27T14:01:57Z</time>
      </trkpt>
      <trkpt lat="43.48958" lon="2.05566">
        <ele>245</ele>
        <time>2023-05-27T14:01:58Z</time>
      </trkpt>
      <trkpt lat="43.48959" lon="2.05564">
        <ele>245</ele>
        <time>2023-05-27T14:01:59Z</time>
      </trkpt>
      <trkpt lat="43.48961" lon="2.05561">
        <ele>245</ele>
        <time>2023-05-27T14:02:00Z</time>
      </trkpt>
      <trkpt lat="43.48962" lon="2.05559">
        <ele>245.2</ele>
        <time>2023-05-27T14:02:01Z</time>
      </trkpt>
      <trkpt lat="43.48964" lon="2.05556">
        <ele>245.2</ele>
        <time>2023-05-27T14:02:02Z</time>
      </trkpt>
      <trkpt lat="43.48965" lon="2.05554">
        <ele>245.2</ele>
        <time>2023-05-27T14:02:03Z</time>
      </trkpt>
      <trkpt lat="43.48967" lon="2.05552">
        <ele>245.4</ele>
        <time>2023-05-27T14:02:04Z</time>
      </trkpt>
      <trkpt lat="43.48968" lon="2.05549">
        <ele>245.4</ele>
        <time>2023-05-27T14:02:05Z</time>
      </trkpt>
      <trkpt lat="43.4897" lon="2.05548">
        <ele>245.4</ele>
        <time>2023-05-27T14:02:06Z</time>
      </trkpt>
      <trkpt lat="43.48972" lon="2.05547">
        <ele>245.6</ele>
        <time>2023-05-27T14:02:07Z</time>
      </trkpt>
      <trkpt lat="43.48974" lon="2.05548">
        <ele>245.6</ele>
        <time>2023-05-27T14:02:08Z</time>
      </trkpt>
      <trkpt lat="43.48976" lon="2.05549">
        <ele>245.8</ele>
        <time>2023-05-27T14:02:09Z</time>
      </trkpt>
      <trkpt lat="43.48976" lon="2.05551">
        <ele>246</ele>
        <time>2023-05-27T14:02:10Z</time>
      </trkpt>
      <trkpt lat="43.48977" lon="2.05553">
        <ele>246</ele>
        <time>2023-05-27T14:02:11Z</time>
      </trkpt>
      <trkpt lat="43.48978" lon="2.05556">
        <ele>246.2</ele>
        <time>2023-05-27T14:02:12Z</time>
      </trkpt>
      <trkpt lat="43.48978" lon="2.05558">
        <ele>246.4</ele>
        <time>2023-05-27T14:02:13Z</time>
      </trkpt>
      <trkpt lat="43.48978" lon="2.05561">
        <ele>246.4</ele>
        <time>2023-05-27T14:02:14Z</time>
      </trkpt>
      <trkpt lat="43.48979" lon="2.05563">
        <ele>246.6</ele>
        <time>2023-05-27T14:02:15Z</time>
      </trkpt>
      <trkpt lat="43.48979" lon="2.05566">
        <ele>246.6</ele>
        <time>2023-05-27T14:02:16Z</time>
      </trkpt>
      <trkpt lat="43.4898" lon="2.05568">
        <ele>246.8</ele>
        <time>2023-05-27T14:02:17Z</time>
      </trkpt>
      <trkpt lat="43.4898" lon="2.05571">
        <ele>246.8</ele>
        <time>2023-05-27T14:02:18Z</time>
      </trkpt>
      <trkpt lat="43.48981" lon="2.05574">
        <ele>247</ele>
        <time>2023-05-27T14:02:19Z</time>
      </trkpt>
      <trkpt lat="43.48982" lon="2.05576">
        <ele>247</ele>
        <time>2023-05-27T14:02:20Z</time>
      </trkpt>
      <trkpt lat="43.48982" lon="2.05578">
        <ele>247.2</ele>
        <time>2023-05-27T14:02:21Z</time>
      </trkpt>
      <trkpt lat="43.48983" lon="2.0558">
        <ele>247.2</ele>
        <time>2023-05-27T14:02:22Z</time>
      </trkpt>
      <trkpt lat="43.48984" lon="2.05582">
        <ele>247.4</ele>
        <time>2023-05-27T14:02:23Z</time>
      </trkpt>
      <trkpt lat="43.48985" lon="2.05583">
        <ele>247.4</ele>
        <time>2023-05-27T14:02:24Z</time>
      </trkpt>
      <trkpt lat="43.48986" lon="2.05585">
        <ele>247.4</ele>
        <time>2023-05-27T14:02:25Z</time>
      </trkpt>
      <trkpt lat="43.48987" lon="2.05587">
        <ele>247.6</ele>
        <time>2023-05-27T14:02:26Z</time>
      </trkpt>
      <trkpt lat="43.48988" lon="2.0559">
        <ele>247.6</ele>
        <time>2023-05-27T14:02:27Z</time>
      </trkpt>
      <trkpt lat="43.48989" lon="2.05592">
        <ele>247.6</ele>
        <time>2023-05-27T14:02:28Z</time>
      </trkpt>
      <trkpt lat="43.4899" lon="2.05594">
        <ele>247.8</ele>
        <time>2023-05-27T14:02:29Z</time>
      </trkpt>
      <trkpt lat="43.48991" lon="2.05596">
        <ele>247.8</ele>
        <time>2023-05-27T14:02:30Z</time>
      </trkpt>
      <trkpt lat="43.48992" lon="2.05598">
        <ele>247.8</ele>
        <time>2023-05-27T14:02:31Z</time>
      </trkpt>
      <trkpt lat="43.48993" lon="2.056">
        <ele>247.8</ele>
        <time>2023-05-27T14:02:32Z</time>
      </trkpt>
      <trkpt lat="43.48995" lon="2.05602">
        <ele>247.8</ele>
        <time>2023-05-27T14:02:33Z</time>
      </trkpt>
      <trkpt lat="43.48996" lon="2.05603">
        <ele>248</ele>
        <time>2023-05-27T14:02:34Z</time>
      </trkpt>
      <trkpt lat="43.48998" lon="2.05605">
        <ele>248</ele>
        <time>2023-05-27T14:02:35Z</time>
      </trkpt>
      <trkpt lat="43.48999" lon="2.05606">
        <ele>248</ele>
        <time>2023-05-27T14:02:36Z</time>
      </trkpt>
      <trkpt lat="43.49001" lon="2.05607">
        <ele>248</ele>
        <time>2023-05-27T14:02:37Z</time>
      </trkpt>
      <trkpt lat="43.49003" lon="2.05608">
        <ele>248</ele>
        <time>2023-05-27T14:02:38Z</time>
      </trkpt>
      <trkpt lat="43.49004" lon="2.05608">
        <ele>248.2</ele>
        <time>2023-05-27T14:02:39Z</time>
      </trkpt>
      <trkpt lat="43.49006" lon="2.05609">
        <ele>248.2</ele>
        <time>2023-05-27T14:02:40Z</time>
      </trkpt>
      <trkpt lat="43.49008" lon="2.0561">
        <ele>248.2</ele>
        <time>2023-05-27T14:02:41Z</time>
      </trkpt>
      <trkpt lat="43.49009" lon="2.05611">
        <ele>248.2</ele>
        <time>2023-05-27T14:02:42Z</time>
      </trkpt>
      <trkpt lat="43.49011" lon="2.05612">
        <ele>248.2</ele>
        <time>2023-05-27T14:02:43Z</time>
      </trkpt>
      <trkpt lat="43.49013" lon="2.05613">
        <ele>248.2</ele>
        <time>2023-05-27T14:02:44Z</time>
      </trkpt>
      <trkpt lat="43.49015" lon="2.05614">
        <ele>248.2</ele>
        <time>2023-05-27T14:02:45Z</time>
      </trkpt>
      <trkpt lat="43.49017" lon="2.05615">
        <ele>248.4</ele>
        <time>2023-05-27T14:02:46Z</time>
      </trkpt>
      <trkpt lat="43.49019" lon="2.05617">
        <ele>248.4</ele>
        <time>2023-05-27T14:02:47Z</time>
      </trkpt>
      <trkpt lat="43.49021" lon="2.05618">
        <ele>248.4</ele>
        <time>2023-05-27T14:02:48Z</time>
      </trkpt>
      <trkpt lat="43.49023" lon="2.05619">
        <ele>248.4</ele>
        <time>2023-05-27T14:02:49Z</time>
      </trkpt>
      <trkpt lat="43.49025" lon="2.05621">
        <ele>248.4</ele>
        <time>2023-05-27T14:02:50Z</time>
      </trkpt>
      <trkpt lat="43.49027" lon="2.05623">
        <ele>248.4</ele>
        <time>2023-05-27T14:02:51Z</time>
      </trkpt>
      <trkpt lat="43.49029" lon="2.05625">
        <ele>248.4</ele>
        <time>2023-05-27T14:02:52Z</time>
      </trkpt>
      <trkpt lat="43.49031" lon="2.05627">
        <ele>248.4</ele>
        <time>2023-05-27T14:02:53Z</time>
      </trkpt>
      <trkpt lat="43.49033" lon="2.05629">
        <ele>248.4</ele>
        <time>2023-05-27T14:02:54Z</time>
      </trkpt>
      <trkpt lat="43.49035" lon="2.05631">
        <ele>248.4</ele>
        <time>2023-05-27T14:02:55Z</time>
      </trkpt>
      <trkpt lat="43.49037" lon="2.05634">
        <ele>248.4</ele>
        <time>2023-05-27T14:02:56Z</time>
      </trkpt>
      <trkpt lat="43.49039" lon="2.05636">
        <ele>248.4</ele>
        <time>2023-05-27T14:02:57Z</time>
      </trkpt>
      <trkpt lat="43.49042" lon="2.05639">
        <ele>248.4</ele>
        <time>2023-05-27T14:02:58Z</time>
      </trkpt>
      <trkpt lat="43.49044" lon="2.05642">
        <ele>248.4</ele>
        <time>2023-05-27T14:02:59Z</time>
      </trkpt>
      <trkpt lat="43.49046" lon="2.05645">
        <ele>248.4</ele>
        <time>2023-05-27T14:03:00Z</time>
      </trkpt>
      <trkpt lat="43.49048" lon="2.05647">
        <ele>248.2</ele>
        <time>2023-05-27T14:03:01Z</time>
      </trkpt>
      <trkpt lat="43.49051" lon="2.0565">
        <ele>248.2</ele>
        <time>2023-05-27T14:03:02Z</time>
      </trkpt>
      <trkpt lat="43.49054" lon="2.05653">
        <ele>248.2</ele>
        <time>2023-05-27T14:03:03Z</time>
      </trkpt>
      <trkpt lat="43.49056" lon="2.05656">
        <ele>248.2</ele>
        <time>2023-05-27T14:03:04Z</time>
      </trkpt>
      <trkpt lat="43.49059" lon="2.05659">
        <ele>248.2</ele>
        <time>2023-05-27T14:03:05Z</time>
      </trkpt>
      <trkpt lat="43.49061" lon="2.05662">
        <ele>248.2</ele>
        <time>2023-05-27T14:03:06Z</time>
      </trkpt>
      <trkpt lat="43.49064" lon="2.05665">
        <ele>248.2</ele>
        <time>2023-05-27T14:03:07Z</time>
      </trkpt>
      <trkpt lat="43.49067" lon="2.05668">
        <ele>248.2</ele>
        <time>2023-05-27T14:03:08Z</time>
      </trkpt>
      <trkpt lat="43.49069" lon="2.05671">
        <ele>248.2</ele>
        <time>2023-05-27T14:03:09Z</time>
      </trkpt>
      <trkpt lat="43.49072" lon="2.05674">
        <ele>248.2</ele>
        <time>2023-05-27T14:03:10Z</time>
      </trkpt>
      <trkpt lat="43.49074" lon="2.05676">
        <ele>248.2</ele>
        <time>2023-05-27T14:03:11Z</time>
      </trkpt>
      <trkpt lat="43.49077" lon="2.05678">
        <ele>248</ele>
        <time>2023-05-27T14:03:12Z</time>
      </trkpt>
      <trkpt lat="43.4908" lon="2.05681">
        <ele>248</ele>
        <time>2023-05-27T14:03:13Z</time>
      </trkpt>
      <trkpt lat="43.49083" lon="2.05683">
        <ele>248</ele>
        <time>2023-05-27T14:03:14Z</time>
      </trkpt>
      <trkpt lat="43.49086" lon="2.05686">
        <ele>248</ele>
        <time>2023-05-27T14:03:15Z</time>
      </trkpt>
      <trkpt lat="43.49088" lon="2.05689">
        <ele>248</ele>
        <time>2023-05-27T14:03:16Z</time>
      </trkpt>
      <trkpt lat="43.49091" lon="2.05692">
        <ele>248.2</ele>
        <time>2023-05-27T14:03:17Z</time>
      </trkpt>
      <trkpt lat="43.49093" lon="2.05695">
        <ele>248.2</ele>
        <time>2023-05-27T14:03:18Z</time>
      </trkpt>
      <trkpt lat="43.49096" lon="2.05697">
        <ele>248.2</ele>
        <time>2023-05-27T14:03:19Z</time>
      </trkpt>
      <trkpt lat="43.49098" lon="2.057">
        <ele>248.2</ele>
        <time>2023-05-27T14:03:20Z</time>
      </trkpt>
      <trkpt lat="43.491" lon="2.05703">
        <ele>248.2</ele>
        <time>2023-05-27T14:03:21Z</time>
      </trkpt>
      <trkpt lat="43.49102" lon="2.05706">
        <ele>248.2</ele>
        <time>2023-05-27T14:03:22Z</time>
      </trkpt>
      <trkpt lat="43.49105" lon="2.05709">
        <ele>248.2</ele>
        <time>2023-05-27T14:03:23Z</time>
      </trkpt>
      <trkpt lat="43.49107" lon="2.05712">
        <ele>248.4</ele>
        <time>2023-05-27T14:03:24Z</time>
      </trkpt>
      <trkpt lat="43.49109" lon="2.05716">
        <ele>248.4</ele>
        <time>2023-05-27T14:03:25Z</time>
      </trkpt>
      <trkpt lat="43.49111" lon="2.05719">
        <ele>248.4</ele>
        <time>2023-05-27T14:03:26Z</time>
      </trkpt>
      <trkpt lat="43.49113" lon="2.05722">
        <ele>248.4</ele>
        <time>2023-05-27T14:03:27Z</time>
      </trkpt>
      <trkpt lat="43.49114" lon="2.05725">
        <ele>248.4</ele>
        <time>2023-05-27T14:03:28Z</time>
      </trkpt>
      <trkpt lat="43.49116" lon="2.05728">
        <ele>248.6</ele>
        <time>2023-05-27T14:03:29Z</time>
      </trkpt>
      <trkpt lat="43.49118" lon="2.05731">
        <ele>248.6</ele>
        <time>2023-05-27T14:03:30Z</time>
      </trkpt>
      <trkpt lat="43.4912" lon="2.05734">
        <ele>248.6</ele>
        <time>2023-05-27T14:03:31Z</time>
      </trkpt>
      <trkpt lat="43.49121" lon="2.05736">
        <ele>248.6</ele>
        <time>2023-05-27T14:03:32Z</time>
      </trkpt>
      <trkpt lat="43.49123" lon="2.05739">
        <ele>248.8</ele>
        <time>2023-05-27T14:03:33Z</time>
      </trkpt>
      <trkpt lat="43.49125" lon="2.05742">
        <ele>248.8</ele>
        <time>2023-05-27T14:03:34Z</time>
      </trkpt>
      <trkpt lat="43.49126" lon="2.05745">
        <ele>248.8</ele>
        <time>2023-05-27T14:03:35Z</time>
      </trkpt>
      <trkpt lat="43.49128" lon="2.05747">
        <ele>249</ele>
        <time>2023-05-27T14:03:36Z</time>
      </trkpt>
      <trkpt lat="43.4913" lon="2.0575">
        <ele>249</ele>
        <time>2023-05-27T14:03:37Z</time>
      </trkpt>
      <trkpt lat="43.49132" lon="2.05753">
        <ele>249</ele>
        <time>2023-05-27T14:03:38Z</time>
      </trkpt>
      <trkpt lat="43.49133" lon="2.05756">
        <ele>249.2</ele>
        <time>2023-05-27T14:03:39Z</time>
      </trkpt>
      <trkpt lat="43.49135" lon="2.05759">
        <ele>249.2</ele>
        <time>2023-05-27T14:03:40Z</time>
      </trkpt>
      <trkpt lat="43.49137" lon="2.05762">
        <ele>249.4</ele>
        <time>2023-05-27T14:03:41Z</time>
      </trkpt>
      <trkpt lat="43.49139" lon="2.05764">
        <ele>249.4</ele>
        <time>2023-05-27T14:03:42Z</time>
      </trkpt>
      <trkpt lat="43.49141" lon="2.05767">
        <ele>249.4</ele>
        <time>2023-05-27T14:03:43Z</time>
      </trkpt>
      <trkpt lat="43.49142" lon="2.05769">
        <ele>249.4</ele>
        <time>2023-05-27T14:03:44Z</time>
      </trkpt>
      <trkpt lat="43.49144" lon="2.05772">
        <ele>249.4</ele>
        <time>2023-05-27T14:03:45Z</time>
      </trkpt>
      <trkpt lat="43.49145" lon="2.05775">
        <ele>249.6</ele>
        <time>2023-05-27T14:03:46Z</time>
      </trkpt>
      <trkpt lat="43.49147" lon="2.05779">
        <ele>249.6</ele>
        <time>2023-05-27T14:03:47Z</time>
      </trkpt>
      <trkpt lat="43.49148" lon="2.05782">
        <ele>249.6</ele>
        <time>2023-05-27T14:03:48Z</time>
      </trkpt>
      <trkpt lat="43.4915" lon="2.05785">
        <ele>249.8</ele>
        <time>2023-05-27T14:03:49Z</time>
      </trkpt>
      <trkpt lat="43.49151" lon="2.05789">
        <ele>249.8</ele>
        <time>2023-05-27T14:03:50Z</time>
      </trkpt>
      <trkpt lat="43.49152" lon="2.05793">
        <ele>249.8</ele>
        <time>2023-05-27T14:03:51Z</time>
      </trkpt>
      <trkpt lat="43.49153" lon="2.05796">
        <ele>249.8</ele>
        <time>2023-05-27T14:03:52Z</time>
      </trkpt>
      <trkpt lat="43.49154" lon="2.05799">
        <ele>250</ele>
        <time>2023-05-27T14:03:53Z</time>
      </trkpt>
      <trkpt lat="43.49156" lon="2.05803">
        <ele>250</ele>
        <time>2023-05-27T14:03:54Z</time>
      </trkpt>
      <trkpt lat="43.49157" lon="2.05806">
        <ele>250.2</ele>
        <time>2023-05-27T14:03:55Z</time>
      </trkpt>
      <trkpt lat="43.49158" lon="2.05809">
        <ele>250.2</ele>
        <time>2023-05-27T14:03:56Z</time>
      </trkpt>
      <trkpt lat="43.4916" lon="2.05812">
        <ele>250.4</ele>
        <time>2023-05-27T14:03:57Z</time>
      </trkpt>
      <trkpt lat="43.49161" lon="2.05815">
        <ele>250.4</ele>
        <time>2023-05-27T14:03:58Z</time>
      </trkpt>
      <trkpt lat="43.49162" lon="2.05818">
        <ele>250.4</ele>
        <time>2023-05-27T14:03:59Z</time>
      </trkpt>
      <trkpt lat="43.49163" lon="2.05821">
        <ele>250.6</ele>
        <time>2023-05-27T14:04:00Z</time>
      </trkpt>
      <trkpt lat="43.49165" lon="2.05824">
        <ele>250.6</ele>
        <time>2023-05-27T14:04:01Z</time>
      </trkpt>
      <trkpt lat="43.49166" lon="2.05827">
        <ele>250.6</ele>
        <time>2023-05-27T14:04:02Z</time>
      </trkpt>
      <trkpt lat="43.49167" lon="2.0583">
        <ele>250.6</ele>
        <time>2023-05-27T14:04:03Z</time>
      </trkpt>
      <trkpt lat="43.49168" lon="2.05834">
        <ele>250.6</ele>
        <time>2023-05-27T14:04:04Z</time>
      </trkpt>
      <trkpt lat="43.49169" lon="2.05838">
        <ele>250.4</ele>
        <time>2023-05-27T14:04:05Z</time>
      </trkpt>
      <trkpt lat="43.49171" lon="2.05842">
        <ele>250.4</ele>
        <time>2023-05-27T14:04:06Z</time>
      </trkpt>
      <trkpt lat="43.49173" lon="2.05847">
        <ele>250.4</ele>
        <time>2023-05-27T14:04:07Z</time>
      </trkpt>
      <trkpt lat="43.49174" lon="2.05851">
        <ele>250.4</ele>
        <time>2023-05-27T14:04:08Z</time>
      </trkpt>
      <trkpt lat="43.49176" lon="2.05856">
        <ele>250.4</ele>
        <time>2023-05-27T14:04:09Z</time>
      </trkpt>
      <trkpt lat="43.49178" lon="2.0586">
        <ele>250.2</ele>
        <time>2023-05-27T14:04:10Z</time>
      </trkpt>
      <trkpt lat="43.49179" lon="2.05865">
        <ele>250.2</ele>
        <time>2023-05-27T14:04:11Z</time>
      </trkpt>
      <trkpt lat="43.49181" lon="2.0587">
        <ele>250.2</ele>
        <time>2023-05-27T14:04:12Z</time>
      </trkpt>
      <trkpt lat="43.49183" lon="2.05874">
        <ele>250</ele>
        <time>2023-05-27T14:04:13Z</time>
      </trkpt>
      <trkpt lat="43.49186" lon="2.05879">
        <ele>250</ele>
        <time>2023-05-27T14:04:14Z</time>
      </trkpt>
      <trkpt lat="43.49188" lon="2.05883">
        <ele>249.8</ele>
        <time>2023-05-27T14:04:15Z</time>
      </trkpt>
      <trkpt lat="43.49191" lon="2.05888">
        <ele>249.8</ele>
        <time>2023-05-27T14:04:16Z</time>
      </trkpt>
      <trkpt lat="43.49194" lon="2.05893">
        <ele>249.6</ele>
        <time>2023-05-27T14:04:17Z</time>
      </trkpt>
      <trkpt lat="43.49197" lon="2.05898">
        <ele>249.4</ele>
        <time>2023-05-27T14:04:18Z</time>
      </trkpt>
      <trkpt lat="43.49201" lon="2.05903">
        <ele>249.2</ele>
        <time>2023-05-27T14:04:19Z</time>
      </trkpt>
      <trkpt lat="43.49205" lon="2.05908">
        <ele>249</ele>
        <time>2023-05-27T14:04:20Z</time>
      </trkpt>
      <trkpt lat="43.4921" lon="2.05913">
        <ele>248.8</ele>
        <time>2023-05-27T14:04:21Z</time>
      </trkpt>
      <trkpt lat="43.49216" lon="2.05917">
        <ele>248.4</ele>
        <time>2023-05-27T14:04:22Z</time>
      </trkpt>
      <trkpt lat="43.49222" lon="2.05921">
        <ele>248</ele>
        <time>2023-05-27T14:04:23Z</time>
      </trkpt>
      <trkpt lat="43.49228" lon="2.05924">
        <ele>247.6</ele>
        <time>2023-05-27T14:04:24Z</time>
      </trkpt>
      <trkpt lat="43.49235" lon="2.05928">
        <ele>247.4</ele>
        <time>2023-05-27T14:04:25Z</time>
      </trkpt>
      <trkpt lat="43.49242" lon="2.05933">
        <ele>247</ele>
        <time>2023-05-27T14:04:26Z</time>
      </trkpt>
      <trkpt lat="43.49249" lon="2.05939">
        <ele>246.8</ele>
        <time>2023-05-27T14:04:27Z</time>
      </trkpt>
      <trkpt lat="43.49256" lon="2.05947">
        <ele>246.4</ele>
        <time>2023-05-27T14:04:28Z</time>
      </trkpt>
      <trkpt lat="43.49261" lon="2.05956">
        <ele>245.8</ele>
        <time>2023-05-27T14:04:29Z</time>
      </trkpt>
      <trkpt lat="43.49267" lon="2.05965">
        <ele>245.2</ele>
        <time>2023-05-27T14:04:30Z</time>
      </trkpt>
      <trkpt lat="43.49273" lon="2.05977">
        <ele>244.6</ele>
        <time>2023-05-27T14:04:31Z</time>
      </trkpt>
      <trkpt lat="43.49279" lon="2.05988">
        <ele>243.8</ele>
        <time>2023-05-27T14:04:32Z</time>
      </trkpt>
      <trkpt lat="43.49284" lon="2.05999">
        <ele>243</ele>
        <time>2023-05-27T14:04:33Z</time>
      </trkpt>
      <trkpt lat="43.49291" lon="2.06011">
        <ele>242.2</ele>
        <time>2023-05-27T14:04:34Z</time>
      </trkpt>
      <trkpt lat="43.49298" lon="2.06023">
        <ele>241.2</ele>
        <time>2023-05-27T14:04:35Z</time>
      </trkpt>
      <trkpt lat="43.49304" lon="2.06035">
        <ele>240.4</ele>
        <time>2023-05-27T14:04:36Z</time>
      </trkpt>
      <trkpt lat="43.49311" lon="2.06048">
        <ele>239.4</ele>
        <time>2023-05-27T14:04:37Z</time>
      </trkpt>
      <trkpt lat="43.49318" lon="2.06061">
        <ele>238.6</ele>
        <time>2023-05-27T14:04:38Z</time>
      </trkpt>
      <trkpt lat="43.49325" lon="2.06074">
        <ele>237.6</ele>
        <time>2023-05-27T14:04:39Z</time>
      </trkpt>
      <trkpt lat="43.49333" lon="2.06088">
        <ele>236.8</ele>
        <time>2023-05-27T14:04:40Z</time>
      </trkpt>
      <trkpt lat="43.4934" lon="2.061">
        <ele>236</ele>
        <time>2023-05-27T14:04:41Z</time>
      </trkpt>
      <trkpt lat="43.49346" lon="2.06112">
        <ele>235</ele>
        <time>2023-05-27T14:04:42Z</time>
      </trkpt>
      <trkpt lat="43.49354" lon="2.06126">
        <ele>234.2</ele>
        <time>2023-05-27T14:04:43Z</time>
      </trkpt>
      <trkpt lat="43.49362" lon="2.06138">
        <ele>233.4</ele>
        <time>2023-05-27T14:04:44Z</time>
      </trkpt>
      <trkpt lat="43.49369" lon="2.06149">
        <ele>232.8</ele>
        <time>2023-05-27T14:04:45Z</time>
      </trkpt>
      <trkpt lat="43.49376" lon="2.0616">
        <ele>232</ele>
        <time>2023-05-27T14:04:46Z</time>
      </trkpt>
      <trkpt lat="43.49385" lon="2.06172">
        <ele>231.4</ele>
        <time>2023-05-27T14:04:47Z</time>
      </trkpt>
      <trkpt lat="43.49392" lon="2.06182">
        <ele>231</ele>
        <time>2023-05-27T14:04:48Z</time>
      </trkpt>
      <trkpt lat="43.49401" lon="2.06192">
        <ele>230.4</ele>
        <time>2023-05-27T14:04:49Z</time>
      </trkpt>
      <trkpt lat="43.49408" lon="2.06202">
        <ele>229.8</ele>
        <time>2023-05-27T14:04:50Z</time>
      </trkpt>
      <trkpt lat="43.49415" lon="2.06211">
        <ele>229.2</ele>
        <time>2023-05-27T14:04:51Z</time>
      </trkpt>
      <trkpt lat="43.49423" lon="2.0622">
        <ele>228.6</ele>
        <time>2023-05-27T14:04:52Z</time>
      </trkpt>
      <trkpt lat="43.49432" lon="2.06229">
        <ele>227.8</ele>
        <time>2023-05-27T14:04:53Z</time>
      </trkpt>
      <trkpt lat="43.49441" lon="2.06239">
        <ele>227</ele>
        <time>2023-05-27T14:04:54Z</time>
      </trkpt>
      <trkpt lat="43.49449" lon="2.06249">
        <ele>226.2</ele>
        <time>2023-05-27T14:04:55Z</time>
      </trkpt>
      <trkpt lat="43.49457" lon="2.06257">
        <ele>225.4</ele>
        <time>2023-05-27T14:04:56Z</time>
      </trkpt>
      <trkpt lat="43.49466" lon="2.06267">
        <ele>224.6</ele>
        <time>2023-05-27T14:04:57Z</time>
      </trkpt>
      <trkpt lat="43.49475" lon="2.06277">
        <ele>223.8</ele>
        <time>2023-05-27T14:04:58Z</time>
      </trkpt>
      <trkpt lat="43.49484" lon="2.06287">
        <ele>223</ele>
        <time>2023-05-27T14:04:59Z</time>
      </trkpt>
      <trkpt lat="43.49489" lon="2.06294">
        <ele>222.2</ele>
        <time>2023-05-27T14:05:00Z</time>
      </trkpt>
      <trkpt lat="43.49492" lon="2.06299">
        <ele>221.4</ele>
        <time>2023-05-27T14:05:01Z</time>
      </trkpt>
      <trkpt lat="43.49497" lon="2.06309">
        <ele>220.8</ele>
        <time>2023-05-27T14:05:02Z</time>
      </trkpt>
      <trkpt lat="43.49507" lon="2.06334">
        <ele>220.2</ele>
        <time>2023-05-27T14:05:03Z</time>
      </trkpt>
      <trkpt lat="43.49513" lon="2.0635">
        <ele>219.8</ele>
        <time>2023-05-27T14:05:04Z</time>
      </trkpt>
      <trkpt lat="43.49516" lon="2.06362">
        <ele>219.6</ele>
        <time>2023-05-27T14:05:05Z</time>
      </trkpt>
      <trkpt lat="43.4952" lon="2.06375">
        <ele>219.2</ele>
        <time>2023-05-27T14:05:06Z</time>
      </trkpt>
      <trkpt lat="43.49525" lon="2.06388">
        <ele>219</ele>
        <time>2023-05-27T14:05:07Z</time>
      </trkpt>
      <trkpt lat="43.49528" lon="2.06399">
        <ele>219</ele>
        <time>2023-05-27T14:05:08Z</time>
      </trkpt>
      <trkpt lat="43.49532" lon="2.06408">
        <ele>218.8</ele>
        <time>2023-05-27T14:05:09Z</time>
      </trkpt>
      <trkpt lat="43.49535" lon="2.0642">
        <ele>218.8</ele>
        <time>2023-05-27T14:05:10Z</time>
      </trkpt>
      <trkpt lat="43.49538" lon="2.06429">
        <ele>218.6</ele>
        <time>2023-05-27T14:05:11Z</time>
      </trkpt>
      <trkpt lat="43.49541" lon="2.06437">
        <ele>218.8</ele>
        <time>2023-05-27T14:05:12Z</time>
      </trkpt>
      <trkpt lat="43.49544" lon="2.06445">
        <ele>218.8</ele>
        <time>2023-05-27T14:05:13Z</time>
      </trkpt>
      <trkpt lat="43.49547" lon="2.06452">
        <ele>219</ele>
        <time>2023-05-27T14:05:14Z</time>
      </trkpt>
      <trkpt lat="43.49549" lon="2.06459">
        <ele>219.2</ele>
        <time>2023-05-27T14:05:15Z</time>
      </trkpt>
      <trkpt lat="43.49551" lon="2.06465">
        <ele>219.4</ele>
        <time>2023-05-27T14:05:16Z</time>
      </trkpt>
      <trkpt lat="43.49553" lon="2.0647">
        <ele>219.6</ele>
        <time>2023-05-27T14:05:17Z</time>
      </trkpt>
      <trkpt lat="43.49555" lon="2.06475">
        <ele>219.8</ele>
        <time>2023-05-27T14:05:18Z</time>
      </trkpt>
      <trkpt lat="43.49557" lon="2.06479">
        <ele>220</ele>
        <time>2023-05-27T14:05:19Z</time>
      </trkpt>
      <trkpt lat="43.49559" lon="2.06483">
        <ele>220.2</ele>
        <time>2023-05-27T14:05:20Z</time>
      </trkpt>
      <trkpt lat="43.49561" lon="2.06487">
        <ele>220.4</ele>
        <time>2023-05-27T14:05:21Z</time>
      </trkpt>
      <trkpt lat="43.49562" lon="2.0649">
        <ele>220.6</ele>
        <time>2023-05-27T14:05:22Z</time>
      </trkpt>
      <trkpt lat="43.49564" lon="2.06494">
        <ele>221</ele>
        <time>2023-05-27T14:05:23Z</time>
      </trkpt>
      <trkpt lat="43.49566" lon="2.06497">
        <ele>221.2</ele>
        <time>2023-05-27T14:05:24Z</time>
      </trkpt>
      <trkpt lat="43.49568" lon="2.06501">
        <ele>221.4</ele>
        <time>2023-05-27T14:05:25Z</time>
      </trkpt>
      <trkpt lat="43.4957" lon="2.06504">
        <ele>221.6</ele>
        <time>2023-05-27T14:05:26Z</time>
      </trkpt>
      <trkpt lat="43.49572" lon="2.06508">
        <ele>221.6</ele>
        <time>2023-05-27T14:05:27Z</time>
      </trkpt>
      <trkpt lat="43.49573" lon="2.06511">
        <ele>221.8</ele>
        <time>2023-05-27T14:05:28Z</time>
      </trkpt>
      <trkpt lat="43.49575" lon="2.06514">
        <ele>222</ele>
        <time>2023-05-27T14:05:29Z</time>
      </trkpt>
      <trkpt lat="43.49577" lon="2.06517">
        <ele>222.2</ele>
        <time>2023-05-27T14:05:30Z</time>
      </trkpt>
      <trkpt lat="43.49579" lon="2.0652">
        <ele>222.2</ele>
        <time>2023-05-27T14:05:31Z</time>
      </trkpt>
      <trkpt lat="43.49581" lon="2.06523">
        <ele>222.2</ele>
        <time>2023-05-27T14:05:32Z</time>
      </trkpt>
      <trkpt lat="43.49583" lon="2.06527">
        <ele>222.4</ele>
        <time>2023-05-27T14:05:33Z</time>
      </trkpt>
      <trkpt lat="43.49585" lon="2.0653">
        <ele>222.4</ele>
        <time>2023-05-27T14:05:34Z</time>
      </trkpt>
      <trkpt lat="43.49587" lon="2.06533">
        <ele>222.4</ele>
        <time>2023-05-27T14:05:35Z</time>
      </trkpt>
      <trkpt lat="43.4959" lon="2.06536">
        <ele>222.4</ele>
        <time>2023-05-27T14:05:36Z</time>
      </trkpt>
      <trkpt lat="43.49593" lon="2.06539">
        <ele>222.4</ele>
        <time>2023-05-27T14:05:37Z</time>
      </trkpt>
      <trkpt lat="43.49595" lon="2.06542">
        <ele>222.4</ele>
        <time>2023-05-27T14:05:38Z</time>
      </trkpt>
      <trkpt lat="43.49598" lon="2.06546">
        <ele>222.4</ele>
        <time>2023-05-27T14:05:39Z</time>
      </trkpt>
      <trkpt lat="43.49602" lon="2.06549">
        <ele>222.2</ele>
        <time>2023-05-27T14:05:40Z</time>
      </trkpt>
      <trkpt lat="43.49606" lon="2.06554">
        <ele>222</ele>
        <time>2023-05-27T14:05:41Z</time>
      </trkpt>
      <trkpt lat="43.49611" lon="2.06558">
        <ele>221.8</ele>
        <time>2023-05-27T14:05:42Z</time>
      </trkpt>
      <trkpt lat="43.49616" lon="2.06563">
        <ele>221.4</ele>
        <time>2023-05-27T14:05:43Z</time>
      </trkpt>
      <trkpt lat="43.49621" lon="2.06567">
        <ele>221</ele>
        <time>2023-05-27T14:05:44Z</time>
      </trkpt>
      <trkpt lat="43.49628" lon="2.06572">
        <ele>220.6</ele>
        <time>2023-05-27T14:05:45Z</time>
      </trkpt>
      <trkpt lat="43.49636" lon="2.06579">
        <ele>220</ele>
        <time>2023-05-27T14:05:46Z</time>
      </trkpt>
      <trkpt lat="43.49642" lon="2.06584">
        <ele>219.6</ele>
        <time>2023-05-27T14:05:47Z</time>
      </trkpt>
      <trkpt lat="43.49649" lon="2.0659">
        <ele>219</ele>
        <time>2023-05-27T14:05:48Z</time>
      </trkpt>
      <trkpt lat="43.49658" lon="2.06598">
        <ele>218.4</ele>
        <time>2023-05-27T14:05:49Z</time>
      </trkpt>
      <trkpt lat="43.49666" lon="2.06605">
        <ele>217.8</ele>
        <time>2023-05-27T14:05:50Z</time>
      </trkpt>
      <trkpt lat="43.49674" lon="2.06612">
        <ele>217</ele>
        <time>2023-05-27T14:05:51Z</time>
      </trkpt>
      <trkpt lat="43.49682" lon="2.0662">
        <ele>216.4</ele>
        <time>2023-05-27T14:05:52Z</time>
      </trkpt>
      <trkpt lat="43.4969" lon="2.06627">
        <ele>216</ele>
        <time>2023-05-27T14:05:53Z</time>
      </trkpt>
      <trkpt lat="43.49699" lon="2.06637">
        <ele>215.4</ele>
        <time>2023-05-27T14:05:54Z</time>
      </trkpt>
      <trkpt lat="43.49708" lon="2.06647">
        <ele>214.6</ele>
        <time>2023-05-27T14:05:55Z</time>
      </trkpt>
      <trkpt lat="43.49715" lon="2.06655">
        <ele>214</ele>
        <time>2023-05-27T14:05:56Z</time>
      </trkpt>
      <trkpt lat="43.49723" lon="2.06663">
        <ele>213.6</ele>
        <time>2023-05-27T14:05:57Z</time>
      </trkpt>
      <trkpt lat="43.49731" lon="2.06672">
        <ele>213</ele>
        <time>2023-05-27T14:05:58Z</time>
      </trkpt>
      <trkpt lat="43.49739" lon="2.06681">
        <ele>212.4</ele>
        <time>2023-05-27T14:05:59Z</time>
      </trkpt>
      <trkpt lat="43.49747" lon="2.06691">
        <ele>212</ele>
        <time>2023-05-27T14:06:00Z</time>
      </trkpt>
      <trkpt lat="43.49754" lon="2.06701">
        <ele>211.8</ele>
        <time>2023-05-27T14:06:01Z</time>
      </trkpt>
      <trkpt lat="43.4976" lon="2.0671">
        <ele>211.6</ele>
        <time>2023-05-27T14:06:02Z</time>
      </trkpt>
      <trkpt lat="43.49767" lon="2.06719">
        <ele>211.2</ele>
        <time>2023-05-27T14:06:03Z</time>
      </trkpt>
      <trkpt lat="43.49773" lon="2.06729">
        <ele>211</ele>
        <time>2023-05-27T14:06:04Z</time>
      </trkpt>
      <trkpt lat="43.49779" lon="2.06738">
        <ele>210.8</ele>
        <time>2023-05-27T14:06:05Z</time>
      </trkpt>
      <trkpt lat="43.49784" lon="2.06747">
        <ele>210.6</ele>
        <time>2023-05-27T14:06:06Z</time>
      </trkpt>
      <trkpt lat="43.49791" lon="2.06757">
        <ele>210.4</ele>
        <time>2023-05-27T14:06:07Z</time>
      </trkpt>
      <trkpt lat="43.49796" lon="2.06766">
        <ele>210.2</ele>
        <time>2023-05-27T14:06:08Z</time>
      </trkpt>
      <trkpt lat="43.49801" lon="2.06773">
        <ele>210</ele>
        <time>2023-05-27T14:06:09Z</time>
      </trkpt>
      <trkpt lat="43.49806" lon="2.06782">
        <ele>209.8</ele>
        <time>2023-05-27T14:06:10Z</time>
      </trkpt>
      <trkpt lat="43.49811" lon="2.0679">
        <ele>209.6</ele>
        <time>2023-05-27T14:06:11Z</time>
      </trkpt>
      <trkpt lat="43.49816" lon="2.06797">
        <ele>209.4</ele>
        <time>2023-05-27T14:06:12Z</time>
      </trkpt>
      <trkpt lat="43.4982" lon="2.06805">
        <ele>209.2</ele>
        <time>2023-05-27T14:06:13Z</time>
      </trkpt>
      <trkpt lat="43.49825" lon="2.06813">
        <ele>209.2</ele>
        <time>2023-05-27T14:06:14Z</time>
      </trkpt>
      <trkpt lat="43.4983" lon="2.0682">
        <ele>209</ele>
        <time>2023-05-27T14:06:15Z</time>
      </trkpt>
      <trkpt lat="43.49834" lon="2.06828">
        <ele>209</ele>
        <time>2023-05-27T14:06:16Z</time>
      </trkpt>
      <trkpt lat="43.49839" lon="2.06834">
        <ele>208.8</ele>
        <time>2023-05-27T14:06:17Z</time>
      </trkpt>
      <trkpt lat="43.49843" lon="2.06841">
        <ele>208.8</ele>
        <time>2023-05-27T14:06:18Z</time>
      </trkpt>
      <trkpt lat="43.49847" lon="2.06848">
        <ele>208.6</ele>
        <time>2023-05-27T14:06:19Z</time>
      </trkpt>
      <trkpt lat="43.49851" lon="2.06855">
        <ele>208.4</ele>
        <time>2023-05-27T14:06:20Z</time>
      </trkpt>
      <trkpt lat="43.49855" lon="2.06862">
        <ele>208.4</ele>
        <time>2023-05-27T14:06:21Z</time>
      </trkpt>
      <trkpt lat="43.49859" lon="2.06869">
        <ele>208.2</ele>
        <time>2023-05-27T14:06:22Z</time>
      </trkpt>
      <trkpt lat="43.49864" lon="2.06876">
        <ele>208.2</ele>
        <time>2023-05-27T14:06:23Z</time>
      </trkpt>
      <trkpt lat="43.49867" lon="2.06881">
        <ele>208</ele>
        <time>2023-05-27T14:06:24Z</time>
      </trkpt>
      <trkpt lat="43.49871" lon="2.06888">
        <ele>208</ele>
        <time>2023-05-27T14:06:25Z</time>
      </trkpt>
      <trkpt lat="43.49875" lon="2.06895">
        <ele>207.8</ele>
        <time>2023-05-27T14:06:26Z</time>
      </trkpt>
      <trkpt lat="43.49879" lon="2.06902">
        <ele>207.8</ele>
        <time>2023-05-27T14:06:27Z</time>
      </trkpt>
      <trkpt lat="43.49883" lon="2.06908">
        <ele>207.6</ele>
        <time>2023-05-27T14:06:28Z</time>
      </trkpt>
      <trkpt lat="43.49887" lon="2.06915">
        <ele>207.4</ele>
        <time>2023-05-27T14:06:29Z</time>
      </trkpt>
      <trkpt lat="43.49891" lon="2.06921">
        <ele>207.4</ele>
        <time>2023-05-27T14:06:30Z</time>
      </trkpt>
      <trkpt lat="43.49895" lon="2.06927">
        <ele>207.4</ele>
        <time>2023-05-27T14:06:31Z</time>
      </trkpt>
      <trkpt lat="43.49899" lon="2.06933">
        <ele>207.2</ele>
        <time>2023-05-27T14:06:32Z</time>
      </trkpt>
      <trkpt lat="43.49902" lon="2.06939">
        <ele>207.2</ele>
        <time>2023-05-27T14:06:33Z</time>
      </trkpt>
      <trkpt lat="43.49906" lon="2.06946">
        <ele>207</ele>
        <time>2023-05-27T14:06:34Z</time>
      </trkpt>
      <trkpt lat="43.4991" lon="2.06953">
        <ele>207</ele>
        <time>2023-05-27T14:06:35Z</time>
      </trkpt>
      <trkpt lat="43.49914" lon="2.06959">
        <ele>207</ele>
        <time>2023-05-27T14:06:36Z</time>
      </trkpt>
      <trkpt lat="43.49918" lon="2.06964">
        <ele>207</ele>
        <time>2023-05-27T14:06:37Z</time>
      </trkpt>
      <trkpt lat="43.49921" lon="2.06971">
        <ele>206.8</ele>
        <time>2023-05-27T14:06:38Z</time>
      </trkpt>
      <trkpt lat="43.49925" lon="2.06977">
        <ele>206.8</ele>
        <time>2023-05-27T14:06:39Z</time>
      </trkpt>
      <trkpt lat="43.49928" lon="2.06983">
        <ele>206.6</ele>
        <time>2023-05-27T14:06:40Z</time>
      </trkpt>
      <trkpt lat="43.49932" lon="2.06989">
        <ele>206.6</ele>
        <time>2023-05-27T14:06:41Z</time>
      </trkpt>
      <trkpt lat="43.49935" lon="2.06996">
        <ele>206.6</ele>
        <time>2023-05-27T14:06:42Z</time>
      </trkpt>
      <trkpt lat="43.49938" lon="2.07002">
        <ele>206.6</ele>
        <time>2023-05-27T14:06:43Z</time>
      </trkpt>
      <trkpt lat="43.49942" lon="2.07008">
        <ele>206.6</ele>
        <time>2023-05-27T14:06:44Z</time>
      </trkpt>
      <trkpt lat="43.49945" lon="2.07014">
        <ele>206.6</ele>
        <time>2023-05-27T14:06:45Z</time>
      </trkpt>
      <trkpt lat="43.49948" lon="2.0702">
        <ele>206.6</ele>
        <time>2023-05-27T14:06:46Z</time>
      </trkpt>
      <trkpt lat="43.49952" lon="2.07026">
        <ele>206.6</ele>
        <time>2023-05-27T14:06:47Z</time>
      </trkpt>
      <trkpt lat="43.49955" lon="2.07033">
        <ele>206.6</ele>
        <time>2023-05-27T14:06:48Z</time>
      </trkpt>
      <trkpt lat="43.49959" lon="2.0704">
        <ele>206.6</ele>
        <time>2023-05-27T14:06:49Z</time>
      </trkpt>
      <trkpt lat="43.49962" lon="2.07045">
        <ele>206.4</ele>
        <time>2023-05-27T14:06:50Z</time>
      </trkpt>
      <trkpt lat="43.49964" lon="2.07051">
        <ele>206.4</ele>
        <time>2023-05-27T14:06:51Z</time>
      </trkpt>
      <trkpt lat="43.49967" lon="2.07058">
        <ele>206.4</ele>
        <time>2023-05-27T14:06:52Z</time>
      </trkpt>
      <trkpt lat="43.4997" lon="2.07064">
        <ele>206.4</ele>
        <time>2023-05-27T14:06:53Z</time>
      </trkpt>
      <trkpt lat="43.49972" lon="2.07069">
        <ele>206.4</ele>
        <time>2023-05-27T14:06:54Z</time>
      </trkpt>
      <trkpt lat="43.49975" lon="2.07076">
        <ele>206.4</ele>
        <time>2023-05-27T14:06:55Z</time>
      </trkpt>
      <trkpt lat="43.49978" lon="2.07082">
        <ele>206.4</ele>
        <time>2023-05-27T14:06:56Z</time>
      </trkpt>
      <trkpt lat="43.4998" lon="2.07089">
        <ele>206.4</ele>
        <time>2023-05-27T14:06:57Z</time>
      </trkpt>
      <trkpt lat="43.49983" lon="2.07094">
        <ele>206.4</ele>
        <time>2023-05-27T14:06:58Z</time>
      </trkpt>
      <trkpt lat="43.49985" lon="2.071">
        <ele>206.4</ele>
        <time>2023-05-27T14:06:59Z</time>
      </trkpt>
      <trkpt lat="43.49987" lon="2.07104">
        <ele>206.4</ele>
        <time>2023-05-27T14:07:00Z</time>
      </trkpt>
      <trkpt lat="43.49988" lon="2.07106">
        <ele>206.4</ele>
        <time>2023-05-27T14:07:01Z</time>
      </trkpt>
      <trkpt lat="43.49989" lon="2.07109">
        <ele>206.4</ele>
        <time>2023-05-27T14:07:02Z</time>
      </trkpt>
      <trkpt lat="43.49993" lon="2.0712">
        <ele>206.4</ele>
        <time>2023-05-27T14:07:03Z</time>
      </trkpt>
      <trkpt lat="43.49996" lon="2.07131">
        <ele>206.4</ele>
        <time>2023-05-27T14:07:04Z</time>
      </trkpt>
      <trkpt lat="43.49997" lon="2.07137">
        <ele>206.4</ele>
        <time>2023-05-27T14:07:05Z</time>
      </trkpt>
      <trkpt lat="43.49999" lon="2.07144">
        <ele>206.2</ele>
        <time>2023-05-27T14:07:06Z</time>
      </trkpt>
      <trkpt lat="43.5" lon="2.0715">
        <ele>206.2</ele>
        <time>2023-05-27T14:07:07Z</time>
      </trkpt>
      <trkpt lat="43.50001" lon="2.07155">
        <ele>206.2</ele>
        <time>2023-05-27T14:07:08Z</time>
      </trkpt>
      <trkpt lat="43.50003" lon="2.07161">
        <ele>206.2</ele>
        <time>2023-05-27T14:07:09Z</time>
      </trkpt>
      <trkpt lat="43.50004" lon="2.07167">
        <ele>206.2</ele>
        <time>2023-05-27T14:07:10Z</time>
      </trkpt>
      <trkpt lat="43.50005" lon="2.07173">
        <ele>206.2</ele>
        <time>2023-05-27T14:07:11Z</time>
      </trkpt>
      <trkpt lat="43.50007" lon="2.07179">
        <ele>206.2</ele>
        <time>2023-05-27T14:07:12Z</time>
      </trkpt>
      <trkpt lat="43.50008" lon="2.07185">
        <ele>206.2</ele>
        <time>2023-05-27T14:07:13Z</time>
      </trkpt>
      <trkpt lat="43.50009" lon="2.0719">
        <ele>206.2</ele>
        <time>2023-05-27T14:07:14Z</time>
      </trkpt>
      <trkpt lat="43.5001" lon="2.07196">
        <ele>206.2</ele>
        <time>2023-05-27T14:07:15Z</time>
      </trkpt>
      <trkpt lat="43.50011" lon="2.07202">
        <ele>206</ele>
        <time>2023-05-27T14:07:16Z</time>
      </trkpt>
      <trkpt lat="43.50013" lon="2.07208">
        <ele>206</ele>
        <time>2023-05-27T14:07:17Z</time>
      </trkpt>
      <trkpt lat="43.50014" lon="2.07214">
        <ele>206</ele>
        <time>2023-05-27T14:07:18Z</time>
      </trkpt>
      <trkpt lat="43.50015" lon="2.07219">
        <ele>206</ele>
        <time>2023-05-27T14:07:19Z</time>
      </trkpt>
      <trkpt lat="43.50016" lon="2.07224">
        <ele>206</ele>
        <time>2023-05-27T14:07:20Z</time>
      </trkpt>
      <trkpt lat="43.50017" lon="2.07229">
        <ele>206</ele>
        <time>2023-05-27T14:07:21Z</time>
      </trkpt>
      <trkpt lat="43.50019" lon="2.07235">
        <ele>206</ele>
        <time>2023-05-27T14:07:22Z</time>
      </trkpt>
      <trkpt lat="43.5002" lon="2.07241">
        <ele>206</ele>
        <time>2023-05-27T14:07:23Z</time>
      </trkpt>
      <trkpt lat="43.50021" lon="2.07246">
        <ele>206</ele>
        <time>2023-05-27T14:07:24Z</time>
      </trkpt>
      <trkpt lat="43.50022" lon="2.07251">
        <ele>205.8</ele>
        <time>2023-05-27T14:07:25Z</time>
      </trkpt>
      <trkpt lat="43.50023" lon="2.07257">
        <ele>205.8</ele>
        <time>2023-05-27T14:07:26Z</time>
      </trkpt>
      <trkpt lat="43.50025" lon="2.07263">
        <ele>205.8</ele>
        <time>2023-05-27T14:07:27Z</time>
      </trkpt>
      <trkpt lat="43.50026" lon="2.07268">
        <ele>205.8</ele>
        <time>2023-05-27T14:07:28Z</time>
      </trkpt>
      <trkpt lat="43.50027" lon="2.07273">
        <ele>205.8</ele>
        <time>2023-05-27T14:07:29Z</time>
      </trkpt>
      <trkpt lat="43.50028" lon="2.07279">
        <ele>205.8</ele>
        <time>2023-05-27T14:07:30Z</time>
      </trkpt>
      <trkpt lat="43.50029" lon="2.07285">
        <ele>205.8</ele>
        <time>2023-05-27T14:07:31Z</time>
      </trkpt>
      <trkpt lat="43.50031" lon="2.0729">
        <ele>205.8</ele>
        <time>2023-05-27T14:07:32Z</time>
      </trkpt>
      <trkpt lat="43.50032" lon="2.07296">
        <ele>205.8</ele>
        <time>2023-05-27T14:07:33Z</time>
      </trkpt>
      <trkpt lat="43.50033" lon="2.07301">
        <ele>205.8</ele>
        <time>2023-05-27T14:07:34Z</time>
      </trkpt>
      <trkpt lat="43.50035" lon="2.07307">
        <ele>205.8</ele>
        <time>2023-05-27T14:07:35Z</time>
      </trkpt>
      <trkpt lat="43.50036" lon="2.07313">
        <ele>205.8</ele>
        <time>2023-05-27T14:07:36Z</time>
      </trkpt>
      <trkpt lat="43.50038" lon="2.07318">
        <ele>205.8</ele>
        <time>2023-05-27T14:07:37Z</time>
      </trkpt>
      <trkpt lat="43.50039" lon="2.07323">
        <ele>205.8</ele>
        <time>2023-05-27T14:07:38Z</time>
      </trkpt>
      <trkpt lat="43.50041" lon="2.07328">
        <ele>205.8</ele>
        <time>2023-05-27T14:07:39Z</time>
      </trkpt>
      <trkpt lat="43.50043" lon="2.07333">
        <ele>205.8</ele>
        <time>2023-05-27T14:07:40Z</time>
      </trkpt>
      <trkpt lat="43.50045" lon="2.07339">
        <ele>205.8</ele>
        <time>2023-05-27T14:07:41Z</time>
      </trkpt>
      <trkpt lat="43.50047" lon="2.07344">
        <ele>205.8</ele>
        <time>2023-05-27T14:07:42Z</time>
      </trkpt>
      <trkpt lat="43.50048" lon="2.07349">
        <ele>205.6</ele>
        <time>2023-05-27T14:07:43Z</time>
      </trkpt>
      <trkpt lat="43.5005" lon="2.07354">
        <ele>205.6</ele>
        <time>2023-05-27T14:07:44Z</time>
      </trkpt>
      <trkpt lat="43.50052" lon="2.0736">
        <ele>205.6</ele>
        <time>2023-05-27T14:07:45Z</time>
      </trkpt>
      <trkpt lat="43.50054" lon="2.07364">
        <ele>205.6</ele>
        <time>2023-05-27T14:07:46Z</time>
      </trkpt>
      <trkpt lat="43.50056" lon="2.07368">
        <ele>205.6</ele>
        <time>2023-05-27T14:07:47Z</time>
      </trkpt>
      <trkpt lat="43.50058" lon="2.07373">
        <ele>205.6</ele>
        <time>2023-05-27T14:07:48Z</time>
      </trkpt>
      <trkpt lat="43.5006" lon="2.07378">
        <ele>205.6</ele>
        <time>2023-05-27T14:07:49Z</time>
      </trkpt>
      <trkpt lat="43.50062" lon="2.07383">
        <ele>205.6</ele>
        <time>2023-05-27T14:07:50Z</time>
      </trkpt>
      <trkpt lat="43.50064" lon="2.07388">
        <ele>205.6</ele>
        <time>2023-05-27T14:07:51Z</time>
      </trkpt>
      <trkpt lat="43.50066" lon="2.07393">
        <ele>205.6</ele>
        <time>2023-05-27T14:07:52Z</time>
      </trkpt>
      <trkpt lat="43.50068" lon="2.07398">
        <ele>205.6</ele>
        <time>2023-05-27T14:07:53Z</time>
      </trkpt>
      <trkpt lat="43.50071" lon="2.07403">
        <ele>205.6</ele>
        <time>2023-05-27T14:07:54Z</time>
      </trkpt>
      <trkpt lat="43.50072" lon="2.07407">
        <ele>205.6</ele>
        <time>2023-05-27T14:07:55Z</time>
      </trkpt>
      <trkpt lat="43.50074" lon="2.07412">
        <ele>205.6</ele>
        <time>2023-05-27T14:07:56Z</time>
      </trkpt>
      <trkpt lat="43.50077" lon="2.07417">
        <ele>205.6</ele>
        <time>2023-05-27T14:07:57Z</time>
      </trkpt>
      <trkpt lat="43.50079" lon="2.07422">
        <ele>205.6</ele>
        <time>2023-05-27T14:07:58Z</time>
      </trkpt>
      <trkpt lat="43.50081" lon="2.07427">
        <ele>205.6</ele>
        <time>2023-05-27T14:07:59Z</time>
      </trkpt>
      <trkpt lat="43.50083" lon="2.07431">
        <ele>205.6</ele>
        <time>2023-05-27T14:08:00Z</time>
      </trkpt>
      <trkpt lat="43.50085" lon="2.07436">
        <ele>205.6</ele>
        <time>2023-05-27T14:08:01Z</time>
      </trkpt>
      <trkpt lat="43.50088" lon="2.07441">
        <ele>205.6</ele>
        <time>2023-05-27T14:08:02Z</time>
      </trkpt>
      <trkpt lat="43.5009" lon="2.07447">
        <ele>205.6</ele>
        <time>2023-05-27T14:08:03Z</time>
      </trkpt>
      <trkpt lat="43.50092" lon="2.07451">
        <ele>205.6</ele>
        <time>2023-05-27T14:08:04Z</time>
      </trkpt>
      <trkpt lat="43.50094" lon="2.07455">
        <ele>205.6</ele>
        <time>2023-05-27T14:08:05Z</time>
      </trkpt>
      <trkpt lat="43.50096" lon="2.0746">
        <ele>205.6</ele>
        <time>2023-05-27T14:08:06Z</time>
      </trkpt>
      <trkpt lat="43.50098" lon="2.07465">
        <ele>205.6</ele>
        <time>2023-05-27T14:08:07Z</time>
      </trkpt>
      <trkpt lat="43.50101" lon="2.0747">
        <ele>205.6</ele>
        <time>2023-05-27T14:08:08Z</time>
      </trkpt>
      <trkpt lat="43.50103" lon="2.07474">
        <ele>205.4</ele>
        <time>2023-05-27T14:08:09Z</time>
      </trkpt>
      <trkpt lat="43.50105" lon="2.07478">
        <ele>205.4</ele>
        <time>2023-05-27T14:08:10Z</time>
      </trkpt>
      <trkpt lat="43.50107" lon="2.07483">
        <ele>205.4</ele>
        <time>2023-05-27T14:08:11Z</time>
      </trkpt>
      <trkpt lat="43.50109" lon="2.07487">
        <ele>205.4</ele>
        <time>2023-05-27T14:08:12Z</time>
      </trkpt>
      <trkpt lat="43.50111" lon="2.07492">
        <ele>205.4</ele>
        <time>2023-05-27T14:08:13Z</time>
      </trkpt>
      <trkpt lat="43.50113" lon="2.07496">
        <ele>205.4</ele>
        <time>2023-05-27T14:08:14Z</time>
      </trkpt>
      <trkpt lat="43.50115" lon="2.07501">
        <ele>205.4</ele>
        <time>2023-05-27T14:08:15Z</time>
      </trkpt>
      <trkpt lat="43.50117" lon="2.07505">
        <ele>205.4</ele>
        <time>2023-05-27T14:08:16Z</time>
      </trkpt>
      <trkpt lat="43.5012" lon="2.0751">
        <ele>205.4</ele>
        <time>2023-05-27T14:08:17Z</time>
      </trkpt>
      <trkpt lat="43.50122" lon="2.07515">
        <ele>205.4</ele>
        <time>2023-05-27T14:08:18Z</time>
      </trkpt>
      <trkpt lat="43.50124" lon="2.07519">
        <ele>205.4</ele>
        <time>2023-05-27T14:08:19Z</time>
      </trkpt>
      <trkpt lat="43.50127" lon="2.07524">
        <ele>205.4</ele>
        <time>2023-05-27T14:08:20Z</time>
      </trkpt>
      <trkpt lat="43.50129" lon="2.07529">
        <ele>205.4</ele>
        <time>2023-05-27T14:08:21Z</time>
      </trkpt>
      <trkpt lat="43.50131" lon="2.07533">
        <ele>205.4</ele>
        <time>2023-05-27T14:08:22Z</time>
      </trkpt>
      <trkpt lat="43.50133" lon="2.07538">
        <ele>205.4</ele>
        <time>2023-05-27T14:08:23Z</time>
      </trkpt>
      <trkpt lat="43.50136" lon="2.07542">
        <ele>205.4</ele>
        <time>2023-05-27T14:08:24Z</time>
      </trkpt>
      <trkpt lat="43.50138" lon="2.07548">
        <ele>205.4</ele>
        <time>2023-05-27T14:08:25Z</time>
      </trkpt>
      <trkpt lat="43.50141" lon="2.07553">
        <ele>205.4</ele>
        <time>2023-05-27T14:08:26Z</time>
      </trkpt>
      <trkpt lat="43.50143" lon="2.07557">
        <ele>205.4</ele>
        <time>2023-05-27T14:08:27Z</time>
      </trkpt>
      <trkpt lat="43.50146" lon="2.07561">
        <ele>205.4</ele>
        <time>2023-05-27T14:08:28Z</time>
      </trkpt>
      <trkpt lat="43.50149" lon="2.07566">
        <ele>205.4</ele>
        <time>2023-05-27T14:08:29Z</time>
      </trkpt>
      <trkpt lat="43.50151" lon="2.0757">
        <ele>205.2</ele>
        <time>2023-05-27T14:08:30Z</time>
      </trkpt>
      <trkpt lat="43.50153" lon="2.07574">
        <ele>205.2</ele>
        <time>2023-05-27T14:08:31Z</time>
      </trkpt>
      <trkpt lat="43.50155" lon="2.07579">
        <ele>205.2</ele>
        <time>2023-05-27T14:08:32Z</time>
      </trkpt>
      <trkpt lat="43.50157" lon="2.07584">
        <ele>205.2</ele>
        <time>2023-05-27T14:08:33Z</time>
      </trkpt>
      <trkpt lat="43.50159" lon="2.07588">
        <ele>205.2</ele>
        <time>2023-05-27T14:08:34Z</time>
      </trkpt>
      <trkpt lat="43.50162" lon="2.07593">
        <ele>205.2</ele>
        <time>2023-05-27T14:08:35Z</time>
      </trkpt>
      <trkpt lat="43.50164" lon="2.07597">
        <ele>205.2</ele>
        <time>2023-05-27T14:08:36Z</time>
      </trkpt>
      <trkpt lat="43.50167" lon="2.07603">
        <ele>205.2</ele>
        <time>2023-05-27T14:08:37Z</time>
      </trkpt>
      <trkpt lat="43.50169" lon="2.07608">
        <ele>205</ele>
        <time>2023-05-27T14:08:38Z</time>
      </trkpt>
      <trkpt lat="43.50171" lon="2.07613">
        <ele>205</ele>
        <time>2023-05-27T14:08:39Z</time>
      </trkpt>
      <trkpt lat="43.50173" lon="2.07617">
        <ele>205</ele>
        <time>2023-05-27T14:08:40Z</time>
      </trkpt>
      <trkpt lat="43.50176" lon="2.07622">
        <ele>204.8</ele>
        <time>2023-05-27T14:08:41Z</time>
      </trkpt>
      <trkpt lat="43.50179" lon="2.07627">
        <ele>204.8</ele>
        <time>2023-05-27T14:08:42Z</time>
      </trkpt>
      <trkpt lat="43.50181" lon="2.07632">
        <ele>204.8</ele>
        <time>2023-05-27T14:08:43Z</time>
      </trkpt>
      <trkpt lat="43.50183" lon="2.07637">
        <ele>204.8</ele>
        <time>2023-05-27T14:08:44Z</time>
      </trkpt>
      <trkpt lat="43.50186" lon="2.07641">
        <ele>204.8</ele>
        <time>2023-05-27T14:08:45Z</time>
      </trkpt>
      <trkpt lat="43.50188" lon="2.07646">
        <ele>204.6</ele>
        <time>2023-05-27T14:08:46Z</time>
      </trkpt>
      <trkpt lat="43.5019" lon="2.0765">
        <ele>204.6</ele>
        <time>2023-05-27T14:08:47Z</time>
      </trkpt>
      <trkpt lat="43.50193" lon="2.07655">
        <ele>204.6</ele>
        <time>2023-05-27T14:08:48Z</time>
      </trkpt>
      <trkpt lat="43.50195" lon="2.0766">
        <ele>204.6</ele>
        <time>2023-05-27T14:08:49Z</time>
      </trkpt>
      <trkpt lat="43.50197" lon="2.07664">
        <ele>204.6</ele>
        <time>2023-05-27T14:08:50Z</time>
      </trkpt>
      <trkpt lat="43.502" lon="2.07669">
        <ele>204.6</ele>
        <time>2023-05-27T14:08:51Z</time>
      </trkpt>
      <trkpt lat="43.50202" lon="2.07674">
        <ele>204.6</ele>
        <time>2023-05-27T14:08:52Z</time>
      </trkpt>
      <trkpt lat="43.50204" lon="2.07678">
        <ele>204.6</ele>
        <time>2023-05-27T14:08:53Z</time>
      </trkpt>
      <trkpt lat="43.50206" lon="2.07682">
        <ele>204.6</ele>
        <time>2023-05-27T14:08:54Z</time>
      </trkpt>
      <trkpt lat="43.50209" lon="2.07686">
        <ele>204.6</ele>
        <time>2023-05-27T14:08:55Z</time>
      </trkpt>
      <trkpt lat="43.50211" lon="2.07691">
        <ele>204.6</ele>
        <time>2023-05-27T14:08:56Z</time>
      </trkpt>
      <trkpt lat="43.50213" lon="2.07696">
        <ele>204.6</ele>
        <time>2023-05-27T14:08:57Z</time>
      </trkpt>
      <trkpt lat="43.50216" lon="2.077">
        <ele>204.6</ele>
        <time>2023-05-27T14:08:58Z</time>
      </trkpt>
      <trkpt lat="43.50218" lon="2.07704">
        <ele>204.6</ele>
        <time>2023-05-27T14:08:59Z</time>
      </trkpt>
      <trkpt lat="43.5022" lon="2.0771">
        <ele>204.6</ele>
        <time>2023-05-27T14:09:00Z</time>
      </trkpt>
      <trkpt lat="43.50222" lon="2.07715">
        <ele>204.6</ele>
        <time>2023-05-27T14:09:01Z</time>
      </trkpt>
      <trkpt lat="43.50224" lon="2.07719">
        <ele>204.6</ele>
        <time>2023-05-27T14:09:02Z</time>
      </trkpt>
      <trkpt lat="43.50226" lon="2.07723">
        <ele>204.6</ele>
        <time>2023-05-27T14:09:03Z</time>
      </trkpt>
      <trkpt lat="43.50228" lon="2.07728">
        <ele>204.6</ele>
        <time>2023-05-27T14:09:04Z</time>
      </trkpt>
      <trkpt lat="43.50229" lon="2.07732">
        <ele>204.6</ele>
        <time>2023-05-27T14:09:05Z</time>
      </trkpt>
      <trkpt lat="43.50231" lon="2.07737">
        <ele>204.6</ele>
        <time>2023-05-27T14:09:06Z</time>
      </trkpt>
      <trkpt lat="43.50232" lon="2.07741">
        <ele>204.6</ele>
        <time>2023-05-27T14:09:07Z</time>
      </trkpt>
      <trkpt lat="43.50233" lon="2.07746">
        <ele>204.6</ele>
        <time>2023-05-27T14:09:08Z</time>
      </trkpt>
      <trkpt lat="43.50235" lon="2.07751">
        <ele>204.6</ele>
        <time>2023-05-27T14:09:09Z</time>
      </trkpt>
      <trkpt lat="43.50236" lon="2.07756">
        <ele>204.6</ele>
        <time>2023-05-27T14:09:10Z</time>
      </trkpt>
      <trkpt lat="43.50238" lon="2.07761">
        <ele>204.6</ele>
        <time>2023-05-27T14:09:11Z</time>
      </trkpt>
      <trkpt lat="43.50239" lon="2.07766">
        <ele>204.6</ele>
        <time>2023-05-27T14:09:12Z</time>
      </trkpt>
      <trkpt lat="43.50241" lon="2.07771">
        <ele>204.6</ele>
        <time>2023-05-27T14:09:13Z</time>
      </trkpt>
      <trkpt lat="43.50242" lon="2.07776">
        <ele>204.6</ele>
        <time>2023-05-27T14:09:14Z</time>
      </trkpt>
      <trkpt lat="43.50243" lon="2.0778">
        <ele>204.4</ele>
        <time>2023-05-27T14:09:15Z</time>
      </trkpt>
      <trkpt lat="43.50245" lon="2.07785">
        <ele>204.4</ele>
        <time>2023-05-27T14:09:16Z</time>
      </trkpt>
      <trkpt lat="43.50246" lon="2.07791">
        <ele>204.4</ele>
        <time>2023-05-27T14:09:17Z</time>
      </trkpt>
      <trkpt lat="43.50247" lon="2.07796">
        <ele>204.4</ele>
        <time>2023-05-27T14:09:18Z</time>
      </trkpt>
      <trkpt lat="43.50249" lon="2.07801">
        <ele>204.4</ele>
        <time>2023-05-27T14:09:19Z</time>
      </trkpt>
      <trkpt lat="43.5025" lon="2.07807">
        <ele>204.4</ele>
        <time>2023-05-27T14:09:20Z</time>
      </trkpt>
      <trkpt lat="43.50252" lon="2.07813">
        <ele>204.4</ele>
        <time>2023-05-27T14:09:21Z</time>
      </trkpt>
      <trkpt lat="43.50253" lon="2.07818">
        <ele>204.4</ele>
        <time>2023-05-27T14:09:22Z</time>
      </trkpt>
      <trkpt lat="43.50255" lon="2.07823">
        <ele>204.2</ele>
        <time>2023-05-27T14:09:23Z</time>
      </trkpt>
      <trkpt lat="43.50256" lon="2.07828">
        <ele>204.2</ele>
        <time>2023-05-27T14:09:24Z</time>
      </trkpt>
      <trkpt lat="43.50257" lon="2.07833">
        <ele>204.2</ele>
        <time>2023-05-27T14:09:25Z</time>
      </trkpt>
      <trkpt lat="43.50259" lon="2.07839">
        <ele>204.2</ele>
        <time>2023-05-27T14:09:26Z</time>
      </trkpt>
      <trkpt lat="43.5026" lon="2.07844">
        <ele>204.2</ele>
        <time>2023-05-27T14:09:27Z</time>
      </trkpt>
      <trkpt lat="43.50261" lon="2.07849">
        <ele>204.2</ele>
        <time>2023-05-27T14:09:28Z</time>
      </trkpt>
      <trkpt lat="43.50262" lon="2.07853">
        <ele>204.2</ele>
        <time>2023-05-27T14:09:29Z</time>
      </trkpt>
      <trkpt lat="43.50264" lon="2.07859">
        <ele>204.2</ele>
        <time>2023-05-27T14:09:30Z</time>
      </trkpt>
      <trkpt lat="43.50265" lon="2.07864">
        <ele>204.4</ele>
        <time>2023-05-27T14:09:31Z</time>
      </trkpt>
      <trkpt lat="43.50266" lon="2.07868">
        <ele>204.2</ele>
        <time>2023-05-27T14:09:32Z</time>
      </trkpt>
      <trkpt lat="43.50268" lon="2.07873">
        <ele>204.2</ele>
        <time>2023-05-27T14:09:33Z</time>
      </trkpt>
      <trkpt lat="43.50269" lon="2.07878">
        <ele>204.2</ele>
        <time>2023-05-27T14:09:34Z</time>
      </trkpt>
      <trkpt lat="43.5027" lon="2.07883">
        <ele>204.2</ele>
        <time>2023-05-27T14:09:35Z</time>
      </trkpt>
      <trkpt lat="43.50271" lon="2.07888">
        <ele>204.4</ele>
        <time>2023-05-27T14:09:36Z</time>
      </trkpt>
      <trkpt lat="43.50272" lon="2.07893">
        <ele>204.4</ele>
        <time>2023-05-27T14:09:37Z</time>
      </trkpt>
      <trkpt lat="43.50273" lon="2.07897">
        <ele>204.4</ele>
        <time>2023-05-27T14:09:38Z</time>
      </trkpt>
      <trkpt lat="43.50274" lon="2.07902">
        <ele>204.4</ele>
        <time>2023-05-27T14:09:39Z</time>
      </trkpt>
      <trkpt lat="43.50276" lon="2.07906">
        <ele>204.4</ele>
        <time>2023-05-27T14:09:40Z</time>
      </trkpt>
      <trkpt lat="43.50277" lon="2.07911">
        <ele>204.4</ele>
        <time>2023-05-27T14:09:41Z</time>
      </trkpt>
      <trkpt lat="43.50278" lon="2.07916">
        <ele>204.4</ele>
        <time>2023-05-27T14:09:42Z</time>
      </trkpt>
      <trkpt lat="43.50279" lon="2.07921">
        <ele>204.4</ele>
        <time>2023-05-27T14:09:43Z</time>
      </trkpt>
      <trkpt lat="43.50281" lon="2.07925">
        <ele>204.4</ele>
        <time>2023-05-27T14:09:44Z</time>
      </trkpt>
      <trkpt lat="43.50282" lon="2.0793">
        <ele>204.4</ele>
        <time>2023-05-27T14:09:45Z</time>
      </trkpt>
      <trkpt lat="43.50283" lon="2.07934">
        <ele>204.4</ele>
        <time>2023-05-27T14:09:46Z</time>
      </trkpt>
      <trkpt lat="43.50284" lon="2.0794">
        <ele>204.4</ele>
        <time>2023-05-27T14:09:47Z</time>
      </trkpt>
      <trkpt lat="43.50286" lon="2.07945">
        <ele>204.4</ele>
        <time>2023-05-27T14:09:48Z</time>
      </trkpt>
      <trkpt lat="43.50287" lon="2.0795">
        <ele>204.4</ele>
        <time>2023-05-27T14:09:49Z</time>
      </trkpt>
      <trkpt lat="43.50288" lon="2.07955">
        <ele>204.4</ele>
        <time>2023-05-27T14:09:50Z</time>
      </trkpt>
      <trkpt lat="43.50289" lon="2.0796">
        <ele>204.4</ele>
        <time>2023-05-27T14:09:51Z</time>
      </trkpt>
      <trkpt lat="43.50291" lon="2.07965">
        <ele>204.4</ele>
        <time>2023-05-27T14:09:52Z</time>
      </trkpt>
      <trkpt lat="43.50292" lon="2.0797">
        <ele>204.4</ele>
        <time>2023-05-27T14:09:53Z</time>
      </trkpt>
      <trkpt lat="43.50293" lon="2.07975">
        <ele>204.2</ele>
        <time>2023-05-27T14:09:54Z</time>
      </trkpt>
      <trkpt lat="43.50295" lon="2.0798">
        <ele>204.2</ele>
        <time>2023-05-27T14:09:55Z</time>
      </trkpt>
      <trkpt lat="43.50296" lon="2.07986">
        <ele>204.2</ele>
        <time>2023-05-27T14:09:56Z</time>
      </trkpt>
      <trkpt lat="43.50298" lon="2.07992">
        <ele>204.2</ele>
        <time>2023-05-27T14:09:57Z</time>
      </trkpt>
      <trkpt lat="43.50299" lon="2.07998">
        <ele>204.2</ele>
        <time>2023-05-27T14:09:58Z</time>
      </trkpt>
      <trkpt lat="43.503" lon="2.08002">
        <ele>204</ele>
        <time>2023-05-27T14:09:59Z</time>
      </trkpt>
      <trkpt lat="43.50301" lon="2.08007">
        <ele>204</ele>
        <time>2023-05-27T14:10:00Z</time>
      </trkpt>
      <trkpt lat="43.50303" lon="2.08013">
        <ele>204</ele>
        <time>2023-05-27T14:10:01Z</time>
      </trkpt>
      <trkpt lat="43.50304" lon="2.08019">
        <ele>204</ele>
        <time>2023-05-27T14:10:02Z</time>
      </trkpt>
      <trkpt lat="43.50305" lon="2.08024">
        <ele>204</ele>
        <time>2023-05-27T14:10:03Z</time>
      </trkpt>
      <trkpt lat="43.50307" lon="2.08029">
        <ele>204</ele>
        <time>2023-05-27T14:10:04Z</time>
      </trkpt>
      <trkpt lat="43.50308" lon="2.08035">
        <ele>203.8</ele>
        <time>2023-05-27T14:10:05Z</time>
      </trkpt>
      <trkpt lat="43.5031" lon="2.08041">
        <ele>203.8</ele>
        <time>2023-05-27T14:10:06Z</time>
      </trkpt>
      <trkpt lat="43.50311" lon="2.08046">
        <ele>203.8</ele>
        <time>2023-05-27T14:10:07Z</time>
      </trkpt>
      <trkpt lat="43.50312" lon="2.08051">
        <ele>203.8</ele>
        <time>2023-05-27T14:10:08Z</time>
      </trkpt>
      <trkpt lat="43.50314" lon="2.08056">
        <ele>203.8</ele>
        <time>2023-05-27T14:10:09Z</time>
      </trkpt>
      <trkpt lat="43.50315" lon="2.08062">
        <ele>203.8</ele>
        <time>2023-05-27T14:10:10Z</time>
      </trkpt>
      <trkpt lat="43.50317" lon="2.08067">
        <ele>203.8</ele>
        <time>2023-05-27T14:10:11Z</time>
      </trkpt>
      <trkpt lat="43.50318" lon="2.08072">
        <ele>203.8</ele>
        <time>2023-05-27T14:10:12Z</time>
      </trkpt>
      <trkpt lat="43.50319" lon="2.08077">
        <ele>203.8</ele>
        <time>2023-05-27T14:10:13Z</time>
      </trkpt>
      <trkpt lat="43.5032" lon="2.08082">
        <ele>203.8</ele>
        <time>2023-05-27T14:10:14Z</time>
      </trkpt>
      <trkpt lat="43.50321" lon="2.08087">
        <ele>203.8</ele>
        <time>2023-05-27T14:10:15Z</time>
      </trkpt>
      <trkpt lat="43.50323" lon="2.08091">
        <ele>203.8</ele>
        <time>2023-05-27T14:10:16Z</time>
      </trkpt>
      <trkpt lat="43.50324" lon="2.08096">
        <ele>203.8</ele>
        <time>2023-05-27T14:10:17Z</time>
      </trkpt>
      <trkpt lat="43.50325" lon="2.08101">
        <ele>203.8</ele>
        <time>2023-05-27T14:10:18Z</time>
      </trkpt>
      <trkpt lat="43.50327" lon="2.08106">
        <ele>203.8</ele>
        <time>2023-05-27T14:10:19Z</time>
      </trkpt>
      <trkpt lat="43.50329" lon="2.08111">
        <ele>203.8</ele>
        <time>2023-05-27T14:10:20Z</time>
      </trkpt>
      <trkpt lat="43.5033" lon="2.08115">
        <ele>203.8</ele>
        <time>2023-05-27T14:10:21Z</time>
      </trkpt>
      <trkpt lat="43.50331" lon="2.0812">
        <ele>203.8</ele>
        <time>2023-05-27T14:10:22Z</time>
      </trkpt>
      <trkpt lat="43.50332" lon="2.08125">
        <ele>203.8</ele>
        <time>2023-05-27T14:10:23Z</time>
      </trkpt>
      <trkpt lat="43.50334" lon="2.0813">
        <ele>203.8</ele>
        <time>2023-05-27T14:10:24Z</time>
      </trkpt>
      <trkpt lat="43.50335" lon="2.08135">
        <ele>203.8</ele>
        <time>2023-05-27T14:10:25Z</time>
      </trkpt>
      <trkpt lat="43.50337" lon="2.08139">
        <ele>203.8</ele>
        <time>2023-05-27T14:10:26Z</time>
      </trkpt>
      <trkpt lat="43.50339" lon="2.08145">
        <ele>203.8</ele>
        <time>2023-05-27T14:10:27Z</time>
      </trkpt>
      <trkpt lat="43.50341" lon="2.0815">
        <ele>203.8</ele>
        <time>2023-05-27T14:10:28Z</time>
      </trkpt>
      <trkpt lat="43.50342" lon="2.08154">
        <ele>203.8</ele>
        <time>2023-05-27T14:10:29Z</time>
      </trkpt>
      <trkpt lat="43.50344" lon="2.08159">
        <ele>203.8</ele>
        <time>2023-05-27T14:10:30Z</time>
      </trkpt>
      <trkpt lat="43.50345" lon="2.08163">
        <ele>203.8</ele>
        <time>2023-05-27T14:10:31Z</time>
      </trkpt>
      <trkpt lat="43.50347" lon="2.08167">
        <ele>203.8</ele>
        <time>2023-05-27T14:10:32Z</time>
      </trkpt>
      <trkpt lat="43.50349" lon="2.08172">
        <ele>203.8</ele>
        <time>2023-05-27T14:10:33Z</time>
      </trkpt>
      <trkpt lat="43.5035" lon="2.08176">
        <ele>203.8</ele>
        <time>2023-05-27T14:10:34Z</time>
      </trkpt>
      <trkpt lat="43.50352" lon="2.08181">
        <ele>203.8</ele>
        <time>2023-05-27T14:10:35Z</time>
      </trkpt>
      <trkpt lat="43.50354" lon="2.08186">
        <ele>203.8</ele>
        <time>2023-05-27T14:10:36Z</time>
      </trkpt>
      <trkpt lat="43.50356" lon="2.0819">
        <ele>203.8</ele>
        <time>2023-05-27T14:10:37Z</time>
      </trkpt>
      <trkpt lat="43.50358" lon="2.08195">
        <ele>203.8</ele>
        <time>2023-05-27T14:10:38Z</time>
      </trkpt>
      <trkpt lat="43.5036" lon="2.08199">
        <ele>203.8</ele>
        <time>2023-05-27T14:10:39Z</time>
      </trkpt>
      <trkpt lat="43.50362" lon="2.08204">
        <ele>203.8</ele>
        <time>2023-05-27T14:10:40Z</time>
      </trkpt>
      <trkpt lat="43.50364" lon="2.08208">
        <ele>203.8</ele>
        <time>2023-05-27T14:10:41Z</time>
      </trkpt>
      <trkpt lat="43.50366" lon="2.08212">
        <ele>203.8</ele>
        <time>2023-05-27T14:10:42Z</time>
      </trkpt>
      <trkpt lat="43.50367" lon="2.08216">
        <ele>203.8</ele>
        <time>2023-05-27T14:10:43Z</time>
      </trkpt>
      <trkpt lat="43.50369" lon="2.08221">
        <ele>203.8</ele>
        <time>2023-05-27T14:10:44Z</time>
      </trkpt>
      <trkpt lat="43.50372" lon="2.08225">
        <ele>203.8</ele>
        <time>2023-05-27T14:10:45Z</time>
      </trkpt>
      <trkpt lat="43.50373" lon="2.08229">
        <ele>203.8</ele>
        <time>2023-05-27T14:10:46Z</time>
      </trkpt>
      <trkpt lat="43.50375" lon="2.08233">
        <ele>203.8</ele>
        <time>2023-05-27T14:10:47Z</time>
      </trkpt>
      <trkpt lat="43.50376" lon="2.08238">
        <ele>203.8</ele>
        <time>2023-05-27T14:10:48Z</time>
      </trkpt>
      <trkpt lat="43.50378" lon="2.08243">
        <ele>203.8</ele>
        <time>2023-05-27T14:10:49Z</time>
      </trkpt>
      <trkpt lat="43.5038" lon="2.08247">
        <ele>203.8</ele>
        <time>2023-05-27T14:10:50Z</time>
      </trkpt>
      <trkpt lat="43.50381" lon="2.08251">
        <ele>203.8</ele>
        <time>2023-05-27T14:10:51Z</time>
      </trkpt>
      <trkpt lat="43.50383" lon="2.08255">
        <ele>203.8</ele>
        <time>2023-05-27T14:10:52Z</time>
      </trkpt>
      <trkpt lat="43.50385" lon="2.0826">
        <ele>204</ele>
        <time>2023-05-27T14:10:53Z</time>
      </trkpt>
      <trkpt lat="43.50387" lon="2.08265">
        <ele>204</ele>
        <time>2023-05-27T14:10:54Z</time>
      </trkpt>
      <trkpt lat="43.50389" lon="2.08269">
        <ele>204</ele>
        <time>2023-05-27T14:10:55Z</time>
      </trkpt>
      <trkpt lat="43.50391" lon="2.08273">
        <ele>204</ele>
        <time>2023-05-27T14:10:56Z</time>
      </trkpt>
      <trkpt lat="43.50393" lon="2.08277">
        <ele>204</ele>
        <time>2023-05-27T14:10:57Z</time>
      </trkpt>
      <trkpt lat="43.50395" lon="2.08281">
        <ele>204</ele>
        <time>2023-05-27T14:10:58Z</time>
      </trkpt>
      <trkpt lat="43.50396" lon="2.08286">
        <ele>204</ele>
        <time>2023-05-27T14:10:59Z</time>
      </trkpt>
      <trkpt lat="43.50398" lon="2.08289">
        <ele>204</ele>
        <time>2023-05-27T14:11:00Z</time>
      </trkpt>
      <trkpt lat="43.504" lon="2.08294">
        <ele>204</ele>
        <time>2023-05-27T14:11:01Z</time>
      </trkpt>
      <trkpt lat="43.50402" lon="2.08299">
        <ele>204</ele>
        <time>2023-05-27T14:11:02Z</time>
      </trkpt>
      <trkpt lat="43.50403" lon="2.08303">
        <ele>203.8</ele>
        <time>2023-05-27T14:11:03Z</time>
      </trkpt>
      <trkpt lat="43.50405" lon="2.08307">
        <ele>203.8</ele>
        <time>2023-05-27T14:11:04Z</time>
      </trkpt>
      <trkpt lat="43.50407" lon="2.08311">
        <ele>203.8</ele>
        <time>2023-05-27T14:11:05Z</time>
      </trkpt>
      <trkpt lat="43.50409" lon="2.08316">
        <ele>203.8</ele>
        <time>2023-05-27T14:11:06Z</time>
      </trkpt>
      <trkpt lat="43.50411" lon="2.08321">
        <ele>203.8</ele>
        <time>2023-05-27T14:11:07Z</time>
      </trkpt>
      <trkpt lat="43.50413" lon="2.08326">
        <ele>203.8</ele>
        <time>2023-05-27T14:11:08Z</time>
      </trkpt>
      <trkpt lat="43.50415" lon="2.08331">
        <ele>203.8</ele>
        <time>2023-05-27T14:11:09Z</time>
      </trkpt>
      <trkpt lat="43.50417" lon="2.08335">
        <ele>203.8</ele>
        <time>2023-05-27T14:11:10Z</time>
      </trkpt>
      <trkpt lat="43.50419" lon="2.0834">
        <ele>203.8</ele>
        <time>2023-05-27T14:11:11Z</time>
      </trkpt>
      <trkpt lat="43.50421" lon="2.08345">
        <ele>203.6</ele>
        <time>2023-05-27T14:11:12Z</time>
      </trkpt>
      <trkpt lat="43.50422" lon="2.0835">
        <ele>203.6</ele>
        <time>2023-05-27T14:11:13Z</time>
      </trkpt>
      <trkpt lat="43.50424" lon="2.08354">
        <ele>203.6</ele>
        <time>2023-05-27T14:11:14Z</time>
      </trkpt>
      <trkpt lat="43.50426" lon="2.08358">
        <ele>203.4</ele>
        <time>2023-05-27T14:11:15Z</time>
      </trkpt>
      <trkpt lat="43.50428" lon="2.08363">
        <ele>203.4</ele>
        <time>2023-05-27T14:11:16Z</time>
      </trkpt>
      <trkpt lat="43.50431" lon="2.08368">
        <ele>203.4</ele>
        <time>2023-05-27T14:11:17Z</time>
      </trkpt>
      <trkpt lat="43.50433" lon="2.08372">
        <ele>203.4</ele>
        <time>2023-05-27T14:11:18Z</time>
      </trkpt>
      <trkpt lat="43.50435" lon="2.08376">
        <ele>203.4</ele>
        <time>2023-05-27T14:11:19Z</time>
      </trkpt>
      <trkpt lat="43.50437" lon="2.08381">
        <ele>203.4</ele>
        <time>2023-05-27T14:11:20Z</time>
      </trkpt>
      <trkpt lat="43.50439" lon="2.08385">
        <ele>203.4</ele>
        <time>2023-05-27T14:11:21Z</time>
      </trkpt>
      <trkpt lat="43.50441" lon="2.08389">
        <ele>203.4</ele>
        <time>2023-05-27T14:11:22Z</time>
      </trkpt>
      <trkpt lat="43.50443" lon="2.08393">
        <ele>203.4</ele>
        <time>2023-05-27T14:11:23Z</time>
      </trkpt>
      <trkpt lat="43.50445" lon="2.08396">
        <ele>203.4</ele>
        <time>2023-05-27T14:11:24Z</time>
      </trkpt>
      <trkpt lat="43.50447" lon="2.084">
        <ele>203.4</ele>
        <time>2023-05-27T14:11:25Z</time>
      </trkpt>
      <trkpt lat="43.50449" lon="2.08403">
        <ele>203.4</ele>
        <time>2023-05-27T14:11:26Z</time>
      </trkpt>
      <trkpt lat="43.50451" lon="2.08407">
        <ele>203.4</ele>
        <time>2023-05-27T14:11:27Z</time>
      </trkpt>
      <trkpt lat="43.50454" lon="2.08411">
        <ele>203.4</ele>
        <time>2023-05-27T14:11:28Z</time>
      </trkpt>
      <trkpt lat="43.50456" lon="2.08415">
        <ele>203.4</ele>
        <time>2023-05-27T14:11:29Z</time>
      </trkpt>
      <trkpt lat="43.50459" lon="2.08418">
        <ele>203.4</ele>
        <time>2023-05-27T14:11:30Z</time>
      </trkpt>
      <trkpt lat="43.50461" lon="2.08422">
        <ele>203.4</ele>
        <time>2023-05-27T14:11:31Z</time>
      </trkpt>
      <trkpt lat="43.50463" lon="2.08425">
        <ele>203.4</ele>
        <time>2023-05-27T14:11:32Z</time>
      </trkpt>
      <trkpt lat="43.50465" lon="2.08428">
        <ele>203.4</ele>
        <time>2023-05-27T14:11:33Z</time>
      </trkpt>
      <trkpt lat="43.50468" lon="2.08431">
        <ele>203.4</ele>
        <time>2023-05-27T14:11:34Z</time>
      </trkpt>
      <trkpt lat="43.5047" lon="2.08434">
        <ele>203.4</ele>
        <time>2023-05-27T14:11:35Z</time>
      </trkpt>
      <trkpt lat="43.50472" lon="2.08437">
        <ele>203.4</ele>
        <time>2023-05-27T14:11:36Z</time>
      </trkpt>
      <trkpt lat="43.50475" lon="2.0844">
        <ele>203.4</ele>
        <time>2023-05-27T14:11:37Z</time>
      </trkpt>
      <trkpt lat="43.50477" lon="2.08444">
        <ele>203.4</ele>
        <time>2023-05-27T14:11:38Z</time>
      </trkpt>
      <trkpt lat="43.50479" lon="2.08447">
        <ele>203.4</ele>
        <time>2023-05-27T14:11:39Z</time>
      </trkpt>
      <trkpt lat="43.50481" lon="2.0845">
        <ele>203.4</ele>
        <time>2023-05-27T14:11:40Z</time>
      </trkpt>
      <trkpt lat="43.50483" lon="2.08453">
        <ele>203.4</ele>
        <time>2023-05-27T14:11:41Z</time>
      </trkpt>
      <trkpt lat="43.50485" lon="2.08456">
        <ele>203.6</ele>
        <time>2023-05-27T14:11:42Z</time>
      </trkpt>
      <trkpt lat="43.50487" lon="2.08459">
        <ele>203.6</ele>
        <time>2023-05-27T14:11:43Z</time>
      </trkpt>
      <trkpt lat="43.50489" lon="2.08461">
        <ele>203.6</ele>
        <time>2023-05-27T14:11:44Z</time>
      </trkpt>
      <trkpt lat="43.50491" lon="2.08464">
        <ele>203.6</ele>
        <time>2023-05-27T14:11:45Z</time>
      </trkpt>
      <trkpt lat="43.50493" lon="2.08467">
        <ele>203.6</ele>
        <time>2023-05-27T14:11:46Z</time>
      </trkpt>
      <trkpt lat="43.50494" lon="2.0847">
        <ele>203.8</ele>
        <time>2023-05-27T14:11:47Z</time>
      </trkpt>
      <trkpt lat="43.50496" lon="2.08472">
        <ele>203.8</ele>
        <time>2023-05-27T14:11:48Z</time>
      </trkpt>
      <trkpt lat="43.50498" lon="2.08474">
        <ele>203.8</ele>
        <time>2023-05-27T14:11:49Z</time>
      </trkpt>
      <trkpt lat="43.50499" lon="2.08477">
        <ele>203.8</ele>
        <time>2023-05-27T14:11:50Z</time>
      </trkpt>
      <trkpt lat="43.50501" lon="2.0848">
        <ele>203.8</ele>
        <time>2023-05-27T14:11:51Z</time>
      </trkpt>
      <trkpt lat="43.50503" lon="2.08483">
        <ele>204</ele>
        <time>2023-05-27T14:11:52Z</time>
      </trkpt>
      <trkpt lat="43.50504" lon="2.08485">
        <ele>204</ele>
        <time>2023-05-27T14:11:53Z</time>
      </trkpt>
      <trkpt lat="43.50506" lon="2.08487">
        <ele>204</ele>
        <time>2023-05-27T14:11:54Z</time>
      </trkpt>
      <trkpt lat="43.50508" lon="2.0849">
        <ele>204.2</ele>
        <time>2023-05-27T14:11:55Z</time>
      </trkpt>
      <trkpt lat="43.50509" lon="2.08492">
        <ele>204.2</ele>
        <time>2023-05-27T14:11:56Z</time>
      </trkpt>
      <trkpt lat="43.50511" lon="2.08495">
        <ele>204.2</ele>
        <time>2023-05-27T14:11:57Z</time>
      </trkpt>
      <trkpt lat="43.50512" lon="2.08497">
        <ele>204.4</ele>
        <time>2023-05-27T14:11:58Z</time>
      </trkpt>
      <trkpt lat="43.50514" lon="2.085">
        <ele>204.4</ele>
        <time>2023-05-27T14:11:59Z</time>
      </trkpt>
      <trkpt lat="43.50516" lon="2.08502">
        <ele>204.4</ele>
        <time>2023-05-27T14:12:00Z</time>
      </trkpt>
      <trkpt lat="43.50517" lon="2.08504">
        <ele>204.4</ele>
        <time>2023-05-27T14:12:01Z</time>
      </trkpt>
      <trkpt lat="43.50519" lon="2.08507">
        <ele>204.6</ele>
        <time>2023-05-27T14:12:02Z</time>
      </trkpt>
      <trkpt lat="43.5052" lon="2.08509">
        <ele>204.6</ele>
        <time>2023-05-27T14:12:03Z</time>
      </trkpt>
      <trkpt lat="43.50522" lon="2.08512">
        <ele>204.6</ele>
        <time>2023-05-27T14:12:04Z</time>
      </trkpt>
      <trkpt lat="43.50523" lon="2.08514">
        <ele>204.6</ele>
        <time>2023-05-27T14:12:05Z</time>
      </trkpt>
      <trkpt lat="43.50525" lon="2.08517">
        <ele>204.8</ele>
        <time>2023-05-27T14:12:06Z</time>
      </trkpt>
      <trkpt lat="43.50526" lon="2.0852">
        <ele>204.8</ele>
        <time>2023-05-27T14:12:07Z</time>
      </trkpt>
      <trkpt lat="43.50527" lon="2.08522">
        <ele>204.8</ele>
        <time>2023-05-27T14:12:08Z</time>
      </trkpt>
      <trkpt lat="43.50529" lon="2.08524">
        <ele>205</ele>
        <time>2023-05-27T14:12:09Z</time>
      </trkpt>
      <trkpt lat="43.5053" lon="2.08526">
        <ele>205</ele>
        <time>2023-05-27T14:12:10Z</time>
      </trkpt>
      <trkpt lat="43.50531" lon="2.08527">
        <ele>205.2</ele>
        <time>2023-05-27T14:12:11Z</time>
      </trkpt>
      <trkpt lat="43.50532" lon="2.08529">
        <ele>205.2</ele>
        <time>2023-05-27T14:12:12Z</time>
      </trkpt>
      <trkpt lat="43.50534" lon="2.08532">
        <ele>205.4</ele>
        <time>2023-05-27T14:12:13Z</time>
      </trkpt>
      <trkpt lat="43.50534" lon="2.08534">
        <ele>205.4</ele>
        <time>2023-05-27T14:12:14Z</time>
      </trkpt>
      <trkpt lat="43.50535" lon="2.08536">
        <ele>205.6</ele>
        <time>2023-05-27T14:12:15Z</time>
      </trkpt>
      <trkpt lat="43.50536" lon="2.08538">
        <ele>205.6</ele>
        <time>2023-05-27T14:12:16Z</time>
      </trkpt>
      <trkpt lat="43.50538" lon="2.0854">
        <ele>205.8</ele>
        <time>2023-05-27T14:12:17Z</time>
      </trkpt>
      <trkpt lat="43.50539" lon="2.08541">
        <ele>205.8</ele>
        <time>2023-05-27T14:12:18Z</time>
      </trkpt>
      <trkpt lat="43.50539" lon="2.08543">
        <ele>206</ele>
        <time>2023-05-27T14:12:19Z</time>
      </trkpt>
      <trkpt lat="43.5054" lon="2.08545">
        <ele>206</ele>
        <time>2023-05-27T14:12:20Z</time>
      </trkpt>
      <trkpt lat="43.50541" lon="2.08548">
        <ele>206.2</ele>
        <time>2023-05-27T14:12:21Z</time>
      </trkpt>
      <trkpt lat="43.50542" lon="2.08549">
        <ele>206.2</ele>
        <time>2023-05-27T14:12:22Z</time>
      </trkpt>
      <trkpt lat="43.50543" lon="2.08551">
        <ele>206.4</ele>
        <time>2023-05-27T14:12:23Z</time>
      </trkpt>
      <trkpt lat="43.50544" lon="2.08553">
        <ele>206.4</ele>
        <time>2023-05-27T14:12:24Z</time>
      </trkpt>
      <trkpt lat="43.50545" lon="2.08555">
        <ele>206.6</ele>
        <time>2023-05-27T14:12:25Z</time>
      </trkpt>
      <trkpt lat="43.50546" lon="2.08557">
        <ele>206.6</ele>
        <time>2023-05-27T14:12:26Z</time>
      </trkpt>
      <trkpt lat="43.50547" lon="2.08559">
        <ele>206.8</ele>
        <time>2023-05-27T14:12:27Z</time>
      </trkpt>
      <trkpt lat="43.50548" lon="2.08561">
        <ele>206.8</ele>
        <time>2023-05-27T14:12:28Z</time>
      </trkpt>
      <trkpt lat="43.50549" lon="2.08563">
        <ele>207</ele>
        <time>2023-05-27T14:12:29Z</time>
      </trkpt>
      <trkpt lat="43.5055" lon="2.08564">
        <ele>207</ele>
        <time>2023-05-27T14:12:30Z</time>
      </trkpt>
      <trkpt lat="43.50551" lon="2.08566">
        <ele>207</ele>
        <time>2023-05-27T14:12:31Z</time>
      </trkpt>
      <trkpt lat="43.50551" lon="2.08568">
        <ele>207.2</ele>
        <time>2023-05-27T14:12:32Z</time>
      </trkpt>
      <trkpt lat="43.50552" lon="2.0857">
        <ele>207.2</ele>
        <time>2023-05-27T14:12:33Z</time>
      </trkpt>
      <trkpt lat="43.50553" lon="2.08572">
        <ele>207.4</ele>
        <time>2023-05-27T14:12:34Z</time>
      </trkpt>
      <trkpt lat="43.50554" lon="2.08574">
        <ele>207.4</ele>
        <time>2023-05-27T14:12:35Z</time>
      </trkpt>
      <trkpt lat="43.50554" lon="2.08577">
        <ele>207.4</ele>
        <time>2023-05-27T14:12:36Z</time>
      </trkpt>
      <trkpt lat="43.50555" lon="2.08579">
        <ele>207.6</ele>
        <time>2023-05-27T14:12:37Z</time>
      </trkpt>
      <trkpt lat="43.50555" lon="2.08581">
        <ele>207.6</ele>
        <time>2023-05-27T14:12:38Z</time>
      </trkpt>
      <trkpt lat="43.50555" lon="2.08583">
        <ele>207.8</ele>
        <time>2023-05-27T14:12:39Z</time>
      </trkpt>
      <trkpt lat="43.50556" lon="2.08586">
        <ele>207.8</ele>
        <time>2023-05-27T14:12:40Z</time>
      </trkpt>
      <trkpt lat="43.50556" lon="2.08588">
        <ele>208</ele>
        <time>2023-05-27T14:12:41Z</time>
      </trkpt>
      <trkpt lat="43.50556" lon="2.0859">
        <ele>208</ele>
        <time>2023-05-27T14:12:42Z</time>
      </trkpt>
      <trkpt lat="43.50557" lon="2.08591">
        <ele>208</ele>
        <time>2023-05-27T14:12:43Z</time>
      </trkpt>
      <trkpt lat="43.50557" lon="2.08593">
        <ele>208.2</ele>
        <time>2023-05-27T14:12:44Z</time>
      </trkpt>
      <trkpt lat="43.50556" lon="2.08595">
        <ele>208.2</ele>
        <time>2023-05-27T14:12:45Z</time>
      </trkpt>
      <trkpt lat="43.50556" lon="2.08596">
        <ele>208.2</ele>
        <time>2023-05-27T14:12:46Z</time>
      </trkpt>
      <trkpt lat="43.50556" lon="2.08597">
        <ele>208.2</ele>
        <time>2023-05-27T14:12:47Z</time>
      </trkpt>
      <trkpt lat="43.50556" lon="2.08602">
        <ele>208.4</ele>
        <time>2023-05-27T14:12:55Z</time>
      </trkpt>
      <trkpt lat="43.50556" lon="2.08604">
        <ele>208.4</ele>
        <time>2023-05-27T14:12:56Z</time>
      </trkpt>
      <trkpt lat="43.50556" lon="2.08605">
        <ele>208.4</ele>
        <time>2023-05-27T14:12:57Z</time>
      </trkpt>
      <trkpt lat="43.50556" lon="2.08607">
        <ele>208.6</ele>
        <time>2023-05-27T14:12:58Z</time>
      </trkpt>
      <trkpt lat="43.50556" lon="2.08608">
        <ele>208.6</ele>
        <time>2023-05-27T14:12:59Z</time>
      </trkpt>
      <trkpt lat="43.50555" lon="2.08609">
        <ele>208.6</ele>
        <time>2023-05-27T14:13:00Z</time>
      </trkpt>
      <trkpt lat="43.50555" lon="2.0861">
        <ele>208.8</ele>
        <time>2023-05-27T14:13:01Z</time>
      </trkpt>
      <trkpt lat="43.50555" lon="2.08612">
        <ele>208.8</ele>
        <time>2023-05-27T14:13:02Z</time>
      </trkpt>
      <trkpt lat="43.50555" lon="2.08613">
        <ele>209</ele>
        <time>2023-05-27T14:13:03Z</time>
      </trkpt>
      <trkpt lat="43.50555" lon="2.08614">
        <ele>209</ele>
        <time>2023-05-27T14:13:04Z</time>
      </trkpt>
      <trkpt lat="43.50555" lon="2.08615">
        <ele>209</ele>
        <time>2023-05-27T14:13:05Z</time>
      </trkpt>
      <trkpt lat="43.50554" lon="2.08617">
        <ele>209.2</ele>
        <time>2023-05-27T14:13:06Z</time>
      </trkpt>
      <trkpt lat="43.50554" lon="2.08618">
        <ele>209.2</ele>
        <time>2023-05-27T14:13:07Z</time>
      </trkpt>
      <trkpt lat="43.50554" lon="2.0862">
        <ele>209.4</ele>
        <time>2023-05-27T14:13:08Z</time>
      </trkpt>
      <trkpt lat="43.50554" lon="2.08621">
        <ele>209.4</ele>
        <time>2023-05-27T14:13:09Z</time>
      </trkpt>
      <trkpt lat="43.50554" lon="2.08623">
        <ele>209.6</ele>
        <time>2023-05-27T14:13:10Z</time>
      </trkpt>
      <trkpt lat="43.50554" lon="2.08624">
        <ele>209.6</ele>
        <time>2023-05-27T14:13:11Z</time>
      </trkpt>
      <trkpt lat="43.50554" lon="2.08625">
        <ele>209.8</ele>
        <time>2023-05-27T14:13:12Z</time>
      </trkpt>
      <trkpt lat="43.50553" lon="2.08627">
        <ele>209.8</ele>
        <time>2023-05-27T14:13:13Z</time>
      </trkpt>
      <trkpt lat="43.50553" lon="2.08628">
        <ele>210</ele>
        <time>2023-05-27T14:13:14Z</time>
      </trkpt>
      <trkpt lat="43.50552" lon="2.08629">
        <ele>210</ele>
        <time>2023-05-27T14:13:15Z</time>
      </trkpt>
      <trkpt lat="43.50552" lon="2.08631">
        <ele>210.2</ele>
        <time>2023-05-27T14:13:16Z</time>
      </trkpt>
      <trkpt lat="43.50552" lon="2.08632">
        <ele>210.2</ele>
        <time>2023-05-27T14:13:17Z</time>
      </trkpt>
      <trkpt lat="43.50552" lon="2.08633">
        <ele>210.4</ele>
        <time>2023-05-27T14:13:18Z</time>
      </trkpt>
      <trkpt lat="43.50552" lon="2.08635">
        <ele>210.4</ele>
        <time>2023-05-27T14:13:19Z</time>
      </trkpt>
      <trkpt lat="43.50552" lon="2.08636">
        <ele>210.6</ele>
        <time>2023-05-27T14:13:20Z</time>
      </trkpt>
      <trkpt lat="43.50552" lon="2.08637">
        <ele>210.6</ele>
        <time>2023-05-27T14:13:21Z</time>
      </trkpt>
      <trkpt lat="43.50551" lon="2.08638">
        <ele>210.8</ele>
        <time>2023-05-27T14:13:22Z</time>
      </trkpt>
      <trkpt lat="43.50551" lon="2.0864">
        <ele>210.8</ele>
        <time>2023-05-27T14:13:23Z</time>
      </trkpt>
      <trkpt lat="43.50551" lon="2.08641">
        <ele>211</ele>
        <time>2023-05-27T14:13:24Z</time>
      </trkpt>
      <trkpt lat="43.50551" lon="2.08642">
        <ele>211</ele>
        <time>2023-05-27T14:13:25Z</time>
      </trkpt>
      <trkpt lat="43.50551" lon="2.08644">
        <ele>211.2</ele>
        <time>2023-05-27T14:13:26Z</time>
      </trkpt>
      <trkpt lat="43.5055" lon="2.08645">
        <ele>211.2</ele>
        <time>2023-05-27T14:13:27Z</time>
      </trkpt>
      <trkpt lat="43.5055" lon="2.08647">
        <ele>211.4</ele>
        <time>2023-05-27T14:13:28Z</time>
      </trkpt>
      <trkpt lat="43.5055" lon="2.08648">
        <ele>211.6</ele>
        <time>2023-05-27T14:13:29Z</time>
      </trkpt>
      <trkpt lat="43.50549" lon="2.08649">
        <ele>211.6</ele>
        <time>2023-05-27T14:13:30Z</time>
      </trkpt>
      <trkpt lat="43.50549" lon="2.08651">
        <ele>211.8</ele>
        <time>2023-05-27T14:13:31Z</time>
      </trkpt>
      <trkpt lat="43.50549" lon="2.08652">
        <ele>211.8</ele>
        <time>2023-05-27T14:13:32Z</time>
      </trkpt>
      <trkpt lat="43.50549" lon="2.08653">
        <ele>212</ele>
        <time>2023-05-27T14:13:33Z</time>
      </trkpt>
      <trkpt lat="43.50549" lon="2.08655">
        <ele>212.2</ele>
        <time>2023-05-27T14:13:34Z</time>
      </trkpt>
      <trkpt lat="43.50548" lon="2.08656">
        <ele>212.2</ele>
        <time>2023-05-27T14:13:35Z</time>
      </trkpt>
      <trkpt lat="43.50548" lon="2.08657">
        <ele>212.4</ele>
        <time>2023-05-27T14:13:36Z</time>
      </trkpt>
      <trkpt lat="43.50548" lon="2.08658">
        <ele>212.4</ele>
        <time>2023-05-27T14:13:37Z</time>
      </trkpt>
      <trkpt lat="43.50548" lon="2.0866">
        <ele>212.6</ele>
        <time>2023-05-27T14:13:38Z</time>
      </trkpt>
      <trkpt lat="43.50548" lon="2.08661">
        <ele>212.6</ele>
        <time>2023-05-27T14:13:39Z</time>
      </trkpt>
      <trkpt lat="43.50548" lon="2.08662">
        <ele>212.8</ele>
        <time>2023-05-27T14:13:40Z</time>
      </trkpt>
      <trkpt lat="43.50548" lon="2.08664">
        <ele>212.8</ele>
        <time>2023-05-27T14:13:41Z</time>
      </trkpt>
      <trkpt lat="43.50548" lon="2.08665">
        <ele>213</ele>
        <time>2023-05-27T14:13:42Z</time>
      </trkpt>
      <trkpt lat="43.50547" lon="2.08667">
        <ele>213</ele>
        <time>2023-05-27T14:13:43Z</time>
      </trkpt>
      <trkpt lat="43.50547" lon="2.08668">
        <ele>213.2</ele>
        <time>2023-05-27T14:13:44Z</time>
      </trkpt>
      <trkpt lat="43.50547" lon="2.0867">
        <ele>213.2</ele>
        <time>2023-05-27T14:13:45Z</time>
      </trkpt>
      <trkpt lat="43.50547" lon="2.08671">
        <ele>213.4</ele>
        <time>2023-05-27T14:13:46Z</time>
      </trkpt>
      <trkpt lat="43.50547" lon="2.08672">
        <ele>213.4</ele>
        <time>2023-05-27T14:13:47Z</time>
      </trkpt>
      <trkpt lat="43.50547" lon="2.08673">
        <ele>213.6</ele>
        <time>2023-05-27T14:13:48Z</time>
      </trkpt>
      <trkpt lat="43.50547" lon="2.08675">
        <ele>213.6</ele>
        <time>2023-05-27T14:13:49Z</time>
      </trkpt>
      <trkpt lat="43.50547" lon="2.08676">
        <ele>213.8</ele>
        <time>2023-05-27T14:13:50Z</time>
      </trkpt>
      <trkpt lat="43.50547" lon="2.08678">
        <ele>213.8</ele>
        <time>2023-05-27T14:13:51Z</time>
      </trkpt>
      <trkpt lat="43.50547" lon="2.08679">
        <ele>214</ele>
        <time>2023-05-27T14:13:52Z</time>
      </trkpt>
      <trkpt lat="43.50546" lon="2.0868">
        <ele>214</ele>
        <time>2023-05-27T14:13:53Z</time>
      </trkpt>
      <trkpt lat="43.50546" lon="2.08681">
        <ele>214.2</ele>
        <time>2023-05-27T14:13:54Z</time>
      </trkpt>
      <trkpt lat="43.50546" lon="2.08682">
        <ele>214.2</ele>
        <time>2023-05-27T14:13:55Z</time>
      </trkpt>
      <trkpt lat="43.50546" lon="2.08683">
        <ele>214.4</ele>
        <time>2023-05-27T14:13:56Z</time>
      </trkpt>
      <trkpt lat="43.50546" lon="2.08684">
        <ele>214.4</ele>
        <time>2023-05-27T14:13:57Z</time>
      </trkpt>
      <trkpt lat="43.50546" lon="2.08685">
        <ele>214.6</ele>
        <time>2023-05-27T14:13:58Z</time>
      </trkpt>
      <trkpt lat="43.50546" lon="2.08687">
        <ele>214.6</ele>
        <time>2023-05-27T14:13:59Z</time>
      </trkpt>
      <trkpt lat="43.50546" lon="2.08688">
        <ele>214.8</ele>
        <time>2023-05-27T14:14:00Z</time>
      </trkpt>
      <trkpt lat="43.50546" lon="2.08689">
        <ele>214.8</ele>
        <time>2023-05-27T14:14:01Z</time>
      </trkpt>
      <trkpt lat="43.50546" lon="2.08691">
        <ele>215</ele>
        <time>2023-05-27T14:14:02Z</time>
      </trkpt>
      <trkpt lat="43.50546" lon="2.08692">
        <ele>215</ele>
        <time>2023-05-27T14:14:03Z</time>
      </trkpt>
      <trkpt lat="43.50546" lon="2.08693">
        <ele>215.2</ele>
        <time>2023-05-27T14:14:04Z</time>
      </trkpt>
      <trkpt lat="43.50545" lon="2.08695">
        <ele>215.2</ele>
        <time>2023-05-27T14:14:05Z</time>
      </trkpt>
      <trkpt lat="43.50545" lon="2.08696">
        <ele>215.4</ele>
        <time>2023-05-27T14:14:06Z</time>
      </trkpt>
      <trkpt lat="43.50545" lon="2.08697">
        <ele>215.4</ele>
        <time>2023-05-27T14:14:07Z</time>
      </trkpt>
      <trkpt lat="43.50545" lon="2.08698">
        <ele>215.6</ele>
        <time>2023-05-27T14:14:08Z</time>
      </trkpt>
      <trkpt lat="43.50545" lon="2.08698">
        <ele>215.6</ele>
        <time>2023-05-27T14:14:09Z</time>
      </trkpt>
      <trkpt lat="43.50544" lon="2.08704">
        <ele>215.8</ele>
        <time>2023-05-27T14:14:24Z</time>
      </trkpt>
      <trkpt lat="43.50544" lon="2.08705">
        <ele>215.8</ele>
        <time>2023-05-27T14:14:25Z</time>
      </trkpt>
      <trkpt lat="43.50544" lon="2.08706">
        <ele>216</ele>
        <time>2023-05-27T14:14:26Z</time>
      </trkpt>
      <trkpt lat="43.50544" lon="2.08708">
        <ele>216</ele>
        <time>2023-05-27T14:14:27Z</time>
      </trkpt>
      <trkpt lat="43.50544" lon="2.08709">
        <ele>216</ele>
        <time>2023-05-27T14:14:28Z</time>
      </trkpt>
      <trkpt lat="43.50544" lon="2.0871">
        <ele>216.2</ele>
        <time>2023-05-27T14:14:29Z</time>
      </trkpt>
      <trkpt lat="43.50543" lon="2.08711">
        <ele>216.2</ele>
        <time>2023-05-27T14:14:30Z</time>
      </trkpt>
      <trkpt lat="43.50543" lon="2.08712">
        <ele>216.2</ele>
        <time>2023-05-27T14:14:31Z</time>
      </trkpt>
      <trkpt lat="43.50543" lon="2.08714">
        <ele>216.4</ele>
        <time>2023-05-27T14:14:32Z</time>
      </trkpt>
      <trkpt lat="43.50543" lon="2.08715">
        <ele>216.4</ele>
        <time>2023-05-27T14:14:33Z</time>
      </trkpt>
      <trkpt lat="43.50543" lon="2.08716">
        <ele>216.4</ele>
        <time>2023-05-27T14:14:34Z</time>
      </trkpt>
      <trkpt lat="43.50543" lon="2.08718">
        <ele>216.6</ele>
        <time>2023-05-27T14:14:35Z</time>
      </trkpt>
      <trkpt lat="43.50542" lon="2.08719">
        <ele>216.6</ele>
        <time>2023-05-27T14:14:36Z</time>
      </trkpt>
      <trkpt lat="43.50542" lon="2.08721">
        <ele>216.8</ele>
        <time>2023-05-27T14:14:37Z</time>
      </trkpt>
      <trkpt lat="43.50542" lon="2.08722">
        <ele>216.8</ele>
        <time>2023-05-27T14:14:38Z</time>
      </trkpt>
      <trkpt lat="43.50542" lon="2.08723">
        <ele>217</ele>
        <time>2023-05-27T14:14:39Z</time>
      </trkpt>
      <trkpt lat="43.50542" lon="2.08724">
        <ele>217</ele>
        <time>2023-05-27T14:14:40Z</time>
      </trkpt>
      <trkpt lat="43.50542" lon="2.08726">
        <ele>217.2</ele>
        <time>2023-05-27T14:14:41Z</time>
      </trkpt>
      <trkpt lat="43.50542" lon="2.08727">
        <ele>217.2</ele>
        <time>2023-05-27T14:14:42Z</time>
      </trkpt>
      <trkpt lat="43.50541" lon="2.08728">
        <ele>217.4</ele>
        <time>2023-05-27T14:14:43Z</time>
      </trkpt>
      <trkpt lat="43.50541" lon="2.0873">
        <ele>217.4</ele>
        <time>2023-05-27T14:14:44Z</time>
      </trkpt>
      <trkpt lat="43.50541" lon="2.08732">
        <ele>217.4</ele>
        <time>2023-05-27T14:14:45Z</time>
      </trkpt>
      <trkpt lat="43.50541" lon="2.08733">
        <ele>217.6</ele>
        <time>2023-05-27T14:14:46Z</time>
      </trkpt>
      <trkpt lat="43.50541" lon="2.08735">
        <ele>217.6</ele>
        <time>2023-05-27T14:14:47Z</time>
      </trkpt>
      <trkpt lat="43.50541" lon="2.08736">
        <ele>217.8</ele>
        <time>2023-05-27T14:14:48Z</time>
      </trkpt>
      <trkpt lat="43.5054" lon="2.08738">
        <ele>217.8</ele>
        <time>2023-05-27T14:14:49Z</time>
      </trkpt>
      <trkpt lat="43.5054" lon="2.08739">
        <ele>217.8</ele>
        <time>2023-05-27T14:14:50Z</time>
      </trkpt>
      <trkpt lat="43.5054" lon="2.08741">
        <ele>218</ele>
        <time>2023-05-27T14:14:51Z</time>
      </trkpt>
      <trkpt lat="43.5054" lon="2.08742">
        <ele>218</ele>
        <time>2023-05-27T14:14:52Z</time>
      </trkpt>
      <trkpt lat="43.5054" lon="2.08744">
        <ele>218.2</ele>
        <time>2023-05-27T14:14:53Z</time>
      </trkpt>
      <trkpt lat="43.5054" lon="2.08745">
        <ele>218.2</ele>
        <time>2023-05-27T14:14:54Z</time>
      </trkpt>
      <trkpt lat="43.5054" lon="2.08747">
        <ele>218.2</ele>
        <time>2023-05-27T14:14:55Z</time>
      </trkpt>
      <trkpt lat="43.50539" lon="2.08749">
        <ele>218.2</ele>
        <time>2023-05-27T14:14:56Z</time>
      </trkpt>
      <trkpt lat="43.50539" lon="2.08751">
        <ele>218.4</ele>
        <time>2023-05-27T14:14:57Z</time>
      </trkpt>
      <trkpt lat="43.50539" lon="2.08752">
        <ele>218.4</ele>
        <time>2023-05-27T14:14:58Z</time>
      </trkpt>
      <trkpt lat="43.50539" lon="2.08754">
        <ele>218.4</ele>
        <time>2023-05-27T14:14:59Z</time>
      </trkpt>
      <trkpt lat="43.50538" lon="2.08755">
        <ele>218.6</ele>
        <time>2023-05-27T14:15:00Z</time>
      </trkpt>
      <trkpt lat="43.50538" lon="2.08757">
        <ele>218.6</ele>
        <time>2023-05-27T14:15:01Z</time>
      </trkpt>
      <trkpt lat="43.50538" lon="2.08758">
        <ele>218.6</ele>
        <time>2023-05-27T14:15:02Z</time>
      </trkpt>
      <trkpt lat="43.50537" lon="2.0876">
        <ele>218.8</ele>
        <time>2023-05-27T14:15:03Z</time>
      </trkpt>
      <trkpt lat="43.50537" lon="2.08761">
        <ele>218.8</ele>
        <time>2023-05-27T14:15:04Z</time>
      </trkpt>
      <trkpt lat="43.50537" lon="2.08763">
        <ele>218.8</ele>
        <time>2023-05-27T14:15:05Z</time>
      </trkpt>
      <trkpt lat="43.50537" lon="2.08764">
        <ele>219</ele>
        <time>2023-05-27T14:15:06Z</time>
      </trkpt>
      <trkpt lat="43.50537" lon="2.08766">
        <ele>219</ele>
        <time>2023-05-27T14:15:07Z</time>
      </trkpt>
      <trkpt lat="43.50537" lon="2.08767">
        <ele>219</ele>
        <time>2023-05-27T14:15:08Z</time>
      </trkpt>
      <trkpt lat="43.50537" lon="2.08769">
        <ele>219.2</ele>
        <time>2023-05-27T14:15:09Z</time>
      </trkpt>
      <trkpt lat="43.50537" lon="2.0877">
        <ele>219.2</ele>
        <time>2023-05-27T14:15:10Z</time>
      </trkpt>
      <trkpt lat="43.50536" lon="2.08772">
        <ele>219.2</ele>
        <time>2023-05-27T14:15:11Z</time>
      </trkpt>
      <trkpt lat="43.50536" lon="2.08773">
        <ele>219.2</ele>
        <time>2023-05-27T14:15:12Z</time>
      </trkpt>
      <trkpt lat="43.50536" lon="2.08775">
        <ele>219.4</ele>
        <time>2023-05-27T14:15:13Z</time>
      </trkpt>
      <trkpt lat="43.50536" lon="2.08776">
        <ele>219.4</ele>
        <time>2023-05-27T14:15:14Z</time>
      </trkpt>
      <trkpt lat="43.50536" lon="2.08778">
        <ele>219.4</ele>
        <time>2023-05-27T14:15:15Z</time>
      </trkpt>
      <trkpt lat="43.50536" lon="2.08779">
        <ele>219.4</ele>
        <time>2023-05-27T14:15:16Z</time>
      </trkpt>
      <trkpt lat="43.50535" lon="2.0878">
        <ele>219.6</ele>
        <time>2023-05-27T14:15:17Z</time>
      </trkpt>
      <trkpt lat="43.50535" lon="2.08782">
        <ele>219.6</ele>
        <time>2023-05-27T14:15:18Z</time>
      </trkpt>
      <trkpt lat="43.50535" lon="2.08784">
        <ele>219.6</ele>
        <time>2023-05-27T14:15:19Z</time>
      </trkpt>
      <trkpt lat="43.50535" lon="2.08785">
        <ele>219.8</ele>
        <time>2023-05-27T14:15:20Z</time>
      </trkpt>
      <trkpt lat="43.50535" lon="2.08787">
        <ele>219.8</ele>
        <time>2023-05-27T14:15:21Z</time>
      </trkpt>
      <trkpt lat="43.50535" lon="2.08788">
        <ele>219.8</ele>
        <time>2023-05-27T14:15:22Z</time>
      </trkpt>
      <trkpt lat="43.50535" lon="2.08789">
        <ele>220</ele>
        <time>2023-05-27T14:15:23Z</time>
      </trkpt>
      <trkpt lat="43.50535" lon="2.0879">
        <ele>220</ele>
        <time>2023-05-27T14:15:24Z</time>
      </trkpt>
      <trkpt lat="43.50535" lon="2.08792">
        <ele>220</ele>
        <time>2023-05-27T14:15:25Z</time>
      </trkpt>
      <trkpt lat="43.50535" lon="2.08794">
        <ele>220.2</ele>
        <time>2023-05-27T14:15:26Z</time>
      </trkpt>
      <trkpt lat="43.50535" lon="2.08795">
        <ele>220.2</ele>
        <time>2023-05-27T14:15:27Z</time>
      </trkpt>
      <trkpt lat="43.50535" lon="2.08797">
        <ele>220.2</ele>
        <time>2023-05-27T14:15:28Z</time>
      </trkpt>
      <trkpt lat="43.50534" lon="2.08798">
        <ele>220.4</ele>
        <time>2023-05-27T14:15:29Z</time>
      </trkpt>
      <trkpt lat="43.50534" lon="2.088">
        <ele>220.4</ele>
        <time>2023-05-27T14:15:30Z</time>
      </trkpt>
      <trkpt lat="43.50534" lon="2.08801">
        <ele>220.6</ele>
        <time>2023-05-27T14:15:31Z</time>
      </trkpt>
      <trkpt lat="43.50534" lon="2.08803">
        <ele>220.6</ele>
        <time>2023-05-27T14:15:32Z</time>
      </trkpt>
      <trkpt lat="43.50534" lon="2.08805">
        <ele>220.6</ele>
        <time>2023-05-27T14:15:33Z</time>
      </trkpt>
      <trkpt lat="43.50534" lon="2.08806">
        <ele>220.8</ele>
        <time>2023-05-27T14:15:34Z</time>
      </trkpt>
      <trkpt lat="43.50535" lon="2.08808">
        <ele>220.8</ele>
        <time>2023-05-27T14:15:35Z</time>
      </trkpt>
      <trkpt lat="43.50535" lon="2.0881">
        <ele>221</ele>
        <time>2023-05-27T14:15:36Z</time>
      </trkpt>
      <trkpt lat="43.50535" lon="2.08811">
        <ele>221</ele>
        <time>2023-05-27T14:15:37Z</time>
      </trkpt>
      <trkpt lat="43.50535" lon="2.08813">
        <ele>221</ele>
        <time>2023-05-27T14:15:38Z</time>
      </trkpt>
      <trkpt lat="43.50535" lon="2.08814">
        <ele>221.2</ele>
        <time>2023-05-27T14:15:39Z</time>
      </trkpt>
      <trkpt lat="43.50535" lon="2.08816">
        <ele>221.2</ele>
        <time>2023-05-27T14:15:40Z</time>
      </trkpt>
      <trkpt lat="43.50535" lon="2.08817">
        <ele>221.4</ele>
        <time>2023-05-27T14:15:41Z</time>
      </trkpt>
      <trkpt lat="43.50535" lon="2.08819">
        <ele>221.4</ele>
        <time>2023-05-27T14:15:42Z</time>
      </trkpt>
      <trkpt lat="43.50535" lon="2.0882">
        <ele>221.6</ele>
        <time>2023-05-27T14:15:43Z</time>
      </trkpt>
      <trkpt lat="43.50535" lon="2.08822">
        <ele>221.6</ele>
        <time>2023-05-27T14:15:44Z</time>
      </trkpt>
      <trkpt lat="43.50536" lon="2.08823">
        <ele>221.6</ele>
        <time>2023-05-27T14:15:45Z</time>
      </trkpt>
      <trkpt lat="43.50536" lon="2.08825">
        <ele>221.8</ele>
        <time>2023-05-27T14:15:46Z</time>
      </trkpt>
      <trkpt lat="43.50536" lon="2.08826">
        <ele>221.8</ele>
        <time>2023-05-27T14:15:47Z</time>
      </trkpt>
      <trkpt lat="43.50536" lon="2.08828">
        <ele>221.8</ele>
        <time>2023-05-27T14:15:48Z</time>
      </trkpt>
      <trkpt lat="43.50537" lon="2.0883">
        <ele>222</ele>
        <time>2023-05-27T14:15:49Z</time>
      </trkpt>
      <trkpt lat="43.50537" lon="2.08831">
        <ele>222</ele>
        <time>2023-05-27T14:15:50Z</time>
      </trkpt>
      <trkpt lat="43.50537" lon="2.08833">
        <ele>222</ele>
        <time>2023-05-27T14:15:51Z</time>
      </trkpt>
      <trkpt lat="43.50537" lon="2.08834">
        <ele>222.2</ele>
        <time>2023-05-27T14:15:52Z</time>
      </trkpt>
      <trkpt lat="43.50537" lon="2.08836">
        <ele>222.2</ele>
        <time>2023-05-27T14:15:53Z</time>
      </trkpt>
      <trkpt lat="43.50537" lon="2.08838">
        <ele>222.2</ele>
        <time>2023-05-27T14:15:54Z</time>
      </trkpt>
      <trkpt lat="43.50537" lon="2.08839">
        <ele>222.2</ele>
        <time>2023-05-27T14:15:55Z</time>
      </trkpt>
      <trkpt lat="43.50538" lon="2.08841">
        <ele>222.4</ele>
        <time>2023-05-27T14:15:56Z</time>
      </trkpt>
      <trkpt lat="43.50538" lon="2.08843">
        <ele>222.4</ele>
        <time>2023-05-27T14:15:57Z</time>
      </trkpt>
      <trkpt lat="43.50538" lon="2.08844">
        <ele>222.4</ele>
        <time>2023-05-27T14:15:58Z</time>
      </trkpt>
      <trkpt lat="43.50538" lon="2.08846">
        <ele>222.6</ele>
        <time>2023-05-27T14:15:59Z</time>
      </trkpt>
      <trkpt lat="43.50538" lon="2.08847">
        <ele>222.6</ele>
        <time>2023-05-27T14:16:00Z</time>
      </trkpt>
      <trkpt lat="43.50539" lon="2.08849">
        <ele>222.6</ele>
        <time>2023-05-27T14:16:01Z</time>
      </trkpt>
      <trkpt lat="43.50539" lon="2.08851">
        <ele>222.6</ele>
        <time>2023-05-27T14:16:02Z</time>
      </trkpt>
      <trkpt lat="43.50539" lon="2.08852">
        <ele>222.6</ele>
        <time>2023-05-27T14:16:03Z</time>
      </trkpt>
      <trkpt lat="43.50539" lon="2.08854">
        <ele>222.8</ele>
        <time>2023-05-27T14:16:04Z</time>
      </trkpt>
      <trkpt lat="43.5054" lon="2.08855">
        <ele>222.8</ele>
        <time>2023-05-27T14:16:05Z</time>
      </trkpt>
      <trkpt lat="43.5054" lon="2.08857">
        <ele>222.8</ele>
        <time>2023-05-27T14:16:06Z</time>
      </trkpt>
      <trkpt lat="43.5054" lon="2.08858">
        <ele>222.8</ele>
        <time>2023-05-27T14:16:07Z</time>
      </trkpt>
      <trkpt lat="43.5054" lon="2.0886">
        <ele>223</ele>
        <time>2023-05-27T14:16:08Z</time>
      </trkpt>
      <trkpt lat="43.5054" lon="2.08861">
        <ele>223</ele>
        <time>2023-05-27T14:16:09Z</time>
      </trkpt>
      <trkpt lat="43.5054" lon="2.08863">
        <ele>223</ele>
        <time>2023-05-27T14:16:10Z</time>
      </trkpt>
      <trkpt lat="43.50541" lon="2.08865">
        <ele>223</ele>
        <time>2023-05-27T14:16:11Z</time>
      </trkpt>
      <trkpt lat="43.50541" lon="2.08866">
        <ele>223.2</ele>
        <time>2023-05-27T14:16:12Z</time>
      </trkpt>
      <trkpt lat="43.50541" lon="2.08868">
        <ele>223.2</ele>
        <time>2023-05-27T14:16:13Z</time>
      </trkpt>
      <trkpt lat="43.50541" lon="2.0887">
        <ele>223.2</ele>
        <time>2023-05-27T14:16:14Z</time>
      </trkpt>
      <trkpt lat="43.50541" lon="2.08872">
        <ele>223.4</ele>
        <time>2023-05-27T14:16:15Z</time>
      </trkpt>
      <trkpt lat="43.50541" lon="2.08874">
        <ele>223.4</ele>
        <time>2023-05-27T14:16:16Z</time>
      </trkpt>
      <trkpt lat="43.50541" lon="2.08876">
        <ele>223.4</ele>
        <time>2023-05-27T14:16:17Z</time>
      </trkpt>
      <trkpt lat="43.50541" lon="2.08877">
        <ele>223.6</ele>
        <time>2023-05-27T14:16:18Z</time>
      </trkpt>
      <trkpt lat="43.50541" lon="2.08879">
        <ele>223.6</ele>
        <time>2023-05-27T14:16:19Z</time>
      </trkpt>
      <trkpt lat="43.50541" lon="2.08881">
        <ele>223.6</ele>
        <time>2023-05-27T14:16:20Z</time>
      </trkpt>
      <trkpt lat="43.50541" lon="2.08883">
        <ele>223.6</ele>
        <time>2023-05-27T14:16:21Z</time>
      </trkpt>
      <trkpt lat="43.50541" lon="2.08885">
        <ele>223.8</ele>
        <time>2023-05-27T14:16:22Z</time>
      </trkpt>
      <trkpt lat="43.50541" lon="2.08886">
        <ele>223.8</ele>
        <time>2023-05-27T14:16:23Z</time>
      </trkpt>
      <trkpt lat="43.50541" lon="2.08888">
        <ele>223.8</ele>
        <time>2023-05-27T14:16:24Z</time>
      </trkpt>
      <trkpt lat="43.50542" lon="2.0889">
        <ele>223.8</ele>
        <time>2023-05-27T14:16:25Z</time>
      </trkpt>
      <trkpt lat="43.50542" lon="2.08892">
        <ele>224</ele>
        <time>2023-05-27T14:16:26Z</time>
      </trkpt>
      <trkpt lat="43.50542" lon="2.08894">
        <ele>224</ele>
        <time>2023-05-27T14:16:27Z</time>
      </trkpt>
      <trkpt lat="43.50542" lon="2.08895">
        <ele>224</ele>
        <time>2023-05-27T14:16:28Z</time>
      </trkpt>
      <trkpt lat="43.50542" lon="2.08897">
        <ele>224.2</ele>
        <time>2023-05-27T14:16:29Z</time>
      </trkpt>
      <trkpt lat="43.50541" lon="2.08899">
        <ele>224.2</ele>
        <time>2023-05-27T14:16:30Z</time>
      </trkpt>
      <trkpt lat="43.50541" lon="2.08901">
        <ele>224.2</ele>
        <time>2023-05-27T14:16:31Z</time>
      </trkpt>
      <trkpt lat="43.50541" lon="2.08902">
        <ele>224.4</ele>
        <time>2023-05-27T14:16:32Z</time>
      </trkpt>
      <trkpt lat="43.50541" lon="2.08904">
        <ele>224.4</ele>
        <time>2023-05-27T14:16:33Z</time>
      </trkpt>
      <trkpt lat="43.50541" lon="2.08906">
        <ele>224.4</ele>
        <time>2023-05-27T14:16:34Z</time>
      </trkpt>
      <trkpt lat="43.5054" lon="2.08908">
        <ele>224.6</ele>
        <time>2023-05-27T14:16:35Z</time>
      </trkpt>
      <trkpt lat="43.5054" lon="2.08909">
        <ele>224.6</ele>
        <time>2023-05-27T14:16:36Z</time>
      </trkpt>
      <trkpt lat="43.5054" lon="2.08911">
        <ele>224.6</ele>
        <time>2023-05-27T14:16:37Z</time>
      </trkpt>
      <trkpt lat="43.5054" lon="2.08913">
        <ele>224.8</ele>
        <time>2023-05-27T14:16:38Z</time>
      </trkpt>
      <trkpt lat="43.5054" lon="2.08914">
        <ele>224.8</ele>
        <time>2023-05-27T14:16:39Z</time>
      </trkpt>
      <trkpt lat="43.5054" lon="2.08916">
        <ele>225</ele>
        <time>2023-05-27T14:16:40Z</time>
      </trkpt>
      <trkpt lat="43.5054" lon="2.08918">
        <ele>225</ele>
        <time>2023-05-27T14:16:41Z</time>
      </trkpt>
      <trkpt lat="43.5054" lon="2.0892">
        <ele>225</ele>
        <time>2023-05-27T14:16:42Z</time>
      </trkpt>
      <trkpt lat="43.5054" lon="2.08921">
        <ele>225.2</ele>
        <time>2023-05-27T14:16:43Z</time>
      </trkpt>
      <trkpt lat="43.5054" lon="2.08923">
        <ele>225.2</ele>
        <time>2023-05-27T14:16:44Z</time>
      </trkpt>
      <trkpt lat="43.5054" lon="2.08925">
        <ele>225.2</ele>
        <time>2023-05-27T14:16:45Z</time>
      </trkpt>
      <trkpt lat="43.5054" lon="2.08926">
        <ele>225.2</ele>
        <time>2023-05-27T14:16:46Z</time>
      </trkpt>
      <trkpt lat="43.5054" lon="2.08928">
        <ele>225.4</ele>
        <time>2023-05-27T14:16:47Z</time>
      </trkpt>
      <trkpt lat="43.5054" lon="2.0893">
        <ele>225.4</ele>
        <time>2023-05-27T14:16:48Z</time>
      </trkpt>
      <trkpt lat="43.50539" lon="2.08932">
        <ele>225.4</ele>
        <time>2023-05-27T14:16:49Z</time>
      </trkpt>
      <trkpt lat="43.50539" lon="2.08933">
        <ele>225.6</ele>
        <time>2023-05-27T14:16:50Z</time>
      </trkpt>
      <trkpt lat="43.50539" lon="2.08935">
        <ele>225.6</ele>
        <time>2023-05-27T14:16:51Z</time>
      </trkpt>
      <trkpt lat="43.50539" lon="2.08936">
        <ele>225.6</ele>
        <time>2023-05-27T14:16:52Z</time>
      </trkpt>
      <trkpt lat="43.50539" lon="2.08938">
        <ele>225.8</ele>
        <time>2023-05-27T14:16:53Z</time>
      </trkpt>
      <trkpt lat="43.50539" lon="2.0894">
        <ele>225.8</ele>
        <time>2023-05-27T14:16:54Z</time>
      </trkpt>
      <trkpt lat="43.50539" lon="2.08942">
        <ele>225.8</ele>
        <time>2023-05-27T14:16:55Z</time>
      </trkpt>
      <trkpt lat="43.50539" lon="2.08944">
        <ele>226</ele>
        <time>2023-05-27T14:16:56Z</time>
      </trkpt>
      <trkpt lat="43.50539" lon="2.08946">
        <ele>226</ele>
        <time>2023-05-27T14:16:57Z</time>
      </trkpt>
      <trkpt lat="43.50539" lon="2.08947">
        <ele>226</ele>
        <time>2023-05-27T14:16:58Z</time>
      </trkpt>
      <trkpt lat="43.50539" lon="2.08949">
        <ele>226.2</ele>
        <time>2023-05-27T14:16:59Z</time>
      </trkpt>
      <trkpt lat="43.50539" lon="2.08951">
        <ele>226.2</ele>
        <time>2023-05-27T14:17:00Z</time>
      </trkpt>
      <trkpt lat="43.50539" lon="2.08953">
        <ele>226.2</ele>
        <time>2023-05-27T14:17:01Z</time>
      </trkpt>
      <trkpt lat="43.50539" lon="2.08954">
        <ele>226.4</ele>
        <time>2023-05-27T14:17:02Z</time>
      </trkpt>
      <trkpt lat="43.50539" lon="2.08956">
        <ele>226.4</ele>
        <time>2023-05-27T14:17:03Z</time>
      </trkpt>
      <trkpt lat="43.50539" lon="2.08957">
        <ele>226.4</ele>
        <time>2023-05-27T14:17:04Z</time>
      </trkpt>
      <trkpt lat="43.50539" lon="2.08959">
        <ele>226.6</ele>
        <time>2023-05-27T14:17:05Z</time>
      </trkpt>
      <trkpt lat="43.50539" lon="2.08961">
        <ele>226.6</ele>
        <time>2023-05-27T14:17:06Z</time>
      </trkpt>
      <trkpt lat="43.50539" lon="2.08962">
        <ele>226.6</ele>
        <time>2023-05-27T14:17:07Z</time>
      </trkpt>
      <trkpt lat="43.50539" lon="2.08964">
        <ele>226.8</ele>
        <time>2023-05-27T14:17:08Z</time>
      </trkpt>
      <trkpt lat="43.50539" lon="2.08965">
        <ele>226.8</ele>
        <time>2023-05-27T14:17:09Z</time>
      </trkpt>
      <trkpt lat="43.50539" lon="2.08967">
        <ele>227</ele>
        <time>2023-05-27T14:17:10Z</time>
      </trkpt>
      <trkpt lat="43.50539" lon="2.08969">
        <ele>227</ele>
        <time>2023-05-27T14:17:11Z</time>
      </trkpt>
      <trkpt lat="43.50539" lon="2.0897">
        <ele>227.2</ele>
        <time>2023-05-27T14:17:12Z</time>
      </trkpt>
      <trkpt lat="43.50539" lon="2.08972">
        <ele>227.2</ele>
        <time>2023-05-27T14:17:13Z</time>
      </trkpt>
      <trkpt lat="43.50539" lon="2.08974">
        <ele>227.2</ele>
        <time>2023-05-27T14:17:14Z</time>
      </trkpt>
      <trkpt lat="43.50539" lon="2.08975">
        <ele>227.4</ele>
        <time>2023-05-27T14:17:15Z</time>
      </trkpt>
      <trkpt lat="43.50539" lon="2.08977">
        <ele>227.4</ele>
        <time>2023-05-27T14:17:16Z</time>
      </trkpt>
      <trkpt lat="43.50539" lon="2.08978">
        <ele>227.6</ele>
        <time>2023-05-27T14:17:17Z</time>
      </trkpt>
      <trkpt lat="43.50538" lon="2.0898">
        <ele>227.6</ele>
        <time>2023-05-27T14:17:18Z</time>
      </trkpt>
      <trkpt lat="43.50538" lon="2.08981">
        <ele>227.8</ele>
        <time>2023-05-27T14:17:19Z</time>
      </trkpt>
      <trkpt lat="43.50538" lon="2.08983">
        <ele>227.8</ele>
        <time>2023-05-27T14:17:20Z</time>
      </trkpt>
      <trkpt lat="43.50538" lon="2.08985">
        <ele>228</ele>
        <time>2023-05-27T14:17:21Z</time>
      </trkpt>
      <trkpt lat="43.50538" lon="2.08986">
        <ele>228.2</ele>
        <time>2023-05-27T14:17:22Z</time>
      </trkpt>
      <trkpt lat="43.50538" lon="2.08988">
        <ele>228.2</ele>
        <time>2023-05-27T14:17:23Z</time>
      </trkpt>
      <trkpt lat="43.50538" lon="2.08989">
        <ele>228.4</ele>
        <time>2023-05-27T14:17:24Z</time>
      </trkpt>
      <trkpt lat="43.50538" lon="2.08991">
        <ele>228.4</ele>
        <time>2023-05-27T14:17:25Z</time>
      </trkpt>
      <trkpt lat="43.50538" lon="2.08993">
        <ele>228.6</ele>
        <time>2023-05-27T14:17:26Z</time>
      </trkpt>
      <trkpt lat="43.50538" lon="2.08994">
        <ele>228.6</ele>
        <time>2023-05-27T14:17:27Z</time>
      </trkpt>
      <trkpt lat="43.50537" lon="2.08996">
        <ele>228.8</ele>
        <time>2023-05-27T14:17:28Z</time>
      </trkpt>
      <trkpt lat="43.50537" lon="2.08997">
        <ele>228.8</ele>
        <time>2023-05-27T14:17:29Z</time>
      </trkpt>
      <trkpt lat="43.50537" lon="2.08999">
        <ele>228.8</ele>
        <time>2023-05-27T14:17:30Z</time>
      </trkpt>
      <trkpt lat="43.50538" lon="2.09001">
        <ele>229</ele>
        <time>2023-05-27T14:17:31Z</time>
      </trkpt>
      <trkpt lat="43.50538" lon="2.09002">
        <ele>229</ele>
        <time>2023-05-27T14:17:32Z</time>
      </trkpt>
      <trkpt lat="43.50538" lon="2.09003">
        <ele>229.2</ele>
        <time>2023-05-27T14:17:33Z</time>
      </trkpt>
      <trkpt lat="43.50538" lon="2.09005">
        <ele>229.2</ele>
        <time>2023-05-27T14:17:34Z</time>
      </trkpt>
      <trkpt lat="43.50539" lon="2.09006">
        <ele>229.4</ele>
        <time>2023-05-27T14:17:35Z</time>
      </trkpt>
      <trkpt lat="43.50539" lon="2.09008">
        <ele>229.4</ele>
        <time>2023-05-27T14:17:36Z</time>
      </trkpt>
      <trkpt lat="43.50539" lon="2.09009">
        <ele>229.6</ele>
        <time>2023-05-27T14:17:37Z</time>
      </trkpt>
      <trkpt lat="43.50539" lon="2.09011">
        <ele>229.6</ele>
        <time>2023-05-27T14:17:38Z</time>
      </trkpt>
      <trkpt lat="43.50539" lon="2.09012">
        <ele>229.8</ele>
        <time>2023-05-27T14:17:39Z</time>
      </trkpt>
      <trkpt lat="43.50539" lon="2.09014">
        <ele>229.8</ele>
        <time>2023-05-27T14:17:40Z</time>
      </trkpt>
      <trkpt lat="43.50539" lon="2.09016">
        <ele>230</ele>
        <time>2023-05-27T14:17:41Z</time>
      </trkpt>
      <trkpt lat="43.50539" lon="2.09017">
        <ele>230</ele>
        <time>2023-05-27T14:17:42Z</time>
      </trkpt>
      <trkpt lat="43.50539" lon="2.09019">
        <ele>230.2</ele>
        <time>2023-05-27T14:17:43Z</time>
      </trkpt>
      <trkpt lat="43.50539" lon="2.0902">
        <ele>230.2</ele>
        <time>2023-05-27T14:17:44Z</time>
      </trkpt>
      <trkpt lat="43.5054" lon="2.09022">
        <ele>230.4</ele>
        <time>2023-05-27T14:17:45Z</time>
      </trkpt>
      <trkpt lat="43.5054" lon="2.09023">
        <ele>230.4</ele>
        <time>2023-05-27T14:17:46Z</time>
      </trkpt>
      <trkpt lat="43.5054" lon="2.09025">
        <ele>230.6</ele>
        <time>2023-05-27T14:17:47Z</time>
      </trkpt>
      <trkpt lat="43.5054" lon="2.09026">
        <ele>230.6</ele>
        <time>2023-05-27T14:17:48Z</time>
      </trkpt>
      <trkpt lat="43.5054" lon="2.09027">
        <ele>230.8</ele>
        <time>2023-05-27T14:17:49Z</time>
      </trkpt>
      <trkpt lat="43.5054" lon="2.09029">
        <ele>230.8</ele>
        <time>2023-05-27T14:17:50Z</time>
      </trkpt>
      <trkpt lat="43.5054" lon="2.0903">
        <ele>231</ele>
        <time>2023-05-27T14:17:51Z</time>
      </trkpt>
      <trkpt lat="43.5054" lon="2.0904">
        <ele>231.4</ele>
        <time>2023-05-27T14:18:06Z</time>
      </trkpt>
      <trkpt lat="43.50541" lon="2.09041">
        <ele>231.4</ele>
        <time>2023-05-27T14:18:07Z</time>
      </trkpt>
      <trkpt lat="43.50541" lon="2.09042">
        <ele>231.4</ele>
        <time>2023-05-27T14:18:08Z</time>
      </trkpt>
      <trkpt lat="43.50541" lon="2.09044">
        <ele>231.4</ele>
        <time>2023-05-27T14:18:09Z</time>
      </trkpt>
      <trkpt lat="43.50541" lon="2.09045">
        <ele>231.6</ele>
        <time>2023-05-27T14:18:10Z</time>
      </trkpt>
      <trkpt lat="43.50541" lon="2.09046">
        <ele>231.6</ele>
        <time>2023-05-27T14:18:11Z</time>
      </trkpt>
      <trkpt lat="43.50541" lon="2.09048">
        <ele>231.8</ele>
        <time>2023-05-27T14:18:12Z</time>
      </trkpt>
      <trkpt lat="43.50541" lon="2.09049">
        <ele>231.8</ele>
        <time>2023-05-27T14:18:13Z</time>
      </trkpt>
      <trkpt lat="43.50541" lon="2.0905">
        <ele>232</ele>
        <time>2023-05-27T14:18:14Z</time>
      </trkpt>
      <trkpt lat="43.50541" lon="2.09051">
        <ele>232</ele>
        <time>2023-05-27T14:18:15Z</time>
      </trkpt>
      <trkpt lat="43.50541" lon="2.09052">
        <ele>232</ele>
        <time>2023-05-27T14:18:16Z</time>
      </trkpt>
      <trkpt lat="43.50542" lon="2.09054">
        <ele>232.2</ele>
        <time>2023-05-27T14:18:17Z</time>
      </trkpt>
      <trkpt lat="43.50542" lon="2.09055">
        <ele>232.2</ele>
        <time>2023-05-27T14:18:18Z</time>
      </trkpt>
      <trkpt lat="43.50542" lon="2.09057">
        <ele>232.2</ele>
        <time>2023-05-27T14:18:19Z</time>
      </trkpt>
      <trkpt lat="43.50543" lon="2.09058">
        <ele>232.2</ele>
        <time>2023-05-27T14:18:20Z</time>
      </trkpt>
      <trkpt lat="43.50544" lon="2.09059">
        <ele>232.4</ele>
        <time>2023-05-27T14:18:21Z</time>
      </trkpt>
      <trkpt lat="43.50545" lon="2.0906">
        <ele>232.4</ele>
        <time>2023-05-27T14:18:22Z</time>
      </trkpt>
      <trkpt lat="43.50546" lon="2.0906">
        <ele>232.4</ele>
        <time>2023-05-27T14:18:23Z</time>
      </trkpt>
      <trkpt lat="43.50546" lon="2.09061">
        <ele>232.6</ele>
        <time>2023-05-27T14:18:24Z</time>
      </trkpt>
      <trkpt lat="43.50547" lon="2.09062">
        <ele>232.6</ele>
        <time>2023-05-27T14:18:25Z</time>
      </trkpt>
      <trkpt lat="43.50548" lon="2.09062">
        <ele>232.8</ele>
        <time>2023-05-27T14:18:26Z</time>
      </trkpt>
      <trkpt lat="43.50549" lon="2.09063">
        <ele>232.8</ele>
        <time>2023-05-27T14:18:27Z</time>
      </trkpt>
      <trkpt lat="43.5055" lon="2.09064">
        <ele>233</ele>
        <time>2023-05-27T14:18:28Z</time>
      </trkpt>
      <trkpt lat="43.5055" lon="2.09065">
        <ele>233</ele>
        <time>2023-05-27T14:18:29Z</time>
      </trkpt>
      <trkpt lat="43.50551" lon="2.09066">
        <ele>233.2</ele>
        <time>2023-05-27T14:18:30Z</time>
      </trkpt>
      <trkpt lat="43.50552" lon="2.09067">
        <ele>233.2</ele>
        <time>2023-05-27T14:18:31Z</time>
      </trkpt>
      <trkpt lat="43.50553" lon="2.09068">
        <ele>233.4</ele>
        <time>2023-05-27T14:18:32Z</time>
      </trkpt>
      <trkpt lat="43.50554" lon="2.09069">
        <ele>233.4</ele>
        <time>2023-05-27T14:18:33Z</time>
      </trkpt>
      <trkpt lat="43.50554" lon="2.0907">
        <ele>233.6</ele>
        <time>2023-05-27T14:18:34Z</time>
      </trkpt>
      <trkpt lat="43.50555" lon="2.09071">
        <ele>233.6</ele>
        <time>2023-05-27T14:18:35Z</time>
      </trkpt>
      <trkpt lat="43.50556" lon="2.09072">
        <ele>233.8</ele>
        <time>2023-05-27T14:18:36Z</time>
      </trkpt>
      <trkpt lat="43.50556" lon="2.09073">
        <ele>233.8</ele>
        <time>2023-05-27T14:18:37Z</time>
      </trkpt>
      <trkpt lat="43.50557" lon="2.09075">
        <ele>234</ele>
        <time>2023-05-27T14:18:38Z</time>
      </trkpt>
      <trkpt lat="43.50558" lon="2.09076">
        <ele>234.2</ele>
        <time>2023-05-27T14:18:39Z</time>
      </trkpt>
      <trkpt lat="43.50559" lon="2.09077">
        <ele>234.2</ele>
        <time>2023-05-27T14:18:40Z</time>
      </trkpt>
      <trkpt lat="43.50561" lon="2.0908">
        <ele>234.6</ele>
        <time>2023-05-27T14:18:50Z</time>
      </trkpt>
      <trkpt lat="43.50562" lon="2.09081">
        <ele>234.6</ele>
        <time>2023-05-27T14:18:51Z</time>
      </trkpt>
      <trkpt lat="43.50562" lon="2.09082">
        <ele>234.6</ele>
        <time>2023-05-27T14:18:52Z</time>
      </trkpt>
      <trkpt lat="43.50563" lon="2.09083">
        <ele>234.6</ele>
        <time>2023-05-27T14:18:53Z</time>
      </trkpt>
      <trkpt lat="43.50563" lon="2.09084">
        <ele>234.6</ele>
        <time>2023-05-27T14:18:54Z</time>
      </trkpt>
      <trkpt lat="43.50564" lon="2.09085">
        <ele>234.8</ele>
        <time>2023-05-27T14:18:55Z</time>
      </trkpt>
      <trkpt lat="43.50564" lon="2.09086">
        <ele>234.8</ele>
        <time>2023-05-27T14:18:56Z</time>
      </trkpt>
      <trkpt lat="43.50565" lon="2.09087">
        <ele>234.8</ele>
        <time>2023-05-27T14:18:57Z</time>
      </trkpt>
      <trkpt lat="43.50566" lon="2.09088">
        <ele>235</ele>
        <time>2023-05-27T14:18:58Z</time>
      </trkpt>
      <trkpt lat="43.50566" lon="2.09089">
        <ele>235</ele>
        <time>2023-05-27T14:18:59Z</time>
      </trkpt>
      <trkpt lat="43.50567" lon="2.0909">
        <ele>235.2</ele>
        <time>2023-05-27T14:19:00Z</time>
      </trkpt>
      <trkpt lat="43.50568" lon="2.09091">
        <ele>235.2</ele>
        <time>2023-05-27T14:19:01Z</time>
      </trkpt>
      <trkpt lat="43.50568" lon="2.09092">
        <ele>235.4</ele>
        <time>2023-05-27T14:19:02Z</time>
      </trkpt>
      <trkpt lat="43.50569" lon="2.09093">
        <ele>235.4</ele>
        <time>2023-05-27T14:19:03Z</time>
      </trkpt>
      <trkpt lat="43.5057" lon="2.09094">
        <ele>235.4</ele>
        <time>2023-05-27T14:19:04Z</time>
      </trkpt>
      <trkpt lat="43.50571" lon="2.09095">
        <ele>235.6</ele>
        <time>2023-05-27T14:19:05Z</time>
      </trkpt>
      <trkpt lat="43.50572" lon="2.09096">
        <ele>235.6</ele>
        <time>2023-05-27T14:19:06Z</time>
      </trkpt>
      <trkpt lat="43.50573" lon="2.09097">
        <ele>235.8</ele>
        <time>2023-05-27T14:19:07Z</time>
      </trkpt>
      <trkpt lat="43.50573" lon="2.09099">
        <ele>235.8</ele>
        <time>2023-05-27T14:19:08Z</time>
      </trkpt>
      <trkpt lat="43.50574" lon="2.091">
        <ele>236</ele>
        <time>2023-05-27T14:19:09Z</time>
      </trkpt>
      <trkpt lat="43.50574" lon="2.09101">
        <ele>236</ele>
        <time>2023-05-27T14:19:10Z</time>
      </trkpt>
      <trkpt lat="43.50575" lon="2.09102">
        <ele>236</ele>
        <time>2023-05-27T14:19:11Z</time>
      </trkpt>
      <trkpt lat="43.50575" lon="2.09103">
        <ele>236.2</ele>
        <time>2023-05-27T14:19:12Z</time>
      </trkpt>
      <trkpt lat="43.50576" lon="2.09104">
        <ele>236.2</ele>
        <time>2023-05-27T14:19:13Z</time>
      </trkpt>
      <trkpt lat="43.50577" lon="2.09105">
        <ele>236.4</ele>
        <time>2023-05-27T14:19:14Z</time>
      </trkpt>
      <trkpt lat="43.50578" lon="2.09106">
        <ele>236.4</ele>
        <time>2023-05-27T14:19:15Z</time>
      </trkpt>
      <trkpt lat="43.50578" lon="2.09107">
        <ele>236.4</ele>
        <time>2023-05-27T14:19:16Z</time>
      </trkpt>
      <trkpt lat="43.50579" lon="2.09108">
        <ele>236.6</ele>
        <time>2023-05-27T14:19:17Z</time>
      </trkpt>
      <trkpt lat="43.5058" lon="2.09109">
        <ele>236.6</ele>
        <time>2023-05-27T14:19:18Z</time>
      </trkpt>
      <trkpt lat="43.50581" lon="2.09111">
        <ele>236.6</ele>
        <time>2023-05-27T14:19:19Z</time>
      </trkpt>
      <trkpt lat="43.50581" lon="2.09112">
        <ele>236.8</ele>
        <time>2023-05-27T14:19:20Z</time>
      </trkpt>
      <trkpt lat="43.50582" lon="2.09113">
        <ele>236.8</ele>
        <time>2023-05-27T14:19:21Z</time>
      </trkpt>
      <trkpt lat="43.50583" lon="2.09114">
        <ele>236.8</ele>
        <time>2023-05-27T14:19:22Z</time>
      </trkpt>
      <trkpt lat="43.50583" lon="2.09115">
        <ele>237</ele>
        <time>2023-05-27T14:19:23Z</time>
      </trkpt>
      <trkpt lat="43.50584" lon="2.09116">
        <ele>237</ele>
        <time>2023-05-27T14:19:24Z</time>
      </trkpt>
      <trkpt lat="43.50585" lon="2.09117">
        <ele>237</ele>
        <time>2023-05-27T14:19:25Z</time>
      </trkpt>
      <trkpt lat="43.50586" lon="2.09118">
        <ele>237.2</ele>
        <time>2023-05-27T14:19:26Z</time>
      </trkpt>
      <trkpt lat="43.50587" lon="2.0912">
        <ele>237.2</ele>
        <time>2023-05-27T14:19:27Z</time>
      </trkpt>
      <trkpt lat="43.50587" lon="2.09121">
        <ele>237.2</ele>
        <time>2023-05-27T14:19:28Z</time>
      </trkpt>
      <trkpt lat="43.50587" lon="2.09122">
        <ele>237.2</ele>
        <time>2023-05-27T14:19:29Z</time>
      </trkpt>
      <trkpt lat="43.50588" lon="2.09123">
        <ele>237.4</ele>
        <time>2023-05-27T14:19:30Z</time>
      </trkpt>
      <trkpt lat="43.50589" lon="2.09125">
        <ele>237.4</ele>
        <time>2023-05-27T14:19:31Z</time>
      </trkpt>
      <trkpt lat="43.5059" lon="2.09126">
        <ele>237.4</ele>
        <time>2023-05-27T14:19:32Z</time>
      </trkpt>
      <trkpt lat="43.50591" lon="2.09127">
        <ele>237.4</ele>
        <time>2023-05-27T14:19:33Z</time>
      </trkpt>
      <trkpt lat="43.50591" lon="2.09129">
        <ele>237.4</ele>
        <time>2023-05-27T14:19:34Z</time>
      </trkpt>
      <trkpt lat="43.50591" lon="2.0913">
        <ele>237.6</ele>
        <time>2023-05-27T14:19:35Z</time>
      </trkpt>
      <trkpt lat="43.50592" lon="2.09131">
        <ele>237.6</ele>
        <time>2023-05-27T14:19:36Z</time>
      </trkpt>
      <trkpt lat="43.50593" lon="2.09132">
        <ele>237.6</ele>
        <time>2023-05-27T14:19:37Z</time>
      </trkpt>
      <trkpt lat="43.50594" lon="2.09134">
        <ele>237.8</ele>
        <time>2023-05-27T14:19:38Z</time>
      </trkpt>
      <trkpt lat="43.50594" lon="2.09135">
        <ele>237.8</ele>
        <time>2023-05-27T14:19:39Z</time>
      </trkpt>
      <trkpt lat="43.50595" lon="2.09136">
        <ele>237.8</ele>
        <time>2023-05-27T14:19:40Z</time>
      </trkpt>
      <trkpt lat="43.50595" lon="2.09138">
        <ele>237.8</ele>
        <time>2023-05-27T14:19:41Z</time>
      </trkpt>
      <trkpt lat="43.50595" lon="2.09139">
        <ele>238</ele>
        <time>2023-05-27T14:19:42Z</time>
      </trkpt>
      <trkpt lat="43.50596" lon="2.09141">
        <ele>238</ele>
        <time>2023-05-27T14:19:43Z</time>
      </trkpt>
      <trkpt lat="43.50596" lon="2.09143">
        <ele>238</ele>
        <time>2023-05-27T14:19:44Z</time>
      </trkpt>
      <trkpt lat="43.50596" lon="2.09144">
        <ele>238</ele>
        <time>2023-05-27T14:19:45Z</time>
      </trkpt>
      <trkpt lat="43.50597" lon="2.09146">
        <ele>238.2</ele>
        <time>2023-05-27T14:19:46Z</time>
      </trkpt>
      <trkpt lat="43.50597" lon="2.09148">
        <ele>238.2</ele>
        <time>2023-05-27T14:19:47Z</time>
      </trkpt>
      <trkpt lat="43.50597" lon="2.0915">
        <ele>238.2</ele>
        <time>2023-05-27T14:19:48Z</time>
      </trkpt>
      <trkpt lat="43.50598" lon="2.09151">
        <ele>238.2</ele>
        <time>2023-05-27T14:19:49Z</time>
      </trkpt>
      <trkpt lat="43.50598" lon="2.09153">
        <ele>238.2</ele>
        <time>2023-05-27T14:19:50Z</time>
      </trkpt>
      <trkpt lat="43.50598" lon="2.09155">
        <ele>238.2</ele>
        <time>2023-05-27T14:19:51Z</time>
      </trkpt>
      <trkpt lat="43.50598" lon="2.09157">
        <ele>238.2</ele>
        <time>2023-05-27T14:19:52Z</time>
      </trkpt>
      <trkpt lat="43.50598" lon="2.09158">
        <ele>238.2</ele>
        <time>2023-05-27T14:19:53Z</time>
      </trkpt>
      <trkpt lat="43.50598" lon="2.0916">
        <ele>238.2</ele>
        <time>2023-05-27T14:19:54Z</time>
      </trkpt>
      <trkpt lat="43.50598" lon="2.09162">
        <ele>238.2</ele>
        <time>2023-05-27T14:19:55Z</time>
      </trkpt>
      <trkpt lat="43.50598" lon="2.09163">
        <ele>238.2</ele>
        <time>2023-05-27T14:19:56Z</time>
      </trkpt>
      <trkpt lat="43.50598" lon="2.09165">
        <ele>238.2</ele>
        <time>2023-05-27T14:19:57Z</time>
      </trkpt>
      <trkpt lat="43.50598" lon="2.09166">
        <ele>238.2</ele>
        <time>2023-05-27T14:19:58Z</time>
      </trkpt>
      <trkpt lat="43.50599" lon="2.09168">
        <ele>238.4</ele>
        <time>2023-05-27T14:19:59Z</time>
      </trkpt>
      <trkpt lat="43.50599" lon="2.0917">
        <ele>238.4</ele>
        <time>2023-05-27T14:20:00Z</time>
      </trkpt>
      <trkpt lat="43.50599" lon="2.09172">
        <ele>238.4</ele>
        <time>2023-05-27T14:20:01Z</time>
      </trkpt>
      <trkpt lat="43.50599" lon="2.09174">
        <ele>238.4</ele>
        <time>2023-05-27T14:20:02Z</time>
      </trkpt>
      <trkpt lat="43.506" lon="2.09176">
        <ele>238.4</ele>
        <time>2023-05-27T14:20:03Z</time>
      </trkpt>
      <trkpt lat="43.506" lon="2.09178">
        <ele>238.4</ele>
        <time>2023-05-27T14:20:04Z</time>
      </trkpt>
      <trkpt lat="43.506" lon="2.0918">
        <ele>238.4</ele>
        <time>2023-05-27T14:20:05Z</time>
      </trkpt>
      <trkpt lat="43.50601" lon="2.09181">
        <ele>238.4</ele>
        <time>2023-05-27T14:20:06Z</time>
      </trkpt>
      <trkpt lat="43.50601" lon="2.09182">
        <ele>238.4</ele>
        <time>2023-05-27T14:20:07Z</time>
      </trkpt>
      <trkpt lat="43.50601" lon="2.09184">
        <ele>238.4</ele>
        <time>2023-05-27T14:20:08Z</time>
      </trkpt>
      <trkpt lat="43.506" lon="2.09186">
        <ele>238.4</ele>
        <time>2023-05-27T14:20:09Z</time>
      </trkpt>
      <trkpt lat="43.506" lon="2.09187">
        <ele>238.2</ele>
        <time>2023-05-27T14:20:10Z</time>
      </trkpt>
      <trkpt lat="43.506" lon="2.09189">
        <ele>238.2</ele>
        <time>2023-05-27T14:20:11Z</time>
      </trkpt>
      <trkpt lat="43.506" lon="2.09191">
        <ele>238.2</ele>
        <time>2023-05-27T14:20:12Z</time>
      </trkpt>
      <trkpt lat="43.506" lon="2.09192">
        <ele>238.2</ele>
        <time>2023-05-27T14:20:13Z</time>
      </trkpt>
      <trkpt lat="43.506" lon="2.09194">
        <ele>238.2</ele>
        <time>2023-05-27T14:20:14Z</time>
      </trkpt>
      <trkpt lat="43.50601" lon="2.09196">
        <ele>238.2</ele>
        <time>2023-05-27T14:20:15Z</time>
      </trkpt>
      <trkpt lat="43.50601" lon="2.09197">
        <ele>238.2</ele>
        <time>2023-05-27T14:20:16Z</time>
      </trkpt>
      <trkpt lat="43.50601" lon="2.09199">
        <ele>238.2</ele>
        <time>2023-05-27T14:20:17Z</time>
      </trkpt>
      <trkpt lat="43.50601" lon="2.09201">
        <ele>238.2</ele>
        <time>2023-05-27T14:20:18Z</time>
      </trkpt>
      <trkpt lat="43.50601" lon="2.09202">
        <ele>238.2</ele>
        <time>2023-05-27T14:20:19Z</time>
      </trkpt>
      <trkpt lat="43.50601" lon="2.09204">
        <ele>238.2</ele>
        <time>2023-05-27T14:20:20Z</time>
      </trkpt>
      <trkpt lat="43.50601" lon="2.09205">
        <ele>238.2</ele>
        <time>2023-05-27T14:20:21Z</time>
      </trkpt>
      <trkpt lat="43.50601" lon="2.09206">
        <ele>238.2</ele>
        <time>2023-05-27T14:20:22Z</time>
      </trkpt>
      <trkpt lat="43.506" lon="2.09207">
        <ele>238.2</ele>
        <time>2023-05-27T14:20:23Z</time>
      </trkpt>
      <trkpt lat="43.506" lon="2.09208">
        <ele>238.2</ele>
        <time>2023-05-27T14:20:24Z</time>
      </trkpt>
      <trkpt lat="43.506" lon="2.09209">
        <ele>238.2</ele>
        <time>2023-05-27T14:20:25Z</time>
      </trkpt>
      <trkpt lat="43.506" lon="2.09209">
        <ele>238.2</ele>
        <time>2023-05-27T14:20:26Z</time>
      </trkpt>
      <trkpt lat="43.50613" lon="2.09217">
        <ele>238</ele>
        <time>2023-05-27T14:30:12Z</time>
      </trkpt>
      <trkpt lat="43.50616" lon="2.09219">
        <ele>237.8</ele>
        <time>2023-05-27T14:30:13Z</time>
      </trkpt>
      <trkpt lat="43.50619" lon="2.09223">
        <ele>237.6</ele>
        <time>2023-05-27T14:30:14Z</time>
      </trkpt>
      <trkpt lat="43.50623" lon="2.09228">
        <ele>237.4</ele>
        <time>2023-05-27T14:30:15Z</time>
      </trkpt>
      <trkpt lat="43.50628" lon="2.09233">
        <ele>237.2</ele>
        <time>2023-05-27T14:30:16Z</time>
      </trkpt>
      <trkpt lat="43.50633" lon="2.0924">
        <ele>236.8</ele>
        <time>2023-05-27T14:30:17Z</time>
      </trkpt>
      <trkpt lat="43.50639" lon="2.09247">
        <ele>236.4</ele>
        <time>2023-05-27T14:30:18Z</time>
      </trkpt>
      <trkpt lat="43.50644" lon="2.09252">
        <ele>236</ele>
        <time>2023-05-27T14:30:19Z</time>
      </trkpt>
      <trkpt lat="43.50649" lon="2.09259">
        <ele>235.4</ele>
        <time>2023-05-27T14:30:20Z</time>
      </trkpt>
      <trkpt lat="43.50656" lon="2.09268">
        <ele>235</ele>
        <time>2023-05-27T14:30:21Z</time>
      </trkpt>
      <trkpt lat="43.50661" lon="2.09275">
        <ele>234.6</ele>
        <time>2023-05-27T14:30:22Z</time>
      </trkpt>
      <trkpt lat="43.50667" lon="2.09282">
        <ele>234</ele>
        <time>2023-05-27T14:30:23Z</time>
      </trkpt>
      <trkpt lat="43.50673" lon="2.0929">
        <ele>233.6</ele>
        <time>2023-05-27T14:30:24Z</time>
      </trkpt>
      <trkpt lat="43.5068" lon="2.09298">
        <ele>233</ele>
        <time>2023-05-27T14:30:25Z</time>
      </trkpt>
      <trkpt lat="43.50686" lon="2.09306">
        <ele>232.6</ele>
        <time>2023-05-27T14:30:26Z</time>
      </trkpt>
      <trkpt lat="43.50692" lon="2.09315">
        <ele>232.2</ele>
        <time>2023-05-27T14:30:27Z</time>
      </trkpt>
      <trkpt lat="43.50699" lon="2.09323">
        <ele>231.8</ele>
        <time>2023-05-27T14:30:28Z</time>
      </trkpt>
      <trkpt lat="43.50705" lon="2.09331">
        <ele>231.6</ele>
        <time>2023-05-27T14:30:29Z</time>
      </trkpt>
      <trkpt lat="43.50711" lon="2.09339">
        <ele>231.2</ele>
        <time>2023-05-27T14:30:30Z</time>
      </trkpt>
      <trkpt lat="43.50717" lon="2.09347">
        <ele>231</ele>
        <time>2023-05-27T14:30:31Z</time>
      </trkpt>
      <trkpt lat="43.50724" lon="2.09356">
        <ele>230.8</ele>
        <time>2023-05-27T14:30:32Z</time>
      </trkpt>
      <trkpt lat="43.50728" lon="2.09363">
        <ele>230.4</ele>
        <time>2023-05-27T14:30:33Z</time>
      </trkpt>
      <trkpt lat="43.50734" lon="2.0937">
        <ele>230.2</ele>
        <time>2023-05-27T14:30:34Z</time>
      </trkpt>
      <trkpt lat="43.50739" lon="2.09378">
        <ele>230</ele>
        <time>2023-05-27T14:30:35Z</time>
      </trkpt>
      <trkpt lat="43.50744" lon="2.09386">
        <ele>229.8</ele>
        <time>2023-05-27T14:30:36Z</time>
      </trkpt>
      <trkpt lat="43.50749" lon="2.09393">
        <ele>229.6</ele>
        <time>2023-05-27T14:30:37Z</time>
      </trkpt>
      <trkpt lat="43.50753" lon="2.094">
        <ele>229.4</ele>
        <time>2023-05-27T14:30:38Z</time>
      </trkpt>
      <trkpt lat="43.50758" lon="2.09409">
        <ele>229.2</ele>
        <time>2023-05-27T14:30:39Z</time>
      </trkpt>
      <trkpt lat="43.50763" lon="2.09417">
        <ele>229</ele>
        <time>2023-05-27T14:30:40Z</time>
      </trkpt>
      <trkpt lat="43.50767" lon="2.09424">
        <ele>228.8</ele>
        <time>2023-05-27T14:30:41Z</time>
      </trkpt>
      <trkpt lat="43.5077" lon="2.09431">
        <ele>228.6</ele>
        <time>2023-05-27T14:30:42Z</time>
      </trkpt>
      <trkpt lat="43.50774" lon="2.0944">
        <ele>228.4</ele>
        <time>2023-05-27T14:30:43Z</time>
      </trkpt>
      <trkpt lat="43.50777" lon="2.09448">
        <ele>228.2</ele>
        <time>2023-05-27T14:30:44Z</time>
      </trkpt>
      <trkpt lat="43.5078" lon="2.09457">
        <ele>228</ele>
        <time>2023-05-27T14:30:45Z</time>
      </trkpt>
      <trkpt lat="43.50782" lon="2.09466">
        <ele>227.8</ele>
        <time>2023-05-27T14:30:46Z</time>
      </trkpt>
      <trkpt lat="43.50785" lon="2.09474">
        <ele>227.6</ele>
        <time>2023-05-27T14:30:47Z</time>
      </trkpt>
      <trkpt lat="43.50787" lon="2.09484">
        <ele>227.6</ele>
        <time>2023-05-27T14:30:48Z</time>
      </trkpt>
      <trkpt lat="43.50789" lon="2.09493">
        <ele>227.4</ele>
        <time>2023-05-27T14:30:49Z</time>
      </trkpt>
      <trkpt lat="43.50791" lon="2.09503">
        <ele>227</ele>
        <time>2023-05-27T14:30:50Z</time>
      </trkpt>
      <trkpt lat="43.50794" lon="2.09512">
        <ele>226.8</ele>
        <time>2023-05-27T14:30:51Z</time>
      </trkpt>
      <trkpt lat="43.50796" lon="2.09521">
        <ele>226.6</ele>
        <time>2023-05-27T14:30:52Z</time>
      </trkpt>
      <trkpt lat="43.50798" lon="2.09531">
        <ele>226.4</ele>
        <time>2023-05-27T14:30:53Z</time>
      </trkpt>
      <trkpt lat="43.50801" lon="2.0954">
        <ele>226.2</ele>
        <time>2023-05-27T14:30:54Z</time>
      </trkpt>
      <trkpt lat="43.50803" lon="2.09549">
        <ele>225.8</ele>
        <time>2023-05-27T14:30:55Z</time>
      </trkpt>
      <trkpt lat="43.50806" lon="2.09558">
        <ele>225.6</ele>
        <time>2023-05-27T14:30:56Z</time>
      </trkpt>
      <trkpt lat="43.50809" lon="2.09569">
        <ele>225.2</ele>
        <time>2023-05-27T14:30:57Z</time>
      </trkpt>
      <trkpt lat="43.50811" lon="2.09578">
        <ele>224.8</ele>
        <time>2023-05-27T14:30:58Z</time>
      </trkpt>
      <trkpt lat="43.50814" lon="2.09587">
        <ele>224.4</ele>
        <time>2023-05-27T14:30:59Z</time>
      </trkpt>
      <trkpt lat="43.50817" lon="2.09597">
        <ele>224</ele>
        <time>2023-05-27T14:31:00Z</time>
      </trkpt>
      <trkpt lat="43.5082" lon="2.09608">
        <ele>223.6</ele>
        <time>2023-05-27T14:31:01Z</time>
      </trkpt>
      <trkpt lat="43.50824" lon="2.09619">
        <ele>223.2</ele>
        <time>2023-05-27T14:31:02Z</time>
      </trkpt>
      <trkpt lat="43.50827" lon="2.09631">
        <ele>223</ele>
        <time>2023-05-27T14:31:03Z</time>
      </trkpt>
      <trkpt lat="43.5083" lon="2.09641">
        <ele>222.6</ele>
        <time>2023-05-27T14:31:04Z</time>
      </trkpt>
      <trkpt lat="43.50833" lon="2.09651">
        <ele>222.4</ele>
        <time>2023-05-27T14:31:05Z</time>
      </trkpt>
      <trkpt lat="43.50836" lon="2.09662">
        <ele>222</ele>
        <time>2023-05-27T14:31:06Z</time>
      </trkpt>
      <trkpt lat="43.50839" lon="2.09671">
        <ele>221.8</ele>
        <time>2023-05-27T14:31:07Z</time>
      </trkpt>
      <trkpt lat="43.50842" lon="2.0968">
        <ele>221.6</ele>
        <time>2023-05-27T14:31:08Z</time>
      </trkpt>
      <trkpt lat="43.50844" lon="2.0969">
        <ele>221.4</ele>
        <time>2023-05-27T14:31:09Z</time>
      </trkpt>
      <trkpt lat="43.50847" lon="2.09699">
        <ele>221.2</ele>
        <time>2023-05-27T14:31:10Z</time>
      </trkpt>
      <trkpt lat="43.5085" lon="2.09708">
        <ele>221</ele>
        <time>2023-05-27T14:31:11Z</time>
      </trkpt>
      <trkpt lat="43.50853" lon="2.09719">
        <ele>220.8</ele>
        <time>2023-05-27T14:31:12Z</time>
      </trkpt>
      <trkpt lat="43.50856" lon="2.09728">
        <ele>220.8</ele>
        <time>2023-05-27T14:31:13Z</time>
      </trkpt>
      <trkpt lat="43.50858" lon="2.09736">
        <ele>220.6</ele>
        <time>2023-05-27T14:31:14Z</time>
      </trkpt>
      <trkpt lat="43.50861" lon="2.09746">
        <ele>220.4</ele>
        <time>2023-05-27T14:31:15Z</time>
      </trkpt>
      <trkpt lat="43.50863" lon="2.09755">
        <ele>220.4</ele>
        <time>2023-05-27T14:31:16Z</time>
      </trkpt>
      <trkpt lat="43.50865" lon="2.09763">
        <ele>220.2</ele>
        <time>2023-05-27T14:31:17Z</time>
      </trkpt>
      <trkpt lat="43.50868" lon="2.09771">
        <ele>220.2</ele>
        <time>2023-05-27T14:31:18Z</time>
      </trkpt>
      <trkpt lat="43.5087" lon="2.0978">
        <ele>220</ele>
        <time>2023-05-27T14:31:19Z</time>
      </trkpt>
      <trkpt lat="43.50873" lon="2.09789">
        <ele>220</ele>
        <time>2023-05-27T14:31:20Z</time>
      </trkpt>
      <trkpt lat="43.50876" lon="2.09798">
        <ele>220</ele>
        <time>2023-05-27T14:31:21Z</time>
      </trkpt>
      <trkpt lat="43.50878" lon="2.09805">
        <ele>219.8</ele>
        <time>2023-05-27T14:31:22Z</time>
      </trkpt>
      <trkpt lat="43.50881" lon="2.09813">
        <ele>219.8</ele>
        <time>2023-05-27T14:31:23Z</time>
      </trkpt>
      <trkpt lat="43.50884" lon="2.09822">
        <ele>219.8</ele>
        <time>2023-05-27T14:31:24Z</time>
      </trkpt>
      <trkpt lat="43.50886" lon="2.0983">
        <ele>219.6</ele>
        <time>2023-05-27T14:31:25Z</time>
      </trkpt>
      <trkpt lat="43.50888" lon="2.09837">
        <ele>219.4</ele>
        <time>2023-05-27T14:31:26Z</time>
      </trkpt>
      <trkpt lat="43.50891" lon="2.09846">
        <ele>219.2</ele>
        <time>2023-05-27T14:31:27Z</time>
      </trkpt>
      <trkpt lat="43.50893" lon="2.09854">
        <ele>219</ele>
        <time>2023-05-27T14:31:28Z</time>
      </trkpt>
      <trkpt lat="43.50896" lon="2.09862">
        <ele>218.8</ele>
        <time>2023-05-27T14:31:29Z</time>
      </trkpt>
      <trkpt lat="43.50898" lon="2.09871">
        <ele>218.6</ele>
        <time>2023-05-27T14:31:30Z</time>
      </trkpt>
      <trkpt lat="43.50901" lon="2.0988">
        <ele>218.4</ele>
        <time>2023-05-27T14:31:31Z</time>
      </trkpt>
      <trkpt lat="43.50904" lon="2.09889">
        <ele>218.2</ele>
        <time>2023-05-27T14:31:32Z</time>
      </trkpt>
      <trkpt lat="43.50907" lon="2.09899">
        <ele>218</ele>
        <time>2023-05-27T14:31:33Z</time>
      </trkpt>
      <trkpt lat="43.50909" lon="2.09908">
        <ele>217.8</ele>
        <time>2023-05-27T14:31:34Z</time>
      </trkpt>
      <trkpt lat="43.50913" lon="2.09917">
        <ele>217.6</ele>
        <time>2023-05-27T14:31:35Z</time>
      </trkpt>
      <trkpt lat="43.50915" lon="2.09926">
        <ele>217.4</ele>
        <time>2023-05-27T14:31:36Z</time>
      </trkpt>
      <trkpt lat="43.50918" lon="2.09936">
        <ele>217</ele>
        <time>2023-05-27T14:31:37Z</time>
      </trkpt>
      <trkpt lat="43.50921" lon="2.09946">
        <ele>216.8</ele>
        <time>2023-05-27T14:31:38Z</time>
      </trkpt>
      <trkpt lat="43.50924" lon="2.09956">
        <ele>216.8</ele>
        <time>2023-05-27T14:31:39Z</time>
      </trkpt>
      <trkpt lat="43.50926" lon="2.09964">
        <ele>216.6</ele>
        <time>2023-05-27T14:31:40Z</time>
      </trkpt>
      <trkpt lat="43.50929" lon="2.09974">
        <ele>216.2</ele>
        <time>2023-05-27T14:31:41Z</time>
      </trkpt>
      <trkpt lat="43.50931" lon="2.09984">
        <ele>216.2</ele>
        <time>2023-05-27T14:31:42Z</time>
      </trkpt>
      <trkpt lat="43.50934" lon="2.09992">
        <ele>216</ele>
        <time>2023-05-27T14:31:43Z</time>
      </trkpt>
      <trkpt lat="43.50937" lon="2.10001">
        <ele>215.6</ele>
        <time>2023-05-27T14:31:44Z</time>
      </trkpt>
      <trkpt lat="43.5094" lon="2.10011">
        <ele>215.4</ele>
        <time>2023-05-27T14:31:45Z</time>
      </trkpt>
      <trkpt lat="43.50943" lon="2.10021">
        <ele>215.2</ele>
        <time>2023-05-27T14:31:46Z</time>
      </trkpt>
      <trkpt lat="43.50946" lon="2.10031">
        <ele>214.8</ele>
        <time>2023-05-27T14:31:47Z</time>
      </trkpt>
      <trkpt lat="43.50949" lon="2.10041">
        <ele>214.6</ele>
        <time>2023-05-27T14:31:48Z</time>
      </trkpt>
      <trkpt lat="43.50952" lon="2.10051">
        <ele>214.4</ele>
        <time>2023-05-27T14:31:49Z</time>
      </trkpt>
      <trkpt lat="43.50956" lon="2.1006">
        <ele>214.2</ele>
        <time>2023-05-27T14:31:50Z</time>
      </trkpt>
      <trkpt lat="43.5096" lon="2.10069">
        <ele>214</ele>
        <time>2023-05-27T14:31:51Z</time>
      </trkpt>
      <trkpt lat="43.50965" lon="2.10078">
        <ele>214</ele>
        <time>2023-05-27T14:31:52Z</time>
      </trkpt>
      <trkpt lat="43.50969" lon="2.10086">
        <ele>213.8</ele>
        <time>2023-05-27T14:31:53Z</time>
      </trkpt>
      <trkpt lat="43.50974" lon="2.10094">
        <ele>213.6</ele>
        <time>2023-05-27T14:31:54Z</time>
      </trkpt>
      <trkpt lat="43.50978" lon="2.10102">
        <ele>213.6</ele>
        <time>2023-05-27T14:31:55Z</time>
      </trkpt>
      <trkpt lat="43.50983" lon="2.10109">
        <ele>213.4</ele>
        <time>2023-05-27T14:31:56Z</time>
      </trkpt>
      <trkpt lat="43.50987" lon="2.10117">
        <ele>213.4</ele>
        <time>2023-05-27T14:31:57Z</time>
      </trkpt>
      <trkpt lat="43.50991" lon="2.10124">
        <ele>213.4</ele>
        <time>2023-05-27T14:31:58Z</time>
      </trkpt>
      <trkpt lat="43.50995" lon="2.10132">
        <ele>213.2</ele>
        <time>2023-05-27T14:31:59Z</time>
      </trkpt>
      <trkpt lat="43.51" lon="2.10139">
        <ele>213.2</ele>
        <time>2023-05-27T14:32:00Z</time>
      </trkpt>
      <trkpt lat="43.51004" lon="2.10146">
        <ele>213.2</ele>
        <time>2023-05-27T14:32:01Z</time>
      </trkpt>
      <trkpt lat="43.51008" lon="2.10152">
        <ele>213.2</ele>
        <time>2023-05-27T14:32:02Z</time>
      </trkpt>
      <trkpt lat="43.51012" lon="2.10159">
        <ele>213.2</ele>
        <time>2023-05-27T14:32:03Z</time>
      </trkpt>
      <trkpt lat="43.51016" lon="2.10166">
        <ele>213.2</ele>
        <time>2023-05-27T14:32:04Z</time>
      </trkpt>
      <trkpt lat="43.5102" lon="2.10173">
        <ele>213.2</ele>
        <time>2023-05-27T14:32:05Z</time>
      </trkpt>
      <trkpt lat="43.51023" lon="2.10179">
        <ele>213</ele>
        <time>2023-05-27T14:32:06Z</time>
      </trkpt>
      <trkpt lat="43.51027" lon="2.10185">
        <ele>213</ele>
        <time>2023-05-27T14:32:07Z</time>
      </trkpt>
      <trkpt lat="43.51031" lon="2.10192">
        <ele>213</ele>
        <time>2023-05-27T14:32:08Z</time>
      </trkpt>
      <trkpt lat="43.51035" lon="2.10198">
        <ele>213</ele>
        <time>2023-05-27T14:32:09Z</time>
      </trkpt>
      <trkpt lat="43.51038" lon="2.10203">
        <ele>212.8</ele>
        <time>2023-05-27T14:32:10Z</time>
      </trkpt>
      <trkpt lat="43.51042" lon="2.1021">
        <ele>212.8</ele>
        <time>2023-05-27T14:32:11Z</time>
      </trkpt>
      <trkpt lat="43.51046" lon="2.10215">
        <ele>212.8</ele>
        <time>2023-05-27T14:32:12Z</time>
      </trkpt>
      <trkpt lat="43.5105" lon="2.10221">
        <ele>212.8</ele>
        <time>2023-05-27T14:32:13Z</time>
      </trkpt>
      <trkpt lat="43.51054" lon="2.10226">
        <ele>212.8</ele>
        <time>2023-05-27T14:32:14Z</time>
      </trkpt>
      <trkpt lat="43.51059" lon="2.10231">
        <ele>212.8</ele>
        <time>2023-05-27T14:32:15Z</time>
      </trkpt>
      <trkpt lat="43.51063" lon="2.10235">
        <ele>212.8</ele>
        <time>2023-05-27T14:32:16Z</time>
      </trkpt>
      <trkpt lat="43.51068" lon="2.1024">
        <ele>212.6</ele>
        <time>2023-05-27T14:32:17Z</time>
      </trkpt>
      <trkpt lat="43.51073" lon="2.10245">
        <ele>212.6</ele>
        <time>2023-05-27T14:32:18Z</time>
      </trkpt>
      <trkpt lat="43.51077" lon="2.1025">
        <ele>212.6</ele>
        <time>2023-05-27T14:32:19Z</time>
      </trkpt>
      <trkpt lat="43.51082" lon="2.10255">
        <ele>212.4</ele>
        <time>2023-05-27T14:32:20Z</time>
      </trkpt>
      <trkpt lat="43.51086" lon="2.1026">
        <ele>212.4</ele>
        <time>2023-05-27T14:32:21Z</time>
      </trkpt>
      <trkpt lat="43.51091" lon="2.10266">
        <ele>212.2</ele>
        <time>2023-05-27T14:32:22Z</time>
      </trkpt>
      <trkpt lat="43.51095" lon="2.10271">
        <ele>212.2</ele>
        <time>2023-05-27T14:32:23Z</time>
      </trkpt>
      <trkpt lat="43.511" lon="2.10277">
        <ele>212</ele>
        <time>2023-05-27T14:32:24Z</time>
      </trkpt>
      <trkpt lat="43.51104" lon="2.10283">
        <ele>211.8</ele>
        <time>2023-05-27T14:32:25Z</time>
      </trkpt>
      <trkpt lat="43.51108" lon="2.1029">
        <ele>211.6</ele>
        <time>2023-05-27T14:32:26Z</time>
      </trkpt>
      <trkpt lat="43.51112" lon="2.10296">
        <ele>211.4</ele>
        <time>2023-05-27T14:32:27Z</time>
      </trkpt>
      <trkpt lat="43.51116" lon="2.10302">
        <ele>211.4</ele>
        <time>2023-05-27T14:32:28Z</time>
      </trkpt>
      <trkpt lat="43.5112" lon="2.10309">
        <ele>211.2</ele>
        <time>2023-05-27T14:32:29Z</time>
      </trkpt>
      <trkpt lat="43.51124" lon="2.10315">
        <ele>211.2</ele>
        <time>2023-05-27T14:32:30Z</time>
      </trkpt>
      <trkpt lat="43.51129" lon="2.10322">
        <ele>211</ele>
        <time>2023-05-27T14:32:31Z</time>
      </trkpt>
      <trkpt lat="43.51133" lon="2.10329">
        <ele>211</ele>
        <time>2023-05-27T14:32:32Z</time>
      </trkpt>
      <trkpt lat="43.51137" lon="2.10335">
        <ele>211</ele>
        <time>2023-05-27T14:32:33Z</time>
      </trkpt>
      <trkpt lat="43.51141" lon="2.1034">
        <ele>210.8</ele>
        <time>2023-05-27T14:32:34Z</time>
      </trkpt>
      <trkpt lat="43.51145" lon="2.10346">
        <ele>210.8</ele>
        <time>2023-05-27T14:32:35Z</time>
      </trkpt>
      <trkpt lat="43.5115" lon="2.10352">
        <ele>210.8</ele>
        <time>2023-05-27T14:32:36Z</time>
      </trkpt>
      <trkpt lat="43.51154" lon="2.10358">
        <ele>210.6</ele>
        <time>2023-05-27T14:32:37Z</time>
      </trkpt>
      <trkpt lat="43.51158" lon="2.10363">
        <ele>210.6</ele>
        <time>2023-05-27T14:32:38Z</time>
      </trkpt>
      <trkpt lat="43.51162" lon="2.10367">
        <ele>210.6</ele>
        <time>2023-05-27T14:32:39Z</time>
      </trkpt>
      <trkpt lat="43.51166" lon="2.10374">
        <ele>210.6</ele>
        <time>2023-05-27T14:32:40Z</time>
      </trkpt>
      <trkpt lat="43.5117" lon="2.10379">
        <ele>210.4</ele>
        <time>2023-05-27T14:32:41Z</time>
      </trkpt>
      <trkpt lat="43.51173" lon="2.10384">
        <ele>210.4</ele>
        <time>2023-05-27T14:32:42Z</time>
      </trkpt>
      <trkpt lat="43.51177" lon="2.10389">
        <ele>210.4</ele>
        <time>2023-05-27T14:32:43Z</time>
      </trkpt>
      <trkpt lat="43.5118" lon="2.10393">
        <ele>210.4</ele>
        <time>2023-05-27T14:32:44Z</time>
      </trkpt>
      <trkpt lat="43.51184" lon="2.10398">
        <ele>210.2</ele>
        <time>2023-05-27T14:32:45Z</time>
      </trkpt>
      <trkpt lat="43.51188" lon="2.10403">
        <ele>210.2</ele>
        <time>2023-05-27T14:32:46Z</time>
      </trkpt>
      <trkpt lat="43.51191" lon="2.10408">
        <ele>210.2</ele>
        <time>2023-05-27T14:32:47Z</time>
      </trkpt>
      <trkpt lat="43.51195" lon="2.10413">
        <ele>210.2</ele>
        <time>2023-05-27T14:32:48Z</time>
      </trkpt>
      <trkpt lat="43.51198" lon="2.10418">
        <ele>210.2</ele>
        <time>2023-05-27T14:32:49Z</time>
      </trkpt>
      <trkpt lat="43.51201" lon="2.10422">
        <ele>210.2</ele>
        <time>2023-05-27T14:32:50Z</time>
      </trkpt>
      <trkpt lat="43.51205" lon="2.10426">
        <ele>210.2</ele>
        <time>2023-05-27T14:32:51Z</time>
      </trkpt>
      <trkpt lat="43.51208" lon="2.10431">
        <ele>210.2</ele>
        <time>2023-05-27T14:32:52Z</time>
      </trkpt>
      <trkpt lat="43.51212" lon="2.10435">
        <ele>210.2</ele>
        <time>2023-05-27T14:32:53Z</time>
      </trkpt>
      <trkpt lat="43.51215" lon="2.1044">
        <ele>210</ele>
        <time>2023-05-27T14:32:54Z</time>
      </trkpt>
      <trkpt lat="43.51219" lon="2.10445">
        <ele>210</ele>
        <time>2023-05-27T14:32:55Z</time>
      </trkpt>
      <trkpt lat="43.51223" lon="2.10451">
        <ele>209.8</ele>
        <time>2023-05-27T14:32:56Z</time>
      </trkpt>
      <trkpt lat="43.51226" lon="2.10456">
        <ele>209.8</ele>
        <time>2023-05-27T14:32:57Z</time>
      </trkpt>
      <trkpt lat="43.5123" lon="2.10463">
        <ele>209.6</ele>
        <time>2023-05-27T14:32:58Z</time>
      </trkpt>
      <trkpt lat="43.51234" lon="2.10469">
        <ele>209.4</ele>
        <time>2023-05-27T14:32:59Z</time>
      </trkpt>
      <trkpt lat="43.51238" lon="2.10475">
        <ele>209.2</ele>
        <time>2023-05-27T14:33:00Z</time>
      </trkpt>
      <trkpt lat="43.51242" lon="2.10481">
        <ele>209</ele>
        <time>2023-05-27T14:33:01Z</time>
      </trkpt>
      <trkpt lat="43.51246" lon="2.10488">
        <ele>209</ele>
        <time>2023-05-27T14:33:02Z</time>
      </trkpt>
      <trkpt lat="43.51251" lon="2.10495">
        <ele>208.8</ele>
        <time>2023-05-27T14:33:03Z</time>
      </trkpt>
      <trkpt lat="43.51255" lon="2.10502">
        <ele>208.6</ele>
        <time>2023-05-27T14:33:04Z</time>
      </trkpt>
      <trkpt lat="43.51258" lon="2.10508">
        <ele>208.6</ele>
        <time>2023-05-27T14:33:05Z</time>
      </trkpt>
      <trkpt lat="43.51263" lon="2.10515">
        <ele>208.4</ele>
        <time>2023-05-27T14:33:06Z</time>
      </trkpt>
      <trkpt lat="43.51267" lon="2.10521">
        <ele>208.2</ele>
        <time>2023-05-27T14:33:07Z</time>
      </trkpt>
      <trkpt lat="43.51271" lon="2.10527">
        <ele>208</ele>
        <time>2023-05-27T14:33:08Z</time>
      </trkpt>
      <trkpt lat="43.51275" lon="2.10533">
        <ele>207.8</ele>
        <time>2023-05-27T14:33:09Z</time>
      </trkpt>
      <trkpt lat="43.51279" lon="2.10539">
        <ele>207.6</ele>
        <time>2023-05-27T14:33:10Z</time>
      </trkpt>
      <trkpt lat="43.51283" lon="2.10545">
        <ele>207.6</ele>
        <time>2023-05-27T14:33:11Z</time>
      </trkpt>
      <trkpt lat="43.51288" lon="2.10552">
        <ele>207.4</ele>
        <time>2023-05-27T14:33:12Z</time>
      </trkpt>
      <trkpt lat="43.51292" lon="2.10559">
        <ele>207.2</ele>
        <time>2023-05-27T14:33:13Z</time>
      </trkpt>
      <trkpt lat="43.51295" lon="2.10564">
        <ele>207</ele>
        <time>2023-05-27T14:33:14Z</time>
      </trkpt>
      <trkpt lat="43.513" lon="2.10571">
        <ele>207</ele>
        <time>2023-05-27T14:33:15Z</time>
      </trkpt>
      <trkpt lat="43.51304" lon="2.10578">
        <ele>206.8</ele>
        <time>2023-05-27T14:33:16Z</time>
      </trkpt>
      <trkpt lat="43.51308" lon="2.10584">
        <ele>206.6</ele>
        <time>2023-05-27T14:33:17Z</time>
      </trkpt>
      <trkpt lat="43.51313" lon="2.10591">
        <ele>206.4</ele>
        <time>2023-05-27T14:33:18Z</time>
      </trkpt>
      <trkpt lat="43.51318" lon="2.10599">
        <ele>206.2</ele>
        <time>2023-05-27T14:33:19Z</time>
      </trkpt>
      <trkpt lat="43.51322" lon="2.10606">
        <ele>206</ele>
        <time>2023-05-27T14:33:20Z</time>
      </trkpt>
      <trkpt lat="43.51327" lon="2.10614">
        <ele>205.6</ele>
        <time>2023-05-27T14:33:21Z</time>
      </trkpt>
      <trkpt lat="43.51332" lon="2.10621">
        <ele>205.2</ele>
        <time>2023-05-27T14:33:22Z</time>
      </trkpt>
      <trkpt lat="43.51337" lon="2.10628">
        <ele>205</ele>
        <time>2023-05-27T14:33:23Z</time>
      </trkpt>
      <trkpt lat="43.51342" lon="2.10637">
        <ele>204.8</ele>
        <time>2023-05-27T14:33:24Z</time>
      </trkpt>
      <trkpt lat="43.51346" lon="2.10645">
        <ele>204.6</ele>
        <time>2023-05-27T14:33:25Z</time>
      </trkpt>
      <trkpt lat="43.5135" lon="2.10653">
        <ele>204.4</ele>
        <time>2023-05-27T14:33:26Z</time>
      </trkpt>
      <trkpt lat="43.51355" lon="2.10661">
        <ele>204.2</ele>
        <time>2023-05-27T14:33:27Z</time>
      </trkpt>
      <trkpt lat="43.5136" lon="2.10669">
        <ele>204</ele>
        <time>2023-05-27T14:33:28Z</time>
      </trkpt>
      <trkpt lat="43.51364" lon="2.10677">
        <ele>204</ele>
        <time>2023-05-27T14:33:29Z</time>
      </trkpt>
      <trkpt lat="43.51368" lon="2.10685">
        <ele>203.8</ele>
        <time>2023-05-27T14:33:30Z</time>
      </trkpt>
      <trkpt lat="43.51372" lon="2.10692">
        <ele>203.6</ele>
        <time>2023-05-27T14:33:31Z</time>
      </trkpt>
      <trkpt lat="43.51375" lon="2.10698">
        <ele>203.6</ele>
        <time>2023-05-27T14:33:32Z</time>
      </trkpt>
      <trkpt lat="43.51379" lon="2.10705">
        <ele>203.4</ele>
        <time>2023-05-27T14:33:33Z</time>
      </trkpt>
      <trkpt lat="43.51382" lon="2.10712">
        <ele>203.2</ele>
        <time>2023-05-27T14:33:34Z</time>
      </trkpt>
      <trkpt lat="43.51385" lon="2.10718">
        <ele>203.2</ele>
        <time>2023-05-27T14:33:35Z</time>
      </trkpt>
      <trkpt lat="43.51388" lon="2.10725">
        <ele>203.2</ele>
        <time>2023-05-27T14:33:36Z</time>
      </trkpt>
      <trkpt lat="43.5139" lon="2.10731">
        <ele>203.2</ele>
        <time>2023-05-27T14:33:37Z</time>
      </trkpt>
      <trkpt lat="43.51393" lon="2.10737">
        <ele>203</ele>
        <time>2023-05-27T14:33:38Z</time>
      </trkpt>
      <trkpt lat="43.51396" lon="2.10744">
        <ele>203</ele>
        <time>2023-05-27T14:33:39Z</time>
      </trkpt>
      <trkpt lat="43.51399" lon="2.1075">
        <ele>203</ele>
        <time>2023-05-27T14:33:40Z</time>
      </trkpt>
      <trkpt lat="43.51402" lon="2.10756">
        <ele>203</ele>
        <time>2023-05-27T14:33:41Z</time>
      </trkpt>
      <trkpt lat="43.51405" lon="2.10762">
        <ele>203</ele>
        <time>2023-05-27T14:33:42Z</time>
      </trkpt>
      <trkpt lat="43.51408" lon="2.10768">
        <ele>203</ele>
        <time>2023-05-27T14:33:43Z</time>
      </trkpt>
      <trkpt lat="43.51411" lon="2.10774">
        <ele>203</ele>
        <time>2023-05-27T14:33:44Z</time>
      </trkpt>
      <trkpt lat="43.51413" lon="2.1078">
        <ele>203</ele>
        <time>2023-05-27T14:33:45Z</time>
      </trkpt>
      <trkpt lat="43.51415" lon="2.10786">
        <ele>203</ele>
        <time>2023-05-27T14:33:46Z</time>
      </trkpt>
      <trkpt lat="43.51418" lon="2.10792">
        <ele>203</ele>
        <time>2023-05-27T14:33:47Z</time>
      </trkpt>
      <trkpt lat="43.51421" lon="2.10799">
        <ele>202.8</ele>
        <time>2023-05-27T14:33:48Z</time>
      </trkpt>
      <trkpt lat="43.51423" lon="2.10805">
        <ele>202.8</ele>
        <time>2023-05-27T14:33:49Z</time>
      </trkpt>
      <trkpt lat="43.51426" lon="2.10811">
        <ele>202.8</ele>
        <time>2023-05-27T14:33:50Z</time>
      </trkpt>
      <trkpt lat="43.51429" lon="2.10818">
        <ele>202.8</ele>
        <time>2023-05-27T14:33:51Z</time>
      </trkpt>
      <trkpt lat="43.51432" lon="2.10823">
        <ele>202.8</ele>
        <time>2023-05-27T14:33:52Z</time>
      </trkpt>
      <trkpt lat="43.51434" lon="2.10829">
        <ele>202.8</ele>
        <time>2023-05-27T14:33:53Z</time>
      </trkpt>
      <trkpt lat="43.51438" lon="2.10835">
        <ele>202.8</ele>
        <time>2023-05-27T14:33:54Z</time>
      </trkpt>
      <trkpt lat="43.51441" lon="2.1084">
        <ele>202.8</ele>
        <time>2023-05-27T14:33:55Z</time>
      </trkpt>
      <trkpt lat="43.51444" lon="2.10845">
        <ele>202.8</ele>
        <time>2023-05-27T14:33:56Z</time>
      </trkpt>
      <trkpt lat="43.51447" lon="2.10851">
        <ele>202.8</ele>
        <time>2023-05-27T14:33:57Z</time>
      </trkpt>
      <trkpt lat="43.5145" lon="2.10855">
        <ele>202.8</ele>
        <time>2023-05-27T14:33:58Z</time>
      </trkpt>
      <trkpt lat="43.51453" lon="2.1086">
        <ele>202.8</ele>
        <time>2023-05-27T14:33:59Z</time>
      </trkpt>
      <trkpt lat="43.51455" lon="2.10865">
        <ele>202.8</ele>
        <time>2023-05-27T14:34:00Z</time>
      </trkpt>
      <trkpt lat="43.51458" lon="2.10869">
        <ele>202.8</ele>
        <time>2023-05-27T14:34:01Z</time>
      </trkpt>
      <trkpt lat="43.5146" lon="2.10874">
        <ele>202.8</ele>
        <time>2023-05-27T14:34:02Z</time>
      </trkpt>
      <trkpt lat="43.51463" lon="2.10879">
        <ele>202.8</ele>
        <time>2023-05-27T14:34:03Z</time>
      </trkpt>
      <trkpt lat="43.51466" lon="2.10883">
        <ele>202.8</ele>
        <time>2023-05-27T14:34:04Z</time>
      </trkpt>
      <trkpt lat="43.51468" lon="2.10887">
        <ele>202.8</ele>
        <time>2023-05-27T14:34:05Z</time>
      </trkpt>
      <trkpt lat="43.51471" lon="2.10892">
        <ele>203</ele>
        <time>2023-05-27T14:34:06Z</time>
      </trkpt>
      <trkpt lat="43.51473" lon="2.10896">
        <ele>203</ele>
        <time>2023-05-27T14:34:07Z</time>
      </trkpt>
      <trkpt lat="43.51475" lon="2.10899">
        <ele>203</ele>
        <time>2023-05-27T14:34:08Z</time>
      </trkpt>
      <trkpt lat="43.51478" lon="2.10903">
        <ele>203.2</ele>
        <time>2023-05-27T14:34:09Z</time>
      </trkpt>
      <trkpt lat="43.5148" lon="2.10907">
        <ele>203.2</ele>
        <time>2023-05-27T14:34:10Z</time>
      </trkpt>
      <trkpt lat="43.51482" lon="2.1091">
        <ele>203.4</ele>
        <time>2023-05-27T14:34:11Z</time>
      </trkpt>
      <trkpt lat="43.51485" lon="2.10914">
        <ele>203.4</ele>
        <time>2023-05-27T14:34:12Z</time>
      </trkpt>
      <trkpt lat="43.51487" lon="2.10917">
        <ele>203.4</ele>
        <time>2023-05-27T14:34:13Z</time>
      </trkpt>
      <trkpt lat="43.51489" lon="2.1092">
        <ele>203.6</ele>
        <time>2023-05-27T14:34:14Z</time>
      </trkpt>
      <trkpt lat="43.51491" lon="2.10923">
        <ele>203.6</ele>
        <time>2023-05-27T14:34:15Z</time>
      </trkpt>
      <trkpt lat="43.51493" lon="2.10926">
        <ele>203.6</ele>
        <time>2023-05-27T14:34:16Z</time>
      </trkpt>
      <trkpt lat="43.51495" lon="2.10928">
        <ele>203.6</ele>
        <time>2023-05-27T14:34:17Z</time>
      </trkpt>
      <trkpt lat="43.51496" lon="2.10931">
        <ele>203.8</ele>
        <time>2023-05-27T14:34:18Z</time>
      </trkpt>
      <trkpt lat="43.51498" lon="2.10933">
        <ele>203.8</ele>
        <time>2023-05-27T14:34:19Z</time>
      </trkpt>
      <trkpt lat="43.515" lon="2.10936">
        <ele>203.8</ele>
        <time>2023-05-27T14:34:20Z</time>
      </trkpt>
      <trkpt lat="43.51501" lon="2.10938">
        <ele>203.8</ele>
        <time>2023-05-27T14:34:21Z</time>
      </trkpt>
      <trkpt lat="43.51502" lon="2.10941">
        <ele>204</ele>
        <time>2023-05-27T14:34:22Z</time>
      </trkpt>
      <trkpt lat="43.51504" lon="2.10943">
        <ele>204</ele>
        <time>2023-05-27T14:34:23Z</time>
      </trkpt>
      <trkpt lat="43.51505" lon="2.10945">
        <ele>204.2</ele>
        <time>2023-05-27T14:34:24Z</time>
      </trkpt>
      <trkpt lat="43.51507" lon="2.10948">
        <ele>204.2</ele>
        <time>2023-05-27T14:34:25Z</time>
      </trkpt>
      <trkpt lat="43.51508" lon="2.1095">
        <ele>204.2</ele>
        <time>2023-05-27T14:34:26Z</time>
      </trkpt>
      <trkpt lat="43.51509" lon="2.10953">
        <ele>204.2</ele>
        <time>2023-05-27T14:34:27Z</time>
      </trkpt>
      <trkpt lat="43.51511" lon="2.10955">
        <ele>204.4</ele>
        <time>2023-05-27T14:34:28Z</time>
      </trkpt>
      <trkpt lat="43.51512" lon="2.10957">
        <ele>204.4</ele>
        <time>2023-05-27T14:34:29Z</time>
      </trkpt>
      <trkpt lat="43.51513" lon="2.1096">
        <ele>204.4</ele>
        <time>2023-05-27T14:34:30Z</time>
      </trkpt>
      <trkpt lat="43.51514" lon="2.10962">
        <ele>204.6</ele>
        <time>2023-05-27T14:34:31Z</time>
      </trkpt>
      <trkpt lat="43.51516" lon="2.10965">
        <ele>204.6</ele>
        <time>2023-05-27T14:34:32Z</time>
      </trkpt>
      <trkpt lat="43.51517" lon="2.10967">
        <ele>204.6</ele>
        <time>2023-05-27T14:34:33Z</time>
      </trkpt>
      <trkpt lat="43.51518" lon="2.10969">
        <ele>204.6</ele>
        <time>2023-05-27T14:34:34Z</time>
      </trkpt>
      <trkpt lat="43.51519" lon="2.10972">
        <ele>204.8</ele>
        <time>2023-05-27T14:34:35Z</time>
      </trkpt>
      <trkpt lat="43.51521" lon="2.10974">
        <ele>204.8</ele>
        <time>2023-05-27T14:34:36Z</time>
      </trkpt>
      <trkpt lat="43.51522" lon="2.10975">
        <ele>204.8</ele>
        <time>2023-05-27T14:34:37Z</time>
      </trkpt>
      <trkpt lat="43.51523" lon="2.10977">
        <ele>205</ele>
        <time>2023-05-27T14:34:38Z</time>
      </trkpt>
      <trkpt lat="43.51524" lon="2.10979">
        <ele>205</ele>
        <time>2023-05-27T14:34:39Z</time>
      </trkpt>
      <trkpt lat="43.51525" lon="2.10981">
        <ele>205.2</ele>
        <time>2023-05-27T14:34:40Z</time>
      </trkpt>
      <trkpt lat="43.51525" lon="2.10983">
        <ele>205.2</ele>
        <time>2023-05-27T14:34:41Z</time>
      </trkpt>
      <trkpt lat="43.51526" lon="2.10985">
        <ele>205.4</ele>
        <time>2023-05-27T14:34:42Z</time>
      </trkpt>
      <trkpt lat="43.51527" lon="2.10987">
        <ele>205.6</ele>
        <time>2023-05-27T14:34:43Z</time>
      </trkpt>
      <trkpt lat="43.51528" lon="2.10989">
        <ele>205.6</ele>
        <time>2023-05-27T14:34:44Z</time>
      </trkpt>
      <trkpt lat="43.51529" lon="2.10991">
        <ele>205.8</ele>
        <time>2023-05-27T14:34:45Z</time>
      </trkpt>
      <trkpt lat="43.5153" lon="2.10993">
        <ele>206</ele>
        <time>2023-05-27T14:34:46Z</time>
      </trkpt>
      <trkpt lat="43.51531" lon="2.10994">
        <ele>206.2</ele>
        <time>2023-05-27T14:34:47Z</time>
      </trkpt>
      <trkpt lat="43.51532" lon="2.10996">
        <ele>206.2</ele>
        <time>2023-05-27T14:34:48Z</time>
      </trkpt>
      <trkpt lat="43.51533" lon="2.10998">
        <ele>206.4</ele>
        <time>2023-05-27T14:34:49Z</time>
      </trkpt>
      <trkpt lat="43.51534" lon="2.11">
        <ele>206.6</ele>
        <time>2023-05-27T14:34:50Z</time>
      </trkpt>
      <trkpt lat="43.51535" lon="2.11001">
        <ele>206.6</ele>
        <time>2023-05-27T14:34:51Z</time>
      </trkpt>
      <trkpt lat="43.51536" lon="2.11003">
        <ele>206.8</ele>
        <time>2023-05-27T14:34:52Z</time>
      </trkpt>
      <trkpt lat="43.51537" lon="2.11005">
        <ele>207</ele>
        <time>2023-05-27T14:34:53Z</time>
      </trkpt>
      <trkpt lat="43.51538" lon="2.11007">
        <ele>207</ele>
        <time>2023-05-27T14:34:54Z</time>
      </trkpt>
      <trkpt lat="43.51538" lon="2.11008">
        <ele>207.2</ele>
        <time>2023-05-27T14:34:55Z</time>
      </trkpt>
      <trkpt lat="43.51539" lon="2.1101">
        <ele>207.4</ele>
        <time>2023-05-27T14:34:56Z</time>
      </trkpt>
      <trkpt lat="43.5154" lon="2.11011">
        <ele>207.4</ele>
        <time>2023-05-27T14:34:57Z</time>
      </trkpt>
      <trkpt lat="43.51541" lon="2.11012">
        <ele>207.6</ele>
        <time>2023-05-27T14:34:58Z</time>
      </trkpt>
      <trkpt lat="43.51541" lon="2.11012">
        <ele>207.6</ele>
        <time>2023-05-27T14:34:59Z</time>
      </trkpt>
      <trkpt lat="43.51544" lon="2.11019">
        <ele>208</ele>
        <time>2023-05-27T14:35:11Z</time>
      </trkpt>
      <trkpt lat="43.51545" lon="2.11019">
        <ele>208</ele>
        <time>2023-05-27T14:35:12Z</time>
      </trkpt>
      <trkpt lat="43.51545" lon="2.11019">
        <ele>208</ele>
        <time>2023-05-27T14:35:13Z</time>
      </trkpt>
      <trkpt lat="43.51545" lon="2.11019">
        <ele>207.8</ele>
        <time>2023-05-27T14:35:14Z</time>
      </trkpt>
      <trkpt lat="43.51545" lon="2.11019">
        <ele>207.8</ele>
        <time>2023-05-27T14:35:15Z</time>
      </trkpt>
      <trkpt lat="43.51545" lon="2.11019">
        <ele>207.8</ele>
        <time>2023-05-27T14:35:16Z</time>
      </trkpt>
      <trkpt lat="43.51545" lon="2.11019">
        <ele>207.8</ele>
        <time>2023-05-27T14:35:17Z</time>
      </trkpt>
      <trkpt lat="43.51553" lon="2.11032">
        <ele>208</ele>
        <time>2023-05-27T14:35:36Z</time>
      </trkpt>
      <trkpt lat="43.51554" lon="2.11033">
        <ele>208</ele>
        <time>2023-05-27T14:35:37Z</time>
      </trkpt>
      <trkpt lat="43.51554" lon="2.11034">
        <ele>208</ele>
        <time>2023-05-27T14:35:38Z</time>
      </trkpt>
      <trkpt lat="43.51555" lon="2.11034">
        <ele>208</ele>
        <time>2023-05-27T14:35:39Z</time>
      </trkpt>
      <trkpt lat="43.51555" lon="2.11035">
        <ele>208.2</ele>
        <time>2023-05-27T14:35:40Z</time>
      </trkpt>
      <trkpt lat="43.51556" lon="2.11036">
        <ele>208.2</ele>
        <time>2023-05-27T14:35:41Z</time>
      </trkpt>
      <trkpt lat="43.51556" lon="2.11037">
        <ele>208.4</ele>
        <time>2023-05-27T14:35:42Z</time>
      </trkpt>
      <trkpt lat="43.51557" lon="2.11039">
        <ele>208.4</ele>
        <time>2023-05-27T14:35:43Z</time>
      </trkpt>
      <trkpt lat="43.51557" lon="2.1104">
        <ele>208.6</ele>
        <time>2023-05-27T14:35:44Z</time>
      </trkpt>
      <trkpt lat="43.51558" lon="2.1104">
        <ele>208.6</ele>
        <time>2023-05-27T14:35:45Z</time>
      </trkpt>
      <trkpt lat="43.51558" lon="2.11041">
        <ele>208.8</ele>
        <time>2023-05-27T14:35:46Z</time>
      </trkpt>
      <trkpt lat="43.51559" lon="2.11042">
        <ele>208.8</ele>
        <time>2023-05-27T14:35:47Z</time>
      </trkpt>
      <trkpt lat="43.51559" lon="2.11043">
        <ele>209</ele>
        <time>2023-05-27T14:35:48Z</time>
      </trkpt>
      <trkpt lat="43.5156" lon="2.11044">
        <ele>209</ele>
        <time>2023-05-27T14:35:49Z</time>
      </trkpt>
      <trkpt lat="43.5156" lon="2.11045">
        <ele>209.2</ele>
        <time>2023-05-27T14:35:50Z</time>
      </trkpt>
      <trkpt lat="43.51561" lon="2.11046">
        <ele>209.4</ele>
        <time>2023-05-27T14:35:51Z</time>
      </trkpt>
      <trkpt lat="43.51562" lon="2.11046">
        <ele>209.4</ele>
        <time>2023-05-27T14:35:52Z</time>
      </trkpt>
      <trkpt lat="43.51562" lon="2.11047">
        <ele>209.6</ele>
        <time>2023-05-27T14:35:53Z</time>
      </trkpt>
      <trkpt lat="43.51563" lon="2.11048">
        <ele>209.6</ele>
        <time>2023-05-27T14:35:54Z</time>
      </trkpt>
      <trkpt lat="43.51563" lon="2.11049">
        <ele>209.8</ele>
        <time>2023-05-27T14:35:55Z</time>
      </trkpt>
      <trkpt lat="43.51564" lon="2.1105">
        <ele>210</ele>
        <time>2023-05-27T14:35:56Z</time>
      </trkpt>
      <trkpt lat="43.51564" lon="2.1105">
        <ele>210</ele>
        <time>2023-05-27T14:35:57Z</time>
      </trkpt>
      <trkpt lat="43.51565" lon="2.11051">
        <ele>210.2</ele>
        <time>2023-05-27T14:35:58Z</time>
      </trkpt>
      <trkpt lat="43.51565" lon="2.11052">
        <ele>210.2</ele>
        <time>2023-05-27T14:35:59Z</time>
      </trkpt>
      <trkpt lat="43.51565" lon="2.11052">
        <ele>210.4</ele>
        <time>2023-05-27T14:36:00Z</time>
      </trkpt>
      <trkpt lat="43.51565" lon="2.11052">
        <ele>210.4</ele>
        <time>2023-05-27T14:36:01Z</time>
      </trkpt>
      <trkpt lat="43.51565" lon="2.11052">
        <ele>210.4</ele>
        <time>2023-05-27T14:36:02Z</time>
      </trkpt>
      <trkpt lat="43.51565" lon="2.11052">
        <ele>210.4</ele>
        <time>2023-05-27T14:36:03Z</time>
      </trkpt>
      <trkpt lat="43.51573" lon="2.11062">
        <ele>210.6</ele>
        <time>2023-05-27T14:36:44Z</time>
      </trkpt>
      <trkpt lat="43.51574" lon="2.11063">
        <ele>210.6</ele>
        <time>2023-05-27T14:36:45Z</time>
      </trkpt>
      <trkpt lat="43.51574" lon="2.11064">
        <ele>210.6</ele>
        <time>2023-05-27T14:36:46Z</time>
      </trkpt>
      <trkpt lat="43.51575" lon="2.11065">
        <ele>210.8</ele>
        <time>2023-05-27T14:36:47Z</time>
      </trkpt>
      <trkpt lat="43.51576" lon="2.11065">
        <ele>210.8</ele>
        <time>2023-05-27T14:36:48Z</time>
      </trkpt>
      <trkpt lat="43.51576" lon="2.11066">
        <ele>211</ele>
        <time>2023-05-27T14:36:49Z</time>
      </trkpt>
      <trkpt lat="43.51577" lon="2.11066">
        <ele>211</ele>
        <time>2023-05-27T14:36:50Z</time>
      </trkpt>
      <trkpt lat="43.51577" lon="2.11067">
        <ele>211.2</ele>
        <time>2023-05-27T14:36:51Z</time>
      </trkpt>
      <trkpt lat="43.51578" lon="2.11068">
        <ele>211.4</ele>
        <time>2023-05-27T14:36:52Z</time>
      </trkpt>
      <trkpt lat="43.51579" lon="2.11069">
        <ele>211.4</ele>
        <time>2023-05-27T14:36:53Z</time>
      </trkpt>
      <trkpt lat="43.51579" lon="2.1107">
        <ele>211.6</ele>
        <time>2023-05-27T14:36:54Z</time>
      </trkpt>
      <trkpt lat="43.5158" lon="2.1107">
        <ele>211.6</ele>
        <time>2023-05-27T14:36:55Z</time>
      </trkpt>
      <trkpt lat="43.5158" lon="2.11071">
        <ele>211.8</ele>
        <time>2023-05-27T14:36:56Z</time>
      </trkpt>
      <trkpt lat="43.5158" lon="2.11071">
        <ele>211.8</ele>
        <time>2023-05-27T14:36:57Z</time>
      </trkpt>
      <trkpt lat="43.5158" lon="2.11071">
        <ele>211.8</ele>
        <time>2023-05-27T14:36:58Z</time>
      </trkpt>
      <trkpt lat="43.5158" lon="2.11071">
        <ele>212</ele>
        <time>2023-05-27T14:36:59Z</time>
      </trkpt>
      <trkpt lat="43.5158" lon="2.11071">
        <ele>212</ele>
        <time>2023-05-27T14:37:00Z</time>
      </trkpt>
      <trkpt lat="43.51594" lon="2.11081">
        <ele>212.2</ele>
        <time>2023-05-27T14:37:43Z</time>
      </trkpt>
      <trkpt lat="43.51594" lon="2.11082">
        <ele>212.2</ele>
        <time>2023-05-27T14:37:44Z</time>
      </trkpt>
      <trkpt lat="43.51595" lon="2.11083">
        <ele>212.2</ele>
        <time>2023-05-27T14:37:45Z</time>
      </trkpt>
      <trkpt lat="43.51596" lon="2.11084">
        <ele>212.2</ele>
        <time>2023-05-27T14:37:46Z</time>
      </trkpt>
      <trkpt lat="43.51597" lon="2.11084">
        <ele>212.4</ele>
        <time>2023-05-27T14:37:47Z</time>
      </trkpt>
      <trkpt lat="43.51598" lon="2.11085">
        <ele>212.4</ele>
        <time>2023-05-27T14:37:48Z</time>
      </trkpt>
      <trkpt lat="43.51598" lon="2.11085">
        <ele>212.6</ele>
        <time>2023-05-27T14:37:49Z</time>
      </trkpt>
      <trkpt lat="43.51599" lon="2.11086">
        <ele>212.6</ele>
        <time>2023-05-27T14:37:50Z</time>
      </trkpt>
      <trkpt lat="43.516" lon="2.11086">
        <ele>212.8</ele>
        <time>2023-05-27T14:37:51Z</time>
      </trkpt>
      <trkpt lat="43.516" lon="2.11087">
        <ele>212.8</ele>
        <time>2023-05-27T14:37:52Z</time>
      </trkpt>
      <trkpt lat="43.51601" lon="2.11087">
        <ele>213</ele>
        <time>2023-05-27T14:37:53Z</time>
      </trkpt>
      <trkpt lat="43.51602" lon="2.11088">
        <ele>213.2</ele>
        <time>2023-05-27T14:37:54Z</time>
      </trkpt>
      <trkpt lat="43.51603" lon="2.11089">
        <ele>213.4</ele>
        <time>2023-05-27T14:37:55Z</time>
      </trkpt>
      <trkpt lat="43.51604" lon="2.11089">
        <ele>213.6</ele>
        <time>2023-05-27T14:37:56Z</time>
      </trkpt>
      <trkpt lat="43.51605" lon="2.1109">
        <ele>213.6</ele>
        <time>2023-05-27T14:37:57Z</time>
      </trkpt>
      <trkpt lat="43.51605" lon="2.11091">
        <ele>213.8</ele>
        <time>2023-05-27T14:37:58Z</time>
      </trkpt>
      <trkpt lat="43.51606" lon="2.11091">
        <ele>214</ele>
        <time>2023-05-27T14:37:59Z</time>
      </trkpt>
      <trkpt lat="43.51606" lon="2.11091">
        <ele>214</ele>
        <time>2023-05-27T14:38:00Z</time>
      </trkpt>
      <trkpt lat="43.51606" lon="2.11091">
        <ele>214</ele>
        <time>2023-05-27T14:38:01Z</time>
      </trkpt>
      <trkpt lat="43.51606" lon="2.11091">
        <ele>214</ele>
        <time>2023-05-27T14:38:02Z</time>
      </trkpt>
      <trkpt lat="43.51608" lon="2.11093">
        <ele>214.4</ele>
        <time>2023-05-27T14:38:12Z</time>
      </trkpt>
      <trkpt lat="43.51609" lon="2.11093">
        <ele>214.4</ele>
        <time>2023-05-27T14:38:13Z</time>
      </trkpt>
      <trkpt lat="43.51609" lon="2.11094">
        <ele>214.4</ele>
        <time>2023-05-27T14:38:14Z</time>
      </trkpt>
      <trkpt lat="43.5161" lon="2.11095">
        <ele>214.4</ele>
        <time>2023-05-27T14:38:15Z</time>
      </trkpt>
      <trkpt lat="43.51611" lon="2.11096">
        <ele>214.6</ele>
        <time>2023-05-27T14:38:16Z</time>
      </trkpt>
      <trkpt lat="43.51612" lon="2.11096">
        <ele>214.6</ele>
        <time>2023-05-27T14:38:17Z</time>
      </trkpt>
      <trkpt lat="43.51613" lon="2.11096">
        <ele>214.8</ele>
        <time>2023-05-27T14:38:18Z</time>
      </trkpt>
      <trkpt lat="43.51613" lon="2.11097">
        <ele>214.8</ele>
        <time>2023-05-27T14:38:19Z</time>
      </trkpt>
      <trkpt lat="43.51613" lon="2.11097">
        <ele>214.8</ele>
        <time>2023-05-27T14:38:20Z</time>
      </trkpt>
      <trkpt lat="43.51613" lon="2.11097">
        <ele>214.8</ele>
        <time>2023-05-27T14:38:21Z</time>
      </trkpt>
      <trkpt lat="43.51613" lon="2.11097">
        <ele>215</ele>
        <time>2023-05-27T14:38:22Z</time>
      </trkpt>
      <trkpt lat="43.51619" lon="2.11099">
        <ele>215</ele>
        <time>2023-05-27T14:38:41Z</time>
      </trkpt>
      <trkpt lat="43.5162" lon="2.11099">
        <ele>215</ele>
        <time>2023-05-27T14:38:42Z</time>
      </trkpt>
      <trkpt lat="43.51622" lon="2.11099">
        <ele>215</ele>
        <time>2023-05-27T14:38:43Z</time>
      </trkpt>
      <trkpt lat="43.51623" lon="2.11098">
        <ele>215</ele>
        <time>2023-05-27T14:38:44Z</time>
      </trkpt>
      <trkpt lat="43.51624" lon="2.11097">
        <ele>215.2</ele>
        <time>2023-05-27T14:38:45Z</time>
      </trkpt>
      <trkpt lat="43.51624" lon="2.11096">
        <ele>215.2</ele>
        <time>2023-05-27T14:38:46Z</time>
      </trkpt>
      <trkpt lat="43.51625" lon="2.11095">
        <ele>215.2</ele>
        <time>2023-05-27T14:38:47Z</time>
      </trkpt>
      <trkpt lat="43.51626" lon="2.11094">
        <ele>215.2</ele>
        <time>2023-05-27T14:38:48Z</time>
      </trkpt>
      <trkpt lat="43.51627" lon="2.11093">
        <ele>215.2</ele>
        <time>2023-05-27T14:38:49Z</time>
      </trkpt>
      <trkpt lat="43.51628" lon="2.11092">
        <ele>215.2</ele>
        <time>2023-05-27T14:38:50Z</time>
      </trkpt>
      <trkpt lat="43.51628" lon="2.1109">
        <ele>215.2</ele>
        <time>2023-05-27T14:38:51Z</time>
      </trkpt>
      <trkpt lat="43.51628" lon="2.11089">
        <ele>215.2</ele>
        <time>2023-05-27T14:38:52Z</time>
      </trkpt>
      <trkpt lat="43.51629" lon="2.11087">
        <ele>215.2</ele>
        <time>2023-05-27T14:38:53Z</time>
      </trkpt>
      <trkpt lat="43.51629" lon="2.11086">
        <ele>215.2</ele>
        <time>2023-05-27T14:38:54Z</time>
      </trkpt>
      <trkpt lat="43.51629" lon="2.11084">
        <ele>215.2</ele>
        <time>2023-05-27T14:38:55Z</time>
      </trkpt>
      <trkpt lat="43.5163" lon="2.11083">
        <ele>215.2</ele>
        <time>2023-05-27T14:38:56Z</time>
      </trkpt>
      <trkpt lat="43.5163" lon="2.11082">
        <ele>215.2</ele>
        <time>2023-05-27T14:38:57Z</time>
      </trkpt>
      <trkpt lat="43.5163" lon="2.11082">
        <ele>215.2</ele>
        <time>2023-05-27T14:38:58Z</time>
      </trkpt>
      <trkpt lat="43.5163" lon="2.11082">
        <ele>215.2</ele>
        <time>2023-05-27T14:38:59Z</time>
      </trkpt>
      <trkpt lat="43.5163" lon="2.11082">
        <ele>215.2</ele>
        <time>2023-05-27T14:39:00Z</time>
      </trkpt>
      <trkpt lat="43.5163" lon="2.11082">
        <ele>215.2</ele>
        <time>2023-05-27T14:39:01Z</time>
      </trkpt>
      <trkpt lat="43.51631" lon="2.11081">
        <ele>215.2</ele>
        <time>2023-05-27T14:39:02Z</time>
      </trkpt>
      <trkpt lat="43.51631" lon="2.11079">
        <ele>215.2</ele>
        <time>2023-05-27T14:39:03Z</time>
      </trkpt>
      <trkpt lat="43.51631" lon="2.11077">
        <ele>215.2</ele>
        <time>2023-05-27T14:39:04Z</time>
      </trkpt>
      <trkpt lat="43.51631" lon="2.11076">
        <ele>215.2</ele>
        <time>2023-05-27T14:39:05Z</time>
      </trkpt>
      <trkpt lat="43.51632" lon="2.11074">
        <ele>215.2</ele>
        <time>2023-05-27T14:39:06Z</time>
      </trkpt>
      <trkpt lat="43.51632" lon="2.11072">
        <ele>215.4</ele>
        <time>2023-05-27T14:39:07Z</time>
      </trkpt>
      <trkpt lat="43.51633" lon="2.1107">
        <ele>215.4</ele>
        <time>2023-05-27T14:39:08Z</time>
      </trkpt>
      <trkpt lat="43.51633" lon="2.11067">
        <ele>215.2</ele>
        <time>2023-05-27T14:39:09Z</time>
      </trkpt>
      <trkpt lat="43.51634" lon="2.11064">
        <ele>215.2</ele>
        <time>2023-05-27T14:39:10Z</time>
      </trkpt>
      <trkpt lat="43.51635" lon="2.11062">
        <ele>215.2</ele>
        <time>2023-05-27T14:39:11Z</time>
      </trkpt>
      <trkpt lat="43.51636" lon="2.11059">
        <ele>215.2</ele>
        <time>2023-05-27T14:39:12Z</time>
      </trkpt>
      <trkpt lat="43.51637" lon="2.11057">
        <ele>215.2</ele>
        <time>2023-05-27T14:39:13Z</time>
      </trkpt>
      <trkpt lat="43.51639" lon="2.11055">
        <ele>215.2</ele>
        <time>2023-05-27T14:39:14Z</time>
      </trkpt>
      <trkpt lat="43.5164" lon="2.11053">
        <ele>215</ele>
        <time>2023-05-27T14:39:15Z</time>
      </trkpt>
      <trkpt lat="43.51643" lon="2.11052">
        <ele>215</ele>
        <time>2023-05-27T14:39:16Z</time>
      </trkpt>
      <trkpt lat="43.51645" lon="2.11052">
        <ele>215</ele>
        <time>2023-05-27T14:39:17Z</time>
      </trkpt>
      <trkpt lat="43.51647" lon="2.11052">
        <ele>215</ele>
        <time>2023-05-27T14:39:18Z</time>
      </trkpt>
      <trkpt lat="43.51648" lon="2.11052">
        <ele>215</ele>
        <time>2023-05-27T14:39:19Z</time>
      </trkpt>
      <trkpt lat="43.51648" lon="2.11052">
        <ele>214.8</ele>
        <time>2023-05-27T14:39:20Z</time>
      </trkpt>
      <trkpt lat="43.51648" lon="2.11052">
        <ele>214.8</ele>
        <time>2023-05-27T14:39:21Z</time>
      </trkpt>
      <trkpt lat="43.51648" lon="2.11052">
        <ele>214.8</ele>
        <time>2023-05-27T14:39:22Z</time>
      </trkpt>
      <trkpt lat="43.51648" lon="2.11052">
        <ele>215</ele>
        <time>2023-05-27T14:39:23Z</time>
      </trkpt>
      <trkpt lat="43.5164" lon="2.11059">
        <ele>215</ele>
        <time>2023-05-27T14:48:23Z</time>
      </trkpt>
      <trkpt lat="43.51639" lon="2.11061">
        <ele>215</ele>
        <time>2023-05-27T14:48:24Z</time>
      </trkpt>
      <trkpt lat="43.51639" lon="2.11064">
        <ele>215</ele>
        <time>2023-05-27T14:48:25Z</time>
      </trkpt>
      <trkpt lat="43.51638" lon="2.11065">
        <ele>215</ele>
        <time>2023-05-27T14:48:26Z</time>
      </trkpt>
      <trkpt lat="43.51637" lon="2.11067">
        <ele>215</ele>
        <time>2023-05-27T14:48:27Z</time>
      </trkpt>
      <trkpt lat="43.51635" lon="2.11069">
        <ele>215</ele>
        <time>2023-05-27T14:48:28Z</time>
      </trkpt>
      <trkpt lat="43.51634" lon="2.11071">
        <ele>215</ele>
        <time>2023-05-27T14:48:29Z</time>
      </trkpt>
      <trkpt lat="43.51633" lon="2.11074">
        <ele>215</ele>
        <time>2023-05-27T14:48:30Z</time>
      </trkpt>
      <trkpt lat="43.51632" lon="2.11076">
        <ele>215</ele>
        <time>2023-05-27T14:48:31Z</time>
      </trkpt>
      <trkpt lat="43.51631" lon="2.11078">
        <ele>215.2</ele>
        <time>2023-05-27T14:48:32Z</time>
      </trkpt>
      <trkpt lat="43.5163" lon="2.1108">
        <ele>215.2</ele>
        <time>2023-05-27T14:48:33Z</time>
      </trkpt>
      <trkpt lat="43.5163" lon="2.11082">
        <ele>215.2</ele>
        <time>2023-05-27T14:48:34Z</time>
      </trkpt>
      <trkpt lat="43.5163" lon="2.11085">
        <ele>215.2</ele>
        <time>2023-05-27T14:48:35Z</time>
      </trkpt>
      <trkpt lat="43.5163" lon="2.11087">
        <ele>215.2</ele>
        <time>2023-05-27T14:48:36Z</time>
      </trkpt>
      <trkpt lat="43.5163" lon="2.1109">
        <ele>215.2</ele>
        <time>2023-05-27T14:48:37Z</time>
      </trkpt>
      <trkpt lat="43.51631" lon="2.11093">
        <ele>215.2</ele>
        <time>2023-05-27T14:48:38Z</time>
      </trkpt>
      <trkpt lat="43.51632" lon="2.11096">
        <ele>215.2</ele>
        <time>2023-05-27T14:48:39Z</time>
      </trkpt>
      <trkpt lat="43.51633" lon="2.11098">
        <ele>215</ele>
        <time>2023-05-27T14:48:40Z</time>
      </trkpt>
      <trkpt lat="43.51635" lon="2.11102">
        <ele>215</ele>
        <time>2023-05-27T14:48:41Z</time>
      </trkpt>
      <trkpt lat="43.51637" lon="2.11106">
        <ele>215</ele>
        <time>2023-05-27T14:48:42Z</time>
      </trkpt>
      <trkpt lat="43.51639" lon="2.11109">
        <ele>215</ele>
        <time>2023-05-27T14:48:43Z</time>
      </trkpt>
      <trkpt lat="43.51641" lon="2.11112">
        <ele>214.8</ele>
        <time>2023-05-27T14:48:44Z</time>
      </trkpt>
      <trkpt lat="43.51644" lon="2.11116">
        <ele>214.6</ele>
        <time>2023-05-27T14:48:45Z</time>
      </trkpt>
      <trkpt lat="43.51647" lon="2.11121">
        <ele>214.4</ele>
        <time>2023-05-27T14:48:46Z</time>
      </trkpt>
      <trkpt lat="43.5165" lon="2.11126">
        <ele>214.2</ele>
        <time>2023-05-27T14:48:47Z</time>
      </trkpt>
      <trkpt lat="43.51654" lon="2.11131">
        <ele>214</ele>
        <time>2023-05-27T14:48:48Z</time>
      </trkpt>
      <trkpt lat="43.51658" lon="2.11135">
        <ele>213.6</ele>
        <time>2023-05-27T14:48:49Z</time>
      </trkpt>
      <trkpt lat="43.51662" lon="2.11141">
        <ele>213.4</ele>
        <time>2023-05-27T14:48:50Z</time>
      </trkpt>
      <trkpt lat="43.51667" lon="2.11147">
        <ele>213.2</ele>
        <time>2023-05-27T14:48:51Z</time>
      </trkpt>
      <trkpt lat="43.51672" lon="2.11154">
        <ele>212.8</ele>
        <time>2023-05-27T14:48:52Z</time>
      </trkpt>
      <trkpt lat="43.51676" lon="2.1116">
        <ele>212.6</ele>
        <time>2023-05-27T14:48:53Z</time>
      </trkpt>
      <trkpt lat="43.51681" lon="2.11165">
        <ele>212.4</ele>
        <time>2023-05-27T14:48:54Z</time>
      </trkpt>
      <trkpt lat="43.51686" lon="2.11172">
        <ele>212</ele>
        <time>2023-05-27T14:48:55Z</time>
      </trkpt>
      <trkpt lat="43.51691" lon="2.11179">
        <ele>211.8</ele>
        <time>2023-05-27T14:48:56Z</time>
      </trkpt>
      <trkpt lat="43.51696" lon="2.11185">
        <ele>211.6</ele>
        <time>2023-05-27T14:48:57Z</time>
      </trkpt>
      <trkpt lat="43.51701" lon="2.11191">
        <ele>211.4</ele>
        <time>2023-05-27T14:48:58Z</time>
      </trkpt>
      <trkpt lat="43.51706" lon="2.11197">
        <ele>211.4</ele>
        <time>2023-05-27T14:48:59Z</time>
      </trkpt>
      <trkpt lat="43.51712" lon="2.11203">
        <ele>211.2</ele>
        <time>2023-05-27T14:49:00Z</time>
      </trkpt>
      <trkpt lat="43.51717" lon="2.11207">
        <ele>211</ele>
        <time>2023-05-27T14:49:01Z</time>
      </trkpt>
      <trkpt lat="43.51722" lon="2.11212">
        <ele>211</ele>
        <time>2023-05-27T14:49:02Z</time>
      </trkpt>
      <trkpt lat="43.51728" lon="2.11217">
        <ele>210.8</ele>
        <time>2023-05-27T14:49:03Z</time>
      </trkpt>
      <trkpt lat="43.51733" lon="2.11221">
        <ele>210.8</ele>
        <time>2023-05-27T14:49:04Z</time>
      </trkpt>
      <trkpt lat="43.51737" lon="2.11225">
        <ele>210.8</ele>
        <time>2023-05-27T14:49:05Z</time>
      </trkpt>
      <trkpt lat="43.51742" lon="2.1123">
        <ele>210.8</ele>
        <time>2023-05-27T14:49:06Z</time>
      </trkpt>
      <trkpt lat="43.51746" lon="2.11234">
        <ele>210.8</ele>
        <time>2023-05-27T14:49:07Z</time>
      </trkpt>
      <trkpt lat="43.51751" lon="2.11238">
        <ele>210.8</ele>
        <time>2023-05-27T14:49:08Z</time>
      </trkpt>
      <trkpt lat="43.51756" lon="2.11241">
        <ele>210.8</ele>
        <time>2023-05-27T14:49:09Z</time>
      </trkpt>
      <trkpt lat="43.51759" lon="2.11245">
        <ele>210.8</ele>
        <time>2023-05-27T14:49:10Z</time>
      </trkpt>
      <trkpt lat="43.51762" lon="2.11248">
        <ele>210.8</ele>
        <time>2023-05-27T14:49:11Z</time>
      </trkpt>
      <trkpt lat="43.51766" lon="2.11251">
        <ele>210.8</ele>
        <time>2023-05-27T14:49:12Z</time>
      </trkpt>
      <trkpt lat="43.5177" lon="2.11255">
        <ele>210.8</ele>
        <time>2023-05-27T14:49:13Z</time>
      </trkpt>
      <trkpt lat="43.51773" lon="2.11258">
        <ele>210.8</ele>
        <time>2023-05-27T14:49:14Z</time>
      </trkpt>
      <trkpt lat="43.51776" lon="2.11262">
        <ele>210.8</ele>
        <time>2023-05-27T14:49:15Z</time>
      </trkpt>
      <trkpt lat="43.51779" lon="2.11266">
        <ele>210.8</ele>
        <time>2023-05-27T14:49:16Z</time>
      </trkpt>
      <trkpt lat="43.5178" lon="2.11269">
        <ele>210.8</ele>
        <time>2023-05-27T14:49:17Z</time>
      </trkpt>
      <trkpt lat="43.51782" lon="2.11275">
        <ele>210.8</ele>
        <time>2023-05-27T14:49:18Z</time>
      </trkpt>
      <trkpt lat="43.51783" lon="2.11281">
        <ele>210.6</ele>
        <time>2023-05-27T14:49:19Z</time>
      </trkpt>
      <trkpt lat="43.51783" lon="2.11286">
        <ele>210.6</ele>
        <time>2023-05-27T14:49:20Z</time>
      </trkpt>
      <trkpt lat="43.51782" lon="2.11291">
        <ele>210.4</ele>
        <time>2023-05-27T14:49:21Z</time>
      </trkpt>
      <trkpt lat="43.5178" lon="2.11297">
        <ele>210.4</ele>
        <time>2023-05-27T14:49:22Z</time>
      </trkpt>
      <trkpt lat="43.51778" lon="2.11303">
        <ele>210.2</ele>
        <time>2023-05-27T14:49:23Z</time>
      </trkpt>
      <trkpt lat="43.51776" lon="2.11309">
        <ele>210.2</ele>
        <time>2023-05-27T14:49:24Z</time>
      </trkpt>
      <trkpt lat="43.51774" lon="2.11314">
        <ele>210.2</ele>
        <time>2023-05-27T14:49:25Z</time>
      </trkpt>
      <trkpt lat="43.51772" lon="2.11319">
        <ele>210</ele>
        <time>2023-05-27T14:49:26Z</time>
      </trkpt>
      <trkpt lat="43.5177" lon="2.11325">
        <ele>210</ele>
        <time>2023-05-27T14:49:27Z</time>
      </trkpt>
      <trkpt lat="43.51768" lon="2.11331">
        <ele>210</ele>
        <time>2023-05-27T14:49:28Z</time>
      </trkpt>
      <trkpt lat="43.51766" lon="2.11335">
        <ele>209.8</ele>
        <time>2023-05-27T14:49:29Z</time>
      </trkpt>
      <trkpt lat="43.51764" lon="2.1134">
        <ele>209.8</ele>
        <time>2023-05-27T14:49:30Z</time>
      </trkpt>
      <trkpt lat="43.51762" lon="2.11345">
        <ele>209.8</ele>
        <time>2023-05-27T14:49:31Z</time>
      </trkpt>
      <trkpt lat="43.5176" lon="2.11351">
        <ele>209.6</ele>
        <time>2023-05-27T14:49:32Z</time>
      </trkpt>
      <trkpt lat="43.51758" lon="2.11356">
        <ele>209.6</ele>
        <time>2023-05-27T14:49:33Z</time>
      </trkpt>
      <trkpt lat="43.51756" lon="2.1136">
        <ele>209.6</ele>
        <time>2023-05-27T14:49:34Z</time>
      </trkpt>
      <trkpt lat="43.51754" lon="2.11364">
        <ele>209.6</ele>
        <time>2023-05-27T14:49:35Z</time>
      </trkpt>
      <trkpt lat="43.51752" lon="2.11369">
        <ele>209.4</ele>
        <time>2023-05-27T14:49:36Z</time>
      </trkpt>
      <trkpt lat="43.5175" lon="2.11374">
        <ele>209.4</ele>
        <time>2023-05-27T14:49:37Z</time>
      </trkpt>
      <trkpt lat="43.51749" lon="2.11378">
        <ele>209.4</ele>
        <time>2023-05-27T14:49:38Z</time>
      </trkpt>
      <trkpt lat="43.51747" lon="2.11382">
        <ele>209.4</ele>
        <time>2023-05-27T14:49:39Z</time>
      </trkpt>
      <trkpt lat="43.51746" lon="2.11387">
        <ele>209.4</ele>
        <time>2023-05-27T14:49:40Z</time>
      </trkpt>
      <trkpt lat="43.51746" lon="2.11392">
        <ele>209.2</ele>
        <time>2023-05-27T14:49:41Z</time>
      </trkpt>
      <trkpt lat="43.51746" lon="2.11397">
        <ele>209.2</ele>
        <time>2023-05-27T14:49:42Z</time>
      </trkpt>
      <trkpt lat="43.51746" lon="2.11403">
        <ele>209</ele>
        <time>2023-05-27T14:49:43Z</time>
      </trkpt>
      <trkpt lat="43.51747" lon="2.11409">
        <ele>209</ele>
        <time>2023-05-27T14:49:44Z</time>
      </trkpt>
      <trkpt lat="43.51749" lon="2.11415">
        <ele>208.8</ele>
        <time>2023-05-27T14:49:45Z</time>
      </trkpt>
      <trkpt lat="43.51752" lon="2.11421">
        <ele>208.8</ele>
        <time>2023-05-27T14:49:46Z</time>
      </trkpt>
      <trkpt lat="43.51754" lon="2.11426">
        <ele>208.6</ele>
        <time>2023-05-27T14:49:47Z</time>
      </trkpt>
      <trkpt lat="43.51756" lon="2.11432">
        <ele>208.4</ele>
        <time>2023-05-27T14:49:48Z</time>
      </trkpt>
      <trkpt lat="43.51759" lon="2.11439">
        <ele>208.4</ele>
        <time>2023-05-27T14:49:49Z</time>
      </trkpt>
      <trkpt lat="43.51762" lon="2.11445">
        <ele>208.2</ele>
        <time>2023-05-27T14:49:50Z</time>
      </trkpt>
      <trkpt lat="43.51765" lon="2.11452">
        <ele>208</ele>
        <time>2023-05-27T14:49:51Z</time>
      </trkpt>
      <trkpt lat="43.51768" lon="2.11458">
        <ele>208</ele>
        <time>2023-05-27T14:49:52Z</time>
      </trkpt>
      <trkpt lat="43.5177" lon="2.11465">
        <ele>207.8</ele>
        <time>2023-05-27T14:49:53Z</time>
      </trkpt>
      <trkpt lat="43.51774" lon="2.11473">
        <ele>207.8</ele>
        <time>2023-05-27T14:49:54Z</time>
      </trkpt>
      <trkpt lat="43.51777" lon="2.11482">
        <ele>207.6</ele>
        <time>2023-05-27T14:49:55Z</time>
      </trkpt>
      <trkpt lat="43.51779" lon="2.1149">
        <ele>207.4</ele>
        <time>2023-05-27T14:49:56Z</time>
      </trkpt>
      <trkpt lat="43.51781" lon="2.11498">
        <ele>207.2</ele>
        <time>2023-05-27T14:49:57Z</time>
      </trkpt>
      <trkpt lat="43.51783" lon="2.11506">
        <ele>207.2</ele>
        <time>2023-05-27T14:49:58Z</time>
      </trkpt>
      <trkpt lat="43.51786" lon="2.11513">
        <ele>207</ele>
        <time>2023-05-27T14:49:59Z</time>
      </trkpt>
      <trkpt lat="43.51788" lon="2.11521">
        <ele>207</ele>
        <time>2023-05-27T14:50:00Z</time>
      </trkpt>
      <trkpt lat="43.51789" lon="2.11528">
        <ele>207</ele>
        <time>2023-05-27T14:50:01Z</time>
      </trkpt>
      <trkpt lat="43.51791" lon="2.11535">
        <ele>206.8</ele>
        <time>2023-05-27T14:50:02Z</time>
      </trkpt>
      <trkpt lat="43.51793" lon="2.11543">
        <ele>206.8</ele>
        <time>2023-05-27T14:50:03Z</time>
      </trkpt>
      <trkpt lat="43.51794" lon="2.11549">
        <ele>206.6</ele>
        <time>2023-05-27T14:50:04Z</time>
      </trkpt>
      <trkpt lat="43.51796" lon="2.11557">
        <ele>206.4</ele>
        <time>2023-05-27T14:50:05Z</time>
      </trkpt>
      <trkpt lat="43.51798" lon="2.11566">
        <ele>206.2</ele>
        <time>2023-05-27T14:50:06Z</time>
      </trkpt>
      <trkpt lat="43.518" lon="2.11575">
        <ele>206</ele>
        <time>2023-05-27T14:50:07Z</time>
      </trkpt>
      <trkpt lat="43.51801" lon="2.11584">
        <ele>205.6</ele>
        <time>2023-05-27T14:50:08Z</time>
      </trkpt>
      <trkpt lat="43.51803" lon="2.11593">
        <ele>205.4</ele>
        <time>2023-05-27T14:50:09Z</time>
      </trkpt>
      <trkpt lat="43.51804" lon="2.11602">
        <ele>205</ele>
        <time>2023-05-27T14:50:10Z</time>
      </trkpt>
      <trkpt lat="43.51806" lon="2.11613">
        <ele>204.6</ele>
        <time>2023-05-27T14:50:11Z</time>
      </trkpt>
      <trkpt lat="43.51808" lon="2.11624">
        <ele>204.2</ele>
        <time>2023-05-27T14:50:12Z</time>
      </trkpt>
      <trkpt lat="43.5181" lon="2.11634">
        <ele>204</ele>
        <time>2023-05-27T14:50:13Z</time>
      </trkpt>
      <trkpt lat="43.51813" lon="2.11644">
        <ele>203.6</ele>
        <time>2023-05-27T14:50:14Z</time>
      </trkpt>
      <trkpt lat="43.51816" lon="2.11655">
        <ele>203.2</ele>
        <time>2023-05-27T14:50:15Z</time>
      </trkpt>
      <trkpt lat="43.51819" lon="2.11665">
        <ele>202.8</ele>
        <time>2023-05-27T14:50:16Z</time>
      </trkpt>
      <trkpt lat="43.51822" lon="2.11676">
        <ele>202.6</ele>
        <time>2023-05-27T14:50:17Z</time>
      </trkpt>
      <trkpt lat="43.51824" lon="2.11685">
        <ele>202.2</ele>
        <time>2023-05-27T14:50:18Z</time>
      </trkpt>
      <trkpt lat="43.51827" lon="2.11695">
        <ele>201.8</ele>
        <time>2023-05-27T14:50:19Z</time>
      </trkpt>
      <trkpt lat="43.5183" lon="2.11707">
        <ele>201.4</ele>
        <time>2023-05-27T14:50:20Z</time>
      </trkpt>
      <trkpt lat="43.51832" lon="2.11719">
        <ele>201</ele>
        <time>2023-05-27T14:50:21Z</time>
      </trkpt>
      <trkpt lat="43.51834" lon="2.11731">
        <ele>200.8</ele>
        <time>2023-05-27T14:50:22Z</time>
      </trkpt>
      <trkpt lat="43.51836" lon="2.11742">
        <ele>200.4</ele>
        <time>2023-05-27T14:50:23Z</time>
      </trkpt>
      <trkpt lat="43.51837" lon="2.11754">
        <ele>200</ele>
        <time>2023-05-27T14:50:24Z</time>
      </trkpt>
      <trkpt lat="43.51839" lon="2.11765">
        <ele>199.6</ele>
        <time>2023-05-27T14:50:25Z</time>
      </trkpt>
      <trkpt lat="43.5184" lon="2.11777">
        <ele>199.2</ele>
        <time>2023-05-27T14:50:26Z</time>
      </trkpt>
      <trkpt lat="43.51841" lon="2.11789">
        <ele>198.8</ele>
        <time>2023-05-27T14:50:27Z</time>
      </trkpt>
      <trkpt lat="43.51842" lon="2.11799">
        <ele>198.6</ele>
        <time>2023-05-27T14:50:28Z</time>
      </trkpt>
      <trkpt lat="43.51843" lon="2.11811">
        <ele>198.2</ele>
        <time>2023-05-27T14:50:29Z</time>
      </trkpt>
      <trkpt lat="43.51844" lon="2.11824">
        <ele>197.8</ele>
        <time>2023-05-27T14:50:30Z</time>
      </trkpt>
      <trkpt lat="43.51845" lon="2.11834">
        <ele>197.4</ele>
        <time>2023-05-27T14:50:31Z</time>
      </trkpt>
      <trkpt lat="43.51846" lon="2.11845">
        <ele>197</ele>
        <time>2023-05-27T14:50:32Z</time>
      </trkpt>
      <trkpt lat="43.51848" lon="2.11857">
        <ele>196.6</ele>
        <time>2023-05-27T14:50:33Z</time>
      </trkpt>
      <trkpt lat="43.51849" lon="2.11868">
        <ele>196.4</ele>
        <time>2023-05-27T14:50:34Z</time>
      </trkpt>
      <trkpt lat="43.51851" lon="2.11879">
        <ele>196</ele>
        <time>2023-05-27T14:50:35Z</time>
      </trkpt>
      <trkpt lat="43.51853" lon="2.11891">
        <ele>195.6</ele>
        <time>2023-05-27T14:50:36Z</time>
      </trkpt>
      <trkpt lat="43.51856" lon="2.11902">
        <ele>195.4</ele>
        <time>2023-05-27T14:50:37Z</time>
      </trkpt>
      <trkpt lat="43.51859" lon="2.11912">
        <ele>195.2</ele>
        <time>2023-05-27T14:50:38Z</time>
      </trkpt>
      <trkpt lat="43.51862" lon="2.11921">
        <ele>195</ele>
        <time>2023-05-27T14:50:39Z</time>
      </trkpt>
      <trkpt lat="43.51865" lon="2.11931">
        <ele>194.8</ele>
        <time>2023-05-27T14:50:40Z</time>
      </trkpt>
      <trkpt lat="43.51869" lon="2.1194">
        <ele>194.4</ele>
        <time>2023-05-27T14:50:41Z</time>
      </trkpt>
      <trkpt lat="43.51872" lon="2.11949">
        <ele>194.2</ele>
        <time>2023-05-27T14:50:42Z</time>
      </trkpt>
      <trkpt lat="43.51874" lon="2.1196">
        <ele>194</ele>
        <time>2023-05-27T14:50:43Z</time>
      </trkpt>
      <trkpt lat="43.51875" lon="2.11969">
        <ele>193.6</ele>
        <time>2023-05-27T14:50:44Z</time>
      </trkpt>
      <trkpt lat="43.51876" lon="2.1198">
        <ele>193.4</ele>
        <time>2023-05-27T14:50:45Z</time>
      </trkpt>
      <trkpt lat="43.51877" lon="2.1199">
        <ele>193.2</ele>
        <time>2023-05-27T14:50:46Z</time>
      </trkpt>
      <trkpt lat="43.51879" lon="2.11999">
        <ele>193</ele>
        <time>2023-05-27T14:50:47Z</time>
      </trkpt>
      <trkpt lat="43.51879" lon="2.1201">
        <ele>193</ele>
        <time>2023-05-27T14:50:48Z</time>
      </trkpt>
      <trkpt lat="43.5188" lon="2.1202">
        <ele>192.8</ele>
        <time>2023-05-27T14:50:49Z</time>
      </trkpt>
      <trkpt lat="43.51881" lon="2.12028">
        <ele>192.6</ele>
        <time>2023-05-27T14:50:50Z</time>
      </trkpt>
      <trkpt lat="43.51881" lon="2.12037">
        <ele>192.6</ele>
        <time>2023-05-27T14:50:51Z</time>
      </trkpt>
      <trkpt lat="43.51882" lon="2.12047">
        <ele>192.4</ele>
        <time>2023-05-27T14:50:52Z</time>
      </trkpt>
      <trkpt lat="43.51882" lon="2.12056">
        <ele>192.2</ele>
        <time>2023-05-27T14:50:53Z</time>
      </trkpt>
      <trkpt lat="43.51883" lon="2.12064">
        <ele>192.2</ele>
        <time>2023-05-27T14:50:54Z</time>
      </trkpt>
      <trkpt lat="43.51883" lon="2.12072">
        <ele>192.2</ele>
        <time>2023-05-27T14:50:55Z</time>
      </trkpt>
      <trkpt lat="43.51883" lon="2.12082">
        <ele>192</ele>
        <time>2023-05-27T14:50:56Z</time>
      </trkpt>
      <trkpt lat="43.51884" lon="2.1209">
        <ele>192</ele>
        <time>2023-05-27T14:50:57Z</time>
      </trkpt>
      <trkpt lat="43.51884" lon="2.12099">
        <ele>192</ele>
        <time>2023-05-27T14:50:58Z</time>
      </trkpt>
      <trkpt lat="43.51884" lon="2.12106">
        <ele>192</ele>
        <time>2023-05-27T14:50:59Z</time>
      </trkpt>
      <trkpt lat="43.51884" lon="2.12114">
        <ele>192</ele>
        <time>2023-05-27T14:51:00Z</time>
      </trkpt>
      <trkpt lat="43.51885" lon="2.12123">
        <ele>192</ele>
        <time>2023-05-27T14:51:01Z</time>
      </trkpt>
      <trkpt lat="43.51885" lon="2.12131">
        <ele>192</ele>
        <time>2023-05-27T14:51:02Z</time>
      </trkpt>
      <trkpt lat="43.51885" lon="2.12138">
        <ele>191.8</ele>
        <time>2023-05-27T14:51:03Z</time>
      </trkpt>
      <trkpt lat="43.51884" lon="2.12145">
        <ele>191.8</ele>
        <time>2023-05-27T14:51:04Z</time>
      </trkpt>
      <trkpt lat="43.51884" lon="2.12152">
        <ele>191.8</ele>
        <time>2023-05-27T14:51:05Z</time>
      </trkpt>
      <trkpt lat="43.51884" lon="2.12159">
        <ele>191.8</ele>
        <time>2023-05-27T14:51:06Z</time>
      </trkpt>
      <trkpt lat="43.51883" lon="2.12166">
        <ele>191.8</ele>
        <time>2023-05-27T14:51:07Z</time>
      </trkpt>
      <trkpt lat="43.51883" lon="2.12172">
        <ele>191.8</ele>
        <time>2023-05-27T14:51:08Z</time>
      </trkpt>
      <trkpt lat="43.51883" lon="2.1218">
        <ele>191.8</ele>
        <time>2023-05-27T14:51:09Z</time>
      </trkpt>
      <trkpt lat="43.51883" lon="2.12187">
        <ele>191.8</ele>
        <time>2023-05-27T14:51:10Z</time>
      </trkpt>
      <trkpt lat="43.51883" lon="2.12193">
        <ele>191.8</ele>
        <time>2023-05-27T14:51:11Z</time>
      </trkpt>
      <trkpt lat="43.51883" lon="2.122">
        <ele>191.8</ele>
        <time>2023-05-27T14:51:12Z</time>
      </trkpt>
      <trkpt lat="43.51882" lon="2.12207">
        <ele>191.6</ele>
        <time>2023-05-27T14:51:13Z</time>
      </trkpt>
      <trkpt lat="43.51882" lon="2.12213">
        <ele>191.6</ele>
        <time>2023-05-27T14:51:14Z</time>
      </trkpt>
      <trkpt lat="43.51881" lon="2.1222">
        <ele>191.6</ele>
        <time>2023-05-27T14:51:15Z</time>
      </trkpt>
      <trkpt lat="43.51881" lon="2.12226">
        <ele>191.6</ele>
        <time>2023-05-27T14:51:16Z</time>
      </trkpt>
      <trkpt lat="43.51881" lon="2.12233">
        <ele>191.6</ele>
        <time>2023-05-27T14:51:17Z</time>
      </trkpt>
      <trkpt lat="43.5188" lon="2.1224">
        <ele>191.6</ele>
        <time>2023-05-27T14:51:18Z</time>
      </trkpt>
      <trkpt lat="43.5188" lon="2.12247">
        <ele>191.6</ele>
        <time>2023-05-27T14:51:19Z</time>
      </trkpt>
      <trkpt lat="43.51879" lon="2.12254">
        <ele>191.6</ele>
        <time>2023-05-27T14:51:20Z</time>
      </trkpt>
      <trkpt lat="43.51879" lon="2.12261">
        <ele>191.6</ele>
        <time>2023-05-27T14:51:21Z</time>
      </trkpt>
      <trkpt lat="43.51879" lon="2.12268">
        <ele>191.6</ele>
        <time>2023-05-27T14:51:22Z</time>
      </trkpt>
      <trkpt lat="43.51879" lon="2.12275">
        <ele>191.6</ele>
        <time>2023-05-27T14:51:23Z</time>
      </trkpt>
      <trkpt lat="43.51879" lon="2.12281">
        <ele>191.6</ele>
        <time>2023-05-27T14:51:24Z</time>
      </trkpt>
      <trkpt lat="43.51879" lon="2.12288">
        <ele>191.6</ele>
        <time>2023-05-27T14:51:25Z</time>
      </trkpt>
      <trkpt lat="43.51879" lon="2.12294">
        <ele>191.6</ele>
        <time>2023-05-27T14:51:26Z</time>
      </trkpt>
      <trkpt lat="43.51879" lon="2.123">
        <ele>191.6</ele>
        <time>2023-05-27T14:51:27Z</time>
      </trkpt>
      <trkpt lat="43.51879" lon="2.12307">
        <ele>191.6</ele>
        <time>2023-05-27T14:51:28Z</time>
      </trkpt>
      <trkpt lat="43.51878" lon="2.12314">
        <ele>191.6</ele>
        <time>2023-05-27T14:51:29Z</time>
      </trkpt>
      <trkpt lat="43.51878" lon="2.1232">
        <ele>191.6</ele>
        <time>2023-05-27T14:51:30Z</time>
      </trkpt>
      <trkpt lat="43.51877" lon="2.12326">
        <ele>191.6</ele>
        <time>2023-05-27T14:51:31Z</time>
      </trkpt>
      <trkpt lat="43.51877" lon="2.12332">
        <ele>191.6</ele>
        <time>2023-05-27T14:51:32Z</time>
      </trkpt>
      <trkpt lat="43.51877" lon="2.12338">
        <ele>191.6</ele>
        <time>2023-05-27T14:51:33Z</time>
      </trkpt>
      <trkpt lat="43.51877" lon="2.12344">
        <ele>191.6</ele>
        <time>2023-05-27T14:51:34Z</time>
      </trkpt>
      <trkpt lat="43.51877" lon="2.1235">
        <ele>191.6</ele>
        <time>2023-05-27T14:51:35Z</time>
      </trkpt>
      <trkpt lat="43.51876" lon="2.12356">
        <ele>191.6</ele>
        <time>2023-05-27T14:51:36Z</time>
      </trkpt>
      <trkpt lat="43.51876" lon="2.12363">
        <ele>191.6</ele>
        <time>2023-05-27T14:51:37Z</time>
      </trkpt>
      <trkpt lat="43.51876" lon="2.12369">
        <ele>191.6</ele>
        <time>2023-05-27T14:51:38Z</time>
      </trkpt>
      <trkpt lat="43.51876" lon="2.12375">
        <ele>191.4</ele>
        <time>2023-05-27T14:51:39Z</time>
      </trkpt>
      <trkpt lat="43.51876" lon="2.12381">
        <ele>191.4</ele>
        <time>2023-05-27T14:51:40Z</time>
      </trkpt>
      <trkpt lat="43.51875" lon="2.12387">
        <ele>191.4</ele>
        <time>2023-05-27T14:51:41Z</time>
      </trkpt>
      <trkpt lat="43.51874" lon="2.12394">
        <ele>191.2</ele>
        <time>2023-05-27T14:51:42Z</time>
      </trkpt>
      <trkpt lat="43.51874" lon="2.124">
        <ele>191.2</ele>
        <time>2023-05-27T14:51:43Z</time>
      </trkpt>
      <trkpt lat="43.51874" lon="2.12407">
        <ele>191.2</ele>
        <time>2023-05-27T14:51:44Z</time>
      </trkpt>
      <trkpt lat="43.51874" lon="2.12415">
        <ele>191</ele>
        <time>2023-05-27T14:51:45Z</time>
      </trkpt>
      <trkpt lat="43.51874" lon="2.12422">
        <ele>191</ele>
        <time>2023-05-27T14:51:46Z</time>
      </trkpt>
      <trkpt lat="43.51874" lon="2.12429">
        <ele>191</ele>
        <time>2023-05-27T14:51:47Z</time>
      </trkpt>
      <trkpt lat="43.51875" lon="2.12435">
        <ele>191</ele>
        <time>2023-05-27T14:51:48Z</time>
      </trkpt>
      <trkpt lat="43.51875" lon="2.12443">
        <ele>191</ele>
        <time>2023-05-27T14:51:49Z</time>
      </trkpt>
      <trkpt lat="43.51877" lon="2.1245">
        <ele>191</ele>
        <time>2023-05-27T14:51:50Z</time>
      </trkpt>
      <trkpt lat="43.51878" lon="2.12457">
        <ele>191</ele>
        <time>2023-05-27T14:51:51Z</time>
      </trkpt>
      <trkpt lat="43.5188" lon="2.12463">
        <ele>191</ele>
        <time>2023-05-27T14:51:52Z</time>
      </trkpt>
      <trkpt lat="43.51882" lon="2.12469">
        <ele>191</ele>
        <time>2023-05-27T14:51:53Z</time>
      </trkpt>
      <trkpt lat="43.51884" lon="2.12476">
        <ele>190.8</ele>
        <time>2023-05-27T14:51:54Z</time>
      </trkpt>
      <trkpt lat="43.51886" lon="2.12482">
        <ele>190.8</ele>
        <time>2023-05-27T14:51:55Z</time>
      </trkpt>
      <trkpt lat="43.51887" lon="2.12487">
        <ele>190.8</ele>
        <time>2023-05-27T14:51:56Z</time>
      </trkpt>
      <trkpt lat="43.51888" lon="2.12493">
        <ele>190.8</ele>
        <time>2023-05-27T14:51:57Z</time>
      </trkpt>
      <trkpt lat="43.5189" lon="2.12498">
        <ele>190.8</ele>
        <time>2023-05-27T14:51:58Z</time>
      </trkpt>
      <trkpt lat="43.51892" lon="2.12504">
        <ele>190.8</ele>
        <time>2023-05-27T14:51:59Z</time>
      </trkpt>
      <trkpt lat="43.51894" lon="2.1251">
        <ele>190.8</ele>
        <time>2023-05-27T14:52:00Z</time>
      </trkpt>
      <trkpt lat="43.51896" lon="2.12515">
        <ele>190.8</ele>
        <time>2023-05-27T14:52:01Z</time>
      </trkpt>
      <trkpt lat="43.51898" lon="2.1252">
        <ele>190.8</ele>
        <time>2023-05-27T14:52:02Z</time>
      </trkpt>
      <trkpt lat="43.51901" lon="2.12526">
        <ele>190.6</ele>
        <time>2023-05-27T14:52:03Z</time>
      </trkpt>
      <trkpt lat="43.51902" lon="2.12531">
        <ele>190.6</ele>
        <time>2023-05-27T14:52:04Z</time>
      </trkpt>
      <trkpt lat="43.51905" lon="2.12537">
        <ele>190.6</ele>
        <time>2023-05-27T14:52:05Z</time>
      </trkpt>
      <trkpt lat="43.51907" lon="2.12543">
        <ele>190.6</ele>
        <time>2023-05-27T14:52:06Z</time>
      </trkpt>
      <trkpt lat="43.51909" lon="2.12548">
        <ele>190.6</ele>
        <time>2023-05-27T14:52:07Z</time>
      </trkpt>
      <trkpt lat="43.5191" lon="2.12553">
        <ele>190.6</ele>
        <time>2023-05-27T14:52:08Z</time>
      </trkpt>
      <trkpt lat="43.51913" lon="2.12559">
        <ele>190.6</ele>
        <time>2023-05-27T14:52:09Z</time>
      </trkpt>
      <trkpt lat="43.51914" lon="2.12564">
        <ele>190.6</ele>
        <time>2023-05-27T14:52:10Z</time>
      </trkpt>
      <trkpt lat="43.51916" lon="2.12569">
        <ele>190.6</ele>
        <time>2023-05-27T14:52:11Z</time>
      </trkpt>
      <trkpt lat="43.51918" lon="2.12574">
        <ele>190.6</ele>
        <time>2023-05-27T14:52:12Z</time>
      </trkpt>
      <trkpt lat="43.5192" lon="2.12579">
        <ele>190.6</ele>
        <time>2023-05-27T14:52:13Z</time>
      </trkpt>
      <trkpt lat="43.51921" lon="2.12584">
        <ele>190.6</ele>
        <time>2023-05-27T14:52:14Z</time>
      </trkpt>
      <trkpt lat="43.51923" lon="2.12589">
        <ele>190.8</ele>
        <time>2023-05-27T14:52:15Z</time>
      </trkpt>
      <trkpt lat="43.51925" lon="2.12594">
        <ele>190.8</ele>
        <time>2023-05-27T14:52:16Z</time>
      </trkpt>
      <trkpt lat="43.51927" lon="2.12598">
        <ele>190.8</ele>
        <time>2023-05-27T14:52:17Z</time>
      </trkpt>
      <trkpt lat="43.51928" lon="2.12603">
        <ele>190.8</ele>
        <time>2023-05-27T14:52:18Z</time>
      </trkpt>
      <trkpt lat="43.51929" lon="2.12607">
        <ele>190.8</ele>
        <time>2023-05-27T14:52:19Z</time>
      </trkpt>
      <trkpt lat="43.51931" lon="2.12612">
        <ele>190.8</ele>
        <time>2023-05-27T14:52:20Z</time>
      </trkpt>
      <trkpt lat="43.51933" lon="2.12617">
        <ele>190.8</ele>
        <time>2023-05-27T14:52:21Z</time>
      </trkpt>
      <trkpt lat="43.51935" lon="2.12622">
        <ele>190.8</ele>
        <time>2023-05-27T14:52:22Z</time>
      </trkpt>
      <trkpt lat="43.51936" lon="2.12626">
        <ele>190.8</ele>
        <time>2023-05-27T14:52:23Z</time>
      </trkpt>
      <trkpt lat="43.51938" lon="2.12631">
        <ele>190.8</ele>
        <time>2023-05-27T14:52:24Z</time>
      </trkpt>
      <trkpt lat="43.5194" lon="2.12635">
        <ele>190.8</ele>
        <time>2023-05-27T14:52:25Z</time>
      </trkpt>
      <trkpt lat="43.51941" lon="2.1264">
        <ele>191</ele>
        <time>2023-05-27T14:52:26Z</time>
      </trkpt>
      <trkpt lat="43.51943" lon="2.12644">
        <ele>191</ele>
        <time>2023-05-27T14:52:27Z</time>
      </trkpt>
      <trkpt lat="43.51945" lon="2.12649">
        <ele>191</ele>
        <time>2023-05-27T14:52:28Z</time>
      </trkpt>
      <trkpt lat="43.51946" lon="2.12654">
        <ele>191</ele>
        <time>2023-05-27T14:52:29Z</time>
      </trkpt>
      <trkpt lat="43.51948" lon="2.12658">
        <ele>191</ele>
        <time>2023-05-27T14:52:30Z</time>
      </trkpt>
      <trkpt lat="43.5195" lon="2.12663">
        <ele>191</ele>
        <time>2023-05-27T14:52:31Z</time>
      </trkpt>
      <trkpt lat="43.51951" lon="2.12668">
        <ele>191</ele>
        <time>2023-05-27T14:52:32Z</time>
      </trkpt>
      <trkpt lat="43.51953" lon="2.12673">
        <ele>191</ele>
        <time>2023-05-27T14:52:33Z</time>
      </trkpt>
      <trkpt lat="43.51955" lon="2.12677">
        <ele>191</ele>
        <time>2023-05-27T14:52:34Z</time>
      </trkpt>
      <trkpt lat="43.51957" lon="2.12682">
        <ele>191</ele>
        <time>2023-05-27T14:52:35Z</time>
      </trkpt>
      <trkpt lat="43.51959" lon="2.12686">
        <ele>191.2</ele>
        <time>2023-05-27T14:52:36Z</time>
      </trkpt>
      <trkpt lat="43.5196" lon="2.1269">
        <ele>191.2</ele>
        <time>2023-05-27T14:52:37Z</time>
      </trkpt>
      <trkpt lat="43.51962" lon="2.12695">
        <ele>191.2</ele>
        <time>2023-05-27T14:52:38Z</time>
      </trkpt>
      <trkpt lat="43.51964" lon="2.12699">
        <ele>191.2</ele>
        <time>2023-05-27T14:52:39Z</time>
      </trkpt>
      <trkpt lat="43.51965" lon="2.12703">
        <ele>191.4</ele>
        <time>2023-05-27T14:52:40Z</time>
      </trkpt>
      <trkpt lat="43.51967" lon="2.12707">
        <ele>191.4</ele>
        <time>2023-05-27T14:52:41Z</time>
      </trkpt>
      <trkpt lat="43.51968" lon="2.12711">
        <ele>191.4</ele>
        <time>2023-05-27T14:52:42Z</time>
      </trkpt>
      <trkpt lat="43.5197" lon="2.12716">
        <ele>191.4</ele>
        <time>2023-05-27T14:52:43Z</time>
      </trkpt>
      <trkpt lat="43.51972" lon="2.1272">
        <ele>191.4</ele>
        <time>2023-05-27T14:52:44Z</time>
      </trkpt>
      <trkpt lat="43.51973" lon="2.12724">
        <ele>191.6</ele>
        <time>2023-05-27T14:52:45Z</time>
      </trkpt>
      <trkpt lat="43.51974" lon="2.12727">
        <ele>191.6</ele>
        <time>2023-05-27T14:52:46Z</time>
      </trkpt>
      <trkpt lat="43.51976" lon="2.12731">
        <ele>191.6</ele>
        <time>2023-05-27T14:52:47Z</time>
      </trkpt>
      <trkpt lat="43.51977" lon="2.12735">
        <ele>191.6</ele>
        <time>2023-05-27T14:52:48Z</time>
      </trkpt>
      <trkpt lat="43.51978" lon="2.12738">
        <ele>191.8</ele>
        <time>2023-05-27T14:52:49Z</time>
      </trkpt>
      <trkpt lat="43.5198" lon="2.12742">
        <ele>191.8</ele>
        <time>2023-05-27T14:52:50Z</time>
      </trkpt>
      <trkpt lat="43.51981" lon="2.12745">
        <ele>191.8</ele>
        <time>2023-05-27T14:52:51Z</time>
      </trkpt>
      <trkpt lat="43.51982" lon="2.12749">
        <ele>191.8</ele>
        <time>2023-05-27T14:52:52Z</time>
      </trkpt>
      <trkpt lat="43.51983" lon="2.12752">
        <ele>192</ele>
        <time>2023-05-27T14:52:53Z</time>
      </trkpt>
      <trkpt lat="43.51984" lon="2.12755">
        <ele>192</ele>
        <time>2023-05-27T14:52:54Z</time>
      </trkpt>
      <trkpt lat="43.51986" lon="2.12758">
        <ele>192.2</ele>
        <time>2023-05-27T14:52:55Z</time>
      </trkpt>
      <trkpt lat="43.51987" lon="2.12762">
        <ele>192.2</ele>
        <time>2023-05-27T14:52:56Z</time>
      </trkpt>
      <trkpt lat="43.51988" lon="2.12764">
        <ele>192.4</ele>
        <time>2023-05-27T14:52:57Z</time>
      </trkpt>
      <trkpt lat="43.51989" lon="2.12768">
        <ele>192.4</ele>
        <time>2023-05-27T14:52:58Z</time>
      </trkpt>
      <trkpt lat="43.5199" lon="2.12771">
        <ele>192.4</ele>
        <time>2023-05-27T14:52:59Z</time>
      </trkpt>
      <trkpt lat="43.51991" lon="2.12774">
        <ele>192.6</ele>
        <time>2023-05-27T14:53:00Z</time>
      </trkpt>
      <trkpt lat="43.51993" lon="2.12777">
        <ele>192.6</ele>
        <time>2023-05-27T14:53:01Z</time>
      </trkpt>
      <trkpt lat="43.51994" lon="2.1278">
        <ele>192.8</ele>
        <time>2023-05-27T14:53:02Z</time>
      </trkpt>
      <trkpt lat="43.51995" lon="2.12783">
        <ele>192.8</ele>
        <time>2023-05-27T14:53:03Z</time>
      </trkpt>
      <trkpt lat="43.51997" lon="2.12786">
        <ele>193</ele>
        <time>2023-05-27T14:53:04Z</time>
      </trkpt>
      <trkpt lat="43.51998" lon="2.12789">
        <ele>193</ele>
        <time>2023-05-27T14:53:05Z</time>
      </trkpt>
      <trkpt lat="43.51999" lon="2.12792">
        <ele>193</ele>
        <time>2023-05-27T14:53:06Z</time>
      </trkpt>
      <trkpt lat="43.51999" lon="2.12794">
        <ele>193.2</ele>
        <time>2023-05-27T14:53:07Z</time>
      </trkpt>
      <trkpt lat="43.52" lon="2.12797">
        <ele>193.2</ele>
        <time>2023-05-27T14:53:08Z</time>
      </trkpt>
      <trkpt lat="43.52001" lon="2.128">
        <ele>193.4</ele>
        <time>2023-05-27T14:53:09Z</time>
      </trkpt>
      <trkpt lat="43.52003" lon="2.12802">
        <ele>193.4</ele>
        <time>2023-05-27T14:53:10Z</time>
      </trkpt>
      <trkpt lat="43.52004" lon="2.12805">
        <ele>193.6</ele>
        <time>2023-05-27T14:53:11Z</time>
      </trkpt>
      <trkpt lat="43.52005" lon="2.12807">
        <ele>193.6</ele>
        <time>2023-05-27T14:53:12Z</time>
      </trkpt>
      <trkpt lat="43.52006" lon="2.12808">
        <ele>193.6</ele>
        <time>2023-05-27T14:53:13Z</time>
      </trkpt>
      <trkpt lat="43.52006" lon="2.1281">
        <ele>193.8</ele>
        <time>2023-05-27T14:53:14Z</time>
      </trkpt>
      <trkpt lat="43.52007" lon="2.12813">
        <ele>193.8</ele>
        <time>2023-05-27T14:53:15Z</time>
      </trkpt>
      <trkpt lat="43.52008" lon="2.12815">
        <ele>194</ele>
        <time>2023-05-27T14:53:16Z</time>
      </trkpt>
      <trkpt lat="43.52008" lon="2.12817">
        <ele>194</ele>
        <time>2023-05-27T14:53:17Z</time>
      </trkpt>
      <trkpt lat="43.52009" lon="2.12819">
        <ele>194</ele>
        <time>2023-05-27T14:53:18Z</time>
      </trkpt>
      <trkpt lat="43.5201" lon="2.12822">
        <ele>194.2</ele>
        <time>2023-05-27T14:53:19Z</time>
      </trkpt>
      <trkpt lat="43.52011" lon="2.12824">
        <ele>194.2</ele>
        <time>2023-05-27T14:53:20Z</time>
      </trkpt>
      <trkpt lat="43.52012" lon="2.12826">
        <ele>194.4</ele>
        <time>2023-05-27T14:53:21Z</time>
      </trkpt>
      <trkpt lat="43.52013" lon="2.12827">
        <ele>194.4</ele>
        <time>2023-05-27T14:53:22Z</time>
      </trkpt>
      <trkpt lat="43.52013" lon="2.12829">
        <ele>194.4</ele>
        <time>2023-05-27T14:53:23Z</time>
      </trkpt>
      <trkpt lat="43.52014" lon="2.12831">
        <ele>194.6</ele>
        <time>2023-05-27T14:53:24Z</time>
      </trkpt>
      <trkpt lat="43.52015" lon="2.12833">
        <ele>194.6</ele>
        <time>2023-05-27T14:53:25Z</time>
      </trkpt>
      <trkpt lat="43.52016" lon="2.12835">
        <ele>194.8</ele>
        <time>2023-05-27T14:53:26Z</time>
      </trkpt>
      <trkpt lat="43.52016" lon="2.12836">
        <ele>194.8</ele>
        <time>2023-05-27T14:53:27Z</time>
      </trkpt>
      <trkpt lat="43.52017" lon="2.12838">
        <ele>195</ele>
        <time>2023-05-27T14:53:28Z</time>
      </trkpt>
      <trkpt lat="43.52017" lon="2.1284">
        <ele>195</ele>
        <time>2023-05-27T14:53:29Z</time>
      </trkpt>
      <trkpt lat="43.52018" lon="2.12841">
        <ele>195</ele>
        <time>2023-05-27T14:53:30Z</time>
      </trkpt>
      <trkpt lat="43.52018" lon="2.12843">
        <ele>195.2</ele>
        <time>2023-05-27T14:53:31Z</time>
      </trkpt>
      <trkpt lat="43.52019" lon="2.12844">
        <ele>195.2</ele>
        <time>2023-05-27T14:53:32Z</time>
      </trkpt>
      <trkpt lat="43.52019" lon="2.12846">
        <ele>195.4</ele>
        <time>2023-05-27T14:53:33Z</time>
      </trkpt>
      <trkpt lat="43.5202" lon="2.12847">
        <ele>195.4</ele>
        <time>2023-05-27T14:53:34Z</time>
      </trkpt>
      <trkpt lat="43.52021" lon="2.12849">
        <ele>195.6</ele>
        <time>2023-05-27T14:53:35Z</time>
      </trkpt>
      <trkpt lat="43.52021" lon="2.12851">
        <ele>195.6</ele>
        <time>2023-05-27T14:53:36Z</time>
      </trkpt>
      <trkpt lat="43.52022" lon="2.12852">
        <ele>195.8</ele>
        <time>2023-05-27T14:53:37Z</time>
      </trkpt>
      <trkpt lat="43.52023" lon="2.12854">
        <ele>196</ele>
        <time>2023-05-27T14:53:38Z</time>
      </trkpt>
      <trkpt lat="43.52024" lon="2.12855">
        <ele>196</ele>
        <time>2023-05-27T14:53:39Z</time>
      </trkpt>
      <trkpt lat="43.52025" lon="2.12857">
        <ele>196.2</ele>
        <time>2023-05-27T14:53:40Z</time>
      </trkpt>
      <trkpt lat="43.52026" lon="2.12858">
        <ele>196.2</ele>
        <time>2023-05-27T14:53:41Z</time>
      </trkpt>
      <trkpt lat="43.52026" lon="2.1286">
        <ele>196.4</ele>
        <time>2023-05-27T14:53:42Z</time>
      </trkpt>
      <trkpt lat="43.52027" lon="2.12862">
        <ele>196.6</ele>
        <time>2023-05-27T14:53:43Z</time>
      </trkpt>
      <trkpt lat="43.52027" lon="2.12864">
        <ele>196.8</ele>
        <time>2023-05-27T14:53:44Z</time>
      </trkpt>
      <trkpt lat="43.52028" lon="2.12866">
        <ele>196.8</ele>
        <time>2023-05-27T14:53:45Z</time>
      </trkpt>
      <trkpt lat="43.52029" lon="2.12867">
        <ele>197</ele>
        <time>2023-05-27T14:53:46Z</time>
      </trkpt>
      <trkpt lat="43.5203" lon="2.12868">
        <ele>197.2</ele>
        <time>2023-05-27T14:53:47Z</time>
      </trkpt>
      <trkpt lat="43.5203" lon="2.1287">
        <ele>197.4</ele>
        <time>2023-05-27T14:53:48Z</time>
      </trkpt>
      <trkpt lat="43.52031" lon="2.12871">
        <ele>197.4</ele>
        <time>2023-05-27T14:53:49Z</time>
      </trkpt>
      <trkpt lat="43.52033" lon="2.12874">
        <ele>197.8</ele>
        <time>2023-05-27T14:53:57Z</time>
      </trkpt>
      <trkpt lat="43.52034" lon="2.12875">
        <ele>198</ele>
        <time>2023-05-27T14:53:58Z</time>
      </trkpt>
      <trkpt lat="43.52034" lon="2.12876">
        <ele>198</ele>
        <time>2023-05-27T14:53:59Z</time>
      </trkpt>
      <trkpt lat="43.52035" lon="2.12877">
        <ele>198</ele>
        <time>2023-05-27T14:54:00Z</time>
      </trkpt>
      <trkpt lat="43.52035" lon="2.12878">
        <ele>198.2</ele>
        <time>2023-05-27T14:54:01Z</time>
      </trkpt>
      <trkpt lat="43.52036" lon="2.1288">
        <ele>198.2</ele>
        <time>2023-05-27T14:54:02Z</time>
      </trkpt>
      <trkpt lat="43.52037" lon="2.12881">
        <ele>198.4</ele>
        <time>2023-05-27T14:54:03Z</time>
      </trkpt>
      <trkpt lat="43.52037" lon="2.12882">
        <ele>198.4</ele>
        <time>2023-05-27T14:54:04Z</time>
      </trkpt>
      <trkpt lat="43.52038" lon="2.12883">
        <ele>198.6</ele>
        <time>2023-05-27T14:54:05Z</time>
      </trkpt>
      <trkpt lat="43.52038" lon="2.12884">
        <ele>198.6</ele>
        <time>2023-05-27T14:54:06Z</time>
      </trkpt>
      <trkpt lat="43.52039" lon="2.12886">
        <ele>198.8</ele>
        <time>2023-05-27T14:54:07Z</time>
      </trkpt>
      <trkpt lat="43.5204" lon="2.12887">
        <ele>198.8</ele>
        <time>2023-05-27T14:54:08Z</time>
      </trkpt>
      <trkpt lat="43.5204" lon="2.12888">
        <ele>199</ele>
        <time>2023-05-27T14:54:09Z</time>
      </trkpt>
      <trkpt lat="43.52041" lon="2.1289">
        <ele>199.2</ele>
        <time>2023-05-27T14:54:10Z</time>
      </trkpt>
      <trkpt lat="43.52042" lon="2.12891">
        <ele>199.2</ele>
        <time>2023-05-27T14:54:11Z</time>
      </trkpt>
      <trkpt lat="43.52042" lon="2.12891">
        <ele>199.4</ele>
        <time>2023-05-27T14:54:12Z</time>
      </trkpt>
      <trkpt lat="43.52043" lon="2.12893">
        <ele>199.6</ele>
        <time>2023-05-27T14:54:13Z</time>
      </trkpt>
      <trkpt lat="43.52044" lon="2.12893">
        <ele>199.6</ele>
        <time>2023-05-27T14:54:14Z</time>
      </trkpt>
      <trkpt lat="43.52045" lon="2.12894">
        <ele>199.8</ele>
        <time>2023-05-27T14:54:15Z</time>
      </trkpt>
      <trkpt lat="43.52046" lon="2.12895">
        <ele>199.8</ele>
        <time>2023-05-27T14:54:16Z</time>
      </trkpt>
      <trkpt lat="43.52047" lon="2.12895">
        <ele>200</ele>
        <time>2023-05-27T14:54:17Z</time>
      </trkpt>
      <trkpt lat="43.52047" lon="2.12896">
        <ele>200</ele>
        <time>2023-05-27T14:54:18Z</time>
      </trkpt>
      <trkpt lat="43.52048" lon="2.12897">
        <ele>200.2</ele>
        <time>2023-05-27T14:54:19Z</time>
      </trkpt>
      <trkpt lat="43.52048" lon="2.12898">
        <ele>200.2</ele>
        <time>2023-05-27T14:54:20Z</time>
      </trkpt>
      <trkpt lat="43.52049" lon="2.12898">
        <ele>200.4</ele>
        <time>2023-05-27T14:54:21Z</time>
      </trkpt>
      <trkpt lat="43.5205" lon="2.12899">
        <ele>200.6</ele>
        <time>2023-05-27T14:54:22Z</time>
      </trkpt>
      <trkpt lat="43.52051" lon="2.129">
        <ele>200.6</ele>
        <time>2023-05-27T14:54:23Z</time>
      </trkpt>
      <trkpt lat="43.52052" lon="2.12901">
        <ele>200.8</ele>
        <time>2023-05-27T14:54:24Z</time>
      </trkpt>
      <trkpt lat="43.52052" lon="2.12903">
        <ele>200.8</ele>
        <time>2023-05-27T14:54:25Z</time>
      </trkpt>
      <trkpt lat="43.52053" lon="2.12904">
        <ele>201</ele>
        <time>2023-05-27T14:54:26Z</time>
      </trkpt>
      <trkpt lat="43.52054" lon="2.12905">
        <ele>201.2</ele>
        <time>2023-05-27T14:54:27Z</time>
      </trkpt>
      <trkpt lat="43.52055" lon="2.12906">
        <ele>201.2</ele>
        <time>2023-05-27T14:54:28Z</time>
      </trkpt>
      <trkpt lat="43.52055" lon="2.12907">
        <ele>201.4</ele>
        <time>2023-05-27T14:54:29Z</time>
      </trkpt>
      <trkpt lat="43.52056" lon="2.12908">
        <ele>201.6</ele>
        <time>2023-05-27T14:54:30Z</time>
      </trkpt>
      <trkpt lat="43.52056" lon="2.12909">
        <ele>201.6</ele>
        <time>2023-05-27T14:54:31Z</time>
      </trkpt>
      <trkpt lat="43.52057" lon="2.1291">
        <ele>201.8</ele>
        <time>2023-05-27T14:54:32Z</time>
      </trkpt>
      <trkpt lat="43.52058" lon="2.12911">
        <ele>201.8</ele>
        <time>2023-05-27T14:54:33Z</time>
      </trkpt>
      <trkpt lat="43.5206" lon="2.12913">
        <ele>202.2</ele>
        <time>2023-05-27T14:54:42Z</time>
      </trkpt>
      <trkpt lat="43.5206" lon="2.12914">
        <ele>202.4</ele>
        <time>2023-05-27T14:54:43Z</time>
      </trkpt>
      <trkpt lat="43.52061" lon="2.12915">
        <ele>202.4</ele>
        <time>2023-05-27T14:54:44Z</time>
      </trkpt>
      <trkpt lat="43.52062" lon="2.12916">
        <ele>202.4</ele>
        <time>2023-05-27T14:54:45Z</time>
      </trkpt>
      <trkpt lat="43.52062" lon="2.12917">
        <ele>202.4</ele>
        <time>2023-05-27T14:54:46Z</time>
      </trkpt>
      <trkpt lat="43.52063" lon="2.12918">
        <ele>202.6</ele>
        <time>2023-05-27T14:54:47Z</time>
      </trkpt>
      <trkpt lat="43.52063" lon="2.12918">
        <ele>202.6</ele>
        <time>2023-05-27T14:54:48Z</time>
      </trkpt>
      <trkpt lat="43.52064" lon="2.12919">
        <ele>202.8</ele>
        <time>2023-05-27T14:54:49Z</time>
      </trkpt>
      <trkpt lat="43.52065" lon="2.12919">
        <ele>202.8</ele>
        <time>2023-05-27T14:54:50Z</time>
      </trkpt>
      <trkpt lat="43.52065" lon="2.1292">
        <ele>203</ele>
        <time>2023-05-27T14:54:51Z</time>
      </trkpt>
      <trkpt lat="43.52066" lon="2.12921">
        <ele>203</ele>
        <time>2023-05-27T14:54:52Z</time>
      </trkpt>
      <trkpt lat="43.52067" lon="2.12921">
        <ele>203.2</ele>
        <time>2023-05-27T14:54:53Z</time>
      </trkpt>
      <trkpt lat="43.52067" lon="2.12921">
        <ele>203.2</ele>
        <time>2023-05-27T14:54:54Z</time>
      </trkpt>
      <trkpt lat="43.52067" lon="2.12921">
        <ele>203.2</ele>
        <time>2023-05-27T14:54:55Z</time>
      </trkpt>
      <trkpt lat="43.52067" lon="2.12921">
        <ele>203.4</ele>
        <time>2023-05-27T14:54:56Z</time>
      </trkpt>
      <trkpt lat="43.52067" lon="2.12921">
        <ele>203.4</ele>
        <time>2023-05-27T14:54:57Z</time>
      </trkpt>
      <trkpt lat="43.52067" lon="2.12921">
        <ele>203.4</ele>
        <time>2023-05-27T14:54:58Z</time>
      </trkpt>
      <trkpt lat="43.52075" lon="2.12931">
        <ele>203.4</ele>
        <time>2023-05-27T14:56:29Z</time>
      </trkpt>
      <trkpt lat="43.52076" lon="2.12933">
        <ele>203.4</ele>
        <time>2023-05-27T14:56:30Z</time>
      </trkpt>
      <trkpt lat="43.52076" lon="2.12933">
        <ele>203.6</ele>
        <time>2023-05-27T14:56:31Z</time>
      </trkpt>
      <trkpt lat="43.52076" lon="2.12934">
        <ele>203.6</ele>
        <time>2023-05-27T14:56:32Z</time>
      </trkpt>
      <trkpt lat="43.52077" lon="2.12934">
        <ele>203.6</ele>
        <time>2023-05-27T14:56:33Z</time>
      </trkpt>
      <trkpt lat="43.52077" lon="2.12935">
        <ele>203.8</ele>
        <time>2023-05-27T14:56:34Z</time>
      </trkpt>
      <trkpt lat="43.52078" lon="2.12937">
        <ele>203.8</ele>
        <time>2023-05-27T14:56:35Z</time>
      </trkpt>
      <trkpt lat="43.52079" lon="2.12938">
        <ele>204</ele>
        <time>2023-05-27T14:56:36Z</time>
      </trkpt>
      <trkpt lat="43.5208" lon="2.1294">
        <ele>204</ele>
        <time>2023-05-27T14:56:37Z</time>
      </trkpt>
      <trkpt lat="43.52081" lon="2.12941">
        <ele>204.2</ele>
        <time>2023-05-27T14:56:38Z</time>
      </trkpt>
      <trkpt lat="43.52082" lon="2.12942">
        <ele>204.2</ele>
        <time>2023-05-27T14:56:39Z</time>
      </trkpt>
      <trkpt lat="43.52083" lon="2.12943">
        <ele>204.4</ele>
        <time>2023-05-27T14:56:40Z</time>
      </trkpt>
      <trkpt lat="43.52084" lon="2.12944">
        <ele>204.4</ele>
        <time>2023-05-27T14:56:41Z</time>
      </trkpt>
      <trkpt lat="43.52085" lon="2.12945">
        <ele>204.6</ele>
        <time>2023-05-27T14:56:42Z</time>
      </trkpt>
      <trkpt lat="43.52085" lon="2.12947">
        <ele>204.8</ele>
        <time>2023-05-27T14:56:43Z</time>
      </trkpt>
      <trkpt lat="43.52086" lon="2.12948">
        <ele>204.8</ele>
        <time>2023-05-27T14:56:44Z</time>
      </trkpt>
      <trkpt lat="43.52087" lon="2.12949">
        <ele>205</ele>
        <time>2023-05-27T14:56:45Z</time>
      </trkpt>
      <trkpt lat="43.52088" lon="2.1295">
        <ele>205</ele>
        <time>2023-05-27T14:56:46Z</time>
      </trkpt>
      <trkpt lat="43.52089" lon="2.12951">
        <ele>205.2</ele>
        <time>2023-05-27T14:56:47Z</time>
      </trkpt>
      <trkpt lat="43.5209" lon="2.12951">
        <ele>205.2</ele>
        <time>2023-05-27T14:56:48Z</time>
      </trkpt>
      <trkpt lat="43.52091" lon="2.12952">
        <ele>205.4</ele>
        <time>2023-05-27T14:56:49Z</time>
      </trkpt>
      <trkpt lat="43.52092" lon="2.12953">
        <ele>205.4</ele>
        <time>2023-05-27T14:56:50Z</time>
      </trkpt>
      <trkpt lat="43.52093" lon="2.12954">
        <ele>205.6</ele>
        <time>2023-05-27T14:56:51Z</time>
      </trkpt>
      <trkpt lat="43.52093" lon="2.12955">
        <ele>205.8</ele>
        <time>2023-05-27T14:56:52Z</time>
      </trkpt>
      <trkpt lat="43.52094" lon="2.12956">
        <ele>205.8</ele>
        <time>2023-05-27T14:56:53Z</time>
      </trkpt>
      <trkpt lat="43.52095" lon="2.12957">
        <ele>206</ele>
        <time>2023-05-27T14:56:54Z</time>
      </trkpt>
      <trkpt lat="43.52096" lon="2.12958">
        <ele>206</ele>
        <time>2023-05-27T14:56:55Z</time>
      </trkpt>
      <trkpt lat="43.52097" lon="2.12959">
        <ele>206.2</ele>
        <time>2023-05-27T14:56:56Z</time>
      </trkpt>
      <trkpt lat="43.52098" lon="2.1296">
        <ele>206.2</ele>
        <time>2023-05-27T14:56:57Z</time>
      </trkpt>
      <trkpt lat="43.52099" lon="2.12961">
        <ele>206.4</ele>
        <time>2023-05-27T14:56:58Z</time>
      </trkpt>
      <trkpt lat="43.52099" lon="2.12963">
        <ele>206.6</ele>
        <time>2023-05-27T14:56:59Z</time>
      </trkpt>
      <trkpt lat="43.521" lon="2.12964">
        <ele>206.6</ele>
        <time>2023-05-27T14:57:00Z</time>
      </trkpt>
      <trkpt lat="43.52101" lon="2.12966">
        <ele>206.8</ele>
        <time>2023-05-27T14:57:01Z</time>
      </trkpt>
      <trkpt lat="43.52102" lon="2.12966">
        <ele>207</ele>
        <time>2023-05-27T14:57:02Z</time>
      </trkpt>
      <trkpt lat="43.52102" lon="2.12967">
        <ele>207</ele>
        <time>2023-05-27T14:57:03Z</time>
      </trkpt>
      <trkpt lat="43.52103" lon="2.12969">
        <ele>207.2</ele>
        <time>2023-05-27T14:57:04Z</time>
      </trkpt>
      <trkpt lat="43.52103" lon="2.1297">
        <ele>207.2</ele>
        <time>2023-05-27T14:57:05Z</time>
      </trkpt>
      <trkpt lat="43.52104" lon="2.12971">
        <ele>207.4</ele>
        <time>2023-05-27T14:57:06Z</time>
      </trkpt>
      <trkpt lat="43.52105" lon="2.12972">
        <ele>207.6</ele>
        <time>2023-05-27T14:57:07Z</time>
      </trkpt>
      <trkpt lat="43.52108" lon="2.12977">
        <ele>208</ele>
        <time>2023-05-27T14:57:27Z</time>
      </trkpt>
      <trkpt lat="43.52109" lon="2.12979">
        <ele>208</ele>
        <time>2023-05-27T14:57:28Z</time>
      </trkpt>
      <trkpt lat="43.52109" lon="2.1298">
        <ele>208</ele>
        <time>2023-05-27T14:57:29Z</time>
      </trkpt>
      <trkpt lat="43.5211" lon="2.12981">
        <ele>208.2</ele>
        <time>2023-05-27T14:57:30Z</time>
      </trkpt>
      <trkpt lat="43.52111" lon="2.12982">
        <ele>208.2</ele>
        <time>2023-05-27T14:57:31Z</time>
      </trkpt>
      <trkpt lat="43.52111" lon="2.12983">
        <ele>208.2</ele>
        <time>2023-05-27T14:57:32Z</time>
      </trkpt>
      <trkpt lat="43.52112" lon="2.12984">
        <ele>208.4</ele>
        <time>2023-05-27T14:57:33Z</time>
      </trkpt>
      <trkpt lat="43.52113" lon="2.12985">
        <ele>208.4</ele>
        <time>2023-05-27T14:57:34Z</time>
      </trkpt>
      <trkpt lat="43.52114" lon="2.12986">
        <ele>208.6</ele>
        <time>2023-05-27T14:57:35Z</time>
      </trkpt>
      <trkpt lat="43.52114" lon="2.12987">
        <ele>208.6</ele>
        <time>2023-05-27T14:57:36Z</time>
      </trkpt>
      <trkpt lat="43.52114" lon="2.12988">
        <ele>208.8</ele>
        <time>2023-05-27T14:57:37Z</time>
      </trkpt>
      <trkpt lat="43.52115" lon="2.12989">
        <ele>208.8</ele>
        <time>2023-05-27T14:57:38Z</time>
      </trkpt>
      <trkpt lat="43.52115" lon="2.12991">
        <ele>209</ele>
        <time>2023-05-27T14:57:39Z</time>
      </trkpt>
      <trkpt lat="43.52116" lon="2.12992">
        <ele>209</ele>
        <time>2023-05-27T14:57:40Z</time>
      </trkpt>
      <trkpt lat="43.52117" lon="2.12993">
        <ele>209.2</ele>
        <time>2023-05-27T14:57:41Z</time>
      </trkpt>
      <trkpt lat="43.52117" lon="2.12995">
        <ele>209.4</ele>
        <time>2023-05-27T14:57:42Z</time>
      </trkpt>
      <trkpt lat="43.52118" lon="2.12996">
        <ele>209.4</ele>
        <time>2023-05-27T14:57:43Z</time>
      </trkpt>
      <trkpt lat="43.52118" lon="2.12997">
        <ele>209.6</ele>
        <time>2023-05-27T14:57:44Z</time>
      </trkpt>
      <trkpt lat="43.52118" lon="2.12998">
        <ele>209.6</ele>
        <time>2023-05-27T14:57:45Z</time>
      </trkpt>
      <trkpt lat="43.52119" lon="2.12999">
        <ele>209.8</ele>
        <time>2023-05-27T14:57:46Z</time>
      </trkpt>
      <trkpt lat="43.5212" lon="2.13">
        <ele>209.8</ele>
        <time>2023-05-27T14:57:47Z</time>
      </trkpt>
      <trkpt lat="43.52121" lon="2.13001">
        <ele>210</ele>
        <time>2023-05-27T14:57:48Z</time>
      </trkpt>
      <trkpt lat="43.52121" lon="2.13001">
        <ele>210</ele>
        <time>2023-05-27T14:57:49Z</time>
      </trkpt>
      <trkpt lat="43.52121" lon="2.13002">
        <ele>210.2</ele>
        <time>2023-05-27T14:57:50Z</time>
      </trkpt>
      <trkpt lat="43.52122" lon="2.13003">
        <ele>210.2</ele>
        <time>2023-05-27T14:57:51Z</time>
      </trkpt>
      <trkpt lat="43.52122" lon="2.13004">
        <ele>210.4</ele>
        <time>2023-05-27T14:57:52Z</time>
      </trkpt>
      <trkpt lat="43.52123" lon="2.13005">
        <ele>210.6</ele>
        <time>2023-05-27T14:57:53Z</time>
      </trkpt>
      <trkpt lat="43.52123" lon="2.13006">
        <ele>210.6</ele>
        <time>2023-05-27T14:57:54Z</time>
      </trkpt>
      <trkpt lat="43.52124" lon="2.13007">
        <ele>210.8</ele>
        <time>2023-05-27T14:57:55Z</time>
      </trkpt>
      <trkpt lat="43.52124" lon="2.13009">
        <ele>210.8</ele>
        <time>2023-05-27T14:57:56Z</time>
      </trkpt>
      <trkpt lat="43.52125" lon="2.1301">
        <ele>211</ele>
        <time>2023-05-27T14:57:57Z</time>
      </trkpt>
      <trkpt lat="43.52125" lon="2.1301">
        <ele>211</ele>
        <time>2023-05-27T14:57:58Z</time>
      </trkpt>
      <trkpt lat="43.52125" lon="2.13011">
        <ele>211.2</ele>
        <time>2023-05-27T14:57:59Z</time>
      </trkpt>
      <trkpt lat="43.52125" lon="2.13011">
        <ele>211.2</ele>
        <time>2023-05-27T14:58:00Z</time>
      </trkpt>
      <trkpt lat="43.52125" lon="2.13011">
        <ele>211.2</ele>
        <time>2023-05-27T14:58:01Z</time>
      </trkpt>
      <trkpt lat="43.52125" lon="2.13011">
        <ele>211.2</ele>
        <time>2023-05-27T14:58:02Z</time>
      </trkpt>
      <trkpt lat="43.52126" lon="2.13013">
        <ele>211.4</ele>
        <time>2023-05-27T14:58:21Z</time>
      </trkpt>
      <trkpt lat="43.52127" lon="2.13014">
        <ele>211.4</ele>
        <time>2023-05-27T14:58:22Z</time>
      </trkpt>
      <trkpt lat="43.52128" lon="2.13015">
        <ele>211.4</ele>
        <time>2023-05-27T14:58:23Z</time>
      </trkpt>
      <trkpt lat="43.52128" lon="2.13017">
        <ele>211.4</ele>
        <time>2023-05-27T14:58:24Z</time>
      </trkpt>
      <trkpt lat="43.52129" lon="2.13018">
        <ele>211.4</ele>
        <time>2023-05-27T14:58:25Z</time>
      </trkpt>
      <trkpt lat="43.52129" lon="2.13019">
        <ele>211.6</ele>
        <time>2023-05-27T14:58:26Z</time>
      </trkpt>
      <trkpt lat="43.5213" lon="2.1302">
        <ele>211.6</ele>
        <time>2023-05-27T14:58:27Z</time>
      </trkpt>
      <trkpt lat="43.52131" lon="2.13022">
        <ele>211.8</ele>
        <time>2023-05-27T14:58:28Z</time>
      </trkpt>
      <trkpt lat="43.52132" lon="2.13023">
        <ele>211.8</ele>
        <time>2023-05-27T14:58:29Z</time>
      </trkpt>
      <trkpt lat="43.52132" lon="2.13024">
        <ele>212</ele>
        <time>2023-05-27T14:58:30Z</time>
      </trkpt>
      <trkpt lat="43.52133" lon="2.13025">
        <ele>212</ele>
        <time>2023-05-27T14:58:31Z</time>
      </trkpt>
      <trkpt lat="43.52134" lon="2.13027">
        <ele>212.2</ele>
        <time>2023-05-27T14:58:32Z</time>
      </trkpt>
      <trkpt lat="43.52135" lon="2.13028">
        <ele>212.2</ele>
        <time>2023-05-27T14:58:33Z</time>
      </trkpt>
      <trkpt lat="43.52135" lon="2.13029">
        <ele>212.4</ele>
        <time>2023-05-27T14:58:34Z</time>
      </trkpt>
      <trkpt lat="43.52136" lon="2.13031">
        <ele>212.4</ele>
        <time>2023-05-27T14:58:35Z</time>
      </trkpt>
      <trkpt lat="43.52137" lon="2.13032">
        <ele>212.6</ele>
        <time>2023-05-27T14:58:36Z</time>
      </trkpt>
      <trkpt lat="43.52137" lon="2.13033">
        <ele>212.6</ele>
        <time>2023-05-27T14:58:37Z</time>
      </trkpt>
      <trkpt lat="43.52138" lon="2.13034">
        <ele>212.8</ele>
        <time>2023-05-27T14:58:38Z</time>
      </trkpt>
      <trkpt lat="43.52139" lon="2.13035">
        <ele>212.8</ele>
        <time>2023-05-27T14:58:39Z</time>
      </trkpt>
      <trkpt lat="43.52139" lon="2.13037">
        <ele>213</ele>
        <time>2023-05-27T14:58:40Z</time>
      </trkpt>
      <trkpt lat="43.5214" lon="2.13038">
        <ele>213</ele>
        <time>2023-05-27T14:58:41Z</time>
      </trkpt>
      <trkpt lat="43.52141" lon="2.1304">
        <ele>213.2</ele>
        <time>2023-05-27T14:58:42Z</time>
      </trkpt>
      <trkpt lat="43.52141" lon="2.13041">
        <ele>213.2</ele>
        <time>2023-05-27T14:58:43Z</time>
      </trkpt>
      <trkpt lat="43.52142" lon="2.13042">
        <ele>213.4</ele>
        <time>2023-05-27T14:58:44Z</time>
      </trkpt>
      <trkpt lat="43.52142" lon="2.13043">
        <ele>213.4</ele>
        <time>2023-05-27T14:58:45Z</time>
      </trkpt>
      <trkpt lat="43.52143" lon="2.13044">
        <ele>213.6</ele>
        <time>2023-05-27T14:58:46Z</time>
      </trkpt>
      <trkpt lat="43.52143" lon="2.13045">
        <ele>213.6</ele>
        <time>2023-05-27T14:58:47Z</time>
      </trkpt>
      <trkpt lat="43.52144" lon="2.13047">
        <ele>213.8</ele>
        <time>2023-05-27T14:58:48Z</time>
      </trkpt>
      <trkpt lat="43.52145" lon="2.13048">
        <ele>213.8</ele>
        <time>2023-05-27T14:58:49Z</time>
      </trkpt>
      <trkpt lat="43.52145" lon="2.13049">
        <ele>213.8</ele>
        <time>2023-05-27T14:58:50Z</time>
      </trkpt>
      <trkpt lat="43.52146" lon="2.1305">
        <ele>214</ele>
        <time>2023-05-27T14:58:51Z</time>
      </trkpt>
      <trkpt lat="43.52146" lon="2.13051">
        <ele>214</ele>
        <time>2023-05-27T14:58:52Z</time>
      </trkpt>
      <trkpt lat="43.52147" lon="2.13052">
        <ele>214.2</ele>
        <time>2023-05-27T14:58:53Z</time>
      </trkpt>
      <trkpt lat="43.52147" lon="2.13053">
        <ele>214.2</ele>
        <time>2023-05-27T14:58:54Z</time>
      </trkpt>
      <trkpt lat="43.52148" lon="2.13054">
        <ele>214.2</ele>
        <time>2023-05-27T14:58:55Z</time>
      </trkpt>
      <trkpt lat="43.52149" lon="2.13056">
        <ele>214.4</ele>
        <time>2023-05-27T14:58:56Z</time>
      </trkpt>
      <trkpt lat="43.5215" lon="2.13057">
        <ele>214.4</ele>
        <time>2023-05-27T14:58:57Z</time>
      </trkpt>
      <trkpt lat="43.5215" lon="2.13059">
        <ele>214.4</ele>
        <time>2023-05-27T14:58:58Z</time>
      </trkpt>
      <trkpt lat="43.52151" lon="2.1306">
        <ele>214.6</ele>
        <time>2023-05-27T14:58:59Z</time>
      </trkpt>
      <trkpt lat="43.52152" lon="2.13062">
        <ele>214.6</ele>
        <time>2023-05-27T14:59:00Z</time>
      </trkpt>
      <trkpt lat="43.52153" lon="2.13064">
        <ele>214.6</ele>
        <time>2023-05-27T14:59:01Z</time>
      </trkpt>
      <trkpt lat="43.52153" lon="2.13065">
        <ele>214.8</ele>
        <time>2023-05-27T14:59:02Z</time>
      </trkpt>
      <trkpt lat="43.52154" lon="2.13066">
        <ele>214.8</ele>
        <time>2023-05-27T14:59:03Z</time>
      </trkpt>
      <trkpt lat="43.52155" lon="2.13068">
        <ele>214.8</ele>
        <time>2023-05-27T14:59:04Z</time>
      </trkpt>
      <trkpt lat="43.52155" lon="2.13069">
        <ele>215</ele>
        <time>2023-05-27T14:59:05Z</time>
      </trkpt>
      <trkpt lat="43.52156" lon="2.1307">
        <ele>215</ele>
        <time>2023-05-27T14:59:06Z</time>
      </trkpt>
      <trkpt lat="43.52157" lon="2.13072">
        <ele>215</ele>
        <time>2023-05-27T14:59:07Z</time>
      </trkpt>
      <trkpt lat="43.52158" lon="2.13073">
        <ele>215.2</ele>
        <time>2023-05-27T14:59:08Z</time>
      </trkpt>
      <trkpt lat="43.52158" lon="2.13075">
        <ele>215.2</ele>
        <time>2023-05-27T14:59:09Z</time>
      </trkpt>
      <trkpt lat="43.52159" lon="2.13076">
        <ele>215.4</ele>
        <time>2023-05-27T14:59:10Z</time>
      </trkpt>
      <trkpt lat="43.52159" lon="2.13077">
        <ele>215.4</ele>
        <time>2023-05-27T14:59:11Z</time>
      </trkpt>
      <trkpt lat="43.5216" lon="2.13078">
        <ele>215.4</ele>
        <time>2023-05-27T14:59:12Z</time>
      </trkpt>
      <trkpt lat="43.52161" lon="2.13079">
        <ele>215.6</ele>
        <time>2023-05-27T14:59:13Z</time>
      </trkpt>
      <trkpt lat="43.52162" lon="2.13081">
        <ele>215.6</ele>
        <time>2023-05-27T14:59:14Z</time>
      </trkpt>
      <trkpt lat="43.52162" lon="2.13082">
        <ele>215.6</ele>
        <time>2023-05-27T14:59:15Z</time>
      </trkpt>
      <trkpt lat="43.52163" lon="2.13083">
        <ele>215.6</ele>
        <time>2023-05-27T14:59:16Z</time>
      </trkpt>
      <trkpt lat="43.52164" lon="2.13084">
        <ele>215.8</ele>
        <time>2023-05-27T14:59:17Z</time>
      </trkpt>
      <trkpt lat="43.52165" lon="2.13086">
        <ele>215.8</ele>
        <time>2023-05-27T14:59:18Z</time>
      </trkpt>
      <trkpt lat="43.52166" lon="2.13087">
        <ele>216</ele>
        <time>2023-05-27T14:59:19Z</time>
      </trkpt>
      <trkpt lat="43.52166" lon="2.13088">
        <ele>216</ele>
        <time>2023-05-27T14:59:20Z</time>
      </trkpt>
      <trkpt lat="43.52167" lon="2.13089">
        <ele>216</ele>
        <time>2023-05-27T14:59:21Z</time>
      </trkpt>
      <trkpt lat="43.52168" lon="2.1309">
        <ele>216.2</ele>
        <time>2023-05-27T14:59:22Z</time>
      </trkpt>
      <trkpt lat="43.52169" lon="2.13092">
        <ele>216.2</ele>
        <time>2023-05-27T14:59:23Z</time>
      </trkpt>
      <trkpt lat="43.52169" lon="2.13093">
        <ele>216.2</ele>
        <time>2023-05-27T14:59:24Z</time>
      </trkpt>
      <trkpt lat="43.5217" lon="2.13094">
        <ele>216.4</ele>
        <time>2023-05-27T14:59:25Z</time>
      </trkpt>
      <trkpt lat="43.52171" lon="2.13095">
        <ele>216.4</ele>
        <time>2023-05-27T14:59:26Z</time>
      </trkpt>
      <trkpt lat="43.52171" lon="2.13096">
        <ele>216.4</ele>
        <time>2023-05-27T14:59:27Z</time>
      </trkpt>
      <trkpt lat="43.52172" lon="2.13097">
        <ele>216.6</ele>
        <time>2023-05-27T14:59:28Z</time>
      </trkpt>
      <trkpt lat="43.52173" lon="2.13098">
        <ele>216.6</ele>
        <time>2023-05-27T14:59:29Z</time>
      </trkpt>
      <trkpt lat="43.52174" lon="2.131">
        <ele>216.8</ele>
        <time>2023-05-27T14:59:30Z</time>
      </trkpt>
      <trkpt lat="43.52174" lon="2.13101">
        <ele>216.8</ele>
        <time>2023-05-27T14:59:31Z</time>
      </trkpt>
      <trkpt lat="43.52175" lon="2.13102">
        <ele>216.8</ele>
        <time>2023-05-27T14:59:32Z</time>
      </trkpt>
      <trkpt lat="43.52176" lon="2.13103">
        <ele>217</ele>
        <time>2023-05-27T14:59:33Z</time>
      </trkpt>
      <trkpt lat="43.52177" lon="2.13104">
        <ele>217</ele>
        <time>2023-05-27T14:59:34Z</time>
      </trkpt>
      <trkpt lat="43.52178" lon="2.13106">
        <ele>217.2</ele>
        <time>2023-05-27T14:59:35Z</time>
      </trkpt>
      <trkpt lat="43.52178" lon="2.13107">
        <ele>217.2</ele>
        <time>2023-05-27T14:59:36Z</time>
      </trkpt>
      <trkpt lat="43.52179" lon="2.13108">
        <ele>217.4</ele>
        <time>2023-05-27T14:59:37Z</time>
      </trkpt>
      <trkpt lat="43.5218" lon="2.13109">
        <ele>217.4</ele>
        <time>2023-05-27T14:59:38Z</time>
      </trkpt>
      <trkpt lat="43.5218" lon="2.13111">
        <ele>217.4</ele>
        <time>2023-05-27T14:59:39Z</time>
      </trkpt>
      <trkpt lat="43.52181" lon="2.13112">
        <ele>217.6</ele>
        <time>2023-05-27T14:59:40Z</time>
      </trkpt>
      <trkpt lat="43.52181" lon="2.13114">
        <ele>217.6</ele>
        <time>2023-05-27T14:59:41Z</time>
      </trkpt>
      <trkpt lat="43.52182" lon="2.13115">
        <ele>217.6</ele>
        <time>2023-05-27T14:59:42Z</time>
      </trkpt>
      <trkpt lat="43.52183" lon="2.13116">
        <ele>217.8</ele>
        <time>2023-05-27T14:59:43Z</time>
      </trkpt>
      <trkpt lat="43.52183" lon="2.13117">
        <ele>217.8</ele>
        <time>2023-05-27T14:59:44Z</time>
      </trkpt>
      <trkpt lat="43.52184" lon="2.13118">
        <ele>217.8</ele>
        <time>2023-05-27T14:59:45Z</time>
      </trkpt>
      <trkpt lat="43.52185" lon="2.13119">
        <ele>218</ele>
        <time>2023-05-27T14:59:46Z</time>
      </trkpt>
      <trkpt lat="43.52185" lon="2.1312">
        <ele>218</ele>
        <time>2023-05-27T14:59:47Z</time>
      </trkpt>
      <trkpt lat="43.52186" lon="2.13122">
        <ele>218.2</ele>
        <time>2023-05-27T14:59:48Z</time>
      </trkpt>
      <trkpt lat="43.52187" lon="2.13123">
        <ele>218.2</ele>
        <time>2023-05-27T14:59:49Z</time>
      </trkpt>
      <trkpt lat="43.52188" lon="2.13124">
        <ele>218.2</ele>
        <time>2023-05-27T14:59:50Z</time>
      </trkpt>
      <trkpt lat="43.52188" lon="2.13125">
        <ele>218.4</ele>
        <time>2023-05-27T14:59:51Z</time>
      </trkpt>
      <trkpt lat="43.52189" lon="2.13127">
        <ele>218.4</ele>
        <time>2023-05-27T14:59:52Z</time>
      </trkpt>
      <trkpt lat="43.5219" lon="2.13128">
        <ele>218.4</ele>
        <time>2023-05-27T14:59:53Z</time>
      </trkpt>
      <trkpt lat="43.5219" lon="2.13129">
        <ele>218.6</ele>
        <time>2023-05-27T14:59:54Z</time>
      </trkpt>
      <trkpt lat="43.52191" lon="2.1313">
        <ele>218.6</ele>
        <time>2023-05-27T14:59:55Z</time>
      </trkpt>
      <trkpt lat="43.52192" lon="2.13131">
        <ele>218.8</ele>
        <time>2023-05-27T14:59:56Z</time>
      </trkpt>
      <trkpt lat="43.52193" lon="2.13132">
        <ele>218.8</ele>
        <time>2023-05-27T14:59:57Z</time>
      </trkpt>
      <trkpt lat="43.52193" lon="2.13133">
        <ele>218.8</ele>
        <time>2023-05-27T14:59:58Z</time>
      </trkpt>
      <trkpt lat="43.52194" lon="2.13135">
        <ele>219</ele>
        <time>2023-05-27T14:59:59Z</time>
      </trkpt>
      <trkpt lat="43.52195" lon="2.13136">
        <ele>219</ele>
        <time>2023-05-27T15:00:00Z</time>
      </trkpt>
      <trkpt lat="43.52196" lon="2.13137">
        <ele>219</ele>
        <time>2023-05-27T15:00:01Z</time>
      </trkpt>
      <trkpt lat="43.52197" lon="2.13138">
        <ele>219.2</ele>
        <time>2023-05-27T15:00:02Z</time>
      </trkpt>
      <trkpt lat="43.52198" lon="2.1314">
        <ele>219.2</ele>
        <time>2023-05-27T15:00:03Z</time>
      </trkpt>
      <trkpt lat="43.52198" lon="2.13141">
        <ele>219.2</ele>
        <time>2023-05-27T15:00:04Z</time>
      </trkpt>
      <trkpt lat="43.52199" lon="2.13142">
        <ele>219.4</ele>
        <time>2023-05-27T15:00:05Z</time>
      </trkpt>
      <trkpt lat="43.522" lon="2.13144">
        <ele>219.4</ele>
        <time>2023-05-27T15:00:06Z</time>
      </trkpt>
      <trkpt lat="43.52201" lon="2.13145">
        <ele>219.4</ele>
        <time>2023-05-27T15:00:07Z</time>
      </trkpt>
      <trkpt lat="43.52201" lon="2.13146">
        <ele>219.6</ele>
        <time>2023-05-27T15:00:08Z</time>
      </trkpt>
      <trkpt lat="43.52202" lon="2.13147">
        <ele>219.6</ele>
        <time>2023-05-27T15:00:09Z</time>
      </trkpt>
      <trkpt lat="43.52203" lon="2.13149">
        <ele>219.6</ele>
        <time>2023-05-27T15:00:10Z</time>
      </trkpt>
      <trkpt lat="43.52204" lon="2.1315">
        <ele>219.8</ele>
        <time>2023-05-27T15:00:11Z</time>
      </trkpt>
      <trkpt lat="43.52204" lon="2.13151">
        <ele>219.8</ele>
        <time>2023-05-27T15:00:12Z</time>
      </trkpt>
      <trkpt lat="43.52205" lon="2.13152">
        <ele>220</ele>
        <time>2023-05-27T15:00:13Z</time>
      </trkpt>
      <trkpt lat="43.52206" lon="2.13153">
        <ele>220</ele>
        <time>2023-05-27T15:00:14Z</time>
      </trkpt>
      <trkpt lat="43.52207" lon="2.13154">
        <ele>220</ele>
        <time>2023-05-27T15:00:15Z</time>
      </trkpt>
      <trkpt lat="43.52208" lon="2.13155">
        <ele>220.2</ele>
        <time>2023-05-27T15:00:16Z</time>
      </trkpt>
      <trkpt lat="43.52209" lon="2.13156">
        <ele>220.2</ele>
        <time>2023-05-27T15:00:17Z</time>
      </trkpt>
      <trkpt lat="43.5221" lon="2.13157">
        <ele>220.2</ele>
        <time>2023-05-27T15:00:18Z</time>
      </trkpt>
      <trkpt lat="43.52211" lon="2.13159">
        <ele>220.4</ele>
        <time>2023-05-27T15:00:19Z</time>
      </trkpt>
      <trkpt lat="43.52211" lon="2.1316">
        <ele>220.4</ele>
        <time>2023-05-27T15:00:20Z</time>
      </trkpt>
      <trkpt lat="43.52212" lon="2.13161">
        <ele>220.4</ele>
        <time>2023-05-27T15:00:21Z</time>
      </trkpt>
      <trkpt lat="43.52213" lon="2.13163">
        <ele>220.6</ele>
        <time>2023-05-27T15:00:22Z</time>
      </trkpt>
      <trkpt lat="43.52213" lon="2.13164">
        <ele>220.6</ele>
        <time>2023-05-27T15:00:23Z</time>
      </trkpt>
      <trkpt lat="43.52214" lon="2.13165">
        <ele>220.6</ele>
        <time>2023-05-27T15:00:24Z</time>
      </trkpt>
      <trkpt lat="43.52215" lon="2.13166">
        <ele>220.6</ele>
        <time>2023-05-27T15:00:25Z</time>
      </trkpt>
      <trkpt lat="43.52216" lon="2.13167">
        <ele>220.8</ele>
        <time>2023-05-27T15:00:26Z</time>
      </trkpt>
      <trkpt lat="43.52216" lon="2.13169">
        <ele>220.8</ele>
        <time>2023-05-27T15:00:27Z</time>
      </trkpt>
      <trkpt lat="43.52217" lon="2.1317">
        <ele>220.8</ele>
        <time>2023-05-27T15:00:28Z</time>
      </trkpt>
      <trkpt lat="43.52218" lon="2.13171">
        <ele>220.8</ele>
        <time>2023-05-27T15:00:29Z</time>
      </trkpt>
      <trkpt lat="43.52219" lon="2.13172">
        <ele>221</ele>
        <time>2023-05-27T15:00:30Z</time>
      </trkpt>
      <trkpt lat="43.52219" lon="2.13173">
        <ele>221</ele>
        <time>2023-05-27T15:00:31Z</time>
      </trkpt>
      <trkpt lat="43.5222" lon="2.13174">
        <ele>221</ele>
        <time>2023-05-27T15:00:32Z</time>
      </trkpt>
      <trkpt lat="43.5222" lon="2.13176">
        <ele>221</ele>
        <time>2023-05-27T15:00:33Z</time>
      </trkpt>
      <trkpt lat="43.52221" lon="2.13177">
        <ele>221</ele>
        <time>2023-05-27T15:00:34Z</time>
      </trkpt>
      <trkpt lat="43.52222" lon="2.13178">
        <ele>221</ele>
        <time>2023-05-27T15:00:35Z</time>
      </trkpt>
      <trkpt lat="43.52222" lon="2.1318">
        <ele>221.2</ele>
        <time>2023-05-27T15:00:36Z</time>
      </trkpt>
      <trkpt lat="43.52223" lon="2.13181">
        <ele>221.2</ele>
        <time>2023-05-27T15:00:37Z</time>
      </trkpt>
      <trkpt lat="43.52224" lon="2.13182">
        <ele>221.2</ele>
        <time>2023-05-27T15:00:38Z</time>
      </trkpt>
      <trkpt lat="43.52225" lon="2.13183">
        <ele>221.2</ele>
        <time>2023-05-27T15:00:39Z</time>
      </trkpt>
      <trkpt lat="43.52226" lon="2.13184">
        <ele>221.2</ele>
        <time>2023-05-27T15:00:40Z</time>
      </trkpt>
      <trkpt lat="43.52227" lon="2.13185">
        <ele>221.2</ele>
        <time>2023-05-27T15:00:41Z</time>
      </trkpt>
      <trkpt lat="43.52227" lon="2.13186">
        <ele>221.2</ele>
        <time>2023-05-27T15:00:42Z</time>
      </trkpt>
      <trkpt lat="43.52228" lon="2.13187">
        <ele>221.2</ele>
        <time>2023-05-27T15:00:43Z</time>
      </trkpt>
      <trkpt lat="43.52228" lon="2.13189">
        <ele>221.4</ele>
        <time>2023-05-27T15:00:44Z</time>
      </trkpt>
      <trkpt lat="43.52229" lon="2.1319">
        <ele>221.4</ele>
        <time>2023-05-27T15:00:45Z</time>
      </trkpt>
      <trkpt lat="43.5223" lon="2.13191">
        <ele>221.4</ele>
        <time>2023-05-27T15:00:46Z</time>
      </trkpt>
      <trkpt lat="43.52231" lon="2.13192">
        <ele>221.4</ele>
        <time>2023-05-27T15:00:47Z</time>
      </trkpt>
      <trkpt lat="43.52232" lon="2.13193">
        <ele>221.4</ele>
        <time>2023-05-27T15:00:48Z</time>
      </trkpt>
      <trkpt lat="43.52233" lon="2.13194">
        <ele>221.4</ele>
        <time>2023-05-27T15:00:49Z</time>
      </trkpt>
      <trkpt lat="43.52233" lon="2.13196">
        <ele>221.4</ele>
        <time>2023-05-27T15:00:50Z</time>
      </trkpt>
      <trkpt lat="43.52234" lon="2.13197">
        <ele>221.4</ele>
        <time>2023-05-27T15:00:51Z</time>
      </trkpt>
      <trkpt lat="43.52235" lon="2.13198">
        <ele>221.4</ele>
        <time>2023-05-27T15:00:52Z</time>
      </trkpt>
      <trkpt lat="43.52236" lon="2.132">
        <ele>221.4</ele>
        <time>2023-05-27T15:00:53Z</time>
      </trkpt>
      <trkpt lat="43.52237" lon="2.13201">
        <ele>221.6</ele>
        <time>2023-05-27T15:00:54Z</time>
      </trkpt>
      <trkpt lat="43.52238" lon="2.13202">
        <ele>221.6</ele>
        <time>2023-05-27T15:00:55Z</time>
      </trkpt>
      <trkpt lat="43.52239" lon="2.13203">
        <ele>221.6</ele>
        <time>2023-05-27T15:00:56Z</time>
      </trkpt>
      <trkpt lat="43.5224" lon="2.13204">
        <ele>221.6</ele>
        <time>2023-05-27T15:00:57Z</time>
      </trkpt>
      <trkpt lat="43.52241" lon="2.13206">
        <ele>221.6</ele>
        <time>2023-05-27T15:00:58Z</time>
      </trkpt>
      <trkpt lat="43.52241" lon="2.13207">
        <ele>221.6</ele>
        <time>2023-05-27T15:00:59Z</time>
      </trkpt>
      <trkpt lat="43.52242" lon="2.13208">
        <ele>221.6</ele>
        <time>2023-05-27T15:01:00Z</time>
      </trkpt>
      <trkpt lat="43.52242" lon="2.13209">
        <ele>221.6</ele>
        <time>2023-05-27T15:01:01Z</time>
      </trkpt>
      <trkpt lat="43.52243" lon="2.13211">
        <ele>221.6</ele>
        <time>2023-05-27T15:01:02Z</time>
      </trkpt>
      <trkpt lat="43.52244" lon="2.13212">
        <ele>221.6</ele>
        <time>2023-05-27T15:01:03Z</time>
      </trkpt>
      <trkpt lat="43.52245" lon="2.13213">
        <ele>221.6</ele>
        <time>2023-05-27T15:01:04Z</time>
      </trkpt>
      <trkpt lat="43.52245" lon="2.13214">
        <ele>221.6</ele>
        <time>2023-05-27T15:01:05Z</time>
      </trkpt>
      <trkpt lat="43.52246" lon="2.13215">
        <ele>221.6</ele>
        <time>2023-05-27T15:01:06Z</time>
      </trkpt>
      <trkpt lat="43.52247" lon="2.13216">
        <ele>221.6</ele>
        <time>2023-05-27T15:01:07Z</time>
      </trkpt>
      <trkpt lat="43.52248" lon="2.13218">
        <ele>221.6</ele>
        <time>2023-05-27T15:01:08Z</time>
      </trkpt>
      <trkpt lat="43.52249" lon="2.13219">
        <ele>221.6</ele>
        <time>2023-05-27T15:01:09Z</time>
      </trkpt>
      <trkpt lat="43.52249" lon="2.1322">
        <ele>221.6</ele>
        <time>2023-05-27T15:01:10Z</time>
      </trkpt>
      <trkpt lat="43.5225" lon="2.13221">
        <ele>221.6</ele>
        <time>2023-05-27T15:01:11Z</time>
      </trkpt>
      <trkpt lat="43.52251" lon="2.13223">
        <ele>221.6</ele>
        <time>2023-05-27T15:01:12Z</time>
      </trkpt>
      <trkpt lat="43.52251" lon="2.13224">
        <ele>221.6</ele>
        <time>2023-05-27T15:01:13Z</time>
      </trkpt>
      <trkpt lat="43.52252" lon="2.13225">
        <ele>221.6</ele>
        <time>2023-05-27T15:01:14Z</time>
      </trkpt>
      <trkpt lat="43.52252" lon="2.13226">
        <ele>221.6</ele>
        <time>2023-05-27T15:01:15Z</time>
      </trkpt>
      <trkpt lat="43.52253" lon="2.13227">
        <ele>221.6</ele>
        <time>2023-05-27T15:01:16Z</time>
      </trkpt>
      <trkpt lat="43.52253" lon="2.13229">
        <ele>221.6</ele>
        <time>2023-05-27T15:01:17Z</time>
      </trkpt>
      <trkpt lat="43.52254" lon="2.1323">
        <ele>221.6</ele>
        <time>2023-05-27T15:01:18Z</time>
      </trkpt>
      <trkpt lat="43.52254" lon="2.1323">
        <ele>221.6</ele>
        <time>2023-05-27T15:01:19Z</time>
      </trkpt>
      <trkpt lat="43.52256" lon="2.13235">
        <ele>221.6</ele>
        <time>2023-05-27T15:01:58Z</time>
      </trkpt>
      <trkpt lat="43.52256" lon="2.13236">
        <ele>221.6</ele>
        <time>2023-05-27T15:01:59Z</time>
      </trkpt>
      <trkpt lat="43.52257" lon="2.13238">
        <ele>221.6</ele>
        <time>2023-05-27T15:02:00Z</time>
      </trkpt>
      <trkpt lat="43.52258" lon="2.13239">
        <ele>221.6</ele>
        <time>2023-05-27T15:02:01Z</time>
      </trkpt>
      <trkpt lat="43.52259" lon="2.13241">
        <ele>221.6</ele>
        <time>2023-05-27T15:02:02Z</time>
      </trkpt>
      <trkpt lat="43.5226" lon="2.13243">
        <ele>221.6</ele>
        <time>2023-05-27T15:02:03Z</time>
      </trkpt>
      <trkpt lat="43.52261" lon="2.13245">
        <ele>221.6</ele>
        <time>2023-05-27T15:02:04Z</time>
      </trkpt>
      <trkpt lat="43.52262" lon="2.13246">
        <ele>221.6</ele>
        <time>2023-05-27T15:02:05Z</time>
      </trkpt>
      <trkpt lat="43.52264" lon="2.13248">
        <ele>221.6</ele>
        <time>2023-05-27T15:02:06Z</time>
      </trkpt>
      <trkpt lat="43.52265" lon="2.1325">
        <ele>221.6</ele>
        <time>2023-05-27T15:02:07Z</time>
      </trkpt>
      <trkpt lat="43.52267" lon="2.13253">
        <ele>221.6</ele>
        <time>2023-05-27T15:02:08Z</time>
      </trkpt>
      <trkpt lat="43.52268" lon="2.13256">
        <ele>221.6</ele>
        <time>2023-05-27T15:02:09Z</time>
      </trkpt>
      <trkpt lat="43.52269" lon="2.13259">
        <ele>221.6</ele>
        <time>2023-05-27T15:02:10Z</time>
      </trkpt>
      <trkpt lat="43.5227" lon="2.13261">
        <ele>221.6</ele>
        <time>2023-05-27T15:02:11Z</time>
      </trkpt>
      <trkpt lat="43.52272" lon="2.13264">
        <ele>221.6</ele>
        <time>2023-05-27T15:02:12Z</time>
      </trkpt>
      <trkpt lat="43.52273" lon="2.13266">
        <ele>221.6</ele>
        <time>2023-05-27T15:02:13Z</time>
      </trkpt>
      <trkpt lat="43.52274" lon="2.13267">
        <ele>221.6</ele>
        <time>2023-05-27T15:02:14Z</time>
      </trkpt>
      <trkpt lat="43.52276" lon="2.13268">
        <ele>221.6</ele>
        <time>2023-05-27T15:02:15Z</time>
      </trkpt>
      <trkpt lat="43.52278" lon="2.1327">
        <ele>221.6</ele>
        <time>2023-05-27T15:02:16Z</time>
      </trkpt>
      <trkpt lat="43.52279" lon="2.13272">
        <ele>221.6</ele>
        <time>2023-05-27T15:02:17Z</time>
      </trkpt>
      <trkpt lat="43.52282" lon="2.13275">
        <ele>221.4</ele>
        <time>2023-05-27T15:02:18Z</time>
      </trkpt>
      <trkpt lat="43.52284" lon="2.1328">
        <ele>221.2</ele>
        <time>2023-05-27T15:02:19Z</time>
      </trkpt>
      <trkpt lat="43.52287" lon="2.13285">
        <ele>221</ele>
        <time>2023-05-27T15:02:20Z</time>
      </trkpt>
      <trkpt lat="43.5229" lon="2.13292">
        <ele>220.6</ele>
        <time>2023-05-27T15:02:21Z</time>
      </trkpt>
      <trkpt lat="43.52294" lon="2.13299">
        <ele>220.2</ele>
        <time>2023-05-27T15:02:22Z</time>
      </trkpt>
      <trkpt lat="43.52297" lon="2.13306">
        <ele>219.8</ele>
        <time>2023-05-27T15:02:23Z</time>
      </trkpt>
      <trkpt lat="43.52301" lon="2.13315">
        <ele>219.4</ele>
        <time>2023-05-27T15:02:24Z</time>
      </trkpt>
      <trkpt lat="43.52305" lon="2.13323">
        <ele>219</ele>
        <time>2023-05-27T15:02:25Z</time>
      </trkpt>
      <trkpt lat="43.52309" lon="2.13332">
        <ele>218.6</ele>
        <time>2023-05-27T15:02:26Z</time>
      </trkpt>
      <trkpt lat="43.52313" lon="2.13341">
        <ele>218.4</ele>
        <time>2023-05-27T15:02:27Z</time>
      </trkpt>
      <trkpt lat="43.52317" lon="2.1335">
        <ele>218.2</ele>
        <time>2023-05-27T15:02:28Z</time>
      </trkpt>
      <trkpt lat="43.52321" lon="2.13359">
        <ele>218</ele>
        <time>2023-05-27T15:02:29Z</time>
      </trkpt>
      <trkpt lat="43.52325" lon="2.13367">
        <ele>217.8</ele>
        <time>2023-05-27T15:02:30Z</time>
      </trkpt>
      <trkpt lat="43.52329" lon="2.13375">
        <ele>217.6</ele>
        <time>2023-05-27T15:02:31Z</time>
      </trkpt>
      <trkpt lat="43.52333" lon="2.13383">
        <ele>217.4</ele>
        <time>2023-05-27T15:02:32Z</time>
      </trkpt>
      <trkpt lat="43.52337" lon="2.1339">
        <ele>217.4</ele>
        <time>2023-05-27T15:02:33Z</time>
      </trkpt>
      <trkpt lat="43.5234" lon="2.13397">
        <ele>217.2</ele>
        <time>2023-05-27T15:02:34Z</time>
      </trkpt>
      <trkpt lat="43.52344" lon="2.13405">
        <ele>217</ele>
        <time>2023-05-27T15:02:35Z</time>
      </trkpt>
      <trkpt lat="43.52348" lon="2.13412">
        <ele>217</ele>
        <time>2023-05-27T15:02:36Z</time>
      </trkpt>
      <trkpt lat="43.52352" lon="2.13419">
        <ele>216.8</ele>
        <time>2023-05-27T15:02:37Z</time>
      </trkpt>
      <trkpt lat="43.52355" lon="2.13425">
        <ele>216.8</ele>
        <time>2023-05-27T15:02:38Z</time>
      </trkpt>
      <trkpt lat="43.52359" lon="2.13432">
        <ele>216.8</ele>
        <time>2023-05-27T15:02:39Z</time>
      </trkpt>
      <trkpt lat="43.52362" lon="2.13439">
        <ele>216.6</ele>
        <time>2023-05-27T15:02:40Z</time>
      </trkpt>
      <trkpt lat="43.52366" lon="2.13445">
        <ele>216.6</ele>
        <time>2023-05-27T15:02:41Z</time>
      </trkpt>
      <trkpt lat="43.52369" lon="2.13451">
        <ele>216.4</ele>
        <time>2023-05-27T15:02:42Z</time>
      </trkpt>
      <trkpt lat="43.52372" lon="2.13458">
        <ele>216.4</ele>
        <time>2023-05-27T15:02:43Z</time>
      </trkpt>
      <trkpt lat="43.52376" lon="2.13464">
        <ele>216.4</ele>
        <time>2023-05-27T15:02:44Z</time>
      </trkpt>
      <trkpt lat="43.52379" lon="2.1347">
        <ele>216.2</ele>
        <time>2023-05-27T15:02:45Z</time>
      </trkpt>
      <trkpt lat="43.52382" lon="2.13476">
        <ele>216.2</ele>
        <time>2023-05-27T15:02:46Z</time>
      </trkpt>
      <trkpt lat="43.52385" lon="2.13482">
        <ele>216</ele>
        <time>2023-05-27T15:02:47Z</time>
      </trkpt>
      <trkpt lat="43.52389" lon="2.13488">
        <ele>216</ele>
        <time>2023-05-27T15:02:48Z</time>
      </trkpt>
      <trkpt lat="43.52392" lon="2.13494">
        <ele>215.8</ele>
        <time>2023-05-27T15:02:49Z</time>
      </trkpt>
      <trkpt lat="43.52395" lon="2.13501">
        <ele>215.8</ele>
        <time>2023-05-27T15:02:50Z</time>
      </trkpt>
      <trkpt lat="43.52398" lon="2.13507">
        <ele>215.6</ele>
        <time>2023-05-27T15:02:51Z</time>
      </trkpt>
      <trkpt lat="43.52401" lon="2.13513">
        <ele>215.4</ele>
        <time>2023-05-27T15:02:52Z</time>
      </trkpt>
      <trkpt lat="43.52405" lon="2.1352">
        <ele>215.4</ele>
        <time>2023-05-27T15:02:53Z</time>
      </trkpt>
      <trkpt lat="43.52409" lon="2.13527">
        <ele>215.2</ele>
        <time>2023-05-27T15:02:54Z</time>
      </trkpt>
      <trkpt lat="43.52412" lon="2.13533">
        <ele>215</ele>
        <time>2023-05-27T15:02:55Z</time>
      </trkpt>
      <trkpt lat="43.52416" lon="2.1354">
        <ele>215</ele>
        <time>2023-05-27T15:02:56Z</time>
      </trkpt>
      <trkpt lat="43.5242" lon="2.13547">
        <ele>214.8</ele>
        <time>2023-05-27T15:02:57Z</time>
      </trkpt>
      <trkpt lat="43.52423" lon="2.13554">
        <ele>214.8</ele>
        <time>2023-05-27T15:02:58Z</time>
      </trkpt>
      <trkpt lat="43.52427" lon="2.13561">
        <ele>214.6</ele>
        <time>2023-05-27T15:02:59Z</time>
      </trkpt>
      <trkpt lat="43.52431" lon="2.13568">
        <ele>214.4</ele>
        <time>2023-05-27T15:03:00Z</time>
      </trkpt>
      <trkpt lat="43.52435" lon="2.13575">
        <ele>214.4</ele>
        <time>2023-05-27T15:03:01Z</time>
      </trkpt>
      <trkpt lat="43.52439" lon="2.13582">
        <ele>214.2</ele>
        <time>2023-05-27T15:03:02Z</time>
      </trkpt>
      <trkpt lat="43.52443" lon="2.13588">
        <ele>214</ele>
        <time>2023-05-27T15:03:03Z</time>
      </trkpt>
      <trkpt lat="43.52447" lon="2.13595">
        <ele>214</ele>
        <time>2023-05-27T15:03:04Z</time>
      </trkpt>
      <trkpt lat="43.52452" lon="2.13601">
        <ele>213.8</ele>
        <time>2023-05-27T15:03:05Z</time>
      </trkpt>
      <trkpt lat="43.52456" lon="2.13607">
        <ele>213.8</ele>
        <time>2023-05-27T15:03:06Z</time>
      </trkpt>
      <trkpt lat="43.5246" lon="2.13613">
        <ele>213.6</ele>
        <time>2023-05-27T15:03:07Z</time>
      </trkpt>
      <trkpt lat="43.52464" lon="2.13619">
        <ele>213.6</ele>
        <time>2023-05-27T15:03:08Z</time>
      </trkpt>
      <trkpt lat="43.52468" lon="2.13625">
        <ele>213.6</ele>
        <time>2023-05-27T15:03:09Z</time>
      </trkpt>
      <trkpt lat="43.52472" lon="2.13631">
        <ele>213.6</ele>
        <time>2023-05-27T15:03:10Z</time>
      </trkpt>
      <trkpt lat="43.52476" lon="2.13636">
        <ele>213.6</ele>
        <time>2023-05-27T15:03:11Z</time>
      </trkpt>
      <trkpt lat="43.5248" lon="2.13642">
        <ele>213.4</ele>
        <time>2023-05-27T15:03:12Z</time>
      </trkpt>
      <trkpt lat="43.52483" lon="2.13647">
        <ele>213.4</ele>
        <time>2023-05-27T15:03:13Z</time>
      </trkpt>
      <trkpt lat="43.52487" lon="2.13652">
        <ele>213.4</ele>
        <time>2023-05-27T15:03:14Z</time>
      </trkpt>
      <trkpt lat="43.52491" lon="2.13658">
        <ele>213.4</ele>
        <time>2023-05-27T15:03:15Z</time>
      </trkpt>
      <trkpt lat="43.52495" lon="2.13663">
        <ele>213.6</ele>
        <time>2023-05-27T15:03:16Z</time>
      </trkpt>
      <trkpt lat="43.52498" lon="2.13668">
        <ele>213.6</ele>
        <time>2023-05-27T15:03:17Z</time>
      </trkpt>
      <trkpt lat="43.52501" lon="2.13673">
        <ele>213.4</ele>
        <time>2023-05-27T15:03:18Z</time>
      </trkpt>
      <trkpt lat="43.52505" lon="2.13679">
        <ele>213.4</ele>
        <time>2023-05-27T15:03:19Z</time>
      </trkpt>
      <trkpt lat="43.52508" lon="2.13683">
        <ele>213.4</ele>
        <time>2023-05-27T15:03:20Z</time>
      </trkpt>
      <trkpt lat="43.52511" lon="2.13688">
        <ele>213.2</ele>
        <time>2023-05-27T15:03:21Z</time>
      </trkpt>
      <trkpt lat="43.52515" lon="2.13693">
        <ele>213.2</ele>
        <time>2023-05-27T15:03:22Z</time>
      </trkpt>
      <trkpt lat="43.52518" lon="2.13698">
        <ele>213.2</ele>
        <time>2023-05-27T15:03:23Z</time>
      </trkpt>
      <trkpt lat="43.52521" lon="2.13702">
        <ele>213.2</ele>
        <time>2023-05-27T15:03:24Z</time>
      </trkpt>
      <trkpt lat="43.52524" lon="2.13707">
        <ele>213.2</ele>
        <time>2023-05-27T15:03:25Z</time>
      </trkpt>
      <trkpt lat="43.52527" lon="2.13712">
        <ele>213.2</ele>
        <time>2023-05-27T15:03:26Z</time>
      </trkpt>
      <trkpt lat="43.52529" lon="2.13717">
        <ele>213.2</ele>
        <time>2023-05-27T15:03:27Z</time>
      </trkpt>
      <trkpt lat="43.52532" lon="2.13722">
        <ele>213.2</ele>
        <time>2023-05-27T15:03:28Z</time>
      </trkpt>
      <trkpt lat="43.52535" lon="2.13727">
        <ele>213.2</ele>
        <time>2023-05-27T15:03:29Z</time>
      </trkpt>
      <trkpt lat="43.52537" lon="2.13732">
        <ele>213.2</ele>
        <time>2023-05-27T15:03:30Z</time>
      </trkpt>
      <trkpt lat="43.52539" lon="2.13737">
        <ele>213.2</ele>
        <time>2023-05-27T15:03:31Z</time>
      </trkpt>
      <trkpt lat="43.52542" lon="2.13742">
        <ele>213.2</ele>
        <time>2023-05-27T15:03:32Z</time>
      </trkpt>
      <trkpt lat="43.52545" lon="2.13747">
        <ele>213.2</ele>
        <time>2023-05-27T15:03:33Z</time>
      </trkpt>
      <trkpt lat="43.52547" lon="2.13752">
        <ele>213.2</ele>
        <time>2023-05-27T15:03:34Z</time>
      </trkpt>
      <trkpt lat="43.5255" lon="2.13757">
        <ele>213.2</ele>
        <time>2023-05-27T15:03:35Z</time>
      </trkpt>
      <trkpt lat="43.52552" lon="2.13762">
        <ele>213.4</ele>
        <time>2023-05-27T15:03:36Z</time>
      </trkpt>
      <trkpt lat="43.52554" lon="2.13767">
        <ele>213.4</ele>
        <time>2023-05-27T15:03:37Z</time>
      </trkpt>
      <trkpt lat="43.52556" lon="2.13772">
        <ele>213.4</ele>
        <time>2023-05-27T15:03:38Z</time>
      </trkpt>
      <trkpt lat="43.52558" lon="2.13777">
        <ele>213.4</ele>
        <time>2023-05-27T15:03:39Z</time>
      </trkpt>
      <trkpt lat="43.52561" lon="2.13781">
        <ele>213.2</ele>
        <time>2023-05-27T15:03:40Z</time>
      </trkpt>
      <trkpt lat="43.52563" lon="2.13786">
        <ele>213.4</ele>
        <time>2023-05-27T15:03:41Z</time>
      </trkpt>
      <trkpt lat="43.52565" lon="2.13791">
        <ele>213.4</ele>
        <time>2023-05-27T15:03:42Z</time>
      </trkpt>
      <trkpt lat="43.52567" lon="2.13796">
        <ele>213.2</ele>
        <time>2023-05-27T15:03:43Z</time>
      </trkpt>
      <trkpt lat="43.5257" lon="2.13801">
        <ele>213.4</ele>
        <time>2023-05-27T15:03:44Z</time>
      </trkpt>
      <trkpt lat="43.52572" lon="2.13806">
        <ele>213.4</ele>
        <time>2023-05-27T15:03:45Z</time>
      </trkpt>
      <trkpt lat="43.52575" lon="2.13812">
        <ele>213.4</ele>
        <time>2023-05-27T15:03:46Z</time>
      </trkpt>
      <trkpt lat="43.52577" lon="2.13817">
        <ele>213.4</ele>
        <time>2023-05-27T15:03:47Z</time>
      </trkpt>
      <trkpt lat="43.52579" lon="2.13822">
        <ele>213.4</ele>
        <time>2023-05-27T15:03:48Z</time>
      </trkpt>
      <trkpt lat="43.52581" lon="2.13827">
        <ele>213.4</ele>
        <time>2023-05-27T15:03:49Z</time>
      </trkpt>
      <trkpt lat="43.52584" lon="2.13832">
        <ele>213.4</ele>
        <time>2023-05-27T15:03:50Z</time>
      </trkpt>
      <trkpt lat="43.52586" lon="2.13837">
        <ele>213.4</ele>
        <time>2023-05-27T15:03:51Z</time>
      </trkpt>
      <trkpt lat="43.52588" lon="2.13842">
        <ele>213.4</ele>
        <time>2023-05-27T15:03:52Z</time>
      </trkpt>
      <trkpt lat="43.5259" lon="2.13847">
        <ele>213.4</ele>
        <time>2023-05-27T15:03:53Z</time>
      </trkpt>
      <trkpt lat="43.52592" lon="2.13852">
        <ele>213.4</ele>
        <time>2023-05-27T15:03:54Z</time>
      </trkpt>
      <trkpt lat="43.52594" lon="2.13857">
        <ele>213.4</ele>
        <time>2023-05-27T15:03:55Z</time>
      </trkpt>
      <trkpt lat="43.52596" lon="2.13862">
        <ele>213.4</ele>
        <time>2023-05-27T15:03:56Z</time>
      </trkpt>
      <trkpt lat="43.52598" lon="2.13867">
        <ele>213.4</ele>
        <time>2023-05-27T15:03:57Z</time>
      </trkpt>
      <trkpt lat="43.526" lon="2.13872">
        <ele>213.4</ele>
        <time>2023-05-27T15:03:58Z</time>
      </trkpt>
      <trkpt lat="43.52601" lon="2.13877">
        <ele>213.4</ele>
        <time>2023-05-27T15:03:59Z</time>
      </trkpt>
      <trkpt lat="43.52604" lon="2.13881">
        <ele>213.4</ele>
        <time>2023-05-27T15:04:00Z</time>
      </trkpt>
      <trkpt lat="43.52606" lon="2.13887">
        <ele>213.4</ele>
        <time>2023-05-27T15:04:01Z</time>
      </trkpt>
      <trkpt lat="43.52608" lon="2.13892">
        <ele>213.4</ele>
        <time>2023-05-27T15:04:02Z</time>
      </trkpt>
      <trkpt lat="43.5261" lon="2.13897">
        <ele>213.6</ele>
        <time>2023-05-27T15:04:03Z</time>
      </trkpt>
      <trkpt lat="43.52612" lon="2.13902">
        <ele>213.6</ele>
        <time>2023-05-27T15:04:04Z</time>
      </trkpt>
      <trkpt lat="43.52614" lon="2.13907">
        <ele>213.6</ele>
        <time>2023-05-27T15:04:05Z</time>
      </trkpt>
      <trkpt lat="43.52616" lon="2.13912">
        <ele>213.6</ele>
        <time>2023-05-27T15:04:06Z</time>
      </trkpt>
      <trkpt lat="43.52618" lon="2.13917">
        <ele>213.6</ele>
        <time>2023-05-27T15:04:07Z</time>
      </trkpt>
      <trkpt lat="43.5262" lon="2.13922">
        <ele>213.4</ele>
        <time>2023-05-27T15:04:08Z</time>
      </trkpt>
      <trkpt lat="43.52623" lon="2.13928">
        <ele>213.4</ele>
        <time>2023-05-27T15:04:09Z</time>
      </trkpt>
      <trkpt lat="43.52625" lon="2.13933">
        <ele>213.4</ele>
        <time>2023-05-27T15:04:10Z</time>
      </trkpt>
      <trkpt lat="43.52627" lon="2.13938">
        <ele>213.2</ele>
        <time>2023-05-27T15:04:11Z</time>
      </trkpt>
      <trkpt lat="43.5263" lon="2.13944">
        <ele>213.2</ele>
        <time>2023-05-27T15:04:12Z</time>
      </trkpt>
      <trkpt lat="43.52632" lon="2.1395">
        <ele>213</ele>
        <time>2023-05-27T15:04:13Z</time>
      </trkpt>
      <trkpt lat="43.52635" lon="2.13956">
        <ele>213</ele>
        <time>2023-05-27T15:04:14Z</time>
      </trkpt>
      <trkpt lat="43.52637" lon="2.13962">
        <ele>212.8</ele>
        <time>2023-05-27T15:04:15Z</time>
      </trkpt>
      <trkpt lat="43.52639" lon="2.13968">
        <ele>212.8</ele>
        <time>2023-05-27T15:04:16Z</time>
      </trkpt>
      <trkpt lat="43.52642" lon="2.13974">
        <ele>212.8</ele>
        <time>2023-05-27T15:04:17Z</time>
      </trkpt>
      <trkpt lat="43.52645" lon="2.1398">
        <ele>212.6</ele>
        <time>2023-05-27T15:04:18Z</time>
      </trkpt>
      <trkpt lat="43.52648" lon="2.13986">
        <ele>212.6</ele>
        <time>2023-05-27T15:04:19Z</time>
      </trkpt>
      <trkpt lat="43.5265" lon="2.13991">
        <ele>212.4</ele>
        <time>2023-05-27T15:04:20Z</time>
      </trkpt>
      <trkpt lat="43.52653" lon="2.13996">
        <ele>212.4</ele>
        <time>2023-05-27T15:04:21Z</time>
      </trkpt>
      <trkpt lat="43.52656" lon="2.14002">
        <ele>212.2</ele>
        <time>2023-05-27T15:04:22Z</time>
      </trkpt>
      <trkpt lat="43.5266" lon="2.14007">
        <ele>212.2</ele>
        <time>2023-05-27T15:04:23Z</time>
      </trkpt>
      <trkpt lat="43.52663" lon="2.14013">
        <ele>212.2</ele>
        <time>2023-05-27T15:04:24Z</time>
      </trkpt>
      <trkpt lat="43.52666" lon="2.14018">
        <ele>212</ele>
        <time>2023-05-27T15:04:25Z</time>
      </trkpt>
      <trkpt lat="43.5267" lon="2.14023">
        <ele>212</ele>
        <time>2023-05-27T15:04:26Z</time>
      </trkpt>
      <trkpt lat="43.52674" lon="2.14028">
        <ele>212</ele>
        <time>2023-05-27T15:04:27Z</time>
      </trkpt>
      <trkpt lat="43.52678" lon="2.14033">
        <ele>211.8</ele>
        <time>2023-05-27T15:04:28Z</time>
      </trkpt>
      <trkpt lat="43.52682" lon="2.14038">
        <ele>211.6</ele>
        <time>2023-05-27T15:04:29Z</time>
      </trkpt>
      <trkpt lat="43.52686" lon="2.14043">
        <ele>211.6</ele>
        <time>2023-05-27T15:04:30Z</time>
      </trkpt>
      <trkpt lat="43.5269" lon="2.14048">
        <ele>211.4</ele>
        <time>2023-05-27T15:04:31Z</time>
      </trkpt>
      <trkpt lat="43.52694" lon="2.14054">
        <ele>211.2</ele>
        <time>2023-05-27T15:04:32Z</time>
      </trkpt>
      <trkpt lat="43.52697" lon="2.1406">
        <ele>211.2</ele>
        <time>2023-05-27T15:04:33Z</time>
      </trkpt>
      <trkpt lat="43.52701" lon="2.14067">
        <ele>211</ele>
        <time>2023-05-27T15:04:34Z</time>
      </trkpt>
      <trkpt lat="43.52703" lon="2.14073">
        <ele>211</ele>
        <time>2023-05-27T15:04:35Z</time>
      </trkpt>
      <trkpt lat="43.52706" lon="2.1408">
        <ele>210.8</ele>
        <time>2023-05-27T15:04:36Z</time>
      </trkpt>
      <trkpt lat="43.52708" lon="2.14087">
        <ele>210.8</ele>
        <time>2023-05-27T15:04:37Z</time>
      </trkpt>
      <trkpt lat="43.52709" lon="2.14095">
        <ele>210.6</ele>
        <time>2023-05-27T15:04:38Z</time>
      </trkpt>
      <trkpt lat="43.5271" lon="2.14102">
        <ele>210.6</ele>
        <time>2023-05-27T15:04:39Z</time>
      </trkpt>
      <trkpt lat="43.5271" lon="2.1411">
        <ele>210.6</ele>
        <time>2023-05-27T15:04:40Z</time>
      </trkpt>
      <trkpt lat="43.52711" lon="2.14117">
        <ele>210.6</ele>
        <time>2023-05-27T15:04:41Z</time>
      </trkpt>
      <trkpt lat="43.52711" lon="2.14124">
        <ele>210.6</ele>
        <time>2023-05-27T15:04:42Z</time>
      </trkpt>
      <trkpt lat="43.52712" lon="2.14131">
        <ele>210.4</ele>
        <time>2023-05-27T15:04:43Z</time>
      </trkpt>
      <trkpt lat="43.52712" lon="2.14138">
        <ele>210.4</ele>
        <time>2023-05-27T15:04:44Z</time>
      </trkpt>
      <trkpt lat="43.52713" lon="2.14145">
        <ele>210.4</ele>
        <time>2023-05-27T15:04:45Z</time>
      </trkpt>
      <trkpt lat="43.52713" lon="2.14152">
        <ele>210.4</ele>
        <time>2023-05-27T15:04:46Z</time>
      </trkpt>
      <trkpt lat="43.52713" lon="2.14159">
        <ele>210.4</ele>
        <time>2023-05-27T15:04:47Z</time>
      </trkpt>
      <trkpt lat="43.52713" lon="2.14166">
        <ele>210.4</ele>
        <time>2023-05-27T15:04:48Z</time>
      </trkpt>
      <trkpt lat="43.52713" lon="2.14172">
        <ele>210.4</ele>
        <time>2023-05-27T15:04:49Z</time>
      </trkpt>
      <trkpt lat="43.52713" lon="2.14179">
        <ele>210.4</ele>
        <time>2023-05-27T15:04:50Z</time>
      </trkpt>
      <trkpt lat="43.52714" lon="2.14186">
        <ele>210.4</ele>
        <time>2023-05-27T15:04:51Z</time>
      </trkpt>
      <trkpt lat="43.52714" lon="2.14193">
        <ele>210.4</ele>
        <time>2023-05-27T15:04:52Z</time>
      </trkpt>
      <trkpt lat="43.52714" lon="2.14199">
        <ele>210.4</ele>
        <time>2023-05-27T15:04:53Z</time>
      </trkpt>
      <trkpt lat="43.52714" lon="2.14206">
        <ele>210.4</ele>
        <time>2023-05-27T15:04:54Z</time>
      </trkpt>
      <trkpt lat="43.52714" lon="2.14212">
        <ele>210.4</ele>
        <time>2023-05-27T15:04:55Z</time>
      </trkpt>
      <trkpt lat="43.52714" lon="2.14219">
        <ele>210.4</ele>
        <time>2023-05-27T15:04:56Z</time>
      </trkpt>
      <trkpt lat="43.52714" lon="2.14225">
        <ele>210.4</ele>
        <time>2023-05-27T15:04:57Z</time>
      </trkpt>
      <trkpt lat="43.52714" lon="2.14231">
        <ele>210.2</ele>
        <time>2023-05-27T15:04:58Z</time>
      </trkpt>
      <trkpt lat="43.52713" lon="2.14237">
        <ele>210.2</ele>
        <time>2023-05-27T15:04:59Z</time>
      </trkpt>
      <trkpt lat="43.52713" lon="2.14242">
        <ele>210.2</ele>
        <time>2023-05-27T15:05:00Z</time>
      </trkpt>
      <trkpt lat="43.52712" lon="2.14248">
        <ele>210.2</ele>
        <time>2023-05-27T15:05:01Z</time>
      </trkpt>
      <trkpt lat="43.52712" lon="2.14253">
        <ele>210.2</ele>
        <time>2023-05-27T15:05:02Z</time>
      </trkpt>
      <trkpt lat="43.52712" lon="2.14259">
        <ele>210.2</ele>
        <time>2023-05-27T15:05:03Z</time>
      </trkpt>
      <trkpt lat="43.52712" lon="2.14264">
        <ele>210.2</ele>
        <time>2023-05-27T15:05:04Z</time>
      </trkpt>
      <trkpt lat="43.52711" lon="2.14269">
        <ele>210.2</ele>
        <time>2023-05-27T15:05:05Z</time>
      </trkpt>
      <trkpt lat="43.5271" lon="2.14274">
        <ele>210.2</ele>
        <time>2023-05-27T15:05:06Z</time>
      </trkpt>
      <trkpt lat="43.52709" lon="2.14278">
        <ele>210.2</ele>
        <time>2023-05-27T15:05:07Z</time>
      </trkpt>
      <trkpt lat="43.52709" lon="2.14282">
        <ele>210.2</ele>
        <time>2023-05-27T15:05:08Z</time>
      </trkpt>
      <trkpt lat="43.52708" lon="2.14287">
        <ele>210.2</ele>
        <time>2023-05-27T15:05:09Z</time>
      </trkpt>
      <trkpt lat="43.52708" lon="2.14292">
        <ele>210.2</ele>
        <time>2023-05-27T15:05:10Z</time>
      </trkpt>
      <trkpt lat="43.52707" lon="2.14297">
        <ele>210.2</ele>
        <time>2023-05-27T15:05:11Z</time>
      </trkpt>
      <trkpt lat="43.52706" lon="2.14302">
        <ele>210.2</ele>
        <time>2023-05-27T15:05:12Z</time>
      </trkpt>
      <trkpt lat="43.52706" lon="2.14307">
        <ele>210.2</ele>
        <time>2023-05-27T15:05:13Z</time>
      </trkpt>
      <trkpt lat="43.52705" lon="2.14312">
        <ele>210.2</ele>
        <time>2023-05-27T15:05:14Z</time>
      </trkpt>
      <trkpt lat="43.52705" lon="2.14317">
        <ele>210.2</ele>
        <time>2023-05-27T15:05:15Z</time>
      </trkpt>
      <trkpt lat="43.52705" lon="2.14322">
        <ele>210.2</ele>
        <time>2023-05-27T15:05:16Z</time>
      </trkpt>
      <trkpt lat="43.52704" lon="2.14327">
        <ele>210.2</ele>
        <time>2023-05-27T15:05:17Z</time>
      </trkpt>
      <trkpt lat="43.52704" lon="2.14332">
        <ele>210.4</ele>
        <time>2023-05-27T15:05:18Z</time>
      </trkpt>
      <trkpt lat="43.52703" lon="2.14337">
        <ele>210.4</ele>
        <time>2023-05-27T15:05:19Z</time>
      </trkpt>
      <trkpt lat="43.52704" lon="2.14342">
        <ele>210.4</ele>
        <time>2023-05-27T15:05:20Z</time>
      </trkpt>
      <trkpt lat="43.52704" lon="2.14347">
        <ele>210.4</ele>
        <time>2023-05-27T15:05:21Z</time>
      </trkpt>
      <trkpt lat="43.52705" lon="2.14352">
        <ele>210.4</ele>
        <time>2023-05-27T15:05:22Z</time>
      </trkpt>
      <trkpt lat="43.52705" lon="2.14357">
        <ele>210.4</ele>
        <time>2023-05-27T15:05:23Z</time>
      </trkpt>
      <trkpt lat="43.52707" lon="2.14362">
        <ele>210.6</ele>
        <time>2023-05-27T15:05:24Z</time>
      </trkpt>
      <trkpt lat="43.52708" lon="2.14367">
        <ele>210.6</ele>
        <time>2023-05-27T15:05:25Z</time>
      </trkpt>
      <trkpt lat="43.52709" lon="2.14372">
        <ele>210.6</ele>
        <time>2023-05-27T15:05:26Z</time>
      </trkpt>
      <trkpt lat="43.52711" lon="2.14376">
        <ele>210.6</ele>
        <time>2023-05-27T15:05:27Z</time>
      </trkpt>
      <trkpt lat="43.52712" lon="2.1438">
        <ele>210.6</ele>
        <time>2023-05-27T15:05:28Z</time>
      </trkpt>
      <trkpt lat="43.52714" lon="2.14384">
        <ele>210.8</ele>
        <time>2023-05-27T15:05:29Z</time>
      </trkpt>
      <trkpt lat="43.52716" lon="2.14388">
        <ele>210.8</ele>
        <time>2023-05-27T15:05:30Z</time>
      </trkpt>
      <trkpt lat="43.52717" lon="2.14392">
        <ele>210.8</ele>
        <time>2023-05-27T15:05:31Z</time>
      </trkpt>
      <trkpt lat="43.52719" lon="2.14397">
        <ele>210.8</ele>
        <time>2023-05-27T15:05:32Z</time>
      </trkpt>
      <trkpt lat="43.52721" lon="2.14401">
        <ele>210.8</ele>
        <time>2023-05-27T15:05:33Z</time>
      </trkpt>
      <trkpt lat="43.52723" lon="2.14406">
        <ele>210.8</ele>
        <time>2023-05-27T15:05:34Z</time>
      </trkpt>
      <trkpt lat="43.52725" lon="2.1441">
        <ele>210.8</ele>
        <time>2023-05-27T15:05:35Z</time>
      </trkpt>
      <trkpt lat="43.52727" lon="2.14414">
        <ele>210.8</ele>
        <time>2023-05-27T15:05:36Z</time>
      </trkpt>
      <trkpt lat="43.52729" lon="2.14419">
        <ele>210.8</ele>
        <time>2023-05-27T15:05:37Z</time>
      </trkpt>
      <trkpt lat="43.52732" lon="2.14423">
        <ele>210.8</ele>
        <time>2023-05-27T15:05:38Z</time>
      </trkpt>
      <trkpt lat="43.52734" lon="2.14428">
        <ele>210.8</ele>
        <time>2023-05-27T15:05:39Z</time>
      </trkpt>
      <trkpt lat="43.52736" lon="2.14433">
        <ele>210.8</ele>
        <time>2023-05-27T15:05:40Z</time>
      </trkpt>
      <trkpt lat="43.52738" lon="2.14438">
        <ele>210.8</ele>
        <time>2023-05-27T15:05:41Z</time>
      </trkpt>
      <trkpt lat="43.52741" lon="2.14443">
        <ele>210.8</ele>
        <time>2023-05-27T15:05:42Z</time>
      </trkpt>
      <trkpt lat="43.52743" lon="2.14448">
        <ele>210.8</ele>
        <time>2023-05-27T15:05:43Z</time>
      </trkpt>
      <trkpt lat="43.52746" lon="2.14454">
        <ele>210.8</ele>
        <time>2023-05-27T15:05:44Z</time>
      </trkpt>
      <trkpt lat="43.52748" lon="2.14459">
        <ele>210.8</ele>
        <time>2023-05-27T15:05:45Z</time>
      </trkpt>
      <trkpt lat="43.52751" lon="2.14464">
        <ele>210.8</ele>
        <time>2023-05-27T15:05:46Z</time>
      </trkpt>
      <trkpt lat="43.52753" lon="2.1447">
        <ele>210.8</ele>
        <time>2023-05-27T15:05:47Z</time>
      </trkpt>
      <trkpt lat="43.52756" lon="2.14476">
        <ele>210.8</ele>
        <time>2023-05-27T15:05:48Z</time>
      </trkpt>
      <trkpt lat="43.52758" lon="2.14481">
        <ele>210.8</ele>
        <time>2023-05-27T15:05:49Z</time>
      </trkpt>
      <trkpt lat="43.5276" lon="2.14487">
        <ele>210.8</ele>
        <time>2023-05-27T15:05:50Z</time>
      </trkpt>
      <trkpt lat="43.52763" lon="2.14492">
        <ele>210.8</ele>
        <time>2023-05-27T15:05:51Z</time>
      </trkpt>
      <trkpt lat="43.52765" lon="2.14497">
        <ele>210.8</ele>
        <time>2023-05-27T15:05:52Z</time>
      </trkpt>
      <trkpt lat="43.52768" lon="2.14502">
        <ele>210.8</ele>
        <time>2023-05-27T15:05:53Z</time>
      </trkpt>
      <trkpt lat="43.5277" lon="2.14507">
        <ele>210.8</ele>
        <time>2023-05-27T15:05:54Z</time>
      </trkpt>
      <trkpt lat="43.52773" lon="2.14512">
        <ele>210.8</ele>
        <time>2023-05-27T15:05:55Z</time>
      </trkpt>
      <trkpt lat="43.52775" lon="2.14517">
        <ele>210.8</ele>
        <time>2023-05-27T15:05:56Z</time>
      </trkpt>
      <trkpt lat="43.52778" lon="2.14522">
        <ele>210.8</ele>
        <time>2023-05-27T15:05:57Z</time>
      </trkpt>
      <trkpt lat="43.5278" lon="2.14527">
        <ele>210.6</ele>
        <time>2023-05-27T15:05:58Z</time>
      </trkpt>
      <trkpt lat="43.52782" lon="2.14532">
        <ele>210.8</ele>
        <time>2023-05-27T15:05:59Z</time>
      </trkpt>
      <trkpt lat="43.52784" lon="2.14537">
        <ele>210.8</ele>
        <time>2023-05-27T15:06:00Z</time>
      </trkpt>
      <trkpt lat="43.52786" lon="2.14541">
        <ele>210.8</ele>
        <time>2023-05-27T15:06:01Z</time>
      </trkpt>
      <trkpt lat="43.52788" lon="2.14546">
        <ele>210.8</ele>
        <time>2023-05-27T15:06:02Z</time>
      </trkpt>
      <trkpt lat="43.5279" lon="2.1455">
        <ele>210.8</ele>
        <time>2023-05-27T15:06:03Z</time>
      </trkpt>
      <trkpt lat="43.52793" lon="2.14555">
        <ele>210.8</ele>
        <time>2023-05-27T15:06:04Z</time>
      </trkpt>
      <trkpt lat="43.52795" lon="2.1456">
        <ele>210.8</ele>
        <time>2023-05-27T15:06:05Z</time>
      </trkpt>
      <trkpt lat="43.52797" lon="2.14565">
        <ele>210.8</ele>
        <time>2023-05-27T15:06:06Z</time>
      </trkpt>
      <trkpt lat="43.52799" lon="2.14569">
        <ele>211</ele>
        <time>2023-05-27T15:06:07Z</time>
      </trkpt>
      <trkpt lat="43.52802" lon="2.14573">
        <ele>211</ele>
        <time>2023-05-27T15:06:08Z</time>
      </trkpt>
      <trkpt lat="43.52804" lon="2.14576">
        <ele>211</ele>
        <time>2023-05-27T15:06:09Z</time>
      </trkpt>
      <trkpt lat="43.52806" lon="2.1458">
        <ele>211</ele>
        <time>2023-05-27T15:06:10Z</time>
      </trkpt>
      <trkpt lat="43.52808" lon="2.14583">
        <ele>211</ele>
        <time>2023-05-27T15:06:11Z</time>
      </trkpt>
      <trkpt lat="43.52811" lon="2.14587">
        <ele>211</ele>
        <time>2023-05-27T15:06:12Z</time>
      </trkpt>
      <trkpt lat="43.52814" lon="2.14591">
        <ele>211</ele>
        <time>2023-05-27T15:06:13Z</time>
      </trkpt>
      <trkpt lat="43.52818" lon="2.14595">
        <ele>210.8</ele>
        <time>2023-05-27T15:06:14Z</time>
      </trkpt>
      <trkpt lat="43.52822" lon="2.14599">
        <ele>210.8</ele>
        <time>2023-05-27T15:06:15Z</time>
      </trkpt>
      <trkpt lat="43.52826" lon="2.14603">
        <ele>210.6</ele>
        <time>2023-05-27T15:06:16Z</time>
      </trkpt>
      <trkpt lat="43.5283" lon="2.14607">
        <ele>210.6</ele>
        <time>2023-05-27T15:06:17Z</time>
      </trkpt>
      <trkpt lat="43.52835" lon="2.14611">
        <ele>210.4</ele>
        <time>2023-05-27T15:06:18Z</time>
      </trkpt>
      <trkpt lat="43.52839" lon="2.14615">
        <ele>210.4</ele>
        <time>2023-05-27T15:06:19Z</time>
      </trkpt>
      <trkpt lat="43.52843" lon="2.1462">
        <ele>210.4</ele>
        <time>2023-05-27T15:06:20Z</time>
      </trkpt>
      <trkpt lat="43.52847" lon="2.14624">
        <ele>210.2</ele>
        <time>2023-05-27T15:06:21Z</time>
      </trkpt>
      <trkpt lat="43.52851" lon="2.14629">
        <ele>210</ele>
        <time>2023-05-27T15:06:22Z</time>
      </trkpt>
      <trkpt lat="43.52855" lon="2.14634">
        <ele>210</ele>
        <time>2023-05-27T15:06:23Z</time>
      </trkpt>
      <trkpt lat="43.52859" lon="2.14639">
        <ele>209.8</ele>
        <time>2023-05-27T15:06:24Z</time>
      </trkpt>
      <trkpt lat="43.52863" lon="2.14645">
        <ele>209.6</ele>
        <time>2023-05-27T15:06:25Z</time>
      </trkpt>
      <trkpt lat="43.52866" lon="2.14652">
        <ele>209.4</ele>
        <time>2023-05-27T15:06:26Z</time>
      </trkpt>
      <trkpt lat="43.52869" lon="2.1466">
        <ele>209.4</ele>
        <time>2023-05-27T15:06:27Z</time>
      </trkpt>
      <trkpt lat="43.52871" lon="2.14668">
        <ele>209.2</ele>
        <time>2023-05-27T15:06:28Z</time>
      </trkpt>
      <trkpt lat="43.52874" lon="2.14675">
        <ele>209</ele>
        <time>2023-05-27T15:06:29Z</time>
      </trkpt>
      <trkpt lat="43.52878" lon="2.14681">
        <ele>208.8</ele>
        <time>2023-05-27T15:06:30Z</time>
      </trkpt>
      <trkpt lat="43.52883" lon="2.14685">
        <ele>208.6</ele>
        <time>2023-05-27T15:06:31Z</time>
      </trkpt>
      <trkpt lat="43.52887" lon="2.14688">
        <ele>208.4</ele>
        <time>2023-05-27T15:06:32Z</time>
      </trkpt>
      <trkpt lat="43.52893" lon="2.14691">
        <ele>208.4</ele>
        <time>2023-05-27T15:06:33Z</time>
      </trkpt>
      <trkpt lat="43.52899" lon="2.14693">
        <ele>208.4</ele>
        <time>2023-05-27T15:06:34Z</time>
      </trkpt>
      <trkpt lat="43.52904" lon="2.14695">
        <ele>208.2</ele>
        <time>2023-05-27T15:06:35Z</time>
      </trkpt>
      <trkpt lat="43.5291" lon="2.14696">
        <ele>208.2</ele>
        <time>2023-05-27T15:06:36Z</time>
      </trkpt>
      <trkpt lat="43.52915" lon="2.14698">
        <ele>208.2</ele>
        <time>2023-05-27T15:06:37Z</time>
      </trkpt>
      <trkpt lat="43.5292" lon="2.14701">
        <ele>208.2</ele>
        <time>2023-05-27T15:06:38Z</time>
      </trkpt>
      <trkpt lat="43.52925" lon="2.14704">
        <ele>208.2</ele>
        <time>2023-05-27T15:06:39Z</time>
      </trkpt>
      <trkpt lat="43.5293" lon="2.14707">
        <ele>208.2</ele>
        <time>2023-05-27T15:06:40Z</time>
      </trkpt>
      <trkpt lat="43.52934" lon="2.1471">
        <ele>208.2</ele>
        <time>2023-05-27T15:06:41Z</time>
      </trkpt>
      <trkpt lat="43.52938" lon="2.14714">
        <ele>208</ele>
        <time>2023-05-27T15:06:42Z</time>
      </trkpt>
      <trkpt lat="43.52942" lon="2.14717">
        <ele>208</ele>
        <time>2023-05-27T15:06:43Z</time>
      </trkpt>
      <trkpt lat="43.52946" lon="2.1472">
        <ele>207.8</ele>
        <time>2023-05-27T15:06:44Z</time>
      </trkpt>
      <trkpt lat="43.5295" lon="2.14723">
        <ele>207.8</ele>
        <time>2023-05-27T15:06:45Z</time>
      </trkpt>
      <trkpt lat="43.52954" lon="2.14725">
        <ele>207.8</ele>
        <time>2023-05-27T15:06:46Z</time>
      </trkpt>
      <trkpt lat="43.52958" lon="2.14728">
        <ele>207.8</ele>
        <time>2023-05-27T15:06:47Z</time>
      </trkpt>
      <trkpt lat="43.52962" lon="2.14732">
        <ele>207.6</ele>
        <time>2023-05-27T15:06:48Z</time>
      </trkpt>
      <trkpt lat="43.52966" lon="2.14736">
        <ele>207.6</ele>
        <time>2023-05-27T15:06:49Z</time>
      </trkpt>
      <trkpt lat="43.5297" lon="2.14741">
        <ele>207.4</ele>
        <time>2023-05-27T15:06:50Z</time>
      </trkpt>
      <trkpt lat="43.52974" lon="2.14745">
        <ele>207.4</ele>
        <time>2023-05-27T15:06:51Z</time>
      </trkpt>
      <trkpt lat="43.52977" lon="2.14749">
        <ele>207.2</ele>
        <time>2023-05-27T15:06:52Z</time>
      </trkpt>
      <trkpt lat="43.52981" lon="2.14754">
        <ele>207.2</ele>
        <time>2023-05-27T15:06:53Z</time>
      </trkpt>
      <trkpt lat="43.52985" lon="2.14759">
        <ele>207.2</ele>
        <time>2023-05-27T15:06:54Z</time>
      </trkpt>
      <trkpt lat="43.52989" lon="2.14765">
        <ele>207.2</ele>
        <time>2023-05-27T15:06:55Z</time>
      </trkpt>
      <trkpt lat="43.52992" lon="2.1477">
        <ele>207.2</ele>
        <time>2023-05-27T15:06:56Z</time>
      </trkpt>
      <trkpt lat="43.52996" lon="2.14775">
        <ele>207.2</ele>
        <time>2023-05-27T15:06:57Z</time>
      </trkpt>
      <trkpt lat="43.53" lon="2.14781">
        <ele>207.2</ele>
        <time>2023-05-27T15:06:58Z</time>
      </trkpt>
      <trkpt lat="43.53003" lon="2.14787">
        <ele>207.2</ele>
        <time>2023-05-27T15:06:59Z</time>
      </trkpt>
      <trkpt lat="43.53005" lon="2.1479">
        <ele>207.2</ele>
        <time>2023-05-27T15:07:00Z</time>
      </trkpt>
      <trkpt lat="43.53006" lon="2.14793">
        <ele>207.2</ele>
        <time>2023-05-27T15:07:01Z</time>
      </trkpt>
      <trkpt lat="43.53009" lon="2.14799">
        <ele>207.2</ele>
        <time>2023-05-27T15:07:02Z</time>
      </trkpt>
      <trkpt lat="43.53013" lon="2.14811">
        <ele>207.2</ele>
        <time>2023-05-27T15:07:03Z</time>
      </trkpt>
      <trkpt lat="43.53015" lon="2.14817">
        <ele>207.2</ele>
        <time>2023-05-27T15:07:04Z</time>
      </trkpt>
      <trkpt lat="43.53017" lon="2.14822">
        <ele>207.2</ele>
        <time>2023-05-27T15:07:05Z</time>
      </trkpt>
      <trkpt lat="43.53019" lon="2.14829">
        <ele>207.2</ele>
        <time>2023-05-27T15:07:06Z</time>
      </trkpt>
      <trkpt lat="43.53021" lon="2.14835">
        <ele>207.2</ele>
        <time>2023-05-27T15:07:07Z</time>
      </trkpt>
      <trkpt lat="43.53023" lon="2.1484">
        <ele>207.2</ele>
        <time>2023-05-27T15:07:08Z</time>
      </trkpt>
      <trkpt lat="43.53025" lon="2.14846">
        <ele>207.2</ele>
        <time>2023-05-27T15:07:09Z</time>
      </trkpt>
      <trkpt lat="43.53027" lon="2.14852">
        <ele>207.2</ele>
        <time>2023-05-27T15:07:10Z</time>
      </trkpt>
      <trkpt lat="43.53029" lon="2.14857">
        <ele>207.2</ele>
        <time>2023-05-27T15:07:11Z</time>
      </trkpt>
      <trkpt lat="43.53031" lon="2.14863">
        <ele>207.2</ele>
        <time>2023-05-27T15:07:12Z</time>
      </trkpt>
      <trkpt lat="43.53033" lon="2.14868">
        <ele>207.2</ele>
        <time>2023-05-27T15:07:13Z</time>
      </trkpt>
      <trkpt lat="43.53034" lon="2.14874">
        <ele>207.2</ele>
        <time>2023-05-27T15:07:14Z</time>
      </trkpt>
      <trkpt lat="43.53036" lon="2.14879">
        <ele>207.4</ele>
        <time>2023-05-27T15:07:15Z</time>
      </trkpt>
      <trkpt lat="43.53038" lon="2.14884">
        <ele>207.4</ele>
        <time>2023-05-27T15:07:16Z</time>
      </trkpt>
      <trkpt lat="43.53039" lon="2.14889">
        <ele>207.4</ele>
        <time>2023-05-27T15:07:17Z</time>
      </trkpt>
      <trkpt lat="43.53041" lon="2.14894">
        <ele>207.4</ele>
        <time>2023-05-27T15:07:18Z</time>
      </trkpt>
      <trkpt lat="43.53042" lon="2.14899">
        <ele>207.6</ele>
        <time>2023-05-27T15:07:19Z</time>
      </trkpt>
      <trkpt lat="43.53044" lon="2.14904">
        <ele>207.6</ele>
        <time>2023-05-27T15:07:20Z</time>
      </trkpt>
      <trkpt lat="43.53045" lon="2.14909">
        <ele>207.8</ele>
        <time>2023-05-27T15:07:21Z</time>
      </trkpt>
      <trkpt lat="43.53047" lon="2.14913">
        <ele>207.8</ele>
        <time>2023-05-27T15:07:22Z</time>
      </trkpt>
      <trkpt lat="43.53049" lon="2.14917">
        <ele>207.8</ele>
        <time>2023-05-27T15:07:23Z</time>
      </trkpt>
      <trkpt lat="43.5305" lon="2.14922">
        <ele>208</ele>
        <time>2023-05-27T15:07:24Z</time>
      </trkpt>
      <trkpt lat="43.53052" lon="2.14927">
        <ele>208</ele>
        <time>2023-05-27T15:07:25Z</time>
      </trkpt>
      <trkpt lat="43.53053" lon="2.14932">
        <ele>208</ele>
        <time>2023-05-27T15:07:26Z</time>
      </trkpt>
      <trkpt lat="43.53054" lon="2.14937">
        <ele>208</ele>
        <time>2023-05-27T15:07:27Z</time>
      </trkpt>
      <trkpt lat="43.53056" lon="2.14942">
        <ele>208</ele>
        <time>2023-05-27T15:07:28Z</time>
      </trkpt>
      <trkpt lat="43.53057" lon="2.14947">
        <ele>208</ele>
        <time>2023-05-27T15:07:29Z</time>
      </trkpt>
      <trkpt lat="43.53059" lon="2.14951">
        <ele>208</ele>
        <time>2023-05-27T15:07:30Z</time>
      </trkpt>
      <trkpt lat="43.5306" lon="2.14956">
        <ele>208</ele>
        <time>2023-05-27T15:07:31Z</time>
      </trkpt>
      <trkpt lat="43.53062" lon="2.1496">
        <ele>208</ele>
        <time>2023-05-27T15:07:32Z</time>
      </trkpt>
      <trkpt lat="43.53063" lon="2.14965">
        <ele>208.2</ele>
        <time>2023-05-27T15:07:33Z</time>
      </trkpt>
      <trkpt lat="43.53065" lon="2.14969">
        <ele>208.2</ele>
        <time>2023-05-27T15:07:34Z</time>
      </trkpt>
      <trkpt lat="43.53066" lon="2.14973">
        <ele>208.2</ele>
        <time>2023-05-27T15:07:35Z</time>
      </trkpt>
      <trkpt lat="43.53067" lon="2.14977">
        <ele>208.2</ele>
        <time>2023-05-27T15:07:36Z</time>
      </trkpt>
      <trkpt lat="43.53069" lon="2.14981">
        <ele>208.2</ele>
        <time>2023-05-27T15:07:37Z</time>
      </trkpt>
      <trkpt lat="43.5307" lon="2.14986">
        <ele>208.2</ele>
        <time>2023-05-27T15:07:38Z</time>
      </trkpt>
      <trkpt lat="43.53072" lon="2.14991">
        <ele>208.2</ele>
        <time>2023-05-27T15:07:39Z</time>
      </trkpt>
      <trkpt lat="43.53073" lon="2.14996">
        <ele>208.2</ele>
        <time>2023-05-27T15:07:40Z</time>
      </trkpt>
      <trkpt lat="43.53075" lon="2.15001">
        <ele>208.2</ele>
        <time>2023-05-27T15:07:41Z</time>
      </trkpt>
      <trkpt lat="43.53076" lon="2.15006">
        <ele>208.4</ele>
        <time>2023-05-27T15:07:42Z</time>
      </trkpt>
      <trkpt lat="43.53078" lon="2.15011">
        <ele>208.4</ele>
        <time>2023-05-27T15:07:43Z</time>
      </trkpt>
      <trkpt lat="43.5308" lon="2.15016">
        <ele>208.2</ele>
        <time>2023-05-27T15:07:44Z</time>
      </trkpt>
      <trkpt lat="43.53081" lon="2.1502">
        <ele>208.2</ele>
        <time>2023-05-27T15:07:45Z</time>
      </trkpt>
      <trkpt lat="43.53083" lon="2.15025">
        <ele>208.2</ele>
        <time>2023-05-27T15:07:46Z</time>
      </trkpt>
      <trkpt lat="43.53085" lon="2.1503">
        <ele>208.4</ele>
        <time>2023-05-27T15:07:47Z</time>
      </trkpt>
      <trkpt lat="43.53086" lon="2.15035">
        <ele>208.4</ele>
        <time>2023-05-27T15:07:48Z</time>
      </trkpt>
      <trkpt lat="43.53088" lon="2.1504">
        <ele>208.4</ele>
        <time>2023-05-27T15:07:49Z</time>
      </trkpt>
      <trkpt lat="43.53089" lon="2.15044">
        <ele>208.4</ele>
        <time>2023-05-27T15:07:50Z</time>
      </trkpt>
      <trkpt lat="43.53091" lon="2.15049">
        <ele>208.4</ele>
        <time>2023-05-27T15:07:51Z</time>
      </trkpt>
      <trkpt lat="43.53093" lon="2.15054">
        <ele>208.4</ele>
        <time>2023-05-27T15:07:52Z</time>
      </trkpt>
      <trkpt lat="43.53095" lon="2.15059">
        <ele>208.6</ele>
        <time>2023-05-27T15:07:53Z</time>
      </trkpt>
      <trkpt lat="43.53096" lon="2.15063">
        <ele>208.6</ele>
        <time>2023-05-27T15:07:54Z</time>
      </trkpt>
      <trkpt lat="43.53098" lon="2.15067">
        <ele>208.6</ele>
        <time>2023-05-27T15:07:55Z</time>
      </trkpt>
      <trkpt lat="43.531" lon="2.15072">
        <ele>208.6</ele>
        <time>2023-05-27T15:07:56Z</time>
      </trkpt>
      <trkpt lat="43.53102" lon="2.15076">
        <ele>208.6</ele>
        <time>2023-05-27T15:07:57Z</time>
      </trkpt>
      <trkpt lat="43.53103" lon="2.1508">
        <ele>208.6</ele>
        <time>2023-05-27T15:07:58Z</time>
      </trkpt>
      <trkpt lat="43.53105" lon="2.15085">
        <ele>208.8</ele>
        <time>2023-05-27T15:07:59Z</time>
      </trkpt>
      <trkpt lat="43.53107" lon="2.15089">
        <ele>208.8</ele>
        <time>2023-05-27T15:08:00Z</time>
      </trkpt>
      <trkpt lat="43.53108" lon="2.15094">
        <ele>208.8</ele>
        <time>2023-05-27T15:08:01Z</time>
      </trkpt>
      <trkpt lat="43.5311" lon="2.15099">
        <ele>208.8</ele>
        <time>2023-05-27T15:08:02Z</time>
      </trkpt>
      <trkpt lat="43.53112" lon="2.15103">
        <ele>208.8</ele>
        <time>2023-05-27T15:08:03Z</time>
      </trkpt>
      <trkpt lat="43.53113" lon="2.15108">
        <ele>208.8</ele>
        <time>2023-05-27T15:08:04Z</time>
      </trkpt>
      <trkpt lat="43.53115" lon="2.15112">
        <ele>208.8</ele>
        <time>2023-05-27T15:08:05Z</time>
      </trkpt>
      <trkpt lat="43.53116" lon="2.15117">
        <ele>208.8</ele>
        <time>2023-05-27T15:08:06Z</time>
      </trkpt>
      <trkpt lat="43.53117" lon="2.15122">
        <ele>208.8</ele>
        <time>2023-05-27T15:08:07Z</time>
      </trkpt>
      <trkpt lat="43.53119" lon="2.15127">
        <ele>208.8</ele>
        <time>2023-05-27T15:08:08Z</time>
      </trkpt>
      <trkpt lat="43.5312" lon="2.15132">
        <ele>208.8</ele>
        <time>2023-05-27T15:08:09Z</time>
      </trkpt>
      <trkpt lat="43.53121" lon="2.15137">
        <ele>209</ele>
        <time>2023-05-27T15:08:10Z</time>
      </trkpt>
      <trkpt lat="43.53121" lon="2.15143">
        <ele>209</ele>
        <time>2023-05-27T15:08:11Z</time>
      </trkpt>
      <trkpt lat="43.53122" lon="2.15147">
        <ele>209</ele>
        <time>2023-05-27T15:08:12Z</time>
      </trkpt>
      <trkpt lat="43.53123" lon="2.15152">
        <ele>209</ele>
        <time>2023-05-27T15:08:13Z</time>
      </trkpt>
      <trkpt lat="43.53124" lon="2.15156">
        <ele>209</ele>
        <time>2023-05-27T15:08:14Z</time>
      </trkpt>
      <trkpt lat="43.53125" lon="2.15161">
        <ele>209</ele>
        <time>2023-05-27T15:08:15Z</time>
      </trkpt>
      <trkpt lat="43.53125" lon="2.15165">
        <ele>209</ele>
        <time>2023-05-27T15:08:16Z</time>
      </trkpt>
      <trkpt lat="43.53127" lon="2.15169">
        <ele>209</ele>
        <time>2023-05-27T15:08:17Z</time>
      </trkpt>
      <trkpt lat="43.53128" lon="2.15173">
        <ele>209</ele>
        <time>2023-05-27T15:08:18Z</time>
      </trkpt>
      <trkpt lat="43.53129" lon="2.15176">
        <ele>209</ele>
        <time>2023-05-27T15:08:19Z</time>
      </trkpt>
      <trkpt lat="43.53131" lon="2.1518">
        <ele>209</ele>
        <time>2023-05-27T15:08:20Z</time>
      </trkpt>
      <trkpt lat="43.53133" lon="2.15184">
        <ele>209</ele>
        <time>2023-05-27T15:08:21Z</time>
      </trkpt>
      <trkpt lat="43.53134" lon="2.15188">
        <ele>209</ele>
        <time>2023-05-27T15:08:22Z</time>
      </trkpt>
      <trkpt lat="43.53136" lon="2.15192">
        <ele>208.8</ele>
        <time>2023-05-27T15:08:23Z</time>
      </trkpt>
      <trkpt lat="43.53138" lon="2.15196">
        <ele>208.8</ele>
        <time>2023-05-27T15:08:24Z</time>
      </trkpt>
      <trkpt lat="43.5314" lon="2.152">
        <ele>208.8</ele>
        <time>2023-05-27T15:08:25Z</time>
      </trkpt>
      <trkpt lat="43.53143" lon="2.15204">
        <ele>208.8</ele>
        <time>2023-05-27T15:08:26Z</time>
      </trkpt>
      <trkpt lat="43.53145" lon="2.15208">
        <ele>208.8</ele>
        <time>2023-05-27T15:08:27Z</time>
      </trkpt>
      <trkpt lat="43.53147" lon="2.15211">
        <ele>208.8</ele>
        <time>2023-05-27T15:08:28Z</time>
      </trkpt>
      <trkpt lat="43.53149" lon="2.15215">
        <ele>208.8</ele>
        <time>2023-05-27T15:08:29Z</time>
      </trkpt>
      <trkpt lat="43.53151" lon="2.15219">
        <ele>208.8</ele>
        <time>2023-05-27T15:08:30Z</time>
      </trkpt>
      <trkpt lat="43.53154" lon="2.15222">
        <ele>208.8</ele>
        <time>2023-05-27T15:08:31Z</time>
      </trkpt>
      <trkpt lat="43.53156" lon="2.15226">
        <ele>208.8</ele>
        <time>2023-05-27T15:08:32Z</time>
      </trkpt>
      <trkpt lat="43.53158" lon="2.15229">
        <ele>208.8</ele>
        <time>2023-05-27T15:08:33Z</time>
      </trkpt>
      <trkpt lat="43.5316" lon="2.15233">
        <ele>208.8</ele>
        <time>2023-05-27T15:08:34Z</time>
      </trkpt>
      <trkpt lat="43.53162" lon="2.15236">
        <ele>208.8</ele>
        <time>2023-05-27T15:08:35Z</time>
      </trkpt>
      <trkpt lat="43.53164" lon="2.1524">
        <ele>209</ele>
        <time>2023-05-27T15:08:36Z</time>
      </trkpt>
      <trkpt lat="43.53167" lon="2.15244">
        <ele>209</ele>
        <time>2023-05-27T15:08:37Z</time>
      </trkpt>
      <trkpt lat="43.53169" lon="2.15247">
        <ele>209</ele>
        <time>2023-05-27T15:08:38Z</time>
      </trkpt>
      <trkpt lat="43.53171" lon="2.1525">
        <ele>209</ele>
        <time>2023-05-27T15:08:39Z</time>
      </trkpt>
      <trkpt lat="43.53173" lon="2.15253">
        <ele>209</ele>
        <time>2023-05-27T15:08:40Z</time>
      </trkpt>
      <trkpt lat="43.53175" lon="2.15256">
        <ele>209</ele>
        <time>2023-05-27T15:08:41Z</time>
      </trkpt>
      <trkpt lat="43.53177" lon="2.1526">
        <ele>209</ele>
        <time>2023-05-27T15:08:42Z</time>
      </trkpt>
      <trkpt lat="43.53178" lon="2.15263">
        <ele>209</ele>
        <time>2023-05-27T15:08:43Z</time>
      </trkpt>
      <trkpt lat="43.5318" lon="2.15267">
        <ele>209.2</ele>
        <time>2023-05-27T15:08:44Z</time>
      </trkpt>
      <trkpt lat="43.53183" lon="2.1527">
        <ele>209.2</ele>
        <time>2023-05-27T15:08:45Z</time>
      </trkpt>
      <trkpt lat="43.53185" lon="2.15274">
        <ele>209.2</ele>
        <time>2023-05-27T15:08:46Z</time>
      </trkpt>
      <trkpt lat="43.53186" lon="2.15276">
        <ele>209.4</ele>
        <time>2023-05-27T15:08:47Z</time>
      </trkpt>
      <trkpt lat="43.53189" lon="2.1528">
        <ele>209.4</ele>
        <time>2023-05-27T15:08:48Z</time>
      </trkpt>
      <trkpt lat="43.5319" lon="2.15283">
        <ele>209.4</ele>
        <time>2023-05-27T15:08:49Z</time>
      </trkpt>
      <trkpt lat="43.53192" lon="2.15286">
        <ele>209.6</ele>
        <time>2023-05-27T15:08:50Z</time>
      </trkpt>
      <trkpt lat="43.53193" lon="2.15288">
        <ele>209.6</ele>
        <time>2023-05-27T15:08:51Z</time>
      </trkpt>
      <trkpt lat="43.53195" lon="2.15291">
        <ele>209.8</ele>
        <time>2023-05-27T15:08:52Z</time>
      </trkpt>
      <trkpt lat="43.53196" lon="2.15294">
        <ele>209.8</ele>
        <time>2023-05-27T15:08:53Z</time>
      </trkpt>
      <trkpt lat="43.53198" lon="2.15297">
        <ele>210</ele>
        <time>2023-05-27T15:08:54Z</time>
      </trkpt>
      <trkpt lat="43.53199" lon="2.15299">
        <ele>210</ele>
        <time>2023-05-27T15:08:55Z</time>
      </trkpt>
      <trkpt lat="43.53201" lon="2.15301">
        <ele>210.2</ele>
        <time>2023-05-27T15:08:56Z</time>
      </trkpt>
      <trkpt lat="43.53202" lon="2.15303">
        <ele>210.2</ele>
        <time>2023-05-27T15:08:57Z</time>
      </trkpt>
      <trkpt lat="43.53204" lon="2.15306">
        <ele>210.4</ele>
        <time>2023-05-27T15:08:58Z</time>
      </trkpt>
      <trkpt lat="43.53205" lon="2.15308">
        <ele>210.6</ele>
        <time>2023-05-27T15:08:59Z</time>
      </trkpt>
      <trkpt lat="43.53207" lon="2.1531">
        <ele>210.6</ele>
        <time>2023-05-27T15:09:00Z</time>
      </trkpt>
      <trkpt lat="43.53208" lon="2.15312">
        <ele>210.8</ele>
        <time>2023-05-27T15:09:01Z</time>
      </trkpt>
      <trkpt lat="43.53209" lon="2.15314">
        <ele>211</ele>
        <time>2023-05-27T15:09:02Z</time>
      </trkpt>
      <trkpt lat="43.53211" lon="2.15316">
        <ele>211</ele>
        <time>2023-05-27T15:09:03Z</time>
      </trkpt>
      <trkpt lat="43.53212" lon="2.15318">
        <ele>211.2</ele>
        <time>2023-05-27T15:09:04Z</time>
      </trkpt>
      <trkpt lat="43.53213" lon="2.1532">
        <ele>211.4</ele>
        <time>2023-05-27T15:09:05Z</time>
      </trkpt>
      <trkpt lat="43.53215" lon="2.15322">
        <ele>211.4</ele>
        <time>2023-05-27T15:09:06Z</time>
      </trkpt>
      <trkpt lat="43.53216" lon="2.15324">
        <ele>211.6</ele>
        <time>2023-05-27T15:09:07Z</time>
      </trkpt>
      <trkpt lat="43.53218" lon="2.15326">
        <ele>211.6</ele>
        <time>2023-05-27T15:09:08Z</time>
      </trkpt>
      <trkpt lat="43.53219" lon="2.15327">
        <ele>211.8</ele>
        <time>2023-05-27T15:09:09Z</time>
      </trkpt>
      <trkpt lat="43.5322" lon="2.15329">
        <ele>211.8</ele>
        <time>2023-05-27T15:09:10Z</time>
      </trkpt>
      <trkpt lat="43.53222" lon="2.1533">
        <ele>211.8</ele>
        <time>2023-05-27T15:09:11Z</time>
      </trkpt>
      <trkpt lat="43.53223" lon="2.15332">
        <ele>212</ele>
        <time>2023-05-27T15:09:12Z</time>
      </trkpt>
      <trkpt lat="43.53225" lon="2.15333">
        <ele>212</ele>
        <time>2023-05-27T15:09:13Z</time>
      </trkpt>
      <trkpt lat="43.53226" lon="2.15334">
        <ele>212.2</ele>
        <time>2023-05-27T15:09:14Z</time>
      </trkpt>
      <trkpt lat="43.53228" lon="2.15335">
        <ele>212.2</ele>
        <time>2023-05-27T15:09:15Z</time>
      </trkpt>
      <trkpt lat="43.53229" lon="2.15336">
        <ele>212.4</ele>
        <time>2023-05-27T15:09:16Z</time>
      </trkpt>
      <trkpt lat="43.53231" lon="2.15336">
        <ele>212.4</ele>
        <time>2023-05-27T15:09:17Z</time>
      </trkpt>
      <trkpt lat="43.53232" lon="2.15337">
        <ele>212.6</ele>
        <time>2023-05-27T15:09:18Z</time>
      </trkpt>
      <trkpt lat="43.53234" lon="2.15338">
        <ele>212.8</ele>
        <time>2023-05-27T15:09:19Z</time>
      </trkpt>
      <trkpt lat="43.53236" lon="2.15339">
        <ele>212.8</ele>
        <time>2023-05-27T15:09:20Z</time>
      </trkpt>
      <trkpt lat="43.53237" lon="2.15339">
        <ele>213</ele>
        <time>2023-05-27T15:09:21Z</time>
      </trkpt>
      <trkpt lat="43.53239" lon="2.1534">
        <ele>213</ele>
        <time>2023-05-27T15:09:22Z</time>
      </trkpt>
      <trkpt lat="43.5324" lon="2.1534">
        <ele>213.2</ele>
        <time>2023-05-27T15:09:23Z</time>
      </trkpt>
      <trkpt lat="43.53242" lon="2.15341">
        <ele>213.4</ele>
        <time>2023-05-27T15:09:24Z</time>
      </trkpt>
      <trkpt lat="43.53244" lon="2.15341">
        <ele>213.4</ele>
        <time>2023-05-27T15:09:25Z</time>
      </trkpt>
      <trkpt lat="43.53245" lon="2.15341">
        <ele>213.6</ele>
        <time>2023-05-27T15:09:26Z</time>
      </trkpt>
      <trkpt lat="43.53247" lon="2.15342">
        <ele>213.6</ele>
        <time>2023-05-27T15:09:27Z</time>
      </trkpt>
      <trkpt lat="43.53249" lon="2.15342">
        <ele>213.8</ele>
        <time>2023-05-27T15:09:28Z</time>
      </trkpt>
      <trkpt lat="43.53251" lon="2.15343">
        <ele>214</ele>
        <time>2023-05-27T15:09:29Z</time>
      </trkpt>
      <trkpt lat="43.53252" lon="2.15343">
        <ele>214</ele>
        <time>2023-05-27T15:09:30Z</time>
      </trkpt>
      <trkpt lat="43.53253" lon="2.15344">
        <ele>214.2</ele>
        <time>2023-05-27T15:09:31Z</time>
      </trkpt>
      <trkpt lat="43.53255" lon="2.15344">
        <ele>214.4</ele>
        <time>2023-05-27T15:09:32Z</time>
      </trkpt>
      <trkpt lat="43.53256" lon="2.15344">
        <ele>214.4</ele>
        <time>2023-05-27T15:09:33Z</time>
      </trkpt>
      <trkpt lat="43.53258" lon="2.15344">
        <ele>214.6</ele>
        <time>2023-05-27T15:09:34Z</time>
      </trkpt>
      <trkpt lat="43.53259" lon="2.15344">
        <ele>214.8</ele>
        <time>2023-05-27T15:09:35Z</time>
      </trkpt>
      <trkpt lat="43.5326" lon="2.15343">
        <ele>214.8</ele>
        <time>2023-05-27T15:09:36Z</time>
      </trkpt>
      <trkpt lat="43.53262" lon="2.15343">
        <ele>215</ele>
        <time>2023-05-27T15:09:37Z</time>
      </trkpt>
      <trkpt lat="43.53264" lon="2.15343">
        <ele>215</ele>
        <time>2023-05-27T15:09:38Z</time>
      </trkpt>
      <trkpt lat="43.53265" lon="2.15343">
        <ele>215.2</ele>
        <time>2023-05-27T15:09:39Z</time>
      </trkpt>
      <trkpt lat="43.53267" lon="2.15343">
        <ele>215.2</ele>
        <time>2023-05-27T15:09:40Z</time>
      </trkpt>
      <trkpt lat="43.53269" lon="2.15343">
        <ele>215.4</ele>
        <time>2023-05-27T15:09:41Z</time>
      </trkpt>
      <trkpt lat="43.53271" lon="2.15343">
        <ele>215.4</ele>
        <time>2023-05-27T15:09:42Z</time>
      </trkpt>
      <trkpt lat="43.53272" lon="2.15343">
        <ele>215.6</ele>
        <time>2023-05-27T15:09:43Z</time>
      </trkpt>
      <trkpt lat="43.53274" lon="2.15344">
        <ele>215.6</ele>
        <time>2023-05-27T15:09:44Z</time>
      </trkpt>
      <trkpt lat="43.53275" lon="2.15344">
        <ele>215.8</ele>
        <time>2023-05-27T15:09:45Z</time>
      </trkpt>
      <trkpt lat="43.53277" lon="2.15344">
        <ele>216</ele>
        <time>2023-05-27T15:09:46Z</time>
      </trkpt>
      <trkpt lat="43.53279" lon="2.15345">
        <ele>216</ele>
        <time>2023-05-27T15:09:47Z</time>
      </trkpt>
      <trkpt lat="43.5328" lon="2.15345">
        <ele>216.2</ele>
        <time>2023-05-27T15:09:48Z</time>
      </trkpt>
      <trkpt lat="43.53281" lon="2.15345">
        <ele>216.2</ele>
        <time>2023-05-27T15:09:49Z</time>
      </trkpt>
      <trkpt lat="43.53283" lon="2.15345">
        <ele>216.4</ele>
        <time>2023-05-27T15:09:50Z</time>
      </trkpt>
      <trkpt lat="43.53285" lon="2.15345">
        <ele>216.6</ele>
        <time>2023-05-27T15:09:51Z</time>
      </trkpt>
      <trkpt lat="43.53286" lon="2.15345">
        <ele>216.6</ele>
        <time>2023-05-27T15:09:52Z</time>
      </trkpt>
      <trkpt lat="43.53287" lon="2.15345">
        <ele>216.8</ele>
        <time>2023-05-27T15:09:53Z</time>
      </trkpt>
      <trkpt lat="43.53288" lon="2.15345">
        <ele>216.8</ele>
        <time>2023-05-27T15:09:54Z</time>
      </trkpt>
      <trkpt lat="43.5329" lon="2.15345">
        <ele>217</ele>
        <time>2023-05-27T15:09:55Z</time>
      </trkpt>
      <trkpt lat="43.53292" lon="2.15345">
        <ele>217.2</ele>
        <time>2023-05-27T15:09:56Z</time>
      </trkpt>
      <trkpt lat="43.53293" lon="2.15345">
        <ele>217.2</ele>
        <time>2023-05-27T15:09:57Z</time>
      </trkpt>
      <trkpt lat="43.53294" lon="2.15346">
        <ele>217.4</ele>
        <time>2023-05-27T15:09:58Z</time>
      </trkpt>
      <trkpt lat="43.53296" lon="2.15347">
        <ele>217.6</ele>
        <time>2023-05-27T15:09:59Z</time>
      </trkpt>
      <trkpt lat="43.53298" lon="2.15347">
        <ele>217.6</ele>
        <time>2023-05-27T15:10:00Z</time>
      </trkpt>
      <trkpt lat="43.53299" lon="2.15347">
        <ele>217.8</ele>
        <time>2023-05-27T15:10:01Z</time>
      </trkpt>
      <trkpt lat="43.53301" lon="2.15348">
        <ele>218</ele>
        <time>2023-05-27T15:10:02Z</time>
      </trkpt>
      <trkpt lat="43.53302" lon="2.15348">
        <ele>218</ele>
        <time>2023-05-27T15:10:03Z</time>
      </trkpt>
      <trkpt lat="43.53302" lon="2.15348">
        <ele>218.2</ele>
        <time>2023-05-27T15:10:04Z</time>
      </trkpt>
      <trkpt lat="43.53305" lon="2.15348">
        <ele>218.4</ele>
        <time>2023-05-27T15:10:13Z</time>
      </trkpt>
      <trkpt lat="43.53306" lon="2.15348">
        <ele>218.4</ele>
        <time>2023-05-27T15:10:14Z</time>
      </trkpt>
      <trkpt lat="43.53307" lon="2.15348">
        <ele>218.4</ele>
        <time>2023-05-27T15:10:15Z</time>
      </trkpt>
      <trkpt lat="43.53309" lon="2.15348">
        <ele>218.4</ele>
        <time>2023-05-27T15:10:16Z</time>
      </trkpt>
      <trkpt lat="43.5331" lon="2.15349">
        <ele>218.4</ele>
        <time>2023-05-27T15:10:17Z</time>
      </trkpt>
      <trkpt lat="43.5331" lon="2.15349">
        <ele>218.4</ele>
        <time>2023-05-27T15:10:18Z</time>
      </trkpt>
      <trkpt lat="43.53311" lon="2.1535">
        <ele>218.4</ele>
        <time>2023-05-27T15:10:19Z</time>
      </trkpt>
      <trkpt lat="43.53312" lon="2.15351">
        <ele>218.6</ele>
        <time>2023-05-27T15:10:20Z</time>
      </trkpt>
      <trkpt lat="43.53313" lon="2.15351">
        <ele>218.6</ele>
        <time>2023-05-27T15:10:21Z</time>
      </trkpt>
      <trkpt lat="43.53314" lon="2.15352">
        <ele>218.8</ele>
        <time>2023-05-27T15:10:22Z</time>
      </trkpt>
      <trkpt lat="43.53315" lon="2.15353">
        <ele>218.8</ele>
        <time>2023-05-27T15:10:23Z</time>
      </trkpt>
      <trkpt lat="43.53316" lon="2.15354">
        <ele>219</ele>
        <time>2023-05-27T15:10:24Z</time>
      </trkpt>
      <trkpt lat="43.53317" lon="2.15354">
        <ele>219</ele>
        <time>2023-05-27T15:10:25Z</time>
      </trkpt>
      <trkpt lat="43.53317" lon="2.15355">
        <ele>219.2</ele>
        <time>2023-05-27T15:10:26Z</time>
      </trkpt>
      <trkpt lat="43.53318" lon="2.15356">
        <ele>219.2</ele>
        <time>2023-05-27T15:10:27Z</time>
      </trkpt>
      <trkpt lat="43.53319" lon="2.15357">
        <ele>219.4</ele>
        <time>2023-05-27T15:10:28Z</time>
      </trkpt>
      <trkpt lat="43.5332" lon="2.15358">
        <ele>219.4</ele>
        <time>2023-05-27T15:10:29Z</time>
      </trkpt>
      <trkpt lat="43.53321" lon="2.15359">
        <ele>219.4</ele>
        <time>2023-05-27T15:10:30Z</time>
      </trkpt>
      <trkpt lat="43.53322" lon="2.1536">
        <ele>219.6</ele>
        <time>2023-05-27T15:10:31Z</time>
      </trkpt>
      <trkpt lat="43.53322" lon="2.15361">
        <ele>219.6</ele>
        <time>2023-05-27T15:10:32Z</time>
      </trkpt>
      <trkpt lat="43.53323" lon="2.15362">
        <ele>219.8</ele>
        <time>2023-05-27T15:10:33Z</time>
      </trkpt>
      <trkpt lat="43.53323" lon="2.15363">
        <ele>219.8</ele>
        <time>2023-05-27T15:10:34Z</time>
      </trkpt>
      <trkpt lat="43.53324" lon="2.15364">
        <ele>220</ele>
        <time>2023-05-27T15:10:35Z</time>
      </trkpt>
      <trkpt lat="43.53324" lon="2.15365">
        <ele>220</ele>
        <time>2023-05-27T15:10:36Z</time>
      </trkpt>
      <trkpt lat="43.53325" lon="2.15366">
        <ele>220.2</ele>
        <time>2023-05-27T15:10:37Z</time>
      </trkpt>
      <trkpt lat="43.53325" lon="2.15367">
        <ele>220.2</ele>
        <time>2023-05-27T15:10:38Z</time>
      </trkpt>
      <trkpt lat="43.53326" lon="2.15368">
        <ele>220.4</ele>
        <time>2023-05-27T15:10:39Z</time>
      </trkpt>
      <trkpt lat="43.53327" lon="2.1537">
        <ele>220.4</ele>
        <time>2023-05-27T15:10:40Z</time>
      </trkpt>
      <trkpt lat="43.53327" lon="2.1537">
        <ele>220.6</ele>
        <time>2023-05-27T15:10:41Z</time>
      </trkpt>
      <trkpt lat="43.53328" lon="2.15372">
        <ele>220.6</ele>
        <time>2023-05-27T15:10:42Z</time>
      </trkpt>
      <trkpt lat="43.53329" lon="2.15373">
        <ele>220.8</ele>
        <time>2023-05-27T15:10:43Z</time>
      </trkpt>
      <trkpt lat="43.53329" lon="2.15374">
        <ele>220.8</ele>
        <time>2023-05-27T15:10:44Z</time>
      </trkpt>
      <trkpt lat="43.5333" lon="2.15375">
        <ele>221</ele>
        <time>2023-05-27T15:10:45Z</time>
      </trkpt>
      <trkpt lat="43.53331" lon="2.15376">
        <ele>221.2</ele>
        <time>2023-05-27T15:10:46Z</time>
      </trkpt>
      <trkpt lat="43.53331" lon="2.15377">
        <ele>221.2</ele>
        <time>2023-05-27T15:10:47Z</time>
      </trkpt>
      <trkpt lat="43.53332" lon="2.15378">
        <ele>221.4</ele>
        <time>2023-05-27T15:10:48Z</time>
      </trkpt>
      <trkpt lat="43.53332" lon="2.15379">
        <ele>221.4</ele>
        <time>2023-05-27T15:10:49Z</time>
      </trkpt>
      <trkpt lat="43.53333" lon="2.1538">
        <ele>221.4</ele>
        <time>2023-05-27T15:10:50Z</time>
      </trkpt>
      <trkpt lat="43.53334" lon="2.15381">
        <ele>221.6</ele>
        <time>2023-05-27T15:10:51Z</time>
      </trkpt>
      <trkpt lat="43.53334" lon="2.15383">
        <ele>221.6</ele>
        <time>2023-05-27T15:10:52Z</time>
      </trkpt>
      <trkpt lat="43.53335" lon="2.15384">
        <ele>221.8</ele>
        <time>2023-05-27T15:10:53Z</time>
      </trkpt>
      <trkpt lat="43.53335" lon="2.15386">
        <ele>221.8</ele>
        <time>2023-05-27T15:10:54Z</time>
      </trkpt>
      <trkpt lat="43.53336" lon="2.15387">
        <ele>222</ele>
        <time>2023-05-27T15:10:55Z</time>
      </trkpt>
      <trkpt lat="43.53336" lon="2.15388">
        <ele>222</ele>
        <time>2023-05-27T15:10:56Z</time>
      </trkpt>
      <trkpt lat="43.53337" lon="2.1539">
        <ele>222</ele>
        <time>2023-05-27T15:10:57Z</time>
      </trkpt>
      <trkpt lat="43.53337" lon="2.15391">
        <ele>222.2</ele>
        <time>2023-05-27T15:10:58Z</time>
      </trkpt>
      <trkpt lat="43.53338" lon="2.15393">
        <ele>222.2</ele>
        <time>2023-05-27T15:10:59Z</time>
      </trkpt>
      <trkpt lat="43.53338" lon="2.15394">
        <ele>222.4</ele>
        <time>2023-05-27T15:11:00Z</time>
      </trkpt>
      <trkpt lat="43.53339" lon="2.15395">
        <ele>222.4</ele>
        <time>2023-05-27T15:11:01Z</time>
      </trkpt>
      <trkpt lat="43.53339" lon="2.15397">
        <ele>222.4</ele>
        <time>2023-05-27T15:11:02Z</time>
      </trkpt>
      <trkpt lat="43.53339" lon="2.15399">
        <ele>222.6</ele>
        <time>2023-05-27T15:11:03Z</time>
      </trkpt>
      <trkpt lat="43.53339" lon="2.154">
        <ele>222.6</ele>
        <time>2023-05-27T15:11:04Z</time>
      </trkpt>
      <trkpt lat="43.53339" lon="2.15401">
        <ele>222.8</ele>
        <time>2023-05-27T15:11:05Z</time>
      </trkpt>
      <trkpt lat="43.53339" lon="2.15403">
        <ele>222.8</ele>
        <time>2023-05-27T15:11:06Z</time>
      </trkpt>
      <trkpt lat="43.5334" lon="2.15405">
        <ele>222.8</ele>
        <time>2023-05-27T15:11:07Z</time>
      </trkpt>
      <trkpt lat="43.5334" lon="2.15406">
        <ele>223</ele>
        <time>2023-05-27T15:11:08Z</time>
      </trkpt>
      <trkpt lat="43.5334" lon="2.15408">
        <ele>223</ele>
        <time>2023-05-27T15:11:09Z</time>
      </trkpt>
      <trkpt lat="43.5334" lon="2.15409">
        <ele>223</ele>
        <time>2023-05-27T15:11:10Z</time>
      </trkpt>
      <trkpt lat="43.5334" lon="2.1541">
        <ele>223</ele>
        <time>2023-05-27T15:11:11Z</time>
      </trkpt>
      <trkpt lat="43.5334" lon="2.15412">
        <ele>223.2</ele>
        <time>2023-05-27T15:11:12Z</time>
      </trkpt>
      <trkpt lat="43.5334" lon="2.15413">
        <ele>223.2</ele>
        <time>2023-05-27T15:11:13Z</time>
      </trkpt>
      <trkpt lat="43.5334" lon="2.15415">
        <ele>223.2</ele>
        <time>2023-05-27T15:11:14Z</time>
      </trkpt>
      <trkpt lat="43.5334" lon="2.15416">
        <ele>223.2</ele>
        <time>2023-05-27T15:11:15Z</time>
      </trkpt>
      <trkpt lat="43.53339" lon="2.15418">
        <ele>223.4</ele>
        <time>2023-05-27T15:11:16Z</time>
      </trkpt>
      <trkpt lat="43.53339" lon="2.1542">
        <ele>223.4</ele>
        <time>2023-05-27T15:11:17Z</time>
      </trkpt>
      <trkpt lat="43.53339" lon="2.15421">
        <ele>223.4</ele>
        <time>2023-05-27T15:11:18Z</time>
      </trkpt>
      <trkpt lat="43.53339" lon="2.15421">
        <ele>223.4</ele>
        <time>2023-05-27T15:11:19Z</time>
      </trkpt>
      <trkpt lat="43.53339" lon="2.15422">
        <ele>223.4</ele>
        <time>2023-05-27T15:11:20Z</time>
      </trkpt>
      <trkpt lat="43.53339" lon="2.15422">
        <ele>223.4</ele>
        <time>2023-05-27T15:11:21Z</time>
      </trkpt>
      <trkpt lat="43.53339" lon="2.15422">
        <ele>223.4</ele>
        <time>2023-05-27T15:11:22Z</time>
      </trkpt>
      <trkpt lat="43.53339" lon="2.15423">
        <ele>223.4</ele>
        <time>2023-05-27T15:11:23Z</time>
      </trkpt>
      <trkpt lat="43.53338" lon="2.15425">
        <ele>223.4</ele>
        <time>2023-05-27T15:11:24Z</time>
      </trkpt>
      <trkpt lat="43.53338" lon="2.15427">
        <ele>223.6</ele>
        <time>2023-05-27T15:11:25Z</time>
      </trkpt>
      <trkpt lat="43.53338" lon="2.15428">
        <ele>223.6</ele>
        <time>2023-05-27T15:11:26Z</time>
      </trkpt>
      <trkpt lat="43.53337" lon="2.1543">
        <ele>223.6</ele>
        <time>2023-05-27T15:11:27Z</time>
      </trkpt>
      <trkpt lat="43.53337" lon="2.15431">
        <ele>223.6</ele>
        <time>2023-05-27T15:11:28Z</time>
      </trkpt>
      <trkpt lat="43.53337" lon="2.15433">
        <ele>223.6</ele>
        <time>2023-05-27T15:11:29Z</time>
      </trkpt>
      <trkpt lat="43.53336" lon="2.15434">
        <ele>223.6</ele>
        <time>2023-05-27T15:11:30Z</time>
      </trkpt>
      <trkpt lat="43.53336" lon="2.15435">
        <ele>223.6</ele>
        <time>2023-05-27T15:11:31Z</time>
      </trkpt>
      <trkpt lat="43.53335" lon="2.15436">
        <ele>223.6</ele>
        <time>2023-05-27T15:11:32Z</time>
      </trkpt>
      <trkpt lat="43.53335" lon="2.15437">
        <ele>223.6</ele>
        <time>2023-05-27T15:11:33Z</time>
      </trkpt>
      <trkpt lat="43.53334" lon="2.15438">
        <ele>223.8</ele>
        <time>2023-05-27T15:11:34Z</time>
      </trkpt>
      <trkpt lat="43.53333" lon="2.15439">
        <ele>223.8</ele>
        <time>2023-05-27T15:11:35Z</time>
      </trkpt>
      <trkpt lat="43.53333" lon="2.1544">
        <ele>223.8</ele>
        <time>2023-05-27T15:11:36Z</time>
      </trkpt>
      <trkpt lat="43.53332" lon="2.15441">
        <ele>223.8</ele>
        <time>2023-05-27T15:11:37Z</time>
      </trkpt>
      <trkpt lat="43.53332" lon="2.15441">
        <ele>223.8</ele>
        <time>2023-05-27T15:11:38Z</time>
      </trkpt>
      <trkpt lat="43.53332" lon="2.15441">
        <ele>223.8</ele>
        <time>2023-05-27T15:11:39Z</time>
      </trkpt>
      <trkpt lat="43.53332" lon="2.15441">
        <ele>223.8</ele>
        <time>2023-05-27T15:11:40Z</time>
      </trkpt>
      <trkpt lat="43.53332" lon="2.15441">
        <ele>223.8</ele>
        <time>2023-05-27T15:11:41Z</time>
      </trkpt>
      <trkpt lat="43.53332" lon="2.15441">
        <ele>223.8</ele>
        <time>2023-05-27T15:11:42Z</time>
      </trkpt>
      <trkpt lat="43.53332" lon="2.15441">
        <ele>223.8</ele>
        <time>2023-05-27T15:11:43Z</time>
      </trkpt>
      <trkpt lat="43.53332" lon="2.15441">
        <ele>223.8</ele>
        <time>2023-05-27T15:11:44Z</time>
      </trkpt>
      <trkpt lat="43.53332" lon="2.15441">
        <ele>223.8</ele>
        <time>2023-05-27T15:11:45Z</time>
      </trkpt>
      <trkpt lat="43.53332" lon="2.15441">
        <ele>223.8</ele>
        <time>2023-05-27T15:11:46Z</time>
      </trkpt>
      <trkpt lat="43.53332" lon="2.15442">
        <ele>223.8</ele>
        <time>2023-05-27T15:11:47Z</time>
      </trkpt>
      <trkpt lat="43.53332" lon="2.15444">
        <ele>223.8</ele>
        <time>2023-05-27T15:11:49Z</time>
      </trkpt>
      <trkpt lat="43.53331" lon="2.15445">
        <ele>224</ele>
        <time>2023-05-27T15:11:50Z</time>
      </trkpt>
      <trkpt lat="43.53331" lon="2.15447">
        <ele>224</ele>
        <time>2023-05-27T15:11:51Z</time>
      </trkpt>
      <trkpt lat="43.5333" lon="2.15449">
        <ele>224</ele>
        <time>2023-05-27T15:11:52Z</time>
      </trkpt>
      <trkpt lat="43.53329" lon="2.15451">
        <ele>224</ele>
        <time>2023-05-27T15:11:53Z</time>
      </trkpt>
      <trkpt lat="43.53328" lon="2.15453">
        <ele>224</ele>
        <time>2023-05-27T15:11:54Z</time>
      </trkpt>
      <trkpt lat="43.53327" lon="2.15456">
        <ele>224.2</ele>
        <time>2023-05-27T15:11:55Z</time>
      </trkpt>
      <trkpt lat="43.53326" lon="2.15458">
        <ele>224.2</ele>
        <time>2023-05-27T15:11:56Z</time>
      </trkpt>
      <trkpt lat="43.53325" lon="2.1546">
        <ele>224.2</ele>
        <time>2023-05-27T15:11:57Z</time>
      </trkpt>
      <trkpt lat="43.53325" lon="2.15462">
        <ele>224.4</ele>
        <time>2023-05-27T15:11:58Z</time>
      </trkpt>
      <trkpt lat="43.53324" lon="2.15464">
        <ele>224.4</ele>
        <time>2023-05-27T15:11:59Z</time>
      </trkpt>
      <trkpt lat="43.53323" lon="2.15467">
        <ele>224.4</ele>
        <time>2023-05-27T15:12:00Z</time>
      </trkpt>
      <trkpt lat="43.53322" lon="2.15469">
        <ele>224.6</ele>
        <time>2023-05-27T15:12:01Z</time>
      </trkpt>
      <trkpt lat="43.53322" lon="2.15471">
        <ele>224.6</ele>
        <time>2023-05-27T15:12:02Z</time>
      </trkpt>
      <trkpt lat="43.53321" lon="2.15473">
        <ele>224.6</ele>
        <time>2023-05-27T15:12:03Z</time>
      </trkpt>
      <trkpt lat="43.5332" lon="2.15476">
        <ele>224.6</ele>
        <time>2023-05-27T15:12:04Z</time>
      </trkpt>
      <trkpt lat="43.53318" lon="2.15478">
        <ele>224.8</ele>
        <time>2023-05-27T15:12:05Z</time>
      </trkpt>
      <trkpt lat="43.53318" lon="2.1548">
        <ele>224.8</ele>
        <time>2023-05-27T15:12:06Z</time>
      </trkpt>
      <trkpt lat="43.53317" lon="2.15482">
        <ele>224.8</ele>
        <time>2023-05-27T15:12:07Z</time>
      </trkpt>
      <trkpt lat="43.53316" lon="2.15485">
        <ele>225</ele>
        <time>2023-05-27T15:12:08Z</time>
      </trkpt>
      <trkpt lat="43.53315" lon="2.15488">
        <ele>225</ele>
        <time>2023-05-27T15:12:09Z</time>
      </trkpt>
      <trkpt lat="43.53314" lon="2.1549">
        <ele>225</ele>
        <time>2023-05-27T15:12:10Z</time>
      </trkpt>
      <trkpt lat="43.53313" lon="2.15492">
        <ele>225.2</ele>
        <time>2023-05-27T15:12:11Z</time>
      </trkpt>
      <trkpt lat="43.53313" lon="2.15495">
        <ele>225.2</ele>
        <time>2023-05-27T15:12:12Z</time>
      </trkpt>
      <trkpt lat="43.53312" lon="2.15497">
        <ele>225.2</ele>
        <time>2023-05-27T15:12:13Z</time>
      </trkpt>
      <trkpt lat="43.53311" lon="2.155">
        <ele>225.4</ele>
        <time>2023-05-27T15:12:14Z</time>
      </trkpt>
      <trkpt lat="43.53311" lon="2.15502">
        <ele>225.4</ele>
        <time>2023-05-27T15:12:15Z</time>
      </trkpt>
      <trkpt lat="43.5331" lon="2.15504">
        <ele>225.4</ele>
        <time>2023-05-27T15:12:16Z</time>
      </trkpt>
      <trkpt lat="43.5331" lon="2.15507">
        <ele>225.6</ele>
        <time>2023-05-27T15:12:17Z</time>
      </trkpt>
      <trkpt lat="43.53309" lon="2.1551">
        <ele>225.6</ele>
        <time>2023-05-27T15:12:18Z</time>
      </trkpt>
      <trkpt lat="43.53308" lon="2.15513">
        <ele>225.6</ele>
        <time>2023-05-27T15:12:19Z</time>
      </trkpt>
      <trkpt lat="43.53308" lon="2.15516">
        <ele>225.6</ele>
        <time>2023-05-27T15:12:20Z</time>
      </trkpt>
      <trkpt lat="43.53308" lon="2.15519">
        <ele>225.8</ele>
        <time>2023-05-27T15:12:21Z</time>
      </trkpt>
      <trkpt lat="43.53308" lon="2.15522">
        <ele>225.8</ele>
        <time>2023-05-27T15:12:22Z</time>
      </trkpt>
      <trkpt lat="43.53308" lon="2.15525">
        <ele>225.8</ele>
        <time>2023-05-27T15:12:23Z</time>
      </trkpt>
      <trkpt lat="43.53308" lon="2.15528">
        <ele>225.8</ele>
        <time>2023-05-27T15:12:24Z</time>
      </trkpt>
      <trkpt lat="43.53308" lon="2.15532">
        <ele>226</ele>
        <time>2023-05-27T15:12:25Z</time>
      </trkpt>
      <trkpt lat="43.53309" lon="2.15535">
        <ele>226</ele>
        <time>2023-05-27T15:12:26Z</time>
      </trkpt>
      <trkpt lat="43.5331" lon="2.15539">
        <ele>226</ele>
        <time>2023-05-27T15:12:27Z</time>
      </trkpt>
      <trkpt lat="43.53311" lon="2.15543">
        <ele>226</ele>
        <time>2023-05-27T15:12:28Z</time>
      </trkpt>
      <trkpt lat="43.53312" lon="2.15546">
        <ele>226</ele>
        <time>2023-05-27T15:12:29Z</time>
      </trkpt>
      <trkpt lat="43.53313" lon="2.1555">
        <ele>226</ele>
        <time>2023-05-27T15:12:30Z</time>
      </trkpt>
      <trkpt lat="43.53314" lon="2.15554">
        <ele>226</ele>
        <time>2023-05-27T15:12:31Z</time>
      </trkpt>
      <trkpt lat="43.53316" lon="2.15557">
        <ele>226</ele>
        <time>2023-05-27T15:12:32Z</time>
      </trkpt>
      <trkpt lat="43.53317" lon="2.1556">
        <ele>226</ele>
        <time>2023-05-27T15:12:33Z</time>
      </trkpt>
      <trkpt lat="43.53319" lon="2.15563">
        <ele>226</ele>
        <time>2023-05-27T15:12:34Z</time>
      </trkpt>
      <trkpt lat="43.53321" lon="2.15566">
        <ele>226</ele>
        <time>2023-05-27T15:12:35Z</time>
      </trkpt>
      <trkpt lat="43.53322" lon="2.15569">
        <ele>226</ele>
        <time>2023-05-27T15:12:36Z</time>
      </trkpt>
      <trkpt lat="43.53324" lon="2.15571">
        <ele>226.2</ele>
        <time>2023-05-27T15:12:37Z</time>
      </trkpt>
      <trkpt lat="43.53326" lon="2.15574">
        <ele>226.2</ele>
        <time>2023-05-27T15:12:38Z</time>
      </trkpt>
      <trkpt lat="43.53327" lon="2.15576">
        <ele>226.2</ele>
        <time>2023-05-27T15:12:39Z</time>
      </trkpt>
      <trkpt lat="43.53329" lon="2.15579">
        <ele>226.2</ele>
        <time>2023-05-27T15:12:40Z</time>
      </trkpt>
      <trkpt lat="43.53331" lon="2.15582">
        <ele>226.4</ele>
        <time>2023-05-27T15:12:41Z</time>
      </trkpt>
      <trkpt lat="43.53333" lon="2.15584">
        <ele>226.4</ele>
        <time>2023-05-27T15:12:42Z</time>
      </trkpt>
      <trkpt lat="43.53335" lon="2.15586">
        <ele>226.4</ele>
        <time>2023-05-27T15:12:43Z</time>
      </trkpt>
      <trkpt lat="43.53337" lon="2.15589">
        <ele>226.4</ele>
        <time>2023-05-27T15:12:44Z</time>
      </trkpt>
      <trkpt lat="43.53339" lon="2.15591">
        <ele>226.6</ele>
        <time>2023-05-27T15:12:45Z</time>
      </trkpt>
      <trkpt lat="43.53341" lon="2.15593">
        <ele>226.6</ele>
        <time>2023-05-27T15:12:46Z</time>
      </trkpt>
      <trkpt lat="43.53342" lon="2.15596">
        <ele>226.6</ele>
        <time>2023-05-27T15:12:47Z</time>
      </trkpt>
      <trkpt lat="43.53344" lon="2.15598">
        <ele>226.6</ele>
        <time>2023-05-27T15:12:48Z</time>
      </trkpt>
      <trkpt lat="43.53346" lon="2.15601">
        <ele>226.8</ele>
        <time>2023-05-27T15:12:49Z</time>
      </trkpt>
      <trkpt lat="43.53348" lon="2.15603">
        <ele>226.8</ele>
        <time>2023-05-27T15:12:50Z</time>
      </trkpt>
      <trkpt lat="43.5335" lon="2.15606">
        <ele>226.8</ele>
        <time>2023-05-27T15:12:51Z</time>
      </trkpt>
      <trkpt lat="43.53352" lon="2.15608">
        <ele>226.8</ele>
        <time>2023-05-27T15:12:52Z</time>
      </trkpt>
      <trkpt lat="43.53354" lon="2.15611">
        <ele>227</ele>
        <time>2023-05-27T15:12:53Z</time>
      </trkpt>
      <trkpt lat="43.53356" lon="2.15613">
        <ele>227</ele>
        <time>2023-05-27T15:12:54Z</time>
      </trkpt>
      <trkpt lat="43.53358" lon="2.15615">
        <ele>227</ele>
        <time>2023-05-27T15:12:55Z</time>
      </trkpt>
      <trkpt lat="43.53359" lon="2.15618">
        <ele>227</ele>
        <time>2023-05-27T15:12:56Z</time>
      </trkpt>
      <trkpt lat="43.53361" lon="2.1562">
        <ele>227.2</ele>
        <time>2023-05-27T15:12:57Z</time>
      </trkpt>
      <trkpt lat="43.53363" lon="2.15622">
        <ele>227.2</ele>
        <time>2023-05-27T15:12:58Z</time>
      </trkpt>
      <trkpt lat="43.53365" lon="2.15624">
        <ele>227.2</ele>
        <time>2023-05-27T15:12:59Z</time>
      </trkpt>
      <trkpt lat="43.53367" lon="2.15627">
        <ele>227.4</ele>
        <time>2023-05-27T15:13:00Z</time>
      </trkpt>
      <trkpt lat="43.53369" lon="2.15629">
        <ele>227.6</ele>
        <time>2023-05-27T15:13:01Z</time>
      </trkpt>
      <trkpt lat="43.53371" lon="2.15631">
        <ele>227.6</ele>
        <time>2023-05-27T15:13:02Z</time>
      </trkpt>
      <trkpt lat="43.53373" lon="2.15633">
        <ele>227.6</ele>
        <time>2023-05-27T15:13:03Z</time>
      </trkpt>
      <trkpt lat="43.53375" lon="2.15635">
        <ele>227.8</ele>
        <time>2023-05-27T15:13:04Z</time>
      </trkpt>
      <trkpt lat="43.53378" lon="2.15637">
        <ele>228</ele>
        <time>2023-05-27T15:13:05Z</time>
      </trkpt>
      <trkpt lat="43.5338" lon="2.15638">
        <ele>228</ele>
        <time>2023-05-27T15:13:06Z</time>
      </trkpt>
      <trkpt lat="43.53382" lon="2.1564">
        <ele>228.2</ele>
        <time>2023-05-27T15:13:07Z</time>
      </trkpt>
      <trkpt lat="43.53385" lon="2.15642">
        <ele>228.2</ele>
        <time>2023-05-27T15:13:08Z</time>
      </trkpt>
      <trkpt lat="43.53386" lon="2.15644">
        <ele>228.4</ele>
        <time>2023-05-27T15:13:09Z</time>
      </trkpt>
      <trkpt lat="43.53389" lon="2.15645">
        <ele>228.4</ele>
        <time>2023-05-27T15:13:10Z</time>
      </trkpt>
      <trkpt lat="43.53391" lon="2.15646">
        <ele>228.6</ele>
        <time>2023-05-27T15:13:11Z</time>
      </trkpt>
      <trkpt lat="43.53394" lon="2.15648">
        <ele>228.6</ele>
        <time>2023-05-27T15:13:12Z</time>
      </trkpt>
      <trkpt lat="43.53396" lon="2.15649">
        <ele>228.8</ele>
        <time>2023-05-27T15:13:13Z</time>
      </trkpt>
      <trkpt lat="43.53399" lon="2.1565">
        <ele>229</ele>
        <time>2023-05-27T15:13:14Z</time>
      </trkpt>
      <trkpt lat="43.534" lon="2.15651">
        <ele>229</ele>
        <time>2023-05-27T15:13:15Z</time>
      </trkpt>
      <trkpt lat="43.53402" lon="2.15652">
        <ele>229.2</ele>
        <time>2023-05-27T15:13:16Z</time>
      </trkpt>
      <trkpt lat="43.53405" lon="2.15654">
        <ele>229.2</ele>
        <time>2023-05-27T15:13:17Z</time>
      </trkpt>
      <trkpt lat="43.53407" lon="2.15655">
        <ele>229.4</ele>
        <time>2023-05-27T15:13:18Z</time>
      </trkpt>
      <trkpt lat="43.5341" lon="2.15656">
        <ele>229.4</ele>
        <time>2023-05-27T15:13:19Z</time>
      </trkpt>
      <trkpt lat="43.53412" lon="2.15657">
        <ele>229.6</ele>
        <time>2023-05-27T15:13:20Z</time>
      </trkpt>
      <trkpt lat="43.53415" lon="2.15658">
        <ele>229.6</ele>
        <time>2023-05-27T15:13:21Z</time>
      </trkpt>
      <trkpt lat="43.53417" lon="2.15659">
        <ele>229.6</ele>
        <time>2023-05-27T15:13:22Z</time>
      </trkpt>
      <trkpt lat="43.5342" lon="2.1566">
        <ele>229.8</ele>
        <time>2023-05-27T15:13:23Z</time>
      </trkpt>
      <trkpt lat="43.53422" lon="2.15661">
        <ele>229.8</ele>
        <time>2023-05-27T15:13:24Z</time>
      </trkpt>
      <trkpt lat="43.53424" lon="2.15662">
        <ele>230</ele>
        <time>2023-05-27T15:13:25Z</time>
      </trkpt>
      <trkpt lat="43.53427" lon="2.15663">
        <ele>230</ele>
        <time>2023-05-27T15:13:26Z</time>
      </trkpt>
      <trkpt lat="43.5343" lon="2.15664">
        <ele>230.2</ele>
        <time>2023-05-27T15:13:27Z</time>
      </trkpt>
      <trkpt lat="43.53432" lon="2.15666">
        <ele>230.2</ele>
        <time>2023-05-27T15:13:28Z</time>
      </trkpt>
      <trkpt lat="43.53434" lon="2.15667">
        <ele>230.4</ele>
        <time>2023-05-27T15:13:29Z</time>
      </trkpt>
      <trkpt lat="43.53437" lon="2.15668">
        <ele>230.4</ele>
        <time>2023-05-27T15:13:30Z</time>
      </trkpt>
      <trkpt lat="43.53439" lon="2.15669">
        <ele>230.6</ele>
        <time>2023-05-27T15:13:31Z</time>
      </trkpt>
      <trkpt lat="43.53441" lon="2.1567">
        <ele>230.6</ele>
        <time>2023-05-27T15:13:32Z</time>
      </trkpt>
      <trkpt lat="43.53443" lon="2.15671">
        <ele>230.6</ele>
        <time>2023-05-27T15:13:33Z</time>
      </trkpt>
      <trkpt lat="43.53446" lon="2.15673">
        <ele>230.6</ele>
        <time>2023-05-27T15:13:34Z</time>
      </trkpt>
      <trkpt lat="43.53448" lon="2.15674">
        <ele>230.6</ele>
        <time>2023-05-27T15:13:35Z</time>
      </trkpt>
      <trkpt lat="43.53451" lon="2.15675">
        <ele>230.6</ele>
        <time>2023-05-27T15:13:36Z</time>
      </trkpt>
      <trkpt lat="43.53454" lon="2.15676">
        <ele>230.6</ele>
        <time>2023-05-27T15:13:37Z</time>
      </trkpt>
      <trkpt lat="43.53456" lon="2.15678">
        <ele>230.8</ele>
        <time>2023-05-27T15:13:38Z</time>
      </trkpt>
      <trkpt lat="43.53459" lon="2.15679">
        <ele>230.8</ele>
        <time>2023-05-27T15:13:39Z</time>
      </trkpt>
      <trkpt lat="43.53462" lon="2.1568">
        <ele>230.8</ele>
        <time>2023-05-27T15:13:40Z</time>
      </trkpt>
      <trkpt lat="43.53464" lon="2.15681">
        <ele>230.8</ele>
        <time>2023-05-27T15:13:41Z</time>
      </trkpt>
      <trkpt lat="43.53466" lon="2.15682">
        <ele>230.8</ele>
        <time>2023-05-27T15:13:42Z</time>
      </trkpt>
      <trkpt lat="43.53468" lon="2.15683">
        <ele>230.8</ele>
        <time>2023-05-27T15:13:43Z</time>
      </trkpt>
      <trkpt lat="43.53471" lon="2.15684">
        <ele>230.8</ele>
        <time>2023-05-27T15:13:44Z</time>
      </trkpt>
      <trkpt lat="43.53473" lon="2.15685">
        <ele>230.8</ele>
        <time>2023-05-27T15:13:45Z</time>
      </trkpt>
      <trkpt lat="43.53475" lon="2.15686">
        <ele>230.8</ele>
        <time>2023-05-27T15:13:46Z</time>
      </trkpt>
      <trkpt lat="43.53477" lon="2.15686">
        <ele>230.8</ele>
        <time>2023-05-27T15:13:47Z</time>
      </trkpt>
      <trkpt lat="43.53479" lon="2.15687">
        <ele>230.6</ele>
        <time>2023-05-27T15:13:48Z</time>
      </trkpt>
      <trkpt lat="43.53481" lon="2.15688">
        <ele>230.6</ele>
        <time>2023-05-27T15:13:49Z</time>
      </trkpt>
      <trkpt lat="43.53483" lon="2.15689">
        <ele>230.6</ele>
        <time>2023-05-27T15:13:50Z</time>
      </trkpt>
      <trkpt lat="43.53486" lon="2.1569">
        <ele>230.4</ele>
        <time>2023-05-27T15:15:05Z</time>
      </trkpt>
      <trkpt lat="43.53487" lon="2.15691">
        <ele>230.4</ele>
        <time>2023-05-27T15:15:06Z</time>
      </trkpt>
      <trkpt lat="43.53488" lon="2.15691">
        <ele>230.4</ele>
        <time>2023-05-27T15:15:07Z</time>
      </trkpt>
      <trkpt lat="43.53489" lon="2.15692">
        <ele>230.4</ele>
        <time>2023-05-27T15:15:08Z</time>
      </trkpt>
      <trkpt lat="43.53491" lon="2.15692">
        <ele>230.4</ele>
        <time>2023-05-27T15:15:09Z</time>
      </trkpt>
      <trkpt lat="43.53493" lon="2.15692">
        <ele>230.4</ele>
        <time>2023-05-27T15:15:10Z</time>
      </trkpt>
      <trkpt lat="43.53495" lon="2.15693">
        <ele>230.4</ele>
        <time>2023-05-27T15:15:11Z</time>
      </trkpt>
      <trkpt lat="43.53497" lon="2.15694">
        <ele>230.4</ele>
        <time>2023-05-27T15:15:12Z</time>
      </trkpt>
      <trkpt lat="43.535" lon="2.15696">
        <ele>230.4</ele>
        <time>2023-05-27T15:15:13Z</time>
      </trkpt>
      <trkpt lat="43.53503" lon="2.15697">
        <ele>230.2</ele>
        <time>2023-05-27T15:15:14Z</time>
      </trkpt>
      <trkpt lat="43.53507" lon="2.15699">
        <ele>230.2</ele>
        <time>2023-05-27T15:15:15Z</time>
      </trkpt>
      <trkpt lat="43.5351" lon="2.157">
        <ele>230.2</ele>
        <time>2023-05-27T15:15:16Z</time>
      </trkpt>
      <trkpt lat="43.53514" lon="2.15702">
        <ele>230</ele>
        <time>2023-05-27T15:15:17Z</time>
      </trkpt>
      <trkpt lat="43.53518" lon="2.15705">
        <ele>230</ele>
        <time>2023-05-27T15:15:18Z</time>
      </trkpt>
      <trkpt lat="43.53522" lon="2.15707">
        <ele>229.8</ele>
        <time>2023-05-27T15:15:19Z</time>
      </trkpt>
      <trkpt lat="43.53527" lon="2.1571">
        <ele>229.6</ele>
        <time>2023-05-27T15:15:20Z</time>
      </trkpt>
      <trkpt lat="43.53532" lon="2.15712">
        <ele>229.6</ele>
        <time>2023-05-27T15:15:21Z</time>
      </trkpt>
      <trkpt lat="43.53537" lon="2.15714">
        <ele>229.4</ele>
        <time>2023-05-27T15:15:22Z</time>
      </trkpt>
      <trkpt lat="43.53542" lon="2.15716">
        <ele>229.2</ele>
        <time>2023-05-27T15:15:23Z</time>
      </trkpt>
      <trkpt lat="43.53547" lon="2.15718">
        <ele>229</ele>
        <time>2023-05-27T15:15:24Z</time>
      </trkpt>
      <trkpt lat="43.53553" lon="2.15722">
        <ele>229</ele>
        <time>2023-05-27T15:15:25Z</time>
      </trkpt>
      <trkpt lat="43.53558" lon="2.15724">
        <ele>228.8</ele>
        <time>2023-05-27T15:15:26Z</time>
      </trkpt>
      <trkpt lat="43.53564" lon="2.15727">
        <ele>228.8</ele>
        <time>2023-05-27T15:15:27Z</time>
      </trkpt>
      <trkpt lat="43.53569" lon="2.15729">
        <ele>228.6</ele>
        <time>2023-05-27T15:15:28Z</time>
      </trkpt>
      <trkpt lat="43.53574" lon="2.15731">
        <ele>228.6</ele>
        <time>2023-05-27T15:15:29Z</time>
      </trkpt>
      <trkpt lat="43.53579" lon="2.15734">
        <ele>228.4</ele>
        <time>2023-05-27T15:15:30Z</time>
      </trkpt>
      <trkpt lat="43.53585" lon="2.15736">
        <ele>228.4</ele>
        <time>2023-05-27T15:15:31Z</time>
      </trkpt>
      <trkpt lat="43.53591" lon="2.15739">
        <ele>228.2</ele>
        <time>2023-05-27T15:15:32Z</time>
      </trkpt>
      <trkpt lat="43.53596" lon="2.15742">
        <ele>228.2</ele>
        <time>2023-05-27T15:15:33Z</time>
      </trkpt>
      <trkpt lat="43.53601" lon="2.15745">
        <ele>228.2</ele>
        <time>2023-05-27T15:15:34Z</time>
      </trkpt>
      <trkpt lat="43.53606" lon="2.15747">
        <ele>228.2</ele>
        <time>2023-05-27T15:15:35Z</time>
      </trkpt>
      <trkpt lat="43.53611" lon="2.15749">
        <ele>228.2</ele>
        <time>2023-05-27T15:15:36Z</time>
      </trkpt>
      <trkpt lat="43.53616" lon="2.15752">
        <ele>228.2</ele>
        <time>2023-05-27T15:15:37Z</time>
      </trkpt>
      <trkpt lat="43.53621" lon="2.15754">
        <ele>228.4</ele>
        <time>2023-05-27T15:15:38Z</time>
      </trkpt>
      <trkpt lat="43.53626" lon="2.15757">
        <ele>228.4</ele>
        <time>2023-05-27T15:15:39Z</time>
      </trkpt>
      <trkpt lat="43.5363" lon="2.15759">
        <ele>228.6</ele>
        <time>2023-05-27T15:15:40Z</time>
      </trkpt>
      <trkpt lat="43.53634" lon="2.15762">
        <ele>228.6</ele>
        <time>2023-05-27T15:15:41Z</time>
      </trkpt>
      <trkpt lat="43.53638" lon="2.15764">
        <ele>228.8</ele>
        <time>2023-05-27T15:15:42Z</time>
      </trkpt>
      <trkpt lat="43.53642" lon="2.15767">
        <ele>228.8</ele>
        <time>2023-05-27T15:15:43Z</time>
      </trkpt>
      <trkpt lat="43.53646" lon="2.15769">
        <ele>229</ele>
        <time>2023-05-27T15:15:44Z</time>
      </trkpt>
      <trkpt lat="43.5365" lon="2.15772">
        <ele>229</ele>
        <time>2023-05-27T15:15:45Z</time>
      </trkpt>
      <trkpt lat="43.53654" lon="2.15773">
        <ele>229</ele>
        <time>2023-05-27T15:15:46Z</time>
      </trkpt>
      <trkpt lat="43.53658" lon="2.15775">
        <ele>229</ele>
        <time>2023-05-27T15:15:47Z</time>
      </trkpt>
      <trkpt lat="43.53662" lon="2.15777">
        <ele>228.8</ele>
        <time>2023-05-27T15:15:48Z</time>
      </trkpt>
      <trkpt lat="43.53667" lon="2.15779">
        <ele>228.6</ele>
        <time>2023-05-27T15:15:49Z</time>
      </trkpt>
      <trkpt lat="43.53672" lon="2.15781">
        <ele>228.4</ele>
        <time>2023-05-27T15:15:50Z</time>
      </trkpt>
      <trkpt lat="43.53678" lon="2.15784">
        <ele>228.2</ele>
        <time>2023-05-27T15:15:51Z</time>
      </trkpt>
      <trkpt lat="43.53685" lon="2.15786">
        <ele>227.8</ele>
        <time>2023-05-27T15:15:52Z</time>
      </trkpt>
      <trkpt lat="43.53692" lon="2.15789">
        <ele>227.2</ele>
        <time>2023-05-27T15:15:53Z</time>
      </trkpt>
      <trkpt lat="43.53699" lon="2.15793">
        <ele>226.6</ele>
        <time>2023-05-27T15:15:54Z</time>
      </trkpt>
      <trkpt lat="43.53707" lon="2.15798">
        <ele>226</ele>
        <time>2023-05-27T15:15:55Z</time>
      </trkpt>
      <trkpt lat="43.53715" lon="2.15805">
        <ele>225.4</ele>
        <time>2023-05-27T15:15:56Z</time>
      </trkpt>
      <trkpt lat="43.53723" lon="2.15812">
        <ele>224.6</ele>
        <time>2023-05-27T15:15:57Z</time>
      </trkpt>
      <trkpt lat="43.53731" lon="2.15819">
        <ele>223.8</ele>
        <time>2023-05-27T15:15:58Z</time>
      </trkpt>
      <trkpt lat="43.5374" lon="2.15828">
        <ele>223</ele>
        <time>2023-05-27T15:15:59Z</time>
      </trkpt>
      <trkpt lat="43.53749" lon="2.15838">
        <ele>222.2</ele>
        <time>2023-05-27T15:16:00Z</time>
      </trkpt>
      <trkpt lat="43.53756" lon="2.15848">
        <ele>221.6</ele>
        <time>2023-05-27T15:16:01Z</time>
      </trkpt>
      <trkpt lat="43.53763" lon="2.15858">
        <ele>221</ele>
        <time>2023-05-27T15:16:02Z</time>
      </trkpt>
      <trkpt lat="43.5377" lon="2.15868">
        <ele>220.6</ele>
        <time>2023-05-27T15:16:03Z</time>
      </trkpt>
      <trkpt lat="43.53776" lon="2.15879">
        <ele>220.2</ele>
        <time>2023-05-27T15:16:04Z</time>
      </trkpt>
      <trkpt lat="43.53782" lon="2.1589">
        <ele>219.6</ele>
        <time>2023-05-27T15:16:05Z</time>
      </trkpt>
      <trkpt lat="43.53787" lon="2.15901">
        <ele>219.2</ele>
        <time>2023-05-27T15:16:06Z</time>
      </trkpt>
      <trkpt lat="43.53791" lon="2.15913">
        <ele>219</ele>
        <time>2023-05-27T15:16:07Z</time>
      </trkpt>
      <trkpt lat="43.53795" lon="2.15926">
        <ele>218.6</ele>
        <time>2023-05-27T15:16:08Z</time>
      </trkpt>
      <trkpt lat="43.53799" lon="2.15938">
        <ele>218.4</ele>
        <time>2023-05-27T15:16:09Z</time>
      </trkpt>
      <trkpt lat="43.53802" lon="2.1595">
        <ele>218.2</ele>
        <time>2023-05-27T15:16:10Z</time>
      </trkpt>
      <trkpt lat="43.53806" lon="2.15961">
        <ele>218</ele>
        <time>2023-05-27T15:16:11Z</time>
      </trkpt>
      <trkpt lat="43.53809" lon="2.15971">
        <ele>218</ele>
        <time>2023-05-27T15:16:12Z</time>
      </trkpt>
      <trkpt lat="43.53813" lon="2.1598">
        <ele>217.8</ele>
        <time>2023-05-27T15:16:13Z</time>
      </trkpt>
      <trkpt lat="43.53816" lon="2.1599">
        <ele>217.8</ele>
        <time>2023-05-27T15:16:14Z</time>
      </trkpt>
      <trkpt lat="43.53821" lon="2.16">
        <ele>217.6</ele>
        <time>2023-05-27T15:16:15Z</time>
      </trkpt>
      <trkpt lat="43.53825" lon="2.16008">
        <ele>217.6</ele>
        <time>2023-05-27T15:16:16Z</time>
      </trkpt>
      <trkpt lat="43.53828" lon="2.16017">
        <ele>217.6</ele>
        <time>2023-05-27T15:16:17Z</time>
      </trkpt>
      <trkpt lat="43.53832" lon="2.16024">
        <ele>217.6</ele>
        <time>2023-05-27T15:16:18Z</time>
      </trkpt>
      <trkpt lat="43.53836" lon="2.16031">
        <ele>217.6</ele>
        <time>2023-05-27T15:16:19Z</time>
      </trkpt>
      <trkpt lat="43.53839" lon="2.16038">
        <ele>217.4</ele>
        <time>2023-05-27T15:16:20Z</time>
      </trkpt>
      <trkpt lat="43.53844" lon="2.16045">
        <ele>217.4</ele>
        <time>2023-05-27T15:16:21Z</time>
      </trkpt>
      <trkpt lat="43.53848" lon="2.16052">
        <ele>217.2</ele>
        <time>2023-05-27T15:16:22Z</time>
      </trkpt>
      <trkpt lat="43.53852" lon="2.16059">
        <ele>217</ele>
        <time>2023-05-27T15:16:23Z</time>
      </trkpt>
      <trkpt lat="43.53856" lon="2.16065">
        <ele>216.8</ele>
        <time>2023-05-27T15:16:24Z</time>
      </trkpt>
      <trkpt lat="43.53861" lon="2.16072">
        <ele>216.4</ele>
        <time>2023-05-27T15:16:25Z</time>
      </trkpt>
      <trkpt lat="43.53867" lon="2.16079">
        <ele>216</ele>
        <time>2023-05-27T15:16:26Z</time>
      </trkpt>
      <trkpt lat="43.53874" lon="2.16085">
        <ele>215.6</ele>
        <time>2023-05-27T15:16:27Z</time>
      </trkpt>
      <trkpt lat="43.53881" lon="2.16091">
        <ele>215</ele>
        <time>2023-05-27T15:16:28Z</time>
      </trkpt>
      <trkpt lat="43.53888" lon="2.16097">
        <ele>214.4</ele>
        <time>2023-05-27T15:16:29Z</time>
      </trkpt>
      <trkpt lat="43.53897" lon="2.16103">
        <ele>213.8</ele>
        <time>2023-05-27T15:16:30Z</time>
      </trkpt>
      <trkpt lat="43.53907" lon="2.16108">
        <ele>213</ele>
        <time>2023-05-27T15:16:31Z</time>
      </trkpt>
      <trkpt lat="43.53916" lon="2.16114">
        <ele>212.4</ele>
        <time>2023-05-27T15:16:32Z</time>
      </trkpt>
      <trkpt lat="43.53926" lon="2.16119">
        <ele>211.6</ele>
        <time>2023-05-27T15:16:33Z</time>
      </trkpt>
      <trkpt lat="43.53935" lon="2.16124">
        <ele>210.8</ele>
        <time>2023-05-27T15:16:34Z</time>
      </trkpt>
      <trkpt lat="43.53945" lon="2.16129">
        <ele>210.2</ele>
        <time>2023-05-27T15:16:35Z</time>
      </trkpt>
      <trkpt lat="43.53955" lon="2.16135">
        <ele>209.6</ele>
        <time>2023-05-27T15:16:36Z</time>
      </trkpt>
      <trkpt lat="43.53965" lon="2.16141">
        <ele>209</ele>
        <time>2023-05-27T15:16:37Z</time>
      </trkpt>
      <trkpt lat="43.53976" lon="2.16148">
        <ele>208.6</ele>
        <time>2023-05-27T15:16:38Z</time>
      </trkpt>
      <trkpt lat="43.53986" lon="2.16155">
        <ele>208</ele>
        <time>2023-05-27T15:16:39Z</time>
      </trkpt>
      <trkpt lat="43.53996" lon="2.16162">
        <ele>207.2</ele>
        <time>2023-05-27T15:16:40Z</time>
      </trkpt>
      <trkpt lat="43.54005" lon="2.16171">
        <ele>206.6</ele>
        <time>2023-05-27T15:16:41Z</time>
      </trkpt>
      <trkpt lat="43.54013" lon="2.16181">
        <ele>205.8</ele>
        <time>2023-05-27T15:16:42Z</time>
      </trkpt>
      <trkpt lat="43.54022" lon="2.16193">
        <ele>205.2</ele>
        <time>2023-05-27T15:16:43Z</time>
      </trkpt>
      <trkpt lat="43.5403" lon="2.16204">
        <ele>204.6</ele>
        <time>2023-05-27T15:16:44Z</time>
      </trkpt>
      <trkpt lat="43.54037" lon="2.16215">
        <ele>204</ele>
        <time>2023-05-27T15:16:45Z</time>
      </trkpt>
      <trkpt lat="43.54045" lon="2.16227">
        <ele>203.6</ele>
        <time>2023-05-27T15:16:46Z</time>
      </trkpt>
      <trkpt lat="43.54053" lon="2.1624">
        <ele>203</ele>
        <time>2023-05-27T15:16:47Z</time>
      </trkpt>
      <trkpt lat="43.54061" lon="2.16252">
        <ele>202.6</ele>
        <time>2023-05-27T15:16:48Z</time>
      </trkpt>
      <trkpt lat="43.54068" lon="2.16263">
        <ele>202</ele>
        <time>2023-05-27T15:16:49Z</time>
      </trkpt>
      <trkpt lat="43.54075" lon="2.16275">
        <ele>201.6</ele>
        <time>2023-05-27T15:16:50Z</time>
      </trkpt>
      <trkpt lat="43.54082" lon="2.16286">
        <ele>201.2</ele>
        <time>2023-05-27T15:16:51Z</time>
      </trkpt>
      <trkpt lat="43.54089" lon="2.16297">
        <ele>200.8</ele>
        <time>2023-05-27T15:16:52Z</time>
      </trkpt>
      <trkpt lat="43.54096" lon="2.16307">
        <ele>200.6</ele>
        <time>2023-05-27T15:16:53Z</time>
      </trkpt>
      <trkpt lat="43.54102" lon="2.16318">
        <ele>200.2</ele>
        <time>2023-05-27T15:16:54Z</time>
      </trkpt>
      <trkpt lat="43.54109" lon="2.16328">
        <ele>200</ele>
        <time>2023-05-27T15:16:55Z</time>
      </trkpt>
      <trkpt lat="43.54114" lon="2.16337">
        <ele>199.6</ele>
        <time>2023-05-27T15:16:56Z</time>
      </trkpt>
      <trkpt lat="43.5412" lon="2.16346">
        <ele>199.2</ele>
        <time>2023-05-27T15:16:57Z</time>
      </trkpt>
      <trkpt lat="43.54126" lon="2.16355">
        <ele>199</ele>
        <time>2023-05-27T15:16:58Z</time>
      </trkpt>
      <trkpt lat="43.54133" lon="2.16365">
        <ele>198.6</ele>
        <time>2023-05-27T15:16:59Z</time>
      </trkpt>
      <trkpt lat="43.54139" lon="2.16375">
        <ele>198.4</ele>
        <time>2023-05-27T15:17:00Z</time>
      </trkpt>
      <trkpt lat="43.54146" lon="2.16386">
        <ele>198.2</ele>
        <time>2023-05-27T15:17:01Z</time>
      </trkpt>
      <trkpt lat="43.54152" lon="2.16395">
        <ele>198</ele>
        <time>2023-05-27T15:17:02Z</time>
      </trkpt>
      <trkpt lat="43.54157" lon="2.16403">
        <ele>197.8</ele>
        <time>2023-05-27T15:17:03Z</time>
      </trkpt>
      <trkpt lat="43.54163" lon="2.16411">
        <ele>197.8</ele>
        <time>2023-05-27T15:17:04Z</time>
      </trkpt>
      <trkpt lat="43.5417" lon="2.1642">
        <ele>197.6</ele>
        <time>2023-05-27T15:17:05Z</time>
      </trkpt>
      <trkpt lat="43.54175" lon="2.16427">
        <ele>197.6</ele>
        <time>2023-05-27T15:17:06Z</time>
      </trkpt>
      <trkpt lat="43.54181" lon="2.16434">
        <ele>197.4</ele>
        <time>2023-05-27T15:17:07Z</time>
      </trkpt>
      <trkpt lat="43.54187" lon="2.16441">
        <ele>197.2</ele>
        <time>2023-05-27T15:17:08Z</time>
      </trkpt>
      <trkpt lat="43.54193" lon="2.16448">
        <ele>197.2</ele>
        <time>2023-05-27T15:17:09Z</time>
      </trkpt>
      <trkpt lat="43.54198" lon="2.16455">
        <ele>197</ele>
        <time>2023-05-27T15:17:10Z</time>
      </trkpt>
      <trkpt lat="43.54203" lon="2.16461">
        <ele>196.8</ele>
        <time>2023-05-27T15:17:11Z</time>
      </trkpt>
      <trkpt lat="43.54207" lon="2.16466">
        <ele>196.6</ele>
        <time>2023-05-27T15:17:12Z</time>
      </trkpt>
      <trkpt lat="43.5421" lon="2.1647">
        <ele>196.4</ele>
        <time>2023-05-27T15:17:13Z</time>
      </trkpt>
      <trkpt lat="43.54215" lon="2.16474">
        <ele>196.2</ele>
        <time>2023-05-27T15:17:14Z</time>
      </trkpt>
      <trkpt lat="43.5422" lon="2.16477">
        <ele>196.2</ele>
        <time>2023-05-27T15:17:15Z</time>
      </trkpt>
      <trkpt lat="43.54226" lon="2.16479">
        <ele>196</ele>
        <time>2023-05-27T15:17:16Z</time>
      </trkpt>
      <trkpt lat="43.54231" lon="2.1648">
        <ele>196</ele>
        <time>2023-05-27T15:17:17Z</time>
      </trkpt>
      <trkpt lat="43.54236" lon="2.16481">
        <ele>195.8</ele>
        <time>2023-05-27T15:17:18Z</time>
      </trkpt>
      <trkpt lat="43.54242" lon="2.16483">
        <ele>195.8</ele>
        <time>2023-05-27T15:17:19Z</time>
      </trkpt>
      <trkpt lat="43.54247" lon="2.16484">
        <ele>195.8</ele>
        <time>2023-05-27T15:17:20Z</time>
      </trkpt>
      <trkpt lat="43.54252" lon="2.16485">
        <ele>195.6</ele>
        <time>2023-05-27T15:17:21Z</time>
      </trkpt>
      <trkpt lat="43.54258" lon="2.16487">
        <ele>195.6</ele>
        <time>2023-05-27T15:17:22Z</time>
      </trkpt>
      <trkpt lat="43.54263" lon="2.16488">
        <ele>195.6</ele>
        <time>2023-05-27T15:17:23Z</time>
      </trkpt>
      <trkpt lat="43.54269" lon="2.16489">
        <ele>195.4</ele>
        <time>2023-05-27T15:17:24Z</time>
      </trkpt>
      <trkpt lat="43.54274" lon="2.1649">
        <ele>195.4</ele>
        <time>2023-05-27T15:17:25Z</time>
      </trkpt>
      <trkpt lat="43.5428" lon="2.16492">
        <ele>195.4</ele>
        <time>2023-05-27T15:17:26Z</time>
      </trkpt>
      <trkpt lat="43.54286" lon="2.16493">
        <ele>195.2</ele>
        <time>2023-05-27T15:17:27Z</time>
      </trkpt>
      <trkpt lat="43.54291" lon="2.16495">
        <ele>195.2</ele>
        <time>2023-05-27T15:17:28Z</time>
      </trkpt>
      <trkpt lat="43.54295" lon="2.16497">
        <ele>195.2</ele>
        <time>2023-05-27T15:17:29Z</time>
      </trkpt>
      <trkpt lat="43.54301" lon="2.16499">
        <ele>195.2</ele>
        <time>2023-05-27T15:17:30Z</time>
      </trkpt>
      <trkpt lat="43.54307" lon="2.16502">
        <ele>195.2</ele>
        <time>2023-05-27T15:17:31Z</time>
      </trkpt>
      <trkpt lat="43.54313" lon="2.16505">
        <ele>195</ele>
        <time>2023-05-27T15:17:32Z</time>
      </trkpt>
      <trkpt lat="43.54318" lon="2.16508">
        <ele>195</ele>
        <time>2023-05-27T15:17:33Z</time>
      </trkpt>
      <trkpt lat="43.54324" lon="2.1651">
        <ele>195</ele>
        <time>2023-05-27T15:17:34Z</time>
      </trkpt>
      <trkpt lat="43.54329" lon="2.16513">
        <ele>195</ele>
        <time>2023-05-27T15:17:35Z</time>
      </trkpt>
      <trkpt lat="43.54334" lon="2.16516">
        <ele>195</ele>
        <time>2023-05-27T15:17:36Z</time>
      </trkpt>
      <trkpt lat="43.54338" lon="2.1652">
        <ele>194.8</ele>
        <time>2023-05-27T15:17:37Z</time>
      </trkpt>
      <trkpt lat="43.54343" lon="2.16523">
        <ele>194.8</ele>
        <time>2023-05-27T15:17:38Z</time>
      </trkpt>
      <trkpt lat="43.54348" lon="2.16527">
        <ele>194.8</ele>
        <time>2023-05-27T15:17:39Z</time>
      </trkpt>
      <trkpt lat="43.54352" lon="2.1653">
        <ele>194.8</ele>
        <time>2023-05-27T15:17:40Z</time>
      </trkpt>
      <trkpt lat="43.54357" lon="2.16534">
        <ele>194.8</ele>
        <time>2023-05-27T15:17:41Z</time>
      </trkpt>
      <trkpt lat="43.54362" lon="2.16538">
        <ele>194.6</ele>
        <time>2023-05-27T15:17:42Z</time>
      </trkpt>
      <trkpt lat="43.54367" lon="2.16541">
        <ele>194.6</ele>
        <time>2023-05-27T15:17:43Z</time>
      </trkpt>
      <trkpt lat="43.54372" lon="2.16545">
        <ele>194.6</ele>
        <time>2023-05-27T15:17:44Z</time>
      </trkpt>
      <trkpt lat="43.54376" lon="2.16549">
        <ele>194.6</ele>
        <time>2023-05-27T15:17:45Z</time>
      </trkpt>
      <trkpt lat="43.54381" lon="2.16552">
        <ele>194.6</ele>
        <time>2023-05-27T15:17:46Z</time>
      </trkpt>
      <trkpt lat="43.54386" lon="2.16556">
        <ele>194.4</ele>
        <time>2023-05-27T15:17:47Z</time>
      </trkpt>
      <trkpt lat="43.54391" lon="2.1656">
        <ele>194.4</ele>
        <time>2023-05-27T15:17:48Z</time>
      </trkpt>
      <trkpt lat="43.54396" lon="2.16563">
        <ele>194.4</ele>
        <time>2023-05-27T15:17:49Z</time>
      </trkpt>
      <trkpt lat="43.544" lon="2.16567">
        <ele>194.2</ele>
        <time>2023-05-27T15:17:50Z</time>
      </trkpt>
      <trkpt lat="43.54405" lon="2.16571">
        <ele>194.2</ele>
        <time>2023-05-27T15:17:51Z</time>
      </trkpt>
      <trkpt lat="43.5441" lon="2.16575">
        <ele>194.2</ele>
        <time>2023-05-27T15:17:52Z</time>
      </trkpt>
      <trkpt lat="43.54414" lon="2.16578">
        <ele>194.2</ele>
        <time>2023-05-27T15:17:53Z</time>
      </trkpt>
      <trkpt lat="43.54419" lon="2.16582">
        <ele>194.2</ele>
        <time>2023-05-27T15:17:54Z</time>
      </trkpt>
      <trkpt lat="43.54423" lon="2.16585">
        <ele>194.2</ele>
        <time>2023-05-27T15:17:55Z</time>
      </trkpt>
      <trkpt lat="43.54428" lon="2.16589">
        <ele>194.2</ele>
        <time>2023-05-27T15:17:56Z</time>
      </trkpt>
      <trkpt lat="43.54433" lon="2.16593">
        <ele>194.2</ele>
        <time>2023-05-27T15:17:57Z</time>
      </trkpt>
      <trkpt lat="43.54438" lon="2.16597">
        <ele>194.2</ele>
        <time>2023-05-27T15:17:58Z</time>
      </trkpt>
      <trkpt lat="43.54442" lon="2.166">
        <ele>194.2</ele>
        <time>2023-05-27T15:17:59Z</time>
      </trkpt>
      <trkpt lat="43.54447" lon="2.16604">
        <ele>194.2</ele>
        <time>2023-05-27T15:18:00Z</time>
      </trkpt>
      <trkpt lat="43.54452" lon="2.16609">
        <ele>194.2</ele>
        <time>2023-05-27T15:18:01Z</time>
      </trkpt>
      <trkpt lat="43.54456" lon="2.16613">
        <ele>194.2</ele>
        <time>2023-05-27T15:18:02Z</time>
      </trkpt>
      <trkpt lat="43.5446" lon="2.16618">
        <ele>194.2</ele>
        <time>2023-05-27T15:18:03Z</time>
      </trkpt>
      <trkpt lat="43.54465" lon="2.16622">
        <ele>194.2</ele>
        <time>2023-05-27T15:18:04Z</time>
      </trkpt>
      <trkpt lat="43.54469" lon="2.16627">
        <ele>194.2</ele>
        <time>2023-05-27T15:18:05Z</time>
      </trkpt>
      <trkpt lat="43.54473" lon="2.16632">
        <ele>194.2</ele>
        <time>2023-05-27T15:18:06Z</time>
      </trkpt>
      <trkpt lat="43.54477" lon="2.16637">
        <ele>194.2</ele>
        <time>2023-05-27T15:18:07Z</time>
      </trkpt>
      <trkpt lat="43.54481" lon="2.16641">
        <ele>194.2</ele>
        <time>2023-05-27T15:18:08Z</time>
      </trkpt>
      <trkpt lat="43.54485" lon="2.16646">
        <ele>194.2</ele>
        <time>2023-05-27T15:18:09Z</time>
      </trkpt>
      <trkpt lat="43.54489" lon="2.16651">
        <ele>194</ele>
        <time>2023-05-27T15:18:10Z</time>
      </trkpt>
      <trkpt lat="43.54493" lon="2.16656">
        <ele>194</ele>
        <time>2023-05-27T15:18:11Z</time>
      </trkpt>
      <trkpt lat="43.54497" lon="2.16661">
        <ele>194</ele>
        <time>2023-05-27T15:18:12Z</time>
      </trkpt>
      <trkpt lat="43.54501" lon="2.16666">
        <ele>194</ele>
        <time>2023-05-27T15:18:13Z</time>
      </trkpt>
      <trkpt lat="43.54506" lon="2.16671">
        <ele>194</ele>
        <time>2023-05-27T15:18:14Z</time>
      </trkpt>
      <trkpt lat="43.5451" lon="2.16675">
        <ele>194</ele>
        <time>2023-05-27T15:18:15Z</time>
      </trkpt>
      <trkpt lat="43.54514" lon="2.1668">
        <ele>194</ele>
        <time>2023-05-27T15:18:16Z</time>
      </trkpt>
      <trkpt lat="43.54518" lon="2.16685">
        <ele>194</ele>
        <time>2023-05-27T15:18:17Z</time>
      </trkpt>
      <trkpt lat="43.54522" lon="2.16689">
        <ele>194</ele>
        <time>2023-05-27T15:18:18Z</time>
      </trkpt>
      <trkpt lat="43.54526" lon="2.16694">
        <ele>194</ele>
        <time>2023-05-27T15:18:19Z</time>
      </trkpt>
      <trkpt lat="43.5453" lon="2.16698">
        <ele>193.8</ele>
        <time>2023-05-27T15:18:20Z</time>
      </trkpt>
      <trkpt lat="43.54534" lon="2.16703">
        <ele>193.8</ele>
        <time>2023-05-27T15:18:21Z</time>
      </trkpt>
      <trkpt lat="43.54539" lon="2.16708">
        <ele>193.8</ele>
        <time>2023-05-27T15:18:22Z</time>
      </trkpt>
      <trkpt lat="43.54544" lon="2.16712">
        <ele>193.8</ele>
        <time>2023-05-27T15:18:23Z</time>
      </trkpt>
      <trkpt lat="43.54548" lon="2.16717">
        <ele>193.6</ele>
        <time>2023-05-27T15:18:24Z</time>
      </trkpt>
      <trkpt lat="43.54553" lon="2.16721">
        <ele>193.6</ele>
        <time>2023-05-27T15:18:25Z</time>
      </trkpt>
      <trkpt lat="43.54557" lon="2.16726">
        <ele>193.6</ele>
        <time>2023-05-27T15:18:26Z</time>
      </trkpt>
      <trkpt lat="43.54562" lon="2.16731">
        <ele>193.6</ele>
        <time>2023-05-27T15:18:27Z</time>
      </trkpt>
      <trkpt lat="43.54567" lon="2.16735">
        <ele>193.6</ele>
        <time>2023-05-27T15:18:28Z</time>
      </trkpt>
      <trkpt lat="43.54571" lon="2.1674">
        <ele>193.4</ele>
        <time>2023-05-27T15:18:29Z</time>
      </trkpt>
      <trkpt lat="43.54575" lon="2.16745">
        <ele>193.4</ele>
        <time>2023-05-27T15:18:30Z</time>
      </trkpt>
      <trkpt lat="43.5458" lon="2.1675">
        <ele>193.4</ele>
        <time>2023-05-27T15:18:31Z</time>
      </trkpt>
      <trkpt lat="43.54584" lon="2.16754">
        <ele>193.2</ele>
        <time>2023-05-27T15:18:32Z</time>
      </trkpt>
      <trkpt lat="43.54589" lon="2.16758">
        <ele>193.2</ele>
        <time>2023-05-27T15:18:33Z</time>
      </trkpt>
      <trkpt lat="43.54593" lon="2.16763">
        <ele>193.2</ele>
        <time>2023-05-27T15:18:34Z</time>
      </trkpt>
      <trkpt lat="43.54598" lon="2.16768">
        <ele>193</ele>
        <time>2023-05-27T15:18:35Z</time>
      </trkpt>
      <trkpt lat="43.54602" lon="2.16773">
        <ele>193</ele>
        <time>2023-05-27T15:18:36Z</time>
      </trkpt>
      <trkpt lat="43.54607" lon="2.16777">
        <ele>193</ele>
        <time>2023-05-27T15:18:37Z</time>
      </trkpt>
      <trkpt lat="43.54612" lon="2.16782">
        <ele>193</ele>
        <time>2023-05-27T15:18:38Z</time>
      </trkpt>
      <trkpt lat="43.54616" lon="2.16786">
        <ele>192.8</ele>
        <time>2023-05-27T15:18:39Z</time>
      </trkpt>
      <trkpt lat="43.54621" lon="2.16792">
        <ele>192.8</ele>
        <time>2023-05-27T15:18:40Z</time>
      </trkpt>
      <trkpt lat="43.54626" lon="2.16796">
        <ele>192.8</ele>
        <time>2023-05-27T15:18:41Z</time>
      </trkpt>
      <trkpt lat="43.54631" lon="2.16801">
        <ele>192.6</ele>
        <time>2023-05-27T15:18:42Z</time>
      </trkpt>
      <trkpt lat="43.54635" lon="2.16806">
        <ele>192.6</ele>
        <time>2023-05-27T15:18:43Z</time>
      </trkpt>
      <trkpt lat="43.54639" lon="2.16811">
        <ele>192.4</ele>
        <time>2023-05-27T15:18:44Z</time>
      </trkpt>
      <trkpt lat="43.54644" lon="2.16816">
        <ele>192.2</ele>
        <time>2023-05-27T15:18:45Z</time>
      </trkpt>
      <trkpt lat="43.54648" lon="2.1682">
        <ele>192.2</ele>
        <time>2023-05-27T15:18:46Z</time>
      </trkpt>
      <trkpt lat="43.54652" lon="2.16825">
        <ele>192</ele>
        <time>2023-05-27T15:18:47Z</time>
      </trkpt>
      <trkpt lat="43.54656" lon="2.1683">
        <ele>192</ele>
        <time>2023-05-27T15:18:48Z</time>
      </trkpt>
      <trkpt lat="43.54661" lon="2.16836">
        <ele>191.8</ele>
        <time>2023-05-27T15:18:49Z</time>
      </trkpt>
      <trkpt lat="43.54666" lon="2.16841">
        <ele>191.6</ele>
        <time>2023-05-27T15:18:50Z</time>
      </trkpt>
      <trkpt lat="43.54671" lon="2.16847">
        <ele>191.4</ele>
        <time>2023-05-27T15:18:51Z</time>
      </trkpt>
      <trkpt lat="43.54675" lon="2.16854">
        <ele>191.2</ele>
        <time>2023-05-27T15:18:52Z</time>
      </trkpt>
      <trkpt lat="43.5468" lon="2.1686">
        <ele>191</ele>
        <time>2023-05-27T15:18:53Z</time>
      </trkpt>
      <trkpt lat="43.54684" lon="2.16868">
        <ele>190.6</ele>
        <time>2023-05-27T15:18:54Z</time>
      </trkpt>
      <trkpt lat="43.54688" lon="2.16876">
        <ele>190.4</ele>
        <time>2023-05-27T15:18:55Z</time>
      </trkpt>
      <trkpt lat="43.54692" lon="2.16885">
        <ele>190</ele>
        <time>2023-05-27T15:18:56Z</time>
      </trkpt>
      <trkpt lat="43.54696" lon="2.16894">
        <ele>189.6</ele>
        <time>2023-05-27T15:18:57Z</time>
      </trkpt>
      <trkpt lat="43.547" lon="2.16904">
        <ele>189.2</ele>
        <time>2023-05-27T15:18:58Z</time>
      </trkpt>
      <trkpt lat="43.54703" lon="2.16914">
        <ele>188.8</ele>
        <time>2023-05-27T15:18:59Z</time>
      </trkpt>
      <trkpt lat="43.54707" lon="2.16924">
        <ele>188.4</ele>
        <time>2023-05-27T15:19:00Z</time>
      </trkpt>
      <trkpt lat="43.54711" lon="2.16935">
        <ele>188</ele>
        <time>2023-05-27T15:19:01Z</time>
      </trkpt>
      <trkpt lat="43.54715" lon="2.16946">
        <ele>187.6</ele>
        <time>2023-05-27T15:19:02Z</time>
      </trkpt>
      <trkpt lat="43.5472" lon="2.16956">
        <ele>187.2</ele>
        <time>2023-05-27T15:19:03Z</time>
      </trkpt>
      <trkpt lat="43.54725" lon="2.16966">
        <ele>187</ele>
        <time>2023-05-27T15:19:04Z</time>
      </trkpt>
      <trkpt lat="43.5473" lon="2.16974">
        <ele>186.6</ele>
        <time>2023-05-27T15:19:05Z</time>
      </trkpt>
      <trkpt lat="43.54736" lon="2.16981">
        <ele>186.4</ele>
        <time>2023-05-27T15:19:06Z</time>
      </trkpt>
      <trkpt lat="43.54742" lon="2.1699">
        <ele>186.2</ele>
        <time>2023-05-27T15:19:07Z</time>
      </trkpt>
      <trkpt lat="43.54749" lon="2.16998">
        <ele>186</ele>
        <time>2023-05-27T15:19:08Z</time>
      </trkpt>
      <trkpt lat="43.54754" lon="2.17004">
        <ele>185.8</ele>
        <time>2023-05-27T15:19:09Z</time>
      </trkpt>
      <trkpt lat="43.54761" lon="2.17012">
        <ele>185.8</ele>
        <time>2023-05-27T15:19:10Z</time>
      </trkpt>
      <trkpt lat="43.54767" lon="2.17019">
        <ele>185.6</ele>
        <time>2023-05-27T15:19:11Z</time>
      </trkpt>
      <trkpt lat="43.54772" lon="2.17025">
        <ele>185.6</ele>
        <time>2023-05-27T15:19:12Z</time>
      </trkpt>
      <trkpt lat="43.54778" lon="2.17032">
        <ele>185.4</ele>
        <time>2023-05-27T15:19:13Z</time>
      </trkpt>
      <trkpt lat="43.54783" lon="2.17039">
        <ele>185.2</ele>
        <time>2023-05-27T15:19:14Z</time>
      </trkpt>
      <trkpt lat="43.54789" lon="2.17045">
        <ele>185.2</ele>
        <time>2023-05-27T15:19:15Z</time>
      </trkpt>
      <trkpt lat="43.54794" lon="2.17052">
        <ele>185</ele>
        <time>2023-05-27T15:19:16Z</time>
      </trkpt>
      <trkpt lat="43.548" lon="2.17058">
        <ele>184.8</ele>
        <time>2023-05-27T15:19:17Z</time>
      </trkpt>
      <trkpt lat="43.54805" lon="2.17064">
        <ele>184.8</ele>
        <time>2023-05-27T15:19:18Z</time>
      </trkpt>
      <trkpt lat="43.54812" lon="2.17071">
        <ele>184.6</ele>
        <time>2023-05-27T15:19:19Z</time>
      </trkpt>
      <trkpt lat="43.54817" lon="2.17078">
        <ele>184.6</ele>
        <time>2023-05-27T15:19:20Z</time>
      </trkpt>
      <trkpt lat="43.54822" lon="2.17084">
        <ele>184.4</ele>
        <time>2023-05-27T15:19:21Z</time>
      </trkpt>
      <trkpt lat="43.54827" lon="2.1709">
        <ele>184.4</ele>
        <time>2023-05-27T15:19:22Z</time>
      </trkpt>
      <trkpt lat="43.54832" lon="2.17096">
        <ele>184.4</ele>
        <time>2023-05-27T15:19:23Z</time>
      </trkpt>
      <trkpt lat="43.54837" lon="2.17101">
        <ele>184.2</ele>
        <time>2023-05-27T15:19:24Z</time>
      </trkpt>
      <trkpt lat="43.54841" lon="2.17106">
        <ele>184.2</ele>
        <time>2023-05-27T15:19:25Z</time>
      </trkpt>
      <trkpt lat="43.54846" lon="2.17111">
        <ele>184.2</ele>
        <time>2023-05-27T15:19:26Z</time>
      </trkpt>
      <trkpt lat="43.54851" lon="2.17117">
        <ele>184</ele>
        <time>2023-05-27T15:19:27Z</time>
      </trkpt>
      <trkpt lat="43.54856" lon="2.17123">
        <ele>183.8</ele>
        <time>2023-05-27T15:19:28Z</time>
      </trkpt>
      <trkpt lat="43.5486" lon="2.17128">
        <ele>183.8</ele>
        <time>2023-05-27T15:19:29Z</time>
      </trkpt>
      <trkpt lat="43.54865" lon="2.17133">
        <ele>183.8</ele>
        <time>2023-05-27T15:19:30Z</time>
      </trkpt>
      <trkpt lat="43.54869" lon="2.17138">
        <ele>183.6</ele>
        <time>2023-05-27T15:19:31Z</time>
      </trkpt>
      <trkpt lat="43.54874" lon="2.17142">
        <ele>183.6</ele>
        <time>2023-05-27T15:19:32Z</time>
      </trkpt>
      <trkpt lat="43.54879" lon="2.17146">
        <ele>183.6</ele>
        <time>2023-05-27T15:19:33Z</time>
      </trkpt>
      <trkpt lat="43.54884" lon="2.17149">
        <ele>183.6</ele>
        <time>2023-05-27T15:19:34Z</time>
      </trkpt>
      <trkpt lat="43.54889" lon="2.17151">
        <ele>183.4</ele>
        <time>2023-05-27T15:19:35Z</time>
      </trkpt>
      <trkpt lat="43.54895" lon="2.17153">
        <ele>183.4</ele>
        <time>2023-05-27T15:19:36Z</time>
      </trkpt>
      <trkpt lat="43.549" lon="2.17156">
        <ele>183.4</ele>
        <time>2023-05-27T15:19:37Z</time>
      </trkpt>
      <trkpt lat="43.54905" lon="2.17158">
        <ele>183.4</ele>
        <time>2023-05-27T15:19:38Z</time>
      </trkpt>
      <trkpt lat="43.5491" lon="2.1716">
        <ele>183.4</ele>
        <time>2023-05-27T15:19:39Z</time>
      </trkpt>
      <trkpt lat="43.54915" lon="2.17162">
        <ele>183.4</ele>
        <time>2023-05-27T15:19:40Z</time>
      </trkpt>
      <trkpt lat="43.5492" lon="2.17164">
        <ele>183.2</ele>
        <time>2023-05-27T15:19:41Z</time>
      </trkpt>
      <trkpt lat="43.54925" lon="2.17166">
        <ele>183.2</ele>
        <time>2023-05-27T15:19:42Z</time>
      </trkpt>
      <trkpt lat="43.5493" lon="2.17167">
        <ele>183.2</ele>
        <time>2023-05-27T15:19:43Z</time>
      </trkpt>
      <trkpt lat="43.54935" lon="2.17169">
        <ele>183.2</ele>
        <time>2023-05-27T15:19:44Z</time>
      </trkpt>
      <trkpt lat="43.5494" lon="2.17171">
        <ele>183.2</ele>
        <time>2023-05-27T15:19:45Z</time>
      </trkpt>
      <trkpt lat="43.54946" lon="2.17173">
        <ele>183.2</ele>
        <time>2023-05-27T15:19:46Z</time>
      </trkpt>
      <trkpt lat="43.54951" lon="2.17175">
        <ele>183</ele>
        <time>2023-05-27T15:19:47Z</time>
      </trkpt>
      <trkpt lat="43.54956" lon="2.17177">
        <ele>183</ele>
        <time>2023-05-27T15:19:48Z</time>
      </trkpt>
      <trkpt lat="43.54961" lon="2.17179">
        <ele>183</ele>
        <time>2023-05-27T15:19:49Z</time>
      </trkpt>
      <trkpt lat="43.54966" lon="2.17181">
        <ele>183</ele>
        <time>2023-05-27T15:19:50Z</time>
      </trkpt>
      <trkpt lat="43.5497" lon="2.17183">
        <ele>183</ele>
        <time>2023-05-27T15:19:51Z</time>
      </trkpt>
      <trkpt lat="43.54975" lon="2.17185">
        <ele>183</ele>
        <time>2023-05-27T15:19:52Z</time>
      </trkpt>
      <trkpt lat="43.54981" lon="2.17188">
        <ele>183</ele>
        <time>2023-05-27T15:19:53Z</time>
      </trkpt>
      <trkpt lat="43.54985" lon="2.1719">
        <ele>183</ele>
        <time>2023-05-27T15:19:54Z</time>
      </trkpt>
      <trkpt lat="43.54991" lon="2.17192">
        <ele>183</ele>
        <time>2023-05-27T15:19:55Z</time>
      </trkpt>
      <trkpt lat="43.54996" lon="2.17194">
        <ele>183</ele>
        <time>2023-05-27T15:19:56Z</time>
      </trkpt>
      <trkpt lat="43.55001" lon="2.17196">
        <ele>182.8</ele>
        <time>2023-05-27T15:19:57Z</time>
      </trkpt>
      <trkpt lat="43.55006" lon="2.17198">
        <ele>183</ele>
        <time>2023-05-27T15:19:58Z</time>
      </trkpt>
      <trkpt lat="43.55011" lon="2.172">
        <ele>183</ele>
        <time>2023-05-27T15:19:59Z</time>
      </trkpt>
      <trkpt lat="43.55016" lon="2.17202">
        <ele>183</ele>
        <time>2023-05-27T15:20:00Z</time>
      </trkpt>
      <trkpt lat="43.55021" lon="2.17204">
        <ele>182.8</ele>
        <time>2023-05-27T15:20:01Z</time>
      </trkpt>
      <trkpt lat="43.55027" lon="2.17206">
        <ele>182.8</ele>
        <time>2023-05-27T15:20:02Z</time>
      </trkpt>
      <trkpt lat="43.55032" lon="2.17208">
        <ele>182.8</ele>
        <time>2023-05-27T15:20:03Z</time>
      </trkpt>
      <trkpt lat="43.55037" lon="2.1721">
        <ele>183</ele>
        <time>2023-05-27T15:20:04Z</time>
      </trkpt>
      <trkpt lat="43.55042" lon="2.17212">
        <ele>183</ele>
        <time>2023-05-27T15:20:05Z</time>
      </trkpt>
      <trkpt lat="43.55047" lon="2.17214">
        <ele>183</ele>
        <time>2023-05-27T15:20:06Z</time>
      </trkpt>
      <trkpt lat="43.55051" lon="2.17216">
        <ele>182.8</ele>
        <time>2023-05-27T15:20:07Z</time>
      </trkpt>
      <trkpt lat="43.55056" lon="2.17218">
        <ele>182.8</ele>
        <time>2023-05-27T15:20:08Z</time>
      </trkpt>
      <trkpt lat="43.55061" lon="2.1722">
        <ele>182.8</ele>
        <time>2023-05-27T15:20:09Z</time>
      </trkpt>
      <trkpt lat="43.55066" lon="2.17222">
        <ele>182.8</ele>
        <time>2023-05-27T15:20:10Z</time>
      </trkpt>
      <trkpt lat="43.55071" lon="2.17224">
        <ele>182.8</ele>
        <time>2023-05-27T15:20:11Z</time>
      </trkpt>
      <trkpt lat="43.55076" lon="2.17226">
        <ele>182.8</ele>
        <time>2023-05-27T15:20:12Z</time>
      </trkpt>
      <trkpt lat="43.5508" lon="2.17228">
        <ele>182.8</ele>
        <time>2023-05-27T15:20:13Z</time>
      </trkpt>
      <trkpt lat="43.55085" lon="2.1723">
        <ele>182.6</ele>
        <time>2023-05-27T15:20:14Z</time>
      </trkpt>
      <trkpt lat="43.5509" lon="2.17232">
        <ele>182.6</ele>
        <time>2023-05-27T15:20:15Z</time>
      </trkpt>
      <trkpt lat="43.55094" lon="2.17234">
        <ele>182.6</ele>
        <time>2023-05-27T15:20:16Z</time>
      </trkpt>
      <trkpt lat="43.55098" lon="2.17235">
        <ele>182.6</ele>
        <time>2023-05-27T15:20:17Z</time>
      </trkpt>
      <trkpt lat="43.55103" lon="2.17237">
        <ele>182.6</ele>
        <time>2023-05-27T15:20:18Z</time>
      </trkpt>
      <trkpt lat="43.55108" lon="2.17239">
        <ele>182.6</ele>
        <time>2023-05-27T15:20:19Z</time>
      </trkpt>
      <trkpt lat="43.55113" lon="2.17241">
        <ele>182.6</ele>
        <time>2023-05-27T15:20:20Z</time>
      </trkpt>
      <trkpt lat="43.55117" lon="2.17243">
        <ele>182.6</ele>
        <time>2023-05-27T15:20:21Z</time>
      </trkpt>
      <trkpt lat="43.55122" lon="2.17245">
        <ele>182.6</ele>
        <time>2023-05-27T15:20:22Z</time>
      </trkpt>
      <trkpt lat="43.55127" lon="2.17247">
        <ele>182.6</ele>
        <time>2023-05-27T15:20:23Z</time>
      </trkpt>
      <trkpt lat="43.55132" lon="2.17249">
        <ele>182.6</ele>
        <time>2023-05-27T15:20:24Z</time>
      </trkpt>
      <trkpt lat="43.55136" lon="2.17251">
        <ele>182.6</ele>
        <time>2023-05-27T15:20:25Z</time>
      </trkpt>
      <trkpt lat="43.55141" lon="2.17253">
        <ele>182.6</ele>
        <time>2023-05-27T15:20:26Z</time>
      </trkpt>
      <trkpt lat="43.55146" lon="2.17255">
        <ele>182.6</ele>
        <time>2023-05-27T15:20:27Z</time>
      </trkpt>
      <trkpt lat="43.55151" lon="2.17256">
        <ele>182.6</ele>
        <time>2023-05-27T15:20:28Z</time>
      </trkpt>
      <trkpt lat="43.55155" lon="2.17258">
        <ele>182.6</ele>
        <time>2023-05-27T15:20:29Z</time>
      </trkpt>
      <trkpt lat="43.5516" lon="2.1726">
        <ele>182.6</ele>
        <time>2023-05-27T15:20:30Z</time>
      </trkpt>
      <trkpt lat="43.55165" lon="2.17262">
        <ele>182.4</ele>
        <time>2023-05-27T15:20:31Z</time>
      </trkpt>
      <trkpt lat="43.55169" lon="2.17264">
        <ele>182.4</ele>
        <time>2023-05-27T15:20:32Z</time>
      </trkpt>
      <trkpt lat="43.55173" lon="2.17266">
        <ele>182.4</ele>
        <time>2023-05-27T15:20:33Z</time>
      </trkpt>
      <trkpt lat="43.55177" lon="2.17268">
        <ele>182.4</ele>
        <time>2023-05-27T15:20:34Z</time>
      </trkpt>
      <trkpt lat="43.55182" lon="2.1727">
        <ele>182.4</ele>
        <time>2023-05-27T15:20:35Z</time>
      </trkpt>
      <trkpt lat="43.55186" lon="2.17272">
        <ele>182.6</ele>
        <time>2023-05-27T15:20:36Z</time>
      </trkpt>
      <trkpt lat="43.55191" lon="2.17274">
        <ele>182.6</ele>
        <time>2023-05-27T15:20:37Z</time>
      </trkpt>
      <trkpt lat="43.55195" lon="2.17276">
        <ele>182.6</ele>
        <time>2023-05-27T15:20:38Z</time>
      </trkpt>
      <trkpt lat="43.552" lon="2.17279">
        <ele>182.6</ele>
        <time>2023-05-27T15:20:39Z</time>
      </trkpt>
      <trkpt lat="43.55204" lon="2.17281">
        <ele>182.6</ele>
        <time>2023-05-27T15:20:40Z</time>
      </trkpt>
      <trkpt lat="43.55208" lon="2.17283">
        <ele>182.6</ele>
        <time>2023-05-27T15:20:41Z</time>
      </trkpt>
      <trkpt lat="43.55213" lon="2.17285">
        <ele>182.6</ele>
        <time>2023-05-27T15:20:42Z</time>
      </trkpt>
      <trkpt lat="43.55217" lon="2.17287">
        <ele>182.8</ele>
        <time>2023-05-27T15:20:43Z</time>
      </trkpt>
      <trkpt lat="43.5522" lon="2.17289">
        <ele>182.8</ele>
        <time>2023-05-27T15:20:44Z</time>
      </trkpt>
      <trkpt lat="43.55225" lon="2.17292">
        <ele>182.8</ele>
        <time>2023-05-27T15:20:45Z</time>
      </trkpt>
      <trkpt lat="43.55229" lon="2.17294">
        <ele>182.8</ele>
        <time>2023-05-27T15:20:46Z</time>
      </trkpt>
      <trkpt lat="43.55232" lon="2.17298">
        <ele>182.8</ele>
        <time>2023-05-27T15:20:47Z</time>
      </trkpt>
      <trkpt lat="43.55236" lon="2.17301">
        <ele>182.8</ele>
        <time>2023-05-27T15:20:48Z</time>
      </trkpt>
      <trkpt lat="43.55239" lon="2.17303">
        <ele>182.8</ele>
        <time>2023-05-27T15:20:49Z</time>
      </trkpt>
      <trkpt lat="43.55242" lon="2.17306">
        <ele>182.8</ele>
        <time>2023-05-27T15:20:50Z</time>
      </trkpt>
      <trkpt lat="43.55246" lon="2.17309">
        <ele>182.8</ele>
        <time>2023-05-27T15:20:51Z</time>
      </trkpt>
      <trkpt lat="43.55249" lon="2.17312">
        <ele>182.8</ele>
        <time>2023-05-27T15:20:52Z</time>
      </trkpt>
      <trkpt lat="43.55253" lon="2.17316">
        <ele>182.8</ele>
        <time>2023-05-27T15:20:53Z</time>
      </trkpt>
      <trkpt lat="43.55257" lon="2.1732">
        <ele>182.8</ele>
        <time>2023-05-27T15:20:54Z</time>
      </trkpt>
      <trkpt lat="43.5526" lon="2.17323">
        <ele>182.8</ele>
        <time>2023-05-27T15:20:55Z</time>
      </trkpt>
      <trkpt lat="43.55263" lon="2.17326">
        <ele>182.8</ele>
        <time>2023-05-27T15:20:56Z</time>
      </trkpt>
      <trkpt lat="43.55266" lon="2.17328">
        <ele>182.8</ele>
        <time>2023-05-27T15:20:57Z</time>
      </trkpt>
      <trkpt lat="43.5527" lon="2.17331">
        <ele>182.8</ele>
        <time>2023-05-27T15:20:58Z</time>
      </trkpt>
      <trkpt lat="43.55273" lon="2.17334">
        <ele>182.8</ele>
        <time>2023-05-27T15:20:59Z</time>
      </trkpt>
      <trkpt lat="43.55276" lon="2.17337">
        <ele>182.8</ele>
        <time>2023-05-27T15:21:00Z</time>
      </trkpt>
      <trkpt lat="43.55279" lon="2.17339">
        <ele>182.8</ele>
        <time>2023-05-27T15:21:01Z</time>
      </trkpt>
      <trkpt lat="43.55282" lon="2.17342">
        <ele>182.8</ele>
        <time>2023-05-27T15:21:02Z</time>
      </trkpt>
      <trkpt lat="43.55284" lon="2.17345">
        <ele>182.8</ele>
        <time>2023-05-27T15:21:03Z</time>
      </trkpt>
      <trkpt lat="43.55287" lon="2.17347">
        <ele>183</ele>
        <time>2023-05-27T15:21:04Z</time>
      </trkpt>
      <trkpt lat="43.5529" lon="2.17348">
        <ele>183</ele>
        <time>2023-05-27T15:21:05Z</time>
      </trkpt>
      <trkpt lat="43.55293" lon="2.1735">
        <ele>183</ele>
        <time>2023-05-27T15:21:06Z</time>
      </trkpt>
      <trkpt lat="43.55296" lon="2.17351">
        <ele>183</ele>
        <time>2023-05-27T15:21:07Z</time>
      </trkpt>
      <trkpt lat="43.55299" lon="2.17352">
        <ele>183.2</ele>
        <time>2023-05-27T15:21:08Z</time>
      </trkpt>
      <trkpt lat="43.55301" lon="2.17354">
        <ele>183.2</ele>
        <time>2023-05-27T15:21:09Z</time>
      </trkpt>
      <trkpt lat="43.55304" lon="2.17357">
        <ele>183.4</ele>
        <time>2023-05-27T15:21:10Z</time>
      </trkpt>
      <trkpt lat="43.55306" lon="2.17361">
        <ele>183.4</ele>
        <time>2023-05-27T15:21:11Z</time>
      </trkpt>
      <trkpt lat="43.55308" lon="2.17365">
        <ele>183.4</ele>
        <time>2023-05-27T15:21:12Z</time>
      </trkpt>
      <trkpt lat="43.55309" lon="2.17369">
        <ele>183.6</ele>
        <time>2023-05-27T15:21:13Z</time>
      </trkpt>
      <trkpt lat="43.55311" lon="2.17373">
        <ele>183.6</ele>
        <time>2023-05-27T15:21:14Z</time>
      </trkpt>
      <trkpt lat="43.55312" lon="2.17377">
        <ele>183.8</ele>
        <time>2023-05-27T15:21:15Z</time>
      </trkpt>
      <trkpt lat="43.55313" lon="2.17381">
        <ele>183.8</ele>
        <time>2023-05-27T15:21:16Z</time>
      </trkpt>
      <trkpt lat="43.55314" lon="2.17384">
        <ele>183.8</ele>
        <time>2023-05-27T15:21:17Z</time>
      </trkpt>
      <trkpt lat="43.55316" lon="2.17388">
        <ele>184</ele>
        <time>2023-05-27T15:21:18Z</time>
      </trkpt>
      <trkpt lat="43.55317" lon="2.17393">
        <ele>184</ele>
        <time>2023-05-27T15:21:19Z</time>
      </trkpt>
      <trkpt lat="43.55319" lon="2.17398">
        <ele>184.2</ele>
        <time>2023-05-27T15:21:20Z</time>
      </trkpt>
      <trkpt lat="43.5532" lon="2.17402">
        <ele>184.2</ele>
        <time>2023-05-27T15:21:21Z</time>
      </trkpt>
      <trkpt lat="43.55321" lon="2.17406">
        <ele>184.4</ele>
        <time>2023-05-27T15:21:22Z</time>
      </trkpt>
      <trkpt lat="43.55322" lon="2.1741">
        <ele>184.4</ele>
        <time>2023-05-27T15:21:23Z</time>
      </trkpt>
      <trkpt lat="43.55324" lon="2.17414">
        <ele>184.4</ele>
        <time>2023-05-27T15:21:24Z</time>
      </trkpt>
      <trkpt lat="43.55325" lon="2.17418">
        <ele>184.6</ele>
        <time>2023-05-27T15:21:25Z</time>
      </trkpt>
      <trkpt lat="43.55327" lon="2.17422">
        <ele>184.6</ele>
        <time>2023-05-27T15:21:26Z</time>
      </trkpt>
      <trkpt lat="43.55328" lon="2.17426">
        <ele>184.6</ele>
        <time>2023-05-27T15:21:27Z</time>
      </trkpt>
      <trkpt lat="43.55329" lon="2.1743">
        <ele>184.6</ele>
        <time>2023-05-27T15:21:28Z</time>
      </trkpt>
      <trkpt lat="43.55331" lon="2.17435">
        <ele>184.6</ele>
        <time>2023-05-27T15:21:29Z</time>
      </trkpt>
      <trkpt lat="43.55332" lon="2.17439">
        <ele>184.6</ele>
        <time>2023-05-27T15:21:30Z</time>
      </trkpt>
      <trkpt lat="43.55334" lon="2.17444">
        <ele>184.6</ele>
        <time>2023-05-27T15:21:31Z</time>
      </trkpt>
      <trkpt lat="43.55335" lon="2.17448">
        <ele>184.6</ele>
        <time>2023-05-27T15:21:32Z</time>
      </trkpt>
      <trkpt lat="43.55337" lon="2.17453">
        <ele>184.6</ele>
        <time>2023-05-27T15:21:33Z</time>
      </trkpt>
      <trkpt lat="43.55339" lon="2.17458">
        <ele>184.6</ele>
        <time>2023-05-27T15:21:34Z</time>
      </trkpt>
      <trkpt lat="43.55341" lon="2.17463">
        <ele>184.6</ele>
        <time>2023-05-27T15:21:35Z</time>
      </trkpt>
      <trkpt lat="43.55342" lon="2.17467">
        <ele>184.8</ele>
        <time>2023-05-27T15:21:36Z</time>
      </trkpt>
      <trkpt lat="43.55344" lon="2.17472">
        <ele>184.8</ele>
        <time>2023-05-27T15:21:37Z</time>
      </trkpt>
      <trkpt lat="43.55346" lon="2.17477">
        <ele>184.8</ele>
        <time>2023-05-27T15:21:38Z</time>
      </trkpt>
      <trkpt lat="43.55348" lon="2.17481">
        <ele>184.8</ele>
        <time>2023-05-27T15:21:39Z</time>
      </trkpt>
      <trkpt lat="43.55349" lon="2.17485">
        <ele>184.8</ele>
        <time>2023-05-27T15:21:40Z</time>
      </trkpt>
      <trkpt lat="43.55351" lon="2.17489">
        <ele>184.6</ele>
        <time>2023-05-27T15:21:41Z</time>
      </trkpt>
      <trkpt lat="43.55354" lon="2.17493">
        <ele>184.6</ele>
        <time>2023-05-27T15:21:42Z</time>
      </trkpt>
      <trkpt lat="43.55357" lon="2.17497">
        <ele>184.8</ele>
        <time>2023-05-27T15:21:43Z</time>
      </trkpt>
      <trkpt lat="43.5536" lon="2.175">
        <ele>184.8</ele>
        <time>2023-05-27T15:21:44Z</time>
      </trkpt>
      <trkpt lat="43.55363" lon="2.17503">
        <ele>184.8</ele>
        <time>2023-05-27T15:21:45Z</time>
      </trkpt>
      <trkpt lat="43.55366" lon="2.17507">
        <ele>184.8</ele>
        <time>2023-05-27T15:21:46Z</time>
      </trkpt>
      <trkpt lat="43.55368" lon="2.1751">
        <ele>184.8</ele>
        <time>2023-05-27T15:21:47Z</time>
      </trkpt>
      <trkpt lat="43.55371" lon="2.17513">
        <ele>184.8</ele>
        <time>2023-05-27T15:21:48Z</time>
      </trkpt>
      <trkpt lat="43.55373" lon="2.17516">
        <ele>184.8</ele>
        <time>2023-05-27T15:21:49Z</time>
      </trkpt>
      <trkpt lat="43.55376" lon="2.1752">
        <ele>185</ele>
        <time>2023-05-27T15:21:50Z</time>
      </trkpt>
      <trkpt lat="43.55378" lon="2.17523">
        <ele>185</ele>
        <time>2023-05-27T15:21:51Z</time>
      </trkpt>
      <trkpt lat="43.5538" lon="2.17526">
        <ele>185.2</ele>
        <time>2023-05-27T15:21:52Z</time>
      </trkpt>
      <trkpt lat="43.55381" lon="2.17528">
        <ele>185.2</ele>
        <time>2023-05-27T15:21:53Z</time>
      </trkpt>
      <trkpt lat="43.55383" lon="2.17531">
        <ele>185.4</ele>
        <time>2023-05-27T15:21:54Z</time>
      </trkpt>
      <trkpt lat="43.55384" lon="2.17534">
        <ele>185.4</ele>
        <time>2023-05-27T15:21:55Z</time>
      </trkpt>
      <trkpt lat="43.55386" lon="2.17536">
        <ele>185.6</ele>
        <time>2023-05-27T15:21:56Z</time>
      </trkpt>
      <trkpt lat="43.55387" lon="2.17538">
        <ele>185.8</ele>
        <time>2023-05-27T15:21:57Z</time>
      </trkpt>
      <trkpt lat="43.55388" lon="2.17541">
        <ele>185.8</ele>
        <time>2023-05-27T15:21:58Z</time>
      </trkpt>
      <trkpt lat="43.5539" lon="2.17543">
        <ele>186</ele>
        <time>2023-05-27T15:21:59Z</time>
      </trkpt>
      <trkpt lat="43.55391" lon="2.17545">
        <ele>186.2</ele>
        <time>2023-05-27T15:22:00Z</time>
      </trkpt>
      <trkpt lat="43.55393" lon="2.17547">
        <ele>186.2</ele>
        <time>2023-05-27T15:22:01Z</time>
      </trkpt>
      <trkpt lat="43.55394" lon="2.17549">
        <ele>186.4</ele>
        <time>2023-05-27T15:22:02Z</time>
      </trkpt>
      <trkpt lat="43.55396" lon="2.17551">
        <ele>186.4</ele>
        <time>2023-05-27T15:22:03Z</time>
      </trkpt>
      <trkpt lat="43.55397" lon="2.17553">
        <ele>186.6</ele>
        <time>2023-05-27T15:22:04Z</time>
      </trkpt>
      <trkpt lat="43.55399" lon="2.17554">
        <ele>186.6</ele>
        <time>2023-05-27T15:22:05Z</time>
      </trkpt>
      <trkpt lat="43.554" lon="2.17556">
        <ele>186.8</ele>
        <time>2023-05-27T15:22:06Z</time>
      </trkpt>
      <trkpt lat="43.55402" lon="2.17557">
        <ele>187</ele>
        <time>2023-05-27T15:22:07Z</time>
      </trkpt>
      <trkpt lat="43.55404" lon="2.17557">
        <ele>187</ele>
        <time>2023-05-27T15:22:08Z</time>
      </trkpt>
      <trkpt lat="43.55405" lon="2.17557">
        <ele>187.2</ele>
        <time>2023-05-27T15:22:09Z</time>
      </trkpt>
      <trkpt lat="43.55406" lon="2.17556">
        <ele>187.2</ele>
        <time>2023-05-27T15:22:10Z</time>
      </trkpt>
      <trkpt lat="43.55408" lon="2.17555">
        <ele>187.2</ele>
        <time>2023-05-27T15:22:11Z</time>
      </trkpt>
      <trkpt lat="43.55409" lon="2.17553">
        <ele>187.4</ele>
        <time>2023-05-27T15:22:12Z</time>
      </trkpt>
      <trkpt lat="43.5541" lon="2.17551">
        <ele>187.4</ele>
        <time>2023-05-27T15:22:13Z</time>
      </trkpt>
      <trkpt lat="43.55411" lon="2.17548">
        <ele>187.4</ele>
        <time>2023-05-27T15:22:14Z</time>
      </trkpt>
      <trkpt lat="43.55413" lon="2.17546">
        <ele>187.6</ele>
        <time>2023-05-27T15:22:15Z</time>
      </trkpt>
      <trkpt lat="43.55414" lon="2.17544">
        <ele>187.6</ele>
        <time>2023-05-27T15:22:16Z</time>
      </trkpt>
      <trkpt lat="43.55416" lon="2.17542">
        <ele>187.6</ele>
        <time>2023-05-27T15:22:17Z</time>
      </trkpt>
      <trkpt lat="43.55417" lon="2.1754">
        <ele>187.6</ele>
        <time>2023-05-27T15:22:18Z</time>
      </trkpt>
      <trkpt lat="43.55418" lon="2.17537">
        <ele>187.6</ele>
        <time>2023-05-27T15:22:19Z</time>
      </trkpt>
      <trkpt lat="43.55419" lon="2.17535">
        <ele>187.8</ele>
        <time>2023-05-27T15:22:20Z</time>
      </trkpt>
      <trkpt lat="43.5542" lon="2.17533">
        <ele>187.8</ele>
        <time>2023-05-27T15:22:21Z</time>
      </trkpt>
      <trkpt lat="43.55422" lon="2.17531">
        <ele>187.8</ele>
        <time>2023-05-27T15:22:22Z</time>
      </trkpt>
      <trkpt lat="43.55423" lon="2.17529">
        <ele>187.8</ele>
        <time>2023-05-27T15:22:23Z</time>
      </trkpt>
      <trkpt lat="43.55425" lon="2.17528">
        <ele>188</ele>
        <time>2023-05-27T15:22:24Z</time>
      </trkpt>
      <trkpt lat="43.55426" lon="2.17526">
        <ele>188</ele>
        <time>2023-05-27T15:22:25Z</time>
      </trkpt>
      <trkpt lat="43.55428" lon="2.17525">
        <ele>188.2</ele>
        <time>2023-05-27T15:22:26Z</time>
      </trkpt>
      <trkpt lat="43.5543" lon="2.17524">
        <ele>188.2</ele>
        <time>2023-05-27T15:22:27Z</time>
      </trkpt>
      <trkpt lat="43.55432" lon="2.17523">
        <ele>188.4</ele>
        <time>2023-05-27T15:22:28Z</time>
      </trkpt>
      <trkpt lat="43.55433" lon="2.17522">
        <ele>188.4</ele>
        <time>2023-05-27T15:22:29Z</time>
      </trkpt>
      <trkpt lat="43.55435" lon="2.1752">
        <ele>188.4</ele>
        <time>2023-05-27T15:22:30Z</time>
      </trkpt>
      <trkpt lat="43.55436" lon="2.17518">
        <ele>188.6</ele>
        <time>2023-05-27T15:22:31Z</time>
      </trkpt>
      <trkpt lat="43.55437" lon="2.17515">
        <ele>188.6</ele>
        <time>2023-05-27T15:22:32Z</time>
      </trkpt>
      <trkpt lat="43.55438" lon="2.17513">
        <ele>188.6</ele>
        <time>2023-05-27T15:22:33Z</time>
      </trkpt>
      <trkpt lat="43.5544" lon="2.17511">
        <ele>188.8</ele>
        <time>2023-05-27T15:22:34Z</time>
      </trkpt>
      <trkpt lat="43.55441" lon="2.17509">
        <ele>188.8</ele>
        <time>2023-05-27T15:22:35Z</time>
      </trkpt>
      <trkpt lat="43.55442" lon="2.17506">
        <ele>189</ele>
        <time>2023-05-27T15:22:36Z</time>
      </trkpt>
      <trkpt lat="43.55443" lon="2.17504">
        <ele>189</ele>
        <time>2023-05-27T15:22:37Z</time>
      </trkpt>
      <trkpt lat="43.55444" lon="2.17503">
        <ele>189</ele>
        <time>2023-05-27T15:22:38Z</time>
      </trkpt>
      <trkpt lat="43.55446" lon="2.175">
        <ele>189.2</ele>
        <time>2023-05-27T15:22:39Z</time>
      </trkpt>
      <trkpt lat="43.55447" lon="2.17498">
        <ele>189.2</ele>
        <time>2023-05-27T15:22:40Z</time>
      </trkpt>
      <trkpt lat="43.55448" lon="2.17496">
        <ele>189.4</ele>
        <time>2023-05-27T15:22:41Z</time>
      </trkpt>
      <trkpt lat="43.5545" lon="2.17494">
        <ele>189.4</ele>
        <time>2023-05-27T15:22:42Z</time>
      </trkpt>
      <trkpt lat="43.55451" lon="2.17492">
        <ele>189.4</ele>
        <time>2023-05-27T15:22:43Z</time>
      </trkpt>
      <trkpt lat="43.55453" lon="2.1749">
        <ele>189.4</ele>
        <time>2023-05-27T15:22:44Z</time>
      </trkpt>
      <trkpt lat="43.55455" lon="2.17488">
        <ele>189.6</ele>
        <time>2023-05-27T15:22:45Z</time>
      </trkpt>
      <trkpt lat="43.55456" lon="2.17486">
        <ele>189.6</ele>
        <time>2023-05-27T15:22:46Z</time>
      </trkpt>
      <trkpt lat="43.55458" lon="2.17484">
        <ele>189.6</ele>
        <time>2023-05-27T15:22:47Z</time>
      </trkpt>
      <trkpt lat="43.5546" lon="2.17481">
        <ele>189.6</ele>
        <time>2023-05-27T15:22:48Z</time>
      </trkpt>
      <trkpt lat="43.55462" lon="2.17479">
        <ele>189.6</ele>
        <time>2023-05-27T15:22:49Z</time>
      </trkpt>
      <trkpt lat="43.55463" lon="2.17476">
        <ele>189.8</ele>
        <time>2023-05-27T15:22:50Z</time>
      </trkpt>
      <trkpt lat="43.55465" lon="2.17474">
        <ele>189.8</ele>
        <time>2023-05-27T15:22:51Z</time>
      </trkpt>
      <trkpt lat="43.55468" lon="2.17471">
        <ele>189.8</ele>
        <time>2023-05-27T15:22:52Z</time>
      </trkpt>
      <trkpt lat="43.55469" lon="2.17468">
        <ele>189.8</ele>
        <time>2023-05-27T15:22:53Z</time>
      </trkpt>
      <trkpt lat="43.55471" lon="2.17465">
        <ele>189.8</ele>
        <time>2023-05-27T15:22:54Z</time>
      </trkpt>
      <trkpt lat="43.55473" lon="2.17462">
        <ele>190</ele>
        <time>2023-05-27T15:22:55Z</time>
      </trkpt>
      <trkpt lat="43.55475" lon="2.17459">
        <ele>190</ele>
        <time>2023-05-27T15:22:56Z</time>
      </trkpt>
      <trkpt lat="43.55477" lon="2.17457">
        <ele>190</ele>
        <time>2023-05-27T15:22:57Z</time>
      </trkpt>
      <trkpt lat="43.55479" lon="2.17455">
        <ele>190.2</ele>
        <time>2023-05-27T15:22:58Z</time>
      </trkpt>
      <trkpt lat="43.55481" lon="2.17452">
        <ele>190.2</ele>
        <time>2023-05-27T15:22:59Z</time>
      </trkpt>
      <trkpt lat="43.55482" lon="2.17449">
        <ele>190.2</ele>
        <time>2023-05-27T15:23:00Z</time>
      </trkpt>
      <trkpt lat="43.55484" lon="2.17447">
        <ele>190.4</ele>
        <time>2023-05-27T15:23:01Z</time>
      </trkpt>
      <trkpt lat="43.55486" lon="2.17445">
        <ele>190.4</ele>
        <time>2023-05-27T15:23:02Z</time>
      </trkpt>
      <trkpt lat="43.55488" lon="2.17442">
        <ele>190.4</ele>
        <time>2023-05-27T15:23:03Z</time>
      </trkpt>
      <trkpt lat="43.55489" lon="2.1744">
        <ele>190.6</ele>
        <time>2023-05-27T15:23:04Z</time>
      </trkpt>
      <trkpt lat="43.55491" lon="2.17438">
        <ele>190.6</ele>
        <time>2023-05-27T15:23:05Z</time>
      </trkpt>
      <trkpt lat="43.55492" lon="2.17436">
        <ele>190.8</ele>
        <time>2023-05-27T15:23:06Z</time>
      </trkpt>
      <trkpt lat="43.55494" lon="2.17434">
        <ele>190.8</ele>
        <time>2023-05-27T15:23:07Z</time>
      </trkpt>
      <trkpt lat="43.55496" lon="2.17433">
        <ele>191</ele>
        <time>2023-05-27T15:23:08Z</time>
      </trkpt>
      <trkpt lat="43.55498" lon="2.17432">
        <ele>191</ele>
        <time>2023-05-27T15:23:09Z</time>
      </trkpt>
      <trkpt lat="43.555" lon="2.17432">
        <ele>191.2</ele>
        <time>2023-05-27T15:23:10Z</time>
      </trkpt>
      <trkpt lat="43.55502" lon="2.17431">
        <ele>191.4</ele>
        <time>2023-05-27T15:23:11Z</time>
      </trkpt>
      <trkpt lat="43.55504" lon="2.17431">
        <ele>191.4</ele>
        <time>2023-05-27T15:23:12Z</time>
      </trkpt>
      <trkpt lat="43.55506" lon="2.17431">
        <ele>191.6</ele>
        <time>2023-05-27T15:23:13Z</time>
      </trkpt>
      <trkpt lat="43.55507" lon="2.17432">
        <ele>191.6</ele>
        <time>2023-05-27T15:23:14Z</time>
      </trkpt>
      <trkpt lat="43.55509" lon="2.17433">
        <ele>191.8</ele>
        <time>2023-05-27T15:23:15Z</time>
      </trkpt>
      <trkpt lat="43.55511" lon="2.17434">
        <ele>192</ele>
        <time>2023-05-27T15:23:16Z</time>
      </trkpt>
      <trkpt lat="43.55513" lon="2.17435">
        <ele>192</ele>
        <time>2023-05-27T15:23:17Z</time>
      </trkpt>
      <trkpt lat="43.55514" lon="2.17436">
        <ele>192.2</ele>
        <time>2023-05-27T15:23:18Z</time>
      </trkpt>
      <trkpt lat="43.55516" lon="2.17437">
        <ele>192.2</ele>
        <time>2023-05-27T15:23:19Z</time>
      </trkpt>
      <trkpt lat="43.55518" lon="2.17438">
        <ele>192.4</ele>
        <time>2023-05-27T15:23:20Z</time>
      </trkpt>
      <trkpt lat="43.55519" lon="2.17439">
        <ele>192.4</ele>
        <time>2023-05-27T15:23:21Z</time>
      </trkpt>
      <trkpt lat="43.55521" lon="2.17441">
        <ele>192.6</ele>
        <time>2023-05-27T15:23:22Z</time>
      </trkpt>
      <trkpt lat="43.55523" lon="2.17441">
        <ele>192.8</ele>
        <time>2023-05-27T15:23:23Z</time>
      </trkpt>
      <trkpt lat="43.55524" lon="2.17442">
        <ele>192.8</ele>
        <time>2023-05-27T15:23:24Z</time>
      </trkpt>
      <trkpt lat="43.55526" lon="2.17443">
        <ele>193</ele>
        <time>2023-05-27T15:23:25Z</time>
      </trkpt>
      <trkpt lat="43.55528" lon="2.17445">
        <ele>193.2</ele>
        <time>2023-05-27T15:23:26Z</time>
      </trkpt>
      <trkpt lat="43.5553" lon="2.17446">
        <ele>193.2</ele>
        <time>2023-05-27T15:23:27Z</time>
      </trkpt>
      <trkpt lat="43.55531" lon="2.17447">
        <ele>193.4</ele>
        <time>2023-05-27T15:23:28Z</time>
      </trkpt>
      <trkpt lat="43.55533" lon="2.17447">
        <ele>193.6</ele>
        <time>2023-05-27T15:23:29Z</time>
      </trkpt>
      <trkpt lat="43.55535" lon="2.17448">
        <ele>193.6</ele>
        <time>2023-05-27T15:23:30Z</time>
      </trkpt>
      <trkpt lat="43.55536" lon="2.17449">
        <ele>193.8</ele>
        <time>2023-05-27T15:23:31Z</time>
      </trkpt>
      <trkpt lat="43.55538" lon="2.1745">
        <ele>194</ele>
        <time>2023-05-27T15:23:32Z</time>
      </trkpt>
      <trkpt lat="43.55539" lon="2.17451">
        <ele>194</ele>
        <time>2023-05-27T15:23:33Z</time>
      </trkpt>
      <trkpt lat="43.55541" lon="2.17452">
        <ele>194.2</ele>
        <time>2023-05-27T15:23:34Z</time>
      </trkpt>
      <trkpt lat="43.55543" lon="2.17453">
        <ele>194.2</ele>
        <time>2023-05-27T15:23:35Z</time>
      </trkpt>
      <trkpt lat="43.55545" lon="2.17454">
        <ele>194.4</ele>
        <time>2023-05-27T15:23:36Z</time>
      </trkpt>
      <trkpt lat="43.55546" lon="2.17455">
        <ele>194.6</ele>
        <time>2023-05-27T15:23:37Z</time>
      </trkpt>
      <trkpt lat="43.55548" lon="2.17456">
        <ele>194.6</ele>
        <time>2023-05-27T15:23:38Z</time>
      </trkpt>
      <trkpt lat="43.55549" lon="2.17457">
        <ele>194.8</ele>
        <time>2023-05-27T15:23:39Z</time>
      </trkpt>
      <trkpt lat="43.55551" lon="2.17458">
        <ele>195</ele>
        <time>2023-05-27T15:23:40Z</time>
      </trkpt>
      <trkpt lat="43.55552" lon="2.1746">
        <ele>195</ele>
        <time>2023-05-27T15:23:41Z</time>
      </trkpt>
      <trkpt lat="43.55553" lon="2.17461">
        <ele>195.2</ele>
        <time>2023-05-27T15:23:42Z</time>
      </trkpt>
      <trkpt lat="43.55554" lon="2.17463">
        <ele>195.4</ele>
        <time>2023-05-27T15:23:43Z</time>
      </trkpt>
      <trkpt lat="43.55556" lon="2.17464">
        <ele>195.4</ele>
        <time>2023-05-27T15:23:44Z</time>
      </trkpt>
      <trkpt lat="43.55557" lon="2.17466">
        <ele>195.6</ele>
        <time>2023-05-27T15:23:45Z</time>
      </trkpt>
      <trkpt lat="43.55558" lon="2.17468">
        <ele>195.6</ele>
        <time>2023-05-27T15:23:46Z</time>
      </trkpt>
      <trkpt lat="43.5556" lon="2.1747">
        <ele>195.8</ele>
        <time>2023-05-27T15:23:47Z</time>
      </trkpt>
      <trkpt lat="43.55561" lon="2.17472">
        <ele>196</ele>
        <time>2023-05-27T15:23:48Z</time>
      </trkpt>
      <trkpt lat="43.55562" lon="2.17474">
        <ele>196</ele>
        <time>2023-05-27T15:23:49Z</time>
      </trkpt>
      <trkpt lat="43.55563" lon="2.17476">
        <ele>196.2</ele>
        <time>2023-05-27T15:23:50Z</time>
      </trkpt>
      <trkpt lat="43.55565" lon="2.17477">
        <ele>196.4</ele>
        <time>2023-05-27T15:23:51Z</time>
      </trkpt>
      <trkpt lat="43.55566" lon="2.17478">
        <ele>196.4</ele>
        <time>2023-05-27T15:23:52Z</time>
      </trkpt>
      <trkpt lat="43.55567" lon="2.1748">
        <ele>196.6</ele>
        <time>2023-05-27T15:23:53Z</time>
      </trkpt>
      <trkpt lat="43.55568" lon="2.17482">
        <ele>196.6</ele>
        <time>2023-05-27T15:23:54Z</time>
      </trkpt>
      <trkpt lat="43.55569" lon="2.17484">
        <ele>196.8</ele>
        <time>2023-05-27T15:23:55Z</time>
      </trkpt>
      <trkpt lat="43.5557" lon="2.17486">
        <ele>196.8</ele>
        <time>2023-05-27T15:23:56Z</time>
      </trkpt>
      <trkpt lat="43.55571" lon="2.17488">
        <ele>197</ele>
        <time>2023-05-27T15:23:57Z</time>
      </trkpt>
      <trkpt lat="43.55572" lon="2.1749">
        <ele>197</ele>
        <time>2023-05-27T15:23:58Z</time>
      </trkpt>
      <trkpt lat="43.55573" lon="2.17492">
        <ele>197.2</ele>
        <time>2023-05-27T15:23:59Z</time>
      </trkpt>
      <trkpt lat="43.55575" lon="2.17494">
        <ele>197.2</ele>
        <time>2023-05-27T15:24:00Z</time>
      </trkpt>
      <trkpt lat="43.55576" lon="2.17496">
        <ele>197.4</ele>
        <time>2023-05-27T15:24:01Z</time>
      </trkpt>
      <trkpt lat="43.55577" lon="2.17497">
        <ele>197.4</ele>
        <time>2023-05-27T15:24:02Z</time>
      </trkpt>
      <trkpt lat="43.55578" lon="2.17499">
        <ele>197.6</ele>
        <time>2023-05-27T15:24:03Z</time>
      </trkpt>
      <trkpt lat="43.5558" lon="2.17501">
        <ele>197.6</ele>
        <time>2023-05-27T15:24:04Z</time>
      </trkpt>
      <trkpt lat="43.55581" lon="2.17503">
        <ele>197.8</ele>
        <time>2023-05-27T15:24:05Z</time>
      </trkpt>
      <trkpt lat="43.55582" lon="2.17505">
        <ele>197.8</ele>
        <time>2023-05-27T15:24:06Z</time>
      </trkpt>
      <trkpt lat="43.55583" lon="2.17507">
        <ele>198</ele>
        <time>2023-05-27T15:24:07Z</time>
      </trkpt>
      <trkpt lat="43.55585" lon="2.17509">
        <ele>198</ele>
        <time>2023-05-27T15:24:08Z</time>
      </trkpt>
      <trkpt lat="43.55586" lon="2.17511">
        <ele>198</ele>
        <time>2023-05-27T15:24:09Z</time>
      </trkpt>
      <trkpt lat="43.55587" lon="2.17513">
        <ele>198.2</ele>
        <time>2023-05-27T15:24:10Z</time>
      </trkpt>
      <trkpt lat="43.55588" lon="2.17515">
        <ele>198.2</ele>
        <time>2023-05-27T15:24:11Z</time>
      </trkpt>
      <trkpt lat="43.55589" lon="2.17517">
        <ele>198.4</ele>
        <time>2023-05-27T15:24:12Z</time>
      </trkpt>
      <trkpt lat="43.5559" lon="2.17519">
        <ele>198.4</ele>
        <time>2023-05-27T15:24:13Z</time>
      </trkpt>
      <trkpt lat="43.55591" lon="2.17521">
        <ele>198.4</ele>
        <time>2023-05-27T15:24:14Z</time>
      </trkpt>
      <trkpt lat="43.55593" lon="2.17523">
        <ele>198.6</ele>
        <time>2023-05-27T15:24:15Z</time>
      </trkpt>
      <trkpt lat="43.55594" lon="2.17525">
        <ele>198.6</ele>
        <time>2023-05-27T15:24:16Z</time>
      </trkpt>
      <trkpt lat="43.55595" lon="2.17527">
        <ele>198.6</ele>
        <time>2023-05-27T15:24:17Z</time>
      </trkpt>
      <trkpt lat="43.55596" lon="2.17529">
        <ele>198.8</ele>
        <time>2023-05-27T15:24:18Z</time>
      </trkpt>
      <trkpt lat="43.55597" lon="2.17531">
        <ele>198.8</ele>
        <time>2023-05-27T15:24:19Z</time>
      </trkpt>
      <trkpt lat="43.55598" lon="2.17533">
        <ele>199</ele>
        <time>2023-05-27T15:24:20Z</time>
      </trkpt>
      <trkpt lat="43.556" lon="2.17535">
        <ele>199</ele>
        <time>2023-05-27T15:24:21Z</time>
      </trkpt>
      <trkpt lat="43.55601" lon="2.17537">
        <ele>199.2</ele>
        <time>2023-05-27T15:24:22Z</time>
      </trkpt>
      <trkpt lat="43.55602" lon="2.17539">
        <ele>199.2</ele>
        <time>2023-05-27T15:24:23Z</time>
      </trkpt>
      <trkpt lat="43.55602" lon="2.17541">
        <ele>199.4</ele>
        <time>2023-05-27T15:24:24Z</time>
      </trkpt>
      <trkpt lat="43.55603" lon="2.17544">
        <ele>199.4</ele>
        <time>2023-05-27T15:24:25Z</time>
      </trkpt>
      <trkpt lat="43.55603" lon="2.17546">
        <ele>199.6</ele>
        <time>2023-05-27T15:24:26Z</time>
      </trkpt>
      <trkpt lat="43.55603" lon="2.17548">
        <ele>199.8</ele>
        <time>2023-05-27T15:24:27Z</time>
      </trkpt>
      <trkpt lat="43.55603" lon="2.17551">
        <ele>199.8</ele>
        <time>2023-05-27T15:24:28Z</time>
      </trkpt>
      <trkpt lat="43.55603" lon="2.17553">
        <ele>200</ele>
        <time>2023-05-27T15:24:29Z</time>
      </trkpt>
      <trkpt lat="43.55602" lon="2.17555">
        <ele>200</ele>
        <time>2023-05-27T15:24:30Z</time>
      </trkpt>
      <trkpt lat="43.55601" lon="2.17558">
        <ele>200</ele>
        <time>2023-05-27T15:24:31Z</time>
      </trkpt>
      <trkpt lat="43.556" lon="2.1756">
        <ele>200.2</ele>
        <time>2023-05-27T15:24:32Z</time>
      </trkpt>
      <trkpt lat="43.55599" lon="2.17562">
        <ele>200.2</ele>
        <time>2023-05-27T15:24:33Z</time>
      </trkpt>
      <trkpt lat="43.55598" lon="2.17563">
        <ele>200.4</ele>
        <time>2023-05-27T15:24:34Z</time>
      </trkpt>
      <trkpt lat="43.55597" lon="2.17565">
        <ele>200.4</ele>
        <time>2023-05-27T15:24:35Z</time>
      </trkpt>
      <trkpt lat="43.55595" lon="2.17567">
        <ele>200.4</ele>
        <time>2023-05-27T15:24:36Z</time>
      </trkpt>
      <trkpt lat="43.55594" lon="2.17569">
        <ele>200.4</ele>
        <time>2023-05-27T15:24:37Z</time>
      </trkpt>
      <trkpt lat="43.55592" lon="2.17571">
        <ele>200.6</ele>
        <time>2023-05-27T15:24:38Z</time>
      </trkpt>
      <trkpt lat="43.55591" lon="2.17573">
        <ele>200.6</ele>
        <time>2023-05-27T15:24:39Z</time>
      </trkpt>
      <trkpt lat="43.55589" lon="2.17575">
        <ele>200.6</ele>
        <time>2023-05-27T15:24:40Z</time>
      </trkpt>
      <trkpt lat="43.55587" lon="2.17577">
        <ele>200.8</ele>
        <time>2023-05-27T15:24:41Z</time>
      </trkpt>
      <trkpt lat="43.55586" lon="2.17579">
        <ele>200.8</ele>
        <time>2023-05-27T15:24:42Z</time>
      </trkpt>
      <trkpt lat="43.55584" lon="2.1758">
        <ele>200.8</ele>
        <time>2023-05-27T15:24:43Z</time>
      </trkpt>
      <trkpt lat="43.55583" lon="2.17582">
        <ele>200.8</ele>
        <time>2023-05-27T15:24:44Z</time>
      </trkpt>
      <trkpt lat="43.55582" lon="2.17584">
        <ele>200.8</ele>
        <time>2023-05-27T15:24:45Z</time>
      </trkpt>
      <trkpt lat="43.5558" lon="2.17586">
        <ele>201</ele>
        <time>2023-05-27T15:24:46Z</time>
      </trkpt>
      <trkpt lat="43.55579" lon="2.17587">
        <ele>201</ele>
        <time>2023-05-27T15:24:47Z</time>
      </trkpt>
      <trkpt lat="43.55577" lon="2.17589">
        <ele>201</ele>
        <time>2023-05-27T15:24:48Z</time>
      </trkpt>
      <trkpt lat="43.55575" lon="2.17591">
        <ele>201</ele>
        <time>2023-05-27T15:24:49Z</time>
      </trkpt>
      <trkpt lat="43.55574" lon="2.17593">
        <ele>201</ele>
        <time>2023-05-27T15:24:50Z</time>
      </trkpt>
      <trkpt lat="43.55573" lon="2.17594">
        <ele>201.2</ele>
        <time>2023-05-27T15:24:51Z</time>
      </trkpt>
      <trkpt lat="43.55571" lon="2.17596">
        <ele>201.2</ele>
        <time>2023-05-27T15:24:52Z</time>
      </trkpt>
      <trkpt lat="43.5557" lon="2.17598">
        <ele>201.2</ele>
        <time>2023-05-27T15:24:53Z</time>
      </trkpt>
      <trkpt lat="43.55568" lon="2.176">
        <ele>201.2</ele>
        <time>2023-05-27T15:24:54Z</time>
      </trkpt>
      <trkpt lat="43.55567" lon="2.17601">
        <ele>201.2</ele>
        <time>2023-05-27T15:24:55Z</time>
      </trkpt>
      <trkpt lat="43.55565" lon="2.17602">
        <ele>201.4</ele>
        <time>2023-05-27T15:24:56Z</time>
      </trkpt>
      <trkpt lat="43.55563" lon="2.17604">
        <ele>201.4</ele>
        <time>2023-05-27T15:24:57Z</time>
      </trkpt>
      <trkpt lat="43.55561" lon="2.17606">
        <ele>201.4</ele>
        <time>2023-05-27T15:24:58Z</time>
      </trkpt>
      <trkpt lat="43.5556" lon="2.17607">
        <ele>201.4</ele>
        <time>2023-05-27T15:24:59Z</time>
      </trkpt>
      <trkpt lat="43.55558" lon="2.17609">
        <ele>201.6</ele>
        <time>2023-05-27T15:25:00Z</time>
      </trkpt>
      <trkpt lat="43.55557" lon="2.17611">
        <ele>201.6</ele>
        <time>2023-05-27T15:25:01Z</time>
      </trkpt>
      <trkpt lat="43.55555" lon="2.17613">
        <ele>201.6</ele>
        <time>2023-05-27T15:25:02Z</time>
      </trkpt>
      <trkpt lat="43.55553" lon="2.17615">
        <ele>201.8</ele>
        <time>2023-05-27T15:25:03Z</time>
      </trkpt>
      <trkpt lat="43.55552" lon="2.17616">
        <ele>201.8</ele>
        <time>2023-05-27T15:25:04Z</time>
      </trkpt>
      <trkpt lat="43.55551" lon="2.17618">
        <ele>201.8</ele>
        <time>2023-05-27T15:25:05Z</time>
      </trkpt>
      <trkpt lat="43.55549" lon="2.1762">
        <ele>201.8</ele>
        <time>2023-05-27T15:25:06Z</time>
      </trkpt>
      <trkpt lat="43.55548" lon="2.17622">
        <ele>202</ele>
        <time>2023-05-27T15:25:07Z</time>
      </trkpt>
      <trkpt lat="43.55546" lon="2.17625">
        <ele>202</ele>
        <time>2023-05-27T15:25:08Z</time>
      </trkpt>
      <trkpt lat="43.55545" lon="2.17627">
        <ele>202</ele>
        <time>2023-05-27T15:25:09Z</time>
      </trkpt>
      <trkpt lat="43.55544" lon="2.17629">
        <ele>202.2</ele>
        <time>2023-05-27T15:25:10Z</time>
      </trkpt>
      <trkpt lat="43.55543" lon="2.17631">
        <ele>202.2</ele>
        <time>2023-05-27T15:25:11Z</time>
      </trkpt>
      <trkpt lat="43.55542" lon="2.17634">
        <ele>202.4</ele>
        <time>2023-05-27T15:25:12Z</time>
      </trkpt>
      <trkpt lat="43.55541" lon="2.17636">
        <ele>202.4</ele>
        <time>2023-05-27T15:25:13Z</time>
      </trkpt>
      <trkpt lat="43.55541" lon="2.17639">
        <ele>202.6</ele>
        <time>2023-05-27T15:25:14Z</time>
      </trkpt>
      <trkpt lat="43.55541" lon="2.17641">
        <ele>202.6</ele>
        <time>2023-05-27T15:25:15Z</time>
      </trkpt>
      <trkpt lat="43.55541" lon="2.17643">
        <ele>202.8</ele>
        <time>2023-05-27T15:25:16Z</time>
      </trkpt>
      <trkpt lat="43.55541" lon="2.17646">
        <ele>203</ele>
        <time>2023-05-27T15:25:17Z</time>
      </trkpt>
      <trkpt lat="43.55541" lon="2.17648">
        <ele>203</ele>
        <time>2023-05-27T15:25:18Z</time>
      </trkpt>
      <trkpt lat="43.55541" lon="2.1765">
        <ele>203.2</ele>
        <time>2023-05-27T15:25:19Z</time>
      </trkpt>
      <trkpt lat="43.55541" lon="2.17653">
        <ele>203.4</ele>
        <time>2023-05-27T15:25:20Z</time>
      </trkpt>
      <trkpt lat="43.55541" lon="2.17655">
        <ele>203.4</ele>
        <time>2023-05-27T15:25:21Z</time>
      </trkpt>
      <trkpt lat="43.55541" lon="2.17658">
        <ele>203.6</ele>
        <time>2023-05-27T15:25:22Z</time>
      </trkpt>
      <trkpt lat="43.55542" lon="2.1766">
        <ele>203.8</ele>
        <time>2023-05-27T15:25:23Z</time>
      </trkpt>
      <trkpt lat="43.55542" lon="2.17662">
        <ele>203.8</ele>
        <time>2023-05-27T15:25:24Z</time>
      </trkpt>
      <trkpt lat="43.55542" lon="2.17665">
        <ele>204</ele>
        <time>2023-05-27T15:25:25Z</time>
      </trkpt>
      <trkpt lat="43.55542" lon="2.17668">
        <ele>204.2</ele>
        <time>2023-05-27T15:25:26Z</time>
      </trkpt>
      <trkpt lat="43.55542" lon="2.1767">
        <ele>204.2</ele>
        <time>2023-05-27T15:25:27Z</time>
      </trkpt>
      <trkpt lat="43.55542" lon="2.17672">
        <ele>204.4</ele>
        <time>2023-05-27T15:25:28Z</time>
      </trkpt>
      <trkpt lat="43.55542" lon="2.17675">
        <ele>204.4</ele>
        <time>2023-05-27T15:25:29Z</time>
      </trkpt>
      <trkpt lat="43.55543" lon="2.17678">
        <ele>204.6</ele>
        <time>2023-05-27T15:25:30Z</time>
      </trkpt>
      <trkpt lat="43.55543" lon="2.1768">
        <ele>204.8</ele>
        <time>2023-05-27T15:25:31Z</time>
      </trkpt>
      <trkpt lat="43.55543" lon="2.17682">
        <ele>204.8</ele>
        <time>2023-05-27T15:25:32Z</time>
      </trkpt>
      <trkpt lat="43.55544" lon="2.17685">
        <ele>205</ele>
        <time>2023-05-27T15:25:33Z</time>
      </trkpt>
      <trkpt lat="43.55544" lon="2.17687">
        <ele>205</ele>
        <time>2023-05-27T15:25:34Z</time>
      </trkpt>
      <trkpt lat="43.55544" lon="2.1769">
        <ele>205.2</ele>
        <time>2023-05-27T15:25:35Z</time>
      </trkpt>
      <trkpt lat="43.55544" lon="2.17692">
        <ele>205.2</ele>
        <time>2023-05-27T15:25:36Z</time>
      </trkpt>
      <trkpt lat="43.55545" lon="2.17695">
        <ele>205.4</ele>
        <time>2023-05-27T15:25:37Z</time>
      </trkpt>
      <trkpt lat="43.55545" lon="2.17698">
        <ele>205.4</ele>
        <time>2023-05-27T15:25:38Z</time>
      </trkpt>
      <trkpt lat="43.55545" lon="2.177">
        <ele>205.6</ele>
        <time>2023-05-27T15:25:39Z</time>
      </trkpt>
      <trkpt lat="43.55545" lon="2.17703">
        <ele>205.8</ele>
        <time>2023-05-27T15:25:40Z</time>
      </trkpt>
      <trkpt lat="43.55545" lon="2.17705">
        <ele>205.8</ele>
        <time>2023-05-27T15:25:41Z</time>
      </trkpt>
      <trkpt lat="43.55545" lon="2.17708">
        <ele>206</ele>
        <time>2023-05-27T15:25:42Z</time>
      </trkpt>
      <trkpt lat="43.55545" lon="2.1771">
        <ele>206</ele>
        <time>2023-05-27T15:25:43Z</time>
      </trkpt>
      <trkpt lat="43.55545" lon="2.17713">
        <ele>206.2</ele>
        <time>2023-05-27T15:25:44Z</time>
      </trkpt>
      <trkpt lat="43.55545" lon="2.17715">
        <ele>206.4</ele>
        <time>2023-05-27T15:25:45Z</time>
      </trkpt>
      <trkpt lat="43.55545" lon="2.17717">
        <ele>206.4</ele>
        <time>2023-05-27T15:25:46Z</time>
      </trkpt>
      <trkpt lat="43.55545" lon="2.1772">
        <ele>206.6</ele>
        <time>2023-05-27T15:25:47Z</time>
      </trkpt>
      <trkpt lat="43.55545" lon="2.17722">
        <ele>206.6</ele>
        <time>2023-05-27T15:25:48Z</time>
      </trkpt>
      <trkpt lat="43.55546" lon="2.17725">
        <ele>206.8</ele>
        <time>2023-05-27T15:25:49Z</time>
      </trkpt>
      <trkpt lat="43.55546" lon="2.17727">
        <ele>207</ele>
        <time>2023-05-27T15:25:50Z</time>
      </trkpt>
      <trkpt lat="43.55546" lon="2.1773">
        <ele>207</ele>
        <time>2023-05-27T15:25:51Z</time>
      </trkpt>
      <trkpt lat="43.55547" lon="2.17732">
        <ele>207.2</ele>
        <time>2023-05-27T15:25:52Z</time>
      </trkpt>
      <trkpt lat="43.55547" lon="2.17735">
        <ele>207.4</ele>
        <time>2023-05-27T15:25:53Z</time>
      </trkpt>
      <trkpt lat="43.55547" lon="2.17738">
        <ele>207.4</ele>
        <time>2023-05-27T15:25:54Z</time>
      </trkpt>
      <trkpt lat="43.55547" lon="2.17741">
        <ele>207.6</ele>
        <time>2023-05-27T15:25:55Z</time>
      </trkpt>
      <trkpt lat="43.55547" lon="2.17743">
        <ele>207.6</ele>
        <time>2023-05-27T15:25:56Z</time>
      </trkpt>
      <trkpt lat="43.55547" lon="2.17746">
        <ele>207.8</ele>
        <time>2023-05-27T15:25:57Z</time>
      </trkpt>
      <trkpt lat="43.55547" lon="2.17748">
        <ele>208</ele>
        <time>2023-05-27T15:25:58Z</time>
      </trkpt>
      <trkpt lat="43.55547" lon="2.17751">
        <ele>208</ele>
        <time>2023-05-27T15:25:59Z</time>
      </trkpt>
      <trkpt lat="43.55547" lon="2.17753">
        <ele>208.2</ele>
        <time>2023-05-27T15:26:00Z</time>
      </trkpt>
      <trkpt lat="43.55547" lon="2.17756">
        <ele>208.2</ele>
        <time>2023-05-27T15:26:01Z</time>
      </trkpt>
      <trkpt lat="43.55547" lon="2.17758">
        <ele>208.4</ele>
        <time>2023-05-27T15:26:02Z</time>
      </trkpt>
      <trkpt lat="43.55548" lon="2.1776">
        <ele>208.6</ele>
        <time>2023-05-27T15:26:03Z</time>
      </trkpt>
      <trkpt lat="43.55548" lon="2.17763">
        <ele>208.6</ele>
        <time>2023-05-27T15:26:04Z</time>
      </trkpt>
      <trkpt lat="43.55548" lon="2.17765">
        <ele>208.8</ele>
        <time>2023-05-27T15:26:05Z</time>
      </trkpt>
      <trkpt lat="43.55548" lon="2.17767">
        <ele>208.8</ele>
        <time>2023-05-27T15:26:06Z</time>
      </trkpt>
      <trkpt lat="43.55548" lon="2.1777">
        <ele>209</ele>
        <time>2023-05-27T15:26:07Z</time>
      </trkpt>
      <trkpt lat="43.55549" lon="2.17772">
        <ele>209.2</ele>
        <time>2023-05-27T15:26:08Z</time>
      </trkpt>
      <trkpt lat="43.55549" lon="2.17775">
        <ele>209.2</ele>
        <time>2023-05-27T15:26:09Z</time>
      </trkpt>
      <trkpt lat="43.55549" lon="2.17777">
        <ele>209.4</ele>
        <time>2023-05-27T15:26:10Z</time>
      </trkpt>
      <trkpt lat="43.55549" lon="2.17779">
        <ele>209.4</ele>
        <time>2023-05-27T15:26:11Z</time>
      </trkpt>
      <trkpt lat="43.5555" lon="2.17782">
        <ele>209.6</ele>
        <time>2023-05-27T15:26:12Z</time>
      </trkpt>
      <trkpt lat="43.5555" lon="2.17784">
        <ele>209.8</ele>
        <time>2023-05-27T15:26:13Z</time>
      </trkpt>
      <trkpt lat="43.5555" lon="2.17786">
        <ele>209.8</ele>
        <time>2023-05-27T15:26:14Z</time>
      </trkpt>
      <trkpt lat="43.5555" lon="2.17789">
        <ele>210</ele>
        <time>2023-05-27T15:26:15Z</time>
      </trkpt>
      <trkpt lat="43.5555" lon="2.17791">
        <ele>210</ele>
        <time>2023-05-27T15:26:16Z</time>
      </trkpt>
      <trkpt lat="43.5555" lon="2.17793">
        <ele>210.2</ele>
        <time>2023-05-27T15:26:17Z</time>
      </trkpt>
      <trkpt lat="43.5555" lon="2.17796">
        <ele>210.2</ele>
        <time>2023-05-27T15:26:18Z</time>
      </trkpt>
      <trkpt lat="43.5555" lon="2.17799">
        <ele>210.4</ele>
        <time>2023-05-27T15:26:19Z</time>
      </trkpt>
      <trkpt lat="43.5555" lon="2.17801">
        <ele>210.4</ele>
        <time>2023-05-27T15:26:20Z</time>
      </trkpt>
      <trkpt lat="43.5555" lon="2.17804">
        <ele>210.6</ele>
        <time>2023-05-27T15:26:21Z</time>
      </trkpt>
      <trkpt lat="43.5555" lon="2.17806">
        <ele>210.6</ele>
        <time>2023-05-27T15:26:22Z</time>
      </trkpt>
      <trkpt lat="43.55551" lon="2.17808">
        <ele>210.8</ele>
        <time>2023-05-27T15:26:23Z</time>
      </trkpt>
      <trkpt lat="43.55551" lon="2.1781">
        <ele>210.8</ele>
        <time>2023-05-27T15:26:24Z</time>
      </trkpt>
      <trkpt lat="43.55551" lon="2.17813">
        <ele>211</ele>
        <time>2023-05-27T15:26:25Z</time>
      </trkpt>
      <trkpt lat="43.55551" lon="2.17815">
        <ele>211</ele>
        <time>2023-05-27T15:26:26Z</time>
      </trkpt>
      <trkpt lat="43.55551" lon="2.17817">
        <ele>211.2</ele>
        <time>2023-05-27T15:26:27Z</time>
      </trkpt>
      <trkpt lat="43.55551" lon="2.17819">
        <ele>211.2</ele>
        <time>2023-05-27T15:26:28Z</time>
      </trkpt>
      <trkpt lat="43.55551" lon="2.17822">
        <ele>211.4</ele>
        <time>2023-05-27T15:26:29Z</time>
      </trkpt>
      <trkpt lat="43.55551" lon="2.17824">
        <ele>211.6</ele>
        <time>2023-05-27T15:26:30Z</time>
      </trkpt>
      <trkpt lat="43.55551" lon="2.17826">
        <ele>211.6</ele>
        <time>2023-05-27T15:26:31Z</time>
      </trkpt>
      <trkpt lat="43.55551" lon="2.17828">
        <ele>211.8</ele>
        <time>2023-05-27T15:26:32Z</time>
      </trkpt>
      <trkpt lat="43.55552" lon="2.1783">
        <ele>211.8</ele>
        <time>2023-05-27T15:26:33Z</time>
      </trkpt>
      <trkpt lat="43.55552" lon="2.17832">
        <ele>212</ele>
        <time>2023-05-27T15:26:34Z</time>
      </trkpt>
      <trkpt lat="43.55552" lon="2.17835">
        <ele>212</ele>
        <time>2023-05-27T15:26:35Z</time>
      </trkpt>
      <trkpt lat="43.55552" lon="2.17837">
        <ele>212.2</ele>
        <time>2023-05-27T15:26:36Z</time>
      </trkpt>
      <trkpt lat="43.55552" lon="2.1784">
        <ele>212.2</ele>
        <time>2023-05-27T15:26:37Z</time>
      </trkpt>
      <trkpt lat="43.55552" lon="2.17842">
        <ele>212.4</ele>
        <time>2023-05-27T15:26:38Z</time>
      </trkpt>
      <trkpt lat="43.55552" lon="2.17844">
        <ele>212.6</ele>
        <time>2023-05-27T15:26:39Z</time>
      </trkpt>
      <trkpt lat="43.55552" lon="2.17847">
        <ele>212.6</ele>
        <time>2023-05-27T15:26:40Z</time>
      </trkpt>
      <trkpt lat="43.55552" lon="2.17849">
        <ele>212.8</ele>
        <time>2023-05-27T15:26:41Z</time>
      </trkpt>
      <trkpt lat="43.55553" lon="2.17851">
        <ele>212.8</ele>
        <time>2023-05-27T15:26:42Z</time>
      </trkpt>
      <trkpt lat="43.55553" lon="2.17853">
        <ele>213</ele>
        <time>2023-05-27T15:26:43Z</time>
      </trkpt>
      <trkpt lat="43.55553" lon="2.17856">
        <ele>213</ele>
        <time>2023-05-27T15:26:44Z</time>
      </trkpt>
      <trkpt lat="43.55554" lon="2.17858">
        <ele>213.2</ele>
        <time>2023-05-27T15:26:45Z</time>
      </trkpt>
      <trkpt lat="43.55554" lon="2.1786">
        <ele>213.2</ele>
        <time>2023-05-27T15:26:46Z</time>
      </trkpt>
      <trkpt lat="43.55554" lon="2.17862">
        <ele>213.4</ele>
        <time>2023-05-27T15:26:47Z</time>
      </trkpt>
      <trkpt lat="43.55554" lon="2.17864">
        <ele>213.4</ele>
        <time>2023-05-27T15:26:48Z</time>
      </trkpt>
      <trkpt lat="43.55555" lon="2.17866">
        <ele>213.6</ele>
        <time>2023-05-27T15:26:49Z</time>
      </trkpt>
      <trkpt lat="43.55555" lon="2.17869">
        <ele>213.6</ele>
        <time>2023-05-27T15:26:50Z</time>
      </trkpt>
      <trkpt lat="43.55555" lon="2.17871">
        <ele>213.8</ele>
        <time>2023-05-27T15:26:51Z</time>
      </trkpt>
      <trkpt lat="43.55556" lon="2.17873">
        <ele>213.8</ele>
        <time>2023-05-27T15:26:52Z</time>
      </trkpt>
      <trkpt lat="43.55556" lon="2.17876">
        <ele>214</ele>
        <time>2023-05-27T15:26:53Z</time>
      </trkpt>
      <trkpt lat="43.55556" lon="2.17878">
        <ele>214</ele>
        <time>2023-05-27T15:26:54Z</time>
      </trkpt>
      <trkpt lat="43.55557" lon="2.1788">
        <ele>214</ele>
        <time>2023-05-27T15:26:55Z</time>
      </trkpt>
      <trkpt lat="43.55558" lon="2.17882">
        <ele>214.2</ele>
        <time>2023-05-27T15:26:56Z</time>
      </trkpt>
      <trkpt lat="43.55558" lon="2.17884">
        <ele>214.2</ele>
        <time>2023-05-27T15:26:57Z</time>
      </trkpt>
      <trkpt lat="43.55559" lon="2.17886">
        <ele>214.4</ele>
        <time>2023-05-27T15:26:58Z</time>
      </trkpt>
      <trkpt lat="43.5556" lon="2.17888">
        <ele>214.6</ele>
        <time>2023-05-27T15:26:59Z</time>
      </trkpt>
      <trkpt lat="43.5556" lon="2.1789">
        <ele>214.6</ele>
        <time>2023-05-27T15:27:00Z</time>
      </trkpt>
      <trkpt lat="43.55561" lon="2.17892">
        <ele>214.8</ele>
        <time>2023-05-27T15:27:01Z</time>
      </trkpt>
      <trkpt lat="43.55562" lon="2.17895">
        <ele>214.8</ele>
        <time>2023-05-27T15:27:02Z</time>
      </trkpt>
      <trkpt lat="43.55562" lon="2.17897">
        <ele>215</ele>
        <time>2023-05-27T15:27:03Z</time>
      </trkpt>
      <trkpt lat="43.55562" lon="2.179">
        <ele>215.2</ele>
        <time>2023-05-27T15:27:04Z</time>
      </trkpt>
      <trkpt lat="43.55563" lon="2.17902">
        <ele>215.2</ele>
        <time>2023-05-27T15:27:05Z</time>
      </trkpt>
      <trkpt lat="43.55563" lon="2.17904">
        <ele>215.4</ele>
        <time>2023-05-27T15:27:06Z</time>
      </trkpt>
      <trkpt lat="43.55564" lon="2.17907">
        <ele>215.4</ele>
        <time>2023-05-27T15:27:07Z</time>
      </trkpt>
      <trkpt lat="43.55565" lon="2.17909">
        <ele>215.6</ele>
        <time>2023-05-27T15:27:08Z</time>
      </trkpt>
      <trkpt lat="43.55565" lon="2.17911">
        <ele>215.6</ele>
        <time>2023-05-27T15:27:09Z</time>
      </trkpt>
      <trkpt lat="43.55566" lon="2.17913">
        <ele>215.8</ele>
        <time>2023-05-27T15:27:10Z</time>
      </trkpt>
      <trkpt lat="43.55567" lon="2.17915">
        <ele>215.8</ele>
        <time>2023-05-27T15:27:11Z</time>
      </trkpt>
      <trkpt lat="43.55567" lon="2.17917">
        <ele>216</ele>
        <time>2023-05-27T15:27:12Z</time>
      </trkpt>
      <trkpt lat="43.55568" lon="2.17919">
        <ele>216</ele>
        <time>2023-05-27T15:27:13Z</time>
      </trkpt>
      <trkpt lat="43.5557" lon="2.1792">
        <ele>216.2</ele>
        <time>2023-05-27T15:27:14Z</time>
      </trkpt>
      <trkpt lat="43.55572" lon="2.17923">
        <ele>216.2</ele>
        <time>2023-05-27T15:27:15Z</time>
      </trkpt>
      <trkpt lat="43.55573" lon="2.17926">
        <ele>216.4</ele>
        <time>2023-05-27T15:27:16Z</time>
      </trkpt>
      <trkpt lat="43.55574" lon="2.17928">
        <ele>216.6</ele>
        <time>2023-05-27T15:27:17Z</time>
      </trkpt>
      <trkpt lat="43.55575" lon="2.1793">
        <ele>216.6</ele>
        <time>2023-05-27T15:27:18Z</time>
      </trkpt>
      <trkpt lat="43.55576" lon="2.17933">
        <ele>216.8</ele>
        <time>2023-05-27T15:27:19Z</time>
      </trkpt>
      <trkpt lat="43.55577" lon="2.17935">
        <ele>216.8</ele>
        <time>2023-05-27T15:27:20Z</time>
      </trkpt>
      <trkpt lat="43.55577" lon="2.17938">
        <ele>217</ele>
        <time>2023-05-27T15:27:21Z</time>
      </trkpt>
      <trkpt lat="43.55578" lon="2.17941">
        <ele>217</ele>
        <time>2023-05-27T15:27:22Z</time>
      </trkpt>
      <trkpt lat="43.55579" lon="2.17943">
        <ele>217.2</ele>
        <time>2023-05-27T15:27:23Z</time>
      </trkpt>
      <trkpt lat="43.55579" lon="2.17945">
        <ele>217.2</ele>
        <time>2023-05-27T15:27:24Z</time>
      </trkpt>
      <trkpt lat="43.55578" lon="2.17947">
        <ele>217.4</ele>
        <time>2023-05-27T15:27:25Z</time>
      </trkpt>
      <trkpt lat="43.55579" lon="2.1795">
        <ele>217.4</ele>
        <time>2023-05-27T15:27:26Z</time>
      </trkpt>
      <trkpt lat="43.55579" lon="2.17952">
        <ele>217.6</ele>
        <time>2023-05-27T15:27:27Z</time>
      </trkpt>
      <trkpt lat="43.5558" lon="2.17954">
        <ele>217.6</ele>
        <time>2023-05-27T15:27:28Z</time>
      </trkpt>
      <trkpt lat="43.55581" lon="2.17956">
        <ele>217.8</ele>
        <time>2023-05-27T15:27:29Z</time>
      </trkpt>
      <trkpt lat="43.55581" lon="2.17958">
        <ele>217.8</ele>
        <time>2023-05-27T15:27:30Z</time>
      </trkpt>
      <trkpt lat="43.55581" lon="2.1796">
        <ele>218</ele>
        <time>2023-05-27T15:27:31Z</time>
      </trkpt>
      <trkpt lat="43.55581" lon="2.17963">
        <ele>218</ele>
        <time>2023-05-27T15:27:32Z</time>
      </trkpt>
      <trkpt lat="43.55582" lon="2.17965">
        <ele>218.2</ele>
        <time>2023-05-27T15:27:33Z</time>
      </trkpt>
      <trkpt lat="43.55581" lon="2.17967">
        <ele>218.4</ele>
        <time>2023-05-27T15:27:34Z</time>
      </trkpt>
      <trkpt lat="43.55581" lon="2.17969">
        <ele>218.4</ele>
        <time>2023-05-27T15:27:35Z</time>
      </trkpt>
      <trkpt lat="43.55581" lon="2.17971">
        <ele>218.6</ele>
        <time>2023-05-27T15:27:36Z</time>
      </trkpt>
      <trkpt lat="43.5558" lon="2.17973">
        <ele>218.6</ele>
        <time>2023-05-27T15:27:37Z</time>
      </trkpt>
      <trkpt lat="43.5558" lon="2.17975">
        <ele>218.8</ele>
        <time>2023-05-27T15:27:38Z</time>
      </trkpt>
      <trkpt lat="43.5558" lon="2.17978">
        <ele>218.8</ele>
        <time>2023-05-27T15:27:39Z</time>
      </trkpt>
      <trkpt lat="43.55579" lon="2.1798">
        <ele>219</ele>
        <time>2023-05-27T15:27:40Z</time>
      </trkpt>
      <trkpt lat="43.55578" lon="2.17982">
        <ele>219</ele>
        <time>2023-05-27T15:27:41Z</time>
      </trkpt>
      <trkpt lat="43.55578" lon="2.17985">
        <ele>219.2</ele>
        <time>2023-05-27T15:27:42Z</time>
      </trkpt>
      <trkpt lat="43.55578" lon="2.17987">
        <ele>219.4</ele>
        <time>2023-05-27T15:27:43Z</time>
      </trkpt>
      <trkpt lat="43.55577" lon="2.17988">
        <ele>219.4</ele>
        <time>2023-05-27T15:27:44Z</time>
      </trkpt>
      <trkpt lat="43.55577" lon="2.17988">
        <ele>219.6</ele>
        <time>2023-05-27T15:27:45Z</time>
      </trkpt>
      <trkpt lat="43.55577" lon="2.17988">
        <ele>219.6</ele>
        <time>2023-05-27T15:27:46Z</time>
      </trkpt>
      <trkpt lat="43.55577" lon="2.17988">
        <ele>219.8</ele>
        <time>2023-05-27T15:27:47Z</time>
      </trkpt>
      <trkpt lat="43.55577" lon="2.17989">
        <ele>219.8</ele>
        <time>2023-05-27T15:27:48Z</time>
      </trkpt>
      <trkpt lat="43.55578" lon="2.1799">
        <ele>219.8</ele>
        <time>2023-05-27T15:27:49Z</time>
      </trkpt>
      <trkpt lat="43.55578" lon="2.17991">
        <ele>219.8</ele>
        <time>2023-05-27T15:27:50Z</time>
      </trkpt>
      <trkpt lat="43.55577" lon="2.17991">
        <ele>220</ele>
        <time>2023-05-27T15:27:51Z</time>
      </trkpt>
      <trkpt lat="43.55576" lon="2.17992">
        <ele>220</ele>
        <time>2023-05-27T15:27:52Z</time>
      </trkpt>
      <trkpt lat="43.55576" lon="2.17993">
        <ele>220</ele>
        <time>2023-05-27T15:27:53Z</time>
      </trkpt>
      <trkpt lat="43.55575" lon="2.17994">
        <ele>220.2</ele>
        <time>2023-05-27T15:27:54Z</time>
      </trkpt>
      <trkpt lat="43.55575" lon="2.17995">
        <ele>220.2</ele>
        <time>2023-05-27T15:27:55Z</time>
      </trkpt>
      <trkpt lat="43.55574" lon="2.17997">
        <ele>220.4</ele>
        <time>2023-05-27T15:27:56Z</time>
      </trkpt>
      <trkpt lat="43.55573" lon="2.17998">
        <ele>220.4</ele>
        <time>2023-05-27T15:27:57Z</time>
      </trkpt>
      <trkpt lat="43.55573" lon="2.17999">
        <ele>220.4</ele>
        <time>2023-05-27T15:27:58Z</time>
      </trkpt>
      <trkpt lat="43.55572" lon="2.18">
        <ele>220.6</ele>
        <time>2023-05-27T15:27:59Z</time>
      </trkpt>
      <trkpt lat="43.55571" lon="2.18002">
        <ele>220.6</ele>
        <time>2023-05-27T15:28:00Z</time>
      </trkpt>
      <trkpt lat="43.55571" lon="2.18003">
        <ele>220.8</ele>
        <time>2023-05-27T15:28:01Z</time>
      </trkpt>
      <trkpt lat="43.5557" lon="2.18004">
        <ele>220.8</ele>
        <time>2023-05-27T15:28:02Z</time>
      </trkpt>
      <trkpt lat="43.55569" lon="2.18005">
        <ele>220.8</ele>
        <time>2023-05-27T15:28:03Z</time>
      </trkpt>
      <trkpt lat="43.55569" lon="2.18006">
        <ele>221</ele>
        <time>2023-05-27T15:28:04Z</time>
      </trkpt>
      <trkpt lat="43.55568" lon="2.18007">
        <ele>221</ele>
        <time>2023-05-27T15:28:05Z</time>
      </trkpt>
      <trkpt lat="43.55567" lon="2.18008">
        <ele>221.2</ele>
        <time>2023-05-27T15:28:06Z</time>
      </trkpt>
      <trkpt lat="43.55566" lon="2.18009">
        <ele>221.2</ele>
        <time>2023-05-27T15:28:07Z</time>
      </trkpt>
      <trkpt lat="43.55565" lon="2.1801">
        <ele>221.2</ele>
        <time>2023-05-27T15:28:08Z</time>
      </trkpt>
      <trkpt lat="43.55564" lon="2.18011">
        <ele>221.4</ele>
        <time>2023-05-27T15:28:09Z</time>
      </trkpt>
      <trkpt lat="43.55564" lon="2.18013">
        <ele>221.4</ele>
        <time>2023-05-27T15:28:10Z</time>
      </trkpt>
      <trkpt lat="43.55563" lon="2.18014">
        <ele>221.4</ele>
        <time>2023-05-27T15:28:11Z</time>
      </trkpt>
      <trkpt lat="43.55562" lon="2.18016">
        <ele>221.6</ele>
        <time>2023-05-27T15:28:12Z</time>
      </trkpt>
      <trkpt lat="43.55562" lon="2.18017">
        <ele>221.6</ele>
        <time>2023-05-27T15:28:13Z</time>
      </trkpt>
      <trkpt lat="43.55561" lon="2.18019">
        <ele>221.8</ele>
        <time>2023-05-27T15:28:14Z</time>
      </trkpt>
      <trkpt lat="43.55561" lon="2.1802">
        <ele>221.8</ele>
        <time>2023-05-27T15:28:15Z</time>
      </trkpt>
      <trkpt lat="43.5556" lon="2.18022">
        <ele>221.8</ele>
        <time>2023-05-27T15:28:16Z</time>
      </trkpt>
      <trkpt lat="43.55559" lon="2.18023">
        <ele>222</ele>
        <time>2023-05-27T15:28:17Z</time>
      </trkpt>
      <trkpt lat="43.55559" lon="2.18025">
        <ele>222</ele>
        <time>2023-05-27T15:28:18Z</time>
      </trkpt>
      <trkpt lat="43.55558" lon="2.18027">
        <ele>222</ele>
        <time>2023-05-27T15:28:19Z</time>
      </trkpt>
      <trkpt lat="43.55558" lon="2.18028">
        <ele>222.2</ele>
        <time>2023-05-27T15:28:20Z</time>
      </trkpt>
      <trkpt lat="43.55558" lon="2.1803">
        <ele>222.2</ele>
        <time>2023-05-27T15:28:21Z</time>
      </trkpt>
      <trkpt lat="43.55558" lon="2.18032">
        <ele>222.2</ele>
        <time>2023-05-27T15:28:22Z</time>
      </trkpt>
      <trkpt lat="43.55558" lon="2.18033">
        <ele>222.4</ele>
        <time>2023-05-27T15:28:23Z</time>
      </trkpt>
      <trkpt lat="43.55559" lon="2.18035">
        <ele>222.4</ele>
        <time>2023-05-27T15:28:24Z</time>
      </trkpt>
      <trkpt lat="43.55559" lon="2.18037">
        <ele>222.4</ele>
        <time>2023-05-27T15:28:25Z</time>
      </trkpt>
      <trkpt lat="43.5556" lon="2.18038">
        <ele>222.4</ele>
        <time>2023-05-27T15:28:26Z</time>
      </trkpt>
      <trkpt lat="43.55561" lon="2.18039">
        <ele>222.6</ele>
        <time>2023-05-27T15:28:27Z</time>
      </trkpt>
      <trkpt lat="43.55562" lon="2.18041">
        <ele>222.6</ele>
        <time>2023-05-27T15:28:28Z</time>
      </trkpt>
      <trkpt lat="43.55562" lon="2.18042">
        <ele>222.6</ele>
        <time>2023-05-27T15:28:29Z</time>
      </trkpt>
      <trkpt lat="43.55563" lon="2.18043">
        <ele>222.8</ele>
        <time>2023-05-27T15:28:30Z</time>
      </trkpt>
      <trkpt lat="43.55565" lon="2.18043">
        <ele>222.8</ele>
        <time>2023-05-27T15:28:31Z</time>
      </trkpt>
      <trkpt lat="43.55566" lon="2.18044">
        <ele>222.8</ele>
        <time>2023-05-27T15:28:32Z</time>
      </trkpt>
      <trkpt lat="43.55567" lon="2.18044">
        <ele>223</ele>
        <time>2023-05-27T15:28:33Z</time>
      </trkpt>
      <trkpt lat="43.55568" lon="2.18045">
        <ele>223</ele>
        <time>2023-05-27T15:28:34Z</time>
      </trkpt>
      <trkpt lat="43.55569" lon="2.18045">
        <ele>223</ele>
        <time>2023-05-27T15:28:35Z</time>
      </trkpt>
      <trkpt lat="43.5557" lon="2.18046">
        <ele>223.2</ele>
        <time>2023-05-27T15:28:36Z</time>
      </trkpt>
      <trkpt lat="43.55572" lon="2.18046">
        <ele>223.2</ele>
        <time>2023-05-27T15:28:37Z</time>
      </trkpt>
      <trkpt lat="43.55573" lon="2.18046">
        <ele>223.2</ele>
        <time>2023-05-27T15:28:38Z</time>
      </trkpt>
      <trkpt lat="43.55574" lon="2.18045">
        <ele>223.4</ele>
        <time>2023-05-27T15:28:39Z</time>
      </trkpt>
      <trkpt lat="43.55576" lon="2.18045">
        <ele>223.4</ele>
        <time>2023-05-27T15:28:40Z</time>
      </trkpt>
      <trkpt lat="43.55577" lon="2.18045">
        <ele>223.6</ele>
        <time>2023-05-27T15:28:41Z</time>
      </trkpt>
      <trkpt lat="43.55578" lon="2.18044">
        <ele>223.6</ele>
        <time>2023-05-27T15:28:42Z</time>
      </trkpt>
      <trkpt lat="43.5558" lon="2.18044">
        <ele>223.6</ele>
        <time>2023-05-27T15:28:43Z</time>
      </trkpt>
      <trkpt lat="43.55581" lon="2.18044">
        <ele>223.6</ele>
        <time>2023-05-27T15:28:44Z</time>
      </trkpt>
      <trkpt lat="43.55582" lon="2.18043">
        <ele>223.8</ele>
        <time>2023-05-27T15:28:45Z</time>
      </trkpt>
      <trkpt lat="43.55583" lon="2.18043">
        <ele>223.8</ele>
        <time>2023-05-27T15:28:46Z</time>
      </trkpt>
      <trkpt lat="43.55584" lon="2.18042">
        <ele>223.8</ele>
        <time>2023-05-27T15:28:47Z</time>
      </trkpt>
      <trkpt lat="43.55585" lon="2.18042">
        <ele>224</ele>
        <time>2023-05-27T15:28:48Z</time>
      </trkpt>
      <trkpt lat="43.55586" lon="2.18041">
        <ele>224</ele>
        <time>2023-05-27T15:28:49Z</time>
      </trkpt>
      <trkpt lat="43.55587" lon="2.18041">
        <ele>224.2</ele>
        <time>2023-05-27T15:28:50Z</time>
      </trkpt>
      <trkpt lat="43.55589" lon="2.1804">
        <ele>224.2</ele>
        <time>2023-05-27T15:28:51Z</time>
      </trkpt>
      <trkpt lat="43.5559" lon="2.1804">
        <ele>224.2</ele>
        <time>2023-05-27T15:28:52Z</time>
      </trkpt>
      <trkpt lat="43.55591" lon="2.1804">
        <ele>224.4</ele>
        <time>2023-05-27T15:28:53Z</time>
      </trkpt>
      <trkpt lat="43.55592" lon="2.18039">
        <ele>224.4</ele>
        <time>2023-05-27T15:28:54Z</time>
      </trkpt>
      <trkpt lat="43.55593" lon="2.18039">
        <ele>224.6</ele>
        <time>2023-05-27T15:28:55Z</time>
      </trkpt>
      <trkpt lat="43.55594" lon="2.18039">
        <ele>224.6</ele>
        <time>2023-05-27T15:28:56Z</time>
      </trkpt>
      <trkpt lat="43.55596" lon="2.18038">
        <ele>224.6</ele>
        <time>2023-05-27T15:28:57Z</time>
      </trkpt>
      <trkpt lat="43.55597" lon="2.18037">
        <ele>224.8</ele>
        <time>2023-05-27T15:28:58Z</time>
      </trkpt>
      <trkpt lat="43.55598" lon="2.18037">
        <ele>224.8</ele>
        <time>2023-05-27T15:28:59Z</time>
      </trkpt>
      <trkpt lat="43.556" lon="2.18036">
        <ele>225</ele>
        <time>2023-05-27T15:29:00Z</time>
      </trkpt>
      <trkpt lat="43.55601" lon="2.18036">
        <ele>225</ele>
        <time>2023-05-27T15:29:01Z</time>
      </trkpt>
      <trkpt lat="43.55602" lon="2.18036">
        <ele>225.2</ele>
        <time>2023-05-27T15:29:02Z</time>
      </trkpt>
      <trkpt lat="43.55603" lon="2.18035">
        <ele>225.2</ele>
        <time>2023-05-27T15:29:03Z</time>
      </trkpt>
      <trkpt lat="43.55605" lon="2.18035">
        <ele>225.4</ele>
        <time>2023-05-27T15:29:04Z</time>
      </trkpt>
      <trkpt lat="43.55606" lon="2.18034">
        <ele>225.4</ele>
        <time>2023-05-27T15:29:05Z</time>
      </trkpt>
      <trkpt lat="43.55607" lon="2.18034">
        <ele>225.4</ele>
        <time>2023-05-27T15:29:06Z</time>
      </trkpt>
      <trkpt lat="43.55608" lon="2.18033">
        <ele>225.6</ele>
        <time>2023-05-27T15:29:07Z</time>
      </trkpt>
      <trkpt lat="43.55609" lon="2.18033">
        <ele>225.6</ele>
        <time>2023-05-27T15:29:08Z</time>
      </trkpt>
      <trkpt lat="43.5561" lon="2.18032">
        <ele>225.8</ele>
        <time>2023-05-27T15:29:09Z</time>
      </trkpt>
      <trkpt lat="43.55611" lon="2.18032">
        <ele>225.8</ele>
        <time>2023-05-27T15:29:10Z</time>
      </trkpt>
      <trkpt lat="43.55613" lon="2.18032">
        <ele>226</ele>
        <time>2023-05-27T15:29:11Z</time>
      </trkpt>
      <trkpt lat="43.55614" lon="2.18031">
        <ele>226</ele>
        <time>2023-05-27T15:29:12Z</time>
      </trkpt>
      <trkpt lat="43.55615" lon="2.18031">
        <ele>226</ele>
        <time>2023-05-27T15:29:13Z</time>
      </trkpt>
      <trkpt lat="43.55616" lon="2.1803">
        <ele>226.2</ele>
        <time>2023-05-27T15:29:14Z</time>
      </trkpt>
      <trkpt lat="43.55617" lon="2.1803">
        <ele>226.2</ele>
        <time>2023-05-27T15:29:15Z</time>
      </trkpt>
      <trkpt lat="43.55619" lon="2.1803">
        <ele>226.2</ele>
        <time>2023-05-27T15:29:16Z</time>
      </trkpt>
      <trkpt lat="43.5562" lon="2.18029">
        <ele>226.4</ele>
        <time>2023-05-27T15:29:17Z</time>
      </trkpt>
      <trkpt lat="43.55621" lon="2.18029">
        <ele>226.4</ele>
        <time>2023-05-27T15:29:18Z</time>
      </trkpt>
      <trkpt lat="43.55622" lon="2.18028">
        <ele>226.4</ele>
        <time>2023-05-27T15:29:19Z</time>
      </trkpt>
      <trkpt lat="43.55624" lon="2.18028">
        <ele>226.6</ele>
        <time>2023-05-27T15:29:20Z</time>
      </trkpt>
      <trkpt lat="43.55625" lon="2.18027">
        <ele>226.6</ele>
        <time>2023-05-27T15:29:21Z</time>
      </trkpt>
      <trkpt lat="43.55626" lon="2.18027">
        <ele>226.8</ele>
        <time>2023-05-27T15:29:22Z</time>
      </trkpt>
      <trkpt lat="43.55628" lon="2.18026">
        <ele>226.8</ele>
        <time>2023-05-27T15:29:23Z</time>
      </trkpt>
      <trkpt lat="43.55629" lon="2.18026">
        <ele>226.8</ele>
        <time>2023-05-27T15:29:24Z</time>
      </trkpt>
      <trkpt lat="43.5563" lon="2.18025">
        <ele>227</ele>
        <time>2023-05-27T15:29:25Z</time>
      </trkpt>
      <trkpt lat="43.55631" lon="2.18025">
        <ele>227</ele>
        <time>2023-05-27T15:29:26Z</time>
      </trkpt>
      <trkpt lat="43.55632" lon="2.18024">
        <ele>227.2</ele>
        <time>2023-05-27T15:29:27Z</time>
      </trkpt>
      <trkpt lat="43.55634" lon="2.18024">
        <ele>227.2</ele>
        <time>2023-05-27T15:29:28Z</time>
      </trkpt>
      <trkpt lat="43.55635" lon="2.18023">
        <ele>227.2</ele>
        <time>2023-05-27T15:29:29Z</time>
      </trkpt>
      <trkpt lat="43.55636" lon="2.18023">
        <ele>227.4</ele>
        <time>2023-05-27T15:29:30Z</time>
      </trkpt>
      <trkpt lat="43.55637" lon="2.18023">
        <ele>227.4</ele>
        <time>2023-05-27T15:29:31Z</time>
      </trkpt>
      <trkpt lat="43.55638" lon="2.18023">
        <ele>227.6</ele>
        <time>2023-05-27T15:29:32Z</time>
      </trkpt>
      <trkpt lat="43.55639" lon="2.18022">
        <ele>227.6</ele>
        <time>2023-05-27T15:29:33Z</time>
      </trkpt>
      <trkpt lat="43.5564" lon="2.18022">
        <ele>227.6</ele>
        <time>2023-05-27T15:29:34Z</time>
      </trkpt>
      <trkpt lat="43.55642" lon="2.18022">
        <ele>227.8</ele>
        <time>2023-05-27T15:29:35Z</time>
      </trkpt>
      <trkpt lat="43.55643" lon="2.18022">
        <ele>227.8</ele>
        <time>2023-05-27T15:29:36Z</time>
      </trkpt>
      <trkpt lat="43.55643" lon="2.18022">
        <ele>228</ele>
        <time>2023-05-27T15:29:37Z</time>
      </trkpt>
      <trkpt lat="43.55645" lon="2.18022">
        <ele>228</ele>
        <time>2023-05-27T15:29:38Z</time>
      </trkpt>
      <trkpt lat="43.55646" lon="2.18021">
        <ele>228</ele>
        <time>2023-05-27T15:29:39Z</time>
      </trkpt>
      <trkpt lat="43.55647" lon="2.18021">
        <ele>228.2</ele>
        <time>2023-05-27T15:29:40Z</time>
      </trkpt>
      <trkpt lat="43.55648" lon="2.18021">
        <ele>228.2</ele>
        <time>2023-05-27T15:29:41Z</time>
      </trkpt>
      <trkpt lat="43.5565" lon="2.18021">
        <ele>228.4</ele>
        <time>2023-05-27T15:29:42Z</time>
      </trkpt>
      <trkpt lat="43.55651" lon="2.18021">
        <ele>228.4</ele>
        <time>2023-05-27T15:29:43Z</time>
      </trkpt>
      <trkpt lat="43.55652" lon="2.18021">
        <ele>228.6</ele>
        <time>2023-05-27T15:29:44Z</time>
      </trkpt>
      <trkpt lat="43.55653" lon="2.18021">
        <ele>228.6</ele>
        <time>2023-05-27T15:29:45Z</time>
      </trkpt>
      <trkpt lat="43.55655" lon="2.18021">
        <ele>228.6</ele>
        <time>2023-05-27T15:29:46Z</time>
      </trkpt>
      <trkpt lat="43.55656" lon="2.18021">
        <ele>228.8</ele>
        <time>2023-05-27T15:29:47Z</time>
      </trkpt>
      <trkpt lat="43.55657" lon="2.18022">
        <ele>228.8</ele>
        <time>2023-05-27T15:29:48Z</time>
      </trkpt>
      <trkpt lat="43.55658" lon="2.18022">
        <ele>229</ele>
        <time>2023-05-27T15:29:49Z</time>
      </trkpt>
      <trkpt lat="43.55659" lon="2.18022">
        <ele>229</ele>
        <time>2023-05-27T15:29:50Z</time>
      </trkpt>
      <trkpt lat="43.5566" lon="2.18022">
        <ele>229.2</ele>
        <time>2023-05-27T15:29:51Z</time>
      </trkpt>
      <trkpt lat="43.55662" lon="2.18022">
        <ele>229.2</ele>
        <time>2023-05-27T15:29:52Z</time>
      </trkpt>
      <trkpt lat="43.55663" lon="2.18022">
        <ele>229.4</ele>
        <time>2023-05-27T15:29:53Z</time>
      </trkpt>
      <trkpt lat="43.55664" lon="2.18022">
        <ele>229.4</ele>
        <time>2023-05-27T15:29:54Z</time>
      </trkpt>
      <trkpt lat="43.55665" lon="2.18022">
        <ele>229.6</ele>
        <time>2023-05-27T15:29:55Z</time>
      </trkpt>
      <trkpt lat="43.55667" lon="2.18022">
        <ele>229.6</ele>
        <time>2023-05-27T15:29:56Z</time>
      </trkpt>
      <trkpt lat="43.55668" lon="2.18022">
        <ele>229.6</ele>
        <time>2023-05-27T15:29:57Z</time>
      </trkpt>
      <trkpt lat="43.55669" lon="2.18022">
        <ele>229.8</ele>
        <time>2023-05-27T15:29:58Z</time>
      </trkpt>
      <trkpt lat="43.5567" lon="2.18022">
        <ele>229.8</ele>
        <time>2023-05-27T15:29:59Z</time>
      </trkpt>
      <trkpt lat="43.55671" lon="2.18022">
        <ele>230</ele>
        <time>2023-05-27T15:30:00Z</time>
      </trkpt>
      <trkpt lat="43.55673" lon="2.18023">
        <ele>230</ele>
        <time>2023-05-27T15:30:01Z</time>
      </trkpt>
      <trkpt lat="43.55674" lon="2.18023">
        <ele>230</ele>
        <time>2023-05-27T15:30:02Z</time>
      </trkpt>
      <trkpt lat="43.55675" lon="2.18023">
        <ele>230.2</ele>
        <time>2023-05-27T15:30:03Z</time>
      </trkpt>
      <trkpt lat="43.55676" lon="2.18023">
        <ele>230.2</ele>
        <time>2023-05-27T15:30:04Z</time>
      </trkpt>
      <trkpt lat="43.55677" lon="2.18024">
        <ele>230.4</ele>
        <time>2023-05-27T15:30:05Z</time>
      </trkpt>
      <trkpt lat="43.55679" lon="2.18024">
        <ele>230.4</ele>
        <time>2023-05-27T15:30:06Z</time>
      </trkpt>
      <trkpt lat="43.5568" lon="2.18024">
        <ele>230.6</ele>
        <time>2023-05-27T15:30:07Z</time>
      </trkpt>
      <trkpt lat="43.5568" lon="2.18025">
        <ele>230.6</ele>
        <time>2023-05-27T15:30:08Z</time>
      </trkpt>
      <trkpt lat="43.55681" lon="2.18025">
        <ele>230.6</ele>
        <time>2023-05-27T15:30:09Z</time>
      </trkpt>
      <trkpt lat="43.55682" lon="2.18026">
        <ele>230.8</ele>
        <time>2023-05-27T15:30:10Z</time>
      </trkpt>
      <trkpt lat="43.55684" lon="2.18026">
        <ele>230.8</ele>
        <time>2023-05-27T15:30:11Z</time>
      </trkpt>
      <trkpt lat="43.55685" lon="2.18026">
        <ele>231</ele>
        <time>2023-05-27T15:30:12Z</time>
      </trkpt>
      <trkpt lat="43.55686" lon="2.18026">
        <ele>231</ele>
        <time>2023-05-27T15:30:13Z</time>
      </trkpt>
      <trkpt lat="43.55687" lon="2.18027">
        <ele>231.2</ele>
        <time>2023-05-27T15:30:14Z</time>
      </trkpt>
      <trkpt lat="43.55688" lon="2.18027">
        <ele>231.2</ele>
        <time>2023-05-27T15:30:15Z</time>
      </trkpt>
      <trkpt lat="43.55689" lon="2.18028">
        <ele>231.4</ele>
        <time>2023-05-27T15:30:16Z</time>
      </trkpt>
      <trkpt lat="43.5569" lon="2.18028">
        <ele>231.4</ele>
        <time>2023-05-27T15:30:17Z</time>
      </trkpt>
      <trkpt lat="43.55691" lon="2.18028">
        <ele>231.6</ele>
        <time>2023-05-27T15:30:18Z</time>
      </trkpt>
      <trkpt lat="43.55692" lon="2.18028">
        <ele>231.6</ele>
        <time>2023-05-27T15:30:19Z</time>
      </trkpt>
      <trkpt lat="43.55693" lon="2.18028">
        <ele>231.8</ele>
        <time>2023-05-27T15:30:20Z</time>
      </trkpt>
      <trkpt lat="43.55694" lon="2.18028">
        <ele>231.8</ele>
        <time>2023-05-27T15:30:21Z</time>
      </trkpt>
      <trkpt lat="43.55695" lon="2.18029">
        <ele>231.8</ele>
        <time>2023-05-27T15:30:22Z</time>
      </trkpt>
      <trkpt lat="43.55696" lon="2.18029">
        <ele>232</ele>
        <time>2023-05-27T15:30:23Z</time>
      </trkpt>
      <trkpt lat="43.55697" lon="2.1803">
        <ele>232</ele>
        <time>2023-05-27T15:30:24Z</time>
      </trkpt>
      <trkpt lat="43.55699" lon="2.18031">
        <ele>232.2</ele>
        <time>2023-05-27T15:30:33Z</time>
      </trkpt>
      <trkpt lat="43.557" lon="2.18032">
        <ele>232.2</ele>
        <time>2023-05-27T15:30:34Z</time>
      </trkpt>
      <trkpt lat="43.55701" lon="2.18032">
        <ele>232.2</ele>
        <time>2023-05-27T15:30:35Z</time>
      </trkpt>
      <trkpt lat="43.55701" lon="2.18033">
        <ele>232.4</ele>
        <time>2023-05-27T15:30:36Z</time>
      </trkpt>
      <trkpt lat="43.55702" lon="2.18033">
        <ele>232.4</ele>
        <time>2023-05-27T15:30:37Z</time>
      </trkpt>
      <trkpt lat="43.55703" lon="2.18034">
        <ele>232.4</ele>
        <time>2023-05-27T15:30:38Z</time>
      </trkpt>
      <trkpt lat="43.55705" lon="2.18035">
        <ele>232.4</ele>
        <time>2023-05-27T15:30:39Z</time>
      </trkpt>
      <trkpt lat="43.55705" lon="2.18035">
        <ele>232.6</ele>
        <time>2023-05-27T15:30:40Z</time>
      </trkpt>
      <trkpt lat="43.55706" lon="2.18035">
        <ele>232.6</ele>
        <time>2023-05-27T15:30:41Z</time>
      </trkpt>
      <trkpt lat="43.55706" lon="2.18035">
        <ele>232.6</ele>
        <time>2023-05-27T15:30:42Z</time>
      </trkpt>
      <trkpt lat="43.55707" lon="2.18036">
        <ele>232.8</ele>
        <time>2023-05-27T15:30:43Z</time>
      </trkpt>
      <trkpt lat="43.55708" lon="2.18037">
        <ele>232.8</ele>
        <time>2023-05-27T15:30:44Z</time>
      </trkpt>
      <trkpt lat="43.5571" lon="2.18037">
        <ele>232.8</ele>
        <time>2023-05-27T15:30:45Z</time>
      </trkpt>
      <trkpt lat="43.55711" lon="2.18038">
        <ele>233</ele>
        <time>2023-05-27T15:30:46Z</time>
      </trkpt>
      <trkpt lat="43.55712" lon="2.18038">
        <ele>233</ele>
        <time>2023-05-27T15:30:47Z</time>
      </trkpt>
      <trkpt lat="43.55713" lon="2.18038">
        <ele>233.2</ele>
        <time>2023-05-27T15:30:48Z</time>
      </trkpt>
      <trkpt lat="43.55715" lon="2.18038">
        <ele>233.2</ele>
        <time>2023-05-27T15:30:49Z</time>
      </trkpt>
      <trkpt lat="43.55716" lon="2.18039">
        <ele>233.2</ele>
        <time>2023-05-27T15:30:50Z</time>
      </trkpt>
      <trkpt lat="43.55717" lon="2.18039">
        <ele>233.4</ele>
        <time>2023-05-27T15:30:51Z</time>
      </trkpt>
      <trkpt lat="43.55718" lon="2.18039">
        <ele>233.4</ele>
        <time>2023-05-27T15:30:52Z</time>
      </trkpt>
      <trkpt lat="43.5572" lon="2.1804">
        <ele>233.6</ele>
        <time>2023-05-27T15:30:53Z</time>
      </trkpt>
      <trkpt lat="43.55721" lon="2.1804">
        <ele>233.6</ele>
        <time>2023-05-27T15:30:54Z</time>
      </trkpt>
      <trkpt lat="43.55723" lon="2.18041">
        <ele>233.8</ele>
        <time>2023-05-27T15:30:55Z</time>
      </trkpt>
      <trkpt lat="43.55724" lon="2.18041">
        <ele>233.8</ele>
        <time>2023-05-27T15:30:56Z</time>
      </trkpt>
      <trkpt lat="43.55725" lon="2.18042">
        <ele>233.8</ele>
        <time>2023-05-27T15:30:57Z</time>
      </trkpt>
      <trkpt lat="43.55727" lon="2.18042">
        <ele>234</ele>
        <time>2023-05-27T15:30:58Z</time>
      </trkpt>
      <trkpt lat="43.55728" lon="2.18042">
        <ele>234</ele>
        <time>2023-05-27T15:30:59Z</time>
      </trkpt>
      <trkpt lat="43.55729" lon="2.18042">
        <ele>234.2</ele>
        <time>2023-05-27T15:31:00Z</time>
      </trkpt>
      <trkpt lat="43.55731" lon="2.18042">
        <ele>234.2</ele>
        <time>2023-05-27T15:31:01Z</time>
      </trkpt>
      <trkpt lat="43.55732" lon="2.18042">
        <ele>234.4</ele>
        <time>2023-05-27T15:31:02Z</time>
      </trkpt>
      <trkpt lat="43.55734" lon="2.18042">
        <ele>234.4</ele>
        <time>2023-05-27T15:31:03Z</time>
      </trkpt>
      <trkpt lat="43.55735" lon="2.18042">
        <ele>234.4</ele>
        <time>2023-05-27T15:31:04Z</time>
      </trkpt>
      <trkpt lat="43.55736" lon="2.18042">
        <ele>234.6</ele>
        <time>2023-05-27T15:31:05Z</time>
      </trkpt>
      <trkpt lat="43.55737" lon="2.18041">
        <ele>234.6</ele>
        <time>2023-05-27T15:31:06Z</time>
      </trkpt>
      <trkpt lat="43.55738" lon="2.18041">
        <ele>234.8</ele>
        <time>2023-05-27T15:31:07Z</time>
      </trkpt>
      <trkpt lat="43.5574" lon="2.1804">
        <ele>234.8</ele>
        <time>2023-05-27T15:31:08Z</time>
      </trkpt>
      <trkpt lat="43.55741" lon="2.18039">
        <ele>234.8</ele>
        <time>2023-05-27T15:31:09Z</time>
      </trkpt>
      <trkpt lat="43.55741" lon="2.18039">
        <ele>235</ele>
        <time>2023-05-27T15:31:10Z</time>
      </trkpt>
      <trkpt lat="43.55743" lon="2.18038">
        <ele>235</ele>
        <time>2023-05-27T15:31:11Z</time>
      </trkpt>
      <trkpt lat="43.55743" lon="2.18037">
        <ele>235.2</ele>
        <time>2023-05-27T15:31:12Z</time>
      </trkpt>
      <trkpt lat="43.55744" lon="2.18036">
        <ele>235.2</ele>
        <time>2023-05-27T15:31:13Z</time>
      </trkpt>
      <trkpt lat="43.55745" lon="2.18035">
        <ele>235.2</ele>
        <time>2023-05-27T15:31:14Z</time>
      </trkpt>
      <trkpt lat="43.55746" lon="2.18034">
        <ele>235.4</ele>
        <time>2023-05-27T15:31:15Z</time>
      </trkpt>
      <trkpt lat="43.55747" lon="2.18032">
        <ele>235.4</ele>
        <time>2023-05-27T15:31:16Z</time>
      </trkpt>
      <trkpt lat="43.55747" lon="2.18031">
        <ele>235.4</ele>
        <time>2023-05-27T15:31:17Z</time>
      </trkpt>
      <trkpt lat="43.55748" lon="2.18029">
        <ele>235.4</ele>
        <time>2023-05-27T15:31:18Z</time>
      </trkpt>
      <trkpt lat="43.55749" lon="2.18028">
        <ele>235.6</ele>
        <time>2023-05-27T15:31:19Z</time>
      </trkpt>
      <trkpt lat="43.5575" lon="2.18026">
        <ele>235.6</ele>
        <time>2023-05-27T15:31:20Z</time>
      </trkpt>
      <trkpt lat="43.5575" lon="2.18025">
        <ele>235.6</ele>
        <time>2023-05-27T15:31:21Z</time>
      </trkpt>
      <trkpt lat="43.55751" lon="2.18023">
        <ele>235.8</ele>
        <time>2023-05-27T15:31:22Z</time>
      </trkpt>
      <trkpt lat="43.55752" lon="2.18022">
        <ele>235.8</ele>
        <time>2023-05-27T15:31:23Z</time>
      </trkpt>
      <trkpt lat="43.55752" lon="2.18021">
        <ele>235.8</ele>
        <time>2023-05-27T15:31:24Z</time>
      </trkpt>
      <trkpt lat="43.55752" lon="2.18019">
        <ele>236</ele>
        <time>2023-05-27T15:31:25Z</time>
      </trkpt>
      <trkpt lat="43.55753" lon="2.18017">
        <ele>236</ele>
        <time>2023-05-27T15:31:26Z</time>
      </trkpt>
      <trkpt lat="43.55754" lon="2.18016">
        <ele>236.2</ele>
        <time>2023-05-27T15:31:27Z</time>
      </trkpt>
      <trkpt lat="43.55754" lon="2.18014">
        <ele>236.2</ele>
        <time>2023-05-27T15:31:28Z</time>
      </trkpt>
      <trkpt lat="43.55755" lon="2.18012">
        <ele>236.2</ele>
        <time>2023-05-27T15:31:29Z</time>
      </trkpt>
      <trkpt lat="43.55755" lon="2.18011">
        <ele>236.4</ele>
        <time>2023-05-27T15:31:30Z</time>
      </trkpt>
      <trkpt lat="43.55755" lon="2.18009">
        <ele>236.4</ele>
        <time>2023-05-27T15:31:31Z</time>
      </trkpt>
      <trkpt lat="43.55756" lon="2.18007">
        <ele>236.4</ele>
        <time>2023-05-27T15:31:32Z</time>
      </trkpt>
      <trkpt lat="43.55757" lon="2.18005">
        <ele>236.6</ele>
        <time>2023-05-27T15:31:33Z</time>
      </trkpt>
      <trkpt lat="43.55757" lon="2.18004">
        <ele>236.6</ele>
        <time>2023-05-27T15:31:34Z</time>
      </trkpt>
      <trkpt lat="43.55757" lon="2.18002">
        <ele>236.8</ele>
        <time>2023-05-27T15:31:35Z</time>
      </trkpt>
      <trkpt lat="43.55758" lon="2.18">
        <ele>236.8</ele>
        <time>2023-05-27T15:31:36Z</time>
      </trkpt>
      <trkpt lat="43.55758" lon="2.17999">
        <ele>236.8</ele>
        <time>2023-05-27T15:31:37Z</time>
      </trkpt>
      <trkpt lat="43.55758" lon="2.17997">
        <ele>237</ele>
        <time>2023-05-27T15:31:38Z</time>
      </trkpt>
      <trkpt lat="43.55758" lon="2.17996">
        <ele>237</ele>
        <time>2023-05-27T15:31:39Z</time>
      </trkpt>
      <trkpt lat="43.55759" lon="2.17994">
        <ele>237.2</ele>
        <time>2023-05-27T15:31:40Z</time>
      </trkpt>
      <trkpt lat="43.55759" lon="2.17992">
        <ele>237.2</ele>
        <time>2023-05-27T15:31:41Z</time>
      </trkpt>
      <trkpt lat="43.5576" lon="2.17991">
        <ele>237.2</ele>
        <time>2023-05-27T15:31:42Z</time>
      </trkpt>
      <trkpt lat="43.5576" lon="2.17989">
        <ele>237.4</ele>
        <time>2023-05-27T15:31:43Z</time>
      </trkpt>
      <trkpt lat="43.5576" lon="2.17988">
        <ele>237.4</ele>
        <time>2023-05-27T15:31:44Z</time>
      </trkpt>
      <trkpt lat="43.55761" lon="2.17986">
        <ele>237.6</ele>
        <time>2023-05-27T15:31:45Z</time>
      </trkpt>
      <trkpt lat="43.55761" lon="2.17984">
        <ele>237.6</ele>
        <time>2023-05-27T15:31:46Z</time>
      </trkpt>
      <trkpt lat="43.55761" lon="2.17983">
        <ele>237.6</ele>
        <time>2023-05-27T15:31:47Z</time>
      </trkpt>
      <trkpt lat="43.55761" lon="2.17981">
        <ele>237.8</ele>
        <time>2023-05-27T15:31:48Z</time>
      </trkpt>
      <trkpt lat="43.55762" lon="2.17979">
        <ele>237.8</ele>
        <time>2023-05-27T15:31:49Z</time>
      </trkpt>
      <trkpt lat="43.55762" lon="2.17978">
        <ele>237.8</ele>
        <time>2023-05-27T15:31:50Z</time>
      </trkpt>
      <trkpt lat="43.55763" lon="2.17976">
        <ele>238</ele>
        <time>2023-05-27T15:31:51Z</time>
      </trkpt>
      <trkpt lat="43.55763" lon="2.17975">
        <ele>238</ele>
        <time>2023-05-27T15:31:52Z</time>
      </trkpt>
      <trkpt lat="43.55763" lon="2.17973">
        <ele>238</ele>
        <time>2023-05-27T15:31:53Z</time>
      </trkpt>
      <trkpt lat="43.55763" lon="2.17972">
        <ele>238.2</ele>
        <time>2023-05-27T15:31:54Z</time>
      </trkpt>
      <trkpt lat="43.55763" lon="2.1797">
        <ele>238.2</ele>
        <time>2023-05-27T15:31:55Z</time>
      </trkpt>
      <trkpt lat="43.55764" lon="2.17968">
        <ele>238.2</ele>
        <time>2023-05-27T15:31:56Z</time>
      </trkpt>
      <trkpt lat="43.55764" lon="2.17967">
        <ele>238.4</ele>
        <time>2023-05-27T15:31:57Z</time>
      </trkpt>
      <trkpt lat="43.55765" lon="2.17965">
        <ele>238.4</ele>
        <time>2023-05-27T15:31:58Z</time>
      </trkpt>
      <trkpt lat="43.55765" lon="2.17964">
        <ele>238.6</ele>
        <time>2023-05-27T15:31:59Z</time>
      </trkpt>
      <trkpt lat="43.55765" lon="2.17962">
        <ele>238.6</ele>
        <time>2023-05-27T15:32:00Z</time>
      </trkpt>
      <trkpt lat="43.55766" lon="2.17961">
        <ele>238.6</ele>
        <time>2023-05-27T15:32:01Z</time>
      </trkpt>
      <trkpt lat="43.55766" lon="2.17959">
        <ele>238.8</ele>
        <time>2023-05-27T15:32:02Z</time>
      </trkpt>
      <trkpt lat="43.55767" lon="2.17958">
        <ele>238.8</ele>
        <time>2023-05-27T15:32:03Z</time>
      </trkpt>
      <trkpt lat="43.55767" lon="2.17956">
        <ele>239</ele>
        <time>2023-05-27T15:32:04Z</time>
      </trkpt>
      <trkpt lat="43.55767" lon="2.17955">
        <ele>239</ele>
        <time>2023-05-27T15:32:05Z</time>
      </trkpt>
      <trkpt lat="43.55768" lon="2.17953">
        <ele>239</ele>
        <time>2023-05-27T15:32:06Z</time>
      </trkpt>
      <trkpt lat="43.55768" lon="2.17951">
        <ele>239.2</ele>
        <time>2023-05-27T15:32:07Z</time>
      </trkpt>
      <trkpt lat="43.55769" lon="2.17949">
        <ele>239.2</ele>
        <time>2023-05-27T15:32:08Z</time>
      </trkpt>
      <trkpt lat="43.55769" lon="2.17948">
        <ele>239.2</ele>
        <time>2023-05-27T15:32:09Z</time>
      </trkpt>
      <trkpt lat="43.5577" lon="2.17946">
        <ele>239.4</ele>
        <time>2023-05-27T15:32:10Z</time>
      </trkpt>
      <trkpt lat="43.5577" lon="2.17945">
        <ele>239.4</ele>
        <time>2023-05-27T15:32:11Z</time>
      </trkpt>
      <trkpt lat="43.5577" lon="2.17943">
        <ele>239.6</ele>
        <time>2023-05-27T15:32:12Z</time>
      </trkpt>
      <trkpt lat="43.55771" lon="2.17942">
        <ele>239.6</ele>
        <time>2023-05-27T15:32:13Z</time>
      </trkpt>
      <trkpt lat="43.55772" lon="2.1794">
        <ele>239.6</ele>
        <time>2023-05-27T15:32:14Z</time>
      </trkpt>
      <trkpt lat="43.55772" lon="2.17938">
        <ele>239.8</ele>
        <time>2023-05-27T15:32:15Z</time>
      </trkpt>
      <trkpt lat="43.55773" lon="2.17937">
        <ele>239.8</ele>
        <time>2023-05-27T15:32:16Z</time>
      </trkpt>
      <trkpt lat="43.55773" lon="2.17935">
        <ele>240</ele>
        <time>2023-05-27T15:32:17Z</time>
      </trkpt>
      <trkpt lat="43.55773" lon="2.17934">
        <ele>240</ele>
        <time>2023-05-27T15:32:18Z</time>
      </trkpt>
      <trkpt lat="43.55774" lon="2.17932">
        <ele>240</ele>
        <time>2023-05-27T15:32:19Z</time>
      </trkpt>
      <trkpt lat="43.55774" lon="2.17931">
        <ele>240.2</ele>
        <time>2023-05-27T15:32:20Z</time>
      </trkpt>
      <trkpt lat="43.55775" lon="2.17929">
        <ele>240.2</ele>
        <time>2023-05-27T15:32:21Z</time>
      </trkpt>
      <trkpt lat="43.55776" lon="2.17928">
        <ele>240.4</ele>
        <time>2023-05-27T15:32:22Z</time>
      </trkpt>
      <trkpt lat="43.55776" lon="2.17926">
        <ele>240.4</ele>
        <time>2023-05-27T15:32:23Z</time>
      </trkpt>
      <trkpt lat="43.55777" lon="2.17925">
        <ele>240.4</ele>
        <time>2023-05-27T15:32:24Z</time>
      </trkpt>
      <trkpt lat="43.55777" lon="2.17924">
        <ele>240.6</ele>
        <time>2023-05-27T15:32:25Z</time>
      </trkpt>
      <trkpt lat="43.55778" lon="2.17922">
        <ele>240.6</ele>
        <time>2023-05-27T15:32:26Z</time>
      </trkpt>
      <trkpt lat="43.55779" lon="2.17921">
        <ele>240.8</ele>
        <time>2023-05-27T15:32:27Z</time>
      </trkpt>
      <trkpt lat="43.55779" lon="2.17919">
        <ele>240.8</ele>
        <time>2023-05-27T15:32:28Z</time>
      </trkpt>
      <trkpt lat="43.5578" lon="2.17918">
        <ele>240.8</ele>
        <time>2023-05-27T15:32:29Z</time>
      </trkpt>
      <trkpt lat="43.55781" lon="2.17916">
        <ele>241</ele>
        <time>2023-05-27T15:32:30Z</time>
      </trkpt>
      <trkpt lat="43.55781" lon="2.17915">
        <ele>241</ele>
        <time>2023-05-27T15:32:31Z</time>
      </trkpt>
      <trkpt lat="43.55782" lon="2.17914">
        <ele>241.2</ele>
        <time>2023-05-27T15:32:32Z</time>
      </trkpt>
      <trkpt lat="43.55782" lon="2.17912">
        <ele>241.2</ele>
        <time>2023-05-27T15:32:33Z</time>
      </trkpt>
      <trkpt lat="43.55783" lon="2.17911">
        <ele>241.2</ele>
        <time>2023-05-27T15:32:34Z</time>
      </trkpt>
      <trkpt lat="43.55783" lon="2.17909">
        <ele>241.4</ele>
        <time>2023-05-27T15:32:35Z</time>
      </trkpt>
      <trkpt lat="43.55784" lon="2.17908">
        <ele>241.4</ele>
        <time>2023-05-27T15:32:36Z</time>
      </trkpt>
      <trkpt lat="43.55785" lon="2.17907">
        <ele>241.4</ele>
        <time>2023-05-27T15:32:37Z</time>
      </trkpt>
      <trkpt lat="43.55785" lon="2.17906">
        <ele>241.6</ele>
        <time>2023-05-27T15:32:38Z</time>
      </trkpt>
      <trkpt lat="43.55786" lon="2.17904">
        <ele>241.6</ele>
        <time>2023-05-27T15:32:39Z</time>
      </trkpt>
      <trkpt lat="43.55787" lon="2.17903">
        <ele>241.6</ele>
        <time>2023-05-27T15:32:40Z</time>
      </trkpt>
      <trkpt lat="43.55787" lon="2.17902">
        <ele>241.8</ele>
        <time>2023-05-27T15:32:41Z</time>
      </trkpt>
      <trkpt lat="43.55788" lon="2.179">
        <ele>241.8</ele>
        <time>2023-05-27T15:32:42Z</time>
      </trkpt>
      <trkpt lat="43.55789" lon="2.17899">
        <ele>241.8</ele>
        <time>2023-05-27T15:32:43Z</time>
      </trkpt>
      <trkpt lat="43.55789" lon="2.17898">
        <ele>242</ele>
        <time>2023-05-27T15:32:44Z</time>
      </trkpt>
      <trkpt lat="43.5579" lon="2.17897">
        <ele>242</ele>
        <time>2023-05-27T15:32:45Z</time>
      </trkpt>
      <trkpt lat="43.55791" lon="2.17895">
        <ele>242</ele>
        <time>2023-05-27T15:32:46Z</time>
      </trkpt>
      <trkpt lat="43.55792" lon="2.17894">
        <ele>242.2</ele>
        <time>2023-05-27T15:32:47Z</time>
      </trkpt>
      <trkpt lat="43.55792" lon="2.17893">
        <ele>242.2</ele>
        <time>2023-05-27T15:32:48Z</time>
      </trkpt>
      <trkpt lat="43.55793" lon="2.17892">
        <ele>242.4</ele>
        <time>2023-05-27T15:32:49Z</time>
      </trkpt>
      <trkpt lat="43.55795" lon="2.17891">
        <ele>242.4</ele>
        <time>2023-05-27T15:32:50Z</time>
      </trkpt>
      <trkpt lat="43.55796" lon="2.1789">
        <ele>242.6</ele>
        <time>2023-05-27T15:32:51Z</time>
      </trkpt>
      <trkpt lat="43.55797" lon="2.17889">
        <ele>242.6</ele>
        <time>2023-05-27T15:32:52Z</time>
      </trkpt>
      <trkpt lat="43.55798" lon="2.17888">
        <ele>242.6</ele>
        <time>2023-05-27T15:32:53Z</time>
      </trkpt>
      <trkpt lat="43.55799" lon="2.17887">
        <ele>242.8</ele>
        <time>2023-05-27T15:32:54Z</time>
      </trkpt>
      <trkpt lat="43.55799" lon="2.17886">
        <ele>242.8</ele>
        <time>2023-05-27T15:32:55Z</time>
      </trkpt>
      <trkpt lat="43.558" lon="2.17885">
        <ele>243</ele>
        <time>2023-05-27T15:32:56Z</time>
      </trkpt>
      <trkpt lat="43.55801" lon="2.17884">
        <ele>243</ele>
        <time>2023-05-27T15:32:57Z</time>
      </trkpt>
      <trkpt lat="43.55802" lon="2.17883">
        <ele>243</ele>
        <time>2023-05-27T15:32:58Z</time>
      </trkpt>
      <trkpt lat="43.55803" lon="2.17882">
        <ele>243.2</ele>
        <time>2023-05-27T15:32:59Z</time>
      </trkpt>
      <trkpt lat="43.55804" lon="2.17882">
        <ele>243.2</ele>
        <time>2023-05-27T15:33:00Z</time>
      </trkpt>
      <trkpt lat="43.55806" lon="2.17881">
        <ele>243.4</ele>
        <time>2023-05-27T15:33:01Z</time>
      </trkpt>
      <trkpt lat="43.55807" lon="2.1788">
        <ele>243.4</ele>
        <time>2023-05-27T15:33:02Z</time>
      </trkpt>
      <trkpt lat="43.55808" lon="2.1788">
        <ele>243.4</ele>
        <time>2023-05-27T15:33:03Z</time>
      </trkpt>
      <trkpt lat="43.55809" lon="2.17879">
        <ele>243.6</ele>
        <time>2023-05-27T15:33:04Z</time>
      </trkpt>
      <trkpt lat="43.55811" lon="2.17878">
        <ele>243.6</ele>
        <time>2023-05-27T15:33:05Z</time>
      </trkpt>
      <trkpt lat="43.55812" lon="2.17878">
        <ele>243.8</ele>
        <time>2023-05-27T15:33:06Z</time>
      </trkpt>
      <trkpt lat="43.55813" lon="2.17877">
        <ele>243.8</ele>
        <time>2023-05-27T15:33:07Z</time>
      </trkpt>
      <trkpt lat="43.55814" lon="2.17877">
        <ele>243.8</ele>
        <time>2023-05-27T15:33:08Z</time>
      </trkpt>
      <trkpt lat="43.55815" lon="2.17876">
        <ele>243.8</ele>
        <time>2023-05-27T15:33:09Z</time>
      </trkpt>
      <trkpt lat="43.55816" lon="2.17876">
        <ele>244</ele>
        <time>2023-05-27T15:33:10Z</time>
      </trkpt>
      <trkpt lat="43.55818" lon="2.17875">
        <ele>244</ele>
        <time>2023-05-27T15:33:11Z</time>
      </trkpt>
      <trkpt lat="43.55819" lon="2.17875">
        <ele>244</ele>
        <time>2023-05-27T15:33:12Z</time>
      </trkpt>
      <trkpt lat="43.5582" lon="2.17875">
        <ele>244.2</ele>
        <time>2023-05-27T15:33:13Z</time>
      </trkpt>
      <trkpt lat="43.55821" lon="2.17874">
        <ele>244.2</ele>
        <time>2023-05-27T15:33:14Z</time>
      </trkpt>
      <trkpt lat="43.55822" lon="2.17874">
        <ele>244.2</ele>
        <time>2023-05-27T15:33:15Z</time>
      </trkpt>
      <trkpt lat="43.55824" lon="2.17874">
        <ele>244.4</ele>
        <time>2023-05-27T15:33:16Z</time>
      </trkpt>
      <trkpt lat="43.55825" lon="2.17874">
        <ele>244.4</ele>
        <time>2023-05-27T15:33:17Z</time>
      </trkpt>
      <trkpt lat="43.55826" lon="2.17874">
        <ele>244.4</ele>
        <time>2023-05-27T15:33:18Z</time>
      </trkpt>
      <trkpt lat="43.55827" lon="2.17874">
        <ele>244.6</ele>
        <time>2023-05-27T15:33:19Z</time>
      </trkpt>
      <trkpt lat="43.55829" lon="2.17875">
        <ele>244.6</ele>
        <time>2023-05-27T15:33:20Z</time>
      </trkpt>
      <trkpt lat="43.5583" lon="2.17875">
        <ele>244.6</ele>
        <time>2023-05-27T15:33:21Z</time>
      </trkpt>
      <trkpt lat="43.55831" lon="2.17875">
        <ele>244.8</ele>
        <time>2023-05-27T15:33:22Z</time>
      </trkpt>
      <trkpt lat="43.55832" lon="2.17875">
        <ele>244.8</ele>
        <time>2023-05-27T15:33:23Z</time>
      </trkpt>
      <trkpt lat="43.55833" lon="2.17876">
        <ele>245</ele>
        <time>2023-05-27T15:33:24Z</time>
      </trkpt>
      <trkpt lat="43.55834" lon="2.17876">
        <ele>245</ele>
        <time>2023-05-27T15:33:25Z</time>
      </trkpt>
      <trkpt lat="43.55835" lon="2.17876">
        <ele>245</ele>
        <time>2023-05-27T15:33:26Z</time>
      </trkpt>
      <trkpt lat="43.55836" lon="2.17877">
        <ele>245.2</ele>
        <time>2023-05-27T15:33:27Z</time>
      </trkpt>
      <trkpt lat="43.55838" lon="2.17878">
        <ele>245.2</ele>
        <time>2023-05-27T15:33:28Z</time>
      </trkpt>
      <trkpt lat="43.55838" lon="2.17878">
        <ele>245.4</ele>
        <time>2023-05-27T15:33:29Z</time>
      </trkpt>
      <trkpt lat="43.55839" lon="2.17879">
        <ele>245.4</ele>
        <time>2023-05-27T15:33:30Z</time>
      </trkpt>
      <trkpt lat="43.55841" lon="2.1788">
        <ele>245.6</ele>
        <time>2023-05-27T15:33:31Z</time>
      </trkpt>
      <trkpt lat="43.55842" lon="2.1788">
        <ele>245.6</ele>
        <time>2023-05-27T15:33:32Z</time>
      </trkpt>
      <trkpt lat="43.55842" lon="2.17881">
        <ele>245.8</ele>
        <time>2023-05-27T15:33:33Z</time>
      </trkpt>
      <trkpt lat="43.55843" lon="2.17881">
        <ele>245.8</ele>
        <time>2023-05-27T15:33:34Z</time>
      </trkpt>
      <trkpt lat="43.55845" lon="2.17881">
        <ele>245.8</ele>
        <time>2023-05-27T15:33:35Z</time>
      </trkpt>
      <trkpt lat="43.55846" lon="2.17881">
        <ele>246</ele>
        <time>2023-05-27T15:33:36Z</time>
      </trkpt>
      <trkpt lat="43.55848" lon="2.17881">
        <ele>246</ele>
        <time>2023-05-27T15:33:37Z</time>
      </trkpt>
      <trkpt lat="43.55849" lon="2.17882">
        <ele>246</ele>
        <time>2023-05-27T15:33:38Z</time>
      </trkpt>
      <trkpt lat="43.5585" lon="2.17883">
        <ele>246.2</ele>
        <time>2023-05-27T15:33:39Z</time>
      </trkpt>
      <trkpt lat="43.55851" lon="2.17883">
        <ele>246.2</ele>
        <time>2023-05-27T15:33:40Z</time>
      </trkpt>
      <trkpt lat="43.55853" lon="2.17884">
        <ele>246.2</ele>
        <time>2023-05-27T15:33:41Z</time>
      </trkpt>
      <trkpt lat="43.55854" lon="2.17884">
        <ele>246.2</ele>
        <time>2023-05-27T15:33:42Z</time>
      </trkpt>
      <trkpt lat="43.55856" lon="2.17885">
        <ele>246.4</ele>
        <time>2023-05-27T15:33:43Z</time>
      </trkpt>
      <trkpt lat="43.55857" lon="2.17886">
        <ele>246.4</ele>
        <time>2023-05-27T15:33:44Z</time>
      </trkpt>
      <trkpt lat="43.55858" lon="2.17887">
        <ele>246.4</ele>
        <time>2023-05-27T15:33:45Z</time>
      </trkpt>
      <trkpt lat="43.55858" lon="2.17888">
        <ele>246.4</ele>
        <time>2023-05-27T15:33:46Z</time>
      </trkpt>
      <trkpt lat="43.5586" lon="2.17889">
        <ele>246.4</ele>
        <time>2023-05-27T15:33:47Z</time>
      </trkpt>
      <trkpt lat="43.55861" lon="2.1789">
        <ele>246.6</ele>
        <time>2023-05-27T15:33:48Z</time>
      </trkpt>
      <trkpt lat="43.55862" lon="2.17891">
        <ele>246.6</ele>
        <time>2023-05-27T15:33:49Z</time>
      </trkpt>
      <trkpt lat="43.55863" lon="2.17892">
        <ele>246.6</ele>
        <time>2023-05-27T15:33:50Z</time>
      </trkpt>
      <trkpt lat="43.55864" lon="2.17894">
        <ele>246.6</ele>
        <time>2023-05-27T15:33:51Z</time>
      </trkpt>
      <trkpt lat="43.55865" lon="2.17895">
        <ele>246.6</ele>
        <time>2023-05-27T15:33:52Z</time>
      </trkpt>
      <trkpt lat="43.55866" lon="2.17897">
        <ele>246.6</ele>
        <time>2023-05-27T15:33:53Z</time>
      </trkpt>
      <trkpt lat="43.55867" lon="2.17898">
        <ele>246.8</ele>
        <time>2023-05-27T15:33:54Z</time>
      </trkpt>
      <trkpt lat="43.55868" lon="2.17899">
        <ele>246.8</ele>
        <time>2023-05-27T15:33:55Z</time>
      </trkpt>
      <trkpt lat="43.55869" lon="2.179">
        <ele>246.8</ele>
        <time>2023-05-27T15:33:56Z</time>
      </trkpt>
      <trkpt lat="43.5587" lon="2.17901">
        <ele>246.8</ele>
        <time>2023-05-27T15:33:57Z</time>
      </trkpt>
      <trkpt lat="43.55871" lon="2.17902">
        <ele>246.8</ele>
        <time>2023-05-27T15:33:58Z</time>
      </trkpt>
      <trkpt lat="43.55871" lon="2.17904">
        <ele>246.8</ele>
        <time>2023-05-27T15:33:59Z</time>
      </trkpt>
      <trkpt lat="43.55872" lon="2.17905">
        <ele>246.8</ele>
        <time>2023-05-27T15:34:00Z</time>
      </trkpt>
      <trkpt lat="43.55873" lon="2.17906">
        <ele>246.8</ele>
        <time>2023-05-27T15:34:01Z</time>
      </trkpt>
      <trkpt lat="43.55874" lon="2.17907">
        <ele>247</ele>
        <time>2023-05-27T15:34:02Z</time>
      </trkpt>
      <trkpt lat="43.55875" lon="2.17908">
        <ele>247</ele>
        <time>2023-05-27T15:34:03Z</time>
      </trkpt>
      <trkpt lat="43.55875" lon="2.17909">
        <ele>247</ele>
        <time>2023-05-27T15:34:04Z</time>
      </trkpt>
      <trkpt lat="43.55877" lon="2.1791">
        <ele>247</ele>
        <time>2023-05-27T15:34:05Z</time>
      </trkpt>
      <trkpt lat="43.55878" lon="2.1791">
        <ele>247</ele>
        <time>2023-05-27T15:34:06Z</time>
      </trkpt>
      <trkpt lat="43.55879" lon="2.1791">
        <ele>247</ele>
        <time>2023-05-27T15:34:07Z</time>
      </trkpt>
      <trkpt lat="43.55879" lon="2.17909">
        <ele>247</ele>
        <time>2023-05-27T15:34:08Z</time>
      </trkpt>
      <trkpt lat="43.5588" lon="2.17909">
        <ele>247</ele>
        <time>2023-05-27T15:34:09Z</time>
      </trkpt>
      <trkpt lat="43.55883" lon="2.17924">
        <ele>247</ele>
        <time>2023-05-27T15:38:49Z</time>
      </trkpt>
      <trkpt lat="43.55884" lon="2.17926">
        <ele>247</ele>
        <time>2023-05-27T15:38:50Z</time>
      </trkpt>
      <trkpt lat="43.55885" lon="2.17928">
        <ele>247.2</ele>
        <time>2023-05-27T15:38:51Z</time>
      </trkpt>
      <trkpt lat="43.55886" lon="2.17931">
        <ele>247.2</ele>
        <time>2023-05-27T15:38:52Z</time>
      </trkpt>
      <trkpt lat="43.55887" lon="2.17933">
        <ele>247.2</ele>
        <time>2023-05-27T15:38:53Z</time>
      </trkpt>
      <trkpt lat="43.55888" lon="2.17936">
        <ele>247.2</ele>
        <time>2023-05-27T15:38:54Z</time>
      </trkpt>
      <trkpt lat="43.55889" lon="2.17939">
        <ele>247.2</ele>
        <time>2023-05-27T15:38:55Z</time>
      </trkpt>
      <trkpt lat="43.55891" lon="2.17943">
        <ele>247.2</ele>
        <time>2023-05-27T15:38:56Z</time>
      </trkpt>
      <trkpt lat="43.55892" lon="2.17946">
        <ele>247</ele>
        <time>2023-05-27T15:38:57Z</time>
      </trkpt>
      <trkpt lat="43.55894" lon="2.1795">
        <ele>247</ele>
        <time>2023-05-27T15:38:58Z</time>
      </trkpt>
      <trkpt lat="43.55896" lon="2.17953">
        <ele>247</ele>
        <time>2023-05-27T15:38:59Z</time>
      </trkpt>
      <trkpt lat="43.55898" lon="2.17957">
        <ele>247</ele>
        <time>2023-05-27T15:39:00Z</time>
      </trkpt>
      <trkpt lat="43.55901" lon="2.17961">
        <ele>247</ele>
        <time>2023-05-27T15:39:01Z</time>
      </trkpt>
      <trkpt lat="43.55903" lon="2.17966">
        <ele>246.8</ele>
        <time>2023-05-27T15:39:02Z</time>
      </trkpt>
      <trkpt lat="43.55906" lon="2.17971">
        <ele>246.8</ele>
        <time>2023-05-27T15:39:03Z</time>
      </trkpt>
      <trkpt lat="43.55909" lon="2.17976">
        <ele>246.6</ele>
        <time>2023-05-27T15:39:04Z</time>
      </trkpt>
      <trkpt lat="43.55911" lon="2.17981">
        <ele>246.6</ele>
        <time>2023-05-27T15:39:05Z</time>
      </trkpt>
      <trkpt lat="43.55915" lon="2.17986">
        <ele>246.4</ele>
        <time>2023-05-27T15:39:06Z</time>
      </trkpt>
      <trkpt lat="43.55918" lon="2.17991">
        <ele>246.4</ele>
        <time>2023-05-27T15:39:07Z</time>
      </trkpt>
      <trkpt lat="43.55921" lon="2.17995">
        <ele>246.4</ele>
        <time>2023-05-27T15:39:08Z</time>
      </trkpt>
      <trkpt lat="43.55925" lon="2.17999">
        <ele>246.4</ele>
        <time>2023-05-27T15:39:09Z</time>
      </trkpt>
      <trkpt lat="43.55929" lon="2.18002">
        <ele>246.4</ele>
        <time>2023-05-27T15:39:10Z</time>
      </trkpt>
      <trkpt lat="43.55933" lon="2.18004">
        <ele>246.4</ele>
        <time>2023-05-27T15:39:11Z</time>
      </trkpt>
      <trkpt lat="43.55937" lon="2.18005">
        <ele>246.4</ele>
        <time>2023-05-27T15:39:12Z</time>
      </trkpt>
      <trkpt lat="43.55941" lon="2.18006">
        <ele>246.4</ele>
        <time>2023-05-27T15:39:13Z</time>
      </trkpt>
      <trkpt lat="43.55945" lon="2.18008">
        <ele>246.6</ele>
        <time>2023-05-27T15:39:14Z</time>
      </trkpt>
      <trkpt lat="43.5595" lon="2.18009">
        <ele>246.6</ele>
        <time>2023-05-27T15:39:15Z</time>
      </trkpt>
      <trkpt lat="43.55953" lon="2.1801">
        <ele>246.6</ele>
        <time>2023-05-27T15:39:16Z</time>
      </trkpt>
      <trkpt lat="43.55957" lon="2.18011">
        <ele>246.8</ele>
        <time>2023-05-27T15:39:17Z</time>
      </trkpt>
      <trkpt lat="43.55961" lon="2.18012">
        <ele>246.8</ele>
        <time>2023-05-27T15:39:18Z</time>
      </trkpt>
      <trkpt lat="43.55964" lon="2.18013">
        <ele>246.8</ele>
        <time>2023-05-27T15:39:19Z</time>
      </trkpt>
      <trkpt lat="43.55967" lon="2.18014">
        <ele>247</ele>
        <time>2023-05-27T15:39:20Z</time>
      </trkpt>
      <trkpt lat="43.55971" lon="2.18015">
        <ele>247</ele>
        <time>2023-05-27T15:39:21Z</time>
      </trkpt>
      <trkpt lat="43.55974" lon="2.18016">
        <ele>247.2</ele>
        <time>2023-05-27T15:39:22Z</time>
      </trkpt>
      <trkpt lat="43.55976" lon="2.18017">
        <ele>247.2</ele>
        <time>2023-05-27T15:39:23Z</time>
      </trkpt>
      <trkpt lat="43.5598" lon="2.18017">
        <ele>247.4</ele>
        <time>2023-05-27T15:39:24Z</time>
      </trkpt>
      <trkpt lat="43.55982" lon="2.18018">
        <ele>247.6</ele>
        <time>2023-05-27T15:39:25Z</time>
      </trkpt>
      <trkpt lat="43.55985" lon="2.18019">
        <ele>247.6</ele>
        <time>2023-05-27T15:39:26Z</time>
      </trkpt>
      <trkpt lat="43.55988" lon="2.18021">
        <ele>247.8</ele>
        <time>2023-05-27T15:39:27Z</time>
      </trkpt>
      <trkpt lat="43.55992" lon="2.18022">
        <ele>247.8</ele>
        <time>2023-05-27T15:39:28Z</time>
      </trkpt>
      <trkpt lat="43.55995" lon="2.18023">
        <ele>248</ele>
        <time>2023-05-27T15:39:29Z</time>
      </trkpt>
      <trkpt lat="43.55998" lon="2.18024">
        <ele>248</ele>
        <time>2023-05-27T15:39:30Z</time>
      </trkpt>
      <trkpt lat="43.56002" lon="2.18025">
        <ele>248.2</ele>
        <time>2023-05-27T15:39:31Z</time>
      </trkpt>
      <trkpt lat="43.56005" lon="2.18027">
        <ele>248.2</ele>
        <time>2023-05-27T15:39:32Z</time>
      </trkpt>
      <trkpt lat="43.56008" lon="2.18028">
        <ele>248.4</ele>
        <time>2023-05-27T15:39:33Z</time>
      </trkpt>
      <trkpt lat="43.56011" lon="2.1803">
        <ele>248.4</ele>
        <time>2023-05-27T15:39:34Z</time>
      </trkpt>
      <trkpt lat="43.56013" lon="2.18031">
        <ele>248.6</ele>
        <time>2023-05-27T15:39:35Z</time>
      </trkpt>
      <trkpt lat="43.56016" lon="2.18032">
        <ele>248.6</ele>
        <time>2023-05-27T15:39:36Z</time>
      </trkpt>
      <trkpt lat="43.5602" lon="2.18033">
        <ele>248.8</ele>
        <time>2023-05-27T15:39:37Z</time>
      </trkpt>
      <trkpt lat="43.56023" lon="2.18035">
        <ele>248.8</ele>
        <time>2023-05-27T15:39:38Z</time>
      </trkpt>
      <trkpt lat="43.56026" lon="2.18036">
        <ele>248.8</ele>
        <time>2023-05-27T15:39:39Z</time>
      </trkpt>
      <trkpt lat="43.56029" lon="2.18038">
        <ele>248.8</ele>
        <time>2023-05-27T15:39:40Z</time>
      </trkpt>
      <trkpt lat="43.56032" lon="2.18039">
        <ele>249</ele>
        <time>2023-05-27T15:39:41Z</time>
      </trkpt>
      <trkpt lat="43.56035" lon="2.18041">
        <ele>249</ele>
        <time>2023-05-27T15:39:42Z</time>
      </trkpt>
      <trkpt lat="43.56039" lon="2.18043">
        <ele>249</ele>
        <time>2023-05-27T15:39:43Z</time>
      </trkpt>
      <trkpt lat="43.56042" lon="2.18045">
        <ele>249.2</ele>
        <time>2023-05-27T15:39:44Z</time>
      </trkpt>
      <trkpt lat="43.56045" lon="2.18046">
        <ele>249.2</ele>
        <time>2023-05-27T15:39:45Z</time>
      </trkpt>
      <trkpt lat="43.56048" lon="2.18048">
        <ele>249.2</ele>
        <time>2023-05-27T15:39:46Z</time>
      </trkpt>
      <trkpt lat="43.56051" lon="2.1805">
        <ele>249.2</ele>
        <time>2023-05-27T15:39:47Z</time>
      </trkpt>
      <trkpt lat="43.56054" lon="2.18052">
        <ele>249.4</ele>
        <time>2023-05-27T15:39:48Z</time>
      </trkpt>
      <trkpt lat="43.56057" lon="2.18055">
        <ele>249.4</ele>
        <time>2023-05-27T15:39:49Z</time>
      </trkpt>
      <trkpt lat="43.56061" lon="2.18057">
        <ele>249.4</ele>
        <time>2023-05-27T15:39:50Z</time>
      </trkpt>
      <trkpt lat="43.56064" lon="2.1806">
        <ele>249.4</ele>
        <time>2023-05-27T15:39:51Z</time>
      </trkpt>
      <trkpt lat="43.56067" lon="2.18062">
        <ele>249.4</ele>
        <time>2023-05-27T15:39:52Z</time>
      </trkpt>
      <trkpt lat="43.5607" lon="2.18064">
        <ele>249.4</ele>
        <time>2023-05-27T15:39:53Z</time>
      </trkpt>
      <trkpt lat="43.56074" lon="2.18067">
        <ele>249.4</ele>
        <time>2023-05-27T15:39:54Z</time>
      </trkpt>
      <trkpt lat="43.56077" lon="2.18069">
        <ele>249.6</ele>
        <time>2023-05-27T15:39:55Z</time>
      </trkpt>
      <trkpt lat="43.5608" lon="2.18071">
        <ele>249.6</ele>
        <time>2023-05-27T15:39:56Z</time>
      </trkpt>
      <trkpt lat="43.56083" lon="2.18073">
        <ele>249.6</ele>
        <time>2023-05-27T15:39:57Z</time>
      </trkpt>
      <trkpt lat="43.56086" lon="2.18076">
        <ele>249.6</ele>
        <time>2023-05-27T15:39:58Z</time>
      </trkpt>
      <trkpt lat="43.56089" lon="2.18078">
        <ele>249.6</ele>
        <time>2023-05-27T15:39:59Z</time>
      </trkpt>
      <trkpt lat="43.56092" lon="2.1808">
        <ele>249.6</ele>
        <time>2023-05-27T15:40:00Z</time>
      </trkpt>
      <trkpt lat="43.56095" lon="2.18082">
        <ele>249.6</ele>
        <time>2023-05-27T15:40:01Z</time>
      </trkpt>
      <trkpt lat="43.56098" lon="2.18084">
        <ele>249.6</ele>
        <time>2023-05-27T15:40:02Z</time>
      </trkpt>
      <trkpt lat="43.56101" lon="2.18087">
        <ele>249.6</ele>
        <time>2023-05-27T15:40:03Z</time>
      </trkpt>
      <trkpt lat="43.56104" lon="2.18089">
        <ele>249.6</ele>
        <time>2023-05-27T15:40:04Z</time>
      </trkpt>
      <trkpt lat="43.56107" lon="2.18091">
        <ele>249.6</ele>
        <time>2023-05-27T15:40:05Z</time>
      </trkpt>
      <trkpt lat="43.5611" lon="2.18093">
        <ele>249.6</ele>
        <time>2023-05-27T15:40:06Z</time>
      </trkpt>
      <trkpt lat="43.56114" lon="2.18095">
        <ele>249.6</ele>
        <time>2023-05-27T15:40:07Z</time>
      </trkpt>
      <trkpt lat="43.56117" lon="2.18097">
        <ele>249.6</ele>
        <time>2023-05-27T15:40:08Z</time>
      </trkpt>
      <trkpt lat="43.5612" lon="2.18098">
        <ele>249.6</ele>
        <time>2023-05-27T15:40:09Z</time>
      </trkpt>
      <trkpt lat="43.56123" lon="2.181">
        <ele>249.6</ele>
        <time>2023-05-27T15:40:10Z</time>
      </trkpt>
      <trkpt lat="43.56126" lon="2.18102">
        <ele>249.8</ele>
        <time>2023-05-27T15:40:11Z</time>
      </trkpt>
      <trkpt lat="43.5613" lon="2.18103">
        <ele>249.8</ele>
        <time>2023-05-27T15:40:12Z</time>
      </trkpt>
      <trkpt lat="43.56134" lon="2.18105">
        <ele>249.8</ele>
        <time>2023-05-27T15:40:13Z</time>
      </trkpt>
      <trkpt lat="43.56137" lon="2.18107">
        <ele>249.8</ele>
        <time>2023-05-27T15:40:14Z</time>
      </trkpt>
      <trkpt lat="43.56141" lon="2.18108">
        <ele>249.8</ele>
        <time>2023-05-27T15:40:15Z</time>
      </trkpt>
      <trkpt lat="43.56144" lon="2.1811">
        <ele>249.8</ele>
        <time>2023-05-27T15:40:16Z</time>
      </trkpt>
      <trkpt lat="43.56148" lon="2.18112">
        <ele>249.8</ele>
        <time>2023-05-27T15:40:17Z</time>
      </trkpt>
      <trkpt lat="43.56151" lon="2.18113">
        <ele>249.8</ele>
        <time>2023-05-27T15:40:18Z</time>
      </trkpt>
      <trkpt lat="43.56154" lon="2.18115">
        <ele>249.8</ele>
        <time>2023-05-27T15:40:19Z</time>
      </trkpt>
      <trkpt lat="43.56159" lon="2.18117">
        <ele>249.8</ele>
        <time>2023-05-27T15:40:20Z</time>
      </trkpt>
      <trkpt lat="43.56162" lon="2.18119">
        <ele>249.8</ele>
        <time>2023-05-27T15:40:21Z</time>
      </trkpt>
      <trkpt lat="43.56166" lon="2.18121">
        <ele>249.8</ele>
        <time>2023-05-27T15:40:22Z</time>
      </trkpt>
      <trkpt lat="43.56169" lon="2.18122">
        <ele>249.8</ele>
        <time>2023-05-27T15:40:23Z</time>
      </trkpt>
      <trkpt lat="43.56172" lon="2.18124">
        <ele>249.8</ele>
        <time>2023-05-27T15:40:24Z</time>
      </trkpt>
      <trkpt lat="43.56176" lon="2.18126">
        <ele>249.8</ele>
        <time>2023-05-27T15:40:25Z</time>
      </trkpt>
      <trkpt lat="43.5618" lon="2.18128">
        <ele>249.8</ele>
        <time>2023-05-27T15:40:26Z</time>
      </trkpt>
      <trkpt lat="43.56183" lon="2.18131">
        <ele>249.8</ele>
        <time>2023-05-27T15:40:27Z</time>
      </trkpt>
      <trkpt lat="43.56187" lon="2.18133">
        <ele>249.8</ele>
        <time>2023-05-27T15:40:28Z</time>
      </trkpt>
      <trkpt lat="43.5619" lon="2.18135">
        <ele>249.8</ele>
        <time>2023-05-27T15:40:29Z</time>
      </trkpt>
      <trkpt lat="43.56194" lon="2.18137">
        <ele>250</ele>
        <time>2023-05-27T15:40:30Z</time>
      </trkpt>
      <trkpt lat="43.56197" lon="2.1814">
        <ele>250</ele>
        <time>2023-05-27T15:40:31Z</time>
      </trkpt>
      <trkpt lat="43.562" lon="2.18142">
        <ele>250</ele>
        <time>2023-05-27T15:40:32Z</time>
      </trkpt>
      <trkpt lat="43.56204" lon="2.18145">
        <ele>250</ele>
        <time>2023-05-27T15:40:33Z</time>
      </trkpt>
      <trkpt lat="43.56207" lon="2.18147">
        <ele>250</ele>
        <time>2023-05-27T15:40:34Z</time>
      </trkpt>
      <trkpt lat="43.56211" lon="2.1815">
        <ele>250</ele>
        <time>2023-05-27T15:40:35Z</time>
      </trkpt>
      <trkpt lat="43.56214" lon="2.18152">
        <ele>250</ele>
        <time>2023-05-27T15:40:36Z</time>
      </trkpt>
      <trkpt lat="43.56218" lon="2.18154">
        <ele>250</ele>
        <time>2023-05-27T15:40:37Z</time>
      </trkpt>
      <trkpt lat="43.56221" lon="2.18156">
        <ele>250.2</ele>
        <time>2023-05-27T15:40:38Z</time>
      </trkpt>
      <trkpt lat="43.56224" lon="2.18158">
        <ele>250.2</ele>
        <time>2023-05-27T15:40:39Z</time>
      </trkpt>
      <trkpt lat="43.56227" lon="2.1816">
        <ele>250.2</ele>
        <time>2023-05-27T15:40:40Z</time>
      </trkpt>
      <trkpt lat="43.5623" lon="2.18163">
        <ele>250.2</ele>
        <time>2023-05-27T15:40:41Z</time>
      </trkpt>
      <trkpt lat="43.56234" lon="2.18165">
        <ele>250.2</ele>
        <time>2023-05-27T15:40:42Z</time>
      </trkpt>
      <trkpt lat="43.56237" lon="2.18167">
        <ele>250.2</ele>
        <time>2023-05-27T15:40:43Z</time>
      </trkpt>
      <trkpt lat="43.56241" lon="2.18169">
        <ele>250.2</ele>
        <time>2023-05-27T15:40:44Z</time>
      </trkpt>
      <trkpt lat="43.56244" lon="2.18171">
        <ele>250.2</ele>
        <time>2023-05-27T15:40:45Z</time>
      </trkpt>
      <trkpt lat="43.56247" lon="2.18174">
        <ele>250.4</ele>
        <time>2023-05-27T15:40:46Z</time>
      </trkpt>
      <trkpt lat="43.56251" lon="2.18176">
        <ele>250.4</ele>
        <time>2023-05-27T15:40:47Z</time>
      </trkpt>
      <trkpt lat="43.56254" lon="2.18178">
        <ele>250.4</ele>
        <time>2023-05-27T15:40:48Z</time>
      </trkpt>
      <trkpt lat="43.56257" lon="2.1818">
        <ele>250.4</ele>
        <time>2023-05-27T15:40:49Z</time>
      </trkpt>
      <trkpt lat="43.56261" lon="2.18182">
        <ele>250.4</ele>
        <time>2023-05-27T15:40:50Z</time>
      </trkpt>
      <trkpt lat="43.56264" lon="2.18184">
        <ele>250.4</ele>
        <time>2023-05-27T15:40:51Z</time>
      </trkpt>
      <trkpt lat="43.56268" lon="2.18185">
        <ele>250.4</ele>
        <time>2023-05-27T15:40:52Z</time>
      </trkpt>
      <trkpt lat="43.56271" lon="2.18187">
        <ele>250.6</ele>
        <time>2023-05-27T15:40:53Z</time>
      </trkpt>
      <trkpt lat="43.56274" lon="2.18188">
        <ele>250.6</ele>
        <time>2023-05-27T15:40:54Z</time>
      </trkpt>
      <trkpt lat="43.56278" lon="2.1819">
        <ele>250.6</ele>
        <time>2023-05-27T15:40:55Z</time>
      </trkpt>
      <trkpt lat="43.56281" lon="2.18191">
        <ele>250.6</ele>
        <time>2023-05-27T15:40:56Z</time>
      </trkpt>
      <trkpt lat="43.56285" lon="2.18192">
        <ele>250.6</ele>
        <time>2023-05-27T15:40:57Z</time>
      </trkpt>
      <trkpt lat="43.56288" lon="2.18193">
        <ele>250.6</ele>
        <time>2023-05-27T15:40:58Z</time>
      </trkpt>
      <trkpt lat="43.56292" lon="2.18194">
        <ele>250.6</ele>
        <time>2023-05-27T15:40:59Z</time>
      </trkpt>
      <trkpt lat="43.56296" lon="2.18195">
        <ele>250.6</ele>
        <time>2023-05-27T15:41:00Z</time>
      </trkpt>
      <trkpt lat="43.563" lon="2.18195">
        <ele>250.6</ele>
        <time>2023-05-27T15:41:01Z</time>
      </trkpt>
      <trkpt lat="43.56304" lon="2.18195">
        <ele>250.6</ele>
        <time>2023-05-27T15:41:02Z</time>
      </trkpt>
      <trkpt lat="43.56308" lon="2.18195">
        <ele>250.6</ele>
        <time>2023-05-27T15:41:03Z</time>
      </trkpt>
      <trkpt lat="43.56311" lon="2.18196">
        <ele>250.6</ele>
        <time>2023-05-27T15:41:04Z</time>
      </trkpt>
      <trkpt lat="43.56315" lon="2.18196">
        <ele>250.6</ele>
        <time>2023-05-27T15:41:05Z</time>
      </trkpt>
      <trkpt lat="43.56319" lon="2.18196">
        <ele>250.6</ele>
        <time>2023-05-27T15:41:06Z</time>
      </trkpt>
      <trkpt lat="43.56323" lon="2.18197">
        <ele>250.6</ele>
        <time>2023-05-27T15:41:07Z</time>
      </trkpt>
      <trkpt lat="43.56326" lon="2.18196">
        <ele>250.6</ele>
        <time>2023-05-27T15:41:08Z</time>
      </trkpt>
      <trkpt lat="43.5633" lon="2.18196">
        <ele>250.6</ele>
        <time>2023-05-27T15:41:09Z</time>
      </trkpt>
      <trkpt lat="43.56334" lon="2.18196">
        <ele>250.6</ele>
        <time>2023-05-27T15:41:10Z</time>
      </trkpt>
      <trkpt lat="43.56338" lon="2.18196">
        <ele>250.6</ele>
        <time>2023-05-27T15:41:11Z</time>
      </trkpt>
      <trkpt lat="43.56342" lon="2.18196">
        <ele>250.6</ele>
        <time>2023-05-27T15:41:12Z</time>
      </trkpt>
      <trkpt lat="43.56345" lon="2.18195">
        <ele>250.4</ele>
        <time>2023-05-27T15:41:13Z</time>
      </trkpt>
      <trkpt lat="43.56349" lon="2.18195">
        <ele>250.4</ele>
        <time>2023-05-27T15:41:14Z</time>
      </trkpt>
      <trkpt lat="43.56353" lon="2.18195">
        <ele>250.4</ele>
        <time>2023-05-27T15:41:15Z</time>
      </trkpt>
      <trkpt lat="43.56357" lon="2.18195">
        <ele>250.4</ele>
        <time>2023-05-27T15:41:16Z</time>
      </trkpt>
      <trkpt lat="43.56362" lon="2.18194">
        <ele>250.2</ele>
        <time>2023-05-27T15:41:17Z</time>
      </trkpt>
      <trkpt lat="43.56366" lon="2.18194">
        <ele>250.2</ele>
        <time>2023-05-27T15:41:18Z</time>
      </trkpt>
      <trkpt lat="43.5637" lon="2.18194">
        <ele>250.2</ele>
        <time>2023-05-27T15:41:19Z</time>
      </trkpt>
      <trkpt lat="43.56374" lon="2.18194">
        <ele>250.2</ele>
        <time>2023-05-27T15:41:20Z</time>
      </trkpt>
      <trkpt lat="43.56378" lon="2.18193">
        <ele>250</ele>
        <time>2023-05-27T15:41:21Z</time>
      </trkpt>
      <trkpt lat="43.56383" lon="2.18193">
        <ele>250</ele>
        <time>2023-05-27T15:41:22Z</time>
      </trkpt>
      <trkpt lat="43.56388" lon="2.18192">
        <ele>250</ele>
        <time>2023-05-27T15:41:23Z</time>
      </trkpt>
      <trkpt lat="43.56392" lon="2.18192">
        <ele>249.8</ele>
        <time>2023-05-27T15:41:24Z</time>
      </trkpt>
      <trkpt lat="43.56396" lon="2.18192">
        <ele>249.8</ele>
        <time>2023-05-27T15:41:25Z</time>
      </trkpt>
      <trkpt lat="43.56402" lon="2.18192">
        <ele>249.6</ele>
        <time>2023-05-27T15:41:26Z</time>
      </trkpt>
      <trkpt lat="43.56407" lon="2.18191">
        <ele>249.4</ele>
        <time>2023-05-27T15:41:27Z</time>
      </trkpt>
      <trkpt lat="43.56412" lon="2.18191">
        <ele>249.4</ele>
        <time>2023-05-27T15:41:28Z</time>
      </trkpt>
      <trkpt lat="43.56417" lon="2.1819">
        <ele>249.2</ele>
        <time>2023-05-27T15:41:29Z</time>
      </trkpt>
      <trkpt lat="43.56423" lon="2.1819">
        <ele>249</ele>
        <time>2023-05-27T15:41:30Z</time>
      </trkpt>
      <trkpt lat="43.56428" lon="2.1819">
        <ele>248.8</ele>
        <time>2023-05-27T15:41:31Z</time>
      </trkpt>
      <trkpt lat="43.56434" lon="2.18189">
        <ele>248.6</ele>
        <time>2023-05-27T15:41:32Z</time>
      </trkpt>
      <trkpt lat="43.5644" lon="2.18189">
        <ele>248.4</ele>
        <time>2023-05-27T15:41:33Z</time>
      </trkpt>
      <trkpt lat="43.56446" lon="2.18189">
        <ele>248.2</ele>
        <time>2023-05-27T15:41:34Z</time>
      </trkpt>
      <trkpt lat="43.56454" lon="2.18188">
        <ele>247.8</ele>
        <time>2023-05-27T15:41:35Z</time>
      </trkpt>
      <trkpt lat="43.5646" lon="2.18188">
        <ele>247.6</ele>
        <time>2023-05-27T15:41:36Z</time>
      </trkpt>
      <trkpt lat="43.56467" lon="2.18187">
        <ele>247.6</ele>
        <time>2023-05-27T15:41:37Z</time>
      </trkpt>
      <trkpt lat="43.56474" lon="2.18187">
        <ele>247.4</ele>
        <time>2023-05-27T15:41:38Z</time>
      </trkpt>
      <trkpt lat="43.5648" lon="2.18186">
        <ele>247.2</ele>
        <time>2023-05-27T15:41:39Z</time>
      </trkpt>
      <trkpt lat="43.56487" lon="2.18186">
        <ele>247.2</ele>
        <time>2023-05-27T15:41:40Z</time>
      </trkpt>
      <trkpt lat="43.56492" lon="2.18186">
        <ele>247</ele>
        <time>2023-05-27T15:41:41Z</time>
      </trkpt>
      <trkpt lat="43.56497" lon="2.18186">
        <ele>247</ele>
        <time>2023-05-27T15:41:42Z</time>
      </trkpt>
      <trkpt lat="43.56504" lon="2.18186">
        <ele>247</ele>
        <time>2023-05-27T15:41:43Z</time>
      </trkpt>
      <trkpt lat="43.56509" lon="2.18187">
        <ele>247</ele>
        <time>2023-05-27T15:41:44Z</time>
      </trkpt>
      <trkpt lat="43.56514" lon="2.18187">
        <ele>247.2</ele>
        <time>2023-05-27T15:41:45Z</time>
      </trkpt>
      <trkpt lat="43.56518" lon="2.18188">
        <ele>247.2</ele>
        <time>2023-05-27T15:41:46Z</time>
      </trkpt>
      <trkpt lat="43.56522" lon="2.18189">
        <ele>247.4</ele>
        <time>2023-05-27T15:41:47Z</time>
      </trkpt>
      <trkpt lat="43.56526" lon="2.1819">
        <ele>247.4</ele>
        <time>2023-05-27T15:41:48Z</time>
      </trkpt>
      <trkpt lat="43.5653" lon="2.1819">
        <ele>247.6</ele>
        <time>2023-05-27T15:41:49Z</time>
      </trkpt>
      <trkpt lat="43.56534" lon="2.1819">
        <ele>247.8</ele>
        <time>2023-05-27T15:41:50Z</time>
      </trkpt>
      <trkpt lat="43.56537" lon="2.1819">
        <ele>247.8</ele>
        <time>2023-05-27T15:41:51Z</time>
      </trkpt>
      <trkpt lat="43.56541" lon="2.18191">
        <ele>248</ele>
        <time>2023-05-27T15:41:52Z</time>
      </trkpt>
      <trkpt lat="43.56544" lon="2.18191">
        <ele>248.2</ele>
        <time>2023-05-27T15:41:53Z</time>
      </trkpt>
      <trkpt lat="43.56547" lon="2.18191">
        <ele>248.2</ele>
        <time>2023-05-27T15:41:54Z</time>
      </trkpt>
      <trkpt lat="43.56551" lon="2.18191">
        <ele>248.4</ele>
        <time>2023-05-27T15:41:55Z</time>
      </trkpt>
      <trkpt lat="43.56554" lon="2.18191">
        <ele>248.6</ele>
        <time>2023-05-27T15:41:56Z</time>
      </trkpt>
      <trkpt lat="43.56557" lon="2.18191">
        <ele>248.8</ele>
        <time>2023-05-27T15:41:57Z</time>
      </trkpt>
      <trkpt lat="43.5656" lon="2.18191">
        <ele>248.8</ele>
        <time>2023-05-27T15:41:58Z</time>
      </trkpt>
      <trkpt lat="43.56563" lon="2.18191">
        <ele>249</ele>
        <time>2023-05-27T15:41:59Z</time>
      </trkpt>
      <trkpt lat="43.56566" lon="2.1819">
        <ele>249.2</ele>
        <time>2023-05-27T15:42:00Z</time>
      </trkpt>
      <trkpt lat="43.56569" lon="2.1819">
        <ele>249.2</ele>
        <time>2023-05-27T15:42:01Z</time>
      </trkpt>
      <trkpt lat="43.56573" lon="2.1819">
        <ele>249.4</ele>
        <time>2023-05-27T15:42:02Z</time>
      </trkpt>
      <trkpt lat="43.56576" lon="2.18189">
        <ele>249.6</ele>
        <time>2023-05-27T15:42:03Z</time>
      </trkpt>
      <trkpt lat="43.56579" lon="2.18189">
        <ele>249.6</ele>
        <time>2023-05-27T15:42:04Z</time>
      </trkpt>
      <trkpt lat="43.56582" lon="2.18189">
        <ele>249.8</ele>
        <time>2023-05-27T15:42:05Z</time>
      </trkpt>
      <trkpt lat="43.56585" lon="2.18188">
        <ele>250</ele>
        <time>2023-05-27T15:42:06Z</time>
      </trkpt>
      <trkpt lat="43.56588" lon="2.18188">
        <ele>250</ele>
        <time>2023-05-27T15:42:07Z</time>
      </trkpt>
      <trkpt lat="43.56591" lon="2.18188">
        <ele>250.2</ele>
        <time>2023-05-27T15:42:08Z</time>
      </trkpt>
      <trkpt lat="43.56594" lon="2.18187">
        <ele>250.2</ele>
        <time>2023-05-27T15:42:09Z</time>
      </trkpt>
      <trkpt lat="43.56598" lon="2.18187">
        <ele>250.4</ele>
        <time>2023-05-27T15:42:10Z</time>
      </trkpt>
      <trkpt lat="43.56601" lon="2.18186">
        <ele>250.4</ele>
        <time>2023-05-27T15:42:11Z</time>
      </trkpt>
      <trkpt lat="43.56604" lon="2.18186">
        <ele>250.6</ele>
        <time>2023-05-27T15:42:12Z</time>
      </trkpt>
      <trkpt lat="43.56608" lon="2.18185">
        <ele>250.6</ele>
        <time>2023-05-27T15:42:13Z</time>
      </trkpt>
      <trkpt lat="43.5661" lon="2.18184">
        <ele>250.8</ele>
        <time>2023-05-27T15:42:14Z</time>
      </trkpt>
      <trkpt lat="43.56613" lon="2.18184">
        <ele>250.8</ele>
        <time>2023-05-27T15:42:15Z</time>
      </trkpt>
      <trkpt lat="43.56617" lon="2.18183">
        <ele>250.8</ele>
        <time>2023-05-27T15:42:16Z</time>
      </trkpt>
      <trkpt lat="43.5662" lon="2.18183">
        <ele>251</ele>
        <time>2023-05-27T15:42:17Z</time>
      </trkpt>
      <trkpt lat="43.56623" lon="2.18182">
        <ele>251</ele>
        <time>2023-05-27T15:42:18Z</time>
      </trkpt>
      <trkpt lat="43.56626" lon="2.18182">
        <ele>251</ele>
        <time>2023-05-27T15:42:19Z</time>
      </trkpt>
      <trkpt lat="43.5663" lon="2.18181">
        <ele>251</ele>
        <time>2023-05-27T15:42:20Z</time>
      </trkpt>
      <trkpt lat="43.56633" lon="2.18181">
        <ele>251.2</ele>
        <time>2023-05-27T15:42:21Z</time>
      </trkpt>
      <trkpt lat="43.56636" lon="2.18181">
        <ele>251.2</ele>
        <time>2023-05-27T15:42:22Z</time>
      </trkpt>
      <trkpt lat="43.5664" lon="2.18181">
        <ele>251.2</ele>
        <time>2023-05-27T15:42:23Z</time>
      </trkpt>
      <trkpt lat="43.56643" lon="2.1818">
        <ele>251.2</ele>
        <time>2023-05-27T15:42:24Z</time>
      </trkpt>
      <trkpt lat="43.56646" lon="2.18179">
        <ele>251.4</ele>
        <time>2023-05-27T15:42:25Z</time>
      </trkpt>
      <trkpt lat="43.56649" lon="2.18179">
        <ele>251.4</ele>
        <time>2023-05-27T15:42:26Z</time>
      </trkpt>
      <trkpt lat="43.56652" lon="2.18179">
        <ele>251.4</ele>
        <time>2023-05-27T15:42:27Z</time>
      </trkpt>
      <trkpt lat="43.56656" lon="2.18178">
        <ele>251.4</ele>
        <time>2023-05-27T15:42:28Z</time>
      </trkpt>
      <trkpt lat="43.56659" lon="2.18178">
        <ele>251.4</ele>
        <time>2023-05-27T15:42:29Z</time>
      </trkpt>
      <trkpt lat="43.56662" lon="2.18178">
        <ele>251.4</ele>
        <time>2023-05-27T15:42:30Z</time>
      </trkpt>
      <trkpt lat="43.56666" lon="2.18177">
        <ele>251.4</ele>
        <time>2023-05-27T15:42:31Z</time>
      </trkpt>
      <trkpt lat="43.56669" lon="2.18177">
        <ele>251.4</ele>
        <time>2023-05-27T15:42:32Z</time>
      </trkpt>
      <trkpt lat="43.56672" lon="2.18177">
        <ele>251.4</ele>
        <time>2023-05-27T15:42:33Z</time>
      </trkpt>
      <trkpt lat="43.56676" lon="2.18176">
        <ele>251.4</ele>
        <time>2023-05-27T15:42:34Z</time>
      </trkpt>
      <trkpt lat="43.56679" lon="2.18176">
        <ele>251.4</ele>
        <time>2023-05-27T15:42:35Z</time>
      </trkpt>
      <trkpt lat="43.56682" lon="2.18176">
        <ele>251.4</ele>
        <time>2023-05-27T15:42:36Z</time>
      </trkpt>
      <trkpt lat="43.56686" lon="2.18175">
        <ele>251.4</ele>
        <time>2023-05-27T15:42:37Z</time>
      </trkpt>
      <trkpt lat="43.56689" lon="2.18175">
        <ele>251.4</ele>
        <time>2023-05-27T15:42:38Z</time>
      </trkpt>
      <trkpt lat="43.56693" lon="2.18175">
        <ele>251.4</ele>
        <time>2023-05-27T15:42:39Z</time>
      </trkpt>
      <trkpt lat="43.56697" lon="2.18175">
        <ele>251.4</ele>
        <time>2023-05-27T15:42:40Z</time>
      </trkpt>
      <trkpt lat="43.567" lon="2.18175">
        <ele>251.4</ele>
        <time>2023-05-27T15:42:41Z</time>
      </trkpt>
      <trkpt lat="43.56704" lon="2.18174">
        <ele>251.4</ele>
        <time>2023-05-27T15:42:42Z</time>
      </trkpt>
      <trkpt lat="43.56708" lon="2.18174">
        <ele>251.4</ele>
        <time>2023-05-27T15:42:43Z</time>
      </trkpt>
      <trkpt lat="43.56711" lon="2.18174">
        <ele>251.2</ele>
        <time>2023-05-27T15:42:44Z</time>
      </trkpt>
      <trkpt lat="43.56715" lon="2.18173">
        <ele>251.2</ele>
        <time>2023-05-27T15:42:45Z</time>
      </trkpt>
      <trkpt lat="43.56719" lon="2.18173">
        <ele>251.2</ele>
        <time>2023-05-27T15:42:46Z</time>
      </trkpt>
      <trkpt lat="43.56723" lon="2.18173">
        <ele>251.2</ele>
        <time>2023-05-27T15:42:47Z</time>
      </trkpt>
      <trkpt lat="43.56727" lon="2.18173">
        <ele>251.2</ele>
        <time>2023-05-27T15:42:48Z</time>
      </trkpt>
      <trkpt lat="43.5673" lon="2.18173">
        <ele>251.2</ele>
        <time>2023-05-27T15:42:49Z</time>
      </trkpt>
      <trkpt lat="43.56734" lon="2.18173">
        <ele>251.2</ele>
        <time>2023-05-27T15:42:50Z</time>
      </trkpt>
      <trkpt lat="43.56737" lon="2.18174">
        <ele>251.2</ele>
        <time>2023-05-27T15:42:51Z</time>
      </trkpt>
      <trkpt lat="43.56741" lon="2.18174">
        <ele>251.2</ele>
        <time>2023-05-27T15:42:52Z</time>
      </trkpt>
      <trkpt lat="43.56745" lon="2.18174">
        <ele>251.2</ele>
        <time>2023-05-27T15:42:53Z</time>
      </trkpt>
      <trkpt lat="43.56749" lon="2.18175">
        <ele>251.2</ele>
        <time>2023-05-27T15:42:54Z</time>
      </trkpt>
      <trkpt lat="43.56752" lon="2.18176">
        <ele>251.2</ele>
        <time>2023-05-27T15:42:55Z</time>
      </trkpt>
      <trkpt lat="43.56756" lon="2.18177">
        <ele>251.2</ele>
        <time>2023-05-27T15:42:56Z</time>
      </trkpt>
      <trkpt lat="43.5676" lon="2.18177">
        <ele>251.2</ele>
        <time>2023-05-27T15:42:57Z</time>
      </trkpt>
      <trkpt lat="43.56764" lon="2.18178">
        <ele>251.2</ele>
        <time>2023-05-27T15:42:58Z</time>
      </trkpt>
      <trkpt lat="43.56768" lon="2.18179">
        <ele>251.2</ele>
        <time>2023-05-27T15:42:59Z</time>
      </trkpt>
      <trkpt lat="43.56772" lon="2.18181">
        <ele>251.2</ele>
        <time>2023-05-27T15:43:00Z</time>
      </trkpt>
      <trkpt lat="43.56776" lon="2.18182">
        <ele>251.2</ele>
        <time>2023-05-27T15:43:01Z</time>
      </trkpt>
      <trkpt lat="43.5678" lon="2.18183">
        <ele>251.2</ele>
        <time>2023-05-27T15:43:02Z</time>
      </trkpt>
      <trkpt lat="43.56785" lon="2.18184">
        <ele>251.2</ele>
        <time>2023-05-27T15:43:03Z</time>
      </trkpt>
      <trkpt lat="43.56789" lon="2.18185">
        <ele>251.2</ele>
        <time>2023-05-27T15:43:04Z</time>
      </trkpt>
      <trkpt lat="43.56793" lon="2.18186">
        <ele>251.2</ele>
        <time>2023-05-27T15:43:05Z</time>
      </trkpt>
      <trkpt lat="43.56797" lon="2.18187">
        <ele>251.2</ele>
        <time>2023-05-27T15:43:06Z</time>
      </trkpt>
      <trkpt lat="43.56801" lon="2.18188">
        <ele>251.2</ele>
        <time>2023-05-27T15:43:07Z</time>
      </trkpt>
      <trkpt lat="43.56805" lon="2.18189">
        <ele>251.2</ele>
        <time>2023-05-27T15:43:08Z</time>
      </trkpt>
      <trkpt lat="43.56809" lon="2.1819">
        <ele>251.2</ele>
        <time>2023-05-27T15:43:09Z</time>
      </trkpt>
      <trkpt lat="43.56812" lon="2.18191">
        <ele>251.2</ele>
        <time>2023-05-27T15:43:10Z</time>
      </trkpt>
      <trkpt lat="43.56817" lon="2.18192">
        <ele>251.2</ele>
        <time>2023-05-27T15:43:11Z</time>
      </trkpt>
      <trkpt lat="43.56822" lon="2.18194">
        <ele>251.2</ele>
        <time>2023-05-27T15:43:12Z</time>
      </trkpt>
      <trkpt lat="43.56826" lon="2.18195">
        <ele>251.2</ele>
        <time>2023-05-27T15:43:13Z</time>
      </trkpt>
      <trkpt lat="43.5683" lon="2.18196">
        <ele>251</ele>
        <time>2023-05-27T15:43:14Z</time>
      </trkpt>
      <trkpt lat="43.56835" lon="2.18196">
        <ele>251</ele>
        <time>2023-05-27T15:43:15Z</time>
      </trkpt>
      <trkpt lat="43.5684" lon="2.18197">
        <ele>250.8</ele>
        <time>2023-05-27T15:43:16Z</time>
      </trkpt>
      <trkpt lat="43.56845" lon="2.18199">
        <ele>250.8</ele>
        <time>2023-05-27T15:43:17Z</time>
      </trkpt>
      <trkpt lat="43.5685" lon="2.182">
        <ele>250.6</ele>
        <time>2023-05-27T15:43:18Z</time>
      </trkpt>
      <trkpt lat="43.56855" lon="2.18201">
        <ele>250.6</ele>
        <time>2023-05-27T15:43:19Z</time>
      </trkpt>
      <trkpt lat="43.56861" lon="2.18202">
        <ele>250.4</ele>
        <time>2023-05-27T15:43:20Z</time>
      </trkpt>
      <trkpt lat="43.56866" lon="2.18204">
        <ele>250.4</ele>
        <time>2023-05-27T15:43:21Z</time>
      </trkpt>
      <trkpt lat="43.56871" lon="2.18205">
        <ele>250.2</ele>
        <time>2023-05-27T15:43:22Z</time>
      </trkpt>
      <trkpt lat="43.56877" lon="2.18206">
        <ele>250.2</ele>
        <time>2023-05-27T15:43:23Z</time>
      </trkpt>
      <trkpt lat="43.56883" lon="2.18208">
        <ele>250</ele>
        <time>2023-05-27T15:43:24Z</time>
      </trkpt>
      <trkpt lat="43.56888" lon="2.18209">
        <ele>250</ele>
        <time>2023-05-27T15:43:25Z</time>
      </trkpt>
      <trkpt lat="43.56894" lon="2.18211">
        <ele>249.8</ele>
        <time>2023-05-27T15:43:26Z</time>
      </trkpt>
      <trkpt lat="43.569" lon="2.18212">
        <ele>249.8</ele>
        <time>2023-05-27T15:43:27Z</time>
      </trkpt>
      <trkpt lat="43.56905" lon="2.18214">
        <ele>249.6</ele>
        <time>2023-05-27T15:43:28Z</time>
      </trkpt>
      <trkpt lat="43.56912" lon="2.18215">
        <ele>249.4</ele>
        <time>2023-05-27T15:43:29Z</time>
      </trkpt>
      <trkpt lat="43.56918" lon="2.18216">
        <ele>249.4</ele>
        <time>2023-05-27T15:43:30Z</time>
      </trkpt>
      <trkpt lat="43.56924" lon="2.18217">
        <ele>249.2</ele>
        <time>2023-05-27T15:43:31Z</time>
      </trkpt>
      <trkpt lat="43.56929" lon="2.18219">
        <ele>249.2</ele>
        <time>2023-05-27T15:43:32Z</time>
      </trkpt>
      <trkpt lat="43.56934" lon="2.1822">
        <ele>249</ele>
        <time>2023-05-27T15:43:33Z</time>
      </trkpt>
      <trkpt lat="43.5694" lon="2.18222">
        <ele>249</ele>
        <time>2023-05-27T15:43:34Z</time>
      </trkpt>
      <trkpt lat="43.56946" lon="2.18224">
        <ele>248.8</ele>
        <time>2023-05-27T15:43:35Z</time>
      </trkpt>
      <trkpt lat="43.56952" lon="2.18226">
        <ele>248.8</ele>
        <time>2023-05-27T15:43:36Z</time>
      </trkpt>
      <trkpt lat="43.56957" lon="2.18228">
        <ele>248.8</ele>
        <time>2023-05-27T15:43:37Z</time>
      </trkpt>
      <trkpt lat="43.56963" lon="2.1823">
        <ele>248.8</ele>
        <time>2023-05-27T15:43:38Z</time>
      </trkpt>
      <trkpt lat="43.56968" lon="2.18233">
        <ele>248.8</ele>
        <time>2023-05-27T15:43:39Z</time>
      </trkpt>
      <trkpt lat="43.56973" lon="2.18235">
        <ele>248.8</ele>
        <time>2023-05-27T15:43:40Z</time>
      </trkpt>
      <trkpt lat="43.56978" lon="2.18238">
        <ele>248.6</ele>
        <time>2023-05-27T15:43:41Z</time>
      </trkpt>
      <trkpt lat="43.56983" lon="2.1824">
        <ele>248.6</ele>
        <time>2023-05-27T15:43:42Z</time>
      </trkpt>
      <trkpt lat="43.56988" lon="2.18243">
        <ele>248.6</ele>
        <time>2023-05-27T15:43:43Z</time>
      </trkpt>
      <trkpt lat="43.56992" lon="2.18246">
        <ele>248.6</ele>
        <time>2023-05-27T15:43:44Z</time>
      </trkpt>
      <trkpt lat="43.56997" lon="2.18248">
        <ele>248.6</ele>
        <time>2023-05-27T15:43:45Z</time>
      </trkpt>
      <trkpt lat="43.57001" lon="2.18251">
        <ele>248.6</ele>
        <time>2023-05-27T15:43:46Z</time>
      </trkpt>
      <trkpt lat="43.57007" lon="2.18254">
        <ele>248.6</ele>
        <time>2023-05-27T15:43:47Z</time>
      </trkpt>
      <trkpt lat="43.57011" lon="2.18257">
        <ele>248.6</ele>
        <time>2023-05-27T15:43:48Z</time>
      </trkpt>
      <trkpt lat="43.57016" lon="2.1826">
        <ele>248.6</ele>
        <time>2023-05-27T15:43:49Z</time>
      </trkpt>
      <trkpt lat="43.5702" lon="2.18263">
        <ele>248.4</ele>
        <time>2023-05-27T15:43:50Z</time>
      </trkpt>
      <trkpt lat="43.57025" lon="2.18266">
        <ele>248.4</ele>
        <time>2023-05-27T15:43:51Z</time>
      </trkpt>
      <trkpt lat="43.5703" lon="2.18269">
        <ele>248.4</ele>
        <time>2023-05-27T15:43:52Z</time>
      </trkpt>
      <trkpt lat="43.57034" lon="2.18272">
        <ele>248.2</ele>
        <time>2023-05-27T15:43:53Z</time>
      </trkpt>
      <trkpt lat="43.57039" lon="2.18274">
        <ele>248.2</ele>
        <time>2023-05-27T15:43:54Z</time>
      </trkpt>
      <trkpt lat="43.57045" lon="2.18276">
        <ele>248</ele>
        <time>2023-05-27T15:43:55Z</time>
      </trkpt>
      <trkpt lat="43.57051" lon="2.18278">
        <ele>248</ele>
        <time>2023-05-27T15:43:56Z</time>
      </trkpt>
      <trkpt lat="43.57057" lon="2.18279">
        <ele>247.8</ele>
        <time>2023-05-27T15:43:57Z</time>
      </trkpt>
      <trkpt lat="43.57063" lon="2.18279">
        <ele>247.4</ele>
        <time>2023-05-27T15:43:58Z</time>
      </trkpt>
      <trkpt lat="43.57069" lon="2.18279">
        <ele>247.2</ele>
        <time>2023-05-27T15:43:59Z</time>
      </trkpt>
      <trkpt lat="43.57076" lon="2.18278">
        <ele>246.8</ele>
        <time>2023-05-27T15:44:00Z</time>
      </trkpt>
      <trkpt lat="43.57083" lon="2.18277">
        <ele>246.6</ele>
        <time>2023-05-27T15:44:01Z</time>
      </trkpt>
      <trkpt lat="43.5709" lon="2.18274">
        <ele>246.2</ele>
        <time>2023-05-27T15:44:02Z</time>
      </trkpt>
      <trkpt lat="43.57098" lon="2.18271">
        <ele>245.8</ele>
        <time>2023-05-27T15:44:03Z</time>
      </trkpt>
      <trkpt lat="43.57105" lon="2.18268">
        <ele>245.6</ele>
        <time>2023-05-27T15:44:04Z</time>
      </trkpt>
      <trkpt lat="43.57112" lon="2.18265">
        <ele>245.2</ele>
        <time>2023-05-27T15:44:05Z</time>
      </trkpt>
      <trkpt lat="43.5712" lon="2.18262">
        <ele>244.8</ele>
        <time>2023-05-27T15:44:06Z</time>
      </trkpt>
      <trkpt lat="43.57127" lon="2.18258">
        <ele>244.4</ele>
        <time>2023-05-27T15:44:07Z</time>
      </trkpt>
      <trkpt lat="43.57134" lon="2.18253">
        <ele>244</ele>
        <time>2023-05-27T15:44:08Z</time>
      </trkpt>
      <trkpt lat="43.57142" lon="2.18247">
        <ele>243.6</ele>
        <time>2023-05-27T15:44:09Z</time>
      </trkpt>
      <trkpt lat="43.5715" lon="2.18242">
        <ele>243.2</ele>
        <time>2023-05-27T15:44:10Z</time>
      </trkpt>
      <trkpt lat="43.57158" lon="2.18237">
        <ele>242.8</ele>
        <time>2023-05-27T15:44:11Z</time>
      </trkpt>
      <trkpt lat="43.57166" lon="2.18231">
        <ele>242.4</ele>
        <time>2023-05-27T15:44:12Z</time>
      </trkpt>
      <trkpt lat="43.57176" lon="2.18224">
        <ele>242</ele>
        <time>2023-05-27T15:44:13Z</time>
      </trkpt>
      <trkpt lat="43.57185" lon="2.18218">
        <ele>241.4</ele>
        <time>2023-05-27T15:44:14Z</time>
      </trkpt>
      <trkpt lat="43.57193" lon="2.18212">
        <ele>240.8</ele>
        <time>2023-05-27T15:44:15Z</time>
      </trkpt>
      <trkpt lat="43.57201" lon="2.18206">
        <ele>240.4</ele>
        <time>2023-05-27T15:44:16Z</time>
      </trkpt>
      <trkpt lat="43.57211" lon="2.18199">
        <ele>240.2</ele>
        <time>2023-05-27T15:44:17Z</time>
      </trkpt>
      <trkpt lat="43.57219" lon="2.18193">
        <ele>239.8</ele>
        <time>2023-05-27T15:44:18Z</time>
      </trkpt>
      <trkpt lat="43.57228" lon="2.18186">
        <ele>239.4</ele>
        <time>2023-05-27T15:44:19Z</time>
      </trkpt>
      <trkpt lat="43.57236" lon="2.18179">
        <ele>238.8</ele>
        <time>2023-05-27T15:44:20Z</time>
      </trkpt>
      <trkpt lat="43.57244" lon="2.18173">
        <ele>238.4</ele>
        <time>2023-05-27T15:44:21Z</time>
      </trkpt>
      <trkpt lat="43.57253" lon="2.18165">
        <ele>237.8</ele>
        <time>2023-05-27T15:44:22Z</time>
      </trkpt>
      <trkpt lat="43.57263" lon="2.18157">
        <ele>237.4</ele>
        <time>2023-05-27T15:44:23Z</time>
      </trkpt>
      <trkpt lat="43.57271" lon="2.1815">
        <ele>236.8</ele>
        <time>2023-05-27T15:44:24Z</time>
      </trkpt>
      <trkpt lat="43.5728" lon="2.18143">
        <ele>236.2</ele>
        <time>2023-05-27T15:44:25Z</time>
      </trkpt>
      <trkpt lat="43.57289" lon="2.18136">
        <ele>235.6</ele>
        <time>2023-05-27T15:44:26Z</time>
      </trkpt>
      <trkpt lat="43.57298" lon="2.18128">
        <ele>235</ele>
        <time>2023-05-27T15:44:27Z</time>
      </trkpt>
      <trkpt lat="43.57307" lon="2.18121">
        <ele>234.4</ele>
        <time>2023-05-27T15:44:28Z</time>
      </trkpt>
      <trkpt lat="43.57316" lon="2.18114">
        <ele>234</ele>
        <time>2023-05-27T15:44:29Z</time>
      </trkpt>
      <trkpt lat="43.57325" lon="2.18107">
        <ele>233.6</ele>
        <time>2023-05-27T15:44:30Z</time>
      </trkpt>
      <trkpt lat="43.57334" lon="2.181">
        <ele>233</ele>
        <time>2023-05-27T15:44:31Z</time>
      </trkpt>
      <trkpt lat="43.57343" lon="2.18093">
        <ele>232.8</ele>
        <time>2023-05-27T15:44:32Z</time>
      </trkpt>
      <trkpt lat="43.57351" lon="2.18087">
        <ele>232.2</ele>
        <time>2023-05-27T15:44:33Z</time>
      </trkpt>
      <trkpt lat="43.57361" lon="2.1808">
        <ele>231.8</ele>
        <time>2023-05-27T15:44:34Z</time>
      </trkpt>
      <trkpt lat="43.5737" lon="2.18073">
        <ele>231.4</ele>
        <time>2023-05-27T15:44:35Z</time>
      </trkpt>
      <trkpt lat="43.57378" lon="2.18066">
        <ele>230.8</ele>
        <time>2023-05-27T15:44:36Z</time>
      </trkpt>
      <trkpt lat="43.57386" lon="2.18059">
        <ele>230.4</ele>
        <time>2023-05-27T15:44:37Z</time>
      </trkpt>
      <trkpt lat="43.57394" lon="2.18052">
        <ele>230.2</ele>
        <time>2023-05-27T15:44:38Z</time>
      </trkpt>
      <trkpt lat="43.57405" lon="2.18046">
        <ele>229.8</ele>
        <time>2023-05-27T15:44:39Z</time>
      </trkpt>
      <trkpt lat="43.57414" lon="2.18043">
        <ele>229.4</ele>
        <time>2023-05-27T15:44:40Z</time>
      </trkpt>
      <trkpt lat="43.57424" lon="2.1804">
        <ele>229</ele>
        <time>2023-05-27T15:44:41Z</time>
      </trkpt>
      <trkpt lat="43.57433" lon="2.18039">
        <ele>228.6</ele>
        <time>2023-05-27T15:44:42Z</time>
      </trkpt>
      <trkpt lat="43.57443" lon="2.18039">
        <ele>228</ele>
        <time>2023-05-27T15:44:43Z</time>
      </trkpt>
      <trkpt lat="43.57452" lon="2.1804">
        <ele>227.6</ele>
        <time>2023-05-27T15:44:44Z</time>
      </trkpt>
      <trkpt lat="43.57462" lon="2.18042">
        <ele>227.2</ele>
        <time>2023-05-27T15:44:45Z</time>
      </trkpt>
      <trkpt lat="43.57472" lon="2.18044">
        <ele>226.8</ele>
        <time>2023-05-27T15:44:46Z</time>
      </trkpt>
      <trkpt lat="43.57482" lon="2.18045">
        <ele>226.2</ele>
        <time>2023-05-27T15:44:47Z</time>
      </trkpt>
      <trkpt lat="43.57491" lon="2.18045">
        <ele>225.8</ele>
        <time>2023-05-27T15:44:48Z</time>
      </trkpt>
      <trkpt lat="43.57501" lon="2.18044">
        <ele>225.4</ele>
        <time>2023-05-27T15:44:49Z</time>
      </trkpt>
      <trkpt lat="43.57511" lon="2.18042">
        <ele>225</ele>
        <time>2023-05-27T15:44:50Z</time>
      </trkpt>
      <trkpt lat="43.57521" lon="2.18038">
        <ele>224.4</ele>
        <time>2023-05-27T15:44:51Z</time>
      </trkpt>
      <trkpt lat="43.5753" lon="2.18034">
        <ele>224</ele>
        <time>2023-05-27T15:44:52Z</time>
      </trkpt>
      <trkpt lat="43.5754" lon="2.18028">
        <ele>223.4</ele>
        <time>2023-05-27T15:44:53Z</time>
      </trkpt>
      <trkpt lat="43.57549" lon="2.18022">
        <ele>223</ele>
        <time>2023-05-27T15:44:54Z</time>
      </trkpt>
      <trkpt lat="43.57559" lon="2.18015">
        <ele>222.6</ele>
        <time>2023-05-27T15:44:55Z</time>
      </trkpt>
      <trkpt lat="43.57568" lon="2.18009">
        <ele>222</ele>
        <time>2023-05-27T15:44:56Z</time>
      </trkpt>
      <trkpt lat="43.57577" lon="2.18003">
        <ele>221.6</ele>
        <time>2023-05-27T15:44:57Z</time>
      </trkpt>
      <trkpt lat="43.57587" lon="2.17996">
        <ele>221</ele>
        <time>2023-05-27T15:44:58Z</time>
      </trkpt>
      <trkpt lat="43.57596" lon="2.1799">
        <ele>220.4</ele>
        <time>2023-05-27T15:44:59Z</time>
      </trkpt>
      <trkpt lat="43.57605" lon="2.17984">
        <ele>220</ele>
        <time>2023-05-27T15:45:00Z</time>
      </trkpt>
      <trkpt lat="43.57615" lon="2.17977">
        <ele>219.4</ele>
        <time>2023-05-27T15:45:01Z</time>
      </trkpt>
      <trkpt lat="43.57624" lon="2.17971">
        <ele>219</ele>
        <time>2023-05-27T15:45:02Z</time>
      </trkpt>
      <trkpt lat="43.57633" lon="2.17965">
        <ele>218.6</ele>
        <time>2023-05-27T15:45:03Z</time>
      </trkpt>
      <trkpt lat="43.57642" lon="2.17961">
        <ele>218.2</ele>
        <time>2023-05-27T15:45:04Z</time>
      </trkpt>
      <trkpt lat="43.57651" lon="2.17958">
        <ele>217.8</ele>
        <time>2023-05-27T15:45:05Z</time>
      </trkpt>
      <trkpt lat="43.57661" lon="2.17958">
        <ele>217.4</ele>
        <time>2023-05-27T15:45:06Z</time>
      </trkpt>
      <trkpt lat="43.5767" lon="2.17959">
        <ele>217</ele>
        <time>2023-05-27T15:45:07Z</time>
      </trkpt>
      <trkpt lat="43.57679" lon="2.17964">
        <ele>216.6</ele>
        <time>2023-05-27T15:45:08Z</time>
      </trkpt>
      <trkpt lat="43.57688" lon="2.17969">
        <ele>216.2</ele>
        <time>2023-05-27T15:45:09Z</time>
      </trkpt>
      <trkpt lat="43.57696" lon="2.17977">
        <ele>215.8</ele>
        <time>2023-05-27T15:45:10Z</time>
      </trkpt>
      <trkpt lat="43.57703" lon="2.17985">
        <ele>215.6</ele>
        <time>2023-05-27T15:45:11Z</time>
      </trkpt>
      <trkpt lat="43.57709" lon="2.17994">
        <ele>215</ele>
        <time>2023-05-27T15:45:12Z</time>
      </trkpt>
      <trkpt lat="43.57716" lon="2.18004">
        <ele>214.6</ele>
        <time>2023-05-27T15:45:13Z</time>
      </trkpt>
      <trkpt lat="43.57721" lon="2.18015">
        <ele>214</ele>
        <time>2023-05-27T15:45:14Z</time>
      </trkpt>
      <trkpt lat="43.57727" lon="2.18025">
        <ele>213.6</ele>
        <time>2023-05-27T15:45:15Z</time>
      </trkpt>
      <trkpt lat="43.57733" lon="2.18037">
        <ele>213</ele>
        <time>2023-05-27T15:45:16Z</time>
      </trkpt>
      <trkpt lat="43.57738" lon="2.18049">
        <ele>212.6</ele>
        <time>2023-05-27T15:45:17Z</time>
      </trkpt>
      <trkpt lat="43.57743" lon="2.18061">
        <ele>212</ele>
        <time>2023-05-27T15:45:18Z</time>
      </trkpt>
      <trkpt lat="43.5775" lon="2.18073">
        <ele>211.4</ele>
        <time>2023-05-27T15:45:19Z</time>
      </trkpt>
      <trkpt lat="43.57756" lon="2.18085">
        <ele>210.8</ele>
        <time>2023-05-27T15:45:20Z</time>
      </trkpt>
      <trkpt lat="43.57762" lon="2.18099">
        <ele>210.2</ele>
        <time>2023-05-27T15:45:21Z</time>
      </trkpt>
      <trkpt lat="43.57768" lon="2.18112">
        <ele>209.6</ele>
        <time>2023-05-27T15:45:22Z</time>
      </trkpt>
      <trkpt lat="43.57774" lon="2.18124">
        <ele>209</ele>
        <time>2023-05-27T15:45:23Z</time>
      </trkpt>
      <trkpt lat="43.5778" lon="2.18137">
        <ele>208.4</ele>
        <time>2023-05-27T15:45:24Z</time>
      </trkpt>
      <trkpt lat="43.57787" lon="2.18149">
        <ele>207.8</ele>
        <time>2023-05-27T15:45:25Z</time>
      </trkpt>
      <trkpt lat="43.57793" lon="2.18162">
        <ele>207.4</ele>
        <time>2023-05-27T15:45:26Z</time>
      </trkpt>
      <trkpt lat="43.57799" lon="2.18175">
        <ele>206.6</ele>
        <time>2023-05-27T15:45:27Z</time>
      </trkpt>
      <trkpt lat="43.57805" lon="2.18187">
        <ele>206</ele>
        <time>2023-05-27T15:45:28Z</time>
      </trkpt>
      <trkpt lat="43.57812" lon="2.18199">
        <ele>205.4</ele>
        <time>2023-05-27T15:45:29Z</time>
      </trkpt>
      <trkpt lat="43.57819" lon="2.18211">
        <ele>204.8</ele>
        <time>2023-05-27T15:45:30Z</time>
      </trkpt>
      <trkpt lat="43.57827" lon="2.18222">
        <ele>204</ele>
        <time>2023-05-27T15:45:31Z</time>
      </trkpt>
      <trkpt lat="43.57836" lon="2.18233">
        <ele>203.4</ele>
        <time>2023-05-27T15:45:32Z</time>
      </trkpt>
      <trkpt lat="43.57844" lon="2.18243">
        <ele>202.6</ele>
        <time>2023-05-27T15:45:33Z</time>
      </trkpt>
      <trkpt lat="43.57852" lon="2.18252">
        <ele>201.8</ele>
        <time>2023-05-27T15:45:34Z</time>
      </trkpt>
      <trkpt lat="43.57861" lon="2.18262">
        <ele>201.2</ele>
        <time>2023-05-27T15:45:35Z</time>
      </trkpt>
      <trkpt lat="43.57869" lon="2.1827">
        <ele>200.4</ele>
        <time>2023-05-27T15:45:36Z</time>
      </trkpt>
      <trkpt lat="43.57878" lon="2.18277">
        <ele>199.6</ele>
        <time>2023-05-27T15:45:37Z</time>
      </trkpt>
      <trkpt lat="43.57886" lon="2.18284">
        <ele>198.8</ele>
        <time>2023-05-27T15:45:38Z</time>
      </trkpt>
      <trkpt lat="43.57894" lon="2.18288">
        <ele>198</ele>
        <time>2023-05-27T15:45:39Z</time>
      </trkpt>
      <trkpt lat="43.57901" lon="2.1829">
        <ele>197.4</ele>
        <time>2023-05-27T15:45:40Z</time>
      </trkpt>
      <trkpt lat="43.57908" lon="2.1829">
        <ele>197</ele>
        <time>2023-05-27T15:45:41Z</time>
      </trkpt>
      <trkpt lat="43.57914" lon="2.18288">
        <ele>196.4</ele>
        <time>2023-05-27T15:45:42Z</time>
      </trkpt>
      <trkpt lat="43.57921" lon="2.18287">
        <ele>196.2</ele>
        <time>2023-05-27T15:45:43Z</time>
      </trkpt>
      <trkpt lat="43.57927" lon="2.18287">
        <ele>195.8</ele>
        <time>2023-05-27T15:45:44Z</time>
      </trkpt>
      <trkpt lat="43.57933" lon="2.18289">
        <ele>195.6</ele>
        <time>2023-05-27T15:45:45Z</time>
      </trkpt>
      <trkpt lat="43.57939" lon="2.18291">
        <ele>195.4</ele>
        <time>2023-05-27T15:45:46Z</time>
      </trkpt>
      <trkpt lat="43.57945" lon="2.18292">
        <ele>195.4</ele>
        <time>2023-05-27T15:45:47Z</time>
      </trkpt>
      <trkpt lat="43.57951" lon="2.18293">
        <ele>195.2</ele>
        <time>2023-05-27T15:45:48Z</time>
      </trkpt>
      <trkpt lat="43.57957" lon="2.18294">
        <ele>195.2</ele>
        <time>2023-05-27T15:45:49Z</time>
      </trkpt>
      <trkpt lat="43.57963" lon="2.18295">
        <ele>195</ele>
        <time>2023-05-27T15:45:50Z</time>
      </trkpt>
      <trkpt lat="43.57968" lon="2.18296">
        <ele>195</ele>
        <time>2023-05-27T15:45:51Z</time>
      </trkpt>
      <trkpt lat="43.57973" lon="2.18297">
        <ele>195</ele>
        <time>2023-05-27T15:45:52Z</time>
      </trkpt>
      <trkpt lat="43.57978" lon="2.18297">
        <ele>195</ele>
        <time>2023-05-27T15:45:53Z</time>
      </trkpt>
      <trkpt lat="43.57982" lon="2.18297">
        <ele>195</ele>
        <time>2023-05-27T15:45:54Z</time>
      </trkpt>
      <trkpt lat="43.57986" lon="2.18297">
        <ele>195</ele>
        <time>2023-05-27T15:45:55Z</time>
      </trkpt>
      <trkpt lat="43.5799" lon="2.18298">
        <ele>195</ele>
        <time>2023-05-27T15:45:56Z</time>
      </trkpt>
      <trkpt lat="43.57993" lon="2.18298">
        <ele>194.8</ele>
        <time>2023-05-27T15:45:57Z</time>
      </trkpt>
      <trkpt lat="43.57995" lon="2.18298">
        <ele>194.8</ele>
        <time>2023-05-27T15:45:58Z</time>
      </trkpt>
      <trkpt lat="43.57996" lon="2.18298">
        <ele>194.6</ele>
        <time>2023-05-27T15:45:59Z</time>
      </trkpt>
      <trkpt lat="43.57998" lon="2.18299">
        <ele>194.6</ele>
        <time>2023-05-27T15:46:00Z</time>
      </trkpt>
      <trkpt lat="43.57999" lon="2.18299">
        <ele>194.4</ele>
        <time>2023-05-27T15:46:01Z</time>
      </trkpt>
      <trkpt lat="43.58002" lon="2.183">
        <ele>194.2</ele>
        <time>2023-05-27T15:46:02Z</time>
      </trkpt>
      <trkpt lat="43.58005" lon="2.183">
        <ele>194.2</ele>
        <time>2023-05-27T15:46:03Z</time>
      </trkpt>
      <trkpt lat="43.58009" lon="2.18301">
        <ele>194.2</ele>
        <time>2023-05-27T15:46:04Z</time>
      </trkpt>
      <trkpt lat="43.58012" lon="2.18302">
        <ele>194</ele>
        <time>2023-05-27T15:46:05Z</time>
      </trkpt>
      <trkpt lat="43.58016" lon="2.18303">
        <ele>193.8</ele>
        <time>2023-05-27T15:46:06Z</time>
      </trkpt>
      <trkpt lat="43.5802" lon="2.18304">
        <ele>193.8</ele>
        <time>2023-05-27T15:46:07Z</time>
      </trkpt>
      <trkpt lat="43.58023" lon="2.18305">
        <ele>193.6</ele>
        <time>2023-05-27T15:46:08Z</time>
      </trkpt>
      <trkpt lat="43.58027" lon="2.18305">
        <ele>193.6</ele>
        <time>2023-05-27T15:46:09Z</time>
      </trkpt>
      <trkpt lat="43.5803" lon="2.18307">
        <ele>193.4</ele>
        <time>2023-05-27T15:46:10Z</time>
      </trkpt>
      <trkpt lat="43.58034" lon="2.18308">
        <ele>193.4</ele>
        <time>2023-05-27T15:46:11Z</time>
      </trkpt>
      <trkpt lat="43.58039" lon="2.1831">
        <ele>193.2</ele>
        <time>2023-05-27T15:46:12Z</time>
      </trkpt>
      <trkpt lat="43.58043" lon="2.18312">
        <ele>193.2</ele>
        <time>2023-05-27T15:46:13Z</time>
      </trkpt>
      <trkpt lat="43.58047" lon="2.18315">
        <ele>193</ele>
        <time>2023-05-27T15:46:14Z</time>
      </trkpt>
      <trkpt lat="43.58051" lon="2.18318">
        <ele>193</ele>
        <time>2023-05-27T15:46:15Z</time>
      </trkpt>
      <trkpt lat="43.58053" lon="2.1832">
        <ele>193</ele>
        <time>2023-05-27T15:46:16Z</time>
      </trkpt>
      <trkpt lat="43.58055" lon="2.18322">
        <ele>193</ele>
        <time>2023-05-27T15:46:17Z</time>
      </trkpt>
      <trkpt lat="43.58057" lon="2.18323">
        <ele>193</ele>
        <time>2023-05-27T15:46:18Z</time>
      </trkpt>
      <trkpt lat="43.58059" lon="2.18324">
        <ele>193</ele>
        <time>2023-05-27T15:46:19Z</time>
      </trkpt>
      <trkpt lat="43.58061" lon="2.18326">
        <ele>193</ele>
        <time>2023-05-27T15:46:20Z</time>
      </trkpt>
      <trkpt lat="43.58064" lon="2.18328">
        <ele>193</ele>
        <time>2023-05-27T15:46:21Z</time>
      </trkpt>
      <trkpt lat="43.58067" lon="2.1833">
        <ele>193.2</ele>
        <time>2023-05-27T15:46:22Z</time>
      </trkpt>
      <trkpt lat="43.58071" lon="2.18333">
        <ele>193.2</ele>
        <time>2023-05-27T15:46:23Z</time>
      </trkpt>
      <trkpt lat="43.58074" lon="2.18336">
        <ele>193.2</ele>
        <time>2023-05-27T15:46:24Z</time>
      </trkpt>
      <trkpt lat="43.58078" lon="2.1834">
        <ele>193.2</ele>
        <time>2023-05-27T15:46:25Z</time>
      </trkpt>
      <trkpt lat="43.58082" lon="2.18344">
        <ele>193</ele>
        <time>2023-05-27T15:46:26Z</time>
      </trkpt>
      <trkpt lat="43.58086" lon="2.18348">
        <ele>193</ele>
        <time>2023-05-27T15:46:27Z</time>
      </trkpt>
      <trkpt lat="43.58089" lon="2.18353">
        <ele>192.8</ele>
        <time>2023-05-27T15:46:28Z</time>
      </trkpt>
      <trkpt lat="43.58092" lon="2.18357">
        <ele>192.8</ele>
        <time>2023-05-27T15:46:29Z</time>
      </trkpt>
      <trkpt lat="43.58095" lon="2.18361">
        <ele>192.6</ele>
        <time>2023-05-27T15:46:30Z</time>
      </trkpt>
      <trkpt lat="43.58098" lon="2.18367">
        <ele>192.4</ele>
        <time>2023-05-27T15:46:31Z</time>
      </trkpt>
      <trkpt lat="43.581" lon="2.18373">
        <ele>192.2</ele>
        <time>2023-05-27T15:46:32Z</time>
      </trkpt>
      <trkpt lat="43.58102" lon="2.18379">
        <ele>192</ele>
        <time>2023-05-27T15:46:33Z</time>
      </trkpt>
      <trkpt lat="43.58104" lon="2.18385">
        <ele>191.6</ele>
        <time>2023-05-27T15:46:34Z</time>
      </trkpt>
      <trkpt lat="43.58106" lon="2.1839">
        <ele>191.4</ele>
        <time>2023-05-27T15:46:35Z</time>
      </trkpt>
      <trkpt lat="43.58108" lon="2.18397">
        <ele>191.2</ele>
        <time>2023-05-27T15:46:36Z</time>
      </trkpt>
      <trkpt lat="43.58111" lon="2.18403">
        <ele>191</ele>
        <time>2023-05-27T15:46:37Z</time>
      </trkpt>
      <trkpt lat="43.58113" lon="2.18408">
        <ele>190.8</ele>
        <time>2023-05-27T15:46:38Z</time>
      </trkpt>
      <trkpt lat="43.58116" lon="2.18413">
        <ele>190.6</ele>
        <time>2023-05-27T15:46:39Z</time>
      </trkpt>
      <trkpt lat="43.58118" lon="2.18418">
        <ele>190.4</ele>
        <time>2023-05-27T15:46:40Z</time>
      </trkpt>
      <trkpt lat="43.58121" lon="2.18423">
        <ele>190.4</ele>
        <time>2023-05-27T15:46:41Z</time>
      </trkpt>
      <trkpt lat="43.58124" lon="2.18427">
        <ele>190.2</ele>
        <time>2023-05-27T15:46:42Z</time>
      </trkpt>
      <trkpt lat="43.58128" lon="2.1843">
        <ele>190.2</ele>
        <time>2023-05-27T15:46:43Z</time>
      </trkpt>
      <trkpt lat="43.58132" lon="2.18432">
        <ele>190.2</ele>
        <time>2023-05-27T15:46:44Z</time>
      </trkpt>
      <trkpt lat="43.58136" lon="2.18432">
        <ele>190.2</ele>
        <time>2023-05-27T15:46:45Z</time>
      </trkpt>
      <trkpt lat="43.5814" lon="2.18431">
        <ele>190</ele>
        <time>2023-05-27T15:46:46Z</time>
      </trkpt>
      <trkpt lat="43.58144" lon="2.1843">
        <ele>190</ele>
        <time>2023-05-27T15:46:47Z</time>
      </trkpt>
      <trkpt lat="43.58147" lon="2.18429">
        <ele>190</ele>
        <time>2023-05-27T15:46:48Z</time>
      </trkpt>
      <trkpt lat="43.5815" lon="2.18429">
        <ele>190</ele>
        <time>2023-05-27T15:46:49Z</time>
      </trkpt>
      <trkpt lat="43.58152" lon="2.1843">
        <ele>190</ele>
        <time>2023-05-27T15:46:50Z</time>
      </trkpt>
      <trkpt lat="43.58153" lon="2.18434">
        <ele>189.8</ele>
        <time>2023-05-27T15:46:51Z</time>
      </trkpt>
      <trkpt lat="43.58154" lon="2.18438">
        <ele>189.6</ele>
        <time>2023-05-27T15:46:52Z</time>
      </trkpt>
      <trkpt lat="43.58153" lon="2.18443">
        <ele>189.4</ele>
        <time>2023-05-27T15:46:53Z</time>
      </trkpt>
      <trkpt lat="43.58151" lon="2.18449">
        <ele>189.2</ele>
        <time>2023-05-27T15:46:54Z</time>
      </trkpt>
      <trkpt lat="43.58149" lon="2.18456">
        <ele>188.8</ele>
        <time>2023-05-27T15:46:55Z</time>
      </trkpt>
      <trkpt lat="43.58146" lon="2.18463">
        <ele>188.6</ele>
        <time>2023-05-27T15:46:56Z</time>
      </trkpt>
      <trkpt lat="43.58143" lon="2.18472">
        <ele>188.2</ele>
        <time>2023-05-27T15:46:57Z</time>
      </trkpt>
      <trkpt lat="43.58141" lon="2.1848">
        <ele>187.8</ele>
        <time>2023-05-27T15:46:58Z</time>
      </trkpt>
      <trkpt lat="43.58138" lon="2.18488">
        <ele>187.4</ele>
        <time>2023-05-27T15:46:59Z</time>
      </trkpt>
      <trkpt lat="43.58134" lon="2.18496">
        <ele>187</ele>
        <time>2023-05-27T15:47:00Z</time>
      </trkpt>
      <trkpt lat="43.58132" lon="2.18504">
        <ele>186.6</ele>
        <time>2023-05-27T15:47:01Z</time>
      </trkpt>
      <trkpt lat="43.5813" lon="2.18512">
        <ele>186.2</ele>
        <time>2023-05-27T15:47:02Z</time>
      </trkpt>
      <trkpt lat="43.5813" lon="2.1852">
        <ele>185.8</ele>
        <time>2023-05-27T15:47:03Z</time>
      </trkpt>
      <trkpt lat="43.58131" lon="2.18529">
        <ele>185.4</ele>
        <time>2023-05-27T15:47:04Z</time>
      </trkpt>
      <trkpt lat="43.58133" lon="2.18538">
        <ele>184.8</ele>
        <time>2023-05-27T15:47:05Z</time>
      </trkpt>
      <trkpt lat="43.58137" lon="2.18546">
        <ele>184.4</ele>
        <time>2023-05-27T15:47:06Z</time>
      </trkpt>
      <trkpt lat="43.58141" lon="2.18554">
        <ele>184</ele>
        <time>2023-05-27T15:47:07Z</time>
      </trkpt>
      <trkpt lat="43.58147" lon="2.18561">
        <ele>183.6</ele>
        <time>2023-05-27T15:47:08Z</time>
      </trkpt>
      <trkpt lat="43.58153" lon="2.18567">
        <ele>183.2</ele>
        <time>2023-05-27T15:47:09Z</time>
      </trkpt>
      <trkpt lat="43.5816" lon="2.18574">
        <ele>182.8</ele>
        <time>2023-05-27T15:47:10Z</time>
      </trkpt>
      <trkpt lat="43.58167" lon="2.1858">
        <ele>182.4</ele>
        <time>2023-05-27T15:47:11Z</time>
      </trkpt>
      <trkpt lat="43.58173" lon="2.18586">
        <ele>182</ele>
        <time>2023-05-27T15:47:12Z</time>
      </trkpt>
      <trkpt lat="43.58179" lon="2.1859">
        <ele>181.4</ele>
        <time>2023-05-27T15:47:13Z</time>
      </trkpt>
      <trkpt lat="43.58184" lon="2.18595">
        <ele>180.8</ele>
        <time>2023-05-27T15:47:14Z</time>
      </trkpt>
      <trkpt lat="43.5819" lon="2.18601">
        <ele>180.2</ele>
        <time>2023-05-27T15:47:15Z</time>
      </trkpt>
      <trkpt lat="43.58196" lon="2.18608">
        <ele>179.6</ele>
        <time>2023-05-27T15:47:16Z</time>
      </trkpt>
      <trkpt lat="43.58202" lon="2.18614">
        <ele>179.2</ele>
        <time>2023-05-27T15:47:17Z</time>
      </trkpt>
      <trkpt lat="43.58206" lon="2.1862">
        <ele>178.8</ele>
        <time>2023-05-27T15:47:18Z</time>
      </trkpt>
      <trkpt lat="43.58211" lon="2.18628">
        <ele>178.4</ele>
        <time>2023-05-27T15:47:19Z</time>
      </trkpt>
      <trkpt lat="43.58215" lon="2.18635">
        <ele>178</ele>
        <time>2023-05-27T15:47:20Z</time>
      </trkpt>
      <trkpt lat="43.58219" lon="2.18643">
        <ele>177.8</ele>
        <time>2023-05-27T15:47:21Z</time>
      </trkpt>
      <trkpt lat="43.58222" lon="2.18651">
        <ele>177.4</ele>
        <time>2023-05-27T15:47:22Z</time>
      </trkpt>
      <trkpt lat="43.58226" lon="2.18659">
        <ele>177.2</ele>
        <time>2023-05-27T15:47:23Z</time>
      </trkpt>
      <trkpt lat="43.5823" lon="2.18668">
        <ele>177</ele>
        <time>2023-05-27T15:47:24Z</time>
      </trkpt>
      <trkpt lat="43.58233" lon="2.18676">
        <ele>176.8</ele>
        <time>2023-05-27T15:47:25Z</time>
      </trkpt>
      <trkpt lat="43.58237" lon="2.18685">
        <ele>176.8</ele>
        <time>2023-05-27T15:47:26Z</time>
      </trkpt>
      <trkpt lat="43.5824" lon="2.18692">
        <ele>176.6</ele>
        <time>2023-05-27T15:47:27Z</time>
      </trkpt>
      <trkpt lat="43.58243" lon="2.187">
        <ele>176.6</ele>
        <time>2023-05-27T15:47:28Z</time>
      </trkpt>
      <trkpt lat="43.58246" lon="2.18708">
        <ele>176.4</ele>
        <time>2023-05-27T15:47:29Z</time>
      </trkpt>
      <trkpt lat="43.5825" lon="2.18715">
        <ele>176.4</ele>
        <time>2023-05-27T15:47:30Z</time>
      </trkpt>
      <trkpt lat="43.58253" lon="2.18723">
        <ele>176.2</ele>
        <time>2023-05-27T15:47:31Z</time>
      </trkpt>
      <trkpt lat="43.58256" lon="2.1873">
        <ele>176.2</ele>
        <time>2023-05-27T15:47:32Z</time>
      </trkpt>
      <trkpt lat="43.58259" lon="2.18737">
        <ele>176.2</ele>
        <time>2023-05-27T15:47:33Z</time>
      </trkpt>
      <trkpt lat="43.58262" lon="2.18743">
        <ele>176</ele>
        <time>2023-05-27T15:47:34Z</time>
      </trkpt>
      <trkpt lat="43.58265" lon="2.1875">
        <ele>176</ele>
        <time>2023-05-27T15:47:35Z</time>
      </trkpt>
      <trkpt lat="43.58267" lon="2.18757">
        <ele>176</ele>
        <time>2023-05-27T15:47:36Z</time>
      </trkpt>
      <trkpt lat="43.5827" lon="2.18764">
        <ele>176</ele>
        <time>2023-05-27T15:47:37Z</time>
      </trkpt>
      <trkpt lat="43.58271" lon="2.1877">
        <ele>176</ele>
        <time>2023-05-27T15:47:38Z</time>
      </trkpt>
      <trkpt lat="43.58273" lon="2.18777">
        <ele>176</ele>
        <time>2023-05-27T15:47:39Z</time>
      </trkpt>
      <trkpt lat="43.58274" lon="2.18783">
        <ele>176</ele>
        <time>2023-05-27T15:47:40Z</time>
      </trkpt>
      <trkpt lat="43.58275" lon="2.1879">
        <ele>176</ele>
        <time>2023-05-27T15:47:41Z</time>
      </trkpt>
      <trkpt lat="43.58276" lon="2.18797">
        <ele>176</ele>
        <time>2023-05-27T15:47:42Z</time>
      </trkpt>
      <trkpt lat="43.58277" lon="2.18804">
        <ele>176</ele>
        <time>2023-05-27T15:47:43Z</time>
      </trkpt>
      <trkpt lat="43.58278" lon="2.18811">
        <ele>175.8</ele>
        <time>2023-05-27T15:47:44Z</time>
      </trkpt>
      <trkpt lat="43.58279" lon="2.18818">
        <ele>175.8</ele>
        <time>2023-05-27T15:47:45Z</time>
      </trkpt>
      <trkpt lat="43.5828" lon="2.18825">
        <ele>175.8</ele>
        <time>2023-05-27T15:47:46Z</time>
      </trkpt>
      <trkpt lat="43.5828" lon="2.18832">
        <ele>175.8</ele>
        <time>2023-05-27T15:47:47Z</time>
      </trkpt>
      <trkpt lat="43.58281" lon="2.18839">
        <ele>175.8</ele>
        <time>2023-05-27T15:47:48Z</time>
      </trkpt>
      <trkpt lat="43.58281" lon="2.18846">
        <ele>175.8</ele>
        <time>2023-05-27T15:47:49Z</time>
      </trkpt>
      <trkpt lat="43.58282" lon="2.18853">
        <ele>175.8</ele>
        <time>2023-05-27T15:47:50Z</time>
      </trkpt>
      <trkpt lat="43.58282" lon="2.18861">
        <ele>175.6</ele>
        <time>2023-05-27T15:47:51Z</time>
      </trkpt>
      <trkpt lat="43.58282" lon="2.18868">
        <ele>175.6</ele>
        <time>2023-05-27T15:47:52Z</time>
      </trkpt>
      <trkpt lat="43.58282" lon="2.18875">
        <ele>175.6</ele>
        <time>2023-05-27T15:47:53Z</time>
      </trkpt>
      <trkpt lat="43.58281" lon="2.18882">
        <ele>175.6</ele>
        <time>2023-05-27T15:47:54Z</time>
      </trkpt>
      <trkpt lat="43.58281" lon="2.18889">
        <ele>175.6</ele>
        <time>2023-05-27T15:47:55Z</time>
      </trkpt>
      <trkpt lat="43.58281" lon="2.18895">
        <ele>175.6</ele>
        <time>2023-05-27T15:47:56Z</time>
      </trkpt>
      <trkpt lat="43.58281" lon="2.18902">
        <ele>175.6</ele>
        <time>2023-05-27T15:47:57Z</time>
      </trkpt>
      <trkpt lat="43.58281" lon="2.18909">
        <ele>175.6</ele>
        <time>2023-05-27T15:47:58Z</time>
      </trkpt>
      <trkpt lat="43.58281" lon="2.18915">
        <ele>175.8</ele>
        <time>2023-05-27T15:47:59Z</time>
      </trkpt>
      <trkpt lat="43.58282" lon="2.18921">
        <ele>175.8</ele>
        <time>2023-05-27T15:48:00Z</time>
      </trkpt>
      <trkpt lat="43.58283" lon="2.18928">
        <ele>175.8</ele>
        <time>2023-05-27T15:48:01Z</time>
      </trkpt>
      <trkpt lat="43.58283" lon="2.18934">
        <ele>175.8</ele>
        <time>2023-05-27T15:48:02Z</time>
      </trkpt>
      <trkpt lat="43.58283" lon="2.1894">
        <ele>175.8</ele>
        <time>2023-05-27T15:48:03Z</time>
      </trkpt>
      <trkpt lat="43.58284" lon="2.18946">
        <ele>175.8</ele>
        <time>2023-05-27T15:48:04Z</time>
      </trkpt>
      <trkpt lat="43.58285" lon="2.18953">
        <ele>175.8</ele>
        <time>2023-05-27T15:48:05Z</time>
      </trkpt>
      <trkpt lat="43.58286" lon="2.18958">
        <ele>176</ele>
        <time>2023-05-27T15:48:06Z</time>
      </trkpt>
      <trkpt lat="43.58286" lon="2.18964">
        <ele>176</ele>
        <time>2023-05-27T15:48:07Z</time>
      </trkpt>
      <trkpt lat="43.58287" lon="2.18971">
        <ele>176</ele>
        <time>2023-05-27T15:48:08Z</time>
      </trkpt>
      <trkpt lat="43.58289" lon="2.18976">
        <ele>176</ele>
        <time>2023-05-27T15:48:09Z</time>
      </trkpt>
      <trkpt lat="43.5829" lon="2.18981">
        <ele>176</ele>
        <time>2023-05-27T15:48:10Z</time>
      </trkpt>
      <trkpt lat="43.58291" lon="2.18986">
        <ele>176.2</ele>
        <time>2023-05-27T15:48:11Z</time>
      </trkpt>
      <trkpt lat="43.58292" lon="2.18992">
        <ele>176.2</ele>
        <time>2023-05-27T15:48:12Z</time>
      </trkpt>
      <trkpt lat="43.58294" lon="2.18997">
        <ele>176.2</ele>
        <time>2023-05-27T15:48:13Z</time>
      </trkpt>
      <trkpt lat="43.58296" lon="2.19002">
        <ele>176.2</ele>
        <time>2023-05-27T15:48:14Z</time>
      </trkpt>
      <trkpt lat="43.58297" lon="2.19007">
        <ele>176.2</ele>
        <time>2023-05-27T15:48:15Z</time>
      </trkpt>
      <trkpt lat="43.58299" lon="2.19011">
        <ele>176.2</ele>
        <time>2023-05-27T15:48:16Z</time>
      </trkpt>
      <trkpt lat="43.58301" lon="2.19016">
        <ele>176.2</ele>
        <time>2023-05-27T15:48:17Z</time>
      </trkpt>
      <trkpt lat="43.58303" lon="2.19022">
        <ele>176.2</ele>
        <time>2023-05-27T15:48:18Z</time>
      </trkpt>
      <trkpt lat="43.58305" lon="2.19026">
        <ele>176.4</ele>
        <time>2023-05-27T15:48:19Z</time>
      </trkpt>
      <trkpt lat="43.58307" lon="2.19031">
        <ele>176.4</ele>
        <time>2023-05-27T15:48:20Z</time>
      </trkpt>
      <trkpt lat="43.58309" lon="2.19036">
        <ele>176.4</ele>
        <time>2023-05-27T15:48:21Z</time>
      </trkpt>
      <trkpt lat="43.58311" lon="2.1904">
        <ele>176.4</ele>
        <time>2023-05-27T15:48:22Z</time>
      </trkpt>
      <trkpt lat="43.58312" lon="2.19045">
        <ele>176.4</ele>
        <time>2023-05-27T15:48:23Z</time>
      </trkpt>
      <trkpt lat="43.58314" lon="2.1905">
        <ele>176.4</ele>
        <time>2023-05-27T15:48:24Z</time>
      </trkpt>
      <trkpt lat="43.58316" lon="2.19056">
        <ele>176.4</ele>
        <time>2023-05-27T15:48:25Z</time>
      </trkpt>
      <trkpt lat="43.58318" lon="2.1906">
        <ele>176.6</ele>
        <time>2023-05-27T15:48:26Z</time>
      </trkpt>
      <trkpt lat="43.58319" lon="2.19065">
        <ele>176.6</ele>
        <time>2023-05-27T15:48:27Z</time>
      </trkpt>
      <trkpt lat="43.5832" lon="2.1907">
        <ele>176.6</ele>
        <time>2023-05-27T15:48:28Z</time>
      </trkpt>
      <trkpt lat="43.58321" lon="2.19075">
        <ele>176.6</ele>
        <time>2023-05-27T15:48:29Z</time>
      </trkpt>
      <trkpt lat="43.58322" lon="2.1908">
        <ele>176.8</ele>
        <time>2023-05-27T15:48:30Z</time>
      </trkpt>
      <trkpt lat="43.58324" lon="2.19085">
        <ele>176.8</ele>
        <time>2023-05-27T15:48:31Z</time>
      </trkpt>
      <trkpt lat="43.58325" lon="2.19091">
        <ele>176.8</ele>
        <time>2023-05-27T15:48:32Z</time>
      </trkpt>
      <trkpt lat="43.58325" lon="2.19095">
        <ele>176.8</ele>
        <time>2023-05-27T15:48:33Z</time>
      </trkpt>
      <trkpt lat="43.58326" lon="2.19101">
        <ele>177</ele>
        <time>2023-05-27T15:48:34Z</time>
      </trkpt>
      <trkpt lat="43.58326" lon="2.19106">
        <ele>177</ele>
        <time>2023-05-27T15:48:35Z</time>
      </trkpt>
      <trkpt lat="43.58327" lon="2.19111">
        <ele>177</ele>
        <time>2023-05-27T15:48:36Z</time>
      </trkpt>
      <trkpt lat="43.58327" lon="2.19117">
        <ele>177.2</ele>
        <time>2023-05-27T15:48:37Z</time>
      </trkpt>
      <trkpt lat="43.58328" lon="2.19122">
        <ele>177.2</ele>
        <time>2023-05-27T15:48:38Z</time>
      </trkpt>
      <trkpt lat="43.58328" lon="2.19127">
        <ele>177.2</ele>
        <time>2023-05-27T15:48:39Z</time>
      </trkpt>
      <trkpt lat="43.58328" lon="2.19132">
        <ele>177.2</ele>
        <time>2023-05-27T15:48:40Z</time>
      </trkpt>
      <trkpt lat="43.58328" lon="2.19138">
        <ele>177.4</ele>
        <time>2023-05-27T15:48:41Z</time>
      </trkpt>
      <trkpt lat="43.58328" lon="2.19143">
        <ele>177.4</ele>
        <time>2023-05-27T15:48:42Z</time>
      </trkpt>
      <trkpt lat="43.58327" lon="2.19149">
        <ele>177.4</ele>
        <time>2023-05-27T15:48:43Z</time>
      </trkpt>
      <trkpt lat="43.58327" lon="2.19153">
        <ele>177.6</ele>
        <time>2023-05-27T15:48:44Z</time>
      </trkpt>
      <trkpt lat="43.58326" lon="2.19159">
        <ele>177.6</ele>
        <time>2023-05-27T15:48:45Z</time>
      </trkpt>
      <trkpt lat="43.58326" lon="2.19164">
        <ele>177.6</ele>
        <time>2023-05-27T15:48:46Z</time>
      </trkpt>
      <trkpt lat="43.58325" lon="2.19169">
        <ele>177.6</ele>
        <time>2023-05-27T15:48:47Z</time>
      </trkpt>
      <trkpt lat="43.58324" lon="2.19174">
        <ele>177.8</ele>
        <time>2023-05-27T15:48:48Z</time>
      </trkpt>
      <trkpt lat="43.58323" lon="2.19179">
        <ele>177.8</ele>
        <time>2023-05-27T15:48:49Z</time>
      </trkpt>
      <trkpt lat="43.58321" lon="2.19183">
        <ele>177.8</ele>
        <time>2023-05-27T15:48:50Z</time>
      </trkpt>
      <trkpt lat="43.5832" lon="2.19188">
        <ele>178</ele>
        <time>2023-05-27T15:48:51Z</time>
      </trkpt>
      <trkpt lat="43.58319" lon="2.19193">
        <ele>178</ele>
        <time>2023-05-27T15:48:52Z</time>
      </trkpt>
      <trkpt lat="43.58317" lon="2.19197">
        <ele>178</ele>
        <time>2023-05-27T15:48:53Z</time>
      </trkpt>
      <trkpt lat="43.58316" lon="2.19202">
        <ele>178</ele>
        <time>2023-05-27T15:48:54Z</time>
      </trkpt>
      <trkpt lat="43.58315" lon="2.19206">
        <ele>178</ele>
        <time>2023-05-27T15:48:55Z</time>
      </trkpt>
      <trkpt lat="43.58313" lon="2.19211">
        <ele>178.2</ele>
        <time>2023-05-27T15:48:56Z</time>
      </trkpt>
      <trkpt lat="43.58312" lon="2.19215">
        <ele>178.2</ele>
        <time>2023-05-27T15:48:57Z</time>
      </trkpt>
      <trkpt lat="43.58311" lon="2.19219">
        <ele>178.4</ele>
        <time>2023-05-27T15:48:58Z</time>
      </trkpt>
      <trkpt lat="43.5831" lon="2.19223">
        <ele>178.4</ele>
        <time>2023-05-27T15:48:59Z</time>
      </trkpt>
      <trkpt lat="43.58308" lon="2.19227">
        <ele>178.4</ele>
        <time>2023-05-27T15:49:00Z</time>
      </trkpt>
      <trkpt lat="43.58307" lon="2.19231">
        <ele>178.6</ele>
        <time>2023-05-27T15:49:01Z</time>
      </trkpt>
      <trkpt lat="43.58306" lon="2.19236">
        <ele>178.6</ele>
        <time>2023-05-27T15:49:02Z</time>
      </trkpt>
      <trkpt lat="43.58305" lon="2.1924">
        <ele>178.6</ele>
        <time>2023-05-27T15:49:03Z</time>
      </trkpt>
      <trkpt lat="43.58304" lon="2.19244">
        <ele>178.8</ele>
        <time>2023-05-27T15:49:04Z</time>
      </trkpt>
      <trkpt lat="43.58303" lon="2.19248">
        <ele>178.8</ele>
        <time>2023-05-27T15:49:05Z</time>
      </trkpt>
      <trkpt lat="43.58302" lon="2.19253">
        <ele>178.8</ele>
        <time>2023-05-27T15:49:06Z</time>
      </trkpt>
      <trkpt lat="43.58301" lon="2.19257">
        <ele>179</ele>
        <time>2023-05-27T15:49:07Z</time>
      </trkpt>
      <trkpt lat="43.58301" lon="2.19261">
        <ele>179</ele>
        <time>2023-05-27T15:49:08Z</time>
      </trkpt>
      <trkpt lat="43.583" lon="2.19265">
        <ele>179</ele>
        <time>2023-05-27T15:49:09Z</time>
      </trkpt>
      <trkpt lat="43.58299" lon="2.19269">
        <ele>179.2</ele>
        <time>2023-05-27T15:49:10Z</time>
      </trkpt>
      <trkpt lat="43.58298" lon="2.19274">
        <ele>179.2</ele>
        <time>2023-05-27T15:49:11Z</time>
      </trkpt>
      <trkpt lat="43.58298" lon="2.19278">
        <ele>179.2</ele>
        <time>2023-05-27T15:49:12Z</time>
      </trkpt>
      <trkpt lat="43.58297" lon="2.19282">
        <ele>179.4</ele>
        <time>2023-05-27T15:49:13Z</time>
      </trkpt>
      <trkpt lat="43.58296" lon="2.19286">
        <ele>179.4</ele>
        <time>2023-05-27T15:49:14Z</time>
      </trkpt>
      <trkpt lat="43.58296" lon="2.19291">
        <ele>179.4</ele>
        <time>2023-05-27T15:49:15Z</time>
      </trkpt>
      <trkpt lat="43.58296" lon="2.19295">
        <ele>179.4</ele>
        <time>2023-05-27T15:49:16Z</time>
      </trkpt>
      <trkpt lat="43.58296" lon="2.193">
        <ele>179.6</ele>
        <time>2023-05-27T15:49:17Z</time>
      </trkpt>
      <trkpt lat="43.58295" lon="2.19304">
        <ele>179.6</ele>
        <time>2023-05-27T15:49:18Z</time>
      </trkpt>
      <trkpt lat="43.58295" lon="2.19308">
        <ele>179.6</ele>
        <time>2023-05-27T15:49:19Z</time>
      </trkpt>
      <trkpt lat="43.58295" lon="2.19313">
        <ele>179.8</ele>
        <time>2023-05-27T15:49:20Z</time>
      </trkpt>
      <trkpt lat="43.58295" lon="2.19318">
        <ele>179.8</ele>
        <time>2023-05-27T15:49:21Z</time>
      </trkpt>
      <trkpt lat="43.58295" lon="2.19323">
        <ele>179.8</ele>
        <time>2023-05-27T15:49:22Z</time>
      </trkpt>
      <trkpt lat="43.58295" lon="2.19326">
        <ele>179.8</ele>
        <time>2023-05-27T15:49:23Z</time>
      </trkpt>
      <trkpt lat="43.58296" lon="2.19331">
        <ele>180</ele>
        <time>2023-05-27T15:49:24Z</time>
      </trkpt>
      <trkpt lat="43.58296" lon="2.19336">
        <ele>180</ele>
        <time>2023-05-27T15:49:25Z</time>
      </trkpt>
      <trkpt lat="43.58296" lon="2.1934">
        <ele>180</ele>
        <time>2023-05-27T15:49:26Z</time>
      </trkpt>
      <trkpt lat="43.58296" lon="2.19344">
        <ele>180.2</ele>
        <time>2023-05-27T15:49:27Z</time>
      </trkpt>
      <trkpt lat="43.58296" lon="2.19349">
        <ele>180.2</ele>
        <time>2023-05-27T15:49:28Z</time>
      </trkpt>
      <trkpt lat="43.58297" lon="2.19354">
        <ele>180.2</ele>
        <time>2023-05-27T15:49:29Z</time>
      </trkpt>
      <trkpt lat="43.58297" lon="2.19359">
        <ele>180.2</ele>
        <time>2023-05-27T15:49:30Z</time>
      </trkpt>
      <trkpt lat="43.58297" lon="2.19364">
        <ele>180.2</ele>
        <time>2023-05-27T15:49:31Z</time>
      </trkpt>
      <trkpt lat="43.58298" lon="2.19368">
        <ele>180.4</ele>
        <time>2023-05-27T15:49:32Z</time>
      </trkpt>
      <trkpt lat="43.58298" lon="2.19373">
        <ele>180.4</ele>
        <time>2023-05-27T15:49:33Z</time>
      </trkpt>
      <trkpt lat="43.58299" lon="2.19377">
        <ele>180.4</ele>
        <time>2023-05-27T15:49:34Z</time>
      </trkpt>
      <trkpt lat="43.58299" lon="2.19382">
        <ele>180.6</ele>
        <time>2023-05-27T15:49:35Z</time>
      </trkpt>
      <trkpt lat="43.58299" lon="2.19386">
        <ele>180.6</ele>
        <time>2023-05-27T15:49:36Z</time>
      </trkpt>
      <trkpt lat="43.58299" lon="2.1939">
        <ele>180.6</ele>
        <time>2023-05-27T15:49:37Z</time>
      </trkpt>
      <trkpt lat="43.58299" lon="2.19395">
        <ele>180.6</ele>
        <time>2023-05-27T15:49:38Z</time>
      </trkpt>
      <trkpt lat="43.58298" lon="2.19399">
        <ele>180.6</ele>
        <time>2023-05-27T15:49:39Z</time>
      </trkpt>
      <trkpt lat="43.58298" lon="2.19404">
        <ele>180.8</ele>
        <time>2023-05-27T15:49:40Z</time>
      </trkpt>
      <trkpt lat="43.58298" lon="2.19408">
        <ele>180.8</ele>
        <time>2023-05-27T15:49:41Z</time>
      </trkpt>
      <trkpt lat="43.58298" lon="2.19412">
        <ele>180.8</ele>
        <time>2023-05-27T15:49:42Z</time>
      </trkpt>
      <trkpt lat="43.58298" lon="2.19416">
        <ele>181</ele>
        <time>2023-05-27T15:49:43Z</time>
      </trkpt>
      <trkpt lat="43.58297" lon="2.19421">
        <ele>181</ele>
        <time>2023-05-27T15:49:44Z</time>
      </trkpt>
      <trkpt lat="43.58297" lon="2.19425">
        <ele>181</ele>
        <time>2023-05-27T15:49:45Z</time>
      </trkpt>
      <trkpt lat="43.58296" lon="2.1943">
        <ele>181.2</ele>
        <time>2023-05-27T15:49:46Z</time>
      </trkpt>
      <trkpt lat="43.58296" lon="2.19434">
        <ele>181.2</ele>
        <time>2023-05-27T15:49:47Z</time>
      </trkpt>
      <trkpt lat="43.58296" lon="2.19438">
        <ele>181.2</ele>
        <time>2023-05-27T15:49:48Z</time>
      </trkpt>
      <trkpt lat="43.58295" lon="2.19443">
        <ele>181.2</ele>
        <time>2023-05-27T15:49:49Z</time>
      </trkpt>
      <trkpt lat="43.58294" lon="2.19447">
        <ele>181.4</ele>
        <time>2023-05-27T15:49:50Z</time>
      </trkpt>
      <trkpt lat="43.58293" lon="2.19452">
        <ele>181.4</ele>
        <time>2023-05-27T15:49:51Z</time>
      </trkpt>
      <trkpt lat="43.58293" lon="2.19456">
        <ele>181.4</ele>
        <time>2023-05-27T15:49:52Z</time>
      </trkpt>
      <trkpt lat="43.58292" lon="2.1946">
        <ele>181.6</ele>
        <time>2023-05-27T15:49:53Z</time>
      </trkpt>
      <trkpt lat="43.58291" lon="2.19464">
        <ele>181.6</ele>
        <time>2023-05-27T15:49:54Z</time>
      </trkpt>
      <trkpt lat="43.5829" lon="2.19469">
        <ele>181.6</ele>
        <time>2023-05-27T15:49:55Z</time>
      </trkpt>
      <trkpt lat="43.58289" lon="2.19473">
        <ele>181.6</ele>
        <time>2023-05-27T15:49:56Z</time>
      </trkpt>
      <trkpt lat="43.58288" lon="2.19477">
        <ele>181.8</ele>
        <time>2023-05-27T15:49:57Z</time>
      </trkpt>
      <trkpt lat="43.58287" lon="2.19481">
        <ele>181.8</ele>
        <time>2023-05-27T15:49:58Z</time>
      </trkpt>
      <trkpt lat="43.58285" lon="2.19486">
        <ele>181.8</ele>
        <time>2023-05-27T15:49:59Z</time>
      </trkpt>
      <trkpt lat="43.58284" lon="2.1949">
        <ele>182</ele>
        <time>2023-05-27T15:50:00Z</time>
      </trkpt>
      <trkpt lat="43.58283" lon="2.19494">
        <ele>182</ele>
        <time>2023-05-27T15:50:01Z</time>
      </trkpt>
      <trkpt lat="43.58282" lon="2.19498">
        <ele>182.2</ele>
        <time>2023-05-27T15:50:02Z</time>
      </trkpt>
      <trkpt lat="43.58281" lon="2.19502">
        <ele>182.2</ele>
        <time>2023-05-27T15:50:03Z</time>
      </trkpt>
      <trkpt lat="43.58279" lon="2.19506">
        <ele>182.2</ele>
        <time>2023-05-27T15:50:04Z</time>
      </trkpt>
      <trkpt lat="43.58277" lon="2.19511">
        <ele>182.4</ele>
        <time>2023-05-27T15:50:05Z</time>
      </trkpt>
      <trkpt lat="43.58276" lon="2.19514">
        <ele>182.4</ele>
        <time>2023-05-27T15:50:06Z</time>
      </trkpt>
      <trkpt lat="43.58274" lon="2.19519">
        <ele>182.6</ele>
        <time>2023-05-27T15:50:07Z</time>
      </trkpt>
      <trkpt lat="43.58273" lon="2.19523">
        <ele>182.6</ele>
        <time>2023-05-27T15:50:08Z</time>
      </trkpt>
      <trkpt lat="43.58272" lon="2.19527">
        <ele>182.6</ele>
        <time>2023-05-27T15:50:09Z</time>
      </trkpt>
      <trkpt lat="43.5827" lon="2.19531">
        <ele>182.8</ele>
        <time>2023-05-27T15:50:10Z</time>
      </trkpt>
      <trkpt lat="43.58269" lon="2.19535">
        <ele>182.8</ele>
        <time>2023-05-27T15:50:11Z</time>
      </trkpt>
      <trkpt lat="43.58267" lon="2.19539">
        <ele>182.8</ele>
        <time>2023-05-27T15:50:12Z</time>
      </trkpt>
      <trkpt lat="43.58266" lon="2.19543">
        <ele>183</ele>
        <time>2023-05-27T15:50:13Z</time>
      </trkpt>
      <trkpt lat="43.58264" lon="2.19547">
        <ele>183</ele>
        <time>2023-05-27T15:50:14Z</time>
      </trkpt>
      <trkpt lat="43.58263" lon="2.19551">
        <ele>183</ele>
        <time>2023-05-27T15:50:15Z</time>
      </trkpt>
      <trkpt lat="43.58261" lon="2.19555">
        <ele>183.2</ele>
        <time>2023-05-27T15:50:16Z</time>
      </trkpt>
      <trkpt lat="43.5826" lon="2.19559">
        <ele>183.2</ele>
        <time>2023-05-27T15:50:17Z</time>
      </trkpt>
      <trkpt lat="43.58258" lon="2.19563">
        <ele>183.2</ele>
        <time>2023-05-27T15:50:18Z</time>
      </trkpt>
      <trkpt lat="43.58257" lon="2.19566">
        <ele>183.4</ele>
        <time>2023-05-27T15:50:19Z</time>
      </trkpt>
      <trkpt lat="43.58256" lon="2.1957">
        <ele>183.4</ele>
        <time>2023-05-27T15:50:20Z</time>
      </trkpt>
      <trkpt lat="43.58254" lon="2.19575">
        <ele>183.4</ele>
        <time>2023-05-27T15:50:21Z</time>
      </trkpt>
      <trkpt lat="43.58252" lon="2.19579">
        <ele>183.4</ele>
        <time>2023-05-27T15:50:22Z</time>
      </trkpt>
      <trkpt lat="43.58251" lon="2.19583">
        <ele>183.6</ele>
        <time>2023-05-27T15:50:23Z</time>
      </trkpt>
      <trkpt lat="43.5825" lon="2.19587">
        <ele>183.6</ele>
        <time>2023-05-27T15:50:24Z</time>
      </trkpt>
      <trkpt lat="43.58248" lon="2.19591">
        <ele>183.6</ele>
        <time>2023-05-27T15:50:25Z</time>
      </trkpt>
      <trkpt lat="43.58247" lon="2.19595">
        <ele>183.8</ele>
        <time>2023-05-27T15:50:26Z</time>
      </trkpt>
      <trkpt lat="43.58246" lon="2.19599">
        <ele>183.8</ele>
        <time>2023-05-27T15:50:27Z</time>
      </trkpt>
      <trkpt lat="43.58244" lon="2.19603">
        <ele>183.8</ele>
        <time>2023-05-27T15:50:28Z</time>
      </trkpt>
      <trkpt lat="43.58243" lon="2.19607">
        <ele>183.8</ele>
        <time>2023-05-27T15:50:29Z</time>
      </trkpt>
      <trkpt lat="43.58241" lon="2.1961">
        <ele>184</ele>
        <time>2023-05-27T15:50:30Z</time>
      </trkpt>
      <trkpt lat="43.5824" lon="2.19615">
        <ele>184</ele>
        <time>2023-05-27T15:50:31Z</time>
      </trkpt>
      <trkpt lat="43.58239" lon="2.19618">
        <ele>184</ele>
        <time>2023-05-27T15:50:32Z</time>
      </trkpt>
      <trkpt lat="43.58237" lon="2.19622">
        <ele>184.2</ele>
        <time>2023-05-27T15:50:33Z</time>
      </trkpt>
      <trkpt lat="43.58236" lon="2.19626">
        <ele>184.2</ele>
        <time>2023-05-27T15:50:34Z</time>
      </trkpt>
      <trkpt lat="43.58234" lon="2.1963">
        <ele>184.2</ele>
        <time>2023-05-27T15:50:35Z</time>
      </trkpt>
      <trkpt lat="43.58233" lon="2.19634">
        <ele>184.2</ele>
        <time>2023-05-27T15:50:36Z</time>
      </trkpt>
      <trkpt lat="43.58232" lon="2.19637">
        <ele>184.2</ele>
        <time>2023-05-27T15:50:37Z</time>
      </trkpt>
      <trkpt lat="43.58231" lon="2.19641">
        <ele>184.2</ele>
        <time>2023-05-27T15:50:38Z</time>
      </trkpt>
      <trkpt lat="43.58229" lon="2.19646">
        <ele>184.2</ele>
        <time>2023-05-27T15:50:39Z</time>
      </trkpt>
      <trkpt lat="43.58228" lon="2.1965">
        <ele>184.2</ele>
        <time>2023-05-27T15:50:40Z</time>
      </trkpt>
      <trkpt lat="43.58226" lon="2.19653">
        <ele>184.4</ele>
        <time>2023-05-27T15:50:41Z</time>
      </trkpt>
      <trkpt lat="43.58225" lon="2.19657">
        <ele>184.4</ele>
        <time>2023-05-27T15:50:42Z</time>
      </trkpt>
      <trkpt lat="43.58223" lon="2.19662">
        <ele>184.4</ele>
        <time>2023-05-27T15:50:43Z</time>
      </trkpt>
      <trkpt lat="43.58222" lon="2.19666">
        <ele>184.4</ele>
        <time>2023-05-27T15:50:44Z</time>
      </trkpt>
      <trkpt lat="43.5822" lon="2.1967">
        <ele>184.4</ele>
        <time>2023-05-27T15:50:45Z</time>
      </trkpt>
      <trkpt lat="43.58219" lon="2.19674">
        <ele>184.6</ele>
        <time>2023-05-27T15:50:46Z</time>
      </trkpt>
      <trkpt lat="43.58218" lon="2.19678">
        <ele>184.6</ele>
        <time>2023-05-27T15:50:47Z</time>
      </trkpt>
      <trkpt lat="43.58216" lon="2.19683">
        <ele>184.6</ele>
        <time>2023-05-27T15:50:48Z</time>
      </trkpt>
      <trkpt lat="43.58215" lon="2.19687">
        <ele>184.6</ele>
        <time>2023-05-27T15:50:49Z</time>
      </trkpt>
      <trkpt lat="43.58214" lon="2.19691">
        <ele>184.6</ele>
        <time>2023-05-27T15:50:50Z</time>
      </trkpt>
      <trkpt lat="43.58212" lon="2.19695">
        <ele>184.6</ele>
        <time>2023-05-27T15:50:51Z</time>
      </trkpt>
      <trkpt lat="43.58211" lon="2.197">
        <ele>184.6</ele>
        <time>2023-05-27T15:50:52Z</time>
      </trkpt>
      <trkpt lat="43.5821" lon="2.19704">
        <ele>184.6</ele>
        <time>2023-05-27T15:50:53Z</time>
      </trkpt>
      <trkpt lat="43.58209" lon="2.19708">
        <ele>184.8</ele>
        <time>2023-05-27T15:50:54Z</time>
      </trkpt>
      <trkpt lat="43.58207" lon="2.19713">
        <ele>184.8</ele>
        <time>2023-05-27T15:50:55Z</time>
      </trkpt>
      <trkpt lat="43.58206" lon="2.19717">
        <ele>184.8</ele>
        <time>2023-05-27T15:50:56Z</time>
      </trkpt>
      <trkpt lat="43.58205" lon="2.19722">
        <ele>184.8</ele>
        <time>2023-05-27T15:50:57Z</time>
      </trkpt>
      <trkpt lat="43.58204" lon="2.19726">
        <ele>184.8</ele>
        <time>2023-05-27T15:50:58Z</time>
      </trkpt>
      <trkpt lat="43.58203" lon="2.1973">
        <ele>184.8</ele>
        <time>2023-05-27T15:50:59Z</time>
      </trkpt>
      <trkpt lat="43.58202" lon="2.19735">
        <ele>184.8</ele>
        <time>2023-05-27T15:51:00Z</time>
      </trkpt>
      <trkpt lat="43.58201" lon="2.1974">
        <ele>184.8</ele>
        <time>2023-05-27T15:51:01Z</time>
      </trkpt>
      <trkpt lat="43.58199" lon="2.19745">
        <ele>184.8</ele>
        <time>2023-05-27T15:51:02Z</time>
      </trkpt>
      <trkpt lat="43.58199" lon="2.19749">
        <ele>184.8</ele>
        <time>2023-05-27T15:51:03Z</time>
      </trkpt>
      <trkpt lat="43.58198" lon="2.19755">
        <ele>184.8</ele>
        <time>2023-05-27T15:51:04Z</time>
      </trkpt>
      <trkpt lat="43.58197" lon="2.1976">
        <ele>184.8</ele>
        <time>2023-05-27T15:51:05Z</time>
      </trkpt>
      <trkpt lat="43.58196" lon="2.19765">
        <ele>184.6</ele>
        <time>2023-05-27T15:51:06Z</time>
      </trkpt>
      <trkpt lat="43.58195" lon="2.1977">
        <ele>184.6</ele>
        <time>2023-05-27T15:51:07Z</time>
      </trkpt>
      <trkpt lat="43.58195" lon="2.19775">
        <ele>184.6</ele>
        <time>2023-05-27T15:51:08Z</time>
      </trkpt>
      <trkpt lat="43.58194" lon="2.1978">
        <ele>184.6</ele>
        <time>2023-05-27T15:51:09Z</time>
      </trkpt>
      <trkpt lat="43.58193" lon="2.19785">
        <ele>184.6</ele>
        <time>2023-05-27T15:51:10Z</time>
      </trkpt>
      <trkpt lat="43.58192" lon="2.19791">
        <ele>184.6</ele>
        <time>2023-05-27T15:51:11Z</time>
      </trkpt>
      <trkpt lat="43.58192" lon="2.19796">
        <ele>184.6</ele>
        <time>2023-05-27T15:51:12Z</time>
      </trkpt>
      <trkpt lat="43.58191" lon="2.19801">
        <ele>184.6</ele>
        <time>2023-05-27T15:51:13Z</time>
      </trkpt>
      <trkpt lat="43.5819" lon="2.19806">
        <ele>184.6</ele>
        <time>2023-05-27T15:51:14Z</time>
      </trkpt>
      <trkpt lat="43.5819" lon="2.19812">
        <ele>184.4</ele>
        <time>2023-05-27T15:51:15Z</time>
      </trkpt>
      <trkpt lat="43.5819" lon="2.19817">
        <ele>184.4</ele>
        <time>2023-05-27T15:51:16Z</time>
      </trkpt>
      <trkpt lat="43.58189" lon="2.19822">
        <ele>184.4</ele>
        <time>2023-05-27T15:51:17Z</time>
      </trkpt>
      <trkpt lat="43.58189" lon="2.19828">
        <ele>184.4</ele>
        <time>2023-05-27T15:51:18Z</time>
      </trkpt>
      <trkpt lat="43.58189" lon="2.19834">
        <ele>184.4</ele>
        <time>2023-05-27T15:51:19Z</time>
      </trkpt>
      <trkpt lat="43.58189" lon="2.19839">
        <ele>184.4</ele>
        <time>2023-05-27T15:51:20Z</time>
      </trkpt>
      <trkpt lat="43.58189" lon="2.19846">
        <ele>184.4</ele>
        <time>2023-05-27T15:51:21Z</time>
      </trkpt>
      <trkpt lat="43.58188" lon="2.19852">
        <ele>184.4</ele>
        <time>2023-05-27T15:51:22Z</time>
      </trkpt>
      <trkpt lat="43.58188" lon="2.19857">
        <ele>184.4</ele>
        <time>2023-05-27T15:51:23Z</time>
      </trkpt>
      <trkpt lat="43.58188" lon="2.19863">
        <ele>184.4</ele>
        <time>2023-05-27T15:51:24Z</time>
      </trkpt>
      <trkpt lat="43.58188" lon="2.19868">
        <ele>184.4</ele>
        <time>2023-05-27T15:51:25Z</time>
      </trkpt>
      <trkpt lat="43.58188" lon="2.19874">
        <ele>184.4</ele>
        <time>2023-05-27T15:51:26Z</time>
      </trkpt>
      <trkpt lat="43.58189" lon="2.1988">
        <ele>184.4</ele>
        <time>2023-05-27T15:51:27Z</time>
      </trkpt>
      <trkpt lat="43.58189" lon="2.19886">
        <ele>184.2</ele>
        <time>2023-05-27T15:51:28Z</time>
      </trkpt>
      <trkpt lat="43.58189" lon="2.19893">
        <ele>184.2</ele>
        <time>2023-05-27T15:51:29Z</time>
      </trkpt>
      <trkpt lat="43.5819" lon="2.19899">
        <ele>184.2</ele>
        <time>2023-05-27T15:51:30Z</time>
      </trkpt>
      <trkpt lat="43.5819" lon="2.19906">
        <ele>184.2</ele>
        <time>2023-05-27T15:51:31Z</time>
      </trkpt>
      <trkpt lat="43.5819" lon="2.19912">
        <ele>184.4</ele>
        <time>2023-05-27T15:51:32Z</time>
      </trkpt>
      <trkpt lat="43.58191" lon="2.19918">
        <ele>184.4</ele>
        <time>2023-05-27T15:51:33Z</time>
      </trkpt>
      <trkpt lat="43.58191" lon="2.19924">
        <ele>184.2</ele>
        <time>2023-05-27T15:51:34Z</time>
      </trkpt>
      <trkpt lat="43.58192" lon="2.19929">
        <ele>184.2</ele>
        <time>2023-05-27T15:51:35Z</time>
      </trkpt>
      <trkpt lat="43.58192" lon="2.19936">
        <ele>184.2</ele>
        <time>2023-05-27T15:51:36Z</time>
      </trkpt>
      <trkpt lat="43.58193" lon="2.19942">
        <ele>184.2</ele>
        <time>2023-05-27T15:51:37Z</time>
      </trkpt>
      <trkpt lat="43.58193" lon="2.19949">
        <ele>184.4</ele>
        <time>2023-05-27T15:51:38Z</time>
      </trkpt>
      <trkpt lat="43.58194" lon="2.19954">
        <ele>184.4</ele>
        <time>2023-05-27T15:51:39Z</time>
      </trkpt>
      <trkpt lat="43.58195" lon="2.19961">
        <ele>184.4</ele>
        <time>2023-05-27T15:51:40Z</time>
      </trkpt>
      <trkpt lat="43.58196" lon="2.19967">
        <ele>184.4</ele>
        <time>2023-05-27T15:51:41Z</time>
      </trkpt>
      <trkpt lat="43.58196" lon="2.19973">
        <ele>184.4</ele>
        <time>2023-05-27T15:51:42Z</time>
      </trkpt>
      <trkpt lat="43.58197" lon="2.19979">
        <ele>184.4</ele>
        <time>2023-05-27T15:51:43Z</time>
      </trkpt>
      <trkpt lat="43.58198" lon="2.19986">
        <ele>184.4</ele>
        <time>2023-05-27T15:51:44Z</time>
      </trkpt>
      <trkpt lat="43.58198" lon="2.19991">
        <ele>184.4</ele>
        <time>2023-05-27T15:51:45Z</time>
      </trkpt>
      <trkpt lat="43.58199" lon="2.19997">
        <ele>184.4</ele>
        <time>2023-05-27T15:51:46Z</time>
      </trkpt>
      <trkpt lat="43.582" lon="2.20003">
        <ele>184.4</ele>
        <time>2023-05-27T15:51:47Z</time>
      </trkpt>
      <trkpt lat="43.582" lon="2.20009">
        <ele>184.4</ele>
        <time>2023-05-27T15:51:48Z</time>
      </trkpt>
      <trkpt lat="43.58201" lon="2.20016">
        <ele>184.4</ele>
        <time>2023-05-27T15:51:49Z</time>
      </trkpt>
      <trkpt lat="43.58202" lon="2.20023">
        <ele>184.4</ele>
        <time>2023-05-27T15:51:50Z</time>
      </trkpt>
      <trkpt lat="43.58202" lon="2.20028">
        <ele>184.4</ele>
        <time>2023-05-27T15:51:51Z</time>
      </trkpt>
      <trkpt lat="43.58203" lon="2.20034">
        <ele>184.6</ele>
        <time>2023-05-27T15:51:52Z</time>
      </trkpt>
      <trkpt lat="43.58204" lon="2.20041">
        <ele>184.6</ele>
        <time>2023-05-27T15:51:53Z</time>
      </trkpt>
      <trkpt lat="43.58204" lon="2.20046">
        <ele>184.6</ele>
        <time>2023-05-27T15:51:54Z</time>
      </trkpt>
      <trkpt lat="43.58205" lon="2.20052">
        <ele>184.6</ele>
        <time>2023-05-27T15:51:55Z</time>
      </trkpt>
      <trkpt lat="43.58206" lon="2.20058">
        <ele>184.6</ele>
        <time>2023-05-27T15:51:56Z</time>
      </trkpt>
      <trkpt lat="43.58206" lon="2.20063">
        <ele>184.6</ele>
        <time>2023-05-27T15:51:57Z</time>
      </trkpt>
      <trkpt lat="43.58207" lon="2.20069">
        <ele>184.6</ele>
        <time>2023-05-27T15:51:58Z</time>
      </trkpt>
      <trkpt lat="43.58207" lon="2.20076">
        <ele>184.8</ele>
        <time>2023-05-27T15:51:59Z</time>
      </trkpt>
      <trkpt lat="43.58208" lon="2.20081">
        <ele>184.8</ele>
        <time>2023-05-27T15:52:00Z</time>
      </trkpt>
      <trkpt lat="43.58209" lon="2.20087">
        <ele>184.8</ele>
        <time>2023-05-27T15:52:01Z</time>
      </trkpt>
      <trkpt lat="43.58209" lon="2.20093">
        <ele>184.8</ele>
        <time>2023-05-27T15:52:02Z</time>
      </trkpt>
      <trkpt lat="43.5821" lon="2.20099">
        <ele>184.8</ele>
        <time>2023-05-27T15:52:03Z</time>
      </trkpt>
      <trkpt lat="43.5821" lon="2.20105">
        <ele>184.8</ele>
        <time>2023-05-27T15:52:04Z</time>
      </trkpt>
      <trkpt lat="43.58211" lon="2.20111">
        <ele>184.8</ele>
        <time>2023-05-27T15:52:05Z</time>
      </trkpt>
      <trkpt lat="43.58212" lon="2.20117">
        <ele>184.8</ele>
        <time>2023-05-27T15:52:06Z</time>
      </trkpt>
      <trkpt lat="43.58212" lon="2.20122">
        <ele>184.8</ele>
        <time>2023-05-27T15:52:07Z</time>
      </trkpt>
      <trkpt lat="43.58213" lon="2.20127">
        <ele>184.8</ele>
        <time>2023-05-27T15:52:08Z</time>
      </trkpt>
      <trkpt lat="43.58213" lon="2.20133">
        <ele>184.8</ele>
        <time>2023-05-27T15:52:09Z</time>
      </trkpt>
      <trkpt lat="43.58214" lon="2.20139">
        <ele>185</ele>
        <time>2023-05-27T15:52:10Z</time>
      </trkpt>
      <trkpt lat="43.58214" lon="2.20145">
        <ele>185</ele>
        <time>2023-05-27T15:52:11Z</time>
      </trkpt>
      <trkpt lat="43.58215" lon="2.20151">
        <ele>185</ele>
        <time>2023-05-27T15:52:12Z</time>
      </trkpt>
      <trkpt lat="43.58215" lon="2.20157">
        <ele>185</ele>
        <time>2023-05-27T15:52:13Z</time>
      </trkpt>
      <trkpt lat="43.58215" lon="2.20163">
        <ele>185</ele>
        <time>2023-05-27T15:52:14Z</time>
      </trkpt>
      <trkpt lat="43.58216" lon="2.20169">
        <ele>185</ele>
        <time>2023-05-27T15:52:15Z</time>
      </trkpt>
      <trkpt lat="43.58216" lon="2.20175">
        <ele>185</ele>
        <time>2023-05-27T15:52:16Z</time>
      </trkpt>
      <trkpt lat="43.58216" lon="2.20182">
        <ele>185</ele>
        <time>2023-05-27T15:52:17Z</time>
      </trkpt>
      <trkpt lat="43.58217" lon="2.20188">
        <ele>185</ele>
        <time>2023-05-27T15:52:18Z</time>
      </trkpt>
      <trkpt lat="43.58217" lon="2.20193">
        <ele>185.2</ele>
        <time>2023-05-27T15:52:19Z</time>
      </trkpt>
      <trkpt lat="43.58217" lon="2.202">
        <ele>185.2</ele>
        <time>2023-05-27T15:52:20Z</time>
      </trkpt>
      <trkpt lat="43.58217" lon="2.20205">
        <ele>185.2</ele>
        <time>2023-05-27T15:52:21Z</time>
      </trkpt>
      <trkpt lat="43.58217" lon="2.2021">
        <ele>185.2</ele>
        <time>2023-05-27T15:52:22Z</time>
      </trkpt>
      <trkpt lat="43.58216" lon="2.20216">
        <ele>185.2</ele>
        <time>2023-05-27T15:52:23Z</time>
      </trkpt>
      <trkpt lat="43.58216" lon="2.20222">
        <ele>185.4</ele>
        <time>2023-05-27T15:52:24Z</time>
      </trkpt>
      <trkpt lat="43.58216" lon="2.20227">
        <ele>185.4</ele>
        <time>2023-05-27T15:52:25Z</time>
      </trkpt>
      <trkpt lat="43.58216" lon="2.20232">
        <ele>185.4</ele>
        <time>2023-05-27T15:52:26Z</time>
      </trkpt>
      <trkpt lat="43.58215" lon="2.20237">
        <ele>185.4</ele>
        <time>2023-05-27T15:52:27Z</time>
      </trkpt>
      <trkpt lat="43.58215" lon="2.20243">
        <ele>185.6</ele>
        <time>2023-05-27T15:52:28Z</time>
      </trkpt>
      <trkpt lat="43.58215" lon="2.20248">
        <ele>185.6</ele>
        <time>2023-05-27T15:52:29Z</time>
      </trkpt>
      <trkpt lat="43.58214" lon="2.20253">
        <ele>185.6</ele>
        <time>2023-05-27T15:52:30Z</time>
      </trkpt>
      <trkpt lat="43.58214" lon="2.20259">
        <ele>185.6</ele>
        <time>2023-05-27T15:52:31Z</time>
      </trkpt>
      <trkpt lat="43.58213" lon="2.20263">
        <ele>185.8</ele>
        <time>2023-05-27T15:52:32Z</time>
      </trkpt>
      <trkpt lat="43.58213" lon="2.20268">
        <ele>185.8</ele>
        <time>2023-05-27T15:52:33Z</time>
      </trkpt>
      <trkpt lat="43.58212" lon="2.20273">
        <ele>185.8</ele>
        <time>2023-05-27T15:52:34Z</time>
      </trkpt>
      <trkpt lat="43.58212" lon="2.20278">
        <ele>185.8</ele>
        <time>2023-05-27T15:52:35Z</time>
      </trkpt>
      <trkpt lat="43.58211" lon="2.20282">
        <ele>185.8</ele>
        <time>2023-05-27T15:52:36Z</time>
      </trkpt>
      <trkpt lat="43.58211" lon="2.20288">
        <ele>186</ele>
        <time>2023-05-27T15:52:37Z</time>
      </trkpt>
      <trkpt lat="43.5821" lon="2.20292">
        <ele>186</ele>
        <time>2023-05-27T15:52:38Z</time>
      </trkpt>
      <trkpt lat="43.5821" lon="2.20296">
        <ele>186</ele>
        <time>2023-05-27T15:52:39Z</time>
      </trkpt>
      <trkpt lat="43.58209" lon="2.20301">
        <ele>186</ele>
        <time>2023-05-27T15:52:40Z</time>
      </trkpt>
      <trkpt lat="43.58208" lon="2.20306">
        <ele>186</ele>
        <time>2023-05-27T15:52:41Z</time>
      </trkpt>
      <trkpt lat="43.58207" lon="2.20311">
        <ele>186</ele>
        <time>2023-05-27T15:52:42Z</time>
      </trkpt>
      <trkpt lat="43.58206" lon="2.20316">
        <ele>186.2</ele>
        <time>2023-05-27T15:52:43Z</time>
      </trkpt>
      <trkpt lat="43.58206" lon="2.20321">
        <ele>186.2</ele>
        <time>2023-05-27T15:52:44Z</time>
      </trkpt>
      <trkpt lat="43.58205" lon="2.20325">
        <ele>186.2</ele>
        <time>2023-05-27T15:52:45Z</time>
      </trkpt>
      <trkpt lat="43.58204" lon="2.2033">
        <ele>186.2</ele>
        <time>2023-05-27T15:52:46Z</time>
      </trkpt>
      <trkpt lat="43.58203" lon="2.20334">
        <ele>186.2</ele>
        <time>2023-05-27T15:52:47Z</time>
      </trkpt>
      <trkpt lat="43.58202" lon="2.20338">
        <ele>186.4</ele>
        <time>2023-05-27T15:52:48Z</time>
      </trkpt>
      <trkpt lat="43.582" lon="2.20342">
        <ele>186.4</ele>
        <time>2023-05-27T15:52:49Z</time>
      </trkpt>
      <trkpt lat="43.58198" lon="2.20347">
        <ele>186.4</ele>
        <time>2023-05-27T15:52:50Z</time>
      </trkpt>
      <trkpt lat="43.58197" lon="2.2035">
        <ele>186.4</ele>
        <time>2023-05-27T15:52:51Z</time>
      </trkpt>
      <trkpt lat="43.58195" lon="2.20354">
        <ele>186.4</ele>
        <time>2023-05-27T15:52:52Z</time>
      </trkpt>
      <trkpt lat="43.58194" lon="2.20358">
        <ele>186.4</ele>
        <time>2023-05-27T15:52:53Z</time>
      </trkpt>
      <trkpt lat="43.58192" lon="2.20362">
        <ele>186.6</ele>
        <time>2023-05-27T15:52:54Z</time>
      </trkpt>
      <trkpt lat="43.5819" lon="2.20366">
        <ele>186.6</ele>
        <time>2023-05-27T15:52:55Z</time>
      </trkpt>
      <trkpt lat="43.58188" lon="2.2037">
        <ele>186.6</ele>
        <time>2023-05-27T15:52:56Z</time>
      </trkpt>
      <trkpt lat="43.58187" lon="2.20374">
        <ele>186.8</ele>
        <time>2023-05-27T15:52:57Z</time>
      </trkpt>
      <trkpt lat="43.58185" lon="2.20377">
        <ele>186.8</ele>
        <time>2023-05-27T15:52:58Z</time>
      </trkpt>
      <trkpt lat="43.58183" lon="2.20381">
        <ele>186.8</ele>
        <time>2023-05-27T15:52:59Z</time>
      </trkpt>
      <trkpt lat="43.58181" lon="2.20385">
        <ele>186.8</ele>
        <time>2023-05-27T15:53:00Z</time>
      </trkpt>
      <trkpt lat="43.58179" lon="2.20388">
        <ele>186.8</ele>
        <time>2023-05-27T15:53:01Z</time>
      </trkpt>
      <trkpt lat="43.58178" lon="2.20391">
        <ele>187</ele>
        <time>2023-05-27T15:53:02Z</time>
      </trkpt>
      <trkpt lat="43.58175" lon="2.20395">
        <ele>187</ele>
        <time>2023-05-27T15:53:03Z</time>
      </trkpt>
      <trkpt lat="43.58173" lon="2.20399">
        <ele>187</ele>
        <time>2023-05-27T15:53:04Z</time>
      </trkpt>
      <trkpt lat="43.58171" lon="2.20402">
        <ele>187.2</ele>
        <time>2023-05-27T15:53:05Z</time>
      </trkpt>
      <trkpt lat="43.58169" lon="2.20405">
        <ele>187.2</ele>
        <time>2023-05-27T15:53:06Z</time>
      </trkpt>
      <trkpt lat="43.58167" lon="2.20408">
        <ele>187.2</ele>
        <time>2023-05-27T15:53:07Z</time>
      </trkpt>
      <trkpt lat="43.58164" lon="2.20412">
        <ele>187.4</ele>
        <time>2023-05-27T15:53:08Z</time>
      </trkpt>
      <trkpt lat="43.58162" lon="2.20415">
        <ele>187.4</ele>
        <time>2023-05-27T15:53:09Z</time>
      </trkpt>
      <trkpt lat="43.5816" lon="2.20418">
        <ele>187.4</ele>
        <time>2023-05-27T15:53:10Z</time>
      </trkpt>
      <trkpt lat="43.58158" lon="2.20421">
        <ele>187.4</ele>
        <time>2023-05-27T15:53:11Z</time>
      </trkpt>
      <trkpt lat="43.58156" lon="2.20424">
        <ele>187.6</ele>
        <time>2023-05-27T15:53:12Z</time>
      </trkpt>
      <trkpt lat="43.58154" lon="2.20428">
        <ele>187.6</ele>
        <time>2023-05-27T15:53:13Z</time>
      </trkpt>
      <trkpt lat="43.58152" lon="2.20431">
        <ele>187.6</ele>
        <time>2023-05-27T15:53:14Z</time>
      </trkpt>
      <trkpt lat="43.5815" lon="2.20434">
        <ele>187.8</ele>
        <time>2023-05-27T15:53:15Z</time>
      </trkpt>
      <trkpt lat="43.58148" lon="2.20438">
        <ele>187.8</ele>
        <time>2023-05-27T15:53:16Z</time>
      </trkpt>
      <trkpt lat="43.58145" lon="2.20442">
        <ele>187.8</ele>
        <time>2023-05-27T15:53:17Z</time>
      </trkpt>
      <trkpt lat="43.58144" lon="2.20445">
        <ele>187.8</ele>
        <time>2023-05-27T15:53:18Z</time>
      </trkpt>
      <trkpt lat="43.58142" lon="2.20448">
        <ele>188</ele>
        <time>2023-05-27T15:53:19Z</time>
      </trkpt>
      <trkpt lat="43.5814" lon="2.20451">
        <ele>188</ele>
        <time>2023-05-27T15:53:20Z</time>
      </trkpt>
      <trkpt lat="43.58139" lon="2.20454">
        <ele>188</ele>
        <time>2023-05-27T15:53:21Z</time>
      </trkpt>
      <trkpt lat="43.58137" lon="2.20458">
        <ele>188</ele>
        <time>2023-05-27T15:53:22Z</time>
      </trkpt>
      <trkpt lat="43.58135" lon="2.20461">
        <ele>188.2</ele>
        <time>2023-05-27T15:53:23Z</time>
      </trkpt>
      <trkpt lat="43.58133" lon="2.20465">
        <ele>188.2</ele>
        <time>2023-05-27T15:53:24Z</time>
      </trkpt>
      <trkpt lat="43.58132" lon="2.20468">
        <ele>188.2</ele>
        <time>2023-05-27T15:53:25Z</time>
      </trkpt>
      <trkpt lat="43.5813" lon="2.20472">
        <ele>188.4</ele>
        <time>2023-05-27T15:53:26Z</time>
      </trkpt>
      <trkpt lat="43.58128" lon="2.20475">
        <ele>188.4</ele>
        <time>2023-05-27T15:53:27Z</time>
      </trkpt>
      <trkpt lat="43.58127" lon="2.20478">
        <ele>188.4</ele>
        <time>2023-05-27T15:53:28Z</time>
      </trkpt>
      <trkpt lat="43.58125" lon="2.20482">
        <ele>188.4</ele>
        <time>2023-05-27T15:53:29Z</time>
      </trkpt>
      <trkpt lat="43.58123" lon="2.20486">
        <ele>188.6</ele>
        <time>2023-05-27T15:53:30Z</time>
      </trkpt>
      <trkpt lat="43.58122" lon="2.20489">
        <ele>188.6</ele>
        <time>2023-05-27T15:53:31Z</time>
      </trkpt>
      <trkpt lat="43.58121" lon="2.20493">
        <ele>188.6</ele>
        <time>2023-05-27T15:53:32Z</time>
      </trkpt>
      <trkpt lat="43.5812" lon="2.20497">
        <ele>188.6</ele>
        <time>2023-05-27T15:53:33Z</time>
      </trkpt>
      <trkpt lat="43.58118" lon="2.20501">
        <ele>188.8</ele>
        <time>2023-05-27T15:53:34Z</time>
      </trkpt>
      <trkpt lat="43.58117" lon="2.20504">
        <ele>188.8</ele>
        <time>2023-05-27T15:53:35Z</time>
      </trkpt>
      <trkpt lat="43.58117" lon="2.20508">
        <ele>188.8</ele>
        <time>2023-05-27T15:53:36Z</time>
      </trkpt>
      <trkpt lat="43.58115" lon="2.20512">
        <ele>188.8</ele>
        <time>2023-05-27T15:53:37Z</time>
      </trkpt>
      <trkpt lat="43.58114" lon="2.20516">
        <ele>189</ele>
        <time>2023-05-27T15:53:38Z</time>
      </trkpt>
      <trkpt lat="43.58113" lon="2.2052">
        <ele>189</ele>
        <time>2023-05-27T15:53:39Z</time>
      </trkpt>
      <trkpt lat="43.58112" lon="2.20523">
        <ele>189.2</ele>
        <time>2023-05-27T15:53:40Z</time>
      </trkpt>
      <trkpt lat="43.58111" lon="2.20527">
        <ele>189.2</ele>
        <time>2023-05-27T15:53:41Z</time>
      </trkpt>
      <trkpt lat="43.58111" lon="2.2053">
        <ele>189.2</ele>
        <time>2023-05-27T15:53:42Z</time>
      </trkpt>
      <trkpt lat="43.5811" lon="2.20534">
        <ele>189.2</ele>
        <time>2023-05-27T15:53:43Z</time>
      </trkpt>
      <trkpt lat="43.58109" lon="2.20538">
        <ele>189.4</ele>
        <time>2023-05-27T15:53:44Z</time>
      </trkpt>
      <trkpt lat="43.58109" lon="2.20542">
        <ele>189.4</ele>
        <time>2023-05-27T15:53:45Z</time>
      </trkpt>
      <trkpt lat="43.58108" lon="2.20545">
        <ele>189.4</ele>
        <time>2023-05-27T15:53:46Z</time>
      </trkpt>
      <trkpt lat="43.58108" lon="2.20549">
        <ele>189.4</ele>
        <time>2023-05-27T15:53:47Z</time>
      </trkpt>
      <trkpt lat="43.58107" lon="2.20552">
        <ele>189.6</ele>
        <time>2023-05-27T15:53:48Z</time>
      </trkpt>
      <trkpt lat="43.58106" lon="2.20556">
        <ele>189.6</ele>
        <time>2023-05-27T15:53:49Z</time>
      </trkpt>
      <trkpt lat="43.58106" lon="2.20559">
        <ele>189.6</ele>
        <time>2023-05-27T15:53:50Z</time>
      </trkpt>
      <trkpt lat="43.58105" lon="2.20562">
        <ele>189.8</ele>
        <time>2023-05-27T15:53:51Z</time>
      </trkpt>
      <trkpt lat="43.58104" lon="2.20566">
        <ele>189.8</ele>
        <time>2023-05-27T15:53:52Z</time>
      </trkpt>
      <trkpt lat="43.58104" lon="2.2057">
        <ele>189.8</ele>
        <time>2023-05-27T15:53:53Z</time>
      </trkpt>
      <trkpt lat="43.58103" lon="2.20573">
        <ele>190</ele>
        <time>2023-05-27T15:53:54Z</time>
      </trkpt>
      <trkpt lat="43.58103" lon="2.20577">
        <ele>190</ele>
        <time>2023-05-27T15:53:55Z</time>
      </trkpt>
      <trkpt lat="43.58102" lon="2.2058">
        <ele>190</ele>
        <time>2023-05-27T15:53:56Z</time>
      </trkpt>
      <trkpt lat="43.58101" lon="2.20584">
        <ele>190.2</ele>
        <time>2023-05-27T15:53:57Z</time>
      </trkpt>
      <trkpt lat="43.58101" lon="2.20587">
        <ele>190.2</ele>
        <time>2023-05-27T15:53:58Z</time>
      </trkpt>
      <trkpt lat="43.581" lon="2.20591">
        <ele>190.4</ele>
        <time>2023-05-27T15:53:59Z</time>
      </trkpt>
      <trkpt lat="43.581" lon="2.20594">
        <ele>190.4</ele>
        <time>2023-05-27T15:54:00Z</time>
      </trkpt>
      <trkpt lat="43.58099" lon="2.20598">
        <ele>190.6</ele>
        <time>2023-05-27T15:54:01Z</time>
      </trkpt>
      <trkpt lat="43.58098" lon="2.20601">
        <ele>190.6</ele>
        <time>2023-05-27T15:54:02Z</time>
      </trkpt>
      <trkpt lat="43.58098" lon="2.20604">
        <ele>190.8</ele>
        <time>2023-05-27T15:54:03Z</time>
      </trkpt>
      <trkpt lat="43.58097" lon="2.20608">
        <ele>190.8</ele>
        <time>2023-05-27T15:54:04Z</time>
      </trkpt>
      <trkpt lat="43.58097" lon="2.20611">
        <ele>191</ele>
        <time>2023-05-27T15:54:05Z</time>
      </trkpt>
      <trkpt lat="43.58096" lon="2.20614">
        <ele>191</ele>
        <time>2023-05-27T15:54:06Z</time>
      </trkpt>
      <trkpt lat="43.58095" lon="2.20618">
        <ele>191</ele>
        <time>2023-05-27T15:54:07Z</time>
      </trkpt>
      <trkpt lat="43.58095" lon="2.2062">
        <ele>191.2</ele>
        <time>2023-05-27T15:54:08Z</time>
      </trkpt>
      <trkpt lat="43.58094" lon="2.20624">
        <ele>191.2</ele>
        <time>2023-05-27T15:54:09Z</time>
      </trkpt>
      <trkpt lat="43.58094" lon="2.20628">
        <ele>191.4</ele>
        <time>2023-05-27T15:54:10Z</time>
      </trkpt>
      <trkpt lat="43.58093" lon="2.2063">
        <ele>191.4</ele>
        <time>2023-05-27T15:54:11Z</time>
      </trkpt>
      <trkpt lat="43.58093" lon="2.20634">
        <ele>191.6</ele>
        <time>2023-05-27T15:54:12Z</time>
      </trkpt>
      <trkpt lat="43.58092" lon="2.20637">
        <ele>191.6</ele>
        <time>2023-05-27T15:54:13Z</time>
      </trkpt>
      <trkpt lat="43.58092" lon="2.20641">
        <ele>191.8</ele>
        <time>2023-05-27T15:54:14Z</time>
      </trkpt>
      <trkpt lat="43.58091" lon="2.20644">
        <ele>191.8</ele>
        <time>2023-05-27T15:54:15Z</time>
      </trkpt>
      <trkpt lat="43.5809" lon="2.20647">
        <ele>192</ele>
        <time>2023-05-27T15:54:16Z</time>
      </trkpt>
      <trkpt lat="43.5809" lon="2.2065">
        <ele>192</ele>
        <time>2023-05-27T15:54:17Z</time>
      </trkpt>
      <trkpt lat="43.5809" lon="2.20654">
        <ele>192.2</ele>
        <time>2023-05-27T15:54:18Z</time>
      </trkpt>
      <trkpt lat="43.58089" lon="2.20657">
        <ele>192.2</ele>
        <time>2023-05-27T15:54:19Z</time>
      </trkpt>
      <trkpt lat="43.58088" lon="2.2066">
        <ele>192.4</ele>
        <time>2023-05-27T15:54:20Z</time>
      </trkpt>
      <trkpt lat="43.58087" lon="2.20664">
        <ele>192.4</ele>
        <time>2023-05-27T15:54:21Z</time>
      </trkpt>
      <trkpt lat="43.58087" lon="2.20667">
        <ele>192.6</ele>
        <time>2023-05-27T15:54:22Z</time>
      </trkpt>
      <trkpt lat="43.58086" lon="2.20671">
        <ele>192.6</ele>
        <time>2023-05-27T15:54:23Z</time>
      </trkpt>
      <trkpt lat="43.58085" lon="2.20674">
        <ele>192.8</ele>
        <time>2023-05-27T15:54:24Z</time>
      </trkpt>
      <trkpt lat="43.58085" lon="2.20678">
        <ele>193</ele>
        <time>2023-05-27T15:54:25Z</time>
      </trkpt>
      <trkpt lat="43.58084" lon="2.20681">
        <ele>193</ele>
        <time>2023-05-27T15:54:26Z</time>
      </trkpt>
      <trkpt lat="43.58084" lon="2.20684">
        <ele>193</ele>
        <time>2023-05-27T15:54:27Z</time>
      </trkpt>
      <trkpt lat="43.58083" lon="2.20688">
        <ele>193.2</ele>
        <time>2023-05-27T15:54:28Z</time>
      </trkpt>
      <trkpt lat="43.58083" lon="2.20691">
        <ele>193.2</ele>
        <time>2023-05-27T15:54:29Z</time>
      </trkpt>
      <trkpt lat="43.58082" lon="2.20694">
        <ele>193.2</ele>
        <time>2023-05-27T15:54:30Z</time>
      </trkpt>
      <trkpt lat="43.58082" lon="2.20697">
        <ele>193.4</ele>
        <time>2023-05-27T15:54:31Z</time>
      </trkpt>
      <trkpt lat="43.58081" lon="2.207">
        <ele>193.4</ele>
        <time>2023-05-27T15:54:32Z</time>
      </trkpt>
      <trkpt lat="43.58081" lon="2.20704">
        <ele>193.6</ele>
        <time>2023-05-27T15:54:33Z</time>
      </trkpt>
      <trkpt lat="43.5808" lon="2.20707">
        <ele>193.6</ele>
        <time>2023-05-27T15:54:34Z</time>
      </trkpt>
      <trkpt lat="43.58079" lon="2.2071">
        <ele>193.8</ele>
        <time>2023-05-27T15:54:35Z</time>
      </trkpt>
      <trkpt lat="43.58079" lon="2.20714">
        <ele>193.8</ele>
        <time>2023-05-27T15:54:36Z</time>
      </trkpt>
      <trkpt lat="43.58078" lon="2.20717">
        <ele>193.8</ele>
        <time>2023-05-27T15:54:37Z</time>
      </trkpt>
      <trkpt lat="43.58077" lon="2.2072">
        <ele>194</ele>
        <time>2023-05-27T15:54:38Z</time>
      </trkpt>
      <trkpt lat="43.58077" lon="2.20723">
        <ele>194</ele>
        <time>2023-05-27T15:54:39Z</time>
      </trkpt>
      <trkpt lat="43.58076" lon="2.20727">
        <ele>194</ele>
        <time>2023-05-27T15:54:40Z</time>
      </trkpt>
      <trkpt lat="43.58075" lon="2.2073">
        <ele>194.2</ele>
        <time>2023-05-27T15:54:41Z</time>
      </trkpt>
      <trkpt lat="43.58075" lon="2.20734">
        <ele>194.2</ele>
        <time>2023-05-27T15:54:42Z</time>
      </trkpt>
      <trkpt lat="43.58074" lon="2.20737">
        <ele>194.2</ele>
        <time>2023-05-27T15:54:43Z</time>
      </trkpt>
      <trkpt lat="43.58074" lon="2.20741">
        <ele>194.4</ele>
        <time>2023-05-27T15:54:44Z</time>
      </trkpt>
      <trkpt lat="43.58073" lon="2.20745">
        <ele>194.4</ele>
        <time>2023-05-27T15:54:45Z</time>
      </trkpt>
      <trkpt lat="43.58073" lon="2.20748">
        <ele>194.4</ele>
        <time>2023-05-27T15:54:46Z</time>
      </trkpt>
      <trkpt lat="43.58072" lon="2.20752">
        <ele>194.4</ele>
        <time>2023-05-27T15:54:47Z</time>
      </trkpt>
      <trkpt lat="43.58072" lon="2.20756">
        <ele>194.4</ele>
        <time>2023-05-27T15:54:48Z</time>
      </trkpt>
      <trkpt lat="43.58071" lon="2.2076">
        <ele>194.4</ele>
        <time>2023-05-27T15:54:49Z</time>
      </trkpt>
      <trkpt lat="43.58071" lon="2.20765">
        <ele>194.4</ele>
        <time>2023-05-27T15:54:50Z</time>
      </trkpt>
      <trkpt lat="43.58071" lon="2.20769">
        <ele>194.4</ele>
        <time>2023-05-27T15:54:51Z</time>
      </trkpt>
      <trkpt lat="43.58071" lon="2.20774">
        <ele>194.4</ele>
        <time>2023-05-27T15:54:52Z</time>
      </trkpt>
      <trkpt lat="43.58071" lon="2.20779">
        <ele>194.2</ele>
        <time>2023-05-27T15:54:53Z</time>
      </trkpt>
      <trkpt lat="43.58071" lon="2.20785">
        <ele>194.2</ele>
        <time>2023-05-27T15:54:54Z</time>
      </trkpt>
      <trkpt lat="43.58071" lon="2.20789">
        <ele>194.2</ele>
        <time>2023-05-27T15:54:55Z</time>
      </trkpt>
      <trkpt lat="43.58072" lon="2.20795">
        <ele>194.2</ele>
        <time>2023-05-27T15:54:56Z</time>
      </trkpt>
      <trkpt lat="43.58072" lon="2.20801">
        <ele>194</ele>
        <time>2023-05-27T15:54:57Z</time>
      </trkpt>
      <trkpt lat="43.58073" lon="2.20808">
        <ele>194</ele>
        <time>2023-05-27T15:54:58Z</time>
      </trkpt>
      <trkpt lat="43.58073" lon="2.20814">
        <ele>193.8</ele>
        <time>2023-05-27T15:54:59Z</time>
      </trkpt>
      <trkpt lat="43.58074" lon="2.2082">
        <ele>193.8</ele>
        <time>2023-05-27T15:55:00Z</time>
      </trkpt>
      <trkpt lat="43.58075" lon="2.20827">
        <ele>193.6</ele>
        <time>2023-05-27T15:55:01Z</time>
      </trkpt>
      <trkpt lat="43.58075" lon="2.20834">
        <ele>193.4</ele>
        <time>2023-05-27T15:55:02Z</time>
      </trkpt>
      <trkpt lat="43.58076" lon="2.20841">
        <ele>193.4</ele>
        <time>2023-05-27T15:55:03Z</time>
      </trkpt>
      <trkpt lat="43.58077" lon="2.20848">
        <ele>193.2</ele>
        <time>2023-05-27T15:55:04Z</time>
      </trkpt>
      <trkpt lat="43.58078" lon="2.20855">
        <ele>193.2</ele>
        <time>2023-05-27T15:55:05Z</time>
      </trkpt>
      <trkpt lat="43.58078" lon="2.20863">
        <ele>193</ele>
        <time>2023-05-27T15:55:06Z</time>
      </trkpt>
      <trkpt lat="43.58079" lon="2.20871">
        <ele>193</ele>
        <time>2023-05-27T15:55:07Z</time>
      </trkpt>
      <trkpt lat="43.5808" lon="2.20877">
        <ele>192.8</ele>
        <time>2023-05-27T15:55:08Z</time>
      </trkpt>
      <trkpt lat="43.58081" lon="2.20885">
        <ele>192.8</ele>
        <time>2023-05-27T15:55:09Z</time>
      </trkpt>
      <trkpt lat="43.58081" lon="2.20891">
        <ele>192.6</ele>
        <time>2023-05-27T15:55:10Z</time>
      </trkpt>
      <trkpt lat="43.58082" lon="2.20899">
        <ele>192.6</ele>
        <time>2023-05-27T15:55:11Z</time>
      </trkpt>
      <trkpt lat="43.58083" lon="2.20906">
        <ele>192.6</ele>
        <time>2023-05-27T15:55:12Z</time>
      </trkpt>
      <trkpt lat="43.58083" lon="2.20912">
        <ele>192.6</ele>
        <time>2023-05-27T15:55:13Z</time>
      </trkpt>
      <trkpt lat="43.58084" lon="2.20918">
        <ele>192.6</ele>
        <time>2023-05-27T15:55:14Z</time>
      </trkpt>
      <trkpt lat="43.58084" lon="2.20924">
        <ele>192.4</ele>
        <time>2023-05-27T15:55:15Z</time>
      </trkpt>
      <trkpt lat="43.58085" lon="2.2093">
        <ele>192.6</ele>
        <time>2023-05-27T15:55:16Z</time>
      </trkpt>
      <trkpt lat="43.58085" lon="2.20937">
        <ele>192.6</ele>
        <time>2023-05-27T15:55:17Z</time>
      </trkpt>
      <trkpt lat="43.58085" lon="2.20942">
        <ele>192.6</ele>
        <time>2023-05-27T15:55:18Z</time>
      </trkpt>
      <trkpt lat="43.58085" lon="2.20947">
        <ele>192.8</ele>
        <time>2023-05-27T15:55:19Z</time>
      </trkpt>
      <trkpt lat="43.58085" lon="2.20953">
        <ele>192.8</ele>
        <time>2023-05-27T15:55:20Z</time>
      </trkpt>
      <trkpt lat="43.58086" lon="2.20957">
        <ele>193</ele>
        <time>2023-05-27T15:55:21Z</time>
      </trkpt>
      <trkpt lat="43.58086" lon="2.2096">
        <ele>193</ele>
        <time>2023-05-27T15:55:22Z</time>
      </trkpt>
      <trkpt lat="43.58086" lon="2.20964">
        <ele>193.2</ele>
        <time>2023-05-27T15:55:23Z</time>
      </trkpt>
      <trkpt lat="43.58086" lon="2.20968">
        <ele>193.4</ele>
        <time>2023-05-27T15:55:24Z</time>
      </trkpt>
      <trkpt lat="43.58086" lon="2.20972">
        <ele>193.4</ele>
        <time>2023-05-27T15:55:25Z</time>
      </trkpt>
      <trkpt lat="43.58086" lon="2.20976">
        <ele>193.6</ele>
        <time>2023-05-27T15:55:26Z</time>
      </trkpt>
      <trkpt lat="43.58086" lon="2.20979">
        <ele>193.6</ele>
        <time>2023-05-27T15:55:27Z</time>
      </trkpt>
      <trkpt lat="43.58085" lon="2.20982">
        <ele>193.8</ele>
        <time>2023-05-27T15:55:28Z</time>
      </trkpt>
      <trkpt lat="43.58086" lon="2.20986">
        <ele>194</ele>
        <time>2023-05-27T15:55:29Z</time>
      </trkpt>
      <trkpt lat="43.58086" lon="2.20989">
        <ele>194</ele>
        <time>2023-05-27T15:55:30Z</time>
      </trkpt>
      <trkpt lat="43.58086" lon="2.20993">
        <ele>194.2</ele>
        <time>2023-05-27T15:55:31Z</time>
      </trkpt>
      <trkpt lat="43.58086" lon="2.20997">
        <ele>194.2</ele>
        <time>2023-05-27T15:55:32Z</time>
      </trkpt>
      <trkpt lat="43.58086" lon="2.21001">
        <ele>194.4</ele>
        <time>2023-05-27T15:55:33Z</time>
      </trkpt>
      <trkpt lat="43.58086" lon="2.21004">
        <ele>194.6</ele>
        <time>2023-05-27T15:55:34Z</time>
      </trkpt>
      <trkpt lat="43.58086" lon="2.21008">
        <ele>194.6</ele>
        <time>2023-05-27T15:55:35Z</time>
      </trkpt>
      <trkpt lat="43.58086" lon="2.21011">
        <ele>194.8</ele>
        <time>2023-05-27T15:55:36Z</time>
      </trkpt>
      <trkpt lat="43.58085" lon="2.21015">
        <ele>194.8</ele>
        <time>2023-05-27T15:55:37Z</time>
      </trkpt>
      <trkpt lat="43.58085" lon="2.21019">
        <ele>194.8</ele>
        <time>2023-05-27T15:55:38Z</time>
      </trkpt>
      <trkpt lat="43.58085" lon="2.21023">
        <ele>195</ele>
        <time>2023-05-27T15:55:39Z</time>
      </trkpt>
      <trkpt lat="43.58085" lon="2.21026">
        <ele>195</ele>
        <time>2023-05-27T15:55:40Z</time>
      </trkpt>
      <trkpt lat="43.58085" lon="2.2103">
        <ele>195.2</ele>
        <time>2023-05-27T15:55:41Z</time>
      </trkpt>
      <trkpt lat="43.58085" lon="2.21033">
        <ele>195.2</ele>
        <time>2023-05-27T15:55:42Z</time>
      </trkpt>
      <trkpt lat="43.58084" lon="2.21037">
        <ele>195.2</ele>
        <time>2023-05-27T15:55:43Z</time>
      </trkpt>
      <trkpt lat="43.58084" lon="2.21041">
        <ele>195.4</ele>
        <time>2023-05-27T15:55:44Z</time>
      </trkpt>
      <trkpt lat="43.58084" lon="2.21044">
        <ele>195.4</ele>
        <time>2023-05-27T15:55:45Z</time>
      </trkpt>
      <trkpt lat="43.58084" lon="2.21049">
        <ele>195.4</ele>
        <time>2023-05-27T15:55:46Z</time>
      </trkpt>
      <trkpt lat="43.58084" lon="2.21053">
        <ele>195.4</ele>
        <time>2023-05-27T15:55:47Z</time>
      </trkpt>
      <trkpt lat="43.58083" lon="2.21056">
        <ele>195.4</ele>
        <time>2023-05-27T15:55:48Z</time>
      </trkpt>
      <trkpt lat="43.58083" lon="2.2106">
        <ele>195.4</ele>
        <time>2023-05-27T15:55:49Z</time>
      </trkpt>
      <trkpt lat="43.58082" lon="2.21065">
        <ele>195.4</ele>
        <time>2023-05-27T15:55:50Z</time>
      </trkpt>
      <trkpt lat="43.58082" lon="2.21069">
        <ele>195.4</ele>
        <time>2023-05-27T15:55:51Z</time>
      </trkpt>
      <trkpt lat="43.58082" lon="2.21074">
        <ele>195.4</ele>
        <time>2023-05-27T15:55:52Z</time>
      </trkpt>
      <trkpt lat="43.58081" lon="2.21079">
        <ele>195.6</ele>
        <time>2023-05-27T15:55:53Z</time>
      </trkpt>
      <trkpt lat="43.58081" lon="2.21082">
        <ele>195.6</ele>
        <time>2023-05-27T15:55:54Z</time>
      </trkpt>
      <trkpt lat="43.58081" lon="2.21088">
        <ele>195.6</ele>
        <time>2023-05-27T15:55:55Z</time>
      </trkpt>
      <trkpt lat="43.5808" lon="2.21093">
        <ele>195.6</ele>
        <time>2023-05-27T15:55:56Z</time>
      </trkpt>
      <trkpt lat="43.58079" lon="2.21097">
        <ele>195.6</ele>
        <time>2023-05-27T15:55:57Z</time>
      </trkpt>
      <trkpt lat="43.58079" lon="2.21103">
        <ele>195.6</ele>
        <time>2023-05-27T15:55:58Z</time>
      </trkpt>
      <trkpt lat="43.58078" lon="2.21108">
        <ele>195.6</ele>
        <time>2023-05-27T15:55:59Z</time>
      </trkpt>
      <trkpt lat="43.58078" lon="2.21113">
        <ele>195.4</ele>
        <time>2023-05-27T15:56:00Z</time>
      </trkpt>
      <trkpt lat="43.58077" lon="2.21118">
        <ele>195.4</ele>
        <time>2023-05-27T15:56:01Z</time>
      </trkpt>
      <trkpt lat="43.58077" lon="2.21124">
        <ele>195.4</ele>
        <time>2023-05-27T15:56:02Z</time>
      </trkpt>
      <trkpt lat="43.58076" lon="2.21129">
        <ele>195.4</ele>
        <time>2023-05-27T15:56:03Z</time>
      </trkpt>
      <trkpt lat="43.58076" lon="2.21135">
        <ele>195.2</ele>
        <time>2023-05-27T15:56:04Z</time>
      </trkpt>
      <trkpt lat="43.58075" lon="2.2114">
        <ele>195.2</ele>
        <time>2023-05-27T15:56:05Z</time>
      </trkpt>
      <trkpt lat="43.58075" lon="2.21146">
        <ele>195</ele>
        <time>2023-05-27T15:56:06Z</time>
      </trkpt>
      <trkpt lat="43.58074" lon="2.21151">
        <ele>195</ele>
        <time>2023-05-27T15:56:07Z</time>
      </trkpt>
      <trkpt lat="43.58074" lon="2.21157">
        <ele>195</ele>
        <time>2023-05-27T15:56:08Z</time>
      </trkpt>
      <trkpt lat="43.58073" lon="2.21163">
        <ele>194.8</ele>
        <time>2023-05-27T15:56:09Z</time>
      </trkpt>
      <trkpt lat="43.58073" lon="2.2117">
        <ele>194.8</ele>
        <time>2023-05-27T15:56:10Z</time>
      </trkpt>
      <trkpt lat="43.58073" lon="2.21175">
        <ele>194.6</ele>
        <time>2023-05-27T15:56:11Z</time>
      </trkpt>
      <trkpt lat="43.58072" lon="2.21181">
        <ele>194.6</ele>
        <time>2023-05-27T15:56:12Z</time>
      </trkpt>
      <trkpt lat="43.58071" lon="2.21187">
        <ele>194.4</ele>
        <time>2023-05-27T15:56:13Z</time>
      </trkpt>
      <trkpt lat="43.58071" lon="2.21193">
        <ele>194.4</ele>
        <time>2023-05-27T15:56:14Z</time>
      </trkpt>
      <trkpt lat="43.5807" lon="2.21199">
        <ele>194.2</ele>
        <time>2023-05-27T15:56:15Z</time>
      </trkpt>
      <trkpt lat="43.58069" lon="2.21206">
        <ele>194.2</ele>
        <time>2023-05-27T15:56:16Z</time>
      </trkpt>
      <trkpt lat="43.58069" lon="2.21213">
        <ele>194</ele>
        <time>2023-05-27T15:56:17Z</time>
      </trkpt>
      <trkpt lat="43.58068" lon="2.2122">
        <ele>193.8</ele>
        <time>2023-05-27T15:56:18Z</time>
      </trkpt>
      <trkpt lat="43.58067" lon="2.21228">
        <ele>193.6</ele>
        <time>2023-05-27T15:56:19Z</time>
      </trkpt>
      <trkpt lat="43.58066" lon="2.21234">
        <ele>193.4</ele>
        <time>2023-05-27T15:56:20Z</time>
      </trkpt>
      <trkpt lat="43.58066" lon="2.21242">
        <ele>193.4</ele>
        <time>2023-05-27T15:56:21Z</time>
      </trkpt>
      <trkpt lat="43.58065" lon="2.2125">
        <ele>193.2</ele>
        <time>2023-05-27T15:56:22Z</time>
      </trkpt>
      <trkpt lat="43.58065" lon="2.21257">
        <ele>193</ele>
        <time>2023-05-27T15:56:23Z</time>
      </trkpt>
      <trkpt lat="43.58064" lon="2.21265">
        <ele>192.8</ele>
        <time>2023-05-27T15:56:24Z</time>
      </trkpt>
      <trkpt lat="43.58063" lon="2.21274">
        <ele>192.6</ele>
        <time>2023-05-27T15:56:25Z</time>
      </trkpt>
      <trkpt lat="43.58062" lon="2.21282">
        <ele>192.4</ele>
        <time>2023-05-27T15:56:26Z</time>
      </trkpt>
      <trkpt lat="43.58061" lon="2.21291">
        <ele>192.2</ele>
        <time>2023-05-27T15:56:27Z</time>
      </trkpt>
      <trkpt lat="43.58061" lon="2.21299">
        <ele>191.8</ele>
        <time>2023-05-27T15:56:28Z</time>
      </trkpt>
      <trkpt lat="43.5806" lon="2.21309">
        <ele>191.6</ele>
        <time>2023-05-27T15:56:29Z</time>
      </trkpt>
      <trkpt lat="43.58059" lon="2.21318">
        <ele>191.4</ele>
        <time>2023-05-27T15:56:30Z</time>
      </trkpt>
      <trkpt lat="43.58058" lon="2.21327">
        <ele>191</ele>
        <time>2023-05-27T15:56:31Z</time>
      </trkpt>
      <trkpt lat="43.58058" lon="2.21336">
        <ele>190.8</ele>
        <time>2023-05-27T15:56:32Z</time>
      </trkpt>
      <trkpt lat="43.58057" lon="2.21345">
        <ele>190.6</ele>
        <time>2023-05-27T15:56:33Z</time>
      </trkpt>
      <trkpt lat="43.58056" lon="2.21355">
        <ele>190.2</ele>
        <time>2023-05-27T15:56:34Z</time>
      </trkpt>
      <trkpt lat="43.58055" lon="2.21364">
        <ele>190</ele>
        <time>2023-05-27T15:56:35Z</time>
      </trkpt>
      <trkpt lat="43.58054" lon="2.21374">
        <ele>189.8</ele>
        <time>2023-05-27T15:56:36Z</time>
      </trkpt>
      <trkpt lat="43.58053" lon="2.21384">
        <ele>189.4</ele>
        <time>2023-05-27T15:56:37Z</time>
      </trkpt>
      <trkpt lat="43.58053" lon="2.21392">
        <ele>189.2</ele>
        <time>2023-05-27T15:56:38Z</time>
      </trkpt>
      <trkpt lat="43.58051" lon="2.21401">
        <ele>189</ele>
        <time>2023-05-27T15:56:39Z</time>
      </trkpt>
      <trkpt lat="43.5805" lon="2.21411">
        <ele>189</ele>
        <time>2023-05-27T15:56:40Z</time>
      </trkpt>
      <trkpt lat="43.5805" lon="2.21419">
        <ele>188.8</ele>
        <time>2023-05-27T15:56:41Z</time>
      </trkpt>
      <trkpt lat="43.58049" lon="2.21428">
        <ele>188.6</ele>
        <time>2023-05-27T15:56:42Z</time>
      </trkpt>
      <trkpt lat="43.58048" lon="2.21437">
        <ele>188.4</ele>
        <time>2023-05-27T15:56:43Z</time>
      </trkpt>
      <trkpt lat="43.58047" lon="2.21446">
        <ele>188.2</ele>
        <time>2023-05-27T15:56:44Z</time>
      </trkpt>
      <trkpt lat="43.58047" lon="2.21457">
        <ele>188</ele>
        <time>2023-05-27T15:56:45Z</time>
      </trkpt>
      <trkpt lat="43.58046" lon="2.21466">
        <ele>187.8</ele>
        <time>2023-05-27T15:56:46Z</time>
      </trkpt>
      <trkpt lat="43.58044" lon="2.21474">
        <ele>187.8</ele>
        <time>2023-05-27T15:56:47Z</time>
      </trkpt>
      <trkpt lat="43.58043" lon="2.21483">
        <ele>187.6</ele>
        <time>2023-05-27T15:56:48Z</time>
      </trkpt>
      <trkpt lat="43.58042" lon="2.21491">
        <ele>187.4</ele>
        <time>2023-05-27T15:56:49Z</time>
      </trkpt>
      <trkpt lat="43.58041" lon="2.215">
        <ele>187.2</ele>
        <time>2023-05-27T15:56:50Z</time>
      </trkpt>
      <trkpt lat="43.5804" lon="2.21509">
        <ele>187.2</ele>
        <time>2023-05-27T15:56:51Z</time>
      </trkpt>
      <trkpt lat="43.5804" lon="2.21518">
        <ele>187</ele>
        <time>2023-05-27T15:56:52Z</time>
      </trkpt>
      <trkpt lat="43.58039" lon="2.21528">
        <ele>187</ele>
        <time>2023-05-27T15:56:53Z</time>
      </trkpt>
      <trkpt lat="43.58038" lon="2.21537">
        <ele>186.8</ele>
        <time>2023-05-27T15:56:54Z</time>
      </trkpt>
      <trkpt lat="43.58037" lon="2.21544">
        <ele>186.6</ele>
        <time>2023-05-27T15:56:55Z</time>
      </trkpt>
      <trkpt lat="43.58036" lon="2.21553">
        <ele>186.6</ele>
        <time>2023-05-27T15:56:56Z</time>
      </trkpt>
      <trkpt lat="43.58035" lon="2.21562">
        <ele>186.4</ele>
        <time>2023-05-27T15:56:57Z</time>
      </trkpt>
      <trkpt lat="43.58034" lon="2.2157">
        <ele>186.2</ele>
        <time>2023-05-27T15:56:58Z</time>
      </trkpt>
      <trkpt lat="43.58034" lon="2.21578">
        <ele>186.2</ele>
        <time>2023-05-27T15:56:59Z</time>
      </trkpt>
      <trkpt lat="43.58033" lon="2.21586">
        <ele>186</ele>
        <time>2023-05-27T15:57:00Z</time>
      </trkpt>
      <trkpt lat="43.58032" lon="2.21595">
        <ele>185.8</ele>
        <time>2023-05-27T15:57:01Z</time>
      </trkpt>
      <trkpt lat="43.58031" lon="2.21603">
        <ele>185.8</ele>
        <time>2023-05-27T15:57:02Z</time>
      </trkpt>
      <trkpt lat="43.5803" lon="2.21611">
        <ele>185.8</ele>
        <time>2023-05-27T15:57:03Z</time>
      </trkpt>
      <trkpt lat="43.58029" lon="2.21618">
        <ele>185.6</ele>
        <time>2023-05-27T15:57:04Z</time>
      </trkpt>
      <trkpt lat="43.58028" lon="2.21626">
        <ele>185.6</ele>
        <time>2023-05-27T15:57:05Z</time>
      </trkpt>
      <trkpt lat="43.58027" lon="2.21635">
        <ele>185.6</ele>
        <time>2023-05-27T15:57:06Z</time>
      </trkpt>
      <trkpt lat="43.58027" lon="2.21642">
        <ele>185.6</ele>
        <time>2023-05-27T15:57:07Z</time>
      </trkpt>
      <trkpt lat="43.58026" lon="2.21649">
        <ele>185.4</ele>
        <time>2023-05-27T15:57:08Z</time>
      </trkpt>
      <trkpt lat="43.58025" lon="2.21655">
        <ele>185.4</ele>
        <time>2023-05-27T15:57:09Z</time>
      </trkpt>
      <trkpt lat="43.58024" lon="2.21661">
        <ele>185.4</ele>
        <time>2023-05-27T15:57:10Z</time>
      </trkpt>
      <trkpt lat="43.58024" lon="2.21668">
        <ele>185.2</ele>
        <time>2023-05-27T15:57:11Z</time>
      </trkpt>
      <trkpt lat="43.58023" lon="2.21675">
        <ele>185.2</ele>
        <time>2023-05-27T15:57:12Z</time>
      </trkpt>
      <trkpt lat="43.58022" lon="2.21681">
        <ele>185.2</ele>
        <time>2023-05-27T15:57:13Z</time>
      </trkpt>
      <trkpt lat="43.58021" lon="2.21688">
        <ele>185.4</ele>
        <time>2023-05-27T15:57:14Z</time>
      </trkpt>
      <trkpt lat="43.58021" lon="2.21693">
        <ele>185.4</ele>
        <time>2023-05-27T15:57:15Z</time>
      </trkpt>
      <trkpt lat="43.5802" lon="2.21699">
        <ele>185.4</ele>
        <time>2023-05-27T15:57:16Z</time>
      </trkpt>
      <trkpt lat="43.58019" lon="2.21705">
        <ele>185.4</ele>
        <time>2023-05-27T15:57:17Z</time>
      </trkpt>
      <trkpt lat="43.58018" lon="2.21711">
        <ele>185.4</ele>
        <time>2023-05-27T15:57:18Z</time>
      </trkpt>
      <trkpt lat="43.58017" lon="2.21717">
        <ele>185.6</ele>
        <time>2023-05-27T15:57:19Z</time>
      </trkpt>
      <trkpt lat="43.58016" lon="2.21723">
        <ele>185.6</ele>
        <time>2023-05-27T15:57:20Z</time>
      </trkpt>
      <trkpt lat="43.58014" lon="2.21728">
        <ele>185.6</ele>
        <time>2023-05-27T15:57:21Z</time>
      </trkpt>
      <trkpt lat="43.58013" lon="2.21733">
        <ele>185.6</ele>
        <time>2023-05-27T15:57:22Z</time>
      </trkpt>
      <trkpt lat="43.58011" lon="2.21739">
        <ele>185.8</ele>
        <time>2023-05-27T15:57:23Z</time>
      </trkpt>
      <trkpt lat="43.5801" lon="2.21743">
        <ele>185.8</ele>
        <time>2023-05-27T15:57:24Z</time>
      </trkpt>
      <trkpt lat="43.58008" lon="2.21748">
        <ele>185.8</ele>
        <time>2023-05-27T15:57:25Z</time>
      </trkpt>
      <trkpt lat="43.58007" lon="2.21753">
        <ele>186</ele>
        <time>2023-05-27T15:57:26Z</time>
      </trkpt>
      <trkpt lat="43.58005" lon="2.21757">
        <ele>186</ele>
        <time>2023-05-27T15:57:27Z</time>
      </trkpt>
      <trkpt lat="43.58003" lon="2.21763">
        <ele>186</ele>
        <time>2023-05-27T15:57:28Z</time>
      </trkpt>
      <trkpt lat="43.58002" lon="2.21768">
        <ele>186</ele>
        <time>2023-05-27T15:57:29Z</time>
      </trkpt>
      <trkpt lat="43.58" lon="2.21772">
        <ele>186.2</ele>
        <time>2023-05-27T15:57:30Z</time>
      </trkpt>
      <trkpt lat="43.57998" lon="2.21777">
        <ele>186.2</ele>
        <time>2023-05-27T15:57:31Z</time>
      </trkpt>
      <trkpt lat="43.57997" lon="2.21782">
        <ele>186.2</ele>
        <time>2023-05-27T15:57:32Z</time>
      </trkpt>
      <trkpt lat="43.57995" lon="2.21787">
        <ele>186.2</ele>
        <time>2023-05-27T15:57:33Z</time>
      </trkpt>
      <trkpt lat="43.57993" lon="2.21792">
        <ele>186.2</ele>
        <time>2023-05-27T15:57:34Z</time>
      </trkpt>
      <trkpt lat="43.57991" lon="2.21798">
        <ele>186.2</ele>
        <time>2023-05-27T15:57:35Z</time>
      </trkpt>
      <trkpt lat="43.57989" lon="2.21802">
        <ele>186.2</ele>
        <time>2023-05-27T15:57:36Z</time>
      </trkpt>
      <trkpt lat="43.57987" lon="2.21807">
        <ele>186.2</ele>
        <time>2023-05-27T15:57:37Z</time>
      </trkpt>
      <trkpt lat="43.57985" lon="2.21812">
        <ele>186.2</ele>
        <time>2023-05-27T15:57:38Z</time>
      </trkpt>
      <trkpt lat="43.57983" lon="2.21816">
        <ele>186.2</ele>
        <time>2023-05-27T15:57:39Z</time>
      </trkpt>
      <trkpt lat="43.57981" lon="2.21822">
        <ele>186.2</ele>
        <time>2023-05-27T15:57:40Z</time>
      </trkpt>
      <trkpt lat="43.57979" lon="2.21827">
        <ele>186.2</ele>
        <time>2023-05-27T15:57:41Z</time>
      </trkpt>
      <trkpt lat="43.57977" lon="2.21832">
        <ele>186.2</ele>
        <time>2023-05-27T15:57:42Z</time>
      </trkpt>
      <trkpt lat="43.57975" lon="2.21838">
        <ele>186.2</ele>
        <time>2023-05-27T15:57:43Z</time>
      </trkpt>
      <trkpt lat="43.57973" lon="2.21842">
        <ele>186</ele>
        <time>2023-05-27T15:57:44Z</time>
      </trkpt>
      <trkpt lat="43.57971" lon="2.21848">
        <ele>186</ele>
        <time>2023-05-27T15:57:45Z</time>
      </trkpt>
      <trkpt lat="43.57969" lon="2.21855">
        <ele>186</ele>
        <time>2023-05-27T15:57:46Z</time>
      </trkpt>
      <trkpt lat="43.57967" lon="2.2186">
        <ele>186</ele>
        <time>2023-05-27T15:57:47Z</time>
      </trkpt>
      <trkpt lat="43.57965" lon="2.21865">
        <ele>186</ele>
        <time>2023-05-27T15:57:48Z</time>
      </trkpt>
      <trkpt lat="43.57963" lon="2.21872">
        <ele>186</ele>
        <time>2023-05-27T15:57:49Z</time>
      </trkpt>
      <trkpt lat="43.5796" lon="2.21877">
        <ele>185.8</ele>
        <time>2023-05-27T15:57:50Z</time>
      </trkpt>
      <trkpt lat="43.57959" lon="2.21882">
        <ele>185.8</ele>
        <time>2023-05-27T15:57:51Z</time>
      </trkpt>
      <trkpt lat="43.57957" lon="2.21888">
        <ele>185.8</ele>
        <time>2023-05-27T15:57:52Z</time>
      </trkpt>
      <trkpt lat="43.57955" lon="2.21895">
        <ele>185.8</ele>
        <time>2023-05-27T15:57:53Z</time>
      </trkpt>
      <trkpt lat="43.57953" lon="2.21902">
        <ele>185.6</ele>
        <time>2023-05-27T15:57:54Z</time>
      </trkpt>
      <trkpt lat="43.57951" lon="2.21909">
        <ele>185.6</ele>
        <time>2023-05-27T15:57:55Z</time>
      </trkpt>
      <trkpt lat="43.57949" lon="2.21917">
        <ele>185.4</ele>
        <time>2023-05-27T15:57:56Z</time>
      </trkpt>
      <trkpt lat="43.57948" lon="2.21925">
        <ele>185.2</ele>
        <time>2023-05-27T15:57:57Z</time>
      </trkpt>
      <trkpt lat="43.57946" lon="2.21934">
        <ele>185</ele>
        <time>2023-05-27T15:57:58Z</time>
      </trkpt>
      <trkpt lat="43.57945" lon="2.21942">
        <ele>184.6</ele>
        <time>2023-05-27T15:57:59Z</time>
      </trkpt>
      <trkpt lat="43.57943" lon="2.2195">
        <ele>184.4</ele>
        <time>2023-05-27T15:58:00Z</time>
      </trkpt>
      <trkpt lat="43.57942" lon="2.2196">
        <ele>184</ele>
        <time>2023-05-27T15:58:01Z</time>
      </trkpt>
      <trkpt lat="43.5794" lon="2.21969">
        <ele>183.8</ele>
        <time>2023-05-27T15:58:02Z</time>
      </trkpt>
      <trkpt lat="43.57939" lon="2.21979">
        <ele>183.6</ele>
        <time>2023-05-27T15:58:03Z</time>
      </trkpt>
      <trkpt lat="43.57938" lon="2.2199">
        <ele>183.2</ele>
        <time>2023-05-27T15:58:04Z</time>
      </trkpt>
      <trkpt lat="43.57937" lon="2.22">
        <ele>183</ele>
        <time>2023-05-27T15:58:05Z</time>
      </trkpt>
      <trkpt lat="43.57935" lon="2.22009">
        <ele>182.6</ele>
        <time>2023-05-27T15:58:06Z</time>
      </trkpt>
      <trkpt lat="43.57934" lon="2.2202">
        <ele>182.4</ele>
        <time>2023-05-27T15:58:07Z</time>
      </trkpt>
      <trkpt lat="43.57933" lon="2.22029">
        <ele>182.2</ele>
        <time>2023-05-27T15:58:08Z</time>
      </trkpt>
      <trkpt lat="43.57932" lon="2.22038">
        <ele>182.2</ele>
        <time>2023-05-27T15:58:09Z</time>
      </trkpt>
      <trkpt lat="43.5793" lon="2.22048">
        <ele>182</ele>
        <time>2023-05-27T15:58:10Z</time>
      </trkpt>
      <trkpt lat="43.57929" lon="2.22057">
        <ele>182</ele>
        <time>2023-05-27T15:58:11Z</time>
      </trkpt>
      <trkpt lat="43.57928" lon="2.22066">
        <ele>181.8</ele>
        <time>2023-05-27T15:58:12Z</time>
      </trkpt>
      <trkpt lat="43.57927" lon="2.22073">
        <ele>181.6</ele>
        <time>2023-05-27T15:58:13Z</time>
      </trkpt>
      <trkpt lat="43.57926" lon="2.2208">
        <ele>181.6</ele>
        <time>2023-05-27T15:58:14Z</time>
      </trkpt>
      <trkpt lat="43.57925" lon="2.22088">
        <ele>181.4</ele>
        <time>2023-05-27T15:58:15Z</time>
      </trkpt>
      <trkpt lat="43.57923" lon="2.22097">
        <ele>181.4</ele>
        <time>2023-05-27T15:58:16Z</time>
      </trkpt>
      <trkpt lat="43.57922" lon="2.22105">
        <ele>181.4</ele>
        <time>2023-05-27T15:58:17Z</time>
      </trkpt>
      <trkpt lat="43.5792" lon="2.22112">
        <ele>181.4</ele>
        <time>2023-05-27T15:58:18Z</time>
      </trkpt>
      <trkpt lat="43.57918" lon="2.22119">
        <ele>181.4</ele>
        <time>2023-05-27T15:58:19Z</time>
      </trkpt>
      <trkpt lat="43.57916" lon="2.22126">
        <ele>181.4</ele>
        <time>2023-05-27T15:58:20Z</time>
      </trkpt>
      <trkpt lat="43.57914" lon="2.22133">
        <ele>181.4</ele>
        <time>2023-05-27T15:58:21Z</time>
      </trkpt>
      <trkpt lat="43.57912" lon="2.22138">
        <ele>181.4</ele>
        <time>2023-05-27T15:58:22Z</time>
      </trkpt>
      <trkpt lat="43.5791" lon="2.22144">
        <ele>181.4</ele>
        <time>2023-05-27T15:58:23Z</time>
      </trkpt>
      <trkpt lat="43.57908" lon="2.2215">
        <ele>181.4</ele>
        <time>2023-05-27T15:58:24Z</time>
      </trkpt>
      <trkpt lat="43.57906" lon="2.22155">
        <ele>181.4</ele>
        <time>2023-05-27T15:58:25Z</time>
      </trkpt>
      <trkpt lat="43.57904" lon="2.22159">
        <ele>181.6</ele>
        <time>2023-05-27T15:58:26Z</time>
      </trkpt>
      <trkpt lat="43.57901" lon="2.22164">
        <ele>181.6</ele>
        <time>2023-05-27T15:58:27Z</time>
      </trkpt>
      <trkpt lat="43.57899" lon="2.22169">
        <ele>181.6</ele>
        <time>2023-05-27T15:58:28Z</time>
      </trkpt>
      <trkpt lat="43.57896" lon="2.22173">
        <ele>181.8</ele>
        <time>2023-05-27T15:58:29Z</time>
      </trkpt>
      <trkpt lat="43.57894" lon="2.22178">
        <ele>181.8</ele>
        <time>2023-05-27T15:58:30Z</time>
      </trkpt>
      <trkpt lat="43.57891" lon="2.22181">
        <ele>182</ele>
        <time>2023-05-27T15:58:31Z</time>
      </trkpt>
      <trkpt lat="43.57889" lon="2.22184">
        <ele>182</ele>
        <time>2023-05-27T15:58:32Z</time>
      </trkpt>
      <trkpt lat="43.57886" lon="2.22188">
        <ele>182.2</ele>
        <time>2023-05-27T15:58:33Z</time>
      </trkpt>
      <trkpt lat="43.57883" lon="2.22192">
        <ele>182.2</ele>
        <time>2023-05-27T15:58:34Z</time>
      </trkpt>
      <trkpt lat="43.57881" lon="2.22195">
        <ele>182.4</ele>
        <time>2023-05-27T15:58:35Z</time>
      </trkpt>
      <trkpt lat="43.57878" lon="2.22197">
        <ele>182.4</ele>
        <time>2023-05-27T15:58:36Z</time>
      </trkpt>
      <trkpt lat="43.57875" lon="2.222">
        <ele>182.6</ele>
        <time>2023-05-27T15:58:37Z</time>
      </trkpt>
      <trkpt lat="43.57872" lon="2.22203">
        <ele>182.6</ele>
        <time>2023-05-27T15:58:38Z</time>
      </trkpt>
      <trkpt lat="43.5787" lon="2.22206">
        <ele>182.8</ele>
        <time>2023-05-27T15:58:39Z</time>
      </trkpt>
      <trkpt lat="43.57867" lon="2.22208">
        <ele>182.8</ele>
        <time>2023-05-27T15:58:40Z</time>
      </trkpt>
      <trkpt lat="43.57864" lon="2.22211">
        <ele>183</ele>
        <time>2023-05-27T15:58:41Z</time>
      </trkpt>
      <trkpt lat="43.57861" lon="2.22214">
        <ele>183.2</ele>
        <time>2023-05-27T15:58:42Z</time>
      </trkpt>
      <trkpt lat="43.57858" lon="2.22216">
        <ele>183.2</ele>
        <time>2023-05-27T15:58:43Z</time>
      </trkpt>
      <trkpt lat="43.57855" lon="2.22219">
        <ele>183.4</ele>
        <time>2023-05-27T15:58:44Z</time>
      </trkpt>
      <trkpt lat="43.57852" lon="2.22221">
        <ele>183.4</ele>
        <time>2023-05-27T15:58:45Z</time>
      </trkpt>
      <trkpt lat="43.57849" lon="2.22223">
        <ele>183.6</ele>
        <time>2023-05-27T15:58:46Z</time>
      </trkpt>
      <trkpt lat="43.57845" lon="2.22224">
        <ele>183.6</ele>
        <time>2023-05-27T15:58:47Z</time>
      </trkpt>
      <trkpt lat="43.57842" lon="2.22226">
        <ele>183.8</ele>
        <time>2023-05-27T15:58:48Z</time>
      </trkpt>
      <trkpt lat="43.57839" lon="2.22227">
        <ele>183.8</ele>
        <time>2023-05-27T15:58:49Z</time>
      </trkpt>
      <trkpt lat="43.57835" lon="2.22229">
        <ele>183.8</ele>
        <time>2023-05-27T15:58:50Z</time>
      </trkpt>
      <trkpt lat="43.57832" lon="2.2223">
        <ele>183.8</ele>
        <time>2023-05-27T15:58:51Z</time>
      </trkpt>
      <trkpt lat="43.57828" lon="2.22232">
        <ele>184</ele>
        <time>2023-05-27T15:58:52Z</time>
      </trkpt>
      <trkpt lat="43.57825" lon="2.22233">
        <ele>184</ele>
        <time>2023-05-27T15:58:53Z</time>
      </trkpt>
      <trkpt lat="43.57821" lon="2.22234">
        <ele>184</ele>
        <time>2023-05-27T15:58:54Z</time>
      </trkpt>
      <trkpt lat="43.57818" lon="2.22235">
        <ele>184</ele>
        <time>2023-05-27T15:58:55Z</time>
      </trkpt>
      <trkpt lat="43.57814" lon="2.22236">
        <ele>184.2</ele>
        <time>2023-05-27T15:58:56Z</time>
      </trkpt>
      <trkpt lat="43.5781" lon="2.22237">
        <ele>184.2</ele>
        <time>2023-05-27T15:58:57Z</time>
      </trkpt>
      <trkpt lat="43.57807" lon="2.22237">
        <ele>184.2</ele>
        <time>2023-05-27T15:58:58Z</time>
      </trkpt>
      <trkpt lat="43.57804" lon="2.22238">
        <ele>184.2</ele>
        <time>2023-05-27T15:58:59Z</time>
      </trkpt>
      <trkpt lat="43.578" lon="2.22238">
        <ele>184.2</ele>
        <time>2023-05-27T15:59:00Z</time>
      </trkpt>
      <trkpt lat="43.57796" lon="2.22238">
        <ele>184.2</ele>
        <time>2023-05-27T15:59:01Z</time>
      </trkpt>
      <trkpt lat="43.57792" lon="2.22238">
        <ele>184.2</ele>
        <time>2023-05-27T15:59:02Z</time>
      </trkpt>
      <trkpt lat="43.57789" lon="2.22238">
        <ele>184.2</ele>
        <time>2023-05-27T15:59:03Z</time>
      </trkpt>
      <trkpt lat="43.57784" lon="2.22238">
        <ele>184.2</ele>
        <time>2023-05-27T15:59:04Z</time>
      </trkpt>
      <trkpt lat="43.5778" lon="2.22238">
        <ele>184.2</ele>
        <time>2023-05-27T15:59:05Z</time>
      </trkpt>
      <trkpt lat="43.57776" lon="2.22238">
        <ele>184.2</ele>
        <time>2023-05-27T15:59:06Z</time>
      </trkpt>
      <trkpt lat="43.57772" lon="2.22238">
        <ele>184.2</ele>
        <time>2023-05-27T15:59:07Z</time>
      </trkpt>
      <trkpt lat="43.57768" lon="2.22238">
        <ele>184.2</ele>
        <time>2023-05-27T15:59:08Z</time>
      </trkpt>
      <trkpt lat="43.57765" lon="2.22238">
        <ele>184.2</ele>
        <time>2023-05-27T15:59:09Z</time>
      </trkpt>
      <trkpt lat="43.57762" lon="2.22238">
        <ele>184.2</ele>
        <time>2023-05-27T15:59:10Z</time>
      </trkpt>
      <trkpt lat="43.57758" lon="2.22239">
        <ele>184.2</ele>
        <time>2023-05-27T15:59:11Z</time>
      </trkpt>
      <trkpt lat="43.57755" lon="2.22239">
        <ele>184.2</ele>
        <time>2023-05-27T15:59:12Z</time>
      </trkpt>
      <trkpt lat="43.57751" lon="2.2224">
        <ele>184.2</ele>
        <time>2023-05-27T15:59:13Z</time>
      </trkpt>
      <trkpt lat="43.57748" lon="2.22242">
        <ele>184.2</ele>
        <time>2023-05-27T15:59:14Z</time>
      </trkpt>
      <trkpt lat="43.57744" lon="2.22243">
        <ele>184</ele>
        <time>2023-05-27T15:59:15Z</time>
      </trkpt>
      <trkpt lat="43.57741" lon="2.22245">
        <ele>184</ele>
        <time>2023-05-27T15:59:16Z</time>
      </trkpt>
      <trkpt lat="43.57738" lon="2.22248">
        <ele>183.8</ele>
        <time>2023-05-27T15:59:17Z</time>
      </trkpt>
      <trkpt lat="43.57735" lon="2.22251">
        <ele>183.8</ele>
        <time>2023-05-27T15:59:18Z</time>
      </trkpt>
      <trkpt lat="43.57732" lon="2.22253">
        <ele>183.8</ele>
        <time>2023-05-27T15:59:19Z</time>
      </trkpt>
      <trkpt lat="43.5773" lon="2.22255">
        <ele>183.8</ele>
        <time>2023-05-27T15:59:20Z</time>
      </trkpt>
      <trkpt lat="43.57727" lon="2.22259">
        <ele>183.6</ele>
        <time>2023-05-27T15:59:21Z</time>
      </trkpt>
      <trkpt lat="43.57724" lon="2.22262">
        <ele>183.6</ele>
        <time>2023-05-27T15:59:22Z</time>
      </trkpt>
      <trkpt lat="43.57722" lon="2.22265">
        <ele>183.6</ele>
        <time>2023-05-27T15:59:23Z</time>
      </trkpt>
      <trkpt lat="43.5772" lon="2.22268">
        <ele>183.6</ele>
        <time>2023-05-27T15:59:24Z</time>
      </trkpt>
      <trkpt lat="43.57719" lon="2.2227">
        <ele>183.6</ele>
        <time>2023-05-27T15:59:25Z</time>
      </trkpt>
      <trkpt lat="43.57719" lon="2.22271">
        <ele>183.6</ele>
        <time>2023-05-27T15:59:26Z</time>
      </trkpt>
      <trkpt lat="43.57718" lon="2.22273">
        <ele>183.4</ele>
        <time>2023-05-27T16:00:34Z</time>
      </trkpt>
      <trkpt lat="43.57718" lon="2.22274">
        <ele>183.4</ele>
        <time>2023-05-27T16:00:35Z</time>
      </trkpt>
      <trkpt lat="43.57718" lon="2.22276">
        <ele>183.4</ele>
        <time>2023-05-27T16:00:36Z</time>
      </trkpt>
      <trkpt lat="43.57719" lon="2.22277">
        <ele>183.4</ele>
        <time>2023-05-27T16:00:37Z</time>
      </trkpt>
      <trkpt lat="43.5772" lon="2.22278">
        <ele>183.4</ele>
        <time>2023-05-27T16:00:38Z</time>
      </trkpt>
      <trkpt lat="43.5772" lon="2.2228">
        <ele>183.4</ele>
        <time>2023-05-27T16:00:39Z</time>
      </trkpt>
      <trkpt lat="43.57721" lon="2.22282">
        <ele>183.4</ele>
        <time>2023-05-27T16:00:40Z</time>
      </trkpt>
      <trkpt lat="43.57722" lon="2.22284">
        <ele>183.4</ele>
        <time>2023-05-27T16:00:41Z</time>
      </trkpt>
      <trkpt lat="43.57724" lon="2.22285">
        <ele>183.4</ele>
        <time>2023-05-27T16:00:42Z</time>
      </trkpt>
      <trkpt lat="43.57726" lon="2.22287">
        <ele>183.4</ele>
        <time>2023-05-27T16:00:43Z</time>
      </trkpt>
      <trkpt lat="43.57728" lon="2.22288">
        <ele>183.4</ele>
        <time>2023-05-27T16:00:44Z</time>
      </trkpt>
      <trkpt lat="43.5773" lon="2.22289">
        <ele>183.4</ele>
        <time>2023-05-27T16:00:45Z</time>
      </trkpt>
      <trkpt lat="43.57733" lon="2.2229">
        <ele>183.6</ele>
        <time>2023-05-27T16:00:46Z</time>
      </trkpt>
      <trkpt lat="43.57735" lon="2.22292">
        <ele>183.6</ele>
        <time>2023-05-27T16:00:47Z</time>
      </trkpt>
      <trkpt lat="43.57738" lon="2.22293">
        <ele>183.6</ele>
        <time>2023-05-27T16:00:48Z</time>
      </trkpt>
      <trkpt lat="43.57742" lon="2.22295">
        <ele>183.6</ele>
        <time>2023-05-27T16:00:49Z</time>
      </trkpt>
      <trkpt lat="43.57745" lon="2.22297">
        <ele>183.4</ele>
        <time>2023-05-27T16:00:50Z</time>
      </trkpt>
      <trkpt lat="43.57748" lon="2.22299">
        <ele>183.4</ele>
        <time>2023-05-27T16:00:51Z</time>
      </trkpt>
      <trkpt lat="43.5775" lon="2.22301">
        <ele>183.4</ele>
        <time>2023-05-27T16:00:52Z</time>
      </trkpt>
      <trkpt lat="43.57754" lon="2.22303">
        <ele>183.4</ele>
        <time>2023-05-27T16:00:53Z</time>
      </trkpt>
      <trkpt lat="43.57757" lon="2.22304">
        <ele>183.4</ele>
        <time>2023-05-27T16:00:54Z</time>
      </trkpt>
      <trkpt lat="43.57761" lon="2.22305">
        <ele>183.4</ele>
        <time>2023-05-27T16:00:55Z</time>
      </trkpt>
      <trkpt lat="43.57765" lon="2.22306">
        <ele>183.4</ele>
        <time>2023-05-27T16:00:56Z</time>
      </trkpt>
      <trkpt lat="43.57768" lon="2.22306">
        <ele>183.4</ele>
        <time>2023-05-27T16:00:57Z</time>
      </trkpt>
      <trkpt lat="43.57772" lon="2.22306">
        <ele>183.4</ele>
        <time>2023-05-27T16:00:58Z</time>
      </trkpt>
      <trkpt lat="43.57775" lon="2.22305">
        <ele>183.4</ele>
        <time>2023-05-27T16:00:59Z</time>
      </trkpt>
      <trkpt lat="43.57778" lon="2.22305">
        <ele>183.4</ele>
        <time>2023-05-27T16:01:00Z</time>
      </trkpt>
      <trkpt lat="43.57782" lon="2.22304">
        <ele>183.4</ele>
        <time>2023-05-27T16:01:01Z</time>
      </trkpt>
      <trkpt lat="43.57786" lon="2.22304">
        <ele>183.4</ele>
        <time>2023-05-27T16:01:02Z</time>
      </trkpt>
      <trkpt lat="43.5779" lon="2.22303">
        <ele>183.4</ele>
        <time>2023-05-27T16:01:03Z</time>
      </trkpt>
      <trkpt lat="43.57794" lon="2.22303">
        <ele>183.4</ele>
        <time>2023-05-27T16:01:04Z</time>
      </trkpt>
      <trkpt lat="43.57798" lon="2.22302">
        <ele>183.4</ele>
        <time>2023-05-27T16:01:05Z</time>
      </trkpt>
      <trkpt lat="43.57802" lon="2.223">
        <ele>183.4</ele>
        <time>2023-05-27T16:01:06Z</time>
      </trkpt>
      <trkpt lat="43.57806" lon="2.22299">
        <ele>183.4</ele>
        <time>2023-05-27T16:01:07Z</time>
      </trkpt>
      <trkpt lat="43.5781" lon="2.22298">
        <ele>183.2</ele>
        <time>2023-05-27T16:01:08Z</time>
      </trkpt>
      <trkpt lat="43.57814" lon="2.22296">
        <ele>183.2</ele>
        <time>2023-05-27T16:01:09Z</time>
      </trkpt>
      <trkpt lat="43.57819" lon="2.22295">
        <ele>183.2</ele>
        <time>2023-05-27T16:01:10Z</time>
      </trkpt>
      <trkpt lat="43.57824" lon="2.22293">
        <ele>183.2</ele>
        <time>2023-05-27T16:01:11Z</time>
      </trkpt>
      <trkpt lat="43.57829" lon="2.22292">
        <ele>183.2</ele>
        <time>2023-05-27T16:01:12Z</time>
      </trkpt>
      <trkpt lat="43.57833" lon="2.22291">
        <ele>183</ele>
        <time>2023-05-27T16:01:13Z</time>
      </trkpt>
      <trkpt lat="43.57838" lon="2.22289">
        <ele>183</ele>
        <time>2023-05-27T16:01:14Z</time>
      </trkpt>
      <trkpt lat="43.57843" lon="2.22288">
        <ele>183</ele>
        <time>2023-05-27T16:01:15Z</time>
      </trkpt>
      <trkpt lat="43.57848" lon="2.22287">
        <ele>182.8</ele>
        <time>2023-05-27T16:01:16Z</time>
      </trkpt>
      <trkpt lat="43.57853" lon="2.22287">
        <ele>182.8</ele>
        <time>2023-05-27T16:01:17Z</time>
      </trkpt>
      <trkpt lat="43.57859" lon="2.22286">
        <ele>182.6</ele>
        <time>2023-05-27T16:01:18Z</time>
      </trkpt>
      <trkpt lat="43.57865" lon="2.22286">
        <ele>182.4</ele>
        <time>2023-05-27T16:01:19Z</time>
      </trkpt>
      <trkpt lat="43.57871" lon="2.22286">
        <ele>182.2</ele>
        <time>2023-05-27T16:01:20Z</time>
      </trkpt>
      <trkpt lat="43.57877" lon="2.22286">
        <ele>182</ele>
        <time>2023-05-27T16:01:21Z</time>
      </trkpt>
      <trkpt lat="43.57883" lon="2.22287">
        <ele>181.8</ele>
        <time>2023-05-27T16:01:22Z</time>
      </trkpt>
      <trkpt lat="43.5789" lon="2.22287">
        <ele>181.8</ele>
        <time>2023-05-27T16:01:23Z</time>
      </trkpt>
      <trkpt lat="43.57896" lon="2.22288">
        <ele>181.6</ele>
        <time>2023-05-27T16:01:24Z</time>
      </trkpt>
      <trkpt lat="43.57903" lon="2.2229">
        <ele>181.2</ele>
        <time>2023-05-27T16:01:25Z</time>
      </trkpt>
      <trkpt lat="43.57909" lon="2.22291">
        <ele>181</ele>
        <time>2023-05-27T16:01:26Z</time>
      </trkpt>
      <trkpt lat="43.57915" lon="2.22293">
        <ele>180.8</ele>
        <time>2023-05-27T16:01:27Z</time>
      </trkpt>
      <trkpt lat="43.57923" lon="2.22296">
        <ele>180.6</ele>
        <time>2023-05-27T16:01:28Z</time>
      </trkpt>
      <trkpt lat="43.5793" lon="2.22298">
        <ele>180.4</ele>
        <time>2023-05-27T16:01:29Z</time>
      </trkpt>
      <trkpt lat="43.57935" lon="2.223">
        <ele>180.4</ele>
        <time>2023-05-27T16:01:30Z</time>
      </trkpt>
      <trkpt lat="43.57942" lon="2.22302">
        <ele>180.2</ele>
        <time>2023-05-27T16:01:31Z</time>
      </trkpt>
      <trkpt lat="43.57949" lon="2.22304">
        <ele>180.2</ele>
        <time>2023-05-27T16:01:32Z</time>
      </trkpt>
      <trkpt lat="43.57955" lon="2.22306">
        <ele>180.2</ele>
        <time>2023-05-27T16:01:33Z</time>
      </trkpt>
      <trkpt lat="43.5796" lon="2.22308">
        <ele>180.2</ele>
        <time>2023-05-27T16:01:34Z</time>
      </trkpt>
      <trkpt lat="43.57965" lon="2.2231">
        <ele>180</ele>
        <time>2023-05-27T16:01:35Z</time>
      </trkpt>
      <trkpt lat="43.57971" lon="2.22312">
        <ele>180</ele>
        <time>2023-05-27T16:01:36Z</time>
      </trkpt>
      <trkpt lat="43.57977" lon="2.22314">
        <ele>180</ele>
        <time>2023-05-27T16:01:37Z</time>
      </trkpt>
      <trkpt lat="43.57982" lon="2.22316">
        <ele>180</ele>
        <time>2023-05-27T16:01:38Z</time>
      </trkpt>
      <trkpt lat="43.57988" lon="2.22318">
        <ele>180</ele>
        <time>2023-05-27T16:01:39Z</time>
      </trkpt>
      <trkpt lat="43.57993" lon="2.2232">
        <ele>179.8</ele>
        <time>2023-05-27T16:01:40Z</time>
      </trkpt>
      <trkpt lat="43.57999" lon="2.22323">
        <ele>179.8</ele>
        <time>2023-05-27T16:01:41Z</time>
      </trkpt>
      <trkpt lat="43.58004" lon="2.22325">
        <ele>179.8</ele>
        <time>2023-05-27T16:01:42Z</time>
      </trkpt>
      <trkpt lat="43.58009" lon="2.22329">
        <ele>179.8</ele>
        <time>2023-05-27T16:01:43Z</time>
      </trkpt>
      <trkpt lat="43.58015" lon="2.22332">
        <ele>179.8</ele>
        <time>2023-05-27T16:01:44Z</time>
      </trkpt>
      <trkpt lat="43.5802" lon="2.22335">
        <ele>179.6</ele>
        <time>2023-05-27T16:01:45Z</time>
      </trkpt>
      <trkpt lat="43.58024" lon="2.22339">
        <ele>179.6</ele>
        <time>2023-05-27T16:01:46Z</time>
      </trkpt>
      <trkpt lat="43.58029" lon="2.22343">
        <ele>179.6</ele>
        <time>2023-05-27T16:01:47Z</time>
      </trkpt>
      <trkpt lat="43.58033" lon="2.22346">
        <ele>179.6</ele>
        <time>2023-05-27T16:01:48Z</time>
      </trkpt>
      <trkpt lat="43.58037" lon="2.22351">
        <ele>179.6</ele>
        <time>2023-05-27T16:01:49Z</time>
      </trkpt>
      <trkpt lat="43.58042" lon="2.22355">
        <ele>179.6</ele>
        <time>2023-05-27T16:01:50Z</time>
      </trkpt>
      <trkpt lat="43.58046" lon="2.22359">
        <ele>179.8</ele>
        <time>2023-05-27T16:01:51Z</time>
      </trkpt>
      <trkpt lat="43.5805" lon="2.22362">
        <ele>179.8</ele>
        <time>2023-05-27T16:01:52Z</time>
      </trkpt>
      <trkpt lat="43.58054" lon="2.22366">
        <ele>180</ele>
        <time>2023-05-27T16:01:53Z</time>
      </trkpt>
      <trkpt lat="43.58058" lon="2.22371">
        <ele>180</ele>
        <time>2023-05-27T16:01:54Z</time>
      </trkpt>
      <trkpt lat="43.58062" lon="2.22375">
        <ele>180</ele>
        <time>2023-05-27T16:01:55Z</time>
      </trkpt>
      <trkpt lat="43.58065" lon="2.22379">
        <ele>180.2</ele>
        <time>2023-05-27T16:01:56Z</time>
      </trkpt>
      <trkpt lat="43.58068" lon="2.22382">
        <ele>180.2</ele>
        <time>2023-05-27T16:01:57Z</time>
      </trkpt>
      <trkpt lat="43.58072" lon="2.22386">
        <ele>180.4</ele>
        <time>2023-05-27T16:01:58Z</time>
      </trkpt>
      <trkpt lat="43.58075" lon="2.2239">
        <ele>180.4</ele>
        <time>2023-05-27T16:01:59Z</time>
      </trkpt>
      <trkpt lat="43.58079" lon="2.22394">
        <ele>180.4</ele>
        <time>2023-05-27T16:02:00Z</time>
      </trkpt>
      <trkpt lat="43.58082" lon="2.22397">
        <ele>180.6</ele>
        <time>2023-05-27T16:02:01Z</time>
      </trkpt>
      <trkpt lat="43.58085" lon="2.22401">
        <ele>180.6</ele>
        <time>2023-05-27T16:02:02Z</time>
      </trkpt>
      <trkpt lat="43.58088" lon="2.22405">
        <ele>180.8</ele>
        <time>2023-05-27T16:02:03Z</time>
      </trkpt>
      <trkpt lat="43.58091" lon="2.22408">
        <ele>180.8</ele>
        <time>2023-05-27T16:02:04Z</time>
      </trkpt>
      <trkpt lat="43.58095" lon="2.22412">
        <ele>180.8</ele>
        <time>2023-05-27T16:02:05Z</time>
      </trkpt>
      <trkpt lat="43.58098" lon="2.22415">
        <ele>180.8</ele>
        <time>2023-05-27T16:02:06Z</time>
      </trkpt>
      <trkpt lat="43.58101" lon="2.22419">
        <ele>181</ele>
        <time>2023-05-27T16:02:07Z</time>
      </trkpt>
      <trkpt lat="43.58105" lon="2.22422">
        <ele>181</ele>
        <time>2023-05-27T16:02:08Z</time>
      </trkpt>
      <trkpt lat="43.58108" lon="2.22425">
        <ele>181</ele>
        <time>2023-05-27T16:02:09Z</time>
      </trkpt>
      <trkpt lat="43.5811" lon="2.22429">
        <ele>181.2</ele>
        <time>2023-05-27T16:02:10Z</time>
      </trkpt>
      <trkpt lat="43.58113" lon="2.22432">
        <ele>181.2</ele>
        <time>2023-05-27T16:02:11Z</time>
      </trkpt>
      <trkpt lat="43.58116" lon="2.22435">
        <ele>181.2</ele>
        <time>2023-05-27T16:02:12Z</time>
      </trkpt>
      <trkpt lat="43.58119" lon="2.22438">
        <ele>181.2</ele>
        <time>2023-05-27T16:02:13Z</time>
      </trkpt>
      <trkpt lat="43.58122" lon="2.22441">
        <ele>181.4</ele>
        <time>2023-05-27T16:02:14Z</time>
      </trkpt>
      <trkpt lat="43.58125" lon="2.22445">
        <ele>181.4</ele>
        <time>2023-05-27T16:02:15Z</time>
      </trkpt>
      <trkpt lat="43.58128" lon="2.22448">
        <ele>181.4</ele>
        <time>2023-05-27T16:02:16Z</time>
      </trkpt>
      <trkpt lat="43.58131" lon="2.22451">
        <ele>181.6</ele>
        <time>2023-05-27T16:02:17Z</time>
      </trkpt>
      <trkpt lat="43.58134" lon="2.22454">
        <ele>181.6</ele>
        <time>2023-05-27T16:02:18Z</time>
      </trkpt>
      <trkpt lat="43.58136" lon="2.22457">
        <ele>181.6</ele>
        <time>2023-05-27T16:02:19Z</time>
      </trkpt>
      <trkpt lat="43.58139" lon="2.2246">
        <ele>181.6</ele>
        <time>2023-05-27T16:02:20Z</time>
      </trkpt>
      <trkpt lat="43.58141" lon="2.22463">
        <ele>181.8</ele>
        <time>2023-05-27T16:02:21Z</time>
      </trkpt>
      <trkpt lat="43.58144" lon="2.22465">
        <ele>181.8</ele>
        <time>2023-05-27T16:02:22Z</time>
      </trkpt>
      <trkpt lat="43.58147" lon="2.22468">
        <ele>182</ele>
        <time>2023-05-27T16:02:23Z</time>
      </trkpt>
      <trkpt lat="43.58149" lon="2.22471">
        <ele>182</ele>
        <time>2023-05-27T16:02:24Z</time>
      </trkpt>
      <trkpt lat="43.58153" lon="2.22475">
        <ele>182.2</ele>
        <time>2023-05-27T16:02:25Z</time>
      </trkpt>
      <trkpt lat="43.58155" lon="2.22477">
        <ele>182.2</ele>
        <time>2023-05-27T16:02:26Z</time>
      </trkpt>
      <trkpt lat="43.58158" lon="2.2248">
        <ele>182.4</ele>
        <time>2023-05-27T16:02:27Z</time>
      </trkpt>
      <trkpt lat="43.58161" lon="2.22483">
        <ele>182.4</ele>
        <time>2023-05-27T16:02:28Z</time>
      </trkpt>
      <trkpt lat="43.58163" lon="2.22486">
        <ele>182.4</ele>
        <time>2023-05-27T16:02:29Z</time>
      </trkpt>
      <trkpt lat="43.58166" lon="2.22489">
        <ele>182.6</ele>
        <time>2023-05-27T16:02:30Z</time>
      </trkpt>
      <trkpt lat="43.58169" lon="2.22492">
        <ele>182.6</ele>
        <time>2023-05-27T16:02:31Z</time>
      </trkpt>
      <trkpt lat="43.58172" lon="2.22494">
        <ele>182.6</ele>
        <time>2023-05-27T16:02:32Z</time>
      </trkpt>
      <trkpt lat="43.58175" lon="2.22498">
        <ele>182.8</ele>
        <time>2023-05-27T16:02:33Z</time>
      </trkpt>
      <trkpt lat="43.58177" lon="2.225">
        <ele>182.8</ele>
        <time>2023-05-27T16:02:34Z</time>
      </trkpt>
      <trkpt lat="43.58179" lon="2.22503">
        <ele>182.8</ele>
        <time>2023-05-27T16:02:35Z</time>
      </trkpt>
      <trkpt lat="43.58182" lon="2.22506">
        <ele>183</ele>
        <time>2023-05-27T16:02:36Z</time>
      </trkpt>
      <trkpt lat="43.58185" lon="2.2251">
        <ele>183</ele>
        <time>2023-05-27T16:02:37Z</time>
      </trkpt>
      <trkpt lat="43.58187" lon="2.22512">
        <ele>183.2</ele>
        <time>2023-05-27T16:02:38Z</time>
      </trkpt>
      <trkpt lat="43.5819" lon="2.22515">
        <ele>183.2</ele>
        <time>2023-05-27T16:02:39Z</time>
      </trkpt>
      <trkpt lat="43.58193" lon="2.22517">
        <ele>183.4</ele>
        <time>2023-05-27T16:02:40Z</time>
      </trkpt>
      <trkpt lat="43.58195" lon="2.22519">
        <ele>183.4</ele>
        <time>2023-05-27T16:02:41Z</time>
      </trkpt>
      <trkpt lat="43.58198" lon="2.22522">
        <ele>183.6</ele>
        <time>2023-05-27T16:02:42Z</time>
      </trkpt>
      <trkpt lat="43.582" lon="2.22524">
        <ele>183.6</ele>
        <time>2023-05-27T16:02:43Z</time>
      </trkpt>
      <trkpt lat="43.58202" lon="2.22527">
        <ele>183.8</ele>
        <time>2023-05-27T16:02:44Z</time>
      </trkpt>
      <trkpt lat="43.58204" lon="2.22529">
        <ele>184</ele>
        <time>2023-05-27T16:02:45Z</time>
      </trkpt>
      <trkpt lat="43.58206" lon="2.22532">
        <ele>184</ele>
        <time>2023-05-27T16:02:46Z</time>
      </trkpt>
      <trkpt lat="43.58208" lon="2.22534">
        <ele>184.2</ele>
        <time>2023-05-27T16:02:47Z</time>
      </trkpt>
      <trkpt lat="43.5821" lon="2.22535">
        <ele>184.2</ele>
        <time>2023-05-27T16:02:48Z</time>
      </trkpt>
      <trkpt lat="43.58212" lon="2.22537">
        <ele>184.4</ele>
        <time>2023-05-27T16:02:49Z</time>
      </trkpt>
      <trkpt lat="43.58213" lon="2.22539">
        <ele>184.4</ele>
        <time>2023-05-27T16:02:50Z</time>
      </trkpt>
      <trkpt lat="43.58215" lon="2.22542">
        <ele>184.6</ele>
        <time>2023-05-27T16:02:51Z</time>
      </trkpt>
      <trkpt lat="43.58217" lon="2.22543">
        <ele>184.6</ele>
        <time>2023-05-27T16:02:52Z</time>
      </trkpt>
      <trkpt lat="43.58219" lon="2.22545">
        <ele>184.8</ele>
        <time>2023-05-27T16:02:53Z</time>
      </trkpt>
      <trkpt lat="43.58221" lon="2.22547">
        <ele>184.8</ele>
        <time>2023-05-27T16:02:54Z</time>
      </trkpt>
      <trkpt lat="43.58223" lon="2.22549">
        <ele>185</ele>
        <time>2023-05-27T16:02:55Z</time>
      </trkpt>
      <trkpt lat="43.58225" lon="2.22551">
        <ele>185</ele>
        <time>2023-05-27T16:02:56Z</time>
      </trkpt>
      <trkpt lat="43.58226" lon="2.22553">
        <ele>185.2</ele>
        <time>2023-05-27T16:02:57Z</time>
      </trkpt>
      <trkpt lat="43.58228" lon="2.22555">
        <ele>185.2</ele>
        <time>2023-05-27T16:02:58Z</time>
      </trkpt>
      <trkpt lat="43.5823" lon="2.22558">
        <ele>185.4</ele>
        <time>2023-05-27T16:02:59Z</time>
      </trkpt>
      <trkpt lat="43.58232" lon="2.2256">
        <ele>185.4</ele>
        <time>2023-05-27T16:03:00Z</time>
      </trkpt>
      <trkpt lat="43.58234" lon="2.22562">
        <ele>185.6</ele>
        <time>2023-05-27T16:03:01Z</time>
      </trkpt>
      <trkpt lat="43.58236" lon="2.22564">
        <ele>185.6</ele>
        <time>2023-05-27T16:03:02Z</time>
      </trkpt>
      <trkpt lat="43.58238" lon="2.22566">
        <ele>185.8</ele>
        <time>2023-05-27T16:03:03Z</time>
      </trkpt>
      <trkpt lat="43.5824" lon="2.22568">
        <ele>185.8</ele>
        <time>2023-05-27T16:03:04Z</time>
      </trkpt>
      <trkpt lat="43.58242" lon="2.22569">
        <ele>185.8</ele>
        <time>2023-05-27T16:03:05Z</time>
      </trkpt>
      <trkpt lat="43.58244" lon="2.22571">
        <ele>186</ele>
        <time>2023-05-27T16:03:06Z</time>
      </trkpt>
      <trkpt lat="43.58246" lon="2.22573">
        <ele>186</ele>
        <time>2023-05-27T16:03:07Z</time>
      </trkpt>
      <trkpt lat="43.58248" lon="2.22575">
        <ele>186.2</ele>
        <time>2023-05-27T16:03:08Z</time>
      </trkpt>
      <trkpt lat="43.5825" lon="2.22577">
        <ele>186.2</ele>
        <time>2023-05-27T16:03:09Z</time>
      </trkpt>
      <trkpt lat="43.58252" lon="2.22578">
        <ele>186.4</ele>
        <time>2023-05-27T16:03:10Z</time>
      </trkpt>
      <trkpt lat="43.58254" lon="2.2258">
        <ele>186.4</ele>
        <time>2023-05-27T16:03:11Z</time>
      </trkpt>
      <trkpt lat="43.58256" lon="2.22582">
        <ele>186.4</ele>
        <time>2023-05-27T16:03:12Z</time>
      </trkpt>
      <trkpt lat="43.58258" lon="2.22584">
        <ele>186.6</ele>
        <time>2023-05-27T16:03:13Z</time>
      </trkpt>
      <trkpt lat="43.5826" lon="2.22586">
        <ele>186.8</ele>
        <time>2023-05-27T16:03:14Z</time>
      </trkpt>
      <trkpt lat="43.58262" lon="2.22588">
        <ele>186.8</ele>
        <time>2023-05-27T16:03:15Z</time>
      </trkpt>
      <trkpt lat="43.58264" lon="2.22589">
        <ele>187</ele>
        <time>2023-05-27T16:03:16Z</time>
      </trkpt>
      <trkpt lat="43.58265" lon="2.22591">
        <ele>187</ele>
        <time>2023-05-27T16:03:17Z</time>
      </trkpt>
      <trkpt lat="43.58267" lon="2.22593">
        <ele>187.2</ele>
        <time>2023-05-27T16:03:18Z</time>
      </trkpt>
      <trkpt lat="43.5827" lon="2.22595">
        <ele>187.2</ele>
        <time>2023-05-27T16:03:19Z</time>
      </trkpt>
      <trkpt lat="43.58272" lon="2.22597">
        <ele>187.2</ele>
        <time>2023-05-27T16:03:20Z</time>
      </trkpt>
      <trkpt lat="43.58273" lon="2.22599">
        <ele>187.4</ele>
        <time>2023-05-27T16:03:21Z</time>
      </trkpt>
      <trkpt lat="43.58276" lon="2.22601">
        <ele>187.4</ele>
        <time>2023-05-27T16:03:22Z</time>
      </trkpt>
      <trkpt lat="43.58278" lon="2.22604">
        <ele>187.6</ele>
        <time>2023-05-27T16:03:23Z</time>
      </trkpt>
      <trkpt lat="43.5828" lon="2.22605">
        <ele>187.6</ele>
        <time>2023-05-27T16:03:24Z</time>
      </trkpt>
      <trkpt lat="43.58282" lon="2.22607">
        <ele>187.8</ele>
        <time>2023-05-27T16:03:25Z</time>
      </trkpt>
      <trkpt lat="43.58285" lon="2.2261">
        <ele>187.8</ele>
        <time>2023-05-27T16:03:26Z</time>
      </trkpt>
      <trkpt lat="43.58286" lon="2.22611">
        <ele>187.8</ele>
        <time>2023-05-27T16:03:27Z</time>
      </trkpt>
      <trkpt lat="43.58288" lon="2.22613">
        <ele>188</ele>
        <time>2023-05-27T16:03:28Z</time>
      </trkpt>
      <trkpt lat="43.5829" lon="2.22615">
        <ele>188</ele>
        <time>2023-05-27T16:03:29Z</time>
      </trkpt>
      <trkpt lat="43.58292" lon="2.22617">
        <ele>188</ele>
        <time>2023-05-27T16:03:30Z</time>
      </trkpt>
      <trkpt lat="43.58294" lon="2.22619">
        <ele>188.2</ele>
        <time>2023-05-27T16:03:31Z</time>
      </trkpt>
      <trkpt lat="43.58296" lon="2.22621">
        <ele>188.2</ele>
        <time>2023-05-27T16:03:32Z</time>
      </trkpt>
      <trkpt lat="43.58298" lon="2.22623">
        <ele>188.4</ele>
        <time>2023-05-27T16:03:33Z</time>
      </trkpt>
      <trkpt lat="43.583" lon="2.22625">
        <ele>188.4</ele>
        <time>2023-05-27T16:03:34Z</time>
      </trkpt>
      <trkpt lat="43.58302" lon="2.22627">
        <ele>188.4</ele>
        <time>2023-05-27T16:03:35Z</time>
      </trkpt>
      <trkpt lat="43.58304" lon="2.22629">
        <ele>188.6</ele>
        <time>2023-05-27T16:03:36Z</time>
      </trkpt>
      <trkpt lat="43.58306" lon="2.2263">
        <ele>188.6</ele>
        <time>2023-05-27T16:03:37Z</time>
      </trkpt>
      <trkpt lat="43.58308" lon="2.22632">
        <ele>188.6</ele>
        <time>2023-05-27T16:03:38Z</time>
      </trkpt>
      <trkpt lat="43.5831" lon="2.22634">
        <ele>188.8</ele>
        <time>2023-05-27T16:03:39Z</time>
      </trkpt>
      <trkpt lat="43.58312" lon="2.22636">
        <ele>188.8</ele>
        <time>2023-05-27T16:03:40Z</time>
      </trkpt>
      <trkpt lat="43.58313" lon="2.22638">
        <ele>188.8</ele>
        <time>2023-05-27T16:03:41Z</time>
      </trkpt>
      <trkpt lat="43.58315" lon="2.2264">
        <ele>189</ele>
        <time>2023-05-27T16:03:42Z</time>
      </trkpt>
      <trkpt lat="43.58317" lon="2.22643">
        <ele>189</ele>
        <time>2023-05-27T16:03:43Z</time>
      </trkpt>
      <trkpt lat="43.58319" lon="2.22645">
        <ele>189</ele>
        <time>2023-05-27T16:03:44Z</time>
      </trkpt>
      <trkpt lat="43.58321" lon="2.22647">
        <ele>189.2</ele>
        <time>2023-05-27T16:03:45Z</time>
      </trkpt>
      <trkpt lat="43.58322" lon="2.22649">
        <ele>189.2</ele>
        <time>2023-05-27T16:03:46Z</time>
      </trkpt>
      <trkpt lat="43.58324" lon="2.22651">
        <ele>189.4</ele>
        <time>2023-05-27T16:03:47Z</time>
      </trkpt>
      <trkpt lat="43.58325" lon="2.22653">
        <ele>189.4</ele>
        <time>2023-05-27T16:03:48Z</time>
      </trkpt>
      <trkpt lat="43.58325" lon="2.22656">
        <ele>189.4</ele>
        <time>2023-05-27T16:03:49Z</time>
      </trkpt>
      <trkpt lat="43.58326" lon="2.22659">
        <ele>189.6</ele>
        <time>2023-05-27T16:03:50Z</time>
      </trkpt>
      <trkpt lat="43.58327" lon="2.22662">
        <ele>189.6</ele>
        <time>2023-05-27T16:03:51Z</time>
      </trkpt>
      <trkpt lat="43.58327" lon="2.22665">
        <ele>189.6</ele>
        <time>2023-05-27T16:03:52Z</time>
      </trkpt>
      <trkpt lat="43.58327" lon="2.22668">
        <ele>189.8</ele>
        <time>2023-05-27T16:03:53Z</time>
      </trkpt>
      <trkpt lat="43.58327" lon="2.22671">
        <ele>189.8</ele>
        <time>2023-05-27T16:03:54Z</time>
      </trkpt>
      <trkpt lat="43.58327" lon="2.22674">
        <ele>189.8</ele>
        <time>2023-05-27T16:03:55Z</time>
      </trkpt>
      <trkpt lat="43.58327" lon="2.22678">
        <ele>190</ele>
        <time>2023-05-27T16:03:56Z</time>
      </trkpt>
      <trkpt lat="43.58328" lon="2.22681">
        <ele>190</ele>
        <time>2023-05-27T16:03:57Z</time>
      </trkpt>
      <trkpt lat="43.58328" lon="2.22685">
        <ele>190</ele>
        <time>2023-05-27T16:03:58Z</time>
      </trkpt>
      <trkpt lat="43.58329" lon="2.22688">
        <ele>190.2</ele>
        <time>2023-05-27T16:03:59Z</time>
      </trkpt>
      <trkpt lat="43.5833" lon="2.2269">
        <ele>190.2</ele>
        <time>2023-05-27T16:04:00Z</time>
      </trkpt>
      <trkpt lat="43.58331" lon="2.22693">
        <ele>190.2</ele>
        <time>2023-05-27T16:04:01Z</time>
      </trkpt>
      <trkpt lat="43.58332" lon="2.22696">
        <ele>190.2</ele>
        <time>2023-05-27T16:04:02Z</time>
      </trkpt>
      <trkpt lat="43.58334" lon="2.22699">
        <ele>190.4</ele>
        <time>2023-05-27T16:04:03Z</time>
      </trkpt>
      <trkpt lat="43.58335" lon="2.22701">
        <ele>190.4</ele>
        <time>2023-05-27T16:04:04Z</time>
      </trkpt>
      <trkpt lat="43.58337" lon="2.22703">
        <ele>190.4</ele>
        <time>2023-05-27T16:04:05Z</time>
      </trkpt>
      <trkpt lat="43.58339" lon="2.22705">
        <ele>190.4</ele>
        <time>2023-05-27T16:04:06Z</time>
      </trkpt>
      <trkpt lat="43.58341" lon="2.22707">
        <ele>190.6</ele>
        <time>2023-05-27T16:04:07Z</time>
      </trkpt>
      <trkpt lat="43.58343" lon="2.22709">
        <ele>190.6</ele>
        <time>2023-05-27T16:04:08Z</time>
      </trkpt>
      <trkpt lat="43.58345" lon="2.2271">
        <ele>190.6</ele>
        <time>2023-05-27T16:04:09Z</time>
      </trkpt>
      <trkpt lat="43.58347" lon="2.22712">
        <ele>190.6</ele>
        <time>2023-05-27T16:04:10Z</time>
      </trkpt>
      <trkpt lat="43.58349" lon="2.22713">
        <ele>190.8</ele>
        <time>2023-05-27T16:04:11Z</time>
      </trkpt>
      <trkpt lat="43.58351" lon="2.22714">
        <ele>190.8</ele>
        <time>2023-05-27T16:04:12Z</time>
      </trkpt>
      <trkpt lat="43.58354" lon="2.22715">
        <ele>190.8</ele>
        <time>2023-05-27T16:04:13Z</time>
      </trkpt>
      <trkpt lat="43.58356" lon="2.22715">
        <ele>191</ele>
        <time>2023-05-27T16:04:14Z</time>
      </trkpt>
      <trkpt lat="43.58359" lon="2.22716">
        <ele>191</ele>
        <time>2023-05-27T16:04:15Z</time>
      </trkpt>
      <trkpt lat="43.58361" lon="2.22716">
        <ele>191</ele>
        <time>2023-05-27T16:04:16Z</time>
      </trkpt>
      <trkpt lat="43.58364" lon="2.22717">
        <ele>191</ele>
        <time>2023-05-27T16:04:17Z</time>
      </trkpt>
      <trkpt lat="43.58366" lon="2.22718">
        <ele>191.2</ele>
        <time>2023-05-27T16:04:18Z</time>
      </trkpt>
      <trkpt lat="43.58369" lon="2.22718">
        <ele>191.2</ele>
        <time>2023-05-27T16:04:19Z</time>
      </trkpt>
      <trkpt lat="43.58372" lon="2.22719">
        <ele>191.2</ele>
        <time>2023-05-27T16:04:20Z</time>
      </trkpt>
      <trkpt lat="43.58374" lon="2.2272">
        <ele>191.2</ele>
        <time>2023-05-27T16:04:21Z</time>
      </trkpt>
      <trkpt lat="43.58376" lon="2.22721">
        <ele>191.2</ele>
        <time>2023-05-27T16:04:22Z</time>
      </trkpt>
      <trkpt lat="43.58379" lon="2.22723">
        <ele>191.4</ele>
        <time>2023-05-27T16:04:23Z</time>
      </trkpt>
      <trkpt lat="43.58381" lon="2.22725">
        <ele>191.4</ele>
        <time>2023-05-27T16:04:24Z</time>
      </trkpt>
      <trkpt lat="43.58384" lon="2.22727">
        <ele>191.4</ele>
        <time>2023-05-27T16:04:25Z</time>
      </trkpt>
      <trkpt lat="43.58386" lon="2.2273">
        <ele>191.4</ele>
        <time>2023-05-27T16:04:26Z</time>
      </trkpt>
      <trkpt lat="43.58388" lon="2.22733">
        <ele>191.4</ele>
        <time>2023-05-27T16:04:27Z</time>
      </trkpt>
      <trkpt lat="43.5839" lon="2.22736">
        <ele>191.4</ele>
        <time>2023-05-27T16:04:28Z</time>
      </trkpt>
      <trkpt lat="43.58392" lon="2.2274">
        <ele>191.6</ele>
        <time>2023-05-27T16:04:29Z</time>
      </trkpt>
      <trkpt lat="43.58393" lon="2.22743">
        <ele>191.6</ele>
        <time>2023-05-27T16:04:30Z</time>
      </trkpt>
      <trkpt lat="43.58395" lon="2.22746">
        <ele>191.6</ele>
        <time>2023-05-27T16:04:31Z</time>
      </trkpt>
      <trkpt lat="43.58397" lon="2.2275">
        <ele>191.6</ele>
        <time>2023-05-27T16:04:32Z</time>
      </trkpt>
      <trkpt lat="43.58398" lon="2.22753">
        <ele>191.8</ele>
        <time>2023-05-27T16:04:33Z</time>
      </trkpt>
      <trkpt lat="43.58401" lon="2.22758">
        <ele>191.8</ele>
        <time>2023-05-27T16:04:34Z</time>
      </trkpt>
      <trkpt lat="43.58402" lon="2.22761">
        <ele>191.8</ele>
        <time>2023-05-27T16:04:35Z</time>
      </trkpt>
      <trkpt lat="43.58404" lon="2.22765">
        <ele>191.8</ele>
        <time>2023-05-27T16:04:36Z</time>
      </trkpt>
      <trkpt lat="43.58406" lon="2.22769">
        <ele>191.8</ele>
        <time>2023-05-27T16:04:37Z</time>
      </trkpt>
      <trkpt lat="43.58408" lon="2.22772">
        <ele>192</ele>
        <time>2023-05-27T16:04:38Z</time>
      </trkpt>
      <trkpt lat="43.58409" lon="2.22776">
        <ele>192</ele>
        <time>2023-05-27T16:04:39Z</time>
      </trkpt>
      <trkpt lat="43.58411" lon="2.2278">
        <ele>191.8</ele>
        <time>2023-05-27T16:04:40Z</time>
      </trkpt>
      <trkpt lat="43.58413" lon="2.22784">
        <ele>191.8</ele>
        <time>2023-05-27T16:04:41Z</time>
      </trkpt>
      <trkpt lat="43.58415" lon="2.22788">
        <ele>191.8</ele>
        <time>2023-05-27T16:04:42Z</time>
      </trkpt>
      <trkpt lat="43.58417" lon="2.22793">
        <ele>191.8</ele>
        <time>2023-05-27T16:04:43Z</time>
      </trkpt>
      <trkpt lat="43.58419" lon="2.22797">
        <ele>191.8</ele>
        <time>2023-05-27T16:04:44Z</time>
      </trkpt>
      <trkpt lat="43.58421" lon="2.22801">
        <ele>191.8</ele>
        <time>2023-05-27T16:04:45Z</time>
      </trkpt>
      <trkpt lat="43.58423" lon="2.22806">
        <ele>191.8</ele>
        <time>2023-05-27T16:04:46Z</time>
      </trkpt>
      <trkpt lat="43.58426" lon="2.2281">
        <ele>191.8</ele>
        <time>2023-05-27T16:04:47Z</time>
      </trkpt>
      <trkpt lat="43.58428" lon="2.22815">
        <ele>191.8</ele>
        <time>2023-05-27T16:04:48Z</time>
      </trkpt>
      <trkpt lat="43.58429" lon="2.2282">
        <ele>191.8</ele>
        <time>2023-05-27T16:04:49Z</time>
      </trkpt>
      <trkpt lat="43.58431" lon="2.22825">
        <ele>191.8</ele>
        <time>2023-05-27T16:04:50Z</time>
      </trkpt>
      <trkpt lat="43.58431" lon="2.2283">
        <ele>191.8</ele>
        <time>2023-05-27T16:04:51Z</time>
      </trkpt>
      <trkpt lat="43.58431" lon="2.22836">
        <ele>191.8</ele>
        <time>2023-05-27T16:04:52Z</time>
      </trkpt>
      <trkpt lat="43.5843" lon="2.2284">
        <ele>191.8</ele>
        <time>2023-05-27T16:04:53Z</time>
      </trkpt>
      <trkpt lat="43.58429" lon="2.22845">
        <ele>191.8</ele>
        <time>2023-05-27T16:04:54Z</time>
      </trkpt>
      <trkpt lat="43.58428" lon="2.2285">
        <ele>192</ele>
        <time>2023-05-27T16:04:55Z</time>
      </trkpt>
      <trkpt lat="43.58428" lon="2.22854">
        <ele>192</ele>
        <time>2023-05-27T16:04:56Z</time>
      </trkpt>
      <trkpt lat="43.58428" lon="2.22858">
        <ele>192</ele>
        <time>2023-05-27T16:04:57Z</time>
      </trkpt>
      <trkpt lat="43.58428" lon="2.22862">
        <ele>192.2</ele>
        <time>2023-05-27T16:04:58Z</time>
      </trkpt>
      <trkpt lat="43.5843" lon="2.22867">
        <ele>192.2</ele>
        <time>2023-05-27T16:04:59Z</time>
      </trkpt>
      <trkpt lat="43.58431" lon="2.22871">
        <ele>192.2</ele>
        <time>2023-05-27T16:05:00Z</time>
      </trkpt>
      <trkpt lat="43.58432" lon="2.22875">
        <ele>192.2</ele>
        <time>2023-05-27T16:05:01Z</time>
      </trkpt>
      <trkpt lat="43.58435" lon="2.22878">
        <ele>192.4</ele>
        <time>2023-05-27T16:05:02Z</time>
      </trkpt>
      <trkpt lat="43.58437" lon="2.22882">
        <ele>192.4</ele>
        <time>2023-05-27T16:05:03Z</time>
      </trkpt>
      <trkpt lat="43.5844" lon="2.22884">
        <ele>192.4</ele>
        <time>2023-05-27T16:05:04Z</time>
      </trkpt>
      <trkpt lat="43.58443" lon="2.22885">
        <ele>192.6</ele>
        <time>2023-05-27T16:05:05Z</time>
      </trkpt>
      <trkpt lat="43.58446" lon="2.22887">
        <ele>192.6</ele>
        <time>2023-05-27T16:05:06Z</time>
      </trkpt>
      <trkpt lat="43.58449" lon="2.22887">
        <ele>192.6</ele>
        <time>2023-05-27T16:05:07Z</time>
      </trkpt>
      <trkpt lat="43.58452" lon="2.22887">
        <ele>192.6</ele>
        <time>2023-05-27T16:05:08Z</time>
      </trkpt>
      <trkpt lat="43.58456" lon="2.22886">
        <ele>192.6</ele>
        <time>2023-05-27T16:05:09Z</time>
      </trkpt>
      <trkpt lat="43.58459" lon="2.22885">
        <ele>192.6</ele>
        <time>2023-05-27T16:05:10Z</time>
      </trkpt>
      <trkpt lat="43.58463" lon="2.22883">
        <ele>192.6</ele>
        <time>2023-05-27T16:05:11Z</time>
      </trkpt>
      <trkpt lat="43.58466" lon="2.2288">
        <ele>192.6</ele>
        <time>2023-05-27T16:05:12Z</time>
      </trkpt>
      <trkpt lat="43.58469" lon="2.22876">
        <ele>192.6</ele>
        <time>2023-05-27T16:05:13Z</time>
      </trkpt>
      <trkpt lat="43.58472" lon="2.22872">
        <ele>192.4</ele>
        <time>2023-05-27T16:05:14Z</time>
      </trkpt>
      <trkpt lat="43.58475" lon="2.22869">
        <ele>192.4</ele>
        <time>2023-05-27T16:05:15Z</time>
      </trkpt>
      <trkpt lat="43.58478" lon="2.22866">
        <ele>192.4</ele>
        <time>2023-05-27T16:05:16Z</time>
      </trkpt>
      <trkpt lat="43.58482" lon="2.22863">
        <ele>192.2</ele>
        <time>2023-05-27T16:05:17Z</time>
      </trkpt>
      <trkpt lat="43.58487" lon="2.2286">
        <ele>192.2</ele>
        <time>2023-05-27T16:05:18Z</time>
      </trkpt>
      <trkpt lat="43.58492" lon="2.22859">
        <ele>192</ele>
        <time>2023-05-27T16:05:19Z</time>
      </trkpt>
      <trkpt lat="43.58496" lon="2.22859">
        <ele>192</ele>
        <time>2023-05-27T16:05:20Z</time>
      </trkpt>
      <trkpt lat="43.58501" lon="2.22859">
        <ele>192</ele>
        <time>2023-05-27T16:05:21Z</time>
      </trkpt>
      <trkpt lat="43.58506" lon="2.22859">
        <ele>191.8</ele>
        <time>2023-05-27T16:05:22Z</time>
      </trkpt>
      <trkpt lat="43.5851" lon="2.2286">
        <ele>191.8</ele>
        <time>2023-05-27T16:05:23Z</time>
      </trkpt>
      <trkpt lat="43.58514" lon="2.22861">
        <ele>191.8</ele>
        <time>2023-05-27T16:05:24Z</time>
      </trkpt>
      <trkpt lat="43.58519" lon="2.22863">
        <ele>191.6</ele>
        <time>2023-05-27T16:05:25Z</time>
      </trkpt>
      <trkpt lat="43.58524" lon="2.22865">
        <ele>191.6</ele>
        <time>2023-05-27T16:05:26Z</time>
      </trkpt>
      <trkpt lat="43.58528" lon="2.22868">
        <ele>191.6</ele>
        <time>2023-05-27T16:05:27Z</time>
      </trkpt>
      <trkpt lat="43.58532" lon="2.22872">
        <ele>191.4</ele>
        <time>2023-05-27T16:05:28Z</time>
      </trkpt>
      <trkpt lat="43.58538" lon="2.22876">
        <ele>191.4</ele>
        <time>2023-05-27T16:05:29Z</time>
      </trkpt>
      <trkpt lat="43.58542" lon="2.2288">
        <ele>191.4</ele>
        <time>2023-05-27T16:05:30Z</time>
      </trkpt>
      <trkpt lat="43.58547" lon="2.22885">
        <ele>191.2</ele>
        <time>2023-05-27T16:05:31Z</time>
      </trkpt>
      <trkpt lat="43.58551" lon="2.22889">
        <ele>191.2</ele>
        <time>2023-05-27T16:05:32Z</time>
      </trkpt>
      <trkpt lat="43.58555" lon="2.22893">
        <ele>191.2</ele>
        <time>2023-05-27T16:05:33Z</time>
      </trkpt>
      <trkpt lat="43.58558" lon="2.22898">
        <ele>191</ele>
        <time>2023-05-27T16:05:34Z</time>
      </trkpt>
      <trkpt lat="43.58563" lon="2.22903">
        <ele>191</ele>
        <time>2023-05-27T16:05:35Z</time>
      </trkpt>
      <trkpt lat="43.58567" lon="2.22907">
        <ele>191</ele>
        <time>2023-05-27T16:05:36Z</time>
      </trkpt>
      <trkpt lat="43.58571" lon="2.22913">
        <ele>190.8</ele>
        <time>2023-05-27T16:05:37Z</time>
      </trkpt>
      <trkpt lat="43.58574" lon="2.22917">
        <ele>190.8</ele>
        <time>2023-05-27T16:05:38Z</time>
      </trkpt>
      <trkpt lat="43.58578" lon="2.22922">
        <ele>190.8</ele>
        <time>2023-05-27T16:05:39Z</time>
      </trkpt>
      <trkpt lat="43.58583" lon="2.22928">
        <ele>190.6</ele>
        <time>2023-05-27T16:05:40Z</time>
      </trkpt>
      <trkpt lat="43.58587" lon="2.22933">
        <ele>190.4</ele>
        <time>2023-05-27T16:05:41Z</time>
      </trkpt>
      <trkpt lat="43.5859" lon="2.22938">
        <ele>190.4</ele>
        <time>2023-05-27T16:05:42Z</time>
      </trkpt>
      <trkpt lat="43.58594" lon="2.22944">
        <ele>190.4</ele>
        <time>2023-05-27T16:05:43Z</time>
      </trkpt>
      <trkpt lat="43.58599" lon="2.2295">
        <ele>190.2</ele>
        <time>2023-05-27T16:05:44Z</time>
      </trkpt>
      <trkpt lat="43.58603" lon="2.22955">
        <ele>190</ele>
        <time>2023-05-27T16:05:45Z</time>
      </trkpt>
      <trkpt lat="43.58607" lon="2.22961">
        <ele>190</ele>
        <time>2023-05-27T16:05:46Z</time>
      </trkpt>
      <trkpt lat="43.58611" lon="2.22966">
        <ele>189.8</ele>
        <time>2023-05-27T16:05:47Z</time>
      </trkpt>
      <trkpt lat="43.58614" lon="2.22973">
        <ele>189.6</ele>
        <time>2023-05-27T16:05:48Z</time>
      </trkpt>
      <trkpt lat="43.58618" lon="2.22979">
        <ele>189.4</ele>
        <time>2023-05-27T16:05:49Z</time>
      </trkpt>
      <trkpt lat="43.58622" lon="2.22986">
        <ele>189.2</ele>
        <time>2023-05-27T16:05:50Z</time>
      </trkpt>
      <trkpt lat="43.58626" lon="2.22993">
        <ele>189</ele>
        <time>2023-05-27T16:05:51Z</time>
      </trkpt>
      <trkpt lat="43.58629" lon="2.23">
        <ele>188.8</ele>
        <time>2023-05-27T16:05:52Z</time>
      </trkpt>
      <trkpt lat="43.58634" lon="2.23007">
        <ele>188.6</ele>
        <time>2023-05-27T16:05:53Z</time>
      </trkpt>
      <trkpt lat="43.58637" lon="2.23014">
        <ele>188.4</ele>
        <time>2023-05-27T16:05:54Z</time>
      </trkpt>
      <trkpt lat="43.58641" lon="2.23022">
        <ele>188.2</ele>
        <time>2023-05-27T16:05:55Z</time>
      </trkpt>
      <trkpt lat="43.58644" lon="2.23028">
        <ele>188</ele>
        <time>2023-05-27T16:05:56Z</time>
      </trkpt>
      <trkpt lat="43.58647" lon="2.23036">
        <ele>187.8</ele>
        <time>2023-05-27T16:05:57Z</time>
      </trkpt>
      <trkpt lat="43.58651" lon="2.23045">
        <ele>187.6</ele>
        <time>2023-05-27T16:05:58Z</time>
      </trkpt>
      <trkpt lat="43.58655" lon="2.23052">
        <ele>187.6</ele>
        <time>2023-05-27T16:05:59Z</time>
      </trkpt>
      <trkpt lat="43.58657" lon="2.23059">
        <ele>187.4</ele>
        <time>2023-05-27T16:06:00Z</time>
      </trkpt>
      <trkpt lat="43.5866" lon="2.23066">
        <ele>187.4</ele>
        <time>2023-05-27T16:06:01Z</time>
      </trkpt>
      <trkpt lat="43.58663" lon="2.23074">
        <ele>187.2</ele>
        <time>2023-05-27T16:06:02Z</time>
      </trkpt>
      <trkpt lat="43.58667" lon="2.23083">
        <ele>187.2</ele>
        <time>2023-05-27T16:06:03Z</time>
      </trkpt>
      <trkpt lat="43.5867" lon="2.2309">
        <ele>187</ele>
        <time>2023-05-27T16:06:04Z</time>
      </trkpt>
      <trkpt lat="43.58673" lon="2.23097">
        <ele>187</ele>
        <time>2023-05-27T16:06:05Z</time>
      </trkpt>
      <trkpt lat="43.58676" lon="2.23105">
        <ele>187</ele>
        <time>2023-05-27T16:06:06Z</time>
      </trkpt>
      <trkpt lat="43.58679" lon="2.23111">
        <ele>187</ele>
        <time>2023-05-27T16:06:07Z</time>
      </trkpt>
      <trkpt lat="43.58681" lon="2.23118">
        <ele>187</ele>
        <time>2023-05-27T16:06:08Z</time>
      </trkpt>
      <trkpt lat="43.58684" lon="2.23124">
        <ele>187</ele>
        <time>2023-05-27T16:06:09Z</time>
      </trkpt>
      <trkpt lat="43.58687" lon="2.2313">
        <ele>187</ele>
        <time>2023-05-27T16:06:10Z</time>
      </trkpt>
      <trkpt lat="43.58689" lon="2.23136">
        <ele>187</ele>
        <time>2023-05-27T16:06:11Z</time>
      </trkpt>
      <trkpt lat="43.58691" lon="2.23142">
        <ele>187</ele>
        <time>2023-05-27T16:06:12Z</time>
      </trkpt>
      <trkpt lat="43.58693" lon="2.23147">
        <ele>187</ele>
        <time>2023-05-27T16:06:13Z</time>
      </trkpt>
      <trkpt lat="43.58695" lon="2.23152">
        <ele>187</ele>
        <time>2023-05-27T16:06:14Z</time>
      </trkpt>
      <trkpt lat="43.58698" lon="2.23159">
        <ele>187.2</ele>
        <time>2023-05-27T16:06:15Z</time>
      </trkpt>
      <trkpt lat="43.587" lon="2.23164">
        <ele>187.2</ele>
        <time>2023-05-27T16:06:16Z</time>
      </trkpt>
      <trkpt lat="43.58702" lon="2.23169">
        <ele>187.2</ele>
        <time>2023-05-27T16:06:17Z</time>
      </trkpt>
      <trkpt lat="43.58705" lon="2.23174">
        <ele>187.4</ele>
        <time>2023-05-27T16:06:18Z</time>
      </trkpt>
      <trkpt lat="43.58708" lon="2.2318">
        <ele>187.4</ele>
        <time>2023-05-27T16:06:19Z</time>
      </trkpt>
      <trkpt lat="43.5871" lon="2.23185">
        <ele>187.4</ele>
        <time>2023-05-27T16:06:20Z</time>
      </trkpt>
      <trkpt lat="43.58712" lon="2.2319">
        <ele>187.6</ele>
        <time>2023-05-27T16:06:21Z</time>
      </trkpt>
      <trkpt lat="43.58714" lon="2.23194">
        <ele>187.6</ele>
        <time>2023-05-27T16:06:22Z</time>
      </trkpt>
      <trkpt lat="43.58716" lon="2.232">
        <ele>187.8</ele>
        <time>2023-05-27T16:06:23Z</time>
      </trkpt>
      <trkpt lat="43.58718" lon="2.23205">
        <ele>187.8</ele>
        <time>2023-05-27T16:06:24Z</time>
      </trkpt>
      <trkpt lat="43.5872" lon="2.2321">
        <ele>187.8</ele>
        <time>2023-05-27T16:06:25Z</time>
      </trkpt>
      <trkpt lat="43.58722" lon="2.23215">
        <ele>187.8</ele>
        <time>2023-05-27T16:06:26Z</time>
      </trkpt>
      <trkpt lat="43.58723" lon="2.2322">
        <ele>187.8</ele>
        <time>2023-05-27T16:06:27Z</time>
      </trkpt>
      <trkpt lat="43.58725" lon="2.23224">
        <ele>188</ele>
        <time>2023-05-27T16:06:28Z</time>
      </trkpt>
      <trkpt lat="43.58727" lon="2.23229">
        <ele>188</ele>
        <time>2023-05-27T16:06:29Z</time>
      </trkpt>
      <trkpt lat="43.58728" lon="2.23233">
        <ele>188.2</ele>
        <time>2023-05-27T16:06:30Z</time>
      </trkpt>
      <trkpt lat="43.5873" lon="2.23237">
        <ele>188.2</ele>
        <time>2023-05-27T16:06:31Z</time>
      </trkpt>
      <trkpt lat="43.58732" lon="2.23242">
        <ele>188.4</ele>
        <time>2023-05-27T16:06:32Z</time>
      </trkpt>
      <trkpt lat="43.58733" lon="2.23246">
        <ele>188.4</ele>
        <time>2023-05-27T16:06:33Z</time>
      </trkpt>
      <trkpt lat="43.58735" lon="2.23251">
        <ele>188.6</ele>
        <time>2023-05-27T16:06:34Z</time>
      </trkpt>
      <trkpt lat="43.58736" lon="2.23255">
        <ele>188.6</ele>
        <time>2023-05-27T16:06:35Z</time>
      </trkpt>
      <trkpt lat="43.58738" lon="2.23259">
        <ele>188.8</ele>
        <time>2023-05-27T16:06:36Z</time>
      </trkpt>
      <trkpt lat="43.58739" lon="2.23263">
        <ele>188.8</ele>
        <time>2023-05-27T16:06:37Z</time>
      </trkpt>
      <trkpt lat="43.5874" lon="2.23267">
        <ele>188.8</ele>
        <time>2023-05-27T16:06:38Z</time>
      </trkpt>
      <trkpt lat="43.58743" lon="2.23273">
        <ele>189</ele>
        <time>2023-05-27T16:06:39Z</time>
      </trkpt>
      <trkpt lat="43.58745" lon="2.23277">
        <ele>189</ele>
        <time>2023-05-27T16:06:40Z</time>
      </trkpt>
      <trkpt lat="43.58747" lon="2.23281">
        <ele>189.2</ele>
        <time>2023-05-27T16:06:41Z</time>
      </trkpt>
      <trkpt lat="43.58749" lon="2.23286">
        <ele>189.2</ele>
        <time>2023-05-27T16:06:42Z</time>
      </trkpt>
      <trkpt lat="43.58751" lon="2.23289">
        <ele>189.2</ele>
        <time>2023-05-27T16:06:43Z</time>
      </trkpt>
      <trkpt lat="43.58752" lon="2.23293">
        <ele>189.2</ele>
        <time>2023-05-27T16:06:44Z</time>
      </trkpt>
      <trkpt lat="43.58754" lon="2.23297">
        <ele>189.4</ele>
        <time>2023-05-27T16:06:45Z</time>
      </trkpt>
      <trkpt lat="43.58757" lon="2.23303">
        <ele>189.4</ele>
        <time>2023-05-27T16:06:46Z</time>
      </trkpt>
      <trkpt lat="43.58759" lon="2.23308">
        <ele>189.4</ele>
        <time>2023-05-27T16:06:47Z</time>
      </trkpt>
      <trkpt lat="43.58761" lon="2.23312">
        <ele>189.6</ele>
        <time>2023-05-27T16:06:48Z</time>
      </trkpt>
      <trkpt lat="43.58763" lon="2.23317">
        <ele>189.6</ele>
        <time>2023-05-27T16:06:49Z</time>
      </trkpt>
      <trkpt lat="43.58765" lon="2.23321">
        <ele>189.8</ele>
        <time>2023-05-27T16:06:50Z</time>
      </trkpt>
      <trkpt lat="43.58768" lon="2.23327">
        <ele>189.8</ele>
        <time>2023-05-27T16:06:51Z</time>
      </trkpt>
      <trkpt lat="43.58769" lon="2.23331">
        <ele>190</ele>
        <time>2023-05-27T16:06:52Z</time>
      </trkpt>
      <trkpt lat="43.58771" lon="2.23335">
        <ele>190</ele>
        <time>2023-05-27T16:06:53Z</time>
      </trkpt>
      <trkpt lat="43.58773" lon="2.23339">
        <ele>190.2</ele>
        <time>2023-05-27T16:06:54Z</time>
      </trkpt>
      <trkpt lat="43.58775" lon="2.23343">
        <ele>190.2</ele>
        <time>2023-05-27T16:06:55Z</time>
      </trkpt>
      <trkpt lat="43.58777" lon="2.23346">
        <ele>190.4</ele>
        <time>2023-05-27T16:06:56Z</time>
      </trkpt>
      <trkpt lat="43.58779" lon="2.23351">
        <ele>190.4</ele>
        <time>2023-05-27T16:06:57Z</time>
      </trkpt>
      <trkpt lat="43.5878" lon="2.23354">
        <ele>190.6</ele>
        <time>2023-05-27T16:06:58Z</time>
      </trkpt>
      <trkpt lat="43.58782" lon="2.23359">
        <ele>190.6</ele>
        <time>2023-05-27T16:06:59Z</time>
      </trkpt>
      <trkpt lat="43.58784" lon="2.23363">
        <ele>190.8</ele>
        <time>2023-05-27T16:07:00Z</time>
      </trkpt>
      <trkpt lat="43.58785" lon="2.23365">
        <ele>190.8</ele>
        <time>2023-05-27T16:07:01Z</time>
      </trkpt>
      <trkpt lat="43.58786" lon="2.23369">
        <ele>190.8</ele>
        <time>2023-05-27T16:07:02Z</time>
      </trkpt>
      <trkpt lat="43.58789" lon="2.23375">
        <ele>191</ele>
        <time>2023-05-27T16:07:03Z</time>
      </trkpt>
      <trkpt lat="43.58791" lon="2.2338">
        <ele>191</ele>
        <time>2023-05-27T16:07:04Z</time>
      </trkpt>
      <trkpt lat="43.58793" lon="2.23384">
        <ele>191.2</ele>
        <time>2023-05-27T16:07:05Z</time>
      </trkpt>
      <trkpt lat="43.58794" lon="2.23389">
        <ele>191.4</ele>
        <time>2023-05-27T16:07:06Z</time>
      </trkpt>
      <trkpt lat="43.58796" lon="2.23392">
        <ele>191.4</ele>
        <time>2023-05-27T16:07:07Z</time>
      </trkpt>
      <trkpt lat="43.58798" lon="2.23397">
        <ele>191.6</ele>
        <time>2023-05-27T16:07:08Z</time>
      </trkpt>
      <trkpt lat="43.58799" lon="2.23401">
        <ele>191.6</ele>
        <time>2023-05-27T16:07:09Z</time>
      </trkpt>
      <trkpt lat="43.58801" lon="2.23406">
        <ele>191.8</ele>
        <time>2023-05-27T16:07:10Z</time>
      </trkpt>
      <trkpt lat="43.58803" lon="2.23409">
        <ele>191.8</ele>
        <time>2023-05-27T16:07:11Z</time>
      </trkpt>
      <trkpt lat="43.58804" lon="2.23413">
        <ele>191.8</ele>
        <time>2023-05-27T16:07:12Z</time>
      </trkpt>
      <trkpt lat="43.58806" lon="2.23417">
        <ele>192</ele>
        <time>2023-05-27T16:07:13Z</time>
      </trkpt>
      <trkpt lat="43.58807" lon="2.23421">
        <ele>192</ele>
        <time>2023-05-27T16:07:14Z</time>
      </trkpt>
      <trkpt lat="43.58809" lon="2.23425">
        <ele>192.2</ele>
        <time>2023-05-27T16:07:15Z</time>
      </trkpt>
      <trkpt lat="43.58811" lon="2.23429">
        <ele>192.2</ele>
        <time>2023-05-27T16:07:16Z</time>
      </trkpt>
      <trkpt lat="43.58813" lon="2.23433">
        <ele>192.4</ele>
        <time>2023-05-27T16:07:17Z</time>
      </trkpt>
      <trkpt lat="43.58814" lon="2.23437">
        <ele>192.4</ele>
        <time>2023-05-27T16:07:18Z</time>
      </trkpt>
      <trkpt lat="43.58815" lon="2.2344">
        <ele>192.6</ele>
        <time>2023-05-27T16:07:19Z</time>
      </trkpt>
      <trkpt lat="43.58817" lon="2.23444">
        <ele>192.6</ele>
        <time>2023-05-27T16:07:20Z</time>
      </trkpt>
      <trkpt lat="43.58818" lon="2.23447">
        <ele>192.8</ele>
        <time>2023-05-27T16:07:21Z</time>
      </trkpt>
      <trkpt lat="43.58819" lon="2.23449">
        <ele>192.8</ele>
        <time>2023-05-27T16:07:22Z</time>
      </trkpt>
      <trkpt lat="43.58821" lon="2.23453">
        <ele>193</ele>
        <time>2023-05-27T16:07:23Z</time>
      </trkpt>
      <trkpt lat="43.58822" lon="2.23455">
        <ele>193</ele>
        <time>2023-05-27T16:07:24Z</time>
      </trkpt>
      <trkpt lat="43.58823" lon="2.23459">
        <ele>193</ele>
        <time>2023-05-27T16:07:25Z</time>
      </trkpt>
      <trkpt lat="43.58825" lon="2.23462">
        <ele>193.2</ele>
        <time>2023-05-27T16:07:26Z</time>
      </trkpt>
      <trkpt lat="43.58826" lon="2.23465">
        <ele>193.2</ele>
        <time>2023-05-27T16:07:27Z</time>
      </trkpt>
      <trkpt lat="43.58827" lon="2.23468">
        <ele>193.4</ele>
        <time>2023-05-27T16:07:28Z</time>
      </trkpt>
      <trkpt lat="43.58828" lon="2.23471">
        <ele>193.4</ele>
        <time>2023-05-27T16:07:29Z</time>
      </trkpt>
      <trkpt lat="43.5883" lon="2.23474">
        <ele>193.4</ele>
        <time>2023-05-27T16:07:30Z</time>
      </trkpt>
      <trkpt lat="43.58831" lon="2.23476">
        <ele>193.6</ele>
        <time>2023-05-27T16:07:31Z</time>
      </trkpt>
      <trkpt lat="43.58832" lon="2.2348">
        <ele>193.6</ele>
        <time>2023-05-27T16:07:32Z</time>
      </trkpt>
      <trkpt lat="43.58833" lon="2.23482">
        <ele>193.6</ele>
        <time>2023-05-27T16:07:33Z</time>
      </trkpt>
      <trkpt lat="43.58835" lon="2.23486">
        <ele>193.6</ele>
        <time>2023-05-27T16:07:34Z</time>
      </trkpt>
      <trkpt lat="43.58836" lon="2.23489">
        <ele>193.8</ele>
        <time>2023-05-27T16:07:35Z</time>
      </trkpt>
      <trkpt lat="43.58837" lon="2.23491">
        <ele>193.8</ele>
        <time>2023-05-27T16:07:36Z</time>
      </trkpt>
      <trkpt lat="43.58838" lon="2.23494">
        <ele>193.8</ele>
        <time>2023-05-27T16:07:37Z</time>
      </trkpt>
      <trkpt lat="43.58839" lon="2.23497">
        <ele>194</ele>
        <time>2023-05-27T16:07:38Z</time>
      </trkpt>
      <trkpt lat="43.58841" lon="2.235">
        <ele>194</ele>
        <time>2023-05-27T16:07:39Z</time>
      </trkpt>
      <trkpt lat="43.58842" lon="2.23503">
        <ele>194</ele>
        <time>2023-05-27T16:07:40Z</time>
      </trkpt>
      <trkpt lat="43.58843" lon="2.23506">
        <ele>194.2</ele>
        <time>2023-05-27T16:07:41Z</time>
      </trkpt>
      <trkpt lat="43.58844" lon="2.23509">
        <ele>194.2</ele>
        <time>2023-05-27T16:07:42Z</time>
      </trkpt>
      <trkpt lat="43.58846" lon="2.23512">
        <ele>194.2</ele>
        <time>2023-05-27T16:07:43Z</time>
      </trkpt>
      <trkpt lat="43.58849" lon="2.23515">
        <ele>194.4</ele>
        <time>2023-05-27T16:07:44Z</time>
      </trkpt>
      <trkpt lat="43.58851" lon="2.23517">
        <ele>194.4</ele>
        <time>2023-05-27T16:07:45Z</time>
      </trkpt>
      <trkpt lat="43.58853" lon="2.2352">
        <ele>194.4</ele>
        <time>2023-05-27T16:07:46Z</time>
      </trkpt>
      <trkpt lat="43.58855" lon="2.23522">
        <ele>194.6</ele>
        <time>2023-05-27T16:07:47Z</time>
      </trkpt>
      <trkpt lat="43.58856" lon="2.23524">
        <ele>194.6</ele>
        <time>2023-05-27T16:07:48Z</time>
      </trkpt>
      <trkpt lat="43.58858" lon="2.23527">
        <ele>194.6</ele>
        <time>2023-05-27T16:07:49Z</time>
      </trkpt>
      <trkpt lat="43.5886" lon="2.2353">
        <ele>194.8</ele>
        <time>2023-05-27T16:07:50Z</time>
      </trkpt>
      <trkpt lat="43.58861" lon="2.23532">
        <ele>194.8</ele>
        <time>2023-05-27T16:07:51Z</time>
      </trkpt>
      <trkpt lat="43.58863" lon="2.23535">
        <ele>194.8</ele>
        <time>2023-05-27T16:07:52Z</time>
      </trkpt>
      <trkpt lat="43.58864" lon="2.23538">
        <ele>194.8</ele>
        <time>2023-05-27T16:07:53Z</time>
      </trkpt>
      <trkpt lat="43.58866" lon="2.23541">
        <ele>195</ele>
        <time>2023-05-27T16:07:54Z</time>
      </trkpt>
      <trkpt lat="43.58867" lon="2.23543">
        <ele>195</ele>
        <time>2023-05-27T16:07:55Z</time>
      </trkpt>
      <trkpt lat="43.58868" lon="2.23545">
        <ele>195</ele>
        <time>2023-05-27T16:07:56Z</time>
      </trkpt>
      <trkpt lat="43.5887" lon="2.23548">
        <ele>195</ele>
        <time>2023-05-27T16:07:57Z</time>
      </trkpt>
      <trkpt lat="43.58871" lon="2.23551">
        <ele>195.2</ele>
        <time>2023-05-27T16:07:58Z</time>
      </trkpt>
      <trkpt lat="43.58873" lon="2.23555">
        <ele>195.2</ele>
        <time>2023-05-27T16:07:59Z</time>
      </trkpt>
      <trkpt lat="43.58874" lon="2.23558">
        <ele>195.2</ele>
        <time>2023-05-27T16:08:00Z</time>
      </trkpt>
      <trkpt lat="43.58876" lon="2.23561">
        <ele>195.4</ele>
        <time>2023-05-27T16:08:01Z</time>
      </trkpt>
      <trkpt lat="43.58877" lon="2.23564">
        <ele>195.4</ele>
        <time>2023-05-27T16:08:02Z</time>
      </trkpt>
      <trkpt lat="43.58879" lon="2.23567">
        <ele>195.4</ele>
        <time>2023-05-27T16:08:03Z</time>
      </trkpt>
      <trkpt lat="43.58881" lon="2.23569">
        <ele>195.6</ele>
        <time>2023-05-27T16:08:04Z</time>
      </trkpt>
      <trkpt lat="43.58882" lon="2.23571">
        <ele>195.6</ele>
        <time>2023-05-27T16:08:05Z</time>
      </trkpt>
      <trkpt lat="43.58884" lon="2.23573">
        <ele>195.6</ele>
        <time>2023-05-27T16:08:06Z</time>
      </trkpt>
      <trkpt lat="43.58885" lon="2.23575">
        <ele>195.6</ele>
        <time>2023-05-27T16:08:07Z</time>
      </trkpt>
      <trkpt lat="43.58886" lon="2.23576">
        <ele>195.8</ele>
        <time>2023-05-27T16:08:08Z</time>
      </trkpt>
      <trkpt lat="43.58888" lon="2.23578">
        <ele>195.8</ele>
        <time>2023-05-27T16:08:09Z</time>
      </trkpt>
      <trkpt lat="43.5889" lon="2.23581">
        <ele>195.8</ele>
        <time>2023-05-27T16:08:10Z</time>
      </trkpt>
      <trkpt lat="43.58892" lon="2.23583">
        <ele>196</ele>
        <time>2023-05-27T16:08:11Z</time>
      </trkpt>
      <trkpt lat="43.58894" lon="2.23584">
        <ele>196</ele>
        <time>2023-05-27T16:08:12Z</time>
      </trkpt>
      <trkpt lat="43.58895" lon="2.23585">
        <ele>196</ele>
        <time>2023-05-27T16:08:13Z</time>
      </trkpt>
      <trkpt lat="43.58897" lon="2.23587">
        <ele>196</ele>
        <time>2023-05-27T16:08:14Z</time>
      </trkpt>
      <trkpt lat="43.58898" lon="2.23588">
        <ele>196</ele>
        <time>2023-05-27T16:08:15Z</time>
      </trkpt>
      <trkpt lat="43.58899" lon="2.2359">
        <ele>195.8</ele>
        <time>2023-05-27T16:08:16Z</time>
      </trkpt>
      <trkpt lat="43.589" lon="2.23592">
        <ele>195.8</ele>
        <time>2023-05-27T16:08:17Z</time>
      </trkpt>
      <trkpt lat="43.58901" lon="2.23593">
        <ele>195.8</ele>
        <time>2023-05-27T16:08:18Z</time>
      </trkpt>
      <trkpt lat="43.58902" lon="2.23596">
        <ele>195.8</ele>
        <time>2023-05-27T16:09:42Z</time>
      </trkpt>
      <trkpt lat="43.58903" lon="2.23597">
        <ele>195.8</ele>
        <time>2023-05-27T16:09:43Z</time>
      </trkpt>
      <trkpt lat="43.58904" lon="2.23599">
        <ele>195.8</ele>
        <time>2023-05-27T16:09:44Z</time>
      </trkpt>
      <trkpt lat="43.58905" lon="2.23601">
        <ele>195.6</ele>
        <time>2023-05-27T16:09:45Z</time>
      </trkpt>
      <trkpt lat="43.58906" lon="2.23604">
        <ele>195.6</ele>
        <time>2023-05-27T16:09:46Z</time>
      </trkpt>
      <trkpt lat="43.58907" lon="2.23606">
        <ele>195.6</ele>
        <time>2023-05-27T16:09:47Z</time>
      </trkpt>
      <trkpt lat="43.58908" lon="2.23608">
        <ele>195.6</ele>
        <time>2023-05-27T16:09:48Z</time>
      </trkpt>
      <trkpt lat="43.5891" lon="2.2361">
        <ele>195.4</ele>
        <time>2023-05-27T16:09:49Z</time>
      </trkpt>
      <trkpt lat="43.58913" lon="2.23613">
        <ele>195.4</ele>
        <time>2023-05-27T16:09:50Z</time>
      </trkpt>
      <trkpt lat="43.58916" lon="2.23616">
        <ele>195.2</ele>
        <time>2023-05-27T16:09:51Z</time>
      </trkpt>
      <trkpt lat="43.58919" lon="2.23619">
        <ele>195.2</ele>
        <time>2023-05-27T16:09:52Z</time>
      </trkpt>
      <trkpt lat="43.58921" lon="2.23622">
        <ele>195</ele>
        <time>2023-05-27T16:09:53Z</time>
      </trkpt>
      <trkpt lat="43.58924" lon="2.23626">
        <ele>195</ele>
        <time>2023-05-27T16:09:54Z</time>
      </trkpt>
      <trkpt lat="43.58927" lon="2.23629">
        <ele>195</ele>
        <time>2023-05-27T16:09:55Z</time>
      </trkpt>
      <trkpt lat="43.5893" lon="2.23631">
        <ele>194.8</ele>
        <time>2023-05-27T16:09:56Z</time>
      </trkpt>
      <trkpt lat="43.58934" lon="2.23634">
        <ele>194.8</ele>
        <time>2023-05-27T16:09:57Z</time>
      </trkpt>
      <trkpt lat="43.58936" lon="2.23637">
        <ele>194.8</ele>
        <time>2023-05-27T16:09:58Z</time>
      </trkpt>
      <trkpt lat="43.58939" lon="2.23639">
        <ele>194.8</ele>
        <time>2023-05-27T16:09:59Z</time>
      </trkpt>
      <trkpt lat="43.58942" lon="2.23642">
        <ele>194.8</ele>
        <time>2023-05-27T16:10:00Z</time>
      </trkpt>
      <trkpt lat="43.58945" lon="2.23644">
        <ele>194.6</ele>
        <time>2023-05-27T16:10:01Z</time>
      </trkpt>
      <trkpt lat="43.58948" lon="2.23647">
        <ele>194.6</ele>
        <time>2023-05-27T16:10:02Z</time>
      </trkpt>
      <trkpt lat="43.58952" lon="2.23649">
        <ele>194.8</ele>
        <time>2023-05-27T16:10:03Z</time>
      </trkpt>
      <trkpt lat="43.58955" lon="2.23652">
        <ele>194.8</ele>
        <time>2023-05-27T16:10:04Z</time>
      </trkpt>
      <trkpt lat="43.58958" lon="2.23654">
        <ele>194.8</ele>
        <time>2023-05-27T16:10:05Z</time>
      </trkpt>
      <trkpt lat="43.58961" lon="2.23657">
        <ele>194.8</ele>
        <time>2023-05-27T16:10:06Z</time>
      </trkpt>
      <trkpt lat="43.58964" lon="2.2366">
        <ele>194.8</ele>
        <time>2023-05-27T16:10:07Z</time>
      </trkpt>
      <trkpt lat="43.58967" lon="2.23662">
        <ele>194.8</ele>
        <time>2023-05-27T16:10:08Z</time>
      </trkpt>
      <trkpt lat="43.5897" lon="2.23665">
        <ele>194.8</ele>
        <time>2023-05-27T16:10:09Z</time>
      </trkpt>
      <trkpt lat="43.58973" lon="2.23667">
        <ele>194.8</ele>
        <time>2023-05-27T16:10:10Z</time>
      </trkpt>
      <trkpt lat="43.58976" lon="2.2367">
        <ele>194.8</ele>
        <time>2023-05-27T16:10:11Z</time>
      </trkpt>
      <trkpt lat="43.58979" lon="2.23673">
        <ele>194.8</ele>
        <time>2023-05-27T16:10:12Z</time>
      </trkpt>
      <trkpt lat="43.58984" lon="2.23676">
        <ele>194.8</ele>
        <time>2023-05-27T16:10:13Z</time>
      </trkpt>
      <trkpt lat="43.58987" lon="2.23679">
        <ele>194.8</ele>
        <time>2023-05-27T16:10:14Z</time>
      </trkpt>
      <trkpt lat="43.5899" lon="2.23681">
        <ele>194.8</ele>
        <time>2023-05-27T16:10:15Z</time>
      </trkpt>
      <trkpt lat="43.58993" lon="2.23683">
        <ele>195</ele>
        <time>2023-05-27T16:10:16Z</time>
      </trkpt>
      <trkpt lat="43.58998" lon="2.23687">
        <ele>195</ele>
        <time>2023-05-27T16:10:17Z</time>
      </trkpt>
      <trkpt lat="43.59001" lon="2.23689">
        <ele>195</ele>
        <time>2023-05-27T16:10:18Z</time>
      </trkpt>
      <trkpt lat="43.59005" lon="2.23692">
        <ele>195</ele>
        <time>2023-05-27T16:10:19Z</time>
      </trkpt>
      <trkpt lat="43.59009" lon="2.23695">
        <ele>195</ele>
        <time>2023-05-27T16:10:20Z</time>
      </trkpt>
      <trkpt lat="43.59012" lon="2.23698">
        <ele>195</ele>
        <time>2023-05-27T16:10:21Z</time>
      </trkpt>
      <trkpt lat="43.59015" lon="2.23701">
        <ele>195</ele>
        <time>2023-05-27T16:10:22Z</time>
      </trkpt>
      <trkpt lat="43.59018" lon="2.23703">
        <ele>194.8</ele>
        <time>2023-05-27T16:10:23Z</time>
      </trkpt>
      <trkpt lat="43.59021" lon="2.23705">
        <ele>194.8</ele>
        <time>2023-05-27T16:10:24Z</time>
      </trkpt>
      <trkpt lat="43.59025" lon="2.23707">
        <ele>194.8</ele>
        <time>2023-05-27T16:10:25Z</time>
      </trkpt>
      <trkpt lat="43.59029" lon="2.23709">
        <ele>194.8</ele>
        <time>2023-05-27T16:10:26Z</time>
      </trkpt>
      <trkpt lat="43.59032" lon="2.23711">
        <ele>194.8</ele>
        <time>2023-05-27T16:10:27Z</time>
      </trkpt>
      <trkpt lat="43.59036" lon="2.23713">
        <ele>194.8</ele>
        <time>2023-05-27T16:10:28Z</time>
      </trkpt>
      <trkpt lat="43.5904" lon="2.23715">
        <ele>194.8</ele>
        <time>2023-05-27T16:10:29Z</time>
      </trkpt>
      <trkpt lat="43.59044" lon="2.23716">
        <ele>194.6</ele>
        <time>2023-05-27T16:10:30Z</time>
      </trkpt>
      <trkpt lat="43.59048" lon="2.23717">
        <ele>194.6</ele>
        <time>2023-05-27T16:10:31Z</time>
      </trkpt>
      <trkpt lat="43.59052" lon="2.23718">
        <ele>194.6</ele>
        <time>2023-05-27T16:10:32Z</time>
      </trkpt>
      <trkpt lat="43.59055" lon="2.23718">
        <ele>194.6</ele>
        <time>2023-05-27T16:10:33Z</time>
      </trkpt>
      <trkpt lat="43.5906" lon="2.23719">
        <ele>194.6</ele>
        <time>2023-05-27T16:10:34Z</time>
      </trkpt>
      <trkpt lat="43.59064" lon="2.2372">
        <ele>194.6</ele>
        <time>2023-05-27T16:10:35Z</time>
      </trkpt>
      <trkpt lat="43.59068" lon="2.2372">
        <ele>194.6</ele>
        <time>2023-05-27T16:10:36Z</time>
      </trkpt>
      <trkpt lat="43.59072" lon="2.2372">
        <ele>194.6</ele>
        <time>2023-05-27T16:10:37Z</time>
      </trkpt>
      <trkpt lat="43.59076" lon="2.2372">
        <ele>194.6</ele>
        <time>2023-05-27T16:10:38Z</time>
      </trkpt>
      <trkpt lat="43.59079" lon="2.2372">
        <ele>194.6</ele>
        <time>2023-05-27T16:10:39Z</time>
      </trkpt>
      <trkpt lat="43.59083" lon="2.2372">
        <ele>194.6</ele>
        <time>2023-05-27T16:10:40Z</time>
      </trkpt>
      <trkpt lat="43.59086" lon="2.23721">
        <ele>194.6</ele>
        <time>2023-05-27T16:10:41Z</time>
      </trkpt>
      <trkpt lat="43.5909" lon="2.23721">
        <ele>194.6</ele>
        <time>2023-05-27T16:10:42Z</time>
      </trkpt>
      <trkpt lat="43.59094" lon="2.23722">
        <ele>194.6</ele>
        <time>2023-05-27T16:10:43Z</time>
      </trkpt>
      <trkpt lat="43.59098" lon="2.23724">
        <ele>194.6</ele>
        <time>2023-05-27T16:10:44Z</time>
      </trkpt>
      <trkpt lat="43.59102" lon="2.23727">
        <ele>194.6</ele>
        <time>2023-05-27T16:10:45Z</time>
      </trkpt>
      <trkpt lat="43.59105" lon="2.2373">
        <ele>194.6</ele>
        <time>2023-05-27T16:10:46Z</time>
      </trkpt>
      <trkpt lat="43.59108" lon="2.23733">
        <ele>194.6</ele>
        <time>2023-05-27T16:10:47Z</time>
      </trkpt>
      <trkpt lat="43.59111" lon="2.23736">
        <ele>194.6</ele>
        <time>2023-05-27T16:10:48Z</time>
      </trkpt>
      <trkpt lat="43.59113" lon="2.2374">
        <ele>194.6</ele>
        <time>2023-05-27T16:10:49Z</time>
      </trkpt>
      <trkpt lat="43.59116" lon="2.23743">
        <ele>194.6</ele>
        <time>2023-05-27T16:10:50Z</time>
      </trkpt>
      <trkpt lat="43.59119" lon="2.23747">
        <ele>194.6</ele>
        <time>2023-05-27T16:10:51Z</time>
      </trkpt>
      <trkpt lat="43.59123" lon="2.23751">
        <ele>194.4</ele>
        <time>2023-05-27T16:10:52Z</time>
      </trkpt>
      <trkpt lat="43.59126" lon="2.23756">
        <ele>194.4</ele>
        <time>2023-05-27T16:10:53Z</time>
      </trkpt>
      <trkpt lat="43.5913" lon="2.23761">
        <ele>194.4</ele>
        <time>2023-05-27T16:10:54Z</time>
      </trkpt>
      <trkpt lat="43.59134" lon="2.23766">
        <ele>194.2</ele>
        <time>2023-05-27T16:10:55Z</time>
      </trkpt>
      <trkpt lat="43.59137" lon="2.23771">
        <ele>194.2</ele>
        <time>2023-05-27T16:10:56Z</time>
      </trkpt>
      <trkpt lat="43.59141" lon="2.23776">
        <ele>194</ele>
        <time>2023-05-27T16:10:57Z</time>
      </trkpt>
      <trkpt lat="43.59143" lon="2.2378">
        <ele>194</ele>
        <time>2023-05-27T16:10:58Z</time>
      </trkpt>
      <trkpt lat="43.59146" lon="2.23783">
        <ele>194</ele>
        <time>2023-05-27T16:10:59Z</time>
      </trkpt>
      <trkpt lat="43.5915" lon="2.23788">
        <ele>194</ele>
        <time>2023-05-27T16:11:00Z</time>
      </trkpt>
      <trkpt lat="43.59154" lon="2.23792">
        <ele>193.8</ele>
        <time>2023-05-27T16:11:01Z</time>
      </trkpt>
      <trkpt lat="43.59158" lon="2.23796">
        <ele>193.8</ele>
        <time>2023-05-27T16:11:02Z</time>
      </trkpt>
      <trkpt lat="43.59163" lon="2.23801">
        <ele>193.8</ele>
        <time>2023-05-27T16:11:03Z</time>
      </trkpt>
      <trkpt lat="43.59168" lon="2.23806">
        <ele>193.8</ele>
        <time>2023-05-27T16:11:04Z</time>
      </trkpt>
      <trkpt lat="43.59172" lon="2.2381">
        <ele>193.8</ele>
        <time>2023-05-27T16:11:05Z</time>
      </trkpt>
      <trkpt lat="43.59176" lon="2.23816">
        <ele>193.8</ele>
        <time>2023-05-27T16:11:06Z</time>
      </trkpt>
      <trkpt lat="43.5918" lon="2.2382">
        <ele>193.8</ele>
        <time>2023-05-27T16:11:07Z</time>
      </trkpt>
      <trkpt lat="43.59183" lon="2.23823">
        <ele>193.8</ele>
        <time>2023-05-27T16:11:08Z</time>
      </trkpt>
      <trkpt lat="43.59186" lon="2.23827">
        <ele>193.8</ele>
        <time>2023-05-27T16:11:09Z</time>
      </trkpt>
      <trkpt lat="43.59188" lon="2.23831">
        <ele>193.8</ele>
        <time>2023-05-27T16:11:10Z</time>
      </trkpt>
      <trkpt lat="43.59192" lon="2.23835">
        <ele>193.8</ele>
        <time>2023-05-27T16:11:11Z</time>
      </trkpt>
      <trkpt lat="43.59195" lon="2.23839">
        <ele>193.8</ele>
        <time>2023-05-27T16:11:12Z</time>
      </trkpt>
      <trkpt lat="43.592" lon="2.23844">
        <ele>193.8</ele>
        <time>2023-05-27T16:11:13Z</time>
      </trkpt>
      <trkpt lat="43.59204" lon="2.23848">
        <ele>193.8</ele>
        <time>2023-05-27T16:11:14Z</time>
      </trkpt>
      <trkpt lat="43.59207" lon="2.23852">
        <ele>193.8</ele>
        <time>2023-05-27T16:11:15Z</time>
      </trkpt>
      <trkpt lat="43.59209" lon="2.23855">
        <ele>193.8</ele>
        <time>2023-05-27T16:11:16Z</time>
      </trkpt>
      <trkpt lat="43.59211" lon="2.23859">
        <ele>193.8</ele>
        <time>2023-05-27T16:11:17Z</time>
      </trkpt>
      <trkpt lat="43.59214" lon="2.23863">
        <ele>194</ele>
        <time>2023-05-27T16:11:18Z</time>
      </trkpt>
      <trkpt lat="43.59217" lon="2.23869">
        <ele>194</ele>
        <time>2023-05-27T16:11:19Z</time>
      </trkpt>
      <trkpt lat="43.5922" lon="2.23874">
        <ele>194</ele>
        <time>2023-05-27T16:11:20Z</time>
      </trkpt>
      <trkpt lat="43.59223" lon="2.23878">
        <ele>194</ele>
        <time>2023-05-27T16:11:21Z</time>
      </trkpt>
      <trkpt lat="43.59225" lon="2.23883">
        <ele>194</ele>
        <time>2023-05-27T16:11:22Z</time>
      </trkpt>
      <trkpt lat="43.59228" lon="2.23887">
        <ele>194</ele>
        <time>2023-05-27T16:11:23Z</time>
      </trkpt>
      <trkpt lat="43.5923" lon="2.23891">
        <ele>194</ele>
        <time>2023-05-27T16:11:24Z</time>
      </trkpt>
      <trkpt lat="43.59232" lon="2.23896">
        <ele>193.8</ele>
        <time>2023-05-27T16:11:25Z</time>
      </trkpt>
      <trkpt lat="43.59235" lon="2.23901">
        <ele>193.8</ele>
        <time>2023-05-27T16:11:26Z</time>
      </trkpt>
      <trkpt lat="43.59238" lon="2.23906">
        <ele>193.8</ele>
        <time>2023-05-27T16:11:27Z</time>
      </trkpt>
      <trkpt lat="43.5924" lon="2.23911">
        <ele>193.6</ele>
        <time>2023-05-27T16:11:28Z</time>
      </trkpt>
      <trkpt lat="43.59242" lon="2.23915">
        <ele>193.8</ele>
        <time>2023-05-27T16:11:29Z</time>
      </trkpt>
      <trkpt lat="43.59244" lon="2.2392">
        <ele>193.6</ele>
        <time>2023-05-27T16:11:30Z</time>
      </trkpt>
      <trkpt lat="43.59246" lon="2.23925">
        <ele>193.6</ele>
        <time>2023-05-27T16:11:31Z</time>
      </trkpt>
      <trkpt lat="43.59248" lon="2.23931">
        <ele>193.6</ele>
        <time>2023-05-27T16:11:32Z</time>
      </trkpt>
      <trkpt lat="43.5925" lon="2.23935">
        <ele>193.4</ele>
        <time>2023-05-27T16:11:33Z</time>
      </trkpt>
      <trkpt lat="43.59253" lon="2.2394">
        <ele>193.4</ele>
        <time>2023-05-27T16:11:34Z</time>
      </trkpt>
      <trkpt lat="43.59255" lon="2.23945">
        <ele>193.2</ele>
        <time>2023-05-27T16:11:35Z</time>
      </trkpt>
      <trkpt lat="43.59258" lon="2.23951">
        <ele>193.2</ele>
        <time>2023-05-27T16:11:36Z</time>
      </trkpt>
      <trkpt lat="43.59261" lon="2.23956">
        <ele>193.2</ele>
        <time>2023-05-27T16:11:37Z</time>
      </trkpt>
      <trkpt lat="43.59263" lon="2.23961">
        <ele>193.2</ele>
        <time>2023-05-27T16:11:38Z</time>
      </trkpt>
      <trkpt lat="43.59267" lon="2.23966">
        <ele>193.2</ele>
        <time>2023-05-27T16:11:39Z</time>
      </trkpt>
      <trkpt lat="43.5927" lon="2.2397">
        <ele>193.2</ele>
        <time>2023-05-27T16:11:40Z</time>
      </trkpt>
      <trkpt lat="43.59274" lon="2.23975">
        <ele>193</ele>
        <time>2023-05-27T16:11:41Z</time>
      </trkpt>
      <trkpt lat="43.59277" lon="2.23978">
        <ele>193</ele>
        <time>2023-05-27T16:11:42Z</time>
      </trkpt>
      <trkpt lat="43.59281" lon="2.23983">
        <ele>193</ele>
        <time>2023-05-27T16:11:43Z</time>
      </trkpt>
      <trkpt lat="43.59286" lon="2.23987">
        <ele>193</ele>
        <time>2023-05-27T16:11:44Z</time>
      </trkpt>
      <trkpt lat="43.5929" lon="2.23991">
        <ele>192.8</ele>
        <time>2023-05-27T16:11:45Z</time>
      </trkpt>
      <trkpt lat="43.59295" lon="2.23995">
        <ele>192.8</ele>
        <time>2023-05-27T16:11:46Z</time>
      </trkpt>
      <trkpt lat="43.59299" lon="2.24">
        <ele>192.8</ele>
        <time>2023-05-27T16:11:47Z</time>
      </trkpt>
      <trkpt lat="43.59304" lon="2.24005">
        <ele>192.8</ele>
        <time>2023-05-27T16:11:48Z</time>
      </trkpt>
      <trkpt lat="43.59309" lon="2.24011">
        <ele>192.8</ele>
        <time>2023-05-27T16:11:49Z</time>
      </trkpt>
      <trkpt lat="43.59314" lon="2.24015">
        <ele>192.6</ele>
        <time>2023-05-27T16:11:50Z</time>
      </trkpt>
      <trkpt lat="43.59319" lon="2.24019">
        <ele>192.6</ele>
        <time>2023-05-27T16:11:51Z</time>
      </trkpt>
      <trkpt lat="43.59324" lon="2.24024">
        <ele>192.6</ele>
        <time>2023-05-27T16:11:52Z</time>
      </trkpt>
      <trkpt lat="43.59328" lon="2.24028">
        <ele>192.4</ele>
        <time>2023-05-27T16:11:53Z</time>
      </trkpt>
      <trkpt lat="43.59332" lon="2.24032">
        <ele>192.4</ele>
        <time>2023-05-27T16:11:54Z</time>
      </trkpt>
      <trkpt lat="43.59335" lon="2.24036">
        <ele>192.4</ele>
        <time>2023-05-27T16:11:55Z</time>
      </trkpt>
      <trkpt lat="43.5934" lon="2.2404">
        <ele>192.2</ele>
        <time>2023-05-27T16:11:56Z</time>
      </trkpt>
      <trkpt lat="43.59344" lon="2.24044">
        <ele>192.2</ele>
        <time>2023-05-27T16:11:57Z</time>
      </trkpt>
      <trkpt lat="43.59348" lon="2.24048">
        <ele>192.2</ele>
        <time>2023-05-27T16:11:58Z</time>
      </trkpt>
      <trkpt lat="43.59351" lon="2.24052">
        <ele>192.2</ele>
        <time>2023-05-27T16:11:59Z</time>
      </trkpt>
      <trkpt lat="43.59355" lon="2.24056">
        <ele>192</ele>
        <time>2023-05-27T16:12:00Z</time>
      </trkpt>
      <trkpt lat="43.5936" lon="2.2406">
        <ele>192</ele>
        <time>2023-05-27T16:12:01Z</time>
      </trkpt>
      <trkpt lat="43.59364" lon="2.24063">
        <ele>192</ele>
        <time>2023-05-27T16:12:02Z</time>
      </trkpt>
      <trkpt lat="43.59367" lon="2.24066">
        <ele>192</ele>
        <time>2023-05-27T16:12:03Z</time>
      </trkpt>
      <trkpt lat="43.59371" lon="2.24069">
        <ele>192</ele>
        <time>2023-05-27T16:12:04Z</time>
      </trkpt>
      <trkpt lat="43.59374" lon="2.24072">
        <ele>191.8</ele>
        <time>2023-05-27T16:12:05Z</time>
      </trkpt>
      <trkpt lat="43.59378" lon="2.24075">
        <ele>191.8</ele>
        <time>2023-05-27T16:12:06Z</time>
      </trkpt>
      <trkpt lat="43.59381" lon="2.24077">
        <ele>191.8</ele>
        <time>2023-05-27T16:12:07Z</time>
      </trkpt>
      <trkpt lat="43.59385" lon="2.2408">
        <ele>191.6</ele>
        <time>2023-05-27T16:12:08Z</time>
      </trkpt>
      <trkpt lat="43.59389" lon="2.24083">
        <ele>191.6</ele>
        <time>2023-05-27T16:12:09Z</time>
      </trkpt>
      <trkpt lat="43.59393" lon="2.24085">
        <ele>191.6</ele>
        <time>2023-05-27T16:12:10Z</time>
      </trkpt>
      <trkpt lat="43.59396" lon="2.24087">
        <ele>191.6</ele>
        <time>2023-05-27T16:12:11Z</time>
      </trkpt>
      <trkpt lat="43.594" lon="2.24089">
        <ele>191.6</ele>
        <time>2023-05-27T16:12:12Z</time>
      </trkpt>
      <trkpt lat="43.59404" lon="2.24091">
        <ele>191.6</ele>
        <time>2023-05-27T16:12:13Z</time>
      </trkpt>
      <trkpt lat="43.59407" lon="2.24092">
        <ele>191.4</ele>
        <time>2023-05-27T16:12:14Z</time>
      </trkpt>
      <trkpt lat="43.5941" lon="2.24093">
        <ele>191.4</ele>
        <time>2023-05-27T16:12:15Z</time>
      </trkpt>
      <trkpt lat="43.59413" lon="2.24094">
        <ele>191.4</ele>
        <time>2023-05-27T16:12:16Z</time>
      </trkpt>
      <trkpt lat="43.59416" lon="2.24094">
        <ele>191.2</ele>
        <time>2023-05-27T16:12:17Z</time>
      </trkpt>
      <trkpt lat="43.59418" lon="2.24095">
        <ele>191.2</ele>
        <time>2023-05-27T16:12:18Z</time>
      </trkpt>
      <trkpt lat="43.5942" lon="2.24095">
        <ele>191.2</ele>
        <time>2023-05-27T16:12:19Z</time>
      </trkpt>
      <trkpt lat="43.59421" lon="2.24095">
        <ele>191</ele>
        <time>2023-05-27T16:12:20Z</time>
      </trkpt>
      <trkpt lat="43.59422" lon="2.24096">
        <ele>191</ele>
        <time>2023-05-27T16:12:21Z</time>
      </trkpt>
      <trkpt lat="43.59424" lon="2.24097">
        <ele>191</ele>
        <time>2023-05-27T16:12:32Z</time>
      </trkpt>
      <trkpt lat="43.59425" lon="2.24098">
        <ele>191</ele>
        <time>2023-05-27T16:12:33Z</time>
      </trkpt>
      <trkpt lat="43.59426" lon="2.24098">
        <ele>191</ele>
        <time>2023-05-27T16:12:34Z</time>
      </trkpt>
      <trkpt lat="43.59427" lon="2.24098">
        <ele>191</ele>
        <time>2023-05-27T16:12:35Z</time>
      </trkpt>
      <trkpt lat="43.59428" lon="2.24098">
        <ele>190.8</ele>
        <time>2023-05-27T16:12:36Z</time>
      </trkpt>
      <trkpt lat="43.59428" lon="2.24098">
        <ele>190.8</ele>
        <time>2023-05-27T16:12:37Z</time>
      </trkpt>
      <trkpt lat="43.59428" lon="2.24098">
        <ele>190.8</ele>
        <time>2023-05-27T16:12:38Z</time>
      </trkpt>
      <trkpt lat="43.59428" lon="2.24098">
        <ele>190.8</ele>
        <time>2023-05-27T16:12:39Z</time>
      </trkpt>
      <trkpt lat="43.59428" lon="2.24098">
        <ele>190.8</ele>
        <time>2023-05-27T16:12:40Z</time>
      </trkpt>
      <trkpt lat="43.59428" lon="2.24098">
        <ele>190.8</ele>
        <time>2023-05-27T16:12:41Z</time>
      </trkpt>
      <trkpt lat="43.59432" lon="2.24097">
        <ele>190.8</ele>
        <time>2023-05-27T16:12:52Z</time>
      </trkpt>
      <trkpt lat="43.59432" lon="2.24096">
        <ele>190.8</ele>
        <time>2023-05-27T16:12:53Z</time>
      </trkpt>
      <trkpt lat="43.59433" lon="2.24094">
        <ele>190.8</ele>
        <time>2023-05-27T16:12:54Z</time>
      </trkpt>
      <trkpt lat="43.59434" lon="2.24093">
        <ele>190.8</ele>
        <time>2023-05-27T16:12:55Z</time>
      </trkpt>
      <trkpt lat="43.59435" lon="2.24092">
        <ele>190.8</ele>
        <time>2023-05-27T16:12:56Z</time>
      </trkpt>
      <trkpt lat="43.59435" lon="2.24091">
        <ele>190.6</ele>
        <time>2023-05-27T16:12:57Z</time>
      </trkpt>
      <trkpt lat="43.59436" lon="2.24089">
        <ele>190.6</ele>
        <time>2023-05-27T16:12:58Z</time>
      </trkpt>
      <trkpt lat="43.59436" lon="2.24088">
        <ele>190.6</ele>
        <time>2023-05-27T16:12:59Z</time>
      </trkpt>
      <trkpt lat="43.59436" lon="2.24086">
        <ele>190.6</ele>
        <time>2023-05-27T16:13:00Z</time>
      </trkpt>
      <trkpt lat="43.59436" lon="2.24084">
        <ele>190.6</ele>
        <time>2023-05-27T16:13:01Z</time>
      </trkpt>
      <trkpt lat="43.59436" lon="2.24083">
        <ele>190.4</ele>
        <time>2023-05-27T16:13:02Z</time>
      </trkpt>
      <trkpt lat="43.59436" lon="2.24082">
        <ele>190.4</ele>
        <time>2023-05-27T16:13:03Z</time>
      </trkpt>
      <trkpt lat="43.59436" lon="2.24082">
        <ele>190.4</ele>
        <time>2023-05-27T16:13:04Z</time>
      </trkpt>
      <trkpt lat="43.59436" lon="2.24082">
        <ele>190.4</ele>
        <time>2023-05-27T16:13:05Z</time>
      </trkpt>
      <trkpt lat="43.59436" lon="2.24082">
        <ele>190.4</ele>
        <time>2023-05-27T16:13:06Z</time>
      </trkpt>
      <trkpt lat="43.59436" lon="2.24082">
        <ele>190.4</ele>
        <time>2023-05-27T16:13:07Z</time>
      </trkpt>
      <trkpt lat="43.59436" lon="2.24082">
        <ele>190.2</ele>
        <time>2023-05-27T16:13:08Z</time>
      </trkpt>
      <trkpt lat="43.59436" lon="2.24078">
        <ele>190.2</ele>
        <time>2023-05-27T16:13:11Z</time>
      </trkpt>
      <trkpt lat="43.59436" lon="2.24076">
        <ele>190.2</ele>
        <time>2023-05-27T16:13:12Z</time>
      </trkpt>
      <trkpt lat="43.59436" lon="2.24073">
        <ele>190.2</ele>
        <time>2023-05-27T16:13:13Z</time>
      </trkpt>
      <trkpt lat="43.59436" lon="2.24069">
        <ele>190</ele>
        <time>2023-05-27T16:13:14Z</time>
      </trkpt>
      <trkpt lat="43.59436" lon="2.24066">
        <ele>190</ele>
        <time>2023-05-27T16:13:15Z</time>
      </trkpt>
      <trkpt lat="43.59436" lon="2.24061">
        <ele>190</ele>
        <time>2023-05-27T16:13:16Z</time>
      </trkpt>
      <trkpt lat="43.59436" lon="2.24057">
        <ele>189.8</ele>
        <time>2023-05-27T16:13:17Z</time>
      </trkpt>
      <trkpt lat="43.59436" lon="2.2405">
        <ele>189.8</ele>
        <time>2023-05-27T16:13:18Z</time>
      </trkpt>
      <trkpt lat="43.59436" lon="2.24044">
        <ele>189.8</ele>
        <time>2023-05-27T16:13:19Z</time>
      </trkpt>
      <trkpt lat="43.59436" lon="2.24038">
        <ele>189.6</ele>
        <time>2023-05-27T16:13:20Z</time>
      </trkpt>
      <trkpt lat="43.59436" lon="2.24031">
        <ele>189.6</ele>
        <time>2023-05-27T16:13:21Z</time>
      </trkpt>
      <trkpt lat="43.59436" lon="2.24024">
        <ele>189.4</ele>
        <time>2023-05-27T16:13:22Z</time>
      </trkpt>
      <trkpt lat="43.59436" lon="2.24017">
        <ele>189.2</ele>
        <time>2023-05-27T16:13:23Z</time>
      </trkpt>
      <trkpt lat="43.59436" lon="2.24009">
        <ele>189</ele>
        <time>2023-05-27T16:13:24Z</time>
      </trkpt>
      <trkpt lat="43.59436" lon="2.24002">
        <ele>188.8</ele>
        <time>2023-05-27T16:13:25Z</time>
      </trkpt>
      <trkpt lat="43.59436" lon="2.23993">
        <ele>188.6</ele>
        <time>2023-05-27T16:13:26Z</time>
      </trkpt>
      <trkpt lat="43.59436" lon="2.23985">
        <ele>188.4</ele>
        <time>2023-05-27T16:13:27Z</time>
      </trkpt>
      <trkpt lat="43.59436" lon="2.23976">
        <ele>188.2</ele>
        <time>2023-05-27T16:13:28Z</time>
      </trkpt>
      <trkpt lat="43.59436" lon="2.23967">
        <ele>188</ele>
        <time>2023-05-27T16:13:29Z</time>
      </trkpt>
      <trkpt lat="43.59436" lon="2.23958">
        <ele>187.8</ele>
        <time>2023-05-27T16:13:30Z</time>
      </trkpt>
      <trkpt lat="43.59436" lon="2.23949">
        <ele>187.6</ele>
        <time>2023-05-27T16:13:31Z</time>
      </trkpt>
      <trkpt lat="43.59436" lon="2.2394">
        <ele>187.4</ele>
        <time>2023-05-27T16:13:32Z</time>
      </trkpt>
      <trkpt lat="43.59436" lon="2.23931">
        <ele>187</ele>
        <time>2023-05-27T16:13:33Z</time>
      </trkpt>
      <trkpt lat="43.59436" lon="2.23923">
        <ele>186.8</ele>
        <time>2023-05-27T16:13:34Z</time>
      </trkpt>
      <trkpt lat="43.59436" lon="2.23911">
        <ele>186.4</ele>
        <time>2023-05-27T16:13:35Z</time>
      </trkpt>
      <trkpt lat="43.59436" lon="2.23902">
        <ele>186.2</ele>
        <time>2023-05-27T16:13:36Z</time>
      </trkpt>
      <trkpt lat="43.59436" lon="2.23892">
        <ele>185.8</ele>
        <time>2023-05-27T16:13:37Z</time>
      </trkpt>
      <trkpt lat="43.59436" lon="2.23882">
        <ele>185.6</ele>
        <time>2023-05-27T16:13:38Z</time>
      </trkpt>
      <trkpt lat="43.59436" lon="2.23873">
        <ele>185.4</ele>
        <time>2023-05-27T16:13:39Z</time>
      </trkpt>
      <trkpt lat="43.59436" lon="2.23863">
        <ele>185.2</ele>
        <time>2023-05-27T16:13:40Z</time>
      </trkpt>
      <trkpt lat="43.59436" lon="2.23853">
        <ele>184.8</ele>
        <time>2023-05-27T16:13:41Z</time>
      </trkpt>
      <trkpt lat="43.59437" lon="2.23844">
        <ele>184.8</ele>
        <time>2023-05-27T16:13:42Z</time>
      </trkpt>
      <trkpt lat="43.59437" lon="2.23835">
        <ele>184.6</ele>
        <time>2023-05-27T16:13:43Z</time>
      </trkpt>
      <trkpt lat="43.59438" lon="2.23825">
        <ele>184.4</ele>
        <time>2023-05-27T16:13:44Z</time>
      </trkpt>
      <trkpt lat="43.59439" lon="2.23817">
        <ele>184.4</ele>
        <time>2023-05-27T16:13:45Z</time>
      </trkpt>
      <trkpt lat="43.5944" lon="2.23806">
        <ele>184.2</ele>
        <time>2023-05-27T16:13:46Z</time>
      </trkpt>
      <trkpt lat="43.59442" lon="2.23798">
        <ele>184.2</ele>
        <time>2023-05-27T16:13:47Z</time>
      </trkpt>
      <trkpt lat="43.59443" lon="2.23789">
        <ele>184.2</ele>
        <time>2023-05-27T16:13:48Z</time>
      </trkpt>
      <trkpt lat="43.59445" lon="2.23781">
        <ele>184</ele>
        <time>2023-05-27T16:13:49Z</time>
      </trkpt>
      <trkpt lat="43.59447" lon="2.23773">
        <ele>184</ele>
        <time>2023-05-27T16:13:50Z</time>
      </trkpt>
      <trkpt lat="43.5945" lon="2.23766">
        <ele>184</ele>
        <time>2023-05-27T16:13:51Z</time>
      </trkpt>
      <trkpt lat="43.59452" lon="2.23758">
        <ele>184</ele>
        <time>2023-05-27T16:13:52Z</time>
      </trkpt>
      <trkpt lat="43.59454" lon="2.2375">
        <ele>184</ele>
        <time>2023-05-27T16:13:53Z</time>
      </trkpt>
      <trkpt lat="43.59457" lon="2.23742">
        <ele>183.8</ele>
        <time>2023-05-27T16:13:54Z</time>
      </trkpt>
      <trkpt lat="43.59459" lon="2.23735">
        <ele>183.8</ele>
        <time>2023-05-27T16:13:55Z</time>
      </trkpt>
      <trkpt lat="43.59461" lon="2.23727">
        <ele>183.8</ele>
        <time>2023-05-27T16:13:56Z</time>
      </trkpt>
      <trkpt lat="43.59463" lon="2.2372">
        <ele>183.8</ele>
        <time>2023-05-27T16:13:57Z</time>
      </trkpt>
      <trkpt lat="43.59465" lon="2.23713">
        <ele>183.8</ele>
        <time>2023-05-27T16:13:58Z</time>
      </trkpt>
      <trkpt lat="43.59467" lon="2.23706">
        <ele>183.6</ele>
        <time>2023-05-27T16:13:59Z</time>
      </trkpt>
      <trkpt lat="43.59469" lon="2.23699">
        <ele>183.6</ele>
        <time>2023-05-27T16:14:00Z</time>
      </trkpt>
      <trkpt lat="43.59471" lon="2.23693">
        <ele>183.6</ele>
        <time>2023-05-27T16:14:01Z</time>
      </trkpt>
      <trkpt lat="43.59474" lon="2.23687">
        <ele>183.6</ele>
        <time>2023-05-27T16:14:02Z</time>
      </trkpt>
      <trkpt lat="43.59477" lon="2.23681">
        <ele>183.6</ele>
        <time>2023-05-27T16:14:03Z</time>
      </trkpt>
      <trkpt lat="43.59481" lon="2.23676">
        <ele>183.4</ele>
        <time>2023-05-27T16:14:04Z</time>
      </trkpt>
      <trkpt lat="43.59486" lon="2.23673">
        <ele>183.4</ele>
        <time>2023-05-27T16:14:05Z</time>
      </trkpt>
      <trkpt lat="43.5949" lon="2.2367">
        <ele>183.4</ele>
        <time>2023-05-27T16:14:06Z</time>
      </trkpt>
      <trkpt lat="43.59495" lon="2.23669">
        <ele>183.4</ele>
        <time>2023-05-27T16:14:07Z</time>
      </trkpt>
      <trkpt lat="43.595" lon="2.2367">
        <ele>183.4</ele>
        <time>2023-05-27T16:14:08Z</time>
      </trkpt>
      <trkpt lat="43.59505" lon="2.23672">
        <ele>183.4</ele>
        <time>2023-05-27T16:14:09Z</time>
      </trkpt>
      <trkpt lat="43.5951" lon="2.23675">
        <ele>183.4</ele>
        <time>2023-05-27T16:14:10Z</time>
      </trkpt>
      <trkpt lat="43.59515" lon="2.23678">
        <ele>183.4</ele>
        <time>2023-05-27T16:14:11Z</time>
      </trkpt>
      <trkpt lat="43.5952" lon="2.23681">
        <ele>183.2</ele>
        <time>2023-05-27T16:14:12Z</time>
      </trkpt>
      <trkpt lat="43.59525" lon="2.23684">
        <ele>183.2</ele>
        <time>2023-05-27T16:14:13Z</time>
      </trkpt>
      <trkpt lat="43.59531" lon="2.23687">
        <ele>183.2</ele>
        <time>2023-05-27T16:14:14Z</time>
      </trkpt>
      <trkpt lat="43.59536" lon="2.2369">
        <ele>183.2</ele>
        <time>2023-05-27T16:14:15Z</time>
      </trkpt>
      <trkpt lat="43.59541" lon="2.23693">
        <ele>183.2</ele>
        <time>2023-05-27T16:14:16Z</time>
      </trkpt>
      <trkpt lat="43.59546" lon="2.23696">
        <ele>183.2</ele>
        <time>2023-05-27T16:14:17Z</time>
      </trkpt>
      <trkpt lat="43.5955" lon="2.23698">
        <ele>183.2</ele>
        <time>2023-05-27T16:14:18Z</time>
      </trkpt>
      <trkpt lat="43.59556" lon="2.237">
        <ele>183.2</ele>
        <time>2023-05-27T16:14:19Z</time>
      </trkpt>
      <trkpt lat="43.59561" lon="2.23702">
        <ele>183.2</ele>
        <time>2023-05-27T16:14:20Z</time>
      </trkpt>
      <trkpt lat="43.59565" lon="2.23705">
        <ele>183.2</ele>
        <time>2023-05-27T16:14:21Z</time>
      </trkpt>
      <trkpt lat="43.5957" lon="2.23708">
        <ele>183.2</ele>
        <time>2023-05-27T16:14:22Z</time>
      </trkpt>
      <trkpt lat="43.59574" lon="2.2371">
        <ele>183.2</ele>
        <time>2023-05-27T16:14:23Z</time>
      </trkpt>
      <trkpt lat="43.59579" lon="2.23713">
        <ele>183.2</ele>
        <time>2023-05-27T16:14:24Z</time>
      </trkpt>
      <trkpt lat="43.59584" lon="2.23715">
        <ele>183.2</ele>
        <time>2023-05-27T16:14:25Z</time>
      </trkpt>
      <trkpt lat="43.59589" lon="2.23718">
        <ele>183.2</ele>
        <time>2023-05-27T16:14:26Z</time>
      </trkpt>
      <trkpt lat="43.59593" lon="2.23721">
        <ele>183.2</ele>
        <time>2023-05-27T16:14:27Z</time>
      </trkpt>
      <trkpt lat="43.59597" lon="2.23724">
        <ele>183.2</ele>
        <time>2023-05-27T16:14:28Z</time>
      </trkpt>
      <trkpt lat="43.59602" lon="2.23727">
        <ele>183.2</ele>
        <time>2023-05-27T16:14:29Z</time>
      </trkpt>
      <trkpt lat="43.59607" lon="2.23729">
        <ele>183.2</ele>
        <time>2023-05-27T16:14:30Z</time>
      </trkpt>
      <trkpt lat="43.59612" lon="2.23731">
        <ele>183.2</ele>
        <time>2023-05-27T16:14:31Z</time>
      </trkpt>
      <trkpt lat="43.59616" lon="2.23734">
        <ele>183.2</ele>
        <time>2023-05-27T16:14:32Z</time>
      </trkpt>
      <trkpt lat="43.59621" lon="2.23737">
        <ele>183.2</ele>
        <time>2023-05-27T16:14:33Z</time>
      </trkpt>
      <trkpt lat="43.59625" lon="2.23739">
        <ele>183.2</ele>
        <time>2023-05-27T16:14:34Z</time>
      </trkpt>
      <trkpt lat="43.5963" lon="2.23742">
        <ele>183.2</ele>
        <time>2023-05-27T16:14:35Z</time>
      </trkpt>
      <trkpt lat="43.59634" lon="2.23745">
        <ele>183.4</ele>
        <time>2023-05-27T16:14:36Z</time>
      </trkpt>
      <trkpt lat="43.59639" lon="2.23748">
        <ele>183.4</ele>
        <time>2023-05-27T16:14:37Z</time>
      </trkpt>
      <trkpt lat="43.59643" lon="2.2375">
        <ele>183.4</ele>
        <time>2023-05-27T16:14:38Z</time>
      </trkpt>
      <trkpt lat="43.59648" lon="2.23753">
        <ele>183.4</ele>
        <time>2023-05-27T16:14:39Z</time>
      </trkpt>
      <trkpt lat="43.59653" lon="2.23755">
        <ele>183.4</ele>
        <time>2023-05-27T16:14:40Z</time>
      </trkpt>
      <trkpt lat="43.59657" lon="2.23757">
        <ele>183.4</ele>
        <time>2023-05-27T16:14:41Z</time>
      </trkpt>
      <trkpt lat="43.59662" lon="2.2376">
        <ele>183.4</ele>
        <time>2023-05-27T16:14:42Z</time>
      </trkpt>
      <trkpt lat="43.59667" lon="2.23762">
        <ele>183.4</ele>
        <time>2023-05-27T16:14:43Z</time>
      </trkpt>
      <trkpt lat="43.59671" lon="2.23764">
        <ele>183.4</ele>
        <time>2023-05-27T16:14:44Z</time>
      </trkpt>
      <trkpt lat="43.59676" lon="2.23766">
        <ele>183.4</ele>
        <time>2023-05-27T16:14:45Z</time>
      </trkpt>
      <trkpt lat="43.5968" lon="2.23769">
        <ele>183.4</ele>
        <time>2023-05-27T16:14:46Z</time>
      </trkpt>
      <trkpt lat="43.59685" lon="2.23771">
        <ele>183.4</ele>
        <time>2023-05-27T16:14:47Z</time>
      </trkpt>
      <trkpt lat="43.59689" lon="2.23774">
        <ele>183.6</ele>
        <time>2023-05-27T16:14:48Z</time>
      </trkpt>
      <trkpt lat="43.59693" lon="2.23777">
        <ele>183.6</ele>
        <time>2023-05-27T16:14:49Z</time>
      </trkpt>
      <trkpt lat="43.59698" lon="2.2378">
        <ele>183.6</ele>
        <time>2023-05-27T16:14:50Z</time>
      </trkpt>
      <trkpt lat="43.59703" lon="2.23783">
        <ele>183.6</ele>
        <time>2023-05-27T16:14:51Z</time>
      </trkpt>
      <trkpt lat="43.59707" lon="2.23785">
        <ele>183.6</ele>
        <time>2023-05-27T16:14:52Z</time>
      </trkpt>
      <trkpt lat="43.59712" lon="2.23788">
        <ele>183.6</ele>
        <time>2023-05-27T16:14:53Z</time>
      </trkpt>
      <trkpt lat="43.59716" lon="2.2379">
        <ele>183.6</ele>
        <time>2023-05-27T16:14:54Z</time>
      </trkpt>
      <trkpt lat="43.59721" lon="2.23793">
        <ele>183.6</ele>
        <time>2023-05-27T16:14:55Z</time>
      </trkpt>
      <trkpt lat="43.59726" lon="2.23795">
        <ele>183.6</ele>
        <time>2023-05-27T16:14:56Z</time>
      </trkpt>
      <trkpt lat="43.5973" lon="2.23797">
        <ele>183.6</ele>
        <time>2023-05-27T16:14:57Z</time>
      </trkpt>
      <trkpt lat="43.59734" lon="2.238">
        <ele>183.6</ele>
        <time>2023-05-27T16:14:58Z</time>
      </trkpt>
      <trkpt lat="43.59739" lon="2.23802">
        <ele>183.6</ele>
        <time>2023-05-27T16:14:59Z</time>
      </trkpt>
      <trkpt lat="43.59743" lon="2.23805">
        <ele>183.6</ele>
        <time>2023-05-27T16:15:00Z</time>
      </trkpt>
      <trkpt lat="43.59748" lon="2.23807">
        <ele>183.6</ele>
        <time>2023-05-27T16:15:01Z</time>
      </trkpt>
      <trkpt lat="43.59752" lon="2.2381">
        <ele>183.6</ele>
        <time>2023-05-27T16:15:02Z</time>
      </trkpt>
      <trkpt lat="43.59756" lon="2.23812">
        <ele>183.6</ele>
        <time>2023-05-27T16:15:03Z</time>
      </trkpt>
      <trkpt lat="43.5976" lon="2.23814">
        <ele>183.6</ele>
        <time>2023-05-27T16:15:04Z</time>
      </trkpt>
      <trkpt lat="43.59765" lon="2.23817">
        <ele>183.6</ele>
        <time>2023-05-27T16:15:05Z</time>
      </trkpt>
      <trkpt lat="43.5977" lon="2.23819">
        <ele>183.6</ele>
        <time>2023-05-27T16:15:06Z</time>
      </trkpt>
      <trkpt lat="43.59775" lon="2.23821">
        <ele>183.6</ele>
        <time>2023-05-27T16:15:07Z</time>
      </trkpt>
      <trkpt lat="43.59779" lon="2.23824">
        <ele>183.6</ele>
        <time>2023-05-27T16:15:08Z</time>
      </trkpt>
      <trkpt lat="43.59783" lon="2.23827">
        <ele>183.6</ele>
        <time>2023-05-27T16:15:09Z</time>
      </trkpt>
      <trkpt lat="43.59787" lon="2.2383">
        <ele>183.6</ele>
        <time>2023-05-27T16:15:10Z</time>
      </trkpt>
      <trkpt lat="43.59791" lon="2.23833">
        <ele>183.6</ele>
        <time>2023-05-27T16:15:11Z</time>
      </trkpt>
      <trkpt lat="43.59795" lon="2.23835">
        <ele>183.6</ele>
        <time>2023-05-27T16:15:12Z</time>
      </trkpt>
      <trkpt lat="43.598" lon="2.23838">
        <ele>183.6</ele>
        <time>2023-05-27T16:15:13Z</time>
      </trkpt>
      <trkpt lat="43.59805" lon="2.23841">
        <ele>183.6</ele>
        <time>2023-05-27T16:15:14Z</time>
      </trkpt>
      <trkpt lat="43.59809" lon="2.23844">
        <ele>183.6</ele>
        <time>2023-05-27T16:15:15Z</time>
      </trkpt>
      <trkpt lat="43.59814" lon="2.23846">
        <ele>183.6</ele>
        <time>2023-05-27T16:15:16Z</time>
      </trkpt>
      <trkpt lat="43.59819" lon="2.23849">
        <ele>183.6</ele>
        <time>2023-05-27T16:15:17Z</time>
      </trkpt>
      <trkpt lat="43.59823" lon="2.23852">
        <ele>183.8</ele>
        <time>2023-05-27T16:15:18Z</time>
      </trkpt>
      <trkpt lat="43.59827" lon="2.23853">
        <ele>183.8</ele>
        <time>2023-05-27T16:15:19Z</time>
      </trkpt>
      <trkpt lat="43.59832" lon="2.23855">
        <ele>183.8</ele>
        <time>2023-05-27T16:15:20Z</time>
      </trkpt>
      <trkpt lat="43.59836" lon="2.23858">
        <ele>183.8</ele>
        <time>2023-05-27T16:15:21Z</time>
      </trkpt>
      <trkpt lat="43.59839" lon="2.23859">
        <ele>183.8</ele>
        <time>2023-05-27T16:15:22Z</time>
      </trkpt>
      <trkpt lat="43.59844" lon="2.23862">
        <ele>183.8</ele>
        <time>2023-05-27T16:15:23Z</time>
      </trkpt>
      <trkpt lat="43.59848" lon="2.23864">
        <ele>183.8</ele>
        <time>2023-05-27T16:15:24Z</time>
      </trkpt>
      <trkpt lat="43.59852" lon="2.23867">
        <ele>183.8</ele>
        <time>2023-05-27T16:15:25Z</time>
      </trkpt>
      <trkpt lat="43.59857" lon="2.23869">
        <ele>183.8</ele>
        <time>2023-05-27T16:15:26Z</time>
      </trkpt>
      <trkpt lat="43.59861" lon="2.23871">
        <ele>183.8</ele>
        <time>2023-05-27T16:15:27Z</time>
      </trkpt>
      <trkpt lat="43.59865" lon="2.23873">
        <ele>183.8</ele>
        <time>2023-05-27T16:15:28Z</time>
      </trkpt>
      <trkpt lat="43.59869" lon="2.23876">
        <ele>183.8</ele>
        <time>2023-05-27T16:15:29Z</time>
      </trkpt>
      <trkpt lat="43.59873" lon="2.23878">
        <ele>183.8</ele>
        <time>2023-05-27T16:15:30Z</time>
      </trkpt>
      <trkpt lat="43.59877" lon="2.2388">
        <ele>183.8</ele>
        <time>2023-05-27T16:15:31Z</time>
      </trkpt>
      <trkpt lat="43.59882" lon="2.23883">
        <ele>183.8</ele>
        <time>2023-05-27T16:15:32Z</time>
      </trkpt>
      <trkpt lat="43.59886" lon="2.23885">
        <ele>183.8</ele>
        <time>2023-05-27T16:15:33Z</time>
      </trkpt>
      <trkpt lat="43.5989" lon="2.23888">
        <ele>183.8</ele>
        <time>2023-05-27T16:15:34Z</time>
      </trkpt>
      <trkpt lat="43.59894" lon="2.2389">
        <ele>183.8</ele>
        <time>2023-05-27T16:15:35Z</time>
      </trkpt>
      <trkpt lat="43.59899" lon="2.23892">
        <ele>184</ele>
        <time>2023-05-27T16:15:36Z</time>
      </trkpt>
      <trkpt lat="43.59903" lon="2.23894">
        <ele>184</ele>
        <time>2023-05-27T16:15:37Z</time>
      </trkpt>
      <trkpt lat="43.59908" lon="2.23897">
        <ele>184</ele>
        <time>2023-05-27T16:15:38Z</time>
      </trkpt>
      <trkpt lat="43.59912" lon="2.23899">
        <ele>184</ele>
        <time>2023-05-27T16:15:39Z</time>
      </trkpt>
      <trkpt lat="43.59916" lon="2.23902">
        <ele>184</ele>
        <time>2023-05-27T16:15:40Z</time>
      </trkpt>
      <trkpt lat="43.59921" lon="2.23905">
        <ele>184</ele>
        <time>2023-05-27T16:15:41Z</time>
      </trkpt>
      <trkpt lat="43.59925" lon="2.23907">
        <ele>184</ele>
        <time>2023-05-27T16:15:42Z</time>
      </trkpt>
      <trkpt lat="43.59929" lon="2.23909">
        <ele>184</ele>
        <time>2023-05-27T16:15:43Z</time>
      </trkpt>
      <trkpt lat="43.59933" lon="2.23911">
        <ele>184</ele>
        <time>2023-05-27T16:15:44Z</time>
      </trkpt>
      <trkpt lat="43.59937" lon="2.23914">
        <ele>184</ele>
        <time>2023-05-27T16:15:45Z</time>
      </trkpt>
      <trkpt lat="43.59941" lon="2.23916">
        <ele>184</ele>
        <time>2023-05-27T16:15:46Z</time>
      </trkpt>
      <trkpt lat="43.59946" lon="2.23918">
        <ele>184</ele>
        <time>2023-05-27T16:15:47Z</time>
      </trkpt>
      <trkpt lat="43.5995" lon="2.2392">
        <ele>184</ele>
        <time>2023-05-27T16:15:48Z</time>
      </trkpt>
      <trkpt lat="43.59955" lon="2.23921">
        <ele>184</ele>
        <time>2023-05-27T16:15:49Z</time>
      </trkpt>
      <trkpt lat="43.59959" lon="2.23923">
        <ele>184</ele>
        <time>2023-05-27T16:15:50Z</time>
      </trkpt>
      <trkpt lat="43.59962" lon="2.23925">
        <ele>184.2</ele>
        <time>2023-05-27T16:15:51Z</time>
      </trkpt>
      <trkpt lat="43.59965" lon="2.23927">
        <ele>184.2</ele>
        <time>2023-05-27T16:15:52Z</time>
      </trkpt>
      <trkpt lat="43.59968" lon="2.23929">
        <ele>184.2</ele>
        <time>2023-05-27T16:15:53Z</time>
      </trkpt>
      <trkpt lat="43.59971" lon="2.23931">
        <ele>184.2</ele>
        <time>2023-05-27T16:15:54Z</time>
      </trkpt>
      <trkpt lat="43.59974" lon="2.23933">
        <ele>184.2</ele>
        <time>2023-05-27T16:15:55Z</time>
      </trkpt>
      <trkpt lat="43.59978" lon="2.23936">
        <ele>184.2</ele>
        <time>2023-05-27T16:15:56Z</time>
      </trkpt>
      <trkpt lat="43.59982" lon="2.23939">
        <ele>184.2</ele>
        <time>2023-05-27T16:15:57Z</time>
      </trkpt>
      <trkpt lat="43.59985" lon="2.23941">
        <ele>184.2</ele>
        <time>2023-05-27T16:15:58Z</time>
      </trkpt>
      <trkpt lat="43.59989" lon="2.23943">
        <ele>184.2</ele>
        <time>2023-05-27T16:15:59Z</time>
      </trkpt>
      <trkpt lat="43.59994" lon="2.23945">
        <ele>184.2</ele>
        <time>2023-05-27T16:16:00Z</time>
      </trkpt>
      <trkpt lat="43.59999" lon="2.23946">
        <ele>184.2</ele>
        <time>2023-05-27T16:16:01Z</time>
      </trkpt>
      <trkpt lat="43.60004" lon="2.23947">
        <ele>184.2</ele>
        <time>2023-05-27T16:16:02Z</time>
      </trkpt>
      <trkpt lat="43.60008" lon="2.23948">
        <ele>184.2</ele>
        <time>2023-05-27T16:16:03Z</time>
      </trkpt>
      <trkpt lat="43.60011" lon="2.23949">
        <ele>184.2</ele>
        <time>2023-05-27T16:16:04Z</time>
      </trkpt>
      <trkpt lat="43.60016" lon="2.23952">
        <ele>184.2</ele>
        <time>2023-05-27T16:16:05Z</time>
      </trkpt>
      <trkpt lat="43.6002" lon="2.23954">
        <ele>184.4</ele>
        <time>2023-05-27T16:16:06Z</time>
      </trkpt>
      <trkpt lat="43.60025" lon="2.23956">
        <ele>184.4</ele>
        <time>2023-05-27T16:16:07Z</time>
      </trkpt>
      <trkpt lat="43.6003" lon="2.23958">
        <ele>184.4</ele>
        <time>2023-05-27T16:16:08Z</time>
      </trkpt>
      <trkpt lat="43.60036" lon="2.23962">
        <ele>184.2</ele>
        <time>2023-05-27T16:16:09Z</time>
      </trkpt>
      <trkpt lat="43.60038" lon="2.23964">
        <ele>184.2</ele>
        <time>2023-05-27T16:16:10Z</time>
      </trkpt>
      <trkpt lat="43.6004" lon="2.23968">
        <ele>184.2</ele>
        <time>2023-05-27T16:16:11Z</time>
      </trkpt>
      <trkpt lat="43.60042" lon="2.23971">
        <ele>184.2</ele>
        <time>2023-05-27T16:16:12Z</time>
      </trkpt>
      <trkpt lat="43.60046" lon="2.23973">
        <ele>184.2</ele>
        <time>2023-05-27T16:16:13Z</time>
      </trkpt>
      <trkpt lat="43.60049" lon="2.23975">
        <ele>184.2</ele>
        <time>2023-05-27T16:16:14Z</time>
      </trkpt>
      <trkpt lat="43.60052" lon="2.23978">
        <ele>184.2</ele>
        <time>2023-05-27T16:16:15Z</time>
      </trkpt>
      <trkpt lat="43.60056" lon="2.2398">
        <ele>184.2</ele>
        <time>2023-05-27T16:16:16Z</time>
      </trkpt>
      <trkpt lat="43.6006" lon="2.23982">
        <ele>184.2</ele>
        <time>2023-05-27T16:16:17Z</time>
      </trkpt>
      <trkpt lat="43.60064" lon="2.23985">
        <ele>184.2</ele>
        <time>2023-05-27T16:16:18Z</time>
      </trkpt>
      <trkpt lat="43.60068" lon="2.23986">
        <ele>184.2</ele>
        <time>2023-05-27T16:16:19Z</time>
      </trkpt>
      <trkpt lat="43.60073" lon="2.23988">
        <ele>184.4</ele>
        <time>2023-05-27T16:16:20Z</time>
      </trkpt>
      <trkpt lat="43.60077" lon="2.2399">
        <ele>184.4</ele>
        <time>2023-05-27T16:16:21Z</time>
      </trkpt>
      <trkpt lat="43.60081" lon="2.23992">
        <ele>184.4</ele>
        <time>2023-05-27T16:16:22Z</time>
      </trkpt>
      <trkpt lat="43.60085" lon="2.23994">
        <ele>184.4</ele>
        <time>2023-05-27T16:16:23Z</time>
      </trkpt>
      <trkpt lat="43.60089" lon="2.23996">
        <ele>184.4</ele>
        <time>2023-05-27T16:16:24Z</time>
      </trkpt>
      <trkpt lat="43.60092" lon="2.23998">
        <ele>184.4</ele>
        <time>2023-05-27T16:16:25Z</time>
      </trkpt>
      <trkpt lat="43.60096" lon="2.24">
        <ele>184.4</ele>
        <time>2023-05-27T16:16:26Z</time>
      </trkpt>
      <trkpt lat="43.60099" lon="2.24002">
        <ele>184.4</ele>
        <time>2023-05-27T16:16:27Z</time>
      </trkpt>
      <trkpt lat="43.60103" lon="2.24004">
        <ele>184.4</ele>
        <time>2023-05-27T16:16:28Z</time>
      </trkpt>
      <trkpt lat="43.60106" lon="2.24006">
        <ele>184.2</ele>
        <time>2023-05-27T16:16:29Z</time>
      </trkpt>
      <trkpt lat="43.60109" lon="2.24008">
        <ele>184.2</ele>
        <time>2023-05-27T16:16:30Z</time>
      </trkpt>
      <trkpt lat="43.60113" lon="2.2401">
        <ele>184.4</ele>
        <time>2023-05-27T16:16:31Z</time>
      </trkpt>
      <trkpt lat="43.60116" lon="2.24012">
        <ele>184.4</ele>
        <time>2023-05-27T16:16:32Z</time>
      </trkpt>
      <trkpt lat="43.60119" lon="2.24014">
        <ele>184.4</ele>
        <time>2023-05-27T16:16:33Z</time>
      </trkpt>
      <trkpt lat="43.60122" lon="2.24016">
        <ele>184.4</ele>
        <time>2023-05-27T16:16:34Z</time>
      </trkpt>
      <trkpt lat="43.60126" lon="2.24018">
        <ele>184.4</ele>
        <time>2023-05-27T16:16:35Z</time>
      </trkpt>
      <trkpt lat="43.60129" lon="2.2402">
        <ele>184.4</ele>
        <time>2023-05-27T16:16:36Z</time>
      </trkpt>
      <trkpt lat="43.60133" lon="2.24023">
        <ele>184.6</ele>
        <time>2023-05-27T16:16:37Z</time>
      </trkpt>
      <trkpt lat="43.60137" lon="2.24026">
        <ele>184.6</ele>
        <time>2023-05-27T16:16:38Z</time>
      </trkpt>
      <trkpt lat="43.60142" lon="2.24028">
        <ele>184.6</ele>
        <time>2023-05-27T16:16:39Z</time>
      </trkpt>
      <trkpt lat="43.60147" lon="2.24031">
        <ele>184.6</ele>
        <time>2023-05-27T16:16:40Z</time>
      </trkpt>
      <trkpt lat="43.6015" lon="2.24034">
        <ele>184.6</ele>
        <time>2023-05-27T16:16:41Z</time>
      </trkpt>
      <trkpt lat="43.60154" lon="2.24037">
        <ele>184.6</ele>
        <time>2023-05-27T16:16:42Z</time>
      </trkpt>
      <trkpt lat="43.60158" lon="2.2404">
        <ele>184.6</ele>
        <time>2023-05-27T16:16:43Z</time>
      </trkpt>
      <trkpt lat="43.60161" lon="2.24043">
        <ele>184.6</ele>
        <time>2023-05-27T16:16:44Z</time>
      </trkpt>
      <trkpt lat="43.60165" lon="2.24045">
        <ele>184.6</ele>
        <time>2023-05-27T16:16:45Z</time>
      </trkpt>
      <trkpt lat="43.60169" lon="2.24047">
        <ele>184.6</ele>
        <time>2023-05-27T16:16:46Z</time>
      </trkpt>
      <trkpt lat="43.60172" lon="2.24049">
        <ele>184.6</ele>
        <time>2023-05-27T16:16:47Z</time>
      </trkpt>
      <trkpt lat="43.60175" lon="2.24052">
        <ele>184.6</ele>
        <time>2023-05-27T16:16:48Z</time>
      </trkpt>
      <trkpt lat="43.60178" lon="2.24053">
        <ele>184.6</ele>
        <time>2023-05-27T16:16:49Z</time>
      </trkpt>
      <trkpt lat="43.60181" lon="2.24055">
        <ele>184.6</ele>
        <time>2023-05-27T16:16:50Z</time>
      </trkpt>
      <trkpt lat="43.60184" lon="2.24057">
        <ele>184.6</ele>
        <time>2023-05-27T16:16:51Z</time>
      </trkpt>
      <trkpt lat="43.60187" lon="2.2406">
        <ele>184.6</ele>
        <time>2023-05-27T16:16:52Z</time>
      </trkpt>
      <trkpt lat="43.6019" lon="2.24061">
        <ele>184.6</ele>
        <time>2023-05-27T16:16:53Z</time>
      </trkpt>
      <trkpt lat="43.60193" lon="2.24062">
        <ele>184.6</ele>
        <time>2023-05-27T16:16:54Z</time>
      </trkpt>
      <trkpt lat="43.60196" lon="2.24064">
        <ele>184.6</ele>
        <time>2023-05-27T16:16:55Z</time>
      </trkpt>
      <trkpt lat="43.60198" lon="2.24065">
        <ele>184.6</ele>
        <time>2023-05-27T16:16:56Z</time>
      </trkpt>
      <trkpt lat="43.602" lon="2.24067">
        <ele>184.6</ele>
        <time>2023-05-27T16:16:57Z</time>
      </trkpt>
      <trkpt lat="43.60202" lon="2.24068">
        <ele>184.6</ele>
        <time>2023-05-27T16:16:58Z</time>
      </trkpt>
      <trkpt lat="43.60203" lon="2.24069">
        <ele>184.6</ele>
        <time>2023-05-27T16:16:59Z</time>
      </trkpt>
      <trkpt lat="43.60204" lon="2.24069">
        <ele>184.6</ele>
        <time>2023-05-27T16:17:00Z</time>
      </trkpt>
      <trkpt lat="43.60205" lon="2.24071">
        <ele>184.6</ele>
        <time>2023-05-27T16:17:01Z</time>
      </trkpt>
      <trkpt lat="43.60206" lon="2.24071">
        <ele>184.6</ele>
        <time>2023-05-27T16:17:02Z</time>
      </trkpt>
      <trkpt lat="43.60207" lon="2.24072">
        <ele>184.6</ele>
        <time>2023-05-27T16:17:03Z</time>
      </trkpt>
      <trkpt lat="43.60208" lon="2.24073">
        <ele>184.6</ele>
        <time>2023-05-27T16:17:04Z</time>
      </trkpt>
      <trkpt lat="43.60208" lon="2.24073">
        <ele>184.6</ele>
        <time>2023-05-27T16:17:05Z</time>
      </trkpt>
      <trkpt lat="43.60209" lon="2.24074">
        <ele>184.6</ele>
        <time>2023-05-27T16:17:06Z</time>
      </trkpt>
      <trkpt lat="43.6021" lon="2.24075">
        <ele>184.6</ele>
        <time>2023-05-27T16:17:07Z</time>
      </trkpt>
      <trkpt lat="43.60211" lon="2.24076">
        <ele>184.6</ele>
        <time>2023-05-27T16:17:08Z</time>
      </trkpt>
      <trkpt lat="43.60213" lon="2.24077">
        <ele>184.6</ele>
        <time>2023-05-27T16:17:09Z</time>
      </trkpt>
      <trkpt lat="43.60214" lon="2.24078">
        <ele>184.6</ele>
        <time>2023-05-27T16:17:10Z</time>
      </trkpt>
      <trkpt lat="43.60216" lon="2.24079">
        <ele>184.6</ele>
        <time>2023-05-27T16:17:11Z</time>
      </trkpt>
      <trkpt lat="43.60218" lon="2.2408">
        <ele>184.6</ele>
        <time>2023-05-27T16:17:12Z</time>
      </trkpt>
      <trkpt lat="43.6022" lon="2.24082">
        <ele>184.6</ele>
        <time>2023-05-27T16:17:13Z</time>
      </trkpt>
      <trkpt lat="43.60222" lon="2.24083">
        <ele>184.6</ele>
        <time>2023-05-27T16:17:14Z</time>
      </trkpt>
      <trkpt lat="43.60224" lon="2.24085">
        <ele>184.8</ele>
        <time>2023-05-27T16:17:15Z</time>
      </trkpt>
      <trkpt lat="43.60227" lon="2.24088">
        <ele>184.8</ele>
        <time>2023-05-27T16:17:16Z</time>
      </trkpt>
      <trkpt lat="43.60229" lon="2.24091">
        <ele>184.8</ele>
        <time>2023-05-27T16:17:17Z</time>
      </trkpt>
      <trkpt lat="43.60232" lon="2.24094">
        <ele>184.8</ele>
        <time>2023-05-27T16:17:18Z</time>
      </trkpt>
      <trkpt lat="43.60235" lon="2.24096">
        <ele>184.8</ele>
        <time>2023-05-27T16:17:19Z</time>
      </trkpt>
      <trkpt lat="43.60237" lon="2.24098">
        <ele>184.8</ele>
        <time>2023-05-27T16:17:20Z</time>
      </trkpt>
      <trkpt lat="43.6024" lon="2.241">
        <ele>184.8</ele>
        <time>2023-05-27T16:17:21Z</time>
      </trkpt>
      <trkpt lat="43.60243" lon="2.24103">
        <ele>185</ele>
        <time>2023-05-27T16:17:22Z</time>
      </trkpt>
      <trkpt lat="43.60246" lon="2.24105">
        <ele>185</ele>
        <time>2023-05-27T16:17:23Z</time>
      </trkpt>
      <trkpt lat="43.6025" lon="2.24106">
        <ele>185</ele>
        <time>2023-05-27T16:17:24Z</time>
      </trkpt>
      <trkpt lat="43.60253" lon="2.24109">
        <ele>185</ele>
        <time>2023-05-27T16:17:25Z</time>
      </trkpt>
      <trkpt lat="43.60255" lon="2.24111">
        <ele>185</ele>
        <time>2023-05-27T16:17:26Z</time>
      </trkpt>
      <trkpt lat="43.60258" lon="2.24114">
        <ele>185</ele>
        <time>2023-05-27T16:17:27Z</time>
      </trkpt>
      <trkpt lat="43.60261" lon="2.24116">
        <ele>185</ele>
        <time>2023-05-27T16:17:28Z</time>
      </trkpt>
      <trkpt lat="43.60264" lon="2.24118">
        <ele>185</ele>
        <time>2023-05-27T16:17:29Z</time>
      </trkpt>
      <trkpt lat="43.60267" lon="2.24119">
        <ele>185</ele>
        <time>2023-05-27T16:17:30Z</time>
      </trkpt>
      <trkpt lat="43.60269" lon="2.2412">
        <ele>185</ele>
        <time>2023-05-27T16:17:31Z</time>
      </trkpt>
      <trkpt lat="43.60272" lon="2.2412">
        <ele>185</ele>
        <time>2023-05-27T16:17:32Z</time>
      </trkpt>
      <trkpt lat="43.60276" lon="2.24121">
        <ele>185</ele>
        <time>2023-05-27T16:17:33Z</time>
      </trkpt>
      <trkpt lat="43.60279" lon="2.24122">
        <ele>185</ele>
        <time>2023-05-27T16:17:34Z</time>
      </trkpt>
      <trkpt lat="43.60282" lon="2.24122">
        <ele>185</ele>
        <time>2023-05-27T16:17:35Z</time>
      </trkpt>
      <trkpt lat="43.60286" lon="2.24123">
        <ele>185</ele>
        <time>2023-05-27T16:17:36Z</time>
      </trkpt>
      <trkpt lat="43.6029" lon="2.24124">
        <ele>185.2</ele>
        <time>2023-05-27T16:17:37Z</time>
      </trkpt>
      <trkpt lat="43.60294" lon="2.24125">
        <ele>185.2</ele>
        <time>2023-05-27T16:17:38Z</time>
      </trkpt>
      <trkpt lat="43.60298" lon="2.24125">
        <ele>185.2</ele>
        <time>2023-05-27T16:17:39Z</time>
      </trkpt>
      <trkpt lat="43.60302" lon="2.24126">
        <ele>185.2</ele>
        <time>2023-05-27T16:17:40Z</time>
      </trkpt>
      <trkpt lat="43.60305" lon="2.24127">
        <ele>185.2</ele>
        <time>2023-05-27T16:17:41Z</time>
      </trkpt>
      <trkpt lat="43.60308" lon="2.24128">
        <ele>185.2</ele>
        <time>2023-05-27T16:17:42Z</time>
      </trkpt>
      <trkpt lat="43.60312" lon="2.24128">
        <ele>185.4</ele>
        <time>2023-05-27T16:17:43Z</time>
      </trkpt>
      <trkpt lat="43.60316" lon="2.24129">
        <ele>185.4</ele>
        <time>2023-05-27T16:17:44Z</time>
      </trkpt>
      <trkpt lat="43.60319" lon="2.2413">
        <ele>185.4</ele>
        <time>2023-05-27T16:17:45Z</time>
      </trkpt>
      <trkpt lat="43.60323" lon="2.2413">
        <ele>185.4</ele>
        <time>2023-05-27T16:17:46Z</time>
      </trkpt>
      <trkpt lat="43.60327" lon="2.24132">
        <ele>185.4</ele>
        <time>2023-05-27T16:17:47Z</time>
      </trkpt>
      <trkpt lat="43.60331" lon="2.24133">
        <ele>185.4</ele>
        <time>2023-05-27T16:17:48Z</time>
      </trkpt>
      <trkpt lat="43.60335" lon="2.24134">
        <ele>185.4</ele>
        <time>2023-05-27T16:17:49Z</time>
      </trkpt>
      <trkpt lat="43.60339" lon="2.24135">
        <ele>185.6</ele>
        <time>2023-05-27T16:17:50Z</time>
      </trkpt>
      <trkpt lat="43.60343" lon="2.24136">
        <ele>185.6</ele>
        <time>2023-05-27T16:17:51Z</time>
      </trkpt>
      <trkpt lat="43.60347" lon="2.24137">
        <ele>185.6</ele>
        <time>2023-05-27T16:17:52Z</time>
      </trkpt>
      <trkpt lat="43.6035" lon="2.24137">
        <ele>185.6</ele>
        <time>2023-05-27T16:17:53Z</time>
      </trkpt>
      <trkpt lat="43.60353" lon="2.24135">
        <ele>185.6</ele>
        <time>2023-05-27T16:17:54Z</time>
      </trkpt>
      <trkpt lat="43.60355" lon="2.24134">
        <ele>185.8</ele>
        <time>2023-05-27T16:17:55Z</time>
      </trkpt>
      <trkpt lat="43.60358" lon="2.24135">
        <ele>185.8</ele>
        <time>2023-05-27T16:17:56Z</time>
      </trkpt>
      <trkpt lat="43.60362" lon="2.24135">
        <ele>185.8</ele>
        <time>2023-05-27T16:17:57Z</time>
      </trkpt>
      <trkpt lat="43.60366" lon="2.24136">
        <ele>185.8</ele>
        <time>2023-05-27T16:17:58Z</time>
      </trkpt>
      <trkpt lat="43.6037" lon="2.24137">
        <ele>185.8</ele>
        <time>2023-05-27T16:17:59Z</time>
      </trkpt>
      <trkpt lat="43.60374" lon="2.24138">
        <ele>185.8</ele>
        <time>2023-05-27T16:18:00Z</time>
      </trkpt>
      <trkpt lat="43.60378" lon="2.24139">
        <ele>185.6</ele>
        <time>2023-05-27T16:18:01Z</time>
      </trkpt>
      <trkpt lat="43.60381" lon="2.2414">
        <ele>185.6</ele>
        <time>2023-05-27T16:18:02Z</time>
      </trkpt>
      <trkpt lat="43.60385" lon="2.2414">
        <ele>185.6</ele>
        <time>2023-05-27T16:18:03Z</time>
      </trkpt>
      <trkpt lat="43.60388" lon="2.24141">
        <ele>185.6</ele>
        <time>2023-05-27T16:18:04Z</time>
      </trkpt>
      <trkpt lat="43.60391" lon="2.24144">
        <ele>185.4</ele>
        <time>2023-05-27T16:18:05Z</time>
      </trkpt>
      <trkpt lat="43.60393" lon="2.24148">
        <ele>185.4</ele>
        <time>2023-05-27T16:18:06Z</time>
      </trkpt>
      <trkpt lat="43.60395" lon="2.24153">
        <ele>185.4</ele>
        <time>2023-05-27T16:18:07Z</time>
      </trkpt>
      <trkpt lat="43.60394" lon="2.24158">
        <ele>185.4</ele>
        <time>2023-05-27T16:18:08Z</time>
      </trkpt>
      <trkpt lat="43.60395" lon="2.24163">
        <ele>185.4</ele>
        <time>2023-05-27T16:18:09Z</time>
      </trkpt>
      <trkpt lat="43.60395" lon="2.24168">
        <ele>185.4</ele>
        <time>2023-05-27T16:18:10Z</time>
      </trkpt>
      <trkpt lat="43.60395" lon="2.24173">
        <ele>185.4</ele>
        <time>2023-05-27T16:18:11Z</time>
      </trkpt>
      <trkpt lat="43.60394" lon="2.24178">
        <ele>185.4</ele>
        <time>2023-05-27T16:18:12Z</time>
      </trkpt>
      <trkpt lat="43.60394" lon="2.24182">
        <ele>185.2</ele>
        <time>2023-05-27T16:18:13Z</time>
      </trkpt>
      <trkpt lat="43.60394" lon="2.24187">
        <ele>185.2</ele>
        <time>2023-05-27T16:18:14Z</time>
      </trkpt>
      <trkpt lat="43.60395" lon="2.24192">
        <ele>185.2</ele>
        <time>2023-05-27T16:18:15Z</time>
      </trkpt>
      <trkpt lat="43.60395" lon="2.24196">
        <ele>185</ele>
        <time>2023-05-27T16:18:16Z</time>
      </trkpt>
      <trkpt lat="43.60395" lon="2.24201">
        <ele>185</ele>
        <time>2023-05-27T16:18:17Z</time>
      </trkpt>
      <trkpt lat="43.60395" lon="2.24205">
        <ele>184.8</ele>
        <time>2023-05-27T16:18:18Z</time>
      </trkpt>
      <trkpt lat="43.60395" lon="2.24209">
        <ele>184.8</ele>
        <time>2023-05-27T16:18:19Z</time>
      </trkpt>
      <trkpt lat="43.60396" lon="2.24214">
        <ele>184.8</ele>
        <time>2023-05-27T16:18:20Z</time>
      </trkpt>
      <trkpt lat="43.60396" lon="2.24218">
        <ele>184.6</ele>
        <time>2023-05-27T16:18:21Z</time>
      </trkpt>
      <trkpt lat="43.60397" lon="2.24221">
        <ele>184.4</ele>
        <time>2023-05-27T16:18:22Z</time>
      </trkpt>
      <trkpt lat="43.604" lon="2.24224">
        <ele>184.4</ele>
        <time>2023-05-27T16:18:23Z</time>
      </trkpt>
      <trkpt lat="43.60402" lon="2.24226">
        <ele>184.2</ele>
        <time>2023-05-27T16:18:24Z</time>
      </trkpt>
      <trkpt lat="43.60405" lon="2.24228">
        <ele>184.2</ele>
        <time>2023-05-27T16:18:25Z</time>
      </trkpt>
      <trkpt lat="43.60408" lon="2.24228">
        <ele>184.2</ele>
        <time>2023-05-27T16:18:26Z</time>
      </trkpt>
      <trkpt lat="43.60411" lon="2.24229">
        <ele>184</ele>
        <time>2023-05-27T16:18:27Z</time>
      </trkpt>
      <trkpt lat="43.60414" lon="2.2423">
        <ele>184</ele>
        <time>2023-05-27T16:18:28Z</time>
      </trkpt>
      <trkpt lat="43.60418" lon="2.2423">
        <ele>184</ele>
        <time>2023-05-27T16:18:29Z</time>
      </trkpt>
      <trkpt lat="43.60421" lon="2.24231">
        <ele>184</ele>
        <time>2023-05-27T16:18:30Z</time>
      </trkpt>
      <trkpt lat="43.60424" lon="2.24231">
        <ele>183.8</ele>
        <time>2023-05-27T16:18:31Z</time>
      </trkpt>
      <trkpt lat="43.60426" lon="2.24231">
        <ele>183.8</ele>
        <time>2023-05-27T16:18:32Z</time>
      </trkpt>
      <trkpt lat="43.60429" lon="2.24231">
        <ele>183.8</ele>
        <time>2023-05-27T16:18:33Z</time>
      </trkpt>
      <trkpt lat="43.6043" lon="2.24231">
        <ele>183.8</ele>
        <time>2023-05-27T16:18:34Z</time>
      </trkpt>
      <trkpt lat="43.60432" lon="2.2423">
        <ele>183.6</ele>
        <time>2023-05-27T16:18:35Z</time>
      </trkpt>
      <trkpt lat="43.60433" lon="2.2423">
        <ele>183.6</ele>
        <time>2023-05-27T16:18:36Z</time>
      </trkpt>
      <trkpt lat="43.60433" lon="2.2423">
        <ele>183.6</ele>
        <time>2023-05-27T16:18:37Z</time>
      </trkpt>
      <trkpt lat="43.60437" lon="2.2423">
        <ele>183.4</ele>
        <time>2023-05-27T16:18:48Z</time>
      </trkpt>
      <trkpt lat="43.60439" lon="2.24231">
        <ele>183.4</ele>
        <time>2023-05-27T16:18:49Z</time>
      </trkpt>
      <trkpt lat="43.60441" lon="2.24231">
        <ele>183.4</ele>
        <time>2023-05-27T16:18:50Z</time>
      </trkpt>
      <trkpt lat="43.60443" lon="2.24231">
        <ele>183.4</ele>
        <time>2023-05-27T16:18:51Z</time>
      </trkpt>
      <trkpt lat="43.60445" lon="2.24231">
        <ele>183.4</ele>
        <time>2023-05-27T16:18:52Z</time>
      </trkpt>
      <trkpt lat="43.60448" lon="2.24231">
        <ele>183.2</ele>
        <time>2023-05-27T16:18:53Z</time>
      </trkpt>
      <trkpt lat="43.60451" lon="2.24232">
        <ele>183.2</ele>
        <time>2023-05-27T16:18:54Z</time>
      </trkpt>
      <trkpt lat="43.60453" lon="2.24232">
        <ele>183.2</ele>
        <time>2023-05-27T16:18:55Z</time>
      </trkpt>
      <trkpt lat="43.60456" lon="2.24233">
        <ele>183.2</ele>
        <time>2023-05-27T16:18:56Z</time>
      </trkpt>
      <trkpt lat="43.60459" lon="2.24233">
        <ele>183.2</ele>
        <time>2023-05-27T16:18:57Z</time>
      </trkpt>
      <trkpt lat="43.60463" lon="2.24234">
        <ele>183</ele>
        <time>2023-05-27T16:18:58Z</time>
      </trkpt>
      <trkpt lat="43.60466" lon="2.24235">
        <ele>183</ele>
        <time>2023-05-27T16:18:59Z</time>
      </trkpt>
      <trkpt lat="43.60469" lon="2.24237">
        <ele>183</ele>
        <time>2023-05-27T16:19:00Z</time>
      </trkpt>
      <trkpt lat="43.60473" lon="2.24237">
        <ele>183</ele>
        <time>2023-05-27T16:19:01Z</time>
      </trkpt>
      <trkpt lat="43.60477" lon="2.24238">
        <ele>183</ele>
        <time>2023-05-27T16:19:02Z</time>
      </trkpt>
      <trkpt lat="43.6048" lon="2.2424">
        <ele>183</ele>
        <time>2023-05-27T16:19:03Z</time>
      </trkpt>
      <trkpt lat="43.60483" lon="2.24242">
        <ele>183</ele>
        <time>2023-05-27T16:19:04Z</time>
      </trkpt>
      <trkpt lat="43.60486" lon="2.24243">
        <ele>183</ele>
        <time>2023-05-27T16:19:05Z</time>
      </trkpt>
      <trkpt lat="43.60488" lon="2.24244">
        <ele>183</ele>
        <time>2023-05-27T16:19:06Z</time>
      </trkpt>
      <trkpt lat="43.60491" lon="2.24245">
        <ele>183</ele>
        <time>2023-05-27T16:19:07Z</time>
      </trkpt>
      <trkpt lat="43.60495" lon="2.24245">
        <ele>183</ele>
        <time>2023-05-27T16:19:08Z</time>
      </trkpt>
      <trkpt lat="43.60497" lon="2.24245">
        <ele>183</ele>
        <time>2023-05-27T16:19:09Z</time>
      </trkpt>
      <trkpt lat="43.60499" lon="2.24244">
        <ele>183.2</ele>
        <time>2023-05-27T16:19:10Z</time>
      </trkpt>
      <trkpt lat="43.60502" lon="2.24244">
        <ele>183.2</ele>
        <time>2023-05-27T16:19:11Z</time>
      </trkpt>
      <trkpt lat="43.60505" lon="2.24245">
        <ele>183.2</ele>
        <time>2023-05-27T16:19:12Z</time>
      </trkpt>
      <trkpt lat="43.60508" lon="2.24246">
        <ele>183.4</ele>
        <time>2023-05-27T16:19:13Z</time>
      </trkpt>
      <trkpt lat="43.60511" lon="2.24245">
        <ele>183.4</ele>
        <time>2023-05-27T16:19:14Z</time>
      </trkpt>
      <trkpt lat="43.60513" lon="2.24245">
        <ele>183.4</ele>
        <time>2023-05-27T16:19:15Z</time>
      </trkpt>
      <trkpt lat="43.60516" lon="2.24244">
        <ele>183.4</ele>
        <time>2023-05-27T16:19:16Z</time>
      </trkpt>
      <trkpt lat="43.60519" lon="2.24243">
        <ele>183.6</ele>
        <time>2023-05-27T16:19:17Z</time>
      </trkpt>
      <trkpt lat="43.60522" lon="2.24242">
        <ele>183.6</ele>
        <time>2023-05-27T16:19:18Z</time>
      </trkpt>
      <trkpt lat="43.60525" lon="2.24241">
        <ele>183.6</ele>
        <time>2023-05-27T16:19:19Z</time>
      </trkpt>
      <trkpt lat="43.60528" lon="2.2424">
        <ele>183.6</ele>
        <time>2023-05-27T16:19:20Z</time>
      </trkpt>
      <trkpt lat="43.60531" lon="2.24239">
        <ele>183.6</ele>
        <time>2023-05-27T16:19:21Z</time>
      </trkpt>
      <trkpt lat="43.60535" lon="2.24239">
        <ele>183.6</ele>
        <time>2023-05-27T16:19:22Z</time>
      </trkpt>
      <trkpt lat="43.60539" lon="2.24239">
        <ele>183.6</ele>
        <time>2023-05-27T16:19:23Z</time>
      </trkpt>
      <trkpt lat="43.60543" lon="2.2424">
        <ele>183.6</ele>
        <time>2023-05-27T16:19:24Z</time>
      </trkpt>
      <trkpt lat="43.60546" lon="2.2424">
        <ele>183.6</ele>
        <time>2023-05-27T16:19:25Z</time>
      </trkpt>
      <trkpt lat="43.6055" lon="2.2424">
        <ele>183.8</ele>
        <time>2023-05-27T16:19:26Z</time>
      </trkpt>
      <trkpt lat="43.60553" lon="2.24242">
        <ele>183.8</ele>
        <time>2023-05-27T16:19:27Z</time>
      </trkpt>
      <trkpt lat="43.60558" lon="2.24245">
        <ele>183.8</ele>
        <time>2023-05-27T16:19:28Z</time>
      </trkpt>
      <trkpt lat="43.6056" lon="2.24248">
        <ele>183.6</ele>
        <time>2023-05-27T16:19:29Z</time>
      </trkpt>
      <trkpt lat="43.60563" lon="2.24251">
        <ele>183.6</ele>
        <time>2023-05-27T16:19:30Z</time>
      </trkpt>
      <trkpt lat="43.60567" lon="2.24252">
        <ele>183.6</ele>
        <time>2023-05-27T16:19:31Z</time>
      </trkpt>
      <trkpt lat="43.60571" lon="2.24253">
        <ele>183.6</ele>
        <time>2023-05-27T16:19:32Z</time>
      </trkpt>
      <trkpt lat="43.60574" lon="2.24254">
        <ele>183.6</ele>
        <time>2023-05-27T16:19:33Z</time>
      </trkpt>
      <trkpt lat="43.60578" lon="2.24255">
        <ele>183.6</ele>
        <time>2023-05-27T16:19:34Z</time>
      </trkpt>
      <trkpt lat="43.60582" lon="2.24255">
        <ele>183.6</ele>
        <time>2023-05-27T16:19:35Z</time>
      </trkpt>
      <trkpt lat="43.60586" lon="2.24255">
        <ele>183.6</ele>
        <time>2023-05-27T16:19:36Z</time>
      </trkpt>
      <trkpt lat="43.60592" lon="2.24256">
        <ele>183.6</ele>
        <time>2023-05-27T16:19:37Z</time>
      </trkpt>
      <trkpt lat="43.60594" lon="2.24256">
        <ele>183.6</ele>
        <time>2023-05-27T16:19:38Z</time>
      </trkpt>
      <trkpt lat="43.60597" lon="2.24256">
        <ele>183.6</ele>
        <time>2023-05-27T16:19:39Z</time>
      </trkpt>
      <trkpt lat="43.60601" lon="2.24256">
        <ele>183.8</ele>
        <time>2023-05-27T16:19:40Z</time>
      </trkpt>
      <trkpt lat="43.60604" lon="2.24256">
        <ele>183.8</ele>
        <time>2023-05-27T16:19:41Z</time>
      </trkpt>
      <trkpt lat="43.60608" lon="2.24256">
        <ele>183.8</ele>
        <time>2023-05-27T16:19:42Z</time>
      </trkpt>
      <trkpt lat="43.60613" lon="2.24257">
        <ele>183.8</ele>
        <time>2023-05-27T16:19:43Z</time>
      </trkpt>
      <trkpt lat="43.60617" lon="2.24257">
        <ele>183.8</ele>
        <time>2023-05-27T16:19:44Z</time>
      </trkpt>
      <trkpt lat="43.6062" lon="2.24258">
        <ele>183.8</ele>
        <time>2023-05-27T16:19:45Z</time>
      </trkpt>
      <trkpt lat="43.60623" lon="2.24258">
        <ele>183.8</ele>
        <time>2023-05-27T16:19:46Z</time>
      </trkpt>
      <trkpt lat="43.60627" lon="2.24259">
        <ele>184</ele>
        <time>2023-05-27T16:19:47Z</time>
      </trkpt>
      <trkpt lat="43.60631" lon="2.24258">
        <ele>184</ele>
        <time>2023-05-27T16:19:48Z</time>
      </trkpt>
      <trkpt lat="43.60638" lon="2.24257">
        <ele>184</ele>
        <time>2023-05-27T16:19:49Z</time>
      </trkpt>
      <trkpt lat="43.60643" lon="2.24256">
        <ele>184</ele>
        <time>2023-05-27T16:19:50Z</time>
      </trkpt>
      <trkpt lat="43.60646" lon="2.24254">
        <ele>184</ele>
        <time>2023-05-27T16:19:51Z</time>
      </trkpt>
      <trkpt lat="43.6065" lon="2.24253">
        <ele>184.2</ele>
        <time>2023-05-27T16:19:52Z</time>
      </trkpt>
      <trkpt lat="43.60653" lon="2.24252">
        <ele>184.2</ele>
        <time>2023-05-27T16:19:53Z</time>
      </trkpt>
      <trkpt lat="43.60656" lon="2.24251">
        <ele>184.2</ele>
        <time>2023-05-27T16:19:54Z</time>
      </trkpt>
      <trkpt lat="43.60659" lon="2.24249">
        <ele>184.2</ele>
        <time>2023-05-27T16:19:55Z</time>
      </trkpt>
      <trkpt lat="43.60662" lon="2.24248">
        <ele>184.2</ele>
        <time>2023-05-27T16:19:56Z</time>
      </trkpt>
      <trkpt lat="43.60665" lon="2.24247">
        <ele>184.2</ele>
        <time>2023-05-27T16:19:57Z</time>
      </trkpt>
      <trkpt lat="43.60668" lon="2.24245">
        <ele>184.2</ele>
        <time>2023-05-27T16:19:58Z</time>
      </trkpt>
      <trkpt lat="43.60671" lon="2.24244">
        <ele>184.2</ele>
        <time>2023-05-27T16:19:59Z</time>
      </trkpt>
      <trkpt lat="43.60674" lon="2.24243">
        <ele>184.2</ele>
        <time>2023-05-27T16:20:00Z</time>
      </trkpt>
      <trkpt lat="43.60678" lon="2.24241">
        <ele>184.4</ele>
        <time>2023-05-27T16:20:01Z</time>
      </trkpt>
      <trkpt lat="43.60681" lon="2.24239">
        <ele>184.4</ele>
        <time>2023-05-27T16:20:02Z</time>
      </trkpt>
      <trkpt lat="43.60684" lon="2.24238">
        <ele>184.4</ele>
        <time>2023-05-27T16:20:03Z</time>
      </trkpt>
      <trkpt lat="43.60686" lon="2.24237">
        <ele>184.6</ele>
        <time>2023-05-27T16:20:04Z</time>
      </trkpt>
      <trkpt lat="43.6069" lon="2.24235">
        <ele>184.6</ele>
        <time>2023-05-27T16:20:05Z</time>
      </trkpt>
      <trkpt lat="43.60693" lon="2.24235">
        <ele>184.6</ele>
        <time>2023-05-27T16:20:06Z</time>
      </trkpt>
      <trkpt lat="43.60695" lon="2.24234">
        <ele>184.6</ele>
        <time>2023-05-27T16:20:07Z</time>
      </trkpt>
      <trkpt lat="43.60698" lon="2.24233">
        <ele>184.6</ele>
        <time>2023-05-27T16:20:08Z</time>
      </trkpt>
      <trkpt lat="43.60701" lon="2.24232">
        <ele>184.6</ele>
        <time>2023-05-27T16:20:09Z</time>
      </trkpt>
      <trkpt lat="43.60704" lon="2.24232">
        <ele>184.8</ele>
        <time>2023-05-27T16:20:10Z</time>
      </trkpt>
      <trkpt lat="43.60708" lon="2.24231">
        <ele>184.8</ele>
        <time>2023-05-27T16:20:11Z</time>
      </trkpt>
      <trkpt lat="43.60711" lon="2.2423">
        <ele>184.8</ele>
        <time>2023-05-27T16:20:12Z</time>
      </trkpt>
      <trkpt lat="43.60714" lon="2.24228">
        <ele>184.8</ele>
        <time>2023-05-27T16:20:13Z</time>
      </trkpt>
      <trkpt lat="43.60717" lon="2.24227">
        <ele>184.8</ele>
        <time>2023-05-27T16:20:14Z</time>
      </trkpt>
      <trkpt lat="43.6072" lon="2.24226">
        <ele>185</ele>
        <time>2023-05-27T16:20:15Z</time>
      </trkpt>
      <trkpt lat="43.60723" lon="2.24225">
        <ele>185</ele>
        <time>2023-05-27T16:20:16Z</time>
      </trkpt>
      <trkpt lat="43.60727" lon="2.24224">
        <ele>185</ele>
        <time>2023-05-27T16:20:17Z</time>
      </trkpt>
      <trkpt lat="43.6073" lon="2.24223">
        <ele>185.2</ele>
        <time>2023-05-27T16:20:18Z</time>
      </trkpt>
      <trkpt lat="43.60734" lon="2.24222">
        <ele>185.2</ele>
        <time>2023-05-27T16:20:19Z</time>
      </trkpt>
      <trkpt lat="43.60738" lon="2.24221">
        <ele>185.2</ele>
        <time>2023-05-27T16:20:20Z</time>
      </trkpt>
      <trkpt lat="43.60742" lon="2.24221">
        <ele>185.2</ele>
        <time>2023-05-27T16:20:21Z</time>
      </trkpt>
      <trkpt lat="43.60745" lon="2.2422">
        <ele>185.2</ele>
        <time>2023-05-27T16:20:22Z</time>
      </trkpt>
      <trkpt lat="43.60747" lon="2.24219">
        <ele>185.2</ele>
        <time>2023-05-27T16:20:23Z</time>
      </trkpt>
      <trkpt lat="43.6075" lon="2.24221">
        <ele>185.4</ele>
        <time>2023-05-27T16:20:38Z</time>
      </trkpt>
      <trkpt lat="43.6075" lon="2.24222">
        <ele>185.4</ele>
        <time>2023-05-27T16:20:39Z</time>
      </trkpt>
      <trkpt lat="43.60751" lon="2.24223">
        <ele>185.4</ele>
        <time>2023-05-27T16:20:40Z</time>
      </trkpt>
      <trkpt lat="43.60751" lon="2.24224">
        <ele>185.4</ele>
        <time>2023-05-27T16:20:41Z</time>
      </trkpt>
      <trkpt lat="43.60751" lon="2.24224">
        <ele>185.4</ele>
        <time>2023-05-27T16:20:42Z</time>
      </trkpt>
      <trkpt lat="43.60751" lon="2.24224">
        <ele>185.4</ele>
        <time>2023-05-27T16:20:43Z</time>
      </trkpt>
      <trkpt lat="43.60751" lon="2.24224">
        <ele>185.4</ele>
        <time>2023-05-27T16:20:44Z</time>
      </trkpt>
      <trkpt lat="43.60754" lon="2.24223">
        <ele>185.6</ele>
        <time>2023-05-27T16:21:12Z</time>
      </trkpt>
      <trkpt lat="43.60755" lon="2.24223">
        <ele>185.6</ele>
        <time>2023-05-27T16:21:13Z</time>
      </trkpt>
      <trkpt lat="43.60756" lon="2.24222">
        <ele>185.6</ele>
        <time>2023-05-27T16:21:14Z</time>
      </trkpt>
      <trkpt lat="43.60756" lon="2.2422">
        <ele>185.6</ele>
        <time>2023-05-27T16:21:15Z</time>
      </trkpt>
      <trkpt lat="43.60756" lon="2.24219">
        <ele>185.6</ele>
        <time>2023-05-27T16:21:16Z</time>
      </trkpt>
      <trkpt lat="43.60757" lon="2.24217">
        <ele>185.6</ele>
        <time>2023-05-27T16:21:17Z</time>
      </trkpt>
      <trkpt lat="43.60757" lon="2.24216">
        <ele>185.6</ele>
        <time>2023-05-27T16:21:18Z</time>
      </trkpt>
      <trkpt lat="43.60757" lon="2.24214">
        <ele>185.6</ele>
        <time>2023-05-27T16:21:19Z</time>
      </trkpt>
      <trkpt lat="43.60757" lon="2.24213">
        <ele>185.6</ele>
        <time>2023-05-27T16:21:20Z</time>
      </trkpt>
      <trkpt lat="43.60756" lon="2.24211">
        <ele>185.6</ele>
        <time>2023-05-27T16:21:21Z</time>
      </trkpt>
      <trkpt lat="43.60756" lon="2.24209">
        <ele>185.8</ele>
        <time>2023-05-27T16:21:22Z</time>
      </trkpt>
      <trkpt lat="43.60756" lon="2.24208">
        <ele>185.8</ele>
        <time>2023-05-27T16:21:23Z</time>
      </trkpt>
      <trkpt lat="43.60757" lon="2.24207">
        <ele>185.8</ele>
        <time>2023-05-27T16:21:24Z</time>
      </trkpt>
      <trkpt lat="43.60757" lon="2.24206">
        <ele>185.8</ele>
        <time>2023-05-27T16:21:25Z</time>
      </trkpt>
      <trkpt lat="43.60758" lon="2.24204">
        <ele>185.8</ele>
        <time>2023-05-27T16:21:26Z</time>
      </trkpt>
      <trkpt lat="43.60758" lon="2.24203">
        <ele>185.8</ele>
        <time>2023-05-27T16:21:27Z</time>
      </trkpt>
      <trkpt lat="43.60758" lon="2.24202">
        <ele>186</ele>
        <time>2023-05-27T16:21:28Z</time>
      </trkpt>
      <trkpt lat="43.60758" lon="2.24202">
        <ele>186</ele>
        <time>2023-05-27T16:21:29Z</time>
      </trkpt>
      <trkpt lat="43.60759" lon="2.24201">
        <ele>186</ele>
        <time>2023-05-27T16:21:30Z</time>
      </trkpt>
      <trkpt lat="43.60759" lon="2.24201">
        <ele>186</ele>
        <time>2023-05-27T16:21:31Z</time>
      </trkpt>
      <trkpt lat="43.6076" lon="2.24201">
        <ele>186</ele>
        <time>2023-05-27T16:21:32Z</time>
      </trkpt>
      <trkpt lat="43.60761" lon="2.24201">
        <ele>186</ele>
        <time>2023-05-27T16:21:33Z</time>
      </trkpt>
      <trkpt lat="43.60761" lon="2.24201">
        <ele>186</ele>
        <time>2023-05-27T16:21:34Z</time>
      </trkpt>
      <trkpt lat="43.60763" lon="2.242">
        <ele>186</ele>
        <time>2023-05-27T16:21:35Z</time>
      </trkpt>
      <trkpt lat="43.60764" lon="2.242">
        <ele>186</ele>
        <time>2023-05-27T16:21:36Z</time>
      </trkpt>
      <trkpt lat="43.60765" lon="2.242">
        <ele>186</ele>
        <time>2023-05-27T16:21:37Z</time>
      </trkpt>
      <trkpt lat="43.60766" lon="2.242">
        <ele>186</ele>
        <time>2023-05-27T16:21:38Z</time>
      </trkpt>
      <trkpt lat="43.60767" lon="2.242">
        <ele>186.2</ele>
        <time>2023-05-27T16:21:39Z</time>
      </trkpt>
      <trkpt lat="43.60768" lon="2.242">
        <ele>186.2</ele>
        <time>2023-05-27T16:21:40Z</time>
      </trkpt>
      <trkpt lat="43.60769" lon="2.242">
        <ele>186.2</ele>
        <time>2023-05-27T16:21:41Z</time>
      </trkpt>
      <trkpt lat="43.60771" lon="2.24201">
        <ele>186.2</ele>
        <time>2023-05-27T16:21:42Z</time>
      </trkpt>
      <trkpt lat="43.60772" lon="2.24201">
        <ele>186.2</ele>
        <time>2023-05-27T16:21:43Z</time>
      </trkpt>
      <trkpt lat="43.60773" lon="2.24201">
        <ele>186.2</ele>
        <time>2023-05-27T16:21:44Z</time>
      </trkpt>
      <trkpt lat="43.60774" lon="2.24202">
        <ele>186.2</ele>
        <time>2023-05-27T16:21:45Z</time>
      </trkpt>
      <trkpt lat="43.60776" lon="2.24202">
        <ele>186.2</ele>
        <time>2023-05-27T16:21:46Z</time>
      </trkpt>
      <trkpt lat="43.60777" lon="2.24202">
        <ele>186.4</ele>
        <time>2023-05-27T16:21:47Z</time>
      </trkpt>
      <trkpt lat="43.60779" lon="2.24202">
        <ele>186.4</ele>
        <time>2023-05-27T16:21:48Z</time>
      </trkpt>
      <trkpt lat="43.60782" lon="2.24201">
        <ele>186.4</ele>
        <time>2023-05-27T16:21:49Z</time>
      </trkpt>
      <trkpt lat="43.60783" lon="2.24202">
        <ele>186.4</ele>
        <time>2023-05-27T16:21:50Z</time>
      </trkpt>
      <trkpt lat="43.60785" lon="2.24202">
        <ele>186.6</ele>
        <time>2023-05-27T16:21:51Z</time>
      </trkpt>
      <trkpt lat="43.60786" lon="2.24202">
        <ele>186.6</ele>
        <time>2023-05-27T16:21:52Z</time>
      </trkpt>
      <trkpt lat="43.60788" lon="2.24203">
        <ele>186.6</ele>
        <time>2023-05-27T16:21:53Z</time>
      </trkpt>
      <trkpt lat="43.60789" lon="2.24204">
        <ele>186.6</ele>
        <time>2023-05-27T16:21:54Z</time>
      </trkpt>
      <trkpt lat="43.60791" lon="2.24204">
        <ele>186.6</ele>
        <time>2023-05-27T16:21:55Z</time>
      </trkpt>
      <trkpt lat="43.60794" lon="2.24204">
        <ele>186.6</ele>
        <time>2023-05-27T16:21:56Z</time>
      </trkpt>
      <trkpt lat="43.60795" lon="2.24204">
        <ele>186.6</ele>
        <time>2023-05-27T16:21:57Z</time>
      </trkpt>
      <trkpt lat="43.60797" lon="2.24205">
        <ele>186.6</ele>
        <time>2023-05-27T16:21:58Z</time>
      </trkpt>
      <trkpt lat="43.60799" lon="2.24206">
        <ele>186.6</ele>
        <time>2023-05-27T16:21:59Z</time>
      </trkpt>
      <trkpt lat="43.608" lon="2.24207">
        <ele>186.6</ele>
        <time>2023-05-27T16:22:00Z</time>
      </trkpt>
      <trkpt lat="43.60802" lon="2.24208">
        <ele>186.6</ele>
        <time>2023-05-27T16:22:01Z</time>
      </trkpt>
      <trkpt lat="43.60803" lon="2.24208">
        <ele>186.6</ele>
        <time>2023-05-27T16:22:02Z</time>
      </trkpt>
      <trkpt lat="43.60805" lon="2.24209">
        <ele>186.6</ele>
        <time>2023-05-27T16:22:03Z</time>
      </trkpt>
      <trkpt lat="43.60807" lon="2.24211">
        <ele>186.6</ele>
        <time>2023-05-27T16:22:04Z</time>
      </trkpt>
      <trkpt lat="43.60807" lon="2.24211">
        <ele>186.6</ele>
        <time>2023-05-27T16:22:05Z</time>
      </trkpt>
      <trkpt lat="43.60807" lon="2.24211">
        <ele>186.8</ele>
        <time>2023-05-27T16:22:06Z</time>
      </trkpt>
      <trkpt lat="43.60808" lon="2.24211">
        <ele>186.8</ele>
        <time>2023-05-27T16:22:07Z</time>
      </trkpt>
      <trkpt lat="43.60808" lon="2.24211">
        <ele>186.8</ele>
        <time>2023-05-27T16:22:08Z</time>
      </trkpt>
      <trkpt lat="43.60809" lon="2.24211">
        <ele>186.8</ele>
        <time>2023-05-27T16:22:09Z</time>
      </trkpt>
      <trkpt lat="43.60822" lon="2.24217">
        <ele>186.8</ele>
        <time>2023-05-27T16:22:46Z</time>
      </trkpt>
      <trkpt lat="43.60824" lon="2.24218">
        <ele>186.8</ele>
        <time>2023-05-27T16:22:47Z</time>
      </trkpt>
      <trkpt lat="43.60825" lon="2.24219">
        <ele>186.8</ele>
        <time>2023-05-27T16:22:48Z</time>
      </trkpt>
      <trkpt lat="43.60826" lon="2.24219">
        <ele>186.8</ele>
        <time>2023-05-27T16:22:49Z</time>
      </trkpt>
      <trkpt lat="43.60827" lon="2.2422">
        <ele>186.8</ele>
        <time>2023-05-27T16:22:50Z</time>
      </trkpt>
      <trkpt lat="43.60828" lon="2.2422">
        <ele>186.8</ele>
        <time>2023-05-27T16:22:51Z</time>
      </trkpt>
      <trkpt lat="43.60828" lon="2.2422">
        <ele>186.8</ele>
        <time>2023-05-27T16:22:52Z</time>
      </trkpt>
      <trkpt lat="43.60828" lon="2.2422">
        <ele>186.8</ele>
        <time>2023-05-27T16:22:53Z</time>
      </trkpt>
      <trkpt lat="43.60828" lon="2.2422">
        <ele>186.8</ele>
        <time>2023-05-27T16:22:54Z</time>
      </trkpt>
      <trkpt lat="43.60828" lon="2.2422">
        <ele>186.8</ele>
        <time>2023-05-27T16:22:55Z</time>
      </trkpt>
      <trkpt lat="43.60832" lon="2.24222">
        <ele>186.8</ele>
        <time>2023-05-27T16:23:09Z</time>
      </trkpt>
      <trkpt lat="43.60832" lon="2.24223">
        <ele>186.8</ele>
        <time>2023-05-27T16:23:10Z</time>
      </trkpt>
      <trkpt lat="43.60834" lon="2.24223">
        <ele>186.8</ele>
        <time>2023-05-27T16:23:11Z</time>
      </trkpt>
      <trkpt lat="43.60836" lon="2.24223">
        <ele>186.8</ele>
        <time>2023-05-27T16:23:12Z</time>
      </trkpt>
      <trkpt lat="43.60838" lon="2.24225">
        <ele>186.8</ele>
        <time>2023-05-27T16:23:13Z</time>
      </trkpt>
      <trkpt lat="43.60841" lon="2.24227">
        <ele>187</ele>
        <time>2023-05-27T16:23:14Z</time>
      </trkpt>
      <trkpt lat="43.60843" lon="2.24229">
        <ele>187</ele>
        <time>2023-05-27T16:23:15Z</time>
      </trkpt>
      <trkpt lat="43.60846" lon="2.24231">
        <ele>187</ele>
        <time>2023-05-27T16:23:16Z</time>
      </trkpt>
      <trkpt lat="43.60849" lon="2.24233">
        <ele>187</ele>
        <time>2023-05-27T16:23:17Z</time>
      </trkpt>
      <trkpt lat="43.60852" lon="2.24235">
        <ele>187</ele>
        <time>2023-05-27T16:23:18Z</time>
      </trkpt>
      <trkpt lat="43.60855" lon="2.24237">
        <ele>186.8</ele>
        <time>2023-05-27T16:23:19Z</time>
      </trkpt>
      <trkpt lat="43.60857" lon="2.24237">
        <ele>186.8</ele>
        <time>2023-05-27T16:23:20Z</time>
      </trkpt>
      <trkpt lat="43.60859" lon="2.24238">
        <ele>186.8</ele>
        <time>2023-05-27T16:23:21Z</time>
      </trkpt>
      <trkpt lat="43.60861" lon="2.24238">
        <ele>187</ele>
        <time>2023-05-27T16:23:22Z</time>
      </trkpt>
      <trkpt lat="43.60863" lon="2.24239">
        <ele>187</ele>
        <time>2023-05-27T16:23:23Z</time>
      </trkpt>
      <trkpt lat="43.60866" lon="2.2424">
        <ele>187</ele>
        <time>2023-05-27T16:23:24Z</time>
      </trkpt>
      <trkpt lat="43.60868" lon="2.24241">
        <ele>187</ele>
        <time>2023-05-27T16:23:25Z</time>
      </trkpt>
      <trkpt lat="43.6087" lon="2.24242">
        <ele>186.8</ele>
        <time>2023-05-27T16:23:26Z</time>
      </trkpt>
      <trkpt lat="43.60873" lon="2.24243">
        <ele>186.8</ele>
        <time>2023-05-27T16:23:27Z</time>
      </trkpt>
      <trkpt lat="43.60877" lon="2.24247">
        <ele>186.8</ele>
        <time>2023-05-27T16:23:28Z</time>
      </trkpt>
      <trkpt lat="43.60881" lon="2.24251">
        <ele>186.8</ele>
        <time>2023-05-27T16:23:29Z</time>
      </trkpt>
      <trkpt lat="43.60886" lon="2.24254">
        <ele>186.8</ele>
        <time>2023-05-27T16:23:30Z</time>
      </trkpt>
      <trkpt lat="43.60889" lon="2.24257">
        <ele>186.8</ele>
        <time>2023-05-27T16:23:31Z</time>
      </trkpt>
      <trkpt lat="43.60893" lon="2.24259">
        <ele>186.8</ele>
        <time>2023-05-27T16:23:32Z</time>
      </trkpt>
      <trkpt lat="43.60897" lon="2.2426">
        <ele>186.8</ele>
        <time>2023-05-27T16:23:33Z</time>
      </trkpt>
      <trkpt lat="43.60901" lon="2.24262">
        <ele>186.8</ele>
        <time>2023-05-27T16:23:34Z</time>
      </trkpt>
      <trkpt lat="43.60906" lon="2.24266">
        <ele>186.8</ele>
        <time>2023-05-27T16:23:35Z</time>
      </trkpt>
      <trkpt lat="43.60911" lon="2.24269">
        <ele>186.8</ele>
        <time>2023-05-27T16:23:36Z</time>
      </trkpt>
      <trkpt lat="43.60916" lon="2.24272">
        <ele>186.8</ele>
        <time>2023-05-27T16:23:37Z</time>
      </trkpt>
      <trkpt lat="43.60919" lon="2.24274">
        <ele>186.8</ele>
        <time>2023-05-27T16:23:38Z</time>
      </trkpt>
      <trkpt lat="43.60922" lon="2.24277">
        <ele>186.8</ele>
        <time>2023-05-27T16:23:39Z</time>
      </trkpt>
      <trkpt lat="43.60925" lon="2.24279">
        <ele>186.8</ele>
        <time>2023-05-27T16:23:40Z</time>
      </trkpt>
      <trkpt lat="43.60928" lon="2.24281">
        <ele>186.8</ele>
        <time>2023-05-27T16:23:41Z</time>
      </trkpt>
      <trkpt lat="43.60931" lon="2.24283">
        <ele>186.8</ele>
        <time>2023-05-27T16:23:42Z</time>
      </trkpt>
      <trkpt lat="43.60934" lon="2.24285">
        <ele>186.8</ele>
        <time>2023-05-27T16:23:43Z</time>
      </trkpt>
      <trkpt lat="43.60938" lon="2.24288">
        <ele>186.8</ele>
        <time>2023-05-27T16:23:44Z</time>
      </trkpt>
      <trkpt lat="43.60941" lon="2.2429">
        <ele>186.6</ele>
        <time>2023-05-27T16:23:45Z</time>
      </trkpt>
      <trkpt lat="43.60944" lon="2.24293">
        <ele>186.6</ele>
        <time>2023-05-27T16:23:46Z</time>
      </trkpt>
      <trkpt lat="43.60947" lon="2.24294">
        <ele>186.6</ele>
        <time>2023-05-27T16:23:47Z</time>
      </trkpt>
      <trkpt lat="43.6095" lon="2.24296">
        <ele>186.4</ele>
        <time>2023-05-27T16:23:48Z</time>
      </trkpt>
      <trkpt lat="43.60954" lon="2.24297">
        <ele>186.4</ele>
        <time>2023-05-27T16:23:49Z</time>
      </trkpt>
      <trkpt lat="43.60956" lon="2.24299">
        <ele>186.4</ele>
        <time>2023-05-27T16:23:50Z</time>
      </trkpt>
      <trkpt lat="43.60958" lon="2.243">
        <ele>186.2</ele>
        <time>2023-05-27T16:23:51Z</time>
      </trkpt>
      <trkpt lat="43.6096" lon="2.243">
        <ele>186.2</ele>
        <time>2023-05-27T16:23:52Z</time>
      </trkpt>
      <trkpt lat="43.6096" lon="2.24299">
        <ele>186.2</ele>
        <time>2023-05-27T16:23:53Z</time>
      </trkpt>
      <trkpt lat="43.6096" lon="2.24297">
        <ele>186.2</ele>
        <time>2023-05-27T16:23:54Z</time>
      </trkpt>
      <trkpt lat="43.6096" lon="2.24294">
        <ele>186.2</ele>
        <time>2023-05-27T16:23:55Z</time>
      </trkpt>
      <trkpt lat="43.60961" lon="2.24291">
        <ele>186.2</ele>
        <time>2023-05-27T16:23:56Z</time>
      </trkpt>
      <trkpt lat="43.60962" lon="2.24289">
        <ele>186.2</ele>
        <time>2023-05-27T16:23:57Z</time>
      </trkpt>
      <trkpt lat="43.60963" lon="2.24286">
        <ele>186.4</ele>
        <time>2023-05-27T16:23:58Z</time>
      </trkpt>
      <trkpt lat="43.60964" lon="2.24284">
        <ele>186.4</ele>
        <time>2023-05-27T16:23:59Z</time>
      </trkpt>
      <trkpt lat="43.60966" lon="2.24282">
        <ele>186.4</ele>
        <time>2023-05-27T16:24:00Z</time>
      </trkpt>
      <trkpt lat="43.60967" lon="2.2428">
        <ele>186.6</ele>
        <time>2023-05-27T16:24:01Z</time>
      </trkpt>
      <trkpt lat="43.60968" lon="2.24278">
        <ele>186.6</ele>
        <time>2023-05-27T16:24:02Z</time>
      </trkpt>
      <trkpt lat="43.60969" lon="2.24276">
        <ele>186.6</ele>
        <time>2023-05-27T16:24:03Z</time>
      </trkpt>
      <trkpt lat="43.60971" lon="2.24274">
        <ele>186.8</ele>
        <time>2023-05-27T16:24:04Z</time>
      </trkpt>
      <trkpt lat="43.60972" lon="2.24271">
        <ele>186.8</ele>
        <time>2023-05-27T16:24:05Z</time>
      </trkpt>
      <trkpt lat="43.60973" lon="2.2427">
        <ele>187</ele>
        <time>2023-05-27T16:24:06Z</time>
      </trkpt>
      <trkpt lat="43.60974" lon="2.24268">
        <ele>187</ele>
        <time>2023-05-27T16:24:07Z</time>
      </trkpt>
      <trkpt lat="43.60975" lon="2.24265">
        <ele>187</ele>
        <time>2023-05-27T16:24:08Z</time>
      </trkpt>
      <trkpt lat="43.60976" lon="2.24263">
        <ele>187.2</ele>
        <time>2023-05-27T16:24:09Z</time>
      </trkpt>
      <trkpt lat="43.60977" lon="2.2426">
        <ele>187.2</ele>
        <time>2023-05-27T16:24:10Z</time>
      </trkpt>
      <trkpt lat="43.60978" lon="2.24257">
        <ele>187.4</ele>
        <time>2023-05-27T16:24:11Z</time>
      </trkpt>
      <trkpt lat="43.60979" lon="2.24255">
        <ele>187.4</ele>
        <time>2023-05-27T16:24:12Z</time>
      </trkpt>
      <trkpt lat="43.60981" lon="2.24254">
        <ele>187.6</ele>
        <time>2023-05-27T16:24:13Z</time>
      </trkpt>
      <trkpt lat="43.60982" lon="2.24252">
        <ele>187.6</ele>
        <time>2023-05-27T16:24:14Z</time>
      </trkpt>
      <trkpt lat="43.60983" lon="2.2425">
        <ele>187.8</ele>
        <time>2023-05-27T16:24:15Z</time>
      </trkpt>
      <trkpt lat="43.60984" lon="2.24248">
        <ele>187.8</ele>
        <time>2023-05-27T16:24:16Z</time>
      </trkpt>
      <trkpt lat="43.60986" lon="2.24245">
        <ele>187.8</ele>
        <time>2023-05-27T16:24:17Z</time>
      </trkpt>
      <trkpt lat="43.60987" lon="2.24242">
        <ele>188</ele>
        <time>2023-05-27T16:24:18Z</time>
      </trkpt>
      <trkpt lat="43.60989" lon="2.2424">
        <ele>188</ele>
        <time>2023-05-27T16:24:19Z</time>
      </trkpt>
      <trkpt lat="43.60991" lon="2.24238">
        <ele>188</ele>
        <time>2023-05-27T16:24:20Z</time>
      </trkpt>
      <trkpt lat="43.60993" lon="2.24235">
        <ele>188.2</ele>
        <time>2023-05-27T16:24:21Z</time>
      </trkpt>
      <trkpt lat="43.60993" lon="2.24231">
        <ele>188.2</ele>
        <time>2023-05-27T16:24:22Z</time>
      </trkpt>
      <trkpt lat="43.60995" lon="2.24227">
        <ele>188.2</ele>
        <time>2023-05-27T16:24:23Z</time>
      </trkpt>
      <trkpt lat="43.60997" lon="2.24224">
        <ele>188.4</ele>
        <time>2023-05-27T16:24:24Z</time>
      </trkpt>
      <trkpt lat="43.60998" lon="2.2422">
        <ele>188.4</ele>
        <time>2023-05-27T16:24:25Z</time>
      </trkpt>
      <trkpt lat="43.60999" lon="2.24217">
        <ele>188.4</ele>
        <time>2023-05-27T16:24:26Z</time>
      </trkpt>
      <trkpt lat="43.61" lon="2.24214">
        <ele>188.4</ele>
        <time>2023-05-27T16:24:27Z</time>
      </trkpt>
      <trkpt lat="43.61001" lon="2.24212">
        <ele>188.4</ele>
        <time>2023-05-27T16:24:28Z</time>
      </trkpt>
      <trkpt lat="43.61003" lon="2.24209">
        <ele>188.6</ele>
        <time>2023-05-27T16:24:29Z</time>
      </trkpt>
      <trkpt lat="43.61004" lon="2.24206">
        <ele>188.6</ele>
        <time>2023-05-27T16:24:30Z</time>
      </trkpt>
      <trkpt lat="43.61006" lon="2.24203">
        <ele>188.6</ele>
        <time>2023-05-27T16:24:31Z</time>
      </trkpt>
      <trkpt lat="43.61008" lon="2.242">
        <ele>188.8</ele>
        <time>2023-05-27T16:24:32Z</time>
      </trkpt>
      <trkpt lat="43.6101" lon="2.24197">
        <ele>188.8</ele>
        <time>2023-05-27T16:24:33Z</time>
      </trkpt>
      <trkpt lat="43.61011" lon="2.24193">
        <ele>188.8</ele>
        <time>2023-05-27T16:24:34Z</time>
      </trkpt>
      <trkpt lat="43.61012" lon="2.24192">
        <ele>189</ele>
        <time>2023-05-27T16:24:35Z</time>
      </trkpt>
      <trkpt lat="43.61014" lon="2.24189">
        <ele>189</ele>
        <time>2023-05-27T16:24:36Z</time>
      </trkpt>
      <trkpt lat="43.61015" lon="2.24187">
        <ele>189</ele>
        <time>2023-05-27T16:24:37Z</time>
      </trkpt>
      <trkpt lat="43.61017" lon="2.24184">
        <ele>189</ele>
        <time>2023-05-27T16:24:38Z</time>
      </trkpt>
      <trkpt lat="43.61018" lon="2.24181">
        <ele>189.2</ele>
        <time>2023-05-27T16:24:39Z</time>
      </trkpt>
      <trkpt lat="43.6102" lon="2.24178">
        <ele>189.2</ele>
        <time>2023-05-27T16:24:40Z</time>
      </trkpt>
      <trkpt lat="43.61022" lon="2.24175">
        <ele>189.2</ele>
        <time>2023-05-27T16:24:41Z</time>
      </trkpt>
      <trkpt lat="43.61024" lon="2.24173">
        <ele>189.2</ele>
        <time>2023-05-27T16:24:42Z</time>
      </trkpt>
      <trkpt lat="43.61025" lon="2.2417">
        <ele>189.4</ele>
        <time>2023-05-27T16:24:43Z</time>
      </trkpt>
      <trkpt lat="43.61027" lon="2.24168">
        <ele>189.4</ele>
        <time>2023-05-27T16:24:44Z</time>
      </trkpt>
      <trkpt lat="43.61028" lon="2.24165">
        <ele>189.4</ele>
        <time>2023-05-27T16:24:45Z</time>
      </trkpt>
      <trkpt lat="43.61029" lon="2.24163">
        <ele>189.6</ele>
        <time>2023-05-27T16:24:46Z</time>
      </trkpt>
      <trkpt lat="43.61031" lon="2.24161">
        <ele>189.6</ele>
        <time>2023-05-27T16:24:47Z</time>
      </trkpt>
      <trkpt lat="43.61032" lon="2.2416">
        <ele>189.6</ele>
        <time>2023-05-27T16:24:48Z</time>
      </trkpt>
      <trkpt lat="43.61033" lon="2.24158">
        <ele>189.8</ele>
        <time>2023-05-27T16:24:49Z</time>
      </trkpt>
      <trkpt lat="43.61033" lon="2.24156">
        <ele>189.8</ele>
        <time>2023-05-27T16:24:50Z</time>
      </trkpt>
      <trkpt lat="43.61033" lon="2.24153">
        <ele>190</ele>
        <time>2023-05-27T16:24:51Z</time>
      </trkpt>
      <trkpt lat="43.61034" lon="2.24151">
        <ele>190</ele>
        <time>2023-05-27T16:24:52Z</time>
      </trkpt>
      <trkpt lat="43.61036" lon="2.2415">
        <ele>190</ele>
        <time>2023-05-27T16:24:53Z</time>
      </trkpt>
      <trkpt lat="43.61037" lon="2.24149">
        <ele>190.2</ele>
        <time>2023-05-27T16:24:54Z</time>
      </trkpt>
      <trkpt lat="43.6104" lon="2.24148">
        <ele>190.2</ele>
        <time>2023-05-27T16:24:55Z</time>
      </trkpt>
      <trkpt lat="43.61042" lon="2.24146">
        <ele>190.2</ele>
        <time>2023-05-27T16:24:56Z</time>
      </trkpt>
      <trkpt lat="43.61043" lon="2.24143">
        <ele>190.4</ele>
        <time>2023-05-27T16:24:57Z</time>
      </trkpt>
      <trkpt lat="43.61044" lon="2.2414">
        <ele>190.4</ele>
        <time>2023-05-27T16:24:58Z</time>
      </trkpt>
      <trkpt lat="43.61046" lon="2.24138">
        <ele>190.4</ele>
        <time>2023-05-27T16:24:59Z</time>
      </trkpt>
      <trkpt lat="43.61047" lon="2.24136">
        <ele>190.6</ele>
        <time>2023-05-27T16:25:00Z</time>
      </trkpt>
      <trkpt lat="43.61049" lon="2.24134">
        <ele>190.6</ele>
        <time>2023-05-27T16:25:01Z</time>
      </trkpt>
      <trkpt lat="43.6105" lon="2.24132">
        <ele>190.6</ele>
        <time>2023-05-27T16:25:02Z</time>
      </trkpt>
      <trkpt lat="43.61052" lon="2.24131">
        <ele>190.8</ele>
        <time>2023-05-27T16:25:03Z</time>
      </trkpt>
      <trkpt lat="43.61054" lon="2.24129">
        <ele>190.8</ele>
        <time>2023-05-27T16:25:04Z</time>
      </trkpt>
      <trkpt lat="43.61055" lon="2.24127">
        <ele>191</ele>
        <time>2023-05-27T16:25:05Z</time>
      </trkpt>
      <trkpt lat="43.61056" lon="2.24124">
        <ele>191</ele>
        <time>2023-05-27T16:25:06Z</time>
      </trkpt>
      <trkpt lat="43.61057" lon="2.24121">
        <ele>191</ele>
        <time>2023-05-27T16:25:07Z</time>
      </trkpt>
      <trkpt lat="43.61059" lon="2.24119">
        <ele>191.2</ele>
        <time>2023-05-27T16:25:08Z</time>
      </trkpt>
      <trkpt lat="43.61061" lon="2.24116">
        <ele>191.2</ele>
        <time>2023-05-27T16:25:09Z</time>
      </trkpt>
      <trkpt lat="43.61063" lon="2.24113">
        <ele>191.2</ele>
        <time>2023-05-27T16:25:10Z</time>
      </trkpt>
      <trkpt lat="43.61064" lon="2.24111">
        <ele>191.4</ele>
        <time>2023-05-27T16:25:11Z</time>
      </trkpt>
      <trkpt lat="43.61066" lon="2.24108">
        <ele>191.4</ele>
        <time>2023-05-27T16:25:12Z</time>
      </trkpt>
      <trkpt lat="43.61067" lon="2.24106">
        <ele>191.6</ele>
        <time>2023-05-27T16:25:13Z</time>
      </trkpt>
      <trkpt lat="43.61069" lon="2.24103">
        <ele>191.6</ele>
        <time>2023-05-27T16:25:14Z</time>
      </trkpt>
      <trkpt lat="43.61071" lon="2.241">
        <ele>191.8</ele>
        <time>2023-05-27T16:25:15Z</time>
      </trkpt>
      <trkpt lat="43.61073" lon="2.24098">
        <ele>191.8</ele>
        <time>2023-05-27T16:25:16Z</time>
      </trkpt>
      <trkpt lat="43.61074" lon="2.24095">
        <ele>191.8</ele>
        <time>2023-05-27T16:25:17Z</time>
      </trkpt>
      <trkpt lat="43.61076" lon="2.24091">
        <ele>192</ele>
        <time>2023-05-27T16:25:18Z</time>
      </trkpt>
      <trkpt lat="43.61077" lon="2.24089">
        <ele>192</ele>
        <time>2023-05-27T16:25:19Z</time>
      </trkpt>
      <trkpt lat="43.61078" lon="2.24086">
        <ele>192</ele>
        <time>2023-05-27T16:25:20Z</time>
      </trkpt>
      <trkpt lat="43.61079" lon="2.24083">
        <ele>192</ele>
        <time>2023-05-27T16:25:21Z</time>
      </trkpt>
      <trkpt lat="43.61081" lon="2.2408">
        <ele>192.2</ele>
        <time>2023-05-27T16:25:22Z</time>
      </trkpt>
      <trkpt lat="43.61082" lon="2.24076">
        <ele>192.2</ele>
        <time>2023-05-27T16:25:23Z</time>
      </trkpt>
      <trkpt lat="43.61083" lon="2.24072">
        <ele>192.4</ele>
        <time>2023-05-27T16:25:24Z</time>
      </trkpt>
      <trkpt lat="43.61086" lon="2.24071">
        <ele>192.4</ele>
        <time>2023-05-27T16:25:25Z</time>
      </trkpt>
      <trkpt lat="43.61087" lon="2.24068">
        <ele>192.4</ele>
        <time>2023-05-27T16:25:26Z</time>
      </trkpt>
      <trkpt lat="43.61088" lon="2.24066">
        <ele>192.6</ele>
        <time>2023-05-27T16:25:27Z</time>
      </trkpt>
      <trkpt lat="43.6109" lon="2.24064">
        <ele>192.6</ele>
        <time>2023-05-27T16:25:28Z</time>
      </trkpt>
      <trkpt lat="43.61092" lon="2.24062">
        <ele>192.6</ele>
        <time>2023-05-27T16:25:29Z</time>
      </trkpt>
      <trkpt lat="43.61093" lon="2.24061">
        <ele>192.8</ele>
        <time>2023-05-27T16:25:30Z</time>
      </trkpt>
      <trkpt lat="43.61095" lon="2.24058">
        <ele>192.8</ele>
        <time>2023-05-27T16:25:31Z</time>
      </trkpt>
      <trkpt lat="43.61096" lon="2.24056">
        <ele>192.8</ele>
        <time>2023-05-27T16:25:32Z</time>
      </trkpt>
      <trkpt lat="43.61097" lon="2.24054">
        <ele>192.8</ele>
        <time>2023-05-27T16:25:33Z</time>
      </trkpt>
      <trkpt lat="43.61099" lon="2.24052">
        <ele>193</ele>
        <time>2023-05-27T16:25:34Z</time>
      </trkpt>
      <trkpt lat="43.61101" lon="2.24049">
        <ele>193</ele>
        <time>2023-05-27T16:25:35Z</time>
      </trkpt>
      <trkpt lat="43.61102" lon="2.24047">
        <ele>193.2</ele>
        <time>2023-05-27T16:25:36Z</time>
      </trkpt>
      <trkpt lat="43.61104" lon="2.24045">
        <ele>193.2</ele>
        <time>2023-05-27T16:25:37Z</time>
      </trkpt>
      <trkpt lat="43.61105" lon="2.24043">
        <ele>193.2</ele>
        <time>2023-05-27T16:25:38Z</time>
      </trkpt>
      <trkpt lat="43.61107" lon="2.24041">
        <ele>193.4</ele>
        <time>2023-05-27T16:25:39Z</time>
      </trkpt>
      <trkpt lat="43.61107" lon="2.24038">
        <ele>193.4</ele>
        <time>2023-05-27T16:25:40Z</time>
      </trkpt>
      <trkpt lat="43.61109" lon="2.24035">
        <ele>193.6</ele>
        <time>2023-05-27T16:25:41Z</time>
      </trkpt>
      <trkpt lat="43.6111" lon="2.24033">
        <ele>193.6</ele>
        <time>2023-05-27T16:25:42Z</time>
      </trkpt>
      <trkpt lat="43.61111" lon="2.2403">
        <ele>193.6</ele>
        <time>2023-05-27T16:25:43Z</time>
      </trkpt>
      <trkpt lat="43.61113" lon="2.24028">
        <ele>193.8</ele>
        <time>2023-05-27T16:25:44Z</time>
      </trkpt>
      <trkpt lat="43.61114" lon="2.24025">
        <ele>193.8</ele>
        <time>2023-05-27T16:25:45Z</time>
      </trkpt>
      <trkpt lat="43.61116" lon="2.24023">
        <ele>193.8</ele>
        <time>2023-05-27T16:25:46Z</time>
      </trkpt>
      <trkpt lat="43.61117" lon="2.24021">
        <ele>193.8</ele>
        <time>2023-05-27T16:25:47Z</time>
      </trkpt>
      <trkpt lat="43.61119" lon="2.24019">
        <ele>194</ele>
        <time>2023-05-27T16:25:48Z</time>
      </trkpt>
      <trkpt lat="43.6112" lon="2.24018">
        <ele>194</ele>
        <time>2023-05-27T16:25:49Z</time>
      </trkpt>
      <trkpt lat="43.61121" lon="2.24016">
        <ele>194</ele>
        <time>2023-05-27T16:25:50Z</time>
      </trkpt>
      <trkpt lat="43.61123" lon="2.24013">
        <ele>194</ele>
        <time>2023-05-27T16:25:51Z</time>
      </trkpt>
      <trkpt lat="43.61124" lon="2.2401">
        <ele>194.2</ele>
        <time>2023-05-27T16:25:52Z</time>
      </trkpt>
      <trkpt lat="43.61125" lon="2.24008">
        <ele>194.2</ele>
        <time>2023-05-27T16:25:53Z</time>
      </trkpt>
      <trkpt lat="43.61127" lon="2.24005">
        <ele>194.2</ele>
        <time>2023-05-27T16:25:54Z</time>
      </trkpt>
      <trkpt lat="43.61129" lon="2.24004">
        <ele>194.4</ele>
        <time>2023-05-27T16:25:55Z</time>
      </trkpt>
      <trkpt lat="43.6113" lon="2.24003">
        <ele>194.4</ele>
        <time>2023-05-27T16:25:56Z</time>
      </trkpt>
      <trkpt lat="43.61132" lon="2.24002">
        <ele>194.4</ele>
        <time>2023-05-27T16:25:57Z</time>
      </trkpt>
      <trkpt lat="43.61134" lon="2.24002">
        <ele>194.4</ele>
        <time>2023-05-27T16:25:58Z</time>
      </trkpt>
      <trkpt lat="43.61136" lon="2.24002">
        <ele>194.6</ele>
        <time>2023-05-27T16:25:59Z</time>
      </trkpt>
      <trkpt lat="43.61138" lon="2.24003">
        <ele>194.6</ele>
        <time>2023-05-27T16:26:00Z</time>
      </trkpt>
      <trkpt lat="43.6114" lon="2.24003">
        <ele>194.6</ele>
        <time>2023-05-27T16:26:01Z</time>
      </trkpt>
      <trkpt lat="43.61143" lon="2.24004">
        <ele>194.8</ele>
        <time>2023-05-27T16:26:02Z</time>
      </trkpt>
      <trkpt lat="43.61145" lon="2.24004">
        <ele>194.8</ele>
        <time>2023-05-27T16:26:03Z</time>
      </trkpt>
      <trkpt lat="43.61147" lon="2.24004">
        <ele>194.8</ele>
        <time>2023-05-27T16:26:04Z</time>
      </trkpt>
      <trkpt lat="43.61149" lon="2.24004">
        <ele>194.8</ele>
        <time>2023-05-27T16:26:05Z</time>
      </trkpt>
      <trkpt lat="43.61151" lon="2.24004">
        <ele>195</ele>
        <time>2023-05-27T16:26:06Z</time>
      </trkpt>
      <trkpt lat="43.61153" lon="2.24004">
        <ele>195</ele>
        <time>2023-05-27T16:26:07Z</time>
      </trkpt>
      <trkpt lat="43.61155" lon="2.24003">
        <ele>195</ele>
        <time>2023-05-27T16:26:08Z</time>
      </trkpt>
      <trkpt lat="43.61158" lon="2.24003">
        <ele>195</ele>
        <time>2023-05-27T16:26:09Z</time>
      </trkpt>
      <trkpt lat="43.61161" lon="2.24003">
        <ele>195.2</ele>
        <time>2023-05-27T16:26:10Z</time>
      </trkpt>
      <trkpt lat="43.61164" lon="2.24005">
        <ele>195.2</ele>
        <time>2023-05-27T16:26:11Z</time>
      </trkpt>
      <trkpt lat="43.61167" lon="2.24006">
        <ele>195.2</ele>
        <time>2023-05-27T16:26:12Z</time>
      </trkpt>
      <trkpt lat="43.6117" lon="2.24005">
        <ele>195.2</ele>
        <time>2023-05-27T16:26:13Z</time>
      </trkpt>
      <trkpt lat="43.61173" lon="2.24005">
        <ele>195.4</ele>
        <time>2023-05-27T16:26:14Z</time>
      </trkpt>
      <trkpt lat="43.61176" lon="2.24005">
        <ele>195.4</ele>
        <time>2023-05-27T16:26:15Z</time>
      </trkpt>
      <trkpt lat="43.61179" lon="2.24006">
        <ele>195.4</ele>
        <time>2023-05-27T16:26:16Z</time>
      </trkpt>
      <trkpt lat="43.61182" lon="2.24008">
        <ele>195.6</ele>
        <time>2023-05-27T16:26:17Z</time>
      </trkpt>
      <trkpt lat="43.61184" lon="2.24009">
        <ele>195.6</ele>
        <time>2023-05-27T16:26:18Z</time>
      </trkpt>
      <trkpt lat="43.61186" lon="2.24009">
        <ele>195.6</ele>
        <time>2023-05-27T16:26:19Z</time>
      </trkpt>
      <trkpt lat="43.61189" lon="2.2401">
        <ele>195.6</ele>
        <time>2023-05-27T16:26:20Z</time>
      </trkpt>
      <trkpt lat="43.61192" lon="2.2401">
        <ele>195.8</ele>
        <time>2023-05-27T16:26:21Z</time>
      </trkpt>
      <trkpt lat="43.61194" lon="2.2401">
        <ele>195.8</ele>
        <time>2023-05-27T16:26:22Z</time>
      </trkpt>
      <trkpt lat="43.61196" lon="2.2401">
        <ele>196</ele>
        <time>2023-05-27T16:26:23Z</time>
      </trkpt>
      <trkpt lat="43.61198" lon="2.2401">
        <ele>196</ele>
        <time>2023-05-27T16:26:24Z</time>
      </trkpt>
      <trkpt lat="43.61199" lon="2.24011">
        <ele>196</ele>
        <time>2023-05-27T16:26:25Z</time>
      </trkpt>
      <trkpt lat="43.61201" lon="2.24011">
        <ele>196.2</ele>
        <time>2023-05-27T16:26:26Z</time>
      </trkpt>
      <trkpt lat="43.61202" lon="2.24011">
        <ele>196.2</ele>
        <time>2023-05-27T16:26:27Z</time>
      </trkpt>
      <trkpt lat="43.61205" lon="2.24011">
        <ele>196.4</ele>
        <time>2023-05-27T16:26:28Z</time>
      </trkpt>
      <trkpt lat="43.61208" lon="2.24011">
        <ele>196.4</ele>
        <time>2023-05-27T16:26:29Z</time>
      </trkpt>
      <trkpt lat="43.6121" lon="2.24011">
        <ele>196.6</ele>
        <time>2023-05-27T16:26:30Z</time>
      </trkpt>
      <trkpt lat="43.61212" lon="2.24011">
        <ele>196.6</ele>
        <time>2023-05-27T16:26:31Z</time>
      </trkpt>
      <trkpt lat="43.61214" lon="2.24011">
        <ele>196.8</ele>
        <time>2023-05-27T16:26:32Z</time>
      </trkpt>
      <trkpt lat="43.61215" lon="2.2401">
        <ele>196.8</ele>
        <time>2023-05-27T16:26:33Z</time>
      </trkpt>
      <trkpt lat="43.61217" lon="2.2401">
        <ele>196.8</ele>
        <time>2023-05-27T16:26:34Z</time>
      </trkpt>
      <trkpt lat="43.61219" lon="2.2401">
        <ele>197</ele>
        <time>2023-05-27T16:26:35Z</time>
      </trkpt>
      <trkpt lat="43.61221" lon="2.24011">
        <ele>197.2</ele>
        <time>2023-05-27T16:26:36Z</time>
      </trkpt>
      <trkpt lat="43.61223" lon="2.24011">
        <ele>197.2</ele>
        <time>2023-05-27T16:26:37Z</time>
      </trkpt>
      <trkpt lat="43.61225" lon="2.2401">
        <ele>197.4</ele>
        <time>2023-05-27T16:26:38Z</time>
      </trkpt>
      <trkpt lat="43.61227" lon="2.24009">
        <ele>197.4</ele>
        <time>2023-05-27T16:26:39Z</time>
      </trkpt>
      <trkpt lat="43.61229" lon="2.24009">
        <ele>197.6</ele>
        <time>2023-05-27T16:26:40Z</time>
      </trkpt>
      <trkpt lat="43.61231" lon="2.24008">
        <ele>197.6</ele>
        <time>2023-05-27T16:26:41Z</time>
      </trkpt>
      <trkpt lat="43.61233" lon="2.24008">
        <ele>197.8</ele>
        <time>2023-05-27T16:26:42Z</time>
      </trkpt>
      <trkpt lat="43.61235" lon="2.24008">
        <ele>198</ele>
        <time>2023-05-27T16:26:43Z</time>
      </trkpt>
      <trkpt lat="43.61236" lon="2.24007">
        <ele>198</ele>
        <time>2023-05-27T16:26:44Z</time>
      </trkpt>
      <trkpt lat="43.61238" lon="2.24007">
        <ele>198.2</ele>
        <time>2023-05-27T16:26:45Z</time>
      </trkpt>
      <trkpt lat="43.6124" lon="2.24006">
        <ele>198.2</ele>
        <time>2023-05-27T16:26:46Z</time>
      </trkpt>
      <trkpt lat="43.61242" lon="2.24006">
        <ele>198.4</ele>
        <time>2023-05-27T16:26:47Z</time>
      </trkpt>
      <trkpt lat="43.61244" lon="2.24007">
        <ele>198.4</ele>
        <time>2023-05-27T16:26:48Z</time>
      </trkpt>
      <trkpt lat="43.61246" lon="2.24007">
        <ele>198.6</ele>
        <time>2023-05-27T16:26:49Z</time>
      </trkpt>
      <trkpt lat="43.61248" lon="2.24007">
        <ele>198.6</ele>
        <time>2023-05-27T16:26:50Z</time>
      </trkpt>
      <trkpt lat="43.6125" lon="2.24007">
        <ele>198.8</ele>
        <time>2023-05-27T16:26:51Z</time>
      </trkpt>
      <trkpt lat="43.61252" lon="2.24007">
        <ele>199</ele>
        <time>2023-05-27T16:26:52Z</time>
      </trkpt>
      <trkpt lat="43.61254" lon="2.24006">
        <ele>199</ele>
        <time>2023-05-27T16:26:53Z</time>
      </trkpt>
      <trkpt lat="43.61255" lon="2.24006">
        <ele>199.2</ele>
        <time>2023-05-27T16:26:54Z</time>
      </trkpt>
      <trkpt lat="43.61257" lon="2.24006">
        <ele>199.2</ele>
        <time>2023-05-27T16:26:55Z</time>
      </trkpt>
      <trkpt lat="43.61259" lon="2.24007">
        <ele>199.2</ele>
        <time>2023-05-27T16:26:56Z</time>
      </trkpt>
      <trkpt lat="43.61261" lon="2.24007">
        <ele>199.4</ele>
        <time>2023-05-27T16:26:57Z</time>
      </trkpt>
      <trkpt lat="43.61262" lon="2.24006">
        <ele>199.4</ele>
        <time>2023-05-27T16:26:58Z</time>
      </trkpt>
      <trkpt lat="43.61264" lon="2.24006">
        <ele>199.6</ele>
        <time>2023-05-27T16:26:59Z</time>
      </trkpt>
      <trkpt lat="43.61266" lon="2.24006">
        <ele>199.6</ele>
        <time>2023-05-27T16:27:00Z</time>
      </trkpt>
      <trkpt lat="43.61268" lon="2.24006">
        <ele>199.8</ele>
        <time>2023-05-27T16:27:01Z</time>
      </trkpt>
      <trkpt lat="43.61269" lon="2.24005">
        <ele>199.8</ele>
        <time>2023-05-27T16:27:02Z</time>
      </trkpt>
      <trkpt lat="43.61271" lon="2.24005">
        <ele>200</ele>
        <time>2023-05-27T16:27:03Z</time>
      </trkpt>
      <trkpt lat="43.61273" lon="2.24005">
        <ele>200</ele>
        <time>2023-05-27T16:27:04Z</time>
      </trkpt>
      <trkpt lat="43.61274" lon="2.24005">
        <ele>200.2</ele>
        <time>2023-05-27T16:27:05Z</time>
      </trkpt>
      <trkpt lat="43.61275" lon="2.24004">
        <ele>200.2</ele>
        <time>2023-05-27T16:27:06Z</time>
      </trkpt>
      <trkpt lat="43.61276" lon="2.24004">
        <ele>200.4</ele>
        <time>2023-05-27T16:27:07Z</time>
      </trkpt>
      <trkpt lat="43.61278" lon="2.24003">
        <ele>200.4</ele>
        <time>2023-05-27T16:27:08Z</time>
      </trkpt>
      <trkpt lat="43.61279" lon="2.24003">
        <ele>200.6</ele>
        <time>2023-05-27T16:27:09Z</time>
      </trkpt>
      <trkpt lat="43.61281" lon="2.24003">
        <ele>200.8</ele>
        <time>2023-05-27T16:27:10Z</time>
      </trkpt>
      <trkpt lat="43.61283" lon="2.24003">
        <ele>200.8</ele>
        <time>2023-05-27T16:27:11Z</time>
      </trkpt>
      <trkpt lat="43.61285" lon="2.24003">
        <ele>201</ele>
        <time>2023-05-27T16:27:12Z</time>
      </trkpt>
      <trkpt lat="43.61287" lon="2.24003">
        <ele>201</ele>
        <time>2023-05-27T16:27:13Z</time>
      </trkpt>
      <trkpt lat="43.61288" lon="2.24002">
        <ele>201.2</ele>
        <time>2023-05-27T16:27:14Z</time>
      </trkpt>
      <trkpt lat="43.61289" lon="2.24002">
        <ele>201.4</ele>
        <time>2023-05-27T16:27:15Z</time>
      </trkpt>
      <trkpt lat="43.61291" lon="2.24002">
        <ele>201.4</ele>
        <time>2023-05-27T16:27:16Z</time>
      </trkpt>
      <trkpt lat="43.61292" lon="2.24002">
        <ele>201.6</ele>
        <time>2023-05-27T16:27:17Z</time>
      </trkpt>
      <trkpt lat="43.61294" lon="2.24001">
        <ele>201.8</ele>
        <time>2023-05-27T16:27:18Z</time>
      </trkpt>
      <trkpt lat="43.61296" lon="2.24001">
        <ele>201.8</ele>
        <time>2023-05-27T16:27:19Z</time>
      </trkpt>
      <trkpt lat="43.61298" lon="2.24001">
        <ele>202</ele>
        <time>2023-05-27T16:27:20Z</time>
      </trkpt>
      <trkpt lat="43.61299" lon="2.24">
        <ele>202</ele>
        <time>2023-05-27T16:27:21Z</time>
      </trkpt>
      <trkpt lat="43.61302" lon="2.24">
        <ele>202.2</ele>
        <time>2023-05-27T16:27:22Z</time>
      </trkpt>
      <trkpt lat="43.61303" lon="2.24">
        <ele>202.4</ele>
        <time>2023-05-27T16:27:23Z</time>
      </trkpt>
      <trkpt lat="43.61305" lon="2.24">
        <ele>202.4</ele>
        <time>2023-05-27T16:27:24Z</time>
      </trkpt>
      <trkpt lat="43.61306" lon="2.24001">
        <ele>202.6</ele>
        <time>2023-05-27T16:27:25Z</time>
      </trkpt>
      <trkpt lat="43.61308" lon="2.24001">
        <ele>202.6</ele>
        <time>2023-05-27T16:27:26Z</time>
      </trkpt>
      <trkpt lat="43.6131" lon="2.24002">
        <ele>202.8</ele>
        <time>2023-05-27T16:27:27Z</time>
      </trkpt>
      <trkpt lat="43.61312" lon="2.24001">
        <ele>203</ele>
        <time>2023-05-27T16:27:28Z</time>
      </trkpt>
      <trkpt lat="43.61314" lon="2.24001">
        <ele>203.2</ele>
        <time>2023-05-27T16:27:29Z</time>
      </trkpt>
      <trkpt lat="43.61316" lon="2.24001">
        <ele>203.4</ele>
        <time>2023-05-27T16:27:30Z</time>
      </trkpt>
      <trkpt lat="43.61318" lon="2.24001">
        <ele>203.4</ele>
        <time>2023-05-27T16:27:31Z</time>
      </trkpt>
      <trkpt lat="43.6132" lon="2.24001">
        <ele>203.6</ele>
        <time>2023-05-27T16:27:32Z</time>
      </trkpt>
      <trkpt lat="43.61322" lon="2.24">
        <ele>203.6</ele>
        <time>2023-05-27T16:27:33Z</time>
      </trkpt>
      <trkpt lat="43.61324" lon="2.24">
        <ele>203.8</ele>
        <time>2023-05-27T16:27:34Z</time>
      </trkpt>
      <trkpt lat="43.61326" lon="2.24">
        <ele>204</ele>
        <time>2023-05-27T16:27:35Z</time>
      </trkpt>
      <trkpt lat="43.61329" lon="2.24001">
        <ele>204</ele>
        <time>2023-05-27T16:27:36Z</time>
      </trkpt>
      <trkpt lat="43.6133" lon="2.24001">
        <ele>204.2</ele>
        <time>2023-05-27T16:27:37Z</time>
      </trkpt>
      <trkpt lat="43.61331" lon="2.24001">
        <ele>204.4</ele>
        <time>2023-05-27T16:27:38Z</time>
      </trkpt>
      <trkpt lat="43.61333" lon="2.24001">
        <ele>204.6</ele>
        <time>2023-05-27T16:27:39Z</time>
      </trkpt>
      <trkpt lat="43.61334" lon="2.24">
        <ele>204.6</ele>
        <time>2023-05-27T16:27:40Z</time>
      </trkpt>
      <trkpt lat="43.61336" lon="2.23998">
        <ele>204.8</ele>
        <time>2023-05-27T16:27:41Z</time>
      </trkpt>
      <trkpt lat="43.61338" lon="2.23997">
        <ele>205</ele>
        <time>2023-05-27T16:27:42Z</time>
      </trkpt>
      <trkpt lat="43.61339" lon="2.23997">
        <ele>205</ele>
        <time>2023-05-27T16:27:43Z</time>
      </trkpt>
      <trkpt lat="43.61341" lon="2.23997">
        <ele>205.2</ele>
        <time>2023-05-27T16:27:44Z</time>
      </trkpt>
      <trkpt lat="43.61343" lon="2.23998">
        <ele>205.2</ele>
        <time>2023-05-27T16:27:45Z</time>
      </trkpt>
      <trkpt lat="43.61345" lon="2.23998">
        <ele>205.4</ele>
        <time>2023-05-27T16:27:46Z</time>
      </trkpt>
      <trkpt lat="43.61346" lon="2.23998">
        <ele>205.6</ele>
        <time>2023-05-27T16:27:47Z</time>
      </trkpt>
      <trkpt lat="43.61348" lon="2.23997">
        <ele>205.8</ele>
        <time>2023-05-27T16:27:48Z</time>
      </trkpt>
      <trkpt lat="43.61349" lon="2.23997">
        <ele>205.8</ele>
        <time>2023-05-27T16:27:49Z</time>
      </trkpt>
      <trkpt lat="43.61351" lon="2.23998">
        <ele>206</ele>
        <time>2023-05-27T16:27:50Z</time>
      </trkpt>
      <trkpt lat="43.61353" lon="2.23998">
        <ele>206</ele>
        <time>2023-05-27T16:27:51Z</time>
      </trkpt>
      <trkpt lat="43.61356" lon="2.23998">
        <ele>206.2</ele>
        <time>2023-05-27T16:27:52Z</time>
      </trkpt>
      <trkpt lat="43.61358" lon="2.23998">
        <ele>206.4</ele>
        <time>2023-05-27T16:27:53Z</time>
      </trkpt>
      <trkpt lat="43.6136" lon="2.23999">
        <ele>206.4</ele>
        <time>2023-05-27T16:27:54Z</time>
      </trkpt>
      <trkpt lat="43.61362" lon="2.23999">
        <ele>206.6</ele>
        <time>2023-05-27T16:27:55Z</time>
      </trkpt>
      <trkpt lat="43.61364" lon="2.23999">
        <ele>206.8</ele>
        <time>2023-05-27T16:27:56Z</time>
      </trkpt>
      <trkpt lat="43.61366" lon="2.23999">
        <ele>206.8</ele>
        <time>2023-05-27T16:27:57Z</time>
      </trkpt>
      <trkpt lat="43.61368" lon="2.23999">
        <ele>207</ele>
        <time>2023-05-27T16:27:58Z</time>
      </trkpt>
      <trkpt lat="43.6137" lon="2.23999">
        <ele>207</ele>
        <time>2023-05-27T16:27:59Z</time>
      </trkpt>
      <trkpt lat="43.61372" lon="2.23999">
        <ele>207.2</ele>
        <time>2023-05-27T16:28:00Z</time>
      </trkpt>
      <trkpt lat="43.61373" lon="2.23999">
        <ele>207.2</ele>
        <time>2023-05-27T16:28:01Z</time>
      </trkpt>
      <trkpt lat="43.61375" lon="2.23999">
        <ele>207.4</ele>
        <time>2023-05-27T16:28:02Z</time>
      </trkpt>
      <trkpt lat="43.61378" lon="2.23999">
        <ele>207.4</ele>
        <time>2023-05-27T16:28:03Z</time>
      </trkpt>
      <trkpt lat="43.61379" lon="2.23999">
        <ele>207.4</ele>
        <time>2023-05-27T16:28:04Z</time>
      </trkpt>
      <trkpt lat="43.6138" lon="2.23999">
        <ele>207.6</ele>
        <time>2023-05-27T16:28:05Z</time>
      </trkpt>
      <trkpt lat="43.61381" lon="2.23999">
        <ele>207.6</ele>
        <time>2023-05-27T16:28:06Z</time>
      </trkpt>
      <trkpt lat="43.61383" lon="2.23999">
        <ele>207.8</ele>
        <time>2023-05-27T16:28:07Z</time>
      </trkpt>
      <trkpt lat="43.61385" lon="2.23999">
        <ele>207.8</ele>
        <time>2023-05-27T16:28:08Z</time>
      </trkpt>
      <trkpt lat="43.61386" lon="2.24">
        <ele>207.8</ele>
        <time>2023-05-27T16:28:09Z</time>
      </trkpt>
      <trkpt lat="43.61388" lon="2.24">
        <ele>207.8</ele>
        <time>2023-05-27T16:28:10Z</time>
      </trkpt>
      <trkpt lat="43.6139" lon="2.24001">
        <ele>208</ele>
        <time>2023-05-27T16:28:11Z</time>
      </trkpt>
      <trkpt lat="43.61392" lon="2.24001">
        <ele>208</ele>
        <time>2023-05-27T16:28:12Z</time>
      </trkpt>
      <trkpt lat="43.61394" lon="2.24001">
        <ele>208</ele>
        <time>2023-05-27T16:28:13Z</time>
      </trkpt>
      <trkpt lat="43.61396" lon="2.24001">
        <ele>208</ele>
        <time>2023-05-27T16:28:14Z</time>
      </trkpt>
      <trkpt lat="43.61398" lon="2.24002">
        <ele>208</ele>
        <time>2023-05-27T16:28:15Z</time>
      </trkpt>
      <trkpt lat="43.614" lon="2.24002">
        <ele>208.2</ele>
        <time>2023-05-27T16:28:16Z</time>
      </trkpt>
      <trkpt lat="43.61402" lon="2.24002">
        <ele>208.2</ele>
        <time>2023-05-27T16:28:17Z</time>
      </trkpt>
      <trkpt lat="43.61404" lon="2.24002">
        <ele>208.2</ele>
        <time>2023-05-27T16:28:18Z</time>
      </trkpt>
      <trkpt lat="43.61406" lon="2.24002">
        <ele>208.2</ele>
        <time>2023-05-27T16:28:19Z</time>
      </trkpt>
      <trkpt lat="43.61408" lon="2.24003">
        <ele>208.2</ele>
        <time>2023-05-27T16:28:20Z</time>
      </trkpt>
      <trkpt lat="43.61409" lon="2.24003">
        <ele>208.2</ele>
        <time>2023-05-27T16:28:21Z</time>
      </trkpt>
      <trkpt lat="43.61411" lon="2.24003">
        <ele>208.4</ele>
        <time>2023-05-27T16:28:22Z</time>
      </trkpt>
      <trkpt lat="43.61413" lon="2.24003">
        <ele>208.4</ele>
        <time>2023-05-27T16:28:23Z</time>
      </trkpt>
      <trkpt lat="43.61415" lon="2.24003">
        <ele>208.4</ele>
        <time>2023-05-27T16:28:24Z</time>
      </trkpt>
      <trkpt lat="43.61416" lon="2.24003">
        <ele>208.4</ele>
        <time>2023-05-27T16:28:25Z</time>
      </trkpt>
      <trkpt lat="43.61418" lon="2.24003">
        <ele>208.4</ele>
        <time>2023-05-27T16:28:26Z</time>
      </trkpt>
      <trkpt lat="43.61419" lon="2.24002">
        <ele>208.4</ele>
        <time>2023-05-27T16:28:27Z</time>
      </trkpt>
      <trkpt lat="43.61421" lon="2.24002">
        <ele>208.4</ele>
        <time>2023-05-27T16:28:28Z</time>
      </trkpt>
      <trkpt lat="43.61423" lon="2.24002">
        <ele>208.4</ele>
        <time>2023-05-27T16:28:29Z</time>
      </trkpt>
      <trkpt lat="43.61425" lon="2.24002">
        <ele>208.4</ele>
        <time>2023-05-27T16:28:30Z</time>
      </trkpt>
      <trkpt lat="43.61427" lon="2.24002">
        <ele>208.4</ele>
        <time>2023-05-27T16:28:31Z</time>
      </trkpt>
      <trkpt lat="43.61429" lon="2.24003">
        <ele>208.6</ele>
        <time>2023-05-27T16:28:32Z</time>
      </trkpt>
      <trkpt lat="43.61431" lon="2.24003">
        <ele>208.6</ele>
        <time>2023-05-27T16:28:33Z</time>
      </trkpt>
      <trkpt lat="43.61433" lon="2.24003">
        <ele>208.6</ele>
        <time>2023-05-27T16:28:34Z</time>
      </trkpt>
      <trkpt lat="43.61435" lon="2.24003">
        <ele>208.6</ele>
        <time>2023-05-27T16:28:35Z</time>
      </trkpt>
      <trkpt lat="43.61437" lon="2.24003">
        <ele>208.6</ele>
        <time>2023-05-27T16:28:36Z</time>
      </trkpt>
      <trkpt lat="43.61439" lon="2.24002">
        <ele>208.6</ele>
        <time>2023-05-27T16:28:37Z</time>
      </trkpt>
      <trkpt lat="43.61441" lon="2.24001">
        <ele>208.6</ele>
        <time>2023-05-27T16:28:38Z</time>
      </trkpt>
      <trkpt lat="43.61443" lon="2.24">
        <ele>208.6</ele>
        <time>2023-05-27T16:28:39Z</time>
      </trkpt>
      <trkpt lat="43.61444" lon="2.23999">
        <ele>208.6</ele>
        <time>2023-05-27T16:28:40Z</time>
      </trkpt>
      <trkpt lat="43.61445" lon="2.23997">
        <ele>208.6</ele>
        <time>2023-05-27T16:28:41Z</time>
      </trkpt>
      <trkpt lat="43.61446" lon="2.23995">
        <ele>208.6</ele>
        <time>2023-05-27T16:28:42Z</time>
      </trkpt>
      <trkpt lat="43.61446" lon="2.23993">
        <ele>208.6</ele>
        <time>2023-05-27T16:28:43Z</time>
      </trkpt>
      <trkpt lat="43.61447" lon="2.23992">
        <ele>208.8</ele>
        <time>2023-05-27T16:28:44Z</time>
      </trkpt>
      <trkpt lat="43.61447" lon="2.2399">
        <ele>208.8</ele>
        <time>2023-05-27T16:28:45Z</time>
      </trkpt>
      <trkpt lat="43.61447" lon="2.23988">
        <ele>208.8</ele>
        <time>2023-05-27T16:28:46Z</time>
      </trkpt>
      <trkpt lat="43.61448" lon="2.23985">
        <ele>209</ele>
        <time>2023-05-27T16:28:47Z</time>
      </trkpt>
      <trkpt lat="43.61449" lon="2.23983">
        <ele>209</ele>
        <time>2023-05-27T16:28:48Z</time>
      </trkpt>
      <trkpt lat="43.61449" lon="2.23981">
        <ele>209</ele>
        <time>2023-05-27T16:28:49Z</time>
      </trkpt>
      <trkpt lat="43.6145" lon="2.23979">
        <ele>209.2</ele>
        <time>2023-05-27T16:28:50Z</time>
      </trkpt>
      <trkpt lat="43.61451" lon="2.23977">
        <ele>209.2</ele>
        <time>2023-05-27T16:28:51Z</time>
      </trkpt>
      <trkpt lat="43.61451" lon="2.23976">
        <ele>209.4</ele>
        <time>2023-05-27T16:28:52Z</time>
      </trkpt>
      <trkpt lat="43.61452" lon="2.23974">
        <ele>209.4</ele>
        <time>2023-05-27T16:28:53Z</time>
      </trkpt>
      <trkpt lat="43.61453" lon="2.23972">
        <ele>209.4</ele>
        <time>2023-05-27T16:28:54Z</time>
      </trkpt>
      <trkpt lat="43.61453" lon="2.23969">
        <ele>209.4</ele>
        <time>2023-05-27T16:28:55Z</time>
      </trkpt>
      <trkpt lat="43.61454" lon="2.23967">
        <ele>209.6</ele>
        <time>2023-05-27T16:28:56Z</time>
      </trkpt>
      <trkpt lat="43.61455" lon="2.23965">
        <ele>209.6</ele>
        <time>2023-05-27T16:28:57Z</time>
      </trkpt>
      <trkpt lat="43.61455" lon="2.23962">
        <ele>209.6</ele>
        <time>2023-05-27T16:28:58Z</time>
      </trkpt>
      <trkpt lat="43.61456" lon="2.23959">
        <ele>209.6</ele>
        <time>2023-05-27T16:28:59Z</time>
      </trkpt>
      <trkpt lat="43.61457" lon="2.23956">
        <ele>209.6</ele>
        <time>2023-05-27T16:29:00Z</time>
      </trkpt>
      <trkpt lat="43.61458" lon="2.23954">
        <ele>209.6</ele>
        <time>2023-05-27T16:29:01Z</time>
      </trkpt>
      <trkpt lat="43.61459" lon="2.23951">
        <ele>209.6</ele>
        <time>2023-05-27T16:29:02Z</time>
      </trkpt>
      <trkpt lat="43.61459" lon="2.23948">
        <ele>209.6</ele>
        <time>2023-05-27T16:29:03Z</time>
      </trkpt>
      <trkpt lat="43.6146" lon="2.23946">
        <ele>209.6</ele>
        <time>2023-05-27T16:29:04Z</time>
      </trkpt>
      <trkpt lat="43.61461" lon="2.23943">
        <ele>209.6</ele>
        <time>2023-05-27T16:29:05Z</time>
      </trkpt>
      <trkpt lat="43.61462" lon="2.23941">
        <ele>209.6</ele>
        <time>2023-05-27T16:29:06Z</time>
      </trkpt>
      <trkpt lat="43.61463" lon="2.23939">
        <ele>209.6</ele>
        <time>2023-05-27T16:29:07Z</time>
      </trkpt>
      <trkpt lat="43.61464" lon="2.23937">
        <ele>209.6</ele>
        <time>2023-05-27T16:29:08Z</time>
      </trkpt>
      <trkpt lat="43.61465" lon="2.23935">
        <ele>209.6</ele>
        <time>2023-05-27T16:29:09Z</time>
      </trkpt>
      <trkpt lat="43.61466" lon="2.23934">
        <ele>209.6</ele>
        <time>2023-05-27T16:29:10Z</time>
      </trkpt>
      <trkpt lat="43.61467" lon="2.23934">
        <ele>209.6</ele>
        <time>2023-05-27T16:29:11Z</time>
      </trkpt>
    </trkseg>
  </trk>
</gpx>